<?xml version="1.0" encoding="UTF-8"?>
<gpx version="1.1" creator="https://www.youtrack.es" xsi:schemaLocation="http://www.topografix.com/GPX/1/1 http://www.topografix.com/GPX/1/1/gpx.xsd http://www.garmin.com/xmlschemas/GpxExtensions/v3 http://www.garmin.com/xmlschemas/GpxExtensionsv3.xsd http://www.garmin.com/xmlschemas/TrackPointExtension/v1 http://www.garmin.com/xmlschemas/TrackPointExtensionv1.xsd" xmlns:gpxtpx="http://www.garmin.com/xmlschemas/TrackPointExtension/v1" xmlns:gpxx="http://www.garmin.com/xmlschemas/GpxExtensions/v3" xmlns:xsi="http://www.w3.org/2001/XMLSchema-instance">
  <metadata>
    <link href="https://www.youtrack.es">
      <text>YouTrack.es</text>
    </link>
    <time>2026-05-08T22:46:59Z</time>
  </metadata>
  <trk>
    <src>https://www.youtrack.es</src>
    <link href="https://www.youtrack.es/ruta/26017-02-24-de-junio--llegada-a-troyes">
      <text>YouTrack.es</text>
    </link>
    <trkseg>
      <trkpt lat="43.308510" lon="-1.977080">
        <time>2017-06-24T06:55:10Z</time>
      </trkpt>
      <trkpt lat="43.308510" lon="-1.977080">
        <time>2017-06-24T06:55:11Z</time>
      </trkpt>
      <trkpt lat="43.308510" lon="-1.977080">
        <time>2017-06-24T06:55:12Z</time>
      </trkpt>
      <trkpt lat="43.308510" lon="-1.977080">
        <time>2017-06-24T06:55:13Z</time>
      </trkpt>
      <trkpt lat="43.308510" lon="-1.977080">
        <time>2017-06-24T06:55:14Z</time>
      </trkpt>
      <trkpt lat="43.308510" lon="-1.977080">
        <time>2017-06-24T06:55:15Z</time>
      </trkpt>
      <trkpt lat="43.308510" lon="-1.977080">
        <time>2017-06-24T06:55:16Z</time>
      </trkpt>
      <trkpt lat="43.308510" lon="-1.977080">
        <time>2017-06-24T06:55:17Z</time>
      </trkpt>
      <trkpt lat="43.308510" lon="-1.977080">
        <time>2017-06-24T06:55:18Z</time>
      </trkpt>
      <trkpt lat="43.308510" lon="-1.977080">
        <time>2017-06-24T06:55:19Z</time>
      </trkpt>
      <trkpt lat="43.308510" lon="-1.977080">
        <time>2017-06-24T06:55:20Z</time>
      </trkpt>
      <trkpt lat="43.308510" lon="-1.977080">
        <time>2017-06-24T06:55:21Z</time>
      </trkpt>
      <trkpt lat="43.308510" lon="-1.977080">
        <time>2017-06-24T06:55:22Z</time>
      </trkpt>
      <trkpt lat="43.308510" lon="-1.977080">
        <time>2017-06-24T06:55:23Z</time>
      </trkpt>
      <trkpt lat="43.308510" lon="-1.977080">
        <time>2017-06-24T06:55:24Z</time>
      </trkpt>
      <trkpt lat="43.308510" lon="-1.977080">
        <time>2017-06-24T06:55:25Z</time>
      </trkpt>
      <trkpt lat="43.308510" lon="-1.977080">
        <time>2017-06-24T06:55:26Z</time>
      </trkpt>
      <trkpt lat="43.308510" lon="-1.977080">
        <time>2017-06-24T06:55:27Z</time>
      </trkpt>
      <trkpt lat="43.308510" lon="-1.977080">
        <time>2017-06-24T06:55:28Z</time>
      </trkpt>
      <trkpt lat="43.308510" lon="-1.977080">
        <time>2017-06-24T06:55:29Z</time>
      </trkpt>
      <trkpt lat="43.308510" lon="-1.977080">
        <time>2017-06-24T06:55:30Z</time>
      </trkpt>
      <trkpt lat="43.308510" lon="-1.977080">
        <time>2017-06-24T06:55:31Z</time>
      </trkpt>
      <trkpt lat="43.308510" lon="-1.977080">
        <time>2017-06-24T06:55:32Z</time>
      </trkpt>
      <trkpt lat="43.308510" lon="-1.977080">
        <time>2017-06-24T06:55:33Z</time>
      </trkpt>
      <trkpt lat="43.308510" lon="-1.977090">
        <time>2017-06-24T06:55:34Z</time>
      </trkpt>
      <trkpt lat="43.308520" lon="-1.977070">
        <time>2017-06-24T06:55:35Z</time>
      </trkpt>
      <trkpt lat="43.308540" lon="-1.977020">
        <time>2017-06-24T06:55:36Z</time>
      </trkpt>
      <trkpt lat="43.308590" lon="-1.976940">
        <time>2017-06-24T06:55:37Z</time>
      </trkpt>
      <trkpt lat="43.308650" lon="-1.976840">
        <time>2017-06-24T06:55:38Z</time>
      </trkpt>
      <trkpt lat="43.308700" lon="-1.976730">
        <time>2017-06-24T06:55:39Z</time>
      </trkpt>
      <trkpt lat="43.308760" lon="-1.976630">
        <time>2017-06-24T06:55:40Z</time>
      </trkpt>
      <trkpt lat="43.308770" lon="-1.976510">
        <time>2017-06-24T06:55:41Z</time>
      </trkpt>
      <trkpt lat="43.308770" lon="-1.976390">
        <time>2017-06-24T06:55:42Z</time>
      </trkpt>
      <trkpt lat="43.308750" lon="-1.976250">
        <time>2017-06-24T06:55:43Z</time>
      </trkpt>
      <trkpt lat="43.308680" lon="-1.976140">
        <time>2017-06-24T06:55:44Z</time>
      </trkpt>
      <trkpt lat="43.308610" lon="-1.976010">
        <time>2017-06-24T06:55:45Z</time>
      </trkpt>
      <trkpt lat="43.308540" lon="-1.975850">
        <time>2017-06-24T06:55:46Z</time>
      </trkpt>
      <trkpt lat="43.308460" lon="-1.975690">
        <time>2017-06-24T06:55:47Z</time>
      </trkpt>
      <trkpt lat="43.308380" lon="-1.975520">
        <time>2017-06-24T06:55:48Z</time>
      </trkpt>
      <trkpt lat="43.308320" lon="-1.975370">
        <time>2017-06-24T06:55:49Z</time>
      </trkpt>
      <trkpt lat="43.308240" lon="-1.975210">
        <time>2017-06-24T06:55:50Z</time>
      </trkpt>
      <trkpt lat="43.308180" lon="-1.975020">
        <time>2017-06-24T06:55:51Z</time>
      </trkpt>
      <trkpt lat="43.308120" lon="-1.974850">
        <time>2017-06-24T06:55:52Z</time>
      </trkpt>
      <trkpt lat="43.308060" lon="-1.974670">
        <time>2017-06-24T06:55:53Z</time>
      </trkpt>
      <trkpt lat="43.308000" lon="-1.974460">
        <time>2017-06-24T06:55:54Z</time>
      </trkpt>
      <trkpt lat="43.307940" lon="-1.974290">
        <time>2017-06-24T06:55:55Z</time>
      </trkpt>
      <trkpt lat="43.307860" lon="-1.974090">
        <time>2017-06-24T06:55:56Z</time>
      </trkpt>
      <trkpt lat="43.307790" lon="-1.973930">
        <time>2017-06-24T06:55:57Z</time>
      </trkpt>
      <trkpt lat="43.307730" lon="-1.973760">
        <time>2017-06-24T06:55:58Z</time>
      </trkpt>
      <trkpt lat="43.307660" lon="-1.973580">
        <time>2017-06-24T06:55:59Z</time>
      </trkpt>
      <trkpt lat="43.307600" lon="-1.973450">
        <time>2017-06-24T06:56:00Z</time>
      </trkpt>
      <trkpt lat="43.307540" lon="-1.973330">
        <time>2017-06-24T06:56:01Z</time>
      </trkpt>
      <trkpt lat="43.307460" lon="-1.973240">
        <time>2017-06-24T06:56:02Z</time>
      </trkpt>
      <trkpt lat="43.307370" lon="-1.973190">
        <time>2017-06-24T06:56:03Z</time>
      </trkpt>
      <trkpt lat="43.307280" lon="-1.973170">
        <time>2017-06-24T06:56:04Z</time>
      </trkpt>
      <trkpt lat="43.307190" lon="-1.973220">
        <time>2017-06-24T06:56:05Z</time>
      </trkpt>
      <trkpt lat="43.307140" lon="-1.973310">
        <time>2017-06-24T06:56:06Z</time>
      </trkpt>
      <trkpt lat="43.307110" lon="-1.973430">
        <time>2017-06-24T06:56:07Z</time>
      </trkpt>
      <trkpt lat="43.307130" lon="-1.973540">
        <time>2017-06-24T06:56:08Z</time>
      </trkpt>
      <trkpt lat="43.307180" lon="-1.973650">
        <time>2017-06-24T06:56:09Z</time>
      </trkpt>
      <trkpt lat="43.307260" lon="-1.973730">
        <time>2017-06-24T06:56:10Z</time>
      </trkpt>
      <trkpt lat="43.307340" lon="-1.973750">
        <time>2017-06-24T06:56:11Z</time>
      </trkpt>
      <trkpt lat="43.307440" lon="-1.973720">
        <time>2017-06-24T06:56:12Z</time>
      </trkpt>
      <trkpt lat="43.307520" lon="-1.973650">
        <time>2017-06-24T06:56:13Z</time>
      </trkpt>
      <trkpt lat="43.307610" lon="-1.973570">
        <time>2017-06-24T06:56:14Z</time>
      </trkpt>
      <trkpt lat="43.307710" lon="-1.973480">
        <time>2017-06-24T06:56:15Z</time>
      </trkpt>
      <trkpt lat="43.307810" lon="-1.973410">
        <time>2017-06-24T06:56:16Z</time>
      </trkpt>
      <trkpt lat="43.307930" lon="-1.973340">
        <time>2017-06-24T06:56:17Z</time>
      </trkpt>
      <trkpt lat="43.308040" lon="-1.973280">
        <time>2017-06-24T06:56:18Z</time>
      </trkpt>
      <trkpt lat="43.308160" lon="-1.973230">
        <time>2017-06-24T06:56:19Z</time>
      </trkpt>
      <trkpt lat="43.308280" lon="-1.973190">
        <time>2017-06-24T06:56:20Z</time>
      </trkpt>
      <trkpt lat="43.308380" lon="-1.973160">
        <time>2017-06-24T06:56:21Z</time>
      </trkpt>
      <trkpt lat="43.308470" lon="-1.973150">
        <time>2017-06-24T06:56:22Z</time>
      </trkpt>
      <trkpt lat="43.308560" lon="-1.973140">
        <time>2017-06-24T06:56:23Z</time>
      </trkpt>
      <trkpt lat="43.308620" lon="-1.973140">
        <time>2017-06-24T06:56:24Z</time>
      </trkpt>
      <trkpt lat="43.308660" lon="-1.973140">
        <time>2017-06-24T06:56:25Z</time>
      </trkpt>
      <trkpt lat="43.308710" lon="-1.973140">
        <time>2017-06-24T06:56:26Z</time>
      </trkpt>
      <trkpt lat="43.308730" lon="-1.973140">
        <time>2017-06-24T06:56:27Z</time>
      </trkpt>
      <trkpt lat="43.308740" lon="-1.973140">
        <time>2017-06-24T06:56:28Z</time>
      </trkpt>
      <trkpt lat="43.308740" lon="-1.973140">
        <time>2017-06-24T06:56:29Z</time>
      </trkpt>
      <trkpt lat="43.308740" lon="-1.973140">
        <time>2017-06-24T06:56:30Z</time>
      </trkpt>
      <trkpt lat="43.308740" lon="-1.973140">
        <time>2017-06-24T06:56:31Z</time>
      </trkpt>
      <trkpt lat="43.308740" lon="-1.973140">
        <time>2017-06-24T06:56:32Z</time>
      </trkpt>
      <trkpt lat="43.308740" lon="-1.973140">
        <time>2017-06-24T06:56:33Z</time>
      </trkpt>
      <trkpt lat="43.308740" lon="-1.973140">
        <time>2017-06-24T06:56:34Z</time>
      </trkpt>
      <trkpt lat="43.308740" lon="-1.973140">
        <time>2017-06-24T06:56:35Z</time>
      </trkpt>
      <trkpt lat="43.308740" lon="-1.973140">
        <time>2017-06-24T06:56:36Z</time>
      </trkpt>
      <trkpt lat="43.308740" lon="-1.973140">
        <time>2017-06-24T06:56:37Z</time>
      </trkpt>
      <trkpt lat="43.308740" lon="-1.973140">
        <time>2017-06-24T06:56:38Z</time>
      </trkpt>
      <trkpt lat="43.308740" lon="-1.973140">
        <time>2017-06-24T06:56:39Z</time>
      </trkpt>
      <trkpt lat="43.308740" lon="-1.973150">
        <time>2017-06-24T06:56:40Z</time>
      </trkpt>
      <trkpt lat="43.308770" lon="-1.973160">
        <time>2017-06-24T06:56:41Z</time>
      </trkpt>
      <trkpt lat="43.308830" lon="-1.973180">
        <time>2017-06-24T06:56:42Z</time>
      </trkpt>
      <trkpt lat="43.308900" lon="-1.973180">
        <time>2017-06-24T06:56:43Z</time>
      </trkpt>
      <trkpt lat="43.308990" lon="-1.973190">
        <time>2017-06-24T06:56:44Z</time>
      </trkpt>
      <trkpt lat="43.309070" lon="-1.973190">
        <time>2017-06-24T06:56:45Z</time>
      </trkpt>
      <trkpt lat="43.309170" lon="-1.973200">
        <time>2017-06-24T06:56:46Z</time>
      </trkpt>
      <trkpt lat="43.309280" lon="-1.973210">
        <time>2017-06-24T06:56:47Z</time>
      </trkpt>
      <trkpt lat="43.309380" lon="-1.973220">
        <time>2017-06-24T06:56:48Z</time>
      </trkpt>
      <trkpt lat="43.309500" lon="-1.973230">
        <time>2017-06-24T06:56:49Z</time>
      </trkpt>
      <trkpt lat="43.309630" lon="-1.973240">
        <time>2017-06-24T06:56:50Z</time>
      </trkpt>
      <trkpt lat="43.309760" lon="-1.973250">
        <time>2017-06-24T06:56:51Z</time>
      </trkpt>
      <trkpt lat="43.309900" lon="-1.973260">
        <time>2017-06-24T06:56:52Z</time>
      </trkpt>
      <trkpt lat="43.310030" lon="-1.973260">
        <time>2017-06-24T06:56:53Z</time>
      </trkpt>
      <trkpt lat="43.310160" lon="-1.973270">
        <time>2017-06-24T06:56:54Z</time>
      </trkpt>
      <trkpt lat="43.310310" lon="-1.973270">
        <time>2017-06-24T06:56:55Z</time>
      </trkpt>
      <trkpt lat="43.310440" lon="-1.973290">
        <time>2017-06-24T06:56:56Z</time>
      </trkpt>
      <trkpt lat="43.310580" lon="-1.973300">
        <time>2017-06-24T06:56:57Z</time>
      </trkpt>
      <trkpt lat="43.310720" lon="-1.973310">
        <time>2017-06-24T06:56:58Z</time>
      </trkpt>
      <trkpt lat="43.310840" lon="-1.973330">
        <time>2017-06-24T06:56:59Z</time>
      </trkpt>
      <trkpt lat="43.310980" lon="-1.973340">
        <time>2017-06-24T06:57:00Z</time>
      </trkpt>
      <trkpt lat="43.311100" lon="-1.973370">
        <time>2017-06-24T06:57:01Z</time>
      </trkpt>
      <trkpt lat="43.311240" lon="-1.973380">
        <time>2017-06-24T06:57:02Z</time>
      </trkpt>
      <trkpt lat="43.311380" lon="-1.973400">
        <time>2017-06-24T06:57:03Z</time>
      </trkpt>
      <trkpt lat="43.311510" lon="-1.973410">
        <time>2017-06-24T06:57:04Z</time>
      </trkpt>
      <trkpt lat="43.311640" lon="-1.973420">
        <time>2017-06-24T06:57:05Z</time>
      </trkpt>
      <trkpt lat="43.311770" lon="-1.973430">
        <time>2017-06-24T06:57:06Z</time>
      </trkpt>
      <trkpt lat="43.311890" lon="-1.973430">
        <time>2017-06-24T06:57:07Z</time>
      </trkpt>
      <trkpt lat="43.312020" lon="-1.973430">
        <time>2017-06-24T06:57:08Z</time>
      </trkpt>
      <trkpt lat="43.312130" lon="-1.973440">
        <time>2017-06-24T06:57:09Z</time>
      </trkpt>
      <trkpt lat="43.312250" lon="-1.973450">
        <time>2017-06-24T06:57:10Z</time>
      </trkpt>
      <trkpt lat="43.312380" lon="-1.973460">
        <time>2017-06-24T06:57:11Z</time>
      </trkpt>
      <trkpt lat="43.312500" lon="-1.973470">
        <time>2017-06-24T06:57:12Z</time>
      </trkpt>
      <trkpt lat="43.312620" lon="-1.973480">
        <time>2017-06-24T06:57:13Z</time>
      </trkpt>
      <trkpt lat="43.312770" lon="-1.973470">
        <time>2017-06-24T06:57:14Z</time>
      </trkpt>
      <trkpt lat="43.312890" lon="-1.973470">
        <time>2017-06-24T06:57:15Z</time>
      </trkpt>
      <trkpt lat="43.313040" lon="-1.973440">
        <time>2017-06-24T06:57:16Z</time>
      </trkpt>
      <trkpt lat="43.313180" lon="-1.973390">
        <time>2017-06-24T06:57:17Z</time>
      </trkpt>
      <trkpt lat="43.313320" lon="-1.973310">
        <time>2017-06-24T06:57:18Z</time>
      </trkpt>
      <trkpt lat="43.313460" lon="-1.973190">
        <time>2017-06-24T06:57:19Z</time>
      </trkpt>
      <trkpt lat="43.313580" lon="-1.973060">
        <time>2017-06-24T06:57:20Z</time>
      </trkpt>
      <trkpt lat="43.313690" lon="-1.972890">
        <time>2017-06-24T06:57:21Z</time>
      </trkpt>
      <trkpt lat="43.313770" lon="-1.972710">
        <time>2017-06-24T06:57:22Z</time>
      </trkpt>
      <trkpt lat="43.313830" lon="-1.972510">
        <time>2017-06-24T06:57:23Z</time>
      </trkpt>
      <trkpt lat="43.313880" lon="-1.972280">
        <time>2017-06-24T06:57:24Z</time>
      </trkpt>
      <trkpt lat="43.313910" lon="-1.972090">
        <time>2017-06-24T06:57:25Z</time>
      </trkpt>
      <trkpt lat="43.313930" lon="-1.971870">
        <time>2017-06-24T06:57:26Z</time>
      </trkpt>
      <trkpt lat="43.313940" lon="-1.971640">
        <time>2017-06-24T06:57:27Z</time>
      </trkpt>
      <trkpt lat="43.313920" lon="-1.971440">
        <time>2017-06-24T06:57:28Z</time>
      </trkpt>
      <trkpt lat="43.313870" lon="-1.971220">
        <time>2017-06-24T06:57:29Z</time>
      </trkpt>
      <trkpt lat="43.313790" lon="-1.971010">
        <time>2017-06-24T06:57:30Z</time>
      </trkpt>
      <trkpt lat="43.313690" lon="-1.970840">
        <time>2017-06-24T06:57:31Z</time>
      </trkpt>
      <trkpt lat="43.313550" lon="-1.970690">
        <time>2017-06-24T06:57:32Z</time>
      </trkpt>
      <trkpt lat="43.313410" lon="-1.970590">
        <time>2017-06-24T06:57:33Z</time>
      </trkpt>
      <trkpt lat="43.313260" lon="-1.970500">
        <time>2017-06-24T06:57:34Z</time>
      </trkpt>
      <trkpt lat="43.313100" lon="-1.970410">
        <time>2017-06-24T06:57:35Z</time>
      </trkpt>
      <trkpt lat="43.312960" lon="-1.970300">
        <time>2017-06-24T06:57:36Z</time>
      </trkpt>
      <trkpt lat="43.312830" lon="-1.970160">
        <time>2017-06-24T06:57:37Z</time>
      </trkpt>
      <trkpt lat="43.312740" lon="-1.969980">
        <time>2017-06-24T06:57:38Z</time>
      </trkpt>
      <trkpt lat="43.312680" lon="-1.969790">
        <time>2017-06-24T06:57:39Z</time>
      </trkpt>
      <trkpt lat="43.312650" lon="-1.969560">
        <time>2017-06-24T06:57:40Z</time>
      </trkpt>
      <trkpt lat="43.312660" lon="-1.969350">
        <time>2017-06-24T06:57:41Z</time>
      </trkpt>
      <trkpt lat="43.312700" lon="-1.969120">
        <time>2017-06-24T06:57:42Z</time>
      </trkpt>
      <trkpt lat="43.312750" lon="-1.968880">
        <time>2017-06-24T06:57:43Z</time>
      </trkpt>
      <trkpt lat="43.312830" lon="-1.968660">
        <time>2017-06-24T06:57:44Z</time>
      </trkpt>
      <trkpt lat="43.312920" lon="-1.968430">
        <time>2017-06-24T06:57:45Z</time>
      </trkpt>
      <trkpt lat="43.313010" lon="-1.968190">
        <time>2017-06-24T06:57:46Z</time>
      </trkpt>
      <trkpt lat="43.313110" lon="-1.967980">
        <time>2017-06-24T06:57:47Z</time>
      </trkpt>
      <trkpt lat="43.313230" lon="-1.967750">
        <time>2017-06-24T06:57:48Z</time>
      </trkpt>
      <trkpt lat="43.313350" lon="-1.967540">
        <time>2017-06-24T06:57:49Z</time>
      </trkpt>
      <trkpt lat="43.313490" lon="-1.967310">
        <time>2017-06-24T06:57:50Z</time>
      </trkpt>
      <trkpt lat="43.313640" lon="-1.967070">
        <time>2017-06-24T06:57:51Z</time>
      </trkpt>
      <trkpt lat="43.313780" lon="-1.966860">
        <time>2017-06-24T06:57:52Z</time>
      </trkpt>
      <trkpt lat="43.313930" lon="-1.966630">
        <time>2017-06-24T06:57:53Z</time>
      </trkpt>
      <trkpt lat="43.314070" lon="-1.966400">
        <time>2017-06-24T06:57:54Z</time>
      </trkpt>
      <trkpt lat="43.314210" lon="-1.966160">
        <time>2017-06-24T06:57:55Z</time>
      </trkpt>
      <trkpt lat="43.314370" lon="-1.965900">
        <time>2017-06-24T06:57:56Z</time>
      </trkpt>
      <trkpt lat="43.314500" lon="-1.965660">
        <time>2017-06-24T06:57:57Z</time>
      </trkpt>
      <trkpt lat="43.314640" lon="-1.965420">
        <time>2017-06-24T06:57:58Z</time>
      </trkpt>
      <trkpt lat="43.314780" lon="-1.965150">
        <time>2017-06-24T06:57:59Z</time>
      </trkpt>
      <trkpt lat="43.315960" lon="-1.963220">
        <time>2017-06-24T06:58:07Z</time>
      </trkpt>
      <trkpt lat="43.316090" lon="-1.963000">
        <time>2017-06-24T06:58:08Z</time>
      </trkpt>
      <trkpt lat="43.316120" lon="-1.962590">
        <time>2017-06-24T06:58:09Z</time>
      </trkpt>
      <trkpt lat="43.316120" lon="-1.962380">
        <time>2017-06-24T06:58:10Z</time>
      </trkpt>
      <trkpt lat="43.316140" lon="-1.962060">
        <time>2017-06-24T06:58:11Z</time>
      </trkpt>
      <trkpt lat="43.316180" lon="-1.961720">
        <time>2017-06-24T06:58:12Z</time>
      </trkpt>
      <trkpt lat="43.316180" lon="-1.961410">
        <time>2017-06-24T06:58:13Z</time>
      </trkpt>
      <trkpt lat="43.316180" lon="-1.961080">
        <time>2017-06-24T06:58:14Z</time>
      </trkpt>
      <trkpt lat="43.316170" lon="-1.960730">
        <time>2017-06-24T06:58:15Z</time>
      </trkpt>
      <trkpt lat="43.316130" lon="-1.960410">
        <time>2017-06-24T06:58:16Z</time>
      </trkpt>
      <trkpt lat="43.316090" lon="-1.960080">
        <time>2017-06-24T06:58:17Z</time>
      </trkpt>
      <trkpt lat="43.316020" lon="-1.959730">
        <time>2017-06-24T06:58:18Z</time>
      </trkpt>
      <trkpt lat="43.315950" lon="-1.959430">
        <time>2017-06-24T06:58:19Z</time>
      </trkpt>
      <trkpt lat="43.315850" lon="-1.959090">
        <time>2017-06-24T06:58:20Z</time>
      </trkpt>
      <trkpt lat="43.315740" lon="-1.958810">
        <time>2017-06-24T06:58:21Z</time>
      </trkpt>
      <trkpt lat="43.315610" lon="-1.958520">
        <time>2017-06-24T06:58:22Z</time>
      </trkpt>
      <trkpt lat="43.315480" lon="-1.958210">
        <time>2017-06-24T06:58:23Z</time>
      </trkpt>
      <trkpt lat="43.315350" lon="-1.957940">
        <time>2017-06-24T06:58:24Z</time>
      </trkpt>
      <trkpt lat="43.315220" lon="-1.957660">
        <time>2017-06-24T06:58:25Z</time>
      </trkpt>
      <trkpt lat="43.315080" lon="-1.957380">
        <time>2017-06-24T06:58:26Z</time>
      </trkpt>
      <trkpt lat="43.314950" lon="-1.957090">
        <time>2017-06-24T06:58:27Z</time>
      </trkpt>
      <trkpt lat="43.314830" lon="-1.956780">
        <time>2017-06-24T06:58:28Z</time>
      </trkpt>
      <trkpt lat="43.314740" lon="-1.956490">
        <time>2017-06-24T06:58:29Z</time>
      </trkpt>
      <trkpt lat="43.314650" lon="-1.956190">
        <time>2017-06-24T06:58:30Z</time>
      </trkpt>
      <trkpt lat="43.314580" lon="-1.955850">
        <time>2017-06-24T06:58:31Z</time>
      </trkpt>
      <trkpt lat="43.314530" lon="-1.955560">
        <time>2017-06-24T06:58:32Z</time>
      </trkpt>
      <trkpt lat="43.314490" lon="-1.955240">
        <time>2017-06-24T06:58:33Z</time>
      </trkpt>
      <trkpt lat="43.314460" lon="-1.954910">
        <time>2017-06-24T06:58:34Z</time>
      </trkpt>
      <trkpt lat="43.314440" lon="-1.954620">
        <time>2017-06-24T06:58:35Z</time>
      </trkpt>
      <trkpt lat="43.314440" lon="-1.954280">
        <time>2017-06-24T06:58:36Z</time>
      </trkpt>
      <trkpt lat="43.314460" lon="-1.953990">
        <time>2017-06-24T06:58:37Z</time>
      </trkpt>
      <trkpt lat="43.314490" lon="-1.953670">
        <time>2017-06-24T06:58:38Z</time>
      </trkpt>
      <trkpt lat="43.314540" lon="-1.953350">
        <time>2017-06-24T06:58:39Z</time>
      </trkpt>
      <trkpt lat="43.314580" lon="-1.953080">
        <time>2017-06-24T06:58:40Z</time>
      </trkpt>
      <trkpt lat="43.314650" lon="-1.952790">
        <time>2017-06-24T06:58:41Z</time>
      </trkpt>
      <trkpt lat="43.314720" lon="-1.952510">
        <time>2017-06-24T06:58:42Z</time>
      </trkpt>
      <trkpt lat="43.314810" lon="-1.952230">
        <time>2017-06-24T06:58:43Z</time>
      </trkpt>
      <trkpt lat="43.314900" lon="-1.951940">
        <time>2017-06-24T06:58:44Z</time>
      </trkpt>
      <trkpt lat="43.314990" lon="-1.951680">
        <time>2017-06-24T06:58:45Z</time>
      </trkpt>
      <trkpt lat="43.315080" lon="-1.951410">
        <time>2017-06-24T06:58:46Z</time>
      </trkpt>
      <trkpt lat="43.315170" lon="-1.951120">
        <time>2017-06-24T06:58:47Z</time>
      </trkpt>
      <trkpt lat="43.315250" lon="-1.950880">
        <time>2017-06-24T06:58:48Z</time>
      </trkpt>
      <trkpt lat="43.315330" lon="-1.950630">
        <time>2017-06-24T06:58:49Z</time>
      </trkpt>
      <trkpt lat="43.315400" lon="-1.950370">
        <time>2017-06-24T06:58:50Z</time>
      </trkpt>
      <trkpt lat="43.315460" lon="-1.950140">
        <time>2017-06-24T06:58:51Z</time>
      </trkpt>
      <trkpt lat="43.315530" lon="-1.949880">
        <time>2017-06-24T06:58:52Z</time>
      </trkpt>
      <trkpt lat="43.315570" lon="-1.949640">
        <time>2017-06-24T06:58:53Z</time>
      </trkpt>
      <trkpt lat="43.315610" lon="-1.949370">
        <time>2017-06-24T06:58:54Z</time>
      </trkpt>
      <trkpt lat="43.315640" lon="-1.949090">
        <time>2017-06-24T06:58:55Z</time>
      </trkpt>
      <trkpt lat="43.315660" lon="-1.948840">
        <time>2017-06-24T06:58:56Z</time>
      </trkpt>
      <trkpt lat="43.315660" lon="-1.948580">
        <time>2017-06-24T06:58:57Z</time>
      </trkpt>
      <trkpt lat="43.315650" lon="-1.948310">
        <time>2017-06-24T06:58:58Z</time>
      </trkpt>
      <trkpt lat="43.315630" lon="-1.948050">
        <time>2017-06-24T06:58:59Z</time>
      </trkpt>
      <trkpt lat="43.315600" lon="-1.947780">
        <time>2017-06-24T06:59:00Z</time>
      </trkpt>
      <trkpt lat="43.315570" lon="-1.947540">
        <time>2017-06-24T06:59:01Z</time>
      </trkpt>
      <trkpt lat="43.315150" lon="-1.946120">
        <time>2017-06-24T06:59:07Z</time>
      </trkpt>
      <trkpt lat="43.315020" lon="-1.945880">
        <time>2017-06-24T06:59:08Z</time>
      </trkpt>
      <trkpt lat="43.314920" lon="-1.945680">
        <time>2017-06-24T06:59:09Z</time>
      </trkpt>
      <trkpt lat="43.314800" lon="-1.945490">
        <time>2017-06-24T06:59:10Z</time>
      </trkpt>
      <trkpt lat="43.314660" lon="-1.945320">
        <time>2017-06-24T06:59:11Z</time>
      </trkpt>
      <trkpt lat="43.314520" lon="-1.945170">
        <time>2017-06-24T06:59:12Z</time>
      </trkpt>
      <trkpt lat="43.314360" lon="-1.945030">
        <time>2017-06-24T06:59:13Z</time>
      </trkpt>
      <trkpt lat="43.314210" lon="-1.944880">
        <time>2017-06-24T06:59:14Z</time>
      </trkpt>
      <trkpt lat="43.314050" lon="-1.944750">
        <time>2017-06-24T06:59:15Z</time>
      </trkpt>
      <trkpt lat="43.313870" lon="-1.944610">
        <time>2017-06-24T06:59:16Z</time>
      </trkpt>
      <trkpt lat="43.313700" lon="-1.944480">
        <time>2017-06-24T06:59:17Z</time>
      </trkpt>
      <trkpt lat="43.313530" lon="-1.944350">
        <time>2017-06-24T06:59:18Z</time>
      </trkpt>
      <trkpt lat="43.313330" lon="-1.944210">
        <time>2017-06-24T06:59:19Z</time>
      </trkpt>
      <trkpt lat="43.313160" lon="-1.944080">
        <time>2017-06-24T06:59:20Z</time>
      </trkpt>
      <trkpt lat="43.312980" lon="-1.943930">
        <time>2017-06-24T06:59:21Z</time>
      </trkpt>
      <trkpt lat="43.312790" lon="-1.943750">
        <time>2017-06-24T06:59:22Z</time>
      </trkpt>
      <trkpt lat="43.312620" lon="-1.943570">
        <time>2017-06-24T06:59:23Z</time>
      </trkpt>
      <trkpt lat="43.312440" lon="-1.943350">
        <time>2017-06-24T06:59:24Z</time>
      </trkpt>
      <trkpt lat="43.312300" lon="-1.943140">
        <time>2017-06-24T06:59:25Z</time>
      </trkpt>
      <trkpt lat="43.312150" lon="-1.942920">
        <time>2017-06-24T06:59:26Z</time>
      </trkpt>
      <trkpt lat="43.312010" lon="-1.942670">
        <time>2017-06-24T06:59:27Z</time>
      </trkpt>
      <trkpt lat="43.311890" lon="-1.942440">
        <time>2017-06-24T06:59:28Z</time>
      </trkpt>
      <trkpt lat="43.311770" lon="-1.942190">
        <time>2017-06-24T06:59:29Z</time>
      </trkpt>
      <trkpt lat="43.311670" lon="-1.941950">
        <time>2017-06-24T06:59:30Z</time>
      </trkpt>
      <trkpt lat="43.311580" lon="-1.941700">
        <time>2017-06-24T06:59:31Z</time>
      </trkpt>
      <trkpt lat="43.311480" lon="-1.941420">
        <time>2017-06-24T06:59:32Z</time>
      </trkpt>
      <trkpt lat="43.311410" lon="-1.941170">
        <time>2017-06-24T06:59:33Z</time>
      </trkpt>
      <trkpt lat="43.311330" lon="-1.940900">
        <time>2017-06-24T06:59:34Z</time>
      </trkpt>
      <trkpt lat="43.311260" lon="-1.940600">
        <time>2017-06-24T06:59:35Z</time>
      </trkpt>
      <trkpt lat="43.311190" lon="-1.940340">
        <time>2017-06-24T06:59:36Z</time>
      </trkpt>
      <trkpt lat="43.311120" lon="-1.940050">
        <time>2017-06-24T06:59:37Z</time>
      </trkpt>
      <trkpt lat="43.311050" lon="-1.939750">
        <time>2017-06-24T06:59:38Z</time>
      </trkpt>
      <trkpt lat="43.310990" lon="-1.939470">
        <time>2017-06-24T06:59:39Z</time>
      </trkpt>
      <trkpt lat="43.310920" lon="-1.939160">
        <time>2017-06-24T06:59:40Z</time>
      </trkpt>
      <trkpt lat="43.310870" lon="-1.938880">
        <time>2017-06-24T06:59:41Z</time>
      </trkpt>
      <trkpt lat="43.310820" lon="-1.938580">
        <time>2017-06-24T06:59:42Z</time>
      </trkpt>
      <trkpt lat="43.310760" lon="-1.938260">
        <time>2017-06-24T06:59:43Z</time>
      </trkpt>
      <trkpt lat="43.310720" lon="-1.937960">
        <time>2017-06-24T06:59:44Z</time>
      </trkpt>
      <trkpt lat="43.310670" lon="-1.937640">
        <time>2017-06-24T06:59:45Z</time>
      </trkpt>
      <trkpt lat="43.310630" lon="-1.937330">
        <time>2017-06-24T06:59:46Z</time>
      </trkpt>
      <trkpt lat="43.310590" lon="-1.937010">
        <time>2017-06-24T06:59:47Z</time>
      </trkpt>
      <trkpt lat="43.310550" lon="-1.936660">
        <time>2017-06-24T06:59:48Z</time>
      </trkpt>
      <trkpt lat="43.310530" lon="-1.936340">
        <time>2017-06-24T06:59:49Z</time>
      </trkpt>
      <trkpt lat="43.310500" lon="-1.935990">
        <time>2017-06-24T06:59:50Z</time>
      </trkpt>
      <trkpt lat="43.310470" lon="-1.935620">
        <time>2017-06-24T06:59:51Z</time>
      </trkpt>
      <trkpt lat="43.310450" lon="-1.935270">
        <time>2017-06-24T06:59:52Z</time>
      </trkpt>
      <trkpt lat="43.310430" lon="-1.934910">
        <time>2017-06-24T06:59:53Z</time>
      </trkpt>
      <trkpt lat="43.310410" lon="-1.934530">
        <time>2017-06-24T06:59:54Z</time>
      </trkpt>
      <trkpt lat="43.310390" lon="-1.934210">
        <time>2017-06-24T06:59:55Z</time>
      </trkpt>
      <trkpt lat="43.310360" lon="-1.933850">
        <time>2017-06-24T06:59:56Z</time>
      </trkpt>
      <trkpt lat="43.310320" lon="-1.933520">
        <time>2017-06-24T06:59:57Z</time>
      </trkpt>
      <trkpt lat="43.310280" lon="-1.933180">
        <time>2017-06-24T06:59:58Z</time>
      </trkpt>
      <trkpt lat="43.310220" lon="-1.932810">
        <time>2017-06-24T06:59:59Z</time>
      </trkpt>
      <trkpt lat="43.310150" lon="-1.932490">
        <time>2017-06-24T07:00:00Z</time>
      </trkpt>
      <trkpt lat="43.310070" lon="-1.932140">
        <time>2017-06-24T07:00:01Z</time>
      </trkpt>
      <trkpt lat="43.309980" lon="-1.931800">
        <time>2017-06-24T07:00:02Z</time>
      </trkpt>
      <trkpt lat="43.309880" lon="-1.931470">
        <time>2017-06-24T07:00:03Z</time>
      </trkpt>
      <trkpt lat="43.309760" lon="-1.931130">
        <time>2017-06-24T07:00:04Z</time>
      </trkpt>
      <trkpt lat="43.309640" lon="-1.930830">
        <time>2017-06-24T07:00:05Z</time>
      </trkpt>
      <trkpt lat="43.309500" lon="-1.930520">
        <time>2017-06-24T07:00:06Z</time>
      </trkpt>
      <trkpt lat="43.309360" lon="-1.930180">
        <time>2017-06-24T07:00:07Z</time>
      </trkpt>
      <trkpt lat="43.309210" lon="-1.929910">
        <time>2017-06-24T07:00:08Z</time>
      </trkpt>
      <trkpt lat="43.309050" lon="-1.929630">
        <time>2017-06-24T07:00:09Z</time>
      </trkpt>
      <trkpt lat="43.308870" lon="-1.929350">
        <time>2017-06-24T07:00:10Z</time>
      </trkpt>
      <trkpt lat="43.308710" lon="-1.929100">
        <time>2017-06-24T07:00:11Z</time>
      </trkpt>
      <trkpt lat="43.308520" lon="-1.928820">
        <time>2017-06-24T07:00:12Z</time>
      </trkpt>
      <trkpt lat="43.308360" lon="-1.928580">
        <time>2017-06-24T07:00:13Z</time>
      </trkpt>
      <trkpt lat="43.308190" lon="-1.928320">
        <time>2017-06-24T07:00:14Z</time>
      </trkpt>
      <trkpt lat="43.308020" lon="-1.928040">
        <time>2017-06-24T07:00:15Z</time>
      </trkpt>
      <trkpt lat="43.307870" lon="-1.927790">
        <time>2017-06-24T07:00:16Z</time>
      </trkpt>
      <trkpt lat="43.307730" lon="-1.927510">
        <time>2017-06-24T07:00:17Z</time>
      </trkpt>
      <trkpt lat="43.307600" lon="-1.927230">
        <time>2017-06-24T07:00:18Z</time>
      </trkpt>
      <trkpt lat="43.307480" lon="-1.926930">
        <time>2017-06-24T07:00:19Z</time>
      </trkpt>
      <trkpt lat="43.307360" lon="-1.926610">
        <time>2017-06-24T07:00:20Z</time>
      </trkpt>
      <trkpt lat="43.307270" lon="-1.926310">
        <time>2017-06-24T07:00:21Z</time>
      </trkpt>
      <trkpt lat="43.307190" lon="-1.926000">
        <time>2017-06-24T07:00:22Z</time>
      </trkpt>
      <trkpt lat="43.307110" lon="-1.925670">
        <time>2017-06-24T07:00:23Z</time>
      </trkpt>
      <trkpt lat="43.307060" lon="-1.925360">
        <time>2017-06-24T07:00:24Z</time>
      </trkpt>
      <trkpt lat="43.307020" lon="-1.925030">
        <time>2017-06-24T07:00:25Z</time>
      </trkpt>
      <trkpt lat="43.306980" lon="-1.924670">
        <time>2017-06-24T07:00:26Z</time>
      </trkpt>
      <trkpt lat="43.306960" lon="-1.924360">
        <time>2017-06-24T07:00:27Z</time>
      </trkpt>
      <trkpt lat="43.306960" lon="-1.924010">
        <time>2017-06-24T07:00:28Z</time>
      </trkpt>
      <trkpt lat="43.306960" lon="-1.923700">
        <time>2017-06-24T07:00:29Z</time>
      </trkpt>
      <trkpt lat="43.306980" lon="-1.923380">
        <time>2017-06-24T07:00:30Z</time>
      </trkpt>
      <trkpt lat="43.307010" lon="-1.923030">
        <time>2017-06-24T07:00:31Z</time>
      </trkpt>
      <trkpt lat="43.307060" lon="-1.922740">
        <time>2017-06-24T07:00:32Z</time>
      </trkpt>
      <trkpt lat="43.307110" lon="-1.922440">
        <time>2017-06-24T07:00:33Z</time>
      </trkpt>
      <trkpt lat="43.307170" lon="-1.922140">
        <time>2017-06-24T07:00:34Z</time>
      </trkpt>
      <trkpt lat="43.307240" lon="-1.921850">
        <time>2017-06-24T07:00:35Z</time>
      </trkpt>
      <trkpt lat="43.307330" lon="-1.921540">
        <time>2017-06-24T07:00:36Z</time>
      </trkpt>
      <trkpt lat="43.307420" lon="-1.921280">
        <time>2017-06-24T07:00:37Z</time>
      </trkpt>
      <trkpt lat="43.307530" lon="-1.921020">
        <time>2017-06-24T07:00:38Z</time>
      </trkpt>
      <trkpt lat="43.307650" lon="-1.920740">
        <time>2017-06-24T07:00:39Z</time>
      </trkpt>
      <trkpt lat="43.307750" lon="-1.920500">
        <time>2017-06-24T07:00:40Z</time>
      </trkpt>
      <trkpt lat="43.307860" lon="-1.920250">
        <time>2017-06-24T07:00:41Z</time>
      </trkpt>
      <trkpt lat="43.307990" lon="-1.919990">
        <time>2017-06-24T07:00:42Z</time>
      </trkpt>
      <trkpt lat="43.308100" lon="-1.919760">
        <time>2017-06-24T07:00:43Z</time>
      </trkpt>
      <trkpt lat="43.308220" lon="-1.919510">
        <time>2017-06-24T07:00:44Z</time>
      </trkpt>
      <trkpt lat="43.308310" lon="-1.919310">
        <time>2017-06-24T07:00:45Z</time>
      </trkpt>
      <trkpt lat="43.308400" lon="-1.919090">
        <time>2017-06-24T07:00:46Z</time>
      </trkpt>
      <trkpt lat="43.308480" lon="-1.918850">
        <time>2017-06-24T07:00:47Z</time>
      </trkpt>
      <trkpt lat="43.308560" lon="-1.918620">
        <time>2017-06-24T07:00:48Z</time>
      </trkpt>
      <trkpt lat="43.308620" lon="-1.918370">
        <time>2017-06-24T07:00:49Z</time>
      </trkpt>
      <trkpt lat="43.308690" lon="-1.918120">
        <time>2017-06-24T07:00:50Z</time>
      </trkpt>
      <trkpt lat="43.308740" lon="-1.917860">
        <time>2017-06-24T07:00:51Z</time>
      </trkpt>
      <trkpt lat="43.308790" lon="-1.917570">
        <time>2017-06-24T07:00:52Z</time>
      </trkpt>
      <trkpt lat="43.308830" lon="-1.917310">
        <time>2017-06-24T07:00:53Z</time>
      </trkpt>
      <trkpt lat="43.308860" lon="-1.917030">
        <time>2017-06-24T07:00:54Z</time>
      </trkpt>
      <trkpt lat="43.308870" lon="-1.916740">
        <time>2017-06-24T07:00:55Z</time>
      </trkpt>
      <trkpt lat="43.308870" lon="-1.916490">
        <time>2017-06-24T07:00:56Z</time>
      </trkpt>
      <trkpt lat="43.308870" lon="-1.916220">
        <time>2017-06-24T07:00:57Z</time>
      </trkpt>
      <trkpt lat="43.308850" lon="-1.915920">
        <time>2017-06-24T07:00:58Z</time>
      </trkpt>
      <trkpt lat="43.308840" lon="-1.915670">
        <time>2017-06-24T07:00:59Z</time>
      </trkpt>
      <trkpt lat="43.308810" lon="-1.915390">
        <time>2017-06-24T07:01:00Z</time>
      </trkpt>
      <trkpt lat="43.308790" lon="-1.915150">
        <time>2017-06-24T07:01:01Z</time>
      </trkpt>
      <trkpt lat="43.308760" lon="-1.914900">
        <time>2017-06-24T07:01:02Z</time>
      </trkpt>
      <trkpt lat="43.308730" lon="-1.914650">
        <time>2017-06-24T07:01:03Z</time>
      </trkpt>
      <trkpt lat="43.308710" lon="-1.914430">
        <time>2017-06-24T07:01:04Z</time>
      </trkpt>
      <trkpt lat="43.308690" lon="-1.914200">
        <time>2017-06-24T07:01:05Z</time>
      </trkpt>
      <trkpt lat="43.308670" lon="-1.913990">
        <time>2017-06-24T07:01:06Z</time>
      </trkpt>
      <trkpt lat="43.308660" lon="-1.913790">
        <time>2017-06-24T07:01:07Z</time>
      </trkpt>
      <trkpt lat="43.308670" lon="-1.913580">
        <time>2017-06-24T07:01:08Z</time>
      </trkpt>
      <trkpt lat="43.308690" lon="-1.913410">
        <time>2017-06-24T07:01:09Z</time>
      </trkpt>
      <trkpt lat="43.308700" lon="-1.913220">
        <time>2017-06-24T07:01:10Z</time>
      </trkpt>
      <trkpt lat="43.308710" lon="-1.913020">
        <time>2017-06-24T07:01:11Z</time>
      </trkpt>
      <trkpt lat="43.308710" lon="-1.912840">
        <time>2017-06-24T07:01:12Z</time>
      </trkpt>
      <trkpt lat="43.308710" lon="-1.912630">
        <time>2017-06-24T07:01:13Z</time>
      </trkpt>
      <trkpt lat="43.308720" lon="-1.912410">
        <time>2017-06-24T07:01:14Z</time>
      </trkpt>
      <trkpt lat="43.308720" lon="-1.912210">
        <time>2017-06-24T07:01:15Z</time>
      </trkpt>
      <trkpt lat="43.308730" lon="-1.911980">
        <time>2017-06-24T07:01:16Z</time>
      </trkpt>
      <trkpt lat="43.308740" lon="-1.911760">
        <time>2017-06-24T07:01:17Z</time>
      </trkpt>
      <trkpt lat="43.308750" lon="-1.911530">
        <time>2017-06-24T07:01:18Z</time>
      </trkpt>
      <trkpt lat="43.308760" lon="-1.911270">
        <time>2017-06-24T07:01:19Z</time>
      </trkpt>
      <trkpt lat="43.308770" lon="-1.911030">
        <time>2017-06-24T07:01:20Z</time>
      </trkpt>
      <trkpt lat="43.308780" lon="-1.910780">
        <time>2017-06-24T07:01:21Z</time>
      </trkpt>
      <trkpt lat="43.308790" lon="-1.910520">
        <time>2017-06-24T07:01:22Z</time>
      </trkpt>
      <trkpt lat="43.308780" lon="-1.910250">
        <time>2017-06-24T07:01:23Z</time>
      </trkpt>
      <trkpt lat="43.308780" lon="-1.909970">
        <time>2017-06-24T07:01:24Z</time>
      </trkpt>
      <trkpt lat="43.308770" lon="-1.909710">
        <time>2017-06-24T07:01:25Z</time>
      </trkpt>
      <trkpt lat="43.308760" lon="-1.909450">
        <time>2017-06-24T07:01:26Z</time>
      </trkpt>
      <trkpt lat="43.308750" lon="-1.909170">
        <time>2017-06-24T07:01:27Z</time>
      </trkpt>
      <trkpt lat="43.308730" lon="-1.908920">
        <time>2017-06-24T07:01:28Z</time>
      </trkpt>
      <trkpt lat="43.308700" lon="-1.908650">
        <time>2017-06-24T07:01:29Z</time>
      </trkpt>
      <trkpt lat="43.308670" lon="-1.908360">
        <time>2017-06-24T07:01:30Z</time>
      </trkpt>
      <trkpt lat="43.308640" lon="-1.908120">
        <time>2017-06-24T07:01:31Z</time>
      </trkpt>
      <trkpt lat="43.308600" lon="-1.907840">
        <time>2017-06-24T07:01:32Z</time>
      </trkpt>
      <trkpt lat="43.308570" lon="-1.907590">
        <time>2017-06-24T07:01:33Z</time>
      </trkpt>
      <trkpt lat="43.308520" lon="-1.907330">
        <time>2017-06-24T07:01:34Z</time>
      </trkpt>
      <trkpt lat="43.308470" lon="-1.907050">
        <time>2017-06-24T07:01:35Z</time>
      </trkpt>
      <trkpt lat="43.308420" lon="-1.906810">
        <time>2017-06-24T07:01:36Z</time>
      </trkpt>
      <trkpt lat="43.308360" lon="-1.906560">
        <time>2017-06-24T07:01:37Z</time>
      </trkpt>
      <trkpt lat="43.308300" lon="-1.906300">
        <time>2017-06-24T07:01:38Z</time>
      </trkpt>
      <trkpt lat="43.308240" lon="-1.906050">
        <time>2017-06-24T07:01:39Z</time>
      </trkpt>
      <trkpt lat="43.308160" lon="-1.905780">
        <time>2017-06-24T07:01:40Z</time>
      </trkpt>
      <trkpt lat="43.308090" lon="-1.905560">
        <time>2017-06-24T07:01:41Z</time>
      </trkpt>
      <trkpt lat="43.308020" lon="-1.905310">
        <time>2017-06-24T07:01:42Z</time>
      </trkpt>
      <trkpt lat="43.307930" lon="-1.905060">
        <time>2017-06-24T07:01:43Z</time>
      </trkpt>
      <trkpt lat="43.307860" lon="-1.904840">
        <time>2017-06-24T07:01:44Z</time>
      </trkpt>
      <trkpt lat="43.307770" lon="-1.904600">
        <time>2017-06-24T07:01:45Z</time>
      </trkpt>
      <trkpt lat="43.307670" lon="-1.904340">
        <time>2017-06-24T07:01:46Z</time>
      </trkpt>
      <trkpt lat="43.307580" lon="-1.904110">
        <time>2017-06-24T07:01:47Z</time>
      </trkpt>
      <trkpt lat="43.307480" lon="-1.903850">
        <time>2017-06-24T07:01:48Z</time>
      </trkpt>
      <trkpt lat="43.307380" lon="-1.903630">
        <time>2017-06-24T07:01:49Z</time>
      </trkpt>
      <trkpt lat="43.307260" lon="-1.903400">
        <time>2017-06-24T07:01:50Z</time>
      </trkpt>
      <trkpt lat="43.307140" lon="-1.903160">
        <time>2017-06-24T07:01:51Z</time>
      </trkpt>
      <trkpt lat="43.307030" lon="-1.902950">
        <time>2017-06-24T07:01:52Z</time>
      </trkpt>
      <trkpt lat="43.306920" lon="-1.902720">
        <time>2017-06-24T07:01:53Z</time>
      </trkpt>
      <trkpt lat="43.306800" lon="-1.902510">
        <time>2017-06-24T07:01:54Z</time>
      </trkpt>
      <trkpt lat="43.306700" lon="-1.902300">
        <time>2017-06-24T07:01:55Z</time>
      </trkpt>
      <trkpt lat="43.306590" lon="-1.902090">
        <time>2017-06-24T07:01:56Z</time>
      </trkpt>
      <trkpt lat="43.306510" lon="-1.901910">
        <time>2017-06-24T07:01:57Z</time>
      </trkpt>
      <trkpt lat="43.306420" lon="-1.901720">
        <time>2017-06-24T07:01:58Z</time>
      </trkpt>
      <trkpt lat="43.306320" lon="-1.901520">
        <time>2017-06-24T07:01:59Z</time>
      </trkpt>
      <trkpt lat="43.306230" lon="-1.901350">
        <time>2017-06-24T07:02:00Z</time>
      </trkpt>
      <trkpt lat="43.306130" lon="-1.901150">
        <time>2017-06-24T07:02:01Z</time>
      </trkpt>
      <trkpt lat="43.306040" lon="-1.900920">
        <time>2017-06-24T07:02:02Z</time>
      </trkpt>
      <trkpt lat="43.305980" lon="-1.900690">
        <time>2017-06-24T07:02:03Z</time>
      </trkpt>
      <trkpt lat="43.305910" lon="-1.900410">
        <time>2017-06-24T07:02:04Z</time>
      </trkpt>
      <trkpt lat="43.305860" lon="-1.900140">
        <time>2017-06-24T07:02:05Z</time>
      </trkpt>
      <trkpt lat="43.305810" lon="-1.899850">
        <time>2017-06-24T07:02:06Z</time>
      </trkpt>
      <trkpt lat="43.305760" lon="-1.899520">
        <time>2017-06-24T07:02:07Z</time>
      </trkpt>
      <trkpt lat="43.305720" lon="-1.899220">
        <time>2017-06-24T07:02:08Z</time>
      </trkpt>
      <trkpt lat="43.305680" lon="-1.898900">
        <time>2017-06-24T07:02:09Z</time>
      </trkpt>
      <trkpt lat="43.305630" lon="-1.898570">
        <time>2017-06-24T07:02:10Z</time>
      </trkpt>
      <trkpt lat="43.305580" lon="-1.898260">
        <time>2017-06-24T07:02:11Z</time>
      </trkpt>
      <trkpt lat="43.305520" lon="-1.897920">
        <time>2017-06-24T07:02:12Z</time>
      </trkpt>
      <trkpt lat="43.305470" lon="-1.897630">
        <time>2017-06-24T07:02:13Z</time>
      </trkpt>
      <trkpt lat="43.305400" lon="-1.897330">
        <time>2017-06-24T07:02:14Z</time>
      </trkpt>
      <trkpt lat="43.305340" lon="-1.897010">
        <time>2017-06-24T07:02:15Z</time>
      </trkpt>
      <trkpt lat="43.305270" lon="-1.896740">
        <time>2017-06-24T07:02:16Z</time>
      </trkpt>
      <trkpt lat="43.305200" lon="-1.896460">
        <time>2017-06-24T07:02:17Z</time>
      </trkpt>
      <trkpt lat="43.305130" lon="-1.896180">
        <time>2017-06-24T07:02:18Z</time>
      </trkpt>
      <trkpt lat="43.305060" lon="-1.895930">
        <time>2017-06-24T07:02:19Z</time>
      </trkpt>
      <trkpt lat="43.304990" lon="-1.895650">
        <time>2017-06-24T07:02:20Z</time>
      </trkpt>
      <trkpt lat="43.304930" lon="-1.895390">
        <time>2017-06-24T07:02:21Z</time>
      </trkpt>
      <trkpt lat="43.304870" lon="-1.895110">
        <time>2017-06-24T07:02:22Z</time>
      </trkpt>
      <trkpt lat="43.304820" lon="-1.894790">
        <time>2017-06-24T07:02:23Z</time>
      </trkpt>
      <trkpt lat="43.304770" lon="-1.894520">
        <time>2017-06-24T07:02:24Z</time>
      </trkpt>
      <trkpt lat="43.304730" lon="-1.894220">
        <time>2017-06-24T07:02:25Z</time>
      </trkpt>
      <trkpt lat="43.304710" lon="-1.893910">
        <time>2017-06-24T07:02:26Z</time>
      </trkpt>
      <trkpt lat="43.304700" lon="-1.893590">
        <time>2017-06-24T07:02:27Z</time>
      </trkpt>
      <trkpt lat="43.304710" lon="-1.893250">
        <time>2017-06-24T07:02:28Z</time>
      </trkpt>
      <trkpt lat="43.304720" lon="-1.892960">
        <time>2017-06-24T07:02:29Z</time>
      </trkpt>
      <trkpt lat="43.304740" lon="-1.892650">
        <time>2017-06-24T07:02:30Z</time>
      </trkpt>
      <trkpt lat="43.304780" lon="-1.892340">
        <time>2017-06-24T07:02:31Z</time>
      </trkpt>
      <trkpt lat="43.304830" lon="-1.892070">
        <time>2017-06-24T07:02:32Z</time>
      </trkpt>
      <trkpt lat="43.304880" lon="-1.891770">
        <time>2017-06-24T07:02:33Z</time>
      </trkpt>
      <trkpt lat="43.304950" lon="-1.891460">
        <time>2017-06-24T07:02:34Z</time>
      </trkpt>
      <trkpt lat="43.305030" lon="-1.891180">
        <time>2017-06-24T07:02:35Z</time>
      </trkpt>
      <trkpt lat="43.305130" lon="-1.890870">
        <time>2017-06-24T07:02:36Z</time>
      </trkpt>
      <trkpt lat="43.305220" lon="-1.890590">
        <time>2017-06-24T07:02:37Z</time>
      </trkpt>
      <trkpt lat="43.305330" lon="-1.890300">
        <time>2017-06-24T07:02:38Z</time>
      </trkpt>
      <trkpt lat="43.305470" lon="-1.890010">
        <time>2017-06-24T07:02:39Z</time>
      </trkpt>
      <trkpt lat="43.305590" lon="-1.889750">
        <time>2017-06-24T07:02:40Z</time>
      </trkpt>
      <trkpt lat="43.305750" lon="-1.889480">
        <time>2017-06-24T07:02:41Z</time>
      </trkpt>
      <trkpt lat="43.305900" lon="-1.889220">
        <time>2017-06-24T07:02:42Z</time>
      </trkpt>
      <trkpt lat="43.306060" lon="-1.888960">
        <time>2017-06-24T07:02:43Z</time>
      </trkpt>
      <trkpt lat="43.306240" lon="-1.888680">
        <time>2017-06-24T07:02:44Z</time>
      </trkpt>
      <trkpt lat="43.306390" lon="-1.888440">
        <time>2017-06-24T07:02:45Z</time>
      </trkpt>
      <trkpt lat="43.306550" lon="-1.888180">
        <time>2017-06-24T07:02:46Z</time>
      </trkpt>
      <trkpt lat="43.306710" lon="-1.887880">
        <time>2017-06-24T07:02:47Z</time>
      </trkpt>
      <trkpt lat="43.306840" lon="-1.887600">
        <time>2017-06-24T07:02:48Z</time>
      </trkpt>
      <trkpt lat="43.306970" lon="-1.887300">
        <time>2017-06-24T07:02:49Z</time>
      </trkpt>
      <trkpt lat="43.307090" lon="-1.886950">
        <time>2017-06-24T07:02:50Z</time>
      </trkpt>
      <trkpt lat="43.307190" lon="-1.886650">
        <time>2017-06-24T07:02:51Z</time>
      </trkpt>
      <trkpt lat="43.307280" lon="-1.886300">
        <time>2017-06-24T07:02:52Z</time>
      </trkpt>
      <trkpt lat="43.307350" lon="-1.885980">
        <time>2017-06-24T07:02:53Z</time>
      </trkpt>
      <trkpt lat="43.307410" lon="-1.885620">
        <time>2017-06-24T07:02:54Z</time>
      </trkpt>
      <trkpt lat="43.307460" lon="-1.885240">
        <time>2017-06-24T07:02:55Z</time>
      </trkpt>
      <trkpt lat="43.307490" lon="-1.884910">
        <time>2017-06-24T07:02:56Z</time>
      </trkpt>
      <trkpt lat="43.307500" lon="-1.884550">
        <time>2017-06-24T07:02:57Z</time>
      </trkpt>
      <trkpt lat="43.307500" lon="-1.884200">
        <time>2017-06-24T07:02:58Z</time>
      </trkpt>
      <trkpt lat="43.307490" lon="-1.883850">
        <time>2017-06-24T07:02:59Z</time>
      </trkpt>
      <trkpt lat="43.307450" lon="-1.883470">
        <time>2017-06-24T07:03:00Z</time>
      </trkpt>
      <trkpt lat="43.307410" lon="-1.883150">
        <time>2017-06-24T07:03:01Z</time>
      </trkpt>
      <trkpt lat="43.307360" lon="-1.882800">
        <time>2017-06-24T07:03:02Z</time>
      </trkpt>
      <trkpt lat="43.307280" lon="-1.882430">
        <time>2017-06-24T07:03:03Z</time>
      </trkpt>
      <trkpt lat="43.307210" lon="-1.882110">
        <time>2017-06-24T07:03:04Z</time>
      </trkpt>
      <trkpt lat="43.307130" lon="-1.881770">
        <time>2017-06-24T07:03:05Z</time>
      </trkpt>
      <trkpt lat="43.307040" lon="-1.881400">
        <time>2017-06-24T07:03:06Z</time>
      </trkpt>
      <trkpt lat="43.306980" lon="-1.881070">
        <time>2017-06-24T07:03:07Z</time>
      </trkpt>
      <trkpt lat="43.306920" lon="-1.880690">
        <time>2017-06-24T07:03:08Z</time>
      </trkpt>
      <trkpt lat="43.306880" lon="-1.880360">
        <time>2017-06-24T07:03:09Z</time>
      </trkpt>
      <trkpt lat="43.306860" lon="-1.880000">
        <time>2017-06-24T07:03:10Z</time>
      </trkpt>
      <trkpt lat="43.306850" lon="-1.879620">
        <time>2017-06-24T07:03:11Z</time>
      </trkpt>
      <trkpt lat="43.306860" lon="-1.879270">
        <time>2017-06-24T07:03:12Z</time>
      </trkpt>
      <trkpt lat="43.306880" lon="-1.878910">
        <time>2017-06-24T07:03:13Z</time>
      </trkpt>
      <trkpt lat="43.306930" lon="-1.878560">
        <time>2017-06-24T07:03:14Z</time>
      </trkpt>
      <trkpt lat="43.306990" lon="-1.878200">
        <time>2017-06-24T07:03:15Z</time>
      </trkpt>
      <trkpt lat="43.307080" lon="-1.877830">
        <time>2017-06-24T07:03:16Z</time>
      </trkpt>
      <trkpt lat="43.307170" lon="-1.877510">
        <time>2017-06-24T07:03:17Z</time>
      </trkpt>
      <trkpt lat="43.307280" lon="-1.877180">
        <time>2017-06-24T07:03:18Z</time>
      </trkpt>
      <trkpt lat="43.307410" lon="-1.876840">
        <time>2017-06-24T07:03:19Z</time>
      </trkpt>
      <trkpt lat="43.307540" lon="-1.876550">
        <time>2017-06-24T07:03:20Z</time>
      </trkpt>
      <trkpt lat="43.307700" lon="-1.876250">
        <time>2017-06-24T07:03:21Z</time>
      </trkpt>
      <trkpt lat="43.307880" lon="-1.875950">
        <time>2017-06-24T07:03:22Z</time>
      </trkpt>
      <trkpt lat="43.308050" lon="-1.875700">
        <time>2017-06-24T07:03:23Z</time>
      </trkpt>
      <trkpt lat="43.308260" lon="-1.875440">
        <time>2017-06-24T07:03:24Z</time>
      </trkpt>
      <trkpt lat="43.308460" lon="-1.875220">
        <time>2017-06-24T07:03:25Z</time>
      </trkpt>
      <trkpt lat="43.308690" lon="-1.875000">
        <time>2017-06-24T07:03:26Z</time>
      </trkpt>
      <trkpt lat="43.308930" lon="-1.874790">
        <time>2017-06-24T07:03:27Z</time>
      </trkpt>
      <trkpt lat="43.309160" lon="-1.874630">
        <time>2017-06-24T07:03:28Z</time>
      </trkpt>
      <trkpt lat="43.309400" lon="-1.874470">
        <time>2017-06-24T07:03:29Z</time>
      </trkpt>
      <trkpt lat="43.309660" lon="-1.874330">
        <time>2017-06-24T07:03:30Z</time>
      </trkpt>
      <trkpt lat="43.309920" lon="-1.874190">
        <time>2017-06-24T07:03:31Z</time>
      </trkpt>
      <trkpt lat="43.310200" lon="-1.874040">
        <time>2017-06-24T07:03:32Z</time>
      </trkpt>
      <trkpt lat="43.310450" lon="-1.873910">
        <time>2017-06-24T07:03:33Z</time>
      </trkpt>
      <trkpt lat="43.310700" lon="-1.873750">
        <time>2017-06-24T07:03:34Z</time>
      </trkpt>
      <trkpt lat="43.310980" lon="-1.873570">
        <time>2017-06-24T07:03:35Z</time>
      </trkpt>
      <trkpt lat="43.311210" lon="-1.873400">
        <time>2017-06-24T07:03:36Z</time>
      </trkpt>
      <trkpt lat="43.311460" lon="-1.873210">
        <time>2017-06-24T07:03:37Z</time>
      </trkpt>
      <trkpt lat="43.311720" lon="-1.873000">
        <time>2017-06-24T07:03:38Z</time>
      </trkpt>
      <trkpt lat="43.311950" lon="-1.872800">
        <time>2017-06-24T07:03:39Z</time>
      </trkpt>
      <trkpt lat="43.312200" lon="-1.872560">
        <time>2017-06-24T07:03:40Z</time>
      </trkpt>
      <trkpt lat="43.312410" lon="-1.872340">
        <time>2017-06-24T07:03:41Z</time>
      </trkpt>
      <trkpt lat="43.312620" lon="-1.872090">
        <time>2017-06-24T07:03:42Z</time>
      </trkpt>
      <trkpt lat="43.312840" lon="-1.871820">
        <time>2017-06-24T07:03:43Z</time>
      </trkpt>
      <trkpt lat="43.313020" lon="-1.871570">
        <time>2017-06-24T07:03:44Z</time>
      </trkpt>
      <trkpt lat="43.313220" lon="-1.871300">
        <time>2017-06-24T07:03:45Z</time>
      </trkpt>
      <trkpt lat="43.313410" lon="-1.871030">
        <time>2017-06-24T07:03:46Z</time>
      </trkpt>
      <trkpt lat="43.313590" lon="-1.870740">
        <time>2017-06-24T07:03:47Z</time>
      </trkpt>
      <trkpt lat="43.313770" lon="-1.870420">
        <time>2017-06-24T07:03:48Z</time>
      </trkpt>
      <trkpt lat="43.313920" lon="-1.870130">
        <time>2017-06-24T07:03:49Z</time>
      </trkpt>
      <trkpt lat="43.314070" lon="-1.869820">
        <time>2017-06-24T07:03:50Z</time>
      </trkpt>
      <trkpt lat="43.314230" lon="-1.869480">
        <time>2017-06-24T07:03:51Z</time>
      </trkpt>
      <trkpt lat="43.314360" lon="-1.869180">
        <time>2017-06-24T07:03:52Z</time>
      </trkpt>
      <trkpt lat="43.314480" lon="-1.868850">
        <time>2017-06-24T07:03:53Z</time>
      </trkpt>
      <trkpt lat="43.314610" lon="-1.868500">
        <time>2017-06-24T07:03:54Z</time>
      </trkpt>
      <trkpt lat="43.314720" lon="-1.868190">
        <time>2017-06-24T07:03:55Z</time>
      </trkpt>
      <trkpt lat="43.314830" lon="-1.867820">
        <time>2017-06-24T07:03:56Z</time>
      </trkpt>
      <trkpt lat="43.314910" lon="-1.867490">
        <time>2017-06-24T07:03:57Z</time>
      </trkpt>
      <trkpt lat="43.315000" lon="-1.867140">
        <time>2017-06-24T07:03:58Z</time>
      </trkpt>
      <trkpt lat="43.315090" lon="-1.866760">
        <time>2017-06-24T07:03:59Z</time>
      </trkpt>
      <trkpt lat="43.315150" lon="-1.866430">
        <time>2017-06-24T07:04:00Z</time>
      </trkpt>
      <trkpt lat="43.315220" lon="-1.866060">
        <time>2017-06-24T07:04:01Z</time>
      </trkpt>
      <trkpt lat="43.315270" lon="-1.865710">
        <time>2017-06-24T07:04:02Z</time>
      </trkpt>
      <trkpt lat="43.315310" lon="-1.865340">
        <time>2017-06-24T07:04:03Z</time>
      </trkpt>
      <trkpt lat="43.315340" lon="-1.864950">
        <time>2017-06-24T07:04:04Z</time>
      </trkpt>
      <trkpt lat="43.315370" lon="-1.864610">
        <time>2017-06-24T07:04:05Z</time>
      </trkpt>
      <trkpt lat="43.315390" lon="-1.864250">
        <time>2017-06-24T07:04:06Z</time>
      </trkpt>
      <trkpt lat="43.315410" lon="-1.863870">
        <time>2017-06-24T07:04:07Z</time>
      </trkpt>
      <trkpt lat="43.315420" lon="-1.863530">
        <time>2017-06-24T07:04:08Z</time>
      </trkpt>
      <trkpt lat="43.315430" lon="-1.863160">
        <time>2017-06-24T07:04:09Z</time>
      </trkpt>
      <trkpt lat="43.315450" lon="-1.862760">
        <time>2017-06-24T07:04:10Z</time>
      </trkpt>
      <trkpt lat="43.315480" lon="-1.862420">
        <time>2017-06-24T07:04:11Z</time>
      </trkpt>
      <trkpt lat="43.315530" lon="-1.862030">
        <time>2017-06-24T07:04:12Z</time>
      </trkpt>
      <trkpt lat="43.315580" lon="-1.861690">
        <time>2017-06-24T07:04:13Z</time>
      </trkpt>
      <trkpt lat="43.315660" lon="-1.861340">
        <time>2017-06-24T07:04:14Z</time>
      </trkpt>
      <trkpt lat="43.315760" lon="-1.860960">
        <time>2017-06-24T07:04:15Z</time>
      </trkpt>
      <trkpt lat="43.315860" lon="-1.860650">
        <time>2017-06-24T07:04:16Z</time>
      </trkpt>
      <trkpt lat="43.315970" lon="-1.860320">
        <time>2017-06-24T07:04:17Z</time>
      </trkpt>
      <trkpt lat="43.316080" lon="-1.860000">
        <time>2017-06-24T07:04:18Z</time>
      </trkpt>
      <trkpt lat="43.316190" lon="-1.859680">
        <time>2017-06-24T07:04:19Z</time>
      </trkpt>
      <trkpt lat="43.316310" lon="-1.859340">
        <time>2017-06-24T07:04:20Z</time>
      </trkpt>
      <trkpt lat="43.316400" lon="-1.859050">
        <time>2017-06-24T07:04:21Z</time>
      </trkpt>
      <trkpt lat="43.316490" lon="-1.858740">
        <time>2017-06-24T07:04:22Z</time>
      </trkpt>
      <trkpt lat="43.316570" lon="-1.858400">
        <time>2017-06-24T07:04:23Z</time>
      </trkpt>
      <trkpt lat="43.316630" lon="-1.858090">
        <time>2017-06-24T07:04:24Z</time>
      </trkpt>
      <trkpt lat="43.316680" lon="-1.857770">
        <time>2017-06-24T07:04:25Z</time>
      </trkpt>
      <trkpt lat="43.316710" lon="-1.857420">
        <time>2017-06-24T07:04:26Z</time>
      </trkpt>
      <trkpt lat="43.316730" lon="-1.857130">
        <time>2017-06-24T07:04:27Z</time>
      </trkpt>
      <trkpt lat="43.316730" lon="-1.856800">
        <time>2017-06-24T07:04:28Z</time>
      </trkpt>
      <trkpt lat="43.316720" lon="-1.856510">
        <time>2017-06-24T07:04:29Z</time>
      </trkpt>
      <trkpt lat="43.316710" lon="-1.856210">
        <time>2017-06-24T07:04:30Z</time>
      </trkpt>
      <trkpt lat="43.316680" lon="-1.855910">
        <time>2017-06-24T07:04:31Z</time>
      </trkpt>
      <trkpt lat="43.316650" lon="-1.855650">
        <time>2017-06-24T07:04:32Z</time>
      </trkpt>
      <trkpt lat="43.316620" lon="-1.855380">
        <time>2017-06-24T07:04:33Z</time>
      </trkpt>
      <trkpt lat="43.316590" lon="-1.855130">
        <time>2017-06-24T07:04:34Z</time>
      </trkpt>
      <trkpt lat="43.316560" lon="-1.854900">
        <time>2017-06-24T07:04:35Z</time>
      </trkpt>
      <trkpt lat="43.316530" lon="-1.854660">
        <time>2017-06-24T07:04:36Z</time>
      </trkpt>
      <trkpt lat="43.316510" lon="-1.854470">
        <time>2017-06-24T07:04:37Z</time>
      </trkpt>
      <trkpt lat="43.316480" lon="-1.854270">
        <time>2017-06-24T07:04:38Z</time>
      </trkpt>
      <trkpt lat="43.316460" lon="-1.854070">
        <time>2017-06-24T07:04:39Z</time>
      </trkpt>
      <trkpt lat="43.316450" lon="-1.853920">
        <time>2017-06-24T07:04:40Z</time>
      </trkpt>
      <trkpt lat="43.316450" lon="-1.853770">
        <time>2017-06-24T07:04:41Z</time>
      </trkpt>
      <trkpt lat="43.316450" lon="-1.853620">
        <time>2017-06-24T07:04:42Z</time>
      </trkpt>
      <trkpt lat="43.316440" lon="-1.853500">
        <time>2017-06-24T07:04:43Z</time>
      </trkpt>
      <trkpt lat="43.316430" lon="-1.853390">
        <time>2017-06-24T07:04:44Z</time>
      </trkpt>
      <trkpt lat="43.316430" lon="-1.853300">
        <time>2017-06-24T07:04:45Z</time>
      </trkpt>
      <trkpt lat="43.316420" lon="-1.853220">
        <time>2017-06-24T07:04:46Z</time>
      </trkpt>
      <trkpt lat="43.316410" lon="-1.853160">
        <time>2017-06-24T07:04:47Z</time>
      </trkpt>
      <trkpt lat="43.316410" lon="-1.853120">
        <time>2017-06-24T07:04:48Z</time>
      </trkpt>
      <trkpt lat="43.316400" lon="-1.853070">
        <time>2017-06-24T07:04:49Z</time>
      </trkpt>
      <trkpt lat="43.316400" lon="-1.853040">
        <time>2017-06-24T07:04:50Z</time>
      </trkpt>
      <trkpt lat="43.316390" lon="-1.853010">
        <time>2017-06-24T07:04:51Z</time>
      </trkpt>
      <trkpt lat="43.316380" lon="-1.852970">
        <time>2017-06-24T07:04:52Z</time>
      </trkpt>
      <trkpt lat="43.316380" lon="-1.852920">
        <time>2017-06-24T07:04:53Z</time>
      </trkpt>
      <trkpt lat="43.316370" lon="-1.852860">
        <time>2017-06-24T07:04:54Z</time>
      </trkpt>
      <trkpt lat="43.316360" lon="-1.852800">
        <time>2017-06-24T07:04:55Z</time>
      </trkpt>
      <trkpt lat="43.316350" lon="-1.852740">
        <time>2017-06-24T07:04:56Z</time>
      </trkpt>
      <trkpt lat="43.316350" lon="-1.852680">
        <time>2017-06-24T07:04:57Z</time>
      </trkpt>
      <trkpt lat="43.316340" lon="-1.852620">
        <time>2017-06-24T07:04:58Z</time>
      </trkpt>
      <trkpt lat="43.316340" lon="-1.852570">
        <time>2017-06-24T07:04:59Z</time>
      </trkpt>
      <trkpt lat="43.316330" lon="-1.852500">
        <time>2017-06-24T07:05:00Z</time>
      </trkpt>
      <trkpt lat="43.316330" lon="-1.852450">
        <time>2017-06-24T07:05:01Z</time>
      </trkpt>
      <trkpt lat="43.316330" lon="-1.852390">
        <time>2017-06-24T07:05:02Z</time>
      </trkpt>
      <trkpt lat="43.316340" lon="-1.852310">
        <time>2017-06-24T07:05:03Z</time>
      </trkpt>
      <trkpt lat="43.316350" lon="-1.852240">
        <time>2017-06-24T07:05:04Z</time>
      </trkpt>
      <trkpt lat="43.316360" lon="-1.852160">
        <time>2017-06-24T07:05:05Z</time>
      </trkpt>
      <trkpt lat="43.316370" lon="-1.852080">
        <time>2017-06-24T07:05:06Z</time>
      </trkpt>
      <trkpt lat="43.316370" lon="-1.852010">
        <time>2017-06-24T07:05:07Z</time>
      </trkpt>
      <trkpt lat="43.316370" lon="-1.851940">
        <time>2017-06-24T07:05:08Z</time>
      </trkpt>
      <trkpt lat="43.316380" lon="-1.851890">
        <time>2017-06-24T07:05:09Z</time>
      </trkpt>
      <trkpt lat="43.316380" lon="-1.851840">
        <time>2017-06-24T07:05:10Z</time>
      </trkpt>
      <trkpt lat="43.316390" lon="-1.851790">
        <time>2017-06-24T07:05:11Z</time>
      </trkpt>
      <trkpt lat="43.316390" lon="-1.851740">
        <time>2017-06-24T07:05:12Z</time>
      </trkpt>
      <trkpt lat="43.316400" lon="-1.851690">
        <time>2017-06-24T07:05:13Z</time>
      </trkpt>
      <trkpt lat="43.316400" lon="-1.851630">
        <time>2017-06-24T07:05:14Z</time>
      </trkpt>
      <trkpt lat="43.316410" lon="-1.851570">
        <time>2017-06-24T07:05:15Z</time>
      </trkpt>
      <trkpt lat="43.316420" lon="-1.851510">
        <time>2017-06-24T07:05:16Z</time>
      </trkpt>
      <trkpt lat="43.316420" lon="-1.851470">
        <time>2017-06-24T07:05:17Z</time>
      </trkpt>
      <trkpt lat="43.316410" lon="-1.851430">
        <time>2017-06-24T07:05:18Z</time>
      </trkpt>
      <trkpt lat="43.316400" lon="-1.851390">
        <time>2017-06-24T07:05:19Z</time>
      </trkpt>
      <trkpt lat="43.316400" lon="-1.851360">
        <time>2017-06-24T07:05:20Z</time>
      </trkpt>
      <trkpt lat="43.316400" lon="-1.851330">
        <time>2017-06-24T07:05:21Z</time>
      </trkpt>
      <trkpt lat="43.316410" lon="-1.851310">
        <time>2017-06-24T07:05:22Z</time>
      </trkpt>
      <trkpt lat="43.316410" lon="-1.851300">
        <time>2017-06-24T07:05:23Z</time>
      </trkpt>
      <trkpt lat="43.316410" lon="-1.851300">
        <time>2017-06-24T07:05:24Z</time>
      </trkpt>
      <trkpt lat="43.316410" lon="-1.851300">
        <time>2017-06-24T07:05:25Z</time>
      </trkpt>
      <trkpt lat="43.316410" lon="-1.851300">
        <time>2017-06-24T07:05:26Z</time>
      </trkpt>
      <trkpt lat="43.316410" lon="-1.851300">
        <time>2017-06-24T07:05:27Z</time>
      </trkpt>
      <trkpt lat="43.316410" lon="-1.851300">
        <time>2017-06-24T07:05:28Z</time>
      </trkpt>
      <trkpt lat="43.316410" lon="-1.851300">
        <time>2017-06-24T07:05:29Z</time>
      </trkpt>
      <trkpt lat="43.316410" lon="-1.851300">
        <time>2017-06-24T07:05:30Z</time>
      </trkpt>
      <trkpt lat="43.316410" lon="-1.851300">
        <time>2017-06-24T07:05:31Z</time>
      </trkpt>
      <trkpt lat="43.316410" lon="-1.851300">
        <time>2017-06-24T07:05:32Z</time>
      </trkpt>
      <trkpt lat="43.316410" lon="-1.851300">
        <time>2017-06-24T07:05:33Z</time>
      </trkpt>
      <trkpt lat="43.316410" lon="-1.851300">
        <time>2017-06-24T07:05:34Z</time>
      </trkpt>
      <trkpt lat="43.316410" lon="-1.851300">
        <time>2017-06-24T07:05:35Z</time>
      </trkpt>
      <trkpt lat="43.316410" lon="-1.851300">
        <time>2017-06-24T07:05:36Z</time>
      </trkpt>
      <trkpt lat="43.316410" lon="-1.851300">
        <time>2017-06-24T07:05:37Z</time>
      </trkpt>
      <trkpt lat="43.316410" lon="-1.851300">
        <time>2017-06-24T07:05:38Z</time>
      </trkpt>
      <trkpt lat="43.316410" lon="-1.851300">
        <time>2017-06-24T07:05:39Z</time>
      </trkpt>
      <trkpt lat="43.316410" lon="-1.851300">
        <time>2017-06-24T07:05:40Z</time>
      </trkpt>
      <trkpt lat="43.316410" lon="-1.851300">
        <time>2017-06-24T07:05:41Z</time>
      </trkpt>
      <trkpt lat="43.316410" lon="-1.851300">
        <time>2017-06-24T07:05:42Z</time>
      </trkpt>
      <trkpt lat="43.316410" lon="-1.851300">
        <time>2017-06-24T07:05:43Z</time>
      </trkpt>
      <trkpt lat="43.316410" lon="-1.851300">
        <time>2017-06-24T07:05:44Z</time>
      </trkpt>
      <trkpt lat="43.316410" lon="-1.851300">
        <time>2017-06-24T07:05:45Z</time>
      </trkpt>
      <trkpt lat="43.316410" lon="-1.851300">
        <time>2017-06-24T07:05:46Z</time>
      </trkpt>
      <trkpt lat="43.316410" lon="-1.851300">
        <time>2017-06-24T07:05:47Z</time>
      </trkpt>
      <trkpt lat="43.316410" lon="-1.851300">
        <time>2017-06-24T07:05:48Z</time>
      </trkpt>
      <trkpt lat="43.316410" lon="-1.851300">
        <time>2017-06-24T07:05:49Z</time>
      </trkpt>
      <trkpt lat="43.316410" lon="-1.851300">
        <time>2017-06-24T07:05:50Z</time>
      </trkpt>
      <trkpt lat="43.316410" lon="-1.851300">
        <time>2017-06-24T07:05:51Z</time>
      </trkpt>
      <trkpt lat="43.316410" lon="-1.851300">
        <time>2017-06-24T07:05:52Z</time>
      </trkpt>
      <trkpt lat="43.316410" lon="-1.851300">
        <time>2017-06-24T07:05:53Z</time>
      </trkpt>
      <trkpt lat="43.316410" lon="-1.851300">
        <time>2017-06-24T07:05:54Z</time>
      </trkpt>
      <trkpt lat="43.316410" lon="-1.851300">
        <time>2017-06-24T07:05:55Z</time>
      </trkpt>
      <trkpt lat="43.316410" lon="-1.851300">
        <time>2017-06-24T07:05:56Z</time>
      </trkpt>
      <trkpt lat="43.316410" lon="-1.851300">
        <time>2017-06-24T07:05:57Z</time>
      </trkpt>
      <trkpt lat="43.316410" lon="-1.851300">
        <time>2017-06-24T07:05:58Z</time>
      </trkpt>
      <trkpt lat="43.316410" lon="-1.851300">
        <time>2017-06-24T07:05:59Z</time>
      </trkpt>
      <trkpt lat="43.316410" lon="-1.851300">
        <time>2017-06-24T07:06:00Z</time>
      </trkpt>
      <trkpt lat="43.316410" lon="-1.851300">
        <time>2017-06-24T07:06:01Z</time>
      </trkpt>
      <trkpt lat="43.316410" lon="-1.851300">
        <time>2017-06-24T07:06:02Z</time>
      </trkpt>
      <trkpt lat="43.316410" lon="-1.851300">
        <time>2017-06-24T07:06:03Z</time>
      </trkpt>
      <trkpt lat="43.316410" lon="-1.851300">
        <time>2017-06-24T07:06:04Z</time>
      </trkpt>
      <trkpt lat="43.316410" lon="-1.851300">
        <time>2017-06-24T07:06:05Z</time>
      </trkpt>
      <trkpt lat="43.316410" lon="-1.851300">
        <time>2017-06-24T07:06:06Z</time>
      </trkpt>
      <trkpt lat="43.316410" lon="-1.851300">
        <time>2017-06-24T07:06:07Z</time>
      </trkpt>
      <trkpt lat="43.316410" lon="-1.851300">
        <time>2017-06-24T07:06:08Z</time>
      </trkpt>
      <trkpt lat="43.316410" lon="-1.851300">
        <time>2017-06-24T07:06:09Z</time>
      </trkpt>
      <trkpt lat="43.316410" lon="-1.851300">
        <time>2017-06-24T07:06:10Z</time>
      </trkpt>
      <trkpt lat="43.316410" lon="-1.851300">
        <time>2017-06-24T07:06:11Z</time>
      </trkpt>
      <trkpt lat="43.316410" lon="-1.851300">
        <time>2017-06-24T07:06:12Z</time>
      </trkpt>
      <trkpt lat="43.316410" lon="-1.851300">
        <time>2017-06-24T07:06:13Z</time>
      </trkpt>
      <trkpt lat="43.316410" lon="-1.851300">
        <time>2017-06-24T07:06:14Z</time>
      </trkpt>
      <trkpt lat="43.316410" lon="-1.851300">
        <time>2017-06-24T07:06:15Z</time>
      </trkpt>
      <trkpt lat="43.316410" lon="-1.851300">
        <time>2017-06-24T07:06:16Z</time>
      </trkpt>
      <trkpt lat="43.316410" lon="-1.851300">
        <time>2017-06-24T07:06:17Z</time>
      </trkpt>
      <trkpt lat="43.316410" lon="-1.851300">
        <time>2017-06-24T07:06:18Z</time>
      </trkpt>
      <trkpt lat="43.316410" lon="-1.851300">
        <time>2017-06-24T07:06:19Z</time>
      </trkpt>
      <trkpt lat="43.316410" lon="-1.851300">
        <time>2017-06-24T07:06:20Z</time>
      </trkpt>
      <trkpt lat="43.316410" lon="-1.851300">
        <time>2017-06-24T07:06:21Z</time>
      </trkpt>
      <trkpt lat="43.316410" lon="-1.851300">
        <time>2017-06-24T07:06:22Z</time>
      </trkpt>
      <trkpt lat="43.316410" lon="-1.851300">
        <time>2017-06-24T07:06:23Z</time>
      </trkpt>
      <trkpt lat="43.316410" lon="-1.851300">
        <time>2017-06-24T07:06:24Z</time>
      </trkpt>
      <trkpt lat="43.316410" lon="-1.851300">
        <time>2017-06-24T07:06:25Z</time>
      </trkpt>
      <trkpt lat="43.316410" lon="-1.851300">
        <time>2017-06-24T07:06:26Z</time>
      </trkpt>
      <trkpt lat="43.316410" lon="-1.851300">
        <time>2017-06-24T07:06:27Z</time>
      </trkpt>
      <trkpt lat="43.316410" lon="-1.851300">
        <time>2017-06-24T07:06:28Z</time>
      </trkpt>
      <trkpt lat="43.316410" lon="-1.851300">
        <time>2017-06-24T07:06:29Z</time>
      </trkpt>
      <trkpt lat="43.316410" lon="-1.851300">
        <time>2017-06-24T07:06:30Z</time>
      </trkpt>
      <trkpt lat="43.316410" lon="-1.851300">
        <time>2017-06-24T07:06:31Z</time>
      </trkpt>
      <trkpt lat="43.316410" lon="-1.851300">
        <time>2017-06-24T07:06:32Z</time>
      </trkpt>
      <trkpt lat="43.316410" lon="-1.851300">
        <time>2017-06-24T07:06:33Z</time>
      </trkpt>
      <trkpt lat="43.316410" lon="-1.851300">
        <time>2017-06-24T07:06:34Z</time>
      </trkpt>
      <trkpt lat="43.316410" lon="-1.851300">
        <time>2017-06-24T07:06:35Z</time>
      </trkpt>
      <trkpt lat="43.316410" lon="-1.851300">
        <time>2017-06-24T07:06:36Z</time>
      </trkpt>
      <trkpt lat="43.316410" lon="-1.851300">
        <time>2017-06-24T07:06:37Z</time>
      </trkpt>
      <trkpt lat="43.316410" lon="-1.851300">
        <time>2017-06-24T07:06:38Z</time>
      </trkpt>
      <trkpt lat="43.316410" lon="-1.851300">
        <time>2017-06-24T07:06:39Z</time>
      </trkpt>
      <trkpt lat="43.316410" lon="-1.851300">
        <time>2017-06-24T07:06:40Z</time>
      </trkpt>
      <trkpt lat="43.316410" lon="-1.851300">
        <time>2017-06-24T07:06:41Z</time>
      </trkpt>
      <trkpt lat="43.316410" lon="-1.851300">
        <time>2017-06-24T07:06:42Z</time>
      </trkpt>
      <trkpt lat="43.316410" lon="-1.851300">
        <time>2017-06-24T07:06:43Z</time>
      </trkpt>
      <trkpt lat="43.316410" lon="-1.851300">
        <time>2017-06-24T07:06:44Z</time>
      </trkpt>
      <trkpt lat="43.316410" lon="-1.851300">
        <time>2017-06-24T07:06:45Z</time>
      </trkpt>
      <trkpt lat="43.316410" lon="-1.851300">
        <time>2017-06-24T07:06:46Z</time>
      </trkpt>
      <trkpt lat="43.316410" lon="-1.851300">
        <time>2017-06-24T07:06:47Z</time>
      </trkpt>
      <trkpt lat="43.316410" lon="-1.851300">
        <time>2017-06-24T07:06:48Z</time>
      </trkpt>
      <trkpt lat="43.316410" lon="-1.851300">
        <time>2017-06-24T07:06:49Z</time>
      </trkpt>
      <trkpt lat="43.316410" lon="-1.851300">
        <time>2017-06-24T07:06:50Z</time>
      </trkpt>
      <trkpt lat="43.316410" lon="-1.851300">
        <time>2017-06-24T07:06:51Z</time>
      </trkpt>
      <trkpt lat="43.316410" lon="-1.851300">
        <time>2017-06-24T07:06:52Z</time>
      </trkpt>
      <trkpt lat="43.316410" lon="-1.851300">
        <time>2017-06-24T07:06:53Z</time>
      </trkpt>
      <trkpt lat="43.316410" lon="-1.851300">
        <time>2017-06-24T07:06:54Z</time>
      </trkpt>
      <trkpt lat="43.316410" lon="-1.851300">
        <time>2017-06-24T07:06:55Z</time>
      </trkpt>
      <trkpt lat="43.316410" lon="-1.851300">
        <time>2017-06-24T07:06:56Z</time>
      </trkpt>
      <trkpt lat="43.316410" lon="-1.851300">
        <time>2017-06-24T07:06:57Z</time>
      </trkpt>
      <trkpt lat="43.316410" lon="-1.851300">
        <time>2017-06-24T07:06:58Z</time>
      </trkpt>
      <trkpt lat="43.316410" lon="-1.851300">
        <time>2017-06-24T07:06:59Z</time>
      </trkpt>
      <trkpt lat="43.316410" lon="-1.851300">
        <time>2017-06-24T07:07:00Z</time>
      </trkpt>
      <trkpt lat="43.316410" lon="-1.851300">
        <time>2017-06-24T07:07:01Z</time>
      </trkpt>
      <trkpt lat="43.316410" lon="-1.851300">
        <time>2017-06-24T07:07:02Z</time>
      </trkpt>
      <trkpt lat="43.316410" lon="-1.851300">
        <time>2017-06-24T07:07:03Z</time>
      </trkpt>
      <trkpt lat="43.316410" lon="-1.851300">
        <time>2017-06-24T07:07:04Z</time>
      </trkpt>
      <trkpt lat="43.316410" lon="-1.851300">
        <time>2017-06-24T07:07:05Z</time>
      </trkpt>
      <trkpt lat="43.316410" lon="-1.851300">
        <time>2017-06-24T07:07:06Z</time>
      </trkpt>
      <trkpt lat="43.316410" lon="-1.851300">
        <time>2017-06-24T07:07:07Z</time>
      </trkpt>
      <trkpt lat="43.316410" lon="-1.851300">
        <time>2017-06-24T07:07:08Z</time>
      </trkpt>
      <trkpt lat="43.316410" lon="-1.851300">
        <time>2017-06-24T07:07:09Z</time>
      </trkpt>
      <trkpt lat="43.316410" lon="-1.851300">
        <time>2017-06-24T07:07:10Z</time>
      </trkpt>
      <trkpt lat="43.316410" lon="-1.851300">
        <time>2017-06-24T07:07:11Z</time>
      </trkpt>
      <trkpt lat="43.316410" lon="-1.851300">
        <time>2017-06-24T07:07:12Z</time>
      </trkpt>
      <trkpt lat="43.316410" lon="-1.851300">
        <time>2017-06-24T07:07:13Z</time>
      </trkpt>
      <trkpt lat="43.316410" lon="-1.851300">
        <time>2017-06-24T07:07:14Z</time>
      </trkpt>
      <trkpt lat="43.316410" lon="-1.851300">
        <time>2017-06-24T07:07:15Z</time>
      </trkpt>
      <trkpt lat="43.316410" lon="-1.851300">
        <time>2017-06-24T07:07:16Z</time>
      </trkpt>
      <trkpt lat="43.316410" lon="-1.851300">
        <time>2017-06-24T07:07:17Z</time>
      </trkpt>
      <trkpt lat="43.316410" lon="-1.851300">
        <time>2017-06-24T07:07:18Z</time>
      </trkpt>
      <trkpt lat="43.316410" lon="-1.851300">
        <time>2017-06-24T07:07:19Z</time>
      </trkpt>
      <trkpt lat="43.316410" lon="-1.851300">
        <time>2017-06-24T07:07:20Z</time>
      </trkpt>
      <trkpt lat="43.316410" lon="-1.851300">
        <time>2017-06-24T07:07:21Z</time>
      </trkpt>
      <trkpt lat="43.316410" lon="-1.851300">
        <time>2017-06-24T07:07:22Z</time>
      </trkpt>
      <trkpt lat="43.316410" lon="-1.851300">
        <time>2017-06-24T07:07:23Z</time>
      </trkpt>
      <trkpt lat="43.316410" lon="-1.851300">
        <time>2017-06-24T07:07:24Z</time>
      </trkpt>
      <trkpt lat="43.316410" lon="-1.851300">
        <time>2017-06-24T07:07:25Z</time>
      </trkpt>
      <trkpt lat="43.316410" lon="-1.851300">
        <time>2017-06-24T07:07:26Z</time>
      </trkpt>
      <trkpt lat="43.316410" lon="-1.851300">
        <time>2017-06-24T07:07:27Z</time>
      </trkpt>
      <trkpt lat="43.316410" lon="-1.851300">
        <time>2017-06-24T07:07:28Z</time>
      </trkpt>
      <trkpt lat="43.316410" lon="-1.851300">
        <time>2017-06-24T07:07:29Z</time>
      </trkpt>
      <trkpt lat="43.316410" lon="-1.851300">
        <time>2017-06-24T07:07:30Z</time>
      </trkpt>
      <trkpt lat="43.316410" lon="-1.851300">
        <time>2017-06-24T07:07:31Z</time>
      </trkpt>
      <trkpt lat="43.316410" lon="-1.851300">
        <time>2017-06-24T07:07:32Z</time>
      </trkpt>
      <trkpt lat="43.316410" lon="-1.851300">
        <time>2017-06-24T07:07:33Z</time>
      </trkpt>
      <trkpt lat="43.316410" lon="-1.851300">
        <time>2017-06-24T07:07:34Z</time>
      </trkpt>
      <trkpt lat="43.316410" lon="-1.851300">
        <time>2017-06-24T07:07:35Z</time>
      </trkpt>
      <trkpt lat="43.316410" lon="-1.851300">
        <time>2017-06-24T07:07:36Z</time>
      </trkpt>
      <trkpt lat="43.316410" lon="-1.851300">
        <time>2017-06-24T07:07:37Z</time>
      </trkpt>
      <trkpt lat="43.316410" lon="-1.851300">
        <time>2017-06-24T07:07:38Z</time>
      </trkpt>
      <trkpt lat="43.316410" lon="-1.851300">
        <time>2017-06-24T07:07:39Z</time>
      </trkpt>
      <trkpt lat="43.316410" lon="-1.851300">
        <time>2017-06-24T07:07:40Z</time>
      </trkpt>
      <trkpt lat="43.316410" lon="-1.851300">
        <time>2017-06-24T07:07:41Z</time>
      </trkpt>
      <trkpt lat="43.316410" lon="-1.851300">
        <time>2017-06-24T07:07:42Z</time>
      </trkpt>
      <trkpt lat="43.316410" lon="-1.851300">
        <time>2017-06-24T07:07:43Z</time>
      </trkpt>
      <trkpt lat="43.316410" lon="-1.851300">
        <time>2017-06-24T07:07:44Z</time>
      </trkpt>
      <trkpt lat="43.316410" lon="-1.851300">
        <time>2017-06-24T07:07:45Z</time>
      </trkpt>
      <trkpt lat="43.316410" lon="-1.851300">
        <time>2017-06-24T07:07:46Z</time>
      </trkpt>
      <trkpt lat="43.316410" lon="-1.851300">
        <time>2017-06-24T07:07:47Z</time>
      </trkpt>
      <trkpt lat="43.316410" lon="-1.851300">
        <time>2017-06-24T07:07:48Z</time>
      </trkpt>
      <trkpt lat="43.316410" lon="-1.851300">
        <time>2017-06-24T07:07:49Z</time>
      </trkpt>
      <trkpt lat="43.316410" lon="-1.851300">
        <time>2017-06-24T07:07:50Z</time>
      </trkpt>
      <trkpt lat="43.316410" lon="-1.851300">
        <time>2017-06-24T07:07:51Z</time>
      </trkpt>
      <trkpt lat="43.316410" lon="-1.851300">
        <time>2017-06-24T07:07:52Z</time>
      </trkpt>
      <trkpt lat="43.316410" lon="-1.851300">
        <time>2017-06-24T07:07:53Z</time>
      </trkpt>
      <trkpt lat="43.316410" lon="-1.851300">
        <time>2017-06-24T07:07:54Z</time>
      </trkpt>
      <trkpt lat="43.316410" lon="-1.851300">
        <time>2017-06-24T07:07:55Z</time>
      </trkpt>
      <trkpt lat="43.316410" lon="-1.851300">
        <time>2017-06-24T07:07:56Z</time>
      </trkpt>
      <trkpt lat="43.316410" lon="-1.851300">
        <time>2017-06-24T07:07:57Z</time>
      </trkpt>
      <trkpt lat="43.316410" lon="-1.851300">
        <time>2017-06-24T07:07:58Z</time>
      </trkpt>
      <trkpt lat="43.316410" lon="-1.851300">
        <time>2017-06-24T07:07:59Z</time>
      </trkpt>
      <trkpt lat="43.316410" lon="-1.851300">
        <time>2017-06-24T07:08:00Z</time>
      </trkpt>
      <trkpt lat="43.316410" lon="-1.851300">
        <time>2017-06-24T07:08:01Z</time>
      </trkpt>
      <trkpt lat="43.316410" lon="-1.851300">
        <time>2017-06-24T07:08:02Z</time>
      </trkpt>
      <trkpt lat="43.316410" lon="-1.851300">
        <time>2017-06-24T07:08:03Z</time>
      </trkpt>
      <trkpt lat="43.316410" lon="-1.851300">
        <time>2017-06-24T07:08:04Z</time>
      </trkpt>
      <trkpt lat="43.316410" lon="-1.851300">
        <time>2017-06-24T07:08:05Z</time>
      </trkpt>
      <trkpt lat="43.316410" lon="-1.851300">
        <time>2017-06-24T07:08:06Z</time>
      </trkpt>
      <trkpt lat="43.316410" lon="-1.851300">
        <time>2017-06-24T07:08:07Z</time>
      </trkpt>
      <trkpt lat="43.316410" lon="-1.851300">
        <time>2017-06-24T07:08:08Z</time>
      </trkpt>
      <trkpt lat="43.316410" lon="-1.851300">
        <time>2017-06-24T07:08:09Z</time>
      </trkpt>
      <trkpt lat="43.316410" lon="-1.851300">
        <time>2017-06-24T07:08:10Z</time>
      </trkpt>
      <trkpt lat="43.316410" lon="-1.851300">
        <time>2017-06-24T07:08:11Z</time>
      </trkpt>
      <trkpt lat="43.316410" lon="-1.851300">
        <time>2017-06-24T07:08:12Z</time>
      </trkpt>
      <trkpt lat="43.316410" lon="-1.851300">
        <time>2017-06-24T07:08:13Z</time>
      </trkpt>
      <trkpt lat="43.316410" lon="-1.851300">
        <time>2017-06-24T07:08:14Z</time>
      </trkpt>
      <trkpt lat="43.316410" lon="-1.851300">
        <time>2017-06-24T07:08:15Z</time>
      </trkpt>
      <trkpt lat="43.316410" lon="-1.851300">
        <time>2017-06-24T07:08:16Z</time>
      </trkpt>
      <trkpt lat="43.316410" lon="-1.851300">
        <time>2017-06-24T07:08:17Z</time>
      </trkpt>
      <trkpt lat="43.316410" lon="-1.851300">
        <time>2017-06-24T07:08:18Z</time>
      </trkpt>
      <trkpt lat="43.316410" lon="-1.851300">
        <time>2017-06-24T07:08:19Z</time>
      </trkpt>
      <trkpt lat="43.316410" lon="-1.851300">
        <time>2017-06-24T07:08:20Z</time>
      </trkpt>
      <trkpt lat="43.316410" lon="-1.851300">
        <time>2017-06-24T07:08:21Z</time>
      </trkpt>
      <trkpt lat="43.316410" lon="-1.851300">
        <time>2017-06-24T07:08:22Z</time>
      </trkpt>
      <trkpt lat="43.316410" lon="-1.851300">
        <time>2017-06-24T07:08:23Z</time>
      </trkpt>
      <trkpt lat="43.316410" lon="-1.851300">
        <time>2017-06-24T07:08:24Z</time>
      </trkpt>
      <trkpt lat="43.316410" lon="-1.851300">
        <time>2017-06-24T07:08:25Z</time>
      </trkpt>
      <trkpt lat="43.316410" lon="-1.851300">
        <time>2017-06-24T07:08:26Z</time>
      </trkpt>
      <trkpt lat="43.316410" lon="-1.851300">
        <time>2017-06-24T07:08:27Z</time>
      </trkpt>
      <trkpt lat="43.316410" lon="-1.851300">
        <time>2017-06-24T07:08:28Z</time>
      </trkpt>
      <trkpt lat="43.316410" lon="-1.851300">
        <time>2017-06-24T07:08:29Z</time>
      </trkpt>
      <trkpt lat="43.316410" lon="-1.851300">
        <time>2017-06-24T07:08:30Z</time>
      </trkpt>
      <trkpt lat="43.316410" lon="-1.851300">
        <time>2017-06-24T07:08:31Z</time>
      </trkpt>
      <trkpt lat="43.316410" lon="-1.851300">
        <time>2017-06-24T07:08:32Z</time>
      </trkpt>
      <trkpt lat="43.316410" lon="-1.851300">
        <time>2017-06-24T07:08:33Z</time>
      </trkpt>
      <trkpt lat="43.316410" lon="-1.851300">
        <time>2017-06-24T07:08:34Z</time>
      </trkpt>
      <trkpt lat="43.316410" lon="-1.851300">
        <time>2017-06-24T07:08:35Z</time>
      </trkpt>
      <trkpt lat="43.316410" lon="-1.851300">
        <time>2017-06-24T07:08:36Z</time>
      </trkpt>
      <trkpt lat="43.316410" lon="-1.851300">
        <time>2017-06-24T07:08:37Z</time>
      </trkpt>
      <trkpt lat="43.316410" lon="-1.851300">
        <time>2017-06-24T07:08:38Z</time>
      </trkpt>
      <trkpt lat="43.316410" lon="-1.851300">
        <time>2017-06-24T07:08:39Z</time>
      </trkpt>
      <trkpt lat="43.316410" lon="-1.851300">
        <time>2017-06-24T07:08:40Z</time>
      </trkpt>
      <trkpt lat="43.316410" lon="-1.851300">
        <time>2017-06-24T07:08:41Z</time>
      </trkpt>
      <trkpt lat="43.316410" lon="-1.851300">
        <time>2017-06-24T07:08:42Z</time>
      </trkpt>
      <trkpt lat="43.316410" lon="-1.851300">
        <time>2017-06-24T07:08:43Z</time>
      </trkpt>
      <trkpt lat="43.316410" lon="-1.851300">
        <time>2017-06-24T07:08:44Z</time>
      </trkpt>
      <trkpt lat="43.316410" lon="-1.851300">
        <time>2017-06-24T07:08:45Z</time>
      </trkpt>
      <trkpt lat="43.316410" lon="-1.851300">
        <time>2017-06-24T07:08:46Z</time>
      </trkpt>
      <trkpt lat="43.316410" lon="-1.851300">
        <time>2017-06-24T07:08:47Z</time>
      </trkpt>
      <trkpt lat="43.316410" lon="-1.851300">
        <time>2017-06-24T07:08:48Z</time>
      </trkpt>
      <trkpt lat="43.316410" lon="-1.851300">
        <time>2017-06-24T07:08:49Z</time>
      </trkpt>
      <trkpt lat="43.316410" lon="-1.851300">
        <time>2017-06-24T07:08:50Z</time>
      </trkpt>
      <trkpt lat="43.316410" lon="-1.851300">
        <time>2017-06-24T07:08:51Z</time>
      </trkpt>
      <trkpt lat="43.316410" lon="-1.851300">
        <time>2017-06-24T07:08:52Z</time>
      </trkpt>
      <trkpt lat="43.316410" lon="-1.851300">
        <time>2017-06-24T07:08:53Z</time>
      </trkpt>
      <trkpt lat="43.316410" lon="-1.851300">
        <time>2017-06-24T07:08:54Z</time>
      </trkpt>
      <trkpt lat="43.316410" lon="-1.851300">
        <time>2017-06-24T07:08:55Z</time>
      </trkpt>
      <trkpt lat="43.316410" lon="-1.851300">
        <time>2017-06-24T07:08:56Z</time>
      </trkpt>
      <trkpt lat="43.316410" lon="-1.851300">
        <time>2017-06-24T07:08:57Z</time>
      </trkpt>
      <trkpt lat="43.316410" lon="-1.851300">
        <time>2017-06-24T07:08:58Z</time>
      </trkpt>
      <trkpt lat="43.316410" lon="-1.851300">
        <time>2017-06-24T07:08:59Z</time>
      </trkpt>
      <trkpt lat="43.316410" lon="-1.851300">
        <time>2017-06-24T07:09:00Z</time>
      </trkpt>
      <trkpt lat="43.316410" lon="-1.851300">
        <time>2017-06-24T07:09:01Z</time>
      </trkpt>
      <trkpt lat="43.316410" lon="-1.851300">
        <time>2017-06-24T07:09:02Z</time>
      </trkpt>
      <trkpt lat="43.316410" lon="-1.851300">
        <time>2017-06-24T07:09:03Z</time>
      </trkpt>
      <trkpt lat="43.316410" lon="-1.851300">
        <time>2017-06-24T07:09:04Z</time>
      </trkpt>
      <trkpt lat="43.316410" lon="-1.851300">
        <time>2017-06-24T07:09:05Z</time>
      </trkpt>
      <trkpt lat="43.316410" lon="-1.851300">
        <time>2017-06-24T07:09:06Z</time>
      </trkpt>
      <trkpt lat="43.316410" lon="-1.851300">
        <time>2017-06-24T07:09:07Z</time>
      </trkpt>
      <trkpt lat="43.316410" lon="-1.851300">
        <time>2017-06-24T07:09:08Z</time>
      </trkpt>
      <trkpt lat="43.316410" lon="-1.851300">
        <time>2017-06-24T07:09:09Z</time>
      </trkpt>
      <trkpt lat="43.316410" lon="-1.851300">
        <time>2017-06-24T07:09:10Z</time>
      </trkpt>
      <trkpt lat="43.316410" lon="-1.851300">
        <time>2017-06-24T07:09:11Z</time>
      </trkpt>
      <trkpt lat="43.316410" lon="-1.851300">
        <time>2017-06-24T07:09:12Z</time>
      </trkpt>
      <trkpt lat="43.316410" lon="-1.851300">
        <time>2017-06-24T07:09:13Z</time>
      </trkpt>
      <trkpt lat="43.316410" lon="-1.851300">
        <time>2017-06-24T07:09:14Z</time>
      </trkpt>
      <trkpt lat="43.316410" lon="-1.851300">
        <time>2017-06-24T07:09:15Z</time>
      </trkpt>
      <trkpt lat="43.316410" lon="-1.851300">
        <time>2017-06-24T07:09:16Z</time>
      </trkpt>
      <trkpt lat="43.316410" lon="-1.851300">
        <time>2017-06-24T07:09:17Z</time>
      </trkpt>
      <trkpt lat="43.316410" lon="-1.851300">
        <time>2017-06-24T07:09:18Z</time>
      </trkpt>
      <trkpt lat="43.316410" lon="-1.851300">
        <time>2017-06-24T07:09:19Z</time>
      </trkpt>
      <trkpt lat="43.316410" lon="-1.851300">
        <time>2017-06-24T07:09:20Z</time>
      </trkpt>
      <trkpt lat="43.316410" lon="-1.851300">
        <time>2017-06-24T07:09:21Z</time>
      </trkpt>
      <trkpt lat="43.316410" lon="-1.851300">
        <time>2017-06-24T07:09:22Z</time>
      </trkpt>
      <trkpt lat="43.316410" lon="-1.851300">
        <time>2017-06-24T07:09:23Z</time>
      </trkpt>
      <trkpt lat="43.316410" lon="-1.851300">
        <time>2017-06-24T07:09:24Z</time>
      </trkpt>
      <trkpt lat="43.316410" lon="-1.851300">
        <time>2017-06-24T07:09:25Z</time>
      </trkpt>
      <trkpt lat="43.316410" lon="-1.851300">
        <time>2017-06-24T07:09:26Z</time>
      </trkpt>
      <trkpt lat="43.316410" lon="-1.851300">
        <time>2017-06-24T07:09:27Z</time>
      </trkpt>
      <trkpt lat="43.316410" lon="-1.851300">
        <time>2017-06-24T07:09:28Z</time>
      </trkpt>
      <trkpt lat="43.316410" lon="-1.851300">
        <time>2017-06-24T07:09:29Z</time>
      </trkpt>
      <trkpt lat="43.316410" lon="-1.851300">
        <time>2017-06-24T07:09:30Z</time>
      </trkpt>
      <trkpt lat="43.316410" lon="-1.851300">
        <time>2017-06-24T07:09:31Z</time>
      </trkpt>
      <trkpt lat="43.316410" lon="-1.851300">
        <time>2017-06-24T07:09:32Z</time>
      </trkpt>
      <trkpt lat="43.316410" lon="-1.851300">
        <time>2017-06-24T07:09:33Z</time>
      </trkpt>
      <trkpt lat="43.316410" lon="-1.851300">
        <time>2017-06-24T07:09:34Z</time>
      </trkpt>
      <trkpt lat="43.316410" lon="-1.851300">
        <time>2017-06-24T07:09:35Z</time>
      </trkpt>
      <trkpt lat="43.316410" lon="-1.851300">
        <time>2017-06-24T07:09:36Z</time>
      </trkpt>
      <trkpt lat="43.316410" lon="-1.851300">
        <time>2017-06-24T07:09:37Z</time>
      </trkpt>
      <trkpt lat="43.316410" lon="-1.851300">
        <time>2017-06-24T07:09:38Z</time>
      </trkpt>
      <trkpt lat="43.316410" lon="-1.851300">
        <time>2017-06-24T07:09:39Z</time>
      </trkpt>
      <trkpt lat="43.316410" lon="-1.851300">
        <time>2017-06-24T07:09:40Z</time>
      </trkpt>
      <trkpt lat="43.316410" lon="-1.851300">
        <time>2017-06-24T07:09:41Z</time>
      </trkpt>
      <trkpt lat="43.316410" lon="-1.851300">
        <time>2017-06-24T07:09:42Z</time>
      </trkpt>
      <trkpt lat="43.316410" lon="-1.851300">
        <time>2017-06-24T07:09:43Z</time>
      </trkpt>
      <trkpt lat="43.316410" lon="-1.851300">
        <time>2017-06-24T07:09:44Z</time>
      </trkpt>
      <trkpt lat="43.316410" lon="-1.851300">
        <time>2017-06-24T07:09:45Z</time>
      </trkpt>
      <trkpt lat="43.316410" lon="-1.851300">
        <time>2017-06-24T07:09:46Z</time>
      </trkpt>
      <trkpt lat="43.316410" lon="-1.851300">
        <time>2017-06-24T07:09:47Z</time>
      </trkpt>
      <trkpt lat="43.316410" lon="-1.851300">
        <time>2017-06-24T07:09:48Z</time>
      </trkpt>
      <trkpt lat="43.316410" lon="-1.851300">
        <time>2017-06-24T07:09:49Z</time>
      </trkpt>
      <trkpt lat="43.316410" lon="-1.851300">
        <time>2017-06-24T07:09:50Z</time>
      </trkpt>
      <trkpt lat="43.316410" lon="-1.851310">
        <time>2017-06-24T07:09:51Z</time>
      </trkpt>
      <trkpt lat="43.316410" lon="-1.851300">
        <time>2017-06-24T07:09:52Z</time>
      </trkpt>
      <trkpt lat="43.316410" lon="-1.851300">
        <time>2017-06-24T07:09:53Z</time>
      </trkpt>
      <trkpt lat="43.316410" lon="-1.851300">
        <time>2017-06-24T07:09:54Z</time>
      </trkpt>
      <trkpt lat="43.316410" lon="-1.851300">
        <time>2017-06-24T07:09:55Z</time>
      </trkpt>
      <trkpt lat="43.316420" lon="-1.851310">
        <time>2017-06-24T07:09:56Z</time>
      </trkpt>
      <trkpt lat="43.316420" lon="-1.851310">
        <time>2017-06-24T07:09:57Z</time>
      </trkpt>
      <trkpt lat="43.316420" lon="-1.851320">
        <time>2017-06-24T07:09:58Z</time>
      </trkpt>
      <trkpt lat="43.316430" lon="-1.851310">
        <time>2017-06-24T07:09:59Z</time>
      </trkpt>
      <trkpt lat="43.316450" lon="-1.851300">
        <time>2017-06-24T07:10:00Z</time>
      </trkpt>
      <trkpt lat="43.316480" lon="-1.851270">
        <time>2017-06-24T07:10:01Z</time>
      </trkpt>
      <trkpt lat="43.316550" lon="-1.851220">
        <time>2017-06-24T07:10:02Z</time>
      </trkpt>
      <trkpt lat="43.316590" lon="-1.851180">
        <time>2017-06-24T07:10:03Z</time>
      </trkpt>
      <trkpt lat="43.316620" lon="-1.851120">
        <time>2017-06-24T07:10:04Z</time>
      </trkpt>
      <trkpt lat="43.316650" lon="-1.851080">
        <time>2017-06-24T07:10:05Z</time>
      </trkpt>
      <trkpt lat="43.316680" lon="-1.851010">
        <time>2017-06-24T07:10:06Z</time>
      </trkpt>
      <trkpt lat="43.316720" lon="-1.850940">
        <time>2017-06-24T07:10:07Z</time>
      </trkpt>
      <trkpt lat="43.316760" lon="-1.850870">
        <time>2017-06-24T07:10:08Z</time>
      </trkpt>
      <trkpt lat="43.316800" lon="-1.850790">
        <time>2017-06-24T07:10:09Z</time>
      </trkpt>
      <trkpt lat="43.316840" lon="-1.850680">
        <time>2017-06-24T07:10:10Z</time>
      </trkpt>
      <trkpt lat="43.316890" lon="-1.850550">
        <time>2017-06-24T07:10:11Z</time>
      </trkpt>
      <trkpt lat="43.316940" lon="-1.850410">
        <time>2017-06-24T07:10:12Z</time>
      </trkpt>
      <trkpt lat="43.316990" lon="-1.850300">
        <time>2017-06-24T07:10:13Z</time>
      </trkpt>
      <trkpt lat="43.317020" lon="-1.850170">
        <time>2017-06-24T07:10:14Z</time>
      </trkpt>
      <trkpt lat="43.317070" lon="-1.850040">
        <time>2017-06-24T07:10:15Z</time>
      </trkpt>
      <trkpt lat="43.317100" lon="-1.849930">
        <time>2017-06-24T07:10:16Z</time>
      </trkpt>
      <trkpt lat="43.317140" lon="-1.849800">
        <time>2017-06-24T07:10:17Z</time>
      </trkpt>
      <trkpt lat="43.317200" lon="-1.849650">
        <time>2017-06-24T07:10:18Z</time>
      </trkpt>
      <trkpt lat="43.317250" lon="-1.849500">
        <time>2017-06-24T07:10:19Z</time>
      </trkpt>
      <trkpt lat="43.317300" lon="-1.849310">
        <time>2017-06-24T07:10:20Z</time>
      </trkpt>
      <trkpt lat="43.317350" lon="-1.849140">
        <time>2017-06-24T07:10:21Z</time>
      </trkpt>
      <trkpt lat="43.317410" lon="-1.848940">
        <time>2017-06-24T07:10:22Z</time>
      </trkpt>
      <trkpt lat="43.317450" lon="-1.848730">
        <time>2017-06-24T07:10:23Z</time>
      </trkpt>
      <trkpt lat="43.317490" lon="-1.848540">
        <time>2017-06-24T07:10:24Z</time>
      </trkpt>
      <trkpt lat="43.317520" lon="-1.848330">
        <time>2017-06-24T07:10:25Z</time>
      </trkpt>
      <trkpt lat="43.317560" lon="-1.848110">
        <time>2017-06-24T07:10:26Z</time>
      </trkpt>
      <trkpt lat="43.317580" lon="-1.847880">
        <time>2017-06-24T07:10:27Z</time>
      </trkpt>
      <trkpt lat="43.317600" lon="-1.847620">
        <time>2017-06-24T07:10:28Z</time>
      </trkpt>
      <trkpt lat="43.317620" lon="-1.847390">
        <time>2017-06-24T07:10:29Z</time>
      </trkpt>
      <trkpt lat="43.317620" lon="-1.847140">
        <time>2017-06-24T07:10:30Z</time>
      </trkpt>
      <trkpt lat="43.317610" lon="-1.846860">
        <time>2017-06-24T07:10:31Z</time>
      </trkpt>
      <trkpt lat="43.317610" lon="-1.846620">
        <time>2017-06-24T07:10:32Z</time>
      </trkpt>
      <trkpt lat="43.317590" lon="-1.846370">
        <time>2017-06-24T07:10:33Z</time>
      </trkpt>
      <trkpt lat="43.317570" lon="-1.846100">
        <time>2017-06-24T07:10:34Z</time>
      </trkpt>
      <trkpt lat="43.317530" lon="-1.845860">
        <time>2017-06-24T07:10:35Z</time>
      </trkpt>
      <trkpt lat="43.317480" lon="-1.845570">
        <time>2017-06-24T07:10:36Z</time>
      </trkpt>
      <trkpt lat="43.317430" lon="-1.845320">
        <time>2017-06-24T07:10:37Z</time>
      </trkpt>
      <trkpt lat="43.317370" lon="-1.845040">
        <time>2017-06-24T07:10:38Z</time>
      </trkpt>
      <trkpt lat="43.317310" lon="-1.844750">
        <time>2017-06-24T07:10:39Z</time>
      </trkpt>
      <trkpt lat="43.317260" lon="-1.844480">
        <time>2017-06-24T07:10:40Z</time>
      </trkpt>
      <trkpt lat="43.317210" lon="-1.844190">
        <time>2017-06-24T07:10:41Z</time>
      </trkpt>
      <trkpt lat="43.317170" lon="-1.843890">
        <time>2017-06-24T07:10:42Z</time>
      </trkpt>
      <trkpt lat="43.317130" lon="-1.843600">
        <time>2017-06-24T07:10:43Z</time>
      </trkpt>
      <trkpt lat="43.317110" lon="-1.843280">
        <time>2017-06-24T07:10:44Z</time>
      </trkpt>
      <trkpt lat="43.317090" lon="-1.843000">
        <time>2017-06-24T07:10:45Z</time>
      </trkpt>
      <trkpt lat="43.317080" lon="-1.842710">
        <time>2017-06-24T07:10:46Z</time>
      </trkpt>
      <trkpt lat="43.317070" lon="-1.842400">
        <time>2017-06-24T07:10:47Z</time>
      </trkpt>
      <trkpt lat="43.317080" lon="-1.842130">
        <time>2017-06-24T07:10:48Z</time>
      </trkpt>
      <trkpt lat="43.317100" lon="-1.841840">
        <time>2017-06-24T07:10:49Z</time>
      </trkpt>
      <trkpt lat="43.317130" lon="-1.841530">
        <time>2017-06-24T07:10:50Z</time>
      </trkpt>
      <trkpt lat="43.317170" lon="-1.841260">
        <time>2017-06-24T07:10:51Z</time>
      </trkpt>
      <trkpt lat="43.317220" lon="-1.840990">
        <time>2017-06-24T07:10:52Z</time>
      </trkpt>
      <trkpt lat="43.317270" lon="-1.840740">
        <time>2017-06-24T07:10:53Z</time>
      </trkpt>
      <trkpt lat="43.317330" lon="-1.840480">
        <time>2017-06-24T07:10:54Z</time>
      </trkpt>
      <trkpt lat="43.317400" lon="-1.840210">
        <time>2017-06-24T07:10:55Z</time>
      </trkpt>
      <trkpt lat="43.317470" lon="-1.839980">
        <time>2017-06-24T07:10:56Z</time>
      </trkpt>
      <trkpt lat="43.317560" lon="-1.839740">
        <time>2017-06-24T07:10:57Z</time>
      </trkpt>
      <trkpt lat="43.317640" lon="-1.839500">
        <time>2017-06-24T07:10:58Z</time>
      </trkpt>
      <trkpt lat="43.317730" lon="-1.839270">
        <time>2017-06-24T07:10:59Z</time>
      </trkpt>
      <trkpt lat="43.317830" lon="-1.839040">
        <time>2017-06-24T07:11:00Z</time>
      </trkpt>
      <trkpt lat="43.317910" lon="-1.838830">
        <time>2017-06-24T07:11:01Z</time>
      </trkpt>
      <trkpt lat="43.317990" lon="-1.838610">
        <time>2017-06-24T07:11:02Z</time>
      </trkpt>
      <trkpt lat="43.318070" lon="-1.838390">
        <time>2017-06-24T07:11:03Z</time>
      </trkpt>
      <trkpt lat="43.318130" lon="-1.838200">
        <time>2017-06-24T07:11:04Z</time>
      </trkpt>
      <trkpt lat="43.318190" lon="-1.838010">
        <time>2017-06-24T07:11:05Z</time>
      </trkpt>
      <trkpt lat="43.318240" lon="-1.837810">
        <time>2017-06-24T07:11:06Z</time>
      </trkpt>
      <trkpt lat="43.318280" lon="-1.837650">
        <time>2017-06-24T07:11:07Z</time>
      </trkpt>
      <trkpt lat="43.318320" lon="-1.837480">
        <time>2017-06-24T07:11:08Z</time>
      </trkpt>
      <trkpt lat="43.318340" lon="-1.837350">
        <time>2017-06-24T07:11:09Z</time>
      </trkpt>
      <trkpt lat="43.318360" lon="-1.837220">
        <time>2017-06-24T07:11:10Z</time>
      </trkpt>
      <trkpt lat="43.318380" lon="-1.837100">
        <time>2017-06-24T07:11:11Z</time>
      </trkpt>
      <trkpt lat="43.318400" lon="-1.837010">
        <time>2017-06-24T07:11:12Z</time>
      </trkpt>
      <trkpt lat="43.318410" lon="-1.836930">
        <time>2017-06-24T07:11:13Z</time>
      </trkpt>
      <trkpt lat="43.318410" lon="-1.836850">
        <time>2017-06-24T07:11:14Z</time>
      </trkpt>
      <trkpt lat="43.318420" lon="-1.836790">
        <time>2017-06-24T07:11:15Z</time>
      </trkpt>
      <trkpt lat="43.318430" lon="-1.836740">
        <time>2017-06-24T07:11:16Z</time>
      </trkpt>
      <trkpt lat="43.318430" lon="-1.836720">
        <time>2017-06-24T07:11:17Z</time>
      </trkpt>
      <trkpt lat="43.318430" lon="-1.836710">
        <time>2017-06-24T07:11:18Z</time>
      </trkpt>
      <trkpt lat="43.318420" lon="-1.836710">
        <time>2017-06-24T07:11:19Z</time>
      </trkpt>
      <trkpt lat="43.318420" lon="-1.836710">
        <time>2017-06-24T07:11:20Z</time>
      </trkpt>
      <trkpt lat="43.318430" lon="-1.836710">
        <time>2017-06-24T07:11:21Z</time>
      </trkpt>
      <trkpt lat="43.318420" lon="-1.836710">
        <time>2017-06-24T07:11:22Z</time>
      </trkpt>
      <trkpt lat="43.318420" lon="-1.836720">
        <time>2017-06-24T07:11:23Z</time>
      </trkpt>
      <trkpt lat="43.318420" lon="-1.836710">
        <time>2017-06-24T07:11:24Z</time>
      </trkpt>
      <trkpt lat="43.318430" lon="-1.836700">
        <time>2017-06-24T07:11:25Z</time>
      </trkpt>
      <trkpt lat="43.318430" lon="-1.836680">
        <time>2017-06-24T07:11:26Z</time>
      </trkpt>
      <trkpt lat="43.318430" lon="-1.836660">
        <time>2017-06-24T07:11:27Z</time>
      </trkpt>
      <trkpt lat="43.318430" lon="-1.836640">
        <time>2017-06-24T07:11:28Z</time>
      </trkpt>
      <trkpt lat="43.318440" lon="-1.836610">
        <time>2017-06-24T07:11:29Z</time>
      </trkpt>
      <trkpt lat="43.318440" lon="-1.836590">
        <time>2017-06-24T07:11:30Z</time>
      </trkpt>
      <trkpt lat="43.318450" lon="-1.836560">
        <time>2017-06-24T07:11:31Z</time>
      </trkpt>
      <trkpt lat="43.318450" lon="-1.836540">
        <time>2017-06-24T07:11:32Z</time>
      </trkpt>
      <trkpt lat="43.318460" lon="-1.836530">
        <time>2017-06-24T07:11:33Z</time>
      </trkpt>
      <trkpt lat="43.318460" lon="-1.836520">
        <time>2017-06-24T07:11:34Z</time>
      </trkpt>
      <trkpt lat="43.318460" lon="-1.836520">
        <time>2017-06-24T07:11:35Z</time>
      </trkpt>
      <trkpt lat="43.318460" lon="-1.836520">
        <time>2017-06-24T07:11:36Z</time>
      </trkpt>
      <trkpt lat="43.318460" lon="-1.836520">
        <time>2017-06-24T07:11:37Z</time>
      </trkpt>
      <trkpt lat="43.318460" lon="-1.836520">
        <time>2017-06-24T07:11:38Z</time>
      </trkpt>
      <trkpt lat="43.318460" lon="-1.836520">
        <time>2017-06-24T07:11:39Z</time>
      </trkpt>
      <trkpt lat="43.318460" lon="-1.836520">
        <time>2017-06-24T07:11:40Z</time>
      </trkpt>
      <trkpt lat="43.318460" lon="-1.836520">
        <time>2017-06-24T07:11:41Z</time>
      </trkpt>
      <trkpt lat="43.318450" lon="-1.836530">
        <time>2017-06-24T07:11:42Z</time>
      </trkpt>
      <trkpt lat="43.318450" lon="-1.836530">
        <time>2017-06-24T07:11:43Z</time>
      </trkpt>
      <trkpt lat="43.318450" lon="-1.836520">
        <time>2017-06-24T07:11:44Z</time>
      </trkpt>
      <trkpt lat="43.318450" lon="-1.836510">
        <time>2017-06-24T07:11:45Z</time>
      </trkpt>
      <trkpt lat="43.318460" lon="-1.836500">
        <time>2017-06-24T07:11:46Z</time>
      </trkpt>
      <trkpt lat="43.318460" lon="-1.836500">
        <time>2017-06-24T07:11:47Z</time>
      </trkpt>
      <trkpt lat="43.318460" lon="-1.836500">
        <time>2017-06-24T07:11:48Z</time>
      </trkpt>
      <trkpt lat="43.318460" lon="-1.836500">
        <time>2017-06-24T07:11:49Z</time>
      </trkpt>
      <trkpt lat="43.318460" lon="-1.836500">
        <time>2017-06-24T07:11:50Z</time>
      </trkpt>
      <trkpt lat="43.318460" lon="-1.836500">
        <time>2017-06-24T07:11:51Z</time>
      </trkpt>
      <trkpt lat="43.318460" lon="-1.836500">
        <time>2017-06-24T07:11:52Z</time>
      </trkpt>
      <trkpt lat="43.318460" lon="-1.836500">
        <time>2017-06-24T07:11:53Z</time>
      </trkpt>
      <trkpt lat="43.318460" lon="-1.836500">
        <time>2017-06-24T07:11:54Z</time>
      </trkpt>
      <trkpt lat="43.318460" lon="-1.836500">
        <time>2017-06-24T07:11:55Z</time>
      </trkpt>
      <trkpt lat="43.318460" lon="-1.836500">
        <time>2017-06-24T07:11:56Z</time>
      </trkpt>
      <trkpt lat="43.318460" lon="-1.836500">
        <time>2017-06-24T07:11:57Z</time>
      </trkpt>
      <trkpt lat="43.318460" lon="-1.836500">
        <time>2017-06-24T07:11:58Z</time>
      </trkpt>
      <trkpt lat="43.318460" lon="-1.836500">
        <time>2017-06-24T07:11:59Z</time>
      </trkpt>
      <trkpt lat="43.318460" lon="-1.836500">
        <time>2017-06-24T07:12:00Z</time>
      </trkpt>
      <trkpt lat="43.318460" lon="-1.836500">
        <time>2017-06-24T07:12:01Z</time>
      </trkpt>
      <trkpt lat="43.318460" lon="-1.836500">
        <time>2017-06-24T07:12:02Z</time>
      </trkpt>
      <trkpt lat="43.318460" lon="-1.836500">
        <time>2017-06-24T07:12:03Z</time>
      </trkpt>
      <trkpt lat="43.318460" lon="-1.836500">
        <time>2017-06-24T07:12:04Z</time>
      </trkpt>
      <trkpt lat="43.318460" lon="-1.836500">
        <time>2017-06-24T07:12:05Z</time>
      </trkpt>
      <trkpt lat="43.318460" lon="-1.836500">
        <time>2017-06-24T07:12:06Z</time>
      </trkpt>
      <trkpt lat="43.318460" lon="-1.836500">
        <time>2017-06-24T07:12:07Z</time>
      </trkpt>
      <trkpt lat="43.318460" lon="-1.836500">
        <time>2017-06-24T07:12:08Z</time>
      </trkpt>
      <trkpt lat="43.318460" lon="-1.836500">
        <time>2017-06-24T07:12:09Z</time>
      </trkpt>
      <trkpt lat="43.318460" lon="-1.836500">
        <time>2017-06-24T07:12:10Z</time>
      </trkpt>
      <trkpt lat="43.318460" lon="-1.836500">
        <time>2017-06-24T07:12:11Z</time>
      </trkpt>
      <trkpt lat="43.318460" lon="-1.836500">
        <time>2017-06-24T07:12:12Z</time>
      </trkpt>
      <trkpt lat="43.318460" lon="-1.836500">
        <time>2017-06-24T07:12:13Z</time>
      </trkpt>
      <trkpt lat="43.318460" lon="-1.836500">
        <time>2017-06-24T07:12:14Z</time>
      </trkpt>
      <trkpt lat="43.318460" lon="-1.836500">
        <time>2017-06-24T07:12:15Z</time>
      </trkpt>
      <trkpt lat="43.318460" lon="-1.836500">
        <time>2017-06-24T07:12:16Z</time>
      </trkpt>
      <trkpt lat="43.318460" lon="-1.836500">
        <time>2017-06-24T07:12:17Z</time>
      </trkpt>
      <trkpt lat="43.318460" lon="-1.836500">
        <time>2017-06-24T07:12:18Z</time>
      </trkpt>
      <trkpt lat="43.318460" lon="-1.836500">
        <time>2017-06-24T07:12:19Z</time>
      </trkpt>
      <trkpt lat="43.318460" lon="-1.836500">
        <time>2017-06-24T07:12:20Z</time>
      </trkpt>
      <trkpt lat="43.318460" lon="-1.836500">
        <time>2017-06-24T07:12:21Z</time>
      </trkpt>
      <trkpt lat="43.318460" lon="-1.836500">
        <time>2017-06-24T07:12:22Z</time>
      </trkpt>
      <trkpt lat="43.318460" lon="-1.836500">
        <time>2017-06-24T07:12:23Z</time>
      </trkpt>
      <trkpt lat="43.318460" lon="-1.836500">
        <time>2017-06-24T07:12:24Z</time>
      </trkpt>
      <trkpt lat="43.318460" lon="-1.836500">
        <time>2017-06-24T07:12:25Z</time>
      </trkpt>
      <trkpt lat="43.318460" lon="-1.836500">
        <time>2017-06-24T07:12:26Z</time>
      </trkpt>
      <trkpt lat="43.318460" lon="-1.836500">
        <time>2017-06-24T07:12:27Z</time>
      </trkpt>
      <trkpt lat="43.318460" lon="-1.836500">
        <time>2017-06-24T07:12:28Z</time>
      </trkpt>
      <trkpt lat="43.318460" lon="-1.836500">
        <time>2017-06-24T07:12:29Z</time>
      </trkpt>
      <trkpt lat="43.318460" lon="-1.836500">
        <time>2017-06-24T07:12:30Z</time>
      </trkpt>
      <trkpt lat="43.318460" lon="-1.836500">
        <time>2017-06-24T07:12:31Z</time>
      </trkpt>
      <trkpt lat="43.318460" lon="-1.836500">
        <time>2017-06-24T07:12:32Z</time>
      </trkpt>
      <trkpt lat="43.318460" lon="-1.836500">
        <time>2017-06-24T07:12:33Z</time>
      </trkpt>
      <trkpt lat="43.318460" lon="-1.836500">
        <time>2017-06-24T07:12:34Z</time>
      </trkpt>
      <trkpt lat="43.318460" lon="-1.836500">
        <time>2017-06-24T07:12:35Z</time>
      </trkpt>
      <trkpt lat="43.318460" lon="-1.836500">
        <time>2017-06-24T07:12:36Z</time>
      </trkpt>
      <trkpt lat="43.318460" lon="-1.836500">
        <time>2017-06-24T07:12:37Z</time>
      </trkpt>
      <trkpt lat="43.318460" lon="-1.836500">
        <time>2017-06-24T07:12:38Z</time>
      </trkpt>
      <trkpt lat="43.318460" lon="-1.836500">
        <time>2017-06-24T07:12:39Z</time>
      </trkpt>
      <trkpt lat="43.318460" lon="-1.836500">
        <time>2017-06-24T07:12:40Z</time>
      </trkpt>
      <trkpt lat="43.318460" lon="-1.836500">
        <time>2017-06-24T07:12:41Z</time>
      </trkpt>
      <trkpt lat="43.318460" lon="-1.836500">
        <time>2017-06-24T07:12:42Z</time>
      </trkpt>
      <trkpt lat="43.318460" lon="-1.836500">
        <time>2017-06-24T07:12:43Z</time>
      </trkpt>
      <trkpt lat="43.318460" lon="-1.836500">
        <time>2017-06-24T07:12:44Z</time>
      </trkpt>
      <trkpt lat="43.318460" lon="-1.836500">
        <time>2017-06-24T07:12:45Z</time>
      </trkpt>
      <trkpt lat="43.318460" lon="-1.836500">
        <time>2017-06-24T07:12:46Z</time>
      </trkpt>
      <trkpt lat="43.318460" lon="-1.836500">
        <time>2017-06-24T07:12:47Z</time>
      </trkpt>
      <trkpt lat="43.318460" lon="-1.836500">
        <time>2017-06-24T07:12:48Z</time>
      </trkpt>
      <trkpt lat="43.318460" lon="-1.836490">
        <time>2017-06-24T07:12:49Z</time>
      </trkpt>
      <trkpt lat="43.318460" lon="-1.836470">
        <time>2017-06-24T07:12:50Z</time>
      </trkpt>
      <trkpt lat="43.318470" lon="-1.836440">
        <time>2017-06-24T07:12:51Z</time>
      </trkpt>
      <trkpt lat="43.318480" lon="-1.836390">
        <time>2017-06-24T07:12:52Z</time>
      </trkpt>
      <trkpt lat="43.318490" lon="-1.836260">
        <time>2017-06-24T07:12:53Z</time>
      </trkpt>
      <trkpt lat="43.318500" lon="-1.836170">
        <time>2017-06-24T07:12:54Z</time>
      </trkpt>
      <trkpt lat="43.318510" lon="-1.836050">
        <time>2017-06-24T07:12:55Z</time>
      </trkpt>
      <trkpt lat="43.318530" lon="-1.835920">
        <time>2017-06-24T07:12:56Z</time>
      </trkpt>
      <trkpt lat="43.318560" lon="-1.835770">
        <time>2017-06-24T07:12:57Z</time>
      </trkpt>
      <trkpt lat="43.318580" lon="-1.835600">
        <time>2017-06-24T07:12:58Z</time>
      </trkpt>
      <trkpt lat="43.318600" lon="-1.835440">
        <time>2017-06-24T07:12:59Z</time>
      </trkpt>
      <trkpt lat="43.318630" lon="-1.835280">
        <time>2017-06-24T07:13:00Z</time>
      </trkpt>
      <trkpt lat="43.318650" lon="-1.835140">
        <time>2017-06-24T07:13:01Z</time>
      </trkpt>
      <trkpt lat="43.318670" lon="-1.834990">
        <time>2017-06-24T07:13:02Z</time>
      </trkpt>
      <trkpt lat="43.318690" lon="-1.834800">
        <time>2017-06-24T07:13:03Z</time>
      </trkpt>
      <trkpt lat="43.318720" lon="-1.834620">
        <time>2017-06-24T07:13:04Z</time>
      </trkpt>
      <trkpt lat="43.318750" lon="-1.834400">
        <time>2017-06-24T07:13:05Z</time>
      </trkpt>
      <trkpt lat="43.318780" lon="-1.834170">
        <time>2017-06-24T07:13:06Z</time>
      </trkpt>
      <trkpt lat="43.318810" lon="-1.833930">
        <time>2017-06-24T07:13:07Z</time>
      </trkpt>
      <trkpt lat="43.318840" lon="-1.833660">
        <time>2017-06-24T07:13:08Z</time>
      </trkpt>
      <trkpt lat="43.318870" lon="-1.833430">
        <time>2017-06-24T07:13:09Z</time>
      </trkpt>
      <trkpt lat="43.318910" lon="-1.833180">
        <time>2017-06-24T07:13:10Z</time>
      </trkpt>
      <trkpt lat="43.318940" lon="-1.832890">
        <time>2017-06-24T07:13:11Z</time>
      </trkpt>
      <trkpt lat="43.318980" lon="-1.832630">
        <time>2017-06-24T07:13:12Z</time>
      </trkpt>
      <trkpt lat="43.319030" lon="-1.832340">
        <time>2017-06-24T07:13:13Z</time>
      </trkpt>
      <trkpt lat="43.319070" lon="-1.832020">
        <time>2017-06-24T07:13:14Z</time>
      </trkpt>
      <trkpt lat="43.319120" lon="-1.831750">
        <time>2017-06-24T07:13:15Z</time>
      </trkpt>
      <trkpt lat="43.319170" lon="-1.831440">
        <time>2017-06-24T07:13:16Z</time>
      </trkpt>
      <trkpt lat="43.319210" lon="-1.831170">
        <time>2017-06-24T07:13:17Z</time>
      </trkpt>
      <trkpt lat="43.319270" lon="-1.830870">
        <time>2017-06-24T07:13:18Z</time>
      </trkpt>
      <trkpt lat="43.319330" lon="-1.830540">
        <time>2017-06-24T07:13:19Z</time>
      </trkpt>
      <trkpt lat="43.319390" lon="-1.830270">
        <time>2017-06-24T07:13:20Z</time>
      </trkpt>
      <trkpt lat="43.319460" lon="-1.829960">
        <time>2017-06-24T07:13:21Z</time>
      </trkpt>
      <trkpt lat="43.319540" lon="-1.829640">
        <time>2017-06-24T07:13:22Z</time>
      </trkpt>
      <trkpt lat="43.319630" lon="-1.829320">
        <time>2017-06-24T07:13:23Z</time>
      </trkpt>
      <trkpt lat="43.319750" lon="-1.829000">
        <time>2017-06-24T07:13:24Z</time>
      </trkpt>
      <trkpt lat="43.319850" lon="-1.828730">
        <time>2017-06-24T07:13:25Z</time>
      </trkpt>
      <trkpt lat="43.319970" lon="-1.828440">
        <time>2017-06-24T07:13:26Z</time>
      </trkpt>
      <trkpt lat="43.320110" lon="-1.828150">
        <time>2017-06-24T07:13:27Z</time>
      </trkpt>
      <trkpt lat="43.320250" lon="-1.827900">
        <time>2017-06-24T07:13:28Z</time>
      </trkpt>
      <trkpt lat="43.320400" lon="-1.827640">
        <time>2017-06-24T07:13:29Z</time>
      </trkpt>
      <trkpt lat="43.320580" lon="-1.827380">
        <time>2017-06-24T07:13:30Z</time>
      </trkpt>
      <trkpt lat="43.320750" lon="-1.827160">
        <time>2017-06-24T07:13:31Z</time>
      </trkpt>
      <trkpt lat="43.320950" lon="-1.826920">
        <time>2017-06-24T07:13:32Z</time>
      </trkpt>
      <trkpt lat="43.321130" lon="-1.826740">
        <time>2017-06-24T07:13:33Z</time>
      </trkpt>
      <trkpt lat="43.321320" lon="-1.826540">
        <time>2017-06-24T07:13:34Z</time>
      </trkpt>
      <trkpt lat="43.321530" lon="-1.826340">
        <time>2017-06-24T07:13:35Z</time>
      </trkpt>
      <trkpt lat="43.321720" lon="-1.826160">
        <time>2017-06-24T07:13:36Z</time>
      </trkpt>
      <trkpt lat="43.321920" lon="-1.825980">
        <time>2017-06-24T07:13:37Z</time>
      </trkpt>
      <trkpt lat="43.322120" lon="-1.825780">
        <time>2017-06-24T07:13:38Z</time>
      </trkpt>
      <trkpt lat="43.322320" lon="-1.825580">
        <time>2017-06-24T07:13:39Z</time>
      </trkpt>
      <trkpt lat="43.322530" lon="-1.825350">
        <time>2017-06-24T07:13:40Z</time>
      </trkpt>
      <trkpt lat="43.322700" lon="-1.825140">
        <time>2017-06-24T07:13:41Z</time>
      </trkpt>
      <trkpt lat="43.322880" lon="-1.824900">
        <time>2017-06-24T07:13:42Z</time>
      </trkpt>
      <trkpt lat="43.323060" lon="-1.824630">
        <time>2017-06-24T07:13:43Z</time>
      </trkpt>
      <trkpt lat="43.323220" lon="-1.824380">
        <time>2017-06-24T07:13:44Z</time>
      </trkpt>
      <trkpt lat="43.323380" lon="-1.824090">
        <time>2017-06-24T07:13:45Z</time>
      </trkpt>
      <trkpt lat="43.323530" lon="-1.823780">
        <time>2017-06-24T07:13:46Z</time>
      </trkpt>
      <trkpt lat="43.323660" lon="-1.823510">
        <time>2017-06-24T07:13:47Z</time>
      </trkpt>
      <trkpt lat="43.323780" lon="-1.823190">
        <time>2017-06-24T07:13:48Z</time>
      </trkpt>
      <trkpt lat="43.323890" lon="-1.822900">
        <time>2017-06-24T07:13:49Z</time>
      </trkpt>
      <trkpt lat="43.323980" lon="-1.822590">
        <time>2017-06-24T07:13:50Z</time>
      </trkpt>
      <trkpt lat="43.324080" lon="-1.822240">
        <time>2017-06-24T07:13:51Z</time>
      </trkpt>
      <trkpt lat="43.324150" lon="-1.821930">
        <time>2017-06-24T07:13:52Z</time>
      </trkpt>
      <trkpt lat="43.324230" lon="-1.821600">
        <time>2017-06-24T07:13:53Z</time>
      </trkpt>
      <trkpt lat="43.324300" lon="-1.821270">
        <time>2017-06-24T07:13:54Z</time>
      </trkpt>
      <trkpt lat="43.324370" lon="-1.820930">
        <time>2017-06-24T07:13:55Z</time>
      </trkpt>
      <trkpt lat="43.324450" lon="-1.820560">
        <time>2017-06-24T07:13:56Z</time>
      </trkpt>
      <trkpt lat="43.324510" lon="-1.820220">
        <time>2017-06-24T07:13:57Z</time>
      </trkpt>
      <trkpt lat="43.324580" lon="-1.819860">
        <time>2017-06-24T07:13:58Z</time>
      </trkpt>
      <trkpt lat="43.324670" lon="-1.819490">
        <time>2017-06-24T07:13:59Z</time>
      </trkpt>
      <trkpt lat="43.324750" lon="-1.819150">
        <time>2017-06-24T07:14:00Z</time>
      </trkpt>
      <trkpt lat="43.324840" lon="-1.818800">
        <time>2017-06-24T07:14:01Z</time>
      </trkpt>
      <trkpt lat="43.324950" lon="-1.818440">
        <time>2017-06-24T07:14:02Z</time>
      </trkpt>
      <trkpt lat="43.325050" lon="-1.818130">
        <time>2017-06-24T07:14:03Z</time>
      </trkpt>
      <trkpt lat="43.325170" lon="-1.817770">
        <time>2017-06-24T07:14:04Z</time>
      </trkpt>
      <trkpt lat="43.325280" lon="-1.817470">
        <time>2017-06-24T07:14:05Z</time>
      </trkpt>
      <trkpt lat="43.325390" lon="-1.817160">
        <time>2017-06-24T07:14:06Z</time>
      </trkpt>
      <trkpt lat="43.325520" lon="-1.816840">
        <time>2017-06-24T07:14:07Z</time>
      </trkpt>
      <trkpt lat="43.325640" lon="-1.816570">
        <time>2017-06-24T07:14:08Z</time>
      </trkpt>
      <trkpt lat="43.325770" lon="-1.816290">
        <time>2017-06-24T07:14:09Z</time>
      </trkpt>
      <trkpt lat="43.325890" lon="-1.816000">
        <time>2017-06-24T07:14:10Z</time>
      </trkpt>
      <trkpt lat="43.326020" lon="-1.815730">
        <time>2017-06-24T07:14:11Z</time>
      </trkpt>
      <trkpt lat="43.326160" lon="-1.815460">
        <time>2017-06-24T07:14:12Z</time>
      </trkpt>
      <trkpt lat="43.326270" lon="-1.815230">
        <time>2017-06-24T07:14:13Z</time>
      </trkpt>
      <trkpt lat="43.326390" lon="-1.815000">
        <time>2017-06-24T07:14:14Z</time>
      </trkpt>
      <trkpt lat="43.326510" lon="-1.814740">
        <time>2017-06-24T07:14:15Z</time>
      </trkpt>
      <trkpt lat="43.326620" lon="-1.814520">
        <time>2017-06-24T07:14:16Z</time>
      </trkpt>
      <trkpt lat="43.326720" lon="-1.814270">
        <time>2017-06-24T07:14:17Z</time>
      </trkpt>
      <trkpt lat="43.326820" lon="-1.813990">
        <time>2017-06-24T07:14:18Z</time>
      </trkpt>
      <trkpt lat="43.326920" lon="-1.813750">
        <time>2017-06-24T07:14:19Z</time>
      </trkpt>
      <trkpt lat="43.327020" lon="-1.813460">
        <time>2017-06-24T07:14:20Z</time>
      </trkpt>
      <trkpt lat="43.327110" lon="-1.813210">
        <time>2017-06-24T07:14:21Z</time>
      </trkpt>
      <trkpt lat="43.327190" lon="-1.812930">
        <time>2017-06-24T07:14:22Z</time>
      </trkpt>
      <trkpt lat="43.327270" lon="-1.812630">
        <time>2017-06-24T07:14:23Z</time>
      </trkpt>
      <trkpt lat="43.327340" lon="-1.812370">
        <time>2017-06-24T07:14:24Z</time>
      </trkpt>
      <trkpt lat="43.327400" lon="-1.812070">
        <time>2017-06-24T07:14:25Z</time>
      </trkpt>
      <trkpt lat="43.327460" lon="-1.811770">
        <time>2017-06-24T07:14:26Z</time>
      </trkpt>
      <trkpt lat="43.327510" lon="-1.811470">
        <time>2017-06-24T07:14:27Z</time>
      </trkpt>
      <trkpt lat="43.327560" lon="-1.811140">
        <time>2017-06-24T07:14:28Z</time>
      </trkpt>
      <trkpt lat="43.327600" lon="-1.810850">
        <time>2017-06-24T07:14:29Z</time>
      </trkpt>
      <trkpt lat="43.327630" lon="-1.810530">
        <time>2017-06-24T07:14:30Z</time>
      </trkpt>
      <trkpt lat="43.327650" lon="-1.810190">
        <time>2017-06-24T07:14:31Z</time>
      </trkpt>
      <trkpt lat="43.327660" lon="-1.809890">
        <time>2017-06-24T07:14:32Z</time>
      </trkpt>
      <trkpt lat="43.327670" lon="-1.809570">
        <time>2017-06-24T07:14:33Z</time>
      </trkpt>
      <trkpt lat="43.327680" lon="-1.809220">
        <time>2017-06-24T07:14:34Z</time>
      </trkpt>
      <trkpt lat="43.327690" lon="-1.808910">
        <time>2017-06-24T07:14:35Z</time>
      </trkpt>
      <trkpt lat="43.327710" lon="-1.808540">
        <time>2017-06-24T07:14:36Z</time>
      </trkpt>
      <trkpt lat="43.327730" lon="-1.808210">
        <time>2017-06-24T07:14:37Z</time>
      </trkpt>
      <trkpt lat="43.327760" lon="-1.807850">
        <time>2017-06-24T07:14:38Z</time>
      </trkpt>
      <trkpt lat="43.327800" lon="-1.807470">
        <time>2017-06-24T07:14:39Z</time>
      </trkpt>
      <trkpt lat="43.327850" lon="-1.807130">
        <time>2017-06-24T07:14:40Z</time>
      </trkpt>
      <trkpt lat="43.327920" lon="-1.806780">
        <time>2017-06-24T07:14:41Z</time>
      </trkpt>
      <trkpt lat="43.328000" lon="-1.806430">
        <time>2017-06-24T07:14:42Z</time>
      </trkpt>
      <trkpt lat="43.328100" lon="-1.806090">
        <time>2017-06-24T07:14:43Z</time>
      </trkpt>
      <trkpt lat="43.328200" lon="-1.805740">
        <time>2017-06-24T07:14:44Z</time>
      </trkpt>
      <trkpt lat="43.328320" lon="-1.805440">
        <time>2017-06-24T07:14:45Z</time>
      </trkpt>
      <trkpt lat="43.328450" lon="-1.805130">
        <time>2017-06-24T07:14:46Z</time>
      </trkpt>
      <trkpt lat="43.328600" lon="-1.804800">
        <time>2017-06-24T07:14:47Z</time>
      </trkpt>
      <trkpt lat="43.328730" lon="-1.804520">
        <time>2017-06-24T07:14:48Z</time>
      </trkpt>
      <trkpt lat="43.328880" lon="-1.804230">
        <time>2017-06-24T07:14:49Z</time>
      </trkpt>
      <trkpt lat="43.329050" lon="-1.803930">
        <time>2017-06-24T07:14:50Z</time>
      </trkpt>
      <trkpt lat="43.329190" lon="-1.803660">
        <time>2017-06-24T07:14:51Z</time>
      </trkpt>
      <trkpt lat="43.329350" lon="-1.803360">
        <time>2017-06-24T07:14:52Z</time>
      </trkpt>
      <trkpt lat="43.329490" lon="-1.803090">
        <time>2017-06-24T07:14:53Z</time>
      </trkpt>
      <trkpt lat="43.329640" lon="-1.802800">
        <time>2017-06-24T07:14:54Z</time>
      </trkpt>
      <trkpt lat="43.329780" lon="-1.802490">
        <time>2017-06-24T07:14:55Z</time>
      </trkpt>
      <trkpt lat="43.329900" lon="-1.802200">
        <time>2017-06-24T07:14:56Z</time>
      </trkpt>
      <trkpt lat="43.330030" lon="-1.801890">
        <time>2017-06-24T07:14:57Z</time>
      </trkpt>
      <trkpt lat="43.330150" lon="-1.801580">
        <time>2017-06-24T07:14:58Z</time>
      </trkpt>
      <trkpt lat="43.330260" lon="-1.801270">
        <time>2017-06-24T07:14:59Z</time>
      </trkpt>
      <trkpt lat="43.330380" lon="-1.800920">
        <time>2017-06-24T07:15:00Z</time>
      </trkpt>
      <trkpt lat="43.330470" lon="-1.800610">
        <time>2017-06-24T07:15:01Z</time>
      </trkpt>
      <trkpt lat="43.330560" lon="-1.800270">
        <time>2017-06-24T07:15:02Z</time>
      </trkpt>
      <trkpt lat="43.330630" lon="-1.799890">
        <time>2017-06-24T07:15:03Z</time>
      </trkpt>
      <trkpt lat="43.330700" lon="-1.799560">
        <time>2017-06-24T07:15:04Z</time>
      </trkpt>
      <trkpt lat="43.330760" lon="-1.799210">
        <time>2017-06-24T07:15:05Z</time>
      </trkpt>
      <trkpt lat="43.330820" lon="-1.798820">
        <time>2017-06-24T07:15:06Z</time>
      </trkpt>
      <trkpt lat="43.330870" lon="-1.798480">
        <time>2017-06-24T07:15:07Z</time>
      </trkpt>
      <trkpt lat="43.330910" lon="-1.798080">
        <time>2017-06-24T07:15:08Z</time>
      </trkpt>
      <trkpt lat="43.330930" lon="-1.797730">
        <time>2017-06-24T07:15:09Z</time>
      </trkpt>
      <trkpt lat="43.330940" lon="-1.797360">
        <time>2017-06-24T07:15:10Z</time>
      </trkpt>
      <trkpt lat="43.330950" lon="-1.796950">
        <time>2017-06-24T07:15:11Z</time>
      </trkpt>
      <trkpt lat="43.330950" lon="-1.796600">
        <time>2017-06-24T07:15:12Z</time>
      </trkpt>
      <trkpt lat="43.330940" lon="-1.796230">
        <time>2017-06-24T07:15:13Z</time>
      </trkpt>
      <trkpt lat="43.330920" lon="-1.795840">
        <time>2017-06-24T07:15:14Z</time>
      </trkpt>
      <trkpt lat="43.330880" lon="-1.795470">
        <time>2017-06-24T07:15:15Z</time>
      </trkpt>
      <trkpt lat="43.330840" lon="-1.795100">
        <time>2017-06-24T07:15:16Z</time>
      </trkpt>
      <trkpt lat="43.330790" lon="-1.794770">
        <time>2017-06-24T07:15:17Z</time>
      </trkpt>
      <trkpt lat="43.330730" lon="-1.794410">
        <time>2017-06-24T07:15:18Z</time>
      </trkpt>
      <trkpt lat="43.330670" lon="-1.794030">
        <time>2017-06-24T07:15:19Z</time>
      </trkpt>
      <trkpt lat="43.330620" lon="-1.793700">
        <time>2017-06-24T07:15:20Z</time>
      </trkpt>
      <trkpt lat="43.330570" lon="-1.793350">
        <time>2017-06-24T07:15:21Z</time>
      </trkpt>
      <trkpt lat="43.330520" lon="-1.792970">
        <time>2017-06-24T07:15:22Z</time>
      </trkpt>
      <trkpt lat="43.330490" lon="-1.792650">
        <time>2017-06-24T07:15:23Z</time>
      </trkpt>
      <trkpt lat="43.330470" lon="-1.792280">
        <time>2017-06-24T07:15:24Z</time>
      </trkpt>
      <trkpt lat="43.330470" lon="-1.791950">
        <time>2017-06-24T07:15:25Z</time>
      </trkpt>
      <trkpt lat="43.330480" lon="-1.791610">
        <time>2017-06-24T07:15:26Z</time>
      </trkpt>
      <trkpt lat="43.330500" lon="-1.791240">
        <time>2017-06-24T07:15:27Z</time>
      </trkpt>
      <trkpt lat="43.330530" lon="-1.790910">
        <time>2017-06-24T07:15:28Z</time>
      </trkpt>
      <trkpt lat="43.330580" lon="-1.790570">
        <time>2017-06-24T07:15:29Z</time>
      </trkpt>
      <trkpt lat="43.330640" lon="-1.790230">
        <time>2017-06-24T07:15:30Z</time>
      </trkpt>
      <trkpt lat="43.330710" lon="-1.789890">
        <time>2017-06-24T07:15:31Z</time>
      </trkpt>
      <trkpt lat="43.330810" lon="-1.789530">
        <time>2017-06-24T07:15:32Z</time>
      </trkpt>
      <trkpt lat="43.330900" lon="-1.789240">
        <time>2017-06-24T07:15:33Z</time>
      </trkpt>
      <trkpt lat="43.331000" lon="-1.788910">
        <time>2017-06-24T07:15:34Z</time>
      </trkpt>
      <trkpt lat="43.331110" lon="-1.788570">
        <time>2017-06-24T07:15:35Z</time>
      </trkpt>
      <trkpt lat="43.331210" lon="-1.788280">
        <time>2017-06-24T07:15:36Z</time>
      </trkpt>
      <trkpt lat="43.331320" lon="-1.787960">
        <time>2017-06-24T07:15:37Z</time>
      </trkpt>
      <trkpt lat="43.331420" lon="-1.787640">
        <time>2017-06-24T07:15:38Z</time>
      </trkpt>
      <trkpt lat="43.331500" lon="-1.787330">
        <time>2017-06-24T07:15:39Z</time>
      </trkpt>
      <trkpt lat="43.331590" lon="-1.786980">
        <time>2017-06-24T07:15:40Z</time>
      </trkpt>
      <trkpt lat="43.331650" lon="-1.786680">
        <time>2017-06-24T07:15:41Z</time>
      </trkpt>
      <trkpt lat="43.331720" lon="-1.786360">
        <time>2017-06-24T07:15:42Z</time>
      </trkpt>
      <trkpt lat="43.331780" lon="-1.786010">
        <time>2017-06-24T07:15:43Z</time>
      </trkpt>
      <trkpt lat="43.331820" lon="-1.785680">
        <time>2017-06-24T07:15:44Z</time>
      </trkpt>
      <trkpt lat="43.331860" lon="-1.785340">
        <time>2017-06-24T07:15:45Z</time>
      </trkpt>
      <trkpt lat="43.331890" lon="-1.784980">
        <time>2017-06-24T07:15:46Z</time>
      </trkpt>
      <trkpt lat="43.331910" lon="-1.784620">
        <time>2017-06-24T07:15:47Z</time>
      </trkpt>
      <trkpt lat="43.331930" lon="-1.784230">
        <time>2017-06-24T07:15:48Z</time>
      </trkpt>
      <trkpt lat="43.331940" lon="-1.783880">
        <time>2017-06-24T07:15:49Z</time>
      </trkpt>
      <trkpt lat="43.331950" lon="-1.783510">
        <time>2017-06-24T07:15:50Z</time>
      </trkpt>
      <trkpt lat="43.331950" lon="-1.783120">
        <time>2017-06-24T07:15:51Z</time>
      </trkpt>
      <trkpt lat="43.331960" lon="-1.782780">
        <time>2017-06-24T07:15:52Z</time>
      </trkpt>
      <trkpt lat="43.331980" lon="-1.782410">
        <time>2017-06-24T07:15:53Z</time>
      </trkpt>
      <trkpt lat="43.332020" lon="-1.782020">
        <time>2017-06-24T07:15:54Z</time>
      </trkpt>
      <trkpt lat="43.332080" lon="-1.781690">
        <time>2017-06-24T07:15:55Z</time>
      </trkpt>
      <trkpt lat="43.332160" lon="-1.781310">
        <time>2017-06-24T07:15:56Z</time>
      </trkpt>
      <trkpt lat="43.332230" lon="-1.780970">
        <time>2017-06-24T07:15:57Z</time>
      </trkpt>
      <trkpt lat="43.332330" lon="-1.780630">
        <time>2017-06-24T07:15:58Z</time>
      </trkpt>
      <trkpt lat="43.332460" lon="-1.780290">
        <time>2017-06-24T07:15:59Z</time>
      </trkpt>
      <trkpt lat="43.332580" lon="-1.779990">
        <time>2017-06-24T07:16:00Z</time>
      </trkpt>
      <trkpt lat="43.332720" lon="-1.779680">
        <time>2017-06-24T07:16:01Z</time>
      </trkpt>
      <trkpt lat="43.332870" lon="-1.779380">
        <time>2017-06-24T07:16:02Z</time>
      </trkpt>
      <trkpt lat="43.333040" lon="-1.779090">
        <time>2017-06-24T07:16:03Z</time>
      </trkpt>
      <trkpt lat="43.333220" lon="-1.778780">
        <time>2017-06-24T07:16:04Z</time>
      </trkpt>
      <trkpt lat="43.333390" lon="-1.778500">
        <time>2017-06-24T07:16:05Z</time>
      </trkpt>
      <trkpt lat="43.333570" lon="-1.778210">
        <time>2017-06-24T07:16:06Z</time>
      </trkpt>
      <trkpt lat="43.333750" lon="-1.777890">
        <time>2017-06-24T07:16:07Z</time>
      </trkpt>
      <trkpt lat="43.333910" lon="-1.777610">
        <time>2017-06-24T07:16:08Z</time>
      </trkpt>
      <trkpt lat="43.334070" lon="-1.777300">
        <time>2017-06-24T07:16:09Z</time>
      </trkpt>
      <trkpt lat="43.334240" lon="-1.776970">
        <time>2017-06-24T07:16:10Z</time>
      </trkpt>
      <trkpt lat="43.334380" lon="-1.776670">
        <time>2017-06-24T07:16:11Z</time>
      </trkpt>
      <trkpt lat="43.334520" lon="-1.776320">
        <time>2017-06-24T07:16:12Z</time>
      </trkpt>
      <trkpt lat="43.334640" lon="-1.776020">
        <time>2017-06-24T07:16:13Z</time>
      </trkpt>
      <trkpt lat="43.334760" lon="-1.775680">
        <time>2017-06-24T07:16:14Z</time>
      </trkpt>
      <trkpt lat="43.334870" lon="-1.775320">
        <time>2017-06-24T07:16:15Z</time>
      </trkpt>
      <trkpt lat="43.334970" lon="-1.775010">
        <time>2017-06-24T07:16:16Z</time>
      </trkpt>
      <trkpt lat="43.335050" lon="-1.774660">
        <time>2017-06-24T07:16:17Z</time>
      </trkpt>
      <trkpt lat="43.335140" lon="-1.774320">
        <time>2017-06-24T07:16:18Z</time>
      </trkpt>
      <trkpt lat="43.335210" lon="-1.773970">
        <time>2017-06-24T07:16:19Z</time>
      </trkpt>
      <trkpt lat="43.335280" lon="-1.773600">
        <time>2017-06-24T07:16:20Z</time>
      </trkpt>
      <trkpt lat="43.335330" lon="-1.773270">
        <time>2017-06-24T07:16:21Z</time>
      </trkpt>
      <trkpt lat="43.335370" lon="-1.772930">
        <time>2017-06-24T07:16:22Z</time>
      </trkpt>
      <trkpt lat="43.335410" lon="-1.772560">
        <time>2017-06-24T07:16:23Z</time>
      </trkpt>
      <trkpt lat="43.335440" lon="-1.772220">
        <time>2017-06-24T07:16:24Z</time>
      </trkpt>
      <trkpt lat="43.335470" lon="-1.771850">
        <time>2017-06-24T07:16:25Z</time>
      </trkpt>
      <trkpt lat="43.335490" lon="-1.771460">
        <time>2017-06-24T07:16:26Z</time>
      </trkpt>
      <trkpt lat="43.335500" lon="-1.771100">
        <time>2017-06-24T07:16:27Z</time>
      </trkpt>
      <trkpt lat="43.335510" lon="-1.770700">
        <time>2017-06-24T07:16:28Z</time>
      </trkpt>
      <trkpt lat="43.335510" lon="-1.770340">
        <time>2017-06-24T07:16:29Z</time>
      </trkpt>
      <trkpt lat="43.335520" lon="-1.769950">
        <time>2017-06-24T07:16:30Z</time>
      </trkpt>
      <trkpt lat="43.335540" lon="-1.769550">
        <time>2017-06-24T07:16:31Z</time>
      </trkpt>
      <trkpt lat="43.335580" lon="-1.769200">
        <time>2017-06-24T07:16:32Z</time>
      </trkpt>
      <trkpt lat="43.335630" lon="-1.768830">
        <time>2017-06-24T07:16:33Z</time>
      </trkpt>
      <trkpt lat="43.335690" lon="-1.768460">
        <time>2017-06-24T07:16:34Z</time>
      </trkpt>
      <trkpt lat="43.335770" lon="-1.768110">
        <time>2017-06-24T07:16:35Z</time>
      </trkpt>
      <trkpt lat="43.335870" lon="-1.767730">
        <time>2017-06-24T07:16:36Z</time>
      </trkpt>
      <trkpt lat="43.335970" lon="-1.767420">
        <time>2017-06-24T07:16:37Z</time>
      </trkpt>
      <trkpt lat="43.336090" lon="-1.767090">
        <time>2017-06-24T07:16:38Z</time>
      </trkpt>
      <trkpt lat="43.336230" lon="-1.766750">
        <time>2017-06-24T07:16:39Z</time>
      </trkpt>
      <trkpt lat="43.336360" lon="-1.766460">
        <time>2017-06-24T07:16:40Z</time>
      </trkpt>
      <trkpt lat="43.336510" lon="-1.766150">
        <time>2017-06-24T07:16:41Z</time>
      </trkpt>
      <trkpt lat="43.336680" lon="-1.765840">
        <time>2017-06-24T07:16:42Z</time>
      </trkpt>
      <trkpt lat="43.336820" lon="-1.765560">
        <time>2017-06-24T07:16:43Z</time>
      </trkpt>
      <trkpt lat="43.336980" lon="-1.765240">
        <time>2017-06-24T07:16:44Z</time>
      </trkpt>
      <trkpt lat="43.337130" lon="-1.764960">
        <time>2017-06-24T07:16:45Z</time>
      </trkpt>
      <trkpt lat="43.337260" lon="-1.764650">
        <time>2017-06-24T07:16:46Z</time>
      </trkpt>
      <trkpt lat="43.337390" lon="-1.764320">
        <time>2017-06-24T07:16:47Z</time>
      </trkpt>
      <trkpt lat="43.337500" lon="-1.764010">
        <time>2017-06-24T07:16:48Z</time>
      </trkpt>
      <trkpt lat="43.337600" lon="-1.763670">
        <time>2017-06-24T07:16:49Z</time>
      </trkpt>
      <trkpt lat="43.337690" lon="-1.763340">
        <time>2017-06-24T07:16:50Z</time>
      </trkpt>
      <trkpt lat="43.337770" lon="-1.762990">
        <time>2017-06-24T07:16:51Z</time>
      </trkpt>
      <trkpt lat="43.337840" lon="-1.762620">
        <time>2017-06-24T07:16:52Z</time>
      </trkpt>
      <trkpt lat="43.337890" lon="-1.762290">
        <time>2017-06-24T07:16:53Z</time>
      </trkpt>
      <trkpt lat="43.337930" lon="-1.761930">
        <time>2017-06-24T07:16:54Z</time>
      </trkpt>
      <trkpt lat="43.337970" lon="-1.761540">
        <time>2017-06-24T07:16:55Z</time>
      </trkpt>
      <trkpt lat="43.338000" lon="-1.761210">
        <time>2017-06-24T07:16:56Z</time>
      </trkpt>
      <trkpt lat="43.338040" lon="-1.760850">
        <time>2017-06-24T07:16:57Z</time>
      </trkpt>
      <trkpt lat="43.338080" lon="-1.760480">
        <time>2017-06-24T07:16:58Z</time>
      </trkpt>
      <trkpt lat="43.338130" lon="-1.760150">
        <time>2017-06-24T07:16:59Z</time>
      </trkpt>
      <trkpt lat="43.338190" lon="-1.759780">
        <time>2017-06-24T07:17:00Z</time>
      </trkpt>
      <trkpt lat="43.338250" lon="-1.759450">
        <time>2017-06-24T07:17:01Z</time>
      </trkpt>
      <trkpt lat="43.338320" lon="-1.759110">
        <time>2017-06-24T07:17:02Z</time>
      </trkpt>
      <trkpt lat="43.338400" lon="-1.758750">
        <time>2017-06-24T07:17:03Z</time>
      </trkpt>
      <trkpt lat="43.338470" lon="-1.758440">
        <time>2017-06-24T07:17:04Z</time>
      </trkpt>
      <trkpt lat="43.338550" lon="-1.758120">
        <time>2017-06-24T07:17:05Z</time>
      </trkpt>
      <trkpt lat="43.338620" lon="-1.757790">
        <time>2017-06-24T07:17:06Z</time>
      </trkpt>
      <trkpt lat="43.338690" lon="-1.757490">
        <time>2017-06-24T07:17:07Z</time>
      </trkpt>
      <trkpt lat="43.338760" lon="-1.757160">
        <time>2017-06-24T07:17:08Z</time>
      </trkpt>
      <trkpt lat="43.338830" lon="-1.756910">
        <time>2017-06-24T07:17:09Z</time>
      </trkpt>
      <trkpt lat="43.338900" lon="-1.756630">
        <time>2017-06-24T07:17:10Z</time>
      </trkpt>
      <trkpt lat="43.338970" lon="-1.756350">
        <time>2017-06-24T07:17:11Z</time>
      </trkpt>
      <trkpt lat="43.339040" lon="-1.756100">
        <time>2017-06-24T07:17:12Z</time>
      </trkpt>
      <trkpt lat="43.339100" lon="-1.755860">
        <time>2017-06-24T07:17:13Z</time>
      </trkpt>
      <trkpt lat="43.339160" lon="-1.755590">
        <time>2017-06-24T07:17:14Z</time>
      </trkpt>
      <trkpt lat="43.339210" lon="-1.755370">
        <time>2017-06-24T07:17:15Z</time>
      </trkpt>
      <trkpt lat="43.339270" lon="-1.755110">
        <time>2017-06-24T07:17:16Z</time>
      </trkpt>
      <trkpt lat="43.339300" lon="-1.754890">
        <time>2017-06-24T07:17:17Z</time>
      </trkpt>
      <trkpt lat="43.339340" lon="-1.754660">
        <time>2017-06-24T07:17:18Z</time>
      </trkpt>
      <trkpt lat="43.339380" lon="-1.754410">
        <time>2017-06-24T07:17:19Z</time>
      </trkpt>
      <trkpt lat="43.339430" lon="-1.754220">
        <time>2017-06-24T07:17:20Z</time>
      </trkpt>
      <trkpt lat="43.339480" lon="-1.754010">
        <time>2017-06-24T07:17:21Z</time>
      </trkpt>
      <trkpt lat="43.339530" lon="-1.753790">
        <time>2017-06-24T07:17:22Z</time>
      </trkpt>
      <trkpt lat="43.339570" lon="-1.753590">
        <time>2017-06-24T07:17:23Z</time>
      </trkpt>
      <trkpt lat="43.339620" lon="-1.753370">
        <time>2017-06-24T07:17:24Z</time>
      </trkpt>
      <trkpt lat="43.339670" lon="-1.753180">
        <time>2017-06-24T07:17:25Z</time>
      </trkpt>
      <trkpt lat="43.339720" lon="-1.752960">
        <time>2017-06-24T07:17:26Z</time>
      </trkpt>
      <trkpt lat="43.339770" lon="-1.752740">
        <time>2017-06-24T07:17:27Z</time>
      </trkpt>
      <trkpt lat="43.339810" lon="-1.752550">
        <time>2017-06-24T07:17:28Z</time>
      </trkpt>
      <trkpt lat="43.339850" lon="-1.752350">
        <time>2017-06-24T07:17:29Z</time>
      </trkpt>
      <trkpt lat="43.339900" lon="-1.752140">
        <time>2017-06-24T07:17:30Z</time>
      </trkpt>
      <trkpt lat="43.339940" lon="-1.751970">
        <time>2017-06-24T07:17:31Z</time>
      </trkpt>
      <trkpt lat="43.339970" lon="-1.751790">
        <time>2017-06-24T07:17:32Z</time>
      </trkpt>
      <trkpt lat="43.340010" lon="-1.751630">
        <time>2017-06-24T07:17:33Z</time>
      </trkpt>
      <trkpt lat="43.340050" lon="-1.751470">
        <time>2017-06-24T07:17:34Z</time>
      </trkpt>
      <trkpt lat="43.340090" lon="-1.751310">
        <time>2017-06-24T07:17:35Z</time>
      </trkpt>
      <trkpt lat="43.340130" lon="-1.751170">
        <time>2017-06-24T07:17:36Z</time>
      </trkpt>
      <trkpt lat="43.340170" lon="-1.751010">
        <time>2017-06-24T07:17:37Z</time>
      </trkpt>
      <trkpt lat="43.340210" lon="-1.750860">
        <time>2017-06-24T07:17:38Z</time>
      </trkpt>
      <trkpt lat="43.340260" lon="-1.750730">
        <time>2017-06-24T07:17:39Z</time>
      </trkpt>
      <trkpt lat="43.340310" lon="-1.750590">
        <time>2017-06-24T07:17:40Z</time>
      </trkpt>
      <trkpt lat="43.340350" lon="-1.750480">
        <time>2017-06-24T07:17:41Z</time>
      </trkpt>
      <trkpt lat="43.340400" lon="-1.750360">
        <time>2017-06-24T07:17:42Z</time>
      </trkpt>
      <trkpt lat="43.340440" lon="-1.750240">
        <time>2017-06-24T07:17:43Z</time>
      </trkpt>
      <trkpt lat="43.340480" lon="-1.750140">
        <time>2017-06-24T07:17:44Z</time>
      </trkpt>
      <trkpt lat="43.340520" lon="-1.750040">
        <time>2017-06-24T07:17:45Z</time>
      </trkpt>
      <trkpt lat="43.340570" lon="-1.749950">
        <time>2017-06-24T07:17:46Z</time>
      </trkpt>
      <trkpt lat="43.340610" lon="-1.749870">
        <time>2017-06-24T07:17:47Z</time>
      </trkpt>
      <trkpt lat="43.340650" lon="-1.749780">
        <time>2017-06-24T07:17:48Z</time>
      </trkpt>
      <trkpt lat="43.340690" lon="-1.749710">
        <time>2017-06-24T07:17:49Z</time>
      </trkpt>
      <trkpt lat="43.340720" lon="-1.749640">
        <time>2017-06-24T07:17:50Z</time>
      </trkpt>
      <trkpt lat="43.340760" lon="-1.749580">
        <time>2017-06-24T07:17:51Z</time>
      </trkpt>
      <trkpt lat="43.340780" lon="-1.749540">
        <time>2017-06-24T07:17:52Z</time>
      </trkpt>
      <trkpt lat="43.340810" lon="-1.749500">
        <time>2017-06-24T07:17:53Z</time>
      </trkpt>
      <trkpt lat="43.340830" lon="-1.749470">
        <time>2017-06-24T07:17:54Z</time>
      </trkpt>
      <trkpt lat="43.340850" lon="-1.749440">
        <time>2017-06-24T07:17:55Z</time>
      </trkpt>
      <trkpt lat="43.340860" lon="-1.749410">
        <time>2017-06-24T07:17:56Z</time>
      </trkpt>
      <trkpt lat="43.340870" lon="-1.749400">
        <time>2017-06-24T07:17:57Z</time>
      </trkpt>
      <trkpt lat="43.340880" lon="-1.749400">
        <time>2017-06-24T07:17:58Z</time>
      </trkpt>
      <trkpt lat="43.340880" lon="-1.749390">
        <time>2017-06-24T07:17:59Z</time>
      </trkpt>
      <trkpt lat="43.340880" lon="-1.749390">
        <time>2017-06-24T07:18:00Z</time>
      </trkpt>
      <trkpt lat="43.340880" lon="-1.749390">
        <time>2017-06-24T07:18:01Z</time>
      </trkpt>
      <trkpt lat="43.340880" lon="-1.749390">
        <time>2017-06-24T07:18:02Z</time>
      </trkpt>
      <trkpt lat="43.340880" lon="-1.749390">
        <time>2017-06-24T07:18:03Z</time>
      </trkpt>
      <trkpt lat="43.340880" lon="-1.749390">
        <time>2017-06-24T07:18:04Z</time>
      </trkpt>
      <trkpt lat="43.340880" lon="-1.749390">
        <time>2017-06-24T07:18:05Z</time>
      </trkpt>
      <trkpt lat="43.340880" lon="-1.749390">
        <time>2017-06-24T07:18:06Z</time>
      </trkpt>
      <trkpt lat="43.340880" lon="-1.749390">
        <time>2017-06-24T07:18:07Z</time>
      </trkpt>
      <trkpt lat="43.340880" lon="-1.749390">
        <time>2017-06-24T07:18:08Z</time>
      </trkpt>
      <trkpt lat="43.340880" lon="-1.749390">
        <time>2017-06-24T07:18:09Z</time>
      </trkpt>
      <trkpt lat="43.340880" lon="-1.749390">
        <time>2017-06-24T07:18:10Z</time>
      </trkpt>
      <trkpt lat="43.340880" lon="-1.749390">
        <time>2017-06-24T07:18:11Z</time>
      </trkpt>
      <trkpt lat="43.340880" lon="-1.749390">
        <time>2017-06-24T07:18:12Z</time>
      </trkpt>
      <trkpt lat="43.340880" lon="-1.749390">
        <time>2017-06-24T07:18:13Z</time>
      </trkpt>
      <trkpt lat="43.340880" lon="-1.749380">
        <time>2017-06-24T07:18:14Z</time>
      </trkpt>
      <trkpt lat="43.340880" lon="-1.749370">
        <time>2017-06-24T07:18:15Z</time>
      </trkpt>
      <trkpt lat="43.340890" lon="-1.749340">
        <time>2017-06-24T07:18:16Z</time>
      </trkpt>
      <trkpt lat="43.340910" lon="-1.749310">
        <time>2017-06-24T07:18:17Z</time>
      </trkpt>
      <trkpt lat="43.340920" lon="-1.749280">
        <time>2017-06-24T07:18:18Z</time>
      </trkpt>
      <trkpt lat="43.340920" lon="-1.749280">
        <time>2017-06-24T07:18:19Z</time>
      </trkpt>
      <trkpt lat="43.340920" lon="-1.749280">
        <time>2017-06-24T07:18:20Z</time>
      </trkpt>
      <trkpt lat="43.340920" lon="-1.749280">
        <time>2017-06-24T07:18:21Z</time>
      </trkpt>
      <trkpt lat="43.340920" lon="-1.749280">
        <time>2017-06-24T07:18:22Z</time>
      </trkpt>
      <trkpt lat="43.340920" lon="-1.749280">
        <time>2017-06-24T07:18:23Z</time>
      </trkpt>
      <trkpt lat="43.340920" lon="-1.749280">
        <time>2017-06-24T07:18:24Z</time>
      </trkpt>
      <trkpt lat="43.340920" lon="-1.749280">
        <time>2017-06-24T07:18:25Z</time>
      </trkpt>
      <trkpt lat="43.340920" lon="-1.749280">
        <time>2017-06-24T07:18:26Z</time>
      </trkpt>
      <trkpt lat="43.340920" lon="-1.749280">
        <time>2017-06-24T07:18:27Z</time>
      </trkpt>
      <trkpt lat="43.340920" lon="-1.749280">
        <time>2017-06-24T07:18:28Z</time>
      </trkpt>
      <trkpt lat="43.340920" lon="-1.749280">
        <time>2017-06-24T07:18:29Z</time>
      </trkpt>
      <trkpt lat="43.340920" lon="-1.749280">
        <time>2017-06-24T07:18:30Z</time>
      </trkpt>
      <trkpt lat="43.340920" lon="-1.749280">
        <time>2017-06-24T07:18:31Z</time>
      </trkpt>
      <trkpt lat="43.340920" lon="-1.749280">
        <time>2017-06-24T07:18:32Z</time>
      </trkpt>
      <trkpt lat="43.340920" lon="-1.749280">
        <time>2017-06-24T07:18:33Z</time>
      </trkpt>
      <trkpt lat="43.340920" lon="-1.749280">
        <time>2017-06-24T07:18:34Z</time>
      </trkpt>
      <trkpt lat="43.340920" lon="-1.749280">
        <time>2017-06-24T07:18:35Z</time>
      </trkpt>
      <trkpt lat="43.340920" lon="-1.749280">
        <time>2017-06-24T07:18:36Z</time>
      </trkpt>
      <trkpt lat="43.340920" lon="-1.749280">
        <time>2017-06-24T07:18:37Z</time>
      </trkpt>
      <trkpt lat="43.340920" lon="-1.749280">
        <time>2017-06-24T07:18:38Z</time>
      </trkpt>
      <trkpt lat="43.340920" lon="-1.749280">
        <time>2017-06-24T07:18:39Z</time>
      </trkpt>
      <trkpt lat="43.340920" lon="-1.749280">
        <time>2017-06-24T07:18:40Z</time>
      </trkpt>
      <trkpt lat="43.340920" lon="-1.749280">
        <time>2017-06-24T07:18:41Z</time>
      </trkpt>
      <trkpt lat="43.340920" lon="-1.749280">
        <time>2017-06-24T07:18:42Z</time>
      </trkpt>
      <trkpt lat="43.340920" lon="-1.749280">
        <time>2017-06-24T07:18:43Z</time>
      </trkpt>
      <trkpt lat="43.340920" lon="-1.749280">
        <time>2017-06-24T07:18:44Z</time>
      </trkpt>
      <trkpt lat="43.340920" lon="-1.749280">
        <time>2017-06-24T07:18:45Z</time>
      </trkpt>
      <trkpt lat="43.340920" lon="-1.749280">
        <time>2017-06-24T07:18:46Z</time>
      </trkpt>
      <trkpt lat="43.340920" lon="-1.749280">
        <time>2017-06-24T07:18:47Z</time>
      </trkpt>
      <trkpt lat="43.340920" lon="-1.749280">
        <time>2017-06-24T07:18:48Z</time>
      </trkpt>
      <trkpt lat="43.340920" lon="-1.749280">
        <time>2017-06-24T07:18:49Z</time>
      </trkpt>
      <trkpt lat="43.340920" lon="-1.749280">
        <time>2017-06-24T07:18:50Z</time>
      </trkpt>
      <trkpt lat="43.340920" lon="-1.749280">
        <time>2017-06-24T07:18:51Z</time>
      </trkpt>
      <trkpt lat="43.340920" lon="-1.749280">
        <time>2017-06-24T07:18:52Z</time>
      </trkpt>
      <trkpt lat="43.340920" lon="-1.749280">
        <time>2017-06-24T07:18:53Z</time>
      </trkpt>
      <trkpt lat="43.340920" lon="-1.749280">
        <time>2017-06-24T07:18:54Z</time>
      </trkpt>
      <trkpt lat="43.340920" lon="-1.749280">
        <time>2017-06-24T07:18:55Z</time>
      </trkpt>
      <trkpt lat="43.340920" lon="-1.749280">
        <time>2017-06-24T07:18:56Z</time>
      </trkpt>
      <trkpt lat="43.340920" lon="-1.749280">
        <time>2017-06-24T07:18:57Z</time>
      </trkpt>
      <trkpt lat="43.340920" lon="-1.749280">
        <time>2017-06-24T07:18:58Z</time>
      </trkpt>
      <trkpt lat="43.340920" lon="-1.749280">
        <time>2017-06-24T07:18:59Z</time>
      </trkpt>
      <trkpt lat="43.340920" lon="-1.749280">
        <time>2017-06-24T07:19:00Z</time>
      </trkpt>
      <trkpt lat="43.340920" lon="-1.749280">
        <time>2017-06-24T07:19:01Z</time>
      </trkpt>
      <trkpt lat="43.340920" lon="-1.749280">
        <time>2017-06-24T07:19:02Z</time>
      </trkpt>
      <trkpt lat="43.340920" lon="-1.749280">
        <time>2017-06-24T07:19:03Z</time>
      </trkpt>
      <trkpt lat="43.340920" lon="-1.749280">
        <time>2017-06-24T07:19:04Z</time>
      </trkpt>
      <trkpt lat="43.340920" lon="-1.749280">
        <time>2017-06-24T07:19:05Z</time>
      </trkpt>
      <trkpt lat="43.340920" lon="-1.749280">
        <time>2017-06-24T07:19:06Z</time>
      </trkpt>
      <trkpt lat="43.340920" lon="-1.749280">
        <time>2017-06-24T07:19:07Z</time>
      </trkpt>
      <trkpt lat="43.340920" lon="-1.749280">
        <time>2017-06-24T07:19:08Z</time>
      </trkpt>
      <trkpt lat="43.340920" lon="-1.749280">
        <time>2017-06-24T07:19:09Z</time>
      </trkpt>
      <trkpt lat="43.340920" lon="-1.749280">
        <time>2017-06-24T07:19:10Z</time>
      </trkpt>
      <trkpt lat="43.340920" lon="-1.749280">
        <time>2017-06-24T07:19:11Z</time>
      </trkpt>
      <trkpt lat="43.340920" lon="-1.749280">
        <time>2017-06-24T07:19:12Z</time>
      </trkpt>
      <trkpt lat="43.340920" lon="-1.749280">
        <time>2017-06-24T07:19:13Z</time>
      </trkpt>
      <trkpt lat="43.340920" lon="-1.749280">
        <time>2017-06-24T07:19:14Z</time>
      </trkpt>
      <trkpt lat="43.340920" lon="-1.749280">
        <time>2017-06-24T07:19:15Z</time>
      </trkpt>
      <trkpt lat="43.340920" lon="-1.749280">
        <time>2017-06-24T07:19:16Z</time>
      </trkpt>
      <trkpt lat="43.340920" lon="-1.749280">
        <time>2017-06-24T07:19:17Z</time>
      </trkpt>
      <trkpt lat="43.340920" lon="-1.749280">
        <time>2017-06-24T07:19:18Z</time>
      </trkpt>
      <trkpt lat="43.340920" lon="-1.749280">
        <time>2017-06-24T07:19:19Z</time>
      </trkpt>
      <trkpt lat="43.340930" lon="-1.749270">
        <time>2017-06-24T07:19:20Z</time>
      </trkpt>
      <trkpt lat="43.340930" lon="-1.749260">
        <time>2017-06-24T07:19:21Z</time>
      </trkpt>
      <trkpt lat="43.340940" lon="-1.749240">
        <time>2017-06-24T07:19:22Z</time>
      </trkpt>
      <trkpt lat="43.340950" lon="-1.749210">
        <time>2017-06-24T07:19:23Z</time>
      </trkpt>
      <trkpt lat="43.340960" lon="-1.749170">
        <time>2017-06-24T07:19:24Z</time>
      </trkpt>
      <trkpt lat="43.340990" lon="-1.749110">
        <time>2017-06-24T07:19:25Z</time>
      </trkpt>
      <trkpt lat="43.341030" lon="-1.749030">
        <time>2017-06-24T07:19:26Z</time>
      </trkpt>
      <trkpt lat="43.341080" lon="-1.748950">
        <time>2017-06-24T07:19:27Z</time>
      </trkpt>
      <trkpt lat="43.341120" lon="-1.748880">
        <time>2017-06-24T07:19:28Z</time>
      </trkpt>
      <trkpt lat="43.341170" lon="-1.748780">
        <time>2017-06-24T07:19:29Z</time>
      </trkpt>
      <trkpt lat="43.341220" lon="-1.748680">
        <time>2017-06-24T07:19:30Z</time>
      </trkpt>
      <trkpt lat="43.341260" lon="-1.748590">
        <time>2017-06-24T07:19:31Z</time>
      </trkpt>
      <trkpt lat="43.341310" lon="-1.748480">
        <time>2017-06-24T07:19:32Z</time>
      </trkpt>
      <trkpt lat="43.341350" lon="-1.748370">
        <time>2017-06-24T07:19:33Z</time>
      </trkpt>
      <trkpt lat="43.341390" lon="-1.748230">
        <time>2017-06-24T07:19:34Z</time>
      </trkpt>
      <trkpt lat="43.341430" lon="-1.748070">
        <time>2017-06-24T07:19:35Z</time>
      </trkpt>
      <trkpt lat="43.341450" lon="-1.747900">
        <time>2017-06-24T07:19:36Z</time>
      </trkpt>
      <trkpt lat="43.341470" lon="-1.747720">
        <time>2017-06-24T07:19:37Z</time>
      </trkpt>
      <trkpt lat="43.341480" lon="-1.747520">
        <time>2017-06-24T07:19:38Z</time>
      </trkpt>
      <trkpt lat="43.341470" lon="-1.747340">
        <time>2017-06-24T07:19:39Z</time>
      </trkpt>
      <trkpt lat="43.341460" lon="-1.747120">
        <time>2017-06-24T07:19:40Z</time>
      </trkpt>
      <trkpt lat="43.341450" lon="-1.746940">
        <time>2017-06-24T07:19:41Z</time>
      </trkpt>
      <trkpt lat="43.341440" lon="-1.746750">
        <time>2017-06-24T07:19:42Z</time>
      </trkpt>
      <trkpt lat="43.341420" lon="-1.746530">
        <time>2017-06-24T07:19:43Z</time>
      </trkpt>
      <trkpt lat="43.341410" lon="-1.746330">
        <time>2017-06-24T07:19:44Z</time>
      </trkpt>
      <trkpt lat="43.341380" lon="-1.746120">
        <time>2017-06-24T07:19:45Z</time>
      </trkpt>
      <trkpt lat="43.341370" lon="-1.745890">
        <time>2017-06-24T07:19:46Z</time>
      </trkpt>
      <trkpt lat="43.341350" lon="-1.745660">
        <time>2017-06-24T07:19:47Z</time>
      </trkpt>
      <trkpt lat="43.341330" lon="-1.745400">
        <time>2017-06-24T07:19:48Z</time>
      </trkpt>
      <trkpt lat="43.341310" lon="-1.745170">
        <time>2017-06-24T07:19:49Z</time>
      </trkpt>
      <trkpt lat="43.341280" lon="-1.744920">
        <time>2017-06-24T07:19:50Z</time>
      </trkpt>
      <trkpt lat="43.341250" lon="-1.744650">
        <time>2017-06-24T07:19:51Z</time>
      </trkpt>
      <trkpt lat="43.341230" lon="-1.744410">
        <time>2017-06-24T07:19:52Z</time>
      </trkpt>
      <trkpt lat="43.341210" lon="-1.744150">
        <time>2017-06-24T07:19:53Z</time>
      </trkpt>
      <trkpt lat="43.341190" lon="-1.743860">
        <time>2017-06-24T07:19:54Z</time>
      </trkpt>
      <trkpt lat="43.341160" lon="-1.743590">
        <time>2017-06-24T07:19:55Z</time>
      </trkpt>
      <trkpt lat="43.341140" lon="-1.743280">
        <time>2017-06-24T07:19:56Z</time>
      </trkpt>
      <trkpt lat="43.341120" lon="-1.743020">
        <time>2017-06-24T07:19:57Z</time>
      </trkpt>
      <trkpt lat="43.341100" lon="-1.742740">
        <time>2017-06-24T07:19:58Z</time>
      </trkpt>
      <trkpt lat="43.341080" lon="-1.742450">
        <time>2017-06-24T07:19:59Z</time>
      </trkpt>
      <trkpt lat="43.341070" lon="-1.742190">
        <time>2017-06-24T07:20:00Z</time>
      </trkpt>
      <trkpt lat="43.341050" lon="-1.741910">
        <time>2017-06-24T07:20:01Z</time>
      </trkpt>
      <trkpt lat="43.341030" lon="-1.741620">
        <time>2017-06-24T07:20:02Z</time>
      </trkpt>
      <trkpt lat="43.341000" lon="-1.741330">
        <time>2017-06-24T07:20:03Z</time>
      </trkpt>
      <trkpt lat="43.340980" lon="-1.741030">
        <time>2017-06-24T07:20:04Z</time>
      </trkpt>
      <trkpt lat="43.340950" lon="-1.740760">
        <time>2017-06-24T07:20:05Z</time>
      </trkpt>
      <trkpt lat="43.340930" lon="-1.740470">
        <time>2017-06-24T07:20:06Z</time>
      </trkpt>
      <trkpt lat="43.340910" lon="-1.740170">
        <time>2017-06-24T07:20:07Z</time>
      </trkpt>
      <trkpt lat="43.340890" lon="-1.739890">
        <time>2017-06-24T07:20:08Z</time>
      </trkpt>
      <trkpt lat="43.340870" lon="-1.739600">
        <time>2017-06-24T07:20:09Z</time>
      </trkpt>
      <trkpt lat="43.340850" lon="-1.739280">
        <time>2017-06-24T07:20:10Z</time>
      </trkpt>
      <trkpt lat="43.340830" lon="-1.738990">
        <time>2017-06-24T07:20:11Z</time>
      </trkpt>
      <trkpt lat="43.340810" lon="-1.738660">
        <time>2017-06-24T07:20:12Z</time>
      </trkpt>
      <trkpt lat="43.340800" lon="-1.738390">
        <time>2017-06-24T07:20:13Z</time>
      </trkpt>
      <trkpt lat="43.340790" lon="-1.738070">
        <time>2017-06-24T07:20:14Z</time>
      </trkpt>
      <trkpt lat="43.340780" lon="-1.737750">
        <time>2017-06-24T07:20:15Z</time>
      </trkpt>
      <trkpt lat="43.340790" lon="-1.737460">
        <time>2017-06-24T07:20:16Z</time>
      </trkpt>
      <trkpt lat="43.340800" lon="-1.737160">
        <time>2017-06-24T07:20:17Z</time>
      </trkpt>
      <trkpt lat="43.340820" lon="-1.736860">
        <time>2017-06-24T07:20:18Z</time>
      </trkpt>
      <trkpt lat="43.340830" lon="-1.736560">
        <time>2017-06-24T07:20:19Z</time>
      </trkpt>
      <trkpt lat="43.340850" lon="-1.736240">
        <time>2017-06-24T07:20:20Z</time>
      </trkpt>
      <trkpt lat="43.340870" lon="-1.735960">
        <time>2017-06-24T07:20:21Z</time>
      </trkpt>
      <trkpt lat="43.340890" lon="-1.735650">
        <time>2017-06-24T07:20:22Z</time>
      </trkpt>
      <trkpt lat="43.340920" lon="-1.735320">
        <time>2017-06-24T07:20:23Z</time>
      </trkpt>
      <trkpt lat="43.340950" lon="-1.735020">
        <time>2017-06-24T07:20:24Z</time>
      </trkpt>
      <trkpt lat="43.340970" lon="-1.734700">
        <time>2017-06-24T07:20:25Z</time>
      </trkpt>
      <trkpt lat="43.340990" lon="-1.734350">
        <time>2017-06-24T07:20:26Z</time>
      </trkpt>
      <trkpt lat="43.340990" lon="-1.734040">
        <time>2017-06-24T07:20:27Z</time>
      </trkpt>
      <trkpt lat="43.340980" lon="-1.733700">
        <time>2017-06-24T07:20:28Z</time>
      </trkpt>
      <trkpt lat="43.340980" lon="-1.733390">
        <time>2017-06-24T07:20:29Z</time>
      </trkpt>
      <trkpt lat="43.340980" lon="-1.733080">
        <time>2017-06-24T07:20:30Z</time>
      </trkpt>
      <trkpt lat="43.340980" lon="-1.732740">
        <time>2017-06-24T07:20:31Z</time>
      </trkpt>
      <trkpt lat="43.340970" lon="-1.732450">
        <time>2017-06-24T07:20:32Z</time>
      </trkpt>
      <trkpt lat="43.340970" lon="-1.732140">
        <time>2017-06-24T07:20:33Z</time>
      </trkpt>
      <trkpt lat="43.340980" lon="-1.731840">
        <time>2017-06-24T07:20:34Z</time>
      </trkpt>
      <trkpt lat="43.340990" lon="-1.731540">
        <time>2017-06-24T07:20:35Z</time>
      </trkpt>
      <trkpt lat="43.341020" lon="-1.731220">
        <time>2017-06-24T07:20:36Z</time>
      </trkpt>
      <trkpt lat="43.341050" lon="-1.730940">
        <time>2017-06-24T07:20:37Z</time>
      </trkpt>
      <trkpt lat="43.341100" lon="-1.730650">
        <time>2017-06-24T07:20:38Z</time>
      </trkpt>
      <trkpt lat="43.341150" lon="-1.730340">
        <time>2017-06-24T07:20:39Z</time>
      </trkpt>
      <trkpt lat="43.341200" lon="-1.730070">
        <time>2017-06-24T07:20:40Z</time>
      </trkpt>
      <trkpt lat="43.341270" lon="-1.729770">
        <time>2017-06-24T07:20:41Z</time>
      </trkpt>
      <trkpt lat="43.341350" lon="-1.729470">
        <time>2017-06-24T07:20:42Z</time>
      </trkpt>
      <trkpt lat="43.341420" lon="-1.729190">
        <time>2017-06-24T07:20:43Z</time>
      </trkpt>
      <trkpt lat="43.341520" lon="-1.728890">
        <time>2017-06-24T07:20:44Z</time>
      </trkpt>
      <trkpt lat="43.341600" lon="-1.728620">
        <time>2017-06-24T07:20:45Z</time>
      </trkpt>
      <trkpt lat="43.341690" lon="-1.728330">
        <time>2017-06-24T07:20:46Z</time>
      </trkpt>
      <trkpt lat="43.341790" lon="-1.728040">
        <time>2017-06-24T07:20:47Z</time>
      </trkpt>
      <trkpt lat="43.341890" lon="-1.727790">
        <time>2017-06-24T07:20:48Z</time>
      </trkpt>
      <trkpt lat="43.341990" lon="-1.727510">
        <time>2017-06-24T07:20:49Z</time>
      </trkpt>
      <trkpt lat="43.342100" lon="-1.727240">
        <time>2017-06-24T07:20:50Z</time>
      </trkpt>
      <trkpt lat="43.342210" lon="-1.726960">
        <time>2017-06-24T07:20:51Z</time>
      </trkpt>
      <trkpt lat="43.342330" lon="-1.726670">
        <time>2017-06-24T07:20:52Z</time>
      </trkpt>
      <trkpt lat="43.342440" lon="-1.726400">
        <time>2017-06-24T07:20:53Z</time>
      </trkpt>
      <trkpt lat="43.342560" lon="-1.726120">
        <time>2017-06-24T07:20:54Z</time>
      </trkpt>
      <trkpt lat="43.342700" lon="-1.725840">
        <time>2017-06-24T07:20:55Z</time>
      </trkpt>
      <trkpt lat="43.342820" lon="-1.725580">
        <time>2017-06-24T07:20:56Z</time>
      </trkpt>
      <trkpt lat="43.342960" lon="-1.725300">
        <time>2017-06-24T07:20:57Z</time>
      </trkpt>
      <trkpt lat="43.343100" lon="-1.725010">
        <time>2017-06-24T07:20:58Z</time>
      </trkpt>
      <trkpt lat="43.343220" lon="-1.724770">
        <time>2017-06-24T07:20:59Z</time>
      </trkpt>
      <trkpt lat="43.343370" lon="-1.724500">
        <time>2017-06-24T07:21:00Z</time>
      </trkpt>
      <trkpt lat="43.343490" lon="-1.724270">
        <time>2017-06-24T07:21:01Z</time>
      </trkpt>
      <trkpt lat="43.343640" lon="-1.724030">
        <time>2017-06-24T07:21:02Z</time>
      </trkpt>
      <trkpt lat="43.343810" lon="-1.723780">
        <time>2017-06-24T07:21:03Z</time>
      </trkpt>
      <trkpt lat="43.343970" lon="-1.723570">
        <time>2017-06-24T07:21:04Z</time>
      </trkpt>
      <trkpt lat="43.344140" lon="-1.723350">
        <time>2017-06-24T07:21:05Z</time>
      </trkpt>
      <trkpt lat="43.344330" lon="-1.723150">
        <time>2017-06-24T07:21:06Z</time>
      </trkpt>
      <trkpt lat="43.344510" lon="-1.722960">
        <time>2017-06-24T07:21:07Z</time>
      </trkpt>
      <trkpt lat="43.344730" lon="-1.722770">
        <time>2017-06-24T07:21:08Z</time>
      </trkpt>
      <trkpt lat="43.344920" lon="-1.722600">
        <time>2017-06-24T07:21:09Z</time>
      </trkpt>
      <trkpt lat="43.345120" lon="-1.722430">
        <time>2017-06-24T07:21:10Z</time>
      </trkpt>
      <trkpt lat="43.345350" lon="-1.722250">
        <time>2017-06-24T07:21:11Z</time>
      </trkpt>
      <trkpt lat="43.345550" lon="-1.722090">
        <time>2017-06-24T07:21:12Z</time>
      </trkpt>
      <trkpt lat="43.345780" lon="-1.721920">
        <time>2017-06-24T07:21:13Z</time>
      </trkpt>
      <trkpt lat="43.346010" lon="-1.721740">
        <time>2017-06-24T07:21:14Z</time>
      </trkpt>
      <trkpt lat="43.346220" lon="-1.721580">
        <time>2017-06-24T07:21:15Z</time>
      </trkpt>
      <trkpt lat="43.346450" lon="-1.721400">
        <time>2017-06-24T07:21:16Z</time>
      </trkpt>
      <trkpt lat="43.346640" lon="-1.721220">
        <time>2017-06-24T07:21:17Z</time>
      </trkpt>
      <trkpt lat="43.346840" lon="-1.721050">
        <time>2017-06-24T07:21:18Z</time>
      </trkpt>
      <trkpt lat="43.347030" lon="-1.720860">
        <time>2017-06-24T07:21:19Z</time>
      </trkpt>
      <trkpt lat="43.347190" lon="-1.720700">
        <time>2017-06-24T07:21:20Z</time>
      </trkpt>
      <trkpt lat="43.347350" lon="-1.720510">
        <time>2017-06-24T07:21:21Z</time>
      </trkpt>
      <trkpt lat="43.347510" lon="-1.720330">
        <time>2017-06-24T07:21:22Z</time>
      </trkpt>
      <trkpt lat="43.347660" lon="-1.720140">
        <time>2017-06-24T07:21:23Z</time>
      </trkpt>
      <trkpt lat="43.347830" lon="-1.719930">
        <time>2017-06-24T07:21:24Z</time>
      </trkpt>
      <trkpt lat="43.347970" lon="-1.719760">
        <time>2017-06-24T07:21:25Z</time>
      </trkpt>
      <trkpt lat="43.348110" lon="-1.719570">
        <time>2017-06-24T07:21:26Z</time>
      </trkpt>
      <trkpt lat="43.348250" lon="-1.719380">
        <time>2017-06-24T07:21:27Z</time>
      </trkpt>
      <trkpt lat="43.348390" lon="-1.719210">
        <time>2017-06-24T07:21:28Z</time>
      </trkpt>
      <trkpt lat="43.348540" lon="-1.719020">
        <time>2017-06-24T07:21:29Z</time>
      </trkpt>
      <trkpt lat="43.348710" lon="-1.718830">
        <time>2017-06-24T07:21:30Z</time>
      </trkpt>
      <trkpt lat="43.348870" lon="-1.718650">
        <time>2017-06-24T07:21:31Z</time>
      </trkpt>
      <trkpt lat="43.349060" lon="-1.718460">
        <time>2017-06-24T07:21:32Z</time>
      </trkpt>
      <trkpt lat="43.349240" lon="-1.718300">
        <time>2017-06-24T07:21:33Z</time>
      </trkpt>
      <trkpt lat="43.349440" lon="-1.718150">
        <time>2017-06-24T07:21:34Z</time>
      </trkpt>
      <trkpt lat="43.349660" lon="-1.718000">
        <time>2017-06-24T07:21:35Z</time>
      </trkpt>
      <trkpt lat="43.349860" lon="-1.717890">
        <time>2017-06-24T07:21:36Z</time>
      </trkpt>
      <trkpt lat="43.350070" lon="-1.717780">
        <time>2017-06-24T07:21:37Z</time>
      </trkpt>
      <trkpt lat="43.350290" lon="-1.717690">
        <time>2017-06-24T07:21:38Z</time>
      </trkpt>
      <trkpt lat="43.350510" lon="-1.717620">
        <time>2017-06-24T07:21:39Z</time>
      </trkpt>
      <trkpt lat="43.350750" lon="-1.717560">
        <time>2017-06-24T07:21:40Z</time>
      </trkpt>
      <trkpt lat="43.350960" lon="-1.717530">
        <time>2017-06-24T07:21:41Z</time>
      </trkpt>
      <trkpt lat="43.351190" lon="-1.717510">
        <time>2017-06-24T07:21:42Z</time>
      </trkpt>
      <trkpt lat="43.351440" lon="-1.717500">
        <time>2017-06-24T07:21:43Z</time>
      </trkpt>
      <trkpt lat="43.351660" lon="-1.717490">
        <time>2017-06-24T07:21:44Z</time>
      </trkpt>
      <trkpt lat="43.351890" lon="-1.717490">
        <time>2017-06-24T07:21:45Z</time>
      </trkpt>
      <trkpt lat="43.352140" lon="-1.717480">
        <time>2017-06-24T07:21:46Z</time>
      </trkpt>
      <trkpt lat="43.352350" lon="-1.717490">
        <time>2017-06-24T07:21:47Z</time>
      </trkpt>
      <trkpt lat="43.352610" lon="-1.717500">
        <time>2017-06-24T07:21:48Z</time>
      </trkpt>
      <trkpt lat="43.352830" lon="-1.717500">
        <time>2017-06-24T07:21:49Z</time>
      </trkpt>
      <trkpt lat="43.353070" lon="-1.717490">
        <time>2017-06-24T07:21:50Z</time>
      </trkpt>
      <trkpt lat="43.353320" lon="-1.717470">
        <time>2017-06-24T07:21:51Z</time>
      </trkpt>
      <trkpt lat="43.353540" lon="-1.717450">
        <time>2017-06-24T07:21:52Z</time>
      </trkpt>
      <trkpt lat="43.353770" lon="-1.717410">
        <time>2017-06-24T07:21:53Z</time>
      </trkpt>
      <trkpt lat="43.354000" lon="-1.717370">
        <time>2017-06-24T07:21:54Z</time>
      </trkpt>
      <trkpt lat="43.354240" lon="-1.717300">
        <time>2017-06-24T07:21:55Z</time>
      </trkpt>
      <trkpt lat="43.354490" lon="-1.717210">
        <time>2017-06-24T07:21:56Z</time>
      </trkpt>
      <trkpt lat="43.354710" lon="-1.717120">
        <time>2017-06-24T07:21:57Z</time>
      </trkpt>
      <trkpt lat="43.354960" lon="-1.717000">
        <time>2017-06-24T07:21:58Z</time>
      </trkpt>
      <trkpt lat="43.355210" lon="-1.716850">
        <time>2017-06-24T07:21:59Z</time>
      </trkpt>
      <trkpt lat="43.355440" lon="-1.716690">
        <time>2017-06-24T07:22:00Z</time>
      </trkpt>
      <trkpt lat="43.355680" lon="-1.716510">
        <time>2017-06-24T07:22:01Z</time>
      </trkpt>
      <trkpt lat="43.355920" lon="-1.716290">
        <time>2017-06-24T07:22:02Z</time>
      </trkpt>
      <trkpt lat="43.356120" lon="-1.716070">
        <time>2017-06-24T07:22:03Z</time>
      </trkpt>
      <trkpt lat="43.356350" lon="-1.715820">
        <time>2017-06-24T07:22:04Z</time>
      </trkpt>
      <trkpt lat="43.356540" lon="-1.715580">
        <time>2017-06-24T07:22:05Z</time>
      </trkpt>
      <trkpt lat="43.356730" lon="-1.715310">
        <time>2017-06-24T07:22:06Z</time>
      </trkpt>
      <trkpt lat="43.356920" lon="-1.715000">
        <time>2017-06-24T07:22:07Z</time>
      </trkpt>
      <trkpt lat="43.357070" lon="-1.714720">
        <time>2017-06-24T07:22:08Z</time>
      </trkpt>
      <trkpt lat="43.357230" lon="-1.714410">
        <time>2017-06-24T07:22:09Z</time>
      </trkpt>
      <trkpt lat="43.357370" lon="-1.714100">
        <time>2017-06-24T07:22:10Z</time>
      </trkpt>
      <trkpt lat="43.357500" lon="-1.713760">
        <time>2017-06-24T07:22:11Z</time>
      </trkpt>
      <trkpt lat="43.357620" lon="-1.713390">
        <time>2017-06-24T07:22:12Z</time>
      </trkpt>
      <trkpt lat="43.357710" lon="-1.713060">
        <time>2017-06-24T07:22:13Z</time>
      </trkpt>
      <trkpt lat="43.357810" lon="-1.712710">
        <time>2017-06-24T07:22:14Z</time>
      </trkpt>
      <trkpt lat="43.357900" lon="-1.712330">
        <time>2017-06-24T07:22:15Z</time>
      </trkpt>
      <trkpt lat="43.357970" lon="-1.711990">
        <time>2017-06-24T07:22:16Z</time>
      </trkpt>
      <trkpt lat="43.358050" lon="-1.711620">
        <time>2017-06-24T07:22:17Z</time>
      </trkpt>
      <trkpt lat="43.358120" lon="-1.711230">
        <time>2017-06-24T07:22:18Z</time>
      </trkpt>
      <trkpt lat="43.358190" lon="-1.710890">
        <time>2017-06-24T07:22:19Z</time>
      </trkpt>
      <trkpt lat="43.358260" lon="-1.710500">
        <time>2017-06-24T07:22:20Z</time>
      </trkpt>
      <trkpt lat="43.358320" lon="-1.710160">
        <time>2017-06-24T07:22:21Z</time>
      </trkpt>
      <trkpt lat="43.358370" lon="-1.709800">
        <time>2017-06-24T07:22:22Z</time>
      </trkpt>
      <trkpt lat="43.358420" lon="-1.709410">
        <time>2017-06-24T07:22:23Z</time>
      </trkpt>
      <trkpt lat="43.358440" lon="-1.709080">
        <time>2017-06-24T07:22:24Z</time>
      </trkpt>
      <trkpt lat="43.358460" lon="-1.708720">
        <time>2017-06-24T07:22:25Z</time>
      </trkpt>
      <trkpt lat="43.358470" lon="-1.708380">
        <time>2017-06-24T07:22:26Z</time>
      </trkpt>
      <trkpt lat="43.358480" lon="-1.708040">
        <time>2017-06-24T07:22:27Z</time>
      </trkpt>
      <trkpt lat="43.358490" lon="-1.707690">
        <time>2017-06-24T07:22:28Z</time>
      </trkpt>
      <trkpt lat="43.358510" lon="-1.707390">
        <time>2017-06-24T07:22:29Z</time>
      </trkpt>
      <trkpt lat="43.358510" lon="-1.707080">
        <time>2017-06-24T07:22:30Z</time>
      </trkpt>
      <trkpt lat="43.358490" lon="-1.706750">
        <time>2017-06-24T07:22:31Z</time>
      </trkpt>
      <trkpt lat="43.358470" lon="-1.706460">
        <time>2017-06-24T07:22:32Z</time>
      </trkpt>
      <trkpt lat="43.358460" lon="-1.706150">
        <time>2017-06-24T07:22:33Z</time>
      </trkpt>
      <trkpt lat="43.358430" lon="-1.705800">
        <time>2017-06-24T07:22:34Z</time>
      </trkpt>
      <trkpt lat="43.358420" lon="-1.705500">
        <time>2017-06-24T07:22:35Z</time>
      </trkpt>
      <trkpt lat="43.358400" lon="-1.705170">
        <time>2017-06-24T07:22:36Z</time>
      </trkpt>
      <trkpt lat="43.358390" lon="-1.704890">
        <time>2017-06-24T07:22:37Z</time>
      </trkpt>
      <trkpt lat="43.358380" lon="-1.704580">
        <time>2017-06-24T07:22:38Z</time>
      </trkpt>
      <trkpt lat="43.358370" lon="-1.704260">
        <time>2017-06-24T07:22:39Z</time>
      </trkpt>
      <trkpt lat="43.358370" lon="-1.703990">
        <time>2017-06-24T07:22:40Z</time>
      </trkpt>
      <trkpt lat="43.358380" lon="-1.703710">
        <time>2017-06-24T07:22:41Z</time>
      </trkpt>
      <trkpt lat="43.358390" lon="-1.703420">
        <time>2017-06-24T07:22:42Z</time>
      </trkpt>
      <trkpt lat="43.358400" lon="-1.703130">
        <time>2017-06-24T07:22:43Z</time>
      </trkpt>
      <trkpt lat="43.358420" lon="-1.702830">
        <time>2017-06-24T07:22:44Z</time>
      </trkpt>
      <trkpt lat="43.358450" lon="-1.702570">
        <time>2017-06-24T07:22:45Z</time>
      </trkpt>
      <trkpt lat="43.358470" lon="-1.702280">
        <time>2017-06-24T07:22:46Z</time>
      </trkpt>
      <trkpt lat="43.358510" lon="-1.701970">
        <time>2017-06-24T07:22:47Z</time>
      </trkpt>
      <trkpt lat="43.358540" lon="-1.701700">
        <time>2017-06-24T07:22:48Z</time>
      </trkpt>
      <trkpt lat="43.358580" lon="-1.701420">
        <time>2017-06-24T07:22:49Z</time>
      </trkpt>
      <trkpt lat="43.358630" lon="-1.701100">
        <time>2017-06-24T07:22:50Z</time>
      </trkpt>
      <trkpt lat="43.358690" lon="-1.700830">
        <time>2017-06-24T07:22:51Z</time>
      </trkpt>
      <trkpt lat="43.358740" lon="-1.700520">
        <time>2017-06-24T07:22:52Z</time>
      </trkpt>
      <trkpt lat="43.358800" lon="-1.700240">
        <time>2017-06-24T07:22:53Z</time>
      </trkpt>
      <trkpt lat="43.358860" lon="-1.699940">
        <time>2017-06-24T07:22:54Z</time>
      </trkpt>
      <trkpt lat="43.358940" lon="-1.699630">
        <time>2017-06-24T07:22:55Z</time>
      </trkpt>
      <trkpt lat="43.359010" lon="-1.699340">
        <time>2017-06-24T07:22:56Z</time>
      </trkpt>
      <trkpt lat="43.359100" lon="-1.699040">
        <time>2017-06-24T07:22:57Z</time>
      </trkpt>
      <trkpt lat="43.359190" lon="-1.698740">
        <time>2017-06-24T07:22:58Z</time>
      </trkpt>
      <trkpt lat="43.359280" lon="-1.698440">
        <time>2017-06-24T07:22:59Z</time>
      </trkpt>
      <trkpt lat="43.359390" lon="-1.698120">
        <time>2017-06-24T07:23:00Z</time>
      </trkpt>
      <trkpt lat="43.359490" lon="-1.697840">
        <time>2017-06-24T07:23:01Z</time>
      </trkpt>
      <trkpt lat="43.359590" lon="-1.697530">
        <time>2017-06-24T07:23:02Z</time>
      </trkpt>
      <trkpt lat="43.359710" lon="-1.697200">
        <time>2017-06-24T07:23:03Z</time>
      </trkpt>
      <trkpt lat="43.359810" lon="-1.696920">
        <time>2017-06-24T07:23:04Z</time>
      </trkpt>
      <trkpt lat="43.359930" lon="-1.696640">
        <time>2017-06-24T07:23:05Z</time>
      </trkpt>
      <trkpt lat="43.360050" lon="-1.696340">
        <time>2017-06-24T07:23:06Z</time>
      </trkpt>
      <trkpt lat="43.360150" lon="-1.696090">
        <time>2017-06-24T07:23:07Z</time>
      </trkpt>
      <trkpt lat="43.360280" lon="-1.695790">
        <time>2017-06-24T07:23:08Z</time>
      </trkpt>
      <trkpt lat="43.360400" lon="-1.695530">
        <time>2017-06-24T07:23:09Z</time>
      </trkpt>
      <trkpt lat="43.360530" lon="-1.695250">
        <time>2017-06-24T07:23:10Z</time>
      </trkpt>
      <trkpt lat="43.360660" lon="-1.694960">
        <time>2017-06-24T07:23:11Z</time>
      </trkpt>
      <trkpt lat="43.360780" lon="-1.694710">
        <time>2017-06-24T07:23:12Z</time>
      </trkpt>
      <trkpt lat="43.360920" lon="-1.694430">
        <time>2017-06-24T07:23:13Z</time>
      </trkpt>
      <trkpt lat="43.361060" lon="-1.694150">
        <time>2017-06-24T07:23:14Z</time>
      </trkpt>
      <trkpt lat="43.361200" lon="-1.693870">
        <time>2017-06-24T07:23:15Z</time>
      </trkpt>
      <trkpt lat="43.361350" lon="-1.693580">
        <time>2017-06-24T07:23:16Z</time>
      </trkpt>
      <trkpt lat="43.361490" lon="-1.693330">
        <time>2017-06-24T07:23:17Z</time>
      </trkpt>
      <trkpt lat="43.361640" lon="-1.693070">
        <time>2017-06-24T07:23:18Z</time>
      </trkpt>
      <trkpt lat="43.361790" lon="-1.692790">
        <time>2017-06-24T07:23:19Z</time>
      </trkpt>
      <trkpt lat="43.361930" lon="-1.692550">
        <time>2017-06-24T07:23:20Z</time>
      </trkpt>
      <trkpt lat="43.362080" lon="-1.692300">
        <time>2017-06-24T07:23:21Z</time>
      </trkpt>
      <trkpt lat="43.362240" lon="-1.692040">
        <time>2017-06-24T07:23:22Z</time>
      </trkpt>
      <trkpt lat="43.362370" lon="-1.691820">
        <time>2017-06-24T07:23:23Z</time>
      </trkpt>
      <trkpt lat="43.362530" lon="-1.691570">
        <time>2017-06-24T07:23:24Z</time>
      </trkpt>
      <trkpt lat="43.362660" lon="-1.691370">
        <time>2017-06-24T07:23:25Z</time>
      </trkpt>
      <trkpt lat="43.362810" lon="-1.691150">
        <time>2017-06-24T07:23:26Z</time>
      </trkpt>
      <trkpt lat="43.362960" lon="-1.690930">
        <time>2017-06-24T07:23:27Z</time>
      </trkpt>
      <trkpt lat="43.363090" lon="-1.690740">
        <time>2017-06-24T07:23:28Z</time>
      </trkpt>
      <trkpt lat="43.363230" lon="-1.690540">
        <time>2017-06-24T07:23:29Z</time>
      </trkpt>
      <trkpt lat="43.363380" lon="-1.690340">
        <time>2017-06-24T07:23:30Z</time>
      </trkpt>
      <trkpt lat="43.363520" lon="-1.690150">
        <time>2017-06-24T07:23:31Z</time>
      </trkpt>
      <trkpt lat="43.363670" lon="-1.689940">
        <time>2017-06-24T07:23:32Z</time>
      </trkpt>
      <trkpt lat="43.363810" lon="-1.689750">
        <time>2017-06-24T07:23:33Z</time>
      </trkpt>
      <trkpt lat="43.363950" lon="-1.689560">
        <time>2017-06-24T07:23:34Z</time>
      </trkpt>
      <trkpt lat="43.364110" lon="-1.689350">
        <time>2017-06-24T07:23:35Z</time>
      </trkpt>
      <trkpt lat="43.364260" lon="-1.689160">
        <time>2017-06-24T07:23:36Z</time>
      </trkpt>
      <trkpt lat="43.364420" lon="-1.688960">
        <time>2017-06-24T07:23:37Z</time>
      </trkpt>
      <trkpt lat="43.364590" lon="-1.688740">
        <time>2017-06-24T07:23:38Z</time>
      </trkpt>
      <trkpt lat="43.364740" lon="-1.688540">
        <time>2017-06-24T07:23:39Z</time>
      </trkpt>
      <trkpt lat="43.364920" lon="-1.688320">
        <time>2017-06-24T07:23:40Z</time>
      </trkpt>
      <trkpt lat="43.365080" lon="-1.688120">
        <time>2017-06-24T07:23:41Z</time>
      </trkpt>
      <trkpt lat="43.365250" lon="-1.687920">
        <time>2017-06-24T07:23:42Z</time>
      </trkpt>
      <trkpt lat="43.365430" lon="-1.687680">
        <time>2017-06-24T07:23:43Z</time>
      </trkpt>
      <trkpt lat="43.365590" lon="-1.687480">
        <time>2017-06-24T07:23:44Z</time>
      </trkpt>
      <trkpt lat="43.365760" lon="-1.687260">
        <time>2017-06-24T07:23:45Z</time>
      </trkpt>
      <trkpt lat="43.365930" lon="-1.687050">
        <time>2017-06-24T07:23:46Z</time>
      </trkpt>
      <trkpt lat="43.366100" lon="-1.686830">
        <time>2017-06-24T07:23:47Z</time>
      </trkpt>
      <trkpt lat="43.366270" lon="-1.686590">
        <time>2017-06-24T07:23:48Z</time>
      </trkpt>
      <trkpt lat="43.366420" lon="-1.686380">
        <time>2017-06-24T07:23:49Z</time>
      </trkpt>
      <trkpt lat="43.366590" lon="-1.686150">
        <time>2017-06-24T07:23:50Z</time>
      </trkpt>
      <trkpt lat="43.366760" lon="-1.685900">
        <time>2017-06-24T07:23:51Z</time>
      </trkpt>
      <trkpt lat="43.366910" lon="-1.685680">
        <time>2017-06-24T07:23:52Z</time>
      </trkpt>
      <trkpt lat="43.367070" lon="-1.685460">
        <time>2017-06-24T07:23:53Z</time>
      </trkpt>
      <trkpt lat="43.367250" lon="-1.685210">
        <time>2017-06-24T07:23:54Z</time>
      </trkpt>
      <trkpt lat="43.367400" lon="-1.684990">
        <time>2017-06-24T07:23:55Z</time>
      </trkpt>
      <trkpt lat="43.367570" lon="-1.684750">
        <time>2017-06-24T07:23:56Z</time>
      </trkpt>
      <trkpt lat="43.367710" lon="-1.684520">
        <time>2017-06-24T07:23:57Z</time>
      </trkpt>
      <trkpt lat="43.367870" lon="-1.684280">
        <time>2017-06-24T07:23:58Z</time>
      </trkpt>
      <trkpt lat="43.368040" lon="-1.684010">
        <time>2017-06-24T07:23:59Z</time>
      </trkpt>
      <trkpt lat="43.368180" lon="-1.683770">
        <time>2017-06-24T07:24:00Z</time>
      </trkpt>
      <trkpt lat="43.368330" lon="-1.683540">
        <time>2017-06-24T07:24:01Z</time>
      </trkpt>
      <trkpt lat="43.368480" lon="-1.683310">
        <time>2017-06-24T07:24:02Z</time>
      </trkpt>
      <trkpt lat="43.368610" lon="-1.683090">
        <time>2017-06-24T07:24:03Z</time>
      </trkpt>
      <trkpt lat="43.368760" lon="-1.682850">
        <time>2017-06-24T07:24:04Z</time>
      </trkpt>
      <trkpt lat="43.368890" lon="-1.682650">
        <time>2017-06-24T07:24:05Z</time>
      </trkpt>
      <trkpt lat="43.369010" lon="-1.682450">
        <time>2017-06-24T07:24:06Z</time>
      </trkpt>
      <trkpt lat="43.369150" lon="-1.682230">
        <time>2017-06-24T07:24:07Z</time>
      </trkpt>
      <trkpt lat="43.369280" lon="-1.682020">
        <time>2017-06-24T07:24:08Z</time>
      </trkpt>
      <trkpt lat="43.369410" lon="-1.681810">
        <time>2017-06-24T07:24:09Z</time>
      </trkpt>
      <trkpt lat="43.369560" lon="-1.681570">
        <time>2017-06-24T07:24:10Z</time>
      </trkpt>
      <trkpt lat="43.369680" lon="-1.681350">
        <time>2017-06-24T07:24:11Z</time>
      </trkpt>
      <trkpt lat="43.369830" lon="-1.681090">
        <time>2017-06-24T07:24:12Z</time>
      </trkpt>
      <trkpt lat="43.369950" lon="-1.680860">
        <time>2017-06-24T07:24:13Z</time>
      </trkpt>
      <trkpt lat="43.370080" lon="-1.680610">
        <time>2017-06-24T07:24:14Z</time>
      </trkpt>
      <trkpt lat="43.370220" lon="-1.680340">
        <time>2017-06-24T07:24:15Z</time>
      </trkpt>
      <trkpt lat="43.370340" lon="-1.680110">
        <time>2017-06-24T07:24:16Z</time>
      </trkpt>
      <trkpt lat="43.370470" lon="-1.679860">
        <time>2017-06-24T07:24:17Z</time>
      </trkpt>
      <trkpt lat="43.370590" lon="-1.679600">
        <time>2017-06-24T07:24:18Z</time>
      </trkpt>
      <trkpt lat="43.370720" lon="-1.679340">
        <time>2017-06-24T07:24:19Z</time>
      </trkpt>
      <trkpt lat="43.370840" lon="-1.679060">
        <time>2017-06-24T07:24:20Z</time>
      </trkpt>
      <trkpt lat="43.370950" lon="-1.678820">
        <time>2017-06-24T07:24:21Z</time>
      </trkpt>
      <trkpt lat="43.371070" lon="-1.678550">
        <time>2017-06-24T07:24:22Z</time>
      </trkpt>
      <trkpt lat="43.371190" lon="-1.678260">
        <time>2017-06-24T07:24:23Z</time>
      </trkpt>
      <trkpt lat="43.371300" lon="-1.678000">
        <time>2017-06-24T07:24:24Z</time>
      </trkpt>
      <trkpt lat="43.371410" lon="-1.677730">
        <time>2017-06-24T07:24:25Z</time>
      </trkpt>
      <trkpt lat="43.371520" lon="-1.677420">
        <time>2017-06-24T07:24:26Z</time>
      </trkpt>
      <trkpt lat="43.371630" lon="-1.677160">
        <time>2017-06-24T07:24:27Z</time>
      </trkpt>
      <trkpt lat="43.371740" lon="-1.676850">
        <time>2017-06-24T07:24:28Z</time>
      </trkpt>
      <trkpt lat="43.371830" lon="-1.676580">
        <time>2017-06-24T07:24:29Z</time>
      </trkpt>
      <trkpt lat="43.371940" lon="-1.676290">
        <time>2017-06-24T07:24:30Z</time>
      </trkpt>
      <trkpt lat="43.372040" lon="-1.675970">
        <time>2017-06-24T07:24:31Z</time>
      </trkpt>
      <trkpt lat="43.372140" lon="-1.675690">
        <time>2017-06-24T07:24:32Z</time>
      </trkpt>
      <trkpt lat="43.372250" lon="-1.675400">
        <time>2017-06-24T07:24:33Z</time>
      </trkpt>
      <trkpt lat="43.372360" lon="-1.675110">
        <time>2017-06-24T07:24:34Z</time>
      </trkpt>
      <trkpt lat="43.372470" lon="-1.674820">
        <time>2017-06-24T07:24:35Z</time>
      </trkpt>
      <trkpt lat="43.372580" lon="-1.674500">
        <time>2017-06-24T07:24:36Z</time>
      </trkpt>
      <trkpt lat="43.372680" lon="-1.674220">
        <time>2017-06-24T07:24:37Z</time>
      </trkpt>
      <trkpt lat="43.372780" lon="-1.673930">
        <time>2017-06-24T07:24:38Z</time>
      </trkpt>
      <trkpt lat="43.372890" lon="-1.673610">
        <time>2017-06-24T07:24:39Z</time>
      </trkpt>
      <trkpt lat="43.372980" lon="-1.673340">
        <time>2017-06-24T07:24:40Z</time>
      </trkpt>
      <trkpt lat="43.373080" lon="-1.673040">
        <time>2017-06-24T07:24:41Z</time>
      </trkpt>
      <trkpt lat="43.373180" lon="-1.672740">
        <time>2017-06-24T07:24:42Z</time>
      </trkpt>
      <trkpt lat="43.373280" lon="-1.672470">
        <time>2017-06-24T07:24:43Z</time>
      </trkpt>
      <trkpt lat="43.373390" lon="-1.672170">
        <time>2017-06-24T07:24:44Z</time>
      </trkpt>
      <trkpt lat="43.373490" lon="-1.671900">
        <time>2017-06-24T07:24:45Z</time>
      </trkpt>
      <trkpt lat="43.373580" lon="-1.671620">
        <time>2017-06-24T07:24:46Z</time>
      </trkpt>
      <trkpt lat="43.373680" lon="-1.671330">
        <time>2017-06-24T07:24:47Z</time>
      </trkpt>
      <trkpt lat="43.373770" lon="-1.671070">
        <time>2017-06-24T07:24:48Z</time>
      </trkpt>
      <trkpt lat="43.373870" lon="-1.670790">
        <time>2017-06-24T07:24:49Z</time>
      </trkpt>
      <trkpt lat="43.373960" lon="-1.670520">
        <time>2017-06-24T07:24:50Z</time>
      </trkpt>
      <trkpt lat="43.374060" lon="-1.670240">
        <time>2017-06-24T07:24:51Z</time>
      </trkpt>
      <trkpt lat="43.374160" lon="-1.669950">
        <time>2017-06-24T07:24:52Z</time>
      </trkpt>
      <trkpt lat="43.374250" lon="-1.669690">
        <time>2017-06-24T07:24:53Z</time>
      </trkpt>
      <trkpt lat="43.374330" lon="-1.669410">
        <time>2017-06-24T07:24:54Z</time>
      </trkpt>
      <trkpt lat="43.374420" lon="-1.669110">
        <time>2017-06-24T07:24:55Z</time>
      </trkpt>
      <trkpt lat="43.374490" lon="-1.668840">
        <time>2017-06-24T07:24:56Z</time>
      </trkpt>
      <trkpt lat="43.374560" lon="-1.668550">
        <time>2017-06-24T07:24:57Z</time>
      </trkpt>
      <trkpt lat="43.374620" lon="-1.668230">
        <time>2017-06-24T07:24:58Z</time>
      </trkpt>
      <trkpt lat="43.374680" lon="-1.667950">
        <time>2017-06-24T07:24:59Z</time>
      </trkpt>
      <trkpt lat="43.374730" lon="-1.667630">
        <time>2017-06-24T07:25:00Z</time>
      </trkpt>
      <trkpt lat="43.374770" lon="-1.667350">
        <time>2017-06-24T07:25:01Z</time>
      </trkpt>
      <trkpt lat="43.374810" lon="-1.667050">
        <time>2017-06-24T07:25:02Z</time>
      </trkpt>
      <trkpt lat="43.374840" lon="-1.666720">
        <time>2017-06-24T07:25:03Z</time>
      </trkpt>
      <trkpt lat="43.374860" lon="-1.666440">
        <time>2017-06-24T07:25:04Z</time>
      </trkpt>
      <trkpt lat="43.374880" lon="-1.666130">
        <time>2017-06-24T07:25:05Z</time>
      </trkpt>
      <trkpt lat="43.374890" lon="-1.665810">
        <time>2017-06-24T07:25:06Z</time>
      </trkpt>
      <trkpt lat="43.374900" lon="-1.665490">
        <time>2017-06-24T07:25:07Z</time>
      </trkpt>
      <trkpt lat="43.374900" lon="-1.665170">
        <time>2017-06-24T07:25:08Z</time>
      </trkpt>
      <trkpt lat="43.374890" lon="-1.664870">
        <time>2017-06-24T07:25:09Z</time>
      </trkpt>
      <trkpt lat="43.374870" lon="-1.664550">
        <time>2017-06-24T07:25:10Z</time>
      </trkpt>
      <trkpt lat="43.374850" lon="-1.664210">
        <time>2017-06-24T07:25:11Z</time>
      </trkpt>
      <trkpt lat="43.374820" lon="-1.663920">
        <time>2017-06-24T07:25:12Z</time>
      </trkpt>
      <trkpt lat="43.374790" lon="-1.663600">
        <time>2017-06-24T07:25:13Z</time>
      </trkpt>
      <trkpt lat="43.374740" lon="-1.663250">
        <time>2017-06-24T07:25:14Z</time>
      </trkpt>
      <trkpt lat="43.374690" lon="-1.662960">
        <time>2017-06-24T07:25:15Z</time>
      </trkpt>
      <trkpt lat="43.374630" lon="-1.662610">
        <time>2017-06-24T07:25:16Z</time>
      </trkpt>
      <trkpt lat="43.374560" lon="-1.662310">
        <time>2017-06-24T07:25:17Z</time>
      </trkpt>
      <trkpt lat="43.374490" lon="-1.662000">
        <time>2017-06-24T07:25:18Z</time>
      </trkpt>
      <trkpt lat="43.374400" lon="-1.661670">
        <time>2017-06-24T07:25:19Z</time>
      </trkpt>
      <trkpt lat="43.374320" lon="-1.661380">
        <time>2017-06-24T07:25:20Z</time>
      </trkpt>
      <trkpt lat="43.374230" lon="-1.661070">
        <time>2017-06-24T07:25:21Z</time>
      </trkpt>
      <trkpt lat="43.374150" lon="-1.660760">
        <time>2017-06-24T07:25:22Z</time>
      </trkpt>
      <trkpt lat="43.374060" lon="-1.660460">
        <time>2017-06-24T07:25:23Z</time>
      </trkpt>
      <trkpt lat="43.373980" lon="-1.660130">
        <time>2017-06-24T07:25:24Z</time>
      </trkpt>
      <trkpt lat="43.373900" lon="-1.659840">
        <time>2017-06-24T07:25:25Z</time>
      </trkpt>
      <trkpt lat="43.373830" lon="-1.659530">
        <time>2017-06-24T07:25:26Z</time>
      </trkpt>
      <trkpt lat="43.373750" lon="-1.659200">
        <time>2017-06-24T07:25:27Z</time>
      </trkpt>
      <trkpt lat="43.373690" lon="-1.658900">
        <time>2017-06-24T07:25:28Z</time>
      </trkpt>
      <trkpt lat="43.373630" lon="-1.658590">
        <time>2017-06-24T07:25:29Z</time>
      </trkpt>
      <trkpt lat="43.373570" lon="-1.658270">
        <time>2017-06-24T07:25:30Z</time>
      </trkpt>
      <trkpt lat="43.373530" lon="-1.657980">
        <time>2017-06-24T07:25:31Z</time>
      </trkpt>
      <trkpt lat="43.373490" lon="-1.657650">
        <time>2017-06-24T07:25:32Z</time>
      </trkpt>
      <trkpt lat="43.373470" lon="-1.657370">
        <time>2017-06-24T07:25:33Z</time>
      </trkpt>
      <trkpt lat="43.373450" lon="-1.657070">
        <time>2017-06-24T07:25:34Z</time>
      </trkpt>
      <trkpt lat="43.373440" lon="-1.656750">
        <time>2017-06-24T07:25:35Z</time>
      </trkpt>
      <trkpt lat="43.373430" lon="-1.656470">
        <time>2017-06-24T07:25:36Z</time>
      </trkpt>
      <trkpt lat="43.373430" lon="-1.656170">
        <time>2017-06-24T07:25:37Z</time>
      </trkpt>
      <trkpt lat="43.373440" lon="-1.655870">
        <time>2017-06-24T07:25:38Z</time>
      </trkpt>
      <trkpt lat="43.373450" lon="-1.655570">
        <time>2017-06-24T07:25:39Z</time>
      </trkpt>
      <trkpt lat="43.373470" lon="-1.655250">
        <time>2017-06-24T07:25:40Z</time>
      </trkpt>
      <trkpt lat="43.373490" lon="-1.654960">
        <time>2017-06-24T07:25:41Z</time>
      </trkpt>
      <trkpt lat="43.373530" lon="-1.654660">
        <time>2017-06-24T07:25:42Z</time>
      </trkpt>
      <trkpt lat="43.373570" lon="-1.654350">
        <time>2017-06-24T07:25:43Z</time>
      </trkpt>
      <trkpt lat="43.373610" lon="-1.654070">
        <time>2017-06-24T07:25:44Z</time>
      </trkpt>
      <trkpt lat="43.373660" lon="-1.653800">
        <time>2017-06-24T07:25:45Z</time>
      </trkpt>
      <trkpt lat="43.373720" lon="-1.653500">
        <time>2017-06-24T07:25:46Z</time>
      </trkpt>
      <trkpt lat="43.373770" lon="-1.653250">
        <time>2017-06-24T07:25:47Z</time>
      </trkpt>
      <trkpt lat="43.373840" lon="-1.652970">
        <time>2017-06-24T07:25:48Z</time>
      </trkpt>
      <trkpt lat="43.373910" lon="-1.652720">
        <time>2017-06-24T07:25:49Z</time>
      </trkpt>
      <trkpt lat="43.373980" lon="-1.652470">
        <time>2017-06-24T07:25:50Z</time>
      </trkpt>
      <trkpt lat="43.374060" lon="-1.652190">
        <time>2017-06-24T07:25:51Z</time>
      </trkpt>
      <trkpt lat="43.374150" lon="-1.651960">
        <time>2017-06-24T07:25:52Z</time>
      </trkpt>
      <trkpt lat="43.374240" lon="-1.651710">
        <time>2017-06-24T07:25:53Z</time>
      </trkpt>
      <trkpt lat="43.374340" lon="-1.651450">
        <time>2017-06-24T07:25:54Z</time>
      </trkpt>
      <trkpt lat="43.374450" lon="-1.651190">
        <time>2017-06-24T07:25:55Z</time>
      </trkpt>
      <trkpt lat="43.374560" lon="-1.650930">
        <time>2017-06-24T07:25:56Z</time>
      </trkpt>
      <trkpt lat="43.374670" lon="-1.650700">
        <time>2017-06-24T07:25:57Z</time>
      </trkpt>
      <trkpt lat="43.374790" lon="-1.650470">
        <time>2017-06-24T07:25:58Z</time>
      </trkpt>
      <trkpt lat="43.374920" lon="-1.650220">
        <time>2017-06-24T07:25:59Z</time>
      </trkpt>
      <trkpt lat="43.375040" lon="-1.650000">
        <time>2017-06-24T07:26:00Z</time>
      </trkpt>
      <trkpt lat="43.375180" lon="-1.649780">
        <time>2017-06-24T07:26:01Z</time>
      </trkpt>
      <trkpt lat="43.375330" lon="-1.649550">
        <time>2017-06-24T07:26:02Z</time>
      </trkpt>
      <trkpt lat="43.375470" lon="-1.649360">
        <time>2017-06-24T07:26:03Z</time>
      </trkpt>
      <trkpt lat="43.375630" lon="-1.649140">
        <time>2017-06-24T07:26:04Z</time>
      </trkpt>
      <trkpt lat="43.375780" lon="-1.648950">
        <time>2017-06-24T07:26:05Z</time>
      </trkpt>
      <trkpt lat="43.375940" lon="-1.648750">
        <time>2017-06-24T07:26:06Z</time>
      </trkpt>
      <trkpt lat="43.376110" lon="-1.648550">
        <time>2017-06-24T07:26:07Z</time>
      </trkpt>
      <trkpt lat="43.376260" lon="-1.648370">
        <time>2017-06-24T07:26:08Z</time>
      </trkpt>
      <trkpt lat="43.376420" lon="-1.648180">
        <time>2017-06-24T07:26:09Z</time>
      </trkpt>
      <trkpt lat="43.376590" lon="-1.647980">
        <time>2017-06-24T07:26:10Z</time>
      </trkpt>
      <trkpt lat="43.376750" lon="-1.647790">
        <time>2017-06-24T07:26:11Z</time>
      </trkpt>
      <trkpt lat="43.376920" lon="-1.647590">
        <time>2017-06-24T07:26:12Z</time>
      </trkpt>
      <trkpt lat="43.377070" lon="-1.647410">
        <time>2017-06-24T07:26:13Z</time>
      </trkpt>
      <trkpt lat="43.377240" lon="-1.647220">
        <time>2017-06-24T07:26:14Z</time>
      </trkpt>
      <trkpt lat="43.377420" lon="-1.647020">
        <time>2017-06-24T07:26:15Z</time>
      </trkpt>
      <trkpt lat="43.377590" lon="-1.646850">
        <time>2017-06-24T07:26:16Z</time>
      </trkpt>
      <trkpt lat="43.377770" lon="-1.646670">
        <time>2017-06-24T07:26:17Z</time>
      </trkpt>
      <trkpt lat="43.377950" lon="-1.646480">
        <time>2017-06-24T07:26:18Z</time>
      </trkpt>
      <trkpt lat="43.378110" lon="-1.646330">
        <time>2017-06-24T07:26:19Z</time>
      </trkpt>
      <trkpt lat="43.378300" lon="-1.646150">
        <time>2017-06-24T07:26:20Z</time>
      </trkpt>
      <trkpt lat="43.378460" lon="-1.646020">
        <time>2017-06-24T07:26:21Z</time>
      </trkpt>
      <trkpt lat="43.378640" lon="-1.645870">
        <time>2017-06-24T07:26:22Z</time>
      </trkpt>
      <trkpt lat="43.378840" lon="-1.645730">
        <time>2017-06-24T07:26:23Z</time>
      </trkpt>
      <trkpt lat="43.379010" lon="-1.645610">
        <time>2017-06-24T07:26:24Z</time>
      </trkpt>
      <trkpt lat="43.379200" lon="-1.645480">
        <time>2017-06-24T07:26:25Z</time>
      </trkpt>
      <trkpt lat="43.379390" lon="-1.645350">
        <time>2017-06-24T07:26:26Z</time>
      </trkpt>
      <trkpt lat="43.379580" lon="-1.645230">
        <time>2017-06-24T07:26:27Z</time>
      </trkpt>
      <trkpt lat="43.379780" lon="-1.645110">
        <time>2017-06-24T07:26:28Z</time>
      </trkpt>
      <trkpt lat="43.379970" lon="-1.645000">
        <time>2017-06-24T07:26:29Z</time>
      </trkpt>
      <trkpt lat="43.380170" lon="-1.644900">
        <time>2017-06-24T07:26:30Z</time>
      </trkpt>
      <trkpt lat="43.380380" lon="-1.644790">
        <time>2017-06-24T07:26:31Z</time>
      </trkpt>
      <trkpt lat="43.380580" lon="-1.644700">
        <time>2017-06-24T07:26:32Z</time>
      </trkpt>
      <trkpt lat="43.380780" lon="-1.644600">
        <time>2017-06-24T07:26:33Z</time>
      </trkpt>
      <trkpt lat="43.381000" lon="-1.644510">
        <time>2017-06-24T07:26:34Z</time>
      </trkpt>
      <trkpt lat="43.381200" lon="-1.644420">
        <time>2017-06-24T07:26:35Z</time>
      </trkpt>
      <trkpt lat="43.381420" lon="-1.644340">
        <time>2017-06-24T07:26:36Z</time>
      </trkpt>
      <trkpt lat="43.381610" lon="-1.644270">
        <time>2017-06-24T07:26:37Z</time>
      </trkpt>
      <trkpt lat="43.381830" lon="-1.644200">
        <time>2017-06-24T07:26:38Z</time>
      </trkpt>
      <trkpt lat="43.382050" lon="-1.644130">
        <time>2017-06-24T07:26:39Z</time>
      </trkpt>
      <trkpt lat="43.382250" lon="-1.644070">
        <time>2017-06-24T07:26:40Z</time>
      </trkpt>
      <trkpt lat="43.382460" lon="-1.644010">
        <time>2017-06-24T07:26:41Z</time>
      </trkpt>
      <trkpt lat="43.382680" lon="-1.643940">
        <time>2017-06-24T07:26:42Z</time>
      </trkpt>
      <trkpt lat="43.382900" lon="-1.643870">
        <time>2017-06-24T07:26:43Z</time>
      </trkpt>
      <trkpt lat="43.383130" lon="-1.643800">
        <time>2017-06-24T07:26:44Z</time>
      </trkpt>
      <trkpt lat="43.383340" lon="-1.643720">
        <time>2017-06-24T07:26:45Z</time>
      </trkpt>
      <trkpt lat="43.383570" lon="-1.643650">
        <time>2017-06-24T07:26:46Z</time>
      </trkpt>
      <trkpt lat="43.383810" lon="-1.643560">
        <time>2017-06-24T07:26:47Z</time>
      </trkpt>
      <trkpt lat="43.384020" lon="-1.643470">
        <time>2017-06-24T07:26:48Z</time>
      </trkpt>
      <trkpt lat="43.384250" lon="-1.643380">
        <time>2017-06-24T07:26:49Z</time>
      </trkpt>
      <trkpt lat="43.384490" lon="-1.643270">
        <time>2017-06-24T07:26:50Z</time>
      </trkpt>
      <trkpt lat="43.384710" lon="-1.643170">
        <time>2017-06-24T07:26:51Z</time>
      </trkpt>
      <trkpt lat="43.384950" lon="-1.643040">
        <time>2017-06-24T07:26:52Z</time>
      </trkpt>
      <trkpt lat="43.385160" lon="-1.642930">
        <time>2017-06-24T07:26:53Z</time>
      </trkpt>
      <trkpt lat="43.385390" lon="-1.642820">
        <time>2017-06-24T07:26:54Z</time>
      </trkpt>
      <trkpt lat="43.385630" lon="-1.642690">
        <time>2017-06-24T07:26:55Z</time>
      </trkpt>
      <trkpt lat="43.385840" lon="-1.642570">
        <time>2017-06-24T07:26:56Z</time>
      </trkpt>
      <trkpt lat="43.386070" lon="-1.642450">
        <time>2017-06-24T07:26:57Z</time>
      </trkpt>
      <trkpt lat="43.386290" lon="-1.642320">
        <time>2017-06-24T07:26:58Z</time>
      </trkpt>
      <trkpt lat="43.386520" lon="-1.642190">
        <time>2017-06-24T07:26:59Z</time>
      </trkpt>
      <trkpt lat="43.386760" lon="-1.642050">
        <time>2017-06-24T07:27:00Z</time>
      </trkpt>
      <trkpt lat="43.386970" lon="-1.641930">
        <time>2017-06-24T07:27:01Z</time>
      </trkpt>
      <trkpt lat="43.387190" lon="-1.641790">
        <time>2017-06-24T07:27:02Z</time>
      </trkpt>
      <trkpt lat="43.387430" lon="-1.641650">
        <time>2017-06-24T07:27:03Z</time>
      </trkpt>
      <trkpt lat="43.387630" lon="-1.641530">
        <time>2017-06-24T07:27:04Z</time>
      </trkpt>
      <trkpt lat="43.387850" lon="-1.641390">
        <time>2017-06-24T07:27:05Z</time>
      </trkpt>
      <trkpt lat="43.388080" lon="-1.641240">
        <time>2017-06-24T07:27:06Z</time>
      </trkpt>
      <trkpt lat="43.388280" lon="-1.641120">
        <time>2017-06-24T07:27:07Z</time>
      </trkpt>
      <trkpt lat="43.388510" lon="-1.640990">
        <time>2017-06-24T07:27:08Z</time>
      </trkpt>
      <trkpt lat="43.388710" lon="-1.640860">
        <time>2017-06-24T07:27:09Z</time>
      </trkpt>
      <trkpt lat="43.388920" lon="-1.640720">
        <time>2017-06-24T07:27:10Z</time>
      </trkpt>
      <trkpt lat="43.389140" lon="-1.640570">
        <time>2017-06-24T07:27:11Z</time>
      </trkpt>
      <trkpt lat="43.389340" lon="-1.640430">
        <time>2017-06-24T07:27:12Z</time>
      </trkpt>
      <trkpt lat="43.389540" lon="-1.640280">
        <time>2017-06-24T07:27:13Z</time>
      </trkpt>
      <trkpt lat="43.389750" lon="-1.640130">
        <time>2017-06-24T07:27:14Z</time>
      </trkpt>
      <trkpt lat="43.389950" lon="-1.639990">
        <time>2017-06-24T07:27:15Z</time>
      </trkpt>
      <trkpt lat="43.390160" lon="-1.639820">
        <time>2017-06-24T07:27:16Z</time>
      </trkpt>
      <trkpt lat="43.390350" lon="-1.639670">
        <time>2017-06-24T07:27:17Z</time>
      </trkpt>
      <trkpt lat="43.390540" lon="-1.639500">
        <time>2017-06-24T07:27:18Z</time>
      </trkpt>
      <trkpt lat="43.390740" lon="-1.639340">
        <time>2017-06-24T07:27:19Z</time>
      </trkpt>
      <trkpt lat="43.390920" lon="-1.639200">
        <time>2017-06-24T07:27:20Z</time>
      </trkpt>
      <trkpt lat="43.391130" lon="-1.639040">
        <time>2017-06-24T07:27:21Z</time>
      </trkpt>
      <trkpt lat="43.391340" lon="-1.638900">
        <time>2017-06-24T07:27:22Z</time>
      </trkpt>
      <trkpt lat="43.391530" lon="-1.638770">
        <time>2017-06-24T07:27:23Z</time>
      </trkpt>
      <trkpt lat="43.391750" lon="-1.638630">
        <time>2017-06-24T07:27:24Z</time>
      </trkpt>
      <trkpt lat="43.391950" lon="-1.638500">
        <time>2017-06-24T07:27:25Z</time>
      </trkpt>
      <trkpt lat="43.392160" lon="-1.638370">
        <time>2017-06-24T07:27:26Z</time>
      </trkpt>
      <trkpt lat="43.392380" lon="-1.638230">
        <time>2017-06-24T07:27:27Z</time>
      </trkpt>
      <trkpt lat="43.392590" lon="-1.638120">
        <time>2017-06-24T07:27:28Z</time>
      </trkpt>
      <trkpt lat="43.392810" lon="-1.638010">
        <time>2017-06-24T07:27:29Z</time>
      </trkpt>
      <trkpt lat="43.393020" lon="-1.637900">
        <time>2017-06-24T07:27:30Z</time>
      </trkpt>
      <trkpt lat="43.393240" lon="-1.637800">
        <time>2017-06-24T07:27:31Z</time>
      </trkpt>
      <trkpt lat="43.393480" lon="-1.637710">
        <time>2017-06-24T07:27:32Z</time>
      </trkpt>
      <trkpt lat="43.393680" lon="-1.637630">
        <time>2017-06-24T07:27:33Z</time>
      </trkpt>
      <trkpt lat="43.393900" lon="-1.637550">
        <time>2017-06-24T07:27:34Z</time>
      </trkpt>
      <trkpt lat="43.394140" lon="-1.637470">
        <time>2017-06-24T07:27:35Z</time>
      </trkpt>
      <trkpt lat="43.394350" lon="-1.637420">
        <time>2017-06-24T07:27:36Z</time>
      </trkpt>
      <trkpt lat="43.394580" lon="-1.637370">
        <time>2017-06-24T07:27:37Z</time>
      </trkpt>
      <trkpt lat="43.394820" lon="-1.637310">
        <time>2017-06-24T07:27:38Z</time>
      </trkpt>
      <trkpt lat="43.395030" lon="-1.637280">
        <time>2017-06-24T07:27:39Z</time>
      </trkpt>
      <trkpt lat="43.395280" lon="-1.637240">
        <time>2017-06-24T07:27:40Z</time>
      </trkpt>
      <trkpt lat="43.395480" lon="-1.637200">
        <time>2017-06-24T07:27:41Z</time>
      </trkpt>
      <trkpt lat="43.395710" lon="-1.637180">
        <time>2017-06-24T07:27:42Z</time>
      </trkpt>
      <trkpt lat="43.395940" lon="-1.637150">
        <time>2017-06-24T07:27:43Z</time>
      </trkpt>
      <trkpt lat="43.396150" lon="-1.637120">
        <time>2017-06-24T07:27:44Z</time>
      </trkpt>
      <trkpt lat="43.396370" lon="-1.637090">
        <time>2017-06-24T07:27:45Z</time>
      </trkpt>
      <trkpt lat="43.396580" lon="-1.637060">
        <time>2017-06-24T07:27:46Z</time>
      </trkpt>
      <trkpt lat="43.396800" lon="-1.637030">
        <time>2017-06-24T07:27:47Z</time>
      </trkpt>
      <trkpt lat="43.397040" lon="-1.637000">
        <time>2017-06-24T07:27:48Z</time>
      </trkpt>
      <trkpt lat="43.397260" lon="-1.636960">
        <time>2017-06-24T07:27:49Z</time>
      </trkpt>
      <trkpt lat="43.397480" lon="-1.636930">
        <time>2017-06-24T07:27:50Z</time>
      </trkpt>
      <trkpt lat="43.397720" lon="-1.636880">
        <time>2017-06-24T07:27:51Z</time>
      </trkpt>
      <trkpt lat="43.397930" lon="-1.636830">
        <time>2017-06-24T07:27:52Z</time>
      </trkpt>
      <trkpt lat="43.398160" lon="-1.636770">
        <time>2017-06-24T07:27:53Z</time>
      </trkpt>
      <trkpt lat="43.398410" lon="-1.636700">
        <time>2017-06-24T07:27:54Z</time>
      </trkpt>
      <trkpt lat="43.398620" lon="-1.636630">
        <time>2017-06-24T07:27:55Z</time>
      </trkpt>
      <trkpt lat="43.398850" lon="-1.636540">
        <time>2017-06-24T07:27:56Z</time>
      </trkpt>
      <trkpt lat="43.399050" lon="-1.636450">
        <time>2017-06-24T07:27:57Z</time>
      </trkpt>
      <trkpt lat="43.399270" lon="-1.636360">
        <time>2017-06-24T07:27:58Z</time>
      </trkpt>
      <trkpt lat="43.399490" lon="-1.636250">
        <time>2017-06-24T07:27:59Z</time>
      </trkpt>
      <trkpt lat="43.399680" lon="-1.636150">
        <time>2017-06-24T07:28:00Z</time>
      </trkpt>
      <trkpt lat="43.399880" lon="-1.636040">
        <time>2017-06-24T07:28:01Z</time>
      </trkpt>
      <trkpt lat="43.400080" lon="-1.635910">
        <time>2017-06-24T07:28:02Z</time>
      </trkpt>
      <trkpt lat="43.400280" lon="-1.635780">
        <time>2017-06-24T07:28:03Z</time>
      </trkpt>
      <trkpt lat="43.400470" lon="-1.635640">
        <time>2017-06-24T07:28:04Z</time>
      </trkpt>
      <trkpt lat="43.400650" lon="-1.635520">
        <time>2017-06-24T07:28:05Z</time>
      </trkpt>
      <trkpt lat="43.400830" lon="-1.635370">
        <time>2017-06-24T07:28:06Z</time>
      </trkpt>
      <trkpt lat="43.401030" lon="-1.635210">
        <time>2017-06-24T07:28:07Z</time>
      </trkpt>
      <trkpt lat="43.401200" lon="-1.635060">
        <time>2017-06-24T07:28:08Z</time>
      </trkpt>
      <trkpt lat="43.401380" lon="-1.634900">
        <time>2017-06-24T07:28:09Z</time>
      </trkpt>
      <trkpt lat="43.401570" lon="-1.634720">
        <time>2017-06-24T07:28:10Z</time>
      </trkpt>
      <trkpt lat="43.401740" lon="-1.634550">
        <time>2017-06-24T07:28:11Z</time>
      </trkpt>
      <trkpt lat="43.401930" lon="-1.634360">
        <time>2017-06-24T07:28:12Z</time>
      </trkpt>
      <trkpt lat="43.402100" lon="-1.634190">
        <time>2017-06-24T07:28:13Z</time>
      </trkpt>
      <trkpt lat="43.402270" lon="-1.633990">
        <time>2017-06-24T07:28:14Z</time>
      </trkpt>
      <trkpt lat="43.402460" lon="-1.633770">
        <time>2017-06-24T07:28:15Z</time>
      </trkpt>
      <trkpt lat="43.402630" lon="-1.633580">
        <time>2017-06-24T07:28:16Z</time>
      </trkpt>
      <trkpt lat="43.402800" lon="-1.633370">
        <time>2017-06-24T07:28:17Z</time>
      </trkpt>
      <trkpt lat="43.402970" lon="-1.633160">
        <time>2017-06-24T07:28:18Z</time>
      </trkpt>
      <trkpt lat="43.403130" lon="-1.632940">
        <time>2017-06-24T07:28:19Z</time>
      </trkpt>
      <trkpt lat="43.403310" lon="-1.632710">
        <time>2017-06-24T07:28:20Z</time>
      </trkpt>
      <trkpt lat="43.403460" lon="-1.632500">
        <time>2017-06-24T07:28:21Z</time>
      </trkpt>
      <trkpt lat="43.403620" lon="-1.632270">
        <time>2017-06-24T07:28:22Z</time>
      </trkpt>
      <trkpt lat="43.403780" lon="-1.632020">
        <time>2017-06-24T07:28:23Z</time>
      </trkpt>
      <trkpt lat="43.403920" lon="-1.631810">
        <time>2017-06-24T07:28:24Z</time>
      </trkpt>
      <trkpt lat="43.404070" lon="-1.631580">
        <time>2017-06-24T07:28:25Z</time>
      </trkpt>
      <trkpt lat="43.404220" lon="-1.631340">
        <time>2017-06-24T07:28:26Z</time>
      </trkpt>
      <trkpt lat="43.404360" lon="-1.631110">
        <time>2017-06-24T07:28:27Z</time>
      </trkpt>
      <trkpt lat="43.404510" lon="-1.630860">
        <time>2017-06-24T07:28:28Z</time>
      </trkpt>
      <trkpt lat="43.404640" lon="-1.630640">
        <time>2017-06-24T07:28:29Z</time>
      </trkpt>
      <trkpt lat="43.404770" lon="-1.630400">
        <time>2017-06-24T07:28:30Z</time>
      </trkpt>
      <trkpt lat="43.404920" lon="-1.630130">
        <time>2017-06-24T07:28:31Z</time>
      </trkpt>
      <trkpt lat="43.405050" lon="-1.629910">
        <time>2017-06-24T07:28:32Z</time>
      </trkpt>
      <trkpt lat="43.405180" lon="-1.629680">
        <time>2017-06-24T07:28:33Z</time>
      </trkpt>
      <trkpt lat="43.405320" lon="-1.629430">
        <time>2017-06-24T07:28:34Z</time>
      </trkpt>
      <trkpt lat="43.405450" lon="-1.629180">
        <time>2017-06-24T07:28:35Z</time>
      </trkpt>
      <trkpt lat="43.405580" lon="-1.628920">
        <time>2017-06-24T07:28:36Z</time>
      </trkpt>
      <trkpt lat="43.405700" lon="-1.628690">
        <time>2017-06-24T07:28:37Z</time>
      </trkpt>
      <trkpt lat="43.405830" lon="-1.628430">
        <time>2017-06-24T07:28:38Z</time>
      </trkpt>
      <trkpt lat="43.405960" lon="-1.628160">
        <time>2017-06-24T07:28:39Z</time>
      </trkpt>
      <trkpt lat="43.406080" lon="-1.627920">
        <time>2017-06-24T07:28:40Z</time>
      </trkpt>
      <trkpt lat="43.406200" lon="-1.627670">
        <time>2017-06-24T07:28:41Z</time>
      </trkpt>
      <trkpt lat="43.406330" lon="-1.627410">
        <time>2017-06-24T07:28:42Z</time>
      </trkpt>
      <trkpt lat="43.406440" lon="-1.627180">
        <time>2017-06-24T07:28:43Z</time>
      </trkpt>
      <trkpt lat="43.406560" lon="-1.626920">
        <time>2017-06-24T07:28:44Z</time>
      </trkpt>
      <trkpt lat="43.406660" lon="-1.626680">
        <time>2017-06-24T07:28:45Z</time>
      </trkpt>
      <trkpt lat="43.406780" lon="-1.626430">
        <time>2017-06-24T07:28:46Z</time>
      </trkpt>
      <trkpt lat="43.406900" lon="-1.626170">
        <time>2017-06-24T07:28:47Z</time>
      </trkpt>
      <trkpt lat="43.407020" lon="-1.625930">
        <time>2017-06-24T07:28:48Z</time>
      </trkpt>
      <trkpt lat="43.407150" lon="-1.625670">
        <time>2017-06-24T07:28:49Z</time>
      </trkpt>
      <trkpt lat="43.407270" lon="-1.625410">
        <time>2017-06-24T07:28:50Z</time>
      </trkpt>
      <trkpt lat="43.407400" lon="-1.625150">
        <time>2017-06-24T07:28:51Z</time>
      </trkpt>
      <trkpt lat="43.407530" lon="-1.624880">
        <time>2017-06-24T07:28:52Z</time>
      </trkpt>
      <trkpt lat="43.407660" lon="-1.624640">
        <time>2017-06-24T07:28:53Z</time>
      </trkpt>
      <trkpt lat="43.407800" lon="-1.624390">
        <time>2017-06-24T07:28:54Z</time>
      </trkpt>
      <trkpt lat="43.407950" lon="-1.624130">
        <time>2017-06-24T07:28:55Z</time>
      </trkpt>
      <trkpt lat="43.408090" lon="-1.623910">
        <time>2017-06-24T07:28:56Z</time>
      </trkpt>
      <trkpt lat="43.408250" lon="-1.623680">
        <time>2017-06-24T07:28:57Z</time>
      </trkpt>
      <trkpt lat="43.408420" lon="-1.623420">
        <time>2017-06-24T07:28:58Z</time>
      </trkpt>
      <trkpt lat="43.408560" lon="-1.623200">
        <time>2017-06-24T07:28:59Z</time>
      </trkpt>
      <trkpt lat="43.408730" lon="-1.622950">
        <time>2017-06-24T07:29:00Z</time>
      </trkpt>
      <trkpt lat="43.408880" lon="-1.622730">
        <time>2017-06-24T07:29:01Z</time>
      </trkpt>
      <trkpt lat="43.409040" lon="-1.622500">
        <time>2017-06-24T07:29:02Z</time>
      </trkpt>
      <trkpt lat="43.409200" lon="-1.622240">
        <time>2017-06-24T07:29:03Z</time>
      </trkpt>
      <trkpt lat="43.409350" lon="-1.622010">
        <time>2017-06-24T07:29:04Z</time>
      </trkpt>
      <trkpt lat="43.409500" lon="-1.621760">
        <time>2017-06-24T07:29:05Z</time>
      </trkpt>
      <trkpt lat="43.409650" lon="-1.621510">
        <time>2017-06-24T07:29:06Z</time>
      </trkpt>
      <trkpt lat="43.409800" lon="-1.621250">
        <time>2017-06-24T07:29:07Z</time>
      </trkpt>
      <trkpt lat="43.409950" lon="-1.620960">
        <time>2017-06-24T07:29:08Z</time>
      </trkpt>
      <trkpt lat="43.410080" lon="-1.620710">
        <time>2017-06-24T07:29:09Z</time>
      </trkpt>
      <trkpt lat="43.410210" lon="-1.620420">
        <time>2017-06-24T07:29:10Z</time>
      </trkpt>
      <trkpt lat="43.410340" lon="-1.620120">
        <time>2017-06-24T07:29:11Z</time>
      </trkpt>
      <trkpt lat="43.410460" lon="-1.619850">
        <time>2017-06-24T07:29:12Z</time>
      </trkpt>
      <trkpt lat="43.410570" lon="-1.619560">
        <time>2017-06-24T07:29:13Z</time>
      </trkpt>
      <trkpt lat="43.410690" lon="-1.619250">
        <time>2017-06-24T07:29:14Z</time>
      </trkpt>
      <trkpt lat="43.410790" lon="-1.618980">
        <time>2017-06-24T07:29:15Z</time>
      </trkpt>
      <trkpt lat="43.410900" lon="-1.618680">
        <time>2017-06-24T07:29:16Z</time>
      </trkpt>
      <trkpt lat="43.410990" lon="-1.618410">
        <time>2017-06-24T07:29:17Z</time>
      </trkpt>
      <trkpt lat="43.411100" lon="-1.618130">
        <time>2017-06-24T07:29:18Z</time>
      </trkpt>
      <trkpt lat="43.411210" lon="-1.617830">
        <time>2017-06-24T07:29:19Z</time>
      </trkpt>
      <trkpt lat="43.411300" lon="-1.617580">
        <time>2017-06-24T07:29:20Z</time>
      </trkpt>
      <trkpt lat="43.411410" lon="-1.617300">
        <time>2017-06-24T07:29:21Z</time>
      </trkpt>
      <trkpt lat="43.411510" lon="-1.617040">
        <time>2017-06-24T07:29:22Z</time>
      </trkpt>
      <trkpt lat="43.411620" lon="-1.616780">
        <time>2017-06-24T07:29:23Z</time>
      </trkpt>
      <trkpt lat="43.411740" lon="-1.616510">
        <time>2017-06-24T07:29:24Z</time>
      </trkpt>
      <trkpt lat="43.411850" lon="-1.616280">
        <time>2017-06-24T07:29:25Z</time>
      </trkpt>
      <trkpt lat="43.411970" lon="-1.616030">
        <time>2017-06-24T07:29:26Z</time>
      </trkpt>
      <trkpt lat="43.412110" lon="-1.615770">
        <time>2017-06-24T07:29:27Z</time>
      </trkpt>
      <trkpt lat="43.412240" lon="-1.615550">
        <time>2017-06-24T07:29:28Z</time>
      </trkpt>
      <trkpt lat="43.412380" lon="-1.615310">
        <time>2017-06-24T07:29:29Z</time>
      </trkpt>
      <trkpt lat="43.412520" lon="-1.615060">
        <time>2017-06-24T07:29:30Z</time>
      </trkpt>
      <trkpt lat="43.412660" lon="-1.614850">
        <time>2017-06-24T07:29:31Z</time>
      </trkpt>
      <trkpt lat="43.412820" lon="-1.614620">
        <time>2017-06-24T07:29:32Z</time>
      </trkpt>
      <trkpt lat="43.412960" lon="-1.614420">
        <time>2017-06-24T07:29:33Z</time>
      </trkpt>
      <trkpt lat="43.413100" lon="-1.614210">
        <time>2017-06-24T07:29:34Z</time>
      </trkpt>
      <trkpt lat="43.413260" lon="-1.614000">
        <time>2017-06-24T07:29:35Z</time>
      </trkpt>
      <trkpt lat="43.413400" lon="-1.613810">
        <time>2017-06-24T07:29:36Z</time>
      </trkpt>
      <trkpt lat="43.413540" lon="-1.613620">
        <time>2017-06-24T07:29:37Z</time>
      </trkpt>
      <trkpt lat="43.413680" lon="-1.613420">
        <time>2017-06-24T07:29:38Z</time>
      </trkpt>
      <trkpt lat="43.413820" lon="-1.613220">
        <time>2017-06-24T07:29:39Z</time>
      </trkpt>
      <trkpt lat="43.413970" lon="-1.613010">
        <time>2017-06-24T07:29:40Z</time>
      </trkpt>
      <trkpt lat="43.414090" lon="-1.612820">
        <time>2017-06-24T07:29:41Z</time>
      </trkpt>
      <trkpt lat="43.414230" lon="-1.612600">
        <time>2017-06-24T07:29:42Z</time>
      </trkpt>
      <trkpt lat="43.414370" lon="-1.612380">
        <time>2017-06-24T07:29:43Z</time>
      </trkpt>
      <trkpt lat="43.414490" lon="-1.612160">
        <time>2017-06-24T07:29:44Z</time>
      </trkpt>
      <trkpt lat="43.414610" lon="-1.611940">
        <time>2017-06-24T07:29:45Z</time>
      </trkpt>
      <trkpt lat="43.414720" lon="-1.611700">
        <time>2017-06-24T07:29:46Z</time>
      </trkpt>
      <trkpt lat="43.414820" lon="-1.611480">
        <time>2017-06-24T07:29:47Z</time>
      </trkpt>
      <trkpt lat="43.414920" lon="-1.611240">
        <time>2017-06-24T07:29:48Z</time>
      </trkpt>
      <trkpt lat="43.415000" lon="-1.611020">
        <time>2017-06-24T07:29:49Z</time>
      </trkpt>
      <trkpt lat="43.415090" lon="-1.610790">
        <time>2017-06-24T07:29:50Z</time>
      </trkpt>
      <trkpt lat="43.415180" lon="-1.610540">
        <time>2017-06-24T07:29:51Z</time>
      </trkpt>
      <trkpt lat="43.415250" lon="-1.610310">
        <time>2017-06-24T07:29:52Z</time>
      </trkpt>
      <trkpt lat="43.415320" lon="-1.610060">
        <time>2017-06-24T07:29:53Z</time>
      </trkpt>
      <trkpt lat="43.415400" lon="-1.609810">
        <time>2017-06-24T07:29:54Z</time>
      </trkpt>
      <trkpt lat="43.415460" lon="-1.609560">
        <time>2017-06-24T07:29:55Z</time>
      </trkpt>
      <trkpt lat="43.415530" lon="-1.609290">
        <time>2017-06-24T07:29:56Z</time>
      </trkpt>
      <trkpt lat="43.415600" lon="-1.609040">
        <time>2017-06-24T07:29:57Z</time>
      </trkpt>
      <trkpt lat="43.415670" lon="-1.608790">
        <time>2017-06-24T07:29:58Z</time>
      </trkpt>
      <trkpt lat="43.415740" lon="-1.608510">
        <time>2017-06-24T07:29:59Z</time>
      </trkpt>
      <trkpt lat="43.415800" lon="-1.608280">
        <time>2017-06-24T07:30:00Z</time>
      </trkpt>
      <trkpt lat="43.415870" lon="-1.608020">
        <time>2017-06-24T07:30:01Z</time>
      </trkpt>
      <trkpt lat="43.415930" lon="-1.607740">
        <time>2017-06-24T07:30:02Z</time>
      </trkpt>
      <trkpt lat="43.415990" lon="-1.607500">
        <time>2017-06-24T07:30:03Z</time>
      </trkpt>
      <trkpt lat="43.416060" lon="-1.607240">
        <time>2017-06-24T07:30:04Z</time>
      </trkpt>
      <trkpt lat="43.416120" lon="-1.607010">
        <time>2017-06-24T07:30:05Z</time>
      </trkpt>
      <trkpt lat="43.416190" lon="-1.606770">
        <time>2017-06-24T07:30:06Z</time>
      </trkpt>
      <trkpt lat="43.416270" lon="-1.606520">
        <time>2017-06-24T07:30:07Z</time>
      </trkpt>
      <trkpt lat="43.416340" lon="-1.606310">
        <time>2017-06-24T07:30:08Z</time>
      </trkpt>
      <trkpt lat="43.416420" lon="-1.606090">
        <time>2017-06-24T07:30:09Z</time>
      </trkpt>
      <trkpt lat="43.416500" lon="-1.605880">
        <time>2017-06-24T07:30:10Z</time>
      </trkpt>
      <trkpt lat="43.416590" lon="-1.605660">
        <time>2017-06-24T07:30:11Z</time>
      </trkpt>
      <trkpt lat="43.416700" lon="-1.605430">
        <time>2017-06-24T07:30:12Z</time>
      </trkpt>
      <trkpt lat="43.416790" lon="-1.605230">
        <time>2017-06-24T07:30:13Z</time>
      </trkpt>
      <trkpt lat="43.416900" lon="-1.605010">
        <time>2017-06-24T07:30:14Z</time>
      </trkpt>
      <trkpt lat="43.417020" lon="-1.604770">
        <time>2017-06-24T07:30:15Z</time>
      </trkpt>
      <trkpt lat="43.417120" lon="-1.604580">
        <time>2017-06-24T07:30:16Z</time>
      </trkpt>
      <trkpt lat="43.417230" lon="-1.604370">
        <time>2017-06-24T07:30:17Z</time>
      </trkpt>
      <trkpt lat="43.417440" lon="-1.603960">
        <time>2017-06-24T07:30:19Z</time>
      </trkpt>
      <trkpt lat="43.417720" lon="-1.603540">
        <time>2017-06-24T07:30:21Z</time>
      </trkpt>
      <trkpt lat="43.417850" lon="-1.603330">
        <time>2017-06-24T07:30:22Z</time>
      </trkpt>
      <trkpt lat="43.417990" lon="-1.603110">
        <time>2017-06-24T07:30:23Z</time>
      </trkpt>
      <trkpt lat="43.418100" lon="-1.602890">
        <time>2017-06-24T07:30:24Z</time>
      </trkpt>
      <trkpt lat="43.418230" lon="-1.602680">
        <time>2017-06-24T07:30:25Z</time>
      </trkpt>
      <trkpt lat="43.418350" lon="-1.602480">
        <time>2017-06-24T07:30:26Z</time>
      </trkpt>
      <trkpt lat="43.418500" lon="-1.602270">
        <time>2017-06-24T07:30:27Z</time>
      </trkpt>
      <trkpt lat="43.418640" lon="-1.602050">
        <time>2017-06-24T07:30:28Z</time>
      </trkpt>
      <trkpt lat="43.418780" lon="-1.601860">
        <time>2017-06-24T07:30:29Z</time>
      </trkpt>
      <trkpt lat="43.418920" lon="-1.601660">
        <time>2017-06-24T07:30:30Z</time>
      </trkpt>
      <trkpt lat="43.419070" lon="-1.601450">
        <time>2017-06-24T07:30:31Z</time>
      </trkpt>
      <trkpt lat="43.419210" lon="-1.601260">
        <time>2017-06-24T07:30:32Z</time>
      </trkpt>
      <trkpt lat="43.419360" lon="-1.601070">
        <time>2017-06-24T07:30:33Z</time>
      </trkpt>
      <trkpt lat="43.419510" lon="-1.600860">
        <time>2017-06-24T07:30:34Z</time>
      </trkpt>
      <trkpt lat="43.419650" lon="-1.600680">
        <time>2017-06-24T07:30:35Z</time>
      </trkpt>
      <trkpt lat="43.419810" lon="-1.600500">
        <time>2017-06-24T07:30:36Z</time>
      </trkpt>
      <trkpt lat="43.419940" lon="-1.600350">
        <time>2017-06-24T07:30:37Z</time>
      </trkpt>
      <trkpt lat="43.420080" lon="-1.600180">
        <time>2017-06-24T07:30:38Z</time>
      </trkpt>
      <trkpt lat="43.420230" lon="-1.600020">
        <time>2017-06-24T07:30:39Z</time>
      </trkpt>
      <trkpt lat="43.420360" lon="-1.599890">
        <time>2017-06-24T07:30:40Z</time>
      </trkpt>
      <trkpt lat="43.420490" lon="-1.599740">
        <time>2017-06-24T07:30:41Z</time>
      </trkpt>
      <trkpt lat="43.420620" lon="-1.599600">
        <time>2017-06-24T07:30:42Z</time>
      </trkpt>
      <trkpt lat="43.420750" lon="-1.599460">
        <time>2017-06-24T07:30:43Z</time>
      </trkpt>
      <trkpt lat="43.420880" lon="-1.599310">
        <time>2017-06-24T07:30:44Z</time>
      </trkpt>
      <trkpt lat="43.420990" lon="-1.599190">
        <time>2017-06-24T07:30:45Z</time>
      </trkpt>
      <trkpt lat="43.421100" lon="-1.599060">
        <time>2017-06-24T07:30:46Z</time>
      </trkpt>
      <trkpt lat="43.421220" lon="-1.598920">
        <time>2017-06-24T07:30:47Z</time>
      </trkpt>
      <trkpt lat="43.421320" lon="-1.598800">
        <time>2017-06-24T07:30:48Z</time>
      </trkpt>
      <trkpt lat="43.421420" lon="-1.598680">
        <time>2017-06-24T07:30:49Z</time>
      </trkpt>
      <trkpt lat="43.421510" lon="-1.598560">
        <time>2017-06-24T07:30:50Z</time>
      </trkpt>
      <trkpt lat="43.421580" lon="-1.598470">
        <time>2017-06-24T07:30:51Z</time>
      </trkpt>
      <trkpt lat="43.421640" lon="-1.598380">
        <time>2017-06-24T07:30:52Z</time>
      </trkpt>
      <trkpt lat="43.421660" lon="-1.598300">
        <time>2017-06-24T07:30:53Z</time>
      </trkpt>
      <trkpt lat="43.421670" lon="-1.598210">
        <time>2017-06-24T07:30:54Z</time>
      </trkpt>
      <trkpt lat="43.421660" lon="-1.598140">
        <time>2017-06-24T07:30:55Z</time>
      </trkpt>
      <trkpt lat="43.421640" lon="-1.598100">
        <time>2017-06-24T07:30:56Z</time>
      </trkpt>
      <trkpt lat="43.421600" lon="-1.598090">
        <time>2017-06-24T07:30:57Z</time>
      </trkpt>
      <trkpt lat="43.421570" lon="-1.598050">
        <time>2017-06-24T07:30:58Z</time>
      </trkpt>
      <trkpt lat="43.421560" lon="-1.598000">
        <time>2017-06-24T07:30:59Z</time>
      </trkpt>
      <trkpt lat="43.421560" lon="-1.597930">
        <time>2017-06-24T07:31:00Z</time>
      </trkpt>
      <trkpt lat="43.421550" lon="-1.597870">
        <time>2017-06-24T07:31:01Z</time>
      </trkpt>
      <trkpt lat="43.421520" lon="-1.597810">
        <time>2017-06-24T07:31:02Z</time>
      </trkpt>
      <trkpt lat="43.421490" lon="-1.597760">
        <time>2017-06-24T07:31:03Z</time>
      </trkpt>
      <trkpt lat="43.421490" lon="-1.597710">
        <time>2017-06-24T07:31:04Z</time>
      </trkpt>
      <trkpt lat="43.421500" lon="-1.597680">
        <time>2017-06-24T07:31:05Z</time>
      </trkpt>
      <trkpt lat="43.421510" lon="-1.597660">
        <time>2017-06-24T07:31:06Z</time>
      </trkpt>
      <trkpt lat="43.421510" lon="-1.597660">
        <time>2017-06-24T07:31:07Z</time>
      </trkpt>
      <trkpt lat="43.421510" lon="-1.597660">
        <time>2017-06-24T07:31:08Z</time>
      </trkpt>
      <trkpt lat="43.421510" lon="-1.597660">
        <time>2017-06-24T07:31:09Z</time>
      </trkpt>
      <trkpt lat="43.421510" lon="-1.597660">
        <time>2017-06-24T07:31:10Z</time>
      </trkpt>
      <trkpt lat="43.421510" lon="-1.597660">
        <time>2017-06-24T07:31:11Z</time>
      </trkpt>
      <trkpt lat="43.421510" lon="-1.597660">
        <time>2017-06-24T07:31:12Z</time>
      </trkpt>
      <trkpt lat="43.421510" lon="-1.597660">
        <time>2017-06-24T07:31:13Z</time>
      </trkpt>
      <trkpt lat="43.421510" lon="-1.597660">
        <time>2017-06-24T07:31:14Z</time>
      </trkpt>
      <trkpt lat="43.421510" lon="-1.597660">
        <time>2017-06-24T07:31:15Z</time>
      </trkpt>
      <trkpt lat="43.421510" lon="-1.597660">
        <time>2017-06-24T07:31:16Z</time>
      </trkpt>
      <trkpt lat="43.421510" lon="-1.597660">
        <time>2017-06-24T07:31:17Z</time>
      </trkpt>
      <trkpt lat="43.421510" lon="-1.597660">
        <time>2017-06-24T07:31:18Z</time>
      </trkpt>
      <trkpt lat="43.421510" lon="-1.597660">
        <time>2017-06-24T07:31:19Z</time>
      </trkpt>
      <trkpt lat="43.421510" lon="-1.597660">
        <time>2017-06-24T07:31:20Z</time>
      </trkpt>
      <trkpt lat="43.421510" lon="-1.597660">
        <time>2017-06-24T07:31:21Z</time>
      </trkpt>
      <trkpt lat="43.421510" lon="-1.597660">
        <time>2017-06-24T07:31:22Z</time>
      </trkpt>
      <trkpt lat="43.421510" lon="-1.597660">
        <time>2017-06-24T07:31:23Z</time>
      </trkpt>
      <trkpt lat="43.421510" lon="-1.597660">
        <time>2017-06-24T07:31:24Z</time>
      </trkpt>
      <trkpt lat="43.421510" lon="-1.597660">
        <time>2017-06-24T07:31:25Z</time>
      </trkpt>
      <trkpt lat="43.421510" lon="-1.597660">
        <time>2017-06-24T07:31:26Z</time>
      </trkpt>
      <trkpt lat="43.421510" lon="-1.597660">
        <time>2017-06-24T07:31:27Z</time>
      </trkpt>
      <trkpt lat="43.421510" lon="-1.597660">
        <time>2017-06-24T07:31:28Z</time>
      </trkpt>
      <trkpt lat="43.421510" lon="-1.597660">
        <time>2017-06-24T07:31:29Z</time>
      </trkpt>
      <trkpt lat="43.421510" lon="-1.597660">
        <time>2017-06-24T07:31:30Z</time>
      </trkpt>
      <trkpt lat="43.421510" lon="-1.597660">
        <time>2017-06-24T07:31:31Z</time>
      </trkpt>
      <trkpt lat="43.421510" lon="-1.597660">
        <time>2017-06-24T07:31:32Z</time>
      </trkpt>
      <trkpt lat="43.421510" lon="-1.597660">
        <time>2017-06-24T07:31:33Z</time>
      </trkpt>
      <trkpt lat="43.421510" lon="-1.597660">
        <time>2017-06-24T07:31:34Z</time>
      </trkpt>
      <trkpt lat="43.421510" lon="-1.597660">
        <time>2017-06-24T07:31:35Z</time>
      </trkpt>
      <trkpt lat="43.421510" lon="-1.597660">
        <time>2017-06-24T07:31:36Z</time>
      </trkpt>
      <trkpt lat="43.421510" lon="-1.597660">
        <time>2017-06-24T07:31:37Z</time>
      </trkpt>
      <trkpt lat="43.421510" lon="-1.597660">
        <time>2017-06-24T07:31:38Z</time>
      </trkpt>
      <trkpt lat="43.421510" lon="-1.597660">
        <time>2017-06-24T07:31:39Z</time>
      </trkpt>
      <trkpt lat="43.421510" lon="-1.597660">
        <time>2017-06-24T07:31:40Z</time>
      </trkpt>
      <trkpt lat="43.421510" lon="-1.597660">
        <time>2017-06-24T07:31:41Z</time>
      </trkpt>
      <trkpt lat="43.421510" lon="-1.597660">
        <time>2017-06-24T07:31:42Z</time>
      </trkpt>
      <trkpt lat="43.421510" lon="-1.597660">
        <time>2017-06-24T07:31:43Z</time>
      </trkpt>
      <trkpt lat="43.421510" lon="-1.597660">
        <time>2017-06-24T07:31:44Z</time>
      </trkpt>
      <trkpt lat="43.421510" lon="-1.597660">
        <time>2017-06-24T07:31:45Z</time>
      </trkpt>
      <trkpt lat="43.421510" lon="-1.597660">
        <time>2017-06-24T07:31:46Z</time>
      </trkpt>
      <trkpt lat="43.421510" lon="-1.597660">
        <time>2017-06-24T07:31:47Z</time>
      </trkpt>
      <trkpt lat="43.421510" lon="-1.597660">
        <time>2017-06-24T07:31:48Z</time>
      </trkpt>
      <trkpt lat="43.421510" lon="-1.597660">
        <time>2017-06-24T07:31:49Z</time>
      </trkpt>
      <trkpt lat="43.421510" lon="-1.597660">
        <time>2017-06-24T07:31:50Z</time>
      </trkpt>
      <trkpt lat="43.421510" lon="-1.597660">
        <time>2017-06-24T07:31:51Z</time>
      </trkpt>
      <trkpt lat="43.421510" lon="-1.597660">
        <time>2017-06-24T07:31:52Z</time>
      </trkpt>
      <trkpt lat="43.421510" lon="-1.597660">
        <time>2017-06-24T07:31:53Z</time>
      </trkpt>
      <trkpt lat="43.421510" lon="-1.597660">
        <time>2017-06-24T07:31:54Z</time>
      </trkpt>
      <trkpt lat="43.421510" lon="-1.597660">
        <time>2017-06-24T07:31:55Z</time>
      </trkpt>
      <trkpt lat="43.421510" lon="-1.597660">
        <time>2017-06-24T07:31:56Z</time>
      </trkpt>
      <trkpt lat="43.421510" lon="-1.597660">
        <time>2017-06-24T07:31:57Z</time>
      </trkpt>
      <trkpt lat="43.421510" lon="-1.597660">
        <time>2017-06-24T07:31:58Z</time>
      </trkpt>
      <trkpt lat="43.421510" lon="-1.597660">
        <time>2017-06-24T07:31:59Z</time>
      </trkpt>
      <trkpt lat="43.421510" lon="-1.597660">
        <time>2017-06-24T07:32:00Z</time>
      </trkpt>
      <trkpt lat="43.421510" lon="-1.597660">
        <time>2017-06-24T07:32:01Z</time>
      </trkpt>
      <trkpt lat="43.421510" lon="-1.597660">
        <time>2017-06-24T07:32:02Z</time>
      </trkpt>
      <trkpt lat="43.421510" lon="-1.597660">
        <time>2017-06-24T07:32:03Z</time>
      </trkpt>
      <trkpt lat="43.421510" lon="-1.597660">
        <time>2017-06-24T07:32:04Z</time>
      </trkpt>
      <trkpt lat="43.421510" lon="-1.597660">
        <time>2017-06-24T07:32:05Z</time>
      </trkpt>
      <trkpt lat="43.421510" lon="-1.597660">
        <time>2017-06-24T07:32:06Z</time>
      </trkpt>
      <trkpt lat="43.421510" lon="-1.597660">
        <time>2017-06-24T07:32:07Z</time>
      </trkpt>
      <trkpt lat="43.421510" lon="-1.597660">
        <time>2017-06-24T07:32:08Z</time>
      </trkpt>
      <trkpt lat="43.421510" lon="-1.597660">
        <time>2017-06-24T07:32:09Z</time>
      </trkpt>
      <trkpt lat="43.421510" lon="-1.597660">
        <time>2017-06-24T07:32:10Z</time>
      </trkpt>
      <trkpt lat="43.421510" lon="-1.597660">
        <time>2017-06-24T07:32:11Z</time>
      </trkpt>
      <trkpt lat="43.421510" lon="-1.597660">
        <time>2017-06-24T07:32:12Z</time>
      </trkpt>
      <trkpt lat="43.421510" lon="-1.597660">
        <time>2017-06-24T07:32:13Z</time>
      </trkpt>
      <trkpt lat="43.421510" lon="-1.597660">
        <time>2017-06-24T07:32:14Z</time>
      </trkpt>
      <trkpt lat="43.421510" lon="-1.597660">
        <time>2017-06-24T07:32:15Z</time>
      </trkpt>
      <trkpt lat="43.421510" lon="-1.597660">
        <time>2017-06-24T07:32:16Z</time>
      </trkpt>
      <trkpt lat="43.421510" lon="-1.597660">
        <time>2017-06-24T07:32:17Z</time>
      </trkpt>
      <trkpt lat="43.421510" lon="-1.597660">
        <time>2017-06-24T07:32:18Z</time>
      </trkpt>
      <trkpt lat="43.421510" lon="-1.597660">
        <time>2017-06-24T07:32:19Z</time>
      </trkpt>
      <trkpt lat="43.421510" lon="-1.597660">
        <time>2017-06-24T07:32:20Z</time>
      </trkpt>
      <trkpt lat="43.421510" lon="-1.597660">
        <time>2017-06-24T07:32:21Z</time>
      </trkpt>
      <trkpt lat="43.421510" lon="-1.597660">
        <time>2017-06-24T07:32:22Z</time>
      </trkpt>
      <trkpt lat="43.421510" lon="-1.597660">
        <time>2017-06-24T07:32:23Z</time>
      </trkpt>
      <trkpt lat="43.421510" lon="-1.597660">
        <time>2017-06-24T07:32:24Z</time>
      </trkpt>
      <trkpt lat="43.421510" lon="-1.597660">
        <time>2017-06-24T07:32:25Z</time>
      </trkpt>
      <trkpt lat="43.421510" lon="-1.597660">
        <time>2017-06-24T07:32:26Z</time>
      </trkpt>
      <trkpt lat="43.421510" lon="-1.597660">
        <time>2017-06-24T07:32:27Z</time>
      </trkpt>
      <trkpt lat="43.421510" lon="-1.597660">
        <time>2017-06-24T07:32:28Z</time>
      </trkpt>
      <trkpt lat="43.421510" lon="-1.597660">
        <time>2017-06-24T07:32:29Z</time>
      </trkpt>
      <trkpt lat="43.421510" lon="-1.597660">
        <time>2017-06-24T07:32:30Z</time>
      </trkpt>
      <trkpt lat="43.421510" lon="-1.597660">
        <time>2017-06-24T07:32:31Z</time>
      </trkpt>
      <trkpt lat="43.421510" lon="-1.597660">
        <time>2017-06-24T07:32:32Z</time>
      </trkpt>
      <trkpt lat="43.421510" lon="-1.597660">
        <time>2017-06-24T07:32:33Z</time>
      </trkpt>
      <trkpt lat="43.421510" lon="-1.597660">
        <time>2017-06-24T07:32:34Z</time>
      </trkpt>
      <trkpt lat="43.421510" lon="-1.597660">
        <time>2017-06-24T07:32:35Z</time>
      </trkpt>
      <trkpt lat="43.421510" lon="-1.597660">
        <time>2017-06-24T07:32:36Z</time>
      </trkpt>
      <trkpt lat="43.421510" lon="-1.597660">
        <time>2017-06-24T07:32:37Z</time>
      </trkpt>
      <trkpt lat="43.421510" lon="-1.597660">
        <time>2017-06-24T07:32:38Z</time>
      </trkpt>
      <trkpt lat="43.421510" lon="-1.597660">
        <time>2017-06-24T07:32:39Z</time>
      </trkpt>
      <trkpt lat="43.421510" lon="-1.597660">
        <time>2017-06-24T07:32:40Z</time>
      </trkpt>
      <trkpt lat="43.421510" lon="-1.597660">
        <time>2017-06-24T07:32:41Z</time>
      </trkpt>
      <trkpt lat="43.421510" lon="-1.597660">
        <time>2017-06-24T07:32:42Z</time>
      </trkpt>
      <trkpt lat="43.421510" lon="-1.597660">
        <time>2017-06-24T07:32:43Z</time>
      </trkpt>
      <trkpt lat="43.421510" lon="-1.597660">
        <time>2017-06-24T07:32:44Z</time>
      </trkpt>
      <trkpt lat="43.421510" lon="-1.597660">
        <time>2017-06-24T07:32:45Z</time>
      </trkpt>
      <trkpt lat="43.421510" lon="-1.597660">
        <time>2017-06-24T07:32:46Z</time>
      </trkpt>
      <trkpt lat="43.421510" lon="-1.597660">
        <time>2017-06-24T07:32:47Z</time>
      </trkpt>
      <trkpt lat="43.421510" lon="-1.597660">
        <time>2017-06-24T07:32:48Z</time>
      </trkpt>
      <trkpt lat="43.421510" lon="-1.597660">
        <time>2017-06-24T07:32:49Z</time>
      </trkpt>
      <trkpt lat="43.421510" lon="-1.597660">
        <time>2017-06-24T07:32:50Z</time>
      </trkpt>
      <trkpt lat="43.421510" lon="-1.597660">
        <time>2017-06-24T07:32:51Z</time>
      </trkpt>
      <trkpt lat="43.421510" lon="-1.597660">
        <time>2017-06-24T07:32:52Z</time>
      </trkpt>
      <trkpt lat="43.421510" lon="-1.597660">
        <time>2017-06-24T07:32:53Z</time>
      </trkpt>
      <trkpt lat="43.421510" lon="-1.597660">
        <time>2017-06-24T07:32:54Z</time>
      </trkpt>
      <trkpt lat="43.421510" lon="-1.597660">
        <time>2017-06-24T07:32:55Z</time>
      </trkpt>
      <trkpt lat="43.421510" lon="-1.597660">
        <time>2017-06-24T07:32:56Z</time>
      </trkpt>
      <trkpt lat="43.421510" lon="-1.597660">
        <time>2017-06-24T07:32:57Z</time>
      </trkpt>
      <trkpt lat="43.421510" lon="-1.597660">
        <time>2017-06-24T07:32:58Z</time>
      </trkpt>
      <trkpt lat="43.421510" lon="-1.597660">
        <time>2017-06-24T07:32:59Z</time>
      </trkpt>
      <trkpt lat="43.421510" lon="-1.597660">
        <time>2017-06-24T07:33:00Z</time>
      </trkpt>
      <trkpt lat="43.421510" lon="-1.597660">
        <time>2017-06-24T07:33:01Z</time>
      </trkpt>
      <trkpt lat="43.421510" lon="-1.597660">
        <time>2017-06-24T07:33:02Z</time>
      </trkpt>
      <trkpt lat="43.421510" lon="-1.597660">
        <time>2017-06-24T07:33:03Z</time>
      </trkpt>
      <trkpt lat="43.421510" lon="-1.597660">
        <time>2017-06-24T07:33:04Z</time>
      </trkpt>
      <trkpt lat="43.421510" lon="-1.597660">
        <time>2017-06-24T07:33:05Z</time>
      </trkpt>
      <trkpt lat="43.421510" lon="-1.597660">
        <time>2017-06-24T07:33:06Z</time>
      </trkpt>
      <trkpt lat="43.421510" lon="-1.597660">
        <time>2017-06-24T07:33:07Z</time>
      </trkpt>
      <trkpt lat="43.421510" lon="-1.597660">
        <time>2017-06-24T07:33:08Z</time>
      </trkpt>
      <trkpt lat="43.421510" lon="-1.597660">
        <time>2017-06-24T07:33:09Z</time>
      </trkpt>
      <trkpt lat="43.421510" lon="-1.597660">
        <time>2017-06-24T07:33:10Z</time>
      </trkpt>
      <trkpt lat="43.421510" lon="-1.597660">
        <time>2017-06-24T07:33:11Z</time>
      </trkpt>
      <trkpt lat="43.421510" lon="-1.597660">
        <time>2017-06-24T07:33:12Z</time>
      </trkpt>
      <trkpt lat="43.421510" lon="-1.597660">
        <time>2017-06-24T07:33:13Z</time>
      </trkpt>
      <trkpt lat="43.421510" lon="-1.597660">
        <time>2017-06-24T07:33:14Z</time>
      </trkpt>
      <trkpt lat="43.421510" lon="-1.597660">
        <time>2017-06-24T07:33:15Z</time>
      </trkpt>
      <trkpt lat="43.421510" lon="-1.597660">
        <time>2017-06-24T07:33:16Z</time>
      </trkpt>
      <trkpt lat="43.421510" lon="-1.597660">
        <time>2017-06-24T07:33:17Z</time>
      </trkpt>
      <trkpt lat="43.421510" lon="-1.597660">
        <time>2017-06-24T07:33:18Z</time>
      </trkpt>
      <trkpt lat="43.421510" lon="-1.597660">
        <time>2017-06-24T07:33:19Z</time>
      </trkpt>
      <trkpt lat="43.421510" lon="-1.597660">
        <time>2017-06-24T07:33:20Z</time>
      </trkpt>
      <trkpt lat="43.421510" lon="-1.597660">
        <time>2017-06-24T07:33:21Z</time>
      </trkpt>
      <trkpt lat="43.421510" lon="-1.597660">
        <time>2017-06-24T07:33:22Z</time>
      </trkpt>
      <trkpt lat="43.421510" lon="-1.597660">
        <time>2017-06-24T07:33:23Z</time>
      </trkpt>
      <trkpt lat="43.421510" lon="-1.597660">
        <time>2017-06-24T07:33:24Z</time>
      </trkpt>
      <trkpt lat="43.421510" lon="-1.597660">
        <time>2017-06-24T07:33:25Z</time>
      </trkpt>
      <trkpt lat="43.421510" lon="-1.597660">
        <time>2017-06-24T07:33:26Z</time>
      </trkpt>
      <trkpt lat="43.421510" lon="-1.597660">
        <time>2017-06-24T07:33:27Z</time>
      </trkpt>
      <trkpt lat="43.421510" lon="-1.597660">
        <time>2017-06-24T07:33:28Z</time>
      </trkpt>
      <trkpt lat="43.421510" lon="-1.597660">
        <time>2017-06-24T07:33:29Z</time>
      </trkpt>
      <trkpt lat="43.421510" lon="-1.597660">
        <time>2017-06-24T07:33:30Z</time>
      </trkpt>
      <trkpt lat="43.421510" lon="-1.597660">
        <time>2017-06-24T07:33:31Z</time>
      </trkpt>
      <trkpt lat="43.421510" lon="-1.597660">
        <time>2017-06-24T07:33:32Z</time>
      </trkpt>
      <trkpt lat="43.421510" lon="-1.597660">
        <time>2017-06-24T07:33:33Z</time>
      </trkpt>
      <trkpt lat="43.421510" lon="-1.597660">
        <time>2017-06-24T07:33:34Z</time>
      </trkpt>
      <trkpt lat="43.421510" lon="-1.597660">
        <time>2017-06-24T07:33:35Z</time>
      </trkpt>
      <trkpt lat="43.421510" lon="-1.597660">
        <time>2017-06-24T07:33:36Z</time>
      </trkpt>
      <trkpt lat="43.421510" lon="-1.597660">
        <time>2017-06-24T07:33:37Z</time>
      </trkpt>
      <trkpt lat="43.421510" lon="-1.597660">
        <time>2017-06-24T07:33:38Z</time>
      </trkpt>
      <trkpt lat="43.421510" lon="-1.597660">
        <time>2017-06-24T07:33:39Z</time>
      </trkpt>
      <trkpt lat="43.421510" lon="-1.597660">
        <time>2017-06-24T07:33:40Z</time>
      </trkpt>
      <trkpt lat="43.421510" lon="-1.597660">
        <time>2017-06-24T07:33:41Z</time>
      </trkpt>
      <trkpt lat="43.421510" lon="-1.597660">
        <time>2017-06-24T07:33:42Z</time>
      </trkpt>
      <trkpt lat="43.421510" lon="-1.597660">
        <time>2017-06-24T07:33:43Z</time>
      </trkpt>
      <trkpt lat="43.421510" lon="-1.597660">
        <time>2017-06-24T07:33:44Z</time>
      </trkpt>
      <trkpt lat="43.421510" lon="-1.597660">
        <time>2017-06-24T07:33:45Z</time>
      </trkpt>
      <trkpt lat="43.421510" lon="-1.597660">
        <time>2017-06-24T07:33:46Z</time>
      </trkpt>
      <trkpt lat="43.421510" lon="-1.597660">
        <time>2017-06-24T07:33:47Z</time>
      </trkpt>
      <trkpt lat="43.421510" lon="-1.597660">
        <time>2017-06-24T07:33:48Z</time>
      </trkpt>
      <trkpt lat="43.421510" lon="-1.597660">
        <time>2017-06-24T07:33:49Z</time>
      </trkpt>
      <trkpt lat="43.421510" lon="-1.597660">
        <time>2017-06-24T07:33:50Z</time>
      </trkpt>
      <trkpt lat="43.421510" lon="-1.597660">
        <time>2017-06-24T07:33:51Z</time>
      </trkpt>
      <trkpt lat="43.421510" lon="-1.597660">
        <time>2017-06-24T07:33:52Z</time>
      </trkpt>
      <trkpt lat="43.421510" lon="-1.597660">
        <time>2017-06-24T07:33:53Z</time>
      </trkpt>
      <trkpt lat="43.421510" lon="-1.597660">
        <time>2017-06-24T07:33:54Z</time>
      </trkpt>
      <trkpt lat="43.421510" lon="-1.597660">
        <time>2017-06-24T07:33:55Z</time>
      </trkpt>
      <trkpt lat="43.421510" lon="-1.597660">
        <time>2017-06-24T07:33:56Z</time>
      </trkpt>
      <trkpt lat="43.421510" lon="-1.597660">
        <time>2017-06-24T07:33:57Z</time>
      </trkpt>
      <trkpt lat="43.421510" lon="-1.597660">
        <time>2017-06-24T07:33:58Z</time>
      </trkpt>
      <trkpt lat="43.421510" lon="-1.597660">
        <time>2017-06-24T07:33:59Z</time>
      </trkpt>
      <trkpt lat="43.421510" lon="-1.597660">
        <time>2017-06-24T07:34:00Z</time>
      </trkpt>
      <trkpt lat="43.421510" lon="-1.597660">
        <time>2017-06-24T07:34:01Z</time>
      </trkpt>
      <trkpt lat="43.421510" lon="-1.597660">
        <time>2017-06-24T07:34:02Z</time>
      </trkpt>
      <trkpt lat="43.421510" lon="-1.597660">
        <time>2017-06-24T07:34:03Z</time>
      </trkpt>
      <trkpt lat="43.421510" lon="-1.597660">
        <time>2017-06-24T07:34:04Z</time>
      </trkpt>
      <trkpt lat="43.421510" lon="-1.597660">
        <time>2017-06-24T07:34:05Z</time>
      </trkpt>
      <trkpt lat="43.421510" lon="-1.597660">
        <time>2017-06-24T07:34:06Z</time>
      </trkpt>
      <trkpt lat="43.421510" lon="-1.597660">
        <time>2017-06-24T07:34:07Z</time>
      </trkpt>
      <trkpt lat="43.421510" lon="-1.597660">
        <time>2017-06-24T07:34:08Z</time>
      </trkpt>
      <trkpt lat="43.421510" lon="-1.597660">
        <time>2017-06-24T07:34:09Z</time>
      </trkpt>
      <trkpt lat="43.421510" lon="-1.597660">
        <time>2017-06-24T07:34:10Z</time>
      </trkpt>
      <trkpt lat="43.421510" lon="-1.597660">
        <time>2017-06-24T07:34:11Z</time>
      </trkpt>
      <trkpt lat="43.421510" lon="-1.597660">
        <time>2017-06-24T07:34:12Z</time>
      </trkpt>
      <trkpt lat="43.421510" lon="-1.597660">
        <time>2017-06-24T07:34:13Z</time>
      </trkpt>
      <trkpt lat="43.421510" lon="-1.597660">
        <time>2017-06-24T07:34:14Z</time>
      </trkpt>
      <trkpt lat="43.421510" lon="-1.597660">
        <time>2017-06-24T07:34:15Z</time>
      </trkpt>
      <trkpt lat="43.421510" lon="-1.597660">
        <time>2017-06-24T07:34:16Z</time>
      </trkpt>
      <trkpt lat="43.421510" lon="-1.597660">
        <time>2017-06-24T07:34:17Z</time>
      </trkpt>
      <trkpt lat="43.421510" lon="-1.597660">
        <time>2017-06-24T07:34:18Z</time>
      </trkpt>
      <trkpt lat="43.421510" lon="-1.597660">
        <time>2017-06-24T07:34:19Z</time>
      </trkpt>
      <trkpt lat="43.421510" lon="-1.597660">
        <time>2017-06-24T07:34:20Z</time>
      </trkpt>
      <trkpt lat="43.421510" lon="-1.597660">
        <time>2017-06-24T07:34:21Z</time>
      </trkpt>
      <trkpt lat="43.421510" lon="-1.597660">
        <time>2017-06-24T07:34:22Z</time>
      </trkpt>
      <trkpt lat="43.421510" lon="-1.597660">
        <time>2017-06-24T07:34:23Z</time>
      </trkpt>
      <trkpt lat="43.421510" lon="-1.597660">
        <time>2017-06-24T07:34:24Z</time>
      </trkpt>
      <trkpt lat="43.421510" lon="-1.597660">
        <time>2017-06-24T07:34:25Z</time>
      </trkpt>
      <trkpt lat="43.421510" lon="-1.597660">
        <time>2017-06-24T07:34:26Z</time>
      </trkpt>
      <trkpt lat="43.421510" lon="-1.597660">
        <time>2017-06-24T07:34:27Z</time>
      </trkpt>
      <trkpt lat="43.421510" lon="-1.597660">
        <time>2017-06-24T07:34:28Z</time>
      </trkpt>
      <trkpt lat="43.421510" lon="-1.597660">
        <time>2017-06-24T07:34:29Z</time>
      </trkpt>
      <trkpt lat="43.421510" lon="-1.597660">
        <time>2017-06-24T07:34:30Z</time>
      </trkpt>
      <trkpt lat="43.421510" lon="-1.597660">
        <time>2017-06-24T07:34:31Z</time>
      </trkpt>
      <trkpt lat="43.421510" lon="-1.597660">
        <time>2017-06-24T07:34:32Z</time>
      </trkpt>
      <trkpt lat="43.421510" lon="-1.597660">
        <time>2017-06-24T07:34:33Z</time>
      </trkpt>
      <trkpt lat="43.421510" lon="-1.597660">
        <time>2017-06-24T07:34:34Z</time>
      </trkpt>
      <trkpt lat="43.421510" lon="-1.597660">
        <time>2017-06-24T07:34:35Z</time>
      </trkpt>
      <trkpt lat="43.421510" lon="-1.597660">
        <time>2017-06-24T07:34:36Z</time>
      </trkpt>
      <trkpt lat="43.421510" lon="-1.597660">
        <time>2017-06-24T07:34:37Z</time>
      </trkpt>
      <trkpt lat="43.421510" lon="-1.597660">
        <time>2017-06-24T07:34:38Z</time>
      </trkpt>
      <trkpt lat="43.421510" lon="-1.597660">
        <time>2017-06-24T07:34:39Z</time>
      </trkpt>
      <trkpt lat="43.421510" lon="-1.597660">
        <time>2017-06-24T07:34:40Z</time>
      </trkpt>
      <trkpt lat="43.421510" lon="-1.597660">
        <time>2017-06-24T07:34:41Z</time>
      </trkpt>
      <trkpt lat="43.421510" lon="-1.597660">
        <time>2017-06-24T07:34:42Z</time>
      </trkpt>
      <trkpt lat="43.421510" lon="-1.597660">
        <time>2017-06-24T07:34:43Z</time>
      </trkpt>
      <trkpt lat="43.421510" lon="-1.597660">
        <time>2017-06-24T07:34:44Z</time>
      </trkpt>
      <trkpt lat="43.421510" lon="-1.597660">
        <time>2017-06-24T07:34:45Z</time>
      </trkpt>
      <trkpt lat="43.421510" lon="-1.597660">
        <time>2017-06-24T07:34:46Z</time>
      </trkpt>
      <trkpt lat="43.421510" lon="-1.597660">
        <time>2017-06-24T07:34:47Z</time>
      </trkpt>
      <trkpt lat="43.421510" lon="-1.597660">
        <time>2017-06-24T07:34:48Z</time>
      </trkpt>
      <trkpt lat="43.421510" lon="-1.597660">
        <time>2017-06-24T07:34:49Z</time>
      </trkpt>
      <trkpt lat="43.421510" lon="-1.597660">
        <time>2017-06-24T07:34:50Z</time>
      </trkpt>
      <trkpt lat="43.421510" lon="-1.597660">
        <time>2017-06-24T07:34:51Z</time>
      </trkpt>
      <trkpt lat="43.421510" lon="-1.597660">
        <time>2017-06-24T07:34:52Z</time>
      </trkpt>
      <trkpt lat="43.421510" lon="-1.597660">
        <time>2017-06-24T07:34:53Z</time>
      </trkpt>
      <trkpt lat="43.421510" lon="-1.597660">
        <time>2017-06-24T07:34:54Z</time>
      </trkpt>
      <trkpt lat="43.421510" lon="-1.597660">
        <time>2017-06-24T07:34:55Z</time>
      </trkpt>
      <trkpt lat="43.421510" lon="-1.597660">
        <time>2017-06-24T07:34:56Z</time>
      </trkpt>
      <trkpt lat="43.421510" lon="-1.597660">
        <time>2017-06-24T07:34:57Z</time>
      </trkpt>
      <trkpt lat="43.421520" lon="-1.597660">
        <time>2017-06-24T07:34:58Z</time>
      </trkpt>
      <trkpt lat="43.421520" lon="-1.597660">
        <time>2017-06-24T07:34:59Z</time>
      </trkpt>
      <trkpt lat="43.421520" lon="-1.597660">
        <time>2017-06-24T07:35:00Z</time>
      </trkpt>
      <trkpt lat="43.421520" lon="-1.597660">
        <time>2017-06-24T07:35:01Z</time>
      </trkpt>
      <trkpt lat="43.421520" lon="-1.597660">
        <time>2017-06-24T07:35:02Z</time>
      </trkpt>
      <trkpt lat="43.421520" lon="-1.597660">
        <time>2017-06-24T07:35:03Z</time>
      </trkpt>
      <trkpt lat="43.421530" lon="-1.597650">
        <time>2017-06-24T07:35:04Z</time>
      </trkpt>
      <trkpt lat="43.421540" lon="-1.597640">
        <time>2017-06-24T07:35:05Z</time>
      </trkpt>
      <trkpt lat="43.421550" lon="-1.597600">
        <time>2017-06-24T07:35:06Z</time>
      </trkpt>
      <trkpt lat="43.421570" lon="-1.597560">
        <time>2017-06-24T07:35:07Z</time>
      </trkpt>
      <trkpt lat="43.421570" lon="-1.597460">
        <time>2017-06-24T07:35:08Z</time>
      </trkpt>
      <trkpt lat="43.421570" lon="-1.597400">
        <time>2017-06-24T07:35:09Z</time>
      </trkpt>
      <trkpt lat="43.421590" lon="-1.597340">
        <time>2017-06-24T07:35:10Z</time>
      </trkpt>
      <trkpt lat="43.421600" lon="-1.597290">
        <time>2017-06-24T07:35:11Z</time>
      </trkpt>
      <trkpt lat="43.421630" lon="-1.597250">
        <time>2017-06-24T07:35:12Z</time>
      </trkpt>
      <trkpt lat="43.421660" lon="-1.597220">
        <time>2017-06-24T07:35:13Z</time>
      </trkpt>
      <trkpt lat="43.421700" lon="-1.597190">
        <time>2017-06-24T07:35:14Z</time>
      </trkpt>
      <trkpt lat="43.421740" lon="-1.597140">
        <time>2017-06-24T07:35:15Z</time>
      </trkpt>
      <trkpt lat="43.421770" lon="-1.597090">
        <time>2017-06-24T07:35:16Z</time>
      </trkpt>
      <trkpt lat="43.421800" lon="-1.597040">
        <time>2017-06-24T07:35:17Z</time>
      </trkpt>
      <trkpt lat="43.421840" lon="-1.596980">
        <time>2017-06-24T07:35:18Z</time>
      </trkpt>
      <trkpt lat="43.421870" lon="-1.596930">
        <time>2017-06-24T07:35:19Z</time>
      </trkpt>
      <trkpt lat="43.421910" lon="-1.596890">
        <time>2017-06-24T07:35:20Z</time>
      </trkpt>
      <trkpt lat="43.421940" lon="-1.596850">
        <time>2017-06-24T07:35:21Z</time>
      </trkpt>
      <trkpt lat="43.421980" lon="-1.596810">
        <time>2017-06-24T07:35:22Z</time>
      </trkpt>
      <trkpt lat="43.422010" lon="-1.596770">
        <time>2017-06-24T07:35:23Z</time>
      </trkpt>
      <trkpt lat="43.422040" lon="-1.596720">
        <time>2017-06-24T07:35:24Z</time>
      </trkpt>
      <trkpt lat="43.422070" lon="-1.596670">
        <time>2017-06-24T07:35:25Z</time>
      </trkpt>
      <trkpt lat="43.422100" lon="-1.596630">
        <time>2017-06-24T07:35:26Z</time>
      </trkpt>
      <trkpt lat="43.422130" lon="-1.596580">
        <time>2017-06-24T07:35:27Z</time>
      </trkpt>
      <trkpt lat="43.422160" lon="-1.596550">
        <time>2017-06-24T07:35:28Z</time>
      </trkpt>
      <trkpt lat="43.422200" lon="-1.596520">
        <time>2017-06-24T07:35:29Z</time>
      </trkpt>
      <trkpt lat="43.422240" lon="-1.596520">
        <time>2017-06-24T07:35:30Z</time>
      </trkpt>
      <trkpt lat="43.422300" lon="-1.596520">
        <time>2017-06-24T07:35:31Z</time>
      </trkpt>
      <trkpt lat="43.422370" lon="-1.596540">
        <time>2017-06-24T07:35:32Z</time>
      </trkpt>
      <trkpt lat="43.422440" lon="-1.596550">
        <time>2017-06-24T07:35:33Z</time>
      </trkpt>
      <trkpt lat="43.422500" lon="-1.596560">
        <time>2017-06-24T07:35:34Z</time>
      </trkpt>
      <trkpt lat="43.422580" lon="-1.596580">
        <time>2017-06-24T07:35:35Z</time>
      </trkpt>
      <trkpt lat="43.422650" lon="-1.596600">
        <time>2017-06-24T07:35:36Z</time>
      </trkpt>
      <trkpt lat="43.422720" lon="-1.596620">
        <time>2017-06-24T07:35:37Z</time>
      </trkpt>
      <trkpt lat="43.422790" lon="-1.596640">
        <time>2017-06-24T07:35:38Z</time>
      </trkpt>
      <trkpt lat="43.422840" lon="-1.596670">
        <time>2017-06-24T07:35:39Z</time>
      </trkpt>
      <trkpt lat="43.422900" lon="-1.596690">
        <time>2017-06-24T07:35:40Z</time>
      </trkpt>
      <trkpt lat="43.422950" lon="-1.596690">
        <time>2017-06-24T07:35:41Z</time>
      </trkpt>
      <trkpt lat="43.423000" lon="-1.596670">
        <time>2017-06-24T07:35:42Z</time>
      </trkpt>
      <trkpt lat="43.423050" lon="-1.596610">
        <time>2017-06-24T07:35:43Z</time>
      </trkpt>
      <trkpt lat="43.423120" lon="-1.596520">
        <time>2017-06-24T07:35:44Z</time>
      </trkpt>
      <trkpt lat="43.423200" lon="-1.596420">
        <time>2017-06-24T07:35:45Z</time>
      </trkpt>
      <trkpt lat="43.423290" lon="-1.596310">
        <time>2017-06-24T07:35:46Z</time>
      </trkpt>
      <trkpt lat="43.423380" lon="-1.596190">
        <time>2017-06-24T07:35:47Z</time>
      </trkpt>
      <trkpt lat="43.423480" lon="-1.596060">
        <time>2017-06-24T07:35:48Z</time>
      </trkpt>
      <trkpt lat="43.423570" lon="-1.595930">
        <time>2017-06-24T07:35:49Z</time>
      </trkpt>
      <trkpt lat="43.423680" lon="-1.595780">
        <time>2017-06-24T07:35:50Z</time>
      </trkpt>
      <trkpt lat="43.423800" lon="-1.595600">
        <time>2017-06-24T07:35:51Z</time>
      </trkpt>
      <trkpt lat="43.423900" lon="-1.595450">
        <time>2017-06-24T07:35:52Z</time>
      </trkpt>
      <trkpt lat="43.424010" lon="-1.595280">
        <time>2017-06-24T07:35:53Z</time>
      </trkpt>
      <trkpt lat="43.424130" lon="-1.595090">
        <time>2017-06-24T07:35:54Z</time>
      </trkpt>
      <trkpt lat="43.424240" lon="-1.594920">
        <time>2017-06-24T07:35:55Z</time>
      </trkpt>
      <trkpt lat="43.424370" lon="-1.594720">
        <time>2017-06-24T07:35:56Z</time>
      </trkpt>
      <trkpt lat="43.424480" lon="-1.594550">
        <time>2017-06-24T07:35:57Z</time>
      </trkpt>
      <trkpt lat="43.424600" lon="-1.594350">
        <time>2017-06-24T07:35:58Z</time>
      </trkpt>
      <trkpt lat="43.424730" lon="-1.594140">
        <time>2017-06-24T07:35:59Z</time>
      </trkpt>
      <trkpt lat="43.424840" lon="-1.593930">
        <time>2017-06-24T07:36:00Z</time>
      </trkpt>
      <trkpt lat="43.424960" lon="-1.593700">
        <time>2017-06-24T07:36:01Z</time>
      </trkpt>
      <trkpt lat="43.425090" lon="-1.593460">
        <time>2017-06-24T07:36:02Z</time>
      </trkpt>
      <trkpt lat="43.425220" lon="-1.593220">
        <time>2017-06-24T07:36:03Z</time>
      </trkpt>
      <trkpt lat="43.425360" lon="-1.592970">
        <time>2017-06-24T07:36:04Z</time>
      </trkpt>
      <trkpt lat="43.425470" lon="-1.592740">
        <time>2017-06-24T07:36:05Z</time>
      </trkpt>
      <trkpt lat="43.425600" lon="-1.592500">
        <time>2017-06-24T07:36:06Z</time>
      </trkpt>
      <trkpt lat="43.425740" lon="-1.592230">
        <time>2017-06-24T07:36:07Z</time>
      </trkpt>
      <trkpt lat="43.425860" lon="-1.591990">
        <time>2017-06-24T07:36:08Z</time>
      </trkpt>
      <trkpt lat="43.426000" lon="-1.591730">
        <time>2017-06-24T07:36:09Z</time>
      </trkpt>
      <trkpt lat="43.426150" lon="-1.591450">
        <time>2017-06-24T07:36:10Z</time>
      </trkpt>
      <trkpt lat="43.426270" lon="-1.591190">
        <time>2017-06-24T07:36:11Z</time>
      </trkpt>
      <trkpt lat="43.426420" lon="-1.590910">
        <time>2017-06-24T07:36:12Z</time>
      </trkpt>
      <trkpt lat="43.426560" lon="-1.590650">
        <time>2017-06-24T07:36:13Z</time>
      </trkpt>
      <trkpt lat="43.426700" lon="-1.590380">
        <time>2017-06-24T07:36:14Z</time>
      </trkpt>
      <trkpt lat="43.426850" lon="-1.590090">
        <time>2017-06-24T07:36:15Z</time>
      </trkpt>
      <trkpt lat="43.426990" lon="-1.589850">
        <time>2017-06-24T07:36:16Z</time>
      </trkpt>
      <trkpt lat="43.427150" lon="-1.589590">
        <time>2017-06-24T07:36:17Z</time>
      </trkpt>
      <trkpt lat="43.427300" lon="-1.589340">
        <time>2017-06-24T07:36:18Z</time>
      </trkpt>
      <trkpt lat="43.427470" lon="-1.589090">
        <time>2017-06-24T07:36:19Z</time>
      </trkpt>
      <trkpt lat="43.427650" lon="-1.588830">
        <time>2017-06-24T07:36:20Z</time>
      </trkpt>
      <trkpt lat="43.427820" lon="-1.588600">
        <time>2017-06-24T07:36:21Z</time>
      </trkpt>
      <trkpt lat="43.427990" lon="-1.588360">
        <time>2017-06-24T07:36:22Z</time>
      </trkpt>
      <trkpt lat="43.428180" lon="-1.588100">
        <time>2017-06-24T07:36:23Z</time>
      </trkpt>
      <trkpt lat="43.428340" lon="-1.587880">
        <time>2017-06-24T07:36:24Z</time>
      </trkpt>
      <trkpt lat="43.428520" lon="-1.587640">
        <time>2017-06-24T07:36:25Z</time>
      </trkpt>
      <trkpt lat="43.428690" lon="-1.587380">
        <time>2017-06-24T07:36:26Z</time>
      </trkpt>
      <trkpt lat="43.428850" lon="-1.587150">
        <time>2017-06-24T07:36:27Z</time>
      </trkpt>
      <trkpt lat="43.429020" lon="-1.586880">
        <time>2017-06-24T07:36:28Z</time>
      </trkpt>
      <trkpt lat="43.429170" lon="-1.586640">
        <time>2017-06-24T07:36:29Z</time>
      </trkpt>
      <trkpt lat="43.429330" lon="-1.586380">
        <time>2017-06-24T07:36:30Z</time>
      </trkpt>
      <trkpt lat="43.429480" lon="-1.586090">
        <time>2017-06-24T07:36:31Z</time>
      </trkpt>
      <trkpt lat="43.429610" lon="-1.585830">
        <time>2017-06-24T07:36:32Z</time>
      </trkpt>
      <trkpt lat="43.429750" lon="-1.585550">
        <time>2017-06-24T07:36:33Z</time>
      </trkpt>
      <trkpt lat="43.429870" lon="-1.585250">
        <time>2017-06-24T07:36:34Z</time>
      </trkpt>
      <trkpt lat="43.430000" lon="-1.584960">
        <time>2017-06-24T07:36:35Z</time>
      </trkpt>
      <trkpt lat="43.430120" lon="-1.584640">
        <time>2017-06-24T07:36:36Z</time>
      </trkpt>
      <trkpt lat="43.430230" lon="-1.584360">
        <time>2017-06-24T07:36:37Z</time>
      </trkpt>
      <trkpt lat="43.430340" lon="-1.584050">
        <time>2017-06-24T07:36:38Z</time>
      </trkpt>
      <trkpt lat="43.430440" lon="-1.583720">
        <time>2017-06-24T07:36:39Z</time>
      </trkpt>
      <trkpt lat="43.430520" lon="-1.583430">
        <time>2017-06-24T07:36:40Z</time>
      </trkpt>
      <trkpt lat="43.430600" lon="-1.583120">
        <time>2017-06-24T07:36:41Z</time>
      </trkpt>
      <trkpt lat="43.430680" lon="-1.582780">
        <time>2017-06-24T07:36:42Z</time>
      </trkpt>
      <trkpt lat="43.430750" lon="-1.582490">
        <time>2017-06-24T07:36:43Z</time>
      </trkpt>
      <trkpt lat="43.430830" lon="-1.582160">
        <time>2017-06-24T07:36:44Z</time>
      </trkpt>
      <trkpt lat="43.430910" lon="-1.581880">
        <time>2017-06-24T07:36:45Z</time>
      </trkpt>
      <trkpt lat="43.430990" lon="-1.581570">
        <time>2017-06-24T07:36:46Z</time>
      </trkpt>
      <trkpt lat="43.431080" lon="-1.581240">
        <time>2017-06-24T07:36:47Z</time>
      </trkpt>
      <trkpt lat="43.431150" lon="-1.580960">
        <time>2017-06-24T07:36:48Z</time>
      </trkpt>
      <trkpt lat="43.431220" lon="-1.580650">
        <time>2017-06-24T07:36:49Z</time>
      </trkpt>
      <trkpt lat="43.431300" lon="-1.580340">
        <time>2017-06-24T07:36:50Z</time>
      </trkpt>
      <trkpt lat="43.431380" lon="-1.580020">
        <time>2017-06-24T07:36:51Z</time>
      </trkpt>
      <trkpt lat="43.431460" lon="-1.579690">
        <time>2017-06-24T07:36:52Z</time>
      </trkpt>
      <trkpt lat="43.431540" lon="-1.579400">
        <time>2017-06-24T07:36:53Z</time>
      </trkpt>
      <trkpt lat="43.431620" lon="-1.579090">
        <time>2017-06-24T07:36:54Z</time>
      </trkpt>
      <trkpt lat="43.431700" lon="-1.578760">
        <time>2017-06-24T07:36:55Z</time>
      </trkpt>
      <trkpt lat="43.431780" lon="-1.578470">
        <time>2017-06-24T07:36:56Z</time>
      </trkpt>
      <trkpt lat="43.431870" lon="-1.578160">
        <time>2017-06-24T07:36:57Z</time>
      </trkpt>
      <trkpt lat="43.431970" lon="-1.577840">
        <time>2017-06-24T07:36:58Z</time>
      </trkpt>
      <trkpt lat="43.432060" lon="-1.577560">
        <time>2017-06-24T07:36:59Z</time>
      </trkpt>
      <trkpt lat="43.432170" lon="-1.577240">
        <time>2017-06-24T07:37:00Z</time>
      </trkpt>
      <trkpt lat="43.432270" lon="-1.576960">
        <time>2017-06-24T07:37:01Z</time>
      </trkpt>
      <trkpt lat="43.432390" lon="-1.576660">
        <time>2017-06-24T07:37:02Z</time>
      </trkpt>
      <trkpt lat="43.432520" lon="-1.576350">
        <time>2017-06-24T07:37:03Z</time>
      </trkpt>
      <trkpt lat="43.432640" lon="-1.576080">
        <time>2017-06-24T07:37:04Z</time>
      </trkpt>
      <trkpt lat="43.432780" lon="-1.575790">
        <time>2017-06-24T07:37:05Z</time>
      </trkpt>
      <trkpt lat="43.432930" lon="-1.575510">
        <time>2017-06-24T07:37:06Z</time>
      </trkpt>
      <trkpt lat="43.433080" lon="-1.575240">
        <time>2017-06-24T07:37:07Z</time>
      </trkpt>
      <trkpt lat="43.433250" lon="-1.574960">
        <time>2017-06-24T07:37:08Z</time>
      </trkpt>
      <trkpt lat="43.433400" lon="-1.574710">
        <time>2017-06-24T07:37:09Z</time>
      </trkpt>
      <trkpt lat="43.433570" lon="-1.574460">
        <time>2017-06-24T07:37:10Z</time>
      </trkpt>
      <trkpt lat="43.433760" lon="-1.574190">
        <time>2017-06-24T07:37:11Z</time>
      </trkpt>
      <trkpt lat="43.433920" lon="-1.573970">
        <time>2017-06-24T07:37:12Z</time>
      </trkpt>
      <trkpt lat="43.434110" lon="-1.573730">
        <time>2017-06-24T07:37:13Z</time>
      </trkpt>
      <trkpt lat="43.434310" lon="-1.573510">
        <time>2017-06-24T07:37:14Z</time>
      </trkpt>
      <trkpt lat="43.434500" lon="-1.573310">
        <time>2017-06-24T07:37:15Z</time>
      </trkpt>
      <trkpt lat="43.434720" lon="-1.573090">
        <time>2017-06-24T07:37:16Z</time>
      </trkpt>
      <trkpt lat="43.434920" lon="-1.572910">
        <time>2017-06-24T07:37:17Z</time>
      </trkpt>
      <trkpt lat="43.435130" lon="-1.572720">
        <time>2017-06-24T07:37:18Z</time>
      </trkpt>
      <trkpt lat="43.435350" lon="-1.572530">
        <time>2017-06-24T07:37:19Z</time>
      </trkpt>
      <trkpt lat="43.435560" lon="-1.572370">
        <time>2017-06-24T07:37:20Z</time>
      </trkpt>
      <trkpt lat="43.435780" lon="-1.572210">
        <time>2017-06-24T07:37:21Z</time>
      </trkpt>
      <trkpt lat="43.436000" lon="-1.572050">
        <time>2017-06-24T07:37:22Z</time>
      </trkpt>
      <trkpt lat="43.436210" lon="-1.571900">
        <time>2017-06-24T07:37:23Z</time>
      </trkpt>
      <trkpt lat="43.436450" lon="-1.571750">
        <time>2017-06-24T07:37:24Z</time>
      </trkpt>
      <trkpt lat="43.436660" lon="-1.571610">
        <time>2017-06-24T07:37:25Z</time>
      </trkpt>
      <trkpt lat="43.436880" lon="-1.571460">
        <time>2017-06-24T07:37:26Z</time>
      </trkpt>
      <trkpt lat="43.437110" lon="-1.571300">
        <time>2017-06-24T07:37:27Z</time>
      </trkpt>
      <trkpt lat="43.437320" lon="-1.571150">
        <time>2017-06-24T07:37:28Z</time>
      </trkpt>
      <trkpt lat="43.437530" lon="-1.570980">
        <time>2017-06-24T07:37:29Z</time>
      </trkpt>
      <trkpt lat="43.437760" lon="-1.570800">
        <time>2017-06-24T07:37:30Z</time>
      </trkpt>
      <trkpt lat="43.437950" lon="-1.570630">
        <time>2017-06-24T07:37:31Z</time>
      </trkpt>
      <trkpt lat="43.438180" lon="-1.570430">
        <time>2017-06-24T07:37:32Z</time>
      </trkpt>
      <trkpt lat="43.438360" lon="-1.570250">
        <time>2017-06-24T07:37:33Z</time>
      </trkpt>
      <trkpt lat="43.438560" lon="-1.570050">
        <time>2017-06-24T07:37:34Z</time>
      </trkpt>
      <trkpt lat="43.438770" lon="-1.569820">
        <time>2017-06-24T07:37:35Z</time>
      </trkpt>
      <trkpt lat="43.438960" lon="-1.569630">
        <time>2017-06-24T07:37:36Z</time>
      </trkpt>
      <trkpt lat="43.439150" lon="-1.569420">
        <time>2017-06-24T07:37:37Z</time>
      </trkpt>
      <trkpt lat="43.439350" lon="-1.569220">
        <time>2017-06-24T07:37:38Z</time>
      </trkpt>
      <trkpt lat="43.439550" lon="-1.569010">
        <time>2017-06-24T07:37:39Z</time>
      </trkpt>
      <trkpt lat="43.439770" lon="-1.568800">
        <time>2017-06-24T07:37:40Z</time>
      </trkpt>
      <trkpt lat="43.439960" lon="-1.568610">
        <time>2017-06-24T07:37:41Z</time>
      </trkpt>
      <trkpt lat="43.440160" lon="-1.568430">
        <time>2017-06-24T07:37:42Z</time>
      </trkpt>
      <trkpt lat="43.440380" lon="-1.568220">
        <time>2017-06-24T07:37:43Z</time>
      </trkpt>
      <trkpt lat="43.440590" lon="-1.568060">
        <time>2017-06-24T07:37:44Z</time>
      </trkpt>
      <trkpt lat="43.440800" lon="-1.567900">
        <time>2017-06-24T07:37:45Z</time>
      </trkpt>
      <trkpt lat="43.441030" lon="-1.567730">
        <time>2017-06-24T07:37:46Z</time>
      </trkpt>
      <trkpt lat="43.441240" lon="-1.567590">
        <time>2017-06-24T07:37:47Z</time>
      </trkpt>
      <trkpt lat="43.441480" lon="-1.567440">
        <time>2017-06-24T07:37:48Z</time>
      </trkpt>
      <trkpt lat="43.441690" lon="-1.567320">
        <time>2017-06-24T07:37:49Z</time>
      </trkpt>
      <trkpt lat="43.441920" lon="-1.567210">
        <time>2017-06-24T07:37:50Z</time>
      </trkpt>
      <trkpt lat="43.442160" lon="-1.567090">
        <time>2017-06-24T07:37:51Z</time>
      </trkpt>
      <trkpt lat="43.442370" lon="-1.566980">
        <time>2017-06-24T07:37:52Z</time>
      </trkpt>
      <trkpt lat="43.442600" lon="-1.566880">
        <time>2017-06-24T07:37:53Z</time>
      </trkpt>
      <trkpt lat="43.442820" lon="-1.566780">
        <time>2017-06-24T07:37:54Z</time>
      </trkpt>
      <trkpt lat="43.443040" lon="-1.566680">
        <time>2017-06-24T07:37:55Z</time>
      </trkpt>
      <trkpt lat="43.443280" lon="-1.566570">
        <time>2017-06-24T07:37:56Z</time>
      </trkpt>
      <trkpt lat="43.443490" lon="-1.566460">
        <time>2017-06-24T07:37:57Z</time>
      </trkpt>
      <trkpt lat="43.443700" lon="-1.566330">
        <time>2017-06-24T07:37:58Z</time>
      </trkpt>
      <trkpt lat="43.443930" lon="-1.566190">
        <time>2017-06-24T07:37:59Z</time>
      </trkpt>
      <trkpt lat="43.444130" lon="-1.566060">
        <time>2017-06-24T07:38:00Z</time>
      </trkpt>
      <trkpt lat="43.444340" lon="-1.565910">
        <time>2017-06-24T07:38:01Z</time>
      </trkpt>
      <trkpt lat="43.444570" lon="-1.565750">
        <time>2017-06-24T07:38:02Z</time>
      </trkpt>
      <trkpt lat="43.444760" lon="-1.565600">
        <time>2017-06-24T07:38:03Z</time>
      </trkpt>
      <trkpt lat="43.444970" lon="-1.565410">
        <time>2017-06-24T07:38:04Z</time>
      </trkpt>
      <trkpt lat="43.445160" lon="-1.565250">
        <time>2017-06-24T07:38:05Z</time>
      </trkpt>
      <trkpt lat="43.445350" lon="-1.565070">
        <time>2017-06-24T07:38:06Z</time>
      </trkpt>
      <trkpt lat="43.445560" lon="-1.564870">
        <time>2017-06-24T07:38:07Z</time>
      </trkpt>
      <trkpt lat="43.445740" lon="-1.564680">
        <time>2017-06-24T07:38:08Z</time>
      </trkpt>
      <trkpt lat="43.445930" lon="-1.564480">
        <time>2017-06-24T07:38:09Z</time>
      </trkpt>
      <trkpt lat="43.446110" lon="-1.564270">
        <time>2017-06-24T07:38:10Z</time>
      </trkpt>
      <trkpt lat="43.446290" lon="-1.564050">
        <time>2017-06-24T07:38:11Z</time>
      </trkpt>
      <trkpt lat="43.446480" lon="-1.563810">
        <time>2017-06-24T07:38:12Z</time>
      </trkpt>
      <trkpt lat="43.446640" lon="-1.563580">
        <time>2017-06-24T07:38:13Z</time>
      </trkpt>
      <trkpt lat="43.446800" lon="-1.563340">
        <time>2017-06-24T07:38:14Z</time>
      </trkpt>
      <trkpt lat="43.446970" lon="-1.563070">
        <time>2017-06-24T07:38:15Z</time>
      </trkpt>
      <trkpt lat="43.447110" lon="-1.562830">
        <time>2017-06-24T07:38:16Z</time>
      </trkpt>
      <trkpt lat="43.447260" lon="-1.562570">
        <time>2017-06-24T07:38:17Z</time>
      </trkpt>
      <trkpt lat="43.447410" lon="-1.562280">
        <time>2017-06-24T07:38:18Z</time>
      </trkpt>
      <trkpt lat="43.447540" lon="-1.562020">
        <time>2017-06-24T07:38:19Z</time>
      </trkpt>
      <trkpt lat="43.447670" lon="-1.561730">
        <time>2017-06-24T07:38:20Z</time>
      </trkpt>
      <trkpt lat="43.447770" lon="-1.561470">
        <time>2017-06-24T07:38:21Z</time>
      </trkpt>
      <trkpt lat="43.447880" lon="-1.561180">
        <time>2017-06-24T07:38:22Z</time>
      </trkpt>
      <trkpt lat="43.447990" lon="-1.560880">
        <time>2017-06-24T07:38:23Z</time>
      </trkpt>
      <trkpt lat="43.448080" lon="-1.560610">
        <time>2017-06-24T07:38:24Z</time>
      </trkpt>
      <trkpt lat="43.448160" lon="-1.560310">
        <time>2017-06-24T07:38:25Z</time>
      </trkpt>
      <trkpt lat="43.448250" lon="-1.560020">
        <time>2017-06-24T07:38:26Z</time>
      </trkpt>
      <trkpt lat="43.448330" lon="-1.559720">
        <time>2017-06-24T07:38:27Z</time>
      </trkpt>
      <trkpt lat="43.448400" lon="-1.559410">
        <time>2017-06-24T07:38:28Z</time>
      </trkpt>
      <trkpt lat="43.448460" lon="-1.559130">
        <time>2017-06-24T07:38:29Z</time>
      </trkpt>
      <trkpt lat="43.448520" lon="-1.558830">
        <time>2017-06-24T07:38:30Z</time>
      </trkpt>
      <trkpt lat="43.448570" lon="-1.558500">
        <time>2017-06-24T07:38:31Z</time>
      </trkpt>
      <trkpt lat="43.448610" lon="-1.558210">
        <time>2017-06-24T07:38:32Z</time>
      </trkpt>
      <trkpt lat="43.448640" lon="-1.557890">
        <time>2017-06-24T07:38:33Z</time>
      </trkpt>
      <trkpt lat="43.448670" lon="-1.557570">
        <time>2017-06-24T07:38:34Z</time>
      </trkpt>
      <trkpt lat="43.448700" lon="-1.557280">
        <time>2017-06-24T07:38:35Z</time>
      </trkpt>
      <trkpt lat="43.448720" lon="-1.556940">
        <time>2017-06-24T07:38:36Z</time>
      </trkpt>
      <trkpt lat="43.448730" lon="-1.556670">
        <time>2017-06-24T07:38:37Z</time>
      </trkpt>
      <trkpt lat="43.448750" lon="-1.556390">
        <time>2017-06-24T07:38:38Z</time>
      </trkpt>
      <trkpt lat="43.448750" lon="-1.556120">
        <time>2017-06-24T07:38:39Z</time>
      </trkpt>
      <trkpt lat="43.448750" lon="-1.555880">
        <time>2017-06-24T07:38:40Z</time>
      </trkpt>
      <trkpt lat="43.448740" lon="-1.555650">
        <time>2017-06-24T07:38:41Z</time>
      </trkpt>
      <trkpt lat="43.448720" lon="-1.555430">
        <time>2017-06-24T07:38:42Z</time>
      </trkpt>
      <trkpt lat="43.448690" lon="-1.555220">
        <time>2017-06-24T07:38:43Z</time>
      </trkpt>
      <trkpt lat="43.448660" lon="-1.555020">
        <time>2017-06-24T07:38:44Z</time>
      </trkpt>
      <trkpt lat="43.448630" lon="-1.554860">
        <time>2017-06-24T07:38:45Z</time>
      </trkpt>
      <trkpt lat="43.448590" lon="-1.554690">
        <time>2017-06-24T07:38:46Z</time>
      </trkpt>
      <trkpt lat="43.448550" lon="-1.554520">
        <time>2017-06-24T07:38:47Z</time>
      </trkpt>
      <trkpt lat="43.448520" lon="-1.554390">
        <time>2017-06-24T07:38:48Z</time>
      </trkpt>
      <trkpt lat="43.448500" lon="-1.554250">
        <time>2017-06-24T07:38:49Z</time>
      </trkpt>
      <trkpt lat="43.448470" lon="-1.554110">
        <time>2017-06-24T07:38:50Z</time>
      </trkpt>
      <trkpt lat="43.448450" lon="-1.553990">
        <time>2017-06-24T07:38:51Z</time>
      </trkpt>
      <trkpt lat="43.448420" lon="-1.553860">
        <time>2017-06-24T07:38:52Z</time>
      </trkpt>
      <trkpt lat="43.448410" lon="-1.553770">
        <time>2017-06-24T07:38:53Z</time>
      </trkpt>
      <trkpt lat="43.448400" lon="-1.553700">
        <time>2017-06-24T07:38:54Z</time>
      </trkpt>
      <trkpt lat="43.448380" lon="-1.553640">
        <time>2017-06-24T07:38:55Z</time>
      </trkpt>
      <trkpt lat="43.448370" lon="-1.553600">
        <time>2017-06-24T07:38:56Z</time>
      </trkpt>
      <trkpt lat="43.448340" lon="-1.553570">
        <time>2017-06-24T07:38:57Z</time>
      </trkpt>
      <trkpt lat="43.448330" lon="-1.553510">
        <time>2017-06-24T07:38:58Z</time>
      </trkpt>
      <trkpt lat="43.448330" lon="-1.553440">
        <time>2017-06-24T07:38:59Z</time>
      </trkpt>
      <trkpt lat="43.448310" lon="-1.553380">
        <time>2017-06-24T07:39:00Z</time>
      </trkpt>
      <trkpt lat="43.448320" lon="-1.553380">
        <time>2017-06-24T07:39:01Z</time>
      </trkpt>
      <trkpt lat="43.448330" lon="-1.553380">
        <time>2017-06-24T07:39:02Z</time>
      </trkpt>
      <trkpt lat="43.448330" lon="-1.553370">
        <time>2017-06-24T07:39:03Z</time>
      </trkpt>
      <trkpt lat="43.448330" lon="-1.553380">
        <time>2017-06-24T07:39:04Z</time>
      </trkpt>
      <trkpt lat="43.448330" lon="-1.553380">
        <time>2017-06-24T07:39:05Z</time>
      </trkpt>
      <trkpt lat="43.448330" lon="-1.553380">
        <time>2017-06-24T07:39:06Z</time>
      </trkpt>
      <trkpt lat="43.448330" lon="-1.553380">
        <time>2017-06-24T07:39:07Z</time>
      </trkpt>
      <trkpt lat="43.448330" lon="-1.553380">
        <time>2017-06-24T07:39:08Z</time>
      </trkpt>
      <trkpt lat="43.448330" lon="-1.553380">
        <time>2017-06-24T07:39:09Z</time>
      </trkpt>
      <trkpt lat="43.448340" lon="-1.553390">
        <time>2017-06-24T07:39:10Z</time>
      </trkpt>
      <trkpt lat="43.448340" lon="-1.553390">
        <time>2017-06-24T07:39:11Z</time>
      </trkpt>
      <trkpt lat="43.448340" lon="-1.553390">
        <time>2017-06-24T07:39:12Z</time>
      </trkpt>
      <trkpt lat="43.448340" lon="-1.553390">
        <time>2017-06-24T07:39:13Z</time>
      </trkpt>
      <trkpt lat="43.448340" lon="-1.553390">
        <time>2017-06-24T07:39:14Z</time>
      </trkpt>
      <trkpt lat="43.448340" lon="-1.553390">
        <time>2017-06-24T07:39:15Z</time>
      </trkpt>
      <trkpt lat="43.448340" lon="-1.553390">
        <time>2017-06-24T07:39:16Z</time>
      </trkpt>
      <trkpt lat="43.448300" lon="-1.553350">
        <time>2017-06-24T07:39:17Z</time>
      </trkpt>
      <trkpt lat="43.448300" lon="-1.553350">
        <time>2017-06-24T07:39:18Z</time>
      </trkpt>
      <trkpt lat="43.448300" lon="-1.553350">
        <time>2017-06-24T07:39:19Z</time>
      </trkpt>
      <trkpt lat="43.448300" lon="-1.553350">
        <time>2017-06-24T07:39:20Z</time>
      </trkpt>
      <trkpt lat="43.448300" lon="-1.553350">
        <time>2017-06-24T07:39:21Z</time>
      </trkpt>
      <trkpt lat="43.448300" lon="-1.553350">
        <time>2017-06-24T07:39:22Z</time>
      </trkpt>
      <trkpt lat="43.448300" lon="-1.553350">
        <time>2017-06-24T07:39:23Z</time>
      </trkpt>
      <trkpt lat="43.448300" lon="-1.553350">
        <time>2017-06-24T07:39:24Z</time>
      </trkpt>
      <trkpt lat="43.448300" lon="-1.553350">
        <time>2017-06-24T07:39:25Z</time>
      </trkpt>
      <trkpt lat="43.448300" lon="-1.553350">
        <time>2017-06-24T07:39:26Z</time>
      </trkpt>
      <trkpt lat="43.448300" lon="-1.553350">
        <time>2017-06-24T07:39:27Z</time>
      </trkpt>
      <trkpt lat="43.448290" lon="-1.553360">
        <time>2017-06-24T07:39:28Z</time>
      </trkpt>
      <trkpt lat="43.448290" lon="-1.553350">
        <time>2017-06-24T07:39:29Z</time>
      </trkpt>
      <trkpt lat="43.448290" lon="-1.553350">
        <time>2017-06-24T07:39:30Z</time>
      </trkpt>
      <trkpt lat="43.448290" lon="-1.553350">
        <time>2017-06-24T07:39:31Z</time>
      </trkpt>
      <trkpt lat="43.448290" lon="-1.553350">
        <time>2017-06-24T07:39:32Z</time>
      </trkpt>
      <trkpt lat="43.448290" lon="-1.553350">
        <time>2017-06-24T07:39:33Z</time>
      </trkpt>
      <trkpt lat="43.448290" lon="-1.553350">
        <time>2017-06-24T07:39:34Z</time>
      </trkpt>
      <trkpt lat="43.448290" lon="-1.553350">
        <time>2017-06-24T07:39:35Z</time>
      </trkpt>
      <trkpt lat="43.448290" lon="-1.553350">
        <time>2017-06-24T07:39:36Z</time>
      </trkpt>
      <trkpt lat="43.448290" lon="-1.553350">
        <time>2017-06-24T07:39:37Z</time>
      </trkpt>
      <trkpt lat="43.448290" lon="-1.553350">
        <time>2017-06-24T07:39:38Z</time>
      </trkpt>
      <trkpt lat="43.448290" lon="-1.553350">
        <time>2017-06-24T07:39:39Z</time>
      </trkpt>
      <trkpt lat="43.448290" lon="-1.553350">
        <time>2017-06-24T07:39:40Z</time>
      </trkpt>
      <trkpt lat="43.448300" lon="-1.553350">
        <time>2017-06-24T07:39:41Z</time>
      </trkpt>
      <trkpt lat="43.448300" lon="-1.553350">
        <time>2017-06-24T07:39:42Z</time>
      </trkpt>
      <trkpt lat="43.448300" lon="-1.553350">
        <time>2017-06-24T07:39:43Z</time>
      </trkpt>
      <trkpt lat="43.448310" lon="-1.553360">
        <time>2017-06-24T07:39:44Z</time>
      </trkpt>
      <trkpt lat="43.448310" lon="-1.553360">
        <time>2017-06-24T07:39:45Z</time>
      </trkpt>
      <trkpt lat="43.448310" lon="-1.553360">
        <time>2017-06-24T07:39:46Z</time>
      </trkpt>
      <trkpt lat="43.448310" lon="-1.553360">
        <time>2017-06-24T07:39:47Z</time>
      </trkpt>
      <trkpt lat="43.448310" lon="-1.553360">
        <time>2017-06-24T07:39:48Z</time>
      </trkpt>
      <trkpt lat="43.448320" lon="-1.553370">
        <time>2017-06-24T07:39:49Z</time>
      </trkpt>
      <trkpt lat="43.448320" lon="-1.553370">
        <time>2017-06-24T07:39:50Z</time>
      </trkpt>
      <trkpt lat="43.448320" lon="-1.553370">
        <time>2017-06-24T07:39:51Z</time>
      </trkpt>
      <trkpt lat="43.448320" lon="-1.553380">
        <time>2017-06-24T07:39:52Z</time>
      </trkpt>
      <trkpt lat="43.448320" lon="-1.553390">
        <time>2017-06-24T07:39:53Z</time>
      </trkpt>
      <trkpt lat="43.448320" lon="-1.553390">
        <time>2017-06-24T07:39:54Z</time>
      </trkpt>
      <trkpt lat="43.448330" lon="-1.553400">
        <time>2017-06-24T07:39:55Z</time>
      </trkpt>
      <trkpt lat="43.448330" lon="-1.553410">
        <time>2017-06-24T07:39:56Z</time>
      </trkpt>
      <trkpt lat="43.448330" lon="-1.553420">
        <time>2017-06-24T07:39:57Z</time>
      </trkpt>
      <trkpt lat="43.448330" lon="-1.553420">
        <time>2017-06-24T07:39:58Z</time>
      </trkpt>
      <trkpt lat="43.448330" lon="-1.553430">
        <time>2017-06-24T07:39:59Z</time>
      </trkpt>
      <trkpt lat="43.448330" lon="-1.553440">
        <time>2017-06-24T07:40:00Z</time>
      </trkpt>
      <trkpt lat="43.448330" lon="-1.553440">
        <time>2017-06-24T07:40:01Z</time>
      </trkpt>
      <trkpt lat="43.448330" lon="-1.553440">
        <time>2017-06-24T07:40:02Z</time>
      </trkpt>
      <trkpt lat="43.448330" lon="-1.553450">
        <time>2017-06-24T07:40:03Z</time>
      </trkpt>
      <trkpt lat="43.448340" lon="-1.553460">
        <time>2017-06-24T07:40:04Z</time>
      </trkpt>
      <trkpt lat="43.448340" lon="-1.553470">
        <time>2017-06-24T07:40:05Z</time>
      </trkpt>
      <trkpt lat="43.448350" lon="-1.553480">
        <time>2017-06-24T07:40:06Z</time>
      </trkpt>
      <trkpt lat="43.448350" lon="-1.553480">
        <time>2017-06-24T07:40:07Z</time>
      </trkpt>
      <trkpt lat="43.448350" lon="-1.553490">
        <time>2017-06-24T07:40:08Z</time>
      </trkpt>
      <trkpt lat="43.448350" lon="-1.553500">
        <time>2017-06-24T07:40:09Z</time>
      </trkpt>
      <trkpt lat="43.448350" lon="-1.553510">
        <time>2017-06-24T07:40:10Z</time>
      </trkpt>
      <trkpt lat="43.448350" lon="-1.553520">
        <time>2017-06-24T07:40:11Z</time>
      </trkpt>
      <trkpt lat="43.448340" lon="-1.553520">
        <time>2017-06-24T07:40:12Z</time>
      </trkpt>
      <trkpt lat="43.448340" lon="-1.553530">
        <time>2017-06-24T07:40:13Z</time>
      </trkpt>
      <trkpt lat="43.448330" lon="-1.553530">
        <time>2017-06-24T07:40:14Z</time>
      </trkpt>
      <trkpt lat="43.448330" lon="-1.553540">
        <time>2017-06-24T07:40:15Z</time>
      </trkpt>
      <trkpt lat="43.448330" lon="-1.553540">
        <time>2017-06-24T07:40:16Z</time>
      </trkpt>
      <trkpt lat="43.448330" lon="-1.553540">
        <time>2017-06-24T07:40:17Z</time>
      </trkpt>
      <trkpt lat="43.448330" lon="-1.553540">
        <time>2017-06-24T07:40:18Z</time>
      </trkpt>
      <trkpt lat="43.448330" lon="-1.553540">
        <time>2017-06-24T07:40:19Z</time>
      </trkpt>
      <trkpt lat="43.448330" lon="-1.553550">
        <time>2017-06-24T07:40:20Z</time>
      </trkpt>
      <trkpt lat="43.448330" lon="-1.553550">
        <time>2017-06-24T07:40:21Z</time>
      </trkpt>
      <trkpt lat="43.448330" lon="-1.553560">
        <time>2017-06-24T07:40:22Z</time>
      </trkpt>
      <trkpt lat="43.448320" lon="-1.553560">
        <time>2017-06-24T07:40:23Z</time>
      </trkpt>
      <trkpt lat="43.448310" lon="-1.553560">
        <time>2017-06-24T07:40:24Z</time>
      </trkpt>
      <trkpt lat="43.448300" lon="-1.553550">
        <time>2017-06-24T07:40:25Z</time>
      </trkpt>
      <trkpt lat="43.448310" lon="-1.553540">
        <time>2017-06-24T07:40:26Z</time>
      </trkpt>
      <trkpt lat="43.448310" lon="-1.553530">
        <time>2017-06-24T07:40:27Z</time>
      </trkpt>
      <trkpt lat="43.448310" lon="-1.553510">
        <time>2017-06-24T07:40:28Z</time>
      </trkpt>
      <trkpt lat="43.448320" lon="-1.553500">
        <time>2017-06-24T07:40:29Z</time>
      </trkpt>
      <trkpt lat="43.448320" lon="-1.553480">
        <time>2017-06-24T07:40:30Z</time>
      </trkpt>
      <trkpt lat="43.448320" lon="-1.553460">
        <time>2017-06-24T07:40:31Z</time>
      </trkpt>
      <trkpt lat="43.448320" lon="-1.553460">
        <time>2017-06-24T07:40:32Z</time>
      </trkpt>
      <trkpt lat="43.448320" lon="-1.553460">
        <time>2017-06-24T07:40:33Z</time>
      </trkpt>
      <trkpt lat="43.448320" lon="-1.553460">
        <time>2017-06-24T07:40:34Z</time>
      </trkpt>
      <trkpt lat="43.448320" lon="-1.553460">
        <time>2017-06-24T07:40:35Z</time>
      </trkpt>
      <trkpt lat="43.448290" lon="-1.553410">
        <time>2017-06-24T07:40:36Z</time>
      </trkpt>
      <trkpt lat="43.448290" lon="-1.553410">
        <time>2017-06-24T07:40:37Z</time>
      </trkpt>
      <trkpt lat="43.448290" lon="-1.553410">
        <time>2017-06-24T07:40:38Z</time>
      </trkpt>
      <trkpt lat="43.448290" lon="-1.553410">
        <time>2017-06-24T07:40:39Z</time>
      </trkpt>
      <trkpt lat="43.448290" lon="-1.553410">
        <time>2017-06-24T07:40:40Z</time>
      </trkpt>
      <trkpt lat="43.448290" lon="-1.553410">
        <time>2017-06-24T07:40:41Z</time>
      </trkpt>
      <trkpt lat="43.448290" lon="-1.553410">
        <time>2017-06-24T07:40:42Z</time>
      </trkpt>
      <trkpt lat="43.448290" lon="-1.553410">
        <time>2017-06-24T07:40:43Z</time>
      </trkpt>
      <trkpt lat="43.448290" lon="-1.553410">
        <time>2017-06-24T07:40:44Z</time>
      </trkpt>
      <trkpt lat="43.448290" lon="-1.553410">
        <time>2017-06-24T07:40:45Z</time>
      </trkpt>
      <trkpt lat="43.448290" lon="-1.553410">
        <time>2017-06-24T07:40:46Z</time>
      </trkpt>
      <trkpt lat="43.448290" lon="-1.553410">
        <time>2017-06-24T07:40:47Z</time>
      </trkpt>
      <trkpt lat="43.448290" lon="-1.553410">
        <time>2017-06-24T07:40:48Z</time>
      </trkpt>
      <trkpt lat="43.448290" lon="-1.553410">
        <time>2017-06-24T07:40:49Z</time>
      </trkpt>
      <trkpt lat="43.448290" lon="-1.553410">
        <time>2017-06-24T07:40:50Z</time>
      </trkpt>
      <trkpt lat="43.448290" lon="-1.553410">
        <time>2017-06-24T07:40:51Z</time>
      </trkpt>
      <trkpt lat="43.448290" lon="-1.553410">
        <time>2017-06-24T07:40:52Z</time>
      </trkpt>
      <trkpt lat="43.448290" lon="-1.553410">
        <time>2017-06-24T07:40:53Z</time>
      </trkpt>
      <trkpt lat="43.448290" lon="-1.553410">
        <time>2017-06-24T07:40:54Z</time>
      </trkpt>
      <trkpt lat="43.448290" lon="-1.553410">
        <time>2017-06-24T07:40:55Z</time>
      </trkpt>
      <trkpt lat="43.448290" lon="-1.553410">
        <time>2017-06-24T07:40:56Z</time>
      </trkpt>
      <trkpt lat="43.448290" lon="-1.553410">
        <time>2017-06-24T07:40:57Z</time>
      </trkpt>
      <trkpt lat="43.448290" lon="-1.553410">
        <time>2017-06-24T07:40:58Z</time>
      </trkpt>
      <trkpt lat="43.448290" lon="-1.553410">
        <time>2017-06-24T07:40:59Z</time>
      </trkpt>
      <trkpt lat="43.448290" lon="-1.553410">
        <time>2017-06-24T07:41:00Z</time>
      </trkpt>
      <trkpt lat="43.448290" lon="-1.553410">
        <time>2017-06-24T07:41:01Z</time>
      </trkpt>
      <trkpt lat="43.448290" lon="-1.553410">
        <time>2017-06-24T07:41:02Z</time>
      </trkpt>
      <trkpt lat="43.448290" lon="-1.553410">
        <time>2017-06-24T07:41:03Z</time>
      </trkpt>
      <trkpt lat="43.448290" lon="-1.553410">
        <time>2017-06-24T07:41:04Z</time>
      </trkpt>
      <trkpt lat="43.448290" lon="-1.553410">
        <time>2017-06-24T07:41:05Z</time>
      </trkpt>
      <trkpt lat="43.448290" lon="-1.553410">
        <time>2017-06-24T07:41:06Z</time>
      </trkpt>
      <trkpt lat="43.448290" lon="-1.553410">
        <time>2017-06-24T07:41:07Z</time>
      </trkpt>
      <trkpt lat="43.448290" lon="-1.553410">
        <time>2017-06-24T07:41:08Z</time>
      </trkpt>
      <trkpt lat="43.448290" lon="-1.553400">
        <time>2017-06-24T07:41:09Z</time>
      </trkpt>
      <trkpt lat="43.448290" lon="-1.553390">
        <time>2017-06-24T07:41:10Z</time>
      </trkpt>
      <trkpt lat="43.448280" lon="-1.553380">
        <time>2017-06-24T07:41:11Z</time>
      </trkpt>
      <trkpt lat="43.448280" lon="-1.553370">
        <time>2017-06-24T07:41:12Z</time>
      </trkpt>
      <trkpt lat="43.448280" lon="-1.553350">
        <time>2017-06-24T07:41:13Z</time>
      </trkpt>
      <trkpt lat="43.448280" lon="-1.553310">
        <time>2017-06-24T07:41:14Z</time>
      </trkpt>
      <trkpt lat="43.448270" lon="-1.553250">
        <time>2017-06-24T07:41:15Z</time>
      </trkpt>
      <trkpt lat="43.448270" lon="-1.553180">
        <time>2017-06-24T07:41:16Z</time>
      </trkpt>
      <trkpt lat="43.448270" lon="-1.553050">
        <time>2017-06-24T07:41:17Z</time>
      </trkpt>
      <trkpt lat="43.448270" lon="-1.552950">
        <time>2017-06-24T07:41:18Z</time>
      </trkpt>
      <trkpt lat="43.448280" lon="-1.552830">
        <time>2017-06-24T07:41:19Z</time>
      </trkpt>
      <trkpt lat="43.448290" lon="-1.552720">
        <time>2017-06-24T07:41:20Z</time>
      </trkpt>
      <trkpt lat="43.448290" lon="-1.552600">
        <time>2017-06-24T07:41:21Z</time>
      </trkpt>
      <trkpt lat="43.448300" lon="-1.552470">
        <time>2017-06-24T07:41:22Z</time>
      </trkpt>
      <trkpt lat="43.448310" lon="-1.552350">
        <time>2017-06-24T07:41:23Z</time>
      </trkpt>
      <trkpt lat="43.448310" lon="-1.552240">
        <time>2017-06-24T07:41:24Z</time>
      </trkpt>
      <trkpt lat="43.448320" lon="-1.552120">
        <time>2017-06-24T07:41:25Z</time>
      </trkpt>
      <trkpt lat="43.448320" lon="-1.551980">
        <time>2017-06-24T07:41:26Z</time>
      </trkpt>
      <trkpt lat="43.448320" lon="-1.551810">
        <time>2017-06-24T07:41:27Z</time>
      </trkpt>
      <trkpt lat="43.448320" lon="-1.551650">
        <time>2017-06-24T07:41:28Z</time>
      </trkpt>
      <trkpt lat="43.448320" lon="-1.551470">
        <time>2017-06-24T07:41:29Z</time>
      </trkpt>
      <trkpt lat="43.448300" lon="-1.551270">
        <time>2017-06-24T07:41:30Z</time>
      </trkpt>
      <trkpt lat="43.448290" lon="-1.551080">
        <time>2017-06-24T07:41:31Z</time>
      </trkpt>
      <trkpt lat="43.448270" lon="-1.550860">
        <time>2017-06-24T07:41:32Z</time>
      </trkpt>
      <trkpt lat="43.448250" lon="-1.550640">
        <time>2017-06-24T07:41:33Z</time>
      </trkpt>
      <trkpt lat="43.448220" lon="-1.550390">
        <time>2017-06-24T07:41:34Z</time>
      </trkpt>
      <trkpt lat="43.448190" lon="-1.550100">
        <time>2017-06-24T07:41:35Z</time>
      </trkpt>
      <trkpt lat="43.448140" lon="-1.549830">
        <time>2017-06-24T07:41:36Z</time>
      </trkpt>
      <trkpt lat="43.448100" lon="-1.549560">
        <time>2017-06-24T07:41:37Z</time>
      </trkpt>
      <trkpt lat="43.448050" lon="-1.549260">
        <time>2017-06-24T07:41:38Z</time>
      </trkpt>
      <trkpt lat="43.448000" lon="-1.548970">
        <time>2017-06-24T07:41:39Z</time>
      </trkpt>
      <trkpt lat="43.447940" lon="-1.548660">
        <time>2017-06-24T07:41:40Z</time>
      </trkpt>
      <trkpt lat="43.447890" lon="-1.548400">
        <time>2017-06-24T07:41:41Z</time>
      </trkpt>
      <trkpt lat="43.447850" lon="-1.548120">
        <time>2017-06-24T07:41:42Z</time>
      </trkpt>
      <trkpt lat="43.447790" lon="-1.547800">
        <time>2017-06-24T07:41:43Z</time>
      </trkpt>
      <trkpt lat="43.447740" lon="-1.547510">
        <time>2017-06-24T07:41:44Z</time>
      </trkpt>
      <trkpt lat="43.447690" lon="-1.547180">
        <time>2017-06-24T07:41:45Z</time>
      </trkpt>
      <trkpt lat="43.447620" lon="-1.546820">
        <time>2017-06-24T07:41:46Z</time>
      </trkpt>
      <trkpt lat="43.447570" lon="-1.546510">
        <time>2017-06-24T07:41:47Z</time>
      </trkpt>
      <trkpt lat="43.447490" lon="-1.546130">
        <time>2017-06-24T07:41:48Z</time>
      </trkpt>
      <trkpt lat="43.447430" lon="-1.545800">
        <time>2017-06-24T07:41:49Z</time>
      </trkpt>
      <trkpt lat="43.447370" lon="-1.545470">
        <time>2017-06-24T07:41:50Z</time>
      </trkpt>
      <trkpt lat="43.447300" lon="-1.545100">
        <time>2017-06-24T07:41:51Z</time>
      </trkpt>
      <trkpt lat="43.447250" lon="-1.544770">
        <time>2017-06-24T07:41:52Z</time>
      </trkpt>
      <trkpt lat="43.447200" lon="-1.544420">
        <time>2017-06-24T07:41:53Z</time>
      </trkpt>
      <trkpt lat="43.447150" lon="-1.544050">
        <time>2017-06-24T07:41:54Z</time>
      </trkpt>
      <trkpt lat="43.447110" lon="-1.543680">
        <time>2017-06-24T07:41:55Z</time>
      </trkpt>
      <trkpt lat="43.447080" lon="-1.543280">
        <time>2017-06-24T07:41:56Z</time>
      </trkpt>
      <trkpt lat="43.447060" lon="-1.542930">
        <time>2017-06-24T07:41:57Z</time>
      </trkpt>
      <trkpt lat="43.447050" lon="-1.542550">
        <time>2017-06-24T07:41:58Z</time>
      </trkpt>
      <trkpt lat="43.447050" lon="-1.542140">
        <time>2017-06-24T07:41:59Z</time>
      </trkpt>
      <trkpt lat="43.447060" lon="-1.541790">
        <time>2017-06-24T07:42:00Z</time>
      </trkpt>
      <trkpt lat="43.447080" lon="-1.541410">
        <time>2017-06-24T07:42:01Z</time>
      </trkpt>
      <trkpt lat="43.447120" lon="-1.541020">
        <time>2017-06-24T07:42:02Z</time>
      </trkpt>
      <trkpt lat="43.447170" lon="-1.540670">
        <time>2017-06-24T07:42:03Z</time>
      </trkpt>
      <trkpt lat="43.447230" lon="-1.540280">
        <time>2017-06-24T07:42:04Z</time>
      </trkpt>
      <trkpt lat="43.447290" lon="-1.539950">
        <time>2017-06-24T07:42:05Z</time>
      </trkpt>
      <trkpt lat="43.447370" lon="-1.539600">
        <time>2017-06-24T07:42:06Z</time>
      </trkpt>
      <trkpt lat="43.447460" lon="-1.539230">
        <time>2017-06-24T07:42:07Z</time>
      </trkpt>
      <trkpt lat="43.447550" lon="-1.538920">
        <time>2017-06-24T07:42:08Z</time>
      </trkpt>
      <trkpt lat="43.447650" lon="-1.538580">
        <time>2017-06-24T07:42:09Z</time>
      </trkpt>
      <trkpt lat="43.447760" lon="-1.538260">
        <time>2017-06-24T07:42:10Z</time>
      </trkpt>
      <trkpt lat="43.447880" lon="-1.537940">
        <time>2017-06-24T07:42:11Z</time>
      </trkpt>
      <trkpt lat="43.448020" lon="-1.537610">
        <time>2017-06-24T07:42:12Z</time>
      </trkpt>
      <trkpt lat="43.448150" lon="-1.537320">
        <time>2017-06-24T07:42:13Z</time>
      </trkpt>
      <trkpt lat="43.448290" lon="-1.537020">
        <time>2017-06-24T07:42:14Z</time>
      </trkpt>
      <trkpt lat="43.448460" lon="-1.536710">
        <time>2017-06-24T07:42:15Z</time>
      </trkpt>
      <trkpt lat="43.448610" lon="-1.536460">
        <time>2017-06-24T07:42:16Z</time>
      </trkpt>
      <trkpt lat="43.448780" lon="-1.536190">
        <time>2017-06-24T07:42:17Z</time>
      </trkpt>
      <trkpt lat="43.448960" lon="-1.535920">
        <time>2017-06-24T07:42:18Z</time>
      </trkpt>
      <trkpt lat="43.449130" lon="-1.535690">
        <time>2017-06-24T07:42:19Z</time>
      </trkpt>
      <trkpt lat="43.449330" lon="-1.535430">
        <time>2017-06-24T07:42:20Z</time>
      </trkpt>
      <trkpt lat="43.449520" lon="-1.535210">
        <time>2017-06-24T07:42:21Z</time>
      </trkpt>
      <trkpt lat="43.449730" lon="-1.534980">
        <time>2017-06-24T07:42:22Z</time>
      </trkpt>
      <trkpt lat="43.449950" lon="-1.534740">
        <time>2017-06-24T07:42:23Z</time>
      </trkpt>
      <trkpt lat="43.450150" lon="-1.534530">
        <time>2017-06-24T07:42:24Z</time>
      </trkpt>
      <trkpt lat="43.450360" lon="-1.534300">
        <time>2017-06-24T07:42:25Z</time>
      </trkpt>
      <trkpt lat="43.450570" lon="-1.534070">
        <time>2017-06-24T07:42:26Z</time>
      </trkpt>
      <trkpt lat="43.450780" lon="-1.533830">
        <time>2017-06-24T07:42:27Z</time>
      </trkpt>
      <trkpt lat="43.451010" lon="-1.533580">
        <time>2017-06-24T07:42:28Z</time>
      </trkpt>
      <trkpt lat="43.451210" lon="-1.533360">
        <time>2017-06-24T07:42:29Z</time>
      </trkpt>
      <trkpt lat="43.451420" lon="-1.533110">
        <time>2017-06-24T07:42:30Z</time>
      </trkpt>
      <trkpt lat="43.451640" lon="-1.532850">
        <time>2017-06-24T07:42:31Z</time>
      </trkpt>
      <trkpt lat="43.451820" lon="-1.532600">
        <time>2017-06-24T07:42:32Z</time>
      </trkpt>
      <trkpt lat="43.452020" lon="-1.532340">
        <time>2017-06-24T07:42:33Z</time>
      </trkpt>
      <trkpt lat="43.452230" lon="-1.532050">
        <time>2017-06-24T07:42:34Z</time>
      </trkpt>
      <trkpt lat="43.452410" lon="-1.531790">
        <time>2017-06-24T07:42:35Z</time>
      </trkpt>
      <trkpt lat="43.452610" lon="-1.531490">
        <time>2017-06-24T07:42:36Z</time>
      </trkpt>
      <trkpt lat="43.452780" lon="-1.531210">
        <time>2017-06-24T07:42:37Z</time>
      </trkpt>
      <trkpt lat="43.452960" lon="-1.530910">
        <time>2017-06-24T07:42:38Z</time>
      </trkpt>
      <trkpt lat="43.453140" lon="-1.530590">
        <time>2017-06-24T07:42:39Z</time>
      </trkpt>
      <trkpt lat="43.453290" lon="-1.530290">
        <time>2017-06-24T07:42:40Z</time>
      </trkpt>
      <trkpt lat="43.453460" lon="-1.529980">
        <time>2017-06-24T07:42:41Z</time>
      </trkpt>
      <trkpt lat="43.453620" lon="-1.529660">
        <time>2017-06-24T07:42:42Z</time>
      </trkpt>
      <trkpt lat="43.453770" lon="-1.529320">
        <time>2017-06-24T07:42:43Z</time>
      </trkpt>
      <trkpt lat="43.453930" lon="-1.528960">
        <time>2017-06-24T07:42:44Z</time>
      </trkpt>
      <trkpt lat="43.454070" lon="-1.528640">
        <time>2017-06-24T07:42:45Z</time>
      </trkpt>
      <trkpt lat="43.454210" lon="-1.528290">
        <time>2017-06-24T07:42:46Z</time>
      </trkpt>
      <trkpt lat="43.454350" lon="-1.527920">
        <time>2017-06-24T07:42:47Z</time>
      </trkpt>
      <trkpt lat="43.454480" lon="-1.527580">
        <time>2017-06-24T07:42:48Z</time>
      </trkpt>
      <trkpt lat="43.454610" lon="-1.527230">
        <time>2017-06-24T07:42:49Z</time>
      </trkpt>
      <trkpt lat="43.454750" lon="-1.526860">
        <time>2017-06-24T07:42:50Z</time>
      </trkpt>
      <trkpt lat="43.454870" lon="-1.526550">
        <time>2017-06-24T07:42:51Z</time>
      </trkpt>
      <trkpt lat="43.455000" lon="-1.526190">
        <time>2017-06-24T07:42:52Z</time>
      </trkpt>
      <trkpt lat="43.455130" lon="-1.525880">
        <time>2017-06-24T07:42:53Z</time>
      </trkpt>
      <trkpt lat="43.455260" lon="-1.525550">
        <time>2017-06-24T07:42:54Z</time>
      </trkpt>
      <trkpt lat="43.455420" lon="-1.525190">
        <time>2017-06-24T07:42:55Z</time>
      </trkpt>
      <trkpt lat="43.455570" lon="-1.524880">
        <time>2017-06-24T07:42:56Z</time>
      </trkpt>
      <trkpt lat="43.455730" lon="-1.524550">
        <time>2017-06-24T07:42:57Z</time>
      </trkpt>
      <trkpt lat="43.455890" lon="-1.524230">
        <time>2017-06-24T07:42:58Z</time>
      </trkpt>
      <trkpt lat="43.456070" lon="-1.523930">
        <time>2017-06-24T07:42:59Z</time>
      </trkpt>
      <trkpt lat="43.456260" lon="-1.523620">
        <time>2017-06-24T07:43:00Z</time>
      </trkpt>
      <trkpt lat="43.456440" lon="-1.523350">
        <time>2017-06-24T07:43:01Z</time>
      </trkpt>
      <trkpt lat="43.456640" lon="-1.523080">
        <time>2017-06-24T07:43:02Z</time>
      </trkpt>
      <trkpt lat="43.456860" lon="-1.522790">
        <time>2017-06-24T07:43:03Z</time>
      </trkpt>
      <trkpt lat="43.457050" lon="-1.522550">
        <time>2017-06-24T07:43:04Z</time>
      </trkpt>
      <trkpt lat="43.457270" lon="-1.522290">
        <time>2017-06-24T07:43:05Z</time>
      </trkpt>
      <trkpt lat="43.457500" lon="-1.522030">
        <time>2017-06-24T07:43:06Z</time>
      </trkpt>
      <trkpt lat="43.457700" lon="-1.521800">
        <time>2017-06-24T07:43:07Z</time>
      </trkpt>
      <trkpt lat="43.457940" lon="-1.521540">
        <time>2017-06-24T07:43:08Z</time>
      </trkpt>
      <trkpt lat="43.458150" lon="-1.521300">
        <time>2017-06-24T07:43:09Z</time>
      </trkpt>
      <trkpt lat="43.458370" lon="-1.521040">
        <time>2017-06-24T07:43:10Z</time>
      </trkpt>
      <trkpt lat="43.458600" lon="-1.520760">
        <time>2017-06-24T07:43:11Z</time>
      </trkpt>
      <trkpt lat="43.458810" lon="-1.520500">
        <time>2017-06-24T07:43:12Z</time>
      </trkpt>
      <trkpt lat="43.459010" lon="-1.520220">
        <time>2017-06-24T07:43:13Z</time>
      </trkpt>
      <trkpt lat="43.459220" lon="-1.519950">
        <time>2017-06-24T07:43:14Z</time>
      </trkpt>
      <trkpt lat="43.459400" lon="-1.519650">
        <time>2017-06-24T07:43:15Z</time>
      </trkpt>
      <trkpt lat="43.459600" lon="-1.519330">
        <time>2017-06-24T07:43:16Z</time>
      </trkpt>
      <trkpt lat="43.459770" lon="-1.519030">
        <time>2017-06-24T07:43:17Z</time>
      </trkpt>
      <trkpt lat="43.459940" lon="-1.518710">
        <time>2017-06-24T07:43:18Z</time>
      </trkpt>
      <trkpt lat="43.460120" lon="-1.518370">
        <time>2017-06-24T07:43:19Z</time>
      </trkpt>
      <trkpt lat="43.460270" lon="-1.518060">
        <time>2017-06-24T07:43:20Z</time>
      </trkpt>
      <trkpt lat="43.460420" lon="-1.517720">
        <time>2017-06-24T07:43:21Z</time>
      </trkpt>
      <trkpt lat="43.460580" lon="-1.517340">
        <time>2017-06-24T07:43:22Z</time>
      </trkpt>
      <trkpt lat="43.460700" lon="-1.517010">
        <time>2017-06-24T07:43:23Z</time>
      </trkpt>
      <trkpt lat="43.460840" lon="-1.516620">
        <time>2017-06-24T07:43:24Z</time>
      </trkpt>
      <trkpt lat="43.460940" lon="-1.516270">
        <time>2017-06-24T07:43:25Z</time>
      </trkpt>
      <trkpt lat="43.461040" lon="-1.515900">
        <time>2017-06-24T07:43:26Z</time>
      </trkpt>
      <trkpt lat="43.461150" lon="-1.515500">
        <time>2017-06-24T07:43:27Z</time>
      </trkpt>
      <trkpt lat="43.461220" lon="-1.515140">
        <time>2017-06-24T07:43:28Z</time>
      </trkpt>
      <trkpt lat="43.461300" lon="-1.514750">
        <time>2017-06-24T07:43:29Z</time>
      </trkpt>
      <trkpt lat="43.461360" lon="-1.514370">
        <time>2017-06-24T07:43:30Z</time>
      </trkpt>
      <trkpt lat="43.461410" lon="-1.513980">
        <time>2017-06-24T07:43:31Z</time>
      </trkpt>
      <trkpt lat="43.461460" lon="-1.513560">
        <time>2017-06-24T07:43:32Z</time>
      </trkpt>
      <trkpt lat="43.461480" lon="-1.513190">
        <time>2017-06-24T07:43:33Z</time>
      </trkpt>
      <trkpt lat="43.461500" lon="-1.512790">
        <time>2017-06-24T07:43:34Z</time>
      </trkpt>
      <trkpt lat="43.461520" lon="-1.512360">
        <time>2017-06-24T07:43:35Z</time>
      </trkpt>
      <trkpt lat="43.461530" lon="-1.511980">
        <time>2017-06-24T07:43:36Z</time>
      </trkpt>
      <trkpt lat="43.461530" lon="-1.511580">
        <time>2017-06-24T07:43:37Z</time>
      </trkpt>
      <trkpt lat="43.461520" lon="-1.511150">
        <time>2017-06-24T07:43:38Z</time>
      </trkpt>
      <trkpt lat="43.461510" lon="-1.510770">
        <time>2017-06-24T07:43:39Z</time>
      </trkpt>
      <trkpt lat="43.461510" lon="-1.510340">
        <time>2017-06-24T07:43:40Z</time>
      </trkpt>
      <trkpt lat="43.461500" lon="-1.509960">
        <time>2017-06-24T07:43:41Z</time>
      </trkpt>
      <trkpt lat="43.461490" lon="-1.509560">
        <time>2017-06-24T07:43:42Z</time>
      </trkpt>
      <trkpt lat="43.461480" lon="-1.509140">
        <time>2017-06-24T07:43:43Z</time>
      </trkpt>
      <trkpt lat="43.461470" lon="-1.508760">
        <time>2017-06-24T07:43:44Z</time>
      </trkpt>
      <trkpt lat="43.461460" lon="-1.508370">
        <time>2017-06-24T07:43:45Z</time>
      </trkpt>
      <trkpt lat="43.461450" lon="-1.507970">
        <time>2017-06-24T07:43:46Z</time>
      </trkpt>
      <trkpt lat="43.461440" lon="-1.507570">
        <time>2017-06-24T07:43:47Z</time>
      </trkpt>
      <trkpt lat="43.461420" lon="-1.507140">
        <time>2017-06-24T07:43:48Z</time>
      </trkpt>
      <trkpt lat="43.461400" lon="-1.506760">
        <time>2017-06-24T07:43:49Z</time>
      </trkpt>
      <trkpt lat="43.461380" lon="-1.506350">
        <time>2017-06-24T07:43:50Z</time>
      </trkpt>
      <trkpt lat="43.461350" lon="-1.505920">
        <time>2017-06-24T07:43:51Z</time>
      </trkpt>
      <trkpt lat="43.461320" lon="-1.505540">
        <time>2017-06-24T07:43:52Z</time>
      </trkpt>
      <trkpt lat="43.461300" lon="-1.505140">
        <time>2017-06-24T07:43:53Z</time>
      </trkpt>
      <trkpt lat="43.461260" lon="-1.504710">
        <time>2017-06-24T07:43:54Z</time>
      </trkpt>
      <trkpt lat="43.461240" lon="-1.504340">
        <time>2017-06-24T07:43:55Z</time>
      </trkpt>
      <trkpt lat="43.461200" lon="-1.503910">
        <time>2017-06-24T07:43:56Z</time>
      </trkpt>
      <trkpt lat="43.461170" lon="-1.503540">
        <time>2017-06-24T07:43:57Z</time>
      </trkpt>
      <trkpt lat="43.461130" lon="-1.503140">
        <time>2017-06-24T07:43:58Z</time>
      </trkpt>
      <trkpt lat="43.461100" lon="-1.502710">
        <time>2017-06-24T07:43:59Z</time>
      </trkpt>
      <trkpt lat="43.461080" lon="-1.502340">
        <time>2017-06-24T07:44:00Z</time>
      </trkpt>
      <trkpt lat="43.461040" lon="-1.501950">
        <time>2017-06-24T07:44:01Z</time>
      </trkpt>
      <trkpt lat="43.461020" lon="-1.501550">
        <time>2017-06-24T07:44:02Z</time>
      </trkpt>
      <trkpt lat="43.460990" lon="-1.501150">
        <time>2017-06-24T07:44:03Z</time>
      </trkpt>
      <trkpt lat="43.460960" lon="-1.500720">
        <time>2017-06-24T07:44:04Z</time>
      </trkpt>
      <trkpt lat="43.460930" lon="-1.500360">
        <time>2017-06-24T07:44:05Z</time>
      </trkpt>
      <trkpt lat="43.460900" lon="-1.499960">
        <time>2017-06-24T07:44:06Z</time>
      </trkpt>
      <trkpt lat="43.460870" lon="-1.499530">
        <time>2017-06-24T07:44:07Z</time>
      </trkpt>
      <trkpt lat="43.460840" lon="-1.499170">
        <time>2017-06-24T07:44:08Z</time>
      </trkpt>
      <trkpt lat="43.460820" lon="-1.498780">
        <time>2017-06-24T07:44:09Z</time>
      </trkpt>
      <trkpt lat="43.460800" lon="-1.498370">
        <time>2017-06-24T07:44:10Z</time>
      </trkpt>
      <trkpt lat="43.460790" lon="-1.498010">
        <time>2017-06-24T07:44:11Z</time>
      </trkpt>
      <trkpt lat="43.460790" lon="-1.497600">
        <time>2017-06-24T07:44:12Z</time>
      </trkpt>
      <trkpt lat="43.460800" lon="-1.497240">
        <time>2017-06-24T07:44:13Z</time>
      </trkpt>
      <trkpt lat="43.460820" lon="-1.496860">
        <time>2017-06-24T07:44:14Z</time>
      </trkpt>
      <trkpt lat="43.460850" lon="-1.496450">
        <time>2017-06-24T07:44:15Z</time>
      </trkpt>
      <trkpt lat="43.460890" lon="-1.496100">
        <time>2017-06-24T07:44:16Z</time>
      </trkpt>
      <trkpt lat="43.460950" lon="-1.495730">
        <time>2017-06-24T07:44:17Z</time>
      </trkpt>
      <trkpt lat="43.461010" lon="-1.495360">
        <time>2017-06-24T07:44:18Z</time>
      </trkpt>
      <trkpt lat="43.461090" lon="-1.494990">
        <time>2017-06-24T07:44:19Z</time>
      </trkpt>
      <trkpt lat="43.461180" lon="-1.494600">
        <time>2017-06-24T07:44:20Z</time>
      </trkpt>
      <trkpt lat="43.461260" lon="-1.494260">
        <time>2017-06-24T07:44:21Z</time>
      </trkpt>
      <trkpt lat="43.461360" lon="-1.493890">
        <time>2017-06-24T07:44:22Z</time>
      </trkpt>
      <trkpt lat="43.461470" lon="-1.493510">
        <time>2017-06-24T07:44:23Z</time>
      </trkpt>
      <trkpt lat="43.461570" lon="-1.493170">
        <time>2017-06-24T07:44:24Z</time>
      </trkpt>
      <trkpt lat="43.461680" lon="-1.492820">
        <time>2017-06-24T07:44:25Z</time>
      </trkpt>
      <trkpt lat="43.461790" lon="-1.492430">
        <time>2017-06-24T07:44:26Z</time>
      </trkpt>
      <trkpt lat="43.461900" lon="-1.492100">
        <time>2017-06-24T07:44:27Z</time>
      </trkpt>
      <trkpt lat="43.462010" lon="-1.491720">
        <time>2017-06-24T07:44:28Z</time>
      </trkpt>
      <trkpt lat="43.462110" lon="-1.491390">
        <time>2017-06-24T07:44:29Z</time>
      </trkpt>
      <trkpt lat="43.462210" lon="-1.491040">
        <time>2017-06-24T07:44:30Z</time>
      </trkpt>
      <trkpt lat="43.462330" lon="-1.490670">
        <time>2017-06-24T07:44:31Z</time>
      </trkpt>
      <trkpt lat="43.462430" lon="-1.490350">
        <time>2017-06-24T07:44:32Z</time>
      </trkpt>
      <trkpt lat="43.462540" lon="-1.489990">
        <time>2017-06-24T07:44:33Z</time>
      </trkpt>
      <trkpt lat="43.462640" lon="-1.489650">
        <time>2017-06-24T07:44:34Z</time>
      </trkpt>
      <trkpt lat="43.462750" lon="-1.489300">
        <time>2017-06-24T07:44:35Z</time>
      </trkpt>
      <trkpt lat="43.462860" lon="-1.488940">
        <time>2017-06-24T07:44:36Z</time>
      </trkpt>
      <trkpt lat="43.462960" lon="-1.488630">
        <time>2017-06-24T07:44:37Z</time>
      </trkpt>
      <trkpt lat="43.463070" lon="-1.488300">
        <time>2017-06-24T07:44:38Z</time>
      </trkpt>
      <trkpt lat="43.463190" lon="-1.487950">
        <time>2017-06-24T07:44:39Z</time>
      </trkpt>
      <trkpt lat="43.463310" lon="-1.487640">
        <time>2017-06-24T07:44:40Z</time>
      </trkpt>
      <trkpt lat="43.463430" lon="-1.487320">
        <time>2017-06-24T07:44:41Z</time>
      </trkpt>
      <trkpt lat="43.463560" lon="-1.486990">
        <time>2017-06-24T07:44:42Z</time>
      </trkpt>
      <trkpt lat="43.463690" lon="-1.486690">
        <time>2017-06-24T07:44:43Z</time>
      </trkpt>
      <trkpt lat="43.463830" lon="-1.486360">
        <time>2017-06-24T07:44:44Z</time>
      </trkpt>
      <trkpt lat="43.463960" lon="-1.486070">
        <time>2017-06-24T07:44:45Z</time>
      </trkpt>
      <trkpt lat="43.464100" lon="-1.485770">
        <time>2017-06-24T07:44:46Z</time>
      </trkpt>
      <trkpt lat="43.464260" lon="-1.485450">
        <time>2017-06-24T07:44:47Z</time>
      </trkpt>
      <trkpt lat="43.464400" lon="-1.485160">
        <time>2017-06-24T07:44:48Z</time>
      </trkpt>
      <trkpt lat="43.464550" lon="-1.484860">
        <time>2017-06-24T07:44:49Z</time>
      </trkpt>
      <trkpt lat="43.464710" lon="-1.484550">
        <time>2017-06-24T07:44:50Z</time>
      </trkpt>
      <trkpt lat="43.464860" lon="-1.484250">
        <time>2017-06-24T07:44:51Z</time>
      </trkpt>
      <trkpt lat="43.465040" lon="-1.483940">
        <time>2017-06-24T07:44:52Z</time>
      </trkpt>
      <trkpt lat="43.465180" lon="-1.483650">
        <time>2017-06-24T07:44:53Z</time>
      </trkpt>
      <trkpt lat="43.465340" lon="-1.483360">
        <time>2017-06-24T07:44:54Z</time>
      </trkpt>
      <trkpt lat="43.465510" lon="-1.483040">
        <time>2017-06-24T07:44:55Z</time>
      </trkpt>
      <trkpt lat="43.465660" lon="-1.482760">
        <time>2017-06-24T07:44:56Z</time>
      </trkpt>
      <trkpt lat="43.465810" lon="-1.482460">
        <time>2017-06-24T07:44:57Z</time>
      </trkpt>
      <trkpt lat="43.465970" lon="-1.482150">
        <time>2017-06-24T07:44:58Z</time>
      </trkpt>
      <trkpt lat="43.466120" lon="-1.481870">
        <time>2017-06-24T07:44:59Z</time>
      </trkpt>
      <trkpt lat="43.466290" lon="-1.481560">
        <time>2017-06-24T07:45:00Z</time>
      </trkpt>
      <trkpt lat="43.466440" lon="-1.481270">
        <time>2017-06-24T07:45:01Z</time>
      </trkpt>
      <trkpt lat="43.466600" lon="-1.480960">
        <time>2017-06-24T07:45:02Z</time>
      </trkpt>
      <trkpt lat="43.466770" lon="-1.480640">
        <time>2017-06-24T07:45:03Z</time>
      </trkpt>
      <trkpt lat="43.466920" lon="-1.480360">
        <time>2017-06-24T07:45:04Z</time>
      </trkpt>
      <trkpt lat="43.467080" lon="-1.480050">
        <time>2017-06-24T07:45:05Z</time>
      </trkpt>
      <trkpt lat="43.467240" lon="-1.479740">
        <time>2017-06-24T07:45:06Z</time>
      </trkpt>
      <trkpt lat="43.467400" lon="-1.479430">
        <time>2017-06-24T07:45:07Z</time>
      </trkpt>
      <trkpt lat="43.467570" lon="-1.479110">
        <time>2017-06-24T07:45:08Z</time>
      </trkpt>
      <trkpt lat="43.467720" lon="-1.478820">
        <time>2017-06-24T07:45:09Z</time>
      </trkpt>
      <trkpt lat="43.467880" lon="-1.478510">
        <time>2017-06-24T07:45:10Z</time>
      </trkpt>
      <trkpt lat="43.468040" lon="-1.478190">
        <time>2017-06-24T07:45:11Z</time>
      </trkpt>
      <trkpt lat="43.468180" lon="-1.477890">
        <time>2017-06-24T07:45:12Z</time>
      </trkpt>
      <trkpt lat="43.468330" lon="-1.477580">
        <time>2017-06-24T07:45:13Z</time>
      </trkpt>
      <trkpt lat="43.468470" lon="-1.477240">
        <time>2017-06-24T07:45:14Z</time>
      </trkpt>
      <trkpt lat="43.468590" lon="-1.476930">
        <time>2017-06-24T07:45:15Z</time>
      </trkpt>
      <trkpt lat="43.468720" lon="-1.476590">
        <time>2017-06-24T07:45:16Z</time>
      </trkpt>
      <trkpt lat="43.468840" lon="-1.476290">
        <time>2017-06-24T07:45:17Z</time>
      </trkpt>
      <trkpt lat="43.468950" lon="-1.475950">
        <time>2017-06-24T07:45:18Z</time>
      </trkpt>
      <trkpt lat="43.469060" lon="-1.475580">
        <time>2017-06-24T07:45:19Z</time>
      </trkpt>
      <trkpt lat="43.469160" lon="-1.475250">
        <time>2017-06-24T07:45:20Z</time>
      </trkpt>
      <trkpt lat="43.469250" lon="-1.474910">
        <time>2017-06-24T07:45:21Z</time>
      </trkpt>
      <trkpt lat="43.469340" lon="-1.474550">
        <time>2017-06-24T07:45:22Z</time>
      </trkpt>
      <trkpt lat="43.469420" lon="-1.474200">
        <time>2017-06-24T07:45:23Z</time>
      </trkpt>
      <trkpt lat="43.469500" lon="-1.473810">
        <time>2017-06-24T07:45:24Z</time>
      </trkpt>
      <trkpt lat="43.469560" lon="-1.473470">
        <time>2017-06-24T07:45:25Z</time>
      </trkpt>
      <trkpt lat="43.469620" lon="-1.473100">
        <time>2017-06-24T07:45:26Z</time>
      </trkpt>
      <trkpt lat="43.469690" lon="-1.472700">
        <time>2017-06-24T07:45:27Z</time>
      </trkpt>
      <trkpt lat="43.469730" lon="-1.472360">
        <time>2017-06-24T07:45:28Z</time>
      </trkpt>
      <trkpt lat="43.469770" lon="-1.471990">
        <time>2017-06-24T07:45:29Z</time>
      </trkpt>
      <trkpt lat="43.469810" lon="-1.471600">
        <time>2017-06-24T07:45:30Z</time>
      </trkpt>
      <trkpt lat="43.469850" lon="-1.471260">
        <time>2017-06-24T07:45:31Z</time>
      </trkpt>
      <trkpt lat="43.469870" lon="-1.470870">
        <time>2017-06-24T07:45:32Z</time>
      </trkpt>
      <trkpt lat="43.469900" lon="-1.470520">
        <time>2017-06-24T07:45:33Z</time>
      </trkpt>
      <trkpt lat="43.469920" lon="-1.470160">
        <time>2017-06-24T07:45:34Z</time>
      </trkpt>
      <trkpt lat="43.469930" lon="-1.469790">
        <time>2017-06-24T07:45:35Z</time>
      </trkpt>
      <trkpt lat="43.469940" lon="-1.469460">
        <time>2017-06-24T07:45:36Z</time>
      </trkpt>
      <trkpt lat="43.469950" lon="-1.469100">
        <time>2017-06-24T07:45:37Z</time>
      </trkpt>
      <trkpt lat="43.469970" lon="-1.468750">
        <time>2017-06-24T07:45:38Z</time>
      </trkpt>
      <trkpt lat="43.469980" lon="-1.468390">
        <time>2017-06-24T07:45:39Z</time>
      </trkpt>
      <trkpt lat="43.470010" lon="-1.468010">
        <time>2017-06-24T07:45:40Z</time>
      </trkpt>
      <trkpt lat="43.470050" lon="-1.467680">
        <time>2017-06-24T07:45:41Z</time>
      </trkpt>
      <trkpt lat="43.470100" lon="-1.467320">
        <time>2017-06-24T07:45:42Z</time>
      </trkpt>
      <trkpt lat="43.470170" lon="-1.466940">
        <time>2017-06-24T07:45:43Z</time>
      </trkpt>
      <trkpt lat="43.470240" lon="-1.466610">
        <time>2017-06-24T07:45:44Z</time>
      </trkpt>
      <trkpt lat="43.470330" lon="-1.466260">
        <time>2017-06-24T07:45:45Z</time>
      </trkpt>
      <trkpt lat="43.470440" lon="-1.465900">
        <time>2017-06-24T07:45:46Z</time>
      </trkpt>
      <trkpt lat="43.470540" lon="-1.465580">
        <time>2017-06-24T07:45:47Z</time>
      </trkpt>
      <trkpt lat="43.470680" lon="-1.465230">
        <time>2017-06-24T07:45:48Z</time>
      </trkpt>
      <trkpt lat="43.470810" lon="-1.464910">
        <time>2017-06-24T07:45:49Z</time>
      </trkpt>
      <trkpt lat="43.470970" lon="-1.464590">
        <time>2017-06-24T07:45:50Z</time>
      </trkpt>
      <trkpt lat="43.471140" lon="-1.464260">
        <time>2017-06-24T07:45:51Z</time>
      </trkpt>
      <trkpt lat="43.471310" lon="-1.463980">
        <time>2017-06-24T07:45:52Z</time>
      </trkpt>
      <trkpt lat="43.471490" lon="-1.463690">
        <time>2017-06-24T07:45:53Z</time>
      </trkpt>
      <trkpt lat="43.471670" lon="-1.463400">
        <time>2017-06-24T07:45:54Z</time>
      </trkpt>
      <trkpt lat="43.471860" lon="-1.463110">
        <time>2017-06-24T07:45:55Z</time>
      </trkpt>
      <trkpt lat="43.472050" lon="-1.462810">
        <time>2017-06-24T07:45:56Z</time>
      </trkpt>
      <trkpt lat="43.472230" lon="-1.462550">
        <time>2017-06-24T07:45:57Z</time>
      </trkpt>
      <trkpt lat="43.472420" lon="-1.462270">
        <time>2017-06-24T07:45:58Z</time>
      </trkpt>
      <trkpt lat="43.472610" lon="-1.461990">
        <time>2017-06-24T07:45:59Z</time>
      </trkpt>
      <trkpt lat="43.472760" lon="-1.461740">
        <time>2017-06-24T07:46:00Z</time>
      </trkpt>
      <trkpt lat="43.472920" lon="-1.461470">
        <time>2017-06-24T07:46:01Z</time>
      </trkpt>
      <trkpt lat="43.473090" lon="-1.461170">
        <time>2017-06-24T07:46:02Z</time>
      </trkpt>
      <trkpt lat="43.473220" lon="-1.460890">
        <time>2017-06-24T07:46:03Z</time>
      </trkpt>
      <trkpt lat="43.473360" lon="-1.460560">
        <time>2017-06-24T07:46:04Z</time>
      </trkpt>
      <trkpt lat="43.473470" lon="-1.460260">
        <time>2017-06-24T07:46:05Z</time>
      </trkpt>
      <trkpt lat="43.473580" lon="-1.459950">
        <time>2017-06-24T07:46:06Z</time>
      </trkpt>
      <trkpt lat="43.473690" lon="-1.459620">
        <time>2017-06-24T07:46:07Z</time>
      </trkpt>
      <trkpt lat="43.473780" lon="-1.459330">
        <time>2017-06-24T07:46:08Z</time>
      </trkpt>
      <trkpt lat="43.473860" lon="-1.459020">
        <time>2017-06-24T07:46:09Z</time>
      </trkpt>
      <trkpt lat="43.473940" lon="-1.458710">
        <time>2017-06-24T07:46:10Z</time>
      </trkpt>
      <trkpt lat="43.474010" lon="-1.458390">
        <time>2017-06-24T07:46:11Z</time>
      </trkpt>
      <trkpt lat="43.474080" lon="-1.458050">
        <time>2017-06-24T07:46:12Z</time>
      </trkpt>
      <trkpt lat="43.474130" lon="-1.457750">
        <time>2017-06-24T07:46:13Z</time>
      </trkpt>
      <trkpt lat="43.474180" lon="-1.457420">
        <time>2017-06-24T07:46:14Z</time>
      </trkpt>
      <trkpt lat="43.474240" lon="-1.457080">
        <time>2017-06-24T07:46:15Z</time>
      </trkpt>
      <trkpt lat="43.474290" lon="-1.456780">
        <time>2017-06-24T07:46:16Z</time>
      </trkpt>
      <trkpt lat="43.474340" lon="-1.456460">
        <time>2017-06-24T07:46:17Z</time>
      </trkpt>
      <trkpt lat="43.474400" lon="-1.456130">
        <time>2017-06-24T07:46:18Z</time>
      </trkpt>
      <trkpt lat="43.474450" lon="-1.455840">
        <time>2017-06-24T07:46:19Z</time>
      </trkpt>
      <trkpt lat="43.474520" lon="-1.455520">
        <time>2017-06-24T07:46:20Z</time>
      </trkpt>
      <trkpt lat="43.474590" lon="-1.455250">
        <time>2017-06-24T07:46:21Z</time>
      </trkpt>
      <trkpt lat="43.474660" lon="-1.454950">
        <time>2017-06-24T07:46:22Z</time>
      </trkpt>
      <trkpt lat="43.474750" lon="-1.454640">
        <time>2017-06-24T07:46:23Z</time>
      </trkpt>
      <trkpt lat="43.474840" lon="-1.454360">
        <time>2017-06-24T07:46:24Z</time>
      </trkpt>
      <trkpt lat="43.474940" lon="-1.454060">
        <time>2017-06-24T07:46:25Z</time>
      </trkpt>
      <trkpt lat="43.475040" lon="-1.453750">
        <time>2017-06-24T07:46:26Z</time>
      </trkpt>
      <trkpt lat="43.475160" lon="-1.453460">
        <time>2017-06-24T07:46:27Z</time>
      </trkpt>
      <trkpt lat="43.475280" lon="-1.453140">
        <time>2017-06-24T07:46:28Z</time>
      </trkpt>
      <trkpt lat="43.475390" lon="-1.452860">
        <time>2017-06-24T07:46:29Z</time>
      </trkpt>
      <trkpt lat="43.475510" lon="-1.452550">
        <time>2017-06-24T07:46:30Z</time>
      </trkpt>
      <trkpt lat="43.475640" lon="-1.452250">
        <time>2017-06-24T07:46:31Z</time>
      </trkpt>
      <trkpt lat="43.475770" lon="-1.451980">
        <time>2017-06-24T07:46:32Z</time>
      </trkpt>
      <trkpt lat="43.475900" lon="-1.451690">
        <time>2017-06-24T07:46:33Z</time>
      </trkpt>
      <trkpt lat="43.476050" lon="-1.451380">
        <time>2017-06-24T07:46:34Z</time>
      </trkpt>
      <trkpt lat="43.476190" lon="-1.451110">
        <time>2017-06-24T07:46:35Z</time>
      </trkpt>
      <trkpt lat="43.476350" lon="-1.450810">
        <time>2017-06-24T07:46:36Z</time>
      </trkpt>
      <trkpt lat="43.476490" lon="-1.450550">
        <time>2017-06-24T07:46:37Z</time>
      </trkpt>
      <trkpt lat="43.476650" lon="-1.450270">
        <time>2017-06-24T07:46:38Z</time>
      </trkpt>
      <trkpt lat="43.476820" lon="-1.449980">
        <time>2017-06-24T07:46:39Z</time>
      </trkpt>
      <trkpt lat="43.476970" lon="-1.449720">
        <time>2017-06-24T07:46:40Z</time>
      </trkpt>
      <trkpt lat="43.477150" lon="-1.449460">
        <time>2017-06-24T07:46:41Z</time>
      </trkpt>
      <trkpt lat="43.477320" lon="-1.449200">
        <time>2017-06-24T07:46:42Z</time>
      </trkpt>
      <trkpt lat="43.477490" lon="-1.448960">
        <time>2017-06-24T07:46:43Z</time>
      </trkpt>
      <trkpt lat="43.477700" lon="-1.448720">
        <time>2017-06-24T07:46:44Z</time>
      </trkpt>
      <trkpt lat="43.477890" lon="-1.448510">
        <time>2017-06-24T07:46:45Z</time>
      </trkpt>
      <trkpt lat="43.478100" lon="-1.448300">
        <time>2017-06-24T07:46:46Z</time>
      </trkpt>
      <trkpt lat="43.478330" lon="-1.448090">
        <time>2017-06-24T07:46:47Z</time>
      </trkpt>
      <trkpt lat="43.478540" lon="-1.447920">
        <time>2017-06-24T07:46:48Z</time>
      </trkpt>
      <trkpt lat="43.478780" lon="-1.447750">
        <time>2017-06-24T07:46:49Z</time>
      </trkpt>
      <trkpt lat="43.479030" lon="-1.447590">
        <time>2017-06-24T07:46:50Z</time>
      </trkpt>
      <trkpt lat="43.479260" lon="-1.447460">
        <time>2017-06-24T07:46:51Z</time>
      </trkpt>
      <trkpt lat="43.479520" lon="-1.447340">
        <time>2017-06-24T07:46:52Z</time>
      </trkpt>
      <trkpt lat="43.479760" lon="-1.447240">
        <time>2017-06-24T07:46:53Z</time>
      </trkpt>
      <trkpt lat="43.480010" lon="-1.447160">
        <time>2017-06-24T07:46:54Z</time>
      </trkpt>
      <trkpt lat="43.480290" lon="-1.447080">
        <time>2017-06-24T07:46:55Z</time>
      </trkpt>
      <trkpt lat="43.480540" lon="-1.447030">
        <time>2017-06-24T07:46:56Z</time>
      </trkpt>
      <trkpt lat="43.480800" lon="-1.446990">
        <time>2017-06-24T07:46:57Z</time>
      </trkpt>
      <trkpt lat="43.481060" lon="-1.446970">
        <time>2017-06-24T07:46:58Z</time>
      </trkpt>
      <trkpt lat="43.481320" lon="-1.446970">
        <time>2017-06-24T07:46:59Z</time>
      </trkpt>
      <trkpt lat="43.481590" lon="-1.446990">
        <time>2017-06-24T07:47:00Z</time>
      </trkpt>
      <trkpt lat="43.481830" lon="-1.447030">
        <time>2017-06-24T07:47:01Z</time>
      </trkpt>
      <trkpt lat="43.482090" lon="-1.447070">
        <time>2017-06-24T07:47:02Z</time>
      </trkpt>
      <trkpt lat="43.482350" lon="-1.447120">
        <time>2017-06-24T07:47:03Z</time>
      </trkpt>
      <trkpt lat="43.482580" lon="-1.447190">
        <time>2017-06-24T07:47:04Z</time>
      </trkpt>
      <trkpt lat="43.482820" lon="-1.447260">
        <time>2017-06-24T07:47:05Z</time>
      </trkpt>
      <trkpt lat="43.483080" lon="-1.447350">
        <time>2017-06-24T07:47:06Z</time>
      </trkpt>
      <trkpt lat="43.483300" lon="-1.447430">
        <time>2017-06-24T07:47:07Z</time>
      </trkpt>
      <trkpt lat="43.483560" lon="-1.447510">
        <time>2017-06-24T07:47:08Z</time>
      </trkpt>
      <trkpt lat="43.483790" lon="-1.447590">
        <time>2017-06-24T07:47:09Z</time>
      </trkpt>
      <trkpt lat="43.484040" lon="-1.447670">
        <time>2017-06-24T07:47:10Z</time>
      </trkpt>
      <trkpt lat="43.484300" lon="-1.447750">
        <time>2017-06-24T07:47:11Z</time>
      </trkpt>
      <trkpt lat="43.484530" lon="-1.447840">
        <time>2017-06-24T07:47:12Z</time>
      </trkpt>
      <trkpt lat="43.484780" lon="-1.447920">
        <time>2017-06-24T07:47:13Z</time>
      </trkpt>
      <trkpt lat="43.485030" lon="-1.448000">
        <time>2017-06-24T07:47:14Z</time>
      </trkpt>
      <trkpt lat="43.485290" lon="-1.448090">
        <time>2017-06-24T07:47:15Z</time>
      </trkpt>
      <trkpt lat="43.485560" lon="-1.448190">
        <time>2017-06-24T07:47:16Z</time>
      </trkpt>
      <trkpt lat="43.485800" lon="-1.448260">
        <time>2017-06-24T07:47:17Z</time>
      </trkpt>
      <trkpt lat="43.486070" lon="-1.448350">
        <time>2017-06-24T07:47:18Z</time>
      </trkpt>
      <trkpt lat="43.486340" lon="-1.448440">
        <time>2017-06-24T07:47:19Z</time>
      </trkpt>
      <trkpt lat="43.486590" lon="-1.448530">
        <time>2017-06-24T07:47:20Z</time>
      </trkpt>
      <trkpt lat="43.486850" lon="-1.448620">
        <time>2017-06-24T07:47:21Z</time>
      </trkpt>
      <trkpt lat="43.487120" lon="-1.448710">
        <time>2017-06-24T07:47:22Z</time>
      </trkpt>
      <trkpt lat="43.487370" lon="-1.448790">
        <time>2017-06-24T07:47:23Z</time>
      </trkpt>
      <trkpt lat="43.487640" lon="-1.448880">
        <time>2017-06-24T07:47:24Z</time>
      </trkpt>
      <trkpt lat="43.487890" lon="-1.448960">
        <time>2017-06-24T07:47:25Z</time>
      </trkpt>
      <trkpt lat="43.488150" lon="-1.449050">
        <time>2017-06-24T07:47:26Z</time>
      </trkpt>
      <trkpt lat="43.488440" lon="-1.449140">
        <time>2017-06-24T07:47:27Z</time>
      </trkpt>
      <trkpt lat="43.488690" lon="-1.449220">
        <time>2017-06-24T07:47:28Z</time>
      </trkpt>
      <trkpt lat="43.488960" lon="-1.449310">
        <time>2017-06-24T07:47:29Z</time>
      </trkpt>
      <trkpt lat="43.489230" lon="-1.449390">
        <time>2017-06-24T07:47:30Z</time>
      </trkpt>
      <trkpt lat="43.489500" lon="-1.449480">
        <time>2017-06-24T07:47:31Z</time>
      </trkpt>
      <trkpt lat="43.489790" lon="-1.449550">
        <time>2017-06-24T07:47:32Z</time>
      </trkpt>
      <trkpt lat="43.490050" lon="-1.449610">
        <time>2017-06-24T07:47:33Z</time>
      </trkpt>
      <trkpt lat="43.490330" lon="-1.449640">
        <time>2017-06-24T07:47:34Z</time>
      </trkpt>
      <trkpt lat="43.490630" lon="-1.449670">
        <time>2017-06-24T07:47:35Z</time>
      </trkpt>
      <trkpt lat="43.490890" lon="-1.449670">
        <time>2017-06-24T07:47:36Z</time>
      </trkpt>
      <trkpt lat="43.491170" lon="-1.449660">
        <time>2017-06-24T07:47:37Z</time>
      </trkpt>
      <trkpt lat="43.491460" lon="-1.449630">
        <time>2017-06-24T07:47:38Z</time>
      </trkpt>
      <trkpt lat="43.491710" lon="-1.449590">
        <time>2017-06-24T07:47:39Z</time>
      </trkpt>
      <trkpt lat="43.492010" lon="-1.449530">
        <time>2017-06-24T07:47:40Z</time>
      </trkpt>
      <trkpt lat="43.492260" lon="-1.449470">
        <time>2017-06-24T07:47:41Z</time>
      </trkpt>
      <trkpt lat="43.492520" lon="-1.449400">
        <time>2017-06-24T07:47:42Z</time>
      </trkpt>
      <trkpt lat="43.492800" lon="-1.449310">
        <time>2017-06-24T07:47:43Z</time>
      </trkpt>
      <trkpt lat="43.493050" lon="-1.449220">
        <time>2017-06-24T07:47:44Z</time>
      </trkpt>
      <trkpt lat="43.493310" lon="-1.449120">
        <time>2017-06-24T07:47:45Z</time>
      </trkpt>
      <trkpt lat="43.493570" lon="-1.449000">
        <time>2017-06-24T07:47:46Z</time>
      </trkpt>
      <trkpt lat="43.493820" lon="-1.448880">
        <time>2017-06-24T07:47:47Z</time>
      </trkpt>
      <trkpt lat="43.494100" lon="-1.448730">
        <time>2017-06-24T07:47:48Z</time>
      </trkpt>
      <trkpt lat="43.494330" lon="-1.448580">
        <time>2017-06-24T07:47:49Z</time>
      </trkpt>
      <trkpt lat="43.494580" lon="-1.448410">
        <time>2017-06-24T07:47:50Z</time>
      </trkpt>
      <trkpt lat="43.494840" lon="-1.448210">
        <time>2017-06-24T07:47:51Z</time>
      </trkpt>
      <trkpt lat="43.495070" lon="-1.448020">
        <time>2017-06-24T07:47:52Z</time>
      </trkpt>
      <trkpt lat="43.495300" lon="-1.447820">
        <time>2017-06-24T07:47:53Z</time>
      </trkpt>
      <trkpt lat="43.495550" lon="-1.447590">
        <time>2017-06-24T07:47:54Z</time>
      </trkpt>
      <trkpt lat="43.495760" lon="-1.447370">
        <time>2017-06-24T07:47:55Z</time>
      </trkpt>
      <trkpt lat="43.495990" lon="-1.447110">
        <time>2017-06-24T07:47:56Z</time>
      </trkpt>
      <trkpt lat="43.496190" lon="-1.446870">
        <time>2017-06-24T07:47:57Z</time>
      </trkpt>
      <trkpt lat="43.496390" lon="-1.446600">
        <time>2017-06-24T07:47:58Z</time>
      </trkpt>
      <trkpt lat="43.496600" lon="-1.446310">
        <time>2017-06-24T07:47:59Z</time>
      </trkpt>
      <trkpt lat="43.496780" lon="-1.446040">
        <time>2017-06-24T07:48:00Z</time>
      </trkpt>
      <trkpt lat="43.496960" lon="-1.445750">
        <time>2017-06-24T07:48:01Z</time>
      </trkpt>
      <trkpt lat="43.497140" lon="-1.445450">
        <time>2017-06-24T07:48:02Z</time>
      </trkpt>
      <trkpt lat="43.497300" lon="-1.445140">
        <time>2017-06-24T07:48:03Z</time>
      </trkpt>
      <trkpt lat="43.497480" lon="-1.444800">
        <time>2017-06-24T07:48:04Z</time>
      </trkpt>
      <trkpt lat="43.497640" lon="-1.444510">
        <time>2017-06-24T07:48:05Z</time>
      </trkpt>
      <trkpt lat="43.497810" lon="-1.444190">
        <time>2017-06-24T07:48:06Z</time>
      </trkpt>
      <trkpt lat="43.498000" lon="-1.443870">
        <time>2017-06-24T07:48:07Z</time>
      </trkpt>
      <trkpt lat="43.498160" lon="-1.443580">
        <time>2017-06-24T07:48:08Z</time>
      </trkpt>
      <trkpt lat="43.498350" lon="-1.443280">
        <time>2017-06-24T07:48:09Z</time>
      </trkpt>
      <trkpt lat="43.498550" lon="-1.442970">
        <time>2017-06-24T07:48:10Z</time>
      </trkpt>
      <trkpt lat="43.498740" lon="-1.442710">
        <time>2017-06-24T07:48:11Z</time>
      </trkpt>
      <trkpt lat="43.498970" lon="-1.442420">
        <time>2017-06-24T07:48:12Z</time>
      </trkpt>
      <trkpt lat="43.499170" lon="-1.442180">
        <time>2017-06-24T07:48:13Z</time>
      </trkpt>
      <trkpt lat="43.499390" lon="-1.441940">
        <time>2017-06-24T07:48:14Z</time>
      </trkpt>
      <trkpt lat="43.499640" lon="-1.441690">
        <time>2017-06-24T07:48:15Z</time>
      </trkpt>
      <trkpt lat="43.499860" lon="-1.441480">
        <time>2017-06-24T07:48:16Z</time>
      </trkpt>
      <trkpt lat="43.500110" lon="-1.441280">
        <time>2017-06-24T07:48:17Z</time>
      </trkpt>
      <trkpt lat="43.500350" lon="-1.441090">
        <time>2017-06-24T07:48:18Z</time>
      </trkpt>
      <trkpt lat="43.500610" lon="-1.440910">
        <time>2017-06-24T07:48:19Z</time>
      </trkpt>
      <trkpt lat="43.500890" lon="-1.440730">
        <time>2017-06-24T07:48:20Z</time>
      </trkpt>
      <trkpt lat="43.501140" lon="-1.440590">
        <time>2017-06-24T07:48:21Z</time>
      </trkpt>
      <trkpt lat="43.501420" lon="-1.440450">
        <time>2017-06-24T07:48:22Z</time>
      </trkpt>
      <trkpt lat="43.501710" lon="-1.440320">
        <time>2017-06-24T07:48:23Z</time>
      </trkpt>
      <trkpt lat="43.501970" lon="-1.440220">
        <time>2017-06-24T07:48:24Z</time>
      </trkpt>
      <trkpt lat="43.502250" lon="-1.440130">
        <time>2017-06-24T07:48:25Z</time>
      </trkpt>
      <trkpt lat="43.502550" lon="-1.440050">
        <time>2017-06-24T07:48:26Z</time>
      </trkpt>
      <trkpt lat="43.502820" lon="-1.439990">
        <time>2017-06-24T07:48:27Z</time>
      </trkpt>
      <trkpt lat="43.503120" lon="-1.439950">
        <time>2017-06-24T07:48:28Z</time>
      </trkpt>
      <trkpt lat="43.503380" lon="-1.439920">
        <time>2017-06-24T07:48:29Z</time>
      </trkpt>
      <trkpt lat="43.503660" lon="-1.439900">
        <time>2017-06-24T07:48:30Z</time>
      </trkpt>
      <trkpt lat="43.503970" lon="-1.439890">
        <time>2017-06-24T07:48:31Z</time>
      </trkpt>
      <trkpt lat="43.504230" lon="-1.439900">
        <time>2017-06-24T07:48:32Z</time>
      </trkpt>
      <trkpt lat="43.504500" lon="-1.439930">
        <time>2017-06-24T07:48:33Z</time>
      </trkpt>
      <trkpt lat="43.504780" lon="-1.439970">
        <time>2017-06-24T07:48:34Z</time>
      </trkpt>
      <trkpt lat="43.505060" lon="-1.440030">
        <time>2017-06-24T07:48:35Z</time>
      </trkpt>
      <trkpt lat="43.505350" lon="-1.440110">
        <time>2017-06-24T07:48:36Z</time>
      </trkpt>
      <trkpt lat="43.505600" lon="-1.440190">
        <time>2017-06-24T07:48:37Z</time>
      </trkpt>
      <trkpt lat="43.505870" lon="-1.440300">
        <time>2017-06-24T07:48:38Z</time>
      </trkpt>
      <trkpt lat="43.506150" lon="-1.440420">
        <time>2017-06-24T07:48:39Z</time>
      </trkpt>
      <trkpt lat="43.506400" lon="-1.440540">
        <time>2017-06-24T07:48:40Z</time>
      </trkpt>
      <trkpt lat="43.506660" lon="-1.440690">
        <time>2017-06-24T07:48:41Z</time>
      </trkpt>
      <trkpt lat="43.506940" lon="-1.440860">
        <time>2017-06-24T07:48:42Z</time>
      </trkpt>
      <trkpt lat="43.507180" lon="-1.441020">
        <time>2017-06-24T07:48:43Z</time>
      </trkpt>
      <trkpt lat="43.507450" lon="-1.441210">
        <time>2017-06-24T07:48:44Z</time>
      </trkpt>
      <trkpt lat="43.507680" lon="-1.441390">
        <time>2017-06-24T07:48:45Z</time>
      </trkpt>
      <trkpt lat="43.507930" lon="-1.441580">
        <time>2017-06-24T07:48:46Z</time>
      </trkpt>
      <trkpt lat="43.508190" lon="-1.441790">
        <time>2017-06-24T07:48:47Z</time>
      </trkpt>
      <trkpt lat="43.508430" lon="-1.441970">
        <time>2017-06-24T07:48:48Z</time>
      </trkpt>
      <trkpt lat="43.508670" lon="-1.442160">
        <time>2017-06-24T07:48:49Z</time>
      </trkpt>
      <trkpt lat="43.508930" lon="-1.442340">
        <time>2017-06-24T07:48:50Z</time>
      </trkpt>
      <trkpt lat="43.509180" lon="-1.442510">
        <time>2017-06-24T07:48:51Z</time>
      </trkpt>
      <trkpt lat="43.509460" lon="-1.442680">
        <time>2017-06-24T07:48:52Z</time>
      </trkpt>
      <trkpt lat="43.509710" lon="-1.442820">
        <time>2017-06-24T07:48:53Z</time>
      </trkpt>
      <trkpt lat="43.509980" lon="-1.442950">
        <time>2017-06-24T07:48:54Z</time>
      </trkpt>
      <trkpt lat="43.510270" lon="-1.443090">
        <time>2017-06-24T07:48:55Z</time>
      </trkpt>
      <trkpt lat="43.510530" lon="-1.443190">
        <time>2017-06-24T07:48:56Z</time>
      </trkpt>
      <trkpt lat="43.510800" lon="-1.443280">
        <time>2017-06-24T07:48:57Z</time>
      </trkpt>
      <trkpt lat="43.511100" lon="-1.443370">
        <time>2017-06-24T07:48:58Z</time>
      </trkpt>
      <trkpt lat="43.511360" lon="-1.443440">
        <time>2017-06-24T07:48:59Z</time>
      </trkpt>
      <trkpt lat="43.511650" lon="-1.443510">
        <time>2017-06-24T07:49:00Z</time>
      </trkpt>
      <trkpt lat="43.511920" lon="-1.443550">
        <time>2017-06-24T07:49:01Z</time>
      </trkpt>
      <trkpt lat="43.512190" lon="-1.443580">
        <time>2017-06-24T07:49:02Z</time>
      </trkpt>
      <trkpt lat="43.512490" lon="-1.443600">
        <time>2017-06-24T07:49:03Z</time>
      </trkpt>
      <trkpt lat="43.512750" lon="-1.443600">
        <time>2017-06-24T07:49:04Z</time>
      </trkpt>
      <trkpt lat="43.513040" lon="-1.443590">
        <time>2017-06-24T07:49:05Z</time>
      </trkpt>
      <trkpt lat="43.513320" lon="-1.443560">
        <time>2017-06-24T07:49:06Z</time>
      </trkpt>
      <trkpt lat="43.513600" lon="-1.443520">
        <time>2017-06-24T07:49:07Z</time>
      </trkpt>
      <trkpt lat="43.513900" lon="-1.443460">
        <time>2017-06-24T07:49:08Z</time>
      </trkpt>
      <trkpt lat="43.514170" lon="-1.443390">
        <time>2017-06-24T07:49:09Z</time>
      </trkpt>
      <trkpt lat="43.514450" lon="-1.443310">
        <time>2017-06-24T07:49:10Z</time>
      </trkpt>
      <trkpt lat="43.514750" lon="-1.443220">
        <time>2017-06-24T07:49:11Z</time>
      </trkpt>
      <trkpt lat="43.515010" lon="-1.443130">
        <time>2017-06-24T07:49:12Z</time>
      </trkpt>
      <trkpt lat="43.515280" lon="-1.443020">
        <time>2017-06-24T07:49:13Z</time>
      </trkpt>
      <trkpt lat="43.515570" lon="-1.442920">
        <time>2017-06-24T07:49:14Z</time>
      </trkpt>
      <trkpt lat="43.515820" lon="-1.442810">
        <time>2017-06-24T07:49:15Z</time>
      </trkpt>
      <trkpt lat="43.516100" lon="-1.442710">
        <time>2017-06-24T07:49:16Z</time>
      </trkpt>
      <trkpt lat="43.516350" lon="-1.442610">
        <time>2017-06-24T07:49:17Z</time>
      </trkpt>
      <trkpt lat="43.516620" lon="-1.442530">
        <time>2017-06-24T07:49:18Z</time>
      </trkpt>
      <trkpt lat="43.516900" lon="-1.442440">
        <time>2017-06-24T07:49:19Z</time>
      </trkpt>
      <trkpt lat="43.517150" lon="-1.442380">
        <time>2017-06-24T07:49:20Z</time>
      </trkpt>
      <trkpt lat="43.517420" lon="-1.442330">
        <time>2017-06-24T07:49:21Z</time>
      </trkpt>
      <trkpt lat="43.517700" lon="-1.442280">
        <time>2017-06-24T07:49:22Z</time>
      </trkpt>
      <trkpt lat="43.517970" lon="-1.442240">
        <time>2017-06-24T07:49:23Z</time>
      </trkpt>
      <trkpt lat="43.518270" lon="-1.442200">
        <time>2017-06-24T07:49:24Z</time>
      </trkpt>
      <trkpt lat="43.518530" lon="-1.442160">
        <time>2017-06-24T07:49:25Z</time>
      </trkpt>
      <trkpt lat="43.518810" lon="-1.442120">
        <time>2017-06-24T07:49:26Z</time>
      </trkpt>
      <trkpt lat="43.519100" lon="-1.442070">
        <time>2017-06-24T07:49:27Z</time>
      </trkpt>
      <trkpt lat="43.519360" lon="-1.442020">
        <time>2017-06-24T07:49:28Z</time>
      </trkpt>
      <trkpt lat="43.519630" lon="-1.441970">
        <time>2017-06-24T07:49:29Z</time>
      </trkpt>
      <trkpt lat="43.519920" lon="-1.441900">
        <time>2017-06-24T07:49:30Z</time>
      </trkpt>
      <trkpt lat="43.520180" lon="-1.441840">
        <time>2017-06-24T07:49:31Z</time>
      </trkpt>
      <trkpt lat="43.520460" lon="-1.441770">
        <time>2017-06-24T07:49:32Z</time>
      </trkpt>
      <trkpt lat="43.520710" lon="-1.441700">
        <time>2017-06-24T07:49:33Z</time>
      </trkpt>
      <trkpt lat="43.520970" lon="-1.441620">
        <time>2017-06-24T07:49:34Z</time>
      </trkpt>
      <trkpt lat="43.521260" lon="-1.441520">
        <time>2017-06-24T07:49:35Z</time>
      </trkpt>
      <trkpt lat="43.521510" lon="-1.441440">
        <time>2017-06-24T07:49:36Z</time>
      </trkpt>
      <trkpt lat="43.521770" lon="-1.441340">
        <time>2017-06-24T07:49:37Z</time>
      </trkpt>
      <trkpt lat="43.522030" lon="-1.441250">
        <time>2017-06-24T07:49:38Z</time>
      </trkpt>
      <trkpt lat="43.522300" lon="-1.441140">
        <time>2017-06-24T07:49:39Z</time>
      </trkpt>
      <trkpt lat="43.522580" lon="-1.441010">
        <time>2017-06-24T07:49:40Z</time>
      </trkpt>
      <trkpt lat="43.522820" lon="-1.440900">
        <time>2017-06-24T07:49:41Z</time>
      </trkpt>
      <trkpt lat="43.523080" lon="-1.440770">
        <time>2017-06-24T07:49:42Z</time>
      </trkpt>
      <trkpt lat="43.523360" lon="-1.440620">
        <time>2017-06-24T07:49:43Z</time>
      </trkpt>
      <trkpt lat="43.523590" lon="-1.440500">
        <time>2017-06-24T07:49:44Z</time>
      </trkpt>
      <trkpt lat="43.523850" lon="-1.440350">
        <time>2017-06-24T07:49:45Z</time>
      </trkpt>
      <trkpt lat="43.524110" lon="-1.440200">
        <time>2017-06-24T07:49:46Z</time>
      </trkpt>
      <trkpt lat="43.524340" lon="-1.440070">
        <time>2017-06-24T07:49:47Z</time>
      </trkpt>
      <trkpt lat="43.524600" lon="-1.439910">
        <time>2017-06-24T07:49:48Z</time>
      </trkpt>
      <trkpt lat="43.524830" lon="-1.439750">
        <time>2017-06-24T07:49:49Z</time>
      </trkpt>
      <trkpt lat="43.525070" lon="-1.439590">
        <time>2017-06-24T07:49:50Z</time>
      </trkpt>
      <trkpt lat="43.525320" lon="-1.439410">
        <time>2017-06-24T07:49:51Z</time>
      </trkpt>
      <trkpt lat="43.525550" lon="-1.439240">
        <time>2017-06-24T07:49:52Z</time>
      </trkpt>
      <trkpt lat="43.525790" lon="-1.439060">
        <time>2017-06-24T07:49:53Z</time>
      </trkpt>
      <trkpt lat="43.526030" lon="-1.438860">
        <time>2017-06-24T07:49:54Z</time>
      </trkpt>
      <trkpt lat="43.526260" lon="-1.438660">
        <time>2017-06-24T07:49:55Z</time>
      </trkpt>
      <trkpt lat="43.526500" lon="-1.438440">
        <time>2017-06-24T07:49:56Z</time>
      </trkpt>
      <trkpt lat="43.526710" lon="-1.438230">
        <time>2017-06-24T07:49:57Z</time>
      </trkpt>
      <trkpt lat="43.526940" lon="-1.438010">
        <time>2017-06-24T07:49:58Z</time>
      </trkpt>
      <trkpt lat="43.527170" lon="-1.437770">
        <time>2017-06-24T07:49:59Z</time>
      </trkpt>
      <trkpt lat="43.527360" lon="-1.437530">
        <time>2017-06-24T07:50:00Z</time>
      </trkpt>
      <trkpt lat="43.527570" lon="-1.437290">
        <time>2017-06-24T07:50:01Z</time>
      </trkpt>
      <trkpt lat="43.527780" lon="-1.437010">
        <time>2017-06-24T07:50:02Z</time>
      </trkpt>
      <trkpt lat="43.527970" lon="-1.436760">
        <time>2017-06-24T07:50:03Z</time>
      </trkpt>
      <trkpt lat="43.528180" lon="-1.436460">
        <time>2017-06-24T07:50:04Z</time>
      </trkpt>
      <trkpt lat="43.528360" lon="-1.436200">
        <time>2017-06-24T07:50:05Z</time>
      </trkpt>
      <trkpt lat="43.528560" lon="-1.435910">
        <time>2017-06-24T07:50:06Z</time>
      </trkpt>
      <trkpt lat="43.528770" lon="-1.435610">
        <time>2017-06-24T07:50:07Z</time>
      </trkpt>
      <trkpt lat="43.528950" lon="-1.435340">
        <time>2017-06-24T07:50:08Z</time>
      </trkpt>
      <trkpt lat="43.529150" lon="-1.435060">
        <time>2017-06-24T07:50:09Z</time>
      </trkpt>
      <trkpt lat="43.529340" lon="-1.434780">
        <time>2017-06-24T07:50:10Z</time>
      </trkpt>
      <trkpt lat="43.529540" lon="-1.434500">
        <time>2017-06-24T07:50:11Z</time>
      </trkpt>
      <trkpt lat="43.529760" lon="-1.434210">
        <time>2017-06-24T07:50:12Z</time>
      </trkpt>
      <trkpt lat="43.529960" lon="-1.433960">
        <time>2017-06-24T07:50:13Z</time>
      </trkpt>
      <trkpt lat="43.530170" lon="-1.433710">
        <time>2017-06-24T07:50:14Z</time>
      </trkpt>
      <trkpt lat="43.530410" lon="-1.433440">
        <time>2017-06-24T07:50:15Z</time>
      </trkpt>
      <trkpt lat="43.530620" lon="-1.433210">
        <time>2017-06-24T07:50:16Z</time>
      </trkpt>
      <trkpt lat="43.530850" lon="-1.432970">
        <time>2017-06-24T07:50:17Z</time>
      </trkpt>
      <trkpt lat="43.531100" lon="-1.432730">
        <time>2017-06-24T07:50:18Z</time>
      </trkpt>
      <trkpt lat="43.531320" lon="-1.432530">
        <time>2017-06-24T07:50:19Z</time>
      </trkpt>
      <trkpt lat="43.531580" lon="-1.432310">
        <time>2017-06-24T07:50:20Z</time>
      </trkpt>
      <trkpt lat="43.531810" lon="-1.432140">
        <time>2017-06-24T07:50:21Z</time>
      </trkpt>
      <trkpt lat="43.532060" lon="-1.431960">
        <time>2017-06-24T07:50:22Z</time>
      </trkpt>
      <trkpt lat="43.532320" lon="-1.431790">
        <time>2017-06-24T07:50:23Z</time>
      </trkpt>
      <trkpt lat="43.532560" lon="-1.431660">
        <time>2017-06-24T07:50:24Z</time>
      </trkpt>
      <trkpt lat="43.532820" lon="-1.431540">
        <time>2017-06-24T07:50:25Z</time>
      </trkpt>
      <trkpt lat="43.533070" lon="-1.431430">
        <time>2017-06-24T07:50:26Z</time>
      </trkpt>
      <trkpt lat="43.533340" lon="-1.431340">
        <time>2017-06-24T07:50:27Z</time>
      </trkpt>
      <trkpt lat="43.533620" lon="-1.431260">
        <time>2017-06-24T07:50:28Z</time>
      </trkpt>
      <trkpt lat="43.533860" lon="-1.431200">
        <time>2017-06-24T07:50:29Z</time>
      </trkpt>
      <trkpt lat="43.534130" lon="-1.431150">
        <time>2017-06-24T07:50:30Z</time>
      </trkpt>
      <trkpt lat="43.534420" lon="-1.431120">
        <time>2017-06-24T07:50:31Z</time>
      </trkpt>
      <trkpt lat="43.534670" lon="-1.431110">
        <time>2017-06-24T07:50:32Z</time>
      </trkpt>
      <trkpt lat="43.534950" lon="-1.431110">
        <time>2017-06-24T07:50:33Z</time>
      </trkpt>
      <trkpt lat="43.535250" lon="-1.431130">
        <time>2017-06-24T07:50:34Z</time>
      </trkpt>
      <trkpt lat="43.535520" lon="-1.431170">
        <time>2017-06-24T07:50:35Z</time>
      </trkpt>
      <trkpt lat="43.535820" lon="-1.431220">
        <time>2017-06-24T07:50:36Z</time>
      </trkpt>
      <trkpt lat="43.536080" lon="-1.431280">
        <time>2017-06-24T07:50:37Z</time>
      </trkpt>
      <trkpt lat="43.536370" lon="-1.431350">
        <time>2017-06-24T07:50:38Z</time>
      </trkpt>
      <trkpt lat="43.536660" lon="-1.431430">
        <time>2017-06-24T07:50:39Z</time>
      </trkpt>
      <trkpt lat="43.536930" lon="-1.431500">
        <time>2017-06-24T07:50:40Z</time>
      </trkpt>
      <trkpt lat="43.537200" lon="-1.431570">
        <time>2017-06-24T07:50:41Z</time>
      </trkpt>
      <trkpt lat="43.537480" lon="-1.431640">
        <time>2017-06-24T07:50:42Z</time>
      </trkpt>
      <trkpt lat="43.537760" lon="-1.431700">
        <time>2017-06-24T07:50:43Z</time>
      </trkpt>
      <trkpt lat="43.538050" lon="-1.431750">
        <time>2017-06-24T07:50:44Z</time>
      </trkpt>
      <trkpt lat="43.538310" lon="-1.431790">
        <time>2017-06-24T07:50:45Z</time>
      </trkpt>
      <trkpt lat="43.538590" lon="-1.431820">
        <time>2017-06-24T07:50:46Z</time>
      </trkpt>
      <trkpt lat="43.538880" lon="-1.431850">
        <time>2017-06-24T07:50:47Z</time>
      </trkpt>
      <trkpt lat="43.539140" lon="-1.431870">
        <time>2017-06-24T07:50:48Z</time>
      </trkpt>
      <trkpt lat="43.539410" lon="-1.431860">
        <time>2017-06-24T07:50:49Z</time>
      </trkpt>
      <trkpt lat="43.539700" lon="-1.431860">
        <time>2017-06-24T07:50:50Z</time>
      </trkpt>
      <trkpt lat="43.539950" lon="-1.431840">
        <time>2017-06-24T07:50:51Z</time>
      </trkpt>
      <trkpt lat="43.540240" lon="-1.431800">
        <time>2017-06-24T07:50:52Z</time>
      </trkpt>
      <trkpt lat="43.540490" lon="-1.431760">
        <time>2017-06-24T07:50:53Z</time>
      </trkpt>
      <trkpt lat="43.540760" lon="-1.431720">
        <time>2017-06-24T07:50:54Z</time>
      </trkpt>
      <trkpt lat="43.541060" lon="-1.431660">
        <time>2017-06-24T07:50:55Z</time>
      </trkpt>
      <trkpt lat="43.541310" lon="-1.431620">
        <time>2017-06-24T07:50:56Z</time>
      </trkpt>
      <trkpt lat="43.541590" lon="-1.431570">
        <time>2017-06-24T07:50:57Z</time>
      </trkpt>
      <trkpt lat="43.541870" lon="-1.431520">
        <time>2017-06-24T07:50:58Z</time>
      </trkpt>
      <trkpt lat="43.542140" lon="-1.431480">
        <time>2017-06-24T07:50:59Z</time>
      </trkpt>
      <trkpt lat="43.542440" lon="-1.431450">
        <time>2017-06-24T07:51:00Z</time>
      </trkpt>
      <trkpt lat="43.542700" lon="-1.431420">
        <time>2017-06-24T07:51:01Z</time>
      </trkpt>
      <trkpt lat="43.542980" lon="-1.431400">
        <time>2017-06-24T07:51:02Z</time>
      </trkpt>
      <trkpt lat="43.543280" lon="-1.431400">
        <time>2017-06-24T07:51:03Z</time>
      </trkpt>
      <trkpt lat="43.543540" lon="-1.431410">
        <time>2017-06-24T07:51:04Z</time>
      </trkpt>
      <trkpt lat="43.543810" lon="-1.431430">
        <time>2017-06-24T07:51:05Z</time>
      </trkpt>
      <trkpt lat="43.544110" lon="-1.431460">
        <time>2017-06-24T07:51:06Z</time>
      </trkpt>
      <trkpt lat="43.544360" lon="-1.431500">
        <time>2017-06-24T07:51:07Z</time>
      </trkpt>
      <trkpt lat="43.544650" lon="-1.431550">
        <time>2017-06-24T07:51:08Z</time>
      </trkpt>
      <trkpt lat="43.544900" lon="-1.431600">
        <time>2017-06-24T07:51:09Z</time>
      </trkpt>
      <trkpt lat="43.545170" lon="-1.431670">
        <time>2017-06-24T07:51:10Z</time>
      </trkpt>
      <trkpt lat="43.545450" lon="-1.431740">
        <time>2017-06-24T07:51:11Z</time>
      </trkpt>
      <trkpt lat="43.545690" lon="-1.431800">
        <time>2017-06-24T07:51:12Z</time>
      </trkpt>
      <trkpt lat="43.545950" lon="-1.431880">
        <time>2017-06-24T07:51:13Z</time>
      </trkpt>
      <trkpt lat="43.546210" lon="-1.431940">
        <time>2017-06-24T07:51:14Z</time>
      </trkpt>
      <trkpt lat="43.546460" lon="-1.432010">
        <time>2017-06-24T07:51:15Z</time>
      </trkpt>
      <trkpt lat="43.546740" lon="-1.432080">
        <time>2017-06-24T07:51:16Z</time>
      </trkpt>
      <trkpt lat="43.546970" lon="-1.432140">
        <time>2017-06-24T07:51:17Z</time>
      </trkpt>
      <trkpt lat="43.547230" lon="-1.432210">
        <time>2017-06-24T07:51:18Z</time>
      </trkpt>
      <trkpt lat="43.547500" lon="-1.432280">
        <time>2017-06-24T07:51:19Z</time>
      </trkpt>
      <trkpt lat="43.547740" lon="-1.432340">
        <time>2017-06-24T07:51:20Z</time>
      </trkpt>
      <trkpt lat="43.547990" lon="-1.432400">
        <time>2017-06-24T07:51:21Z</time>
      </trkpt>
      <trkpt lat="43.548260" lon="-1.432460">
        <time>2017-06-24T07:51:22Z</time>
      </trkpt>
      <trkpt lat="43.548500" lon="-1.432490">
        <time>2017-06-24T07:51:23Z</time>
      </trkpt>
      <trkpt lat="43.548780" lon="-1.432520">
        <time>2017-06-24T07:51:24Z</time>
      </trkpt>
      <trkpt lat="43.549020" lon="-1.432530">
        <time>2017-06-24T07:51:25Z</time>
      </trkpt>
      <trkpt lat="43.549270" lon="-1.432530">
        <time>2017-06-24T07:51:26Z</time>
      </trkpt>
      <trkpt lat="43.549550" lon="-1.432520">
        <time>2017-06-24T07:51:27Z</time>
      </trkpt>
      <trkpt lat="43.549790" lon="-1.432510">
        <time>2017-06-24T07:51:28Z</time>
      </trkpt>
      <trkpt lat="43.550040" lon="-1.432490">
        <time>2017-06-24T07:51:29Z</time>
      </trkpt>
      <trkpt lat="43.550290" lon="-1.432470">
        <time>2017-06-24T07:51:30Z</time>
      </trkpt>
      <trkpt lat="43.550540" lon="-1.432460">
        <time>2017-06-24T07:51:31Z</time>
      </trkpt>
      <trkpt lat="43.550800" lon="-1.432440">
        <time>2017-06-24T07:51:32Z</time>
      </trkpt>
      <trkpt lat="43.551040" lon="-1.432420">
        <time>2017-06-24T07:51:33Z</time>
      </trkpt>
      <trkpt lat="43.551280" lon="-1.432400">
        <time>2017-06-24T07:51:34Z</time>
      </trkpt>
      <trkpt lat="43.551550" lon="-1.432380">
        <time>2017-06-24T07:51:35Z</time>
      </trkpt>
      <trkpt lat="43.551780" lon="-1.432360">
        <time>2017-06-24T07:51:36Z</time>
      </trkpt>
      <trkpt lat="43.552030" lon="-1.432330">
        <time>2017-06-24T07:51:37Z</time>
      </trkpt>
      <trkpt lat="43.552300" lon="-1.432310">
        <time>2017-06-24T07:51:38Z</time>
      </trkpt>
      <trkpt lat="43.552540" lon="-1.432290">
        <time>2017-06-24T07:51:39Z</time>
      </trkpt>
      <trkpt lat="43.552810" lon="-1.432270">
        <time>2017-06-24T07:51:40Z</time>
      </trkpt>
      <trkpt lat="43.553050" lon="-1.432250">
        <time>2017-06-24T07:51:41Z</time>
      </trkpt>
      <trkpt lat="43.553310" lon="-1.432230">
        <time>2017-06-24T07:51:42Z</time>
      </trkpt>
      <trkpt lat="43.553570" lon="-1.432200">
        <time>2017-06-24T07:51:43Z</time>
      </trkpt>
      <trkpt lat="43.553820" lon="-1.432190">
        <time>2017-06-24T07:51:44Z</time>
      </trkpt>
      <trkpt lat="43.554070" lon="-1.432160">
        <time>2017-06-24T07:51:45Z</time>
      </trkpt>
      <trkpt lat="43.554330" lon="-1.432130">
        <time>2017-06-24T07:51:46Z</time>
      </trkpt>
      <trkpt lat="43.554590" lon="-1.432110">
        <time>2017-06-24T07:51:47Z</time>
      </trkpt>
      <trkpt lat="43.554870" lon="-1.432080">
        <time>2017-06-24T07:51:48Z</time>
      </trkpt>
      <trkpt lat="43.555110" lon="-1.432060">
        <time>2017-06-24T07:51:49Z</time>
      </trkpt>
      <trkpt lat="43.555370" lon="-1.432020">
        <time>2017-06-24T07:51:50Z</time>
      </trkpt>
      <trkpt lat="43.555660" lon="-1.431980">
        <time>2017-06-24T07:51:51Z</time>
      </trkpt>
      <trkpt lat="43.555900" lon="-1.431920">
        <time>2017-06-24T07:51:52Z</time>
      </trkpt>
      <trkpt lat="43.556160" lon="-1.431840">
        <time>2017-06-24T07:51:53Z</time>
      </trkpt>
      <trkpt lat="43.556440" lon="-1.431750">
        <time>2017-06-24T07:51:54Z</time>
      </trkpt>
      <trkpt lat="43.556680" lon="-1.431670">
        <time>2017-06-24T07:51:55Z</time>
      </trkpt>
      <trkpt lat="43.556940" lon="-1.431570">
        <time>2017-06-24T07:51:56Z</time>
      </trkpt>
      <trkpt lat="43.557180" lon="-1.431480">
        <time>2017-06-24T07:51:57Z</time>
      </trkpt>
      <trkpt lat="43.557440" lon="-1.431370">
        <time>2017-06-24T07:51:58Z</time>
      </trkpt>
      <trkpt lat="43.557710" lon="-1.431260">
        <time>2017-06-24T07:51:59Z</time>
      </trkpt>
      <trkpt lat="43.557950" lon="-1.431160">
        <time>2017-06-24T07:52:00Z</time>
      </trkpt>
      <trkpt lat="43.558200" lon="-1.431050">
        <time>2017-06-24T07:52:01Z</time>
      </trkpt>
      <trkpt lat="43.558460" lon="-1.430940">
        <time>2017-06-24T07:52:02Z</time>
      </trkpt>
      <trkpt lat="43.558720" lon="-1.430830">
        <time>2017-06-24T07:52:03Z</time>
      </trkpt>
      <trkpt lat="43.559000" lon="-1.430730">
        <time>2017-06-24T07:52:04Z</time>
      </trkpt>
      <trkpt lat="43.559250" lon="-1.430650">
        <time>2017-06-24T07:52:05Z</time>
      </trkpt>
      <trkpt lat="43.559510" lon="-1.430570">
        <time>2017-06-24T07:52:06Z</time>
      </trkpt>
      <trkpt lat="43.559800" lon="-1.430490">
        <time>2017-06-24T07:52:07Z</time>
      </trkpt>
      <trkpt lat="43.560050" lon="-1.430430">
        <time>2017-06-24T07:52:08Z</time>
      </trkpt>
      <trkpt lat="43.560320" lon="-1.430370">
        <time>2017-06-24T07:52:09Z</time>
      </trkpt>
      <trkpt lat="43.560610" lon="-1.430320">
        <time>2017-06-24T07:52:10Z</time>
      </trkpt>
      <trkpt lat="43.560860" lon="-1.430280">
        <time>2017-06-24T07:52:11Z</time>
      </trkpt>
      <trkpt lat="43.561140" lon="-1.430240">
        <time>2017-06-24T07:52:12Z</time>
      </trkpt>
      <trkpt lat="43.561390" lon="-1.430220">
        <time>2017-06-24T07:52:13Z</time>
      </trkpt>
      <trkpt lat="43.561650" lon="-1.430210">
        <time>2017-06-24T07:52:14Z</time>
      </trkpt>
      <trkpt lat="43.561930" lon="-1.430200">
        <time>2017-06-24T07:52:15Z</time>
      </trkpt>
      <trkpt lat="43.562180" lon="-1.430200">
        <time>2017-06-24T07:52:16Z</time>
      </trkpt>
      <trkpt lat="43.562450" lon="-1.430210">
        <time>2017-06-24T07:52:17Z</time>
      </trkpt>
      <trkpt lat="43.562710" lon="-1.430230">
        <time>2017-06-24T07:52:18Z</time>
      </trkpt>
      <trkpt lat="43.562990" lon="-1.430250">
        <time>2017-06-24T07:52:19Z</time>
      </trkpt>
      <trkpt lat="43.563280" lon="-1.430280">
        <time>2017-06-24T07:52:20Z</time>
      </trkpt>
      <trkpt lat="43.563530" lon="-1.430320">
        <time>2017-06-24T07:52:21Z</time>
      </trkpt>
      <trkpt lat="43.563790" lon="-1.430360">
        <time>2017-06-24T07:52:22Z</time>
      </trkpt>
      <trkpt lat="43.564080" lon="-1.430420">
        <time>2017-06-24T07:52:23Z</time>
      </trkpt>
      <trkpt lat="43.564330" lon="-1.430470">
        <time>2017-06-24T07:52:24Z</time>
      </trkpt>
      <trkpt lat="43.564590" lon="-1.430520">
        <time>2017-06-24T07:52:25Z</time>
      </trkpt>
      <trkpt lat="43.564870" lon="-1.430580">
        <time>2017-06-24T07:52:26Z</time>
      </trkpt>
      <trkpt lat="43.565110" lon="-1.430620">
        <time>2017-06-24T07:52:27Z</time>
      </trkpt>
      <trkpt lat="43.565390" lon="-1.430680">
        <time>2017-06-24T07:52:28Z</time>
      </trkpt>
      <trkpt lat="43.565640" lon="-1.430730">
        <time>2017-06-24T07:52:29Z</time>
      </trkpt>
      <trkpt lat="43.565900" lon="-1.430770">
        <time>2017-06-24T07:52:30Z</time>
      </trkpt>
      <trkpt lat="43.566180" lon="-1.430800">
        <time>2017-06-24T07:52:31Z</time>
      </trkpt>
      <trkpt lat="43.566420" lon="-1.430830">
        <time>2017-06-24T07:52:32Z</time>
      </trkpt>
      <trkpt lat="43.566690" lon="-1.430840">
        <time>2017-06-24T07:52:33Z</time>
      </trkpt>
      <trkpt lat="43.566950" lon="-1.430840">
        <time>2017-06-24T07:52:34Z</time>
      </trkpt>
      <trkpt lat="43.567210" lon="-1.430830">
        <time>2017-06-24T07:52:35Z</time>
      </trkpt>
      <trkpt lat="43.567500" lon="-1.430810">
        <time>2017-06-24T07:52:36Z</time>
      </trkpt>
      <trkpt lat="43.567750" lon="-1.430790">
        <time>2017-06-24T07:52:37Z</time>
      </trkpt>
      <trkpt lat="43.568010" lon="-1.430760">
        <time>2017-06-24T07:52:38Z</time>
      </trkpt>
      <trkpt lat="43.568290" lon="-1.430720">
        <time>2017-06-24T07:52:39Z</time>
      </trkpt>
      <trkpt lat="43.568540" lon="-1.430680">
        <time>2017-06-24T07:52:40Z</time>
      </trkpt>
      <trkpt lat="43.568800" lon="-1.430640">
        <time>2017-06-24T07:52:41Z</time>
      </trkpt>
      <trkpt lat="43.569080" lon="-1.430590">
        <time>2017-06-24T07:52:42Z</time>
      </trkpt>
      <trkpt lat="43.569320" lon="-1.430550">
        <time>2017-06-24T07:52:43Z</time>
      </trkpt>
      <trkpt lat="43.569590" lon="-1.430500">
        <time>2017-06-24T07:52:44Z</time>
      </trkpt>
      <trkpt lat="43.569820" lon="-1.430450">
        <time>2017-06-24T07:52:45Z</time>
      </trkpt>
      <trkpt lat="43.570080" lon="-1.430390">
        <time>2017-06-24T07:52:46Z</time>
      </trkpt>
      <trkpt lat="43.570350" lon="-1.430330">
        <time>2017-06-24T07:52:47Z</time>
      </trkpt>
      <trkpt lat="43.570580" lon="-1.430280">
        <time>2017-06-24T07:52:48Z</time>
      </trkpt>
      <trkpt lat="43.570830" lon="-1.430210">
        <time>2017-06-24T07:52:49Z</time>
      </trkpt>
      <trkpt lat="43.571090" lon="-1.430150">
        <time>2017-06-24T07:52:50Z</time>
      </trkpt>
      <trkpt lat="43.571340" lon="-1.430070">
        <time>2017-06-24T07:52:51Z</time>
      </trkpt>
      <trkpt lat="43.571610" lon="-1.429970">
        <time>2017-06-24T07:52:52Z</time>
      </trkpt>
      <trkpt lat="43.571850" lon="-1.429890">
        <time>2017-06-24T07:52:53Z</time>
      </trkpt>
      <trkpt lat="43.572110" lon="-1.429780">
        <time>2017-06-24T07:52:54Z</time>
      </trkpt>
      <trkpt lat="43.572380" lon="-1.429660">
        <time>2017-06-24T07:52:55Z</time>
      </trkpt>
      <trkpt lat="43.572610" lon="-1.429550">
        <time>2017-06-24T07:52:56Z</time>
      </trkpt>
      <trkpt lat="43.572860" lon="-1.429430">
        <time>2017-06-24T07:52:57Z</time>
      </trkpt>
      <trkpt lat="43.573130" lon="-1.429270">
        <time>2017-06-24T07:52:58Z</time>
      </trkpt>
      <trkpt lat="43.573360" lon="-1.429140">
        <time>2017-06-24T07:52:59Z</time>
      </trkpt>
      <trkpt lat="43.573630" lon="-1.428970">
        <time>2017-06-24T07:53:00Z</time>
      </trkpt>
      <trkpt lat="43.573860" lon="-1.428800">
        <time>2017-06-24T07:53:01Z</time>
      </trkpt>
      <trkpt lat="43.574110" lon="-1.428620">
        <time>2017-06-24T07:53:02Z</time>
      </trkpt>
      <trkpt lat="43.574370" lon="-1.428430">
        <time>2017-06-24T07:53:03Z</time>
      </trkpt>
      <trkpt lat="43.574600" lon="-1.428240">
        <time>2017-06-24T07:53:04Z</time>
      </trkpt>
      <trkpt lat="43.574850" lon="-1.428020">
        <time>2017-06-24T07:53:05Z</time>
      </trkpt>
      <trkpt lat="43.575090" lon="-1.427800">
        <time>2017-06-24T07:53:06Z</time>
      </trkpt>
      <trkpt lat="43.575330" lon="-1.427570">
        <time>2017-06-24T07:53:07Z</time>
      </trkpt>
      <trkpt lat="43.575580" lon="-1.427310">
        <time>2017-06-24T07:53:08Z</time>
      </trkpt>
      <trkpt lat="43.575790" lon="-1.427080">
        <time>2017-06-24T07:53:09Z</time>
      </trkpt>
      <trkpt lat="43.576000" lon="-1.426830">
        <time>2017-06-24T07:53:10Z</time>
      </trkpt>
      <trkpt lat="43.576220" lon="-1.426570">
        <time>2017-06-24T07:53:11Z</time>
      </trkpt>
      <trkpt lat="43.576420" lon="-1.426350">
        <time>2017-06-24T07:53:12Z</time>
      </trkpt>
      <trkpt lat="43.576630" lon="-1.426110">
        <time>2017-06-24T07:53:13Z</time>
      </trkpt>
      <trkpt lat="43.576850" lon="-1.425860">
        <time>2017-06-24T07:53:14Z</time>
      </trkpt>
      <trkpt lat="43.577050" lon="-1.425650">
        <time>2017-06-24T07:53:15Z</time>
      </trkpt>
      <trkpt lat="43.577260" lon="-1.425410">
        <time>2017-06-24T07:53:16Z</time>
      </trkpt>
      <trkpt lat="43.577450" lon="-1.425210">
        <time>2017-06-24T07:53:17Z</time>
      </trkpt>
      <trkpt lat="43.577660" lon="-1.424990">
        <time>2017-06-24T07:53:18Z</time>
      </trkpt>
      <trkpt lat="43.577880" lon="-1.424760">
        <time>2017-06-24T07:53:19Z</time>
      </trkpt>
      <trkpt lat="43.578070" lon="-1.424570">
        <time>2017-06-24T07:53:20Z</time>
      </trkpt>
      <trkpt lat="43.578280" lon="-1.424370">
        <time>2017-06-24T07:53:21Z</time>
      </trkpt>
      <trkpt lat="43.578490" lon="-1.424170">
        <time>2017-06-24T07:53:22Z</time>
      </trkpt>
      <trkpt lat="43.578700" lon="-1.423970">
        <time>2017-06-24T07:53:23Z</time>
      </trkpt>
      <trkpt lat="43.578930" lon="-1.423760">
        <time>2017-06-24T07:53:24Z</time>
      </trkpt>
      <trkpt lat="43.579140" lon="-1.423590">
        <time>2017-06-24T07:53:25Z</time>
      </trkpt>
      <trkpt lat="43.579360" lon="-1.423410">
        <time>2017-06-24T07:53:26Z</time>
      </trkpt>
      <trkpt lat="43.579600" lon="-1.423210">
        <time>2017-06-24T07:53:27Z</time>
      </trkpt>
      <trkpt lat="43.579800" lon="-1.423050">
        <time>2017-06-24T07:53:28Z</time>
      </trkpt>
      <trkpt lat="43.580020" lon="-1.422880">
        <time>2017-06-24T07:53:29Z</time>
      </trkpt>
      <trkpt lat="43.580260" lon="-1.422710">
        <time>2017-06-24T07:53:30Z</time>
      </trkpt>
      <trkpt lat="43.580470" lon="-1.422560">
        <time>2017-06-24T07:53:31Z</time>
      </trkpt>
      <trkpt lat="43.580720" lon="-1.422400">
        <time>2017-06-24T07:53:32Z</time>
      </trkpt>
      <trkpt lat="43.580950" lon="-1.422270">
        <time>2017-06-24T07:53:33Z</time>
      </trkpt>
      <trkpt lat="43.581200" lon="-1.422130">
        <time>2017-06-24T07:53:34Z</time>
      </trkpt>
      <trkpt lat="43.581460" lon="-1.421980">
        <time>2017-06-24T07:53:35Z</time>
      </trkpt>
      <trkpt lat="43.581690" lon="-1.421850">
        <time>2017-06-24T07:53:36Z</time>
      </trkpt>
      <trkpt lat="43.581940" lon="-1.421700">
        <time>2017-06-24T07:53:37Z</time>
      </trkpt>
      <trkpt lat="43.582190" lon="-1.421570">
        <time>2017-06-24T07:53:38Z</time>
      </trkpt>
      <trkpt lat="43.582450" lon="-1.421440">
        <time>2017-06-24T07:53:39Z</time>
      </trkpt>
      <trkpt lat="43.582720" lon="-1.421310">
        <time>2017-06-24T07:53:40Z</time>
      </trkpt>
      <trkpt lat="43.582960" lon="-1.421200">
        <time>2017-06-24T07:53:41Z</time>
      </trkpt>
      <trkpt lat="43.583210" lon="-1.421080">
        <time>2017-06-24T07:53:42Z</time>
      </trkpt>
      <trkpt lat="43.583480" lon="-1.420950">
        <time>2017-06-24T07:53:43Z</time>
      </trkpt>
      <trkpt lat="43.583720" lon="-1.420840">
        <time>2017-06-24T07:53:44Z</time>
      </trkpt>
      <trkpt lat="43.583990" lon="-1.420740">
        <time>2017-06-24T07:53:45Z</time>
      </trkpt>
      <trkpt lat="43.584270" lon="-1.420630">
        <time>2017-06-24T07:53:46Z</time>
      </trkpt>
      <trkpt lat="43.584520" lon="-1.420550">
        <time>2017-06-24T07:53:47Z</time>
      </trkpt>
      <trkpt lat="43.584810" lon="-1.420450">
        <time>2017-06-24T07:53:48Z</time>
      </trkpt>
      <trkpt lat="43.585060" lon="-1.420370">
        <time>2017-06-24T07:53:49Z</time>
      </trkpt>
      <trkpt lat="43.585330" lon="-1.420290">
        <time>2017-06-24T07:53:50Z</time>
      </trkpt>
      <trkpt lat="43.585630" lon="-1.420200">
        <time>2017-06-24T07:53:51Z</time>
      </trkpt>
      <trkpt lat="43.585880" lon="-1.420130">
        <time>2017-06-24T07:53:52Z</time>
      </trkpt>
      <trkpt lat="43.586150" lon="-1.420060">
        <time>2017-06-24T07:53:53Z</time>
      </trkpt>
      <trkpt lat="43.586420" lon="-1.419990">
        <time>2017-06-24T07:53:54Z</time>
      </trkpt>
      <trkpt lat="43.586690" lon="-1.419920">
        <time>2017-06-24T07:53:55Z</time>
      </trkpt>
      <trkpt lat="43.586980" lon="-1.419830">
        <time>2017-06-24T07:53:56Z</time>
      </trkpt>
      <trkpt lat="43.587220" lon="-1.419750">
        <time>2017-06-24T07:53:57Z</time>
      </trkpt>
      <trkpt lat="43.587480" lon="-1.419660">
        <time>2017-06-24T07:53:58Z</time>
      </trkpt>
      <trkpt lat="43.587760" lon="-1.419560">
        <time>2017-06-24T07:53:59Z</time>
      </trkpt>
      <trkpt lat="43.588010" lon="-1.419460">
        <time>2017-06-24T07:54:00Z</time>
      </trkpt>
      <trkpt lat="43.588270" lon="-1.419360">
        <time>2017-06-24T07:54:01Z</time>
      </trkpt>
      <trkpt lat="43.588550" lon="-1.419240">
        <time>2017-06-24T07:54:02Z</time>
      </trkpt>
      <trkpt lat="43.588790" lon="-1.419120">
        <time>2017-06-24T07:54:03Z</time>
      </trkpt>
      <trkpt lat="43.589060" lon="-1.418980">
        <time>2017-06-24T07:54:04Z</time>
      </trkpt>
      <trkpt lat="43.589310" lon="-1.418850">
        <time>2017-06-24T07:54:05Z</time>
      </trkpt>
      <trkpt lat="43.589570" lon="-1.418720">
        <time>2017-06-24T07:54:06Z</time>
      </trkpt>
      <trkpt lat="43.589860" lon="-1.418570">
        <time>2017-06-24T07:54:07Z</time>
      </trkpt>
      <trkpt lat="43.590110" lon="-1.418430">
        <time>2017-06-24T07:54:08Z</time>
      </trkpt>
      <trkpt lat="43.590370" lon="-1.418280">
        <time>2017-06-24T07:54:09Z</time>
      </trkpt>
      <trkpt lat="43.590640" lon="-1.418120">
        <time>2017-06-24T07:54:10Z</time>
      </trkpt>
      <trkpt lat="43.590900" lon="-1.417970">
        <time>2017-06-24T07:54:11Z</time>
      </trkpt>
      <trkpt lat="43.591170" lon="-1.417800">
        <time>2017-06-24T07:54:12Z</time>
      </trkpt>
      <trkpt lat="43.591410" lon="-1.417650">
        <time>2017-06-24T07:54:13Z</time>
      </trkpt>
      <trkpt lat="43.591670" lon="-1.417490">
        <time>2017-06-24T07:54:14Z</time>
      </trkpt>
      <trkpt lat="43.591950" lon="-1.417320">
        <time>2017-06-24T07:54:15Z</time>
      </trkpt>
      <trkpt lat="43.592200" lon="-1.417180">
        <time>2017-06-24T07:54:16Z</time>
      </trkpt>
      <trkpt lat="43.592470" lon="-1.417040">
        <time>2017-06-24T07:54:17Z</time>
      </trkpt>
      <trkpt lat="43.592750" lon="-1.416890">
        <time>2017-06-24T07:54:18Z</time>
      </trkpt>
      <trkpt lat="43.593000" lon="-1.416770">
        <time>2017-06-24T07:54:19Z</time>
      </trkpt>
      <trkpt lat="43.593280" lon="-1.416620">
        <time>2017-06-24T07:54:20Z</time>
      </trkpt>
      <trkpt lat="43.593530" lon="-1.416500">
        <time>2017-06-24T07:54:21Z</time>
      </trkpt>
      <trkpt lat="43.593800" lon="-1.416380">
        <time>2017-06-24T07:54:22Z</time>
      </trkpt>
      <trkpt lat="43.594090" lon="-1.416260">
        <time>2017-06-24T07:54:23Z</time>
      </trkpt>
      <trkpt lat="43.594350" lon="-1.416160">
        <time>2017-06-24T07:54:24Z</time>
      </trkpt>
      <trkpt lat="43.594620" lon="-1.416070">
        <time>2017-06-24T07:54:25Z</time>
      </trkpt>
      <trkpt lat="43.594900" lon="-1.415970">
        <time>2017-06-24T07:54:26Z</time>
      </trkpt>
      <trkpt lat="43.595170" lon="-1.415890">
        <time>2017-06-24T07:54:27Z</time>
      </trkpt>
      <trkpt lat="43.595470" lon="-1.415810">
        <time>2017-06-24T07:54:28Z</time>
      </trkpt>
      <trkpt lat="43.595740" lon="-1.415740">
        <time>2017-06-24T07:54:29Z</time>
      </trkpt>
      <trkpt lat="43.596020" lon="-1.415670">
        <time>2017-06-24T07:54:30Z</time>
      </trkpt>
      <trkpt lat="43.596320" lon="-1.415610">
        <time>2017-06-24T07:54:31Z</time>
      </trkpt>
      <trkpt lat="43.596580" lon="-1.415560">
        <time>2017-06-24T07:54:32Z</time>
      </trkpt>
      <trkpt lat="43.596860" lon="-1.415510">
        <time>2017-06-24T07:54:33Z</time>
      </trkpt>
      <trkpt lat="43.597160" lon="-1.415460">
        <time>2017-06-24T07:54:34Z</time>
      </trkpt>
      <trkpt lat="43.597430" lon="-1.415430">
        <time>2017-06-24T07:54:35Z</time>
      </trkpt>
      <trkpt lat="43.597730" lon="-1.415400">
        <time>2017-06-24T07:54:36Z</time>
      </trkpt>
      <trkpt lat="43.597990" lon="-1.415380">
        <time>2017-06-24T07:54:37Z</time>
      </trkpt>
      <trkpt lat="43.598270" lon="-1.415370">
        <time>2017-06-24T07:54:38Z</time>
      </trkpt>
      <trkpt lat="43.598560" lon="-1.415360">
        <time>2017-06-24T07:54:39Z</time>
      </trkpt>
      <trkpt lat="43.598820" lon="-1.415370">
        <time>2017-06-24T07:54:40Z</time>
      </trkpt>
      <trkpt lat="43.599110" lon="-1.415380">
        <time>2017-06-24T07:54:41Z</time>
      </trkpt>
      <trkpt lat="43.599400" lon="-1.415410">
        <time>2017-06-24T07:54:42Z</time>
      </trkpt>
      <trkpt lat="43.599690" lon="-1.415430">
        <time>2017-06-24T07:54:43Z</time>
      </trkpt>
      <trkpt lat="43.600010" lon="-1.415470">
        <time>2017-06-24T07:54:44Z</time>
      </trkpt>
      <trkpt lat="43.600280" lon="-1.415520">
        <time>2017-06-24T07:54:45Z</time>
      </trkpt>
      <trkpt lat="43.600580" lon="-1.415570">
        <time>2017-06-24T07:54:46Z</time>
      </trkpt>
      <trkpt lat="43.600880" lon="-1.415640">
        <time>2017-06-24T07:54:47Z</time>
      </trkpt>
      <trkpt lat="43.601150" lon="-1.415690">
        <time>2017-06-24T07:54:48Z</time>
      </trkpt>
      <trkpt lat="43.601440" lon="-1.415760">
        <time>2017-06-24T07:54:49Z</time>
      </trkpt>
      <trkpt lat="43.601740" lon="-1.415820">
        <time>2017-06-24T07:54:50Z</time>
      </trkpt>
      <trkpt lat="43.602000" lon="-1.415880">
        <time>2017-06-24T07:54:51Z</time>
      </trkpt>
      <trkpt lat="43.602310" lon="-1.415940">
        <time>2017-06-24T07:54:52Z</time>
      </trkpt>
      <trkpt lat="43.602570" lon="-1.416000">
        <time>2017-06-24T07:54:53Z</time>
      </trkpt>
      <trkpt lat="43.602860" lon="-1.416040">
        <time>2017-06-24T07:54:54Z</time>
      </trkpt>
      <trkpt lat="43.603170" lon="-1.416080">
        <time>2017-06-24T07:54:55Z</time>
      </trkpt>
      <trkpt lat="43.603430" lon="-1.416110">
        <time>2017-06-24T07:54:56Z</time>
      </trkpt>
      <trkpt lat="43.603720" lon="-1.416130">
        <time>2017-06-24T07:54:57Z</time>
      </trkpt>
      <trkpt lat="43.604010" lon="-1.416140">
        <time>2017-06-24T07:54:58Z</time>
      </trkpt>
      <trkpt lat="43.604300" lon="-1.416150">
        <time>2017-06-24T07:54:59Z</time>
      </trkpt>
      <trkpt lat="43.604610" lon="-1.416150">
        <time>2017-06-24T07:55:00Z</time>
      </trkpt>
      <trkpt lat="43.604880" lon="-1.416140">
        <time>2017-06-24T07:55:01Z</time>
      </trkpt>
      <trkpt lat="43.605180" lon="-1.416110">
        <time>2017-06-24T07:55:02Z</time>
      </trkpt>
      <trkpt lat="43.605500" lon="-1.416080">
        <time>2017-06-24T07:55:03Z</time>
      </trkpt>
      <trkpt lat="43.605780" lon="-1.416040">
        <time>2017-06-24T07:55:04Z</time>
      </trkpt>
      <trkpt lat="43.606080" lon="-1.415990">
        <time>2017-06-24T07:55:05Z</time>
      </trkpt>
      <trkpt lat="43.606400" lon="-1.415920">
        <time>2017-06-24T07:55:06Z</time>
      </trkpt>
      <trkpt lat="43.606680" lon="-1.415860">
        <time>2017-06-24T07:55:07Z</time>
      </trkpt>
      <trkpt lat="43.606980" lon="-1.415780">
        <time>2017-06-24T07:55:08Z</time>
      </trkpt>
      <trkpt lat="43.607250" lon="-1.415700">
        <time>2017-06-24T07:55:09Z</time>
      </trkpt>
      <trkpt lat="43.607540" lon="-1.415610">
        <time>2017-06-24T07:55:10Z</time>
      </trkpt>
      <trkpt lat="43.607840" lon="-1.415510">
        <time>2017-06-24T07:55:11Z</time>
      </trkpt>
      <trkpt lat="43.608100" lon="-1.415420">
        <time>2017-06-24T07:55:12Z</time>
      </trkpt>
      <trkpt lat="43.608380" lon="-1.415310">
        <time>2017-06-24T07:55:13Z</time>
      </trkpt>
      <trkpt lat="43.608650" lon="-1.415210">
        <time>2017-06-24T07:55:14Z</time>
      </trkpt>
      <trkpt lat="43.608930" lon="-1.415100">
        <time>2017-06-24T07:55:15Z</time>
      </trkpt>
      <trkpt lat="43.609220" lon="-1.414980">
        <time>2017-06-24T07:55:16Z</time>
      </trkpt>
      <trkpt lat="43.609480" lon="-1.414880">
        <time>2017-06-24T07:55:17Z</time>
      </trkpt>
      <trkpt lat="43.609760" lon="-1.414780">
        <time>2017-06-24T07:55:18Z</time>
      </trkpt>
      <trkpt lat="43.610050" lon="-1.414670">
        <time>2017-06-24T07:55:19Z</time>
      </trkpt>
      <trkpt lat="43.610310" lon="-1.414580">
        <time>2017-06-24T07:55:20Z</time>
      </trkpt>
      <trkpt lat="43.610580" lon="-1.414470">
        <time>2017-06-24T07:55:21Z</time>
      </trkpt>
      <trkpt lat="43.610870" lon="-1.414360">
        <time>2017-06-24T07:55:22Z</time>
      </trkpt>
      <trkpt lat="43.611130" lon="-1.414270">
        <time>2017-06-24T07:55:23Z</time>
      </trkpt>
      <trkpt lat="43.611420" lon="-1.414150">
        <time>2017-06-24T07:55:24Z</time>
      </trkpt>
      <trkpt lat="43.611670" lon="-1.414050">
        <time>2017-06-24T07:55:25Z</time>
      </trkpt>
      <trkpt lat="43.611940" lon="-1.413940">
        <time>2017-06-24T07:55:26Z</time>
      </trkpt>
      <trkpt lat="43.612230" lon="-1.413800">
        <time>2017-06-24T07:55:27Z</time>
      </trkpt>
      <trkpt lat="43.612470" lon="-1.413670">
        <time>2017-06-24T07:55:28Z</time>
      </trkpt>
      <trkpt lat="43.612730" lon="-1.413530">
        <time>2017-06-24T07:55:29Z</time>
      </trkpt>
      <trkpt lat="43.612990" lon="-1.413380">
        <time>2017-06-24T07:55:30Z</time>
      </trkpt>
      <trkpt lat="43.613250" lon="-1.413220">
        <time>2017-06-24T07:55:31Z</time>
      </trkpt>
      <trkpt lat="43.613520" lon="-1.413040">
        <time>2017-06-24T07:55:32Z</time>
      </trkpt>
      <trkpt lat="43.613750" lon="-1.412870">
        <time>2017-06-24T07:55:33Z</time>
      </trkpt>
      <trkpt lat="43.614000" lon="-1.412680">
        <time>2017-06-24T07:55:34Z</time>
      </trkpt>
      <trkpt lat="43.614260" lon="-1.412480">
        <time>2017-06-24T07:55:35Z</time>
      </trkpt>
      <trkpt lat="43.614480" lon="-1.412280">
        <time>2017-06-24T07:55:36Z</time>
      </trkpt>
      <trkpt lat="43.614720" lon="-1.412060">
        <time>2017-06-24T07:55:37Z</time>
      </trkpt>
      <trkpt lat="43.614960" lon="-1.411820">
        <time>2017-06-24T07:55:38Z</time>
      </trkpt>
      <trkpt lat="43.615170" lon="-1.411610">
        <time>2017-06-24T07:55:39Z</time>
      </trkpt>
      <trkpt lat="43.615400" lon="-1.411360">
        <time>2017-06-24T07:55:40Z</time>
      </trkpt>
      <trkpt lat="43.615600" lon="-1.411130">
        <time>2017-06-24T07:55:41Z</time>
      </trkpt>
      <trkpt lat="43.615810" lon="-1.410880">
        <time>2017-06-24T07:55:42Z</time>
      </trkpt>
      <trkpt lat="43.616030" lon="-1.410610">
        <time>2017-06-24T07:55:43Z</time>
      </trkpt>
      <trkpt lat="43.616230" lon="-1.410350">
        <time>2017-06-24T07:55:44Z</time>
      </trkpt>
      <trkpt lat="43.616430" lon="-1.410070">
        <time>2017-06-24T07:55:45Z</time>
      </trkpt>
      <trkpt lat="43.616620" lon="-1.409790">
        <time>2017-06-24T07:55:46Z</time>
      </trkpt>
      <trkpt lat="43.616800" lon="-1.409500">
        <time>2017-06-24T07:55:47Z</time>
      </trkpt>
      <trkpt lat="43.617000" lon="-1.409190">
        <time>2017-06-24T07:55:48Z</time>
      </trkpt>
      <trkpt lat="43.617160" lon="-1.408910">
        <time>2017-06-24T07:55:49Z</time>
      </trkpt>
      <trkpt lat="43.617340" lon="-1.408620">
        <time>2017-06-24T07:55:50Z</time>
      </trkpt>
      <trkpt lat="43.617520" lon="-1.408300">
        <time>2017-06-24T07:55:51Z</time>
      </trkpt>
      <trkpt lat="43.617690" lon="-1.408020">
        <time>2017-06-24T07:55:52Z</time>
      </trkpt>
      <trkpt lat="43.617870" lon="-1.407720">
        <time>2017-06-24T07:55:53Z</time>
      </trkpt>
      <trkpt lat="43.618070" lon="-1.407400">
        <time>2017-06-24T07:55:54Z</time>
      </trkpt>
      <trkpt lat="43.618240" lon="-1.407120">
        <time>2017-06-24T07:55:55Z</time>
      </trkpt>
      <trkpt lat="43.618440" lon="-1.406800">
        <time>2017-06-24T07:55:56Z</time>
      </trkpt>
      <trkpt lat="43.618610" lon="-1.406550">
        <time>2017-06-24T07:55:57Z</time>
      </trkpt>
      <trkpt lat="43.618800" lon="-1.406280">
        <time>2017-06-24T07:55:58Z</time>
      </trkpt>
      <trkpt lat="43.618990" lon="-1.406010">
        <time>2017-06-24T07:55:59Z</time>
      </trkpt>
      <trkpt lat="43.619160" lon="-1.405770">
        <time>2017-06-24T07:56:00Z</time>
      </trkpt>
      <trkpt lat="43.619350" lon="-1.405530">
        <time>2017-06-24T07:56:01Z</time>
      </trkpt>
      <trkpt lat="43.619530" lon="-1.405280">
        <time>2017-06-24T07:56:02Z</time>
      </trkpt>
      <trkpt lat="43.619720" lon="-1.405040">
        <time>2017-06-24T07:56:03Z</time>
      </trkpt>
      <trkpt lat="43.619930" lon="-1.404790">
        <time>2017-06-24T07:56:04Z</time>
      </trkpt>
      <trkpt lat="43.620100" lon="-1.404580">
        <time>2017-06-24T07:56:05Z</time>
      </trkpt>
      <trkpt lat="43.620290" lon="-1.404360">
        <time>2017-06-24T07:56:06Z</time>
      </trkpt>
      <trkpt lat="43.620490" lon="-1.404140">
        <time>2017-06-24T07:56:07Z</time>
      </trkpt>
      <trkpt lat="43.620660" lon="-1.403960">
        <time>2017-06-24T07:56:08Z</time>
      </trkpt>
      <trkpt lat="43.620840" lon="-1.403770">
        <time>2017-06-24T07:56:09Z</time>
      </trkpt>
      <trkpt lat="43.621030" lon="-1.403570">
        <time>2017-06-24T07:56:10Z</time>
      </trkpt>
      <trkpt lat="43.621190" lon="-1.403400">
        <time>2017-06-24T07:56:11Z</time>
      </trkpt>
      <trkpt lat="43.621370" lon="-1.403220">
        <time>2017-06-24T07:56:12Z</time>
      </trkpt>
      <trkpt lat="43.621530" lon="-1.403050">
        <time>2017-06-24T07:56:13Z</time>
      </trkpt>
      <trkpt lat="43.621690" lon="-1.402880">
        <time>2017-06-24T07:56:14Z</time>
      </trkpt>
      <trkpt lat="43.621850" lon="-1.402700">
        <time>2017-06-24T07:56:15Z</time>
      </trkpt>
      <trkpt lat="43.621990" lon="-1.402550">
        <time>2017-06-24T07:56:16Z</time>
      </trkpt>
      <trkpt lat="43.622130" lon="-1.402400">
        <time>2017-06-24T07:56:17Z</time>
      </trkpt>
      <trkpt lat="43.622270" lon="-1.402240">
        <time>2017-06-24T07:56:18Z</time>
      </trkpt>
      <trkpt lat="43.622400" lon="-1.402080">
        <time>2017-06-24T07:56:19Z</time>
      </trkpt>
      <trkpt lat="43.622530" lon="-1.401920">
        <time>2017-06-24T07:56:20Z</time>
      </trkpt>
      <trkpt lat="43.622650" lon="-1.401780">
        <time>2017-06-24T07:56:21Z</time>
      </trkpt>
      <trkpt lat="43.622760" lon="-1.401640">
        <time>2017-06-24T07:56:22Z</time>
      </trkpt>
      <trkpt lat="43.622870" lon="-1.401500">
        <time>2017-06-24T07:56:23Z</time>
      </trkpt>
      <trkpt lat="43.622970" lon="-1.401400">
        <time>2017-06-24T07:56:24Z</time>
      </trkpt>
      <trkpt lat="43.623070" lon="-1.401280">
        <time>2017-06-24T07:56:25Z</time>
      </trkpt>
      <trkpt lat="43.623170" lon="-1.401160">
        <time>2017-06-24T07:56:26Z</time>
      </trkpt>
      <trkpt lat="43.623260" lon="-1.401050">
        <time>2017-06-24T07:56:27Z</time>
      </trkpt>
      <trkpt lat="43.623350" lon="-1.400950">
        <time>2017-06-24T07:56:28Z</time>
      </trkpt>
      <trkpt lat="43.623430" lon="-1.400870">
        <time>2017-06-24T07:56:29Z</time>
      </trkpt>
      <trkpt lat="43.623500" lon="-1.400780">
        <time>2017-06-24T07:56:30Z</time>
      </trkpt>
      <trkpt lat="43.623570" lon="-1.400700">
        <time>2017-06-24T07:56:31Z</time>
      </trkpt>
      <trkpt lat="43.623620" lon="-1.400640">
        <time>2017-06-24T07:56:32Z</time>
      </trkpt>
      <trkpt lat="43.623680" lon="-1.400580">
        <time>2017-06-24T07:56:33Z</time>
      </trkpt>
      <trkpt lat="43.623730" lon="-1.400530">
        <time>2017-06-24T07:56:34Z</time>
      </trkpt>
      <trkpt lat="43.623770" lon="-1.400480">
        <time>2017-06-24T07:56:35Z</time>
      </trkpt>
      <trkpt lat="43.623810" lon="-1.400440">
        <time>2017-06-24T07:56:36Z</time>
      </trkpt>
      <trkpt lat="43.623830" lon="-1.400420">
        <time>2017-06-24T07:56:37Z</time>
      </trkpt>
      <trkpt lat="43.623850" lon="-1.400410">
        <time>2017-06-24T07:56:38Z</time>
      </trkpt>
      <trkpt lat="43.623870" lon="-1.400380">
        <time>2017-06-24T07:56:39Z</time>
      </trkpt>
      <trkpt lat="43.623880" lon="-1.400360">
        <time>2017-06-24T07:56:40Z</time>
      </trkpt>
      <trkpt lat="43.623880" lon="-1.400350">
        <time>2017-06-24T07:56:41Z</time>
      </trkpt>
      <trkpt lat="43.623880" lon="-1.400340">
        <time>2017-06-24T07:56:42Z</time>
      </trkpt>
      <trkpt lat="43.623880" lon="-1.400340">
        <time>2017-06-24T07:56:43Z</time>
      </trkpt>
      <trkpt lat="43.623880" lon="-1.400340">
        <time>2017-06-24T07:56:44Z</time>
      </trkpt>
      <trkpt lat="43.623880" lon="-1.400340">
        <time>2017-06-24T07:56:45Z</time>
      </trkpt>
      <trkpt lat="43.623880" lon="-1.400340">
        <time>2017-06-24T07:56:46Z</time>
      </trkpt>
      <trkpt lat="43.623880" lon="-1.400340">
        <time>2017-06-24T07:56:47Z</time>
      </trkpt>
      <trkpt lat="43.623880" lon="-1.400350">
        <time>2017-06-24T07:56:48Z</time>
      </trkpt>
      <trkpt lat="43.623880" lon="-1.400340">
        <time>2017-06-24T07:56:49Z</time>
      </trkpt>
      <trkpt lat="43.623890" lon="-1.400340">
        <time>2017-06-24T07:56:50Z</time>
      </trkpt>
      <trkpt lat="43.623890" lon="-1.400330">
        <time>2017-06-24T07:56:51Z</time>
      </trkpt>
      <trkpt lat="43.623890" lon="-1.400330">
        <time>2017-06-24T07:56:52Z</time>
      </trkpt>
      <trkpt lat="43.623890" lon="-1.400330">
        <time>2017-06-24T07:56:53Z</time>
      </trkpt>
      <trkpt lat="43.623890" lon="-1.400330">
        <time>2017-06-24T07:56:54Z</time>
      </trkpt>
      <trkpt lat="43.623890" lon="-1.400330">
        <time>2017-06-24T07:56:55Z</time>
      </trkpt>
      <trkpt lat="43.623890" lon="-1.400330">
        <time>2017-06-24T07:56:56Z</time>
      </trkpt>
      <trkpt lat="43.623890" lon="-1.400330">
        <time>2017-06-24T07:56:57Z</time>
      </trkpt>
      <trkpt lat="43.623890" lon="-1.400330">
        <time>2017-06-24T07:56:58Z</time>
      </trkpt>
      <trkpt lat="43.623890" lon="-1.400330">
        <time>2017-06-24T07:56:59Z</time>
      </trkpt>
      <trkpt lat="43.623890" lon="-1.400330">
        <time>2017-06-24T07:57:00Z</time>
      </trkpt>
      <trkpt lat="43.623890" lon="-1.400330">
        <time>2017-06-24T07:57:01Z</time>
      </trkpt>
      <trkpt lat="43.623890" lon="-1.400330">
        <time>2017-06-24T07:57:02Z</time>
      </trkpt>
      <trkpt lat="43.623890" lon="-1.400330">
        <time>2017-06-24T07:57:03Z</time>
      </trkpt>
      <trkpt lat="43.623890" lon="-1.400330">
        <time>2017-06-24T07:57:04Z</time>
      </trkpt>
      <trkpt lat="43.623890" lon="-1.400330">
        <time>2017-06-24T07:57:05Z</time>
      </trkpt>
      <trkpt lat="43.623890" lon="-1.400330">
        <time>2017-06-24T07:57:06Z</time>
      </trkpt>
      <trkpt lat="43.623890" lon="-1.400330">
        <time>2017-06-24T07:57:07Z</time>
      </trkpt>
      <trkpt lat="43.623890" lon="-1.400330">
        <time>2017-06-24T07:57:08Z</time>
      </trkpt>
      <trkpt lat="43.623890" lon="-1.400330">
        <time>2017-06-24T07:57:09Z</time>
      </trkpt>
      <trkpt lat="43.623890" lon="-1.400330">
        <time>2017-06-24T07:57:10Z</time>
      </trkpt>
      <trkpt lat="43.623890" lon="-1.400330">
        <time>2017-06-24T07:57:11Z</time>
      </trkpt>
      <trkpt lat="43.623890" lon="-1.400330">
        <time>2017-06-24T07:57:12Z</time>
      </trkpt>
      <trkpt lat="43.623890" lon="-1.400330">
        <time>2017-06-24T07:57:13Z</time>
      </trkpt>
      <trkpt lat="43.623890" lon="-1.400330">
        <time>2017-06-24T07:57:14Z</time>
      </trkpt>
      <trkpt lat="43.623890" lon="-1.400330">
        <time>2017-06-24T07:57:15Z</time>
      </trkpt>
      <trkpt lat="43.623890" lon="-1.400330">
        <time>2017-06-24T07:57:16Z</time>
      </trkpt>
      <trkpt lat="43.623890" lon="-1.400330">
        <time>2017-06-24T07:57:17Z</time>
      </trkpt>
      <trkpt lat="43.623890" lon="-1.400330">
        <time>2017-06-24T07:57:18Z</time>
      </trkpt>
      <trkpt lat="43.623890" lon="-1.400330">
        <time>2017-06-24T07:57:19Z</time>
      </trkpt>
      <trkpt lat="43.623890" lon="-1.400330">
        <time>2017-06-24T07:57:20Z</time>
      </trkpt>
      <trkpt lat="43.623890" lon="-1.400330">
        <time>2017-06-24T07:57:21Z</time>
      </trkpt>
      <trkpt lat="43.623890" lon="-1.400330">
        <time>2017-06-24T07:57:22Z</time>
      </trkpt>
      <trkpt lat="43.623890" lon="-1.400330">
        <time>2017-06-24T07:57:23Z</time>
      </trkpt>
      <trkpt lat="43.623890" lon="-1.400330">
        <time>2017-06-24T07:57:24Z</time>
      </trkpt>
      <trkpt lat="43.623890" lon="-1.400330">
        <time>2017-06-24T07:57:25Z</time>
      </trkpt>
      <trkpt lat="43.623890" lon="-1.400330">
        <time>2017-06-24T07:57:26Z</time>
      </trkpt>
      <trkpt lat="43.623900" lon="-1.400320">
        <time>2017-06-24T07:57:27Z</time>
      </trkpt>
      <trkpt lat="43.623910" lon="-1.400310">
        <time>2017-06-24T07:57:28Z</time>
      </trkpt>
      <trkpt lat="43.623930" lon="-1.400290">
        <time>2017-06-24T07:57:29Z</time>
      </trkpt>
      <trkpt lat="43.623970" lon="-1.400240">
        <time>2017-06-24T07:57:30Z</time>
      </trkpt>
      <trkpt lat="43.624060" lon="-1.400140">
        <time>2017-06-24T07:57:31Z</time>
      </trkpt>
      <trkpt lat="43.624140" lon="-1.400070">
        <time>2017-06-24T07:57:32Z</time>
      </trkpt>
      <trkpt lat="43.624230" lon="-1.400000">
        <time>2017-06-24T07:57:33Z</time>
      </trkpt>
      <trkpt lat="43.624340" lon="-1.399920">
        <time>2017-06-24T07:57:34Z</time>
      </trkpt>
      <trkpt lat="43.624450" lon="-1.399830">
        <time>2017-06-24T07:57:35Z</time>
      </trkpt>
      <trkpt lat="43.624550" lon="-1.399750">
        <time>2017-06-24T07:57:36Z</time>
      </trkpt>
      <trkpt lat="43.624660" lon="-1.399660">
        <time>2017-06-24T07:57:37Z</time>
      </trkpt>
      <trkpt lat="43.624790" lon="-1.399560">
        <time>2017-06-24T07:57:38Z</time>
      </trkpt>
      <trkpt lat="43.624930" lon="-1.399450">
        <time>2017-06-24T07:57:39Z</time>
      </trkpt>
      <trkpt lat="43.625090" lon="-1.399320">
        <time>2017-06-24T07:57:40Z</time>
      </trkpt>
      <trkpt lat="43.625220" lon="-1.399210">
        <time>2017-06-24T07:57:41Z</time>
      </trkpt>
      <trkpt lat="43.625350" lon="-1.399090">
        <time>2017-06-24T07:57:42Z</time>
      </trkpt>
      <trkpt lat="43.625490" lon="-1.398960">
        <time>2017-06-24T07:57:43Z</time>
      </trkpt>
      <trkpt lat="43.625620" lon="-1.398840">
        <time>2017-06-24T07:57:44Z</time>
      </trkpt>
      <trkpt lat="43.625760" lon="-1.398700">
        <time>2017-06-24T07:57:45Z</time>
      </trkpt>
      <trkpt lat="43.625910" lon="-1.398550">
        <time>2017-06-24T07:57:46Z</time>
      </trkpt>
      <trkpt lat="43.626040" lon="-1.398400">
        <time>2017-06-24T07:57:47Z</time>
      </trkpt>
      <trkpt lat="43.626200" lon="-1.398230">
        <time>2017-06-24T07:57:48Z</time>
      </trkpt>
      <trkpt lat="43.626350" lon="-1.398060">
        <time>2017-06-24T07:57:49Z</time>
      </trkpt>
      <trkpt lat="43.626520" lon="-1.397880">
        <time>2017-06-24T07:57:50Z</time>
      </trkpt>
      <trkpt lat="43.626720" lon="-1.397680">
        <time>2017-06-24T07:57:51Z</time>
      </trkpt>
      <trkpt lat="43.626880" lon="-1.397490">
        <time>2017-06-24T07:57:52Z</time>
      </trkpt>
      <trkpt lat="43.627060" lon="-1.397290">
        <time>2017-06-24T07:57:53Z</time>
      </trkpt>
      <trkpt lat="43.627230" lon="-1.397090">
        <time>2017-06-24T07:57:54Z</time>
      </trkpt>
      <trkpt lat="43.627410" lon="-1.396880">
        <time>2017-06-24T07:57:55Z</time>
      </trkpt>
      <trkpt lat="43.627600" lon="-1.396660">
        <time>2017-06-24T07:57:56Z</time>
      </trkpt>
      <trkpt lat="43.627780" lon="-1.396440">
        <time>2017-06-24T07:57:57Z</time>
      </trkpt>
      <trkpt lat="43.627970" lon="-1.396210">
        <time>2017-06-24T07:57:58Z</time>
      </trkpt>
      <trkpt lat="43.628180" lon="-1.395960">
        <time>2017-06-24T07:57:59Z</time>
      </trkpt>
      <trkpt lat="43.628370" lon="-1.395730">
        <time>2017-06-24T07:58:00Z</time>
      </trkpt>
      <trkpt lat="43.628570" lon="-1.395490">
        <time>2017-06-24T07:58:01Z</time>
      </trkpt>
      <trkpt lat="43.628790" lon="-1.395220">
        <time>2017-06-24T07:58:02Z</time>
      </trkpt>
      <trkpt lat="43.628990" lon="-1.394980">
        <time>2017-06-24T07:58:03Z</time>
      </trkpt>
      <trkpt lat="43.629220" lon="-1.394700">
        <time>2017-06-24T07:58:04Z</time>
      </trkpt>
      <trkpt lat="43.629410" lon="-1.394470">
        <time>2017-06-24T07:58:05Z</time>
      </trkpt>
      <trkpt lat="43.629620" lon="-1.394210">
        <time>2017-06-24T07:58:06Z</time>
      </trkpt>
      <trkpt lat="43.629850" lon="-1.393940">
        <time>2017-06-24T07:58:07Z</time>
      </trkpt>
      <trkpt lat="43.630050" lon="-1.393710">
        <time>2017-06-24T07:58:08Z</time>
      </trkpt>
      <trkpt lat="43.630260" lon="-1.393450">
        <time>2017-06-24T07:58:09Z</time>
      </trkpt>
      <trkpt lat="43.630480" lon="-1.393200">
        <time>2017-06-24T07:58:10Z</time>
      </trkpt>
      <trkpt lat="43.630700" lon="-1.392940">
        <time>2017-06-24T07:58:11Z</time>
      </trkpt>
      <trkpt lat="43.630930" lon="-1.392660">
        <time>2017-06-24T07:58:12Z</time>
      </trkpt>
      <trkpt lat="43.631130" lon="-1.392420">
        <time>2017-06-24T07:58:13Z</time>
      </trkpt>
      <trkpt lat="43.631340" lon="-1.392170">
        <time>2017-06-24T07:58:14Z</time>
      </trkpt>
      <trkpt lat="43.631560" lon="-1.391910">
        <time>2017-06-24T07:58:15Z</time>
      </trkpt>
      <trkpt lat="43.631760" lon="-1.391680">
        <time>2017-06-24T07:58:16Z</time>
      </trkpt>
      <trkpt lat="43.631970" lon="-1.391430">
        <time>2017-06-24T07:58:17Z</time>
      </trkpt>
      <trkpt lat="43.632200" lon="-1.391160">
        <time>2017-06-24T07:58:18Z</time>
      </trkpt>
      <trkpt lat="43.632400" lon="-1.390920">
        <time>2017-06-24T07:58:19Z</time>
      </trkpt>
      <trkpt lat="43.632630" lon="-1.390650">
        <time>2017-06-24T07:58:20Z</time>
      </trkpt>
      <trkpt lat="43.632840" lon="-1.390410">
        <time>2017-06-24T07:58:21Z</time>
      </trkpt>
      <trkpt lat="43.633060" lon="-1.390150">
        <time>2017-06-24T07:58:22Z</time>
      </trkpt>
      <trkpt lat="43.633300" lon="-1.389870">
        <time>2017-06-24T07:58:23Z</time>
      </trkpt>
      <trkpt lat="43.633500" lon="-1.389620">
        <time>2017-06-24T07:58:24Z</time>
      </trkpt>
      <trkpt lat="43.633730" lon="-1.389360">
        <time>2017-06-24T07:58:25Z</time>
      </trkpt>
      <trkpt lat="43.633950" lon="-1.389100">
        <time>2017-06-24T07:58:26Z</time>
      </trkpt>
      <trkpt lat="43.634170" lon="-1.388840">
        <time>2017-06-24T07:58:27Z</time>
      </trkpt>
      <trkpt lat="43.634410" lon="-1.388550">
        <time>2017-06-24T07:58:28Z</time>
      </trkpt>
      <trkpt lat="43.634620" lon="-1.388300">
        <time>2017-06-24T07:58:29Z</time>
      </trkpt>
      <trkpt lat="43.634850" lon="-1.388030">
        <time>2017-06-24T07:58:30Z</time>
      </trkpt>
      <trkpt lat="43.635090" lon="-1.387750">
        <time>2017-06-24T07:58:31Z</time>
      </trkpt>
      <trkpt lat="43.635300" lon="-1.387500">
        <time>2017-06-24T07:58:32Z</time>
      </trkpt>
      <trkpt lat="43.635530" lon="-1.387230">
        <time>2017-06-24T07:58:33Z</time>
      </trkpt>
      <trkpt lat="43.635780" lon="-1.386950">
        <time>2017-06-24T07:58:34Z</time>
      </trkpt>
      <trkpt lat="43.635990" lon="-1.386700">
        <time>2017-06-24T07:58:35Z</time>
      </trkpt>
      <trkpt lat="43.636230" lon="-1.386410">
        <time>2017-06-24T07:58:36Z</time>
      </trkpt>
      <trkpt lat="43.636440" lon="-1.386170">
        <time>2017-06-24T07:58:37Z</time>
      </trkpt>
      <trkpt lat="43.636670" lon="-1.385900">
        <time>2017-06-24T07:58:38Z</time>
      </trkpt>
      <trkpt lat="43.636910" lon="-1.385610">
        <time>2017-06-24T07:58:39Z</time>
      </trkpt>
      <trkpt lat="43.637130" lon="-1.385360">
        <time>2017-06-24T07:58:40Z</time>
      </trkpt>
      <trkpt lat="43.637360" lon="-1.385100">
        <time>2017-06-24T07:58:41Z</time>
      </trkpt>
      <trkpt lat="43.637580" lon="-1.384830">
        <time>2017-06-24T07:58:42Z</time>
      </trkpt>
      <trkpt lat="43.637810" lon="-1.384560">
        <time>2017-06-24T07:58:43Z</time>
      </trkpt>
      <trkpt lat="43.638050" lon="-1.384270">
        <time>2017-06-24T07:58:44Z</time>
      </trkpt>
      <trkpt lat="43.638250" lon="-1.384010">
        <time>2017-06-24T07:58:45Z</time>
      </trkpt>
      <trkpt lat="43.638470" lon="-1.383730">
        <time>2017-06-24T07:58:46Z</time>
      </trkpt>
      <trkpt lat="43.638710" lon="-1.383420">
        <time>2017-06-24T07:58:47Z</time>
      </trkpt>
      <trkpt lat="43.638910" lon="-1.383160">
        <time>2017-06-24T07:58:48Z</time>
      </trkpt>
      <trkpt lat="43.639130" lon="-1.382860">
        <time>2017-06-24T07:58:49Z</time>
      </trkpt>
      <trkpt lat="43.639350" lon="-1.382550">
        <time>2017-06-24T07:58:50Z</time>
      </trkpt>
      <trkpt lat="43.639550" lon="-1.382260">
        <time>2017-06-24T07:58:51Z</time>
      </trkpt>
      <trkpt lat="43.639760" lon="-1.381940">
        <time>2017-06-24T07:58:52Z</time>
      </trkpt>
      <trkpt lat="43.639950" lon="-1.381660">
        <time>2017-06-24T07:58:53Z</time>
      </trkpt>
      <trkpt lat="43.640140" lon="-1.381340">
        <time>2017-06-24T07:58:54Z</time>
      </trkpt>
      <trkpt lat="43.640350" lon="-1.381010">
        <time>2017-06-24T07:58:55Z</time>
      </trkpt>
      <trkpt lat="43.640520" lon="-1.380710">
        <time>2017-06-24T07:58:56Z</time>
      </trkpt>
      <trkpt lat="43.640700" lon="-1.380390">
        <time>2017-06-24T07:58:57Z</time>
      </trkpt>
      <trkpt lat="43.640890" lon="-1.380060">
        <time>2017-06-24T07:58:58Z</time>
      </trkpt>
      <trkpt lat="43.641060" lon="-1.379730">
        <time>2017-06-24T07:58:59Z</time>
      </trkpt>
      <trkpt lat="43.641240" lon="-1.379390">
        <time>2017-06-24T07:59:00Z</time>
      </trkpt>
      <trkpt lat="43.641400" lon="-1.379080">
        <time>2017-06-24T07:59:01Z</time>
      </trkpt>
      <trkpt lat="43.641560" lon="-1.378740">
        <time>2017-06-24T07:59:02Z</time>
      </trkpt>
      <trkpt lat="43.641730" lon="-1.378390">
        <time>2017-06-24T07:59:03Z</time>
      </trkpt>
      <trkpt lat="43.641870" lon="-1.378070">
        <time>2017-06-24T07:59:04Z</time>
      </trkpt>
      <trkpt lat="43.642020" lon="-1.377740">
        <time>2017-06-24T07:59:05Z</time>
      </trkpt>
      <trkpt lat="43.642180" lon="-1.377370">
        <time>2017-06-24T07:59:06Z</time>
      </trkpt>
      <trkpt lat="43.642320" lon="-1.377050">
        <time>2017-06-24T07:59:07Z</time>
      </trkpt>
      <trkpt lat="43.642480" lon="-1.376680">
        <time>2017-06-24T07:59:08Z</time>
      </trkpt>
      <trkpt lat="43.642620" lon="-1.376360">
        <time>2017-06-24T07:59:09Z</time>
      </trkpt>
      <trkpt lat="43.642770" lon="-1.376020">
        <time>2017-06-24T07:59:10Z</time>
      </trkpt>
      <trkpt lat="43.642930" lon="-1.375650">
        <time>2017-06-24T07:59:11Z</time>
      </trkpt>
      <trkpt lat="43.643070" lon="-1.375330">
        <time>2017-06-24T07:59:12Z</time>
      </trkpt>
      <trkpt lat="43.643210" lon="-1.374990">
        <time>2017-06-24T07:59:13Z</time>
      </trkpt>
      <trkpt lat="43.643370" lon="-1.374650">
        <time>2017-06-24T07:59:14Z</time>
      </trkpt>
      <trkpt lat="43.643520" lon="-1.374320">
        <time>2017-06-24T07:59:15Z</time>
      </trkpt>
      <trkpt lat="43.643690" lon="-1.373960">
        <time>2017-06-24T07:59:16Z</time>
      </trkpt>
      <trkpt lat="43.643840" lon="-1.373660">
        <time>2017-06-24T07:59:17Z</time>
      </trkpt>
      <trkpt lat="43.644010" lon="-1.373330">
        <time>2017-06-24T07:59:18Z</time>
      </trkpt>
      <trkpt lat="43.644180" lon="-1.372990">
        <time>2017-06-24T07:59:19Z</time>
      </trkpt>
      <trkpt lat="43.644340" lon="-1.372690">
        <time>2017-06-24T07:59:20Z</time>
      </trkpt>
      <trkpt lat="43.644510" lon="-1.372380">
        <time>2017-06-24T07:59:21Z</time>
      </trkpt>
      <trkpt lat="43.644700" lon="-1.372040">
        <time>2017-06-24T07:59:22Z</time>
      </trkpt>
      <trkpt lat="43.644870" lon="-1.371760">
        <time>2017-06-24T07:59:23Z</time>
      </trkpt>
      <trkpt lat="43.645060" lon="-1.371430">
        <time>2017-06-24T07:59:24Z</time>
      </trkpt>
      <trkpt lat="43.645220" lon="-1.371140">
        <time>2017-06-24T07:59:25Z</time>
      </trkpt>
      <trkpt lat="43.645400" lon="-1.370830">
        <time>2017-06-24T07:59:26Z</time>
      </trkpt>
      <trkpt lat="43.645600" lon="-1.370510">
        <time>2017-06-24T07:59:27Z</time>
      </trkpt>
      <trkpt lat="43.645770" lon="-1.370220">
        <time>2017-06-24T07:59:28Z</time>
      </trkpt>
      <trkpt lat="43.645950" lon="-1.369920">
        <time>2017-06-24T07:59:29Z</time>
      </trkpt>
      <trkpt lat="43.646140" lon="-1.369610">
        <time>2017-06-24T07:59:30Z</time>
      </trkpt>
      <trkpt lat="43.646320" lon="-1.369300">
        <time>2017-06-24T07:59:31Z</time>
      </trkpt>
      <trkpt lat="43.646520" lon="-1.368970">
        <time>2017-06-24T07:59:32Z</time>
      </trkpt>
      <trkpt lat="43.646690" lon="-1.368680">
        <time>2017-06-24T07:59:33Z</time>
      </trkpt>
      <trkpt lat="43.646860" lon="-1.368360">
        <time>2017-06-24T07:59:34Z</time>
      </trkpt>
      <trkpt lat="43.647040" lon="-1.368010">
        <time>2017-06-24T07:59:35Z</time>
      </trkpt>
      <trkpt lat="43.647200" lon="-1.367690">
        <time>2017-06-24T07:59:36Z</time>
      </trkpt>
      <trkpt lat="43.647350" lon="-1.367360">
        <time>2017-06-24T07:59:37Z</time>
      </trkpt>
      <trkpt lat="43.647510" lon="-1.366990">
        <time>2017-06-24T07:59:38Z</time>
      </trkpt>
      <trkpt lat="43.647640" lon="-1.366670">
        <time>2017-06-24T07:59:39Z</time>
      </trkpt>
      <trkpt lat="43.647780" lon="-1.366300">
        <time>2017-06-24T07:59:40Z</time>
      </trkpt>
      <trkpt lat="43.647900" lon="-1.365960">
        <time>2017-06-24T07:59:41Z</time>
      </trkpt>
      <trkpt lat="43.648010" lon="-1.365610">
        <time>2017-06-24T07:59:42Z</time>
      </trkpt>
      <trkpt lat="43.648130" lon="-1.365220">
        <time>2017-06-24T07:59:43Z</time>
      </trkpt>
      <trkpt lat="43.648230" lon="-1.364880">
        <time>2017-06-24T07:59:44Z</time>
      </trkpt>
      <trkpt lat="43.648330" lon="-1.364510">
        <time>2017-06-24T07:59:45Z</time>
      </trkpt>
      <trkpt lat="43.648410" lon="-1.364140">
        <time>2017-06-24T07:59:46Z</time>
      </trkpt>
      <trkpt lat="43.648500" lon="-1.363770">
        <time>2017-06-24T07:59:47Z</time>
      </trkpt>
      <trkpt lat="43.648580" lon="-1.363370">
        <time>2017-06-24T07:59:48Z</time>
      </trkpt>
      <trkpt lat="43.648640" lon="-1.363020">
        <time>2017-06-24T07:59:49Z</time>
      </trkpt>
      <trkpt lat="43.648700" lon="-1.362640">
        <time>2017-06-24T07:59:50Z</time>
      </trkpt>
      <trkpt lat="43.648760" lon="-1.362220">
        <time>2017-06-24T07:59:51Z</time>
      </trkpt>
      <trkpt lat="43.648810" lon="-1.361850">
        <time>2017-06-24T07:59:52Z</time>
      </trkpt>
      <trkpt lat="43.648850" lon="-1.361470">
        <time>2017-06-24T07:59:53Z</time>
      </trkpt>
      <trkpt lat="43.648880" lon="-1.361060">
        <time>2017-06-24T07:59:54Z</time>
      </trkpt>
      <trkpt lat="43.648910" lon="-1.360690">
        <time>2017-06-24T07:59:55Z</time>
      </trkpt>
      <trkpt lat="43.648920" lon="-1.360280">
        <time>2017-06-24T07:59:56Z</time>
      </trkpt>
      <trkpt lat="43.648930" lon="-1.359910">
        <time>2017-06-24T07:59:57Z</time>
      </trkpt>
      <trkpt lat="43.648920" lon="-1.359530">
        <time>2017-06-24T07:59:58Z</time>
      </trkpt>
      <trkpt lat="43.648920" lon="-1.359120">
        <time>2017-06-24T07:59:59Z</time>
      </trkpt>
      <trkpt lat="43.648920" lon="-1.358760">
        <time>2017-06-24T08:00:00Z</time>
      </trkpt>
      <trkpt lat="43.648900" lon="-1.358370">
        <time>2017-06-24T08:00:01Z</time>
      </trkpt>
      <trkpt lat="43.648880" lon="-1.357990">
        <time>2017-06-24T08:00:02Z</time>
      </trkpt>
      <trkpt lat="43.648860" lon="-1.357610">
        <time>2017-06-24T08:00:03Z</time>
      </trkpt>
      <trkpt lat="43.648840" lon="-1.357200">
        <time>2017-06-24T08:00:04Z</time>
      </trkpt>
      <trkpt lat="43.648830" lon="-1.356840">
        <time>2017-06-24T08:00:05Z</time>
      </trkpt>
      <trkpt lat="43.648820" lon="-1.356470">
        <time>2017-06-24T08:00:06Z</time>
      </trkpt>
      <trkpt lat="43.648810" lon="-1.356050">
        <time>2017-06-24T08:00:07Z</time>
      </trkpt>
      <trkpt lat="43.648820" lon="-1.355690">
        <time>2017-06-24T08:00:08Z</time>
      </trkpt>
      <trkpt lat="43.648840" lon="-1.355300">
        <time>2017-06-24T08:00:09Z</time>
      </trkpt>
      <trkpt lat="43.648850" lon="-1.354880">
        <time>2017-06-24T08:00:10Z</time>
      </trkpt>
      <trkpt lat="43.648880" lon="-1.354530">
        <time>2017-06-24T08:00:11Z</time>
      </trkpt>
      <trkpt lat="43.648910" lon="-1.354130">
        <time>2017-06-24T08:00:12Z</time>
      </trkpt>
      <trkpt lat="43.648950" lon="-1.353780">
        <time>2017-06-24T08:00:13Z</time>
      </trkpt>
      <trkpt lat="43.649000" lon="-1.353400">
        <time>2017-06-24T08:00:14Z</time>
      </trkpt>
      <trkpt lat="43.649050" lon="-1.353010">
        <time>2017-06-24T08:00:15Z</time>
      </trkpt>
      <trkpt lat="43.649110" lon="-1.352660">
        <time>2017-06-24T08:00:16Z</time>
      </trkpt>
      <trkpt lat="43.649180" lon="-1.352300">
        <time>2017-06-24T08:00:17Z</time>
      </trkpt>
      <trkpt lat="43.649250" lon="-1.351930">
        <time>2017-06-24T08:00:18Z</time>
      </trkpt>
      <trkpt lat="43.649330" lon="-1.351570">
        <time>2017-06-24T08:00:19Z</time>
      </trkpt>
      <trkpt lat="43.649430" lon="-1.351190">
        <time>2017-06-24T08:00:20Z</time>
      </trkpt>
      <trkpt lat="43.649510" lon="-1.350870">
        <time>2017-06-24T08:00:21Z</time>
      </trkpt>
      <trkpt lat="43.649610" lon="-1.350520">
        <time>2017-06-24T08:00:22Z</time>
      </trkpt>
      <trkpt lat="43.649730" lon="-1.350160">
        <time>2017-06-24T08:00:23Z</time>
      </trkpt>
      <trkpt lat="43.649830" lon="-1.349850">
        <time>2017-06-24T08:00:24Z</time>
      </trkpt>
      <trkpt lat="43.649950" lon="-1.349510">
        <time>2017-06-24T08:00:25Z</time>
      </trkpt>
      <trkpt lat="43.650080" lon="-1.349160">
        <time>2017-06-24T08:00:26Z</time>
      </trkpt>
      <trkpt lat="43.650200" lon="-1.348850">
        <time>2017-06-24T08:00:27Z</time>
      </trkpt>
      <trkpt lat="43.650350" lon="-1.348490">
        <time>2017-06-24T08:00:28Z</time>
      </trkpt>
      <trkpt lat="43.650480" lon="-1.348180">
        <time>2017-06-24T08:00:29Z</time>
      </trkpt>
      <trkpt lat="43.650640" lon="-1.347860">
        <time>2017-06-24T08:00:30Z</time>
      </trkpt>
      <trkpt lat="43.650800" lon="-1.347510">
        <time>2017-06-24T08:00:31Z</time>
      </trkpt>
      <trkpt lat="43.650960" lon="-1.347200">
        <time>2017-06-24T08:00:32Z</time>
      </trkpt>
      <trkpt lat="43.651120" lon="-1.346870">
        <time>2017-06-24T08:00:33Z</time>
      </trkpt>
      <trkpt lat="43.651280" lon="-1.346540">
        <time>2017-06-24T08:00:34Z</time>
      </trkpt>
      <trkpt lat="43.651450" lon="-1.346200">
        <time>2017-06-24T08:00:35Z</time>
      </trkpt>
      <trkpt lat="43.651610" lon="-1.345850">
        <time>2017-06-24T08:00:36Z</time>
      </trkpt>
      <trkpt lat="43.651750" lon="-1.345520">
        <time>2017-06-24T08:00:37Z</time>
      </trkpt>
      <trkpt lat="43.651900" lon="-1.345170">
        <time>2017-06-24T08:00:38Z</time>
      </trkpt>
      <trkpt lat="43.652050" lon="-1.344790">
        <time>2017-06-24T08:00:39Z</time>
      </trkpt>
      <trkpt lat="43.652180" lon="-1.344440">
        <time>2017-06-24T08:00:40Z</time>
      </trkpt>
      <trkpt lat="43.652310" lon="-1.344070">
        <time>2017-06-24T08:00:41Z</time>
      </trkpt>
      <trkpt lat="43.652440" lon="-1.343660">
        <time>2017-06-24T08:00:42Z</time>
      </trkpt>
      <trkpt lat="43.652540" lon="-1.343300">
        <time>2017-06-24T08:00:43Z</time>
      </trkpt>
      <trkpt lat="43.652650" lon="-1.342880">
        <time>2017-06-24T08:00:44Z</time>
      </trkpt>
      <trkpt lat="43.652750" lon="-1.342510">
        <time>2017-06-24T08:00:45Z</time>
      </trkpt>
      <trkpt lat="43.652840" lon="-1.342110">
        <time>2017-06-24T08:00:46Z</time>
      </trkpt>
      <trkpt lat="43.652930" lon="-1.341680">
        <time>2017-06-24T08:00:47Z</time>
      </trkpt>
      <trkpt lat="43.653000" lon="-1.341300">
        <time>2017-06-24T08:00:48Z</time>
      </trkpt>
      <trkpt lat="43.653080" lon="-1.340890">
        <time>2017-06-24T08:00:49Z</time>
      </trkpt>
      <trkpt lat="43.653150" lon="-1.340490">
        <time>2017-06-24T08:00:50Z</time>
      </trkpt>
      <trkpt lat="43.653230" lon="-1.340100">
        <time>2017-06-24T08:00:51Z</time>
      </trkpt>
      <trkpt lat="43.653320" lon="-1.339690">
        <time>2017-06-24T08:00:52Z</time>
      </trkpt>
      <trkpt lat="43.653410" lon="-1.339330">
        <time>2017-06-24T08:00:53Z</time>
      </trkpt>
      <trkpt lat="43.653510" lon="-1.338950">
        <time>2017-06-24T08:00:54Z</time>
      </trkpt>
      <trkpt lat="43.653620" lon="-1.338540">
        <time>2017-06-24T08:00:55Z</time>
      </trkpt>
      <trkpt lat="43.653730" lon="-1.338190">
        <time>2017-06-24T08:00:56Z</time>
      </trkpt>
      <trkpt lat="43.653850" lon="-1.337820">
        <time>2017-06-24T08:00:57Z</time>
      </trkpt>
      <trkpt lat="43.653980" lon="-1.337430">
        <time>2017-06-24T08:00:58Z</time>
      </trkpt>
      <trkpt lat="43.654090" lon="-1.337090">
        <time>2017-06-24T08:00:59Z</time>
      </trkpt>
      <trkpt lat="43.654230" lon="-1.336720">
        <time>2017-06-24T08:01:00Z</time>
      </trkpt>
      <trkpt lat="43.654360" lon="-1.336400">
        <time>2017-06-24T08:01:01Z</time>
      </trkpt>
      <trkpt lat="43.654500" lon="-1.336060">
        <time>2017-06-24T08:01:02Z</time>
      </trkpt>
      <trkpt lat="43.654650" lon="-1.335700">
        <time>2017-06-24T08:01:03Z</time>
      </trkpt>
      <trkpt lat="43.654790" lon="-1.335390">
        <time>2017-06-24T08:01:04Z</time>
      </trkpt>
      <trkpt lat="43.654940" lon="-1.335060">
        <time>2017-06-24T08:01:05Z</time>
      </trkpt>
      <trkpt lat="43.655090" lon="-1.334730">
        <time>2017-06-24T08:01:06Z</time>
      </trkpt>
      <trkpt lat="43.655250" lon="-1.334420">
        <time>2017-06-24T08:01:07Z</time>
      </trkpt>
      <trkpt lat="43.655430" lon="-1.334080">
        <time>2017-06-24T08:01:08Z</time>
      </trkpt>
      <trkpt lat="43.655600" lon="-1.333800">
        <time>2017-06-24T08:01:09Z</time>
      </trkpt>
      <trkpt lat="43.655770" lon="-1.333510">
        <time>2017-06-24T08:01:10Z</time>
      </trkpt>
      <trkpt lat="43.655970" lon="-1.333190">
        <time>2017-06-24T08:01:11Z</time>
      </trkpt>
      <trkpt lat="43.656140" lon="-1.332920">
        <time>2017-06-24T08:01:12Z</time>
      </trkpt>
      <trkpt lat="43.656330" lon="-1.332640">
        <time>2017-06-24T08:01:13Z</time>
      </trkpt>
      <trkpt lat="43.656540" lon="-1.332340">
        <time>2017-06-24T08:01:14Z</time>
      </trkpt>
      <trkpt lat="43.656730" lon="-1.332090">
        <time>2017-06-24T08:01:15Z</time>
      </trkpt>
      <trkpt lat="43.656960" lon="-1.331800">
        <time>2017-06-24T08:01:16Z</time>
      </trkpt>
      <trkpt lat="43.657170" lon="-1.331550">
        <time>2017-06-24T08:01:17Z</time>
      </trkpt>
      <trkpt lat="43.657390" lon="-1.331290">
        <time>2017-06-24T08:01:18Z</time>
      </trkpt>
      <trkpt lat="43.657620" lon="-1.331000">
        <time>2017-06-24T08:01:19Z</time>
      </trkpt>
      <trkpt lat="43.657820" lon="-1.330750">
        <time>2017-06-24T08:01:20Z</time>
      </trkpt>
      <trkpt lat="43.658040" lon="-1.330490">
        <time>2017-06-24T08:01:21Z</time>
      </trkpt>
      <trkpt lat="43.658260" lon="-1.330240">
        <time>2017-06-24T08:01:22Z</time>
      </trkpt>
      <trkpt lat="43.658480" lon="-1.329990">
        <time>2017-06-24T08:01:23Z</time>
      </trkpt>
      <trkpt lat="43.658710" lon="-1.329720">
        <time>2017-06-24T08:01:24Z</time>
      </trkpt>
      <trkpt lat="43.658910" lon="-1.329490">
        <time>2017-06-24T08:01:25Z</time>
      </trkpt>
      <trkpt lat="43.659130" lon="-1.329230">
        <time>2017-06-24T08:01:26Z</time>
      </trkpt>
      <trkpt lat="43.659370" lon="-1.328970">
        <time>2017-06-24T08:01:27Z</time>
      </trkpt>
      <trkpt lat="43.659580" lon="-1.328750">
        <time>2017-06-24T08:01:28Z</time>
      </trkpt>
      <trkpt lat="43.659800" lon="-1.328510">
        <time>2017-06-24T08:01:29Z</time>
      </trkpt>
      <trkpt lat="43.660030" lon="-1.328260">
        <time>2017-06-24T08:01:30Z</time>
      </trkpt>
      <trkpt lat="43.660240" lon="-1.328030">
        <time>2017-06-24T08:01:31Z</time>
      </trkpt>
      <trkpt lat="43.660490" lon="-1.327780">
        <time>2017-06-24T08:01:32Z</time>
      </trkpt>
      <trkpt lat="43.660700" lon="-1.327570">
        <time>2017-06-24T08:01:33Z</time>
      </trkpt>
      <trkpt lat="43.660930" lon="-1.327350">
        <time>2017-06-24T08:01:34Z</time>
      </trkpt>
      <trkpt lat="43.661180" lon="-1.327110">
        <time>2017-06-24T08:01:35Z</time>
      </trkpt>
      <trkpt lat="43.661400" lon="-1.326900">
        <time>2017-06-24T08:01:36Z</time>
      </trkpt>
      <trkpt lat="43.661640" lon="-1.326690">
        <time>2017-06-24T08:01:37Z</time>
      </trkpt>
      <trkpt lat="43.661870" lon="-1.326470">
        <time>2017-06-24T08:01:38Z</time>
      </trkpt>
      <trkpt lat="43.662120" lon="-1.326260">
        <time>2017-06-24T08:01:39Z</time>
      </trkpt>
      <trkpt lat="43.662380" lon="-1.326030">
        <time>2017-06-24T08:01:40Z</time>
      </trkpt>
      <trkpt lat="43.662610" lon="-1.325830">
        <time>2017-06-24T08:01:41Z</time>
      </trkpt>
      <trkpt lat="43.662850" lon="-1.325620">
        <time>2017-06-24T08:01:42Z</time>
      </trkpt>
      <trkpt lat="43.663110" lon="-1.325400">
        <time>2017-06-24T08:01:43Z</time>
      </trkpt>
      <trkpt lat="43.663340" lon="-1.325220">
        <time>2017-06-24T08:01:44Z</time>
      </trkpt>
      <trkpt lat="43.663590" lon="-1.325030">
        <time>2017-06-24T08:01:45Z</time>
      </trkpt>
      <trkpt lat="43.663840" lon="-1.324820">
        <time>2017-06-24T08:01:46Z</time>
      </trkpt>
      <trkpt lat="43.664070" lon="-1.324640">
        <time>2017-06-24T08:01:47Z</time>
      </trkpt>
      <trkpt lat="43.664330" lon="-1.324440">
        <time>2017-06-24T08:01:48Z</time>
      </trkpt>
      <trkpt lat="43.664560" lon="-1.324270">
        <time>2017-06-24T08:01:49Z</time>
      </trkpt>
      <trkpt lat="43.664810" lon="-1.324100">
        <time>2017-06-24T08:01:50Z</time>
      </trkpt>
      <trkpt lat="43.665070" lon="-1.323900">
        <time>2017-06-24T08:01:51Z</time>
      </trkpt>
      <trkpt lat="43.665290" lon="-1.323730">
        <time>2017-06-24T08:01:52Z</time>
      </trkpt>
      <trkpt lat="43.665540" lon="-1.323550">
        <time>2017-06-24T08:01:53Z</time>
      </trkpt>
      <trkpt lat="43.665790" lon="-1.323360">
        <time>2017-06-24T08:01:54Z</time>
      </trkpt>
      <trkpt lat="43.666040" lon="-1.323170">
        <time>2017-06-24T08:01:55Z</time>
      </trkpt>
      <trkpt lat="43.666320" lon="-1.322970">
        <time>2017-06-24T08:01:56Z</time>
      </trkpt>
      <trkpt lat="43.666560" lon="-1.322790">
        <time>2017-06-24T08:01:57Z</time>
      </trkpt>
      <trkpt lat="43.666810" lon="-1.322600">
        <time>2017-06-24T08:01:58Z</time>
      </trkpt>
      <trkpt lat="43.667080" lon="-1.322400">
        <time>2017-06-24T08:01:59Z</time>
      </trkpt>
      <trkpt lat="43.667320" lon="-1.322230">
        <time>2017-06-24T08:02:00Z</time>
      </trkpt>
      <trkpt lat="43.667580" lon="-1.322040">
        <time>2017-06-24T08:02:01Z</time>
      </trkpt>
      <trkpt lat="43.667860" lon="-1.321840">
        <time>2017-06-24T08:02:02Z</time>
      </trkpt>
      <trkpt lat="43.668110" lon="-1.321660">
        <time>2017-06-24T08:02:03Z</time>
      </trkpt>
      <trkpt lat="43.668380" lon="-1.321450">
        <time>2017-06-24T08:02:04Z</time>
      </trkpt>
      <trkpt lat="43.668630" lon="-1.321260">
        <time>2017-06-24T08:02:05Z</time>
      </trkpt>
      <trkpt lat="43.668890" lon="-1.321050">
        <time>2017-06-24T08:02:06Z</time>
      </trkpt>
      <trkpt lat="43.669160" lon="-1.320830">
        <time>2017-06-24T08:02:07Z</time>
      </trkpt>
      <trkpt lat="43.669410" lon="-1.320620">
        <time>2017-06-24T08:02:08Z</time>
      </trkpt>
      <trkpt lat="43.669670" lon="-1.320410">
        <time>2017-06-24T08:02:09Z</time>
      </trkpt>
      <trkpt lat="43.669930" lon="-1.320180">
        <time>2017-06-24T08:02:10Z</time>
      </trkpt>
      <trkpt lat="43.670190" lon="-1.319950">
        <time>2017-06-24T08:02:11Z</time>
      </trkpt>
      <trkpt lat="43.670460" lon="-1.319700">
        <time>2017-06-24T08:02:12Z</time>
      </trkpt>
      <trkpt lat="43.670690" lon="-1.319480">
        <time>2017-06-24T08:02:13Z</time>
      </trkpt>
      <trkpt lat="43.670950" lon="-1.319230">
        <time>2017-06-24T08:02:14Z</time>
      </trkpt>
      <trkpt lat="43.671210" lon="-1.318960">
        <time>2017-06-24T08:02:15Z</time>
      </trkpt>
      <trkpt lat="43.671440" lon="-1.318730">
        <time>2017-06-24T08:02:16Z</time>
      </trkpt>
      <trkpt lat="43.671680" lon="-1.318490">
        <time>2017-06-24T08:02:17Z</time>
      </trkpt>
      <trkpt lat="43.671930" lon="-1.318220">
        <time>2017-06-24T08:02:18Z</time>
      </trkpt>
      <trkpt lat="43.672140" lon="-1.317990">
        <time>2017-06-24T08:02:19Z</time>
      </trkpt>
      <trkpt lat="43.672380" lon="-1.317720">
        <time>2017-06-24T08:02:20Z</time>
      </trkpt>
      <trkpt lat="43.672600" lon="-1.317480">
        <time>2017-06-24T08:02:21Z</time>
      </trkpt>
      <trkpt lat="43.672820" lon="-1.317220">
        <time>2017-06-24T08:02:22Z</time>
      </trkpt>
      <trkpt lat="43.673050" lon="-1.316940">
        <time>2017-06-24T08:02:23Z</time>
      </trkpt>
      <trkpt lat="43.673260" lon="-1.316700">
        <time>2017-06-24T08:02:24Z</time>
      </trkpt>
      <trkpt lat="43.673470" lon="-1.316450">
        <time>2017-06-24T08:02:25Z</time>
      </trkpt>
      <trkpt lat="43.673680" lon="-1.316190">
        <time>2017-06-24T08:02:26Z</time>
      </trkpt>
      <trkpt lat="43.673890" lon="-1.315930">
        <time>2017-06-24T08:02:27Z</time>
      </trkpt>
      <trkpt lat="43.674110" lon="-1.315650">
        <time>2017-06-24T08:02:28Z</time>
      </trkpt>
      <trkpt lat="43.674300" lon="-1.315410">
        <time>2017-06-24T08:02:29Z</time>
      </trkpt>
      <trkpt lat="43.674500" lon="-1.315150">
        <time>2017-06-24T08:02:30Z</time>
      </trkpt>
      <trkpt lat="43.674720" lon="-1.314870">
        <time>2017-06-24T08:02:31Z</time>
      </trkpt>
      <trkpt lat="43.674910" lon="-1.314610">
        <time>2017-06-24T08:02:32Z</time>
      </trkpt>
      <trkpt lat="43.675130" lon="-1.314330">
        <time>2017-06-24T08:02:33Z</time>
      </trkpt>
      <trkpt lat="43.675350" lon="-1.314030">
        <time>2017-06-24T08:02:34Z</time>
      </trkpt>
      <trkpt lat="43.675540" lon="-1.313760">
        <time>2017-06-24T08:02:35Z</time>
      </trkpt>
      <trkpt lat="43.675770" lon="-1.313450">
        <time>2017-06-24T08:02:36Z</time>
      </trkpt>
      <trkpt lat="43.675960" lon="-1.313160">
        <time>2017-06-24T08:02:37Z</time>
      </trkpt>
      <trkpt lat="43.676160" lon="-1.312850">
        <time>2017-06-24T08:02:38Z</time>
      </trkpt>
      <trkpt lat="43.676370" lon="-1.312520">
        <time>2017-06-24T08:02:39Z</time>
      </trkpt>
      <trkpt lat="43.676550" lon="-1.312220">
        <time>2017-06-24T08:02:40Z</time>
      </trkpt>
      <trkpt lat="43.676750" lon="-1.311890">
        <time>2017-06-24T08:02:41Z</time>
      </trkpt>
      <trkpt lat="43.676940" lon="-1.311550">
        <time>2017-06-24T08:02:42Z</time>
      </trkpt>
      <trkpt lat="43.677130" lon="-1.311220">
        <time>2017-06-24T08:02:43Z</time>
      </trkpt>
      <trkpt lat="43.677330" lon="-1.310870">
        <time>2017-06-24T08:02:44Z</time>
      </trkpt>
      <trkpt lat="43.677490" lon="-1.310550">
        <time>2017-06-24T08:02:45Z</time>
      </trkpt>
      <trkpt lat="43.677670" lon="-1.310200">
        <time>2017-06-24T08:02:46Z</time>
      </trkpt>
      <trkpt lat="43.677850" lon="-1.309830">
        <time>2017-06-24T08:02:47Z</time>
      </trkpt>
      <trkpt lat="43.678000" lon="-1.309500">
        <time>2017-06-24T08:02:48Z</time>
      </trkpt>
      <trkpt lat="43.678160" lon="-1.309140">
        <time>2017-06-24T08:02:49Z</time>
      </trkpt>
      <trkpt lat="43.678320" lon="-1.308750">
        <time>2017-06-24T08:02:50Z</time>
      </trkpt>
      <trkpt lat="43.678450" lon="-1.308400">
        <time>2017-06-24T08:02:51Z</time>
      </trkpt>
      <trkpt lat="43.678590" lon="-1.308000">
        <time>2017-06-24T08:02:52Z</time>
      </trkpt>
      <trkpt lat="43.678710" lon="-1.307650">
        <time>2017-06-24T08:02:53Z</time>
      </trkpt>
      <trkpt lat="43.678840" lon="-1.307270">
        <time>2017-06-24T08:02:54Z</time>
      </trkpt>
      <trkpt lat="43.678980" lon="-1.306880">
        <time>2017-06-24T08:02:55Z</time>
      </trkpt>
      <trkpt lat="43.679100" lon="-1.306520">
        <time>2017-06-24T08:02:56Z</time>
      </trkpt>
      <trkpt lat="43.679210" lon="-1.306140">
        <time>2017-06-24T08:02:57Z</time>
      </trkpt>
      <trkpt lat="43.679330" lon="-1.305760">
        <time>2017-06-24T08:02:58Z</time>
      </trkpt>
      <trkpt lat="43.679440" lon="-1.305380">
        <time>2017-06-24T08:02:59Z</time>
      </trkpt>
      <trkpt lat="43.679550" lon="-1.304970">
        <time>2017-06-24T08:03:00Z</time>
      </trkpt>
      <trkpt lat="43.679640" lon="-1.304600">
        <time>2017-06-24T08:03:01Z</time>
      </trkpt>
      <trkpt lat="43.679740" lon="-1.304210">
        <time>2017-06-24T08:03:02Z</time>
      </trkpt>
      <trkpt lat="43.679840" lon="-1.303810">
        <time>2017-06-24T08:03:03Z</time>
      </trkpt>
      <trkpt lat="43.679920" lon="-1.303450">
        <time>2017-06-24T08:03:04Z</time>
      </trkpt>
      <trkpt lat="43.679990" lon="-1.303060">
        <time>2017-06-24T08:03:05Z</time>
      </trkpt>
      <trkpt lat="43.680070" lon="-1.302650">
        <time>2017-06-24T08:03:06Z</time>
      </trkpt>
      <trkpt lat="43.680140" lon="-1.302290">
        <time>2017-06-24T08:03:07Z</time>
      </trkpt>
      <trkpt lat="43.680210" lon="-1.301880">
        <time>2017-06-24T08:03:08Z</time>
      </trkpt>
      <trkpt lat="43.680260" lon="-1.301520">
        <time>2017-06-24T08:03:09Z</time>
      </trkpt>
      <trkpt lat="43.680320" lon="-1.301130">
        <time>2017-06-24T08:03:10Z</time>
      </trkpt>
      <trkpt lat="43.680370" lon="-1.300710">
        <time>2017-06-24T08:03:11Z</time>
      </trkpt>
      <trkpt lat="43.680420" lon="-1.300350">
        <time>2017-06-24T08:03:12Z</time>
      </trkpt>
      <trkpt lat="43.680470" lon="-1.299960">
        <time>2017-06-24T08:03:13Z</time>
      </trkpt>
      <trkpt lat="43.680510" lon="-1.299570">
        <time>2017-06-24T08:03:14Z</time>
      </trkpt>
      <trkpt lat="43.680540" lon="-1.299180">
        <time>2017-06-24T08:03:15Z</time>
      </trkpt>
      <trkpt lat="43.680570" lon="-1.298760">
        <time>2017-06-24T08:03:16Z</time>
      </trkpt>
      <trkpt lat="43.680590" lon="-1.298390">
        <time>2017-06-24T08:03:17Z</time>
      </trkpt>
      <trkpt lat="43.680610" lon="-1.298000">
        <time>2017-06-24T08:03:18Z</time>
      </trkpt>
      <trkpt lat="43.680630" lon="-1.297580">
        <time>2017-06-24T08:03:19Z</time>
      </trkpt>
      <trkpt lat="43.680640" lon="-1.297220">
        <time>2017-06-24T08:03:20Z</time>
      </trkpt>
      <trkpt lat="43.680650" lon="-1.296820">
        <time>2017-06-24T08:03:21Z</time>
      </trkpt>
      <trkpt lat="43.680650" lon="-1.296410">
        <time>2017-06-24T08:03:22Z</time>
      </trkpt>
      <trkpt lat="43.680660" lon="-1.296030">
        <time>2017-06-24T08:03:23Z</time>
      </trkpt>
      <trkpt lat="43.680660" lon="-1.295610">
        <time>2017-06-24T08:03:24Z</time>
      </trkpt>
      <trkpt lat="43.680670" lon="-1.295230">
        <time>2017-06-24T08:03:25Z</time>
      </trkpt>
      <trkpt lat="43.680680" lon="-1.294820">
        <time>2017-06-24T08:03:26Z</time>
      </trkpt>
      <trkpt lat="43.680690" lon="-1.294380">
        <time>2017-06-24T08:03:27Z</time>
      </trkpt>
      <trkpt lat="43.680700" lon="-1.294000">
        <time>2017-06-24T08:03:28Z</time>
      </trkpt>
      <trkpt lat="43.680710" lon="-1.293600">
        <time>2017-06-24T08:03:29Z</time>
      </trkpt>
      <trkpt lat="43.680720" lon="-1.293200">
        <time>2017-06-24T08:03:30Z</time>
      </trkpt>
      <trkpt lat="43.680730" lon="-1.292800">
        <time>2017-06-24T08:03:31Z</time>
      </trkpt>
      <trkpt lat="43.680750" lon="-1.292370">
        <time>2017-06-24T08:03:32Z</time>
      </trkpt>
      <trkpt lat="43.680760" lon="-1.291990">
        <time>2017-06-24T08:03:33Z</time>
      </trkpt>
      <trkpt lat="43.680780" lon="-1.291580">
        <time>2017-06-24T08:03:34Z</time>
      </trkpt>
      <trkpt lat="43.680810" lon="-1.291150">
        <time>2017-06-24T08:03:35Z</time>
      </trkpt>
      <trkpt lat="43.680840" lon="-1.290770">
        <time>2017-06-24T08:03:36Z</time>
      </trkpt>
      <trkpt lat="43.680870" lon="-1.290370">
        <time>2017-06-24T08:03:37Z</time>
      </trkpt>
      <trkpt lat="43.680900" lon="-1.289940">
        <time>2017-06-24T08:03:38Z</time>
      </trkpt>
      <trkpt lat="43.680940" lon="-1.289570">
        <time>2017-06-24T08:03:39Z</time>
      </trkpt>
      <trkpt lat="43.680980" lon="-1.289140">
        <time>2017-06-24T08:03:40Z</time>
      </trkpt>
      <trkpt lat="43.681020" lon="-1.288770">
        <time>2017-06-24T08:03:41Z</time>
      </trkpt>
      <trkpt lat="43.681060" lon="-1.288370">
        <time>2017-06-24T08:03:42Z</time>
      </trkpt>
      <trkpt lat="43.681120" lon="-1.287940">
        <time>2017-06-24T08:03:43Z</time>
      </trkpt>
      <trkpt lat="43.681170" lon="-1.287580">
        <time>2017-06-24T08:03:44Z</time>
      </trkpt>
      <trkpt lat="43.681220" lon="-1.287190">
        <time>2017-06-24T08:03:45Z</time>
      </trkpt>
      <trkpt lat="43.681280" lon="-1.286790">
        <time>2017-06-24T08:03:46Z</time>
      </trkpt>
      <trkpt lat="43.681340" lon="-1.286400">
        <time>2017-06-24T08:03:47Z</time>
      </trkpt>
      <trkpt lat="43.681400" lon="-1.286000">
        <time>2017-06-24T08:03:48Z</time>
      </trkpt>
      <trkpt lat="43.681450" lon="-1.285640">
        <time>2017-06-24T08:03:49Z</time>
      </trkpt>
      <trkpt lat="43.681520" lon="-1.285270">
        <time>2017-06-24T08:03:50Z</time>
      </trkpt>
      <trkpt lat="43.681590" lon="-1.284860">
        <time>2017-06-24T08:03:51Z</time>
      </trkpt>
      <trkpt lat="43.681640" lon="-1.284500">
        <time>2017-06-24T08:03:52Z</time>
      </trkpt>
      <trkpt lat="43.681710" lon="-1.284110">
        <time>2017-06-24T08:03:53Z</time>
      </trkpt>
      <trkpt lat="43.681780" lon="-1.283690">
        <time>2017-06-24T08:03:54Z</time>
      </trkpt>
      <trkpt lat="43.681840" lon="-1.283320">
        <time>2017-06-24T08:03:55Z</time>
      </trkpt>
      <trkpt lat="43.681900" lon="-1.282900">
        <time>2017-06-24T08:03:56Z</time>
      </trkpt>
      <trkpt lat="43.681960" lon="-1.282520">
        <time>2017-06-24T08:03:57Z</time>
      </trkpt>
      <trkpt lat="43.682010" lon="-1.282120">
        <time>2017-06-24T08:03:58Z</time>
      </trkpt>
      <trkpt lat="43.682080" lon="-1.281680">
        <time>2017-06-24T08:03:59Z</time>
      </trkpt>
      <trkpt lat="43.682130" lon="-1.281290">
        <time>2017-06-24T08:04:00Z</time>
      </trkpt>
      <trkpt lat="43.682180" lon="-1.280880">
        <time>2017-06-24T08:04:01Z</time>
      </trkpt>
      <trkpt lat="43.682230" lon="-1.280460">
        <time>2017-06-24T08:04:02Z</time>
      </trkpt>
      <trkpt lat="43.682280" lon="-1.280040">
        <time>2017-06-24T08:04:03Z</time>
      </trkpt>
      <trkpt lat="43.682320" lon="-1.279590">
        <time>2017-06-24T08:04:04Z</time>
      </trkpt>
      <trkpt lat="43.682350" lon="-1.279200">
        <time>2017-06-24T08:04:05Z</time>
      </trkpt>
      <trkpt lat="43.682380" lon="-1.278780">
        <time>2017-06-24T08:04:06Z</time>
      </trkpt>
      <trkpt lat="43.682400" lon="-1.278330">
        <time>2017-06-24T08:04:07Z</time>
      </trkpt>
      <trkpt lat="43.682420" lon="-1.277940">
        <time>2017-06-24T08:04:08Z</time>
      </trkpt>
      <trkpt lat="43.682440" lon="-1.277520">
        <time>2017-06-24T08:04:09Z</time>
      </trkpt>
      <trkpt lat="43.682460" lon="-1.277080">
        <time>2017-06-24T08:04:10Z</time>
      </trkpt>
      <trkpt lat="43.682480" lon="-1.276690">
        <time>2017-06-24T08:04:11Z</time>
      </trkpt>
      <trkpt lat="43.682510" lon="-1.276230">
        <time>2017-06-24T08:04:12Z</time>
      </trkpt>
      <trkpt lat="43.682540" lon="-1.275830">
        <time>2017-06-24T08:04:13Z</time>
      </trkpt>
      <trkpt lat="43.682550" lon="-1.275410">
        <time>2017-06-24T08:04:14Z</time>
      </trkpt>
      <trkpt lat="43.682560" lon="-1.274970">
        <time>2017-06-24T08:04:15Z</time>
      </trkpt>
      <trkpt lat="43.682580" lon="-1.274580">
        <time>2017-06-24T08:04:16Z</time>
      </trkpt>
      <trkpt lat="43.682590" lon="-1.274160">
        <time>2017-06-24T08:04:17Z</time>
      </trkpt>
      <trkpt lat="43.682600" lon="-1.273750">
        <time>2017-06-24T08:04:18Z</time>
      </trkpt>
      <trkpt lat="43.682610" lon="-1.273330">
        <time>2017-06-24T08:04:19Z</time>
      </trkpt>
      <trkpt lat="43.682620" lon="-1.272890">
        <time>2017-06-24T08:04:20Z</time>
      </trkpt>
      <trkpt lat="43.682640" lon="-1.272510">
        <time>2017-06-24T08:04:21Z</time>
      </trkpt>
      <trkpt lat="43.682660" lon="-1.272100">
        <time>2017-06-24T08:04:22Z</time>
      </trkpt>
      <trkpt lat="43.682680" lon="-1.271660">
        <time>2017-06-24T08:04:23Z</time>
      </trkpt>
      <trkpt lat="43.682700" lon="-1.271280">
        <time>2017-06-24T08:04:24Z</time>
      </trkpt>
      <trkpt lat="43.682720" lon="-1.270870">
        <time>2017-06-24T08:04:25Z</time>
      </trkpt>
      <trkpt lat="43.682760" lon="-1.270440">
        <time>2017-06-24T08:04:26Z</time>
      </trkpt>
      <trkpt lat="43.682790" lon="-1.270070">
        <time>2017-06-24T08:04:27Z</time>
      </trkpt>
      <trkpt lat="43.682830" lon="-1.269630">
        <time>2017-06-24T08:04:28Z</time>
      </trkpt>
      <trkpt lat="43.682880" lon="-1.269250">
        <time>2017-06-24T08:04:29Z</time>
      </trkpt>
      <trkpt lat="43.682920" lon="-1.268840">
        <time>2017-06-24T08:04:30Z</time>
      </trkpt>
      <trkpt lat="43.682980" lon="-1.268400">
        <time>2017-06-24T08:04:31Z</time>
      </trkpt>
      <trkpt lat="43.683030" lon="-1.268020">
        <time>2017-06-24T08:04:32Z</time>
      </trkpt>
      <trkpt lat="43.683090" lon="-1.267620">
        <time>2017-06-24T08:04:33Z</time>
      </trkpt>
      <trkpt lat="43.683150" lon="-1.267230">
        <time>2017-06-24T08:04:34Z</time>
      </trkpt>
      <trkpt lat="43.683220" lon="-1.266830">
        <time>2017-06-24T08:04:35Z</time>
      </trkpt>
      <trkpt lat="43.683290" lon="-1.266420">
        <time>2017-06-24T08:04:36Z</time>
      </trkpt>
      <trkpt lat="43.683370" lon="-1.266050">
        <time>2017-06-24T08:04:37Z</time>
      </trkpt>
      <trkpt lat="43.683440" lon="-1.265660">
        <time>2017-06-24T08:04:38Z</time>
      </trkpt>
      <trkpt lat="43.683520" lon="-1.265240">
        <time>2017-06-24T08:04:39Z</time>
      </trkpt>
      <trkpt lat="43.683590" lon="-1.264870">
        <time>2017-06-24T08:04:40Z</time>
      </trkpt>
      <trkpt lat="43.683670" lon="-1.264470">
        <time>2017-06-24T08:04:41Z</time>
      </trkpt>
      <trkpt lat="43.683770" lon="-1.264050">
        <time>2017-06-24T08:04:42Z</time>
      </trkpt>
      <trkpt lat="43.683860" lon="-1.263690">
        <time>2017-06-24T08:04:43Z</time>
      </trkpt>
      <trkpt lat="43.683970" lon="-1.263290">
        <time>2017-06-24T08:04:44Z</time>
      </trkpt>
      <trkpt lat="43.684060" lon="-1.262940">
        <time>2017-06-24T08:04:45Z</time>
      </trkpt>
      <trkpt lat="43.684170" lon="-1.262560">
        <time>2017-06-24T08:04:46Z</time>
      </trkpt>
      <trkpt lat="43.684290" lon="-1.262170">
        <time>2017-06-24T08:04:47Z</time>
      </trkpt>
      <trkpt lat="43.684390" lon="-1.261830">
        <time>2017-06-24T08:04:48Z</time>
      </trkpt>
      <trkpt lat="43.684500" lon="-1.261480">
        <time>2017-06-24T08:04:49Z</time>
      </trkpt>
      <trkpt lat="43.684610" lon="-1.261130">
        <time>2017-06-24T08:04:50Z</time>
      </trkpt>
      <trkpt lat="43.684720" lon="-1.260780">
        <time>2017-06-24T08:04:51Z</time>
      </trkpt>
      <trkpt lat="43.684850" lon="-1.260410">
        <time>2017-06-24T08:04:52Z</time>
      </trkpt>
      <trkpt lat="43.684960" lon="-1.260090">
        <time>2017-06-24T08:04:53Z</time>
      </trkpt>
      <trkpt lat="43.685080" lon="-1.259740">
        <time>2017-06-24T08:04:54Z</time>
      </trkpt>
      <trkpt lat="43.685210" lon="-1.259380">
        <time>2017-06-24T08:04:55Z</time>
      </trkpt>
      <trkpt lat="43.685330" lon="-1.259050">
        <time>2017-06-24T08:04:56Z</time>
      </trkpt>
      <trkpt lat="43.685450" lon="-1.258700">
        <time>2017-06-24T08:04:57Z</time>
      </trkpt>
      <trkpt lat="43.685570" lon="-1.258330">
        <time>2017-06-24T08:04:58Z</time>
      </trkpt>
      <trkpt lat="43.685690" lon="-1.258010">
        <time>2017-06-24T08:04:59Z</time>
      </trkpt>
      <trkpt lat="43.685820" lon="-1.257650">
        <time>2017-06-24T08:05:00Z</time>
      </trkpt>
      <trkpt lat="43.685940" lon="-1.257330">
        <time>2017-06-24T08:05:01Z</time>
      </trkpt>
      <trkpt lat="43.686050" lon="-1.256970">
        <time>2017-06-24T08:05:02Z</time>
      </trkpt>
      <trkpt lat="43.686180" lon="-1.256590">
        <time>2017-06-24T08:05:03Z</time>
      </trkpt>
      <trkpt lat="43.686300" lon="-1.256260">
        <time>2017-06-24T08:05:04Z</time>
      </trkpt>
      <trkpt lat="43.686420" lon="-1.255890">
        <time>2017-06-24T08:05:05Z</time>
      </trkpt>
      <trkpt lat="43.686530" lon="-1.255510">
        <time>2017-06-24T08:05:06Z</time>
      </trkpt>
      <trkpt lat="43.686650" lon="-1.255140">
        <time>2017-06-24T08:05:07Z</time>
      </trkpt>
      <trkpt lat="43.686770" lon="-1.254740">
        <time>2017-06-24T08:05:08Z</time>
      </trkpt>
      <trkpt lat="43.686870" lon="-1.254380">
        <time>2017-06-24T08:05:09Z</time>
      </trkpt>
      <trkpt lat="43.686980" lon="-1.254000">
        <time>2017-06-24T08:05:10Z</time>
      </trkpt>
      <trkpt lat="43.687090" lon="-1.253580">
        <time>2017-06-24T08:05:11Z</time>
      </trkpt>
      <trkpt lat="43.687190" lon="-1.253210">
        <time>2017-06-24T08:05:12Z</time>
      </trkpt>
      <trkpt lat="43.687290" lon="-1.252820">
        <time>2017-06-24T08:05:13Z</time>
      </trkpt>
      <trkpt lat="43.687400" lon="-1.252400">
        <time>2017-06-24T08:05:14Z</time>
      </trkpt>
      <trkpt lat="43.687490" lon="-1.252040">
        <time>2017-06-24T08:05:15Z</time>
      </trkpt>
      <trkpt lat="43.687600" lon="-1.251620">
        <time>2017-06-24T08:05:16Z</time>
      </trkpt>
      <trkpt lat="43.687690" lon="-1.251250">
        <time>2017-06-24T08:05:17Z</time>
      </trkpt>
      <trkpt lat="43.687790" lon="-1.250860">
        <time>2017-06-24T08:05:18Z</time>
      </trkpt>
      <trkpt lat="43.687900" lon="-1.250440">
        <time>2017-06-24T08:05:19Z</time>
      </trkpt>
      <trkpt lat="43.687990" lon="-1.250070">
        <time>2017-06-24T08:05:20Z</time>
      </trkpt>
      <trkpt lat="43.688100" lon="-1.249670">
        <time>2017-06-24T08:05:21Z</time>
      </trkpt>
      <trkpt lat="43.688200" lon="-1.249280">
        <time>2017-06-24T08:05:22Z</time>
      </trkpt>
      <trkpt lat="43.688310" lon="-1.248880">
        <time>2017-06-24T08:05:23Z</time>
      </trkpt>
      <trkpt lat="43.688420" lon="-1.248470">
        <time>2017-06-24T08:05:24Z</time>
      </trkpt>
      <trkpt lat="43.688530" lon="-1.248100">
        <time>2017-06-24T08:05:25Z</time>
      </trkpt>
      <trkpt lat="43.688640" lon="-1.247710">
        <time>2017-06-24T08:05:26Z</time>
      </trkpt>
      <trkpt lat="43.688760" lon="-1.247310">
        <time>2017-06-24T08:05:27Z</time>
      </trkpt>
      <trkpt lat="43.688870" lon="-1.246950">
        <time>2017-06-24T08:05:28Z</time>
      </trkpt>
      <trkpt lat="43.688990" lon="-1.246570">
        <time>2017-06-24T08:05:29Z</time>
      </trkpt>
      <trkpt lat="43.689120" lon="-1.246180">
        <time>2017-06-24T08:05:30Z</time>
      </trkpt>
      <trkpt lat="43.689240" lon="-1.245830">
        <time>2017-06-24T08:05:31Z</time>
      </trkpt>
      <trkpt lat="43.689370" lon="-1.245440">
        <time>2017-06-24T08:05:32Z</time>
      </trkpt>
      <trkpt lat="43.689500" lon="-1.245090">
        <time>2017-06-24T08:05:33Z</time>
      </trkpt>
      <trkpt lat="43.689630" lon="-1.244710">
        <time>2017-06-24T08:05:34Z</time>
      </trkpt>
      <trkpt lat="43.689780" lon="-1.244320">
        <time>2017-06-24T08:05:35Z</time>
      </trkpt>
      <trkpt lat="43.689900" lon="-1.243980">
        <time>2017-06-24T08:05:36Z</time>
      </trkpt>
      <trkpt lat="43.690040" lon="-1.243610">
        <time>2017-06-24T08:05:37Z</time>
      </trkpt>
      <trkpt lat="43.690170" lon="-1.243240">
        <time>2017-06-24T08:05:38Z</time>
      </trkpt>
      <trkpt lat="43.690310" lon="-1.242870">
        <time>2017-06-24T08:05:39Z</time>
      </trkpt>
      <trkpt lat="43.690460" lon="-1.242490">
        <time>2017-06-24T08:05:40Z</time>
      </trkpt>
      <trkpt lat="43.690590" lon="-1.242140">
        <time>2017-06-24T08:05:41Z</time>
      </trkpt>
      <trkpt lat="43.690730" lon="-1.241760">
        <time>2017-06-24T08:05:42Z</time>
      </trkpt>
      <trkpt lat="43.690880" lon="-1.241360">
        <time>2017-06-24T08:05:43Z</time>
      </trkpt>
      <trkpt lat="43.691000" lon="-1.241010">
        <time>2017-06-24T08:05:44Z</time>
      </trkpt>
      <trkpt lat="43.691140" lon="-1.240640">
        <time>2017-06-24T08:05:45Z</time>
      </trkpt>
      <trkpt lat="43.691280" lon="-1.240240">
        <time>2017-06-24T08:05:46Z</time>
      </trkpt>
      <trkpt lat="43.691400" lon="-1.239890">
        <time>2017-06-24T08:05:47Z</time>
      </trkpt>
      <trkpt lat="43.691530" lon="-1.239500">
        <time>2017-06-24T08:05:48Z</time>
      </trkpt>
      <trkpt lat="43.691650" lon="-1.239140">
        <time>2017-06-24T08:05:49Z</time>
      </trkpt>
      <trkpt lat="43.691760" lon="-1.238770">
        <time>2017-06-24T08:05:50Z</time>
      </trkpt>
      <trkpt lat="43.691880" lon="-1.238370">
        <time>2017-06-24T08:05:51Z</time>
      </trkpt>
      <trkpt lat="43.691990" lon="-1.238010">
        <time>2017-06-24T08:05:52Z</time>
      </trkpt>
      <trkpt lat="43.692110" lon="-1.237640">
        <time>2017-06-24T08:05:53Z</time>
      </trkpt>
      <trkpt lat="43.692220" lon="-1.237260">
        <time>2017-06-24T08:05:54Z</time>
      </trkpt>
      <trkpt lat="43.692340" lon="-1.236900">
        <time>2017-06-24T08:05:55Z</time>
      </trkpt>
      <trkpt lat="43.692460" lon="-1.236500">
        <time>2017-06-24T08:05:56Z</time>
      </trkpt>
      <trkpt lat="43.692570" lon="-1.236160">
        <time>2017-06-24T08:05:57Z</time>
      </trkpt>
      <trkpt lat="43.692690" lon="-1.235810">
        <time>2017-06-24T08:05:58Z</time>
      </trkpt>
      <trkpt lat="43.692830" lon="-1.235430">
        <time>2017-06-24T08:05:59Z</time>
      </trkpt>
      <trkpt lat="43.692950" lon="-1.235110">
        <time>2017-06-24T08:06:00Z</time>
      </trkpt>
      <trkpt lat="43.693110" lon="-1.234760">
        <time>2017-06-24T08:06:01Z</time>
      </trkpt>
      <trkpt lat="43.693280" lon="-1.234410">
        <time>2017-06-24T08:06:02Z</time>
      </trkpt>
      <trkpt lat="43.693430" lon="-1.234100">
        <time>2017-06-24T08:06:03Z</time>
      </trkpt>
      <trkpt lat="43.693620" lon="-1.233760">
        <time>2017-06-24T08:06:04Z</time>
      </trkpt>
      <trkpt lat="43.693790" lon="-1.233460">
        <time>2017-06-24T08:06:05Z</time>
      </trkpt>
      <trkpt lat="43.693970" lon="-1.233160">
        <time>2017-06-24T08:06:06Z</time>
      </trkpt>
      <trkpt lat="43.694170" lon="-1.232850">
        <time>2017-06-24T08:06:07Z</time>
      </trkpt>
      <trkpt lat="43.694350" lon="-1.232580">
        <time>2017-06-24T08:06:08Z</time>
      </trkpt>
      <trkpt lat="43.694560" lon="-1.232300">
        <time>2017-06-24T08:06:09Z</time>
      </trkpt>
      <trkpt lat="43.694770" lon="-1.232030">
        <time>2017-06-24T08:06:10Z</time>
      </trkpt>
      <trkpt lat="43.694980" lon="-1.231760">
        <time>2017-06-24T08:06:11Z</time>
      </trkpt>
      <trkpt lat="43.695210" lon="-1.231490">
        <time>2017-06-24T08:06:12Z</time>
      </trkpt>
      <trkpt lat="43.695430" lon="-1.231260">
        <time>2017-06-24T08:06:13Z</time>
      </trkpt>
      <trkpt lat="43.695660" lon="-1.231030">
        <time>2017-06-24T08:06:14Z</time>
      </trkpt>
      <trkpt lat="43.695910" lon="-1.230780">
        <time>2017-06-24T08:06:15Z</time>
      </trkpt>
      <trkpt lat="43.696130" lon="-1.230570">
        <time>2017-06-24T08:06:16Z</time>
      </trkpt>
      <trkpt lat="43.696370" lon="-1.230360">
        <time>2017-06-24T08:06:17Z</time>
      </trkpt>
      <trkpt lat="43.696630" lon="-1.230160">
        <time>2017-06-24T08:06:18Z</time>
      </trkpt>
      <trkpt lat="43.696860" lon="-1.230000">
        <time>2017-06-24T08:06:19Z</time>
      </trkpt>
      <trkpt lat="43.697120" lon="-1.229830">
        <time>2017-06-24T08:06:20Z</time>
      </trkpt>
      <trkpt lat="43.697350" lon="-1.229690">
        <time>2017-06-24T08:06:21Z</time>
      </trkpt>
      <trkpt lat="43.697580" lon="-1.229560">
        <time>2017-06-24T08:06:22Z</time>
      </trkpt>
      <trkpt lat="43.697840" lon="-1.229420">
        <time>2017-06-24T08:06:23Z</time>
      </trkpt>
      <trkpt lat="43.698060" lon="-1.229310">
        <time>2017-06-24T08:06:24Z</time>
      </trkpt>
      <trkpt lat="43.698300" lon="-1.229210">
        <time>2017-06-24T08:06:25Z</time>
      </trkpt>
      <trkpt lat="43.698540" lon="-1.229120">
        <time>2017-06-24T08:06:26Z</time>
      </trkpt>
      <trkpt lat="43.698790" lon="-1.229030">
        <time>2017-06-24T08:06:27Z</time>
      </trkpt>
      <trkpt lat="43.699050" lon="-1.228940">
        <time>2017-06-24T08:06:28Z</time>
      </trkpt>
      <trkpt lat="43.699290" lon="-1.228870">
        <time>2017-06-24T08:06:29Z</time>
      </trkpt>
      <trkpt lat="43.699560" lon="-1.228810">
        <time>2017-06-24T08:06:30Z</time>
      </trkpt>
      <trkpt lat="43.699850" lon="-1.228770">
        <time>2017-06-24T08:06:31Z</time>
      </trkpt>
      <trkpt lat="43.700110" lon="-1.228740">
        <time>2017-06-24T08:06:32Z</time>
      </trkpt>
      <trkpt lat="43.700400" lon="-1.228710">
        <time>2017-06-24T08:06:33Z</time>
      </trkpt>
      <trkpt lat="43.700700" lon="-1.228680">
        <time>2017-06-24T08:06:34Z</time>
      </trkpt>
      <trkpt lat="43.700970" lon="-1.228660">
        <time>2017-06-24T08:06:35Z</time>
      </trkpt>
      <trkpt lat="43.701270" lon="-1.228640">
        <time>2017-06-24T08:06:36Z</time>
      </trkpt>
      <trkpt lat="43.701540" lon="-1.228620">
        <time>2017-06-24T08:06:37Z</time>
      </trkpt>
      <trkpt lat="43.701830" lon="-1.228590">
        <time>2017-06-24T08:06:38Z</time>
      </trkpt>
      <trkpt lat="43.702130" lon="-1.228570">
        <time>2017-06-24T08:06:39Z</time>
      </trkpt>
      <trkpt lat="43.702390" lon="-1.228540">
        <time>2017-06-24T08:06:40Z</time>
      </trkpt>
      <trkpt lat="43.702680" lon="-1.228520">
        <time>2017-06-24T08:06:41Z</time>
      </trkpt>
      <trkpt lat="43.702960" lon="-1.228500">
        <time>2017-06-24T08:06:42Z</time>
      </trkpt>
      <trkpt lat="43.703240" lon="-1.228490">
        <time>2017-06-24T08:06:43Z</time>
      </trkpt>
      <trkpt lat="43.703540" lon="-1.228470">
        <time>2017-06-24T08:06:44Z</time>
      </trkpt>
      <trkpt lat="43.703810" lon="-1.228440">
        <time>2017-06-24T08:06:45Z</time>
      </trkpt>
      <trkpt lat="43.704100" lon="-1.228420">
        <time>2017-06-24T08:06:46Z</time>
      </trkpt>
      <trkpt lat="43.704400" lon="-1.228410">
        <time>2017-06-24T08:06:47Z</time>
      </trkpt>
      <trkpt lat="43.704670" lon="-1.228390">
        <time>2017-06-24T08:06:48Z</time>
      </trkpt>
      <trkpt lat="43.704960" lon="-1.228370">
        <time>2017-06-24T08:06:49Z</time>
      </trkpt>
      <trkpt lat="43.705260" lon="-1.228360">
        <time>2017-06-24T08:06:50Z</time>
      </trkpt>
      <trkpt lat="43.705530" lon="-1.228340">
        <time>2017-06-24T08:06:51Z</time>
      </trkpt>
      <trkpt lat="43.705840" lon="-1.228320">
        <time>2017-06-24T08:06:52Z</time>
      </trkpt>
      <trkpt lat="43.706110" lon="-1.228310">
        <time>2017-06-24T08:06:53Z</time>
      </trkpt>
      <trkpt lat="43.706400" lon="-1.228300">
        <time>2017-06-24T08:06:54Z</time>
      </trkpt>
      <trkpt lat="43.706700" lon="-1.228280">
        <time>2017-06-24T08:06:55Z</time>
      </trkpt>
      <trkpt lat="43.706970" lon="-1.228260">
        <time>2017-06-24T08:06:56Z</time>
      </trkpt>
      <trkpt lat="43.707260" lon="-1.228250">
        <time>2017-06-24T08:06:57Z</time>
      </trkpt>
      <trkpt lat="43.707550" lon="-1.228230">
        <time>2017-06-24T08:06:58Z</time>
      </trkpt>
      <trkpt lat="43.707840" lon="-1.228210">
        <time>2017-06-24T08:06:59Z</time>
      </trkpt>
      <trkpt lat="43.708140" lon="-1.228190">
        <time>2017-06-24T08:07:00Z</time>
      </trkpt>
      <trkpt lat="43.708420" lon="-1.228180">
        <time>2017-06-24T08:07:01Z</time>
      </trkpt>
      <trkpt lat="43.708700" lon="-1.228150">
        <time>2017-06-24T08:07:02Z</time>
      </trkpt>
      <trkpt lat="43.709010" lon="-1.228140">
        <time>2017-06-24T08:07:03Z</time>
      </trkpt>
      <trkpt lat="43.709280" lon="-1.228120">
        <time>2017-06-24T08:07:04Z</time>
      </trkpt>
      <trkpt lat="43.709560" lon="-1.228110">
        <time>2017-06-24T08:07:05Z</time>
      </trkpt>
      <trkpt lat="43.709870" lon="-1.228100">
        <time>2017-06-24T08:07:06Z</time>
      </trkpt>
      <trkpt lat="43.710130" lon="-1.228080">
        <time>2017-06-24T08:07:07Z</time>
      </trkpt>
      <trkpt lat="43.710430" lon="-1.228070">
        <time>2017-06-24T08:07:08Z</time>
      </trkpt>
      <trkpt lat="43.710700" lon="-1.228050">
        <time>2017-06-24T08:07:09Z</time>
      </trkpt>
      <trkpt lat="43.710990" lon="-1.228030">
        <time>2017-06-24T08:07:10Z</time>
      </trkpt>
      <trkpt lat="43.711290" lon="-1.228010">
        <time>2017-06-24T08:07:11Z</time>
      </trkpt>
      <trkpt lat="43.711550" lon="-1.228000">
        <time>2017-06-24T08:07:12Z</time>
      </trkpt>
      <trkpt lat="43.711830" lon="-1.227990">
        <time>2017-06-24T08:07:13Z</time>
      </trkpt>
      <trkpt lat="43.712120" lon="-1.227970">
        <time>2017-06-24T08:07:14Z</time>
      </trkpt>
      <trkpt lat="43.712410" lon="-1.227960">
        <time>2017-06-24T08:07:15Z</time>
      </trkpt>
      <trkpt lat="43.712710" lon="-1.227940">
        <time>2017-06-24T08:07:16Z</time>
      </trkpt>
      <trkpt lat="43.712980" lon="-1.227930">
        <time>2017-06-24T08:07:17Z</time>
      </trkpt>
      <trkpt lat="43.713260" lon="-1.227910">
        <time>2017-06-24T08:07:18Z</time>
      </trkpt>
      <trkpt lat="43.713560" lon="-1.227890">
        <time>2017-06-24T08:07:19Z</time>
      </trkpt>
      <trkpt lat="43.713820" lon="-1.227880">
        <time>2017-06-24T08:07:20Z</time>
      </trkpt>
      <trkpt lat="43.714090" lon="-1.227860">
        <time>2017-06-24T08:07:21Z</time>
      </trkpt>
      <trkpt lat="43.714380" lon="-1.227850">
        <time>2017-06-24T08:07:22Z</time>
      </trkpt>
      <trkpt lat="43.714640" lon="-1.227830">
        <time>2017-06-24T08:07:23Z</time>
      </trkpt>
      <trkpt lat="43.714940" lon="-1.227810">
        <time>2017-06-24T08:07:24Z</time>
      </trkpt>
      <trkpt lat="43.715200" lon="-1.227800">
        <time>2017-06-24T08:07:25Z</time>
      </trkpt>
      <trkpt lat="43.715480" lon="-1.227780">
        <time>2017-06-24T08:07:26Z</time>
      </trkpt>
      <trkpt lat="43.715780" lon="-1.227770">
        <time>2017-06-24T08:07:27Z</time>
      </trkpt>
      <trkpt lat="43.716050" lon="-1.227750">
        <time>2017-06-24T08:07:28Z</time>
      </trkpt>
      <trkpt lat="43.716330" lon="-1.227740">
        <time>2017-06-24T08:07:29Z</time>
      </trkpt>
      <trkpt lat="43.716610" lon="-1.227720">
        <time>2017-06-24T08:07:30Z</time>
      </trkpt>
      <trkpt lat="43.716890" lon="-1.227700">
        <time>2017-06-24T08:07:31Z</time>
      </trkpt>
      <trkpt lat="43.717180" lon="-1.227680">
        <time>2017-06-24T08:07:32Z</time>
      </trkpt>
      <trkpt lat="43.717440" lon="-1.227660">
        <time>2017-06-24T08:07:33Z</time>
      </trkpt>
      <trkpt lat="43.717720" lon="-1.227640">
        <time>2017-06-24T08:07:34Z</time>
      </trkpt>
      <trkpt lat="43.718010" lon="-1.227630">
        <time>2017-06-24T08:07:35Z</time>
      </trkpt>
      <trkpt lat="43.718280" lon="-1.227610">
        <time>2017-06-24T08:07:36Z</time>
      </trkpt>
      <trkpt lat="43.718560" lon="-1.227600">
        <time>2017-06-24T08:07:37Z</time>
      </trkpt>
      <trkpt lat="43.718860" lon="-1.227580">
        <time>2017-06-24T08:07:38Z</time>
      </trkpt>
      <trkpt lat="43.719120" lon="-1.227560">
        <time>2017-06-24T08:07:39Z</time>
      </trkpt>
      <trkpt lat="43.719430" lon="-1.227550">
        <time>2017-06-24T08:07:40Z</time>
      </trkpt>
      <trkpt lat="43.719700" lon="-1.227530">
        <time>2017-06-24T08:07:41Z</time>
      </trkpt>
      <trkpt lat="43.719980" lon="-1.227520">
        <time>2017-06-24T08:07:42Z</time>
      </trkpt>
      <trkpt lat="43.720290" lon="-1.227500">
        <time>2017-06-24T08:07:43Z</time>
      </trkpt>
      <trkpt lat="43.720560" lon="-1.227490">
        <time>2017-06-24T08:07:44Z</time>
      </trkpt>
      <trkpt lat="43.720850" lon="-1.227470">
        <time>2017-06-24T08:07:45Z</time>
      </trkpt>
      <trkpt lat="43.721140" lon="-1.227460">
        <time>2017-06-24T08:07:46Z</time>
      </trkpt>
      <trkpt lat="43.721430" lon="-1.227440">
        <time>2017-06-24T08:07:47Z</time>
      </trkpt>
      <trkpt lat="43.721730" lon="-1.227420">
        <time>2017-06-24T08:07:48Z</time>
      </trkpt>
      <trkpt lat="43.722000" lon="-1.227400">
        <time>2017-06-24T08:07:49Z</time>
      </trkpt>
      <trkpt lat="43.722300" lon="-1.227360">
        <time>2017-06-24T08:07:50Z</time>
      </trkpt>
      <trkpt lat="43.722610" lon="-1.227330">
        <time>2017-06-24T08:07:51Z</time>
      </trkpt>
      <trkpt lat="43.722890" lon="-1.227310">
        <time>2017-06-24T08:07:52Z</time>
      </trkpt>
      <trkpt lat="43.723180" lon="-1.227290">
        <time>2017-06-24T08:07:53Z</time>
      </trkpt>
      <trkpt lat="43.723500" lon="-1.227270">
        <time>2017-06-24T08:07:54Z</time>
      </trkpt>
      <trkpt lat="43.723780" lon="-1.227240">
        <time>2017-06-24T08:07:55Z</time>
      </trkpt>
      <trkpt lat="43.724080" lon="-1.227230">
        <time>2017-06-24T08:07:56Z</time>
      </trkpt>
      <trkpt lat="43.724350" lon="-1.227220">
        <time>2017-06-24T08:07:57Z</time>
      </trkpt>
      <trkpt lat="43.724630" lon="-1.227200">
        <time>2017-06-24T08:07:58Z</time>
      </trkpt>
      <trkpt lat="43.724940" lon="-1.227180">
        <time>2017-06-24T08:07:59Z</time>
      </trkpt>
      <trkpt lat="43.725200" lon="-1.227160">
        <time>2017-06-24T08:08:00Z</time>
      </trkpt>
      <trkpt lat="43.725490" lon="-1.227150">
        <time>2017-06-24T08:08:01Z</time>
      </trkpt>
      <trkpt lat="43.725780" lon="-1.227130">
        <time>2017-06-24T08:08:02Z</time>
      </trkpt>
      <trkpt lat="43.726060" lon="-1.227120">
        <time>2017-06-24T08:08:03Z</time>
      </trkpt>
      <trkpt lat="43.726360" lon="-1.227100">
        <time>2017-06-24T08:08:04Z</time>
      </trkpt>
      <trkpt lat="43.726630" lon="-1.227090">
        <time>2017-06-24T08:08:05Z</time>
      </trkpt>
      <trkpt lat="43.726920" lon="-1.227070">
        <time>2017-06-24T08:08:06Z</time>
      </trkpt>
      <trkpt lat="43.727220" lon="-1.227050">
        <time>2017-06-24T08:08:07Z</time>
      </trkpt>
      <trkpt lat="43.727490" lon="-1.227030">
        <time>2017-06-24T08:08:08Z</time>
      </trkpt>
      <trkpt lat="43.727770" lon="-1.227020">
        <time>2017-06-24T08:08:09Z</time>
      </trkpt>
      <trkpt lat="43.728080" lon="-1.227000">
        <time>2017-06-24T08:08:10Z</time>
      </trkpt>
      <trkpt lat="43.728350" lon="-1.226980">
        <time>2017-06-24T08:08:11Z</time>
      </trkpt>
      <trkpt lat="43.728650" lon="-1.226970">
        <time>2017-06-24T08:08:12Z</time>
      </trkpt>
      <trkpt lat="43.728920" lon="-1.226950">
        <time>2017-06-24T08:08:13Z</time>
      </trkpt>
      <trkpt lat="43.729210" lon="-1.226930">
        <time>2017-06-24T08:08:14Z</time>
      </trkpt>
      <trkpt lat="43.729520" lon="-1.226910">
        <time>2017-06-24T08:08:15Z</time>
      </trkpt>
      <trkpt lat="43.729790" lon="-1.226900">
        <time>2017-06-24T08:08:16Z</time>
      </trkpt>
      <trkpt lat="43.730080" lon="-1.226880">
        <time>2017-06-24T08:08:17Z</time>
      </trkpt>
      <trkpt lat="43.730370" lon="-1.226870">
        <time>2017-06-24T08:08:18Z</time>
      </trkpt>
      <trkpt lat="43.730670" lon="-1.226850">
        <time>2017-06-24T08:08:19Z</time>
      </trkpt>
      <trkpt lat="43.730970" lon="-1.226830">
        <time>2017-06-24T08:08:20Z</time>
      </trkpt>
      <trkpt lat="43.731250" lon="-1.226820">
        <time>2017-06-24T08:08:21Z</time>
      </trkpt>
      <trkpt lat="43.731540" lon="-1.226800">
        <time>2017-06-24T08:08:22Z</time>
      </trkpt>
      <trkpt lat="43.731850" lon="-1.226790">
        <time>2017-06-24T08:08:23Z</time>
      </trkpt>
      <trkpt lat="43.732120" lon="-1.226770">
        <time>2017-06-24T08:08:24Z</time>
      </trkpt>
      <trkpt lat="43.732410" lon="-1.226750">
        <time>2017-06-24T08:08:25Z</time>
      </trkpt>
      <trkpt lat="43.732710" lon="-1.226730">
        <time>2017-06-24T08:08:26Z</time>
      </trkpt>
      <trkpt lat="43.732980" lon="-1.226720">
        <time>2017-06-24T08:08:27Z</time>
      </trkpt>
      <trkpt lat="43.733280" lon="-1.226700">
        <time>2017-06-24T08:08:28Z</time>
      </trkpt>
      <trkpt lat="43.733550" lon="-1.226690">
        <time>2017-06-24T08:08:29Z</time>
      </trkpt>
      <trkpt lat="43.733830" lon="-1.226670">
        <time>2017-06-24T08:08:30Z</time>
      </trkpt>
      <trkpt lat="43.734120" lon="-1.226650">
        <time>2017-06-24T08:08:31Z</time>
      </trkpt>
      <trkpt lat="43.734380" lon="-1.226630">
        <time>2017-06-24T08:08:32Z</time>
      </trkpt>
      <trkpt lat="43.734660" lon="-1.226610">
        <time>2017-06-24T08:08:33Z</time>
      </trkpt>
      <trkpt lat="43.734940" lon="-1.226590">
        <time>2017-06-24T08:08:34Z</time>
      </trkpt>
      <trkpt lat="43.735220" lon="-1.226580">
        <time>2017-06-24T08:08:35Z</time>
      </trkpt>
      <trkpt lat="43.735520" lon="-1.226560">
        <time>2017-06-24T08:08:36Z</time>
      </trkpt>
      <trkpt lat="43.735790" lon="-1.226540">
        <time>2017-06-24T08:08:37Z</time>
      </trkpt>
      <trkpt lat="43.736080" lon="-1.226520">
        <time>2017-06-24T08:08:38Z</time>
      </trkpt>
      <trkpt lat="43.736390" lon="-1.226500">
        <time>2017-06-24T08:08:39Z</time>
      </trkpt>
      <trkpt lat="43.736660" lon="-1.226480">
        <time>2017-06-24T08:08:40Z</time>
      </trkpt>
      <trkpt lat="43.736950" lon="-1.226470">
        <time>2017-06-24T08:08:41Z</time>
      </trkpt>
      <trkpt lat="43.737270" lon="-1.226440">
        <time>2017-06-24T08:08:42Z</time>
      </trkpt>
      <trkpt lat="43.737540" lon="-1.226420">
        <time>2017-06-24T08:08:43Z</time>
      </trkpt>
      <trkpt lat="43.737860" lon="-1.226380">
        <time>2017-06-24T08:08:44Z</time>
      </trkpt>
      <trkpt lat="43.738130" lon="-1.226350">
        <time>2017-06-24T08:08:45Z</time>
      </trkpt>
      <trkpt lat="43.738430" lon="-1.226310">
        <time>2017-06-24T08:08:46Z</time>
      </trkpt>
      <trkpt lat="43.738740" lon="-1.226260">
        <time>2017-06-24T08:08:47Z</time>
      </trkpt>
      <trkpt lat="43.739010" lon="-1.226210">
        <time>2017-06-24T08:08:48Z</time>
      </trkpt>
      <trkpt lat="43.739300" lon="-1.226140">
        <time>2017-06-24T08:08:49Z</time>
      </trkpt>
      <trkpt lat="43.739580" lon="-1.226080">
        <time>2017-06-24T08:08:50Z</time>
      </trkpt>
      <trkpt lat="43.739870" lon="-1.226010">
        <time>2017-06-24T08:08:51Z</time>
      </trkpt>
      <trkpt lat="43.740170" lon="-1.225950">
        <time>2017-06-24T08:08:52Z</time>
      </trkpt>
      <trkpt lat="43.740440" lon="-1.225890">
        <time>2017-06-24T08:08:53Z</time>
      </trkpt>
      <trkpt lat="43.740720" lon="-1.225820">
        <time>2017-06-24T08:08:54Z</time>
      </trkpt>
      <trkpt lat="43.741020" lon="-1.225760">
        <time>2017-06-24T08:08:55Z</time>
      </trkpt>
      <trkpt lat="43.741290" lon="-1.225700">
        <time>2017-06-24T08:08:56Z</time>
      </trkpt>
      <trkpt lat="43.741580" lon="-1.225640">
        <time>2017-06-24T08:08:57Z</time>
      </trkpt>
      <trkpt lat="43.741900" lon="-1.225570">
        <time>2017-06-24T08:08:58Z</time>
      </trkpt>
      <trkpt lat="43.742180" lon="-1.225520">
        <time>2017-06-24T08:08:59Z</time>
      </trkpt>
      <trkpt lat="43.742500" lon="-1.225460">
        <time>2017-06-24T08:09:00Z</time>
      </trkpt>
      <trkpt lat="43.742780" lon="-1.225400">
        <time>2017-06-24T08:09:01Z</time>
      </trkpt>
      <trkpt lat="43.743080" lon="-1.225330">
        <time>2017-06-24T08:09:02Z</time>
      </trkpt>
      <trkpt lat="43.743390" lon="-1.225270">
        <time>2017-06-24T08:09:03Z</time>
      </trkpt>
      <trkpt lat="43.743670" lon="-1.225200">
        <time>2017-06-24T08:09:04Z</time>
      </trkpt>
      <trkpt lat="43.743960" lon="-1.225140">
        <time>2017-06-24T08:09:05Z</time>
      </trkpt>
      <trkpt lat="43.744260" lon="-1.225070">
        <time>2017-06-24T08:09:06Z</time>
      </trkpt>
      <trkpt lat="43.744550" lon="-1.225010">
        <time>2017-06-24T08:09:07Z</time>
      </trkpt>
      <trkpt lat="43.744860" lon="-1.224930">
        <time>2017-06-24T08:09:08Z</time>
      </trkpt>
      <trkpt lat="43.745130" lon="-1.224850">
        <time>2017-06-24T08:09:09Z</time>
      </trkpt>
      <trkpt lat="43.745420" lon="-1.224770">
        <time>2017-06-24T08:09:10Z</time>
      </trkpt>
      <trkpt lat="43.745740" lon="-1.224700">
        <time>2017-06-24T08:09:11Z</time>
      </trkpt>
      <trkpt lat="43.746010" lon="-1.224630">
        <time>2017-06-24T08:09:12Z</time>
      </trkpt>
      <trkpt lat="43.746300" lon="-1.224560">
        <time>2017-06-24T08:09:13Z</time>
      </trkpt>
      <trkpt lat="43.746620" lon="-1.224490">
        <time>2017-06-24T08:09:14Z</time>
      </trkpt>
      <trkpt lat="43.746900" lon="-1.224430">
        <time>2017-06-24T08:09:15Z</time>
      </trkpt>
      <trkpt lat="43.747210" lon="-1.224370">
        <time>2017-06-24T08:09:16Z</time>
      </trkpt>
      <trkpt lat="43.747480" lon="-1.224310">
        <time>2017-06-24T08:09:17Z</time>
      </trkpt>
      <trkpt lat="43.747770" lon="-1.224250">
        <time>2017-06-24T08:09:18Z</time>
      </trkpt>
      <trkpt lat="43.748070" lon="-1.224190">
        <time>2017-06-24T08:09:19Z</time>
      </trkpt>
      <trkpt lat="43.748340" lon="-1.224130">
        <time>2017-06-24T08:09:20Z</time>
      </trkpt>
      <trkpt lat="43.748620" lon="-1.224060">
        <time>2017-06-24T08:09:21Z</time>
      </trkpt>
      <trkpt lat="43.748900" lon="-1.224000">
        <time>2017-06-24T08:09:22Z</time>
      </trkpt>
      <trkpt lat="43.749190" lon="-1.223940">
        <time>2017-06-24T08:09:23Z</time>
      </trkpt>
      <trkpt lat="43.749490" lon="-1.223870">
        <time>2017-06-24T08:09:24Z</time>
      </trkpt>
      <trkpt lat="43.749760" lon="-1.223810">
        <time>2017-06-24T08:09:25Z</time>
      </trkpt>
      <trkpt lat="43.750040" lon="-1.223740">
        <time>2017-06-24T08:09:26Z</time>
      </trkpt>
      <trkpt lat="43.750340" lon="-1.223680">
        <time>2017-06-24T08:09:27Z</time>
      </trkpt>
      <trkpt lat="43.750600" lon="-1.223620">
        <time>2017-06-24T08:09:28Z</time>
      </trkpt>
      <trkpt lat="43.750890" lon="-1.223550">
        <time>2017-06-24T08:09:29Z</time>
      </trkpt>
      <trkpt lat="43.751190" lon="-1.223480">
        <time>2017-06-24T08:09:30Z</time>
      </trkpt>
      <trkpt lat="43.751450" lon="-1.223430">
        <time>2017-06-24T08:09:31Z</time>
      </trkpt>
      <trkpt lat="43.751750" lon="-1.223360">
        <time>2017-06-24T08:09:32Z</time>
      </trkpt>
      <trkpt lat="43.752020" lon="-1.223300">
        <time>2017-06-24T08:09:33Z</time>
      </trkpt>
      <trkpt lat="43.752300" lon="-1.223240">
        <time>2017-06-24T08:09:34Z</time>
      </trkpt>
      <trkpt lat="43.752610" lon="-1.223170">
        <time>2017-06-24T08:09:35Z</time>
      </trkpt>
      <trkpt lat="43.752880" lon="-1.223120">
        <time>2017-06-24T08:09:36Z</time>
      </trkpt>
      <trkpt lat="43.753160" lon="-1.223060">
        <time>2017-06-24T08:09:37Z</time>
      </trkpt>
      <trkpt lat="43.753450" lon="-1.222990">
        <time>2017-06-24T08:09:38Z</time>
      </trkpt>
      <trkpt lat="43.753730" lon="-1.222930">
        <time>2017-06-24T08:09:39Z</time>
      </trkpt>
      <trkpt lat="43.754030" lon="-1.222860">
        <time>2017-06-24T08:09:40Z</time>
      </trkpt>
      <trkpt lat="43.754300" lon="-1.222800">
        <time>2017-06-24T08:09:41Z</time>
      </trkpt>
      <trkpt lat="43.754580" lon="-1.222740">
        <time>2017-06-24T08:09:42Z</time>
      </trkpt>
      <trkpt lat="43.754880" lon="-1.222670">
        <time>2017-06-24T08:09:43Z</time>
      </trkpt>
      <trkpt lat="43.755140" lon="-1.222620">
        <time>2017-06-24T08:09:44Z</time>
      </trkpt>
      <trkpt lat="43.755420" lon="-1.222560">
        <time>2017-06-24T08:09:45Z</time>
      </trkpt>
      <trkpt lat="43.755720" lon="-1.222490">
        <time>2017-06-24T08:09:46Z</time>
      </trkpt>
      <trkpt lat="43.755980" lon="-1.222430">
        <time>2017-06-24T08:09:47Z</time>
      </trkpt>
      <trkpt lat="43.756280" lon="-1.222360">
        <time>2017-06-24T08:09:48Z</time>
      </trkpt>
      <trkpt lat="43.756540" lon="-1.222300">
        <time>2017-06-24T08:09:49Z</time>
      </trkpt>
      <trkpt lat="43.756820" lon="-1.222240">
        <time>2017-06-24T08:09:50Z</time>
      </trkpt>
      <trkpt lat="43.757120" lon="-1.222160">
        <time>2017-06-24T08:09:51Z</time>
      </trkpt>
      <trkpt lat="43.757390" lon="-1.222110">
        <time>2017-06-24T08:09:52Z</time>
      </trkpt>
      <trkpt lat="43.757670" lon="-1.222040">
        <time>2017-06-24T08:09:53Z</time>
      </trkpt>
      <trkpt lat="43.757960" lon="-1.221980">
        <time>2017-06-24T08:09:54Z</time>
      </trkpt>
      <trkpt lat="43.758240" lon="-1.221920">
        <time>2017-06-24T08:09:55Z</time>
      </trkpt>
      <trkpt lat="43.758540" lon="-1.221850">
        <time>2017-06-24T08:09:56Z</time>
      </trkpt>
      <trkpt lat="43.758800" lon="-1.221800">
        <time>2017-06-24T08:09:57Z</time>
      </trkpt>
      <trkpt lat="43.759090" lon="-1.221730">
        <time>2017-06-24T08:09:58Z</time>
      </trkpt>
      <trkpt lat="43.759400" lon="-1.221670">
        <time>2017-06-24T08:09:59Z</time>
      </trkpt>
      <trkpt lat="43.759670" lon="-1.221600">
        <time>2017-06-24T08:10:00Z</time>
      </trkpt>
      <trkpt lat="43.759960" lon="-1.221540">
        <time>2017-06-24T08:10:01Z</time>
      </trkpt>
      <trkpt lat="43.760270" lon="-1.221470">
        <time>2017-06-24T08:10:02Z</time>
      </trkpt>
      <trkpt lat="43.760550" lon="-1.221410">
        <time>2017-06-24T08:10:03Z</time>
      </trkpt>
      <trkpt lat="43.760850" lon="-1.221340">
        <time>2017-06-24T08:10:04Z</time>
      </trkpt>
      <trkpt lat="43.761120" lon="-1.221280">
        <time>2017-06-24T08:10:05Z</time>
      </trkpt>
      <trkpt lat="43.761410" lon="-1.221210">
        <time>2017-06-24T08:10:06Z</time>
      </trkpt>
      <trkpt lat="43.761710" lon="-1.221130">
        <time>2017-06-24T08:10:07Z</time>
      </trkpt>
      <trkpt lat="43.761980" lon="-1.221070">
        <time>2017-06-24T08:10:08Z</time>
      </trkpt>
      <trkpt lat="43.762260" lon="-1.221010">
        <time>2017-06-24T08:10:09Z</time>
      </trkpt>
      <trkpt lat="43.762550" lon="-1.220940">
        <time>2017-06-24T08:10:10Z</time>
      </trkpt>
      <trkpt lat="43.762830" lon="-1.220880">
        <time>2017-06-24T08:10:11Z</time>
      </trkpt>
      <trkpt lat="43.763140" lon="-1.220820">
        <time>2017-06-24T08:10:12Z</time>
      </trkpt>
      <trkpt lat="43.763400" lon="-1.220760">
        <time>2017-06-24T08:10:13Z</time>
      </trkpt>
      <trkpt lat="43.763690" lon="-1.220700">
        <time>2017-06-24T08:10:14Z</time>
      </trkpt>
      <trkpt lat="43.764000" lon="-1.220630">
        <time>2017-06-24T08:10:15Z</time>
      </trkpt>
      <trkpt lat="43.764270" lon="-1.220570">
        <time>2017-06-24T08:10:16Z</time>
      </trkpt>
      <trkpt lat="43.764560" lon="-1.220500">
        <time>2017-06-24T08:10:17Z</time>
      </trkpt>
      <trkpt lat="43.764870" lon="-1.220440">
        <time>2017-06-24T08:10:18Z</time>
      </trkpt>
      <trkpt lat="43.765140" lon="-1.220380">
        <time>2017-06-24T08:10:19Z</time>
      </trkpt>
      <trkpt lat="43.765440" lon="-1.220320">
        <time>2017-06-24T08:10:20Z</time>
      </trkpt>
      <trkpt lat="43.765720" lon="-1.220260">
        <time>2017-06-24T08:10:21Z</time>
      </trkpt>
      <trkpt lat="43.766000" lon="-1.220190">
        <time>2017-06-24T08:10:22Z</time>
      </trkpt>
      <trkpt lat="43.766310" lon="-1.220120">
        <time>2017-06-24T08:10:23Z</time>
      </trkpt>
      <trkpt lat="43.766570" lon="-1.220060">
        <time>2017-06-24T08:10:24Z</time>
      </trkpt>
      <trkpt lat="43.766860" lon="-1.219990">
        <time>2017-06-24T08:10:25Z</time>
      </trkpt>
      <trkpt lat="43.767140" lon="-1.219930">
        <time>2017-06-24T08:10:26Z</time>
      </trkpt>
      <trkpt lat="43.767430" lon="-1.219860">
        <time>2017-06-24T08:10:27Z</time>
      </trkpt>
      <trkpt lat="43.767740" lon="-1.219800">
        <time>2017-06-24T08:10:28Z</time>
      </trkpt>
      <trkpt lat="43.768010" lon="-1.219740">
        <time>2017-06-24T08:10:29Z</time>
      </trkpt>
      <trkpt lat="43.768300" lon="-1.219670">
        <time>2017-06-24T08:10:30Z</time>
      </trkpt>
      <trkpt lat="43.768610" lon="-1.219580">
        <time>2017-06-24T08:10:31Z</time>
      </trkpt>
      <trkpt lat="43.768880" lon="-1.219500">
        <time>2017-06-24T08:10:32Z</time>
      </trkpt>
      <trkpt lat="43.769160" lon="-1.219400">
        <time>2017-06-24T08:10:33Z</time>
      </trkpt>
      <trkpt lat="43.769460" lon="-1.219290">
        <time>2017-06-24T08:10:34Z</time>
      </trkpt>
      <trkpt lat="43.769720" lon="-1.219170">
        <time>2017-06-24T08:10:35Z</time>
      </trkpt>
      <trkpt lat="43.770020" lon="-1.219020">
        <time>2017-06-24T08:10:36Z</time>
      </trkpt>
      <trkpt lat="43.770280" lon="-1.218890">
        <time>2017-06-24T08:10:37Z</time>
      </trkpt>
      <trkpt lat="43.770560" lon="-1.218740">
        <time>2017-06-24T08:10:38Z</time>
      </trkpt>
      <trkpt lat="43.770850" lon="-1.218570">
        <time>2017-06-24T08:10:39Z</time>
      </trkpt>
      <trkpt lat="43.771100" lon="-1.218400">
        <time>2017-06-24T08:10:40Z</time>
      </trkpt>
      <trkpt lat="43.771370" lon="-1.218210">
        <time>2017-06-24T08:10:41Z</time>
      </trkpt>
      <trkpt lat="43.771630" lon="-1.218010">
        <time>2017-06-24T08:10:42Z</time>
      </trkpt>
      <trkpt lat="43.771890" lon="-1.217800">
        <time>2017-06-24T08:10:43Z</time>
      </trkpt>
      <trkpt lat="43.772160" lon="-1.217570">
        <time>2017-06-24T08:10:44Z</time>
      </trkpt>
      <trkpt lat="43.772390" lon="-1.217360">
        <time>2017-06-24T08:10:45Z</time>
      </trkpt>
      <trkpt lat="43.772630" lon="-1.217130">
        <time>2017-06-24T08:10:46Z</time>
      </trkpt>
      <trkpt lat="43.772880" lon="-1.216870">
        <time>2017-06-24T08:10:47Z</time>
      </trkpt>
      <trkpt lat="43.773100" lon="-1.216640">
        <time>2017-06-24T08:10:48Z</time>
      </trkpt>
      <trkpt lat="43.773330" lon="-1.216380">
        <time>2017-06-24T08:10:49Z</time>
      </trkpt>
      <trkpt lat="43.773570" lon="-1.216100">
        <time>2017-06-24T08:10:50Z</time>
      </trkpt>
      <trkpt lat="43.773770" lon="-1.215850">
        <time>2017-06-24T08:10:51Z</time>
      </trkpt>
      <trkpt lat="43.774000" lon="-1.215550">
        <time>2017-06-24T08:10:52Z</time>
      </trkpt>
      <trkpt lat="43.774200" lon="-1.215290">
        <time>2017-06-24T08:10:53Z</time>
      </trkpt>
      <trkpt lat="43.774420" lon="-1.215000">
        <time>2017-06-24T08:10:54Z</time>
      </trkpt>
      <trkpt lat="43.774650" lon="-1.214700">
        <time>2017-06-24T08:10:55Z</time>
      </trkpt>
      <trkpt lat="43.774850" lon="-1.214430">
        <time>2017-06-24T08:10:56Z</time>
      </trkpt>
      <trkpt lat="43.775080" lon="-1.214140">
        <time>2017-06-24T08:10:57Z</time>
      </trkpt>
      <trkpt lat="43.775300" lon="-1.213860">
        <time>2017-06-24T08:10:58Z</time>
      </trkpt>
      <trkpt lat="43.775530" lon="-1.213590">
        <time>2017-06-24T08:10:59Z</time>
      </trkpt>
      <trkpt lat="43.775780" lon="-1.213310">
        <time>2017-06-24T08:11:00Z</time>
      </trkpt>
      <trkpt lat="43.776000" lon="-1.213070">
        <time>2017-06-24T08:11:01Z</time>
      </trkpt>
      <trkpt lat="43.776240" lon="-1.212830">
        <time>2017-06-24T08:11:02Z</time>
      </trkpt>
      <trkpt lat="43.776500" lon="-1.212580">
        <time>2017-06-24T08:11:03Z</time>
      </trkpt>
      <trkpt lat="43.776740" lon="-1.212370">
        <time>2017-06-24T08:11:04Z</time>
      </trkpt>
      <trkpt lat="43.777000" lon="-1.212170">
        <time>2017-06-24T08:11:05Z</time>
      </trkpt>
      <trkpt lat="43.777280" lon="-1.211960">
        <time>2017-06-24T08:11:06Z</time>
      </trkpt>
      <trkpt lat="43.777530" lon="-1.211790">
        <time>2017-06-24T08:11:07Z</time>
      </trkpt>
      <trkpt lat="43.777820" lon="-1.211600">
        <time>2017-06-24T08:11:08Z</time>
      </trkpt>
      <trkpt lat="43.778070" lon="-1.211450">
        <time>2017-06-24T08:11:09Z</time>
      </trkpt>
      <trkpt lat="43.778350" lon="-1.211300">
        <time>2017-06-24T08:11:10Z</time>
      </trkpt>
      <trkpt lat="43.778650" lon="-1.211160">
        <time>2017-06-24T08:11:11Z</time>
      </trkpt>
      <trkpt lat="43.778910" lon="-1.211040">
        <time>2017-06-24T08:11:12Z</time>
      </trkpt>
      <trkpt lat="43.779200" lon="-1.210930">
        <time>2017-06-24T08:11:13Z</time>
      </trkpt>
      <trkpt lat="43.779480" lon="-1.210820">
        <time>2017-06-24T08:11:14Z</time>
      </trkpt>
      <trkpt lat="43.779770" lon="-1.210710">
        <time>2017-06-24T08:11:15Z</time>
      </trkpt>
      <trkpt lat="43.780070" lon="-1.210600">
        <time>2017-06-24T08:11:16Z</time>
      </trkpt>
      <trkpt lat="43.780340" lon="-1.210510">
        <time>2017-06-24T08:11:17Z</time>
      </trkpt>
      <trkpt lat="43.780630" lon="-1.210410">
        <time>2017-06-24T08:11:18Z</time>
      </trkpt>
      <trkpt lat="43.780940" lon="-1.210290">
        <time>2017-06-24T08:11:19Z</time>
      </trkpt>
      <trkpt lat="43.781200" lon="-1.210190">
        <time>2017-06-24T08:11:20Z</time>
      </trkpt>
      <trkpt lat="43.781490" lon="-1.210090">
        <time>2017-06-24T08:11:21Z</time>
      </trkpt>
      <trkpt lat="43.781800" lon="-1.209970">
        <time>2017-06-24T08:11:22Z</time>
      </trkpt>
      <trkpt lat="43.782070" lon="-1.209880">
        <time>2017-06-24T08:11:23Z</time>
      </trkpt>
      <trkpt lat="43.782380" lon="-1.209770">
        <time>2017-06-24T08:11:24Z</time>
      </trkpt>
      <trkpt lat="43.782650" lon="-1.209680">
        <time>2017-06-24T08:11:25Z</time>
      </trkpt>
      <trkpt lat="43.782940" lon="-1.209570">
        <time>2017-06-24T08:11:26Z</time>
      </trkpt>
      <trkpt lat="43.783250" lon="-1.209470">
        <time>2017-06-24T08:11:27Z</time>
      </trkpt>
      <trkpt lat="43.783530" lon="-1.209380">
        <time>2017-06-24T08:11:28Z</time>
      </trkpt>
      <trkpt lat="43.783830" lon="-1.209300">
        <time>2017-06-24T08:11:29Z</time>
      </trkpt>
      <trkpt lat="43.784130" lon="-1.209220">
        <time>2017-06-24T08:11:30Z</time>
      </trkpt>
      <trkpt lat="43.784430" lon="-1.209150">
        <time>2017-06-24T08:11:31Z</time>
      </trkpt>
      <trkpt lat="43.784760" lon="-1.209100">
        <time>2017-06-24T08:11:32Z</time>
      </trkpt>
      <trkpt lat="43.785040" lon="-1.209070">
        <time>2017-06-24T08:11:33Z</time>
      </trkpt>
      <trkpt lat="43.785350" lon="-1.209040">
        <time>2017-06-24T08:11:34Z</time>
      </trkpt>
      <trkpt lat="43.785670" lon="-1.209020">
        <time>2017-06-24T08:11:35Z</time>
      </trkpt>
      <trkpt lat="43.785950" lon="-1.209010">
        <time>2017-06-24T08:11:36Z</time>
      </trkpt>
      <trkpt lat="43.786250" lon="-1.209020">
        <time>2017-06-24T08:11:37Z</time>
      </trkpt>
      <trkpt lat="43.786570" lon="-1.209040">
        <time>2017-06-24T08:11:38Z</time>
      </trkpt>
      <trkpt lat="43.786850" lon="-1.209060">
        <time>2017-06-24T08:11:39Z</time>
      </trkpt>
      <trkpt lat="43.787170" lon="-1.209090">
        <time>2017-06-24T08:11:40Z</time>
      </trkpt>
      <trkpt lat="43.787440" lon="-1.209110">
        <time>2017-06-24T08:11:41Z</time>
      </trkpt>
      <trkpt lat="43.787720" lon="-1.209130">
        <time>2017-06-24T08:11:42Z</time>
      </trkpt>
      <trkpt lat="43.788030" lon="-1.209160">
        <time>2017-06-24T08:11:43Z</time>
      </trkpt>
      <trkpt lat="43.788290" lon="-1.209190">
        <time>2017-06-24T08:11:44Z</time>
      </trkpt>
      <trkpt lat="43.788580" lon="-1.209210">
        <time>2017-06-24T08:11:45Z</time>
      </trkpt>
      <trkpt lat="43.788860" lon="-1.209230">
        <time>2017-06-24T08:11:46Z</time>
      </trkpt>
      <trkpt lat="43.789150" lon="-1.209250">
        <time>2017-06-24T08:11:47Z</time>
      </trkpt>
      <trkpt lat="43.789450" lon="-1.209260">
        <time>2017-06-24T08:11:48Z</time>
      </trkpt>
      <trkpt lat="43.789720" lon="-1.209250">
        <time>2017-06-24T08:11:49Z</time>
      </trkpt>
      <trkpt lat="43.790000" lon="-1.209240">
        <time>2017-06-24T08:11:50Z</time>
      </trkpt>
      <trkpt lat="43.790310" lon="-1.209220">
        <time>2017-06-24T08:11:51Z</time>
      </trkpt>
      <trkpt lat="43.790580" lon="-1.209180">
        <time>2017-06-24T08:11:52Z</time>
      </trkpt>
      <trkpt lat="43.790860" lon="-1.209140">
        <time>2017-06-24T08:11:53Z</time>
      </trkpt>
      <trkpt lat="43.791170" lon="-1.209080">
        <time>2017-06-24T08:11:54Z</time>
      </trkpt>
      <trkpt lat="43.791430" lon="-1.209030">
        <time>2017-06-24T08:11:55Z</time>
      </trkpt>
      <trkpt lat="43.791740" lon="-1.208950">
        <time>2017-06-24T08:11:56Z</time>
      </trkpt>
      <trkpt lat="43.792000" lon="-1.208880">
        <time>2017-06-24T08:11:57Z</time>
      </trkpt>
      <trkpt lat="43.792280" lon="-1.208780">
        <time>2017-06-24T08:11:58Z</time>
      </trkpt>
      <trkpt lat="43.792570" lon="-1.208670">
        <time>2017-06-24T08:11:59Z</time>
      </trkpt>
      <trkpt lat="43.792820" lon="-1.208570">
        <time>2017-06-24T08:12:00Z</time>
      </trkpt>
      <trkpt lat="43.793090" lon="-1.208440">
        <time>2017-06-24T08:12:01Z</time>
      </trkpt>
      <trkpt lat="43.793350" lon="-1.208300">
        <time>2017-06-24T08:12:02Z</time>
      </trkpt>
      <trkpt lat="43.793610" lon="-1.208160">
        <time>2017-06-24T08:12:03Z</time>
      </trkpt>
      <trkpt lat="43.793880" lon="-1.208010">
        <time>2017-06-24T08:12:04Z</time>
      </trkpt>
      <trkpt lat="43.794120" lon="-1.207860">
        <time>2017-06-24T08:12:05Z</time>
      </trkpt>
      <trkpt lat="43.794370" lon="-1.207700">
        <time>2017-06-24T08:12:06Z</time>
      </trkpt>
      <trkpt lat="43.794630" lon="-1.207530">
        <time>2017-06-24T08:12:07Z</time>
      </trkpt>
      <trkpt lat="43.794860" lon="-1.207380">
        <time>2017-06-24T08:12:08Z</time>
      </trkpt>
      <trkpt lat="43.795110" lon="-1.207210">
        <time>2017-06-24T08:12:09Z</time>
      </trkpt>
      <trkpt lat="43.795370" lon="-1.207030">
        <time>2017-06-24T08:12:10Z</time>
      </trkpt>
      <trkpt lat="43.795600" lon="-1.206870">
        <time>2017-06-24T08:12:11Z</time>
      </trkpt>
      <trkpt lat="43.795860" lon="-1.206690">
        <time>2017-06-24T08:12:12Z</time>
      </trkpt>
      <trkpt lat="43.796100" lon="-1.206540">
        <time>2017-06-24T08:12:13Z</time>
      </trkpt>
      <trkpt lat="43.796350" lon="-1.206360">
        <time>2017-06-24T08:12:14Z</time>
      </trkpt>
      <trkpt lat="43.796620" lon="-1.206180">
        <time>2017-06-24T08:12:15Z</time>
      </trkpt>
      <trkpt lat="43.796860" lon="-1.206020">
        <time>2017-06-24T08:12:16Z</time>
      </trkpt>
      <trkpt lat="43.797110" lon="-1.205850">
        <time>2017-06-24T08:12:17Z</time>
      </trkpt>
      <trkpt lat="43.797350" lon="-1.205680">
        <time>2017-06-24T08:12:18Z</time>
      </trkpt>
      <trkpt lat="43.797600" lon="-1.205510">
        <time>2017-06-24T08:12:19Z</time>
      </trkpt>
      <trkpt lat="43.797870" lon="-1.205340">
        <time>2017-06-24T08:12:20Z</time>
      </trkpt>
      <trkpt lat="43.798100" lon="-1.205180">
        <time>2017-06-24T08:12:21Z</time>
      </trkpt>
      <trkpt lat="43.798350" lon="-1.205010">
        <time>2017-06-24T08:12:22Z</time>
      </trkpt>
      <trkpt lat="43.798610" lon="-1.204830">
        <time>2017-06-24T08:12:23Z</time>
      </trkpt>
      <trkpt lat="43.798850" lon="-1.204680">
        <time>2017-06-24T08:12:24Z</time>
      </trkpt>
      <trkpt lat="43.799090" lon="-1.204500">
        <time>2017-06-24T08:12:25Z</time>
      </trkpt>
      <trkpt lat="43.799360" lon="-1.204330">
        <time>2017-06-24T08:12:26Z</time>
      </trkpt>
      <trkpt lat="43.799600" lon="-1.204170">
        <time>2017-06-24T08:12:27Z</time>
      </trkpt>
      <trkpt lat="43.799870" lon="-1.203990">
        <time>2017-06-24T08:12:28Z</time>
      </trkpt>
      <trkpt lat="43.800100" lon="-1.203820">
        <time>2017-06-24T08:12:29Z</time>
      </trkpt>
      <trkpt lat="43.800350" lon="-1.203650">
        <time>2017-06-24T08:12:30Z</time>
      </trkpt>
      <trkpt lat="43.800630" lon="-1.203470">
        <time>2017-06-24T08:12:31Z</time>
      </trkpt>
      <trkpt lat="43.800870" lon="-1.203310">
        <time>2017-06-24T08:12:32Z</time>
      </trkpt>
      <trkpt lat="43.801120" lon="-1.203130">
        <time>2017-06-24T08:12:33Z</time>
      </trkpt>
      <trkpt lat="43.801380" lon="-1.202950">
        <time>2017-06-24T08:12:34Z</time>
      </trkpt>
      <trkpt lat="43.801640" lon="-1.202780">
        <time>2017-06-24T08:12:35Z</time>
      </trkpt>
      <trkpt lat="43.801910" lon="-1.202600">
        <time>2017-06-24T08:12:36Z</time>
      </trkpt>
      <trkpt lat="43.802140" lon="-1.202440">
        <time>2017-06-24T08:12:37Z</time>
      </trkpt>
      <trkpt lat="43.802400" lon="-1.202270">
        <time>2017-06-24T08:12:38Z</time>
      </trkpt>
      <trkpt lat="43.802660" lon="-1.202090">
        <time>2017-06-24T08:12:39Z</time>
      </trkpt>
      <trkpt lat="43.802890" lon="-1.201930">
        <time>2017-06-24T08:12:40Z</time>
      </trkpt>
      <trkpt lat="43.803150" lon="-1.201770">
        <time>2017-06-24T08:12:41Z</time>
      </trkpt>
      <trkpt lat="43.803410" lon="-1.201580">
        <time>2017-06-24T08:12:42Z</time>
      </trkpt>
      <trkpt lat="43.803650" lon="-1.201420">
        <time>2017-06-24T08:12:43Z</time>
      </trkpt>
      <trkpt lat="43.803910" lon="-1.201250">
        <time>2017-06-24T08:12:44Z</time>
      </trkpt>
      <trkpt lat="43.804150" lon="-1.201090">
        <time>2017-06-24T08:12:45Z</time>
      </trkpt>
      <trkpt lat="43.804410" lon="-1.200920">
        <time>2017-06-24T08:12:46Z</time>
      </trkpt>
      <trkpt lat="43.804680" lon="-1.200730">
        <time>2017-06-24T08:12:47Z</time>
      </trkpt>
      <trkpt lat="43.804920" lon="-1.200580">
        <time>2017-06-24T08:12:48Z</time>
      </trkpt>
      <trkpt lat="43.805170" lon="-1.200410">
        <time>2017-06-24T08:12:49Z</time>
      </trkpt>
      <trkpt lat="43.805420" lon="-1.200240">
        <time>2017-06-24T08:12:50Z</time>
      </trkpt>
      <trkpt lat="43.805670" lon="-1.200070">
        <time>2017-06-24T08:12:51Z</time>
      </trkpt>
      <trkpt lat="43.805950" lon="-1.199890">
        <time>2017-06-24T08:12:52Z</time>
      </trkpt>
      <trkpt lat="43.806190" lon="-1.199720">
        <time>2017-06-24T08:12:53Z</time>
      </trkpt>
      <trkpt lat="43.806440" lon="-1.199550">
        <time>2017-06-24T08:12:54Z</time>
      </trkpt>
      <trkpt lat="43.806720" lon="-1.199360">
        <time>2017-06-24T08:12:55Z</time>
      </trkpt>
      <trkpt lat="43.806970" lon="-1.199210">
        <time>2017-06-24T08:12:56Z</time>
      </trkpt>
      <trkpt lat="43.807230" lon="-1.199030">
        <time>2017-06-24T08:12:57Z</time>
      </trkpt>
      <trkpt lat="43.807510" lon="-1.198850">
        <time>2017-06-24T08:12:58Z</time>
      </trkpt>
      <trkpt lat="43.807750" lon="-1.198690">
        <time>2017-06-24T08:12:59Z</time>
      </trkpt>
      <trkpt lat="43.808020" lon="-1.198500">
        <time>2017-06-24T08:13:00Z</time>
      </trkpt>
      <trkpt lat="43.808270" lon="-1.198330">
        <time>2017-06-24T08:13:01Z</time>
      </trkpt>
      <trkpt lat="43.808520" lon="-1.198150">
        <time>2017-06-24T08:13:02Z</time>
      </trkpt>
      <trkpt lat="43.808800" lon="-1.197970">
        <time>2017-06-24T08:13:03Z</time>
      </trkpt>
      <trkpt lat="43.809040" lon="-1.197810">
        <time>2017-06-24T08:13:04Z</time>
      </trkpt>
      <trkpt lat="43.809300" lon="-1.197630">
        <time>2017-06-24T08:13:05Z</time>
      </trkpt>
      <trkpt lat="43.809560" lon="-1.197460">
        <time>2017-06-24T08:13:06Z</time>
      </trkpt>
      <trkpt lat="43.809820" lon="-1.197280">
        <time>2017-06-24T08:13:07Z</time>
      </trkpt>
      <trkpt lat="43.810090" lon="-1.197100">
        <time>2017-06-24T08:13:08Z</time>
      </trkpt>
      <trkpt lat="43.810330" lon="-1.196940">
        <time>2017-06-24T08:13:09Z</time>
      </trkpt>
      <trkpt lat="43.810570" lon="-1.196770">
        <time>2017-06-24T08:13:10Z</time>
      </trkpt>
      <trkpt lat="43.810850" lon="-1.196590">
        <time>2017-06-24T08:13:11Z</time>
      </trkpt>
      <trkpt lat="43.811080" lon="-1.196420">
        <time>2017-06-24T08:13:12Z</time>
      </trkpt>
      <trkpt lat="43.811340" lon="-1.196250">
        <time>2017-06-24T08:13:13Z</time>
      </trkpt>
      <trkpt lat="43.811620" lon="-1.196070">
        <time>2017-06-24T08:13:14Z</time>
      </trkpt>
      <trkpt lat="43.811860" lon="-1.195900">
        <time>2017-06-24T08:13:15Z</time>
      </trkpt>
      <trkpt lat="43.812140" lon="-1.195720">
        <time>2017-06-24T08:13:16Z</time>
      </trkpt>
      <trkpt lat="43.812380" lon="-1.195560">
        <time>2017-06-24T08:13:17Z</time>
      </trkpt>
      <trkpt lat="43.812630" lon="-1.195390">
        <time>2017-06-24T08:13:18Z</time>
      </trkpt>
      <trkpt lat="43.812900" lon="-1.195210">
        <time>2017-06-24T08:13:19Z</time>
      </trkpt>
      <trkpt lat="43.813130" lon="-1.195050">
        <time>2017-06-24T08:13:20Z</time>
      </trkpt>
      <trkpt lat="43.813380" lon="-1.194880">
        <time>2017-06-24T08:13:21Z</time>
      </trkpt>
      <trkpt lat="43.813630" lon="-1.194720">
        <time>2017-06-24T08:13:22Z</time>
      </trkpt>
      <trkpt lat="43.813890" lon="-1.194540">
        <time>2017-06-24T08:13:23Z</time>
      </trkpt>
      <trkpt lat="43.814170" lon="-1.194360">
        <time>2017-06-24T08:13:24Z</time>
      </trkpt>
      <trkpt lat="43.814410" lon="-1.194200">
        <time>2017-06-24T08:13:25Z</time>
      </trkpt>
      <trkpt lat="43.814680" lon="-1.194020">
        <time>2017-06-24T08:13:26Z</time>
      </trkpt>
      <trkpt lat="43.814950" lon="-1.193840">
        <time>2017-06-24T08:13:27Z</time>
      </trkpt>
      <trkpt lat="43.815190" lon="-1.193670">
        <time>2017-06-24T08:13:28Z</time>
      </trkpt>
      <trkpt lat="43.815440" lon="-1.193500">
        <time>2017-06-24T08:13:29Z</time>
      </trkpt>
      <trkpt lat="43.815700" lon="-1.193330">
        <time>2017-06-24T08:13:30Z</time>
      </trkpt>
      <trkpt lat="43.815930" lon="-1.193180">
        <time>2017-06-24T08:13:31Z</time>
      </trkpt>
      <trkpt lat="43.816180" lon="-1.193000">
        <time>2017-06-24T08:13:32Z</time>
      </trkpt>
      <trkpt lat="43.816410" lon="-1.192850">
        <time>2017-06-24T08:13:33Z</time>
      </trkpt>
      <trkpt lat="43.816670" lon="-1.192690">
        <time>2017-06-24T08:13:34Z</time>
      </trkpt>
      <trkpt lat="43.816950" lon="-1.192520">
        <time>2017-06-24T08:13:35Z</time>
      </trkpt>
      <trkpt lat="43.817190" lon="-1.192370">
        <time>2017-06-24T08:13:36Z</time>
      </trkpt>
      <trkpt lat="43.817460" lon="-1.192190">
        <time>2017-06-24T08:13:37Z</time>
      </trkpt>
      <trkpt lat="43.817720" lon="-1.192020">
        <time>2017-06-24T08:13:38Z</time>
      </trkpt>
      <trkpt lat="43.817980" lon="-1.191840">
        <time>2017-06-24T08:13:39Z</time>
      </trkpt>
      <trkpt lat="43.818260" lon="-1.191650">
        <time>2017-06-24T08:13:40Z</time>
      </trkpt>
      <trkpt lat="43.818510" lon="-1.191480">
        <time>2017-06-24T08:13:41Z</time>
      </trkpt>
      <trkpt lat="43.818770" lon="-1.191300">
        <time>2017-06-24T08:13:42Z</time>
      </trkpt>
      <trkpt lat="43.819060" lon="-1.191110">
        <time>2017-06-24T08:13:43Z</time>
      </trkpt>
      <trkpt lat="43.819310" lon="-1.190940">
        <time>2017-06-24T08:13:44Z</time>
      </trkpt>
      <trkpt lat="43.819580" lon="-1.190760">
        <time>2017-06-24T08:13:45Z</time>
      </trkpt>
      <trkpt lat="43.819870" lon="-1.190560">
        <time>2017-06-24T08:13:46Z</time>
      </trkpt>
      <trkpt lat="43.820120" lon="-1.190390">
        <time>2017-06-24T08:13:47Z</time>
      </trkpt>
      <trkpt lat="43.820410" lon="-1.190200">
        <time>2017-06-24T08:13:48Z</time>
      </trkpt>
      <trkpt lat="43.820660" lon="-1.190030">
        <time>2017-06-24T08:13:49Z</time>
      </trkpt>
      <trkpt lat="43.820930" lon="-1.189860">
        <time>2017-06-24T08:13:50Z</time>
      </trkpt>
      <trkpt lat="43.821220" lon="-1.189660">
        <time>2017-06-24T08:13:51Z</time>
      </trkpt>
      <trkpt lat="43.821460" lon="-1.189490">
        <time>2017-06-24T08:13:52Z</time>
      </trkpt>
      <trkpt lat="43.821730" lon="-1.189310">
        <time>2017-06-24T08:13:53Z</time>
      </trkpt>
      <trkpt lat="43.821990" lon="-1.189130">
        <time>2017-06-24T08:13:54Z</time>
      </trkpt>
      <trkpt lat="43.822250" lon="-1.188960">
        <time>2017-06-24T08:13:55Z</time>
      </trkpt>
      <trkpt lat="43.822520" lon="-1.188780">
        <time>2017-06-24T08:13:56Z</time>
      </trkpt>
      <trkpt lat="43.822750" lon="-1.188620">
        <time>2017-06-24T08:13:57Z</time>
      </trkpt>
      <trkpt lat="43.823000" lon="-1.188460">
        <time>2017-06-24T08:13:58Z</time>
      </trkpt>
      <trkpt lat="43.823270" lon="-1.188280">
        <time>2017-06-24T08:13:59Z</time>
      </trkpt>
      <trkpt lat="43.823510" lon="-1.188120">
        <time>2017-06-24T08:14:00Z</time>
      </trkpt>
      <trkpt lat="43.823760" lon="-1.187950">
        <time>2017-06-24T08:14:01Z</time>
      </trkpt>
      <trkpt lat="43.824030" lon="-1.187770">
        <time>2017-06-24T08:14:02Z</time>
      </trkpt>
      <trkpt lat="43.824250" lon="-1.187610">
        <time>2017-06-24T08:14:03Z</time>
      </trkpt>
      <trkpt lat="43.824510" lon="-1.187430">
        <time>2017-06-24T08:14:04Z</time>
      </trkpt>
      <trkpt lat="43.824740" lon="-1.187280">
        <time>2017-06-24T08:14:05Z</time>
      </trkpt>
      <trkpt lat="43.824980" lon="-1.187120">
        <time>2017-06-24T08:14:06Z</time>
      </trkpt>
      <trkpt lat="43.825230" lon="-1.186950">
        <time>2017-06-24T08:14:07Z</time>
      </trkpt>
      <trkpt lat="43.825460" lon="-1.186790">
        <time>2017-06-24T08:14:08Z</time>
      </trkpt>
      <trkpt lat="43.825700" lon="-1.186640">
        <time>2017-06-24T08:14:09Z</time>
      </trkpt>
      <trkpt lat="43.825940" lon="-1.186480">
        <time>2017-06-24T08:14:10Z</time>
      </trkpt>
      <trkpt lat="43.826190" lon="-1.186310">
        <time>2017-06-24T08:14:11Z</time>
      </trkpt>
      <trkpt lat="43.826450" lon="-1.186130">
        <time>2017-06-24T08:14:12Z</time>
      </trkpt>
      <trkpt lat="43.826670" lon="-1.185960">
        <time>2017-06-24T08:14:13Z</time>
      </trkpt>
      <trkpt lat="43.826920" lon="-1.185800">
        <time>2017-06-24T08:14:14Z</time>
      </trkpt>
      <trkpt lat="43.827170" lon="-1.185620">
        <time>2017-06-24T08:14:15Z</time>
      </trkpt>
      <trkpt lat="43.827390" lon="-1.185470">
        <time>2017-06-24T08:14:16Z</time>
      </trkpt>
      <trkpt lat="43.827640" lon="-1.185310">
        <time>2017-06-24T08:14:17Z</time>
      </trkpt>
      <trkpt lat="43.827890" lon="-1.185140">
        <time>2017-06-24T08:14:18Z</time>
      </trkpt>
      <trkpt lat="43.828120" lon="-1.184980">
        <time>2017-06-24T08:14:19Z</time>
      </trkpt>
      <trkpt lat="43.828380" lon="-1.184810">
        <time>2017-06-24T08:14:20Z</time>
      </trkpt>
      <trkpt lat="43.828600" lon="-1.184650">
        <time>2017-06-24T08:14:21Z</time>
      </trkpt>
      <trkpt lat="43.828850" lon="-1.184500">
        <time>2017-06-24T08:14:22Z</time>
      </trkpt>
      <trkpt lat="43.829100" lon="-1.184330">
        <time>2017-06-24T08:14:23Z</time>
      </trkpt>
      <trkpt lat="43.829320" lon="-1.184180">
        <time>2017-06-24T08:14:24Z</time>
      </trkpt>
      <trkpt lat="43.829550" lon="-1.184020">
        <time>2017-06-24T08:14:25Z</time>
      </trkpt>
      <trkpt lat="43.829780" lon="-1.183870">
        <time>2017-06-24T08:14:26Z</time>
      </trkpt>
      <trkpt lat="43.830000" lon="-1.183720">
        <time>2017-06-24T08:14:27Z</time>
      </trkpt>
      <trkpt lat="43.830240" lon="-1.183560">
        <time>2017-06-24T08:14:28Z</time>
      </trkpt>
      <trkpt lat="43.830440" lon="-1.183420">
        <time>2017-06-24T08:14:29Z</time>
      </trkpt>
      <trkpt lat="43.830660" lon="-1.183260">
        <time>2017-06-24T08:14:30Z</time>
      </trkpt>
      <trkpt lat="43.830880" lon="-1.183110">
        <time>2017-06-24T08:14:31Z</time>
      </trkpt>
      <trkpt lat="43.831080" lon="-1.182980">
        <time>2017-06-24T08:14:32Z</time>
      </trkpt>
      <trkpt lat="43.831280" lon="-1.182840">
        <time>2017-06-24T08:14:33Z</time>
      </trkpt>
      <trkpt lat="43.831500" lon="-1.182700">
        <time>2017-06-24T08:14:34Z</time>
      </trkpt>
      <trkpt lat="43.831680" lon="-1.182580">
        <time>2017-06-24T08:14:35Z</time>
      </trkpt>
      <trkpt lat="43.831880" lon="-1.182440">
        <time>2017-06-24T08:14:36Z</time>
      </trkpt>
      <trkpt lat="43.832060" lon="-1.182320">
        <time>2017-06-24T08:14:37Z</time>
      </trkpt>
      <trkpt lat="43.832240" lon="-1.182200">
        <time>2017-06-24T08:14:38Z</time>
      </trkpt>
      <trkpt lat="43.832430" lon="-1.182070">
        <time>2017-06-24T08:14:39Z</time>
      </trkpt>
      <trkpt lat="43.832600" lon="-1.181950">
        <time>2017-06-24T08:14:40Z</time>
      </trkpt>
      <trkpt lat="43.832760" lon="-1.181820">
        <time>2017-06-24T08:14:41Z</time>
      </trkpt>
      <trkpt lat="43.832930" lon="-1.181690">
        <time>2017-06-24T08:14:42Z</time>
      </trkpt>
      <trkpt lat="43.833090" lon="-1.181560">
        <time>2017-06-24T08:14:43Z</time>
      </trkpt>
      <trkpt lat="43.833250" lon="-1.181430">
        <time>2017-06-24T08:14:44Z</time>
      </trkpt>
      <trkpt lat="43.833390" lon="-1.181320">
        <time>2017-06-24T08:14:45Z</time>
      </trkpt>
      <trkpt lat="43.833520" lon="-1.181200">
        <time>2017-06-24T08:14:46Z</time>
      </trkpt>
      <trkpt lat="43.833670" lon="-1.181080">
        <time>2017-06-24T08:14:47Z</time>
      </trkpt>
      <trkpt lat="43.833800" lon="-1.180980">
        <time>2017-06-24T08:14:48Z</time>
      </trkpt>
      <trkpt lat="43.833930" lon="-1.180880">
        <time>2017-06-24T08:14:49Z</time>
      </trkpt>
      <trkpt lat="43.834060" lon="-1.180790">
        <time>2017-06-24T08:14:50Z</time>
      </trkpt>
      <trkpt lat="43.834170" lon="-1.180690">
        <time>2017-06-24T08:14:51Z</time>
      </trkpt>
      <trkpt lat="43.834280" lon="-1.180600">
        <time>2017-06-24T08:14:52Z</time>
      </trkpt>
      <trkpt lat="43.834370" lon="-1.180530">
        <time>2017-06-24T08:14:53Z</time>
      </trkpt>
      <trkpt lat="43.834470" lon="-1.180450">
        <time>2017-06-24T08:14:54Z</time>
      </trkpt>
      <trkpt lat="43.834550" lon="-1.180370">
        <time>2017-06-24T08:14:55Z</time>
      </trkpt>
      <trkpt lat="43.834620" lon="-1.180310">
        <time>2017-06-24T08:14:56Z</time>
      </trkpt>
      <trkpt lat="43.834690" lon="-1.180240">
        <time>2017-06-24T08:14:57Z</time>
      </trkpt>
      <trkpt lat="43.834740" lon="-1.180180">
        <time>2017-06-24T08:14:58Z</time>
      </trkpt>
      <trkpt lat="43.834790" lon="-1.180130">
        <time>2017-06-24T08:14:59Z</time>
      </trkpt>
      <trkpt lat="43.834830" lon="-1.180090">
        <time>2017-06-24T08:15:00Z</time>
      </trkpt>
      <trkpt lat="43.834860" lon="-1.180080">
        <time>2017-06-24T08:15:01Z</time>
      </trkpt>
      <trkpt lat="43.834890" lon="-1.180060">
        <time>2017-06-24T08:15:02Z</time>
      </trkpt>
      <trkpt lat="43.834900" lon="-1.180050">
        <time>2017-06-24T08:15:03Z</time>
      </trkpt>
      <trkpt lat="43.834890" lon="-1.180050">
        <time>2017-06-24T08:15:04Z</time>
      </trkpt>
      <trkpt lat="43.834890" lon="-1.180050">
        <time>2017-06-24T08:15:05Z</time>
      </trkpt>
      <trkpt lat="43.834880" lon="-1.180040">
        <time>2017-06-24T08:15:06Z</time>
      </trkpt>
      <trkpt lat="43.834880" lon="-1.180040">
        <time>2017-06-24T08:15:07Z</time>
      </trkpt>
      <trkpt lat="43.834880" lon="-1.180040">
        <time>2017-06-24T08:15:08Z</time>
      </trkpt>
      <trkpt lat="43.834890" lon="-1.180030">
        <time>2017-06-24T08:15:09Z</time>
      </trkpt>
      <trkpt lat="43.834920" lon="-1.180020">
        <time>2017-06-24T08:15:10Z</time>
      </trkpt>
      <trkpt lat="43.834940" lon="-1.180000">
        <time>2017-06-24T08:15:11Z</time>
      </trkpt>
      <trkpt lat="43.834960" lon="-1.180000">
        <time>2017-06-24T08:15:12Z</time>
      </trkpt>
      <trkpt lat="43.834970" lon="-1.179990">
        <time>2017-06-24T08:15:13Z</time>
      </trkpt>
      <trkpt lat="43.834970" lon="-1.179980">
        <time>2017-06-24T08:15:14Z</time>
      </trkpt>
      <trkpt lat="43.834970" lon="-1.179980">
        <time>2017-06-24T08:15:15Z</time>
      </trkpt>
      <trkpt lat="43.834970" lon="-1.179980">
        <time>2017-06-24T08:15:16Z</time>
      </trkpt>
      <trkpt lat="43.834970" lon="-1.179980">
        <time>2017-06-24T08:15:17Z</time>
      </trkpt>
      <trkpt lat="43.834970" lon="-1.179980">
        <time>2017-06-24T08:15:18Z</time>
      </trkpt>
      <trkpt lat="43.834970" lon="-1.179980">
        <time>2017-06-24T08:15:19Z</time>
      </trkpt>
      <trkpt lat="43.834970" lon="-1.179980">
        <time>2017-06-24T08:15:20Z</time>
      </trkpt>
      <trkpt lat="43.834970" lon="-1.179980">
        <time>2017-06-24T08:15:21Z</time>
      </trkpt>
      <trkpt lat="43.834970" lon="-1.179980">
        <time>2017-06-24T08:15:22Z</time>
      </trkpt>
      <trkpt lat="43.834970" lon="-1.179980">
        <time>2017-06-24T08:15:23Z</time>
      </trkpt>
      <trkpt lat="43.834970" lon="-1.179980">
        <time>2017-06-24T08:15:24Z</time>
      </trkpt>
      <trkpt lat="43.834970" lon="-1.179980">
        <time>2017-06-24T08:15:25Z</time>
      </trkpt>
      <trkpt lat="43.834970" lon="-1.179980">
        <time>2017-06-24T08:15:26Z</time>
      </trkpt>
      <trkpt lat="43.834980" lon="-1.179990">
        <time>2017-06-24T08:15:27Z</time>
      </trkpt>
      <trkpt lat="43.834990" lon="-1.179990">
        <time>2017-06-24T08:15:28Z</time>
      </trkpt>
      <trkpt lat="43.835000" lon="-1.179990">
        <time>2017-06-24T08:15:29Z</time>
      </trkpt>
      <trkpt lat="43.835010" lon="-1.179980">
        <time>2017-06-24T08:15:30Z</time>
      </trkpt>
      <trkpt lat="43.835020" lon="-1.179970">
        <time>2017-06-24T08:15:31Z</time>
      </trkpt>
      <trkpt lat="43.835020" lon="-1.179970">
        <time>2017-06-24T08:15:32Z</time>
      </trkpt>
      <trkpt lat="43.835030" lon="-1.179960">
        <time>2017-06-24T08:15:33Z</time>
      </trkpt>
      <trkpt lat="43.835030" lon="-1.179970">
        <time>2017-06-24T08:15:34Z</time>
      </trkpt>
      <trkpt lat="43.835030" lon="-1.179970">
        <time>2017-06-24T08:15:35Z</time>
      </trkpt>
      <trkpt lat="43.835030" lon="-1.179970">
        <time>2017-06-24T08:15:36Z</time>
      </trkpt>
      <trkpt lat="43.835030" lon="-1.179970">
        <time>2017-06-24T08:15:37Z</time>
      </trkpt>
      <trkpt lat="43.835030" lon="-1.179970">
        <time>2017-06-24T08:15:38Z</time>
      </trkpt>
      <trkpt lat="43.835030" lon="-1.179970">
        <time>2017-06-24T08:15:39Z</time>
      </trkpt>
      <trkpt lat="43.835030" lon="-1.179970">
        <time>2017-06-24T08:15:40Z</time>
      </trkpt>
      <trkpt lat="43.835030" lon="-1.179970">
        <time>2017-06-24T08:15:41Z</time>
      </trkpt>
      <trkpt lat="43.835030" lon="-1.179970">
        <time>2017-06-24T08:15:42Z</time>
      </trkpt>
      <trkpt lat="43.835030" lon="-1.179970">
        <time>2017-06-24T08:15:43Z</time>
      </trkpt>
      <trkpt lat="43.835030" lon="-1.179970">
        <time>2017-06-24T08:15:44Z</time>
      </trkpt>
      <trkpt lat="43.835040" lon="-1.179960">
        <time>2017-06-24T08:15:45Z</time>
      </trkpt>
      <trkpt lat="43.835040" lon="-1.179960">
        <time>2017-06-24T08:15:46Z</time>
      </trkpt>
      <trkpt lat="43.835050" lon="-1.179950">
        <time>2017-06-24T08:15:47Z</time>
      </trkpt>
      <trkpt lat="43.835050" lon="-1.179950">
        <time>2017-06-24T08:15:48Z</time>
      </trkpt>
      <trkpt lat="43.835050" lon="-1.179950">
        <time>2017-06-24T08:15:49Z</time>
      </trkpt>
      <trkpt lat="43.835050" lon="-1.179950">
        <time>2017-06-24T08:15:50Z</time>
      </trkpt>
      <trkpt lat="43.835050" lon="-1.179950">
        <time>2017-06-24T08:15:51Z</time>
      </trkpt>
      <trkpt lat="43.835050" lon="-1.179950">
        <time>2017-06-24T08:15:52Z</time>
      </trkpt>
      <trkpt lat="43.835050" lon="-1.179950">
        <time>2017-06-24T08:15:53Z</time>
      </trkpt>
      <trkpt lat="43.835050" lon="-1.179950">
        <time>2017-06-24T08:15:54Z</time>
      </trkpt>
      <trkpt lat="43.835050" lon="-1.179950">
        <time>2017-06-24T08:15:55Z</time>
      </trkpt>
      <trkpt lat="43.835050" lon="-1.179950">
        <time>2017-06-24T08:15:56Z</time>
      </trkpt>
      <trkpt lat="43.835050" lon="-1.179950">
        <time>2017-06-24T08:15:57Z</time>
      </trkpt>
      <trkpt lat="43.835050" lon="-1.179950">
        <time>2017-06-24T08:15:58Z</time>
      </trkpt>
      <trkpt lat="43.835050" lon="-1.179950">
        <time>2017-06-24T08:15:59Z</time>
      </trkpt>
      <trkpt lat="43.835050" lon="-1.179950">
        <time>2017-06-24T08:16:00Z</time>
      </trkpt>
      <trkpt lat="43.835050" lon="-1.179950">
        <time>2017-06-24T08:16:01Z</time>
      </trkpt>
      <trkpt lat="43.835050" lon="-1.179950">
        <time>2017-06-24T08:16:02Z</time>
      </trkpt>
      <trkpt lat="43.835050" lon="-1.179950">
        <time>2017-06-24T08:16:03Z</time>
      </trkpt>
      <trkpt lat="43.835050" lon="-1.179950">
        <time>2017-06-24T08:16:04Z</time>
      </trkpt>
      <trkpt lat="43.835050" lon="-1.179950">
        <time>2017-06-24T08:16:05Z</time>
      </trkpt>
      <trkpt lat="43.835050" lon="-1.179950">
        <time>2017-06-24T08:16:06Z</time>
      </trkpt>
      <trkpt lat="43.835050" lon="-1.179950">
        <time>2017-06-24T08:16:07Z</time>
      </trkpt>
      <trkpt lat="43.835050" lon="-1.179950">
        <time>2017-06-24T08:16:08Z</time>
      </trkpt>
      <trkpt lat="43.835050" lon="-1.179950">
        <time>2017-06-24T08:16:09Z</time>
      </trkpt>
      <trkpt lat="43.835050" lon="-1.179950">
        <time>2017-06-24T08:16:10Z</time>
      </trkpt>
      <trkpt lat="43.835050" lon="-1.179950">
        <time>2017-06-24T08:16:11Z</time>
      </trkpt>
      <trkpt lat="43.835050" lon="-1.179950">
        <time>2017-06-24T08:16:12Z</time>
      </trkpt>
      <trkpt lat="43.835050" lon="-1.179950">
        <time>2017-06-24T08:16:13Z</time>
      </trkpt>
      <trkpt lat="43.835060" lon="-1.179940">
        <time>2017-06-24T08:16:14Z</time>
      </trkpt>
      <trkpt lat="43.835070" lon="-1.179940">
        <time>2017-06-24T08:16:15Z</time>
      </trkpt>
      <trkpt lat="43.835080" lon="-1.179930">
        <time>2017-06-24T08:16:16Z</time>
      </trkpt>
      <trkpt lat="43.835090" lon="-1.179920">
        <time>2017-06-24T08:16:17Z</time>
      </trkpt>
      <trkpt lat="43.835090" lon="-1.179920">
        <time>2017-06-24T08:16:18Z</time>
      </trkpt>
      <trkpt lat="43.835090" lon="-1.179920">
        <time>2017-06-24T08:16:19Z</time>
      </trkpt>
      <trkpt lat="43.835090" lon="-1.179920">
        <time>2017-06-24T08:16:20Z</time>
      </trkpt>
      <trkpt lat="43.835090" lon="-1.179920">
        <time>2017-06-24T08:16:21Z</time>
      </trkpt>
      <trkpt lat="43.835090" lon="-1.179920">
        <time>2017-06-24T08:16:22Z</time>
      </trkpt>
      <trkpt lat="43.835090" lon="-1.179920">
        <time>2017-06-24T08:16:23Z</time>
      </trkpt>
      <trkpt lat="43.835090" lon="-1.179920">
        <time>2017-06-24T08:16:24Z</time>
      </trkpt>
      <trkpt lat="43.835090" lon="-1.179920">
        <time>2017-06-24T08:16:25Z</time>
      </trkpt>
      <trkpt lat="43.835090" lon="-1.179920">
        <time>2017-06-24T08:16:26Z</time>
      </trkpt>
      <trkpt lat="43.835090" lon="-1.179920">
        <time>2017-06-24T08:16:27Z</time>
      </trkpt>
      <trkpt lat="43.835090" lon="-1.179920">
        <time>2017-06-24T08:16:28Z</time>
      </trkpt>
      <trkpt lat="43.835090" lon="-1.179920">
        <time>2017-06-24T08:16:29Z</time>
      </trkpt>
      <trkpt lat="43.835090" lon="-1.179920">
        <time>2017-06-24T08:16:30Z</time>
      </trkpt>
      <trkpt lat="43.835090" lon="-1.179920">
        <time>2017-06-24T08:16:31Z</time>
      </trkpt>
      <trkpt lat="43.835090" lon="-1.179920">
        <time>2017-06-24T08:16:32Z</time>
      </trkpt>
      <trkpt lat="43.835090" lon="-1.179920">
        <time>2017-06-24T08:16:33Z</time>
      </trkpt>
      <trkpt lat="43.835090" lon="-1.179920">
        <time>2017-06-24T08:16:34Z</time>
      </trkpt>
      <trkpt lat="43.835090" lon="-1.179920">
        <time>2017-06-24T08:16:35Z</time>
      </trkpt>
      <trkpt lat="43.835090" lon="-1.179920">
        <time>2017-06-24T08:16:36Z</time>
      </trkpt>
      <trkpt lat="43.835090" lon="-1.179920">
        <time>2017-06-24T08:16:37Z</time>
      </trkpt>
      <trkpt lat="43.835090" lon="-1.179920">
        <time>2017-06-24T08:16:38Z</time>
      </trkpt>
      <trkpt lat="43.835090" lon="-1.179920">
        <time>2017-06-24T08:16:39Z</time>
      </trkpt>
      <trkpt lat="43.835090" lon="-1.179920">
        <time>2017-06-24T08:16:40Z</time>
      </trkpt>
      <trkpt lat="43.835090" lon="-1.179920">
        <time>2017-06-24T08:16:41Z</time>
      </trkpt>
      <trkpt lat="43.835090" lon="-1.179920">
        <time>2017-06-24T08:16:42Z</time>
      </trkpt>
      <trkpt lat="43.835090" lon="-1.179920">
        <time>2017-06-24T08:16:43Z</time>
      </trkpt>
      <trkpt lat="43.835090" lon="-1.179920">
        <time>2017-06-24T08:16:44Z</time>
      </trkpt>
      <trkpt lat="43.835090" lon="-1.179920">
        <time>2017-06-24T08:16:45Z</time>
      </trkpt>
      <trkpt lat="43.835090" lon="-1.179920">
        <time>2017-06-24T08:16:46Z</time>
      </trkpt>
      <trkpt lat="43.835090" lon="-1.179920">
        <time>2017-06-24T08:16:47Z</time>
      </trkpt>
      <trkpt lat="43.835090" lon="-1.179920">
        <time>2017-06-24T08:16:48Z</time>
      </trkpt>
      <trkpt lat="43.835090" lon="-1.179920">
        <time>2017-06-24T08:16:49Z</time>
      </trkpt>
      <trkpt lat="43.835090" lon="-1.179920">
        <time>2017-06-24T08:16:50Z</time>
      </trkpt>
      <trkpt lat="43.835090" lon="-1.179920">
        <time>2017-06-24T08:16:51Z</time>
      </trkpt>
      <trkpt lat="43.835090" lon="-1.179920">
        <time>2017-06-24T08:16:52Z</time>
      </trkpt>
      <trkpt lat="43.835090" lon="-1.179920">
        <time>2017-06-24T08:16:53Z</time>
      </trkpt>
      <trkpt lat="43.835090" lon="-1.179920">
        <time>2017-06-24T08:16:54Z</time>
      </trkpt>
      <trkpt lat="43.835090" lon="-1.179910">
        <time>2017-06-24T08:16:55Z</time>
      </trkpt>
      <trkpt lat="43.835100" lon="-1.179900">
        <time>2017-06-24T08:16:56Z</time>
      </trkpt>
      <trkpt lat="43.835110" lon="-1.179880">
        <time>2017-06-24T08:16:57Z</time>
      </trkpt>
      <trkpt lat="43.835150" lon="-1.179850">
        <time>2017-06-24T08:16:58Z</time>
      </trkpt>
      <trkpt lat="43.835230" lon="-1.179800">
        <time>2017-06-24T08:16:59Z</time>
      </trkpt>
      <trkpt lat="43.835310" lon="-1.179750">
        <time>2017-06-24T08:17:00Z</time>
      </trkpt>
      <trkpt lat="43.835400" lon="-1.179710">
        <time>2017-06-24T08:17:01Z</time>
      </trkpt>
      <trkpt lat="43.835490" lon="-1.179660">
        <time>2017-06-24T08:17:02Z</time>
      </trkpt>
      <trkpt lat="43.835600" lon="-1.179600">
        <time>2017-06-24T08:17:03Z</time>
      </trkpt>
      <trkpt lat="43.835690" lon="-1.179560">
        <time>2017-06-24T08:17:04Z</time>
      </trkpt>
      <trkpt lat="43.835800" lon="-1.179500">
        <time>2017-06-24T08:17:05Z</time>
      </trkpt>
      <trkpt lat="43.835930" lon="-1.179440">
        <time>2017-06-24T08:17:06Z</time>
      </trkpt>
      <trkpt lat="43.836060" lon="-1.179370">
        <time>2017-06-24T08:17:07Z</time>
      </trkpt>
      <trkpt lat="43.836220" lon="-1.179290">
        <time>2017-06-24T08:17:08Z</time>
      </trkpt>
      <trkpt lat="43.836360" lon="-1.179220">
        <time>2017-06-24T08:17:09Z</time>
      </trkpt>
      <trkpt lat="43.836500" lon="-1.179140">
        <time>2017-06-24T08:17:10Z</time>
      </trkpt>
      <trkpt lat="43.836660" lon="-1.179050">
        <time>2017-06-24T08:17:11Z</time>
      </trkpt>
      <trkpt lat="43.836810" lon="-1.178960">
        <time>2017-06-24T08:17:12Z</time>
      </trkpt>
      <trkpt lat="43.836980" lon="-1.178870">
        <time>2017-06-24T08:17:13Z</time>
      </trkpt>
      <trkpt lat="43.837160" lon="-1.178760">
        <time>2017-06-24T08:17:14Z</time>
      </trkpt>
      <trkpt lat="43.837320" lon="-1.178670">
        <time>2017-06-24T08:17:15Z</time>
      </trkpt>
      <trkpt lat="43.837510" lon="-1.178560">
        <time>2017-06-24T08:17:16Z</time>
      </trkpt>
      <trkpt lat="43.837690" lon="-1.178450">
        <time>2017-06-24T08:17:17Z</time>
      </trkpt>
      <trkpt lat="43.837880" lon="-1.178320">
        <time>2017-06-24T08:17:18Z</time>
      </trkpt>
      <trkpt lat="43.838100" lon="-1.178180">
        <time>2017-06-24T08:17:19Z</time>
      </trkpt>
      <trkpt lat="43.838290" lon="-1.178050">
        <time>2017-06-24T08:17:20Z</time>
      </trkpt>
      <trkpt lat="43.838500" lon="-1.177900">
        <time>2017-06-24T08:17:21Z</time>
      </trkpt>
      <trkpt lat="43.838700" lon="-1.177770">
        <time>2017-06-24T08:17:22Z</time>
      </trkpt>
      <trkpt lat="43.838920" lon="-1.177630">
        <time>2017-06-24T08:17:23Z</time>
      </trkpt>
      <trkpt lat="43.839150" lon="-1.177460">
        <time>2017-06-24T08:17:24Z</time>
      </trkpt>
      <trkpt lat="43.839370" lon="-1.177320">
        <time>2017-06-24T08:17:25Z</time>
      </trkpt>
      <trkpt lat="43.839600" lon="-1.177170">
        <time>2017-06-24T08:17:26Z</time>
      </trkpt>
      <trkpt lat="43.839860" lon="-1.177000">
        <time>2017-06-24T08:17:27Z</time>
      </trkpt>
      <trkpt lat="43.840080" lon="-1.176850">
        <time>2017-06-24T08:17:28Z</time>
      </trkpt>
      <trkpt lat="43.840310" lon="-1.176690">
        <time>2017-06-24T08:17:29Z</time>
      </trkpt>
      <trkpt lat="43.840560" lon="-1.176520">
        <time>2017-06-24T08:17:30Z</time>
      </trkpt>
      <trkpt lat="43.840780" lon="-1.176370">
        <time>2017-06-24T08:17:31Z</time>
      </trkpt>
      <trkpt lat="43.841040" lon="-1.176200">
        <time>2017-06-24T08:17:32Z</time>
      </trkpt>
      <trkpt lat="43.841270" lon="-1.176040">
        <time>2017-06-24T08:17:33Z</time>
      </trkpt>
      <trkpt lat="43.841510" lon="-1.175870">
        <time>2017-06-24T08:17:34Z</time>
      </trkpt>
      <trkpt lat="43.841780" lon="-1.175700">
        <time>2017-06-24T08:17:35Z</time>
      </trkpt>
      <trkpt lat="43.842010" lon="-1.175540">
        <time>2017-06-24T08:17:36Z</time>
      </trkpt>
      <trkpt lat="43.842260" lon="-1.175370">
        <time>2017-06-24T08:17:37Z</time>
      </trkpt>
      <trkpt lat="43.842510" lon="-1.175200">
        <time>2017-06-24T08:17:38Z</time>
      </trkpt>
      <trkpt lat="43.842760" lon="-1.175040">
        <time>2017-06-24T08:17:39Z</time>
      </trkpt>
      <trkpt lat="43.843030" lon="-1.174860">
        <time>2017-06-24T08:17:40Z</time>
      </trkpt>
      <trkpt lat="43.843260" lon="-1.174710">
        <time>2017-06-24T08:17:41Z</time>
      </trkpt>
      <trkpt lat="43.843510" lon="-1.174540">
        <time>2017-06-24T08:17:42Z</time>
      </trkpt>
      <trkpt lat="43.843780" lon="-1.174370">
        <time>2017-06-24T08:17:43Z</time>
      </trkpt>
      <trkpt lat="43.844010" lon="-1.174210">
        <time>2017-06-24T08:17:44Z</time>
      </trkpt>
      <trkpt lat="43.844260" lon="-1.174040">
        <time>2017-06-24T08:17:45Z</time>
      </trkpt>
      <trkpt lat="43.844530" lon="-1.173860">
        <time>2017-06-24T08:17:46Z</time>
      </trkpt>
      <trkpt lat="43.844780" lon="-1.173700">
        <time>2017-06-24T08:17:47Z</time>
      </trkpt>
      <trkpt lat="43.845050" lon="-1.173520">
        <time>2017-06-24T08:17:48Z</time>
      </trkpt>
      <trkpt lat="43.845290" lon="-1.173350">
        <time>2017-06-24T08:17:49Z</time>
      </trkpt>
      <trkpt lat="43.845540" lon="-1.173180">
        <time>2017-06-24T08:17:50Z</time>
      </trkpt>
      <trkpt lat="43.845800" lon="-1.173010">
        <time>2017-06-24T08:17:51Z</time>
      </trkpt>
      <trkpt lat="43.846030" lon="-1.172850">
        <time>2017-06-24T08:17:52Z</time>
      </trkpt>
      <trkpt lat="43.846280" lon="-1.172670">
        <time>2017-06-24T08:17:53Z</time>
      </trkpt>
      <trkpt lat="43.846530" lon="-1.172500">
        <time>2017-06-24T08:17:54Z</time>
      </trkpt>
      <trkpt lat="43.846790" lon="-1.172320">
        <time>2017-06-24T08:17:55Z</time>
      </trkpt>
      <trkpt lat="43.847070" lon="-1.172140">
        <time>2017-06-24T08:17:56Z</time>
      </trkpt>
      <trkpt lat="43.847320" lon="-1.171970">
        <time>2017-06-24T08:17:57Z</time>
      </trkpt>
      <trkpt lat="43.847580" lon="-1.171790">
        <time>2017-06-24T08:17:58Z</time>
      </trkpt>
      <trkpt lat="43.847860" lon="-1.171600">
        <time>2017-06-24T08:17:59Z</time>
      </trkpt>
      <trkpt lat="43.848110" lon="-1.171440">
        <time>2017-06-24T08:18:00Z</time>
      </trkpt>
      <trkpt lat="43.848370" lon="-1.171260">
        <time>2017-06-24T08:18:01Z</time>
      </trkpt>
      <trkpt lat="43.848660" lon="-1.171060">
        <time>2017-06-24T08:18:02Z</time>
      </trkpt>
      <trkpt lat="43.848910" lon="-1.170890">
        <time>2017-06-24T08:18:03Z</time>
      </trkpt>
      <trkpt lat="43.849200" lon="-1.170700">
        <time>2017-06-24T08:18:04Z</time>
      </trkpt>
      <trkpt lat="43.849460" lon="-1.170530">
        <time>2017-06-24T08:18:05Z</time>
      </trkpt>
      <trkpt lat="43.849730" lon="-1.170350">
        <time>2017-06-24T08:18:06Z</time>
      </trkpt>
      <trkpt lat="43.850020" lon="-1.170150">
        <time>2017-06-24T08:18:07Z</time>
      </trkpt>
      <trkpt lat="43.850280" lon="-1.169980">
        <time>2017-06-24T08:18:08Z</time>
      </trkpt>
      <trkpt lat="43.850550" lon="-1.169790">
        <time>2017-06-24T08:18:09Z</time>
      </trkpt>
      <trkpt lat="43.850830" lon="-1.169610">
        <time>2017-06-24T08:18:10Z</time>
      </trkpt>
      <trkpt lat="43.851100" lon="-1.169420">
        <time>2017-06-24T08:18:11Z</time>
      </trkpt>
      <trkpt lat="43.851390" lon="-1.169230">
        <time>2017-06-24T08:18:12Z</time>
      </trkpt>
      <trkpt lat="43.851650" lon="-1.169060">
        <time>2017-06-24T08:18:13Z</time>
      </trkpt>
      <trkpt lat="43.851920" lon="-1.168870">
        <time>2017-06-24T08:18:14Z</time>
      </trkpt>
      <trkpt lat="43.852210" lon="-1.168670">
        <time>2017-06-24T08:18:15Z</time>
      </trkpt>
      <trkpt lat="43.852470" lon="-1.168500">
        <time>2017-06-24T08:18:16Z</time>
      </trkpt>
      <trkpt lat="43.852740" lon="-1.168320">
        <time>2017-06-24T08:18:17Z</time>
      </trkpt>
      <trkpt lat="43.853030" lon="-1.168120">
        <time>2017-06-24T08:18:18Z</time>
      </trkpt>
      <trkpt lat="43.853290" lon="-1.167940">
        <time>2017-06-24T08:18:19Z</time>
      </trkpt>
      <trkpt lat="43.853590" lon="-1.167740">
        <time>2017-06-24T08:18:20Z</time>
      </trkpt>
      <trkpt lat="43.853850" lon="-1.167570">
        <time>2017-06-24T08:18:21Z</time>
      </trkpt>
      <trkpt lat="43.854130" lon="-1.167380">
        <time>2017-06-24T08:18:22Z</time>
      </trkpt>
      <trkpt lat="43.854430" lon="-1.167180">
        <time>2017-06-24T08:18:23Z</time>
      </trkpt>
      <trkpt lat="43.854700" lon="-1.167000">
        <time>2017-06-24T08:18:24Z</time>
      </trkpt>
      <trkpt lat="43.854970" lon="-1.166810">
        <time>2017-06-24T08:18:25Z</time>
      </trkpt>
      <trkpt lat="43.855250" lon="-1.166630">
        <time>2017-06-24T08:18:26Z</time>
      </trkpt>
      <trkpt lat="43.855530" lon="-1.166440">
        <time>2017-06-24T08:18:27Z</time>
      </trkpt>
      <trkpt lat="43.855820" lon="-1.166240">
        <time>2017-06-24T08:18:28Z</time>
      </trkpt>
      <trkpt lat="43.856080" lon="-1.166060">
        <time>2017-06-24T08:18:29Z</time>
      </trkpt>
      <trkpt lat="43.856360" lon="-1.165880">
        <time>2017-06-24T08:18:30Z</time>
      </trkpt>
      <trkpt lat="43.856650" lon="-1.165680">
        <time>2017-06-24T08:18:31Z</time>
      </trkpt>
      <trkpt lat="43.856910" lon="-1.165500">
        <time>2017-06-24T08:18:32Z</time>
      </trkpt>
      <trkpt lat="43.857180" lon="-1.165310">
        <time>2017-06-24T08:18:33Z</time>
      </trkpt>
      <trkpt lat="43.857480" lon="-1.165110">
        <time>2017-06-24T08:18:34Z</time>
      </trkpt>
      <trkpt lat="43.857740" lon="-1.164940">
        <time>2017-06-24T08:18:35Z</time>
      </trkpt>
      <trkpt lat="43.858030" lon="-1.164740">
        <time>2017-06-24T08:18:36Z</time>
      </trkpt>
      <trkpt lat="43.858290" lon="-1.164560">
        <time>2017-06-24T08:18:37Z</time>
      </trkpt>
      <trkpt lat="43.858570" lon="-1.164370">
        <time>2017-06-24T08:18:38Z</time>
      </trkpt>
      <trkpt lat="43.858860" lon="-1.164170">
        <time>2017-06-24T08:18:39Z</time>
      </trkpt>
      <trkpt lat="43.859110" lon="-1.163980">
        <time>2017-06-24T08:18:40Z</time>
      </trkpt>
      <trkpt lat="43.859380" lon="-1.163790">
        <time>2017-06-24T08:18:41Z</time>
      </trkpt>
      <trkpt lat="43.859650" lon="-1.163590">
        <time>2017-06-24T08:18:42Z</time>
      </trkpt>
      <trkpt lat="43.859910" lon="-1.163400">
        <time>2017-06-24T08:18:43Z</time>
      </trkpt>
      <trkpt lat="43.860190" lon="-1.163200">
        <time>2017-06-24T08:18:44Z</time>
      </trkpt>
      <trkpt lat="43.860450" lon="-1.163020">
        <time>2017-06-24T08:18:45Z</time>
      </trkpt>
      <trkpt lat="43.860710" lon="-1.162830">
        <time>2017-06-24T08:18:46Z</time>
      </trkpt>
      <trkpt lat="43.860990" lon="-1.162640">
        <time>2017-06-24T08:18:47Z</time>
      </trkpt>
      <trkpt lat="43.861230" lon="-1.162460">
        <time>2017-06-24T08:18:48Z</time>
      </trkpt>
      <trkpt lat="43.861490" lon="-1.162280">
        <time>2017-06-24T08:18:49Z</time>
      </trkpt>
      <trkpt lat="43.861770" lon="-1.162080">
        <time>2017-06-24T08:18:50Z</time>
      </trkpt>
      <trkpt lat="43.862010" lon="-1.161920">
        <time>2017-06-24T08:18:51Z</time>
      </trkpt>
      <trkpt lat="43.862290" lon="-1.161740">
        <time>2017-06-24T08:18:52Z</time>
      </trkpt>
      <trkpt lat="43.862540" lon="-1.161570">
        <time>2017-06-24T08:18:53Z</time>
      </trkpt>
      <trkpt lat="43.862800" lon="-1.161390">
        <time>2017-06-24T08:18:54Z</time>
      </trkpt>
      <trkpt lat="43.863080" lon="-1.161190">
        <time>2017-06-24T08:18:55Z</time>
      </trkpt>
      <trkpt lat="43.863320" lon="-1.161020">
        <time>2017-06-24T08:18:56Z</time>
      </trkpt>
      <trkpt lat="43.863580" lon="-1.160830">
        <time>2017-06-24T08:18:57Z</time>
      </trkpt>
      <trkpt lat="43.863840" lon="-1.160640">
        <time>2017-06-24T08:18:58Z</time>
      </trkpt>
      <trkpt lat="43.864100" lon="-1.160450">
        <time>2017-06-24T08:18:59Z</time>
      </trkpt>
      <trkpt lat="43.864370" lon="-1.160240">
        <time>2017-06-24T08:19:00Z</time>
      </trkpt>
      <trkpt lat="43.864600" lon="-1.160040">
        <time>2017-06-24T08:19:01Z</time>
      </trkpt>
      <trkpt lat="43.864840" lon="-1.159800">
        <time>2017-06-24T08:19:02Z</time>
      </trkpt>
      <trkpt lat="43.865080" lon="-1.159530">
        <time>2017-06-24T08:19:03Z</time>
      </trkpt>
      <trkpt lat="43.865300" lon="-1.159290">
        <time>2017-06-24T08:19:04Z</time>
      </trkpt>
      <trkpt lat="43.865520" lon="-1.159030">
        <time>2017-06-24T08:19:05Z</time>
      </trkpt>
      <trkpt lat="43.865760" lon="-1.158740">
        <time>2017-06-24T08:19:06Z</time>
      </trkpt>
      <trkpt lat="43.865970" lon="-1.158480">
        <time>2017-06-24T08:19:07Z</time>
      </trkpt>
      <trkpt lat="43.866190" lon="-1.158190">
        <time>2017-06-24T08:19:08Z</time>
      </trkpt>
      <trkpt lat="43.866390" lon="-1.157920">
        <time>2017-06-24T08:19:09Z</time>
      </trkpt>
      <trkpt lat="43.866600" lon="-1.157620">
        <time>2017-06-24T08:19:10Z</time>
      </trkpt>
      <trkpt lat="43.866810" lon="-1.157300">
        <time>2017-06-24T08:19:11Z</time>
      </trkpt>
      <trkpt lat="43.867000" lon="-1.157010">
        <time>2017-06-24T08:19:12Z</time>
      </trkpt>
      <trkpt lat="43.867180" lon="-1.156690">
        <time>2017-06-24T08:19:13Z</time>
      </trkpt>
      <trkpt lat="43.867360" lon="-1.156360">
        <time>2017-06-24T08:19:14Z</time>
      </trkpt>
      <trkpt lat="43.867530" lon="-1.156040">
        <time>2017-06-24T08:19:15Z</time>
      </trkpt>
      <trkpt lat="43.867700" lon="-1.155690">
        <time>2017-06-24T08:19:16Z</time>
      </trkpt>
      <trkpt lat="43.867840" lon="-1.155380">
        <time>2017-06-24T08:19:17Z</time>
      </trkpt>
      <trkpt lat="43.867990" lon="-1.155050">
        <time>2017-06-24T08:19:18Z</time>
      </trkpt>
      <trkpt lat="43.868130" lon="-1.154700">
        <time>2017-06-24T08:19:19Z</time>
      </trkpt>
      <trkpt lat="43.868260" lon="-1.154380">
        <time>2017-06-24T08:19:20Z</time>
      </trkpt>
      <trkpt lat="43.868380" lon="-1.154050">
        <time>2017-06-24T08:19:21Z</time>
      </trkpt>
      <trkpt lat="43.868510" lon="-1.153690">
        <time>2017-06-24T08:19:22Z</time>
      </trkpt>
      <trkpt lat="43.868610" lon="-1.153380">
        <time>2017-06-24T08:19:23Z</time>
      </trkpt>
      <trkpt lat="43.868720" lon="-1.153010">
        <time>2017-06-24T08:19:24Z</time>
      </trkpt>
      <trkpt lat="43.868810" lon="-1.152690">
        <time>2017-06-24T08:19:25Z</time>
      </trkpt>
      <trkpt lat="43.868900" lon="-1.152340">
        <time>2017-06-24T08:19:26Z</time>
      </trkpt>
      <trkpt lat="43.868980" lon="-1.151960">
        <time>2017-06-24T08:19:27Z</time>
      </trkpt>
      <trkpt lat="43.869060" lon="-1.151630">
        <time>2017-06-24T08:19:28Z</time>
      </trkpt>
      <trkpt lat="43.869140" lon="-1.151270">
        <time>2017-06-24T08:19:29Z</time>
      </trkpt>
      <trkpt lat="43.869200" lon="-1.150910">
        <time>2017-06-24T08:19:30Z</time>
      </trkpt>
      <trkpt lat="43.869260" lon="-1.150550">
        <time>2017-06-24T08:19:31Z</time>
      </trkpt>
      <trkpt lat="43.869320" lon="-1.150160">
        <time>2017-06-24T08:19:32Z</time>
      </trkpt>
      <trkpt lat="43.869370" lon="-1.149820">
        <time>2017-06-24T08:19:33Z</time>
      </trkpt>
      <trkpt lat="43.869420" lon="-1.149450">
        <time>2017-06-24T08:19:34Z</time>
      </trkpt>
      <trkpt lat="43.869470" lon="-1.149060">
        <time>2017-06-24T08:19:35Z</time>
      </trkpt>
      <trkpt lat="43.869520" lon="-1.148700">
        <time>2017-06-24T08:19:36Z</time>
      </trkpt>
      <trkpt lat="43.869560" lon="-1.148320">
        <time>2017-06-24T08:19:37Z</time>
      </trkpt>
      <trkpt lat="43.869620" lon="-1.147920">
        <time>2017-06-24T08:19:38Z</time>
      </trkpt>
      <trkpt lat="43.869670" lon="-1.147570">
        <time>2017-06-24T08:19:39Z</time>
      </trkpt>
      <trkpt lat="43.869720" lon="-1.147180">
        <time>2017-06-24T08:19:40Z</time>
      </trkpt>
      <trkpt lat="43.869760" lon="-1.146840">
        <time>2017-06-24T08:19:41Z</time>
      </trkpt>
      <trkpt lat="43.869810" lon="-1.146470">
        <time>2017-06-24T08:19:42Z</time>
      </trkpt>
      <trkpt lat="43.869860" lon="-1.146070">
        <time>2017-06-24T08:19:43Z</time>
      </trkpt>
      <trkpt lat="43.869910" lon="-1.145720">
        <time>2017-06-24T08:19:44Z</time>
      </trkpt>
      <trkpt lat="43.869960" lon="-1.145340">
        <time>2017-06-24T08:19:45Z</time>
      </trkpt>
      <trkpt lat="43.870010" lon="-1.144950">
        <time>2017-06-24T08:19:46Z</time>
      </trkpt>
      <trkpt lat="43.870050" lon="-1.144580">
        <time>2017-06-24T08:19:47Z</time>
      </trkpt>
      <trkpt lat="43.870110" lon="-1.144180">
        <time>2017-06-24T08:19:48Z</time>
      </trkpt>
      <trkpt lat="43.870150" lon="-1.143820">
        <time>2017-06-24T08:19:49Z</time>
      </trkpt>
      <trkpt lat="43.870210" lon="-1.143440">
        <time>2017-06-24T08:19:50Z</time>
      </trkpt>
      <trkpt lat="43.870260" lon="-1.143030">
        <time>2017-06-24T08:19:51Z</time>
      </trkpt>
      <trkpt lat="43.870320" lon="-1.142680">
        <time>2017-06-24T08:19:52Z</time>
      </trkpt>
      <trkpt lat="43.870390" lon="-1.142310">
        <time>2017-06-24T08:19:53Z</time>
      </trkpt>
      <trkpt lat="43.870460" lon="-1.141910">
        <time>2017-06-24T08:19:54Z</time>
      </trkpt>
      <trkpt lat="43.870530" lon="-1.141570">
        <time>2017-06-24T08:19:55Z</time>
      </trkpt>
      <trkpt lat="43.870620" lon="-1.141180">
        <time>2017-06-24T08:19:56Z</time>
      </trkpt>
      <trkpt lat="43.870710" lon="-1.140840">
        <time>2017-06-24T08:19:57Z</time>
      </trkpt>
      <trkpt lat="43.870810" lon="-1.140480">
        <time>2017-06-24T08:19:58Z</time>
      </trkpt>
      <trkpt lat="43.870920" lon="-1.140100">
        <time>2017-06-24T08:19:59Z</time>
      </trkpt>
      <trkpt lat="43.871030" lon="-1.139770">
        <time>2017-06-24T08:20:00Z</time>
      </trkpt>
      <trkpt lat="43.871150" lon="-1.139410">
        <time>2017-06-24T08:20:01Z</time>
      </trkpt>
      <trkpt lat="43.871270" lon="-1.139050">
        <time>2017-06-24T08:20:02Z</time>
      </trkpt>
      <trkpt lat="43.871400" lon="-1.138700">
        <time>2017-06-24T08:20:03Z</time>
      </trkpt>
      <trkpt lat="43.871550" lon="-1.138340">
        <time>2017-06-24T08:20:04Z</time>
      </trkpt>
      <trkpt lat="43.871680" lon="-1.138020">
        <time>2017-06-24T08:20:05Z</time>
      </trkpt>
      <trkpt lat="43.871840" lon="-1.137690">
        <time>2017-06-24T08:20:06Z</time>
      </trkpt>
      <trkpt lat="43.872010" lon="-1.137340">
        <time>2017-06-24T08:20:07Z</time>
      </trkpt>
      <trkpt lat="43.872170" lon="-1.137040">
        <time>2017-06-24T08:20:08Z</time>
      </trkpt>
      <trkpt lat="43.872340" lon="-1.136720">
        <time>2017-06-24T08:20:09Z</time>
      </trkpt>
      <trkpt lat="43.872530" lon="-1.136390">
        <time>2017-06-24T08:20:10Z</time>
      </trkpt>
      <trkpt lat="43.872700" lon="-1.136110">
        <time>2017-06-24T08:20:11Z</time>
      </trkpt>
      <trkpt lat="43.872910" lon="-1.135790">
        <time>2017-06-24T08:20:12Z</time>
      </trkpt>
      <trkpt lat="43.873080" lon="-1.135530">
        <time>2017-06-24T08:20:13Z</time>
      </trkpt>
      <trkpt lat="43.873270" lon="-1.135260">
        <time>2017-06-24T08:20:14Z</time>
      </trkpt>
      <trkpt lat="43.873460" lon="-1.135000">
        <time>2017-06-24T08:20:15Z</time>
      </trkpt>
      <trkpt lat="43.873630" lon="-1.134790">
        <time>2017-06-24T08:20:16Z</time>
      </trkpt>
      <trkpt lat="43.873830" lon="-1.134570">
        <time>2017-06-24T08:20:17Z</time>
      </trkpt>
      <trkpt lat="43.874040" lon="-1.134340">
        <time>2017-06-24T08:20:18Z</time>
      </trkpt>
      <trkpt lat="43.874260" lon="-1.134110">
        <time>2017-06-24T08:20:19Z</time>
      </trkpt>
      <trkpt lat="43.874490" lon="-1.133860">
        <time>2017-06-24T08:20:20Z</time>
      </trkpt>
      <trkpt lat="43.874710" lon="-1.133630">
        <time>2017-06-24T08:20:21Z</time>
      </trkpt>
      <trkpt lat="43.874940" lon="-1.133410">
        <time>2017-06-24T08:20:22Z</time>
      </trkpt>
      <trkpt lat="43.875200" lon="-1.133180">
        <time>2017-06-24T08:20:23Z</time>
      </trkpt>
      <trkpt lat="43.875420" lon="-1.132980">
        <time>2017-06-24T08:20:24Z</time>
      </trkpt>
      <trkpt lat="43.875670" lon="-1.132790">
        <time>2017-06-24T08:20:25Z</time>
      </trkpt>
      <trkpt lat="43.875940" lon="-1.132600">
        <time>2017-06-24T08:20:26Z</time>
      </trkpt>
      <trkpt lat="43.876190" lon="-1.132430">
        <time>2017-06-24T08:20:27Z</time>
      </trkpt>
      <trkpt lat="43.876470" lon="-1.132250">
        <time>2017-06-24T08:20:28Z</time>
      </trkpt>
      <trkpt lat="43.876720" lon="-1.132100">
        <time>2017-06-24T08:20:29Z</time>
      </trkpt>
      <trkpt lat="43.876990" lon="-1.131950">
        <time>2017-06-24T08:20:30Z</time>
      </trkpt>
      <trkpt lat="43.877280" lon="-1.131790">
        <time>2017-06-24T08:20:31Z</time>
      </trkpt>
      <trkpt lat="43.877550" lon="-1.131670">
        <time>2017-06-24T08:20:32Z</time>
      </trkpt>
      <trkpt lat="43.877830" lon="-1.131550">
        <time>2017-06-24T08:20:33Z</time>
      </trkpt>
      <trkpt lat="43.878120" lon="-1.131430">
        <time>2017-06-24T08:20:34Z</time>
      </trkpt>
      <trkpt lat="43.878410" lon="-1.131320">
        <time>2017-06-24T08:20:35Z</time>
      </trkpt>
      <trkpt lat="43.878730" lon="-1.131210">
        <time>2017-06-24T08:20:36Z</time>
      </trkpt>
      <trkpt lat="43.879010" lon="-1.131130">
        <time>2017-06-24T08:20:37Z</time>
      </trkpt>
      <trkpt lat="43.879310" lon="-1.131050">
        <time>2017-06-24T08:20:38Z</time>
      </trkpt>
      <trkpt lat="43.879630" lon="-1.130980">
        <time>2017-06-24T08:20:39Z</time>
      </trkpt>
      <trkpt lat="43.879920" lon="-1.130930">
        <time>2017-06-24T08:20:40Z</time>
      </trkpt>
      <trkpt lat="43.880220" lon="-1.130890">
        <time>2017-06-24T08:20:41Z</time>
      </trkpt>
      <trkpt lat="43.880550" lon="-1.130860">
        <time>2017-06-24T08:20:42Z</time>
      </trkpt>
      <trkpt lat="43.880840" lon="-1.130860">
        <time>2017-06-24T08:20:43Z</time>
      </trkpt>
      <trkpt lat="43.881160" lon="-1.130860">
        <time>2017-06-24T08:20:44Z</time>
      </trkpt>
      <trkpt lat="43.881450" lon="-1.130870">
        <time>2017-06-24T08:20:45Z</time>
      </trkpt>
      <trkpt lat="43.881750" lon="-1.130890">
        <time>2017-06-24T08:20:46Z</time>
      </trkpt>
      <trkpt lat="43.882080" lon="-1.130930">
        <time>2017-06-24T08:20:47Z</time>
      </trkpt>
      <trkpt lat="43.882360" lon="-1.130970">
        <time>2017-06-24T08:20:48Z</time>
      </trkpt>
      <trkpt lat="43.882670" lon="-1.131030">
        <time>2017-06-24T08:20:49Z</time>
      </trkpt>
      <trkpt lat="43.882970" lon="-1.131100">
        <time>2017-06-24T08:20:50Z</time>
      </trkpt>
      <trkpt lat="43.883270" lon="-1.131170">
        <time>2017-06-24T08:20:51Z</time>
      </trkpt>
      <trkpt lat="43.883590" lon="-1.131280">
        <time>2017-06-24T08:20:52Z</time>
      </trkpt>
      <trkpt lat="43.883870" lon="-1.131380">
        <time>2017-06-24T08:20:53Z</time>
      </trkpt>
      <trkpt lat="43.884160" lon="-1.131490">
        <time>2017-06-24T08:20:54Z</time>
      </trkpt>
      <trkpt lat="43.884480" lon="-1.131630">
        <time>2017-06-24T08:20:55Z</time>
      </trkpt>
      <trkpt lat="43.884750" lon="-1.131750">
        <time>2017-06-24T08:20:56Z</time>
      </trkpt>
      <trkpt lat="43.885050" lon="-1.131890">
        <time>2017-06-24T08:20:57Z</time>
      </trkpt>
      <trkpt lat="43.885360" lon="-1.132030">
        <time>2017-06-24T08:20:58Z</time>
      </trkpt>
      <trkpt lat="43.885630" lon="-1.132150">
        <time>2017-06-24T08:20:59Z</time>
      </trkpt>
      <trkpt lat="43.885940" lon="-1.132310">
        <time>2017-06-24T08:21:00Z</time>
      </trkpt>
      <trkpt lat="43.886220" lon="-1.132430">
        <time>2017-06-24T08:21:01Z</time>
      </trkpt>
      <trkpt lat="43.886510" lon="-1.132570">
        <time>2017-06-24T08:21:02Z</time>
      </trkpt>
      <trkpt lat="43.886820" lon="-1.132720">
        <time>2017-06-24T08:21:03Z</time>
      </trkpt>
      <trkpt lat="43.887100" lon="-1.132850">
        <time>2017-06-24T08:21:04Z</time>
      </trkpt>
      <trkpt lat="43.887390" lon="-1.133000">
        <time>2017-06-24T08:21:05Z</time>
      </trkpt>
      <trkpt lat="43.887690" lon="-1.133140">
        <time>2017-06-24T08:21:06Z</time>
      </trkpt>
      <trkpt lat="43.887990" lon="-1.133270">
        <time>2017-06-24T08:21:07Z</time>
      </trkpt>
      <trkpt lat="43.888300" lon="-1.133420">
        <time>2017-06-24T08:21:08Z</time>
      </trkpt>
      <trkpt lat="43.888580" lon="-1.133540">
        <time>2017-06-24T08:21:09Z</time>
      </trkpt>
      <trkpt lat="43.888870" lon="-1.133660">
        <time>2017-06-24T08:21:10Z</time>
      </trkpt>
      <trkpt lat="43.889190" lon="-1.133790">
        <time>2017-06-24T08:21:11Z</time>
      </trkpt>
      <trkpt lat="43.889480" lon="-1.133890">
        <time>2017-06-24T08:21:12Z</time>
      </trkpt>
      <trkpt lat="43.889790" lon="-1.133980">
        <time>2017-06-24T08:21:13Z</time>
      </trkpt>
      <trkpt lat="43.890110" lon="-1.134060">
        <time>2017-06-24T08:21:14Z</time>
      </trkpt>
      <trkpt lat="43.890400" lon="-1.134120">
        <time>2017-06-24T08:21:15Z</time>
      </trkpt>
      <trkpt lat="43.890730" lon="-1.134180">
        <time>2017-06-24T08:21:16Z</time>
      </trkpt>
      <trkpt lat="43.891030" lon="-1.134210">
        <time>2017-06-24T08:21:17Z</time>
      </trkpt>
      <trkpt lat="43.891330" lon="-1.134250">
        <time>2017-06-24T08:21:18Z</time>
      </trkpt>
      <trkpt lat="43.891660" lon="-1.134260">
        <time>2017-06-24T08:21:19Z</time>
      </trkpt>
      <trkpt lat="43.891960" lon="-1.134260">
        <time>2017-06-24T08:21:20Z</time>
      </trkpt>
      <trkpt lat="43.892270" lon="-1.134250">
        <time>2017-06-24T08:21:21Z</time>
      </trkpt>
      <trkpt lat="43.892580" lon="-1.134230">
        <time>2017-06-24T08:21:22Z</time>
      </trkpt>
      <trkpt lat="43.892890" lon="-1.134190">
        <time>2017-06-24T08:21:23Z</time>
      </trkpt>
      <trkpt lat="43.893230" lon="-1.134130">
        <time>2017-06-24T08:21:24Z</time>
      </trkpt>
      <trkpt lat="43.893520" lon="-1.134070">
        <time>2017-06-24T08:21:25Z</time>
      </trkpt>
      <trkpt lat="43.893820" lon="-1.133990">
        <time>2017-06-24T08:21:26Z</time>
      </trkpt>
      <trkpt lat="43.894150" lon="-1.133910">
        <time>2017-06-24T08:21:27Z</time>
      </trkpt>
      <trkpt lat="43.894430" lon="-1.133830">
        <time>2017-06-24T08:21:28Z</time>
      </trkpt>
      <trkpt lat="43.894730" lon="-1.133720">
        <time>2017-06-24T08:21:29Z</time>
      </trkpt>
      <trkpt lat="43.895050" lon="-1.133600">
        <time>2017-06-24T08:21:30Z</time>
      </trkpt>
      <trkpt lat="43.895330" lon="-1.133480">
        <time>2017-06-24T08:21:31Z</time>
      </trkpt>
      <trkpt lat="43.895640" lon="-1.133330">
        <time>2017-06-24T08:21:32Z</time>
      </trkpt>
      <trkpt lat="43.895910" lon="-1.133190">
        <time>2017-06-24T08:21:33Z</time>
      </trkpt>
      <trkpt lat="43.896200" lon="-1.133040">
        <time>2017-06-24T08:21:34Z</time>
      </trkpt>
      <trkpt lat="43.896500" lon="-1.132850">
        <time>2017-06-24T08:21:35Z</time>
      </trkpt>
      <trkpt lat="43.896760" lon="-1.132680">
        <time>2017-06-24T08:21:36Z</time>
      </trkpt>
      <trkpt lat="43.897040" lon="-1.132490">
        <time>2017-06-24T08:21:37Z</time>
      </trkpt>
      <trkpt lat="43.897310" lon="-1.132290">
        <time>2017-06-24T08:21:38Z</time>
      </trkpt>
      <trkpt lat="43.897580" lon="-1.132080">
        <time>2017-06-24T08:21:39Z</time>
      </trkpt>
      <trkpt lat="43.897860" lon="-1.131870">
        <time>2017-06-24T08:21:40Z</time>
      </trkpt>
      <trkpt lat="43.898110" lon="-1.131670">
        <time>2017-06-24T08:21:41Z</time>
      </trkpt>
      <trkpt lat="43.898380" lon="-1.131470">
        <time>2017-06-24T08:21:42Z</time>
      </trkpt>
      <trkpt lat="43.898670" lon="-1.131250">
        <time>2017-06-24T08:21:43Z</time>
      </trkpt>
      <trkpt lat="43.898910" lon="-1.131060">
        <time>2017-06-24T08:21:44Z</time>
      </trkpt>
      <trkpt lat="43.899180" lon="-1.130860">
        <time>2017-06-24T08:21:45Z</time>
      </trkpt>
      <trkpt lat="43.899470" lon="-1.130640">
        <time>2017-06-24T08:21:46Z</time>
      </trkpt>
      <trkpt lat="43.899720" lon="-1.130460">
        <time>2017-06-24T08:21:47Z</time>
      </trkpt>
      <trkpt lat="43.900010" lon="-1.130230">
        <time>2017-06-24T08:21:48Z</time>
      </trkpt>
      <trkpt lat="43.900270" lon="-1.130040">
        <time>2017-06-24T08:21:49Z</time>
      </trkpt>
      <trkpt lat="43.900540" lon="-1.129830">
        <time>2017-06-24T08:21:50Z</time>
      </trkpt>
      <trkpt lat="43.900830" lon="-1.129610">
        <time>2017-06-24T08:21:51Z</time>
      </trkpt>
      <trkpt lat="43.901080" lon="-1.129420">
        <time>2017-06-24T08:21:52Z</time>
      </trkpt>
      <trkpt lat="43.901350" lon="-1.129210">
        <time>2017-06-24T08:21:53Z</time>
      </trkpt>
      <trkpt lat="43.901620" lon="-1.129000">
        <time>2017-06-24T08:21:54Z</time>
      </trkpt>
      <trkpt lat="43.901880" lon="-1.128800">
        <time>2017-06-24T08:21:55Z</time>
      </trkpt>
      <trkpt lat="43.902170" lon="-1.128590">
        <time>2017-06-24T08:21:56Z</time>
      </trkpt>
      <trkpt lat="43.902410" lon="-1.128400">
        <time>2017-06-24T08:21:57Z</time>
      </trkpt>
      <trkpt lat="43.902680" lon="-1.128200">
        <time>2017-06-24T08:21:58Z</time>
      </trkpt>
      <trkpt lat="43.902960" lon="-1.128000">
        <time>2017-06-24T08:21:59Z</time>
      </trkpt>
      <trkpt lat="43.903210" lon="-1.127810">
        <time>2017-06-24T08:22:00Z</time>
      </trkpt>
      <trkpt lat="43.903480" lon="-1.127610">
        <time>2017-06-24T08:22:01Z</time>
      </trkpt>
      <trkpt lat="43.903760" lon="-1.127390">
        <time>2017-06-24T08:22:02Z</time>
      </trkpt>
      <trkpt lat="43.904010" lon="-1.127200">
        <time>2017-06-24T08:22:03Z</time>
      </trkpt>
      <trkpt lat="43.904290" lon="-1.126980">
        <time>2017-06-24T08:22:04Z</time>
      </trkpt>
      <trkpt lat="43.904540" lon="-1.126790">
        <time>2017-06-24T08:22:05Z</time>
      </trkpt>
      <trkpt lat="43.904810" lon="-1.126590">
        <time>2017-06-24T08:22:06Z</time>
      </trkpt>
      <trkpt lat="43.905100" lon="-1.126370">
        <time>2017-06-24T08:22:07Z</time>
      </trkpt>
      <trkpt lat="43.905340" lon="-1.126180">
        <time>2017-06-24T08:22:08Z</time>
      </trkpt>
      <trkpt lat="43.905610" lon="-1.125970">
        <time>2017-06-24T08:22:09Z</time>
      </trkpt>
      <trkpt lat="43.905880" lon="-1.125770">
        <time>2017-06-24T08:22:10Z</time>
      </trkpt>
      <trkpt lat="43.906150" lon="-1.125570">
        <time>2017-06-24T08:22:11Z</time>
      </trkpt>
      <trkpt lat="43.906440" lon="-1.125350">
        <time>2017-06-24T08:22:12Z</time>
      </trkpt>
      <trkpt lat="43.906690" lon="-1.125160">
        <time>2017-06-24T08:22:13Z</time>
      </trkpt>
      <trkpt lat="43.906960" lon="-1.124960">
        <time>2017-06-24T08:22:14Z</time>
      </trkpt>
      <trkpt lat="43.907250" lon="-1.124740">
        <time>2017-06-24T08:22:15Z</time>
      </trkpt>
      <trkpt lat="43.907500" lon="-1.124550">
        <time>2017-06-24T08:22:16Z</time>
      </trkpt>
      <trkpt lat="43.907770" lon="-1.124350">
        <time>2017-06-24T08:22:17Z</time>
      </trkpt>
      <trkpt lat="43.908050" lon="-1.124140">
        <time>2017-06-24T08:22:18Z</time>
      </trkpt>
      <trkpt lat="43.908300" lon="-1.123950">
        <time>2017-06-24T08:22:19Z</time>
      </trkpt>
      <trkpt lat="43.908580" lon="-1.123740">
        <time>2017-06-24T08:22:20Z</time>
      </trkpt>
      <trkpt lat="43.908820" lon="-1.123550">
        <time>2017-06-24T08:22:21Z</time>
      </trkpt>
      <trkpt lat="43.909080" lon="-1.123350">
        <time>2017-06-24T08:22:22Z</time>
      </trkpt>
      <trkpt lat="43.909360" lon="-1.123140">
        <time>2017-06-24T08:22:23Z</time>
      </trkpt>
      <trkpt lat="43.909600" lon="-1.122960">
        <time>2017-06-24T08:22:24Z</time>
      </trkpt>
      <trkpt lat="43.909860" lon="-1.122760">
        <time>2017-06-24T08:22:25Z</time>
      </trkpt>
      <trkpt lat="43.910130" lon="-1.122570">
        <time>2017-06-24T08:22:26Z</time>
      </trkpt>
      <trkpt lat="43.910390" lon="-1.122370">
        <time>2017-06-24T08:22:27Z</time>
      </trkpt>
      <trkpt lat="43.910670" lon="-1.122160">
        <time>2017-06-24T08:22:28Z</time>
      </trkpt>
      <trkpt lat="43.910910" lon="-1.121980">
        <time>2017-06-24T08:22:29Z</time>
      </trkpt>
      <trkpt lat="43.911170" lon="-1.121780">
        <time>2017-06-24T08:22:30Z</time>
      </trkpt>
      <trkpt lat="43.911450" lon="-1.121570">
        <time>2017-06-24T08:22:31Z</time>
      </trkpt>
      <trkpt lat="43.911680" lon="-1.121390">
        <time>2017-06-24T08:22:32Z</time>
      </trkpt>
      <trkpt lat="43.911930" lon="-1.121200">
        <time>2017-06-24T08:22:33Z</time>
      </trkpt>
      <trkpt lat="43.912190" lon="-1.121000">
        <time>2017-06-24T08:22:34Z</time>
      </trkpt>
      <trkpt lat="43.912430" lon="-1.120820">
        <time>2017-06-24T08:22:35Z</time>
      </trkpt>
      <trkpt lat="43.912690" lon="-1.120610">
        <time>2017-06-24T08:22:36Z</time>
      </trkpt>
      <trkpt lat="43.912930" lon="-1.120430">
        <time>2017-06-24T08:22:37Z</time>
      </trkpt>
      <trkpt lat="43.913190" lon="-1.120240">
        <time>2017-06-24T08:22:38Z</time>
      </trkpt>
      <trkpt lat="43.913450" lon="-1.120030">
        <time>2017-06-24T08:22:39Z</time>
      </trkpt>
      <trkpt lat="43.913690" lon="-1.119850">
        <time>2017-06-24T08:22:40Z</time>
      </trkpt>
      <trkpt lat="43.913940" lon="-1.119660">
        <time>2017-06-24T08:22:41Z</time>
      </trkpt>
      <trkpt lat="43.914190" lon="-1.119480">
        <time>2017-06-24T08:22:42Z</time>
      </trkpt>
      <trkpt lat="43.914430" lon="-1.119300">
        <time>2017-06-24T08:22:43Z</time>
      </trkpt>
      <trkpt lat="43.914690" lon="-1.119100">
        <time>2017-06-24T08:22:44Z</time>
      </trkpt>
      <trkpt lat="43.914930" lon="-1.118930">
        <time>2017-06-24T08:22:45Z</time>
      </trkpt>
      <trkpt lat="43.915190" lon="-1.118740">
        <time>2017-06-24T08:22:46Z</time>
      </trkpt>
      <trkpt lat="43.915470" lon="-1.118540">
        <time>2017-06-24T08:22:47Z</time>
      </trkpt>
      <trkpt lat="43.915720" lon="-1.118360">
        <time>2017-06-24T08:22:48Z</time>
      </trkpt>
      <trkpt lat="43.915980" lon="-1.118170">
        <time>2017-06-24T08:22:49Z</time>
      </trkpt>
      <trkpt lat="43.916260" lon="-1.117960">
        <time>2017-06-24T08:22:50Z</time>
      </trkpt>
      <trkpt lat="43.916500" lon="-1.117770">
        <time>2017-06-24T08:22:51Z</time>
      </trkpt>
      <trkpt lat="43.916770" lon="-1.117570">
        <time>2017-06-24T08:22:52Z</time>
      </trkpt>
      <trkpt lat="43.917020" lon="-1.117390">
        <time>2017-06-24T08:22:53Z</time>
      </trkpt>
      <trkpt lat="43.917280" lon="-1.117180">
        <time>2017-06-24T08:22:54Z</time>
      </trkpt>
      <trkpt lat="43.917550" lon="-1.116960">
        <time>2017-06-24T08:22:55Z</time>
      </trkpt>
      <trkpt lat="43.917800" lon="-1.116770">
        <time>2017-06-24T08:22:56Z</time>
      </trkpt>
      <trkpt lat="43.918070" lon="-1.116560">
        <time>2017-06-24T08:22:57Z</time>
      </trkpt>
      <trkpt lat="43.918340" lon="-1.116340">
        <time>2017-06-24T08:22:58Z</time>
      </trkpt>
      <trkpt lat="43.918620" lon="-1.116110">
        <time>2017-06-24T08:22:59Z</time>
      </trkpt>
      <trkpt lat="43.918880" lon="-1.115860">
        <time>2017-06-24T08:23:00Z</time>
      </trkpt>
      <trkpt lat="43.919130" lon="-1.115630">
        <time>2017-06-24T08:23:01Z</time>
      </trkpt>
      <trkpt lat="43.919380" lon="-1.115370">
        <time>2017-06-24T08:23:02Z</time>
      </trkpt>
      <trkpt lat="43.919640" lon="-1.115090">
        <time>2017-06-24T08:23:03Z</time>
      </trkpt>
      <trkpt lat="43.919870" lon="-1.114830">
        <time>2017-06-24T08:23:04Z</time>
      </trkpt>
      <trkpt lat="43.920100" lon="-1.114550">
        <time>2017-06-24T08:23:05Z</time>
      </trkpt>
      <trkpt lat="43.920340" lon="-1.114240">
        <time>2017-06-24T08:23:06Z</time>
      </trkpt>
      <trkpt lat="43.920550" lon="-1.113970">
        <time>2017-06-24T08:23:07Z</time>
      </trkpt>
      <trkpt lat="43.920790" lon="-1.113650">
        <time>2017-06-24T08:23:08Z</time>
      </trkpt>
      <trkpt lat="43.920990" lon="-1.113380">
        <time>2017-06-24T08:23:09Z</time>
      </trkpt>
      <trkpt lat="43.921210" lon="-1.113080">
        <time>2017-06-24T08:23:10Z</time>
      </trkpt>
      <trkpt lat="43.921440" lon="-1.112770">
        <time>2017-06-24T08:23:11Z</time>
      </trkpt>
      <trkpt lat="43.921640" lon="-1.112500">
        <time>2017-06-24T08:23:12Z</time>
      </trkpt>
      <trkpt lat="43.921850" lon="-1.112210">
        <time>2017-06-24T08:23:13Z</time>
      </trkpt>
      <trkpt lat="43.922060" lon="-1.111920">
        <time>2017-06-24T08:23:14Z</time>
      </trkpt>
      <trkpt lat="43.922270" lon="-1.111630">
        <time>2017-06-24T08:23:15Z</time>
      </trkpt>
      <trkpt lat="43.922500" lon="-1.111320">
        <time>2017-06-24T08:23:16Z</time>
      </trkpt>
      <trkpt lat="43.922700" lon="-1.111040">
        <time>2017-06-24T08:23:17Z</time>
      </trkpt>
      <trkpt lat="43.922910" lon="-1.110750">
        <time>2017-06-24T08:23:18Z</time>
      </trkpt>
      <trkpt lat="43.923140" lon="-1.110440">
        <time>2017-06-24T08:23:19Z</time>
      </trkpt>
      <trkpt lat="43.923340" lon="-1.110160">
        <time>2017-06-24T08:23:20Z</time>
      </trkpt>
      <trkpt lat="43.923550" lon="-1.109870">
        <time>2017-06-24T08:23:21Z</time>
      </trkpt>
      <trkpt lat="43.923770" lon="-1.109560">
        <time>2017-06-24T08:23:22Z</time>
      </trkpt>
      <trkpt lat="43.923970" lon="-1.109290">
        <time>2017-06-24T08:23:23Z</time>
      </trkpt>
      <trkpt lat="43.924190" lon="-1.108980">
        <time>2017-06-24T08:23:24Z</time>
      </trkpt>
      <trkpt lat="43.924390" lon="-1.108710">
        <time>2017-06-24T08:23:25Z</time>
      </trkpt>
      <trkpt lat="43.924600" lon="-1.108430">
        <time>2017-06-24T08:23:26Z</time>
      </trkpt>
      <trkpt lat="43.924820" lon="-1.108130">
        <time>2017-06-24T08:23:27Z</time>
      </trkpt>
      <trkpt lat="43.925020" lon="-1.107860">
        <time>2017-06-24T08:23:28Z</time>
      </trkpt>
      <trkpt lat="43.925230" lon="-1.107580">
        <time>2017-06-24T08:23:29Z</time>
      </trkpt>
      <trkpt lat="43.925440" lon="-1.107290">
        <time>2017-06-24T08:23:30Z</time>
      </trkpt>
      <trkpt lat="43.925640" lon="-1.107000">
        <time>2017-06-24T08:23:31Z</time>
      </trkpt>
      <trkpt lat="43.925860" lon="-1.106700">
        <time>2017-06-24T08:23:32Z</time>
      </trkpt>
      <trkpt lat="43.926060" lon="-1.106430">
        <time>2017-06-24T08:23:33Z</time>
      </trkpt>
      <trkpt lat="43.926270" lon="-1.106140">
        <time>2017-06-24T08:23:34Z</time>
      </trkpt>
      <trkpt lat="43.926500" lon="-1.105830">
        <time>2017-06-24T08:23:35Z</time>
      </trkpt>
      <trkpt lat="43.926690" lon="-1.105570">
        <time>2017-06-24T08:23:36Z</time>
      </trkpt>
      <trkpt lat="43.926910" lon="-1.105280">
        <time>2017-06-24T08:23:37Z</time>
      </trkpt>
      <trkpt lat="43.927140" lon="-1.104970">
        <time>2017-06-24T08:23:38Z</time>
      </trkpt>
      <trkpt lat="43.927340" lon="-1.104700">
        <time>2017-06-24T08:23:39Z</time>
      </trkpt>
      <trkpt lat="43.927570" lon="-1.104390">
        <time>2017-06-24T08:23:40Z</time>
      </trkpt>
      <trkpt lat="43.927770" lon="-1.104110">
        <time>2017-06-24T08:23:41Z</time>
      </trkpt>
      <trkpt lat="43.927990" lon="-1.103810">
        <time>2017-06-24T08:23:42Z</time>
      </trkpt>
      <trkpt lat="43.928220" lon="-1.103490">
        <time>2017-06-24T08:23:43Z</time>
      </trkpt>
      <trkpt lat="43.928430" lon="-1.103200">
        <time>2017-06-24T08:23:44Z</time>
      </trkpt>
      <trkpt lat="43.928650" lon="-1.102890">
        <time>2017-06-24T08:23:45Z</time>
      </trkpt>
      <trkpt lat="43.928870" lon="-1.102590">
        <time>2017-06-24T08:23:46Z</time>
      </trkpt>
      <trkpt lat="43.929100" lon="-1.102280">
        <time>2017-06-24T08:23:47Z</time>
      </trkpt>
      <trkpt lat="43.929340" lon="-1.101950">
        <time>2017-06-24T08:23:48Z</time>
      </trkpt>
      <trkpt lat="43.929540" lon="-1.101670">
        <time>2017-06-24T08:23:49Z</time>
      </trkpt>
      <trkpt lat="43.929760" lon="-1.101360">
        <time>2017-06-24T08:23:50Z</time>
      </trkpt>
      <trkpt lat="43.930000" lon="-1.101040">
        <time>2017-06-24T08:23:51Z</time>
      </trkpt>
      <trkpt lat="43.930210" lon="-1.100750">
        <time>2017-06-24T08:23:52Z</time>
      </trkpt>
      <trkpt lat="43.930430" lon="-1.100440">
        <time>2017-06-24T08:23:53Z</time>
      </trkpt>
      <trkpt lat="43.930670" lon="-1.100120">
        <time>2017-06-24T08:23:54Z</time>
      </trkpt>
      <trkpt lat="43.930880" lon="-1.099830">
        <time>2017-06-24T08:23:55Z</time>
      </trkpt>
      <trkpt lat="43.931120" lon="-1.099500">
        <time>2017-06-24T08:23:56Z</time>
      </trkpt>
      <trkpt lat="43.931330" lon="-1.099220">
        <time>2017-06-24T08:23:57Z</time>
      </trkpt>
      <trkpt lat="43.931550" lon="-1.098910">
        <time>2017-06-24T08:23:58Z</time>
      </trkpt>
      <trkpt lat="43.931790" lon="-1.098580">
        <time>2017-06-24T08:23:59Z</time>
      </trkpt>
      <trkpt lat="43.932000" lon="-1.098300">
        <time>2017-06-24T08:24:00Z</time>
      </trkpt>
      <trkpt lat="43.932220" lon="-1.098000">
        <time>2017-06-24T08:24:01Z</time>
      </trkpt>
      <trkpt lat="43.932450" lon="-1.097690">
        <time>2017-06-24T08:24:02Z</time>
      </trkpt>
      <trkpt lat="43.932670" lon="-1.097390">
        <time>2017-06-24T08:24:03Z</time>
      </trkpt>
      <trkpt lat="43.932900" lon="-1.097070">
        <time>2017-06-24T08:24:04Z</time>
      </trkpt>
      <trkpt lat="43.933110" lon="-1.096790">
        <time>2017-06-24T08:24:05Z</time>
      </trkpt>
      <trkpt lat="43.933330" lon="-1.096490">
        <time>2017-06-24T08:24:06Z</time>
      </trkpt>
      <trkpt lat="43.933560" lon="-1.096170">
        <time>2017-06-24T08:24:07Z</time>
      </trkpt>
      <trkpt lat="43.933760" lon="-1.095890">
        <time>2017-06-24T08:24:08Z</time>
      </trkpt>
      <trkpt lat="43.933980" lon="-1.095590">
        <time>2017-06-24T08:24:09Z</time>
      </trkpt>
      <trkpt lat="43.934210" lon="-1.095270">
        <time>2017-06-24T08:24:10Z</time>
      </trkpt>
      <trkpt lat="43.934410" lon="-1.094990">
        <time>2017-06-24T08:24:11Z</time>
      </trkpt>
      <trkpt lat="43.934640" lon="-1.094670">
        <time>2017-06-24T08:24:12Z</time>
      </trkpt>
      <trkpt lat="43.934850" lon="-1.094380">
        <time>2017-06-24T08:24:13Z</time>
      </trkpt>
      <trkpt lat="43.935070" lon="-1.094080">
        <time>2017-06-24T08:24:14Z</time>
      </trkpt>
      <trkpt lat="43.935300" lon="-1.093760">
        <time>2017-06-24T08:24:15Z</time>
      </trkpt>
      <trkpt lat="43.935500" lon="-1.093480">
        <time>2017-06-24T08:24:16Z</time>
      </trkpt>
      <trkpt lat="43.935720" lon="-1.093190">
        <time>2017-06-24T08:24:17Z</time>
      </trkpt>
      <trkpt lat="43.935940" lon="-1.092890">
        <time>2017-06-24T08:24:18Z</time>
      </trkpt>
      <trkpt lat="43.936150" lon="-1.092600">
        <time>2017-06-24T08:24:19Z</time>
      </trkpt>
      <trkpt lat="43.936380" lon="-1.092290">
        <time>2017-06-24T08:24:20Z</time>
      </trkpt>
      <trkpt lat="43.936580" lon="-1.092010">
        <time>2017-06-24T08:24:21Z</time>
      </trkpt>
      <trkpt lat="43.936800" lon="-1.091710">
        <time>2017-06-24T08:24:22Z</time>
      </trkpt>
      <trkpt lat="43.937030" lon="-1.091400">
        <time>2017-06-24T08:24:23Z</time>
      </trkpt>
      <trkpt lat="43.937230" lon="-1.091130">
        <time>2017-06-24T08:24:24Z</time>
      </trkpt>
      <trkpt lat="43.937450" lon="-1.090840">
        <time>2017-06-24T08:24:25Z</time>
      </trkpt>
      <trkpt lat="43.937670" lon="-1.090530">
        <time>2017-06-24T08:24:26Z</time>
      </trkpt>
      <trkpt lat="43.937880" lon="-1.090260">
        <time>2017-06-24T08:24:27Z</time>
      </trkpt>
      <trkpt lat="43.938110" lon="-1.089950">
        <time>2017-06-24T08:24:28Z</time>
      </trkpt>
      <trkpt lat="43.938310" lon="-1.089670">
        <time>2017-06-24T08:24:29Z</time>
      </trkpt>
      <trkpt lat="43.938520" lon="-1.089380">
        <time>2017-06-24T08:24:30Z</time>
      </trkpt>
      <trkpt lat="43.938740" lon="-1.089070">
        <time>2017-06-24T08:24:31Z</time>
      </trkpt>
      <trkpt lat="43.938940" lon="-1.088790">
        <time>2017-06-24T08:24:32Z</time>
      </trkpt>
      <trkpt lat="43.939160" lon="-1.088510">
        <time>2017-06-24T08:24:33Z</time>
      </trkpt>
      <trkpt lat="43.939370" lon="-1.088220">
        <time>2017-06-24T08:24:34Z</time>
      </trkpt>
      <trkpt lat="43.939580" lon="-1.087930">
        <time>2017-06-24T08:24:35Z</time>
      </trkpt>
      <trkpt lat="43.939800" lon="-1.087620">
        <time>2017-06-24T08:24:36Z</time>
      </trkpt>
      <trkpt lat="43.940000" lon="-1.087360">
        <time>2017-06-24T08:24:37Z</time>
      </trkpt>
      <trkpt lat="43.940210" lon="-1.087070">
        <time>2017-06-24T08:24:38Z</time>
      </trkpt>
      <trkpt lat="43.940430" lon="-1.086770">
        <time>2017-06-24T08:24:39Z</time>
      </trkpt>
      <trkpt lat="43.940630" lon="-1.086500">
        <time>2017-06-24T08:24:40Z</time>
      </trkpt>
      <trkpt lat="43.940840" lon="-1.086200">
        <time>2017-06-24T08:24:41Z</time>
      </trkpt>
      <trkpt lat="43.941070" lon="-1.085890">
        <time>2017-06-24T08:24:42Z</time>
      </trkpt>
      <trkpt lat="43.941270" lon="-1.085620">
        <time>2017-06-24T08:24:43Z</time>
      </trkpt>
      <trkpt lat="43.941500" lon="-1.085310">
        <time>2017-06-24T08:24:44Z</time>
      </trkpt>
      <trkpt lat="43.941700" lon="-1.085030">
        <time>2017-06-24T08:24:45Z</time>
      </trkpt>
      <trkpt lat="43.941920" lon="-1.084740">
        <time>2017-06-24T08:24:46Z</time>
      </trkpt>
      <trkpt lat="43.942140" lon="-1.084430">
        <time>2017-06-24T08:24:47Z</time>
      </trkpt>
      <trkpt lat="43.942340" lon="-1.084160">
        <time>2017-06-24T08:24:48Z</time>
      </trkpt>
      <trkpt lat="43.942550" lon="-1.083860">
        <time>2017-06-24T08:24:49Z</time>
      </trkpt>
      <trkpt lat="43.942760" lon="-1.083570">
        <time>2017-06-24T08:24:50Z</time>
      </trkpt>
      <trkpt lat="43.942970" lon="-1.083280">
        <time>2017-06-24T08:24:51Z</time>
      </trkpt>
      <trkpt lat="43.943200" lon="-1.082980">
        <time>2017-06-24T08:24:52Z</time>
      </trkpt>
      <trkpt lat="43.943400" lon="-1.082710">
        <time>2017-06-24T08:24:53Z</time>
      </trkpt>
      <trkpt lat="43.943610" lon="-1.082420">
        <time>2017-06-24T08:24:54Z</time>
      </trkpt>
      <trkpt lat="43.943840" lon="-1.082110">
        <time>2017-06-24T08:24:55Z</time>
      </trkpt>
      <trkpt lat="43.944040" lon="-1.081830">
        <time>2017-06-24T08:24:56Z</time>
      </trkpt>
      <trkpt lat="43.944250" lon="-1.081540">
        <time>2017-06-24T08:24:57Z</time>
      </trkpt>
      <trkpt lat="43.944480" lon="-1.081220">
        <time>2017-06-24T08:24:58Z</time>
      </trkpt>
      <trkpt lat="43.944680" lon="-1.080940">
        <time>2017-06-24T08:24:59Z</time>
      </trkpt>
      <trkpt lat="43.944920" lon="-1.080630">
        <time>2017-06-24T08:25:00Z</time>
      </trkpt>
      <trkpt lat="43.945120" lon="-1.080350">
        <time>2017-06-24T08:25:01Z</time>
      </trkpt>
      <trkpt lat="43.945340" lon="-1.080040">
        <time>2017-06-24T08:25:02Z</time>
      </trkpt>
      <trkpt lat="43.945580" lon="-1.079720">
        <time>2017-06-24T08:25:03Z</time>
      </trkpt>
      <trkpt lat="43.945790" lon="-1.079440">
        <time>2017-06-24T08:25:04Z</time>
      </trkpt>
      <trkpt lat="43.946010" lon="-1.079130">
        <time>2017-06-24T08:25:05Z</time>
      </trkpt>
      <trkpt lat="43.946240" lon="-1.078820">
        <time>2017-06-24T08:25:06Z</time>
      </trkpt>
      <trkpt lat="43.946460" lon="-1.078520">
        <time>2017-06-24T08:25:07Z</time>
      </trkpt>
      <trkpt lat="43.946700" lon="-1.078190">
        <time>2017-06-24T08:25:08Z</time>
      </trkpt>
      <trkpt lat="43.946910" lon="-1.077900">
        <time>2017-06-24T08:25:09Z</time>
      </trkpt>
      <trkpt lat="43.947130" lon="-1.077590">
        <time>2017-06-24T08:25:10Z</time>
      </trkpt>
      <trkpt lat="43.947380" lon="-1.077260">
        <time>2017-06-24T08:25:11Z</time>
      </trkpt>
      <trkpt lat="43.947590" lon="-1.076970">
        <time>2017-06-24T08:25:12Z</time>
      </trkpt>
      <trkpt lat="43.947810" lon="-1.076660">
        <time>2017-06-24T08:25:13Z</time>
      </trkpt>
      <trkpt lat="43.948050" lon="-1.076330">
        <time>2017-06-24T08:25:14Z</time>
      </trkpt>
      <trkpt lat="43.948260" lon="-1.076040">
        <time>2017-06-24T08:25:15Z</time>
      </trkpt>
      <trkpt lat="43.948500" lon="-1.075720">
        <time>2017-06-24T08:25:16Z</time>
      </trkpt>
      <trkpt lat="43.948710" lon="-1.075440">
        <time>2017-06-24T08:25:17Z</time>
      </trkpt>
      <trkpt lat="43.948930" lon="-1.075130">
        <time>2017-06-24T08:25:18Z</time>
      </trkpt>
      <trkpt lat="43.949170" lon="-1.074810">
        <time>2017-06-24T08:25:19Z</time>
      </trkpt>
      <trkpt lat="43.949370" lon="-1.074530">
        <time>2017-06-24T08:25:20Z</time>
      </trkpt>
      <trkpt lat="43.949590" lon="-1.074230">
        <time>2017-06-24T08:25:21Z</time>
      </trkpt>
      <trkpt lat="43.949810" lon="-1.073930">
        <time>2017-06-24T08:25:22Z</time>
      </trkpt>
      <trkpt lat="43.950030" lon="-1.073630">
        <time>2017-06-24T08:25:23Z</time>
      </trkpt>
      <trkpt lat="43.950260" lon="-1.073300">
        <time>2017-06-24T08:25:24Z</time>
      </trkpt>
      <trkpt lat="43.950470" lon="-1.073010">
        <time>2017-06-24T08:25:25Z</time>
      </trkpt>
      <trkpt lat="43.950690" lon="-1.072710">
        <time>2017-06-24T08:25:26Z</time>
      </trkpt>
      <trkpt lat="43.950930" lon="-1.072390">
        <time>2017-06-24T08:25:27Z</time>
      </trkpt>
      <trkpt lat="43.951140" lon="-1.072100">
        <time>2017-06-24T08:25:28Z</time>
      </trkpt>
      <trkpt lat="43.951370" lon="-1.071800">
        <time>2017-06-24T08:25:29Z</time>
      </trkpt>
      <trkpt lat="43.951600" lon="-1.071470">
        <time>2017-06-24T08:25:30Z</time>
      </trkpt>
      <trkpt lat="43.951810" lon="-1.071190">
        <time>2017-06-24T08:25:31Z</time>
      </trkpt>
      <trkpt lat="43.952050" lon="-1.070860">
        <time>2017-06-24T08:25:32Z</time>
      </trkpt>
      <trkpt lat="43.952260" lon="-1.070580">
        <time>2017-06-24T08:25:33Z</time>
      </trkpt>
      <trkpt lat="43.952490" lon="-1.070270">
        <time>2017-06-24T08:25:34Z</time>
      </trkpt>
      <trkpt lat="43.952730" lon="-1.069950">
        <time>2017-06-24T08:25:35Z</time>
      </trkpt>
      <trkpt lat="43.952940" lon="-1.069660">
        <time>2017-06-24T08:25:36Z</time>
      </trkpt>
      <trkpt lat="43.953170" lon="-1.069350">
        <time>2017-06-24T08:25:37Z</time>
      </trkpt>
      <trkpt lat="43.953390" lon="-1.069040">
        <time>2017-06-24T08:25:38Z</time>
      </trkpt>
      <trkpt lat="43.953620" lon="-1.068730">
        <time>2017-06-24T08:25:39Z</time>
      </trkpt>
      <trkpt lat="43.953870" lon="-1.068410">
        <time>2017-06-24T08:25:40Z</time>
      </trkpt>
      <trkpt lat="43.954100" lon="-1.068130">
        <time>2017-06-24T08:25:41Z</time>
      </trkpt>
      <trkpt lat="43.954350" lon="-1.067850">
        <time>2017-06-24T08:25:42Z</time>
      </trkpt>
      <trkpt lat="43.954620" lon="-1.067550">
        <time>2017-06-24T08:25:43Z</time>
      </trkpt>
      <trkpt lat="43.954860" lon="-1.067310">
        <time>2017-06-24T08:25:44Z</time>
      </trkpt>
      <trkpt lat="43.955130" lon="-1.067060">
        <time>2017-06-24T08:25:45Z</time>
      </trkpt>
      <trkpt lat="43.955410" lon="-1.066810">
        <time>2017-06-24T08:25:46Z</time>
      </trkpt>
      <trkpt lat="43.955670" lon="-1.066590">
        <time>2017-06-24T08:25:47Z</time>
      </trkpt>
      <trkpt lat="43.955950" lon="-1.066370">
        <time>2017-06-24T08:25:48Z</time>
      </trkpt>
      <trkpt lat="43.956220" lon="-1.066180">
        <time>2017-06-24T08:25:49Z</time>
      </trkpt>
      <trkpt lat="43.956500" lon="-1.065980">
        <time>2017-06-24T08:25:50Z</time>
      </trkpt>
      <trkpt lat="43.956810" lon="-1.065790">
        <time>2017-06-24T08:25:51Z</time>
      </trkpt>
      <trkpt lat="43.957090" lon="-1.065630">
        <time>2017-06-24T08:25:52Z</time>
      </trkpt>
      <trkpt lat="43.957380" lon="-1.065470">
        <time>2017-06-24T08:25:53Z</time>
      </trkpt>
      <trkpt lat="43.957680" lon="-1.065320">
        <time>2017-06-24T08:25:54Z</time>
      </trkpt>
      <trkpt lat="43.957980" lon="-1.065180">
        <time>2017-06-24T08:25:55Z</time>
      </trkpt>
      <trkpt lat="43.958300" lon="-1.065050">
        <time>2017-06-24T08:25:56Z</time>
      </trkpt>
      <trkpt lat="43.958600" lon="-1.064950">
        <time>2017-06-24T08:25:57Z</time>
      </trkpt>
      <trkpt lat="43.958910" lon="-1.064840">
        <time>2017-06-24T08:25:58Z</time>
      </trkpt>
      <trkpt lat="43.959240" lon="-1.064740">
        <time>2017-06-24T08:25:59Z</time>
      </trkpt>
      <trkpt lat="43.959540" lon="-1.064670">
        <time>2017-06-24T08:26:00Z</time>
      </trkpt>
      <trkpt lat="43.959860" lon="-1.064620">
        <time>2017-06-24T08:26:01Z</time>
      </trkpt>
      <trkpt lat="43.960190" lon="-1.064570">
        <time>2017-06-24T08:26:02Z</time>
      </trkpt>
      <trkpt lat="43.960490" lon="-1.064550">
        <time>2017-06-24T08:26:03Z</time>
      </trkpt>
      <trkpt lat="43.960830" lon="-1.064520">
        <time>2017-06-24T08:26:04Z</time>
      </trkpt>
      <trkpt lat="43.961140" lon="-1.064500">
        <time>2017-06-24T08:26:05Z</time>
      </trkpt>
      <trkpt lat="43.961460" lon="-1.064490">
        <time>2017-06-24T08:26:06Z</time>
      </trkpt>
      <trkpt lat="43.961800" lon="-1.064480">
        <time>2017-06-24T08:26:07Z</time>
      </trkpt>
      <trkpt lat="43.962110" lon="-1.064480">
        <time>2017-06-24T08:26:08Z</time>
      </trkpt>
      <trkpt lat="43.962430" lon="-1.064470">
        <time>2017-06-24T08:26:09Z</time>
      </trkpt>
      <trkpt lat="43.962760" lon="-1.064470">
        <time>2017-06-24T08:26:10Z</time>
      </trkpt>
      <trkpt lat="43.963080" lon="-1.064460">
        <time>2017-06-24T08:26:11Z</time>
      </trkpt>
      <trkpt lat="43.963430" lon="-1.064450">
        <time>2017-06-24T08:26:12Z</time>
      </trkpt>
      <trkpt lat="43.963740" lon="-1.064440">
        <time>2017-06-24T08:26:13Z</time>
      </trkpt>
      <trkpt lat="43.964060" lon="-1.064420">
        <time>2017-06-24T08:26:14Z</time>
      </trkpt>
      <trkpt lat="43.964400" lon="-1.064400">
        <time>2017-06-24T08:26:15Z</time>
      </trkpt>
      <trkpt lat="43.964700" lon="-1.064390">
        <time>2017-06-24T08:26:16Z</time>
      </trkpt>
      <trkpt lat="43.965020" lon="-1.064380">
        <time>2017-06-24T08:26:17Z</time>
      </trkpt>
      <trkpt lat="43.965350" lon="-1.064370">
        <time>2017-06-24T08:26:18Z</time>
      </trkpt>
      <trkpt lat="43.965650" lon="-1.064360">
        <time>2017-06-24T08:26:19Z</time>
      </trkpt>
      <trkpt lat="43.965990" lon="-1.064350">
        <time>2017-06-24T08:26:20Z</time>
      </trkpt>
      <trkpt lat="43.966280" lon="-1.064330">
        <time>2017-06-24T08:26:21Z</time>
      </trkpt>
      <trkpt lat="43.966600" lon="-1.064320">
        <time>2017-06-24T08:26:22Z</time>
      </trkpt>
      <trkpt lat="43.966930" lon="-1.064300">
        <time>2017-06-24T08:26:23Z</time>
      </trkpt>
      <trkpt lat="43.967220" lon="-1.064270">
        <time>2017-06-24T08:26:24Z</time>
      </trkpt>
      <trkpt lat="43.967530" lon="-1.064250">
        <time>2017-06-24T08:26:25Z</time>
      </trkpt>
      <trkpt lat="43.967840" lon="-1.064200">
        <time>2017-06-24T08:26:26Z</time>
      </trkpt>
      <trkpt lat="43.968140" lon="-1.064140">
        <time>2017-06-24T08:26:27Z</time>
      </trkpt>
      <trkpt lat="43.968450" lon="-1.064060">
        <time>2017-06-24T08:26:28Z</time>
      </trkpt>
      <trkpt lat="43.968740" lon="-1.063990">
        <time>2017-06-24T08:26:29Z</time>
      </trkpt>
      <trkpt lat="43.969030" lon="-1.063900">
        <time>2017-06-24T08:26:30Z</time>
      </trkpt>
      <trkpt lat="43.969350" lon="-1.063790">
        <time>2017-06-24T08:26:31Z</time>
      </trkpt>
      <trkpt lat="43.969620" lon="-1.063680">
        <time>2017-06-24T08:26:32Z</time>
      </trkpt>
      <trkpt lat="43.969910" lon="-1.063550">
        <time>2017-06-24T08:26:33Z</time>
      </trkpt>
      <trkpt lat="43.970210" lon="-1.063400">
        <time>2017-06-24T08:26:34Z</time>
      </trkpt>
      <trkpt lat="43.970470" lon="-1.063250">
        <time>2017-06-24T08:26:35Z</time>
      </trkpt>
      <trkpt lat="43.970760" lon="-1.063080">
        <time>2017-06-24T08:26:36Z</time>
      </trkpt>
      <trkpt lat="43.971020" lon="-1.062920">
        <time>2017-06-24T08:26:37Z</time>
      </trkpt>
      <trkpt lat="43.971280" lon="-1.062750">
        <time>2017-06-24T08:26:38Z</time>
      </trkpt>
      <trkpt lat="43.971560" lon="-1.062550">
        <time>2017-06-24T08:26:39Z</time>
      </trkpt>
      <trkpt lat="43.971780" lon="-1.062360">
        <time>2017-06-24T08:26:40Z</time>
      </trkpt>
      <trkpt lat="43.972030" lon="-1.062160">
        <time>2017-06-24T08:26:41Z</time>
      </trkpt>
      <trkpt lat="43.972280" lon="-1.061950">
        <time>2017-06-24T08:26:42Z</time>
      </trkpt>
      <trkpt lat="43.972520" lon="-1.061720">
        <time>2017-06-24T08:26:43Z</time>
      </trkpt>
      <trkpt lat="43.972780" lon="-1.061480">
        <time>2017-06-24T08:26:44Z</time>
      </trkpt>
      <trkpt lat="43.972990" lon="-1.061250">
        <time>2017-06-24T08:26:45Z</time>
      </trkpt>
      <trkpt lat="43.973220" lon="-1.061000">
        <time>2017-06-24T08:26:46Z</time>
      </trkpt>
      <trkpt lat="43.973460" lon="-1.060720">
        <time>2017-06-24T08:26:47Z</time>
      </trkpt>
      <trkpt lat="43.973660" lon="-1.060460">
        <time>2017-06-24T08:26:48Z</time>
      </trkpt>
      <trkpt lat="43.973880" lon="-1.060180">
        <time>2017-06-24T08:26:49Z</time>
      </trkpt>
      <trkpt lat="43.974100" lon="-1.059870">
        <time>2017-06-24T08:26:50Z</time>
      </trkpt>
      <trkpt lat="43.974290" lon="-1.059590">
        <time>2017-06-24T08:26:51Z</time>
      </trkpt>
      <trkpt lat="43.974510" lon="-1.059260">
        <time>2017-06-24T08:26:52Z</time>
      </trkpt>
      <trkpt lat="43.974690" lon="-1.058970">
        <time>2017-06-24T08:26:53Z</time>
      </trkpt>
      <trkpt lat="43.974880" lon="-1.058640">
        <time>2017-06-24T08:26:54Z</time>
      </trkpt>
      <trkpt lat="43.975070" lon="-1.058290">
        <time>2017-06-24T08:26:55Z</time>
      </trkpt>
      <trkpt lat="43.975230" lon="-1.057970">
        <time>2017-06-24T08:26:56Z</time>
      </trkpt>
      <trkpt lat="43.975400" lon="-1.057630">
        <time>2017-06-24T08:26:57Z</time>
      </trkpt>
      <trkpt lat="43.975560" lon="-1.057280">
        <time>2017-06-24T08:26:58Z</time>
      </trkpt>
      <trkpt lat="43.975710" lon="-1.056930">
        <time>2017-06-24T08:26:59Z</time>
      </trkpt>
      <trkpt lat="43.975870" lon="-1.056550">
        <time>2017-06-24T08:27:00Z</time>
      </trkpt>
      <trkpt lat="43.976010" lon="-1.056220">
        <time>2017-06-24T08:27:01Z</time>
      </trkpt>
      <trkpt lat="43.976150" lon="-1.055860">
        <time>2017-06-24T08:27:02Z</time>
      </trkpt>
      <trkpt lat="43.976310" lon="-1.055480">
        <time>2017-06-24T08:27:03Z</time>
      </trkpt>
      <trkpt lat="43.976450" lon="-1.055150">
        <time>2017-06-24T08:27:04Z</time>
      </trkpt>
      <trkpt lat="43.976600" lon="-1.054790">
        <time>2017-06-24T08:27:05Z</time>
      </trkpt>
      <trkpt lat="43.976760" lon="-1.054400">
        <time>2017-06-24T08:27:06Z</time>
      </trkpt>
      <trkpt lat="43.976910" lon="-1.054070">
        <time>2017-06-24T08:27:07Z</time>
      </trkpt>
      <trkpt lat="43.977080" lon="-1.053690">
        <time>2017-06-24T08:27:08Z</time>
      </trkpt>
      <trkpt lat="43.977250" lon="-1.053370">
        <time>2017-06-24T08:27:09Z</time>
      </trkpt>
      <trkpt lat="43.977420" lon="-1.053040">
        <time>2017-06-24T08:27:10Z</time>
      </trkpt>
      <trkpt lat="43.977620" lon="-1.052680">
        <time>2017-06-24T08:27:11Z</time>
      </trkpt>
      <trkpt lat="43.977800" lon="-1.052380">
        <time>2017-06-24T08:27:12Z</time>
      </trkpt>
      <trkpt lat="43.977990" lon="-1.052070">
        <time>2017-06-24T08:27:13Z</time>
      </trkpt>
      <trkpt lat="43.978200" lon="-1.051760">
        <time>2017-06-24T08:27:14Z</time>
      </trkpt>
      <trkpt lat="43.978410" lon="-1.051460">
        <time>2017-06-24T08:27:15Z</time>
      </trkpt>
      <trkpt lat="43.978640" lon="-1.051150">
        <time>2017-06-24T08:27:16Z</time>
      </trkpt>
      <trkpt lat="43.978850" lon="-1.050890">
        <time>2017-06-24T08:27:17Z</time>
      </trkpt>
      <trkpt lat="43.979070" lon="-1.050620">
        <time>2017-06-24T08:27:18Z</time>
      </trkpt>
      <trkpt lat="43.979320" lon="-1.050340">
        <time>2017-06-24T08:27:19Z</time>
      </trkpt>
      <trkpt lat="43.979540" lon="-1.050110">
        <time>2017-06-24T08:27:20Z</time>
      </trkpt>
      <trkpt lat="43.979770" lon="-1.049870">
        <time>2017-06-24T08:27:21Z</time>
      </trkpt>
      <trkpt lat="43.980040" lon="-1.049620">
        <time>2017-06-24T08:27:22Z</time>
      </trkpt>
      <trkpt lat="43.980280" lon="-1.049400">
        <time>2017-06-24T08:27:23Z</time>
      </trkpt>
      <trkpt lat="43.980570" lon="-1.049170">
        <time>2017-06-24T08:27:24Z</time>
      </trkpt>
      <trkpt lat="43.980820" lon="-1.048960">
        <time>2017-06-24T08:27:25Z</time>
      </trkpt>
      <trkpt lat="43.981100" lon="-1.048740">
        <time>2017-06-24T08:27:26Z</time>
      </trkpt>
      <trkpt lat="43.981400" lon="-1.048500">
        <time>2017-06-24T08:27:27Z</time>
      </trkpt>
      <trkpt lat="43.981660" lon="-1.048290">
        <time>2017-06-24T08:27:28Z</time>
      </trkpt>
      <trkpt lat="43.981940" lon="-1.048060">
        <time>2017-06-24T08:27:29Z</time>
      </trkpt>
      <trkpt lat="43.982210" lon="-1.047830">
        <time>2017-06-24T08:27:30Z</time>
      </trkpt>
      <trkpt lat="43.982490" lon="-1.047600">
        <time>2017-06-24T08:27:31Z</time>
      </trkpt>
      <trkpt lat="43.982780" lon="-1.047360">
        <time>2017-06-24T08:27:32Z</time>
      </trkpt>
      <trkpt lat="43.983030" lon="-1.047140">
        <time>2017-06-24T08:27:33Z</time>
      </trkpt>
      <trkpt lat="43.983300" lon="-1.046930">
        <time>2017-06-24T08:27:34Z</time>
      </trkpt>
      <trkpt lat="43.983590" lon="-1.046690">
        <time>2017-06-24T08:27:35Z</time>
      </trkpt>
      <trkpt lat="43.983840" lon="-1.046490">
        <time>2017-06-24T08:27:36Z</time>
      </trkpt>
      <trkpt lat="43.984110" lon="-1.046260">
        <time>2017-06-24T08:27:37Z</time>
      </trkpt>
      <trkpt lat="43.984400" lon="-1.046030">
        <time>2017-06-24T08:27:38Z</time>
      </trkpt>
      <trkpt lat="43.984660" lon="-1.045820">
        <time>2017-06-24T08:27:39Z</time>
      </trkpt>
      <trkpt lat="43.984940" lon="-1.045580">
        <time>2017-06-24T08:27:40Z</time>
      </trkpt>
      <trkpt lat="43.985200" lon="-1.045370">
        <time>2017-06-24T08:27:41Z</time>
      </trkpt>
      <trkpt lat="43.985470" lon="-1.045140">
        <time>2017-06-24T08:27:42Z</time>
      </trkpt>
      <trkpt lat="43.985760" lon="-1.044900">
        <time>2017-06-24T08:27:43Z</time>
      </trkpt>
      <trkpt lat="43.986010" lon="-1.044680">
        <time>2017-06-24T08:27:44Z</time>
      </trkpt>
      <trkpt lat="43.986280" lon="-1.044440">
        <time>2017-06-24T08:27:45Z</time>
      </trkpt>
      <trkpt lat="43.986540" lon="-1.044200">
        <time>2017-06-24T08:27:46Z</time>
      </trkpt>
      <trkpt lat="43.986800" lon="-1.043970">
        <time>2017-06-24T08:27:47Z</time>
      </trkpt>
      <trkpt lat="43.987080" lon="-1.043730">
        <time>2017-06-24T08:27:48Z</time>
      </trkpt>
      <trkpt lat="43.987330" lon="-1.043520">
        <time>2017-06-24T08:27:49Z</time>
      </trkpt>
      <trkpt lat="43.987600" lon="-1.043290">
        <time>2017-06-24T08:27:50Z</time>
      </trkpt>
      <trkpt lat="43.987880" lon="-1.043060">
        <time>2017-06-24T08:27:51Z</time>
      </trkpt>
      <trkpt lat="43.988130" lon="-1.042850">
        <time>2017-06-24T08:27:52Z</time>
      </trkpt>
      <trkpt lat="43.988390" lon="-1.042630">
        <time>2017-06-24T08:27:53Z</time>
      </trkpt>
      <trkpt lat="43.988670" lon="-1.042400">
        <time>2017-06-24T08:27:54Z</time>
      </trkpt>
      <trkpt lat="43.988910" lon="-1.042190">
        <time>2017-06-24T08:27:55Z</time>
      </trkpt>
      <trkpt lat="43.989190" lon="-1.041960">
        <time>2017-06-24T08:27:56Z</time>
      </trkpt>
      <trkpt lat="43.989440" lon="-1.041750">
        <time>2017-06-24T08:27:57Z</time>
      </trkpt>
      <trkpt lat="43.989710" lon="-1.041520">
        <time>2017-06-24T08:27:58Z</time>
      </trkpt>
      <trkpt lat="43.989990" lon="-1.041280">
        <time>2017-06-24T08:27:59Z</time>
      </trkpt>
      <trkpt lat="43.990240" lon="-1.041070">
        <time>2017-06-24T08:28:00Z</time>
      </trkpt>
      <trkpt lat="43.990510" lon="-1.040850">
        <time>2017-06-24T08:28:01Z</time>
      </trkpt>
      <trkpt lat="43.990780" lon="-1.040620">
        <time>2017-06-24T08:28:02Z</time>
      </trkpt>
      <trkpt lat="43.991050" lon="-1.040400">
        <time>2017-06-24T08:28:03Z</time>
      </trkpt>
      <trkpt lat="43.991330" lon="-1.040160">
        <time>2017-06-24T08:28:04Z</time>
      </trkpt>
      <trkpt lat="43.991580" lon="-1.039950">
        <time>2017-06-24T08:28:05Z</time>
      </trkpt>
      <trkpt lat="43.991840" lon="-1.039730">
        <time>2017-06-24T08:28:06Z</time>
      </trkpt>
      <trkpt lat="43.992120" lon="-1.039490">
        <time>2017-06-24T08:28:07Z</time>
      </trkpt>
      <trkpt lat="43.992370" lon="-1.039290">
        <time>2017-06-24T08:28:08Z</time>
      </trkpt>
      <trkpt lat="43.992630" lon="-1.039060">
        <time>2017-06-24T08:28:09Z</time>
      </trkpt>
      <trkpt lat="43.992920" lon="-1.038830">
        <time>2017-06-24T08:28:10Z</time>
      </trkpt>
      <trkpt lat="43.993160" lon="-1.038620">
        <time>2017-06-24T08:28:11Z</time>
      </trkpt>
      <trkpt lat="43.993440" lon="-1.038370">
        <time>2017-06-24T08:28:12Z</time>
      </trkpt>
      <trkpt lat="43.993690" lon="-1.038160">
        <time>2017-06-24T08:28:13Z</time>
      </trkpt>
      <trkpt lat="43.993960" lon="-1.037930">
        <time>2017-06-24T08:28:14Z</time>
      </trkpt>
      <trkpt lat="43.994250" lon="-1.037700">
        <time>2017-06-24T08:28:15Z</time>
      </trkpt>
      <trkpt lat="43.994500" lon="-1.037480">
        <time>2017-06-24T08:28:16Z</time>
      </trkpt>
      <trkpt lat="43.994770" lon="-1.037260">
        <time>2017-06-24T08:28:17Z</time>
      </trkpt>
      <trkpt lat="43.995040" lon="-1.037030">
        <time>2017-06-24T08:28:18Z</time>
      </trkpt>
      <trkpt lat="43.995310" lon="-1.036800">
        <time>2017-06-24T08:28:19Z</time>
      </trkpt>
      <trkpt lat="43.995590" lon="-1.036560">
        <time>2017-06-24T08:28:20Z</time>
      </trkpt>
      <trkpt lat="43.995830" lon="-1.036350">
        <time>2017-06-24T08:28:21Z</time>
      </trkpt>
      <trkpt lat="43.996100" lon="-1.036130">
        <time>2017-06-24T08:28:22Z</time>
      </trkpt>
      <trkpt lat="43.996390" lon="-1.035890">
        <time>2017-06-24T08:28:23Z</time>
      </trkpt>
      <trkpt lat="43.996640" lon="-1.035680">
        <time>2017-06-24T08:28:24Z</time>
      </trkpt>
      <trkpt lat="43.996910" lon="-1.035470">
        <time>2017-06-24T08:28:25Z</time>
      </trkpt>
      <trkpt lat="43.997210" lon="-1.035230">
        <time>2017-06-24T08:28:26Z</time>
      </trkpt>
      <trkpt lat="43.997470" lon="-1.035020">
        <time>2017-06-24T08:28:27Z</time>
      </trkpt>
      <trkpt lat="43.997760" lon="-1.034790">
        <time>2017-06-24T08:28:28Z</time>
      </trkpt>
      <trkpt lat="43.998010" lon="-1.034580">
        <time>2017-06-24T08:28:29Z</time>
      </trkpt>
      <trkpt lat="43.998290" lon="-1.034350">
        <time>2017-06-24T08:28:30Z</time>
      </trkpt>
      <trkpt lat="43.998570" lon="-1.034110">
        <time>2017-06-24T08:28:31Z</time>
      </trkpt>
      <trkpt lat="43.998820" lon="-1.033890">
        <time>2017-06-24T08:28:32Z</time>
      </trkpt>
      <trkpt lat="43.999090" lon="-1.033650">
        <time>2017-06-24T08:28:33Z</time>
      </trkpt>
      <trkpt lat="43.999370" lon="-1.033420">
        <time>2017-06-24T08:28:34Z</time>
      </trkpt>
      <trkpt lat="43.999640" lon="-1.033180">
        <time>2017-06-24T08:28:35Z</time>
      </trkpt>
      <trkpt lat="43.999930" lon="-1.032930">
        <time>2017-06-24T08:28:36Z</time>
      </trkpt>
      <trkpt lat="44.000180" lon="-1.032710">
        <time>2017-06-24T08:28:37Z</time>
      </trkpt>
      <trkpt lat="44.000450" lon="-1.032470">
        <time>2017-06-24T08:28:38Z</time>
      </trkpt>
      <trkpt lat="44.000730" lon="-1.032220">
        <time>2017-06-24T08:28:39Z</time>
      </trkpt>
      <trkpt lat="44.000990" lon="-1.032010">
        <time>2017-06-24T08:28:40Z</time>
      </trkpt>
      <trkpt lat="44.001250" lon="-1.031780">
        <time>2017-06-24T08:28:41Z</time>
      </trkpt>
      <trkpt lat="44.001540" lon="-1.031540">
        <time>2017-06-24T08:28:42Z</time>
      </trkpt>
      <trkpt lat="44.001780" lon="-1.031330">
        <time>2017-06-24T08:28:43Z</time>
      </trkpt>
      <trkpt lat="44.002060" lon="-1.031090">
        <time>2017-06-24T08:28:44Z</time>
      </trkpt>
      <trkpt lat="44.002310" lon="-1.030880">
        <time>2017-06-24T08:28:45Z</time>
      </trkpt>
      <trkpt lat="44.002570" lon="-1.030660">
        <time>2017-06-24T08:28:46Z</time>
      </trkpt>
      <trkpt lat="44.002850" lon="-1.030420">
        <time>2017-06-24T08:28:47Z</time>
      </trkpt>
      <trkpt lat="44.003100" lon="-1.030210">
        <time>2017-06-24T08:28:48Z</time>
      </trkpt>
      <trkpt lat="44.003360" lon="-1.029980">
        <time>2017-06-24T08:28:49Z</time>
      </trkpt>
      <trkpt lat="44.003620" lon="-1.029760">
        <time>2017-06-24T08:28:50Z</time>
      </trkpt>
      <trkpt lat="44.003890" lon="-1.029540">
        <time>2017-06-24T08:28:51Z</time>
      </trkpt>
      <trkpt lat="44.004170" lon="-1.029310">
        <time>2017-06-24T08:28:52Z</time>
      </trkpt>
      <trkpt lat="44.004420" lon="-1.029110">
        <time>2017-06-24T08:28:53Z</time>
      </trkpt>
      <trkpt lat="44.004680" lon="-1.028890">
        <time>2017-06-24T08:28:54Z</time>
      </trkpt>
      <trkpt lat="44.004960" lon="-1.028660">
        <time>2017-06-24T08:28:55Z</time>
      </trkpt>
      <trkpt lat="44.005210" lon="-1.028460">
        <time>2017-06-24T08:28:56Z</time>
      </trkpt>
      <trkpt lat="44.005480" lon="-1.028240">
        <time>2017-06-24T08:28:57Z</time>
      </trkpt>
      <trkpt lat="44.005770" lon="-1.028010">
        <time>2017-06-24T08:28:58Z</time>
      </trkpt>
      <trkpt lat="44.006020" lon="-1.027800">
        <time>2017-06-24T08:28:59Z</time>
      </trkpt>
      <trkpt lat="44.006300" lon="-1.027560">
        <time>2017-06-24T08:29:00Z</time>
      </trkpt>
      <trkpt lat="44.006550" lon="-1.027350">
        <time>2017-06-24T08:29:01Z</time>
      </trkpt>
      <trkpt lat="44.006820" lon="-1.027130">
        <time>2017-06-24T08:29:02Z</time>
      </trkpt>
      <trkpt lat="44.007110" lon="-1.026890">
        <time>2017-06-24T08:29:03Z</time>
      </trkpt>
      <trkpt lat="44.007360" lon="-1.026680">
        <time>2017-06-24T08:29:04Z</time>
      </trkpt>
      <trkpt lat="44.007630" lon="-1.026450">
        <time>2017-06-24T08:29:05Z</time>
      </trkpt>
      <trkpt lat="44.007900" lon="-1.026220">
        <time>2017-06-24T08:29:06Z</time>
      </trkpt>
      <trkpt lat="44.008170" lon="-1.026000">
        <time>2017-06-24T08:29:07Z</time>
      </trkpt>
      <trkpt lat="44.008450" lon="-1.025750">
        <time>2017-06-24T08:29:08Z</time>
      </trkpt>
      <trkpt lat="44.008700" lon="-1.025540">
        <time>2017-06-24T08:29:09Z</time>
      </trkpt>
      <trkpt lat="44.008970" lon="-1.025310">
        <time>2017-06-24T08:29:10Z</time>
      </trkpt>
      <trkpt lat="44.009260" lon="-1.025070">
        <time>2017-06-24T08:29:11Z</time>
      </trkpt>
      <trkpt lat="44.009510" lon="-1.024860">
        <time>2017-06-24T08:29:12Z</time>
      </trkpt>
      <trkpt lat="44.009790" lon="-1.024630">
        <time>2017-06-24T08:29:13Z</time>
      </trkpt>
      <trkpt lat="44.010080" lon="-1.024390">
        <time>2017-06-24T08:29:14Z</time>
      </trkpt>
      <trkpt lat="44.010330" lon="-1.024180">
        <time>2017-06-24T08:29:15Z</time>
      </trkpt>
      <trkpt lat="44.010620" lon="-1.023940">
        <time>2017-06-24T08:29:16Z</time>
      </trkpt>
      <trkpt lat="44.010870" lon="-1.023730">
        <time>2017-06-24T08:29:17Z</time>
      </trkpt>
      <trkpt lat="44.011140" lon="-1.023500">
        <time>2017-06-24T08:29:18Z</time>
      </trkpt>
      <trkpt lat="44.011430" lon="-1.023260">
        <time>2017-06-24T08:29:19Z</time>
      </trkpt>
      <trkpt lat="44.011680" lon="-1.023040">
        <time>2017-06-24T08:29:20Z</time>
      </trkpt>
      <trkpt lat="44.011950" lon="-1.022820">
        <time>2017-06-24T08:29:21Z</time>
      </trkpt>
      <trkpt lat="44.012220" lon="-1.022590">
        <time>2017-06-24T08:29:22Z</time>
      </trkpt>
      <trkpt lat="44.012500" lon="-1.022360">
        <time>2017-06-24T08:29:23Z</time>
      </trkpt>
      <trkpt lat="44.012790" lon="-1.022110">
        <time>2017-06-24T08:29:24Z</time>
      </trkpt>
      <trkpt lat="44.013040" lon="-1.021900">
        <time>2017-06-24T08:29:25Z</time>
      </trkpt>
      <trkpt lat="44.013310" lon="-1.021670">
        <time>2017-06-24T08:29:26Z</time>
      </trkpt>
      <trkpt lat="44.013590" lon="-1.021430">
        <time>2017-06-24T08:29:27Z</time>
      </trkpt>
      <trkpt lat="44.013840" lon="-1.021220">
        <time>2017-06-24T08:29:28Z</time>
      </trkpt>
      <trkpt lat="44.014110" lon="-1.021000">
        <time>2017-06-24T08:29:29Z</time>
      </trkpt>
      <trkpt lat="44.014390" lon="-1.020750">
        <time>2017-06-24T08:29:30Z</time>
      </trkpt>
      <trkpt lat="44.014630" lon="-1.020530">
        <time>2017-06-24T08:29:31Z</time>
      </trkpt>
      <trkpt lat="44.014910" lon="-1.020280">
        <time>2017-06-24T08:29:32Z</time>
      </trkpt>
      <trkpt lat="44.015150" lon="-1.020070">
        <time>2017-06-24T08:29:33Z</time>
      </trkpt>
      <trkpt lat="44.015410" lon="-1.019830">
        <time>2017-06-24T08:29:34Z</time>
      </trkpt>
      <trkpt lat="44.015690" lon="-1.019570">
        <time>2017-06-24T08:29:35Z</time>
      </trkpt>
      <trkpt lat="44.015920" lon="-1.019340">
        <time>2017-06-24T08:29:36Z</time>
      </trkpt>
      <trkpt lat="44.016180" lon="-1.019080">
        <time>2017-06-24T08:29:37Z</time>
      </trkpt>
      <trkpt lat="44.016430" lon="-1.018820">
        <time>2017-06-24T08:29:38Z</time>
      </trkpt>
      <trkpt lat="44.016680" lon="-1.018560">
        <time>2017-06-24T08:29:39Z</time>
      </trkpt>
      <trkpt lat="44.016950" lon="-1.018280">
        <time>2017-06-24T08:29:40Z</time>
      </trkpt>
      <trkpt lat="44.017200" lon="-1.018030">
        <time>2017-06-24T08:29:41Z</time>
      </trkpt>
      <trkpt lat="44.017450" lon="-1.017780">
        <time>2017-06-24T08:29:42Z</time>
      </trkpt>
      <trkpt lat="44.017730" lon="-1.017510">
        <time>2017-06-24T08:29:43Z</time>
      </trkpt>
      <trkpt lat="44.017980" lon="-1.017290">
        <time>2017-06-24T08:29:44Z</time>
      </trkpt>
      <trkpt lat="44.018260" lon="-1.017070">
        <time>2017-06-24T08:29:45Z</time>
      </trkpt>
      <trkpt lat="44.018560" lon="-1.016840">
        <time>2017-06-24T08:29:46Z</time>
      </trkpt>
      <trkpt lat="44.018820" lon="-1.016650">
        <time>2017-06-24T08:29:47Z</time>
      </trkpt>
      <trkpt lat="44.019120" lon="-1.016450">
        <time>2017-06-24T08:29:48Z</time>
      </trkpt>
      <trkpt lat="44.019400" lon="-1.016280">
        <time>2017-06-24T08:29:49Z</time>
      </trkpt>
      <trkpt lat="44.019690" lon="-1.016120">
        <time>2017-06-24T08:29:50Z</time>
      </trkpt>
      <trkpt lat="44.020010" lon="-1.015960">
        <time>2017-06-24T08:29:51Z</time>
      </trkpt>
      <trkpt lat="44.020290" lon="-1.015830">
        <time>2017-06-24T08:29:52Z</time>
      </trkpt>
      <trkpt lat="44.020600" lon="-1.015690">
        <time>2017-06-24T08:29:53Z</time>
      </trkpt>
      <trkpt lat="44.020900" lon="-1.015570">
        <time>2017-06-24T08:29:54Z</time>
      </trkpt>
      <trkpt lat="44.021210" lon="-1.015470">
        <time>2017-06-24T08:29:55Z</time>
      </trkpt>
      <trkpt lat="44.021550" lon="-1.015370">
        <time>2017-06-24T08:29:56Z</time>
      </trkpt>
      <trkpt lat="44.021840" lon="-1.015290">
        <time>2017-06-24T08:29:57Z</time>
      </trkpt>
      <trkpt lat="44.022160" lon="-1.015220">
        <time>2017-06-24T08:29:58Z</time>
      </trkpt>
      <trkpt lat="44.022500" lon="-1.015160">
        <time>2017-06-24T08:29:59Z</time>
      </trkpt>
      <trkpt lat="44.022800" lon="-1.015120">
        <time>2017-06-24T08:30:00Z</time>
      </trkpt>
      <trkpt lat="44.023120" lon="-1.015090">
        <time>2017-06-24T08:30:01Z</time>
      </trkpt>
      <trkpt lat="44.023470" lon="-1.015070">
        <time>2017-06-24T08:30:02Z</time>
      </trkpt>
      <trkpt lat="44.023770" lon="-1.015070">
        <time>2017-06-24T08:30:03Z</time>
      </trkpt>
      <trkpt lat="44.024120" lon="-1.015080">
        <time>2017-06-24T08:30:04Z</time>
      </trkpt>
      <trkpt lat="44.024430" lon="-1.015100">
        <time>2017-06-24T08:30:05Z</time>
      </trkpt>
      <trkpt lat="44.024760" lon="-1.015150">
        <time>2017-06-24T08:30:06Z</time>
      </trkpt>
      <trkpt lat="44.025110" lon="-1.015200">
        <time>2017-06-24T08:30:07Z</time>
      </trkpt>
      <trkpt lat="44.025410" lon="-1.015250">
        <time>2017-06-24T08:30:08Z</time>
      </trkpt>
      <trkpt lat="44.025740" lon="-1.015320">
        <time>2017-06-24T08:30:09Z</time>
      </trkpt>
      <trkpt lat="44.026070" lon="-1.015410">
        <time>2017-06-24T08:30:10Z</time>
      </trkpt>
      <trkpt lat="44.026400" lon="-1.015490">
        <time>2017-06-24T08:30:11Z</time>
      </trkpt>
      <trkpt lat="44.026750" lon="-1.015580">
        <time>2017-06-24T08:30:12Z</time>
      </trkpt>
      <trkpt lat="44.027050" lon="-1.015670">
        <time>2017-06-24T08:30:13Z</time>
      </trkpt>
      <trkpt lat="44.027380" lon="-1.015760">
        <time>2017-06-24T08:30:14Z</time>
      </trkpt>
      <trkpt lat="44.027740" lon="-1.015850">
        <time>2017-06-24T08:30:15Z</time>
      </trkpt>
      <trkpt lat="44.028050" lon="-1.015930">
        <time>2017-06-24T08:30:16Z</time>
      </trkpt>
      <trkpt lat="44.028370" lon="-1.016020">
        <time>2017-06-24T08:30:17Z</time>
      </trkpt>
      <trkpt lat="44.028720" lon="-1.016110">
        <time>2017-06-24T08:30:18Z</time>
      </trkpt>
      <trkpt lat="44.029030" lon="-1.016190">
        <time>2017-06-24T08:30:19Z</time>
      </trkpt>
      <trkpt lat="44.029370" lon="-1.016270">
        <time>2017-06-24T08:30:20Z</time>
      </trkpt>
      <trkpt lat="44.029680" lon="-1.016350">
        <time>2017-06-24T08:30:21Z</time>
      </trkpt>
      <trkpt lat="44.030000" lon="-1.016430">
        <time>2017-06-24T08:30:22Z</time>
      </trkpt>
      <trkpt lat="44.030340" lon="-1.016520">
        <time>2017-06-24T08:30:23Z</time>
      </trkpt>
      <trkpt lat="44.030640" lon="-1.016590">
        <time>2017-06-24T08:30:24Z</time>
      </trkpt>
      <trkpt lat="44.030960" lon="-1.016670">
        <time>2017-06-24T08:30:25Z</time>
      </trkpt>
      <trkpt lat="44.031280" lon="-1.016740">
        <time>2017-06-24T08:30:26Z</time>
      </trkpt>
      <trkpt lat="44.031610" lon="-1.016810">
        <time>2017-06-24T08:30:27Z</time>
      </trkpt>
      <trkpt lat="44.031950" lon="-1.016880">
        <time>2017-06-24T08:30:28Z</time>
      </trkpt>
      <trkpt lat="44.032250" lon="-1.016920">
        <time>2017-06-24T08:30:29Z</time>
      </trkpt>
      <trkpt lat="44.032580" lon="-1.016960">
        <time>2017-06-24T08:30:30Z</time>
      </trkpt>
      <trkpt lat="44.032920" lon="-1.016980">
        <time>2017-06-24T08:30:31Z</time>
      </trkpt>
      <trkpt lat="44.033230" lon="-1.016990">
        <time>2017-06-24T08:30:32Z</time>
      </trkpt>
      <trkpt lat="44.033550" lon="-1.016980">
        <time>2017-06-24T08:30:33Z</time>
      </trkpt>
      <trkpt lat="44.033900" lon="-1.016960">
        <time>2017-06-24T08:30:34Z</time>
      </trkpt>
      <trkpt lat="44.034190" lon="-1.016930">
        <time>2017-06-24T08:30:35Z</time>
      </trkpt>
      <trkpt lat="44.034530" lon="-1.016880">
        <time>2017-06-24T08:30:36Z</time>
      </trkpt>
      <trkpt lat="44.034830" lon="-1.016810">
        <time>2017-06-24T08:30:37Z</time>
      </trkpt>
      <trkpt lat="44.035150" lon="-1.016740">
        <time>2017-06-24T08:30:38Z</time>
      </trkpt>
      <trkpt lat="44.035480" lon="-1.016650">
        <time>2017-06-24T08:30:39Z</time>
      </trkpt>
      <trkpt lat="44.035780" lon="-1.016560">
        <time>2017-06-24T08:30:40Z</time>
      </trkpt>
      <trkpt lat="44.036090" lon="-1.016450">
        <time>2017-06-24T08:30:41Z</time>
      </trkpt>
      <trkpt lat="44.036400" lon="-1.016320">
        <time>2017-06-24T08:30:42Z</time>
      </trkpt>
      <trkpt lat="44.036710" lon="-1.016180">
        <time>2017-06-24T08:30:43Z</time>
      </trkpt>
      <trkpt lat="44.037030" lon="-1.016020">
        <time>2017-06-24T08:30:44Z</time>
      </trkpt>
      <trkpt lat="44.037320" lon="-1.015860">
        <time>2017-06-24T08:30:45Z</time>
      </trkpt>
      <trkpt lat="44.037610" lon="-1.015670">
        <time>2017-06-24T08:30:46Z</time>
      </trkpt>
      <trkpt lat="44.037930" lon="-1.015470">
        <time>2017-06-24T08:30:47Z</time>
      </trkpt>
      <trkpt lat="44.038210" lon="-1.015300">
        <time>2017-06-24T08:30:48Z</time>
      </trkpt>
      <trkpt lat="44.038510" lon="-1.015110">
        <time>2017-06-24T08:30:49Z</time>
      </trkpt>
      <trkpt lat="44.038830" lon="-1.014920">
        <time>2017-06-24T08:30:50Z</time>
      </trkpt>
      <trkpt lat="44.039110" lon="-1.014750">
        <time>2017-06-24T08:30:51Z</time>
      </trkpt>
      <trkpt lat="44.039430" lon="-1.014550">
        <time>2017-06-24T08:30:52Z</time>
      </trkpt>
      <trkpt lat="44.039710" lon="-1.014380">
        <time>2017-06-24T08:30:53Z</time>
      </trkpt>
      <trkpt lat="44.040000" lon="-1.014210">
        <time>2017-06-24T08:30:54Z</time>
      </trkpt>
      <trkpt lat="44.040310" lon="-1.014020">
        <time>2017-06-24T08:30:55Z</time>
      </trkpt>
      <trkpt lat="44.040590" lon="-1.013860">
        <time>2017-06-24T08:30:56Z</time>
      </trkpt>
      <trkpt lat="44.040880" lon="-1.013680">
        <time>2017-06-24T08:30:57Z</time>
      </trkpt>
      <trkpt lat="44.041170" lon="-1.013510">
        <time>2017-06-24T08:30:58Z</time>
      </trkpt>
      <trkpt lat="44.041460" lon="-1.013340">
        <time>2017-06-24T08:30:59Z</time>
      </trkpt>
      <trkpt lat="44.041770" lon="-1.013150">
        <time>2017-06-24T08:31:00Z</time>
      </trkpt>
      <trkpt lat="44.042050" lon="-1.012980">
        <time>2017-06-24T08:31:01Z</time>
      </trkpt>
      <trkpt lat="44.042340" lon="-1.012810">
        <time>2017-06-24T08:31:02Z</time>
      </trkpt>
      <trkpt lat="44.042650" lon="-1.012630">
        <time>2017-06-24T08:31:03Z</time>
      </trkpt>
      <trkpt lat="44.042920" lon="-1.012460">
        <time>2017-06-24T08:31:04Z</time>
      </trkpt>
      <trkpt lat="44.043210" lon="-1.012290">
        <time>2017-06-24T08:31:05Z</time>
      </trkpt>
      <trkpt lat="44.043530" lon="-1.012100">
        <time>2017-06-24T08:31:06Z</time>
      </trkpt>
      <trkpt lat="44.043810" lon="-1.011930">
        <time>2017-06-24T08:31:07Z</time>
      </trkpt>
      <trkpt lat="44.044120" lon="-1.011740">
        <time>2017-06-24T08:31:08Z</time>
      </trkpt>
      <trkpt lat="44.044390" lon="-1.011580">
        <time>2017-06-24T08:31:09Z</time>
      </trkpt>
      <trkpt lat="44.044690" lon="-1.011400">
        <time>2017-06-24T08:31:10Z</time>
      </trkpt>
      <trkpt lat="44.045010" lon="-1.011210">
        <time>2017-06-24T08:31:11Z</time>
      </trkpt>
      <trkpt lat="44.045290" lon="-1.011040">
        <time>2017-06-24T08:31:12Z</time>
      </trkpt>
      <trkpt lat="44.045590" lon="-1.010870">
        <time>2017-06-24T08:31:13Z</time>
      </trkpt>
      <trkpt lat="44.045890" lon="-1.010690">
        <time>2017-06-24T08:31:14Z</time>
      </trkpt>
      <trkpt lat="44.046190" lon="-1.010510">
        <time>2017-06-24T08:31:15Z</time>
      </trkpt>
      <trkpt lat="44.046510" lon="-1.010330">
        <time>2017-06-24T08:31:16Z</time>
      </trkpt>
      <trkpt lat="44.046790" lon="-1.010160">
        <time>2017-06-24T08:31:17Z</time>
      </trkpt>
      <trkpt lat="44.047090" lon="-1.009980">
        <time>2017-06-24T08:31:18Z</time>
      </trkpt>
      <trkpt lat="44.047410" lon="-1.009790">
        <time>2017-06-24T08:31:19Z</time>
      </trkpt>
      <trkpt lat="44.047690" lon="-1.009620">
        <time>2017-06-24T08:31:20Z</time>
      </trkpt>
      <trkpt lat="44.047990" lon="-1.009440">
        <time>2017-06-24T08:31:21Z</time>
      </trkpt>
      <trkpt lat="44.048310" lon="-1.009250">
        <time>2017-06-24T08:31:22Z</time>
      </trkpt>
      <trkpt lat="44.048590" lon="-1.009090">
        <time>2017-06-24T08:31:23Z</time>
      </trkpt>
      <trkpt lat="44.048900" lon="-1.008900">
        <time>2017-06-24T08:31:24Z</time>
      </trkpt>
      <trkpt lat="44.049180" lon="-1.008730">
        <time>2017-06-24T08:31:25Z</time>
      </trkpt>
      <trkpt lat="44.049480" lon="-1.008550">
        <time>2017-06-24T08:31:26Z</time>
      </trkpt>
      <trkpt lat="44.049790" lon="-1.008350">
        <time>2017-06-24T08:31:27Z</time>
      </trkpt>
      <trkpt lat="44.050070" lon="-1.008190">
        <time>2017-06-24T08:31:28Z</time>
      </trkpt>
      <trkpt lat="44.050370" lon="-1.008020">
        <time>2017-06-24T08:31:29Z</time>
      </trkpt>
      <trkpt lat="44.050660" lon="-1.007840">
        <time>2017-06-24T08:31:30Z</time>
      </trkpt>
      <trkpt lat="44.050950" lon="-1.007660">
        <time>2017-06-24T08:31:31Z</time>
      </trkpt>
      <trkpt lat="44.051270" lon="-1.007480">
        <time>2017-06-24T08:31:32Z</time>
      </trkpt>
      <trkpt lat="44.051540" lon="-1.007320">
        <time>2017-06-24T08:31:33Z</time>
      </trkpt>
      <trkpt lat="44.051840" lon="-1.007150">
        <time>2017-06-24T08:31:34Z</time>
      </trkpt>
      <trkpt lat="44.052150" lon="-1.006960">
        <time>2017-06-24T08:31:35Z</time>
      </trkpt>
      <trkpt lat="44.052430" lon="-1.006800">
        <time>2017-06-24T08:31:36Z</time>
      </trkpt>
      <trkpt lat="44.052730" lon="-1.006620">
        <time>2017-06-24T08:31:37Z</time>
      </trkpt>
      <trkpt lat="44.053040" lon="-1.006430">
        <time>2017-06-24T08:31:38Z</time>
      </trkpt>
      <trkpt lat="44.053320" lon="-1.006260">
        <time>2017-06-24T08:31:39Z</time>
      </trkpt>
      <trkpt lat="44.053640" lon="-1.006080">
        <time>2017-06-24T08:31:40Z</time>
      </trkpt>
      <trkpt lat="44.053920" lon="-1.005910">
        <time>2017-06-24T08:31:41Z</time>
      </trkpt>
      <trkpt lat="44.054230" lon="-1.005740">
        <time>2017-06-24T08:31:42Z</time>
      </trkpt>
      <trkpt lat="44.054550" lon="-1.005570">
        <time>2017-06-24T08:31:43Z</time>
      </trkpt>
      <trkpt lat="44.054840" lon="-1.005430">
        <time>2017-06-24T08:31:44Z</time>
      </trkpt>
      <trkpt lat="44.055150" lon="-1.005300">
        <time>2017-06-24T08:31:45Z</time>
      </trkpt>
      <trkpt lat="44.055470" lon="-1.005180">
        <time>2017-06-24T08:31:46Z</time>
      </trkpt>
      <trkpt lat="44.055790" lon="-1.005080">
        <time>2017-06-24T08:31:47Z</time>
      </trkpt>
      <trkpt lat="44.056140" lon="-1.004980">
        <time>2017-06-24T08:31:48Z</time>
      </trkpt>
      <trkpt lat="44.056450" lon="-1.004910">
        <time>2017-06-24T08:31:49Z</time>
      </trkpt>
      <trkpt lat="44.056780" lon="-1.004850">
        <time>2017-06-24T08:31:50Z</time>
      </trkpt>
      <trkpt lat="44.057140" lon="-1.004800">
        <time>2017-06-24T08:31:51Z</time>
      </trkpt>
      <trkpt lat="44.057450" lon="-1.004760">
        <time>2017-06-24T08:31:52Z</time>
      </trkpt>
      <trkpt lat="44.057780" lon="-1.004740">
        <time>2017-06-24T08:31:53Z</time>
      </trkpt>
      <trkpt lat="44.058140" lon="-1.004730">
        <time>2017-06-24T08:31:54Z</time>
      </trkpt>
      <trkpt lat="44.058440" lon="-1.004730">
        <time>2017-06-24T08:31:55Z</time>
      </trkpt>
      <trkpt lat="44.058790" lon="-1.004740">
        <time>2017-06-24T08:31:56Z</time>
      </trkpt>
      <trkpt lat="44.059090" lon="-1.004770">
        <time>2017-06-24T08:31:57Z</time>
      </trkpt>
      <trkpt lat="44.059410" lon="-1.004810">
        <time>2017-06-24T08:31:58Z</time>
      </trkpt>
      <trkpt lat="44.059740" lon="-1.004860">
        <time>2017-06-24T08:31:59Z</time>
      </trkpt>
      <trkpt lat="44.060040" lon="-1.004910">
        <time>2017-06-24T08:32:00Z</time>
      </trkpt>
      <trkpt lat="44.060350" lon="-1.004970">
        <time>2017-06-24T08:32:01Z</time>
      </trkpt>
      <trkpt lat="44.060660" lon="-1.005030">
        <time>2017-06-24T08:32:02Z</time>
      </trkpt>
      <trkpt lat="44.060970" lon="-1.005090">
        <time>2017-06-24T08:32:03Z</time>
      </trkpt>
      <trkpt lat="44.061300" lon="-1.005150">
        <time>2017-06-24T08:32:04Z</time>
      </trkpt>
      <trkpt lat="44.061600" lon="-1.005210">
        <time>2017-06-24T08:32:05Z</time>
      </trkpt>
      <trkpt lat="44.061920" lon="-1.005270">
        <time>2017-06-24T08:32:06Z</time>
      </trkpt>
      <trkpt lat="44.062260" lon="-1.005330">
        <time>2017-06-24T08:32:07Z</time>
      </trkpt>
      <trkpt lat="44.062560" lon="-1.005390">
        <time>2017-06-24T08:32:08Z</time>
      </trkpt>
      <trkpt lat="44.062880" lon="-1.005450">
        <time>2017-06-24T08:32:09Z</time>
      </trkpt>
      <trkpt lat="44.063220" lon="-1.005510">
        <time>2017-06-24T08:32:10Z</time>
      </trkpt>
      <trkpt lat="44.063530" lon="-1.005560">
        <time>2017-06-24T08:32:11Z</time>
      </trkpt>
      <trkpt lat="44.063870" lon="-1.005620">
        <time>2017-06-24T08:32:12Z</time>
      </trkpt>
      <trkpt lat="44.064170" lon="-1.005660">
        <time>2017-06-24T08:32:13Z</time>
      </trkpt>
      <trkpt lat="44.064500" lon="-1.005700">
        <time>2017-06-24T08:32:14Z</time>
      </trkpt>
      <trkpt lat="44.064850" lon="-1.005740">
        <time>2017-06-24T08:32:15Z</time>
      </trkpt>
      <trkpt lat="44.065160" lon="-1.005760">
        <time>2017-06-24T08:32:16Z</time>
      </trkpt>
      <trkpt lat="44.065490" lon="-1.005770">
        <time>2017-06-24T08:32:17Z</time>
      </trkpt>
      <trkpt lat="44.065810" lon="-1.005760">
        <time>2017-06-24T08:32:18Z</time>
      </trkpt>
      <trkpt lat="44.066140" lon="-1.005740">
        <time>2017-06-24T08:32:19Z</time>
      </trkpt>
      <trkpt lat="44.066480" lon="-1.005720">
        <time>2017-06-24T08:32:20Z</time>
      </trkpt>
      <trkpt lat="44.066780" lon="-1.005690">
        <time>2017-06-24T08:32:21Z</time>
      </trkpt>
      <trkpt lat="44.067100" lon="-1.005670">
        <time>2017-06-24T08:32:22Z</time>
      </trkpt>
      <trkpt lat="44.067430" lon="-1.005650">
        <time>2017-06-24T08:32:23Z</time>
      </trkpt>
      <trkpt lat="44.067730" lon="-1.005630">
        <time>2017-06-24T08:32:24Z</time>
      </trkpt>
      <trkpt lat="44.068050" lon="-1.005600">
        <time>2017-06-24T08:32:25Z</time>
      </trkpt>
      <trkpt lat="44.068390" lon="-1.005580">
        <time>2017-06-24T08:32:26Z</time>
      </trkpt>
      <trkpt lat="44.068690" lon="-1.005570">
        <time>2017-06-24T08:32:27Z</time>
      </trkpt>
      <trkpt lat="44.069040" lon="-1.005530">
        <time>2017-06-24T08:32:28Z</time>
      </trkpt>
      <trkpt lat="44.069340" lon="-1.005510">
        <time>2017-06-24T08:32:29Z</time>
      </trkpt>
      <trkpt lat="44.069660" lon="-1.005480">
        <time>2017-06-24T08:32:30Z</time>
      </trkpt>
      <trkpt lat="44.070010" lon="-1.005460">
        <time>2017-06-24T08:32:31Z</time>
      </trkpt>
      <trkpt lat="44.070310" lon="-1.005440">
        <time>2017-06-24T08:32:32Z</time>
      </trkpt>
      <trkpt lat="44.070630" lon="-1.005430">
        <time>2017-06-24T08:32:33Z</time>
      </trkpt>
      <trkpt lat="44.070960" lon="-1.005400">
        <time>2017-06-24T08:32:34Z</time>
      </trkpt>
      <trkpt lat="44.071280" lon="-1.005390">
        <time>2017-06-24T08:32:35Z</time>
      </trkpt>
      <trkpt lat="44.071630" lon="-1.005360">
        <time>2017-06-24T08:32:36Z</time>
      </trkpt>
      <trkpt lat="44.071940" lon="-1.005320">
        <time>2017-06-24T08:32:37Z</time>
      </trkpt>
      <trkpt lat="44.072260" lon="-1.005290">
        <time>2017-06-24T08:32:38Z</time>
      </trkpt>
      <trkpt lat="44.072610" lon="-1.005250">
        <time>2017-06-24T08:32:39Z</time>
      </trkpt>
      <trkpt lat="44.072910" lon="-1.005230">
        <time>2017-06-24T08:32:40Z</time>
      </trkpt>
      <trkpt lat="44.073240" lon="-1.005200">
        <time>2017-06-24T08:32:41Z</time>
      </trkpt>
      <trkpt lat="44.073590" lon="-1.005170">
        <time>2017-06-24T08:32:42Z</time>
      </trkpt>
      <trkpt lat="44.073890" lon="-1.005140">
        <time>2017-06-24T08:32:43Z</time>
      </trkpt>
      <trkpt lat="44.074240" lon="-1.005110">
        <time>2017-06-24T08:32:44Z</time>
      </trkpt>
      <trkpt lat="44.074530" lon="-1.005060">
        <time>2017-06-24T08:32:45Z</time>
      </trkpt>
      <trkpt lat="44.074850" lon="-1.005000">
        <time>2017-06-24T08:32:46Z</time>
      </trkpt>
      <trkpt lat="44.075190" lon="-1.004930">
        <time>2017-06-24T08:32:47Z</time>
      </trkpt>
      <trkpt lat="44.075490" lon="-1.004860">
        <time>2017-06-24T08:32:48Z</time>
      </trkpt>
      <trkpt lat="44.075800" lon="-1.004770">
        <time>2017-06-24T08:32:49Z</time>
      </trkpt>
      <trkpt lat="44.076110" lon="-1.004680">
        <time>2017-06-24T08:32:50Z</time>
      </trkpt>
      <trkpt lat="44.076420" lon="-1.004580">
        <time>2017-06-24T08:32:51Z</time>
      </trkpt>
      <trkpt lat="44.076750" lon="-1.004470">
        <time>2017-06-24T08:32:52Z</time>
      </trkpt>
      <trkpt lat="44.077030" lon="-1.004360">
        <time>2017-06-24T08:32:53Z</time>
      </trkpt>
      <trkpt lat="44.077330" lon="-1.004240">
        <time>2017-06-24T08:32:54Z</time>
      </trkpt>
      <trkpt lat="44.077640" lon="-1.004120">
        <time>2017-06-24T08:32:55Z</time>
      </trkpt>
      <trkpt lat="44.077910" lon="-1.004000">
        <time>2017-06-24T08:32:56Z</time>
      </trkpt>
      <trkpt lat="44.078200" lon="-1.003880">
        <time>2017-06-24T08:32:57Z</time>
      </trkpt>
      <trkpt lat="44.078510" lon="-1.003760">
        <time>2017-06-24T08:32:58Z</time>
      </trkpt>
      <trkpt lat="44.078790" lon="-1.003640">
        <time>2017-06-24T08:32:59Z</time>
      </trkpt>
      <trkpt lat="44.079100" lon="-1.003510">
        <time>2017-06-24T08:33:00Z</time>
      </trkpt>
      <trkpt lat="44.079380" lon="-1.003390">
        <time>2017-06-24T08:33:01Z</time>
      </trkpt>
      <trkpt lat="44.079680" lon="-1.003270">
        <time>2017-06-24T08:33:02Z</time>
      </trkpt>
      <trkpt lat="44.079990" lon="-1.003130">
        <time>2017-06-24T08:33:03Z</time>
      </trkpt>
      <trkpt lat="44.080270" lon="-1.003000">
        <time>2017-06-24T08:33:04Z</time>
      </trkpt>
      <trkpt lat="44.080580" lon="-1.002870">
        <time>2017-06-24T08:33:05Z</time>
      </trkpt>
      <trkpt lat="44.080880" lon="-1.002740">
        <time>2017-06-24T08:33:06Z</time>
      </trkpt>
      <trkpt lat="44.081190" lon="-1.002610">
        <time>2017-06-24T08:33:07Z</time>
      </trkpt>
      <trkpt lat="44.081520" lon="-1.002470">
        <time>2017-06-24T08:33:08Z</time>
      </trkpt>
      <trkpt lat="44.081810" lon="-1.002340">
        <time>2017-06-24T08:33:09Z</time>
      </trkpt>
      <trkpt lat="44.082120" lon="-1.002200">
        <time>2017-06-24T08:33:10Z</time>
      </trkpt>
      <trkpt lat="44.082460" lon="-1.002060">
        <time>2017-06-24T08:33:11Z</time>
      </trkpt>
      <trkpt lat="44.082750" lon="-1.001930">
        <time>2017-06-24T08:33:12Z</time>
      </trkpt>
      <trkpt lat="44.083060" lon="-1.001800">
        <time>2017-06-24T08:33:13Z</time>
      </trkpt>
      <trkpt lat="44.083400" lon="-1.001660">
        <time>2017-06-24T08:33:14Z</time>
      </trkpt>
      <trkpt lat="44.083690" lon="-1.001530">
        <time>2017-06-24T08:33:15Z</time>
      </trkpt>
      <trkpt lat="44.084020" lon="-1.001380">
        <time>2017-06-24T08:33:16Z</time>
      </trkpt>
      <trkpt lat="44.084310" lon="-1.001260">
        <time>2017-06-24T08:33:17Z</time>
      </trkpt>
      <trkpt lat="44.084610" lon="-1.001130">
        <time>2017-06-24T08:33:18Z</time>
      </trkpt>
      <trkpt lat="44.084940" lon="-1.000990">
        <time>2017-06-24T08:33:19Z</time>
      </trkpt>
      <trkpt lat="44.085220" lon="-1.000870">
        <time>2017-06-24T08:33:20Z</time>
      </trkpt>
      <trkpt lat="44.085510" lon="-1.000730">
        <time>2017-06-24T08:33:21Z</time>
      </trkpt>
      <trkpt lat="44.085800" lon="-1.000580">
        <time>2017-06-24T08:33:22Z</time>
      </trkpt>
      <trkpt lat="44.086080" lon="-1.000440">
        <time>2017-06-24T08:33:23Z</time>
      </trkpt>
      <trkpt lat="44.086390" lon="-1.000310">
        <time>2017-06-24T08:33:24Z</time>
      </trkpt>
      <trkpt lat="44.086660" lon="-1.000190">
        <time>2017-06-24T08:33:25Z</time>
      </trkpt>
      <trkpt lat="44.086950" lon="-1.000070">
        <time>2017-06-24T08:33:26Z</time>
      </trkpt>
      <trkpt lat="44.087260" lon="-0.999940">
        <time>2017-06-24T08:33:27Z</time>
      </trkpt>
      <trkpt lat="44.087520" lon="-0.999820">
        <time>2017-06-24T08:33:28Z</time>
      </trkpt>
      <trkpt lat="44.087810" lon="-0.999700">
        <time>2017-06-24T08:33:29Z</time>
      </trkpt>
      <trkpt lat="44.088110" lon="-0.999570">
        <time>2017-06-24T08:33:30Z</time>
      </trkpt>
      <trkpt lat="44.088370" lon="-0.999450">
        <time>2017-06-24T08:33:31Z</time>
      </trkpt>
      <trkpt lat="44.088680" lon="-0.999320">
        <time>2017-06-24T08:33:32Z</time>
      </trkpt>
      <trkpt lat="44.088950" lon="-0.999200">
        <time>2017-06-24T08:33:33Z</time>
      </trkpt>
      <trkpt lat="44.089240" lon="-0.999080">
        <time>2017-06-24T08:33:34Z</time>
      </trkpt>
      <trkpt lat="44.089550" lon="-0.998940">
        <time>2017-06-24T08:33:35Z</time>
      </trkpt>
      <trkpt lat="44.089820" lon="-0.998830">
        <time>2017-06-24T08:33:36Z</time>
      </trkpt>
      <trkpt lat="44.090120" lon="-0.998700">
        <time>2017-06-24T08:33:37Z</time>
      </trkpt>
      <trkpt lat="44.090410" lon="-0.998570">
        <time>2017-06-24T08:33:38Z</time>
      </trkpt>
      <trkpt lat="44.090710" lon="-0.998440">
        <time>2017-06-24T08:33:39Z</time>
      </trkpt>
      <trkpt lat="44.091020" lon="-0.998300">
        <time>2017-06-24T08:33:40Z</time>
      </trkpt>
      <trkpt lat="44.091300" lon="-0.998180">
        <time>2017-06-24T08:33:41Z</time>
      </trkpt>
      <trkpt lat="44.091600" lon="-0.998060">
        <time>2017-06-24T08:33:42Z</time>
      </trkpt>
      <trkpt lat="44.091910" lon="-0.997920">
        <time>2017-06-24T08:33:43Z</time>
      </trkpt>
      <trkpt lat="44.092190" lon="-0.997800">
        <time>2017-06-24T08:33:44Z</time>
      </trkpt>
      <trkpt lat="44.092500" lon="-0.997670">
        <time>2017-06-24T08:33:45Z</time>
      </trkpt>
      <trkpt lat="44.092820" lon="-0.997530">
        <time>2017-06-24T08:33:46Z</time>
      </trkpt>
      <trkpt lat="44.093100" lon="-0.997400">
        <time>2017-06-24T08:33:47Z</time>
      </trkpt>
      <trkpt lat="44.093420" lon="-0.997260">
        <time>2017-06-24T08:33:48Z</time>
      </trkpt>
      <trkpt lat="44.093700" lon="-0.997140">
        <time>2017-06-24T08:33:49Z</time>
      </trkpt>
      <trkpt lat="44.094000" lon="-0.997010">
        <time>2017-06-24T08:33:50Z</time>
      </trkpt>
      <trkpt lat="44.094320" lon="-0.996880">
        <time>2017-06-24T08:33:51Z</time>
      </trkpt>
      <trkpt lat="44.094600" lon="-0.996760">
        <time>2017-06-24T08:33:52Z</time>
      </trkpt>
      <trkpt lat="44.094900" lon="-0.996630">
        <time>2017-06-24T08:33:53Z</time>
      </trkpt>
      <trkpt lat="44.095200" lon="-0.996500">
        <time>2017-06-24T08:33:54Z</time>
      </trkpt>
      <trkpt lat="44.095500" lon="-0.996370">
        <time>2017-06-24T08:33:55Z</time>
      </trkpt>
      <trkpt lat="44.095810" lon="-0.996230">
        <time>2017-06-24T08:33:56Z</time>
      </trkpt>
      <trkpt lat="44.096100" lon="-0.996110">
        <time>2017-06-24T08:33:57Z</time>
      </trkpt>
      <trkpt lat="44.096390" lon="-0.995980">
        <time>2017-06-24T08:33:58Z</time>
      </trkpt>
      <trkpt lat="44.096710" lon="-0.995840">
        <time>2017-06-24T08:33:59Z</time>
      </trkpt>
      <trkpt lat="44.096980" lon="-0.995720">
        <time>2017-06-24T08:34:00Z</time>
      </trkpt>
      <trkpt lat="44.097280" lon="-0.995590">
        <time>2017-06-24T08:34:01Z</time>
      </trkpt>
      <trkpt lat="44.097600" lon="-0.995450">
        <time>2017-06-24T08:34:02Z</time>
      </trkpt>
      <trkpt lat="44.097880" lon="-0.995330">
        <time>2017-06-24T08:34:03Z</time>
      </trkpt>
      <trkpt lat="44.098200" lon="-0.995190">
        <time>2017-06-24T08:34:04Z</time>
      </trkpt>
      <trkpt lat="44.098480" lon="-0.995070">
        <time>2017-06-24T08:34:05Z</time>
      </trkpt>
      <trkpt lat="44.098780" lon="-0.994940">
        <time>2017-06-24T08:34:06Z</time>
      </trkpt>
      <trkpt lat="44.099090" lon="-0.994810">
        <time>2017-06-24T08:34:07Z</time>
      </trkpt>
      <trkpt lat="44.099380" lon="-0.994690">
        <time>2017-06-24T08:34:08Z</time>
      </trkpt>
      <trkpt lat="44.099680" lon="-0.994550">
        <time>2017-06-24T08:34:09Z</time>
      </trkpt>
      <trkpt lat="44.099980" lon="-0.994420">
        <time>2017-06-24T08:34:10Z</time>
      </trkpt>
      <trkpt lat="44.100280" lon="-0.994290">
        <time>2017-06-24T08:34:11Z</time>
      </trkpt>
      <trkpt lat="44.100600" lon="-0.994150">
        <time>2017-06-24T08:34:12Z</time>
      </trkpt>
      <trkpt lat="44.100890" lon="-0.994030">
        <time>2017-06-24T08:34:13Z</time>
      </trkpt>
      <trkpt lat="44.101200" lon="-0.993890">
        <time>2017-06-24T08:34:14Z</time>
      </trkpt>
      <trkpt lat="44.101530" lon="-0.993750">
        <time>2017-06-24T08:34:15Z</time>
      </trkpt>
      <trkpt lat="44.101830" lon="-0.993640">
        <time>2017-06-24T08:34:16Z</time>
      </trkpt>
      <trkpt lat="44.102140" lon="-0.993510">
        <time>2017-06-24T08:34:17Z</time>
      </trkpt>
      <trkpt lat="44.102480" lon="-0.993370">
        <time>2017-06-24T08:34:18Z</time>
      </trkpt>
      <trkpt lat="44.102770" lon="-0.993240">
        <time>2017-06-24T08:34:19Z</time>
      </trkpt>
      <trkpt lat="44.103080" lon="-0.993110">
        <time>2017-06-24T08:34:20Z</time>
      </trkpt>
      <trkpt lat="44.103360" lon="-0.992980">
        <time>2017-06-24T08:34:21Z</time>
      </trkpt>
      <trkpt lat="44.103660" lon="-0.992860">
        <time>2017-06-24T08:34:22Z</time>
      </trkpt>
      <trkpt lat="44.103990" lon="-0.992730">
        <time>2017-06-24T08:34:23Z</time>
      </trkpt>
      <trkpt lat="44.104290" lon="-0.992620">
        <time>2017-06-24T08:34:24Z</time>
      </trkpt>
      <trkpt lat="44.104600" lon="-0.992490">
        <time>2017-06-24T08:34:25Z</time>
      </trkpt>
      <trkpt lat="44.104920" lon="-0.992360">
        <time>2017-06-24T08:34:26Z</time>
      </trkpt>
      <trkpt lat="44.105230" lon="-0.992210">
        <time>2017-06-24T08:34:27Z</time>
      </trkpt>
      <trkpt lat="44.105570" lon="-0.992060">
        <time>2017-06-24T08:34:28Z</time>
      </trkpt>
      <trkpt lat="44.105860" lon="-0.991930">
        <time>2017-06-24T08:34:29Z</time>
      </trkpt>
      <trkpt lat="44.106170" lon="-0.991800">
        <time>2017-06-24T08:34:30Z</time>
      </trkpt>
      <trkpt lat="44.106500" lon="-0.991650">
        <time>2017-06-24T08:34:31Z</time>
      </trkpt>
      <trkpt lat="44.106790" lon="-0.991530">
        <time>2017-06-24T08:34:32Z</time>
      </trkpt>
      <trkpt lat="44.107100" lon="-0.991380">
        <time>2017-06-24T08:34:33Z</time>
      </trkpt>
      <trkpt lat="44.107430" lon="-0.991230">
        <time>2017-06-24T08:34:34Z</time>
      </trkpt>
      <trkpt lat="44.107720" lon="-0.991100">
        <time>2017-06-24T08:34:35Z</time>
      </trkpt>
      <trkpt lat="44.108040" lon="-0.990960">
        <time>2017-06-24T08:34:36Z</time>
      </trkpt>
      <trkpt lat="44.108330" lon="-0.990830">
        <time>2017-06-24T08:34:37Z</time>
      </trkpt>
      <trkpt lat="44.108640" lon="-0.990690">
        <time>2017-06-24T08:34:38Z</time>
      </trkpt>
      <trkpt lat="44.108960" lon="-0.990550">
        <time>2017-06-24T08:34:39Z</time>
      </trkpt>
      <trkpt lat="44.109240" lon="-0.990420">
        <time>2017-06-24T08:34:40Z</time>
      </trkpt>
      <trkpt lat="44.109540" lon="-0.990290">
        <time>2017-06-24T08:34:41Z</time>
      </trkpt>
      <trkpt lat="44.109840" lon="-0.990160">
        <time>2017-06-24T08:34:42Z</time>
      </trkpt>
      <trkpt lat="44.110130" lon="-0.990030">
        <time>2017-06-24T08:34:43Z</time>
      </trkpt>
      <trkpt lat="44.110450" lon="-0.989890">
        <time>2017-06-24T08:34:44Z</time>
      </trkpt>
      <trkpt lat="44.110720" lon="-0.989770">
        <time>2017-06-24T08:34:45Z</time>
      </trkpt>
      <trkpt lat="44.111010" lon="-0.989640">
        <time>2017-06-24T08:34:46Z</time>
      </trkpt>
      <trkpt lat="44.111330" lon="-0.989500">
        <time>2017-06-24T08:34:47Z</time>
      </trkpt>
      <trkpt lat="44.111610" lon="-0.989380">
        <time>2017-06-24T08:34:48Z</time>
      </trkpt>
      <trkpt lat="44.111910" lon="-0.989250">
        <time>2017-06-24T08:34:49Z</time>
      </trkpt>
      <trkpt lat="44.112230" lon="-0.989120">
        <time>2017-06-24T08:34:50Z</time>
      </trkpt>
      <trkpt lat="44.112500" lon="-0.989000">
        <time>2017-06-24T08:34:51Z</time>
      </trkpt>
      <trkpt lat="44.112810" lon="-0.988860">
        <time>2017-06-24T08:34:52Z</time>
      </trkpt>
      <trkpt lat="44.113070" lon="-0.988740">
        <time>2017-06-24T08:34:53Z</time>
      </trkpt>
      <trkpt lat="44.113360" lon="-0.988610">
        <time>2017-06-24T08:34:54Z</time>
      </trkpt>
      <trkpt lat="44.113670" lon="-0.988470">
        <time>2017-06-24T08:34:55Z</time>
      </trkpt>
      <trkpt lat="44.113930" lon="-0.988350">
        <time>2017-06-24T08:34:56Z</time>
      </trkpt>
      <trkpt lat="44.114220" lon="-0.988230">
        <time>2017-06-24T08:34:57Z</time>
      </trkpt>
      <trkpt lat="44.114510" lon="-0.988110">
        <time>2017-06-24T08:34:58Z</time>
      </trkpt>
      <trkpt lat="44.114790" lon="-0.987990">
        <time>2017-06-24T08:34:59Z</time>
      </trkpt>
      <trkpt lat="44.115090" lon="-0.987860">
        <time>2017-06-24T08:35:00Z</time>
      </trkpt>
      <trkpt lat="44.115350" lon="-0.987740">
        <time>2017-06-24T08:35:01Z</time>
      </trkpt>
      <trkpt lat="44.115630" lon="-0.987620">
        <time>2017-06-24T08:35:02Z</time>
      </trkpt>
      <trkpt lat="44.115930" lon="-0.987490">
        <time>2017-06-24T08:35:03Z</time>
      </trkpt>
      <trkpt lat="44.116190" lon="-0.987380">
        <time>2017-06-24T08:35:04Z</time>
      </trkpt>
      <trkpt lat="44.116470" lon="-0.987260">
        <time>2017-06-24T08:35:05Z</time>
      </trkpt>
      <trkpt lat="44.116770" lon="-0.987130">
        <time>2017-06-24T08:35:06Z</time>
      </trkpt>
      <trkpt lat="44.117030" lon="-0.987010">
        <time>2017-06-24T08:35:07Z</time>
      </trkpt>
      <trkpt lat="44.117320" lon="-0.986890">
        <time>2017-06-24T08:35:08Z</time>
      </trkpt>
      <trkpt lat="44.117580" lon="-0.986770">
        <time>2017-06-24T08:35:09Z</time>
      </trkpt>
      <trkpt lat="44.117860" lon="-0.986650">
        <time>2017-06-24T08:35:10Z</time>
      </trkpt>
      <trkpt lat="44.118160" lon="-0.986510">
        <time>2017-06-24T08:35:11Z</time>
      </trkpt>
      <trkpt lat="44.118430" lon="-0.986400">
        <time>2017-06-24T08:35:12Z</time>
      </trkpt>
      <trkpt lat="44.118710" lon="-0.986280">
        <time>2017-06-24T08:35:13Z</time>
      </trkpt>
      <trkpt lat="44.118990" lon="-0.986150">
        <time>2017-06-24T08:35:14Z</time>
      </trkpt>
      <trkpt lat="44.119270" lon="-0.986040">
        <time>2017-06-24T08:35:15Z</time>
      </trkpt>
      <trkpt lat="44.119580" lon="-0.985900">
        <time>2017-06-24T08:35:16Z</time>
      </trkpt>
      <trkpt lat="44.119840" lon="-0.985790">
        <time>2017-06-24T08:35:17Z</time>
      </trkpt>
      <trkpt lat="44.120130" lon="-0.985660">
        <time>2017-06-24T08:35:18Z</time>
      </trkpt>
      <trkpt lat="44.120430" lon="-0.985520">
        <time>2017-06-24T08:35:19Z</time>
      </trkpt>
      <trkpt lat="44.120700" lon="-0.985410">
        <time>2017-06-24T08:35:20Z</time>
      </trkpt>
      <trkpt lat="44.120990" lon="-0.985280">
        <time>2017-06-24T08:35:21Z</time>
      </trkpt>
      <trkpt lat="44.121300" lon="-0.985140">
        <time>2017-06-24T08:35:22Z</time>
      </trkpt>
      <trkpt lat="44.121570" lon="-0.985030">
        <time>2017-06-24T08:35:23Z</time>
      </trkpt>
      <trkpt lat="44.121870" lon="-0.984890">
        <time>2017-06-24T08:35:24Z</time>
      </trkpt>
      <trkpt lat="44.122150" lon="-0.984770">
        <time>2017-06-24T08:35:25Z</time>
      </trkpt>
      <trkpt lat="44.122440" lon="-0.984640">
        <time>2017-06-24T08:35:26Z</time>
      </trkpt>
      <trkpt lat="44.122760" lon="-0.984510">
        <time>2017-06-24T08:35:27Z</time>
      </trkpt>
      <trkpt lat="44.123050" lon="-0.984380">
        <time>2017-06-24T08:35:28Z</time>
      </trkpt>
      <trkpt lat="44.123350" lon="-0.984250">
        <time>2017-06-24T08:35:29Z</time>
      </trkpt>
      <trkpt lat="44.123660" lon="-0.984120">
        <time>2017-06-24T08:35:30Z</time>
      </trkpt>
      <trkpt lat="44.123970" lon="-0.983990">
        <time>2017-06-24T08:35:31Z</time>
      </trkpt>
      <trkpt lat="44.124300" lon="-0.983840">
        <time>2017-06-24T08:35:32Z</time>
      </trkpt>
      <trkpt lat="44.124580" lon="-0.983720">
        <time>2017-06-24T08:35:33Z</time>
      </trkpt>
      <trkpt lat="44.124890" lon="-0.983580">
        <time>2017-06-24T08:35:34Z</time>
      </trkpt>
      <trkpt lat="44.125220" lon="-0.983440">
        <time>2017-06-24T08:35:35Z</time>
      </trkpt>
      <trkpt lat="44.125520" lon="-0.983310">
        <time>2017-06-24T08:35:36Z</time>
      </trkpt>
      <trkpt lat="44.125830" lon="-0.983170">
        <time>2017-06-24T08:35:37Z</time>
      </trkpt>
      <trkpt lat="44.126160" lon="-0.983020">
        <time>2017-06-24T08:35:38Z</time>
      </trkpt>
      <trkpt lat="44.126450" lon="-0.982900">
        <time>2017-06-24T08:35:39Z</time>
      </trkpt>
      <trkpt lat="44.126780" lon="-0.982750">
        <time>2017-06-24T08:35:40Z</time>
      </trkpt>
      <trkpt lat="44.127070" lon="-0.982630">
        <time>2017-06-24T08:35:41Z</time>
      </trkpt>
      <trkpt lat="44.127370" lon="-0.982500">
        <time>2017-06-24T08:35:42Z</time>
      </trkpt>
      <trkpt lat="44.127690" lon="-0.982360">
        <time>2017-06-24T08:35:43Z</time>
      </trkpt>
      <trkpt lat="44.127970" lon="-0.982250">
        <time>2017-06-24T08:35:44Z</time>
      </trkpt>
      <trkpt lat="44.128260" lon="-0.982120">
        <time>2017-06-24T08:35:45Z</time>
      </trkpt>
      <trkpt lat="44.128550" lon="-0.981990">
        <time>2017-06-24T08:35:46Z</time>
      </trkpt>
      <trkpt lat="44.128840" lon="-0.981860">
        <time>2017-06-24T08:35:47Z</time>
      </trkpt>
      <trkpt lat="44.129150" lon="-0.981730">
        <time>2017-06-24T08:35:48Z</time>
      </trkpt>
      <trkpt lat="44.129420" lon="-0.981600">
        <time>2017-06-24T08:35:49Z</time>
      </trkpt>
      <trkpt lat="44.129710" lon="-0.981470">
        <time>2017-06-24T08:35:50Z</time>
      </trkpt>
      <trkpt lat="44.130020" lon="-0.981340">
        <time>2017-06-24T08:35:51Z</time>
      </trkpt>
      <trkpt lat="44.130290" lon="-0.981230">
        <time>2017-06-24T08:35:52Z</time>
      </trkpt>
      <trkpt lat="44.130570" lon="-0.981110">
        <time>2017-06-24T08:35:53Z</time>
      </trkpt>
      <trkpt lat="44.130870" lon="-0.980970">
        <time>2017-06-24T08:35:54Z</time>
      </trkpt>
      <trkpt lat="44.131140" lon="-0.980860">
        <time>2017-06-24T08:35:55Z</time>
      </trkpt>
      <trkpt lat="44.131430" lon="-0.980740">
        <time>2017-06-24T08:35:56Z</time>
      </trkpt>
      <trkpt lat="44.131700" lon="-0.980620">
        <time>2017-06-24T08:35:57Z</time>
      </trkpt>
      <trkpt lat="44.131980" lon="-0.980490">
        <time>2017-06-24T08:35:58Z</time>
      </trkpt>
      <trkpt lat="44.132280" lon="-0.980340">
        <time>2017-06-24T08:35:59Z</time>
      </trkpt>
      <trkpt lat="44.132550" lon="-0.980200">
        <time>2017-06-24T08:36:00Z</time>
      </trkpt>
      <trkpt lat="44.132830" lon="-0.980050">
        <time>2017-06-24T08:36:01Z</time>
      </trkpt>
      <trkpt lat="44.133110" lon="-0.979890">
        <time>2017-06-24T08:36:02Z</time>
      </trkpt>
      <trkpt lat="44.133390" lon="-0.979730">
        <time>2017-06-24T08:36:03Z</time>
      </trkpt>
      <trkpt lat="44.133690" lon="-0.979540">
        <time>2017-06-24T08:36:04Z</time>
      </trkpt>
      <trkpt lat="44.133940" lon="-0.979350">
        <time>2017-06-24T08:36:05Z</time>
      </trkpt>
      <trkpt lat="44.134220" lon="-0.979150">
        <time>2017-06-24T08:36:06Z</time>
      </trkpt>
      <trkpt lat="44.134510" lon="-0.978930">
        <time>2017-06-24T08:36:07Z</time>
      </trkpt>
      <trkpt lat="44.134770" lon="-0.978720">
        <time>2017-06-24T08:36:08Z</time>
      </trkpt>
      <trkpt lat="44.135040" lon="-0.978500">
        <time>2017-06-24T08:36:09Z</time>
      </trkpt>
      <trkpt lat="44.135320" lon="-0.978260">
        <time>2017-06-24T08:36:10Z</time>
      </trkpt>
      <trkpt lat="44.135560" lon="-0.978030">
        <time>2017-06-24T08:36:11Z</time>
      </trkpt>
      <trkpt lat="44.135840" lon="-0.977770">
        <time>2017-06-24T08:36:12Z</time>
      </trkpt>
      <trkpt lat="44.136070" lon="-0.977530">
        <time>2017-06-24T08:36:13Z</time>
      </trkpt>
      <trkpt lat="44.136320" lon="-0.977270">
        <time>2017-06-24T08:36:14Z</time>
      </trkpt>
      <trkpt lat="44.136590" lon="-0.976980">
        <time>2017-06-24T08:36:15Z</time>
      </trkpt>
      <trkpt lat="44.136820" lon="-0.976720">
        <time>2017-06-24T08:36:16Z</time>
      </trkpt>
      <trkpt lat="44.137060" lon="-0.976450">
        <time>2017-06-24T08:36:17Z</time>
      </trkpt>
      <trkpt lat="44.137300" lon="-0.976170">
        <time>2017-06-24T08:36:18Z</time>
      </trkpt>
      <trkpt lat="44.137540" lon="-0.975880">
        <time>2017-06-24T08:36:19Z</time>
      </trkpt>
      <trkpt lat="44.137790" lon="-0.975590">
        <time>2017-06-24T08:36:20Z</time>
      </trkpt>
      <trkpt lat="44.138020" lon="-0.975330">
        <time>2017-06-24T08:36:21Z</time>
      </trkpt>
      <trkpt lat="44.138260" lon="-0.975060">
        <time>2017-06-24T08:36:22Z</time>
      </trkpt>
      <trkpt lat="44.138530" lon="-0.974760">
        <time>2017-06-24T08:36:23Z</time>
      </trkpt>
      <trkpt lat="44.138760" lon="-0.974490">
        <time>2017-06-24T08:36:24Z</time>
      </trkpt>
      <trkpt lat="44.139010" lon="-0.974200">
        <time>2017-06-24T08:36:25Z</time>
      </trkpt>
      <trkpt lat="44.139280" lon="-0.973890">
        <time>2017-06-24T08:36:26Z</time>
      </trkpt>
      <trkpt lat="44.139520" lon="-0.973610">
        <time>2017-06-24T08:36:27Z</time>
      </trkpt>
      <trkpt lat="44.139790" lon="-0.973300">
        <time>2017-06-24T08:36:28Z</time>
      </trkpt>
      <trkpt lat="44.140020" lon="-0.973040">
        <time>2017-06-24T08:36:29Z</time>
      </trkpt>
      <trkpt lat="44.140270" lon="-0.972770">
        <time>2017-06-24T08:36:30Z</time>
      </trkpt>
      <trkpt lat="44.140550" lon="-0.972480">
        <time>2017-06-24T08:36:31Z</time>
      </trkpt>
      <trkpt lat="44.140800" lon="-0.972230">
        <time>2017-06-24T08:36:32Z</time>
      </trkpt>
      <trkpt lat="44.141070" lon="-0.971980">
        <time>2017-06-24T08:36:33Z</time>
      </trkpt>
      <trkpt lat="44.141340" lon="-0.971740">
        <time>2017-06-24T08:36:34Z</time>
      </trkpt>
      <trkpt lat="44.141620" lon="-0.971520">
        <time>2017-06-24T08:36:35Z</time>
      </trkpt>
      <trkpt lat="44.141910" lon="-0.971290">
        <time>2017-06-24T08:36:36Z</time>
      </trkpt>
      <trkpt lat="44.142180" lon="-0.971090">
        <time>2017-06-24T08:36:37Z</time>
      </trkpt>
      <trkpt lat="44.142470" lon="-0.970890">
        <time>2017-06-24T08:36:38Z</time>
      </trkpt>
      <trkpt lat="44.142780" lon="-0.970690">
        <time>2017-06-24T08:36:39Z</time>
      </trkpt>
      <trkpt lat="44.143060" lon="-0.970520">
        <time>2017-06-24T08:36:40Z</time>
      </trkpt>
      <trkpt lat="44.143360" lon="-0.970330">
        <time>2017-06-24T08:36:41Z</time>
      </trkpt>
      <trkpt lat="44.143680" lon="-0.970130">
        <time>2017-06-24T08:36:42Z</time>
      </trkpt>
      <trkpt lat="44.143960" lon="-0.969950">
        <time>2017-06-24T08:36:43Z</time>
      </trkpt>
      <trkpt lat="44.144280" lon="-0.969740">
        <time>2017-06-24T08:36:44Z</time>
      </trkpt>
      <trkpt lat="44.144560" lon="-0.969560">
        <time>2017-06-24T08:36:45Z</time>
      </trkpt>
      <trkpt lat="44.144850" lon="-0.969350">
        <time>2017-06-24T08:36:46Z</time>
      </trkpt>
      <trkpt lat="44.145160" lon="-0.969120">
        <time>2017-06-24T08:36:47Z</time>
      </trkpt>
      <trkpt lat="44.145420" lon="-0.968910">
        <time>2017-06-24T08:36:48Z</time>
      </trkpt>
      <trkpt lat="44.145700" lon="-0.968680">
        <time>2017-06-24T08:36:49Z</time>
      </trkpt>
      <trkpt lat="44.145970" lon="-0.968430">
        <time>2017-06-24T08:36:50Z</time>
      </trkpt>
      <trkpt lat="44.146240" lon="-0.968170">
        <time>2017-06-24T08:36:51Z</time>
      </trkpt>
      <trkpt lat="44.146520" lon="-0.967880">
        <time>2017-06-24T08:36:52Z</time>
      </trkpt>
      <trkpt lat="44.146750" lon="-0.967620">
        <time>2017-06-24T08:36:53Z</time>
      </trkpt>
      <trkpt lat="44.147000" lon="-0.967320">
        <time>2017-06-24T08:36:54Z</time>
      </trkpt>
      <trkpt lat="44.147250" lon="-0.966990">
        <time>2017-06-24T08:36:55Z</time>
      </trkpt>
      <trkpt lat="44.147470" lon="-0.966690">
        <time>2017-06-24T08:36:56Z</time>
      </trkpt>
      <trkpt lat="44.147700" lon="-0.966370">
        <time>2017-06-24T08:36:57Z</time>
      </trkpt>
      <trkpt lat="44.147930" lon="-0.966010">
        <time>2017-06-24T08:36:58Z</time>
      </trkpt>
      <trkpt lat="44.148130" lon="-0.965700">
        <time>2017-06-24T08:36:59Z</time>
      </trkpt>
      <trkpt lat="44.148350" lon="-0.965320">
        <time>2017-06-24T08:37:00Z</time>
      </trkpt>
      <trkpt lat="44.148540" lon="-0.964990">
        <time>2017-06-24T08:37:01Z</time>
      </trkpt>
      <trkpt lat="44.148740" lon="-0.964640">
        <time>2017-06-24T08:37:02Z</time>
      </trkpt>
      <trkpt lat="44.148940" lon="-0.964260">
        <time>2017-06-24T08:37:03Z</time>
      </trkpt>
      <trkpt lat="44.149130" lon="-0.963940">
        <time>2017-06-24T08:37:04Z</time>
      </trkpt>
      <trkpt lat="44.149330" lon="-0.963600">
        <time>2017-06-24T08:37:05Z</time>
      </trkpt>
      <trkpt lat="44.149530" lon="-0.963270">
        <time>2017-06-24T08:37:06Z</time>
      </trkpt>
      <trkpt lat="44.149740" lon="-0.962940">
        <time>2017-06-24T08:37:07Z</time>
      </trkpt>
      <trkpt lat="44.149980" lon="-0.962600">
        <time>2017-06-24T08:37:08Z</time>
      </trkpt>
      <trkpt lat="44.150190" lon="-0.962310">
        <time>2017-06-24T08:37:09Z</time>
      </trkpt>
      <trkpt lat="44.150430" lon="-0.962010">
        <time>2017-06-24T08:37:10Z</time>
      </trkpt>
      <trkpt lat="44.150680" lon="-0.961700">
        <time>2017-06-24T08:37:11Z</time>
      </trkpt>
      <trkpt lat="44.150910" lon="-0.961440">
        <time>2017-06-24T08:37:12Z</time>
      </trkpt>
      <trkpt lat="44.151170" lon="-0.961170">
        <time>2017-06-24T08:37:13Z</time>
      </trkpt>
      <trkpt lat="44.151440" lon="-0.960900">
        <time>2017-06-24T08:37:14Z</time>
      </trkpt>
      <trkpt lat="44.151690" lon="-0.960660">
        <time>2017-06-24T08:37:15Z</time>
      </trkpt>
      <trkpt lat="44.151980" lon="-0.960410">
        <time>2017-06-24T08:37:16Z</time>
      </trkpt>
      <trkpt lat="44.152240" lon="-0.960190">
        <time>2017-06-24T08:37:17Z</time>
      </trkpt>
      <trkpt lat="44.152520" lon="-0.959970">
        <time>2017-06-24T08:37:18Z</time>
      </trkpt>
      <trkpt lat="44.152830" lon="-0.959740">
        <time>2017-06-24T08:37:19Z</time>
      </trkpt>
      <trkpt lat="44.153100" lon="-0.959560">
        <time>2017-06-24T08:37:20Z</time>
      </trkpt>
      <trkpt lat="44.153400" lon="-0.959370">
        <time>2017-06-24T08:37:21Z</time>
      </trkpt>
      <trkpt lat="44.153700" lon="-0.959190">
        <time>2017-06-24T08:37:22Z</time>
      </trkpt>
      <trkpt lat="44.154000" lon="-0.959010">
        <time>2017-06-24T08:37:23Z</time>
      </trkpt>
      <trkpt lat="44.154310" lon="-0.958820">
        <time>2017-06-24T08:37:24Z</time>
      </trkpt>
      <trkpt lat="44.154580" lon="-0.958660">
        <time>2017-06-24T08:37:25Z</time>
      </trkpt>
      <trkpt lat="44.154880" lon="-0.958490">
        <time>2017-06-24T08:37:26Z</time>
      </trkpt>
      <trkpt lat="44.155190" lon="-0.958310">
        <time>2017-06-24T08:37:27Z</time>
      </trkpt>
      <trkpt lat="44.155470" lon="-0.958150">
        <time>2017-06-24T08:37:28Z</time>
      </trkpt>
      <trkpt lat="44.155780" lon="-0.957980">
        <time>2017-06-24T08:37:29Z</time>
      </trkpt>
      <trkpt lat="44.156090" lon="-0.957800">
        <time>2017-06-24T08:37:30Z</time>
      </trkpt>
      <trkpt lat="44.156380" lon="-0.957640">
        <time>2017-06-24T08:37:31Z</time>
      </trkpt>
      <trkpt lat="44.156700" lon="-0.957460">
        <time>2017-06-24T08:37:32Z</time>
      </trkpt>
      <trkpt lat="44.156970" lon="-0.957290">
        <time>2017-06-24T08:37:33Z</time>
      </trkpt>
      <trkpt lat="44.157270" lon="-0.957120">
        <time>2017-06-24T08:37:34Z</time>
      </trkpt>
      <trkpt lat="44.157590" lon="-0.956930">
        <time>2017-06-24T08:37:35Z</time>
      </trkpt>
      <trkpt lat="44.157870" lon="-0.956760">
        <time>2017-06-24T08:37:36Z</time>
      </trkpt>
      <trkpt lat="44.158170" lon="-0.956580">
        <time>2017-06-24T08:37:37Z</time>
      </trkpt>
      <trkpt lat="44.158460" lon="-0.956400">
        <time>2017-06-24T08:37:38Z</time>
      </trkpt>
      <trkpt lat="44.158760" lon="-0.956230">
        <time>2017-06-24T08:37:39Z</time>
      </trkpt>
      <trkpt lat="44.159080" lon="-0.956040">
        <time>2017-06-24T08:37:40Z</time>
      </trkpt>
      <trkpt lat="44.159360" lon="-0.955880">
        <time>2017-06-24T08:37:41Z</time>
      </trkpt>
      <trkpt lat="44.159660" lon="-0.955700">
        <time>2017-06-24T08:37:42Z</time>
      </trkpt>
      <trkpt lat="44.159980" lon="-0.955500">
        <time>2017-06-24T08:37:43Z</time>
      </trkpt>
      <trkpt lat="44.160250" lon="-0.955340">
        <time>2017-06-24T08:37:44Z</time>
      </trkpt>
      <trkpt lat="44.160550" lon="-0.955170">
        <time>2017-06-24T08:37:45Z</time>
      </trkpt>
      <trkpt lat="44.160870" lon="-0.954980">
        <time>2017-06-24T08:37:46Z</time>
      </trkpt>
      <trkpt lat="44.161150" lon="-0.954820">
        <time>2017-06-24T08:37:47Z</time>
      </trkpt>
      <trkpt lat="44.161470" lon="-0.954630">
        <time>2017-06-24T08:37:48Z</time>
      </trkpt>
      <trkpt lat="44.161750" lon="-0.954460">
        <time>2017-06-24T08:37:49Z</time>
      </trkpt>
      <trkpt lat="44.162050" lon="-0.954280">
        <time>2017-06-24T08:37:50Z</time>
      </trkpt>
      <trkpt lat="44.162370" lon="-0.954100">
        <time>2017-06-24T08:37:51Z</time>
      </trkpt>
      <trkpt lat="44.162650" lon="-0.953930">
        <time>2017-06-24T08:37:52Z</time>
      </trkpt>
      <trkpt lat="44.162950" lon="-0.953750">
        <time>2017-06-24T08:37:53Z</time>
      </trkpt>
      <trkpt lat="44.163250" lon="-0.953570">
        <time>2017-06-24T08:37:54Z</time>
      </trkpt>
      <trkpt lat="44.163560" lon="-0.953390">
        <time>2017-06-24T08:37:55Z</time>
      </trkpt>
      <trkpt lat="44.163870" lon="-0.953200">
        <time>2017-06-24T08:37:56Z</time>
      </trkpt>
      <trkpt lat="44.164160" lon="-0.953040">
        <time>2017-06-24T08:37:57Z</time>
      </trkpt>
      <trkpt lat="44.164450" lon="-0.952860">
        <time>2017-06-24T08:37:58Z</time>
      </trkpt>
      <trkpt lat="44.164770" lon="-0.952670">
        <time>2017-06-24T08:37:59Z</time>
      </trkpt>
      <trkpt lat="44.165040" lon="-0.952510">
        <time>2017-06-24T08:38:00Z</time>
      </trkpt>
      <trkpt lat="44.165340" lon="-0.952330">
        <time>2017-06-24T08:38:01Z</time>
      </trkpt>
      <trkpt lat="44.165650" lon="-0.952140">
        <time>2017-06-24T08:38:02Z</time>
      </trkpt>
      <trkpt lat="44.165930" lon="-0.951970">
        <time>2017-06-24T08:38:03Z</time>
      </trkpt>
      <trkpt lat="44.166250" lon="-0.951780">
        <time>2017-06-24T08:38:04Z</time>
      </trkpt>
      <trkpt lat="44.166530" lon="-0.951620">
        <time>2017-06-24T08:38:05Z</time>
      </trkpt>
      <trkpt lat="44.166820" lon="-0.951440">
        <time>2017-06-24T08:38:06Z</time>
      </trkpt>
      <trkpt lat="44.167140" lon="-0.951260">
        <time>2017-06-24T08:38:07Z</time>
      </trkpt>
      <trkpt lat="44.167420" lon="-0.951100">
        <time>2017-06-24T08:38:08Z</time>
      </trkpt>
      <trkpt lat="44.167720" lon="-0.950920">
        <time>2017-06-24T08:38:09Z</time>
      </trkpt>
      <trkpt lat="44.168010" lon="-0.950750">
        <time>2017-06-24T08:38:10Z</time>
      </trkpt>
      <trkpt lat="44.168300" lon="-0.950580">
        <time>2017-06-24T08:38:11Z</time>
      </trkpt>
      <trkpt lat="44.168610" lon="-0.950390">
        <time>2017-06-24T08:38:12Z</time>
      </trkpt>
      <trkpt lat="44.168890" lon="-0.950230">
        <time>2017-06-24T08:38:13Z</time>
      </trkpt>
      <trkpt lat="44.169180" lon="-0.950060">
        <time>2017-06-24T08:38:14Z</time>
      </trkpt>
      <trkpt lat="44.169490" lon="-0.949870">
        <time>2017-06-24T08:38:15Z</time>
      </trkpt>
      <trkpt lat="44.169760" lon="-0.949700">
        <time>2017-06-24T08:38:16Z</time>
      </trkpt>
      <trkpt lat="44.170050" lon="-0.949530">
        <time>2017-06-24T08:38:17Z</time>
      </trkpt>
      <trkpt lat="44.170370" lon="-0.949340">
        <time>2017-06-24T08:38:18Z</time>
      </trkpt>
      <trkpt lat="44.170640" lon="-0.949180">
        <time>2017-06-24T08:38:19Z</time>
      </trkpt>
      <trkpt lat="44.170960" lon="-0.949000">
        <time>2017-06-24T08:38:20Z</time>
      </trkpt>
      <trkpt lat="44.171230" lon="-0.948830">
        <time>2017-06-24T08:38:21Z</time>
      </trkpt>
      <trkpt lat="44.171530" lon="-0.948660">
        <time>2017-06-24T08:38:22Z</time>
      </trkpt>
      <trkpt lat="44.171830" lon="-0.948480">
        <time>2017-06-24T08:38:23Z</time>
      </trkpt>
      <trkpt lat="44.172110" lon="-0.948310">
        <time>2017-06-24T08:38:24Z</time>
      </trkpt>
      <trkpt lat="44.172400" lon="-0.948140">
        <time>2017-06-24T08:38:25Z</time>
      </trkpt>
      <trkpt lat="44.172700" lon="-0.947960">
        <time>2017-06-24T08:38:26Z</time>
      </trkpt>
      <trkpt lat="44.172990" lon="-0.947780">
        <time>2017-06-24T08:38:27Z</time>
      </trkpt>
      <trkpt lat="44.173300" lon="-0.947600">
        <time>2017-06-24T08:38:28Z</time>
      </trkpt>
      <trkpt lat="44.173580" lon="-0.947430">
        <time>2017-06-24T08:38:29Z</time>
      </trkpt>
      <trkpt lat="44.173880" lon="-0.947250">
        <time>2017-06-24T08:38:30Z</time>
      </trkpt>
      <trkpt lat="44.174190" lon="-0.947060">
        <time>2017-06-24T08:38:31Z</time>
      </trkpt>
      <trkpt lat="44.174460" lon="-0.946900">
        <time>2017-06-24T08:38:32Z</time>
      </trkpt>
      <trkpt lat="44.174760" lon="-0.946720">
        <time>2017-06-24T08:38:33Z</time>
      </trkpt>
      <trkpt lat="44.175070" lon="-0.946540">
        <time>2017-06-24T08:38:34Z</time>
      </trkpt>
      <trkpt lat="44.175350" lon="-0.946370">
        <time>2017-06-24T08:38:35Z</time>
      </trkpt>
      <trkpt lat="44.175660" lon="-0.946180">
        <time>2017-06-24T08:38:36Z</time>
      </trkpt>
      <trkpt lat="44.175940" lon="-0.946010">
        <time>2017-06-24T08:38:37Z</time>
      </trkpt>
      <trkpt lat="44.176240" lon="-0.945820">
        <time>2017-06-24T08:38:38Z</time>
      </trkpt>
      <trkpt lat="44.176560" lon="-0.945630">
        <time>2017-06-24T08:38:39Z</time>
      </trkpt>
      <trkpt lat="44.176840" lon="-0.945470">
        <time>2017-06-24T08:38:40Z</time>
      </trkpt>
      <trkpt lat="44.177140" lon="-0.945290">
        <time>2017-06-24T08:38:41Z</time>
      </trkpt>
      <trkpt lat="44.177440" lon="-0.945110">
        <time>2017-06-24T08:38:42Z</time>
      </trkpt>
      <trkpt lat="44.177740" lon="-0.944930">
        <time>2017-06-24T08:38:43Z</time>
      </trkpt>
      <trkpt lat="44.178060" lon="-0.944740">
        <time>2017-06-24T08:38:44Z</time>
      </trkpt>
      <trkpt lat="44.178340" lon="-0.944580">
        <time>2017-06-24T08:38:45Z</time>
      </trkpt>
      <trkpt lat="44.178640" lon="-0.944410">
        <time>2017-06-24T08:38:46Z</time>
      </trkpt>
      <trkpt lat="44.178950" lon="-0.944220">
        <time>2017-06-24T08:38:47Z</time>
      </trkpt>
      <trkpt lat="44.179230" lon="-0.944060">
        <time>2017-06-24T08:38:48Z</time>
      </trkpt>
      <trkpt lat="44.179520" lon="-0.943880">
        <time>2017-06-24T08:38:49Z</time>
      </trkpt>
      <trkpt lat="44.179830" lon="-0.943700">
        <time>2017-06-24T08:38:50Z</time>
      </trkpt>
      <trkpt lat="44.180110" lon="-0.943530">
        <time>2017-06-24T08:38:51Z</time>
      </trkpt>
      <trkpt lat="44.180420" lon="-0.943340">
        <time>2017-06-24T08:38:52Z</time>
      </trkpt>
      <trkpt lat="44.180700" lon="-0.943170">
        <time>2017-06-24T08:38:53Z</time>
      </trkpt>
      <trkpt lat="44.181000" lon="-0.943000">
        <time>2017-06-24T08:38:54Z</time>
      </trkpt>
      <trkpt lat="44.181320" lon="-0.942810">
        <time>2017-06-24T08:38:55Z</time>
      </trkpt>
      <trkpt lat="44.181600" lon="-0.942650">
        <time>2017-06-24T08:38:56Z</time>
      </trkpt>
      <trkpt lat="44.181910" lon="-0.942470">
        <time>2017-06-24T08:38:57Z</time>
      </trkpt>
      <trkpt lat="44.182210" lon="-0.942290">
        <time>2017-06-24T08:38:58Z</time>
      </trkpt>
      <trkpt lat="44.182510" lon="-0.942120">
        <time>2017-06-24T08:38:59Z</time>
      </trkpt>
      <trkpt lat="44.182830" lon="-0.941920">
        <time>2017-06-24T08:39:00Z</time>
      </trkpt>
      <trkpt lat="44.183110" lon="-0.941750">
        <time>2017-06-24T08:39:01Z</time>
      </trkpt>
      <trkpt lat="44.183410" lon="-0.941570">
        <time>2017-06-24T08:39:02Z</time>
      </trkpt>
      <trkpt lat="44.183730" lon="-0.941380">
        <time>2017-06-24T08:39:03Z</time>
      </trkpt>
      <trkpt lat="44.184010" lon="-0.941220">
        <time>2017-06-24T08:39:04Z</time>
      </trkpt>
      <trkpt lat="44.184300" lon="-0.941040">
        <time>2017-06-24T08:39:05Z</time>
      </trkpt>
      <trkpt lat="44.184620" lon="-0.940840">
        <time>2017-06-24T08:39:06Z</time>
      </trkpt>
      <trkpt lat="44.184900" lon="-0.940660">
        <time>2017-06-24T08:39:07Z</time>
      </trkpt>
      <trkpt lat="44.185210" lon="-0.940460">
        <time>2017-06-24T08:39:08Z</time>
      </trkpt>
      <trkpt lat="44.185490" lon="-0.940280">
        <time>2017-06-24T08:39:09Z</time>
      </trkpt>
      <trkpt lat="44.185790" lon="-0.940100">
        <time>2017-06-24T08:39:10Z</time>
      </trkpt>
      <trkpt lat="44.186110" lon="-0.939910">
        <time>2017-06-24T08:39:11Z</time>
      </trkpt>
      <trkpt lat="44.186380" lon="-0.939740">
        <time>2017-06-24T08:39:12Z</time>
      </trkpt>
      <trkpt lat="44.186680" lon="-0.939560">
        <time>2017-06-24T08:39:13Z</time>
      </trkpt>
      <trkpt lat="44.186970" lon="-0.939390">
        <time>2017-06-24T08:39:14Z</time>
      </trkpt>
      <trkpt lat="44.187270" lon="-0.939200">
        <time>2017-06-24T08:39:15Z</time>
      </trkpt>
      <trkpt lat="44.187580" lon="-0.939020">
        <time>2017-06-24T08:39:16Z</time>
      </trkpt>
      <trkpt lat="44.187860" lon="-0.938860">
        <time>2017-06-24T08:39:17Z</time>
      </trkpt>
      <trkpt lat="44.188150" lon="-0.938680">
        <time>2017-06-24T08:39:18Z</time>
      </trkpt>
      <trkpt lat="44.188460" lon="-0.938500">
        <time>2017-06-24T08:39:19Z</time>
      </trkpt>
      <trkpt lat="44.188740" lon="-0.938340">
        <time>2017-06-24T08:39:20Z</time>
      </trkpt>
      <trkpt lat="44.189030" lon="-0.938170">
        <time>2017-06-24T08:39:21Z</time>
      </trkpt>
      <trkpt lat="44.189350" lon="-0.937990">
        <time>2017-06-24T08:39:22Z</time>
      </trkpt>
      <trkpt lat="44.189620" lon="-0.937820">
        <time>2017-06-24T08:39:23Z</time>
      </trkpt>
      <trkpt lat="44.189930" lon="-0.937640">
        <time>2017-06-24T08:39:24Z</time>
      </trkpt>
      <trkpt lat="44.190210" lon="-0.937470">
        <time>2017-06-24T08:39:25Z</time>
      </trkpt>
      <trkpt lat="44.190500" lon="-0.937300">
        <time>2017-06-24T08:39:26Z</time>
      </trkpt>
      <trkpt lat="44.190810" lon="-0.937120">
        <time>2017-06-24T08:39:27Z</time>
      </trkpt>
      <trkpt lat="44.191080" lon="-0.936960">
        <time>2017-06-24T08:39:28Z</time>
      </trkpt>
      <trkpt lat="44.191360" lon="-0.936780">
        <time>2017-06-24T08:39:29Z</time>
      </trkpt>
      <trkpt lat="44.191650" lon="-0.936610">
        <time>2017-06-24T08:39:30Z</time>
      </trkpt>
      <trkpt lat="44.191930" lon="-0.936440">
        <time>2017-06-24T08:39:31Z</time>
      </trkpt>
      <trkpt lat="44.192230" lon="-0.936250">
        <time>2017-06-24T08:39:32Z</time>
      </trkpt>
      <trkpt lat="44.192490" lon="-0.936090">
        <time>2017-06-24T08:39:33Z</time>
      </trkpt>
      <trkpt lat="44.192780" lon="-0.935930">
        <time>2017-06-24T08:39:34Z</time>
      </trkpt>
      <trkpt lat="44.193080" lon="-0.935740">
        <time>2017-06-24T08:39:35Z</time>
      </trkpt>
      <trkpt lat="44.193340" lon="-0.935580">
        <time>2017-06-24T08:39:36Z</time>
      </trkpt>
      <trkpt lat="44.193630" lon="-0.935420">
        <time>2017-06-24T08:39:37Z</time>
      </trkpt>
      <trkpt lat="44.193930" lon="-0.935250">
        <time>2017-06-24T08:39:38Z</time>
      </trkpt>
      <trkpt lat="44.194190" lon="-0.935090">
        <time>2017-06-24T08:39:39Z</time>
      </trkpt>
      <trkpt lat="44.194490" lon="-0.934920">
        <time>2017-06-24T08:39:40Z</time>
      </trkpt>
      <trkpt lat="44.194750" lon="-0.934760">
        <time>2017-06-24T08:39:41Z</time>
      </trkpt>
      <trkpt lat="44.195020" lon="-0.934600">
        <time>2017-06-24T08:39:42Z</time>
      </trkpt>
      <trkpt lat="44.195320" lon="-0.934430">
        <time>2017-06-24T08:39:43Z</time>
      </trkpt>
      <trkpt lat="44.195580" lon="-0.934280">
        <time>2017-06-24T08:39:44Z</time>
      </trkpt>
      <trkpt lat="44.195860" lon="-0.934120">
        <time>2017-06-24T08:39:45Z</time>
      </trkpt>
      <trkpt lat="44.196150" lon="-0.933960">
        <time>2017-06-24T08:39:46Z</time>
      </trkpt>
      <trkpt lat="44.196440" lon="-0.933800">
        <time>2017-06-24T08:39:47Z</time>
      </trkpt>
      <trkpt lat="44.196740" lon="-0.933630">
        <time>2017-06-24T08:39:48Z</time>
      </trkpt>
      <trkpt lat="44.197000" lon="-0.933480">
        <time>2017-06-24T08:39:49Z</time>
      </trkpt>
      <trkpt lat="44.197280" lon="-0.933320">
        <time>2017-06-24T08:39:50Z</time>
      </trkpt>
      <trkpt lat="44.197580" lon="-0.933150">
        <time>2017-06-24T08:39:51Z</time>
      </trkpt>
      <trkpt lat="44.197850" lon="-0.933000">
        <time>2017-06-24T08:39:52Z</time>
      </trkpt>
      <trkpt lat="44.198150" lon="-0.932830">
        <time>2017-06-24T08:39:53Z</time>
      </trkpt>
      <trkpt lat="44.198450" lon="-0.932650">
        <time>2017-06-24T08:39:54Z</time>
      </trkpt>
      <trkpt lat="44.198730" lon="-0.932490">
        <time>2017-06-24T08:39:55Z</time>
      </trkpt>
      <trkpt lat="44.199030" lon="-0.932310">
        <time>2017-06-24T08:39:56Z</time>
      </trkpt>
      <trkpt lat="44.199300" lon="-0.932140">
        <time>2017-06-24T08:39:57Z</time>
      </trkpt>
      <trkpt lat="44.199590" lon="-0.931970">
        <time>2017-06-24T08:39:58Z</time>
      </trkpt>
      <trkpt lat="44.199900" lon="-0.931780">
        <time>2017-06-24T08:39:59Z</time>
      </trkpt>
      <trkpt lat="44.200180" lon="-0.931610">
        <time>2017-06-24T08:40:00Z</time>
      </trkpt>
      <trkpt lat="44.200460" lon="-0.931420">
        <time>2017-06-24T08:40:01Z</time>
      </trkpt>
      <trkpt lat="44.200750" lon="-0.931230">
        <time>2017-06-24T08:40:02Z</time>
      </trkpt>
      <trkpt lat="44.201040" lon="-0.931050">
        <time>2017-06-24T08:40:03Z</time>
      </trkpt>
      <trkpt lat="44.201350" lon="-0.930860">
        <time>2017-06-24T08:40:04Z</time>
      </trkpt>
      <trkpt lat="44.201630" lon="-0.930700">
        <time>2017-06-24T08:40:05Z</time>
      </trkpt>
      <trkpt lat="44.201920" lon="-0.930530">
        <time>2017-06-24T08:40:06Z</time>
      </trkpt>
      <trkpt lat="44.202230" lon="-0.930350">
        <time>2017-06-24T08:40:07Z</time>
      </trkpt>
      <trkpt lat="44.202500" lon="-0.930190">
        <time>2017-06-24T08:40:08Z</time>
      </trkpt>
      <trkpt lat="44.202790" lon="-0.930020">
        <time>2017-06-24T08:40:09Z</time>
      </trkpt>
      <trkpt lat="44.203090" lon="-0.929830">
        <time>2017-06-24T08:40:10Z</time>
      </trkpt>
      <trkpt lat="44.203360" lon="-0.929670">
        <time>2017-06-24T08:40:11Z</time>
      </trkpt>
      <trkpt lat="44.203670" lon="-0.929490">
        <time>2017-06-24T08:40:12Z</time>
      </trkpt>
      <trkpt lat="44.203940" lon="-0.929330">
        <time>2017-06-24T08:40:13Z</time>
      </trkpt>
      <trkpt lat="44.204230" lon="-0.929150">
        <time>2017-06-24T08:40:14Z</time>
      </trkpt>
      <trkpt lat="44.204540" lon="-0.928960">
        <time>2017-06-24T08:40:15Z</time>
      </trkpt>
      <trkpt lat="44.204820" lon="-0.928800">
        <time>2017-06-24T08:40:16Z</time>
      </trkpt>
      <trkpt lat="44.205110" lon="-0.928630">
        <time>2017-06-24T08:40:17Z</time>
      </trkpt>
      <trkpt lat="44.205410" lon="-0.928440">
        <time>2017-06-24T08:40:18Z</time>
      </trkpt>
      <trkpt lat="44.205710" lon="-0.928270">
        <time>2017-06-24T08:40:19Z</time>
      </trkpt>
      <trkpt lat="44.206030" lon="-0.928080">
        <time>2017-06-24T08:40:20Z</time>
      </trkpt>
      <trkpt lat="44.206310" lon="-0.927920">
        <time>2017-06-24T08:40:21Z</time>
      </trkpt>
      <trkpt lat="44.206610" lon="-0.927760">
        <time>2017-06-24T08:40:22Z</time>
      </trkpt>
      <trkpt lat="44.206930" lon="-0.927600">
        <time>2017-06-24T08:40:23Z</time>
      </trkpt>
      <trkpt lat="44.207220" lon="-0.927480">
        <time>2017-06-24T08:40:24Z</time>
      </trkpt>
      <trkpt lat="44.207530" lon="-0.927350">
        <time>2017-06-24T08:40:25Z</time>
      </trkpt>
      <trkpt lat="44.207850" lon="-0.927230">
        <time>2017-06-24T08:40:26Z</time>
      </trkpt>
      <trkpt lat="44.208130" lon="-0.927130">
        <time>2017-06-24T08:40:27Z</time>
      </trkpt>
      <trkpt lat="44.208440" lon="-0.927040">
        <time>2017-06-24T08:40:28Z</time>
      </trkpt>
      <trkpt lat="44.208720" lon="-0.926970">
        <time>2017-06-24T08:40:29Z</time>
      </trkpt>
      <trkpt lat="44.209020" lon="-0.926890">
        <time>2017-06-24T08:40:30Z</time>
      </trkpt>
      <trkpt lat="44.209330" lon="-0.926830">
        <time>2017-06-24T08:40:31Z</time>
      </trkpt>
      <trkpt lat="44.209600" lon="-0.926780">
        <time>2017-06-24T08:40:32Z</time>
      </trkpt>
      <trkpt lat="44.209890" lon="-0.926730">
        <time>2017-06-24T08:40:33Z</time>
      </trkpt>
      <trkpt lat="44.210180" lon="-0.926680">
        <time>2017-06-24T08:40:34Z</time>
      </trkpt>
      <trkpt lat="44.210470" lon="-0.926630">
        <time>2017-06-24T08:40:35Z</time>
      </trkpt>
      <trkpt lat="44.210780" lon="-0.926580">
        <time>2017-06-24T08:40:36Z</time>
      </trkpt>
      <trkpt lat="44.211040" lon="-0.926530">
        <time>2017-06-24T08:40:37Z</time>
      </trkpt>
      <trkpt lat="44.211330" lon="-0.926490">
        <time>2017-06-24T08:40:38Z</time>
      </trkpt>
      <trkpt lat="44.211640" lon="-0.926430">
        <time>2017-06-24T08:40:39Z</time>
      </trkpt>
      <trkpt lat="44.211920" lon="-0.926380">
        <time>2017-06-24T08:40:40Z</time>
      </trkpt>
      <trkpt lat="44.212210" lon="-0.926320">
        <time>2017-06-24T08:40:41Z</time>
      </trkpt>
      <trkpt lat="44.212530" lon="-0.926270">
        <time>2017-06-24T08:40:42Z</time>
      </trkpt>
      <trkpt lat="44.212800" lon="-0.926210">
        <time>2017-06-24T08:40:43Z</time>
      </trkpt>
      <trkpt lat="44.213110" lon="-0.926150">
        <time>2017-06-24T08:40:44Z</time>
      </trkpt>
      <trkpt lat="44.213380" lon="-0.926100">
        <time>2017-06-24T08:40:45Z</time>
      </trkpt>
      <trkpt lat="44.213670" lon="-0.926050">
        <time>2017-06-24T08:40:46Z</time>
      </trkpt>
      <trkpt lat="44.213980" lon="-0.925990">
        <time>2017-06-24T08:40:47Z</time>
      </trkpt>
      <trkpt lat="44.214250" lon="-0.925930">
        <time>2017-06-24T08:40:48Z</time>
      </trkpt>
      <trkpt lat="44.214530" lon="-0.925870">
        <time>2017-06-24T08:40:49Z</time>
      </trkpt>
      <trkpt lat="44.214800" lon="-0.925810">
        <time>2017-06-24T08:40:50Z</time>
      </trkpt>
      <trkpt lat="44.215080" lon="-0.925750">
        <time>2017-06-24T08:40:51Z</time>
      </trkpt>
      <trkpt lat="44.215370" lon="-0.925670">
        <time>2017-06-24T08:40:52Z</time>
      </trkpt>
      <trkpt lat="44.215630" lon="-0.925600">
        <time>2017-06-24T08:40:53Z</time>
      </trkpt>
      <trkpt lat="44.215910" lon="-0.925540">
        <time>2017-06-24T08:40:54Z</time>
      </trkpt>
      <trkpt lat="44.216210" lon="-0.925460">
        <time>2017-06-24T08:40:55Z</time>
      </trkpt>
      <trkpt lat="44.216470" lon="-0.925400">
        <time>2017-06-24T08:40:56Z</time>
      </trkpt>
      <trkpt lat="44.216750" lon="-0.925310">
        <time>2017-06-24T08:40:57Z</time>
      </trkpt>
      <trkpt lat="44.217040" lon="-0.925200">
        <time>2017-06-24T08:40:58Z</time>
      </trkpt>
      <trkpt lat="44.217310" lon="-0.925110">
        <time>2017-06-24T08:40:59Z</time>
      </trkpt>
      <trkpt lat="44.217600" lon="-0.924990">
        <time>2017-06-24T08:41:00Z</time>
      </trkpt>
      <trkpt lat="44.217870" lon="-0.924880">
        <time>2017-06-24T08:41:01Z</time>
      </trkpt>
      <trkpt lat="44.218150" lon="-0.924740">
        <time>2017-06-24T08:41:02Z</time>
      </trkpt>
      <trkpt lat="44.218450" lon="-0.924590">
        <time>2017-06-24T08:41:03Z</time>
      </trkpt>
      <trkpt lat="44.218720" lon="-0.924450">
        <time>2017-06-24T08:41:04Z</time>
      </trkpt>
      <trkpt lat="44.219010" lon="-0.924280">
        <time>2017-06-24T08:41:05Z</time>
      </trkpt>
      <trkpt lat="44.219300" lon="-0.924120">
        <time>2017-06-24T08:41:06Z</time>
      </trkpt>
      <trkpt lat="44.219570" lon="-0.923930">
        <time>2017-06-24T08:41:07Z</time>
      </trkpt>
      <trkpt lat="44.219870" lon="-0.923730">
        <time>2017-06-24T08:41:08Z</time>
      </trkpt>
      <trkpt lat="44.220130" lon="-0.923550">
        <time>2017-06-24T08:41:09Z</time>
      </trkpt>
      <trkpt lat="44.220400" lon="-0.923350">
        <time>2017-06-24T08:41:10Z</time>
      </trkpt>
      <trkpt lat="44.220690" lon="-0.923120">
        <time>2017-06-24T08:41:11Z</time>
      </trkpt>
      <trkpt lat="44.220940" lon="-0.922910">
        <time>2017-06-24T08:41:12Z</time>
      </trkpt>
      <trkpt lat="44.221210" lon="-0.922670">
        <time>2017-06-24T08:41:13Z</time>
      </trkpt>
      <trkpt lat="44.221510" lon="-0.922420">
        <time>2017-06-24T08:41:14Z</time>
      </trkpt>
      <trkpt lat="44.221760" lon="-0.922180">
        <time>2017-06-24T08:41:15Z</time>
      </trkpt>
      <trkpt lat="44.222040" lon="-0.921890">
        <time>2017-06-24T08:41:16Z</time>
      </trkpt>
      <trkpt lat="44.222280" lon="-0.921630">
        <time>2017-06-24T08:41:17Z</time>
      </trkpt>
      <trkpt lat="44.222520" lon="-0.921350">
        <time>2017-06-24T08:41:18Z</time>
      </trkpt>
      <trkpt lat="44.222790" lon="-0.921040">
        <time>2017-06-24T08:41:19Z</time>
      </trkpt>
      <trkpt lat="44.223010" lon="-0.920760">
        <time>2017-06-24T08:41:20Z</time>
      </trkpt>
      <trkpt lat="44.223240" lon="-0.920450">
        <time>2017-06-24T08:41:21Z</time>
      </trkpt>
      <trkpt lat="44.223470" lon="-0.920130">
        <time>2017-06-24T08:41:22Z</time>
      </trkpt>
      <trkpt lat="44.223690" lon="-0.919810">
        <time>2017-06-24T08:41:23Z</time>
      </trkpt>
      <trkpt lat="44.223920" lon="-0.919450">
        <time>2017-06-24T08:41:24Z</time>
      </trkpt>
      <trkpt lat="44.224130" lon="-0.919130">
        <time>2017-06-24T08:41:25Z</time>
      </trkpt>
      <trkpt lat="44.224340" lon="-0.918790">
        <time>2017-06-24T08:41:26Z</time>
      </trkpt>
      <trkpt lat="44.224570" lon="-0.918430">
        <time>2017-06-24T08:41:27Z</time>
      </trkpt>
      <trkpt lat="44.224770" lon="-0.918120">
        <time>2017-06-24T08:41:28Z</time>
      </trkpt>
      <trkpt lat="44.224990" lon="-0.917780">
        <time>2017-06-24T08:41:29Z</time>
      </trkpt>
      <trkpt lat="44.225220" lon="-0.917430">
        <time>2017-06-24T08:41:30Z</time>
      </trkpt>
      <trkpt lat="44.225420" lon="-0.917110">
        <time>2017-06-24T08:41:31Z</time>
      </trkpt>
      <trkpt lat="44.225650" lon="-0.916760">
        <time>2017-06-24T08:41:32Z</time>
      </trkpt>
      <trkpt lat="44.225850" lon="-0.916450">
        <time>2017-06-24T08:41:33Z</time>
      </trkpt>
      <trkpt lat="44.226070" lon="-0.916120">
        <time>2017-06-24T08:41:34Z</time>
      </trkpt>
      <trkpt lat="44.226310" lon="-0.915790">
        <time>2017-06-24T08:41:35Z</time>
      </trkpt>
      <trkpt lat="44.226520" lon="-0.915490">
        <time>2017-06-24T08:41:36Z</time>
      </trkpt>
      <trkpt lat="44.226740" lon="-0.915190">
        <time>2017-06-24T08:41:37Z</time>
      </trkpt>
      <trkpt lat="44.226980" lon="-0.914900">
        <time>2017-06-24T08:41:38Z</time>
      </trkpt>
      <trkpt lat="44.227210" lon="-0.914610">
        <time>2017-06-24T08:41:39Z</time>
      </trkpt>
      <trkpt lat="44.227470" lon="-0.914310">
        <time>2017-06-24T08:41:40Z</time>
      </trkpt>
      <trkpt lat="44.227710" lon="-0.914060">
        <time>2017-06-24T08:41:41Z</time>
      </trkpt>
      <trkpt lat="44.227960" lon="-0.913790">
        <time>2017-06-24T08:41:42Z</time>
      </trkpt>
      <trkpt lat="44.228240" lon="-0.913510">
        <time>2017-06-24T08:41:43Z</time>
      </trkpt>
      <trkpt lat="44.228490" lon="-0.913280">
        <time>2017-06-24T08:41:44Z</time>
      </trkpt>
      <trkpt lat="44.228760" lon="-0.913040">
        <time>2017-06-24T08:41:45Z</time>
      </trkpt>
      <trkpt lat="44.229050" lon="-0.912800">
        <time>2017-06-24T08:41:46Z</time>
      </trkpt>
      <trkpt lat="44.229300" lon="-0.912590">
        <time>2017-06-24T08:41:47Z</time>
      </trkpt>
      <trkpt lat="44.229610" lon="-0.912360">
        <time>2017-06-24T08:41:48Z</time>
      </trkpt>
      <trkpt lat="44.229880" lon="-0.912170">
        <time>2017-06-24T08:41:49Z</time>
      </trkpt>
      <trkpt lat="44.230170" lon="-0.911970">
        <time>2017-06-24T08:41:50Z</time>
      </trkpt>
      <trkpt lat="44.230480" lon="-0.911770">
        <time>2017-06-24T08:41:51Z</time>
      </trkpt>
      <trkpt lat="44.230760" lon="-0.911610">
        <time>2017-06-24T08:41:52Z</time>
      </trkpt>
      <trkpt lat="44.231060" lon="-0.911450">
        <time>2017-06-24T08:41:53Z</time>
      </trkpt>
      <trkpt lat="44.231360" lon="-0.911290">
        <time>2017-06-24T08:41:54Z</time>
      </trkpt>
      <trkpt lat="44.231670" lon="-0.911140">
        <time>2017-06-24T08:41:55Z</time>
      </trkpt>
      <trkpt lat="44.231990" lon="-0.911000">
        <time>2017-06-24T08:41:56Z</time>
      </trkpt>
      <trkpt lat="44.232270" lon="-0.910880">
        <time>2017-06-24T08:41:57Z</time>
      </trkpt>
      <trkpt lat="44.232580" lon="-0.910760">
        <time>2017-06-24T08:41:58Z</time>
      </trkpt>
      <trkpt lat="44.232900" lon="-0.910640">
        <time>2017-06-24T08:41:59Z</time>
      </trkpt>
      <trkpt lat="44.233190" lon="-0.910530">
        <time>2017-06-24T08:42:00Z</time>
      </trkpt>
      <trkpt lat="44.233490" lon="-0.910420">
        <time>2017-06-24T08:42:01Z</time>
      </trkpt>
      <trkpt lat="44.233820" lon="-0.910300">
        <time>2017-06-24T08:42:02Z</time>
      </trkpt>
      <trkpt lat="44.234100" lon="-0.910200">
        <time>2017-06-24T08:42:03Z</time>
      </trkpt>
      <trkpt lat="44.234420" lon="-0.910070">
        <time>2017-06-24T08:42:04Z</time>
      </trkpt>
      <trkpt lat="44.234700" lon="-0.909960">
        <time>2017-06-24T08:42:05Z</time>
      </trkpt>
      <trkpt lat="44.235000" lon="-0.909850">
        <time>2017-06-24T08:42:06Z</time>
      </trkpt>
      <trkpt lat="44.235320" lon="-0.909720">
        <time>2017-06-24T08:42:07Z</time>
      </trkpt>
      <trkpt lat="44.235600" lon="-0.909610">
        <time>2017-06-24T08:42:08Z</time>
      </trkpt>
      <trkpt lat="44.235900" lon="-0.909500">
        <time>2017-06-24T08:42:09Z</time>
      </trkpt>
      <trkpt lat="44.236200" lon="-0.909370">
        <time>2017-06-24T08:42:10Z</time>
      </trkpt>
      <trkpt lat="44.236510" lon="-0.909260">
        <time>2017-06-24T08:42:11Z</time>
      </trkpt>
      <trkpt lat="44.236820" lon="-0.909140">
        <time>2017-06-24T08:42:12Z</time>
      </trkpt>
      <trkpt lat="44.237110" lon="-0.909020">
        <time>2017-06-24T08:42:13Z</time>
      </trkpt>
      <trkpt lat="44.237410" lon="-0.908910">
        <time>2017-06-24T08:42:14Z</time>
      </trkpt>
      <trkpt lat="44.237730" lon="-0.908790">
        <time>2017-06-24T08:42:15Z</time>
      </trkpt>
      <trkpt lat="44.238010" lon="-0.908680">
        <time>2017-06-24T08:42:16Z</time>
      </trkpt>
      <trkpt lat="44.238300" lon="-0.908570">
        <time>2017-06-24T08:42:17Z</time>
      </trkpt>
      <trkpt lat="44.238620" lon="-0.908450">
        <time>2017-06-24T08:42:18Z</time>
      </trkpt>
      <trkpt lat="44.238890" lon="-0.908340">
        <time>2017-06-24T08:42:19Z</time>
      </trkpt>
      <trkpt lat="44.239200" lon="-0.908230">
        <time>2017-06-24T08:42:20Z</time>
      </trkpt>
      <trkpt lat="44.239480" lon="-0.908120">
        <time>2017-06-24T08:42:21Z</time>
      </trkpt>
      <trkpt lat="44.239770" lon="-0.908010">
        <time>2017-06-24T08:42:22Z</time>
      </trkpt>
      <trkpt lat="44.240090" lon="-0.907890">
        <time>2017-06-24T08:42:23Z</time>
      </trkpt>
      <trkpt lat="44.240370" lon="-0.907780">
        <time>2017-06-24T08:42:24Z</time>
      </trkpt>
      <trkpt lat="44.240670" lon="-0.907660">
        <time>2017-06-24T08:42:25Z</time>
      </trkpt>
      <trkpt lat="44.240970" lon="-0.907540">
        <time>2017-06-24T08:42:26Z</time>
      </trkpt>
      <trkpt lat="44.241280" lon="-0.907430">
        <time>2017-06-24T08:42:27Z</time>
      </trkpt>
      <trkpt lat="44.241600" lon="-0.907310">
        <time>2017-06-24T08:42:28Z</time>
      </trkpt>
      <trkpt lat="44.241890" lon="-0.907200">
        <time>2017-06-24T08:42:29Z</time>
      </trkpt>
      <trkpt lat="44.242190" lon="-0.907080">
        <time>2017-06-24T08:42:30Z</time>
      </trkpt>
      <trkpt lat="44.242510" lon="-0.906960">
        <time>2017-06-24T08:42:31Z</time>
      </trkpt>
      <trkpt lat="44.242790" lon="-0.906860">
        <time>2017-06-24T08:42:32Z</time>
      </trkpt>
      <trkpt lat="44.243100" lon="-0.906750">
        <time>2017-06-24T08:42:33Z</time>
      </trkpt>
      <trkpt lat="44.243420" lon="-0.906630">
        <time>2017-06-24T08:42:34Z</time>
      </trkpt>
      <trkpt lat="44.243700" lon="-0.906520">
        <time>2017-06-24T08:42:35Z</time>
      </trkpt>
      <trkpt lat="44.244010" lon="-0.906400">
        <time>2017-06-24T08:42:36Z</time>
      </trkpt>
      <trkpt lat="44.244300" lon="-0.906300">
        <time>2017-06-24T08:42:37Z</time>
      </trkpt>
      <trkpt lat="44.244590" lon="-0.906180">
        <time>2017-06-24T08:42:38Z</time>
      </trkpt>
      <trkpt lat="44.244910" lon="-0.906060">
        <time>2017-06-24T08:42:39Z</time>
      </trkpt>
      <trkpt lat="44.245200" lon="-0.905950">
        <time>2017-06-24T08:42:40Z</time>
      </trkpt>
      <trkpt lat="44.245500" lon="-0.905840">
        <time>2017-06-24T08:42:41Z</time>
      </trkpt>
      <trkpt lat="44.245810" lon="-0.905720">
        <time>2017-06-24T08:42:42Z</time>
      </trkpt>
      <trkpt lat="44.246110" lon="-0.905610">
        <time>2017-06-24T08:42:43Z</time>
      </trkpt>
      <trkpt lat="44.246440" lon="-0.905480">
        <time>2017-06-24T08:42:44Z</time>
      </trkpt>
      <trkpt lat="44.246720" lon="-0.905360">
        <time>2017-06-24T08:42:45Z</time>
      </trkpt>
      <trkpt lat="44.247020" lon="-0.905230">
        <time>2017-06-24T08:42:46Z</time>
      </trkpt>
      <trkpt lat="44.247350" lon="-0.905090">
        <time>2017-06-24T08:42:47Z</time>
      </trkpt>
      <trkpt lat="44.247630" lon="-0.904980">
        <time>2017-06-24T08:42:48Z</time>
      </trkpt>
      <trkpt lat="44.247930" lon="-0.904870">
        <time>2017-06-24T08:42:49Z</time>
      </trkpt>
      <trkpt lat="44.248240" lon="-0.904750">
        <time>2017-06-24T08:42:50Z</time>
      </trkpt>
      <trkpt lat="44.248510" lon="-0.904640">
        <time>2017-06-24T08:42:51Z</time>
      </trkpt>
      <trkpt lat="44.248830" lon="-0.904530">
        <time>2017-06-24T08:42:52Z</time>
      </trkpt>
      <trkpt lat="44.249090" lon="-0.904430">
        <time>2017-06-24T08:42:53Z</time>
      </trkpt>
      <trkpt lat="44.249370" lon="-0.904320">
        <time>2017-06-24T08:42:54Z</time>
      </trkpt>
      <trkpt lat="44.249670" lon="-0.904200">
        <time>2017-06-24T08:42:55Z</time>
      </trkpt>
      <trkpt lat="44.249930" lon="-0.904100">
        <time>2017-06-24T08:42:56Z</time>
      </trkpt>
      <trkpt lat="44.250200" lon="-0.904000">
        <time>2017-06-24T08:42:57Z</time>
      </trkpt>
      <trkpt lat="44.250480" lon="-0.903890">
        <time>2017-06-24T08:42:58Z</time>
      </trkpt>
      <trkpt lat="44.250760" lon="-0.903790">
        <time>2017-06-24T08:42:59Z</time>
      </trkpt>
      <trkpt lat="44.251050" lon="-0.903680">
        <time>2017-06-24T08:43:00Z</time>
      </trkpt>
      <trkpt lat="44.251320" lon="-0.903580">
        <time>2017-06-24T08:43:01Z</time>
      </trkpt>
      <trkpt lat="44.251600" lon="-0.903480">
        <time>2017-06-24T08:43:02Z</time>
      </trkpt>
      <trkpt lat="44.251900" lon="-0.903360">
        <time>2017-06-24T08:43:03Z</time>
      </trkpt>
      <trkpt lat="44.252170" lon="-0.903260">
        <time>2017-06-24T08:43:04Z</time>
      </trkpt>
      <trkpt lat="44.252460" lon="-0.903150">
        <time>2017-06-24T08:43:05Z</time>
      </trkpt>
      <trkpt lat="44.252770" lon="-0.903030">
        <time>2017-06-24T08:43:06Z</time>
      </trkpt>
      <trkpt lat="44.253050" lon="-0.902920">
        <time>2017-06-24T08:43:07Z</time>
      </trkpt>
      <trkpt lat="44.253360" lon="-0.902810">
        <time>2017-06-24T08:43:08Z</time>
      </trkpt>
      <trkpt lat="44.253630" lon="-0.902710">
        <time>2017-06-24T08:43:09Z</time>
      </trkpt>
      <trkpt lat="44.253930" lon="-0.902600">
        <time>2017-06-24T08:43:10Z</time>
      </trkpt>
      <trkpt lat="44.254240" lon="-0.902480">
        <time>2017-06-24T08:43:11Z</time>
      </trkpt>
      <trkpt lat="44.254520" lon="-0.902380">
        <time>2017-06-24T08:43:12Z</time>
      </trkpt>
      <trkpt lat="44.254800" lon="-0.902270">
        <time>2017-06-24T08:43:13Z</time>
      </trkpt>
      <trkpt lat="44.255090" lon="-0.902160">
        <time>2017-06-24T08:43:14Z</time>
      </trkpt>
      <trkpt lat="44.255370" lon="-0.902050">
        <time>2017-06-24T08:43:15Z</time>
      </trkpt>
      <trkpt lat="44.255670" lon="-0.901940">
        <time>2017-06-24T08:43:16Z</time>
      </trkpt>
      <trkpt lat="44.255940" lon="-0.901850">
        <time>2017-06-24T08:43:17Z</time>
      </trkpt>
      <trkpt lat="44.256230" lon="-0.901730">
        <time>2017-06-24T08:43:18Z</time>
      </trkpt>
      <trkpt lat="44.256530" lon="-0.901610">
        <time>2017-06-24T08:43:19Z</time>
      </trkpt>
      <trkpt lat="44.256800" lon="-0.901510">
        <time>2017-06-24T08:43:20Z</time>
      </trkpt>
      <trkpt lat="44.257090" lon="-0.901390">
        <time>2017-06-24T08:43:21Z</time>
      </trkpt>
      <trkpt lat="44.257400" lon="-0.901280">
        <time>2017-06-24T08:43:22Z</time>
      </trkpt>
      <trkpt lat="44.257670" lon="-0.901190">
        <time>2017-06-24T08:43:23Z</time>
      </trkpt>
      <trkpt lat="44.257990" lon="-0.901090">
        <time>2017-06-24T08:43:24Z</time>
      </trkpt>
      <trkpt lat="44.258270" lon="-0.900990">
        <time>2017-06-24T08:43:25Z</time>
      </trkpt>
      <trkpt lat="44.258570" lon="-0.900880">
        <time>2017-06-24T08:43:26Z</time>
      </trkpt>
      <trkpt lat="44.258880" lon="-0.900770">
        <time>2017-06-24T08:43:27Z</time>
      </trkpt>
      <trkpt lat="44.259170" lon="-0.900670">
        <time>2017-06-24T08:43:28Z</time>
      </trkpt>
      <trkpt lat="44.259460" lon="-0.900570">
        <time>2017-06-24T08:43:29Z</time>
      </trkpt>
      <trkpt lat="44.259760" lon="-0.900460">
        <time>2017-06-24T08:43:30Z</time>
      </trkpt>
      <trkpt lat="44.260050" lon="-0.900350">
        <time>2017-06-24T08:43:31Z</time>
      </trkpt>
      <trkpt lat="44.260370" lon="-0.900230">
        <time>2017-06-24T08:43:32Z</time>
      </trkpt>
      <trkpt lat="44.260640" lon="-0.900130">
        <time>2017-06-24T08:43:33Z</time>
      </trkpt>
      <trkpt lat="44.260930" lon="-0.900010">
        <time>2017-06-24T08:43:34Z</time>
      </trkpt>
      <trkpt lat="44.261250" lon="-0.899890">
        <time>2017-06-24T08:43:35Z</time>
      </trkpt>
      <trkpt lat="44.261530" lon="-0.899790">
        <time>2017-06-24T08:43:36Z</time>
      </trkpt>
      <trkpt lat="44.261830" lon="-0.899670">
        <time>2017-06-24T08:43:37Z</time>
      </trkpt>
      <trkpt lat="44.262150" lon="-0.899560">
        <time>2017-06-24T08:43:38Z</time>
      </trkpt>
      <trkpt lat="44.262420" lon="-0.899460">
        <time>2017-06-24T08:43:39Z</time>
      </trkpt>
      <trkpt lat="44.262740" lon="-0.899340">
        <time>2017-06-24T08:43:40Z</time>
      </trkpt>
      <trkpt lat="44.263020" lon="-0.899240">
        <time>2017-06-24T08:43:41Z</time>
      </trkpt>
      <trkpt lat="44.263320" lon="-0.899130">
        <time>2017-06-24T08:43:42Z</time>
      </trkpt>
      <trkpt lat="44.263640" lon="-0.899010">
        <time>2017-06-24T08:43:43Z</time>
      </trkpt>
      <trkpt lat="44.263920" lon="-0.898910">
        <time>2017-06-24T08:43:44Z</time>
      </trkpt>
      <trkpt lat="44.264220" lon="-0.898790">
        <time>2017-06-24T08:43:45Z</time>
      </trkpt>
      <trkpt lat="44.264510" lon="-0.898670">
        <time>2017-06-24T08:43:46Z</time>
      </trkpt>
      <trkpt lat="44.264820" lon="-0.898560">
        <time>2017-06-24T08:43:47Z</time>
      </trkpt>
      <trkpt lat="44.265150" lon="-0.898440">
        <time>2017-06-24T08:43:48Z</time>
      </trkpt>
      <trkpt lat="44.265430" lon="-0.898330">
        <time>2017-06-24T08:43:49Z</time>
      </trkpt>
      <trkpt lat="44.265740" lon="-0.898220">
        <time>2017-06-24T08:43:50Z</time>
      </trkpt>
      <trkpt lat="44.266060" lon="-0.898100">
        <time>2017-06-24T08:43:51Z</time>
      </trkpt>
      <trkpt lat="44.266340" lon="-0.897990">
        <time>2017-06-24T08:43:52Z</time>
      </trkpt>
      <trkpt lat="44.266640" lon="-0.897880">
        <time>2017-06-24T08:43:53Z</time>
      </trkpt>
      <trkpt lat="44.266970" lon="-0.897750">
        <time>2017-06-24T08:43:54Z</time>
      </trkpt>
      <trkpt lat="44.267250" lon="-0.897650">
        <time>2017-06-24T08:43:55Z</time>
      </trkpt>
      <trkpt lat="44.267580" lon="-0.897530">
        <time>2017-06-24T08:43:56Z</time>
      </trkpt>
      <trkpt lat="44.267870" lon="-0.897420">
        <time>2017-06-24T08:43:57Z</time>
      </trkpt>
      <trkpt lat="44.268170" lon="-0.897310">
        <time>2017-06-24T08:43:58Z</time>
      </trkpt>
      <trkpt lat="44.268490" lon="-0.897190">
        <time>2017-06-24T08:43:59Z</time>
      </trkpt>
      <trkpt lat="44.268780" lon="-0.897080">
        <time>2017-06-24T08:44:00Z</time>
      </trkpt>
      <trkpt lat="44.269080" lon="-0.896970">
        <time>2017-06-24T08:44:01Z</time>
      </trkpt>
      <trkpt lat="44.269390" lon="-0.896850">
        <time>2017-06-24T08:44:02Z</time>
      </trkpt>
      <trkpt lat="44.269710" lon="-0.896730">
        <time>2017-06-24T08:44:03Z</time>
      </trkpt>
      <trkpt lat="44.270040" lon="-0.896610">
        <time>2017-06-24T08:44:04Z</time>
      </trkpt>
      <trkpt lat="44.270320" lon="-0.896500">
        <time>2017-06-24T08:44:05Z</time>
      </trkpt>
      <trkpt lat="44.270630" lon="-0.896390">
        <time>2017-06-24T08:44:06Z</time>
      </trkpt>
      <trkpt lat="44.270960" lon="-0.896260">
        <time>2017-06-24T08:44:07Z</time>
      </trkpt>
      <trkpt lat="44.271240" lon="-0.896160">
        <time>2017-06-24T08:44:08Z</time>
      </trkpt>
      <trkpt lat="44.271550" lon="-0.896050">
        <time>2017-06-24T08:44:09Z</time>
      </trkpt>
      <trkpt lat="44.271880" lon="-0.895930">
        <time>2017-06-24T08:44:10Z</time>
      </trkpt>
      <trkpt lat="44.272170" lon="-0.895830">
        <time>2017-06-24T08:44:11Z</time>
      </trkpt>
      <trkpt lat="44.272490" lon="-0.895710">
        <time>2017-06-24T08:44:12Z</time>
      </trkpt>
      <trkpt lat="44.272770" lon="-0.895600">
        <time>2017-06-24T08:44:13Z</time>
      </trkpt>
      <trkpt lat="44.273070" lon="-0.895490">
        <time>2017-06-24T08:44:14Z</time>
      </trkpt>
      <trkpt lat="44.273380" lon="-0.895370">
        <time>2017-06-24T08:44:15Z</time>
      </trkpt>
      <trkpt lat="44.273650" lon="-0.895260">
        <time>2017-06-24T08:44:16Z</time>
      </trkpt>
      <trkpt lat="44.273940" lon="-0.895160">
        <time>2017-06-24T08:44:17Z</time>
      </trkpt>
      <trkpt lat="44.274220" lon="-0.895050">
        <time>2017-06-24T08:44:18Z</time>
      </trkpt>
      <trkpt lat="44.274500" lon="-0.894950">
        <time>2017-06-24T08:44:19Z</time>
      </trkpt>
      <trkpt lat="44.274790" lon="-0.894840">
        <time>2017-06-24T08:44:20Z</time>
      </trkpt>
      <trkpt lat="44.275050" lon="-0.894750">
        <time>2017-06-24T08:44:21Z</time>
      </trkpt>
      <trkpt lat="44.275330" lon="-0.894650">
        <time>2017-06-24T08:44:22Z</time>
      </trkpt>
      <trkpt lat="44.275620" lon="-0.894540">
        <time>2017-06-24T08:44:23Z</time>
      </trkpt>
      <trkpt lat="44.275870" lon="-0.894440">
        <time>2017-06-24T08:44:24Z</time>
      </trkpt>
      <trkpt lat="44.276150" lon="-0.894340">
        <time>2017-06-24T08:44:25Z</time>
      </trkpt>
      <trkpt lat="44.276440" lon="-0.894230">
        <time>2017-06-24T08:44:26Z</time>
      </trkpt>
      <trkpt lat="44.276700" lon="-0.894130">
        <time>2017-06-24T08:44:27Z</time>
      </trkpt>
      <trkpt lat="44.277000" lon="-0.894020">
        <time>2017-06-24T08:44:28Z</time>
      </trkpt>
      <trkpt lat="44.277270" lon="-0.893920">
        <time>2017-06-24T08:44:29Z</time>
      </trkpt>
      <trkpt lat="44.277550" lon="-0.893810">
        <time>2017-06-24T08:44:30Z</time>
      </trkpt>
      <trkpt lat="44.277860" lon="-0.893700">
        <time>2017-06-24T08:44:31Z</time>
      </trkpt>
      <trkpt lat="44.278120" lon="-0.893600">
        <time>2017-06-24T08:44:32Z</time>
      </trkpt>
      <trkpt lat="44.278400" lon="-0.893490">
        <time>2017-06-24T08:44:33Z</time>
      </trkpt>
      <trkpt lat="44.278690" lon="-0.893390">
        <time>2017-06-24T08:44:34Z</time>
      </trkpt>
      <trkpt lat="44.278970" lon="-0.893280">
        <time>2017-06-24T08:44:35Z</time>
      </trkpt>
      <trkpt lat="44.279260" lon="-0.893170">
        <time>2017-06-24T08:44:36Z</time>
      </trkpt>
      <trkpt lat="44.279520" lon="-0.893080">
        <time>2017-06-24T08:44:37Z</time>
      </trkpt>
      <trkpt lat="44.279790" lon="-0.892970">
        <time>2017-06-24T08:44:38Z</time>
      </trkpt>
      <trkpt lat="44.280080" lon="-0.892860">
        <time>2017-06-24T08:44:39Z</time>
      </trkpt>
      <trkpt lat="44.280330" lon="-0.892760">
        <time>2017-06-24T08:44:40Z</time>
      </trkpt>
      <trkpt lat="44.280610" lon="-0.892670">
        <time>2017-06-24T08:44:41Z</time>
      </trkpt>
      <trkpt lat="44.280900" lon="-0.892570">
        <time>2017-06-24T08:44:42Z</time>
      </trkpt>
      <trkpt lat="44.281140" lon="-0.892470">
        <time>2017-06-24T08:44:43Z</time>
      </trkpt>
      <trkpt lat="44.281430" lon="-0.892370">
        <time>2017-06-24T08:44:44Z</time>
      </trkpt>
      <trkpt lat="44.281680" lon="-0.892280">
        <time>2017-06-24T08:44:45Z</time>
      </trkpt>
      <trkpt lat="44.281940" lon="-0.892180">
        <time>2017-06-24T08:44:46Z</time>
      </trkpt>
      <trkpt lat="44.282230" lon="-0.892070">
        <time>2017-06-24T08:44:47Z</time>
      </trkpt>
      <trkpt lat="44.282480" lon="-0.891970">
        <time>2017-06-24T08:44:48Z</time>
      </trkpt>
      <trkpt lat="44.282740" lon="-0.891870">
        <time>2017-06-24T08:44:49Z</time>
      </trkpt>
      <trkpt lat="44.283010" lon="-0.891780">
        <time>2017-06-24T08:44:50Z</time>
      </trkpt>
      <trkpt lat="44.283270" lon="-0.891680">
        <time>2017-06-24T08:44:51Z</time>
      </trkpt>
      <trkpt lat="44.283560" lon="-0.891570">
        <time>2017-06-24T08:44:52Z</time>
      </trkpt>
      <trkpt lat="44.283810" lon="-0.891470">
        <time>2017-06-24T08:44:53Z</time>
      </trkpt>
      <trkpt lat="44.284070" lon="-0.891370">
        <time>2017-06-24T08:44:54Z</time>
      </trkpt>
      <trkpt lat="44.284360" lon="-0.891260">
        <time>2017-06-24T08:44:55Z</time>
      </trkpt>
      <trkpt lat="44.284600" lon="-0.891170">
        <time>2017-06-24T08:44:56Z</time>
      </trkpt>
      <trkpt lat="44.284870" lon="-0.891080">
        <time>2017-06-24T08:44:57Z</time>
      </trkpt>
      <trkpt lat="44.285150" lon="-0.890970">
        <time>2017-06-24T08:44:58Z</time>
      </trkpt>
      <trkpt lat="44.285390" lon="-0.890880">
        <time>2017-06-24T08:44:59Z</time>
      </trkpt>
      <trkpt lat="44.285680" lon="-0.890770">
        <time>2017-06-24T08:45:00Z</time>
      </trkpt>
      <trkpt lat="44.285930" lon="-0.890680">
        <time>2017-06-24T08:45:01Z</time>
      </trkpt>
      <trkpt lat="44.286210" lon="-0.890580">
        <time>2017-06-24T08:45:02Z</time>
      </trkpt>
      <trkpt lat="44.286490" lon="-0.890480">
        <time>2017-06-24T08:45:03Z</time>
      </trkpt>
      <trkpt lat="44.286760" lon="-0.890380">
        <time>2017-06-24T08:45:04Z</time>
      </trkpt>
      <trkpt lat="44.287060" lon="-0.890280">
        <time>2017-06-24T08:45:05Z</time>
      </trkpt>
      <trkpt lat="44.287350" lon="-0.890180">
        <time>2017-06-24T08:45:06Z</time>
      </trkpt>
      <trkpt lat="44.287650" lon="-0.890080">
        <time>2017-06-24T08:45:07Z</time>
      </trkpt>
      <trkpt lat="44.287970" lon="-0.889970">
        <time>2017-06-24T08:45:08Z</time>
      </trkpt>
      <trkpt lat="44.288250" lon="-0.889880">
        <time>2017-06-24T08:45:09Z</time>
      </trkpt>
      <trkpt lat="44.288540" lon="-0.889770">
        <time>2017-06-24T08:45:10Z</time>
      </trkpt>
      <trkpt lat="44.288850" lon="-0.889650">
        <time>2017-06-24T08:45:11Z</time>
      </trkpt>
      <trkpt lat="44.289130" lon="-0.889550">
        <time>2017-06-24T08:45:12Z</time>
      </trkpt>
      <trkpt lat="44.289430" lon="-0.889440">
        <time>2017-06-24T08:45:13Z</time>
      </trkpt>
      <trkpt lat="44.289750" lon="-0.889310">
        <time>2017-06-24T08:45:14Z</time>
      </trkpt>
      <trkpt lat="44.290040" lon="-0.889190">
        <time>2017-06-24T08:45:15Z</time>
      </trkpt>
      <trkpt lat="44.290360" lon="-0.889050">
        <time>2017-06-24T08:45:16Z</time>
      </trkpt>
      <trkpt lat="44.290650" lon="-0.888940">
        <time>2017-06-24T08:45:17Z</time>
      </trkpt>
      <trkpt lat="44.290950" lon="-0.888820">
        <time>2017-06-24T08:45:18Z</time>
      </trkpt>
      <trkpt lat="44.291280" lon="-0.888690">
        <time>2017-06-24T08:45:19Z</time>
      </trkpt>
      <trkpt lat="44.291570" lon="-0.888580">
        <time>2017-06-24T08:45:20Z</time>
      </trkpt>
      <trkpt lat="44.291880" lon="-0.888460">
        <time>2017-06-24T08:45:21Z</time>
      </trkpt>
      <trkpt lat="44.292180" lon="-0.888350">
        <time>2017-06-24T08:45:22Z</time>
      </trkpt>
      <trkpt lat="44.292490" lon="-0.888230">
        <time>2017-06-24T08:45:23Z</time>
      </trkpt>
      <trkpt lat="44.292820" lon="-0.888110">
        <time>2017-06-24T08:45:24Z</time>
      </trkpt>
      <trkpt lat="44.293110" lon="-0.888000">
        <time>2017-06-24T08:45:25Z</time>
      </trkpt>
      <trkpt lat="44.293420" lon="-0.887890">
        <time>2017-06-24T08:45:26Z</time>
      </trkpt>
      <trkpt lat="44.293750" lon="-0.887770">
        <time>2017-06-24T08:45:27Z</time>
      </trkpt>
      <trkpt lat="44.294040" lon="-0.887660">
        <time>2017-06-24T08:45:28Z</time>
      </trkpt>
      <trkpt lat="44.294350" lon="-0.887550">
        <time>2017-06-24T08:45:29Z</time>
      </trkpt>
      <trkpt lat="44.294680" lon="-0.887420">
        <time>2017-06-24T08:45:30Z</time>
      </trkpt>
      <trkpt lat="44.294970" lon="-0.887310">
        <time>2017-06-24T08:45:31Z</time>
      </trkpt>
      <trkpt lat="44.295290" lon="-0.887190">
        <time>2017-06-24T08:45:32Z</time>
      </trkpt>
      <trkpt lat="44.295580" lon="-0.887080">
        <time>2017-06-24T08:45:33Z</time>
      </trkpt>
      <trkpt lat="44.295890" lon="-0.886970">
        <time>2017-06-24T08:45:34Z</time>
      </trkpt>
      <trkpt lat="44.296220" lon="-0.886850">
        <time>2017-06-24T08:45:35Z</time>
      </trkpt>
      <trkpt lat="44.296510" lon="-0.886740">
        <time>2017-06-24T08:45:36Z</time>
      </trkpt>
      <trkpt lat="44.296810" lon="-0.886630">
        <time>2017-06-24T08:45:37Z</time>
      </trkpt>
      <trkpt lat="44.297110" lon="-0.886520">
        <time>2017-06-24T08:45:38Z</time>
      </trkpt>
      <trkpt lat="44.297420" lon="-0.886400">
        <time>2017-06-24T08:45:39Z</time>
      </trkpt>
      <trkpt lat="44.297740" lon="-0.886270">
        <time>2017-06-24T08:45:40Z</time>
      </trkpt>
      <trkpt lat="44.298030" lon="-0.886160">
        <time>2017-06-24T08:45:41Z</time>
      </trkpt>
      <trkpt lat="44.298340" lon="-0.886050">
        <time>2017-06-24T08:45:42Z</time>
      </trkpt>
      <trkpt lat="44.298660" lon="-0.885920">
        <time>2017-06-24T08:45:43Z</time>
      </trkpt>
      <trkpt lat="44.298940" lon="-0.885820">
        <time>2017-06-24T08:45:44Z</time>
      </trkpt>
      <trkpt lat="44.299250" lon="-0.885710">
        <time>2017-06-24T08:45:45Z</time>
      </trkpt>
      <trkpt lat="44.299560" lon="-0.885590">
        <time>2017-06-24T08:45:46Z</time>
      </trkpt>
      <trkpt lat="44.299840" lon="-0.885490">
        <time>2017-06-24T08:45:47Z</time>
      </trkpt>
      <trkpt lat="44.300160" lon="-0.885370">
        <time>2017-06-24T08:45:48Z</time>
      </trkpt>
      <trkpt lat="44.300430" lon="-0.885270">
        <time>2017-06-24T08:45:49Z</time>
      </trkpt>
      <trkpt lat="44.300730" lon="-0.885160">
        <time>2017-06-24T08:45:50Z</time>
      </trkpt>
      <trkpt lat="44.301040" lon="-0.885040">
        <time>2017-06-24T08:45:51Z</time>
      </trkpt>
      <trkpt lat="44.301330" lon="-0.884930">
        <time>2017-06-24T08:45:52Z</time>
      </trkpt>
      <trkpt lat="44.301640" lon="-0.884830">
        <time>2017-06-24T08:45:53Z</time>
      </trkpt>
      <trkpt lat="44.301940" lon="-0.884710">
        <time>2017-06-24T08:45:54Z</time>
      </trkpt>
      <trkpt lat="44.302240" lon="-0.884600">
        <time>2017-06-24T08:45:55Z</time>
      </trkpt>
      <trkpt lat="44.302560" lon="-0.884470">
        <time>2017-06-24T08:45:56Z</time>
      </trkpt>
      <trkpt lat="44.302850" lon="-0.884370">
        <time>2017-06-24T08:45:57Z</time>
      </trkpt>
      <trkpt lat="44.303150" lon="-0.884250">
        <time>2017-06-24T08:45:58Z</time>
      </trkpt>
      <trkpt lat="44.303480" lon="-0.884120">
        <time>2017-06-24T08:45:59Z</time>
      </trkpt>
      <trkpt lat="44.303760" lon="-0.884000">
        <time>2017-06-24T08:46:00Z</time>
      </trkpt>
      <trkpt lat="44.304070" lon="-0.883870">
        <time>2017-06-24T08:46:01Z</time>
      </trkpt>
      <trkpt lat="44.304400" lon="-0.883740">
        <time>2017-06-24T08:46:02Z</time>
      </trkpt>
      <trkpt lat="44.304680" lon="-0.883630">
        <time>2017-06-24T08:46:03Z</time>
      </trkpt>
      <trkpt lat="44.305010" lon="-0.883510">
        <time>2017-06-24T08:46:04Z</time>
      </trkpt>
      <trkpt lat="44.305290" lon="-0.883410">
        <time>2017-06-24T08:46:05Z</time>
      </trkpt>
      <trkpt lat="44.305590" lon="-0.883290">
        <time>2017-06-24T08:46:06Z</time>
      </trkpt>
      <trkpt lat="44.305910" lon="-0.883170">
        <time>2017-06-24T08:46:07Z</time>
      </trkpt>
      <trkpt lat="44.306200" lon="-0.883060">
        <time>2017-06-24T08:46:08Z</time>
      </trkpt>
      <trkpt lat="44.306500" lon="-0.882950">
        <time>2017-06-24T08:46:09Z</time>
      </trkpt>
      <trkpt lat="44.306790" lon="-0.882840">
        <time>2017-06-24T08:46:10Z</time>
      </trkpt>
      <trkpt lat="44.307090" lon="-0.882730">
        <time>2017-06-24T08:46:11Z</time>
      </trkpt>
      <trkpt lat="44.307410" lon="-0.882620">
        <time>2017-06-24T08:46:12Z</time>
      </trkpt>
      <trkpt lat="44.307690" lon="-0.882510">
        <time>2017-06-24T08:46:13Z</time>
      </trkpt>
      <trkpt lat="44.307990" lon="-0.882400">
        <time>2017-06-24T08:46:14Z</time>
      </trkpt>
      <trkpt lat="44.308310" lon="-0.882290">
        <time>2017-06-24T08:46:15Z</time>
      </trkpt>
      <trkpt lat="44.308600" lon="-0.882190">
        <time>2017-06-24T08:46:16Z</time>
      </trkpt>
      <trkpt lat="44.308910" lon="-0.882100">
        <time>2017-06-24T08:46:17Z</time>
      </trkpt>
      <trkpt lat="44.309230" lon="-0.882020">
        <time>2017-06-24T08:46:18Z</time>
      </trkpt>
      <trkpt lat="44.309520" lon="-0.881940">
        <time>2017-06-24T08:46:19Z</time>
      </trkpt>
      <trkpt lat="44.309850" lon="-0.881870">
        <time>2017-06-24T08:46:20Z</time>
      </trkpt>
      <trkpt lat="44.310140" lon="-0.881820">
        <time>2017-06-24T08:46:21Z</time>
      </trkpt>
      <trkpt lat="44.310450" lon="-0.881770">
        <time>2017-06-24T08:46:22Z</time>
      </trkpt>
      <trkpt lat="44.310780" lon="-0.881730">
        <time>2017-06-24T08:46:23Z</time>
      </trkpt>
      <trkpt lat="44.311070" lon="-0.881700">
        <time>2017-06-24T08:46:24Z</time>
      </trkpt>
      <trkpt lat="44.311390" lon="-0.881680">
        <time>2017-06-24T08:46:25Z</time>
      </trkpt>
      <trkpt lat="44.311710" lon="-0.881650">
        <time>2017-06-24T08:46:26Z</time>
      </trkpt>
      <trkpt lat="44.312020" lon="-0.881650">
        <time>2017-06-24T08:46:27Z</time>
      </trkpt>
      <trkpt lat="44.312360" lon="-0.881650">
        <time>2017-06-24T08:46:28Z</time>
      </trkpt>
      <trkpt lat="44.312660" lon="-0.881660">
        <time>2017-06-24T08:46:29Z</time>
      </trkpt>
      <trkpt lat="44.312980" lon="-0.881680">
        <time>2017-06-24T08:46:30Z</time>
      </trkpt>
      <trkpt lat="44.313310" lon="-0.881710">
        <time>2017-06-24T08:46:31Z</time>
      </trkpt>
      <trkpt lat="44.313610" lon="-0.881740">
        <time>2017-06-24T08:46:32Z</time>
      </trkpt>
      <trkpt lat="44.313920" lon="-0.881780">
        <time>2017-06-24T08:46:33Z</time>
      </trkpt>
      <trkpt lat="44.314260" lon="-0.881830">
        <time>2017-06-24T08:46:34Z</time>
      </trkpt>
      <trkpt lat="44.314560" lon="-0.881880">
        <time>2017-06-24T08:46:35Z</time>
      </trkpt>
      <trkpt lat="44.314890" lon="-0.881930">
        <time>2017-06-24T08:46:36Z</time>
      </trkpt>
      <trkpt lat="44.315180" lon="-0.881970">
        <time>2017-06-24T08:46:37Z</time>
      </trkpt>
      <trkpt lat="44.315500" lon="-0.882020">
        <time>2017-06-24T08:46:38Z</time>
      </trkpt>
      <trkpt lat="44.315840" lon="-0.882060">
        <time>2017-06-24T08:46:39Z</time>
      </trkpt>
      <trkpt lat="44.316130" lon="-0.882080">
        <time>2017-06-24T08:46:40Z</time>
      </trkpt>
      <trkpt lat="44.316450" lon="-0.882090">
        <time>2017-06-24T08:46:41Z</time>
      </trkpt>
      <trkpt lat="44.316770" lon="-0.882090">
        <time>2017-06-24T08:46:42Z</time>
      </trkpt>
      <trkpt lat="44.317070" lon="-0.882070">
        <time>2017-06-24T08:46:43Z</time>
      </trkpt>
      <trkpt lat="44.317390" lon="-0.882050">
        <time>2017-06-24T08:46:44Z</time>
      </trkpt>
      <trkpt lat="44.317670" lon="-0.882020">
        <time>2017-06-24T08:46:45Z</time>
      </trkpt>
      <trkpt lat="44.317970" lon="-0.881970">
        <time>2017-06-24T08:46:46Z</time>
      </trkpt>
      <trkpt lat="44.318310" lon="-0.881920">
        <time>2017-06-24T08:46:47Z</time>
      </trkpt>
      <trkpt lat="44.318600" lon="-0.881850">
        <time>2017-06-24T08:46:48Z</time>
      </trkpt>
      <trkpt lat="44.318910" lon="-0.881760">
        <time>2017-06-24T08:46:49Z</time>
      </trkpt>
      <trkpt lat="44.319240" lon="-0.881650">
        <time>2017-06-24T08:46:50Z</time>
      </trkpt>
      <trkpt lat="44.319530" lon="-0.881540">
        <time>2017-06-24T08:46:51Z</time>
      </trkpt>
      <trkpt lat="44.319850" lon="-0.881400">
        <time>2017-06-24T08:46:52Z</time>
      </trkpt>
      <trkpt lat="44.320140" lon="-0.881280">
        <time>2017-06-24T08:46:53Z</time>
      </trkpt>
      <trkpt lat="44.320440" lon="-0.881120">
        <time>2017-06-24T08:46:54Z</time>
      </trkpt>
      <trkpt lat="44.320750" lon="-0.880950">
        <time>2017-06-24T08:46:55Z</time>
      </trkpt>
      <trkpt lat="44.321020" lon="-0.880770">
        <time>2017-06-24T08:46:56Z</time>
      </trkpt>
      <trkpt lat="44.321310" lon="-0.880570">
        <time>2017-06-24T08:46:57Z</time>
      </trkpt>
      <trkpt lat="44.321590" lon="-0.880370">
        <time>2017-06-24T08:46:58Z</time>
      </trkpt>
      <trkpt lat="44.321880" lon="-0.880150">
        <time>2017-06-24T08:46:59Z</time>
      </trkpt>
      <trkpt lat="44.322170" lon="-0.879900">
        <time>2017-06-24T08:47:00Z</time>
      </trkpt>
      <trkpt lat="44.322430" lon="-0.879670">
        <time>2017-06-24T08:47:01Z</time>
      </trkpt>
      <trkpt lat="44.322700" lon="-0.879410">
        <time>2017-06-24T08:47:02Z</time>
      </trkpt>
      <trkpt lat="44.322980" lon="-0.879120">
        <time>2017-06-24T08:47:03Z</time>
      </trkpt>
      <trkpt lat="44.323220" lon="-0.878860">
        <time>2017-06-24T08:47:04Z</time>
      </trkpt>
      <trkpt lat="44.323470" lon="-0.878570">
        <time>2017-06-24T08:47:05Z</time>
      </trkpt>
      <trkpt lat="44.323740" lon="-0.878250">
        <time>2017-06-24T08:47:06Z</time>
      </trkpt>
      <trkpt lat="44.323960" lon="-0.877960">
        <time>2017-06-24T08:47:07Z</time>
      </trkpt>
      <trkpt lat="44.324200" lon="-0.877620">
        <time>2017-06-24T08:47:08Z</time>
      </trkpt>
      <trkpt lat="44.324410" lon="-0.877310">
        <time>2017-06-24T08:47:09Z</time>
      </trkpt>
      <trkpt lat="44.324630" lon="-0.876980">
        <time>2017-06-24T08:47:10Z</time>
      </trkpt>
      <trkpt lat="44.324880" lon="-0.876630">
        <time>2017-06-24T08:47:11Z</time>
      </trkpt>
      <trkpt lat="44.325090" lon="-0.876320">
        <time>2017-06-24T08:47:12Z</time>
      </trkpt>
      <trkpt lat="44.325330" lon="-0.875990">
        <time>2017-06-24T08:47:13Z</time>
      </trkpt>
      <trkpt lat="44.325550" lon="-0.875670">
        <time>2017-06-24T08:47:14Z</time>
      </trkpt>
      <trkpt lat="44.325780" lon="-0.875340">
        <time>2017-06-24T08:47:15Z</time>
      </trkpt>
      <trkpt lat="44.326030" lon="-0.875000">
        <time>2017-06-24T08:47:16Z</time>
      </trkpt>
      <trkpt lat="44.326240" lon="-0.874700">
        <time>2017-06-24T08:47:17Z</time>
      </trkpt>
      <trkpt lat="44.326490" lon="-0.874400">
        <time>2017-06-24T08:47:18Z</time>
      </trkpt>
      <trkpt lat="44.326750" lon="-0.874080">
        <time>2017-06-24T08:47:19Z</time>
      </trkpt>
      <trkpt lat="44.326990" lon="-0.873810">
        <time>2017-06-24T08:47:20Z</time>
      </trkpt>
      <trkpt lat="44.327240" lon="-0.873530">
        <time>2017-06-24T08:47:21Z</time>
      </trkpt>
      <trkpt lat="44.327520" lon="-0.873250">
        <time>2017-06-24T08:47:22Z</time>
      </trkpt>
      <trkpt lat="44.327750" lon="-0.872990">
        <time>2017-06-24T08:47:23Z</time>
      </trkpt>
      <trkpt lat="44.328040" lon="-0.872720">
        <time>2017-06-24T08:47:24Z</time>
      </trkpt>
      <trkpt lat="44.328290" lon="-0.872490">
        <time>2017-06-24T08:47:25Z</time>
      </trkpt>
      <trkpt lat="44.328560" lon="-0.872260">
        <time>2017-06-24T08:47:26Z</time>
      </trkpt>
      <trkpt lat="44.328850" lon="-0.872010">
        <time>2017-06-24T08:47:27Z</time>
      </trkpt>
      <trkpt lat="44.329110" lon="-0.871800">
        <time>2017-06-24T08:47:28Z</time>
      </trkpt>
      <trkpt lat="44.329390" lon="-0.871580">
        <time>2017-06-24T08:47:29Z</time>
      </trkpt>
      <trkpt lat="44.329670" lon="-0.871370">
        <time>2017-06-24T08:47:30Z</time>
      </trkpt>
      <trkpt lat="44.329960" lon="-0.871180">
        <time>2017-06-24T08:47:31Z</time>
      </trkpt>
      <trkpt lat="44.330260" lon="-0.870970">
        <time>2017-06-24T08:47:32Z</time>
      </trkpt>
      <trkpt lat="44.330530" lon="-0.870800">
        <time>2017-06-24T08:47:33Z</time>
      </trkpt>
      <trkpt lat="44.330820" lon="-0.870610">
        <time>2017-06-24T08:47:34Z</time>
      </trkpt>
      <trkpt lat="44.331120" lon="-0.870410">
        <time>2017-06-24T08:47:35Z</time>
      </trkpt>
      <trkpt lat="44.331390" lon="-0.870240">
        <time>2017-06-24T08:47:36Z</time>
      </trkpt>
      <trkpt lat="44.331680" lon="-0.870060">
        <time>2017-06-24T08:47:37Z</time>
      </trkpt>
      <trkpt lat="44.331980" lon="-0.869860">
        <time>2017-06-24T08:47:38Z</time>
      </trkpt>
      <trkpt lat="44.332240" lon="-0.869690">
        <time>2017-06-24T08:47:39Z</time>
      </trkpt>
      <trkpt lat="44.332550" lon="-0.869500">
        <time>2017-06-24T08:47:40Z</time>
      </trkpt>
      <trkpt lat="44.332810" lon="-0.869320">
        <time>2017-06-24T08:47:41Z</time>
      </trkpt>
      <trkpt lat="44.333080" lon="-0.869140">
        <time>2017-06-24T08:47:42Z</time>
      </trkpt>
      <trkpt lat="44.333380" lon="-0.868960">
        <time>2017-06-24T08:47:43Z</time>
      </trkpt>
      <trkpt lat="44.333630" lon="-0.868800">
        <time>2017-06-24T08:47:44Z</time>
      </trkpt>
      <trkpt lat="44.333900" lon="-0.868620">
        <time>2017-06-24T08:47:45Z</time>
      </trkpt>
      <trkpt lat="44.334170" lon="-0.868450">
        <time>2017-06-24T08:47:46Z</time>
      </trkpt>
      <trkpt lat="44.334430" lon="-0.868290">
        <time>2017-06-24T08:47:47Z</time>
      </trkpt>
      <trkpt lat="44.334720" lon="-0.868100">
        <time>2017-06-24T08:47:48Z</time>
      </trkpt>
      <trkpt lat="44.334970" lon="-0.867930">
        <time>2017-06-24T08:47:49Z</time>
      </trkpt>
      <trkpt lat="44.335240" lon="-0.867760">
        <time>2017-06-24T08:47:50Z</time>
      </trkpt>
      <trkpt lat="44.335530" lon="-0.867570">
        <time>2017-06-24T08:47:51Z</time>
      </trkpt>
      <trkpt lat="44.335790" lon="-0.867410">
        <time>2017-06-24T08:47:52Z</time>
      </trkpt>
      <trkpt lat="44.336060" lon="-0.867220">
        <time>2017-06-24T08:47:53Z</time>
      </trkpt>
      <trkpt lat="44.336350" lon="-0.867040">
        <time>2017-06-24T08:47:54Z</time>
      </trkpt>
      <trkpt lat="44.336590" lon="-0.866890">
        <time>2017-06-24T08:47:55Z</time>
      </trkpt>
      <trkpt lat="44.336850" lon="-0.866710">
        <time>2017-06-24T08:47:56Z</time>
      </trkpt>
      <trkpt lat="44.337090" lon="-0.866560">
        <time>2017-06-24T08:47:57Z</time>
      </trkpt>
      <trkpt lat="44.337340" lon="-0.866410">
        <time>2017-06-24T08:47:58Z</time>
      </trkpt>
      <trkpt lat="44.337600" lon="-0.866240">
        <time>2017-06-24T08:47:59Z</time>
      </trkpt>
      <trkpt lat="44.337820" lon="-0.866100">
        <time>2017-06-24T08:48:00Z</time>
      </trkpt>
      <trkpt lat="44.338060" lon="-0.865950">
        <time>2017-06-24T08:48:01Z</time>
      </trkpt>
      <trkpt lat="44.338290" lon="-0.865790">
        <time>2017-06-24T08:48:02Z</time>
      </trkpt>
      <trkpt lat="44.338530" lon="-0.865640">
        <time>2017-06-24T08:48:03Z</time>
      </trkpt>
      <trkpt lat="44.338770" lon="-0.865490">
        <time>2017-06-24T08:48:04Z</time>
      </trkpt>
      <trkpt lat="44.338990" lon="-0.865350">
        <time>2017-06-24T08:48:05Z</time>
      </trkpt>
      <trkpt lat="44.339230" lon="-0.865200">
        <time>2017-06-24T08:48:06Z</time>
      </trkpt>
      <trkpt lat="44.339480" lon="-0.865040">
        <time>2017-06-24T08:48:07Z</time>
      </trkpt>
      <trkpt lat="44.339710" lon="-0.864900">
        <time>2017-06-24T08:48:08Z</time>
      </trkpt>
      <trkpt lat="44.339960" lon="-0.864760">
        <time>2017-06-24T08:48:09Z</time>
      </trkpt>
      <trkpt lat="44.340210" lon="-0.864600">
        <time>2017-06-24T08:48:10Z</time>
      </trkpt>
      <trkpt lat="44.340430" lon="-0.864460">
        <time>2017-06-24T08:48:11Z</time>
      </trkpt>
      <trkpt lat="44.340670" lon="-0.864310">
        <time>2017-06-24T08:48:12Z</time>
      </trkpt>
      <trkpt lat="44.340880" lon="-0.864170">
        <time>2017-06-24T08:48:13Z</time>
      </trkpt>
      <trkpt lat="44.341110" lon="-0.864030">
        <time>2017-06-24T08:48:14Z</time>
      </trkpt>
      <trkpt lat="44.341350" lon="-0.863880">
        <time>2017-06-24T08:48:15Z</time>
      </trkpt>
      <trkpt lat="44.341560" lon="-0.863740">
        <time>2017-06-24T08:48:16Z</time>
      </trkpt>
      <trkpt lat="44.341790" lon="-0.863590">
        <time>2017-06-24T08:48:17Z</time>
      </trkpt>
      <trkpt lat="44.342010" lon="-0.863440">
        <time>2017-06-24T08:48:18Z</time>
      </trkpt>
      <trkpt lat="44.342230" lon="-0.863280">
        <time>2017-06-24T08:48:19Z</time>
      </trkpt>
      <trkpt lat="44.342460" lon="-0.863120">
        <time>2017-06-24T08:48:20Z</time>
      </trkpt>
      <trkpt lat="44.342660" lon="-0.862990">
        <time>2017-06-24T08:48:21Z</time>
      </trkpt>
      <trkpt lat="44.342870" lon="-0.862850">
        <time>2017-06-24T08:48:22Z</time>
      </trkpt>
      <trkpt lat="44.343090" lon="-0.862700">
        <time>2017-06-24T08:48:23Z</time>
      </trkpt>
      <trkpt lat="44.343270" lon="-0.862580">
        <time>2017-06-24T08:48:24Z</time>
      </trkpt>
      <trkpt lat="44.343460" lon="-0.862460">
        <time>2017-06-24T08:48:25Z</time>
      </trkpt>
      <trkpt lat="44.343660" lon="-0.862330">
        <time>2017-06-24T08:48:26Z</time>
      </trkpt>
      <trkpt lat="44.343830" lon="-0.862210">
        <time>2017-06-24T08:48:27Z</time>
      </trkpt>
      <trkpt lat="44.344030" lon="-0.862090">
        <time>2017-06-24T08:48:28Z</time>
      </trkpt>
      <trkpt lat="44.344210" lon="-0.861970">
        <time>2017-06-24T08:48:29Z</time>
      </trkpt>
      <trkpt lat="44.344390" lon="-0.861850">
        <time>2017-06-24T08:48:30Z</time>
      </trkpt>
      <trkpt lat="44.344570" lon="-0.861720">
        <time>2017-06-24T08:48:31Z</time>
      </trkpt>
      <trkpt lat="44.344730" lon="-0.861620">
        <time>2017-06-24T08:48:32Z</time>
      </trkpt>
      <trkpt lat="44.344900" lon="-0.861500">
        <time>2017-06-24T08:48:33Z</time>
      </trkpt>
      <trkpt lat="44.345050" lon="-0.861390">
        <time>2017-06-24T08:48:34Z</time>
      </trkpt>
      <trkpt lat="44.345200" lon="-0.861280">
        <time>2017-06-24T08:48:35Z</time>
      </trkpt>
      <trkpt lat="44.345350" lon="-0.861180">
        <time>2017-06-24T08:48:36Z</time>
      </trkpt>
      <trkpt lat="44.345460" lon="-0.861090">
        <time>2017-06-24T08:48:37Z</time>
      </trkpt>
      <trkpt lat="44.345590" lon="-0.861000">
        <time>2017-06-24T08:48:38Z</time>
      </trkpt>
      <trkpt lat="44.345710" lon="-0.860910">
        <time>2017-06-24T08:48:39Z</time>
      </trkpt>
      <trkpt lat="44.345810" lon="-0.860830">
        <time>2017-06-24T08:48:40Z</time>
      </trkpt>
      <trkpt lat="44.345920" lon="-0.860750">
        <time>2017-06-24T08:48:41Z</time>
      </trkpt>
      <trkpt lat="44.346020" lon="-0.860670">
        <time>2017-06-24T08:48:42Z</time>
      </trkpt>
      <trkpt lat="44.346110" lon="-0.860600">
        <time>2017-06-24T08:48:43Z</time>
      </trkpt>
      <trkpt lat="44.346190" lon="-0.860530">
        <time>2017-06-24T08:48:44Z</time>
      </trkpt>
      <trkpt lat="44.346260" lon="-0.860470">
        <time>2017-06-24T08:48:45Z</time>
      </trkpt>
      <trkpt lat="44.346330" lon="-0.860420">
        <time>2017-06-24T08:48:46Z</time>
      </trkpt>
      <trkpt lat="44.346390" lon="-0.860360">
        <time>2017-06-24T08:48:47Z</time>
      </trkpt>
      <trkpt lat="44.346440" lon="-0.860330">
        <time>2017-06-24T08:48:48Z</time>
      </trkpt>
      <trkpt lat="44.346480" lon="-0.860300">
        <time>2017-06-24T08:48:49Z</time>
      </trkpt>
      <trkpt lat="44.346510" lon="-0.860270">
        <time>2017-06-24T08:48:50Z</time>
      </trkpt>
      <trkpt lat="44.346540" lon="-0.860250">
        <time>2017-06-24T08:48:51Z</time>
      </trkpt>
      <trkpt lat="44.346560" lon="-0.860240">
        <time>2017-06-24T08:48:52Z</time>
      </trkpt>
      <trkpt lat="44.346570" lon="-0.860240">
        <time>2017-06-24T08:48:53Z</time>
      </trkpt>
      <trkpt lat="44.346580" lon="-0.860230">
        <time>2017-06-24T08:48:54Z</time>
      </trkpt>
      <trkpt lat="44.346590" lon="-0.860230">
        <time>2017-06-24T08:48:55Z</time>
      </trkpt>
      <trkpt lat="44.346590" lon="-0.860220">
        <time>2017-06-24T08:48:56Z</time>
      </trkpt>
      <trkpt lat="44.346600" lon="-0.860220">
        <time>2017-06-24T08:48:57Z</time>
      </trkpt>
      <trkpt lat="44.346610" lon="-0.860210">
        <time>2017-06-24T08:48:58Z</time>
      </trkpt>
      <trkpt lat="44.346630" lon="-0.860200">
        <time>2017-06-24T08:48:59Z</time>
      </trkpt>
      <trkpt lat="44.346630" lon="-0.860200">
        <time>2017-06-24T08:49:00Z</time>
      </trkpt>
      <trkpt lat="44.346640" lon="-0.860190">
        <time>2017-06-24T08:49:01Z</time>
      </trkpt>
      <trkpt lat="44.346650" lon="-0.860190">
        <time>2017-06-24T08:49:02Z</time>
      </trkpt>
      <trkpt lat="44.346650" lon="-0.860190">
        <time>2017-06-24T08:49:03Z</time>
      </trkpt>
      <trkpt lat="44.346660" lon="-0.860180">
        <time>2017-06-24T08:49:04Z</time>
      </trkpt>
      <trkpt lat="44.346660" lon="-0.860180">
        <time>2017-06-24T08:49:05Z</time>
      </trkpt>
      <trkpt lat="44.346660" lon="-0.860180">
        <time>2017-06-24T08:49:06Z</time>
      </trkpt>
      <trkpt lat="44.346660" lon="-0.860180">
        <time>2017-06-24T08:49:07Z</time>
      </trkpt>
      <trkpt lat="44.346660" lon="-0.860180">
        <time>2017-06-24T08:49:08Z</time>
      </trkpt>
      <trkpt lat="44.346660" lon="-0.860180">
        <time>2017-06-24T08:49:09Z</time>
      </trkpt>
      <trkpt lat="44.346660" lon="-0.860180">
        <time>2017-06-24T08:49:10Z</time>
      </trkpt>
      <trkpt lat="44.346660" lon="-0.860180">
        <time>2017-06-24T08:49:11Z</time>
      </trkpt>
      <trkpt lat="44.346660" lon="-0.860180">
        <time>2017-06-24T08:49:12Z</time>
      </trkpt>
      <trkpt lat="44.346660" lon="-0.860180">
        <time>2017-06-24T08:49:13Z</time>
      </trkpt>
      <trkpt lat="44.346660" lon="-0.860180">
        <time>2017-06-24T08:49:14Z</time>
      </trkpt>
      <trkpt lat="44.346660" lon="-0.860180">
        <time>2017-06-24T08:49:15Z</time>
      </trkpt>
      <trkpt lat="44.346660" lon="-0.860180">
        <time>2017-06-24T08:49:16Z</time>
      </trkpt>
      <trkpt lat="44.346660" lon="-0.860180">
        <time>2017-06-24T08:49:17Z</time>
      </trkpt>
      <trkpt lat="44.346650" lon="-0.860190">
        <time>2017-06-24T08:49:18Z</time>
      </trkpt>
      <trkpt lat="44.346650" lon="-0.860190">
        <time>2017-06-24T08:49:19Z</time>
      </trkpt>
      <trkpt lat="44.346650" lon="-0.860190">
        <time>2017-06-24T08:49:20Z</time>
      </trkpt>
      <trkpt lat="44.346660" lon="-0.860180">
        <time>2017-06-24T08:49:21Z</time>
      </trkpt>
      <trkpt lat="44.346670" lon="-0.860170">
        <time>2017-06-24T08:49:22Z</time>
      </trkpt>
      <trkpt lat="44.346680" lon="-0.860160">
        <time>2017-06-24T08:49:23Z</time>
      </trkpt>
      <trkpt lat="44.346690" lon="-0.860160">
        <time>2017-06-24T08:49:24Z</time>
      </trkpt>
      <trkpt lat="44.346690" lon="-0.860150">
        <time>2017-06-24T08:49:25Z</time>
      </trkpt>
      <trkpt lat="44.346700" lon="-0.860150">
        <time>2017-06-24T08:49:26Z</time>
      </trkpt>
      <trkpt lat="44.346700" lon="-0.860150">
        <time>2017-06-24T08:49:27Z</time>
      </trkpt>
      <trkpt lat="44.346700" lon="-0.860150">
        <time>2017-06-24T08:49:28Z</time>
      </trkpt>
      <trkpt lat="44.346700" lon="-0.860150">
        <time>2017-06-24T08:49:29Z</time>
      </trkpt>
      <trkpt lat="44.346700" lon="-0.860150">
        <time>2017-06-24T08:49:30Z</time>
      </trkpt>
      <trkpt lat="44.346700" lon="-0.860150">
        <time>2017-06-24T08:49:31Z</time>
      </trkpt>
      <trkpt lat="44.346700" lon="-0.860150">
        <time>2017-06-24T08:49:32Z</time>
      </trkpt>
      <trkpt lat="44.346700" lon="-0.860150">
        <time>2017-06-24T08:49:33Z</time>
      </trkpt>
      <trkpt lat="44.346690" lon="-0.860150">
        <time>2017-06-24T08:49:34Z</time>
      </trkpt>
      <trkpt lat="44.346690" lon="-0.860140">
        <time>2017-06-24T08:49:35Z</time>
      </trkpt>
      <trkpt lat="44.346700" lon="-0.860130">
        <time>2017-06-24T08:49:36Z</time>
      </trkpt>
      <trkpt lat="44.346720" lon="-0.860120">
        <time>2017-06-24T08:49:37Z</time>
      </trkpt>
      <trkpt lat="44.346730" lon="-0.860110">
        <time>2017-06-24T08:49:38Z</time>
      </trkpt>
      <trkpt lat="44.346730" lon="-0.860110">
        <time>2017-06-24T08:49:39Z</time>
      </trkpt>
      <trkpt lat="44.346730" lon="-0.860110">
        <time>2017-06-24T08:49:40Z</time>
      </trkpt>
      <trkpt lat="44.346730" lon="-0.860110">
        <time>2017-06-24T08:49:41Z</time>
      </trkpt>
      <trkpt lat="44.346730" lon="-0.860110">
        <time>2017-06-24T08:49:42Z</time>
      </trkpt>
      <trkpt lat="44.346730" lon="-0.860110">
        <time>2017-06-24T08:49:43Z</time>
      </trkpt>
      <trkpt lat="44.346730" lon="-0.860110">
        <time>2017-06-24T08:49:44Z</time>
      </trkpt>
      <trkpt lat="44.346730" lon="-0.860110">
        <time>2017-06-24T08:49:45Z</time>
      </trkpt>
      <trkpt lat="44.346740" lon="-0.860100">
        <time>2017-06-24T08:49:46Z</time>
      </trkpt>
      <trkpt lat="44.346750" lon="-0.860100">
        <time>2017-06-24T08:49:47Z</time>
      </trkpt>
      <trkpt lat="44.346760" lon="-0.860090">
        <time>2017-06-24T08:49:48Z</time>
      </trkpt>
      <trkpt lat="44.346780" lon="-0.860080">
        <time>2017-06-24T08:49:49Z</time>
      </trkpt>
      <trkpt lat="44.346790" lon="-0.860070">
        <time>2017-06-24T08:49:50Z</time>
      </trkpt>
      <trkpt lat="44.346790" lon="-0.860070">
        <time>2017-06-24T08:49:51Z</time>
      </trkpt>
      <trkpt lat="44.346790" lon="-0.860070">
        <time>2017-06-24T08:49:52Z</time>
      </trkpt>
      <trkpt lat="44.346790" lon="-0.860070">
        <time>2017-06-24T08:49:53Z</time>
      </trkpt>
      <trkpt lat="44.346790" lon="-0.860070">
        <time>2017-06-24T08:49:54Z</time>
      </trkpt>
      <trkpt lat="44.346790" lon="-0.860070">
        <time>2017-06-24T08:49:55Z</time>
      </trkpt>
      <trkpt lat="44.346790" lon="-0.860070">
        <time>2017-06-24T08:49:56Z</time>
      </trkpt>
      <trkpt lat="44.346800" lon="-0.860070">
        <time>2017-06-24T08:49:57Z</time>
      </trkpt>
      <trkpt lat="44.346800" lon="-0.860070">
        <time>2017-06-24T08:49:58Z</time>
      </trkpt>
      <trkpt lat="44.346820" lon="-0.860060">
        <time>2017-06-24T08:49:59Z</time>
      </trkpt>
      <trkpt lat="44.346840" lon="-0.860050">
        <time>2017-06-24T08:50:00Z</time>
      </trkpt>
      <trkpt lat="44.346860" lon="-0.860030">
        <time>2017-06-24T08:50:01Z</time>
      </trkpt>
      <trkpt lat="44.346890" lon="-0.860020">
        <time>2017-06-24T08:50:02Z</time>
      </trkpt>
      <trkpt lat="44.346900" lon="-0.860010">
        <time>2017-06-24T08:50:03Z</time>
      </trkpt>
      <trkpt lat="44.346910" lon="-0.860000">
        <time>2017-06-24T08:50:04Z</time>
      </trkpt>
      <trkpt lat="44.346910" lon="-0.860000">
        <time>2017-06-24T08:50:05Z</time>
      </trkpt>
      <trkpt lat="44.346910" lon="-0.860000">
        <time>2017-06-24T08:50:06Z</time>
      </trkpt>
      <trkpt lat="44.346910" lon="-0.860000">
        <time>2017-06-24T08:50:07Z</time>
      </trkpt>
      <trkpt lat="44.346910" lon="-0.860000">
        <time>2017-06-24T08:50:08Z</time>
      </trkpt>
      <trkpt lat="44.346910" lon="-0.860000">
        <time>2017-06-24T08:50:09Z</time>
      </trkpt>
      <trkpt lat="44.346910" lon="-0.860000">
        <time>2017-06-24T08:50:10Z</time>
      </trkpt>
      <trkpt lat="44.346910" lon="-0.860000">
        <time>2017-06-24T08:50:11Z</time>
      </trkpt>
      <trkpt lat="44.346910" lon="-0.860000">
        <time>2017-06-24T08:50:12Z</time>
      </trkpt>
      <trkpt lat="44.346910" lon="-0.860000">
        <time>2017-06-24T08:50:13Z</time>
      </trkpt>
      <trkpt lat="44.346910" lon="-0.860000">
        <time>2017-06-24T08:50:14Z</time>
      </trkpt>
      <trkpt lat="44.346910" lon="-0.860000">
        <time>2017-06-24T08:50:15Z</time>
      </trkpt>
      <trkpt lat="44.346910" lon="-0.860000">
        <time>2017-06-24T08:50:16Z</time>
      </trkpt>
      <trkpt lat="44.346910" lon="-0.860000">
        <time>2017-06-24T08:50:17Z</time>
      </trkpt>
      <trkpt lat="44.346920" lon="-0.860000">
        <time>2017-06-24T08:50:18Z</time>
      </trkpt>
      <trkpt lat="44.346920" lon="-0.860000">
        <time>2017-06-24T08:50:19Z</time>
      </trkpt>
      <trkpt lat="44.346930" lon="-0.859990">
        <time>2017-06-24T08:50:20Z</time>
      </trkpt>
      <trkpt lat="44.346930" lon="-0.859990">
        <time>2017-06-24T08:50:21Z</time>
      </trkpt>
      <trkpt lat="44.346930" lon="-0.859990">
        <time>2017-06-24T08:50:22Z</time>
      </trkpt>
      <trkpt lat="44.346930" lon="-0.859990">
        <time>2017-06-24T08:50:23Z</time>
      </trkpt>
      <trkpt lat="44.346930" lon="-0.859990">
        <time>2017-06-24T08:50:24Z</time>
      </trkpt>
      <trkpt lat="44.346930" lon="-0.859990">
        <time>2017-06-24T08:50:25Z</time>
      </trkpt>
      <trkpt lat="44.346930" lon="-0.859990">
        <time>2017-06-24T08:50:26Z</time>
      </trkpt>
      <trkpt lat="44.346930" lon="-0.859990">
        <time>2017-06-24T08:50:27Z</time>
      </trkpt>
      <trkpt lat="44.346930" lon="-0.859990">
        <time>2017-06-24T08:50:28Z</time>
      </trkpt>
      <trkpt lat="44.346930" lon="-0.859990">
        <time>2017-06-24T08:50:29Z</time>
      </trkpt>
      <trkpt lat="44.346930" lon="-0.859990">
        <time>2017-06-24T08:50:30Z</time>
      </trkpt>
      <trkpt lat="44.346930" lon="-0.859990">
        <time>2017-06-24T08:50:31Z</time>
      </trkpt>
      <trkpt lat="44.346930" lon="-0.859990">
        <time>2017-06-24T08:50:32Z</time>
      </trkpt>
      <trkpt lat="44.346930" lon="-0.859990">
        <time>2017-06-24T08:50:33Z</time>
      </trkpt>
      <trkpt lat="44.346930" lon="-0.859990">
        <time>2017-06-24T08:50:34Z</time>
      </trkpt>
      <trkpt lat="44.346930" lon="-0.859990">
        <time>2017-06-24T08:50:35Z</time>
      </trkpt>
      <trkpt lat="44.346930" lon="-0.859990">
        <time>2017-06-24T08:50:36Z</time>
      </trkpt>
      <trkpt lat="44.346930" lon="-0.859990">
        <time>2017-06-24T08:50:37Z</time>
      </trkpt>
      <trkpt lat="44.346930" lon="-0.859990">
        <time>2017-06-24T08:50:38Z</time>
      </trkpt>
      <trkpt lat="44.346930" lon="-0.859990">
        <time>2017-06-24T08:50:39Z</time>
      </trkpt>
      <trkpt lat="44.346930" lon="-0.859990">
        <time>2017-06-24T08:50:40Z</time>
      </trkpt>
      <trkpt lat="44.346930" lon="-0.859990">
        <time>2017-06-24T08:50:41Z</time>
      </trkpt>
      <trkpt lat="44.346930" lon="-0.859990">
        <time>2017-06-24T08:50:42Z</time>
      </trkpt>
      <trkpt lat="44.346930" lon="-0.859990">
        <time>2017-06-24T08:50:43Z</time>
      </trkpt>
      <trkpt lat="44.346930" lon="-0.859990">
        <time>2017-06-24T08:50:44Z</time>
      </trkpt>
      <trkpt lat="44.346940" lon="-0.859990">
        <time>2017-06-24T08:50:45Z</time>
      </trkpt>
      <trkpt lat="44.346950" lon="-0.859980">
        <time>2017-06-24T08:50:46Z</time>
      </trkpt>
      <trkpt lat="44.346980" lon="-0.859960">
        <time>2017-06-24T08:50:47Z</time>
      </trkpt>
      <trkpt lat="44.347020" lon="-0.859940">
        <time>2017-06-24T08:50:48Z</time>
      </trkpt>
      <trkpt lat="44.347090" lon="-0.859890">
        <time>2017-06-24T08:50:49Z</time>
      </trkpt>
      <trkpt lat="44.347140" lon="-0.859860">
        <time>2017-06-24T08:50:50Z</time>
      </trkpt>
      <trkpt lat="44.347200" lon="-0.859820">
        <time>2017-06-24T08:50:51Z</time>
      </trkpt>
      <trkpt lat="44.347260" lon="-0.859790">
        <time>2017-06-24T08:50:52Z</time>
      </trkpt>
      <trkpt lat="44.347330" lon="-0.859750">
        <time>2017-06-24T08:50:53Z</time>
      </trkpt>
      <trkpt lat="44.347420" lon="-0.859690">
        <time>2017-06-24T08:50:54Z</time>
      </trkpt>
      <trkpt lat="44.347530" lon="-0.859630">
        <time>2017-06-24T08:50:55Z</time>
      </trkpt>
      <trkpt lat="44.347620" lon="-0.859570">
        <time>2017-06-24T08:50:56Z</time>
      </trkpt>
      <trkpt lat="44.347730" lon="-0.859510">
        <time>2017-06-24T08:50:57Z</time>
      </trkpt>
      <trkpt lat="44.347850" lon="-0.859440">
        <time>2017-06-24T08:50:58Z</time>
      </trkpt>
      <trkpt lat="44.347980" lon="-0.859370">
        <time>2017-06-24T08:50:59Z</time>
      </trkpt>
      <trkpt lat="44.348130" lon="-0.859290">
        <time>2017-06-24T08:51:00Z</time>
      </trkpt>
      <trkpt lat="44.348270" lon="-0.859220">
        <time>2017-06-24T08:51:01Z</time>
      </trkpt>
      <trkpt lat="44.348420" lon="-0.859140">
        <time>2017-06-24T08:51:02Z</time>
      </trkpt>
      <trkpt lat="44.348570" lon="-0.859060">
        <time>2017-06-24T08:51:03Z</time>
      </trkpt>
      <trkpt lat="44.348710" lon="-0.858980">
        <time>2017-06-24T08:51:04Z</time>
      </trkpt>
      <trkpt lat="44.348870" lon="-0.858890">
        <time>2017-06-24T08:51:05Z</time>
      </trkpt>
      <trkpt lat="44.349040" lon="-0.858800">
        <time>2017-06-24T08:51:06Z</time>
      </trkpt>
      <trkpt lat="44.349200" lon="-0.858710">
        <time>2017-06-24T08:51:07Z</time>
      </trkpt>
      <trkpt lat="44.349390" lon="-0.858600">
        <time>2017-06-24T08:51:08Z</time>
      </trkpt>
      <trkpt lat="44.349560" lon="-0.858500">
        <time>2017-06-24T08:51:09Z</time>
      </trkpt>
      <trkpt lat="44.349740" lon="-0.858390">
        <time>2017-06-24T08:51:10Z</time>
      </trkpt>
      <trkpt lat="44.349940" lon="-0.858270">
        <time>2017-06-24T08:51:11Z</time>
      </trkpt>
      <trkpt lat="44.350130" lon="-0.858150">
        <time>2017-06-24T08:51:12Z</time>
      </trkpt>
      <trkpt lat="44.350330" lon="-0.858010">
        <time>2017-06-24T08:51:13Z</time>
      </trkpt>
      <trkpt lat="44.350540" lon="-0.857880">
        <time>2017-06-24T08:51:14Z</time>
      </trkpt>
      <trkpt lat="44.350740" lon="-0.857740">
        <time>2017-06-24T08:51:15Z</time>
      </trkpt>
      <trkpt lat="44.350950" lon="-0.857600">
        <time>2017-06-24T08:51:16Z</time>
      </trkpt>
      <trkpt lat="44.351130" lon="-0.857490">
        <time>2017-06-24T08:51:17Z</time>
      </trkpt>
      <trkpt lat="44.351310" lon="-0.857380">
        <time>2017-06-24T08:51:18Z</time>
      </trkpt>
      <trkpt lat="44.351500" lon="-0.857250">
        <time>2017-06-24T08:51:19Z</time>
      </trkpt>
      <trkpt lat="44.351680" lon="-0.857140">
        <time>2017-06-24T08:51:20Z</time>
      </trkpt>
      <trkpt lat="44.351870" lon="-0.857020">
        <time>2017-06-24T08:51:21Z</time>
      </trkpt>
      <trkpt lat="44.352080" lon="-0.856890">
        <time>2017-06-24T08:51:22Z</time>
      </trkpt>
      <trkpt lat="44.352270" lon="-0.856760">
        <time>2017-06-24T08:51:23Z</time>
      </trkpt>
      <trkpt lat="44.352500" lon="-0.856610">
        <time>2017-06-24T08:51:24Z</time>
      </trkpt>
      <trkpt lat="44.352710" lon="-0.856480">
        <time>2017-06-24T08:51:25Z</time>
      </trkpt>
      <trkpt lat="44.352940" lon="-0.856340">
        <time>2017-06-24T08:51:26Z</time>
      </trkpt>
      <trkpt lat="44.353190" lon="-0.856180">
        <time>2017-06-24T08:51:27Z</time>
      </trkpt>
      <trkpt lat="44.353410" lon="-0.856030">
        <time>2017-06-24T08:51:28Z</time>
      </trkpt>
      <trkpt lat="44.353650" lon="-0.855880">
        <time>2017-06-24T08:51:29Z</time>
      </trkpt>
      <trkpt lat="44.353890" lon="-0.855720">
        <time>2017-06-24T08:51:30Z</time>
      </trkpt>
      <trkpt lat="44.354140" lon="-0.855560">
        <time>2017-06-24T08:51:31Z</time>
      </trkpt>
      <trkpt lat="44.354400" lon="-0.855390">
        <time>2017-06-24T08:51:32Z</time>
      </trkpt>
      <trkpt lat="44.354640" lon="-0.855240">
        <time>2017-06-24T08:51:33Z</time>
      </trkpt>
      <trkpt lat="44.354870" lon="-0.855080">
        <time>2017-06-24T08:51:34Z</time>
      </trkpt>
      <trkpt lat="44.355120" lon="-0.854920">
        <time>2017-06-24T08:51:35Z</time>
      </trkpt>
      <trkpt lat="44.355340" lon="-0.854780">
        <time>2017-06-24T08:51:36Z</time>
      </trkpt>
      <trkpt lat="44.355580" lon="-0.854610">
        <time>2017-06-24T08:51:37Z</time>
      </trkpt>
      <trkpt lat="44.355840" lon="-0.854440">
        <time>2017-06-24T08:51:38Z</time>
      </trkpt>
      <trkpt lat="44.356070" lon="-0.854290">
        <time>2017-06-24T08:51:39Z</time>
      </trkpt>
      <trkpt lat="44.356310" lon="-0.854120">
        <time>2017-06-24T08:51:40Z</time>
      </trkpt>
      <trkpt lat="44.356520" lon="-0.853980">
        <time>2017-06-24T08:51:41Z</time>
      </trkpt>
      <trkpt lat="44.356730" lon="-0.853840">
        <time>2017-06-24T08:51:42Z</time>
      </trkpt>
      <trkpt lat="44.356940" lon="-0.853690">
        <time>2017-06-24T08:51:43Z</time>
      </trkpt>
      <trkpt lat="44.357110" lon="-0.853570">
        <time>2017-06-24T08:51:44Z</time>
      </trkpt>
      <trkpt lat="44.357280" lon="-0.853450">
        <time>2017-06-24T08:51:45Z</time>
      </trkpt>
      <trkpt lat="44.357440" lon="-0.853330">
        <time>2017-06-24T08:51:46Z</time>
      </trkpt>
      <trkpt lat="44.357590" lon="-0.853210">
        <time>2017-06-24T08:51:47Z</time>
      </trkpt>
      <trkpt lat="44.357740" lon="-0.853060">
        <time>2017-06-24T08:51:48Z</time>
      </trkpt>
      <trkpt lat="44.357860" lon="-0.852930">
        <time>2017-06-24T08:51:49Z</time>
      </trkpt>
      <trkpt lat="44.357970" lon="-0.852790">
        <time>2017-06-24T08:51:50Z</time>
      </trkpt>
      <trkpt lat="44.358080" lon="-0.852640">
        <time>2017-06-24T08:51:51Z</time>
      </trkpt>
      <trkpt lat="44.358160" lon="-0.852510">
        <time>2017-06-24T08:51:52Z</time>
      </trkpt>
      <trkpt lat="44.358240" lon="-0.852380">
        <time>2017-06-24T08:51:53Z</time>
      </trkpt>
      <trkpt lat="44.358310" lon="-0.852260">
        <time>2017-06-24T08:51:54Z</time>
      </trkpt>
      <trkpt lat="44.358370" lon="-0.852150">
        <time>2017-06-24T08:51:55Z</time>
      </trkpt>
      <trkpt lat="44.358420" lon="-0.852030">
        <time>2017-06-24T08:51:56Z</time>
      </trkpt>
      <trkpt lat="44.358450" lon="-0.851930">
        <time>2017-06-24T08:51:57Z</time>
      </trkpt>
      <trkpt lat="44.358470" lon="-0.851830">
        <time>2017-06-24T08:51:58Z</time>
      </trkpt>
      <trkpt lat="44.358480" lon="-0.851720">
        <time>2017-06-24T08:51:59Z</time>
      </trkpt>
      <trkpt lat="44.358490" lon="-0.851620">
        <time>2017-06-24T08:52:00Z</time>
      </trkpt>
      <trkpt lat="44.358480" lon="-0.851520">
        <time>2017-06-24T08:52:01Z</time>
      </trkpt>
      <trkpt lat="44.358490" lon="-0.851420">
        <time>2017-06-24T08:52:02Z</time>
      </trkpt>
      <trkpt lat="44.358510" lon="-0.851350">
        <time>2017-06-24T08:52:03Z</time>
      </trkpt>
      <trkpt lat="44.358560" lon="-0.851290">
        <time>2017-06-24T08:52:04Z</time>
      </trkpt>
      <trkpt lat="44.358610" lon="-0.851250">
        <time>2017-06-24T08:52:05Z</time>
      </trkpt>
      <trkpt lat="44.358660" lon="-0.851220">
        <time>2017-06-24T08:52:06Z</time>
      </trkpt>
      <trkpt lat="44.358700" lon="-0.851190">
        <time>2017-06-24T08:52:07Z</time>
      </trkpt>
      <trkpt lat="44.358730" lon="-0.851160">
        <time>2017-06-24T08:52:08Z</time>
      </trkpt>
      <trkpt lat="44.358760" lon="-0.851120">
        <time>2017-06-24T08:52:09Z</time>
      </trkpt>
      <trkpt lat="44.358770" lon="-0.851080">
        <time>2017-06-24T08:52:10Z</time>
      </trkpt>
      <trkpt lat="44.358780" lon="-0.851050">
        <time>2017-06-24T08:52:11Z</time>
      </trkpt>
      <trkpt lat="44.358790" lon="-0.851030">
        <time>2017-06-24T08:52:12Z</time>
      </trkpt>
      <trkpt lat="44.358800" lon="-0.851020">
        <time>2017-06-24T08:52:13Z</time>
      </trkpt>
      <trkpt lat="44.358810" lon="-0.851010">
        <time>2017-06-24T08:52:14Z</time>
      </trkpt>
      <trkpt lat="44.358810" lon="-0.851010">
        <time>2017-06-24T08:52:15Z</time>
      </trkpt>
      <trkpt lat="44.358810" lon="-0.851000">
        <time>2017-06-24T08:52:16Z</time>
      </trkpt>
      <trkpt lat="44.358820" lon="-0.850980">
        <time>2017-06-24T08:52:17Z</time>
      </trkpt>
      <trkpt lat="44.358830" lon="-0.850970">
        <time>2017-06-24T08:52:18Z</time>
      </trkpt>
      <trkpt lat="44.358830" lon="-0.850950">
        <time>2017-06-24T08:52:19Z</time>
      </trkpt>
      <trkpt lat="44.358840" lon="-0.850930">
        <time>2017-06-24T08:52:20Z</time>
      </trkpt>
      <trkpt lat="44.358840" lon="-0.850920">
        <time>2017-06-24T08:52:21Z</time>
      </trkpt>
      <trkpt lat="44.358860" lon="-0.850900">
        <time>2017-06-24T08:52:22Z</time>
      </trkpt>
      <trkpt lat="44.358870" lon="-0.850880">
        <time>2017-06-24T08:52:23Z</time>
      </trkpt>
      <trkpt lat="44.358890" lon="-0.850870">
        <time>2017-06-24T08:52:24Z</time>
      </trkpt>
      <trkpt lat="44.358920" lon="-0.850860">
        <time>2017-06-24T08:52:25Z</time>
      </trkpt>
      <trkpt lat="44.358970" lon="-0.850860">
        <time>2017-06-24T08:52:26Z</time>
      </trkpt>
      <trkpt lat="44.359030" lon="-0.850860">
        <time>2017-06-24T08:52:27Z</time>
      </trkpt>
      <trkpt lat="44.359100" lon="-0.850870">
        <time>2017-06-24T08:52:28Z</time>
      </trkpt>
      <trkpt lat="44.359170" lon="-0.850860">
        <time>2017-06-24T08:52:29Z</time>
      </trkpt>
      <trkpt lat="44.359250" lon="-0.850840">
        <time>2017-06-24T08:52:30Z</time>
      </trkpt>
      <trkpt lat="44.359350" lon="-0.850830">
        <time>2017-06-24T08:52:31Z</time>
      </trkpt>
      <trkpt lat="44.359430" lon="-0.850820">
        <time>2017-06-24T08:52:32Z</time>
      </trkpt>
      <trkpt lat="44.359520" lon="-0.850820">
        <time>2017-06-24T08:52:33Z</time>
      </trkpt>
      <trkpt lat="44.359590" lon="-0.850810">
        <time>2017-06-24T08:52:34Z</time>
      </trkpt>
      <trkpt lat="44.359670" lon="-0.850810">
        <time>2017-06-24T08:52:35Z</time>
      </trkpt>
      <trkpt lat="44.359740" lon="-0.850800">
        <time>2017-06-24T08:52:36Z</time>
      </trkpt>
      <trkpt lat="44.359800" lon="-0.850790">
        <time>2017-06-24T08:52:37Z</time>
      </trkpt>
      <trkpt lat="44.359870" lon="-0.850760">
        <time>2017-06-24T08:52:38Z</time>
      </trkpt>
      <trkpt lat="44.359930" lon="-0.850730">
        <time>2017-06-24T08:52:39Z</time>
      </trkpt>
      <trkpt lat="44.359980" lon="-0.850700">
        <time>2017-06-24T08:52:40Z</time>
      </trkpt>
      <trkpt lat="44.360040" lon="-0.850660">
        <time>2017-06-24T08:52:41Z</time>
      </trkpt>
      <trkpt lat="44.360100" lon="-0.850630">
        <time>2017-06-24T08:52:42Z</time>
      </trkpt>
      <trkpt lat="44.360150" lon="-0.850600">
        <time>2017-06-24T08:52:43Z</time>
      </trkpt>
      <trkpt lat="44.360210" lon="-0.850580">
        <time>2017-06-24T08:52:44Z</time>
      </trkpt>
      <trkpt lat="44.360260" lon="-0.850570">
        <time>2017-06-24T08:52:45Z</time>
      </trkpt>
      <trkpt lat="44.360310" lon="-0.850600">
        <time>2017-06-24T08:52:46Z</time>
      </trkpt>
      <trkpt lat="44.360370" lon="-0.850630">
        <time>2017-06-24T08:52:47Z</time>
      </trkpt>
      <trkpt lat="44.360420" lon="-0.850640">
        <time>2017-06-24T08:52:48Z</time>
      </trkpt>
      <trkpt lat="44.360460" lon="-0.850640">
        <time>2017-06-24T08:52:49Z</time>
      </trkpt>
      <trkpt lat="44.360520" lon="-0.850630">
        <time>2017-06-24T08:52:50Z</time>
      </trkpt>
      <trkpt lat="44.360570" lon="-0.850600">
        <time>2017-06-24T08:52:51Z</time>
      </trkpt>
      <trkpt lat="44.360640" lon="-0.850560">
        <time>2017-06-24T08:52:52Z</time>
      </trkpt>
      <trkpt lat="44.360690" lon="-0.850510">
        <time>2017-06-24T08:52:53Z</time>
      </trkpt>
      <trkpt lat="44.360760" lon="-0.850470">
        <time>2017-06-24T08:52:54Z</time>
      </trkpt>
      <trkpt lat="44.360830" lon="-0.850420">
        <time>2017-06-24T08:52:55Z</time>
      </trkpt>
      <trkpt lat="44.360910" lon="-0.850370">
        <time>2017-06-24T08:52:56Z</time>
      </trkpt>
      <trkpt lat="44.360990" lon="-0.850310">
        <time>2017-06-24T08:52:57Z</time>
      </trkpt>
      <trkpt lat="44.361070" lon="-0.850240">
        <time>2017-06-24T08:52:58Z</time>
      </trkpt>
      <trkpt lat="44.361130" lon="-0.850160">
        <time>2017-06-24T08:52:59Z</time>
      </trkpt>
      <trkpt lat="44.361180" lon="-0.850040">
        <time>2017-06-24T08:53:00Z</time>
      </trkpt>
      <trkpt lat="44.361200" lon="-0.849940">
        <time>2017-06-24T08:53:01Z</time>
      </trkpt>
      <trkpt lat="44.361230" lon="-0.849850">
        <time>2017-06-24T08:53:02Z</time>
      </trkpt>
      <trkpt lat="44.361260" lon="-0.849750">
        <time>2017-06-24T08:53:03Z</time>
      </trkpt>
      <trkpt lat="44.361280" lon="-0.849660">
        <time>2017-06-24T08:53:04Z</time>
      </trkpt>
      <trkpt lat="44.361300" lon="-0.849570">
        <time>2017-06-24T08:53:05Z</time>
      </trkpt>
      <trkpt lat="44.361320" lon="-0.849470">
        <time>2017-06-24T08:53:06Z</time>
      </trkpt>
      <trkpt lat="44.361350" lon="-0.849390">
        <time>2017-06-24T08:53:07Z</time>
      </trkpt>
      <trkpt lat="44.361380" lon="-0.849310">
        <time>2017-06-24T08:53:08Z</time>
      </trkpt>
      <trkpt lat="44.361420" lon="-0.849250">
        <time>2017-06-24T08:53:09Z</time>
      </trkpt>
      <trkpt lat="44.361450" lon="-0.849210">
        <time>2017-06-24T08:53:10Z</time>
      </trkpt>
      <trkpt lat="44.361480" lon="-0.849180">
        <time>2017-06-24T08:53:11Z</time>
      </trkpt>
      <trkpt lat="44.361500" lon="-0.849170">
        <time>2017-06-24T08:53:12Z</time>
      </trkpt>
      <trkpt lat="44.361500" lon="-0.849170">
        <time>2017-06-24T08:53:13Z</time>
      </trkpt>
      <trkpt lat="44.361500" lon="-0.849170">
        <time>2017-06-24T08:53:14Z</time>
      </trkpt>
      <trkpt lat="44.361500" lon="-0.849180">
        <time>2017-06-24T08:53:15Z</time>
      </trkpt>
      <trkpt lat="44.361500" lon="-0.849180">
        <time>2017-06-24T08:53:16Z</time>
      </trkpt>
      <trkpt lat="44.361500" lon="-0.849180">
        <time>2017-06-24T08:53:17Z</time>
      </trkpt>
      <trkpt lat="44.361500" lon="-0.849180">
        <time>2017-06-24T08:53:18Z</time>
      </trkpt>
      <trkpt lat="44.361500" lon="-0.849180">
        <time>2017-06-24T08:53:19Z</time>
      </trkpt>
      <trkpt lat="44.361500" lon="-0.849180">
        <time>2017-06-24T08:53:20Z</time>
      </trkpt>
      <trkpt lat="44.361500" lon="-0.849180">
        <time>2017-06-24T08:53:21Z</time>
      </trkpt>
      <trkpt lat="44.361500" lon="-0.849180">
        <time>2017-06-24T08:53:22Z</time>
      </trkpt>
      <trkpt lat="44.361500" lon="-0.849180">
        <time>2017-06-24T08:53:23Z</time>
      </trkpt>
      <trkpt lat="44.361500" lon="-0.849180">
        <time>2017-06-24T08:53:24Z</time>
      </trkpt>
      <trkpt lat="44.361500" lon="-0.849180">
        <time>2017-06-24T08:53:25Z</time>
      </trkpt>
      <trkpt lat="44.361500" lon="-0.849180">
        <time>2017-06-24T08:53:26Z</time>
      </trkpt>
      <trkpt lat="44.361500" lon="-0.849180">
        <time>2017-06-24T08:53:27Z</time>
      </trkpt>
      <trkpt lat="44.361500" lon="-0.849180">
        <time>2017-06-24T08:53:28Z</time>
      </trkpt>
      <trkpt lat="44.361500" lon="-0.849180">
        <time>2017-06-24T08:53:29Z</time>
      </trkpt>
      <trkpt lat="44.361500" lon="-0.849180">
        <time>2017-06-24T08:53:30Z</time>
      </trkpt>
      <trkpt lat="44.361500" lon="-0.849180">
        <time>2017-06-24T08:53:31Z</time>
      </trkpt>
      <trkpt lat="44.361500" lon="-0.849180">
        <time>2017-06-24T08:53:32Z</time>
      </trkpt>
      <trkpt lat="44.361500" lon="-0.849180">
        <time>2017-06-24T08:53:33Z</time>
      </trkpt>
      <trkpt lat="44.361500" lon="-0.849180">
        <time>2017-06-24T08:53:34Z</time>
      </trkpt>
      <trkpt lat="44.361500" lon="-0.849180">
        <time>2017-06-24T08:53:35Z</time>
      </trkpt>
      <trkpt lat="44.361500" lon="-0.849180">
        <time>2017-06-24T08:53:36Z</time>
      </trkpt>
      <trkpt lat="44.361500" lon="-0.849180">
        <time>2017-06-24T08:53:37Z</time>
      </trkpt>
      <trkpt lat="44.361500" lon="-0.849180">
        <time>2017-06-24T08:53:38Z</time>
      </trkpt>
      <trkpt lat="44.361500" lon="-0.849180">
        <time>2017-06-24T08:53:39Z</time>
      </trkpt>
      <trkpt lat="44.361500" lon="-0.849180">
        <time>2017-06-24T08:53:40Z</time>
      </trkpt>
      <trkpt lat="44.361500" lon="-0.849180">
        <time>2017-06-24T08:53:41Z</time>
      </trkpt>
      <trkpt lat="44.361500" lon="-0.849180">
        <time>2017-06-24T08:53:42Z</time>
      </trkpt>
      <trkpt lat="44.361500" lon="-0.849180">
        <time>2017-06-24T08:53:43Z</time>
      </trkpt>
      <trkpt lat="44.361500" lon="-0.849180">
        <time>2017-06-24T08:53:44Z</time>
      </trkpt>
      <trkpt lat="44.361500" lon="-0.849180">
        <time>2017-06-24T08:53:45Z</time>
      </trkpt>
      <trkpt lat="44.361500" lon="-0.849180">
        <time>2017-06-24T08:53:46Z</time>
      </trkpt>
      <trkpt lat="44.361500" lon="-0.849180">
        <time>2017-06-24T08:53:47Z</time>
      </trkpt>
      <trkpt lat="44.361500" lon="-0.849180">
        <time>2017-06-24T08:53:48Z</time>
      </trkpt>
      <trkpt lat="44.361500" lon="-0.849180">
        <time>2017-06-24T08:53:49Z</time>
      </trkpt>
      <trkpt lat="44.361500" lon="-0.849180">
        <time>2017-06-24T08:53:50Z</time>
      </trkpt>
      <trkpt lat="44.361500" lon="-0.849180">
        <time>2017-06-24T08:53:51Z</time>
      </trkpt>
      <trkpt lat="44.361500" lon="-0.849180">
        <time>2017-06-24T08:53:52Z</time>
      </trkpt>
      <trkpt lat="44.361500" lon="-0.849180">
        <time>2017-06-24T08:53:53Z</time>
      </trkpt>
      <trkpt lat="44.361500" lon="-0.849180">
        <time>2017-06-24T08:53:54Z</time>
      </trkpt>
      <trkpt lat="44.361500" lon="-0.849180">
        <time>2017-06-24T08:53:55Z</time>
      </trkpt>
      <trkpt lat="44.361500" lon="-0.849180">
        <time>2017-06-24T08:53:56Z</time>
      </trkpt>
      <trkpt lat="44.361500" lon="-0.849180">
        <time>2017-06-24T08:53:57Z</time>
      </trkpt>
      <trkpt lat="44.361500" lon="-0.849180">
        <time>2017-06-24T08:53:58Z</time>
      </trkpt>
      <trkpt lat="44.361500" lon="-0.849180">
        <time>2017-06-24T08:53:59Z</time>
      </trkpt>
      <trkpt lat="44.361500" lon="-0.849180">
        <time>2017-06-24T08:54:00Z</time>
      </trkpt>
      <trkpt lat="44.361500" lon="-0.849180">
        <time>2017-06-24T08:54:01Z</time>
      </trkpt>
      <trkpt lat="44.361500" lon="-0.849180">
        <time>2017-06-24T08:54:02Z</time>
      </trkpt>
      <trkpt lat="44.361500" lon="-0.849180">
        <time>2017-06-24T08:54:03Z</time>
      </trkpt>
      <trkpt lat="44.361500" lon="-0.849180">
        <time>2017-06-24T08:54:04Z</time>
      </trkpt>
      <trkpt lat="44.361500" lon="-0.849180">
        <time>2017-06-24T08:54:05Z</time>
      </trkpt>
      <trkpt lat="44.361500" lon="-0.849180">
        <time>2017-06-24T08:54:06Z</time>
      </trkpt>
      <trkpt lat="44.361500" lon="-0.849180">
        <time>2017-06-24T08:54:07Z</time>
      </trkpt>
      <trkpt lat="44.361500" lon="-0.849180">
        <time>2017-06-24T08:54:08Z</time>
      </trkpt>
      <trkpt lat="44.361500" lon="-0.849180">
        <time>2017-06-24T08:54:09Z</time>
      </trkpt>
      <trkpt lat="44.361500" lon="-0.849180">
        <time>2017-06-24T08:54:10Z</time>
      </trkpt>
      <trkpt lat="44.361500" lon="-0.849180">
        <time>2017-06-24T08:54:11Z</time>
      </trkpt>
      <trkpt lat="44.361500" lon="-0.849180">
        <time>2017-06-24T08:54:12Z</time>
      </trkpt>
      <trkpt lat="44.361500" lon="-0.849180">
        <time>2017-06-24T08:54:13Z</time>
      </trkpt>
      <trkpt lat="44.361500" lon="-0.849180">
        <time>2017-06-24T08:54:14Z</time>
      </trkpt>
      <trkpt lat="44.361500" lon="-0.849180">
        <time>2017-06-24T08:54:15Z</time>
      </trkpt>
      <trkpt lat="44.361500" lon="-0.849180">
        <time>2017-06-24T08:54:16Z</time>
      </trkpt>
      <trkpt lat="44.361500" lon="-0.849180">
        <time>2017-06-24T08:54:17Z</time>
      </trkpt>
      <trkpt lat="44.361500" lon="-0.849180">
        <time>2017-06-24T08:54:18Z</time>
      </trkpt>
      <trkpt lat="44.361500" lon="-0.849180">
        <time>2017-06-24T08:54:19Z</time>
      </trkpt>
      <trkpt lat="44.361500" lon="-0.849180">
        <time>2017-06-24T08:54:20Z</time>
      </trkpt>
      <trkpt lat="44.361500" lon="-0.849180">
        <time>2017-06-24T08:54:21Z</time>
      </trkpt>
      <trkpt lat="44.361500" lon="-0.849180">
        <time>2017-06-24T08:54:22Z</time>
      </trkpt>
      <trkpt lat="44.361500" lon="-0.849180">
        <time>2017-06-24T08:54:23Z</time>
      </trkpt>
      <trkpt lat="44.361500" lon="-0.849180">
        <time>2017-06-24T08:54:24Z</time>
      </trkpt>
      <trkpt lat="44.361500" lon="-0.849180">
        <time>2017-06-24T08:54:25Z</time>
      </trkpt>
      <trkpt lat="44.361500" lon="-0.849180">
        <time>2017-06-24T08:54:26Z</time>
      </trkpt>
      <trkpt lat="44.361500" lon="-0.849180">
        <time>2017-06-24T08:54:27Z</time>
      </trkpt>
      <trkpt lat="44.361500" lon="-0.849180">
        <time>2017-06-24T08:54:28Z</time>
      </trkpt>
      <trkpt lat="44.361500" lon="-0.849180">
        <time>2017-06-24T08:54:29Z</time>
      </trkpt>
      <trkpt lat="44.361500" lon="-0.849180">
        <time>2017-06-24T08:54:30Z</time>
      </trkpt>
      <trkpt lat="44.361500" lon="-0.849180">
        <time>2017-06-24T08:54:31Z</time>
      </trkpt>
      <trkpt lat="44.361500" lon="-0.849180">
        <time>2017-06-24T08:54:32Z</time>
      </trkpt>
      <trkpt lat="44.361500" lon="-0.849180">
        <time>2017-06-24T08:54:33Z</time>
      </trkpt>
      <trkpt lat="44.361500" lon="-0.849180">
        <time>2017-06-24T08:54:34Z</time>
      </trkpt>
      <trkpt lat="44.361500" lon="-0.849180">
        <time>2017-06-24T08:54:35Z</time>
      </trkpt>
      <trkpt lat="44.361500" lon="-0.849180">
        <time>2017-06-24T08:54:36Z</time>
      </trkpt>
      <trkpt lat="44.361500" lon="-0.849180">
        <time>2017-06-24T08:54:37Z</time>
      </trkpt>
      <trkpt lat="44.361500" lon="-0.849180">
        <time>2017-06-24T08:54:38Z</time>
      </trkpt>
      <trkpt lat="44.361500" lon="-0.849180">
        <time>2017-06-24T08:54:39Z</time>
      </trkpt>
      <trkpt lat="44.361500" lon="-0.849180">
        <time>2017-06-24T08:54:40Z</time>
      </trkpt>
      <trkpt lat="44.361500" lon="-0.849180">
        <time>2017-06-24T08:54:41Z</time>
      </trkpt>
      <trkpt lat="44.361500" lon="-0.849180">
        <time>2017-06-24T08:54:42Z</time>
      </trkpt>
      <trkpt lat="44.361500" lon="-0.849180">
        <time>2017-06-24T08:54:43Z</time>
      </trkpt>
      <trkpt lat="44.361500" lon="-0.849180">
        <time>2017-06-24T08:54:44Z</time>
      </trkpt>
      <trkpt lat="44.361500" lon="-0.849180">
        <time>2017-06-24T08:54:45Z</time>
      </trkpt>
      <trkpt lat="44.361500" lon="-0.849180">
        <time>2017-06-24T08:54:46Z</time>
      </trkpt>
      <trkpt lat="44.361500" lon="-0.849180">
        <time>2017-06-24T08:54:47Z</time>
      </trkpt>
      <trkpt lat="44.361500" lon="-0.849180">
        <time>2017-06-24T08:54:48Z</time>
      </trkpt>
      <trkpt lat="44.361500" lon="-0.849180">
        <time>2017-06-24T08:54:49Z</time>
      </trkpt>
      <trkpt lat="44.361500" lon="-0.849180">
        <time>2017-06-24T08:54:50Z</time>
      </trkpt>
      <trkpt lat="44.361500" lon="-0.849180">
        <time>2017-06-24T08:54:51Z</time>
      </trkpt>
      <trkpt lat="44.361500" lon="-0.849180">
        <time>2017-06-24T08:54:52Z</time>
      </trkpt>
      <trkpt lat="44.361500" lon="-0.849180">
        <time>2017-06-24T08:54:53Z</time>
      </trkpt>
      <trkpt lat="44.361500" lon="-0.849180">
        <time>2017-06-24T08:54:54Z</time>
      </trkpt>
      <trkpt lat="44.361500" lon="-0.849180">
        <time>2017-06-24T08:54:55Z</time>
      </trkpt>
      <trkpt lat="44.361500" lon="-0.849180">
        <time>2017-06-24T08:54:56Z</time>
      </trkpt>
      <trkpt lat="44.361500" lon="-0.849180">
        <time>2017-06-24T08:54:57Z</time>
      </trkpt>
      <trkpt lat="44.361500" lon="-0.849180">
        <time>2017-06-24T08:54:58Z</time>
      </trkpt>
      <trkpt lat="44.361500" lon="-0.849180">
        <time>2017-06-24T08:54:59Z</time>
      </trkpt>
      <trkpt lat="44.361500" lon="-0.849180">
        <time>2017-06-24T08:55:00Z</time>
      </trkpt>
      <trkpt lat="44.361500" lon="-0.849180">
        <time>2017-06-24T08:55:01Z</time>
      </trkpt>
      <trkpt lat="44.361500" lon="-0.849180">
        <time>2017-06-24T08:55:02Z</time>
      </trkpt>
      <trkpt lat="44.361500" lon="-0.849180">
        <time>2017-06-24T08:55:03Z</time>
      </trkpt>
      <trkpt lat="44.361500" lon="-0.849180">
        <time>2017-06-24T08:55:04Z</time>
      </trkpt>
      <trkpt lat="44.361500" lon="-0.849180">
        <time>2017-06-24T08:55:05Z</time>
      </trkpt>
      <trkpt lat="44.361500" lon="-0.849180">
        <time>2017-06-24T08:55:06Z</time>
      </trkpt>
      <trkpt lat="44.361500" lon="-0.849180">
        <time>2017-06-24T08:55:07Z</time>
      </trkpt>
      <trkpt lat="44.361500" lon="-0.849180">
        <time>2017-06-24T08:55:08Z</time>
      </trkpt>
      <trkpt lat="44.361500" lon="-0.849180">
        <time>2017-06-24T08:55:09Z</time>
      </trkpt>
      <trkpt lat="44.361500" lon="-0.849180">
        <time>2017-06-24T08:55:10Z</time>
      </trkpt>
      <trkpt lat="44.361500" lon="-0.849180">
        <time>2017-06-24T08:55:11Z</time>
      </trkpt>
      <trkpt lat="44.361500" lon="-0.849180">
        <time>2017-06-24T08:55:12Z</time>
      </trkpt>
      <trkpt lat="44.361500" lon="-0.849180">
        <time>2017-06-24T08:55:13Z</time>
      </trkpt>
      <trkpt lat="44.361500" lon="-0.849180">
        <time>2017-06-24T08:55:14Z</time>
      </trkpt>
      <trkpt lat="44.361500" lon="-0.849180">
        <time>2017-06-24T08:55:15Z</time>
      </trkpt>
      <trkpt lat="44.361500" lon="-0.849180">
        <time>2017-06-24T08:55:16Z</time>
      </trkpt>
      <trkpt lat="44.361500" lon="-0.849180">
        <time>2017-06-24T08:55:17Z</time>
      </trkpt>
      <trkpt lat="44.361500" lon="-0.849180">
        <time>2017-06-24T08:55:18Z</time>
      </trkpt>
      <trkpt lat="44.361500" lon="-0.849180">
        <time>2017-06-24T08:55:19Z</time>
      </trkpt>
      <trkpt lat="44.361500" lon="-0.849180">
        <time>2017-06-24T08:55:20Z</time>
      </trkpt>
      <trkpt lat="44.361500" lon="-0.849180">
        <time>2017-06-24T08:55:21Z</time>
      </trkpt>
      <trkpt lat="44.361500" lon="-0.849180">
        <time>2017-06-24T08:55:22Z</time>
      </trkpt>
      <trkpt lat="44.361500" lon="-0.849180">
        <time>2017-06-24T08:55:23Z</time>
      </trkpt>
      <trkpt lat="44.361500" lon="-0.849180">
        <time>2017-06-24T08:55:24Z</time>
      </trkpt>
      <trkpt lat="44.361500" lon="-0.849180">
        <time>2017-06-24T08:55:25Z</time>
      </trkpt>
      <trkpt lat="44.361500" lon="-0.849180">
        <time>2017-06-24T08:55:26Z</time>
      </trkpt>
      <trkpt lat="44.361500" lon="-0.849180">
        <time>2017-06-24T08:55:27Z</time>
      </trkpt>
      <trkpt lat="44.361500" lon="-0.849180">
        <time>2017-06-24T08:55:28Z</time>
      </trkpt>
      <trkpt lat="44.361500" lon="-0.849180">
        <time>2017-06-24T08:55:29Z</time>
      </trkpt>
      <trkpt lat="44.361500" lon="-0.849180">
        <time>2017-06-24T08:55:30Z</time>
      </trkpt>
      <trkpt lat="44.361500" lon="-0.849180">
        <time>2017-06-24T08:55:31Z</time>
      </trkpt>
      <trkpt lat="44.361500" lon="-0.849180">
        <time>2017-06-24T08:55:32Z</time>
      </trkpt>
      <trkpt lat="44.361500" lon="-0.849180">
        <time>2017-06-24T08:55:33Z</time>
      </trkpt>
      <trkpt lat="44.361500" lon="-0.849180">
        <time>2017-06-24T08:55:34Z</time>
      </trkpt>
      <trkpt lat="44.361500" lon="-0.849180">
        <time>2017-06-24T08:55:35Z</time>
      </trkpt>
      <trkpt lat="44.361500" lon="-0.849180">
        <time>2017-06-24T08:55:36Z</time>
      </trkpt>
      <trkpt lat="44.361500" lon="-0.849180">
        <time>2017-06-24T08:55:37Z</time>
      </trkpt>
      <trkpt lat="44.361500" lon="-0.849180">
        <time>2017-06-24T08:55:38Z</time>
      </trkpt>
      <trkpt lat="44.361500" lon="-0.849180">
        <time>2017-06-24T08:55:39Z</time>
      </trkpt>
      <trkpt lat="44.361500" lon="-0.849180">
        <time>2017-06-24T08:55:40Z</time>
      </trkpt>
      <trkpt lat="44.361500" lon="-0.849180">
        <time>2017-06-24T08:55:41Z</time>
      </trkpt>
      <trkpt lat="44.361500" lon="-0.849180">
        <time>2017-06-24T08:55:42Z</time>
      </trkpt>
      <trkpt lat="44.361500" lon="-0.849180">
        <time>2017-06-24T08:55:43Z</time>
      </trkpt>
      <trkpt lat="44.361500" lon="-0.849180">
        <time>2017-06-24T08:55:44Z</time>
      </trkpt>
      <trkpt lat="44.361500" lon="-0.849180">
        <time>2017-06-24T08:55:45Z</time>
      </trkpt>
      <trkpt lat="44.361500" lon="-0.849180">
        <time>2017-06-24T08:55:46Z</time>
      </trkpt>
      <trkpt lat="44.361500" lon="-0.849180">
        <time>2017-06-24T08:55:47Z</time>
      </trkpt>
      <trkpt lat="44.361500" lon="-0.849180">
        <time>2017-06-24T08:55:48Z</time>
      </trkpt>
      <trkpt lat="44.361500" lon="-0.849180">
        <time>2017-06-24T08:55:49Z</time>
      </trkpt>
      <trkpt lat="44.361500" lon="-0.849180">
        <time>2017-06-24T08:55:50Z</time>
      </trkpt>
      <trkpt lat="44.361500" lon="-0.849180">
        <time>2017-06-24T08:55:51Z</time>
      </trkpt>
      <trkpt lat="44.361500" lon="-0.849180">
        <time>2017-06-24T08:55:52Z</time>
      </trkpt>
      <trkpt lat="44.361500" lon="-0.849180">
        <time>2017-06-24T08:55:53Z</time>
      </trkpt>
      <trkpt lat="44.361500" lon="-0.849180">
        <time>2017-06-24T08:55:54Z</time>
      </trkpt>
      <trkpt lat="44.361500" lon="-0.849180">
        <time>2017-06-24T08:55:55Z</time>
      </trkpt>
      <trkpt lat="44.361500" lon="-0.849180">
        <time>2017-06-24T08:55:56Z</time>
      </trkpt>
      <trkpt lat="44.361500" lon="-0.849180">
        <time>2017-06-24T08:55:57Z</time>
      </trkpt>
      <trkpt lat="44.361500" lon="-0.849180">
        <time>2017-06-24T08:55:58Z</time>
      </trkpt>
      <trkpt lat="44.361500" lon="-0.849180">
        <time>2017-06-24T08:55:59Z</time>
      </trkpt>
      <trkpt lat="44.361500" lon="-0.849180">
        <time>2017-06-24T08:56:00Z</time>
      </trkpt>
      <trkpt lat="44.361500" lon="-0.849180">
        <time>2017-06-24T08:56:01Z</time>
      </trkpt>
      <trkpt lat="44.361500" lon="-0.849180">
        <time>2017-06-24T08:56:02Z</time>
      </trkpt>
      <trkpt lat="44.361500" lon="-0.849180">
        <time>2017-06-24T08:56:03Z</time>
      </trkpt>
      <trkpt lat="44.361500" lon="-0.849180">
        <time>2017-06-24T08:56:04Z</time>
      </trkpt>
      <trkpt lat="44.361500" lon="-0.849180">
        <time>2017-06-24T08:56:05Z</time>
      </trkpt>
      <trkpt lat="44.361500" lon="-0.849180">
        <time>2017-06-24T08:56:06Z</time>
      </trkpt>
      <trkpt lat="44.361500" lon="-0.849180">
        <time>2017-06-24T08:56:07Z</time>
      </trkpt>
      <trkpt lat="44.361500" lon="-0.849180">
        <time>2017-06-24T08:56:08Z</time>
      </trkpt>
      <trkpt lat="44.361500" lon="-0.849180">
        <time>2017-06-24T08:56:09Z</time>
      </trkpt>
      <trkpt lat="44.361500" lon="-0.849180">
        <time>2017-06-24T08:56:10Z</time>
      </trkpt>
      <trkpt lat="44.361500" lon="-0.849180">
        <time>2017-06-24T08:56:11Z</time>
      </trkpt>
      <trkpt lat="44.361500" lon="-0.849180">
        <time>2017-06-24T08:56:12Z</time>
      </trkpt>
      <trkpt lat="44.361500" lon="-0.849180">
        <time>2017-06-24T08:56:13Z</time>
      </trkpt>
      <trkpt lat="44.361500" lon="-0.849180">
        <time>2017-06-24T08:56:14Z</time>
      </trkpt>
      <trkpt lat="44.361500" lon="-0.849180">
        <time>2017-06-24T08:56:15Z</time>
      </trkpt>
      <trkpt lat="44.361500" lon="-0.849180">
        <time>2017-06-24T08:56:16Z</time>
      </trkpt>
      <trkpt lat="44.361500" lon="-0.849180">
        <time>2017-06-24T08:56:17Z</time>
      </trkpt>
      <trkpt lat="44.361500" lon="-0.849180">
        <time>2017-06-24T08:56:18Z</time>
      </trkpt>
      <trkpt lat="44.361500" lon="-0.849180">
        <time>2017-06-24T08:56:19Z</time>
      </trkpt>
      <trkpt lat="44.361500" lon="-0.849180">
        <time>2017-06-24T08:56:20Z</time>
      </trkpt>
      <trkpt lat="44.361500" lon="-0.849180">
        <time>2017-06-24T08:56:21Z</time>
      </trkpt>
      <trkpt lat="44.361500" lon="-0.849180">
        <time>2017-06-24T08:56:22Z</time>
      </trkpt>
      <trkpt lat="44.361500" lon="-0.849180">
        <time>2017-06-24T08:56:23Z</time>
      </trkpt>
      <trkpt lat="44.361500" lon="-0.849180">
        <time>2017-06-24T08:56:24Z</time>
      </trkpt>
      <trkpt lat="44.361500" lon="-0.849180">
        <time>2017-06-24T08:56:25Z</time>
      </trkpt>
      <trkpt lat="44.361500" lon="-0.849180">
        <time>2017-06-24T08:56:26Z</time>
      </trkpt>
      <trkpt lat="44.361500" lon="-0.849180">
        <time>2017-06-24T08:56:27Z</time>
      </trkpt>
      <trkpt lat="44.361500" lon="-0.849180">
        <time>2017-06-24T08:56:28Z</time>
      </trkpt>
      <trkpt lat="44.361500" lon="-0.849180">
        <time>2017-06-24T08:56:29Z</time>
      </trkpt>
      <trkpt lat="44.361500" lon="-0.849180">
        <time>2017-06-24T08:56:30Z</time>
      </trkpt>
      <trkpt lat="44.361500" lon="-0.849180">
        <time>2017-06-24T08:56:31Z</time>
      </trkpt>
      <trkpt lat="44.361500" lon="-0.849180">
        <time>2017-06-24T08:56:32Z</time>
      </trkpt>
      <trkpt lat="44.361500" lon="-0.849180">
        <time>2017-06-24T08:56:33Z</time>
      </trkpt>
      <trkpt lat="44.361500" lon="-0.849180">
        <time>2017-06-24T08:56:34Z</time>
      </trkpt>
      <trkpt lat="44.361500" lon="-0.849180">
        <time>2017-06-24T08:56:35Z</time>
      </trkpt>
      <trkpt lat="44.361500" lon="-0.849180">
        <time>2017-06-24T08:56:36Z</time>
      </trkpt>
      <trkpt lat="44.361500" lon="-0.849180">
        <time>2017-06-24T08:56:37Z</time>
      </trkpt>
      <trkpt lat="44.361500" lon="-0.849180">
        <time>2017-06-24T08:56:38Z</time>
      </trkpt>
      <trkpt lat="44.361500" lon="-0.849180">
        <time>2017-06-24T08:56:39Z</time>
      </trkpt>
      <trkpt lat="44.361500" lon="-0.849180">
        <time>2017-06-24T08:56:40Z</time>
      </trkpt>
      <trkpt lat="44.361500" lon="-0.849180">
        <time>2017-06-24T08:56:41Z</time>
      </trkpt>
      <trkpt lat="44.361500" lon="-0.849180">
        <time>2017-06-24T08:56:42Z</time>
      </trkpt>
      <trkpt lat="44.361500" lon="-0.849180">
        <time>2017-06-24T08:56:43Z</time>
      </trkpt>
      <trkpt lat="44.361500" lon="-0.849180">
        <time>2017-06-24T08:56:44Z</time>
      </trkpt>
      <trkpt lat="44.361500" lon="-0.849180">
        <time>2017-06-24T08:56:45Z</time>
      </trkpt>
      <trkpt lat="44.361500" lon="-0.849180">
        <time>2017-06-24T08:56:46Z</time>
      </trkpt>
      <trkpt lat="44.361500" lon="-0.849180">
        <time>2017-06-24T08:56:47Z</time>
      </trkpt>
      <trkpt lat="44.361500" lon="-0.849180">
        <time>2017-06-24T08:56:48Z</time>
      </trkpt>
      <trkpt lat="44.361500" lon="-0.849180">
        <time>2017-06-24T08:56:49Z</time>
      </trkpt>
      <trkpt lat="44.361500" lon="-0.849180">
        <time>2017-06-24T08:56:50Z</time>
      </trkpt>
      <trkpt lat="44.361500" lon="-0.849180">
        <time>2017-06-24T08:56:51Z</time>
      </trkpt>
      <trkpt lat="44.361500" lon="-0.849180">
        <time>2017-06-24T08:56:52Z</time>
      </trkpt>
      <trkpt lat="44.361500" lon="-0.849180">
        <time>2017-06-24T08:56:53Z</time>
      </trkpt>
      <trkpt lat="44.361500" lon="-0.849180">
        <time>2017-06-24T08:56:54Z</time>
      </trkpt>
      <trkpt lat="44.361500" lon="-0.849180">
        <time>2017-06-24T08:56:55Z</time>
      </trkpt>
      <trkpt lat="44.361500" lon="-0.849180">
        <time>2017-06-24T08:56:56Z</time>
      </trkpt>
      <trkpt lat="44.361500" lon="-0.849180">
        <time>2017-06-24T08:56:57Z</time>
      </trkpt>
      <trkpt lat="44.361500" lon="-0.849180">
        <time>2017-06-24T08:56:58Z</time>
      </trkpt>
      <trkpt lat="44.361500" lon="-0.849180">
        <time>2017-06-24T08:56:59Z</time>
      </trkpt>
      <trkpt lat="44.361500" lon="-0.849180">
        <time>2017-06-24T08:57:00Z</time>
      </trkpt>
      <trkpt lat="44.361500" lon="-0.849180">
        <time>2017-06-24T08:57:01Z</time>
      </trkpt>
      <trkpt lat="44.361500" lon="-0.849180">
        <time>2017-06-24T08:57:02Z</time>
      </trkpt>
      <trkpt lat="44.361500" lon="-0.849180">
        <time>2017-06-24T08:57:03Z</time>
      </trkpt>
      <trkpt lat="44.361500" lon="-0.849180">
        <time>2017-06-24T08:57:04Z</time>
      </trkpt>
      <trkpt lat="44.361500" lon="-0.849180">
        <time>2017-06-24T08:57:05Z</time>
      </trkpt>
      <trkpt lat="44.361500" lon="-0.849180">
        <time>2017-06-24T08:57:06Z</time>
      </trkpt>
      <trkpt lat="44.361500" lon="-0.849180">
        <time>2017-06-24T08:57:07Z</time>
      </trkpt>
      <trkpt lat="44.361500" lon="-0.849180">
        <time>2017-06-24T08:57:08Z</time>
      </trkpt>
      <trkpt lat="44.361500" lon="-0.849180">
        <time>2017-06-24T08:57:09Z</time>
      </trkpt>
      <trkpt lat="44.361500" lon="-0.849180">
        <time>2017-06-24T08:57:10Z</time>
      </trkpt>
      <trkpt lat="44.361500" lon="-0.849180">
        <time>2017-06-24T08:57:11Z</time>
      </trkpt>
      <trkpt lat="44.361500" lon="-0.849180">
        <time>2017-06-24T08:57:12Z</time>
      </trkpt>
      <trkpt lat="44.361500" lon="-0.849180">
        <time>2017-06-24T08:57:13Z</time>
      </trkpt>
      <trkpt lat="44.361500" lon="-0.849180">
        <time>2017-06-24T08:57:14Z</time>
      </trkpt>
      <trkpt lat="44.361500" lon="-0.849180">
        <time>2017-06-24T08:57:15Z</time>
      </trkpt>
      <trkpt lat="44.361500" lon="-0.849180">
        <time>2017-06-24T08:57:16Z</time>
      </trkpt>
      <trkpt lat="44.361500" lon="-0.849180">
        <time>2017-06-24T08:57:17Z</time>
      </trkpt>
      <trkpt lat="44.361500" lon="-0.849180">
        <time>2017-06-24T08:57:18Z</time>
      </trkpt>
      <trkpt lat="44.361500" lon="-0.849180">
        <time>2017-06-24T08:57:19Z</time>
      </trkpt>
      <trkpt lat="44.361500" lon="-0.849180">
        <time>2017-06-24T08:57:20Z</time>
      </trkpt>
      <trkpt lat="44.361500" lon="-0.849180">
        <time>2017-06-24T08:57:21Z</time>
      </trkpt>
      <trkpt lat="44.361500" lon="-0.849180">
        <time>2017-06-24T08:57:22Z</time>
      </trkpt>
      <trkpt lat="44.361500" lon="-0.849180">
        <time>2017-06-24T08:57:23Z</time>
      </trkpt>
      <trkpt lat="44.361500" lon="-0.849180">
        <time>2017-06-24T08:57:24Z</time>
      </trkpt>
      <trkpt lat="44.361500" lon="-0.849180">
        <time>2017-06-24T08:57:25Z</time>
      </trkpt>
      <trkpt lat="44.361500" lon="-0.849180">
        <time>2017-06-24T08:57:26Z</time>
      </trkpt>
      <trkpt lat="44.361500" lon="-0.849180">
        <time>2017-06-24T08:57:27Z</time>
      </trkpt>
      <trkpt lat="44.361500" lon="-0.849180">
        <time>2017-06-24T08:57:28Z</time>
      </trkpt>
      <trkpt lat="44.361500" lon="-0.849180">
        <time>2017-06-24T08:57:29Z</time>
      </trkpt>
      <trkpt lat="44.361500" lon="-0.849180">
        <time>2017-06-24T08:57:30Z</time>
      </trkpt>
      <trkpt lat="44.361500" lon="-0.849180">
        <time>2017-06-24T08:57:31Z</time>
      </trkpt>
      <trkpt lat="44.361500" lon="-0.849180">
        <time>2017-06-24T08:57:32Z</time>
      </trkpt>
      <trkpt lat="44.361500" lon="-0.849180">
        <time>2017-06-24T08:57:33Z</time>
      </trkpt>
      <trkpt lat="44.361500" lon="-0.849180">
        <time>2017-06-24T08:57:34Z</time>
      </trkpt>
      <trkpt lat="44.361500" lon="-0.849180">
        <time>2017-06-24T08:57:35Z</time>
      </trkpt>
      <trkpt lat="44.361500" lon="-0.849180">
        <time>2017-06-24T08:57:36Z</time>
      </trkpt>
      <trkpt lat="44.361500" lon="-0.849180">
        <time>2017-06-24T08:57:37Z</time>
      </trkpt>
      <trkpt lat="44.361500" lon="-0.849180">
        <time>2017-06-24T08:57:38Z</time>
      </trkpt>
      <trkpt lat="44.361500" lon="-0.849180">
        <time>2017-06-24T08:57:39Z</time>
      </trkpt>
      <trkpt lat="44.361500" lon="-0.849180">
        <time>2017-06-24T08:57:40Z</time>
      </trkpt>
      <trkpt lat="44.361500" lon="-0.849180">
        <time>2017-06-24T08:57:41Z</time>
      </trkpt>
      <trkpt lat="44.361500" lon="-0.849180">
        <time>2017-06-24T08:57:42Z</time>
      </trkpt>
      <trkpt lat="44.361500" lon="-0.849180">
        <time>2017-06-24T08:57:43Z</time>
      </trkpt>
      <trkpt lat="44.361500" lon="-0.849180">
        <time>2017-06-24T08:57:44Z</time>
      </trkpt>
      <trkpt lat="44.361500" lon="-0.849180">
        <time>2017-06-24T08:57:45Z</time>
      </trkpt>
      <trkpt lat="44.361500" lon="-0.849180">
        <time>2017-06-24T08:57:46Z</time>
      </trkpt>
      <trkpt lat="44.361500" lon="-0.849180">
        <time>2017-06-24T08:57:47Z</time>
      </trkpt>
      <trkpt lat="44.361500" lon="-0.849180">
        <time>2017-06-24T08:57:48Z</time>
      </trkpt>
      <trkpt lat="44.361500" lon="-0.849180">
        <time>2017-06-24T08:57:49Z</time>
      </trkpt>
      <trkpt lat="44.361500" lon="-0.849180">
        <time>2017-06-24T08:57:50Z</time>
      </trkpt>
      <trkpt lat="44.361500" lon="-0.849180">
        <time>2017-06-24T08:57:51Z</time>
      </trkpt>
      <trkpt lat="44.361500" lon="-0.849180">
        <time>2017-06-24T08:57:52Z</time>
      </trkpt>
      <trkpt lat="44.361500" lon="-0.849180">
        <time>2017-06-24T08:57:53Z</time>
      </trkpt>
      <trkpt lat="44.361500" lon="-0.849180">
        <time>2017-06-24T08:57:54Z</time>
      </trkpt>
      <trkpt lat="44.361500" lon="-0.849180">
        <time>2017-06-24T08:57:55Z</time>
      </trkpt>
      <trkpt lat="44.361500" lon="-0.849180">
        <time>2017-06-24T08:57:56Z</time>
      </trkpt>
      <trkpt lat="44.361500" lon="-0.849180">
        <time>2017-06-24T08:57:57Z</time>
      </trkpt>
      <trkpt lat="44.361500" lon="-0.849180">
        <time>2017-06-24T08:57:58Z</time>
      </trkpt>
      <trkpt lat="44.361500" lon="-0.849180">
        <time>2017-06-24T08:57:59Z</time>
      </trkpt>
      <trkpt lat="44.361500" lon="-0.849180">
        <time>2017-06-24T08:58:00Z</time>
      </trkpt>
      <trkpt lat="44.361500" lon="-0.849180">
        <time>2017-06-24T08:58:01Z</time>
      </trkpt>
      <trkpt lat="44.361500" lon="-0.849180">
        <time>2017-06-24T08:58:02Z</time>
      </trkpt>
      <trkpt lat="44.361500" lon="-0.849180">
        <time>2017-06-24T08:58:03Z</time>
      </trkpt>
      <trkpt lat="44.361500" lon="-0.849180">
        <time>2017-06-24T08:58:04Z</time>
      </trkpt>
      <trkpt lat="44.361500" lon="-0.849180">
        <time>2017-06-24T08:58:05Z</time>
      </trkpt>
      <trkpt lat="44.361500" lon="-0.849180">
        <time>2017-06-24T08:58:06Z</time>
      </trkpt>
      <trkpt lat="44.361500" lon="-0.849180">
        <time>2017-06-24T08:58:07Z</time>
      </trkpt>
      <trkpt lat="44.361500" lon="-0.849180">
        <time>2017-06-24T08:58:08Z</time>
      </trkpt>
      <trkpt lat="44.361500" lon="-0.849180">
        <time>2017-06-24T08:58:09Z</time>
      </trkpt>
      <trkpt lat="44.361500" lon="-0.849180">
        <time>2017-06-24T08:58:10Z</time>
      </trkpt>
      <trkpt lat="44.361500" lon="-0.849180">
        <time>2017-06-24T08:58:11Z</time>
      </trkpt>
      <trkpt lat="44.361500" lon="-0.849180">
        <time>2017-06-24T08:58:12Z</time>
      </trkpt>
      <trkpt lat="44.361500" lon="-0.849180">
        <time>2017-06-24T08:58:13Z</time>
      </trkpt>
      <trkpt lat="44.361500" lon="-0.849180">
        <time>2017-06-24T08:58:14Z</time>
      </trkpt>
      <trkpt lat="44.361500" lon="-0.849180">
        <time>2017-06-24T08:58:15Z</time>
      </trkpt>
      <trkpt lat="44.361500" lon="-0.849180">
        <time>2017-06-24T08:58:16Z</time>
      </trkpt>
      <trkpt lat="44.361500" lon="-0.849180">
        <time>2017-06-24T08:58:17Z</time>
      </trkpt>
      <trkpt lat="44.361500" lon="-0.849180">
        <time>2017-06-24T08:58:18Z</time>
      </trkpt>
      <trkpt lat="44.361500" lon="-0.849180">
        <time>2017-06-24T08:58:19Z</time>
      </trkpt>
      <trkpt lat="44.361500" lon="-0.849180">
        <time>2017-06-24T08:58:20Z</time>
      </trkpt>
      <trkpt lat="44.361500" lon="-0.849180">
        <time>2017-06-24T08:58:21Z</time>
      </trkpt>
      <trkpt lat="44.361500" lon="-0.849180">
        <time>2017-06-24T08:58:22Z</time>
      </trkpt>
      <trkpt lat="44.361500" lon="-0.849180">
        <time>2017-06-24T08:58:23Z</time>
      </trkpt>
      <trkpt lat="44.361500" lon="-0.849180">
        <time>2017-06-24T08:58:24Z</time>
      </trkpt>
      <trkpt lat="44.361500" lon="-0.849180">
        <time>2017-06-24T08:58:25Z</time>
      </trkpt>
      <trkpt lat="44.361500" lon="-0.849180">
        <time>2017-06-24T08:58:26Z</time>
      </trkpt>
      <trkpt lat="44.361500" lon="-0.849180">
        <time>2017-06-24T08:58:27Z</time>
      </trkpt>
      <trkpt lat="44.361500" lon="-0.849180">
        <time>2017-06-24T08:58:28Z</time>
      </trkpt>
      <trkpt lat="44.361500" lon="-0.849180">
        <time>2017-06-24T08:58:29Z</time>
      </trkpt>
      <trkpt lat="44.361500" lon="-0.849180">
        <time>2017-06-24T08:58:30Z</time>
      </trkpt>
      <trkpt lat="44.361500" lon="-0.849180">
        <time>2017-06-24T08:58:31Z</time>
      </trkpt>
      <trkpt lat="44.361500" lon="-0.849180">
        <time>2017-06-24T08:58:32Z</time>
      </trkpt>
      <trkpt lat="44.361500" lon="-0.849180">
        <time>2017-06-24T08:58:33Z</time>
      </trkpt>
      <trkpt lat="44.361500" lon="-0.849180">
        <time>2017-06-24T08:58:34Z</time>
      </trkpt>
      <trkpt lat="44.361500" lon="-0.849180">
        <time>2017-06-24T08:58:35Z</time>
      </trkpt>
      <trkpt lat="44.361500" lon="-0.849180">
        <time>2017-06-24T08:58:36Z</time>
      </trkpt>
      <trkpt lat="44.361500" lon="-0.849180">
        <time>2017-06-24T08:58:37Z</time>
      </trkpt>
      <trkpt lat="44.361500" lon="-0.849180">
        <time>2017-06-24T08:58:38Z</time>
      </trkpt>
      <trkpt lat="44.361500" lon="-0.849180">
        <time>2017-06-24T08:58:39Z</time>
      </trkpt>
      <trkpt lat="44.361500" lon="-0.849180">
        <time>2017-06-24T08:58:40Z</time>
      </trkpt>
      <trkpt lat="44.361500" lon="-0.849180">
        <time>2017-06-24T08:58:41Z</time>
      </trkpt>
      <trkpt lat="44.361500" lon="-0.849180">
        <time>2017-06-24T08:58:42Z</time>
      </trkpt>
      <trkpt lat="44.361500" lon="-0.849180">
        <time>2017-06-24T08:58:43Z</time>
      </trkpt>
      <trkpt lat="44.361500" lon="-0.849180">
        <time>2017-06-24T08:58:44Z</time>
      </trkpt>
      <trkpt lat="44.361500" lon="-0.849180">
        <time>2017-06-24T08:58:45Z</time>
      </trkpt>
      <trkpt lat="44.361500" lon="-0.849180">
        <time>2017-06-24T08:58:46Z</time>
      </trkpt>
      <trkpt lat="44.361500" lon="-0.849180">
        <time>2017-06-24T08:58:47Z</time>
      </trkpt>
      <trkpt lat="44.361500" lon="-0.849180">
        <time>2017-06-24T08:58:48Z</time>
      </trkpt>
      <trkpt lat="44.361500" lon="-0.849180">
        <time>2017-06-24T08:58:49Z</time>
      </trkpt>
      <trkpt lat="44.361500" lon="-0.849180">
        <time>2017-06-24T08:58:50Z</time>
      </trkpt>
      <trkpt lat="44.361500" lon="-0.849180">
        <time>2017-06-24T08:58:51Z</time>
      </trkpt>
      <trkpt lat="44.361500" lon="-0.849180">
        <time>2017-06-24T08:58:52Z</time>
      </trkpt>
      <trkpt lat="44.361500" lon="-0.849180">
        <time>2017-06-24T08:58:53Z</time>
      </trkpt>
      <trkpt lat="44.361500" lon="-0.849180">
        <time>2017-06-24T08:58:54Z</time>
      </trkpt>
      <trkpt lat="44.361500" lon="-0.849180">
        <time>2017-06-24T08:58:55Z</time>
      </trkpt>
      <trkpt lat="44.361500" lon="-0.849180">
        <time>2017-06-24T08:58:56Z</time>
      </trkpt>
      <trkpt lat="44.361500" lon="-0.849180">
        <time>2017-06-24T08:58:57Z</time>
      </trkpt>
      <trkpt lat="44.361500" lon="-0.849180">
        <time>2017-06-24T08:58:58Z</time>
      </trkpt>
      <trkpt lat="44.361500" lon="-0.849180">
        <time>2017-06-24T08:58:59Z</time>
      </trkpt>
      <trkpt lat="44.361500" lon="-0.849180">
        <time>2017-06-24T08:59:00Z</time>
      </trkpt>
      <trkpt lat="44.361500" lon="-0.849180">
        <time>2017-06-24T08:59:01Z</time>
      </trkpt>
      <trkpt lat="44.361500" lon="-0.849180">
        <time>2017-06-24T08:59:02Z</time>
      </trkpt>
      <trkpt lat="44.361500" lon="-0.849180">
        <time>2017-06-24T08:59:03Z</time>
      </trkpt>
      <trkpt lat="44.361500" lon="-0.849180">
        <time>2017-06-24T08:59:04Z</time>
      </trkpt>
      <trkpt lat="44.361500" lon="-0.849180">
        <time>2017-06-24T08:59:05Z</time>
      </trkpt>
      <trkpt lat="44.361500" lon="-0.849180">
        <time>2017-06-24T08:59:06Z</time>
      </trkpt>
      <trkpt lat="44.361500" lon="-0.849180">
        <time>2017-06-24T08:59:07Z</time>
      </trkpt>
      <trkpt lat="44.361500" lon="-0.849180">
        <time>2017-06-24T08:59:08Z</time>
      </trkpt>
      <trkpt lat="44.361500" lon="-0.849180">
        <time>2017-06-24T08:59:09Z</time>
      </trkpt>
      <trkpt lat="44.361500" lon="-0.849180">
        <time>2017-06-24T08:59:10Z</time>
      </trkpt>
      <trkpt lat="44.361500" lon="-0.849180">
        <time>2017-06-24T08:59:11Z</time>
      </trkpt>
      <trkpt lat="44.361500" lon="-0.849180">
        <time>2017-06-24T08:59:12Z</time>
      </trkpt>
      <trkpt lat="44.361500" lon="-0.849180">
        <time>2017-06-24T08:59:13Z</time>
      </trkpt>
      <trkpt lat="44.361500" lon="-0.849180">
        <time>2017-06-24T08:59:14Z</time>
      </trkpt>
      <trkpt lat="44.361500" lon="-0.849180">
        <time>2017-06-24T08:59:15Z</time>
      </trkpt>
      <trkpt lat="44.361500" lon="-0.849180">
        <time>2017-06-24T08:59:16Z</time>
      </trkpt>
      <trkpt lat="44.361500" lon="-0.849180">
        <time>2017-06-24T08:59:17Z</time>
      </trkpt>
      <trkpt lat="44.361500" lon="-0.849180">
        <time>2017-06-24T08:59:18Z</time>
      </trkpt>
      <trkpt lat="44.361500" lon="-0.849180">
        <time>2017-06-24T08:59:19Z</time>
      </trkpt>
      <trkpt lat="44.361500" lon="-0.849180">
        <time>2017-06-24T08:59:20Z</time>
      </trkpt>
      <trkpt lat="44.361500" lon="-0.849180">
        <time>2017-06-24T08:59:21Z</time>
      </trkpt>
      <trkpt lat="44.361500" lon="-0.849180">
        <time>2017-06-24T08:59:22Z</time>
      </trkpt>
      <trkpt lat="44.361500" lon="-0.849180">
        <time>2017-06-24T08:59:23Z</time>
      </trkpt>
      <trkpt lat="44.361500" lon="-0.849180">
        <time>2017-06-24T08:59:24Z</time>
      </trkpt>
      <trkpt lat="44.361500" lon="-0.849180">
        <time>2017-06-24T08:59:25Z</time>
      </trkpt>
      <trkpt lat="44.361500" lon="-0.849180">
        <time>2017-06-24T08:59:26Z</time>
      </trkpt>
      <trkpt lat="44.361500" lon="-0.849180">
        <time>2017-06-24T08:59:27Z</time>
      </trkpt>
      <trkpt lat="44.361500" lon="-0.849180">
        <time>2017-06-24T08:59:28Z</time>
      </trkpt>
      <trkpt lat="44.361500" lon="-0.849180">
        <time>2017-06-24T08:59:29Z</time>
      </trkpt>
      <trkpt lat="44.361500" lon="-0.849180">
        <time>2017-06-24T08:59:30Z</time>
      </trkpt>
      <trkpt lat="44.361500" lon="-0.849180">
        <time>2017-06-24T08:59:31Z</time>
      </trkpt>
      <trkpt lat="44.361500" lon="-0.849180">
        <time>2017-06-24T08:59:32Z</time>
      </trkpt>
      <trkpt lat="44.361500" lon="-0.849180">
        <time>2017-06-24T08:59:33Z</time>
      </trkpt>
      <trkpt lat="44.361500" lon="-0.849180">
        <time>2017-06-24T08:59:34Z</time>
      </trkpt>
      <trkpt lat="44.361500" lon="-0.849180">
        <time>2017-06-24T08:59:35Z</time>
      </trkpt>
      <trkpt lat="44.361500" lon="-0.849180">
        <time>2017-06-24T08:59:36Z</time>
      </trkpt>
      <trkpt lat="44.361500" lon="-0.849180">
        <time>2017-06-24T08:59:37Z</time>
      </trkpt>
      <trkpt lat="44.361500" lon="-0.849180">
        <time>2017-06-24T08:59:38Z</time>
      </trkpt>
      <trkpt lat="44.361500" lon="-0.849180">
        <time>2017-06-24T08:59:39Z</time>
      </trkpt>
      <trkpt lat="44.361500" lon="-0.849180">
        <time>2017-06-24T08:59:40Z</time>
      </trkpt>
      <trkpt lat="44.361500" lon="-0.849180">
        <time>2017-06-24T08:59:41Z</time>
      </trkpt>
      <trkpt lat="44.361500" lon="-0.849180">
        <time>2017-06-24T08:59:42Z</time>
      </trkpt>
      <trkpt lat="44.361500" lon="-0.849180">
        <time>2017-06-24T08:59:43Z</time>
      </trkpt>
      <trkpt lat="44.361500" lon="-0.849180">
        <time>2017-06-24T08:59:44Z</time>
      </trkpt>
      <trkpt lat="44.361500" lon="-0.849180">
        <time>2017-06-24T08:59:45Z</time>
      </trkpt>
      <trkpt lat="44.361500" lon="-0.849180">
        <time>2017-06-24T08:59:46Z</time>
      </trkpt>
      <trkpt lat="44.361500" lon="-0.849180">
        <time>2017-06-24T08:59:47Z</time>
      </trkpt>
      <trkpt lat="44.361500" lon="-0.849180">
        <time>2017-06-24T08:59:48Z</time>
      </trkpt>
      <trkpt lat="44.361500" lon="-0.849180">
        <time>2017-06-24T08:59:49Z</time>
      </trkpt>
      <trkpt lat="44.361500" lon="-0.849180">
        <time>2017-06-24T08:59:50Z</time>
      </trkpt>
      <trkpt lat="44.361500" lon="-0.849180">
        <time>2017-06-24T08:59:51Z</time>
      </trkpt>
      <trkpt lat="44.361500" lon="-0.849180">
        <time>2017-06-24T08:59:52Z</time>
      </trkpt>
      <trkpt lat="44.361500" lon="-0.849180">
        <time>2017-06-24T08:59:53Z</time>
      </trkpt>
      <trkpt lat="44.361500" lon="-0.849180">
        <time>2017-06-24T08:59:54Z</time>
      </trkpt>
      <trkpt lat="44.361500" lon="-0.849180">
        <time>2017-06-24T08:59:55Z</time>
      </trkpt>
      <trkpt lat="44.361500" lon="-0.849180">
        <time>2017-06-24T08:59:56Z</time>
      </trkpt>
      <trkpt lat="44.361500" lon="-0.849180">
        <time>2017-06-24T08:59:57Z</time>
      </trkpt>
      <trkpt lat="44.361500" lon="-0.849180">
        <time>2017-06-24T08:59:58Z</time>
      </trkpt>
      <trkpt lat="44.361500" lon="-0.849180">
        <time>2017-06-24T08:59:59Z</time>
      </trkpt>
      <trkpt lat="44.361500" lon="-0.849180">
        <time>2017-06-24T09:00:00Z</time>
      </trkpt>
      <trkpt lat="44.361500" lon="-0.849180">
        <time>2017-06-24T09:00:01Z</time>
      </trkpt>
      <trkpt lat="44.361500" lon="-0.849180">
        <time>2017-06-24T09:00:02Z</time>
      </trkpt>
      <trkpt lat="44.361500" lon="-0.849180">
        <time>2017-06-24T09:00:03Z</time>
      </trkpt>
      <trkpt lat="44.361500" lon="-0.849180">
        <time>2017-06-24T09:00:04Z</time>
      </trkpt>
      <trkpt lat="44.361500" lon="-0.849180">
        <time>2017-06-24T09:00:05Z</time>
      </trkpt>
      <trkpt lat="44.361500" lon="-0.849180">
        <time>2017-06-24T09:00:06Z</time>
      </trkpt>
      <trkpt lat="44.361500" lon="-0.849180">
        <time>2017-06-24T09:00:07Z</time>
      </trkpt>
      <trkpt lat="44.361500" lon="-0.849180">
        <time>2017-06-24T09:00:08Z</time>
      </trkpt>
      <trkpt lat="44.361500" lon="-0.849180">
        <time>2017-06-24T09:00:09Z</time>
      </trkpt>
      <trkpt lat="44.361500" lon="-0.849180">
        <time>2017-06-24T09:00:10Z</time>
      </trkpt>
      <trkpt lat="44.361500" lon="-0.849180">
        <time>2017-06-24T09:00:11Z</time>
      </trkpt>
      <trkpt lat="44.361500" lon="-0.849180">
        <time>2017-06-24T09:00:12Z</time>
      </trkpt>
      <trkpt lat="44.361500" lon="-0.849180">
        <time>2017-06-24T09:00:13Z</time>
      </trkpt>
      <trkpt lat="44.361500" lon="-0.849180">
        <time>2017-06-24T09:00:14Z</time>
      </trkpt>
      <trkpt lat="44.361500" lon="-0.849180">
        <time>2017-06-24T09:00:15Z</time>
      </trkpt>
      <trkpt lat="44.361500" lon="-0.849180">
        <time>2017-06-24T09:00:16Z</time>
      </trkpt>
      <trkpt lat="44.361500" lon="-0.849180">
        <time>2017-06-24T09:00:17Z</time>
      </trkpt>
      <trkpt lat="44.361500" lon="-0.849180">
        <time>2017-06-24T09:00:18Z</time>
      </trkpt>
      <trkpt lat="44.361500" lon="-0.849180">
        <time>2017-06-24T09:00:19Z</time>
      </trkpt>
      <trkpt lat="44.361500" lon="-0.849180">
        <time>2017-06-24T09:00:20Z</time>
      </trkpt>
      <trkpt lat="44.361500" lon="-0.849180">
        <time>2017-06-24T09:00:21Z</time>
      </trkpt>
      <trkpt lat="44.361500" lon="-0.849180">
        <time>2017-06-24T09:00:22Z</time>
      </trkpt>
      <trkpt lat="44.361500" lon="-0.849180">
        <time>2017-06-24T09:00:23Z</time>
      </trkpt>
      <trkpt lat="44.361500" lon="-0.849180">
        <time>2017-06-24T09:00:24Z</time>
      </trkpt>
      <trkpt lat="44.361500" lon="-0.849180">
        <time>2017-06-24T09:00:25Z</time>
      </trkpt>
      <trkpt lat="44.361500" lon="-0.849180">
        <time>2017-06-24T09:00:26Z</time>
      </trkpt>
      <trkpt lat="44.361500" lon="-0.849180">
        <time>2017-06-24T09:00:27Z</time>
      </trkpt>
      <trkpt lat="44.361500" lon="-0.849180">
        <time>2017-06-24T09:00:28Z</time>
      </trkpt>
      <trkpt lat="44.361500" lon="-0.849180">
        <time>2017-06-24T09:00:29Z</time>
      </trkpt>
      <trkpt lat="44.361500" lon="-0.849180">
        <time>2017-06-24T09:00:30Z</time>
      </trkpt>
      <trkpt lat="44.361500" lon="-0.849180">
        <time>2017-06-24T09:00:31Z</time>
      </trkpt>
      <trkpt lat="44.361500" lon="-0.849180">
        <time>2017-06-24T09:00:32Z</time>
      </trkpt>
      <trkpt lat="44.361500" lon="-0.849180">
        <time>2017-06-24T09:00:33Z</time>
      </trkpt>
      <trkpt lat="44.361500" lon="-0.849180">
        <time>2017-06-24T09:00:34Z</time>
      </trkpt>
      <trkpt lat="44.361500" lon="-0.849180">
        <time>2017-06-24T09:00:35Z</time>
      </trkpt>
      <trkpt lat="44.361500" lon="-0.849180">
        <time>2017-06-24T09:00:36Z</time>
      </trkpt>
      <trkpt lat="44.361500" lon="-0.849180">
        <time>2017-06-24T09:00:37Z</time>
      </trkpt>
      <trkpt lat="44.361500" lon="-0.849180">
        <time>2017-06-24T09:00:38Z</time>
      </trkpt>
      <trkpt lat="44.361500" lon="-0.849180">
        <time>2017-06-24T09:00:39Z</time>
      </trkpt>
      <trkpt lat="44.361500" lon="-0.849180">
        <time>2017-06-24T09:00:40Z</time>
      </trkpt>
      <trkpt lat="44.361500" lon="-0.849180">
        <time>2017-06-24T09:00:41Z</time>
      </trkpt>
      <trkpt lat="44.361500" lon="-0.849180">
        <time>2017-06-24T09:00:42Z</time>
      </trkpt>
      <trkpt lat="44.361500" lon="-0.849180">
        <time>2017-06-24T09:00:43Z</time>
      </trkpt>
      <trkpt lat="44.361500" lon="-0.849180">
        <time>2017-06-24T09:00:44Z</time>
      </trkpt>
      <trkpt lat="44.361500" lon="-0.849180">
        <time>2017-06-24T09:00:45Z</time>
      </trkpt>
      <trkpt lat="44.361500" lon="-0.849180">
        <time>2017-06-24T09:00:46Z</time>
      </trkpt>
      <trkpt lat="44.361500" lon="-0.849180">
        <time>2017-06-24T09:00:47Z</time>
      </trkpt>
      <trkpt lat="44.361500" lon="-0.849180">
        <time>2017-06-24T09:00:48Z</time>
      </trkpt>
      <trkpt lat="44.361500" lon="-0.849180">
        <time>2017-06-24T09:00:49Z</time>
      </trkpt>
      <trkpt lat="44.361500" lon="-0.849180">
        <time>2017-06-24T09:00:50Z</time>
      </trkpt>
      <trkpt lat="44.361500" lon="-0.849180">
        <time>2017-06-24T09:00:51Z</time>
      </trkpt>
      <trkpt lat="44.361500" lon="-0.849180">
        <time>2017-06-24T09:00:52Z</time>
      </trkpt>
      <trkpt lat="44.361500" lon="-0.849180">
        <time>2017-06-24T09:00:53Z</time>
      </trkpt>
      <trkpt lat="44.361500" lon="-0.849180">
        <time>2017-06-24T09:00:54Z</time>
      </trkpt>
      <trkpt lat="44.361500" lon="-0.849180">
        <time>2017-06-24T09:00:55Z</time>
      </trkpt>
      <trkpt lat="44.361500" lon="-0.849180">
        <time>2017-06-24T09:00:56Z</time>
      </trkpt>
      <trkpt lat="44.361500" lon="-0.849180">
        <time>2017-06-24T09:00:57Z</time>
      </trkpt>
      <trkpt lat="44.361500" lon="-0.849180">
        <time>2017-06-24T09:00:58Z</time>
      </trkpt>
      <trkpt lat="44.361500" lon="-0.849180">
        <time>2017-06-24T09:00:59Z</time>
      </trkpt>
      <trkpt lat="44.361500" lon="-0.849180">
        <time>2017-06-24T09:01:00Z</time>
      </trkpt>
      <trkpt lat="44.361500" lon="-0.849180">
        <time>2017-06-24T09:01:01Z</time>
      </trkpt>
      <trkpt lat="44.361500" lon="-0.849180">
        <time>2017-06-24T09:01:02Z</time>
      </trkpt>
      <trkpt lat="44.361500" lon="-0.849180">
        <time>2017-06-24T09:01:03Z</time>
      </trkpt>
      <trkpt lat="44.361500" lon="-0.849180">
        <time>2017-06-24T09:01:04Z</time>
      </trkpt>
      <trkpt lat="44.361500" lon="-0.849180">
        <time>2017-06-24T09:01:05Z</time>
      </trkpt>
      <trkpt lat="44.361500" lon="-0.849180">
        <time>2017-06-24T09:01:06Z</time>
      </trkpt>
      <trkpt lat="44.361500" lon="-0.849180">
        <time>2017-06-24T09:01:07Z</time>
      </trkpt>
      <trkpt lat="44.361500" lon="-0.849180">
        <time>2017-06-24T09:01:08Z</time>
      </trkpt>
      <trkpt lat="44.361500" lon="-0.849180">
        <time>2017-06-24T09:01:09Z</time>
      </trkpt>
      <trkpt lat="44.361500" lon="-0.849180">
        <time>2017-06-24T09:01:10Z</time>
      </trkpt>
      <trkpt lat="44.361500" lon="-0.849180">
        <time>2017-06-24T09:01:11Z</time>
      </trkpt>
      <trkpt lat="44.361500" lon="-0.849180">
        <time>2017-06-24T09:01:12Z</time>
      </trkpt>
      <trkpt lat="44.361500" lon="-0.849180">
        <time>2017-06-24T09:01:13Z</time>
      </trkpt>
      <trkpt lat="44.361500" lon="-0.849180">
        <time>2017-06-24T09:01:14Z</time>
      </trkpt>
      <trkpt lat="44.361500" lon="-0.849180">
        <time>2017-06-24T09:01:15Z</time>
      </trkpt>
      <trkpt lat="44.361500" lon="-0.849180">
        <time>2017-06-24T09:01:16Z</time>
      </trkpt>
      <trkpt lat="44.361500" lon="-0.849180">
        <time>2017-06-24T09:01:17Z</time>
      </trkpt>
      <trkpt lat="44.361500" lon="-0.849180">
        <time>2017-06-24T09:01:18Z</time>
      </trkpt>
      <trkpt lat="44.361500" lon="-0.849180">
        <time>2017-06-24T09:01:19Z</time>
      </trkpt>
      <trkpt lat="44.361500" lon="-0.849180">
        <time>2017-06-24T09:01:20Z</time>
      </trkpt>
      <trkpt lat="44.361500" lon="-0.849180">
        <time>2017-06-24T09:01:21Z</time>
      </trkpt>
      <trkpt lat="44.361500" lon="-0.849180">
        <time>2017-06-24T09:01:22Z</time>
      </trkpt>
      <trkpt lat="44.361500" lon="-0.849180">
        <time>2017-06-24T09:01:23Z</time>
      </trkpt>
      <trkpt lat="44.361500" lon="-0.849180">
        <time>2017-06-24T09:01:24Z</time>
      </trkpt>
      <trkpt lat="44.361500" lon="-0.849180">
        <time>2017-06-24T09:01:25Z</time>
      </trkpt>
      <trkpt lat="44.361500" lon="-0.849180">
        <time>2017-06-24T09:01:26Z</time>
      </trkpt>
      <trkpt lat="44.361500" lon="-0.849180">
        <time>2017-06-24T09:01:27Z</time>
      </trkpt>
      <trkpt lat="44.361500" lon="-0.849180">
        <time>2017-06-24T09:01:28Z</time>
      </trkpt>
      <trkpt lat="44.361500" lon="-0.849180">
        <time>2017-06-24T09:01:29Z</time>
      </trkpt>
      <trkpt lat="44.361500" lon="-0.849180">
        <time>2017-06-24T09:01:30Z</time>
      </trkpt>
      <trkpt lat="44.361500" lon="-0.849180">
        <time>2017-06-24T09:01:31Z</time>
      </trkpt>
      <trkpt lat="44.361500" lon="-0.849180">
        <time>2017-06-24T09:01:32Z</time>
      </trkpt>
      <trkpt lat="44.361500" lon="-0.849180">
        <time>2017-06-24T09:01:33Z</time>
      </trkpt>
      <trkpt lat="44.361500" lon="-0.849180">
        <time>2017-06-24T09:01:34Z</time>
      </trkpt>
      <trkpt lat="44.361500" lon="-0.849180">
        <time>2017-06-24T09:01:35Z</time>
      </trkpt>
      <trkpt lat="44.361500" lon="-0.849180">
        <time>2017-06-24T09:01:36Z</time>
      </trkpt>
      <trkpt lat="44.361500" lon="-0.849180">
        <time>2017-06-24T09:01:37Z</time>
      </trkpt>
      <trkpt lat="44.361500" lon="-0.849180">
        <time>2017-06-24T09:01:38Z</time>
      </trkpt>
      <trkpt lat="44.361500" lon="-0.849180">
        <time>2017-06-24T09:01:39Z</time>
      </trkpt>
      <trkpt lat="44.361500" lon="-0.849180">
        <time>2017-06-24T09:01:40Z</time>
      </trkpt>
      <trkpt lat="44.361500" lon="-0.849180">
        <time>2017-06-24T09:01:41Z</time>
      </trkpt>
      <trkpt lat="44.361500" lon="-0.849180">
        <time>2017-06-24T09:01:42Z</time>
      </trkpt>
      <trkpt lat="44.361500" lon="-0.849180">
        <time>2017-06-24T09:01:43Z</time>
      </trkpt>
      <trkpt lat="44.361500" lon="-0.849180">
        <time>2017-06-24T09:01:44Z</time>
      </trkpt>
      <trkpt lat="44.361500" lon="-0.849180">
        <time>2017-06-24T09:01:45Z</time>
      </trkpt>
      <trkpt lat="44.361500" lon="-0.849180">
        <time>2017-06-24T09:01:46Z</time>
      </trkpt>
      <trkpt lat="44.361500" lon="-0.849180">
        <time>2017-06-24T09:01:47Z</time>
      </trkpt>
      <trkpt lat="44.361500" lon="-0.849180">
        <time>2017-06-24T09:01:48Z</time>
      </trkpt>
      <trkpt lat="44.361500" lon="-0.849180">
        <time>2017-06-24T09:01:49Z</time>
      </trkpt>
      <trkpt lat="44.361500" lon="-0.849180">
        <time>2017-06-24T09:01:50Z</time>
      </trkpt>
      <trkpt lat="44.361500" lon="-0.849180">
        <time>2017-06-24T09:01:51Z</time>
      </trkpt>
      <trkpt lat="44.361500" lon="-0.849180">
        <time>2017-06-24T09:01:52Z</time>
      </trkpt>
      <trkpt lat="44.361500" lon="-0.849180">
        <time>2017-06-24T09:01:53Z</time>
      </trkpt>
      <trkpt lat="44.361500" lon="-0.849180">
        <time>2017-06-24T09:01:54Z</time>
      </trkpt>
      <trkpt lat="44.361500" lon="-0.849180">
        <time>2017-06-24T09:01:55Z</time>
      </trkpt>
      <trkpt lat="44.361500" lon="-0.849180">
        <time>2017-06-24T09:01:56Z</time>
      </trkpt>
      <trkpt lat="44.361500" lon="-0.849180">
        <time>2017-06-24T09:01:57Z</time>
      </trkpt>
      <trkpt lat="44.361500" lon="-0.849180">
        <time>2017-06-24T09:01:58Z</time>
      </trkpt>
      <trkpt lat="44.361500" lon="-0.849180">
        <time>2017-06-24T09:01:59Z</time>
      </trkpt>
      <trkpt lat="44.361500" lon="-0.849180">
        <time>2017-06-24T09:02:00Z</time>
      </trkpt>
      <trkpt lat="44.361500" lon="-0.849180">
        <time>2017-06-24T09:02:01Z</time>
      </trkpt>
      <trkpt lat="44.361500" lon="-0.849180">
        <time>2017-06-24T09:02:02Z</time>
      </trkpt>
      <trkpt lat="44.361500" lon="-0.849180">
        <time>2017-06-24T09:02:03Z</time>
      </trkpt>
      <trkpt lat="44.361500" lon="-0.849180">
        <time>2017-06-24T09:02:04Z</time>
      </trkpt>
      <trkpt lat="44.361500" lon="-0.849180">
        <time>2017-06-24T09:02:05Z</time>
      </trkpt>
      <trkpt lat="44.361500" lon="-0.849180">
        <time>2017-06-24T09:02:06Z</time>
      </trkpt>
      <trkpt lat="44.361500" lon="-0.849180">
        <time>2017-06-24T09:02:07Z</time>
      </trkpt>
      <trkpt lat="44.361500" lon="-0.849180">
        <time>2017-06-24T09:02:08Z</time>
      </trkpt>
      <trkpt lat="44.361500" lon="-0.849180">
        <time>2017-06-24T09:02:09Z</time>
      </trkpt>
      <trkpt lat="44.361500" lon="-0.849180">
        <time>2017-06-24T09:02:10Z</time>
      </trkpt>
      <trkpt lat="44.361500" lon="-0.849180">
        <time>2017-06-24T09:02:11Z</time>
      </trkpt>
      <trkpt lat="44.361500" lon="-0.849180">
        <time>2017-06-24T09:02:12Z</time>
      </trkpt>
      <trkpt lat="44.361500" lon="-0.849180">
        <time>2017-06-24T09:02:13Z</time>
      </trkpt>
      <trkpt lat="44.361500" lon="-0.849180">
        <time>2017-06-24T09:02:14Z</time>
      </trkpt>
      <trkpt lat="44.361500" lon="-0.849180">
        <time>2017-06-24T09:02:15Z</time>
      </trkpt>
      <trkpt lat="44.361500" lon="-0.849180">
        <time>2017-06-24T09:02:16Z</time>
      </trkpt>
      <trkpt lat="44.361500" lon="-0.849180">
        <time>2017-06-24T09:02:17Z</time>
      </trkpt>
      <trkpt lat="44.361500" lon="-0.849180">
        <time>2017-06-24T09:02:18Z</time>
      </trkpt>
      <trkpt lat="44.361500" lon="-0.849180">
        <time>2017-06-24T09:02:19Z</time>
      </trkpt>
      <trkpt lat="44.361500" lon="-0.849180">
        <time>2017-06-24T09:02:20Z</time>
      </trkpt>
      <trkpt lat="44.361500" lon="-0.849180">
        <time>2017-06-24T09:02:21Z</time>
      </trkpt>
      <trkpt lat="44.361500" lon="-0.849180">
        <time>2017-06-24T09:02:22Z</time>
      </trkpt>
      <trkpt lat="44.361500" lon="-0.849180">
        <time>2017-06-24T09:02:23Z</time>
      </trkpt>
      <trkpt lat="44.361500" lon="-0.849180">
        <time>2017-06-24T09:02:24Z</time>
      </trkpt>
      <trkpt lat="44.361500" lon="-0.849180">
        <time>2017-06-24T09:02:25Z</time>
      </trkpt>
      <trkpt lat="44.361500" lon="-0.849180">
        <time>2017-06-24T09:02:26Z</time>
      </trkpt>
      <trkpt lat="44.361500" lon="-0.849180">
        <time>2017-06-24T09:02:27Z</time>
      </trkpt>
      <trkpt lat="44.361500" lon="-0.849180">
        <time>2017-06-24T09:02:28Z</time>
      </trkpt>
      <trkpt lat="44.361500" lon="-0.849180">
        <time>2017-06-24T09:02:29Z</time>
      </trkpt>
      <trkpt lat="44.361500" lon="-0.849180">
        <time>2017-06-24T09:02:30Z</time>
      </trkpt>
      <trkpt lat="44.361500" lon="-0.849180">
        <time>2017-06-24T09:02:31Z</time>
      </trkpt>
      <trkpt lat="44.361500" lon="-0.849180">
        <time>2017-06-24T09:02:32Z</time>
      </trkpt>
      <trkpt lat="44.361500" lon="-0.849180">
        <time>2017-06-24T09:02:33Z</time>
      </trkpt>
      <trkpt lat="44.361500" lon="-0.849180">
        <time>2017-06-24T09:02:34Z</time>
      </trkpt>
      <trkpt lat="44.361500" lon="-0.849180">
        <time>2017-06-24T09:02:35Z</time>
      </trkpt>
      <trkpt lat="44.361500" lon="-0.849180">
        <time>2017-06-24T09:02:36Z</time>
      </trkpt>
      <trkpt lat="44.361500" lon="-0.849180">
        <time>2017-06-24T09:02:37Z</time>
      </trkpt>
      <trkpt lat="44.361500" lon="-0.849180">
        <time>2017-06-24T09:02:38Z</time>
      </trkpt>
      <trkpt lat="44.361500" lon="-0.849180">
        <time>2017-06-24T09:02:39Z</time>
      </trkpt>
      <trkpt lat="44.361500" lon="-0.849180">
        <time>2017-06-24T09:02:40Z</time>
      </trkpt>
      <trkpt lat="44.361500" lon="-0.849180">
        <time>2017-06-24T09:02:41Z</time>
      </trkpt>
      <trkpt lat="44.361500" lon="-0.849180">
        <time>2017-06-24T09:02:42Z</time>
      </trkpt>
      <trkpt lat="44.361500" lon="-0.849180">
        <time>2017-06-24T09:02:43Z</time>
      </trkpt>
      <trkpt lat="44.361500" lon="-0.849180">
        <time>2017-06-24T09:02:44Z</time>
      </trkpt>
      <trkpt lat="44.361500" lon="-0.849180">
        <time>2017-06-24T09:02:45Z</time>
      </trkpt>
      <trkpt lat="44.361500" lon="-0.849180">
        <time>2017-06-24T09:02:46Z</time>
      </trkpt>
      <trkpt lat="44.361500" lon="-0.849180">
        <time>2017-06-24T09:02:47Z</time>
      </trkpt>
      <trkpt lat="44.361500" lon="-0.849180">
        <time>2017-06-24T09:02:48Z</time>
      </trkpt>
      <trkpt lat="44.361500" lon="-0.849180">
        <time>2017-06-24T09:02:49Z</time>
      </trkpt>
      <trkpt lat="44.361500" lon="-0.849180">
        <time>2017-06-24T09:02:50Z</time>
      </trkpt>
      <trkpt lat="44.361500" lon="-0.849180">
        <time>2017-06-24T09:02:51Z</time>
      </trkpt>
      <trkpt lat="44.361500" lon="-0.849180">
        <time>2017-06-24T09:02:52Z</time>
      </trkpt>
      <trkpt lat="44.361500" lon="-0.849180">
        <time>2017-06-24T09:02:53Z</time>
      </trkpt>
      <trkpt lat="44.361500" lon="-0.849180">
        <time>2017-06-24T09:02:54Z</time>
      </trkpt>
      <trkpt lat="44.361500" lon="-0.849180">
        <time>2017-06-24T09:02:55Z</time>
      </trkpt>
      <trkpt lat="44.361500" lon="-0.849180">
        <time>2017-06-24T09:02:56Z</time>
      </trkpt>
      <trkpt lat="44.361500" lon="-0.849180">
        <time>2017-06-24T09:02:57Z</time>
      </trkpt>
      <trkpt lat="44.361500" lon="-0.849180">
        <time>2017-06-24T09:02:58Z</time>
      </trkpt>
      <trkpt lat="44.361500" lon="-0.849180">
        <time>2017-06-24T09:02:59Z</time>
      </trkpt>
      <trkpt lat="44.361500" lon="-0.849180">
        <time>2017-06-24T09:03:00Z</time>
      </trkpt>
      <trkpt lat="44.361500" lon="-0.849180">
        <time>2017-06-24T09:03:01Z</time>
      </trkpt>
      <trkpt lat="44.361500" lon="-0.849180">
        <time>2017-06-24T09:03:02Z</time>
      </trkpt>
      <trkpt lat="44.361500" lon="-0.849180">
        <time>2017-06-24T09:03:03Z</time>
      </trkpt>
      <trkpt lat="44.361500" lon="-0.849180">
        <time>2017-06-24T09:03:04Z</time>
      </trkpt>
      <trkpt lat="44.361500" lon="-0.849180">
        <time>2017-06-24T09:03:05Z</time>
      </trkpt>
      <trkpt lat="44.361500" lon="-0.849180">
        <time>2017-06-24T09:03:06Z</time>
      </trkpt>
      <trkpt lat="44.361500" lon="-0.849180">
        <time>2017-06-24T09:03:07Z</time>
      </trkpt>
      <trkpt lat="44.361500" lon="-0.849180">
        <time>2017-06-24T09:03:08Z</time>
      </trkpt>
      <trkpt lat="44.361500" lon="-0.849180">
        <time>2017-06-24T09:03:09Z</time>
      </trkpt>
      <trkpt lat="44.361500" lon="-0.849180">
        <time>2017-06-24T09:03:10Z</time>
      </trkpt>
      <trkpt lat="44.361500" lon="-0.849180">
        <time>2017-06-24T09:03:11Z</time>
      </trkpt>
      <trkpt lat="44.361500" lon="-0.849180">
        <time>2017-06-24T09:03:12Z</time>
      </trkpt>
      <trkpt lat="44.361500" lon="-0.849180">
        <time>2017-06-24T09:03:13Z</time>
      </trkpt>
      <trkpt lat="44.361500" lon="-0.849180">
        <time>2017-06-24T09:03:14Z</time>
      </trkpt>
      <trkpt lat="44.361500" lon="-0.849180">
        <time>2017-06-24T09:03:15Z</time>
      </trkpt>
      <trkpt lat="44.361500" lon="-0.849180">
        <time>2017-06-24T09:03:16Z</time>
      </trkpt>
      <trkpt lat="44.361500" lon="-0.849180">
        <time>2017-06-24T09:03:17Z</time>
      </trkpt>
      <trkpt lat="44.361500" lon="-0.849180">
        <time>2017-06-24T09:03:18Z</time>
      </trkpt>
      <trkpt lat="44.361500" lon="-0.849180">
        <time>2017-06-24T09:03:19Z</time>
      </trkpt>
      <trkpt lat="44.361500" lon="-0.849180">
        <time>2017-06-24T09:03:20Z</time>
      </trkpt>
      <trkpt lat="44.361500" lon="-0.849180">
        <time>2017-06-24T09:03:21Z</time>
      </trkpt>
      <trkpt lat="44.361500" lon="-0.849180">
        <time>2017-06-24T09:03:22Z</time>
      </trkpt>
      <trkpt lat="44.361500" lon="-0.849180">
        <time>2017-06-24T09:03:23Z</time>
      </trkpt>
      <trkpt lat="44.361500" lon="-0.849180">
        <time>2017-06-24T09:03:24Z</time>
      </trkpt>
      <trkpt lat="44.361500" lon="-0.849180">
        <time>2017-06-24T09:03:25Z</time>
      </trkpt>
      <trkpt lat="44.361500" lon="-0.849180">
        <time>2017-06-24T09:03:26Z</time>
      </trkpt>
      <trkpt lat="44.361500" lon="-0.849180">
        <time>2017-06-24T09:03:27Z</time>
      </trkpt>
      <trkpt lat="44.361500" lon="-0.849180">
        <time>2017-06-24T09:03:28Z</time>
      </trkpt>
      <trkpt lat="44.361500" lon="-0.849180">
        <time>2017-06-24T09:03:29Z</time>
      </trkpt>
      <trkpt lat="44.361500" lon="-0.849180">
        <time>2017-06-24T09:03:30Z</time>
      </trkpt>
      <trkpt lat="44.361500" lon="-0.849180">
        <time>2017-06-24T09:03:31Z</time>
      </trkpt>
      <trkpt lat="44.361500" lon="-0.849180">
        <time>2017-06-24T09:03:32Z</time>
      </trkpt>
      <trkpt lat="44.361500" lon="-0.849180">
        <time>2017-06-24T09:03:33Z</time>
      </trkpt>
      <trkpt lat="44.361500" lon="-0.849180">
        <time>2017-06-24T09:03:34Z</time>
      </trkpt>
      <trkpt lat="44.361500" lon="-0.849180">
        <time>2017-06-24T09:03:35Z</time>
      </trkpt>
      <trkpt lat="44.361500" lon="-0.849180">
        <time>2017-06-24T09:03:36Z</time>
      </trkpt>
      <trkpt lat="44.361500" lon="-0.849180">
        <time>2017-06-24T09:03:37Z</time>
      </trkpt>
      <trkpt lat="44.361500" lon="-0.849180">
        <time>2017-06-24T09:03:38Z</time>
      </trkpt>
      <trkpt lat="44.361500" lon="-0.849180">
        <time>2017-06-24T09:03:39Z</time>
      </trkpt>
      <trkpt lat="44.361500" lon="-0.849180">
        <time>2017-06-24T09:03:40Z</time>
      </trkpt>
      <trkpt lat="44.361500" lon="-0.849180">
        <time>2017-06-24T09:03:41Z</time>
      </trkpt>
      <trkpt lat="44.361500" lon="-0.849180">
        <time>2017-06-24T09:03:42Z</time>
      </trkpt>
      <trkpt lat="44.361500" lon="-0.849180">
        <time>2017-06-24T09:03:43Z</time>
      </trkpt>
      <trkpt lat="44.361500" lon="-0.849180">
        <time>2017-06-24T09:03:44Z</time>
      </trkpt>
      <trkpt lat="44.361500" lon="-0.849180">
        <time>2017-06-24T09:03:45Z</time>
      </trkpt>
      <trkpt lat="44.361500" lon="-0.849180">
        <time>2017-06-24T09:03:46Z</time>
      </trkpt>
      <trkpt lat="44.361500" lon="-0.849180">
        <time>2017-06-24T09:03:47Z</time>
      </trkpt>
      <trkpt lat="44.361500" lon="-0.849180">
        <time>2017-06-24T09:03:48Z</time>
      </trkpt>
      <trkpt lat="44.361500" lon="-0.849180">
        <time>2017-06-24T09:03:49Z</time>
      </trkpt>
      <trkpt lat="44.361500" lon="-0.849180">
        <time>2017-06-24T09:03:50Z</time>
      </trkpt>
      <trkpt lat="44.361500" lon="-0.849180">
        <time>2017-06-24T09:03:51Z</time>
      </trkpt>
      <trkpt lat="44.361500" lon="-0.849180">
        <time>2017-06-24T09:03:52Z</time>
      </trkpt>
      <trkpt lat="44.361500" lon="-0.849180">
        <time>2017-06-24T09:03:53Z</time>
      </trkpt>
      <trkpt lat="44.361500" lon="-0.849180">
        <time>2017-06-24T09:03:54Z</time>
      </trkpt>
      <trkpt lat="44.361500" lon="-0.849180">
        <time>2017-06-24T09:03:55Z</time>
      </trkpt>
      <trkpt lat="44.361500" lon="-0.849180">
        <time>2017-06-24T09:03:56Z</time>
      </trkpt>
      <trkpt lat="44.361500" lon="-0.849180">
        <time>2017-06-24T09:03:57Z</time>
      </trkpt>
      <trkpt lat="44.361500" lon="-0.849180">
        <time>2017-06-24T09:03:58Z</time>
      </trkpt>
      <trkpt lat="44.361500" lon="-0.849180">
        <time>2017-06-24T09:03:59Z</time>
      </trkpt>
      <trkpt lat="44.361500" lon="-0.849180">
        <time>2017-06-24T09:04:00Z</time>
      </trkpt>
      <trkpt lat="44.361500" lon="-0.849180">
        <time>2017-06-24T09:04:01Z</time>
      </trkpt>
      <trkpt lat="44.361500" lon="-0.849180">
        <time>2017-06-24T09:04:02Z</time>
      </trkpt>
      <trkpt lat="44.361500" lon="-0.849180">
        <time>2017-06-24T09:04:03Z</time>
      </trkpt>
      <trkpt lat="44.361500" lon="-0.849180">
        <time>2017-06-24T09:04:04Z</time>
      </trkpt>
      <trkpt lat="44.361500" lon="-0.849180">
        <time>2017-06-24T09:04:05Z</time>
      </trkpt>
      <trkpt lat="44.361500" lon="-0.849180">
        <time>2017-06-24T09:04:06Z</time>
      </trkpt>
      <trkpt lat="44.361500" lon="-0.849180">
        <time>2017-06-24T09:04:07Z</time>
      </trkpt>
      <trkpt lat="44.361500" lon="-0.849180">
        <time>2017-06-24T09:04:08Z</time>
      </trkpt>
      <trkpt lat="44.361500" lon="-0.849180">
        <time>2017-06-24T09:04:09Z</time>
      </trkpt>
      <trkpt lat="44.361500" lon="-0.849180">
        <time>2017-06-24T09:04:10Z</time>
      </trkpt>
      <trkpt lat="44.361500" lon="-0.849180">
        <time>2017-06-24T09:04:11Z</time>
      </trkpt>
      <trkpt lat="44.361500" lon="-0.849180">
        <time>2017-06-24T09:04:12Z</time>
      </trkpt>
      <trkpt lat="44.361500" lon="-0.849180">
        <time>2017-06-24T09:04:13Z</time>
      </trkpt>
      <trkpt lat="44.361500" lon="-0.849180">
        <time>2017-06-24T09:04:14Z</time>
      </trkpt>
      <trkpt lat="44.361500" lon="-0.849180">
        <time>2017-06-24T09:04:15Z</time>
      </trkpt>
      <trkpt lat="44.361500" lon="-0.849180">
        <time>2017-06-24T09:04:16Z</time>
      </trkpt>
      <trkpt lat="44.361500" lon="-0.849180">
        <time>2017-06-24T09:04:17Z</time>
      </trkpt>
      <trkpt lat="44.361500" lon="-0.849180">
        <time>2017-06-24T09:04:18Z</time>
      </trkpt>
      <trkpt lat="44.361500" lon="-0.849180">
        <time>2017-06-24T09:04:19Z</time>
      </trkpt>
      <trkpt lat="44.361500" lon="-0.849180">
        <time>2017-06-24T09:04:20Z</time>
      </trkpt>
      <trkpt lat="44.361500" lon="-0.849180">
        <time>2017-06-24T09:04:21Z</time>
      </trkpt>
      <trkpt lat="44.361500" lon="-0.849180">
        <time>2017-06-24T09:04:22Z</time>
      </trkpt>
      <trkpt lat="44.361500" lon="-0.849180">
        <time>2017-06-24T09:04:23Z</time>
      </trkpt>
      <trkpt lat="44.361500" lon="-0.849180">
        <time>2017-06-24T09:04:24Z</time>
      </trkpt>
      <trkpt lat="44.361500" lon="-0.849180">
        <time>2017-06-24T09:04:25Z</time>
      </trkpt>
      <trkpt lat="44.361500" lon="-0.849180">
        <time>2017-06-24T09:04:26Z</time>
      </trkpt>
      <trkpt lat="44.361500" lon="-0.849180">
        <time>2017-06-24T09:04:27Z</time>
      </trkpt>
      <trkpt lat="44.361500" lon="-0.849180">
        <time>2017-06-24T09:04:28Z</time>
      </trkpt>
      <trkpt lat="44.361500" lon="-0.849180">
        <time>2017-06-24T09:04:29Z</time>
      </trkpt>
      <trkpt lat="44.361500" lon="-0.849180">
        <time>2017-06-24T09:04:30Z</time>
      </trkpt>
      <trkpt lat="44.361500" lon="-0.849180">
        <time>2017-06-24T09:04:31Z</time>
      </trkpt>
      <trkpt lat="44.361500" lon="-0.849180">
        <time>2017-06-24T09:04:32Z</time>
      </trkpt>
      <trkpt lat="44.361500" lon="-0.849180">
        <time>2017-06-24T09:04:33Z</time>
      </trkpt>
      <trkpt lat="44.361500" lon="-0.849180">
        <time>2017-06-24T09:04:34Z</time>
      </trkpt>
      <trkpt lat="44.361500" lon="-0.849180">
        <time>2017-06-24T09:04:35Z</time>
      </trkpt>
      <trkpt lat="44.361500" lon="-0.849180">
        <time>2017-06-24T09:04:36Z</time>
      </trkpt>
      <trkpt lat="44.361500" lon="-0.849180">
        <time>2017-06-24T09:04:37Z</time>
      </trkpt>
      <trkpt lat="44.361500" lon="-0.849180">
        <time>2017-06-24T09:04:38Z</time>
      </trkpt>
      <trkpt lat="44.361500" lon="-0.849180">
        <time>2017-06-24T09:04:39Z</time>
      </trkpt>
      <trkpt lat="44.361500" lon="-0.849180">
        <time>2017-06-24T09:04:40Z</time>
      </trkpt>
      <trkpt lat="44.361500" lon="-0.849180">
        <time>2017-06-24T09:04:41Z</time>
      </trkpt>
      <trkpt lat="44.361500" lon="-0.849180">
        <time>2017-06-24T09:04:42Z</time>
      </trkpt>
      <trkpt lat="44.361500" lon="-0.849180">
        <time>2017-06-24T09:04:43Z</time>
      </trkpt>
      <trkpt lat="44.361500" lon="-0.849180">
        <time>2017-06-24T09:04:44Z</time>
      </trkpt>
      <trkpt lat="44.361500" lon="-0.849180">
        <time>2017-06-24T09:04:45Z</time>
      </trkpt>
      <trkpt lat="44.361500" lon="-0.849180">
        <time>2017-06-24T09:04:46Z</time>
      </trkpt>
      <trkpt lat="44.361500" lon="-0.849180">
        <time>2017-06-24T09:04:47Z</time>
      </trkpt>
      <trkpt lat="44.361500" lon="-0.849180">
        <time>2017-06-24T09:04:48Z</time>
      </trkpt>
      <trkpt lat="44.361500" lon="-0.849180">
        <time>2017-06-24T09:04:49Z</time>
      </trkpt>
      <trkpt lat="44.361500" lon="-0.849180">
        <time>2017-06-24T09:04:50Z</time>
      </trkpt>
      <trkpt lat="44.361500" lon="-0.849180">
        <time>2017-06-24T09:04:51Z</time>
      </trkpt>
      <trkpt lat="44.361500" lon="-0.849180">
        <time>2017-06-24T09:04:52Z</time>
      </trkpt>
      <trkpt lat="44.361500" lon="-0.849180">
        <time>2017-06-24T09:04:53Z</time>
      </trkpt>
      <trkpt lat="44.361500" lon="-0.849180">
        <time>2017-06-24T09:04:54Z</time>
      </trkpt>
      <trkpt lat="44.361500" lon="-0.849180">
        <time>2017-06-24T09:04:55Z</time>
      </trkpt>
      <trkpt lat="44.361500" lon="-0.849180">
        <time>2017-06-24T09:04:56Z</time>
      </trkpt>
      <trkpt lat="44.361500" lon="-0.849180">
        <time>2017-06-24T09:04:57Z</time>
      </trkpt>
      <trkpt lat="44.361500" lon="-0.849180">
        <time>2017-06-24T09:04:58Z</time>
      </trkpt>
      <trkpt lat="44.361500" lon="-0.849180">
        <time>2017-06-24T09:04:59Z</time>
      </trkpt>
      <trkpt lat="44.361500" lon="-0.849180">
        <time>2017-06-24T09:05:00Z</time>
      </trkpt>
      <trkpt lat="44.361500" lon="-0.849180">
        <time>2017-06-24T09:05:01Z</time>
      </trkpt>
      <trkpt lat="44.361500" lon="-0.849180">
        <time>2017-06-24T09:05:02Z</time>
      </trkpt>
      <trkpt lat="44.361500" lon="-0.849180">
        <time>2017-06-24T09:05:03Z</time>
      </trkpt>
      <trkpt lat="44.361500" lon="-0.849180">
        <time>2017-06-24T09:05:04Z</time>
      </trkpt>
      <trkpt lat="44.361500" lon="-0.849180">
        <time>2017-06-24T09:05:05Z</time>
      </trkpt>
      <trkpt lat="44.361500" lon="-0.849180">
        <time>2017-06-24T09:05:06Z</time>
      </trkpt>
      <trkpt lat="44.361500" lon="-0.849180">
        <time>2017-06-24T09:05:07Z</time>
      </trkpt>
      <trkpt lat="44.361500" lon="-0.849180">
        <time>2017-06-24T09:05:08Z</time>
      </trkpt>
      <trkpt lat="44.361500" lon="-0.849180">
        <time>2017-06-24T09:05:09Z</time>
      </trkpt>
      <trkpt lat="44.361500" lon="-0.849180">
        <time>2017-06-24T09:05:10Z</time>
      </trkpt>
      <trkpt lat="44.361500" lon="-0.849180">
        <time>2017-06-24T09:05:11Z</time>
      </trkpt>
      <trkpt lat="44.361500" lon="-0.849180">
        <time>2017-06-24T09:05:12Z</time>
      </trkpt>
      <trkpt lat="44.361500" lon="-0.849180">
        <time>2017-06-24T09:05:13Z</time>
      </trkpt>
      <trkpt lat="44.361500" lon="-0.849180">
        <time>2017-06-24T09:05:14Z</time>
      </trkpt>
      <trkpt lat="44.361500" lon="-0.849180">
        <time>2017-06-24T09:05:15Z</time>
      </trkpt>
      <trkpt lat="44.361500" lon="-0.849180">
        <time>2017-06-24T09:05:16Z</time>
      </trkpt>
      <trkpt lat="44.361500" lon="-0.849180">
        <time>2017-06-24T09:05:17Z</time>
      </trkpt>
      <trkpt lat="44.361500" lon="-0.849180">
        <time>2017-06-24T09:05:18Z</time>
      </trkpt>
      <trkpt lat="44.361500" lon="-0.849180">
        <time>2017-06-24T09:05:19Z</time>
      </trkpt>
      <trkpt lat="44.361500" lon="-0.849180">
        <time>2017-06-24T09:05:20Z</time>
      </trkpt>
      <trkpt lat="44.361500" lon="-0.849180">
        <time>2017-06-24T09:05:21Z</time>
      </trkpt>
      <trkpt lat="44.361500" lon="-0.849180">
        <time>2017-06-24T09:05:22Z</time>
      </trkpt>
      <trkpt lat="44.361500" lon="-0.849180">
        <time>2017-06-24T09:05:23Z</time>
      </trkpt>
      <trkpt lat="44.361500" lon="-0.849180">
        <time>2017-06-24T09:05:24Z</time>
      </trkpt>
      <trkpt lat="44.361500" lon="-0.849180">
        <time>2017-06-24T09:05:25Z</time>
      </trkpt>
      <trkpt lat="44.361500" lon="-0.849180">
        <time>2017-06-24T09:05:26Z</time>
      </trkpt>
      <trkpt lat="44.361500" lon="-0.849180">
        <time>2017-06-24T09:05:27Z</time>
      </trkpt>
      <trkpt lat="44.361500" lon="-0.849180">
        <time>2017-06-24T09:05:28Z</time>
      </trkpt>
      <trkpt lat="44.361500" lon="-0.849180">
        <time>2017-06-24T09:05:29Z</time>
      </trkpt>
      <trkpt lat="44.361500" lon="-0.849180">
        <time>2017-06-24T09:05:30Z</time>
      </trkpt>
      <trkpt lat="44.361500" lon="-0.849180">
        <time>2017-06-24T09:05:31Z</time>
      </trkpt>
      <trkpt lat="44.361500" lon="-0.849180">
        <time>2017-06-24T09:05:32Z</time>
      </trkpt>
      <trkpt lat="44.361500" lon="-0.849180">
        <time>2017-06-24T09:05:33Z</time>
      </trkpt>
      <trkpt lat="44.361500" lon="-0.849180">
        <time>2017-06-24T09:05:34Z</time>
      </trkpt>
      <trkpt lat="44.361500" lon="-0.849180">
        <time>2017-06-24T09:05:35Z</time>
      </trkpt>
      <trkpt lat="44.361500" lon="-0.849180">
        <time>2017-06-24T09:05:36Z</time>
      </trkpt>
      <trkpt lat="44.361500" lon="-0.849180">
        <time>2017-06-24T09:05:37Z</time>
      </trkpt>
      <trkpt lat="44.361500" lon="-0.849180">
        <time>2017-06-24T09:05:38Z</time>
      </trkpt>
      <trkpt lat="44.361500" lon="-0.849180">
        <time>2017-06-24T09:05:39Z</time>
      </trkpt>
      <trkpt lat="44.361500" lon="-0.849180">
        <time>2017-06-24T09:05:40Z</time>
      </trkpt>
      <trkpt lat="44.361500" lon="-0.849180">
        <time>2017-06-24T09:05:41Z</time>
      </trkpt>
      <trkpt lat="44.361500" lon="-0.849180">
        <time>2017-06-24T09:05:42Z</time>
      </trkpt>
      <trkpt lat="44.361500" lon="-0.849180">
        <time>2017-06-24T09:05:43Z</time>
      </trkpt>
      <trkpt lat="44.361500" lon="-0.849180">
        <time>2017-06-24T09:05:44Z</time>
      </trkpt>
      <trkpt lat="44.361500" lon="-0.849180">
        <time>2017-06-24T09:05:45Z</time>
      </trkpt>
      <trkpt lat="44.361500" lon="-0.849180">
        <time>2017-06-24T09:05:46Z</time>
      </trkpt>
      <trkpt lat="44.361500" lon="-0.849180">
        <time>2017-06-24T09:05:47Z</time>
      </trkpt>
      <trkpt lat="44.361500" lon="-0.849180">
        <time>2017-06-24T09:05:48Z</time>
      </trkpt>
      <trkpt lat="44.361500" lon="-0.849180">
        <time>2017-06-24T09:05:49Z</time>
      </trkpt>
      <trkpt lat="44.361500" lon="-0.849180">
        <time>2017-06-24T09:05:50Z</time>
      </trkpt>
      <trkpt lat="44.361500" lon="-0.849180">
        <time>2017-06-24T09:05:51Z</time>
      </trkpt>
      <trkpt lat="44.361500" lon="-0.849180">
        <time>2017-06-24T09:05:52Z</time>
      </trkpt>
      <trkpt lat="44.361500" lon="-0.849180">
        <time>2017-06-24T09:05:53Z</time>
      </trkpt>
      <trkpt lat="44.361500" lon="-0.849180">
        <time>2017-06-24T09:05:54Z</time>
      </trkpt>
      <trkpt lat="44.361500" lon="-0.849180">
        <time>2017-06-24T09:05:55Z</time>
      </trkpt>
      <trkpt lat="44.361500" lon="-0.849180">
        <time>2017-06-24T09:05:56Z</time>
      </trkpt>
      <trkpt lat="44.361500" lon="-0.849180">
        <time>2017-06-24T09:05:57Z</time>
      </trkpt>
      <trkpt lat="44.361500" lon="-0.849180">
        <time>2017-06-24T09:05:58Z</time>
      </trkpt>
      <trkpt lat="44.361500" lon="-0.849180">
        <time>2017-06-24T09:05:59Z</time>
      </trkpt>
      <trkpt lat="44.361500" lon="-0.849180">
        <time>2017-06-24T09:06:00Z</time>
      </trkpt>
      <trkpt lat="44.361500" lon="-0.849180">
        <time>2017-06-24T09:06:01Z</time>
      </trkpt>
      <trkpt lat="44.361500" lon="-0.849180">
        <time>2017-06-24T09:06:02Z</time>
      </trkpt>
      <trkpt lat="44.361500" lon="-0.849180">
        <time>2017-06-24T09:06:03Z</time>
      </trkpt>
      <trkpt lat="44.361500" lon="-0.849180">
        <time>2017-06-24T09:06:04Z</time>
      </trkpt>
      <trkpt lat="44.361500" lon="-0.849180">
        <time>2017-06-24T09:06:05Z</time>
      </trkpt>
      <trkpt lat="44.361500" lon="-0.849180">
        <time>2017-06-24T09:06:06Z</time>
      </trkpt>
      <trkpt lat="44.361500" lon="-0.849180">
        <time>2017-06-24T09:06:07Z</time>
      </trkpt>
      <trkpt lat="44.361500" lon="-0.849180">
        <time>2017-06-24T09:06:08Z</time>
      </trkpt>
      <trkpt lat="44.361500" lon="-0.849180">
        <time>2017-06-24T09:06:09Z</time>
      </trkpt>
      <trkpt lat="44.361500" lon="-0.849180">
        <time>2017-06-24T09:06:10Z</time>
      </trkpt>
      <trkpt lat="44.361500" lon="-0.849180">
        <time>2017-06-24T09:06:11Z</time>
      </trkpt>
      <trkpt lat="44.361500" lon="-0.849180">
        <time>2017-06-24T09:06:12Z</time>
      </trkpt>
      <trkpt lat="44.361500" lon="-0.849180">
        <time>2017-06-24T09:06:13Z</time>
      </trkpt>
      <trkpt lat="44.361500" lon="-0.849180">
        <time>2017-06-24T09:06:14Z</time>
      </trkpt>
      <trkpt lat="44.361500" lon="-0.849180">
        <time>2017-06-24T09:06:15Z</time>
      </trkpt>
      <trkpt lat="44.361500" lon="-0.849180">
        <time>2017-06-24T09:06:16Z</time>
      </trkpt>
      <trkpt lat="44.361500" lon="-0.849180">
        <time>2017-06-24T09:06:17Z</time>
      </trkpt>
      <trkpt lat="44.361500" lon="-0.849180">
        <time>2017-06-24T09:06:18Z</time>
      </trkpt>
      <trkpt lat="44.361500" lon="-0.849180">
        <time>2017-06-24T09:06:19Z</time>
      </trkpt>
      <trkpt lat="44.361500" lon="-0.849180">
        <time>2017-06-24T09:06:20Z</time>
      </trkpt>
      <trkpt lat="44.361500" lon="-0.849180">
        <time>2017-06-24T09:06:21Z</time>
      </trkpt>
      <trkpt lat="44.361500" lon="-0.849180">
        <time>2017-06-24T09:06:22Z</time>
      </trkpt>
      <trkpt lat="44.361500" lon="-0.849180">
        <time>2017-06-24T09:06:23Z</time>
      </trkpt>
      <trkpt lat="44.361500" lon="-0.849180">
        <time>2017-06-24T09:06:24Z</time>
      </trkpt>
      <trkpt lat="44.361500" lon="-0.849180">
        <time>2017-06-24T09:06:25Z</time>
      </trkpt>
      <trkpt lat="44.361500" lon="-0.849180">
        <time>2017-06-24T09:06:26Z</time>
      </trkpt>
      <trkpt lat="44.361500" lon="-0.849180">
        <time>2017-06-24T09:06:27Z</time>
      </trkpt>
      <trkpt lat="44.361500" lon="-0.849180">
        <time>2017-06-24T09:06:28Z</time>
      </trkpt>
      <trkpt lat="44.361500" lon="-0.849180">
        <time>2017-06-24T09:06:29Z</time>
      </trkpt>
      <trkpt lat="44.361500" lon="-0.849180">
        <time>2017-06-24T09:06:30Z</time>
      </trkpt>
      <trkpt lat="44.361500" lon="-0.849180">
        <time>2017-06-24T09:06:31Z</time>
      </trkpt>
      <trkpt lat="44.361500" lon="-0.849180">
        <time>2017-06-24T09:06:32Z</time>
      </trkpt>
      <trkpt lat="44.361500" lon="-0.849180">
        <time>2017-06-24T09:06:33Z</time>
      </trkpt>
      <trkpt lat="44.361500" lon="-0.849180">
        <time>2017-06-24T09:06:34Z</time>
      </trkpt>
      <trkpt lat="44.361500" lon="-0.849180">
        <time>2017-06-24T09:06:35Z</time>
      </trkpt>
      <trkpt lat="44.361500" lon="-0.849180">
        <time>2017-06-24T09:06:36Z</time>
      </trkpt>
      <trkpt lat="44.361500" lon="-0.849180">
        <time>2017-06-24T09:06:37Z</time>
      </trkpt>
      <trkpt lat="44.361500" lon="-0.849180">
        <time>2017-06-24T09:06:38Z</time>
      </trkpt>
      <trkpt lat="44.361500" lon="-0.849180">
        <time>2017-06-24T09:06:39Z</time>
      </trkpt>
      <trkpt lat="44.361500" lon="-0.849180">
        <time>2017-06-24T09:06:40Z</time>
      </trkpt>
      <trkpt lat="44.361500" lon="-0.849180">
        <time>2017-06-24T09:06:41Z</time>
      </trkpt>
      <trkpt lat="44.361500" lon="-0.849180">
        <time>2017-06-24T09:06:42Z</time>
      </trkpt>
      <trkpt lat="44.361500" lon="-0.849180">
        <time>2017-06-24T09:06:43Z</time>
      </trkpt>
      <trkpt lat="44.361500" lon="-0.849180">
        <time>2017-06-24T09:06:44Z</time>
      </trkpt>
      <trkpt lat="44.361500" lon="-0.849180">
        <time>2017-06-24T09:06:45Z</time>
      </trkpt>
      <trkpt lat="44.361500" lon="-0.849180">
        <time>2017-06-24T09:06:46Z</time>
      </trkpt>
      <trkpt lat="44.361500" lon="-0.849180">
        <time>2017-06-24T09:06:47Z</time>
      </trkpt>
      <trkpt lat="44.361500" lon="-0.849180">
        <time>2017-06-24T09:06:48Z</time>
      </trkpt>
      <trkpt lat="44.361500" lon="-0.849180">
        <time>2017-06-24T09:06:49Z</time>
      </trkpt>
      <trkpt lat="44.361500" lon="-0.849180">
        <time>2017-06-24T09:06:50Z</time>
      </trkpt>
      <trkpt lat="44.361500" lon="-0.849180">
        <time>2017-06-24T09:06:51Z</time>
      </trkpt>
      <trkpt lat="44.361500" lon="-0.849180">
        <time>2017-06-24T09:06:52Z</time>
      </trkpt>
      <trkpt lat="44.361500" lon="-0.849180">
        <time>2017-06-24T09:06:53Z</time>
      </trkpt>
      <trkpt lat="44.361500" lon="-0.849180">
        <time>2017-06-24T09:06:54Z</time>
      </trkpt>
      <trkpt lat="44.361500" lon="-0.849180">
        <time>2017-06-24T09:06:55Z</time>
      </trkpt>
      <trkpt lat="44.361500" lon="-0.849180">
        <time>2017-06-24T09:06:56Z</time>
      </trkpt>
      <trkpt lat="44.361500" lon="-0.849180">
        <time>2017-06-24T09:06:57Z</time>
      </trkpt>
      <trkpt lat="44.361500" lon="-0.849180">
        <time>2017-06-24T09:06:58Z</time>
      </trkpt>
      <trkpt lat="44.361500" lon="-0.849180">
        <time>2017-06-24T09:06:59Z</time>
      </trkpt>
      <trkpt lat="44.361500" lon="-0.849180">
        <time>2017-06-24T09:07:00Z</time>
      </trkpt>
      <trkpt lat="44.361500" lon="-0.849180">
        <time>2017-06-24T09:07:01Z</time>
      </trkpt>
      <trkpt lat="44.361500" lon="-0.849180">
        <time>2017-06-24T09:07:02Z</time>
      </trkpt>
      <trkpt lat="44.361500" lon="-0.849180">
        <time>2017-06-24T09:07:03Z</time>
      </trkpt>
      <trkpt lat="44.361500" lon="-0.849180">
        <time>2017-06-24T09:07:04Z</time>
      </trkpt>
      <trkpt lat="44.361500" lon="-0.849180">
        <time>2017-06-24T09:07:05Z</time>
      </trkpt>
      <trkpt lat="44.361500" lon="-0.849180">
        <time>2017-06-24T09:07:06Z</time>
      </trkpt>
      <trkpt lat="44.361500" lon="-0.849180">
        <time>2017-06-24T09:07:07Z</time>
      </trkpt>
      <trkpt lat="44.361500" lon="-0.849180">
        <time>2017-06-24T09:07:08Z</time>
      </trkpt>
      <trkpt lat="44.361500" lon="-0.849180">
        <time>2017-06-24T09:07:09Z</time>
      </trkpt>
      <trkpt lat="44.361500" lon="-0.849180">
        <time>2017-06-24T09:07:10Z</time>
      </trkpt>
      <trkpt lat="44.361500" lon="-0.849180">
        <time>2017-06-24T09:07:11Z</time>
      </trkpt>
      <trkpt lat="44.361500" lon="-0.849180">
        <time>2017-06-24T09:07:12Z</time>
      </trkpt>
      <trkpt lat="44.361500" lon="-0.849180">
        <time>2017-06-24T09:07:13Z</time>
      </trkpt>
      <trkpt lat="44.361500" lon="-0.849180">
        <time>2017-06-24T09:07:14Z</time>
      </trkpt>
      <trkpt lat="44.361500" lon="-0.849180">
        <time>2017-06-24T09:07:15Z</time>
      </trkpt>
      <trkpt lat="44.361500" lon="-0.849180">
        <time>2017-06-24T09:07:16Z</time>
      </trkpt>
      <trkpt lat="44.361500" lon="-0.849180">
        <time>2017-06-24T09:07:17Z</time>
      </trkpt>
      <trkpt lat="44.361500" lon="-0.849180">
        <time>2017-06-24T09:07:18Z</time>
      </trkpt>
      <trkpt lat="44.361500" lon="-0.849180">
        <time>2017-06-24T09:07:19Z</time>
      </trkpt>
      <trkpt lat="44.361500" lon="-0.849180">
        <time>2017-06-24T09:07:20Z</time>
      </trkpt>
      <trkpt lat="44.361500" lon="-0.849180">
        <time>2017-06-24T09:07:21Z</time>
      </trkpt>
      <trkpt lat="44.361500" lon="-0.849180">
        <time>2017-06-24T09:07:22Z</time>
      </trkpt>
      <trkpt lat="44.361500" lon="-0.849180">
        <time>2017-06-24T09:07:23Z</time>
      </trkpt>
      <trkpt lat="44.361500" lon="-0.849180">
        <time>2017-06-24T09:07:24Z</time>
      </trkpt>
      <trkpt lat="44.361500" lon="-0.849180">
        <time>2017-06-24T09:07:25Z</time>
      </trkpt>
      <trkpt lat="44.361500" lon="-0.849180">
        <time>2017-06-24T09:07:26Z</time>
      </trkpt>
      <trkpt lat="44.361500" lon="-0.849180">
        <time>2017-06-24T09:07:27Z</time>
      </trkpt>
      <trkpt lat="44.361500" lon="-0.849180">
        <time>2017-06-24T09:07:28Z</time>
      </trkpt>
      <trkpt lat="44.361500" lon="-0.849180">
        <time>2017-06-24T09:07:29Z</time>
      </trkpt>
      <trkpt lat="44.361500" lon="-0.849180">
        <time>2017-06-24T09:07:30Z</time>
      </trkpt>
      <trkpt lat="44.361500" lon="-0.849180">
        <time>2017-06-24T09:07:31Z</time>
      </trkpt>
      <trkpt lat="44.361500" lon="-0.849180">
        <time>2017-06-24T09:07:32Z</time>
      </trkpt>
      <trkpt lat="44.361500" lon="-0.849180">
        <time>2017-06-24T09:07:33Z</time>
      </trkpt>
      <trkpt lat="44.361500" lon="-0.849180">
        <time>2017-06-24T09:07:34Z</time>
      </trkpt>
      <trkpt lat="44.361500" lon="-0.849180">
        <time>2017-06-24T09:07:35Z</time>
      </trkpt>
      <trkpt lat="44.361500" lon="-0.849180">
        <time>2017-06-24T09:07:36Z</time>
      </trkpt>
      <trkpt lat="44.361500" lon="-0.849180">
        <time>2017-06-24T09:07:37Z</time>
      </trkpt>
      <trkpt lat="44.361500" lon="-0.849180">
        <time>2017-06-24T09:07:38Z</time>
      </trkpt>
      <trkpt lat="44.361500" lon="-0.849180">
        <time>2017-06-24T09:07:39Z</time>
      </trkpt>
      <trkpt lat="44.361500" lon="-0.849180">
        <time>2017-06-24T09:07:40Z</time>
      </trkpt>
      <trkpt lat="44.361500" lon="-0.849180">
        <time>2017-06-24T09:07:41Z</time>
      </trkpt>
      <trkpt lat="44.361500" lon="-0.849180">
        <time>2017-06-24T09:07:42Z</time>
      </trkpt>
      <trkpt lat="44.361500" lon="-0.849180">
        <time>2017-06-24T09:07:43Z</time>
      </trkpt>
      <trkpt lat="44.361500" lon="-0.849180">
        <time>2017-06-24T09:07:44Z</time>
      </trkpt>
      <trkpt lat="44.361500" lon="-0.849180">
        <time>2017-06-24T09:07:45Z</time>
      </trkpt>
      <trkpt lat="44.361500" lon="-0.849180">
        <time>2017-06-24T09:07:46Z</time>
      </trkpt>
      <trkpt lat="44.361500" lon="-0.849180">
        <time>2017-06-24T09:07:47Z</time>
      </trkpt>
      <trkpt lat="44.361500" lon="-0.849180">
        <time>2017-06-24T09:07:48Z</time>
      </trkpt>
      <trkpt lat="44.361500" lon="-0.849180">
        <time>2017-06-24T09:07:49Z</time>
      </trkpt>
      <trkpt lat="44.361500" lon="-0.849180">
        <time>2017-06-24T09:07:50Z</time>
      </trkpt>
      <trkpt lat="44.361500" lon="-0.849180">
        <time>2017-06-24T09:07:51Z</time>
      </trkpt>
      <trkpt lat="44.361500" lon="-0.849180">
        <time>2017-06-24T09:07:52Z</time>
      </trkpt>
      <trkpt lat="44.361500" lon="-0.849180">
        <time>2017-06-24T09:07:53Z</time>
      </trkpt>
      <trkpt lat="44.361500" lon="-0.849180">
        <time>2017-06-24T09:07:54Z</time>
      </trkpt>
      <trkpt lat="44.361500" lon="-0.849180">
        <time>2017-06-24T09:07:55Z</time>
      </trkpt>
      <trkpt lat="44.361500" lon="-0.849180">
        <time>2017-06-24T09:07:56Z</time>
      </trkpt>
      <trkpt lat="44.361500" lon="-0.849180">
        <time>2017-06-24T09:07:57Z</time>
      </trkpt>
      <trkpt lat="44.361500" lon="-0.849180">
        <time>2017-06-24T09:07:58Z</time>
      </trkpt>
      <trkpt lat="44.361500" lon="-0.849180">
        <time>2017-06-24T09:07:59Z</time>
      </trkpt>
      <trkpt lat="44.361500" lon="-0.849180">
        <time>2017-06-24T09:08:00Z</time>
      </trkpt>
      <trkpt lat="44.361500" lon="-0.849180">
        <time>2017-06-24T09:08:01Z</time>
      </trkpt>
      <trkpt lat="44.361500" lon="-0.849180">
        <time>2017-06-24T09:08:02Z</time>
      </trkpt>
      <trkpt lat="44.361500" lon="-0.849180">
        <time>2017-06-24T09:08:03Z</time>
      </trkpt>
      <trkpt lat="44.361500" lon="-0.849180">
        <time>2017-06-24T09:08:04Z</time>
      </trkpt>
      <trkpt lat="44.361500" lon="-0.849180">
        <time>2017-06-24T09:08:05Z</time>
      </trkpt>
      <trkpt lat="44.361500" lon="-0.849180">
        <time>2017-06-24T09:08:06Z</time>
      </trkpt>
      <trkpt lat="44.361510" lon="-0.849180">
        <time>2017-06-24T09:08:07Z</time>
      </trkpt>
      <trkpt lat="44.361510" lon="-0.849180">
        <time>2017-06-24T09:08:08Z</time>
      </trkpt>
      <trkpt lat="44.361510" lon="-0.849180">
        <time>2017-06-24T09:08:09Z</time>
      </trkpt>
      <trkpt lat="44.361510" lon="-0.849180">
        <time>2017-06-24T09:08:10Z</time>
      </trkpt>
      <trkpt lat="44.361510" lon="-0.849180">
        <time>2017-06-24T09:08:11Z</time>
      </trkpt>
      <trkpt lat="44.361510" lon="-0.849180">
        <time>2017-06-24T09:08:12Z</time>
      </trkpt>
      <trkpt lat="44.361510" lon="-0.849180">
        <time>2017-06-24T09:08:13Z</time>
      </trkpt>
      <trkpt lat="44.361510" lon="-0.849180">
        <time>2017-06-24T09:08:14Z</time>
      </trkpt>
      <trkpt lat="44.361510" lon="-0.849180">
        <time>2017-06-24T09:08:15Z</time>
      </trkpt>
      <trkpt lat="44.361510" lon="-0.849180">
        <time>2017-06-24T09:08:16Z</time>
      </trkpt>
      <trkpt lat="44.361510" lon="-0.849180">
        <time>2017-06-24T09:08:17Z</time>
      </trkpt>
      <trkpt lat="44.361520" lon="-0.849180">
        <time>2017-06-24T09:08:18Z</time>
      </trkpt>
      <trkpt lat="44.361540" lon="-0.849160">
        <time>2017-06-24T09:08:19Z</time>
      </trkpt>
      <trkpt lat="44.361570" lon="-0.849120">
        <time>2017-06-24T09:08:20Z</time>
      </trkpt>
      <trkpt lat="44.361590" lon="-0.849070">
        <time>2017-06-24T09:08:21Z</time>
      </trkpt>
      <trkpt lat="44.361600" lon="-0.849000">
        <time>2017-06-24T09:08:22Z</time>
      </trkpt>
      <trkpt lat="44.361590" lon="-0.848920">
        <time>2017-06-24T09:08:23Z</time>
      </trkpt>
      <trkpt lat="44.361580" lon="-0.848860">
        <time>2017-06-24T09:08:24Z</time>
      </trkpt>
      <trkpt lat="44.361560" lon="-0.848810">
        <time>2017-06-24T09:08:25Z</time>
      </trkpt>
      <trkpt lat="44.361540" lon="-0.848760">
        <time>2017-06-24T09:08:26Z</time>
      </trkpt>
      <trkpt lat="44.361530" lon="-0.848730">
        <time>2017-06-24T09:08:27Z</time>
      </trkpt>
      <trkpt lat="44.361520" lon="-0.848690">
        <time>2017-06-24T09:08:28Z</time>
      </trkpt>
      <trkpt lat="44.361520" lon="-0.848670">
        <time>2017-06-24T09:08:29Z</time>
      </trkpt>
      <trkpt lat="44.361510" lon="-0.848660">
        <time>2017-06-24T09:08:30Z</time>
      </trkpt>
      <trkpt lat="44.361520" lon="-0.848640">
        <time>2017-06-24T09:08:31Z</time>
      </trkpt>
      <trkpt lat="44.361540" lon="-0.848610">
        <time>2017-06-24T09:08:32Z</time>
      </trkpt>
      <trkpt lat="44.361570" lon="-0.848580">
        <time>2017-06-24T09:08:33Z</time>
      </trkpt>
      <trkpt lat="44.361610" lon="-0.848570">
        <time>2017-06-24T09:08:34Z</time>
      </trkpt>
      <trkpt lat="44.361670" lon="-0.848580">
        <time>2017-06-24T09:08:35Z</time>
      </trkpt>
      <trkpt lat="44.361740" lon="-0.848620">
        <time>2017-06-24T09:08:36Z</time>
      </trkpt>
      <trkpt lat="44.361820" lon="-0.848670">
        <time>2017-06-24T09:08:37Z</time>
      </trkpt>
      <trkpt lat="44.361910" lon="-0.848730">
        <time>2017-06-24T09:08:38Z</time>
      </trkpt>
      <trkpt lat="44.362000" lon="-0.848790">
        <time>2017-06-24T09:08:39Z</time>
      </trkpt>
      <trkpt lat="44.362080" lon="-0.848840">
        <time>2017-06-24T09:08:40Z</time>
      </trkpt>
      <trkpt lat="44.362180" lon="-0.848900">
        <time>2017-06-24T09:08:41Z</time>
      </trkpt>
      <trkpt lat="44.362280" lon="-0.848960">
        <time>2017-06-24T09:08:42Z</time>
      </trkpt>
      <trkpt lat="44.362370" lon="-0.849020">
        <time>2017-06-24T09:08:43Z</time>
      </trkpt>
      <trkpt lat="44.362480" lon="-0.849090">
        <time>2017-06-24T09:08:44Z</time>
      </trkpt>
      <trkpt lat="44.362580" lon="-0.849150">
        <time>2017-06-24T09:08:45Z</time>
      </trkpt>
      <trkpt lat="44.362690" lon="-0.849220">
        <time>2017-06-24T09:08:46Z</time>
      </trkpt>
      <trkpt lat="44.362810" lon="-0.849300">
        <time>2017-06-24T09:08:47Z</time>
      </trkpt>
      <trkpt lat="44.362910" lon="-0.849360">
        <time>2017-06-24T09:08:48Z</time>
      </trkpt>
      <trkpt lat="44.363030" lon="-0.849400">
        <time>2017-06-24T09:08:49Z</time>
      </trkpt>
      <trkpt lat="44.363160" lon="-0.849430">
        <time>2017-06-24T09:08:50Z</time>
      </trkpt>
      <trkpt lat="44.363300" lon="-0.849440">
        <time>2017-06-24T09:08:51Z</time>
      </trkpt>
      <trkpt lat="44.363460" lon="-0.849410">
        <time>2017-06-24T09:08:52Z</time>
      </trkpt>
      <trkpt lat="44.363610" lon="-0.849350">
        <time>2017-06-24T09:08:53Z</time>
      </trkpt>
      <trkpt lat="44.363780" lon="-0.849260">
        <time>2017-06-24T09:08:54Z</time>
      </trkpt>
      <trkpt lat="44.363950" lon="-0.849150">
        <time>2017-06-24T09:08:55Z</time>
      </trkpt>
      <trkpt lat="44.364100" lon="-0.849050">
        <time>2017-06-24T09:08:56Z</time>
      </trkpt>
      <trkpt lat="44.364280" lon="-0.848940">
        <time>2017-06-24T09:08:57Z</time>
      </trkpt>
      <trkpt lat="44.364470" lon="-0.848810">
        <time>2017-06-24T09:08:58Z</time>
      </trkpt>
      <trkpt lat="44.364650" lon="-0.848700">
        <time>2017-06-24T09:08:59Z</time>
      </trkpt>
      <trkpt lat="44.364870" lon="-0.848560">
        <time>2017-06-24T09:09:00Z</time>
      </trkpt>
      <trkpt lat="44.365070" lon="-0.848440">
        <time>2017-06-24T09:09:01Z</time>
      </trkpt>
      <trkpt lat="44.365290" lon="-0.848310">
        <time>2017-06-24T09:09:02Z</time>
      </trkpt>
      <trkpt lat="44.365520" lon="-0.848160">
        <time>2017-06-24T09:09:03Z</time>
      </trkpt>
      <trkpt lat="44.365720" lon="-0.848040">
        <time>2017-06-24T09:09:04Z</time>
      </trkpt>
      <trkpt lat="44.365940" lon="-0.847900">
        <time>2017-06-24T09:09:05Z</time>
      </trkpt>
      <trkpt lat="44.366160" lon="-0.847760">
        <time>2017-06-24T09:09:06Z</time>
      </trkpt>
      <trkpt lat="44.366380" lon="-0.847620">
        <time>2017-06-24T09:09:07Z</time>
      </trkpt>
      <trkpt lat="44.366630" lon="-0.847460">
        <time>2017-06-24T09:09:08Z</time>
      </trkpt>
      <trkpt lat="44.366850" lon="-0.847320">
        <time>2017-06-24T09:09:09Z</time>
      </trkpt>
      <trkpt lat="44.367100" lon="-0.847150">
        <time>2017-06-24T09:09:10Z</time>
      </trkpt>
      <trkpt lat="44.367370" lon="-0.846980">
        <time>2017-06-24T09:09:11Z</time>
      </trkpt>
      <trkpt lat="44.367610" lon="-0.846830">
        <time>2017-06-24T09:09:12Z</time>
      </trkpt>
      <trkpt lat="44.367850" lon="-0.846670">
        <time>2017-06-24T09:09:13Z</time>
      </trkpt>
      <trkpt lat="44.368100" lon="-0.846500">
        <time>2017-06-24T09:09:14Z</time>
      </trkpt>
      <trkpt lat="44.368320" lon="-0.846360">
        <time>2017-06-24T09:09:15Z</time>
      </trkpt>
      <trkpt lat="44.368580" lon="-0.846190">
        <time>2017-06-24T09:09:16Z</time>
      </trkpt>
      <trkpt lat="44.368820" lon="-0.846040">
        <time>2017-06-24T09:09:17Z</time>
      </trkpt>
      <trkpt lat="44.369080" lon="-0.845870">
        <time>2017-06-24T09:09:18Z</time>
      </trkpt>
      <trkpt lat="44.369350" lon="-0.845710">
        <time>2017-06-24T09:09:19Z</time>
      </trkpt>
      <trkpt lat="44.369570" lon="-0.845560">
        <time>2017-06-24T09:09:20Z</time>
      </trkpt>
      <trkpt lat="44.369800" lon="-0.845410">
        <time>2017-06-24T09:09:21Z</time>
      </trkpt>
      <trkpt lat="44.370040" lon="-0.845260">
        <time>2017-06-24T09:09:22Z</time>
      </trkpt>
      <trkpt lat="44.370270" lon="-0.845110">
        <time>2017-06-24T09:09:23Z</time>
      </trkpt>
      <trkpt lat="44.370520" lon="-0.844950">
        <time>2017-06-24T09:09:24Z</time>
      </trkpt>
      <trkpt lat="44.370750" lon="-0.844800">
        <time>2017-06-24T09:09:25Z</time>
      </trkpt>
      <trkpt lat="44.370990" lon="-0.844640">
        <time>2017-06-24T09:09:26Z</time>
      </trkpt>
      <trkpt lat="44.371250" lon="-0.844480">
        <time>2017-06-24T09:09:27Z</time>
      </trkpt>
      <trkpt lat="44.371470" lon="-0.844330">
        <time>2017-06-24T09:09:28Z</time>
      </trkpt>
      <trkpt lat="44.371710" lon="-0.844180">
        <time>2017-06-24T09:09:29Z</time>
      </trkpt>
      <trkpt lat="44.371970" lon="-0.844010">
        <time>2017-06-24T09:09:30Z</time>
      </trkpt>
      <trkpt lat="44.372200" lon="-0.843860">
        <time>2017-06-24T09:09:31Z</time>
      </trkpt>
      <trkpt lat="44.372460" lon="-0.843690">
        <time>2017-06-24T09:09:32Z</time>
      </trkpt>
      <trkpt lat="44.372690" lon="-0.843550">
        <time>2017-06-24T09:09:33Z</time>
      </trkpt>
      <trkpt lat="44.372950" lon="-0.843390">
        <time>2017-06-24T09:09:34Z</time>
      </trkpt>
      <trkpt lat="44.373240" lon="-0.843230">
        <time>2017-06-24T09:09:35Z</time>
      </trkpt>
      <trkpt lat="44.373500" lon="-0.843080">
        <time>2017-06-24T09:09:36Z</time>
      </trkpt>
      <trkpt lat="44.373770" lon="-0.842910">
        <time>2017-06-24T09:09:37Z</time>
      </trkpt>
      <trkpt lat="44.374050" lon="-0.842730">
        <time>2017-06-24T09:09:38Z</time>
      </trkpt>
      <trkpt lat="44.374330" lon="-0.842550">
        <time>2017-06-24T09:09:39Z</time>
      </trkpt>
      <trkpt lat="44.374620" lon="-0.842360">
        <time>2017-06-24T09:09:40Z</time>
      </trkpt>
      <trkpt lat="44.374890" lon="-0.842190">
        <time>2017-06-24T09:09:41Z</time>
      </trkpt>
      <trkpt lat="44.375170" lon="-0.842000">
        <time>2017-06-24T09:09:42Z</time>
      </trkpt>
      <trkpt lat="44.375470" lon="-0.841800">
        <time>2017-06-24T09:09:43Z</time>
      </trkpt>
      <trkpt lat="44.375740" lon="-0.841630">
        <time>2017-06-24T09:09:44Z</time>
      </trkpt>
      <trkpt lat="44.376030" lon="-0.841440">
        <time>2017-06-24T09:09:45Z</time>
      </trkpt>
      <trkpt lat="44.376340" lon="-0.841240">
        <time>2017-06-24T09:09:46Z</time>
      </trkpt>
      <trkpt lat="44.376610" lon="-0.841070">
        <time>2017-06-24T09:09:47Z</time>
      </trkpt>
      <trkpt lat="44.376920" lon="-0.840870">
        <time>2017-06-24T09:09:48Z</time>
      </trkpt>
      <trkpt lat="44.377180" lon="-0.840690">
        <time>2017-06-24T09:09:49Z</time>
      </trkpt>
      <trkpt lat="44.377470" lon="-0.840490">
        <time>2017-06-24T09:09:50Z</time>
      </trkpt>
      <trkpt lat="44.377780" lon="-0.840290">
        <time>2017-06-24T09:09:51Z</time>
      </trkpt>
      <trkpt lat="44.378050" lon="-0.840120">
        <time>2017-06-24T09:09:52Z</time>
      </trkpt>
      <trkpt lat="44.378330" lon="-0.839930">
        <time>2017-06-24T09:09:53Z</time>
      </trkpt>
      <trkpt lat="44.378620" lon="-0.839750">
        <time>2017-06-24T09:09:54Z</time>
      </trkpt>
      <trkpt lat="44.378910" lon="-0.839570">
        <time>2017-06-24T09:09:55Z</time>
      </trkpt>
      <trkpt lat="44.379210" lon="-0.839370">
        <time>2017-06-24T09:09:56Z</time>
      </trkpt>
      <trkpt lat="44.379480" lon="-0.839200">
        <time>2017-06-24T09:09:57Z</time>
      </trkpt>
      <trkpt lat="44.379770" lon="-0.839010">
        <time>2017-06-24T09:09:58Z</time>
      </trkpt>
      <trkpt lat="44.380070" lon="-0.838820">
        <time>2017-06-24T09:09:59Z</time>
      </trkpt>
      <trkpt lat="44.380340" lon="-0.838650">
        <time>2017-06-24T09:10:00Z</time>
      </trkpt>
      <trkpt lat="44.380620" lon="-0.838460">
        <time>2017-06-24T09:10:01Z</time>
      </trkpt>
      <trkpt lat="44.380920" lon="-0.838270">
        <time>2017-06-24T09:10:02Z</time>
      </trkpt>
      <trkpt lat="44.381190" lon="-0.838100">
        <time>2017-06-24T09:10:03Z</time>
      </trkpt>
      <trkpt lat="44.381500" lon="-0.837900">
        <time>2017-06-24T09:10:04Z</time>
      </trkpt>
      <trkpt lat="44.381760" lon="-0.837730">
        <time>2017-06-24T09:10:05Z</time>
      </trkpt>
      <trkpt lat="44.382050" lon="-0.837550">
        <time>2017-06-24T09:10:06Z</time>
      </trkpt>
      <trkpt lat="44.382360" lon="-0.837350">
        <time>2017-06-24T09:10:07Z</time>
      </trkpt>
      <trkpt lat="44.382630" lon="-0.837170">
        <time>2017-06-24T09:10:08Z</time>
      </trkpt>
      <trkpt lat="44.382920" lon="-0.836990">
        <time>2017-06-24T09:10:09Z</time>
      </trkpt>
      <trkpt lat="44.383200" lon="-0.836800">
        <time>2017-06-24T09:10:10Z</time>
      </trkpt>
      <trkpt lat="44.383480" lon="-0.836620">
        <time>2017-06-24T09:10:11Z</time>
      </trkpt>
      <trkpt lat="44.383790" lon="-0.836420">
        <time>2017-06-24T09:10:12Z</time>
      </trkpt>
      <trkpt lat="44.384060" lon="-0.836250">
        <time>2017-06-24T09:10:13Z</time>
      </trkpt>
      <trkpt lat="44.384340" lon="-0.836070">
        <time>2017-06-24T09:10:14Z</time>
      </trkpt>
      <trkpt lat="44.384640" lon="-0.835880">
        <time>2017-06-24T09:10:15Z</time>
      </trkpt>
      <trkpt lat="44.384910" lon="-0.835710">
        <time>2017-06-24T09:10:16Z</time>
      </trkpt>
      <trkpt lat="44.385200" lon="-0.835550">
        <time>2017-06-24T09:10:17Z</time>
      </trkpt>
      <trkpt lat="44.385510" lon="-0.835370">
        <time>2017-06-24T09:10:18Z</time>
      </trkpt>
      <trkpt lat="44.385780" lon="-0.835230">
        <time>2017-06-24T09:10:19Z</time>
      </trkpt>
      <trkpt lat="44.386090" lon="-0.835060">
        <time>2017-06-24T09:10:20Z</time>
      </trkpt>
      <trkpt lat="44.386360" lon="-0.834910">
        <time>2017-06-24T09:10:21Z</time>
      </trkpt>
      <trkpt lat="44.386650" lon="-0.834750">
        <time>2017-06-24T09:10:22Z</time>
      </trkpt>
      <trkpt lat="44.386980" lon="-0.834590">
        <time>2017-06-24T09:10:23Z</time>
      </trkpt>
      <trkpt lat="44.387250" lon="-0.834450">
        <time>2017-06-24T09:10:24Z</time>
      </trkpt>
      <trkpt lat="44.387550" lon="-0.834300">
        <time>2017-06-24T09:10:25Z</time>
      </trkpt>
      <trkpt lat="44.387850" lon="-0.834150">
        <time>2017-06-24T09:10:26Z</time>
      </trkpt>
      <trkpt lat="44.388150" lon="-0.834000">
        <time>2017-06-24T09:10:27Z</time>
      </trkpt>
      <trkpt lat="44.388460" lon="-0.833840">
        <time>2017-06-24T09:10:28Z</time>
      </trkpt>
      <trkpt lat="44.388750" lon="-0.833700">
        <time>2017-06-24T09:10:29Z</time>
      </trkpt>
      <trkpt lat="44.389050" lon="-0.833530">
        <time>2017-06-24T09:10:30Z</time>
      </trkpt>
      <trkpt lat="44.389360" lon="-0.833350">
        <time>2017-06-24T09:10:31Z</time>
      </trkpt>
      <trkpt lat="44.389630" lon="-0.833170">
        <time>2017-06-24T09:10:32Z</time>
      </trkpt>
      <trkpt lat="44.389920" lon="-0.832970">
        <time>2017-06-24T09:10:33Z</time>
      </trkpt>
      <trkpt lat="44.390220" lon="-0.832740">
        <time>2017-06-24T09:10:34Z</time>
      </trkpt>
      <trkpt lat="44.390480" lon="-0.832520">
        <time>2017-06-24T09:10:35Z</time>
      </trkpt>
      <trkpt lat="44.390770" lon="-0.832270">
        <time>2017-06-24T09:10:36Z</time>
      </trkpt>
      <trkpt lat="44.391030" lon="-0.832040">
        <time>2017-06-24T09:10:37Z</time>
      </trkpt>
      <trkpt lat="44.391300" lon="-0.831790">
        <time>2017-06-24T09:10:38Z</time>
      </trkpt>
      <trkpt lat="44.391580" lon="-0.831500">
        <time>2017-06-24T09:10:39Z</time>
      </trkpt>
      <trkpt lat="44.391830" lon="-0.831230">
        <time>2017-06-24T09:10:40Z</time>
      </trkpt>
      <trkpt lat="44.392080" lon="-0.830930">
        <time>2017-06-24T09:10:41Z</time>
      </trkpt>
      <trkpt lat="44.392320" lon="-0.830620">
        <time>2017-06-24T09:10:42Z</time>
      </trkpt>
      <trkpt lat="44.392560" lon="-0.830310">
        <time>2017-06-24T09:10:43Z</time>
      </trkpt>
      <trkpt lat="44.392810" lon="-0.829970">
        <time>2017-06-24T09:10:44Z</time>
      </trkpt>
      <trkpt lat="44.393030" lon="-0.829670">
        <time>2017-06-24T09:10:45Z</time>
      </trkpt>
      <trkpt lat="44.393260" lon="-0.829340">
        <time>2017-06-24T09:10:46Z</time>
      </trkpt>
      <trkpt lat="44.393500" lon="-0.829000">
        <time>2017-06-24T09:10:47Z</time>
      </trkpt>
      <trkpt lat="44.393720" lon="-0.828700">
        <time>2017-06-24T09:10:48Z</time>
      </trkpt>
      <trkpt lat="44.393940" lon="-0.828390">
        <time>2017-06-24T09:10:49Z</time>
      </trkpt>
      <trkpt lat="44.394180" lon="-0.828050">
        <time>2017-06-24T09:10:50Z</time>
      </trkpt>
      <trkpt lat="44.394400" lon="-0.827750">
        <time>2017-06-24T09:10:51Z</time>
      </trkpt>
      <trkpt lat="44.394640" lon="-0.827430">
        <time>2017-06-24T09:10:52Z</time>
      </trkpt>
      <trkpt lat="44.394850" lon="-0.827130">
        <time>2017-06-24T09:10:53Z</time>
      </trkpt>
      <trkpt lat="44.395070" lon="-0.826820">
        <time>2017-06-24T09:10:54Z</time>
      </trkpt>
      <trkpt lat="44.395310" lon="-0.826490">
        <time>2017-06-24T09:10:55Z</time>
      </trkpt>
      <trkpt lat="44.395520" lon="-0.826200">
        <time>2017-06-24T09:10:56Z</time>
      </trkpt>
      <trkpt lat="44.395740" lon="-0.825890">
        <time>2017-06-24T09:10:57Z</time>
      </trkpt>
      <trkpt lat="44.395970" lon="-0.825580">
        <time>2017-06-24T09:10:58Z</time>
      </trkpt>
      <trkpt lat="44.396210" lon="-0.825260">
        <time>2017-06-24T09:10:59Z</time>
      </trkpt>
      <trkpt lat="44.396460" lon="-0.824920">
        <time>2017-06-24T09:11:00Z</time>
      </trkpt>
      <trkpt lat="44.396680" lon="-0.824620">
        <time>2017-06-24T09:11:01Z</time>
      </trkpt>
      <trkpt lat="44.396910" lon="-0.824310">
        <time>2017-06-24T09:11:02Z</time>
      </trkpt>
      <trkpt lat="44.397160" lon="-0.823960">
        <time>2017-06-24T09:11:03Z</time>
      </trkpt>
      <trkpt lat="44.397380" lon="-0.823660">
        <time>2017-06-24T09:11:04Z</time>
      </trkpt>
      <trkpt lat="44.397600" lon="-0.823330">
        <time>2017-06-24T09:11:05Z</time>
      </trkpt>
      <trkpt lat="44.397850" lon="-0.822990">
        <time>2017-06-24T09:11:06Z</time>
      </trkpt>
      <trkpt lat="44.398060" lon="-0.822690">
        <time>2017-06-24T09:11:07Z</time>
      </trkpt>
      <trkpt lat="44.398320" lon="-0.822360">
        <time>2017-06-24T09:11:08Z</time>
      </trkpt>
      <trkpt lat="44.398540" lon="-0.822070">
        <time>2017-06-24T09:11:09Z</time>
      </trkpt>
      <trkpt lat="44.398790" lon="-0.821760">
        <time>2017-06-24T09:11:10Z</time>
      </trkpt>
      <trkpt lat="44.399060" lon="-0.821450">
        <time>2017-06-24T09:11:11Z</time>
      </trkpt>
      <trkpt lat="44.399300" lon="-0.821190">
        <time>2017-06-24T09:11:12Z</time>
      </trkpt>
      <trkpt lat="44.399570" lon="-0.820930">
        <time>2017-06-24T09:11:13Z</time>
      </trkpt>
      <trkpt lat="44.399850" lon="-0.820680">
        <time>2017-06-24T09:11:14Z</time>
      </trkpt>
      <trkpt lat="44.400120" lon="-0.820440">
        <time>2017-06-24T09:11:15Z</time>
      </trkpt>
      <trkpt lat="44.400410" lon="-0.820190">
        <time>2017-06-24T09:11:16Z</time>
      </trkpt>
      <trkpt lat="44.400670" lon="-0.819990">
        <time>2017-06-24T09:11:17Z</time>
      </trkpt>
      <trkpt lat="44.400950" lon="-0.819780">
        <time>2017-06-24T09:11:18Z</time>
      </trkpt>
      <trkpt lat="44.401250" lon="-0.819580">
        <time>2017-06-24T09:11:19Z</time>
      </trkpt>
      <trkpt lat="44.401520" lon="-0.819410">
        <time>2017-06-24T09:11:20Z</time>
      </trkpt>
      <trkpt lat="44.401800" lon="-0.819250">
        <time>2017-06-24T09:11:21Z</time>
      </trkpt>
      <trkpt lat="44.402110" lon="-0.819090">
        <time>2017-06-24T09:11:22Z</time>
      </trkpt>
      <trkpt lat="44.402390" lon="-0.818960">
        <time>2017-06-24T09:11:23Z</time>
      </trkpt>
      <trkpt lat="44.402700" lon="-0.818830">
        <time>2017-06-24T09:11:24Z</time>
      </trkpt>
      <trkpt lat="44.402980" lon="-0.818730">
        <time>2017-06-24T09:11:25Z</time>
      </trkpt>
      <trkpt lat="44.403280" lon="-0.818620">
        <time>2017-06-24T09:11:26Z</time>
      </trkpt>
      <trkpt lat="44.403590" lon="-0.818520">
        <time>2017-06-24T09:11:27Z</time>
      </trkpt>
      <trkpt lat="44.403870" lon="-0.818450">
        <time>2017-06-24T09:11:28Z</time>
      </trkpt>
      <trkpt lat="44.404170" lon="-0.818390">
        <time>2017-06-24T09:11:29Z</time>
      </trkpt>
      <trkpt lat="44.404480" lon="-0.818340">
        <time>2017-06-24T09:11:30Z</time>
      </trkpt>
      <trkpt lat="44.404780" lon="-0.818290">
        <time>2017-06-24T09:11:31Z</time>
      </trkpt>
      <trkpt lat="44.405110" lon="-0.818260">
        <time>2017-06-24T09:11:32Z</time>
      </trkpt>
      <trkpt lat="44.405400" lon="-0.818230">
        <time>2017-06-24T09:11:33Z</time>
      </trkpt>
      <trkpt lat="44.405720" lon="-0.818220">
        <time>2017-06-24T09:11:34Z</time>
      </trkpt>
      <trkpt lat="44.406070" lon="-0.818220">
        <time>2017-06-24T09:11:35Z</time>
      </trkpt>
      <trkpt lat="44.406370" lon="-0.818240">
        <time>2017-06-24T09:11:36Z</time>
      </trkpt>
      <trkpt lat="44.406690" lon="-0.818270">
        <time>2017-06-24T09:11:37Z</time>
      </trkpt>
      <trkpt lat="44.407040" lon="-0.818300">
        <time>2017-06-24T09:11:38Z</time>
      </trkpt>
      <trkpt lat="44.407350" lon="-0.818340">
        <time>2017-06-24T09:11:39Z</time>
      </trkpt>
      <trkpt lat="44.407700" lon="-0.818400">
        <time>2017-06-24T09:11:40Z</time>
      </trkpt>
      <trkpt lat="44.408000" lon="-0.818450">
        <time>2017-06-24T09:11:41Z</time>
      </trkpt>
      <trkpt lat="44.408320" lon="-0.818510">
        <time>2017-06-24T09:11:42Z</time>
      </trkpt>
      <trkpt lat="44.408650" lon="-0.818580">
        <time>2017-06-24T09:11:43Z</time>
      </trkpt>
      <trkpt lat="44.408940" lon="-0.818640">
        <time>2017-06-24T09:11:44Z</time>
      </trkpt>
      <trkpt lat="44.409260" lon="-0.818700">
        <time>2017-06-24T09:11:45Z</time>
      </trkpt>
      <trkpt lat="44.409570" lon="-0.818770">
        <time>2017-06-24T09:11:46Z</time>
      </trkpt>
      <trkpt lat="44.409890" lon="-0.818830">
        <time>2017-06-24T09:11:47Z</time>
      </trkpt>
      <trkpt lat="44.410220" lon="-0.818900">
        <time>2017-06-24T09:11:48Z</time>
      </trkpt>
      <trkpt lat="44.410520" lon="-0.818950">
        <time>2017-06-24T09:11:49Z</time>
      </trkpt>
      <trkpt lat="44.410830" lon="-0.819020">
        <time>2017-06-24T09:11:50Z</time>
      </trkpt>
      <trkpt lat="44.411160" lon="-0.819090">
        <time>2017-06-24T09:11:51Z</time>
      </trkpt>
      <trkpt lat="44.411450" lon="-0.819150">
        <time>2017-06-24T09:11:52Z</time>
      </trkpt>
      <trkpt lat="44.411760" lon="-0.819210">
        <time>2017-06-24T09:11:53Z</time>
      </trkpt>
      <trkpt lat="44.412090" lon="-0.819280">
        <time>2017-06-24T09:11:54Z</time>
      </trkpt>
      <trkpt lat="44.412380" lon="-0.819340">
        <time>2017-06-24T09:11:55Z</time>
      </trkpt>
      <trkpt lat="44.412710" lon="-0.819410">
        <time>2017-06-24T09:11:56Z</time>
      </trkpt>
      <trkpt lat="44.412990" lon="-0.819470">
        <time>2017-06-24T09:11:57Z</time>
      </trkpt>
      <trkpt lat="44.413300" lon="-0.819540">
        <time>2017-06-24T09:11:58Z</time>
      </trkpt>
      <trkpt lat="44.413620" lon="-0.819600">
        <time>2017-06-24T09:11:59Z</time>
      </trkpt>
      <trkpt lat="44.413910" lon="-0.819660">
        <time>2017-06-24T09:12:00Z</time>
      </trkpt>
      <trkpt lat="44.414210" lon="-0.819720">
        <time>2017-06-24T09:12:01Z</time>
      </trkpt>
      <trkpt lat="44.414520" lon="-0.819780">
        <time>2017-06-24T09:12:02Z</time>
      </trkpt>
      <trkpt lat="44.414830" lon="-0.819840">
        <time>2017-06-24T09:12:03Z</time>
      </trkpt>
      <trkpt lat="44.415150" lon="-0.819910">
        <time>2017-06-24T09:12:04Z</time>
      </trkpt>
      <trkpt lat="44.415440" lon="-0.819970">
        <time>2017-06-24T09:12:05Z</time>
      </trkpt>
      <trkpt lat="44.415750" lon="-0.820030">
        <time>2017-06-24T09:12:06Z</time>
      </trkpt>
      <trkpt lat="44.416070" lon="-0.820100">
        <time>2017-06-24T09:12:07Z</time>
      </trkpt>
      <trkpt lat="44.416350" lon="-0.820160">
        <time>2017-06-24T09:12:08Z</time>
      </trkpt>
      <trkpt lat="44.416660" lon="-0.820230">
        <time>2017-06-24T09:12:09Z</time>
      </trkpt>
      <trkpt lat="44.416990" lon="-0.820290">
        <time>2017-06-24T09:12:10Z</time>
      </trkpt>
      <trkpt lat="44.417280" lon="-0.820330">
        <time>2017-06-24T09:12:11Z</time>
      </trkpt>
      <trkpt lat="44.417620" lon="-0.820370">
        <time>2017-06-24T09:12:12Z</time>
      </trkpt>
      <trkpt lat="44.417910" lon="-0.820390">
        <time>2017-06-24T09:12:13Z</time>
      </trkpt>
      <trkpt lat="44.418240" lon="-0.820420">
        <time>2017-06-24T09:12:14Z</time>
      </trkpt>
      <trkpt lat="44.418580" lon="-0.820410">
        <time>2017-06-24T09:12:15Z</time>
      </trkpt>
      <trkpt lat="44.418880" lon="-0.820390">
        <time>2017-06-24T09:12:16Z</time>
      </trkpt>
      <trkpt lat="44.419200" lon="-0.820360">
        <time>2017-06-24T09:12:17Z</time>
      </trkpt>
      <trkpt lat="44.419520" lon="-0.820320">
        <time>2017-06-24T09:12:18Z</time>
      </trkpt>
      <trkpt lat="44.419840" lon="-0.820260">
        <time>2017-06-24T09:12:19Z</time>
      </trkpt>
      <trkpt lat="44.420170" lon="-0.820190">
        <time>2017-06-24T09:12:20Z</time>
      </trkpt>
      <trkpt lat="44.420460" lon="-0.820110">
        <time>2017-06-24T09:12:21Z</time>
      </trkpt>
      <trkpt lat="44.420770" lon="-0.820030">
        <time>2017-06-24T09:12:22Z</time>
      </trkpt>
      <trkpt lat="44.421100" lon="-0.819920">
        <time>2017-06-24T09:12:23Z</time>
      </trkpt>
      <trkpt lat="44.421380" lon="-0.819810">
        <time>2017-06-24T09:12:24Z</time>
      </trkpt>
      <trkpt lat="44.421670" lon="-0.819690">
        <time>2017-06-24T09:12:25Z</time>
      </trkpt>
      <trkpt lat="44.421990" lon="-0.819560">
        <time>2017-06-24T09:12:26Z</time>
      </trkpt>
      <trkpt lat="44.422260" lon="-0.819440">
        <time>2017-06-24T09:12:27Z</time>
      </trkpt>
      <trkpt lat="44.422580" lon="-0.819300">
        <time>2017-06-24T09:12:28Z</time>
      </trkpt>
      <trkpt lat="44.422860" lon="-0.819170">
        <time>2017-06-24T09:12:29Z</time>
      </trkpt>
      <trkpt lat="44.423160" lon="-0.819040">
        <time>2017-06-24T09:12:30Z</time>
      </trkpt>
      <trkpt lat="44.423490" lon="-0.818910">
        <time>2017-06-24T09:12:31Z</time>
      </trkpt>
      <trkpt lat="44.423770" lon="-0.818800">
        <time>2017-06-24T09:12:32Z</time>
      </trkpt>
      <trkpt lat="44.424070" lon="-0.818670">
        <time>2017-06-24T09:12:33Z</time>
      </trkpt>
      <trkpt lat="44.424380" lon="-0.818540">
        <time>2017-06-24T09:12:34Z</time>
      </trkpt>
      <trkpt lat="44.424680" lon="-0.818400">
        <time>2017-06-24T09:12:35Z</time>
      </trkpt>
      <trkpt lat="44.425000" lon="-0.818260">
        <time>2017-06-24T09:12:36Z</time>
      </trkpt>
      <trkpt lat="44.425290" lon="-0.818140">
        <time>2017-06-24T09:12:37Z</time>
      </trkpt>
      <trkpt lat="44.425600" lon="-0.818010">
        <time>2017-06-24T09:12:38Z</time>
      </trkpt>
      <trkpt lat="44.425920" lon="-0.817880">
        <time>2017-06-24T09:12:39Z</time>
      </trkpt>
      <trkpt lat="44.426210" lon="-0.817760">
        <time>2017-06-24T09:12:40Z</time>
      </trkpt>
      <trkpt lat="44.426520" lon="-0.817640">
        <time>2017-06-24T09:12:41Z</time>
      </trkpt>
      <trkpt lat="44.426840" lon="-0.817500">
        <time>2017-06-24T09:12:42Z</time>
      </trkpt>
      <trkpt lat="44.427120" lon="-0.817380">
        <time>2017-06-24T09:12:43Z</time>
      </trkpt>
      <trkpt lat="44.427440" lon="-0.817250">
        <time>2017-06-24T09:12:44Z</time>
      </trkpt>
      <trkpt lat="44.427720" lon="-0.817130">
        <time>2017-06-24T09:12:45Z</time>
      </trkpt>
      <trkpt lat="44.428020" lon="-0.817000">
        <time>2017-06-24T09:12:46Z</time>
      </trkpt>
      <trkpt lat="44.428330" lon="-0.816870">
        <time>2017-06-24T09:12:47Z</time>
      </trkpt>
      <trkpt lat="44.428610" lon="-0.816750">
        <time>2017-06-24T09:12:48Z</time>
      </trkpt>
      <trkpt lat="44.428910" lon="-0.816630">
        <time>2017-06-24T09:12:49Z</time>
      </trkpt>
      <trkpt lat="44.429200" lon="-0.816500">
        <time>2017-06-24T09:12:50Z</time>
      </trkpt>
      <trkpt lat="44.429500" lon="-0.816380">
        <time>2017-06-24T09:12:51Z</time>
      </trkpt>
      <trkpt lat="44.429820" lon="-0.816240">
        <time>2017-06-24T09:12:52Z</time>
      </trkpt>
      <trkpt lat="44.430110" lon="-0.816130">
        <time>2017-06-24T09:12:53Z</time>
      </trkpt>
      <trkpt lat="44.430400" lon="-0.816010">
        <time>2017-06-24T09:12:54Z</time>
      </trkpt>
      <trkpt lat="44.430730" lon="-0.815870">
        <time>2017-06-24T09:12:55Z</time>
      </trkpt>
      <trkpt lat="44.431020" lon="-0.815760">
        <time>2017-06-24T09:12:56Z</time>
      </trkpt>
      <trkpt lat="44.431340" lon="-0.815630">
        <time>2017-06-24T09:12:57Z</time>
      </trkpt>
      <trkpt lat="44.431670" lon="-0.815500">
        <time>2017-06-24T09:12:58Z</time>
      </trkpt>
      <trkpt lat="44.431970" lon="-0.815380">
        <time>2017-06-24T09:12:59Z</time>
      </trkpt>
      <trkpt lat="44.432320" lon="-0.815240">
        <time>2017-06-24T09:13:00Z</time>
      </trkpt>
      <trkpt lat="44.432610" lon="-0.815120">
        <time>2017-06-24T09:13:01Z</time>
      </trkpt>
      <trkpt lat="44.432930" lon="-0.814990">
        <time>2017-06-24T09:13:02Z</time>
      </trkpt>
      <trkpt lat="44.433270" lon="-0.814840">
        <time>2017-06-24T09:13:03Z</time>
      </trkpt>
      <trkpt lat="44.433570" lon="-0.814720">
        <time>2017-06-24T09:13:04Z</time>
      </trkpt>
      <trkpt lat="44.433890" lon="-0.814590">
        <time>2017-06-24T09:13:05Z</time>
      </trkpt>
      <trkpt lat="44.434210" lon="-0.814450">
        <time>2017-06-24T09:13:06Z</time>
      </trkpt>
      <trkpt lat="44.434530" lon="-0.814310">
        <time>2017-06-24T09:13:07Z</time>
      </trkpt>
      <trkpt lat="44.434870" lon="-0.814160">
        <time>2017-06-24T09:13:08Z</time>
      </trkpt>
      <trkpt lat="44.435170" lon="-0.814040">
        <time>2017-06-24T09:13:09Z</time>
      </trkpt>
      <trkpt lat="44.435490" lon="-0.813900">
        <time>2017-06-24T09:13:10Z</time>
      </trkpt>
      <trkpt lat="44.435820" lon="-0.813760">
        <time>2017-06-24T09:13:11Z</time>
      </trkpt>
      <trkpt lat="44.436110" lon="-0.813640">
        <time>2017-06-24T09:13:12Z</time>
      </trkpt>
      <trkpt lat="44.436420" lon="-0.813510">
        <time>2017-06-24T09:13:13Z</time>
      </trkpt>
      <trkpt lat="44.436760" lon="-0.813370">
        <time>2017-06-24T09:13:14Z</time>
      </trkpt>
      <trkpt lat="44.437050" lon="-0.813250">
        <time>2017-06-24T09:13:15Z</time>
      </trkpt>
      <trkpt lat="44.437370" lon="-0.813110">
        <time>2017-06-24T09:13:16Z</time>
      </trkpt>
      <trkpt lat="44.437670" lon="-0.812990">
        <time>2017-06-24T09:13:17Z</time>
      </trkpt>
      <trkpt lat="44.437970" lon="-0.812860">
        <time>2017-06-24T09:13:18Z</time>
      </trkpt>
      <trkpt lat="44.438300" lon="-0.812730">
        <time>2017-06-24T09:13:19Z</time>
      </trkpt>
      <trkpt lat="44.438580" lon="-0.812610">
        <time>2017-06-24T09:13:20Z</time>
      </trkpt>
      <trkpt lat="44.438880" lon="-0.812490">
        <time>2017-06-24T09:13:21Z</time>
      </trkpt>
      <trkpt lat="44.439190" lon="-0.812360">
        <time>2017-06-24T09:13:22Z</time>
      </trkpt>
      <trkpt lat="44.439490" lon="-0.812240">
        <time>2017-06-24T09:13:23Z</time>
      </trkpt>
      <trkpt lat="44.439810" lon="-0.812100">
        <time>2017-06-24T09:13:24Z</time>
      </trkpt>
      <trkpt lat="44.440090" lon="-0.811980">
        <time>2017-06-24T09:13:25Z</time>
      </trkpt>
      <trkpt lat="44.440390" lon="-0.811860">
        <time>2017-06-24T09:13:26Z</time>
      </trkpt>
      <trkpt lat="44.440720" lon="-0.811730">
        <time>2017-06-24T09:13:27Z</time>
      </trkpt>
      <trkpt lat="44.441010" lon="-0.811620">
        <time>2017-06-24T09:13:28Z</time>
      </trkpt>
      <trkpt lat="44.441310" lon="-0.811510">
        <time>2017-06-24T09:13:29Z</time>
      </trkpt>
      <trkpt lat="44.441640" lon="-0.811390">
        <time>2017-06-24T09:13:30Z</time>
      </trkpt>
      <trkpt lat="44.441930" lon="-0.811290">
        <time>2017-06-24T09:13:31Z</time>
      </trkpt>
      <trkpt lat="44.442260" lon="-0.811180">
        <time>2017-06-24T09:13:32Z</time>
      </trkpt>
      <trkpt lat="44.442540" lon="-0.811080">
        <time>2017-06-24T09:13:33Z</time>
      </trkpt>
      <trkpt lat="44.442850" lon="-0.810990">
        <time>2017-06-24T09:13:34Z</time>
      </trkpt>
      <trkpt lat="44.443170" lon="-0.810880">
        <time>2017-06-24T09:13:35Z</time>
      </trkpt>
      <trkpt lat="44.443450" lon="-0.810800">
        <time>2017-06-24T09:13:36Z</time>
      </trkpt>
      <trkpt lat="44.443760" lon="-0.810720">
        <time>2017-06-24T09:13:37Z</time>
      </trkpt>
      <trkpt lat="44.444060" lon="-0.810650">
        <time>2017-06-24T09:13:38Z</time>
      </trkpt>
      <trkpt lat="44.444370" lon="-0.810580">
        <time>2017-06-24T09:13:39Z</time>
      </trkpt>
      <trkpt lat="44.444700" lon="-0.810500">
        <time>2017-06-24T09:13:40Z</time>
      </trkpt>
      <trkpt lat="44.444990" lon="-0.810440">
        <time>2017-06-24T09:13:41Z</time>
      </trkpt>
      <trkpt lat="44.445300" lon="-0.810380">
        <time>2017-06-24T09:13:42Z</time>
      </trkpt>
      <trkpt lat="44.445640" lon="-0.810320">
        <time>2017-06-24T09:13:43Z</time>
      </trkpt>
      <trkpt lat="44.445940" lon="-0.810270">
        <time>2017-06-24T09:13:44Z</time>
      </trkpt>
      <trkpt lat="44.446250" lon="-0.810230">
        <time>2017-06-24T09:13:45Z</time>
      </trkpt>
      <trkpt lat="44.446590" lon="-0.810180">
        <time>2017-06-24T09:13:46Z</time>
      </trkpt>
      <trkpt lat="44.446890" lon="-0.810150">
        <time>2017-06-24T09:13:47Z</time>
      </trkpt>
      <trkpt lat="44.447220" lon="-0.810120">
        <time>2017-06-24T09:13:48Z</time>
      </trkpt>
      <trkpt lat="44.447520" lon="-0.810090">
        <time>2017-06-24T09:13:49Z</time>
      </trkpt>
      <trkpt lat="44.447840" lon="-0.810070">
        <time>2017-06-24T09:13:50Z</time>
      </trkpt>
      <trkpt lat="44.448170" lon="-0.810050">
        <time>2017-06-24T09:13:51Z</time>
      </trkpt>
      <trkpt lat="44.448470" lon="-0.810040">
        <time>2017-06-24T09:13:52Z</time>
      </trkpt>
      <trkpt lat="44.448790" lon="-0.810040">
        <time>2017-06-24T09:13:53Z</time>
      </trkpt>
      <trkpt lat="44.449110" lon="-0.810040">
        <time>2017-06-24T09:13:54Z</time>
      </trkpt>
      <trkpt lat="44.449440" lon="-0.810050">
        <time>2017-06-24T09:13:55Z</time>
      </trkpt>
      <trkpt lat="44.449780" lon="-0.810060">
        <time>2017-06-24T09:13:56Z</time>
      </trkpt>
      <trkpt lat="44.450090" lon="-0.810080">
        <time>2017-06-24T09:13:57Z</time>
      </trkpt>
      <trkpt lat="44.450410" lon="-0.810100">
        <time>2017-06-24T09:13:58Z</time>
      </trkpt>
      <trkpt lat="44.450760" lon="-0.810120">
        <time>2017-06-24T09:13:59Z</time>
      </trkpt>
      <trkpt lat="44.451070" lon="-0.810160">
        <time>2017-06-24T09:14:00Z</time>
      </trkpt>
      <trkpt lat="44.451400" lon="-0.810190">
        <time>2017-06-24T09:14:01Z</time>
      </trkpt>
      <trkpt lat="44.451750" lon="-0.810250">
        <time>2017-06-24T09:14:02Z</time>
      </trkpt>
      <trkpt lat="44.452060" lon="-0.810300">
        <time>2017-06-24T09:14:03Z</time>
      </trkpt>
      <trkpt lat="44.452410" lon="-0.810360">
        <time>2017-06-24T09:14:04Z</time>
      </trkpt>
      <trkpt lat="44.452720" lon="-0.810420">
        <time>2017-06-24T09:14:05Z</time>
      </trkpt>
      <trkpt lat="44.453040" lon="-0.810480">
        <time>2017-06-24T09:14:06Z</time>
      </trkpt>
      <trkpt lat="44.453380" lon="-0.810560">
        <time>2017-06-24T09:14:07Z</time>
      </trkpt>
      <trkpt lat="44.453670" lon="-0.810630">
        <time>2017-06-24T09:14:08Z</time>
      </trkpt>
      <trkpt lat="44.453990" lon="-0.810710">
        <time>2017-06-24T09:14:09Z</time>
      </trkpt>
      <trkpt lat="44.454300" lon="-0.810800">
        <time>2017-06-24T09:14:10Z</time>
      </trkpt>
      <trkpt lat="44.454610" lon="-0.810890">
        <time>2017-06-24T09:14:11Z</time>
      </trkpt>
      <trkpt lat="44.454930" lon="-0.811000">
        <time>2017-06-24T09:14:12Z</time>
      </trkpt>
      <trkpt lat="44.455220" lon="-0.811090">
        <time>2017-06-24T09:14:13Z</time>
      </trkpt>
      <trkpt lat="44.455520" lon="-0.811180">
        <time>2017-06-24T09:14:14Z</time>
      </trkpt>
      <trkpt lat="44.455840" lon="-0.811300">
        <time>2017-06-24T09:14:15Z</time>
      </trkpt>
      <trkpt lat="44.456110" lon="-0.811410">
        <time>2017-06-24T09:14:16Z</time>
      </trkpt>
      <trkpt lat="44.456410" lon="-0.811530">
        <time>2017-06-24T09:14:17Z</time>
      </trkpt>
      <trkpt lat="44.456720" lon="-0.811660">
        <time>2017-06-24T09:14:18Z</time>
      </trkpt>
      <trkpt lat="44.457000" lon="-0.811800">
        <time>2017-06-24T09:14:19Z</time>
      </trkpt>
      <trkpt lat="44.457320" lon="-0.811960">
        <time>2017-06-24T09:14:20Z</time>
      </trkpt>
      <trkpt lat="44.457600" lon="-0.812090">
        <time>2017-06-24T09:14:21Z</time>
      </trkpt>
      <trkpt lat="44.457910" lon="-0.812250">
        <time>2017-06-24T09:14:22Z</time>
      </trkpt>
      <trkpt lat="44.458230" lon="-0.812420">
        <time>2017-06-24T09:14:23Z</time>
      </trkpt>
      <trkpt lat="44.458500" lon="-0.812570">
        <time>2017-06-24T09:14:24Z</time>
      </trkpt>
      <trkpt lat="44.458800" lon="-0.812730">
        <time>2017-06-24T09:14:25Z</time>
      </trkpt>
      <trkpt lat="44.459110" lon="-0.812900">
        <time>2017-06-24T09:14:26Z</time>
      </trkpt>
      <trkpt lat="44.459410" lon="-0.813060">
        <time>2017-06-24T09:14:27Z</time>
      </trkpt>
      <trkpt lat="44.459720" lon="-0.813240">
        <time>2017-06-24T09:14:28Z</time>
      </trkpt>
      <trkpt lat="44.459990" lon="-0.813400">
        <time>2017-06-24T09:14:29Z</time>
      </trkpt>
      <trkpt lat="44.460290" lon="-0.813580">
        <time>2017-06-24T09:14:30Z</time>
      </trkpt>
      <trkpt lat="44.460600" lon="-0.813780">
        <time>2017-06-24T09:14:31Z</time>
      </trkpt>
      <trkpt lat="44.460870" lon="-0.813960">
        <time>2017-06-24T09:14:32Z</time>
      </trkpt>
      <trkpt lat="44.461160" lon="-0.814160">
        <time>2017-06-24T09:14:33Z</time>
      </trkpt>
      <trkpt lat="44.461460" lon="-0.814390">
        <time>2017-06-24T09:14:34Z</time>
      </trkpt>
      <trkpt lat="44.461720" lon="-0.814590">
        <time>2017-06-24T09:14:35Z</time>
      </trkpt>
      <trkpt lat="44.462020" lon="-0.814820">
        <time>2017-06-24T09:14:36Z</time>
      </trkpt>
      <trkpt lat="44.462280" lon="-0.815030">
        <time>2017-06-24T09:14:37Z</time>
      </trkpt>
      <trkpt lat="44.462560" lon="-0.815250">
        <time>2017-06-24T09:14:38Z</time>
      </trkpt>
      <trkpt lat="44.462860" lon="-0.815490">
        <time>2017-06-24T09:14:39Z</time>
      </trkpt>
      <trkpt lat="44.463120" lon="-0.815700">
        <time>2017-06-24T09:14:40Z</time>
      </trkpt>
      <trkpt lat="44.463400" lon="-0.815930">
        <time>2017-06-24T09:14:41Z</time>
      </trkpt>
      <trkpt lat="44.463680" lon="-0.816170">
        <time>2017-06-24T09:14:42Z</time>
      </trkpt>
      <trkpt lat="44.463950" lon="-0.816400">
        <time>2017-06-24T09:14:43Z</time>
      </trkpt>
      <trkpt lat="44.464240" lon="-0.816650">
        <time>2017-06-24T09:14:44Z</time>
      </trkpt>
      <trkpt lat="44.464500" lon="-0.816880">
        <time>2017-06-24T09:14:45Z</time>
      </trkpt>
      <trkpt lat="44.464770" lon="-0.817120">
        <time>2017-06-24T09:14:46Z</time>
      </trkpt>
      <trkpt lat="44.465050" lon="-0.817380">
        <time>2017-06-24T09:14:47Z</time>
      </trkpt>
      <trkpt lat="44.465310" lon="-0.817600">
        <time>2017-06-24T09:14:48Z</time>
      </trkpt>
      <trkpt lat="44.465570" lon="-0.817840">
        <time>2017-06-24T09:14:49Z</time>
      </trkpt>
      <trkpt lat="44.465860" lon="-0.818090">
        <time>2017-06-24T09:14:50Z</time>
      </trkpt>
      <trkpt lat="44.466100" lon="-0.818320">
        <time>2017-06-24T09:14:51Z</time>
      </trkpt>
      <trkpt lat="44.466380" lon="-0.818570">
        <time>2017-06-24T09:14:52Z</time>
      </trkpt>
      <trkpt lat="44.466620" lon="-0.818790">
        <time>2017-06-24T09:14:53Z</time>
      </trkpt>
      <trkpt lat="44.466880" lon="-0.819020">
        <time>2017-06-24T09:14:54Z</time>
      </trkpt>
      <trkpt lat="44.467150" lon="-0.819260">
        <time>2017-06-24T09:14:55Z</time>
      </trkpt>
      <trkpt lat="44.467390" lon="-0.819480">
        <time>2017-06-24T09:14:56Z</time>
      </trkpt>
      <trkpt lat="44.467640" lon="-0.819700">
        <time>2017-06-24T09:14:57Z</time>
      </trkpt>
      <trkpt lat="44.467890" lon="-0.819940">
        <time>2017-06-24T09:14:58Z</time>
      </trkpt>
      <trkpt lat="44.468140" lon="-0.820160">
        <time>2017-06-24T09:14:59Z</time>
      </trkpt>
      <trkpt lat="44.468400" lon="-0.820400">
        <time>2017-06-24T09:15:00Z</time>
      </trkpt>
      <trkpt lat="44.468640" lon="-0.820600">
        <time>2017-06-24T09:15:01Z</time>
      </trkpt>
      <trkpt lat="44.468880" lon="-0.820820">
        <time>2017-06-24T09:15:02Z</time>
      </trkpt>
      <trkpt lat="44.469140" lon="-0.821040">
        <time>2017-06-24T09:15:03Z</time>
      </trkpt>
      <trkpt lat="44.469370" lon="-0.821240">
        <time>2017-06-24T09:15:04Z</time>
      </trkpt>
      <trkpt lat="44.469610" lon="-0.821460">
        <time>2017-06-24T09:15:05Z</time>
      </trkpt>
      <trkpt lat="44.469860" lon="-0.821680">
        <time>2017-06-24T09:15:06Z</time>
      </trkpt>
      <trkpt lat="44.470090" lon="-0.821880">
        <time>2017-06-24T09:15:07Z</time>
      </trkpt>
      <trkpt lat="44.470340" lon="-0.822100">
        <time>2017-06-24T09:15:08Z</time>
      </trkpt>
      <trkpt lat="44.470560" lon="-0.822300">
        <time>2017-06-24T09:15:09Z</time>
      </trkpt>
      <trkpt lat="44.470790" lon="-0.822510">
        <time>2017-06-24T09:15:10Z</time>
      </trkpt>
      <trkpt lat="44.471050" lon="-0.822720">
        <time>2017-06-24T09:15:11Z</time>
      </trkpt>
      <trkpt lat="44.471270" lon="-0.822920">
        <time>2017-06-24T09:15:12Z</time>
      </trkpt>
      <trkpt lat="44.471500" lon="-0.823130">
        <time>2017-06-24T09:15:13Z</time>
      </trkpt>
      <trkpt lat="44.471730" lon="-0.823350">
        <time>2017-06-24T09:15:14Z</time>
      </trkpt>
      <trkpt lat="44.471970" lon="-0.823560">
        <time>2017-06-24T09:15:15Z</time>
      </trkpt>
      <trkpt lat="44.472220" lon="-0.823790">
        <time>2017-06-24T09:15:16Z</time>
      </trkpt>
      <trkpt lat="44.472440" lon="-0.823990">
        <time>2017-06-24T09:15:17Z</time>
      </trkpt>
      <trkpt lat="44.472680" lon="-0.824210">
        <time>2017-06-24T09:15:18Z</time>
      </trkpt>
      <trkpt lat="44.472940" lon="-0.824430">
        <time>2017-06-24T09:15:19Z</time>
      </trkpt>
      <trkpt lat="44.473170" lon="-0.824630">
        <time>2017-06-24T09:15:20Z</time>
      </trkpt>
      <trkpt lat="44.473400" lon="-0.824840">
        <time>2017-06-24T09:15:21Z</time>
      </trkpt>
      <trkpt lat="44.473660" lon="-0.825060">
        <time>2017-06-24T09:15:22Z</time>
      </trkpt>
      <trkpt lat="44.473880" lon="-0.825270">
        <time>2017-06-24T09:15:23Z</time>
      </trkpt>
      <trkpt lat="44.474130" lon="-0.825500">
        <time>2017-06-24T09:15:24Z</time>
      </trkpt>
      <trkpt lat="44.474360" lon="-0.825700">
        <time>2017-06-24T09:15:25Z</time>
      </trkpt>
      <trkpt lat="44.474590" lon="-0.825920">
        <time>2017-06-24T09:15:26Z</time>
      </trkpt>
      <trkpt lat="44.474850" lon="-0.826150">
        <time>2017-06-24T09:15:27Z</time>
      </trkpt>
      <trkpt lat="44.475070" lon="-0.826340">
        <time>2017-06-24T09:15:28Z</time>
      </trkpt>
      <trkpt lat="44.475310" lon="-0.826560">
        <time>2017-06-24T09:15:29Z</time>
      </trkpt>
      <trkpt lat="44.475550" lon="-0.826770">
        <time>2017-06-24T09:15:30Z</time>
      </trkpt>
      <trkpt lat="44.475790" lon="-0.826980">
        <time>2017-06-24T09:15:31Z</time>
      </trkpt>
      <trkpt lat="44.476050" lon="-0.827210">
        <time>2017-06-24T09:15:32Z</time>
      </trkpt>
      <trkpt lat="44.476280" lon="-0.827410">
        <time>2017-06-24T09:15:33Z</time>
      </trkpt>
      <trkpt lat="44.476520" lon="-0.827620">
        <time>2017-06-24T09:15:34Z</time>
      </trkpt>
      <trkpt lat="44.476770" lon="-0.827850">
        <time>2017-06-24T09:15:35Z</time>
      </trkpt>
      <trkpt lat="44.476990" lon="-0.828050">
        <time>2017-06-24T09:15:36Z</time>
      </trkpt>
      <trkpt lat="44.477230" lon="-0.828270">
        <time>2017-06-24T09:15:37Z</time>
      </trkpt>
      <trkpt lat="44.477490" lon="-0.828500">
        <time>2017-06-24T09:15:38Z</time>
      </trkpt>
      <trkpt lat="44.477720" lon="-0.828700">
        <time>2017-06-24T09:15:39Z</time>
      </trkpt>
      <trkpt lat="44.477980" lon="-0.828930">
        <time>2017-06-24T09:15:40Z</time>
      </trkpt>
      <trkpt lat="44.478220" lon="-0.829130">
        <time>2017-06-24T09:15:41Z</time>
      </trkpt>
      <trkpt lat="44.478470" lon="-0.829340">
        <time>2017-06-24T09:15:42Z</time>
      </trkpt>
      <trkpt lat="44.478740" lon="-0.829580">
        <time>2017-06-24T09:15:43Z</time>
      </trkpt>
      <trkpt lat="44.478980" lon="-0.829790">
        <time>2017-06-24T09:15:44Z</time>
      </trkpt>
      <trkpt lat="44.479240" lon="-0.830010">
        <time>2017-06-24T09:15:45Z</time>
      </trkpt>
      <trkpt lat="44.479510" lon="-0.830230">
        <time>2017-06-24T09:15:46Z</time>
      </trkpt>
      <trkpt lat="44.479770" lon="-0.830450">
        <time>2017-06-24T09:15:47Z</time>
      </trkpt>
      <trkpt lat="44.480060" lon="-0.830680">
        <time>2017-06-24T09:15:48Z</time>
      </trkpt>
      <trkpt lat="44.480310" lon="-0.830890">
        <time>2017-06-24T09:15:49Z</time>
      </trkpt>
      <trkpt lat="44.480580" lon="-0.831110">
        <time>2017-06-24T09:15:50Z</time>
      </trkpt>
      <trkpt lat="44.480870" lon="-0.831350">
        <time>2017-06-24T09:15:51Z</time>
      </trkpt>
      <trkpt lat="44.481120" lon="-0.831550">
        <time>2017-06-24T09:15:52Z</time>
      </trkpt>
      <trkpt lat="44.481400" lon="-0.831770">
        <time>2017-06-24T09:15:53Z</time>
      </trkpt>
      <trkpt lat="44.481700" lon="-0.831980">
        <time>2017-06-24T09:15:54Z</time>
      </trkpt>
      <trkpt lat="44.481970" lon="-0.832170">
        <time>2017-06-24T09:15:55Z</time>
      </trkpt>
      <trkpt lat="44.482270" lon="-0.832390">
        <time>2017-06-24T09:15:56Z</time>
      </trkpt>
      <trkpt lat="44.482540" lon="-0.832580">
        <time>2017-06-24T09:15:57Z</time>
      </trkpt>
      <trkpt lat="44.482820" lon="-0.832790">
        <time>2017-06-24T09:15:58Z</time>
      </trkpt>
      <trkpt lat="44.483120" lon="-0.833000">
        <time>2017-06-24T09:15:59Z</time>
      </trkpt>
      <trkpt lat="44.483380" lon="-0.833190">
        <time>2017-06-24T09:16:00Z</time>
      </trkpt>
      <trkpt lat="44.483660" lon="-0.833380">
        <time>2017-06-24T09:16:01Z</time>
      </trkpt>
      <trkpt lat="44.483950" lon="-0.833570">
        <time>2017-06-24T09:16:02Z</time>
      </trkpt>
      <trkpt lat="44.484220" lon="-0.833760">
        <time>2017-06-24T09:16:03Z</time>
      </trkpt>
      <trkpt lat="44.484520" lon="-0.833960">
        <time>2017-06-24T09:16:04Z</time>
      </trkpt>
      <trkpt lat="44.484780" lon="-0.834130">
        <time>2017-06-24T09:16:05Z</time>
      </trkpt>
      <trkpt lat="44.485050" lon="-0.834310">
        <time>2017-06-24T09:16:06Z</time>
      </trkpt>
      <trkpt lat="44.485350" lon="-0.834500">
        <time>2017-06-24T09:16:07Z</time>
      </trkpt>
      <trkpt lat="44.485610" lon="-0.834670">
        <time>2017-06-24T09:16:08Z</time>
      </trkpt>
      <trkpt lat="44.485890" lon="-0.834840">
        <time>2017-06-24T09:16:09Z</time>
      </trkpt>
      <trkpt lat="44.486190" lon="-0.835020">
        <time>2017-06-24T09:16:10Z</time>
      </trkpt>
      <trkpt lat="44.486450" lon="-0.835180">
        <time>2017-06-24T09:16:11Z</time>
      </trkpt>
      <trkpt lat="44.486750" lon="-0.835360">
        <time>2017-06-24T09:16:12Z</time>
      </trkpt>
      <trkpt lat="44.487020" lon="-0.835510">
        <time>2017-06-24T09:16:13Z</time>
      </trkpt>
      <trkpt lat="44.487300" lon="-0.835680">
        <time>2017-06-24T09:16:14Z</time>
      </trkpt>
      <trkpt lat="44.487600" lon="-0.835850">
        <time>2017-06-24T09:16:15Z</time>
      </trkpt>
      <trkpt lat="44.487860" lon="-0.835990">
        <time>2017-06-24T09:16:16Z</time>
      </trkpt>
      <trkpt lat="44.488140" lon="-0.836150">
        <time>2017-06-24T09:16:17Z</time>
      </trkpt>
      <trkpt lat="44.488420" lon="-0.836310">
        <time>2017-06-24T09:16:18Z</time>
      </trkpt>
      <trkpt lat="44.488710" lon="-0.836450">
        <time>2017-06-24T09:16:19Z</time>
      </trkpt>
      <trkpt lat="44.489010" lon="-0.836610">
        <time>2017-06-24T09:16:20Z</time>
      </trkpt>
      <trkpt lat="44.489280" lon="-0.836740">
        <time>2017-06-24T09:16:21Z</time>
      </trkpt>
      <trkpt lat="44.489570" lon="-0.836880">
        <time>2017-06-24T09:16:22Z</time>
      </trkpt>
      <trkpt lat="44.489880" lon="-0.837030">
        <time>2017-06-24T09:16:23Z</time>
      </trkpt>
      <trkpt lat="44.490150" lon="-0.837170">
        <time>2017-06-24T09:16:24Z</time>
      </trkpt>
      <trkpt lat="44.490440" lon="-0.837310">
        <time>2017-06-24T09:16:25Z</time>
      </trkpt>
      <trkpt lat="44.490740" lon="-0.837450">
        <time>2017-06-24T09:16:26Z</time>
      </trkpt>
      <trkpt lat="44.491020" lon="-0.837570">
        <time>2017-06-24T09:16:27Z</time>
      </trkpt>
      <trkpt lat="44.491340" lon="-0.837710">
        <time>2017-06-24T09:16:28Z</time>
      </trkpt>
      <trkpt lat="44.491620" lon="-0.837830">
        <time>2017-06-24T09:16:29Z</time>
      </trkpt>
      <trkpt lat="44.491920" lon="-0.837960">
        <time>2017-06-24T09:16:30Z</time>
      </trkpt>
      <trkpt lat="44.492240" lon="-0.838080">
        <time>2017-06-24T09:16:31Z</time>
      </trkpt>
      <trkpt lat="44.492530" lon="-0.838200">
        <time>2017-06-24T09:16:32Z</time>
      </trkpt>
      <trkpt lat="44.492830" lon="-0.838320">
        <time>2017-06-24T09:16:33Z</time>
      </trkpt>
      <trkpt lat="44.493130" lon="-0.838440">
        <time>2017-06-24T09:16:34Z</time>
      </trkpt>
      <trkpt lat="44.493420" lon="-0.838560">
        <time>2017-06-24T09:16:35Z</time>
      </trkpt>
      <trkpt lat="44.493740" lon="-0.838680">
        <time>2017-06-24T09:16:36Z</time>
      </trkpt>
      <trkpt lat="44.494030" lon="-0.838790">
        <time>2017-06-24T09:16:37Z</time>
      </trkpt>
      <trkpt lat="44.494320" lon="-0.838900">
        <time>2017-06-24T09:16:38Z</time>
      </trkpt>
      <trkpt lat="44.494650" lon="-0.839010">
        <time>2017-06-24T09:16:39Z</time>
      </trkpt>
      <trkpt lat="44.494940" lon="-0.839110">
        <time>2017-06-24T09:16:40Z</time>
      </trkpt>
      <trkpt lat="44.495240" lon="-0.839220">
        <time>2017-06-24T09:16:41Z</time>
      </trkpt>
      <trkpt lat="44.495580" lon="-0.839330">
        <time>2017-06-24T09:16:42Z</time>
      </trkpt>
      <trkpt lat="44.495870" lon="-0.839430">
        <time>2017-06-24T09:16:43Z</time>
      </trkpt>
      <trkpt lat="44.496200" lon="-0.839540">
        <time>2017-06-24T09:16:44Z</time>
      </trkpt>
      <trkpt lat="44.496490" lon="-0.839640">
        <time>2017-06-24T09:16:45Z</time>
      </trkpt>
      <trkpt lat="44.496810" lon="-0.839750">
        <time>2017-06-24T09:16:46Z</time>
      </trkpt>
      <trkpt lat="44.497140" lon="-0.839850">
        <time>2017-06-24T09:16:47Z</time>
      </trkpt>
      <trkpt lat="44.497450" lon="-0.839920">
        <time>2017-06-24T09:16:48Z</time>
      </trkpt>
      <trkpt lat="44.497760" lon="-0.840010">
        <time>2017-06-24T09:16:49Z</time>
      </trkpt>
      <trkpt lat="44.498080" lon="-0.840100">
        <time>2017-06-24T09:16:50Z</time>
      </trkpt>
      <trkpt lat="44.498400" lon="-0.840180">
        <time>2017-06-24T09:16:51Z</time>
      </trkpt>
      <trkpt lat="44.498730" lon="-0.840260">
        <time>2017-06-24T09:16:52Z</time>
      </trkpt>
      <trkpt lat="44.499020" lon="-0.840340">
        <time>2017-06-24T09:16:53Z</time>
      </trkpt>
      <trkpt lat="44.499340" lon="-0.840420">
        <time>2017-06-24T09:16:54Z</time>
      </trkpt>
      <trkpt lat="44.499670" lon="-0.840500">
        <time>2017-06-24T09:16:55Z</time>
      </trkpt>
      <trkpt lat="44.499960" lon="-0.840570">
        <time>2017-06-24T09:16:56Z</time>
      </trkpt>
      <trkpt lat="44.500270" lon="-0.840650">
        <time>2017-06-24T09:16:57Z</time>
      </trkpt>
      <trkpt lat="44.500600" lon="-0.840740">
        <time>2017-06-24T09:16:58Z</time>
      </trkpt>
      <trkpt lat="44.500900" lon="-0.840810">
        <time>2017-06-24T09:16:59Z</time>
      </trkpt>
      <trkpt lat="44.501230" lon="-0.840890">
        <time>2017-06-24T09:17:00Z</time>
      </trkpt>
      <trkpt lat="44.501520" lon="-0.840970">
        <time>2017-06-24T09:17:01Z</time>
      </trkpt>
      <trkpt lat="44.501840" lon="-0.841050">
        <time>2017-06-24T09:17:02Z</time>
      </trkpt>
      <trkpt lat="44.502180" lon="-0.841140">
        <time>2017-06-24T09:17:03Z</time>
      </trkpt>
      <trkpt lat="44.502480" lon="-0.841210">
        <time>2017-06-24T09:17:04Z</time>
      </trkpt>
      <trkpt lat="44.502790" lon="-0.841300">
        <time>2017-06-24T09:17:05Z</time>
      </trkpt>
      <trkpt lat="44.503110" lon="-0.841380">
        <time>2017-06-24T09:17:06Z</time>
      </trkpt>
      <trkpt lat="44.503420" lon="-0.841460">
        <time>2017-06-24T09:17:07Z</time>
      </trkpt>
      <trkpt lat="44.503760" lon="-0.841530">
        <time>2017-06-24T09:17:08Z</time>
      </trkpt>
      <trkpt lat="44.504050" lon="-0.841610">
        <time>2017-06-24T09:17:09Z</time>
      </trkpt>
      <trkpt lat="44.504360" lon="-0.841680">
        <time>2017-06-24T09:17:10Z</time>
      </trkpt>
      <trkpt lat="44.504700" lon="-0.841770">
        <time>2017-06-24T09:17:11Z</time>
      </trkpt>
      <trkpt lat="44.504990" lon="-0.841840">
        <time>2017-06-24T09:17:12Z</time>
      </trkpt>
      <trkpt lat="44.505310" lon="-0.841910">
        <time>2017-06-24T09:17:13Z</time>
      </trkpt>
      <trkpt lat="44.505640" lon="-0.841980">
        <time>2017-06-24T09:17:14Z</time>
      </trkpt>
      <trkpt lat="44.505940" lon="-0.842040">
        <time>2017-06-24T09:17:15Z</time>
      </trkpt>
      <trkpt lat="44.506270" lon="-0.842110">
        <time>2017-06-24T09:17:16Z</time>
      </trkpt>
      <trkpt lat="44.506560" lon="-0.842160">
        <time>2017-06-24T09:17:17Z</time>
      </trkpt>
      <trkpt lat="44.506880" lon="-0.842200">
        <time>2017-06-24T09:17:18Z</time>
      </trkpt>
      <trkpt lat="44.507220" lon="-0.842230">
        <time>2017-06-24T09:17:19Z</time>
      </trkpt>
      <trkpt lat="44.507510" lon="-0.842260">
        <time>2017-06-24T09:17:20Z</time>
      </trkpt>
      <trkpt lat="44.507830" lon="-0.842280">
        <time>2017-06-24T09:17:21Z</time>
      </trkpt>
      <trkpt lat="44.508160" lon="-0.842290">
        <time>2017-06-24T09:17:22Z</time>
      </trkpt>
      <trkpt lat="44.508480" lon="-0.842290">
        <time>2017-06-24T09:17:23Z</time>
      </trkpt>
      <trkpt lat="44.508820" lon="-0.842290">
        <time>2017-06-24T09:17:24Z</time>
      </trkpt>
      <trkpt lat="44.509120" lon="-0.842270">
        <time>2017-06-24T09:17:25Z</time>
      </trkpt>
      <trkpt lat="44.509440" lon="-0.842250">
        <time>2017-06-24T09:17:26Z</time>
      </trkpt>
      <trkpt lat="44.509780" lon="-0.842220">
        <time>2017-06-24T09:17:27Z</time>
      </trkpt>
      <trkpt lat="44.510080" lon="-0.842190">
        <time>2017-06-24T09:17:28Z</time>
      </trkpt>
      <trkpt lat="44.510390" lon="-0.842150">
        <time>2017-06-24T09:17:29Z</time>
      </trkpt>
      <trkpt lat="44.510730" lon="-0.842090">
        <time>2017-06-24T09:17:30Z</time>
      </trkpt>
      <trkpt lat="44.511030" lon="-0.842030">
        <time>2017-06-24T09:17:31Z</time>
      </trkpt>
      <trkpt lat="44.511370" lon="-0.841960">
        <time>2017-06-24T09:17:32Z</time>
      </trkpt>
      <trkpt lat="44.511660" lon="-0.841890">
        <time>2017-06-24T09:17:33Z</time>
      </trkpt>
      <trkpt lat="44.511980" lon="-0.841800">
        <time>2017-06-24T09:17:34Z</time>
      </trkpt>
      <trkpt lat="44.512320" lon="-0.841700">
        <time>2017-06-24T09:17:35Z</time>
      </trkpt>
      <trkpt lat="44.512620" lon="-0.841600">
        <time>2017-06-24T09:17:36Z</time>
      </trkpt>
      <trkpt lat="44.512930" lon="-0.841490">
        <time>2017-06-24T09:17:37Z</time>
      </trkpt>
      <trkpt lat="44.513250" lon="-0.841370">
        <time>2017-06-24T09:17:38Z</time>
      </trkpt>
      <trkpt lat="44.513570" lon="-0.841250">
        <time>2017-06-24T09:17:39Z</time>
      </trkpt>
      <trkpt lat="44.513910" lon="-0.841120">
        <time>2017-06-24T09:17:40Z</time>
      </trkpt>
      <trkpt lat="44.514210" lon="-0.840990">
        <time>2017-06-24T09:17:41Z</time>
      </trkpt>
      <trkpt lat="44.514530" lon="-0.840860">
        <time>2017-06-24T09:17:42Z</time>
      </trkpt>
      <trkpt lat="44.514870" lon="-0.840720">
        <time>2017-06-24T09:17:43Z</time>
      </trkpt>
      <trkpt lat="44.515170" lon="-0.840600">
        <time>2017-06-24T09:17:44Z</time>
      </trkpt>
      <trkpt lat="44.515480" lon="-0.840460">
        <time>2017-06-24T09:17:45Z</time>
      </trkpt>
      <trkpt lat="44.515820" lon="-0.840320">
        <time>2017-06-24T09:17:46Z</time>
      </trkpt>
      <trkpt lat="44.516120" lon="-0.840200">
        <time>2017-06-24T09:17:47Z</time>
      </trkpt>
      <trkpt lat="44.516460" lon="-0.840060">
        <time>2017-06-24T09:17:48Z</time>
      </trkpt>
      <trkpt lat="44.516760" lon="-0.839940">
        <time>2017-06-24T09:17:49Z</time>
      </trkpt>
      <trkpt lat="44.517090" lon="-0.839810">
        <time>2017-06-24T09:17:50Z</time>
      </trkpt>
      <trkpt lat="44.517430" lon="-0.839680">
        <time>2017-06-24T09:17:51Z</time>
      </trkpt>
      <trkpt lat="44.517720" lon="-0.839550">
        <time>2017-06-24T09:17:52Z</time>
      </trkpt>
      <trkpt lat="44.518040" lon="-0.839420">
        <time>2017-06-24T09:17:53Z</time>
      </trkpt>
      <trkpt lat="44.518350" lon="-0.839290">
        <time>2017-06-24T09:17:54Z</time>
      </trkpt>
      <trkpt lat="44.518670" lon="-0.839150">
        <time>2017-06-24T09:17:55Z</time>
      </trkpt>
      <trkpt lat="44.519010" lon="-0.839010">
        <time>2017-06-24T09:17:56Z</time>
      </trkpt>
      <trkpt lat="44.519290" lon="-0.838890">
        <time>2017-06-24T09:17:57Z</time>
      </trkpt>
      <trkpt lat="44.519600" lon="-0.838770">
        <time>2017-06-24T09:17:58Z</time>
      </trkpt>
      <trkpt lat="44.519940" lon="-0.838640">
        <time>2017-06-24T09:17:59Z</time>
      </trkpt>
      <trkpt lat="44.520230" lon="-0.838530">
        <time>2017-06-24T09:18:00Z</time>
      </trkpt>
      <trkpt lat="44.520540" lon="-0.838420">
        <time>2017-06-24T09:18:01Z</time>
      </trkpt>
      <trkpt lat="44.520880" lon="-0.838320">
        <time>2017-06-24T09:18:02Z</time>
      </trkpt>
      <trkpt lat="44.521170" lon="-0.838230">
        <time>2017-06-24T09:18:03Z</time>
      </trkpt>
      <trkpt lat="44.521510" lon="-0.838130">
        <time>2017-06-24T09:18:04Z</time>
      </trkpt>
      <trkpt lat="44.521800" lon="-0.838050">
        <time>2017-06-24T09:18:05Z</time>
      </trkpt>
      <trkpt lat="44.522120" lon="-0.837980">
        <time>2017-06-24T09:18:06Z</time>
      </trkpt>
      <trkpt lat="44.522460" lon="-0.837900">
        <time>2017-06-24T09:18:07Z</time>
      </trkpt>
      <trkpt lat="44.522770" lon="-0.837840">
        <time>2017-06-24T09:18:08Z</time>
      </trkpt>
      <trkpt lat="44.523090" lon="-0.837780">
        <time>2017-06-24T09:18:09Z</time>
      </trkpt>
      <trkpt lat="44.523410" lon="-0.837730">
        <time>2017-06-24T09:18:10Z</time>
      </trkpt>
      <trkpt lat="44.523740" lon="-0.837680">
        <time>2017-06-24T09:18:11Z</time>
      </trkpt>
      <trkpt lat="44.524080" lon="-0.837630">
        <time>2017-06-24T09:18:12Z</time>
      </trkpt>
      <trkpt lat="44.524390" lon="-0.837600">
        <time>2017-06-24T09:18:13Z</time>
      </trkpt>
      <trkpt lat="44.524720" lon="-0.837570">
        <time>2017-06-24T09:18:14Z</time>
      </trkpt>
      <trkpt lat="44.525060" lon="-0.837530">
        <time>2017-06-24T09:18:15Z</time>
      </trkpt>
      <trkpt lat="44.525370" lon="-0.837500">
        <time>2017-06-24T09:18:16Z</time>
      </trkpt>
      <trkpt lat="44.525690" lon="-0.837460">
        <time>2017-06-24T09:18:17Z</time>
      </trkpt>
      <trkpt lat="44.526030" lon="-0.837430">
        <time>2017-06-24T09:18:18Z</time>
      </trkpt>
      <trkpt lat="44.526340" lon="-0.837400">
        <time>2017-06-24T09:18:19Z</time>
      </trkpt>
      <trkpt lat="44.526680" lon="-0.837370">
        <time>2017-06-24T09:18:20Z</time>
      </trkpt>
      <trkpt lat="44.526980" lon="-0.837340">
        <time>2017-06-24T09:18:21Z</time>
      </trkpt>
      <trkpt lat="44.527300" lon="-0.837310">
        <time>2017-06-24T09:18:22Z</time>
      </trkpt>
      <trkpt lat="44.527640" lon="-0.837270">
        <time>2017-06-24T09:18:23Z</time>
      </trkpt>
      <trkpt lat="44.527940" lon="-0.837240">
        <time>2017-06-24T09:18:24Z</time>
      </trkpt>
      <trkpt lat="44.528260" lon="-0.837210">
        <time>2017-06-24T09:18:25Z</time>
      </trkpt>
      <trkpt lat="44.528580" lon="-0.837170">
        <time>2017-06-24T09:18:26Z</time>
      </trkpt>
      <trkpt lat="44.528890" lon="-0.837140">
        <time>2017-06-24T09:18:27Z</time>
      </trkpt>
      <trkpt lat="44.529220" lon="-0.837100">
        <time>2017-06-24T09:18:28Z</time>
      </trkpt>
      <trkpt lat="44.529520" lon="-0.837070">
        <time>2017-06-24T09:18:29Z</time>
      </trkpt>
      <trkpt lat="44.529830" lon="-0.837030">
        <time>2017-06-24T09:18:30Z</time>
      </trkpt>
      <trkpt lat="44.530160" lon="-0.836990">
        <time>2017-06-24T09:18:31Z</time>
      </trkpt>
      <trkpt lat="44.530450" lon="-0.836960">
        <time>2017-06-24T09:18:32Z</time>
      </trkpt>
      <trkpt lat="44.530760" lon="-0.836910">
        <time>2017-06-24T09:18:33Z</time>
      </trkpt>
      <trkpt lat="44.531090" lon="-0.836870">
        <time>2017-06-24T09:18:34Z</time>
      </trkpt>
      <trkpt lat="44.531370" lon="-0.836820">
        <time>2017-06-24T09:18:35Z</time>
      </trkpt>
      <trkpt lat="44.531700" lon="-0.836780">
        <time>2017-06-24T09:18:36Z</time>
      </trkpt>
      <trkpt lat="44.531990" lon="-0.836740">
        <time>2017-06-24T09:18:37Z</time>
      </trkpt>
      <trkpt lat="44.532290" lon="-0.836690">
        <time>2017-06-24T09:18:38Z</time>
      </trkpt>
      <trkpt lat="44.532630" lon="-0.836640">
        <time>2017-06-24T09:18:39Z</time>
      </trkpt>
      <trkpt lat="44.532920" lon="-0.836590">
        <time>2017-06-24T09:18:40Z</time>
      </trkpt>
      <trkpt lat="44.533230" lon="-0.836540">
        <time>2017-06-24T09:18:41Z</time>
      </trkpt>
      <trkpt lat="44.533550" lon="-0.836480">
        <time>2017-06-24T09:18:42Z</time>
      </trkpt>
      <trkpt lat="44.533860" lon="-0.836430">
        <time>2017-06-24T09:18:43Z</time>
      </trkpt>
      <trkpt lat="44.534190" lon="-0.836370">
        <time>2017-06-24T09:18:44Z</time>
      </trkpt>
      <trkpt lat="44.534480" lon="-0.836310">
        <time>2017-06-24T09:18:45Z</time>
      </trkpt>
      <trkpt lat="44.534790" lon="-0.836250">
        <time>2017-06-24T09:18:46Z</time>
      </trkpt>
      <trkpt lat="44.535110" lon="-0.836190">
        <time>2017-06-24T09:18:47Z</time>
      </trkpt>
      <trkpt lat="44.535400" lon="-0.836140">
        <time>2017-06-24T09:18:48Z</time>
      </trkpt>
      <trkpt lat="44.535700" lon="-0.836070">
        <time>2017-06-24T09:18:49Z</time>
      </trkpt>
      <trkpt lat="44.536010" lon="-0.836000">
        <time>2017-06-24T09:18:50Z</time>
      </trkpt>
      <trkpt lat="44.536290" lon="-0.835940">
        <time>2017-06-24T09:18:51Z</time>
      </trkpt>
      <trkpt lat="44.536600" lon="-0.835870">
        <time>2017-06-24T09:18:52Z</time>
      </trkpt>
      <trkpt lat="44.536880" lon="-0.835810">
        <time>2017-06-24T09:18:53Z</time>
      </trkpt>
      <trkpt lat="44.537170" lon="-0.835750">
        <time>2017-06-24T09:18:54Z</time>
      </trkpt>
      <trkpt lat="44.537490" lon="-0.835680">
        <time>2017-06-24T09:18:55Z</time>
      </trkpt>
      <trkpt lat="44.537760" lon="-0.835610">
        <time>2017-06-24T09:18:56Z</time>
      </trkpt>
      <trkpt lat="44.538060" lon="-0.835540">
        <time>2017-06-24T09:18:57Z</time>
      </trkpt>
      <trkpt lat="44.538350" lon="-0.835460">
        <time>2017-06-24T09:18:58Z</time>
      </trkpt>
      <trkpt lat="44.538650" lon="-0.835380">
        <time>2017-06-24T09:18:59Z</time>
      </trkpt>
      <trkpt lat="44.538960" lon="-0.835300">
        <time>2017-06-24T09:19:00Z</time>
      </trkpt>
      <trkpt lat="44.539240" lon="-0.835230">
        <time>2017-06-24T09:19:01Z</time>
      </trkpt>
      <trkpt lat="44.539540" lon="-0.835140">
        <time>2017-06-24T09:19:02Z</time>
      </trkpt>
      <trkpt lat="44.539860" lon="-0.835060">
        <time>2017-06-24T09:19:03Z</time>
      </trkpt>
      <trkpt lat="44.540140" lon="-0.834980">
        <time>2017-06-24T09:19:04Z</time>
      </trkpt>
      <trkpt lat="44.540440" lon="-0.834890">
        <time>2017-06-24T09:19:05Z</time>
      </trkpt>
      <trkpt lat="44.540760" lon="-0.834800">
        <time>2017-06-24T09:19:06Z</time>
      </trkpt>
      <trkpt lat="44.541040" lon="-0.834700">
        <time>2017-06-24T09:19:07Z</time>
      </trkpt>
      <trkpt lat="44.541360" lon="-0.834610">
        <time>2017-06-24T09:19:08Z</time>
      </trkpt>
      <trkpt lat="44.541640" lon="-0.834520">
        <time>2017-06-24T09:19:09Z</time>
      </trkpt>
      <trkpt lat="44.541940" lon="-0.834430">
        <time>2017-06-24T09:19:10Z</time>
      </trkpt>
      <trkpt lat="44.542250" lon="-0.834330">
        <time>2017-06-24T09:19:11Z</time>
      </trkpt>
      <trkpt lat="44.542530" lon="-0.834250">
        <time>2017-06-24T09:19:12Z</time>
      </trkpt>
      <trkpt lat="44.542820" lon="-0.834170">
        <time>2017-06-24T09:19:13Z</time>
      </trkpt>
      <trkpt lat="44.543110" lon="-0.834090">
        <time>2017-06-24T09:19:14Z</time>
      </trkpt>
      <trkpt lat="44.543400" lon="-0.834010">
        <time>2017-06-24T09:19:15Z</time>
      </trkpt>
      <trkpt lat="44.543710" lon="-0.833930">
        <time>2017-06-24T09:19:16Z</time>
      </trkpt>
      <trkpt lat="44.543980" lon="-0.833850">
        <time>2017-06-24T09:19:17Z</time>
      </trkpt>
      <trkpt lat="44.544280" lon="-0.833760">
        <time>2017-06-24T09:19:18Z</time>
      </trkpt>
      <trkpt lat="44.544580" lon="-0.833670">
        <time>2017-06-24T09:19:19Z</time>
      </trkpt>
      <trkpt lat="44.544850" lon="-0.833600">
        <time>2017-06-24T09:19:20Z</time>
      </trkpt>
      <trkpt lat="44.545140" lon="-0.833510">
        <time>2017-06-24T09:19:21Z</time>
      </trkpt>
      <trkpt lat="44.545450" lon="-0.833430">
        <time>2017-06-24T09:19:22Z</time>
      </trkpt>
      <trkpt lat="44.545710" lon="-0.833350">
        <time>2017-06-24T09:19:23Z</time>
      </trkpt>
      <trkpt lat="44.546020" lon="-0.833270">
        <time>2017-06-24T09:19:24Z</time>
      </trkpt>
      <trkpt lat="44.546280" lon="-0.833200">
        <time>2017-06-24T09:19:25Z</time>
      </trkpt>
      <trkpt lat="44.546560" lon="-0.833120">
        <time>2017-06-24T09:19:26Z</time>
      </trkpt>
      <trkpt lat="44.546860" lon="-0.833040">
        <time>2017-06-24T09:19:27Z</time>
      </trkpt>
      <trkpt lat="44.547120" lon="-0.832970">
        <time>2017-06-24T09:19:28Z</time>
      </trkpt>
      <trkpt lat="44.547400" lon="-0.832900">
        <time>2017-06-24T09:19:29Z</time>
      </trkpt>
      <trkpt lat="44.547680" lon="-0.832830">
        <time>2017-06-24T09:19:30Z</time>
      </trkpt>
      <trkpt lat="44.547960" lon="-0.832760">
        <time>2017-06-24T09:19:31Z</time>
      </trkpt>
      <trkpt lat="44.548270" lon="-0.832700">
        <time>2017-06-24T09:19:32Z</time>
      </trkpt>
      <trkpt lat="44.548530" lon="-0.832640">
        <time>2017-06-24T09:19:33Z</time>
      </trkpt>
      <trkpt lat="44.548820" lon="-0.832580">
        <time>2017-06-24T09:19:34Z</time>
      </trkpt>
      <trkpt lat="44.549110" lon="-0.832510">
        <time>2017-06-24T09:19:35Z</time>
      </trkpt>
      <trkpt lat="44.549370" lon="-0.832460">
        <time>2017-06-24T09:19:36Z</time>
      </trkpt>
      <trkpt lat="44.549650" lon="-0.832410">
        <time>2017-06-24T09:19:37Z</time>
      </trkpt>
      <trkpt lat="44.549940" lon="-0.832360">
        <time>2017-06-24T09:19:38Z</time>
      </trkpt>
      <trkpt lat="44.550190" lon="-0.832310">
        <time>2017-06-24T09:19:39Z</time>
      </trkpt>
      <trkpt lat="44.550480" lon="-0.832260">
        <time>2017-06-24T09:19:40Z</time>
      </trkpt>
      <trkpt lat="44.550730" lon="-0.832220">
        <time>2017-06-24T09:19:41Z</time>
      </trkpt>
      <trkpt lat="44.550990" lon="-0.832180">
        <time>2017-06-24T09:19:42Z</time>
      </trkpt>
      <trkpt lat="44.551270" lon="-0.832140">
        <time>2017-06-24T09:19:43Z</time>
      </trkpt>
      <trkpt lat="44.551510" lon="-0.832110">
        <time>2017-06-24T09:19:44Z</time>
      </trkpt>
      <trkpt lat="44.551760" lon="-0.832090">
        <time>2017-06-24T09:19:45Z</time>
      </trkpt>
      <trkpt lat="44.552020" lon="-0.832060">
        <time>2017-06-24T09:19:46Z</time>
      </trkpt>
      <trkpt lat="44.552270" lon="-0.832040">
        <time>2017-06-24T09:19:47Z</time>
      </trkpt>
      <trkpt lat="44.552530" lon="-0.832020">
        <time>2017-06-24T09:19:48Z</time>
      </trkpt>
      <trkpt lat="44.552770" lon="-0.831990">
        <time>2017-06-24T09:19:49Z</time>
      </trkpt>
      <trkpt lat="44.553010" lon="-0.831970">
        <time>2017-06-24T09:19:50Z</time>
      </trkpt>
      <trkpt lat="44.553280" lon="-0.831950">
        <time>2017-06-24T09:19:51Z</time>
      </trkpt>
      <trkpt lat="44.553520" lon="-0.831920">
        <time>2017-06-24T09:19:52Z</time>
      </trkpt>
      <trkpt lat="44.553770" lon="-0.831900">
        <time>2017-06-24T09:19:53Z</time>
      </trkpt>
      <trkpt lat="44.554050" lon="-0.831880">
        <time>2017-06-24T09:19:54Z</time>
      </trkpt>
      <trkpt lat="44.554290" lon="-0.831860">
        <time>2017-06-24T09:19:55Z</time>
      </trkpt>
      <trkpt lat="44.554570" lon="-0.831840">
        <time>2017-06-24T09:19:56Z</time>
      </trkpt>
      <trkpt lat="44.554820" lon="-0.831830">
        <time>2017-06-24T09:19:57Z</time>
      </trkpt>
      <trkpt lat="44.555080" lon="-0.831810">
        <time>2017-06-24T09:19:58Z</time>
      </trkpt>
      <trkpt lat="44.555360" lon="-0.831790">
        <time>2017-06-24T09:19:59Z</time>
      </trkpt>
      <trkpt lat="44.555610" lon="-0.831790">
        <time>2017-06-24T09:20:00Z</time>
      </trkpt>
      <trkpt lat="44.555880" lon="-0.831780">
        <time>2017-06-24T09:20:01Z</time>
      </trkpt>
      <trkpt lat="44.556160" lon="-0.831780">
        <time>2017-06-24T09:20:02Z</time>
      </trkpt>
      <trkpt lat="44.556430" lon="-0.831780">
        <time>2017-06-24T09:20:03Z</time>
      </trkpt>
      <trkpt lat="44.556720" lon="-0.831770">
        <time>2017-06-24T09:20:04Z</time>
      </trkpt>
      <trkpt lat="44.556970" lon="-0.831770">
        <time>2017-06-24T09:20:05Z</time>
      </trkpt>
      <trkpt lat="44.557240" lon="-0.831770">
        <time>2017-06-24T09:20:06Z</time>
      </trkpt>
      <trkpt lat="44.557530" lon="-0.831770">
        <time>2017-06-24T09:20:07Z</time>
      </trkpt>
      <trkpt lat="44.557790" lon="-0.831780">
        <time>2017-06-24T09:20:08Z</time>
      </trkpt>
      <trkpt lat="44.558050" lon="-0.831780">
        <time>2017-06-24T09:20:09Z</time>
      </trkpt>
      <trkpt lat="44.558340" lon="-0.831790">
        <time>2017-06-24T09:20:10Z</time>
      </trkpt>
      <trkpt lat="44.558590" lon="-0.831800">
        <time>2017-06-24T09:20:11Z</time>
      </trkpt>
      <trkpt lat="44.558880" lon="-0.831820">
        <time>2017-06-24T09:20:12Z</time>
      </trkpt>
      <trkpt lat="44.559140" lon="-0.831840">
        <time>2017-06-24T09:20:13Z</time>
      </trkpt>
      <trkpt lat="44.559420" lon="-0.831850">
        <time>2017-06-24T09:20:14Z</time>
      </trkpt>
      <trkpt lat="44.559730" lon="-0.831850">
        <time>2017-06-24T09:20:15Z</time>
      </trkpt>
      <trkpt lat="44.559990" lon="-0.831850">
        <time>2017-06-24T09:20:16Z</time>
      </trkpt>
      <trkpt lat="44.560280" lon="-0.831860">
        <time>2017-06-24T09:20:17Z</time>
      </trkpt>
      <trkpt lat="44.560570" lon="-0.831880">
        <time>2017-06-24T09:20:18Z</time>
      </trkpt>
      <trkpt lat="44.560850" lon="-0.831910">
        <time>2017-06-24T09:20:19Z</time>
      </trkpt>
      <trkpt lat="44.561150" lon="-0.831940">
        <time>2017-06-24T09:20:20Z</time>
      </trkpt>
      <trkpt lat="44.561420" lon="-0.831960">
        <time>2017-06-24T09:20:21Z</time>
      </trkpt>
      <trkpt lat="44.561690" lon="-0.831990">
        <time>2017-06-24T09:20:22Z</time>
      </trkpt>
      <trkpt lat="44.561980" lon="-0.832020">
        <time>2017-06-24T09:20:23Z</time>
      </trkpt>
      <trkpt lat="44.562240" lon="-0.832060">
        <time>2017-06-24T09:20:24Z</time>
      </trkpt>
      <trkpt lat="44.562500" lon="-0.832090">
        <time>2017-06-24T09:20:25Z</time>
      </trkpt>
      <trkpt lat="44.562800" lon="-0.832130">
        <time>2017-06-24T09:20:26Z</time>
      </trkpt>
      <trkpt lat="44.563050" lon="-0.832160">
        <time>2017-06-24T09:20:27Z</time>
      </trkpt>
      <trkpt lat="44.563340" lon="-0.832190">
        <time>2017-06-24T09:20:28Z</time>
      </trkpt>
      <trkpt lat="44.563600" lon="-0.832230">
        <time>2017-06-24T09:20:29Z</time>
      </trkpt>
      <trkpt lat="44.563870" lon="-0.832260">
        <time>2017-06-24T09:20:30Z</time>
      </trkpt>
      <trkpt lat="44.564170" lon="-0.832310">
        <time>2017-06-24T09:20:31Z</time>
      </trkpt>
      <trkpt lat="44.564440" lon="-0.832350">
        <time>2017-06-24T09:20:32Z</time>
      </trkpt>
      <trkpt lat="44.564720" lon="-0.832390">
        <time>2017-06-24T09:20:33Z</time>
      </trkpt>
      <trkpt lat="44.564990" lon="-0.832420">
        <time>2017-06-24T09:20:34Z</time>
      </trkpt>
      <trkpt lat="44.565260" lon="-0.832460">
        <time>2017-06-24T09:20:35Z</time>
      </trkpt>
      <trkpt lat="44.565540" lon="-0.832510">
        <time>2017-06-24T09:20:36Z</time>
      </trkpt>
      <trkpt lat="44.565790" lon="-0.832550">
        <time>2017-06-24T09:20:37Z</time>
      </trkpt>
      <trkpt lat="44.566060" lon="-0.832590">
        <time>2017-06-24T09:20:38Z</time>
      </trkpt>
      <trkpt lat="44.566340" lon="-0.832640">
        <time>2017-06-24T09:20:39Z</time>
      </trkpt>
      <trkpt lat="44.566600" lon="-0.832690">
        <time>2017-06-24T09:20:40Z</time>
      </trkpt>
      <trkpt lat="44.566880" lon="-0.832730">
        <time>2017-06-24T09:20:41Z</time>
      </trkpt>
      <trkpt lat="44.567180" lon="-0.832770">
        <time>2017-06-24T09:20:42Z</time>
      </trkpt>
      <trkpt lat="44.567440" lon="-0.832810">
        <time>2017-06-24T09:20:43Z</time>
      </trkpt>
      <trkpt lat="44.567740" lon="-0.832860">
        <time>2017-06-24T09:20:44Z</time>
      </trkpt>
      <trkpt lat="44.568000" lon="-0.832900">
        <time>2017-06-24T09:20:45Z</time>
      </trkpt>
      <trkpt lat="44.568290" lon="-0.832950">
        <time>2017-06-24T09:20:46Z</time>
      </trkpt>
      <trkpt lat="44.568590" lon="-0.832990">
        <time>2017-06-24T09:20:47Z</time>
      </trkpt>
      <trkpt lat="44.568850" lon="-0.833030">
        <time>2017-06-24T09:20:48Z</time>
      </trkpt>
      <trkpt lat="44.569140" lon="-0.833080">
        <time>2017-06-24T09:20:49Z</time>
      </trkpt>
      <trkpt lat="44.569430" lon="-0.833120">
        <time>2017-06-24T09:20:50Z</time>
      </trkpt>
      <trkpt lat="44.569720" lon="-0.833160">
        <time>2017-06-24T09:20:51Z</time>
      </trkpt>
      <trkpt lat="44.570030" lon="-0.833220">
        <time>2017-06-24T09:20:52Z</time>
      </trkpt>
      <trkpt lat="44.570300" lon="-0.833270">
        <time>2017-06-24T09:20:53Z</time>
      </trkpt>
      <trkpt lat="44.570600" lon="-0.833320">
        <time>2017-06-24T09:20:54Z</time>
      </trkpt>
      <trkpt lat="44.570920" lon="-0.833370">
        <time>2017-06-24T09:20:55Z</time>
      </trkpt>
      <trkpt lat="44.571200" lon="-0.833430">
        <time>2017-06-24T09:20:56Z</time>
      </trkpt>
      <trkpt lat="44.571500" lon="-0.833480">
        <time>2017-06-24T09:20:57Z</time>
      </trkpt>
      <trkpt lat="44.571830" lon="-0.833540">
        <time>2017-06-24T09:20:58Z</time>
      </trkpt>
      <trkpt lat="44.572120" lon="-0.833590">
        <time>2017-06-24T09:20:59Z</time>
      </trkpt>
      <trkpt lat="44.572440" lon="-0.833660">
        <time>2017-06-24T09:21:00Z</time>
      </trkpt>
      <trkpt lat="44.572720" lon="-0.833710">
        <time>2017-06-24T09:21:01Z</time>
      </trkpt>
      <trkpt lat="44.573030" lon="-0.833770">
        <time>2017-06-24T09:21:02Z</time>
      </trkpt>
      <trkpt lat="44.573360" lon="-0.833840">
        <time>2017-06-24T09:21:03Z</time>
      </trkpt>
      <trkpt lat="44.573650" lon="-0.833900">
        <time>2017-06-24T09:21:04Z</time>
      </trkpt>
      <trkpt lat="44.573960" lon="-0.833970">
        <time>2017-06-24T09:21:05Z</time>
      </trkpt>
      <trkpt lat="44.574270" lon="-0.834040">
        <time>2017-06-24T09:21:06Z</time>
      </trkpt>
      <trkpt lat="44.574570" lon="-0.834110">
        <time>2017-06-24T09:21:07Z</time>
      </trkpt>
      <trkpt lat="44.574900" lon="-0.834190">
        <time>2017-06-24T09:21:08Z</time>
      </trkpt>
      <trkpt lat="44.575190" lon="-0.834260">
        <time>2017-06-24T09:21:09Z</time>
      </trkpt>
      <trkpt lat="44.575490" lon="-0.834340">
        <time>2017-06-24T09:21:10Z</time>
      </trkpt>
      <trkpt lat="44.575810" lon="-0.834430">
        <time>2017-06-24T09:21:11Z</time>
      </trkpt>
      <trkpt lat="44.576090" lon="-0.834500">
        <time>2017-06-24T09:21:12Z</time>
      </trkpt>
      <trkpt lat="44.576390" lon="-0.834590">
        <time>2017-06-24T09:21:13Z</time>
      </trkpt>
      <trkpt lat="44.576710" lon="-0.834680">
        <time>2017-06-24T09:21:14Z</time>
      </trkpt>
      <trkpt lat="44.576990" lon="-0.834760">
        <time>2017-06-24T09:21:15Z</time>
      </trkpt>
      <trkpt lat="44.577310" lon="-0.834850">
        <time>2017-06-24T09:21:16Z</time>
      </trkpt>
      <trkpt lat="44.577590" lon="-0.834940">
        <time>2017-06-24T09:21:17Z</time>
      </trkpt>
      <trkpt lat="44.577880" lon="-0.835040">
        <time>2017-06-24T09:21:18Z</time>
      </trkpt>
      <trkpt lat="44.578200" lon="-0.835140">
        <time>2017-06-24T09:21:19Z</time>
      </trkpt>
      <trkpt lat="44.578480" lon="-0.835240">
        <time>2017-06-24T09:21:20Z</time>
      </trkpt>
      <trkpt lat="44.578780" lon="-0.835340">
        <time>2017-06-24T09:21:21Z</time>
      </trkpt>
      <trkpt lat="44.579080" lon="-0.835440">
        <time>2017-06-24T09:21:22Z</time>
      </trkpt>
      <trkpt lat="44.579380" lon="-0.835550">
        <time>2017-06-24T09:21:23Z</time>
      </trkpt>
      <trkpt lat="44.579700" lon="-0.835660">
        <time>2017-06-24T09:21:24Z</time>
      </trkpt>
      <trkpt lat="44.579970" lon="-0.835770">
        <time>2017-06-24T09:21:25Z</time>
      </trkpt>
      <trkpt lat="44.580270" lon="-0.835880">
        <time>2017-06-24T09:21:26Z</time>
      </trkpt>
      <trkpt lat="44.580590" lon="-0.836010">
        <time>2017-06-24T09:21:27Z</time>
      </trkpt>
      <trkpt lat="44.580860" lon="-0.836130">
        <time>2017-06-24T09:21:28Z</time>
      </trkpt>
      <trkpt lat="44.581170" lon="-0.836260">
        <time>2017-06-24T09:21:29Z</time>
      </trkpt>
      <trkpt lat="44.581490" lon="-0.836390">
        <time>2017-06-24T09:21:30Z</time>
      </trkpt>
      <trkpt lat="44.581770" lon="-0.836510">
        <time>2017-06-24T09:21:31Z</time>
      </trkpt>
      <trkpt lat="44.582080" lon="-0.836660">
        <time>2017-06-24T09:21:32Z</time>
      </trkpt>
      <trkpt lat="44.582360" lon="-0.836790">
        <time>2017-06-24T09:21:33Z</time>
      </trkpt>
      <trkpt lat="44.582650" lon="-0.836920">
        <time>2017-06-24T09:21:34Z</time>
      </trkpt>
      <trkpt lat="44.582950" lon="-0.837070">
        <time>2017-06-24T09:21:35Z</time>
      </trkpt>
      <trkpt lat="44.583220" lon="-0.837190">
        <time>2017-06-24T09:21:36Z</time>
      </trkpt>
      <trkpt lat="44.583510" lon="-0.837330">
        <time>2017-06-24T09:21:37Z</time>
      </trkpt>
      <trkpt lat="44.583790" lon="-0.837470">
        <time>2017-06-24T09:21:38Z</time>
      </trkpt>
      <trkpt lat="44.584080" lon="-0.837620">
        <time>2017-06-24T09:21:39Z</time>
      </trkpt>
      <trkpt lat="44.584380" lon="-0.837770">
        <time>2017-06-24T09:21:40Z</time>
      </trkpt>
      <trkpt lat="44.584660" lon="-0.837920">
        <time>2017-06-24T09:21:41Z</time>
      </trkpt>
      <trkpt lat="44.584950" lon="-0.838070">
        <time>2017-06-24T09:21:42Z</time>
      </trkpt>
      <trkpt lat="44.585260" lon="-0.838230">
        <time>2017-06-24T09:21:43Z</time>
      </trkpt>
      <trkpt lat="44.585530" lon="-0.838380">
        <time>2017-06-24T09:21:44Z</time>
      </trkpt>
      <trkpt lat="44.585820" lon="-0.838560">
        <time>2017-06-24T09:21:45Z</time>
      </trkpt>
      <trkpt lat="44.586140" lon="-0.838740">
        <time>2017-06-24T09:21:46Z</time>
      </trkpt>
      <trkpt lat="44.586410" lon="-0.838900">
        <time>2017-06-24T09:21:47Z</time>
      </trkpt>
      <trkpt lat="44.586730" lon="-0.839080">
        <time>2017-06-24T09:21:48Z</time>
      </trkpt>
      <trkpt lat="44.587000" lon="-0.839240">
        <time>2017-06-24T09:21:49Z</time>
      </trkpt>
      <trkpt lat="44.587300" lon="-0.839420">
        <time>2017-06-24T09:21:50Z</time>
      </trkpt>
      <trkpt lat="44.587610" lon="-0.839590">
        <time>2017-06-24T09:21:51Z</time>
      </trkpt>
      <trkpt lat="44.587880" lon="-0.839750">
        <time>2017-06-24T09:21:52Z</time>
      </trkpt>
      <trkpt lat="44.588170" lon="-0.839920">
        <time>2017-06-24T09:21:53Z</time>
      </trkpt>
      <trkpt lat="44.588450" lon="-0.840090">
        <time>2017-06-24T09:21:54Z</time>
      </trkpt>
      <trkpt lat="44.588730" lon="-0.840250">
        <time>2017-06-24T09:21:55Z</time>
      </trkpt>
      <trkpt lat="44.589030" lon="-0.840430">
        <time>2017-06-24T09:21:56Z</time>
      </trkpt>
      <trkpt lat="44.589290" lon="-0.840590">
        <time>2017-06-24T09:21:57Z</time>
      </trkpt>
      <trkpt lat="44.589570" lon="-0.840750">
        <time>2017-06-24T09:21:58Z</time>
      </trkpt>
      <trkpt lat="44.589870" lon="-0.840930">
        <time>2017-06-24T09:21:59Z</time>
      </trkpt>
      <trkpt lat="44.590130" lon="-0.841090">
        <time>2017-06-24T09:22:00Z</time>
      </trkpt>
      <trkpt lat="44.590410" lon="-0.841250">
        <time>2017-06-24T09:22:01Z</time>
      </trkpt>
      <trkpt lat="44.590710" lon="-0.841430">
        <time>2017-06-24T09:22:02Z</time>
      </trkpt>
      <trkpt lat="44.590980" lon="-0.841590">
        <time>2017-06-24T09:22:03Z</time>
      </trkpt>
      <trkpt lat="44.591280" lon="-0.841770">
        <time>2017-06-24T09:22:04Z</time>
      </trkpt>
      <trkpt lat="44.591540" lon="-0.841940">
        <time>2017-06-24T09:22:05Z</time>
      </trkpt>
      <trkpt lat="44.591820" lon="-0.842110">
        <time>2017-06-24T09:22:06Z</time>
      </trkpt>
      <trkpt lat="44.592130" lon="-0.842300">
        <time>2017-06-24T09:22:07Z</time>
      </trkpt>
      <trkpt lat="44.592410" lon="-0.842460">
        <time>2017-06-24T09:22:08Z</time>
      </trkpt>
      <trkpt lat="44.592700" lon="-0.842640">
        <time>2017-06-24T09:22:09Z</time>
      </trkpt>
      <trkpt lat="44.593000" lon="-0.842810">
        <time>2017-06-24T09:22:10Z</time>
      </trkpt>
      <trkpt lat="44.593290" lon="-0.843000">
        <time>2017-06-24T09:22:11Z</time>
      </trkpt>
      <trkpt lat="44.593600" lon="-0.843180">
        <time>2017-06-24T09:22:12Z</time>
      </trkpt>
      <trkpt lat="44.593870" lon="-0.843350">
        <time>2017-06-24T09:22:13Z</time>
      </trkpt>
      <trkpt lat="44.594170" lon="-0.843520">
        <time>2017-06-24T09:22:14Z</time>
      </trkpt>
      <trkpt lat="44.594480" lon="-0.843700">
        <time>2017-06-24T09:22:15Z</time>
      </trkpt>
      <trkpt lat="44.594750" lon="-0.843870">
        <time>2017-06-24T09:22:16Z</time>
      </trkpt>
      <trkpt lat="44.595040" lon="-0.844050">
        <time>2017-06-24T09:22:17Z</time>
      </trkpt>
      <trkpt lat="44.595360" lon="-0.844230">
        <time>2017-06-24T09:22:18Z</time>
      </trkpt>
      <trkpt lat="44.595640" lon="-0.844400">
        <time>2017-06-24T09:22:19Z</time>
      </trkpt>
      <trkpt lat="44.595950" lon="-0.844590">
        <time>2017-06-24T09:22:20Z</time>
      </trkpt>
      <trkpt lat="44.596230" lon="-0.844760">
        <time>2017-06-24T09:22:21Z</time>
      </trkpt>
      <trkpt lat="44.596520" lon="-0.844930">
        <time>2017-06-24T09:22:22Z</time>
      </trkpt>
      <trkpt lat="44.596830" lon="-0.845120">
        <time>2017-06-24T09:22:23Z</time>
      </trkpt>
      <trkpt lat="44.597110" lon="-0.845280">
        <time>2017-06-24T09:22:24Z</time>
      </trkpt>
      <trkpt lat="44.597400" lon="-0.845450">
        <time>2017-06-24T09:22:25Z</time>
      </trkpt>
      <trkpt lat="44.597700" lon="-0.845630">
        <time>2017-06-24T09:22:26Z</time>
      </trkpt>
      <trkpt lat="44.598000" lon="-0.845810">
        <time>2017-06-24T09:22:27Z</time>
      </trkpt>
      <trkpt lat="44.598320" lon="-0.845990">
        <time>2017-06-24T09:22:28Z</time>
      </trkpt>
      <trkpt lat="44.598600" lon="-0.846160">
        <time>2017-06-24T09:22:29Z</time>
      </trkpt>
      <trkpt lat="44.598900" lon="-0.846320">
        <time>2017-06-24T09:22:30Z</time>
      </trkpt>
      <trkpt lat="44.599220" lon="-0.846510">
        <time>2017-06-24T09:22:31Z</time>
      </trkpt>
      <trkpt lat="44.599510" lon="-0.846660">
        <time>2017-06-24T09:22:32Z</time>
      </trkpt>
      <trkpt lat="44.599820" lon="-0.846820">
        <time>2017-06-24T09:22:33Z</time>
      </trkpt>
      <trkpt lat="44.600160" lon="-0.846980">
        <time>2017-06-24T09:22:34Z</time>
      </trkpt>
      <trkpt lat="44.600460" lon="-0.847120">
        <time>2017-06-24T09:22:35Z</time>
      </trkpt>
      <trkpt lat="44.600790" lon="-0.847270">
        <time>2017-06-24T09:22:36Z</time>
      </trkpt>
      <trkpt lat="44.601090" lon="-0.847410">
        <time>2017-06-24T09:22:37Z</time>
      </trkpt>
      <trkpt lat="44.601400" lon="-0.847550">
        <time>2017-06-24T09:22:38Z</time>
      </trkpt>
      <trkpt lat="44.601730" lon="-0.847700">
        <time>2017-06-24T09:22:39Z</time>
      </trkpt>
      <trkpt lat="44.602020" lon="-0.847840">
        <time>2017-06-24T09:22:40Z</time>
      </trkpt>
      <trkpt lat="44.602330" lon="-0.847990">
        <time>2017-06-24T09:22:41Z</time>
      </trkpt>
      <trkpt lat="44.602650" lon="-0.848130">
        <time>2017-06-24T09:22:42Z</time>
      </trkpt>
      <trkpt lat="44.602960" lon="-0.848280">
        <time>2017-06-24T09:22:43Z</time>
      </trkpt>
      <trkpt lat="44.603300" lon="-0.848420">
        <time>2017-06-24T09:22:44Z</time>
      </trkpt>
      <trkpt lat="44.603600" lon="-0.848520">
        <time>2017-06-24T09:22:45Z</time>
      </trkpt>
      <trkpt lat="44.603920" lon="-0.848640">
        <time>2017-06-24T09:22:46Z</time>
      </trkpt>
      <trkpt lat="44.604260" lon="-0.848770">
        <time>2017-06-24T09:22:47Z</time>
      </trkpt>
      <trkpt lat="44.604550" lon="-0.848870">
        <time>2017-06-24T09:22:48Z</time>
      </trkpt>
      <trkpt lat="44.604860" lon="-0.848970">
        <time>2017-06-24T09:22:49Z</time>
      </trkpt>
      <trkpt lat="44.605190" lon="-0.849070">
        <time>2017-06-24T09:22:50Z</time>
      </trkpt>
      <trkpt lat="44.605480" lon="-0.849150">
        <time>2017-06-24T09:22:51Z</time>
      </trkpt>
      <trkpt lat="44.605820" lon="-0.849240">
        <time>2017-06-24T09:22:52Z</time>
      </trkpt>
      <trkpt lat="44.606110" lon="-0.849310">
        <time>2017-06-24T09:22:53Z</time>
      </trkpt>
      <trkpt lat="44.606420" lon="-0.849400">
        <time>2017-06-24T09:22:54Z</time>
      </trkpt>
      <trkpt lat="44.606760" lon="-0.849500">
        <time>2017-06-24T09:22:55Z</time>
      </trkpt>
      <trkpt lat="44.607050" lon="-0.849580">
        <time>2017-06-24T09:22:56Z</time>
      </trkpt>
      <trkpt lat="44.607370" lon="-0.849660">
        <time>2017-06-24T09:22:57Z</time>
      </trkpt>
      <trkpt lat="44.607690" lon="-0.849730">
        <time>2017-06-24T09:22:58Z</time>
      </trkpt>
      <trkpt lat="44.608000" lon="-0.849800">
        <time>2017-06-24T09:22:59Z</time>
      </trkpt>
      <trkpt lat="44.608340" lon="-0.849880">
        <time>2017-06-24T09:23:00Z</time>
      </trkpt>
      <trkpt lat="44.608640" lon="-0.849930">
        <time>2017-06-24T09:23:01Z</time>
      </trkpt>
      <trkpt lat="44.608960" lon="-0.849980">
        <time>2017-06-24T09:23:02Z</time>
      </trkpt>
      <trkpt lat="44.609300" lon="-0.850040">
        <time>2017-06-24T09:23:03Z</time>
      </trkpt>
      <trkpt lat="44.609600" lon="-0.850090">
        <time>2017-06-24T09:23:04Z</time>
      </trkpt>
      <trkpt lat="44.609920" lon="-0.850140">
        <time>2017-06-24T09:23:05Z</time>
      </trkpt>
      <trkpt lat="44.610260" lon="-0.850190">
        <time>2017-06-24T09:23:06Z</time>
      </trkpt>
      <trkpt lat="44.610560" lon="-0.850240">
        <time>2017-06-24T09:23:07Z</time>
      </trkpt>
      <trkpt lat="44.610900" lon="-0.850290">
        <time>2017-06-24T09:23:08Z</time>
      </trkpt>
      <trkpt lat="44.611200" lon="-0.850330">
        <time>2017-06-24T09:23:09Z</time>
      </trkpt>
      <trkpt lat="44.611520" lon="-0.850370">
        <time>2017-06-24T09:23:10Z</time>
      </trkpt>
      <trkpt lat="44.611860" lon="-0.850410">
        <time>2017-06-24T09:23:11Z</time>
      </trkpt>
      <trkpt lat="44.612160" lon="-0.850450">
        <time>2017-06-24T09:23:12Z</time>
      </trkpt>
      <trkpt lat="44.612490" lon="-0.850470">
        <time>2017-06-24T09:23:13Z</time>
      </trkpt>
      <trkpt lat="44.612810" lon="-0.850490">
        <time>2017-06-24T09:23:14Z</time>
      </trkpt>
      <trkpt lat="44.613140" lon="-0.850510">
        <time>2017-06-24T09:23:15Z</time>
      </trkpt>
      <trkpt lat="44.613480" lon="-0.850510">
        <time>2017-06-24T09:23:16Z</time>
      </trkpt>
      <trkpt lat="44.613790" lon="-0.850500">
        <time>2017-06-24T09:23:17Z</time>
      </trkpt>
      <trkpt lat="44.614110" lon="-0.850490">
        <time>2017-06-24T09:23:18Z</time>
      </trkpt>
      <trkpt lat="44.614450" lon="-0.850480">
        <time>2017-06-24T09:23:19Z</time>
      </trkpt>
      <trkpt lat="44.614760" lon="-0.850480">
        <time>2017-06-24T09:23:20Z</time>
      </trkpt>
      <trkpt lat="44.615080" lon="-0.850480">
        <time>2017-06-24T09:23:21Z</time>
      </trkpt>
      <trkpt lat="44.615420" lon="-0.850470">
        <time>2017-06-24T09:23:22Z</time>
      </trkpt>
      <trkpt lat="44.615730" lon="-0.850470">
        <time>2017-06-24T09:23:23Z</time>
      </trkpt>
      <trkpt lat="44.616070" lon="-0.850460">
        <time>2017-06-24T09:23:24Z</time>
      </trkpt>
      <trkpt lat="44.616370" lon="-0.850450">
        <time>2017-06-24T09:23:25Z</time>
      </trkpt>
      <trkpt lat="44.616700" lon="-0.850440">
        <time>2017-06-24T09:23:26Z</time>
      </trkpt>
      <trkpt lat="44.617030" lon="-0.850410">
        <time>2017-06-24T09:23:27Z</time>
      </trkpt>
      <trkpt lat="44.617330" lon="-0.850390">
        <time>2017-06-24T09:23:28Z</time>
      </trkpt>
      <trkpt lat="44.617640" lon="-0.850360">
        <time>2017-06-24T09:23:29Z</time>
      </trkpt>
      <trkpt lat="44.617960" lon="-0.850320">
        <time>2017-06-24T09:23:30Z</time>
      </trkpt>
      <trkpt lat="44.618280" lon="-0.850280">
        <time>2017-06-24T09:23:31Z</time>
      </trkpt>
      <trkpt lat="44.618620" lon="-0.850230">
        <time>2017-06-24T09:23:32Z</time>
      </trkpt>
      <trkpt lat="44.618920" lon="-0.850190">
        <time>2017-06-24T09:23:33Z</time>
      </trkpt>
      <trkpt lat="44.619230" lon="-0.850140">
        <time>2017-06-24T09:23:34Z</time>
      </trkpt>
      <trkpt lat="44.619570" lon="-0.850070">
        <time>2017-06-24T09:23:35Z</time>
      </trkpt>
      <trkpt lat="44.619870" lon="-0.850000">
        <time>2017-06-24T09:23:36Z</time>
      </trkpt>
      <trkpt lat="44.620180" lon="-0.849930">
        <time>2017-06-24T09:23:37Z</time>
      </trkpt>
      <trkpt lat="44.620520" lon="-0.849870">
        <time>2017-06-24T09:23:38Z</time>
      </trkpt>
      <trkpt lat="44.620810" lon="-0.849810">
        <time>2017-06-24T09:23:39Z</time>
      </trkpt>
      <trkpt lat="44.621140" lon="-0.849740">
        <time>2017-06-24T09:23:40Z</time>
      </trkpt>
      <trkpt lat="44.621430" lon="-0.849680">
        <time>2017-06-24T09:23:41Z</time>
      </trkpt>
      <trkpt lat="44.621740" lon="-0.849610">
        <time>2017-06-24T09:23:42Z</time>
      </trkpt>
      <trkpt lat="44.622070" lon="-0.849530">
        <time>2017-06-24T09:23:43Z</time>
      </trkpt>
      <trkpt lat="44.622360" lon="-0.849460">
        <time>2017-06-24T09:23:44Z</time>
      </trkpt>
      <trkpt lat="44.622670" lon="-0.849380">
        <time>2017-06-24T09:23:45Z</time>
      </trkpt>
      <trkpt lat="44.622980" lon="-0.849300">
        <time>2017-06-24T09:23:46Z</time>
      </trkpt>
      <trkpt lat="44.623290" lon="-0.849220">
        <time>2017-06-24T09:23:47Z</time>
      </trkpt>
      <trkpt lat="44.623620" lon="-0.849130">
        <time>2017-06-24T09:23:48Z</time>
      </trkpt>
      <trkpt lat="44.623900" lon="-0.849050">
        <time>2017-06-24T09:23:49Z</time>
      </trkpt>
      <trkpt lat="44.624200" lon="-0.848960">
        <time>2017-06-24T09:23:50Z</time>
      </trkpt>
      <trkpt lat="44.624530" lon="-0.848860">
        <time>2017-06-24T09:23:51Z</time>
      </trkpt>
      <trkpt lat="44.624810" lon="-0.848770">
        <time>2017-06-24T09:23:52Z</time>
      </trkpt>
      <trkpt lat="44.625120" lon="-0.848680">
        <time>2017-06-24T09:23:53Z</time>
      </trkpt>
      <trkpt lat="44.625450" lon="-0.848570">
        <time>2017-06-24T09:23:54Z</time>
      </trkpt>
      <trkpt lat="44.625740" lon="-0.848470">
        <time>2017-06-24T09:23:55Z</time>
      </trkpt>
      <trkpt lat="44.626070" lon="-0.848360">
        <time>2017-06-24T09:23:56Z</time>
      </trkpt>
      <trkpt lat="44.626360" lon="-0.848250">
        <time>2017-06-24T09:23:57Z</time>
      </trkpt>
      <trkpt lat="44.626670" lon="-0.848140">
        <time>2017-06-24T09:23:58Z</time>
      </trkpt>
      <trkpt lat="44.627000" lon="-0.848020">
        <time>2017-06-24T09:23:59Z</time>
      </trkpt>
      <trkpt lat="44.627300" lon="-0.847910">
        <time>2017-06-24T09:24:00Z</time>
      </trkpt>
      <trkpt lat="44.627610" lon="-0.847790">
        <time>2017-06-24T09:24:01Z</time>
      </trkpt>
      <trkpt lat="44.627920" lon="-0.847670">
        <time>2017-06-24T09:24:02Z</time>
      </trkpt>
      <trkpt lat="44.628240" lon="-0.847540">
        <time>2017-06-24T09:24:03Z</time>
      </trkpt>
      <trkpt lat="44.628570" lon="-0.847400">
        <time>2017-06-24T09:24:04Z</time>
      </trkpt>
      <trkpt lat="44.628860" lon="-0.847280">
        <time>2017-06-24T09:24:05Z</time>
      </trkpt>
      <trkpt lat="44.629170" lon="-0.847150">
        <time>2017-06-24T09:24:06Z</time>
      </trkpt>
      <trkpt lat="44.629510" lon="-0.847000">
        <time>2017-06-24T09:24:07Z</time>
      </trkpt>
      <trkpt lat="44.629790" lon="-0.846870">
        <time>2017-06-24T09:24:08Z</time>
      </trkpt>
      <trkpt lat="44.630100" lon="-0.846740">
        <time>2017-06-24T09:24:09Z</time>
      </trkpt>
      <trkpt lat="44.630430" lon="-0.846590">
        <time>2017-06-24T09:24:10Z</time>
      </trkpt>
      <trkpt lat="44.630700" lon="-0.846470">
        <time>2017-06-24T09:24:11Z</time>
      </trkpt>
      <trkpt lat="44.631000" lon="-0.846330">
        <time>2017-06-24T09:24:12Z</time>
      </trkpt>
      <trkpt lat="44.631260" lon="-0.846200">
        <time>2017-06-24T09:24:13Z</time>
      </trkpt>
      <trkpt lat="44.631540" lon="-0.846070">
        <time>2017-06-24T09:24:14Z</time>
      </trkpt>
      <trkpt lat="44.631830" lon="-0.845940">
        <time>2017-06-24T09:24:15Z</time>
      </trkpt>
      <trkpt lat="44.632080" lon="-0.845820">
        <time>2017-06-24T09:24:16Z</time>
      </trkpt>
      <trkpt lat="44.632340" lon="-0.845690">
        <time>2017-06-24T09:24:17Z</time>
      </trkpt>
      <trkpt lat="44.632610" lon="-0.845570">
        <time>2017-06-24T09:24:18Z</time>
      </trkpt>
      <trkpt lat="44.632870" lon="-0.845430">
        <time>2017-06-24T09:24:19Z</time>
      </trkpt>
      <trkpt lat="44.633160" lon="-0.845290">
        <time>2017-06-24T09:24:20Z</time>
      </trkpt>
      <trkpt lat="44.633400" lon="-0.845170">
        <time>2017-06-24T09:24:21Z</time>
      </trkpt>
      <trkpt lat="44.633670" lon="-0.845040">
        <time>2017-06-24T09:24:22Z</time>
      </trkpt>
      <trkpt lat="44.633960" lon="-0.844910">
        <time>2017-06-24T09:24:23Z</time>
      </trkpt>
      <trkpt lat="44.634220" lon="-0.844780">
        <time>2017-06-24T09:24:24Z</time>
      </trkpt>
      <trkpt lat="44.634500" lon="-0.844650">
        <time>2017-06-24T09:24:25Z</time>
      </trkpt>
      <trkpt lat="44.634800" lon="-0.844500">
        <time>2017-06-24T09:24:26Z</time>
      </trkpt>
      <trkpt lat="44.635060" lon="-0.844360">
        <time>2017-06-24T09:24:27Z</time>
      </trkpt>
      <trkpt lat="44.635360" lon="-0.844200">
        <time>2017-06-24T09:24:28Z</time>
      </trkpt>
      <trkpt lat="44.635620" lon="-0.844060">
        <time>2017-06-24T09:24:29Z</time>
      </trkpt>
      <trkpt lat="44.635900" lon="-0.843910">
        <time>2017-06-24T09:24:30Z</time>
      </trkpt>
      <trkpt lat="44.636200" lon="-0.843730">
        <time>2017-06-24T09:24:31Z</time>
      </trkpt>
      <trkpt lat="44.636460" lon="-0.843570">
        <time>2017-06-24T09:24:32Z</time>
      </trkpt>
      <trkpt lat="44.636750" lon="-0.843410">
        <time>2017-06-24T09:24:33Z</time>
      </trkpt>
      <trkpt lat="44.637030" lon="-0.843260">
        <time>2017-06-24T09:24:34Z</time>
      </trkpt>
      <trkpt lat="44.637310" lon="-0.843110">
        <time>2017-06-24T09:24:35Z</time>
      </trkpt>
      <trkpt lat="44.637610" lon="-0.842940">
        <time>2017-06-24T09:24:36Z</time>
      </trkpt>
      <trkpt lat="44.637860" lon="-0.842800">
        <time>2017-06-24T09:24:37Z</time>
      </trkpt>
      <trkpt lat="44.638140" lon="-0.842640">
        <time>2017-06-24T09:24:38Z</time>
      </trkpt>
      <trkpt lat="44.638430" lon="-0.842480">
        <time>2017-06-24T09:24:39Z</time>
      </trkpt>
      <trkpt lat="44.638680" lon="-0.842330">
        <time>2017-06-24T09:24:40Z</time>
      </trkpt>
      <trkpt lat="44.638950" lon="-0.842190">
        <time>2017-06-24T09:24:41Z</time>
      </trkpt>
      <trkpt lat="44.639250" lon="-0.842030">
        <time>2017-06-24T09:24:42Z</time>
      </trkpt>
      <trkpt lat="44.639500" lon="-0.841900">
        <time>2017-06-24T09:24:43Z</time>
      </trkpt>
      <trkpt lat="44.639790" lon="-0.841740">
        <time>2017-06-24T09:24:44Z</time>
      </trkpt>
      <trkpt lat="44.640040" lon="-0.841600">
        <time>2017-06-24T09:24:45Z</time>
      </trkpt>
      <trkpt lat="44.640310" lon="-0.841460">
        <time>2017-06-24T09:24:46Z</time>
      </trkpt>
      <trkpt lat="44.640590" lon="-0.841300">
        <time>2017-06-24T09:24:47Z</time>
      </trkpt>
      <trkpt lat="44.640830" lon="-0.841170">
        <time>2017-06-24T09:24:48Z</time>
      </trkpt>
      <trkpt lat="44.641090" lon="-0.841030">
        <time>2017-06-24T09:24:49Z</time>
      </trkpt>
      <trkpt lat="44.641350" lon="-0.840890">
        <time>2017-06-24T09:24:50Z</time>
      </trkpt>
      <trkpt lat="44.641610" lon="-0.840750">
        <time>2017-06-24T09:24:51Z</time>
      </trkpt>
      <trkpt lat="44.641890" lon="-0.840600">
        <time>2017-06-24T09:24:52Z</time>
      </trkpt>
      <trkpt lat="44.642130" lon="-0.840460">
        <time>2017-06-24T09:24:53Z</time>
      </trkpt>
      <trkpt lat="44.642400" lon="-0.840310">
        <time>2017-06-24T09:24:54Z</time>
      </trkpt>
      <trkpt lat="44.642680" lon="-0.840160">
        <time>2017-06-24T09:24:55Z</time>
      </trkpt>
      <trkpt lat="44.642940" lon="-0.840020">
        <time>2017-06-24T09:24:56Z</time>
      </trkpt>
      <trkpt lat="44.643210" lon="-0.839860">
        <time>2017-06-24T09:24:57Z</time>
      </trkpt>
      <trkpt lat="44.643520" lon="-0.839690">
        <time>2017-06-24T09:24:58Z</time>
      </trkpt>
      <trkpt lat="44.643780" lon="-0.839550">
        <time>2017-06-24T09:24:59Z</time>
      </trkpt>
      <trkpt lat="44.644080" lon="-0.839370">
        <time>2017-06-24T09:25:00Z</time>
      </trkpt>
      <trkpt lat="44.644350" lon="-0.839220">
        <time>2017-06-24T09:25:01Z</time>
      </trkpt>
      <trkpt lat="44.644630" lon="-0.839070">
        <time>2017-06-24T09:25:02Z</time>
      </trkpt>
      <trkpt lat="44.644930" lon="-0.838890">
        <time>2017-06-24T09:25:03Z</time>
      </trkpt>
      <trkpt lat="44.645190" lon="-0.838720">
        <time>2017-06-24T09:25:04Z</time>
      </trkpt>
      <trkpt lat="44.645470" lon="-0.838560">
        <time>2017-06-24T09:25:05Z</time>
      </trkpt>
      <trkpt lat="44.645760" lon="-0.838410">
        <time>2017-06-24T09:25:06Z</time>
      </trkpt>
      <trkpt lat="44.646030" lon="-0.838240">
        <time>2017-06-24T09:25:07Z</time>
      </trkpt>
      <trkpt lat="44.646330" lon="-0.838060">
        <time>2017-06-24T09:25:08Z</time>
      </trkpt>
      <trkpt lat="44.646590" lon="-0.837910">
        <time>2017-06-24T09:25:09Z</time>
      </trkpt>
      <trkpt lat="44.646860" lon="-0.837740">
        <time>2017-06-24T09:25:10Z</time>
      </trkpt>
      <trkpt lat="44.647160" lon="-0.837550">
        <time>2017-06-24T09:25:11Z</time>
      </trkpt>
      <trkpt lat="44.647420" lon="-0.837390">
        <time>2017-06-24T09:25:12Z</time>
      </trkpt>
      <trkpt lat="44.647690" lon="-0.837200">
        <time>2017-06-24T09:25:13Z</time>
      </trkpt>
      <trkpt lat="44.647980" lon="-0.837010">
        <time>2017-06-24T09:25:14Z</time>
      </trkpt>
      <trkpt lat="44.648220" lon="-0.836840">
        <time>2017-06-24T09:25:15Z</time>
      </trkpt>
      <trkpt lat="44.648500" lon="-0.836650">
        <time>2017-06-24T09:25:16Z</time>
      </trkpt>
      <trkpt lat="44.648740" lon="-0.836490">
        <time>2017-06-24T09:25:17Z</time>
      </trkpt>
      <trkpt lat="44.648990" lon="-0.836320">
        <time>2017-06-24T09:25:18Z</time>
      </trkpt>
      <trkpt lat="44.649250" lon="-0.836130">
        <time>2017-06-24T09:25:19Z</time>
      </trkpt>
      <trkpt lat="44.649480" lon="-0.835980">
        <time>2017-06-24T09:25:20Z</time>
      </trkpt>
      <trkpt lat="44.649720" lon="-0.835790">
        <time>2017-06-24T09:25:21Z</time>
      </trkpt>
      <trkpt lat="44.649970" lon="-0.835610">
        <time>2017-06-24T09:25:22Z</time>
      </trkpt>
      <trkpt lat="44.650220" lon="-0.835430">
        <time>2017-06-24T09:25:23Z</time>
      </trkpt>
      <trkpt lat="44.650490" lon="-0.835250">
        <time>2017-06-24T09:25:24Z</time>
      </trkpt>
      <trkpt lat="44.650720" lon="-0.835080">
        <time>2017-06-24T09:25:25Z</time>
      </trkpt>
      <trkpt lat="44.650960" lon="-0.834890">
        <time>2017-06-24T09:25:26Z</time>
      </trkpt>
      <trkpt lat="44.651220" lon="-0.834690">
        <time>2017-06-24T09:25:27Z</time>
      </trkpt>
      <trkpt lat="44.651440" lon="-0.834510">
        <time>2017-06-24T09:25:28Z</time>
      </trkpt>
      <trkpt lat="44.651670" lon="-0.834320">
        <time>2017-06-24T09:25:29Z</time>
      </trkpt>
      <trkpt lat="44.651910" lon="-0.834120">
        <time>2017-06-24T09:25:30Z</time>
      </trkpt>
      <trkpt lat="44.652110" lon="-0.833940">
        <time>2017-06-24T09:25:31Z</time>
      </trkpt>
      <trkpt lat="44.652340" lon="-0.833750">
        <time>2017-06-24T09:25:32Z</time>
      </trkpt>
      <trkpt lat="44.652530" lon="-0.833580">
        <time>2017-06-24T09:25:33Z</time>
      </trkpt>
      <trkpt lat="44.652740" lon="-0.833390">
        <time>2017-06-24T09:25:34Z</time>
      </trkpt>
      <trkpt lat="44.652960" lon="-0.833190">
        <time>2017-06-24T09:25:35Z</time>
      </trkpt>
      <trkpt lat="44.653160" lon="-0.833010">
        <time>2017-06-24T09:25:36Z</time>
      </trkpt>
      <trkpt lat="44.653370" lon="-0.832830">
        <time>2017-06-24T09:25:37Z</time>
      </trkpt>
      <trkpt lat="44.653570" lon="-0.832640">
        <time>2017-06-24T09:25:38Z</time>
      </trkpt>
      <trkpt lat="44.653770" lon="-0.832450">
        <time>2017-06-24T09:25:39Z</time>
      </trkpt>
      <trkpt lat="44.653990" lon="-0.832250">
        <time>2017-06-24T09:25:40Z</time>
      </trkpt>
      <trkpt lat="44.654180" lon="-0.832070">
        <time>2017-06-24T09:25:41Z</time>
      </trkpt>
      <trkpt lat="44.654390" lon="-0.831880">
        <time>2017-06-24T09:25:42Z</time>
      </trkpt>
      <trkpt lat="44.654600" lon="-0.831660">
        <time>2017-06-24T09:25:43Z</time>
      </trkpt>
      <trkpt lat="44.654790" lon="-0.831470">
        <time>2017-06-24T09:25:44Z</time>
      </trkpt>
      <trkpt lat="44.654990" lon="-0.831260">
        <time>2017-06-24T09:25:45Z</time>
      </trkpt>
      <trkpt lat="44.655210" lon="-0.831030">
        <time>2017-06-24T09:25:46Z</time>
      </trkpt>
      <trkpt lat="44.655410" lon="-0.830810">
        <time>2017-06-24T09:25:47Z</time>
      </trkpt>
      <trkpt lat="44.655650" lon="-0.830570">
        <time>2017-06-24T09:25:48Z</time>
      </trkpt>
      <trkpt lat="44.655850" lon="-0.830360">
        <time>2017-06-24T09:25:49Z</time>
      </trkpt>
      <trkpt lat="44.656070" lon="-0.830130">
        <time>2017-06-24T09:25:50Z</time>
      </trkpt>
      <trkpt lat="44.656290" lon="-0.829890">
        <time>2017-06-24T09:25:51Z</time>
      </trkpt>
      <trkpt lat="44.656490" lon="-0.829670">
        <time>2017-06-24T09:25:52Z</time>
      </trkpt>
      <trkpt lat="44.656700" lon="-0.829430">
        <time>2017-06-24T09:25:53Z</time>
      </trkpt>
      <trkpt lat="44.656900" lon="-0.829210">
        <time>2017-06-24T09:25:54Z</time>
      </trkpt>
      <trkpt lat="44.657110" lon="-0.828980">
        <time>2017-06-24T09:25:55Z</time>
      </trkpt>
      <trkpt lat="44.657320" lon="-0.828730">
        <time>2017-06-24T09:25:56Z</time>
      </trkpt>
      <trkpt lat="44.657510" lon="-0.828520">
        <time>2017-06-24T09:25:57Z</time>
      </trkpt>
      <trkpt lat="44.657710" lon="-0.828280">
        <time>2017-06-24T09:25:58Z</time>
      </trkpt>
      <trkpt lat="44.657930" lon="-0.828020">
        <time>2017-06-24T09:25:59Z</time>
      </trkpt>
      <trkpt lat="44.658120" lon="-0.827790">
        <time>2017-06-24T09:26:00Z</time>
      </trkpt>
      <trkpt lat="44.658320" lon="-0.827550">
        <time>2017-06-24T09:26:01Z</time>
      </trkpt>
      <trkpt lat="44.658540" lon="-0.827290">
        <time>2017-06-24T09:26:02Z</time>
      </trkpt>
      <trkpt lat="44.658730" lon="-0.827060">
        <time>2017-06-24T09:26:03Z</time>
      </trkpt>
      <trkpt lat="44.658940" lon="-0.826790">
        <time>2017-06-24T09:26:04Z</time>
      </trkpt>
      <trkpt lat="44.659120" lon="-0.826550">
        <time>2017-06-24T09:26:05Z</time>
      </trkpt>
      <trkpt lat="44.659310" lon="-0.826300">
        <time>2017-06-24T09:26:06Z</time>
      </trkpt>
      <trkpt lat="44.659520" lon="-0.826020">
        <time>2017-06-24T09:26:07Z</time>
      </trkpt>
      <trkpt lat="44.659700" lon="-0.825780">
        <time>2017-06-24T09:26:08Z</time>
      </trkpt>
      <trkpt lat="44.659890" lon="-0.825520">
        <time>2017-06-24T09:26:09Z</time>
      </trkpt>
      <trkpt lat="44.660070" lon="-0.825270">
        <time>2017-06-24T09:26:10Z</time>
      </trkpt>
      <trkpt lat="44.660270" lon="-0.825020">
        <time>2017-06-24T09:26:11Z</time>
      </trkpt>
      <trkpt lat="44.660480" lon="-0.824720">
        <time>2017-06-24T09:26:12Z</time>
      </trkpt>
      <trkpt lat="44.660670" lon="-0.824440">
        <time>2017-06-24T09:26:13Z</time>
      </trkpt>
      <trkpt lat="44.660860" lon="-0.824130">
        <time>2017-06-24T09:26:14Z</time>
      </trkpt>
      <trkpt lat="44.661080" lon="-0.823810">
        <time>2017-06-24T09:26:15Z</time>
      </trkpt>
      <trkpt lat="44.661280" lon="-0.823530">
        <time>2017-06-24T09:26:16Z</time>
      </trkpt>
      <trkpt lat="44.661490" lon="-0.823230">
        <time>2017-06-24T09:26:17Z</time>
      </trkpt>
      <trkpt lat="44.661720" lon="-0.822910">
        <time>2017-06-24T09:26:18Z</time>
      </trkpt>
      <trkpt lat="44.661920" lon="-0.822620">
        <time>2017-06-24T09:26:19Z</time>
      </trkpt>
      <trkpt lat="44.662150" lon="-0.822300">
        <time>2017-06-24T09:26:20Z</time>
      </trkpt>
      <trkpt lat="44.662360" lon="-0.822010">
        <time>2017-06-24T09:26:21Z</time>
      </trkpt>
      <trkpt lat="44.662570" lon="-0.821700">
        <time>2017-06-24T09:26:22Z</time>
      </trkpt>
      <trkpt lat="44.662790" lon="-0.821370">
        <time>2017-06-24T09:26:23Z</time>
      </trkpt>
      <trkpt lat="44.662990" lon="-0.821070">
        <time>2017-06-24T09:26:24Z</time>
      </trkpt>
      <trkpt lat="44.663200" lon="-0.820760">
        <time>2017-06-24T09:26:25Z</time>
      </trkpt>
      <trkpt lat="44.663410" lon="-0.820440">
        <time>2017-06-24T09:26:26Z</time>
      </trkpt>
      <trkpt lat="44.663610" lon="-0.820130">
        <time>2017-06-24T09:26:27Z</time>
      </trkpt>
      <trkpt lat="44.663820" lon="-0.819790">
        <time>2017-06-24T09:26:28Z</time>
      </trkpt>
      <trkpt lat="44.664010" lon="-0.819490">
        <time>2017-06-24T09:26:29Z</time>
      </trkpt>
      <trkpt lat="44.664210" lon="-0.819180">
        <time>2017-06-24T09:26:30Z</time>
      </trkpt>
      <trkpt lat="44.664420" lon="-0.818840">
        <time>2017-06-24T09:26:31Z</time>
      </trkpt>
      <trkpt lat="44.664610" lon="-0.818540">
        <time>2017-06-24T09:26:32Z</time>
      </trkpt>
      <trkpt lat="44.664810" lon="-0.818210">
        <time>2017-06-24T09:26:33Z</time>
      </trkpt>
      <trkpt lat="44.665020" lon="-0.817860">
        <time>2017-06-24T09:26:34Z</time>
      </trkpt>
      <trkpt lat="44.665200" lon="-0.817540">
        <time>2017-06-24T09:26:35Z</time>
      </trkpt>
      <trkpt lat="44.665410" lon="-0.817190">
        <time>2017-06-24T09:26:36Z</time>
      </trkpt>
      <trkpt lat="44.665600" lon="-0.816890">
        <time>2017-06-24T09:26:37Z</time>
      </trkpt>
      <trkpt lat="44.665810" lon="-0.816570">
        <time>2017-06-24T09:26:38Z</time>
      </trkpt>
      <trkpt lat="44.666020" lon="-0.816220">
        <time>2017-06-24T09:26:39Z</time>
      </trkpt>
      <trkpt lat="44.666200" lon="-0.815920">
        <time>2017-06-24T09:26:40Z</time>
      </trkpt>
      <trkpt lat="44.666400" lon="-0.815600">
        <time>2017-06-24T09:26:41Z</time>
      </trkpt>
      <trkpt lat="44.666610" lon="-0.815270">
        <time>2017-06-24T09:26:42Z</time>
      </trkpt>
      <trkpt lat="44.666800" lon="-0.814950">
        <time>2017-06-24T09:26:43Z</time>
      </trkpt>
      <trkpt lat="44.667010" lon="-0.814610">
        <time>2017-06-24T09:26:44Z</time>
      </trkpt>
      <trkpt lat="44.667190" lon="-0.814300">
        <time>2017-06-24T09:26:45Z</time>
      </trkpt>
      <trkpt lat="44.667380" lon="-0.813980">
        <time>2017-06-24T09:26:46Z</time>
      </trkpt>
      <trkpt lat="44.667590" lon="-0.813650">
        <time>2017-06-24T09:26:47Z</time>
      </trkpt>
      <trkpt lat="44.667770" lon="-0.813350">
        <time>2017-06-24T09:26:48Z</time>
      </trkpt>
      <trkpt lat="44.667970" lon="-0.813040">
        <time>2017-06-24T09:26:49Z</time>
      </trkpt>
      <trkpt lat="44.668180" lon="-0.812700">
        <time>2017-06-24T09:26:50Z</time>
      </trkpt>
      <trkpt lat="44.668360" lon="-0.812400">
        <time>2017-06-24T09:26:51Z</time>
      </trkpt>
      <trkpt lat="44.668570" lon="-0.812060">
        <time>2017-06-24T09:26:52Z</time>
      </trkpt>
      <trkpt lat="44.668750" lon="-0.811770">
        <time>2017-06-24T09:26:53Z</time>
      </trkpt>
      <trkpt lat="44.668940" lon="-0.811450">
        <time>2017-06-24T09:26:54Z</time>
      </trkpt>
      <trkpt lat="44.669150" lon="-0.811110">
        <time>2017-06-24T09:26:55Z</time>
      </trkpt>
      <trkpt lat="44.669330" lon="-0.810810">
        <time>2017-06-24T09:26:56Z</time>
      </trkpt>
      <trkpt lat="44.669530" lon="-0.810490">
        <time>2017-06-24T09:26:57Z</time>
      </trkpt>
      <trkpt lat="44.669720" lon="-0.810170">
        <time>2017-06-24T09:26:58Z</time>
      </trkpt>
      <trkpt lat="44.669920" lon="-0.809860">
        <time>2017-06-24T09:26:59Z</time>
      </trkpt>
      <trkpt lat="44.670120" lon="-0.809520">
        <time>2017-06-24T09:27:00Z</time>
      </trkpt>
      <trkpt lat="44.670310" lon="-0.809230">
        <time>2017-06-24T09:27:01Z</time>
      </trkpt>
      <trkpt lat="44.670500" lon="-0.808910">
        <time>2017-06-24T09:27:02Z</time>
      </trkpt>
      <trkpt lat="44.670710" lon="-0.808580">
        <time>2017-06-24T09:27:03Z</time>
      </trkpt>
      <trkpt lat="44.670890" lon="-0.808280">
        <time>2017-06-24T09:27:04Z</time>
      </trkpt>
      <trkpt lat="44.671090" lon="-0.807970">
        <time>2017-06-24T09:27:05Z</time>
      </trkpt>
      <trkpt lat="44.671300" lon="-0.807630">
        <time>2017-06-24T09:27:06Z</time>
      </trkpt>
      <trkpt lat="44.671480" lon="-0.807330">
        <time>2017-06-24T09:27:07Z</time>
      </trkpt>
      <trkpt lat="44.671690" lon="-0.806990">
        <time>2017-06-24T09:27:08Z</time>
      </trkpt>
      <trkpt lat="44.671870" lon="-0.806690">
        <time>2017-06-24T09:27:09Z</time>
      </trkpt>
      <trkpt lat="44.672070" lon="-0.806360">
        <time>2017-06-24T09:27:10Z</time>
      </trkpt>
      <trkpt lat="44.672280" lon="-0.806020">
        <time>2017-06-24T09:27:11Z</time>
      </trkpt>
      <trkpt lat="44.672470" lon="-0.805720">
        <time>2017-06-24T09:27:12Z</time>
      </trkpt>
      <trkpt lat="44.672670" lon="-0.805400">
        <time>2017-06-24T09:27:13Z</time>
      </trkpt>
      <trkpt lat="44.672870" lon="-0.805080">
        <time>2017-06-24T09:27:14Z</time>
      </trkpt>
      <trkpt lat="44.673070" lon="-0.804760">
        <time>2017-06-24T09:27:15Z</time>
      </trkpt>
      <trkpt lat="44.673280" lon="-0.804420">
        <time>2017-06-24T09:27:16Z</time>
      </trkpt>
      <trkpt lat="44.673460" lon="-0.804110">
        <time>2017-06-24T09:27:17Z</time>
      </trkpt>
      <trkpt lat="44.673650" lon="-0.803790">
        <time>2017-06-24T09:27:18Z</time>
      </trkpt>
      <trkpt lat="44.673860" lon="-0.803440">
        <time>2017-06-24T09:27:19Z</time>
      </trkpt>
      <trkpt lat="44.674040" lon="-0.803140">
        <time>2017-06-24T09:27:20Z</time>
      </trkpt>
      <trkpt lat="44.674240" lon="-0.802820">
        <time>2017-06-24T09:27:21Z</time>
      </trkpt>
      <trkpt lat="44.674450" lon="-0.802480">
        <time>2017-06-24T09:27:22Z</time>
      </trkpt>
      <trkpt lat="44.674630" lon="-0.802180">
        <time>2017-06-24T09:27:23Z</time>
      </trkpt>
      <trkpt lat="44.674830" lon="-0.801840">
        <time>2017-06-24T09:27:24Z</time>
      </trkpt>
      <trkpt lat="44.675010" lon="-0.801530">
        <time>2017-06-24T09:27:25Z</time>
      </trkpt>
      <trkpt lat="44.675200" lon="-0.801200">
        <time>2017-06-24T09:27:26Z</time>
      </trkpt>
      <trkpt lat="44.675410" lon="-0.800860">
        <time>2017-06-24T09:27:27Z</time>
      </trkpt>
      <trkpt lat="44.675600" lon="-0.800540">
        <time>2017-06-24T09:27:28Z</time>
      </trkpt>
      <trkpt lat="44.675790" lon="-0.800210">
        <time>2017-06-24T09:27:29Z</time>
      </trkpt>
      <trkpt lat="44.675990" lon="-0.799870">
        <time>2017-06-24T09:27:30Z</time>
      </trkpt>
      <trkpt lat="44.676180" lon="-0.799530">
        <time>2017-06-24T09:27:31Z</time>
      </trkpt>
      <trkpt lat="44.676390" lon="-0.799170">
        <time>2017-06-24T09:27:32Z</time>
      </trkpt>
      <trkpt lat="44.676570" lon="-0.798830">
        <time>2017-06-24T09:27:33Z</time>
      </trkpt>
      <trkpt lat="44.676760" lon="-0.798490">
        <time>2017-06-24T09:27:34Z</time>
      </trkpt>
      <trkpt lat="44.676960" lon="-0.798120">
        <time>2017-06-24T09:27:35Z</time>
      </trkpt>
      <trkpt lat="44.677140" lon="-0.797790">
        <time>2017-06-24T09:27:36Z</time>
      </trkpt>
      <trkpt lat="44.677330" lon="-0.797440">
        <time>2017-06-24T09:27:37Z</time>
      </trkpt>
      <trkpt lat="44.677530" lon="-0.797070">
        <time>2017-06-24T09:27:38Z</time>
      </trkpt>
      <trkpt lat="44.677710" lon="-0.796740">
        <time>2017-06-24T09:27:39Z</time>
      </trkpt>
      <trkpt lat="44.677900" lon="-0.796360">
        <time>2017-06-24T09:27:40Z</time>
      </trkpt>
      <trkpt lat="44.678070" lon="-0.796030">
        <time>2017-06-24T09:27:41Z</time>
      </trkpt>
      <trkpt lat="44.678250" lon="-0.795680">
        <time>2017-06-24T09:27:42Z</time>
      </trkpt>
      <trkpt lat="44.678430" lon="-0.795300">
        <time>2017-06-24T09:27:43Z</time>
      </trkpt>
      <trkpt lat="44.678600" lon="-0.794970">
        <time>2017-06-24T09:27:44Z</time>
      </trkpt>
      <trkpt lat="44.678780" lon="-0.794610">
        <time>2017-06-24T09:27:45Z</time>
      </trkpt>
      <trkpt lat="44.678960" lon="-0.794260">
        <time>2017-06-24T09:27:46Z</time>
      </trkpt>
      <trkpt lat="44.679130" lon="-0.793900">
        <time>2017-06-24T09:27:47Z</time>
      </trkpt>
      <trkpt lat="44.679320" lon="-0.793520">
        <time>2017-06-24T09:27:48Z</time>
      </trkpt>
      <trkpt lat="44.679480" lon="-0.793190">
        <time>2017-06-24T09:27:49Z</time>
      </trkpt>
      <trkpt lat="44.679650" lon="-0.792840">
        <time>2017-06-24T09:27:50Z</time>
      </trkpt>
      <trkpt lat="44.679820" lon="-0.792480">
        <time>2017-06-24T09:27:51Z</time>
      </trkpt>
      <trkpt lat="44.679980" lon="-0.792160">
        <time>2017-06-24T09:27:52Z</time>
      </trkpt>
      <trkpt lat="44.680140" lon="-0.791830">
        <time>2017-06-24T09:27:53Z</time>
      </trkpt>
      <trkpt lat="44.680320" lon="-0.791460">
        <time>2017-06-24T09:27:54Z</time>
      </trkpt>
      <trkpt lat="44.680480" lon="-0.791140">
        <time>2017-06-24T09:27:55Z</time>
      </trkpt>
      <trkpt lat="44.680660" lon="-0.790770">
        <time>2017-06-24T09:27:56Z</time>
      </trkpt>
      <trkpt lat="44.680830" lon="-0.790440">
        <time>2017-06-24T09:27:57Z</time>
      </trkpt>
      <trkpt lat="44.681010" lon="-0.790080">
        <time>2017-06-24T09:27:58Z</time>
      </trkpt>
      <trkpt lat="44.681200" lon="-0.789700">
        <time>2017-06-24T09:27:59Z</time>
      </trkpt>
      <trkpt lat="44.681360" lon="-0.789360">
        <time>2017-06-24T09:28:00Z</time>
      </trkpt>
      <trkpt lat="44.681540" lon="-0.789010">
        <time>2017-06-24T09:28:01Z</time>
      </trkpt>
      <trkpt lat="44.681710" lon="-0.788650">
        <time>2017-06-24T09:28:02Z</time>
      </trkpt>
      <trkpt lat="44.681880" lon="-0.788300">
        <time>2017-06-24T09:28:03Z</time>
      </trkpt>
      <trkpt lat="44.682050" lon="-0.787910">
        <time>2017-06-24T09:28:04Z</time>
      </trkpt>
      <trkpt lat="44.682210" lon="-0.787570">
        <time>2017-06-24T09:28:05Z</time>
      </trkpt>
      <trkpt lat="44.682370" lon="-0.787200">
        <time>2017-06-24T09:28:06Z</time>
      </trkpt>
      <trkpt lat="44.682550" lon="-0.786820">
        <time>2017-06-24T09:28:07Z</time>
      </trkpt>
      <trkpt lat="44.682710" lon="-0.786480">
        <time>2017-06-24T09:28:08Z</time>
      </trkpt>
      <trkpt lat="44.682880" lon="-0.786120">
        <time>2017-06-24T09:28:09Z</time>
      </trkpt>
      <trkpt lat="44.683070" lon="-0.785740">
        <time>2017-06-24T09:28:10Z</time>
      </trkpt>
      <trkpt lat="44.683230" lon="-0.785400">
        <time>2017-06-24T09:28:11Z</time>
      </trkpt>
      <trkpt lat="44.683420" lon="-0.785010">
        <time>2017-06-24T09:28:12Z</time>
      </trkpt>
      <trkpt lat="44.683580" lon="-0.784670">
        <time>2017-06-24T09:28:13Z</time>
      </trkpt>
      <trkpt lat="44.683750" lon="-0.784300">
        <time>2017-06-24T09:28:14Z</time>
      </trkpt>
      <trkpt lat="44.683940" lon="-0.783910">
        <time>2017-06-24T09:28:15Z</time>
      </trkpt>
      <trkpt lat="44.684110" lon="-0.783570">
        <time>2017-06-24T09:28:16Z</time>
      </trkpt>
      <trkpt lat="44.684290" lon="-0.783200">
        <time>2017-06-24T09:28:17Z</time>
      </trkpt>
      <trkpt lat="44.684470" lon="-0.782830">
        <time>2017-06-24T09:28:18Z</time>
      </trkpt>
      <trkpt lat="44.684640" lon="-0.782460">
        <time>2017-06-24T09:28:19Z</time>
      </trkpt>
      <trkpt lat="44.684830" lon="-0.782080">
        <time>2017-06-24T09:28:20Z</time>
      </trkpt>
      <trkpt lat="44.685000" lon="-0.781740">
        <time>2017-06-24T09:28:21Z</time>
      </trkpt>
      <trkpt lat="44.685170" lon="-0.781370">
        <time>2017-06-24T09:28:22Z</time>
      </trkpt>
      <trkpt lat="44.685360" lon="-0.780990">
        <time>2017-06-24T09:28:23Z</time>
      </trkpt>
      <trkpt lat="44.685520" lon="-0.780640">
        <time>2017-06-24T09:28:24Z</time>
      </trkpt>
      <trkpt lat="44.685690" lon="-0.780280">
        <time>2017-06-24T09:28:25Z</time>
      </trkpt>
      <trkpt lat="44.685880" lon="-0.779900">
        <time>2017-06-24T09:28:26Z</time>
      </trkpt>
      <trkpt lat="44.686050" lon="-0.779560">
        <time>2017-06-24T09:28:27Z</time>
      </trkpt>
      <trkpt lat="44.686230" lon="-0.779180">
        <time>2017-06-24T09:28:28Z</time>
      </trkpt>
      <trkpt lat="44.686400" lon="-0.778860">
        <time>2017-06-24T09:28:29Z</time>
      </trkpt>
      <trkpt lat="44.686570" lon="-0.778500">
        <time>2017-06-24T09:28:30Z</time>
      </trkpt>
      <trkpt lat="44.686750" lon="-0.778130">
        <time>2017-06-24T09:28:31Z</time>
      </trkpt>
      <trkpt lat="44.686920" lon="-0.777800">
        <time>2017-06-24T09:28:32Z</time>
      </trkpt>
      <trkpt lat="44.687100" lon="-0.777460">
        <time>2017-06-24T09:28:33Z</time>
      </trkpt>
      <trkpt lat="44.687280" lon="-0.777110">
        <time>2017-06-24T09:28:34Z</time>
      </trkpt>
      <trkpt lat="44.687450" lon="-0.776770">
        <time>2017-06-24T09:28:35Z</time>
      </trkpt>
      <trkpt lat="44.687640" lon="-0.776400">
        <time>2017-06-24T09:28:36Z</time>
      </trkpt>
      <trkpt lat="44.687810" lon="-0.776090">
        <time>2017-06-24T09:28:37Z</time>
      </trkpt>
      <trkpt lat="44.687990" lon="-0.775760">
        <time>2017-06-24T09:28:38Z</time>
      </trkpt>
      <trkpt lat="44.688170" lon="-0.775420">
        <time>2017-06-24T09:28:39Z</time>
      </trkpt>
      <trkpt lat="44.688340" lon="-0.775110">
        <time>2017-06-24T09:28:40Z</time>
      </trkpt>
      <trkpt lat="44.688510" lon="-0.774780">
        <time>2017-06-24T09:28:41Z</time>
      </trkpt>
      <trkpt lat="44.688710" lon="-0.774440">
        <time>2017-06-24T09:28:42Z</time>
      </trkpt>
      <trkpt lat="44.688870" lon="-0.774130">
        <time>2017-06-24T09:28:43Z</time>
      </trkpt>
      <trkpt lat="44.689070" lon="-0.773790">
        <time>2017-06-24T09:28:44Z</time>
      </trkpt>
      <trkpt lat="44.689240" lon="-0.773480">
        <time>2017-06-24T09:28:45Z</time>
      </trkpt>
      <trkpt lat="44.689430" lon="-0.773160">
        <time>2017-06-24T09:28:46Z</time>
      </trkpt>
      <trkpt lat="44.689630" lon="-0.772820">
        <time>2017-06-24T09:28:47Z</time>
      </trkpt>
      <trkpt lat="44.689810" lon="-0.772510">
        <time>2017-06-24T09:28:48Z</time>
      </trkpt>
      <trkpt lat="44.690010" lon="-0.772190">
        <time>2017-06-24T09:28:49Z</time>
      </trkpt>
      <trkpt lat="44.690200" lon="-0.771870">
        <time>2017-06-24T09:28:50Z</time>
      </trkpt>
      <trkpt lat="44.690400" lon="-0.771540">
        <time>2017-06-24T09:28:51Z</time>
      </trkpt>
      <trkpt lat="44.690600" lon="-0.771200">
        <time>2017-06-24T09:28:52Z</time>
      </trkpt>
      <trkpt lat="44.690790" lon="-0.770890">
        <time>2017-06-24T09:28:53Z</time>
      </trkpt>
      <trkpt lat="44.691000" lon="-0.770570">
        <time>2017-06-24T09:28:54Z</time>
      </trkpt>
      <trkpt lat="44.691210" lon="-0.770230">
        <time>2017-06-24T09:28:55Z</time>
      </trkpt>
      <trkpt lat="44.691410" lon="-0.769930">
        <time>2017-06-24T09:28:56Z</time>
      </trkpt>
      <trkpt lat="44.691610" lon="-0.769610">
        <time>2017-06-24T09:28:57Z</time>
      </trkpt>
      <trkpt lat="44.691830" lon="-0.769290">
        <time>2017-06-24T09:28:58Z</time>
      </trkpt>
      <trkpt lat="44.692020" lon="-0.768990">
        <time>2017-06-24T09:28:59Z</time>
      </trkpt>
      <trkpt lat="44.692250" lon="-0.768670">
        <time>2017-06-24T09:29:00Z</time>
      </trkpt>
      <trkpt lat="44.692450" lon="-0.768380">
        <time>2017-06-24T09:29:01Z</time>
      </trkpt>
      <trkpt lat="44.692650" lon="-0.768080">
        <time>2017-06-24T09:29:02Z</time>
      </trkpt>
      <trkpt lat="44.692880" lon="-0.767760">
        <time>2017-06-24T09:29:03Z</time>
      </trkpt>
      <trkpt lat="44.693080" lon="-0.767470">
        <time>2017-06-24T09:29:04Z</time>
      </trkpt>
      <trkpt lat="44.693290" lon="-0.767190">
        <time>2017-06-24T09:29:05Z</time>
      </trkpt>
      <trkpt lat="44.693500" lon="-0.766890">
        <time>2017-06-24T09:29:06Z</time>
      </trkpt>
      <trkpt lat="44.693710" lon="-0.766600">
        <time>2017-06-24T09:29:07Z</time>
      </trkpt>
      <trkpt lat="44.693940" lon="-0.766290">
        <time>2017-06-24T09:29:08Z</time>
      </trkpt>
      <trkpt lat="44.694140" lon="-0.766020">
        <time>2017-06-24T09:29:09Z</time>
      </trkpt>
      <trkpt lat="44.694360" lon="-0.765730">
        <time>2017-06-24T09:29:10Z</time>
      </trkpt>
      <trkpt lat="44.694590" lon="-0.765430">
        <time>2017-06-24T09:29:11Z</time>
      </trkpt>
      <trkpt lat="44.694790" lon="-0.765170">
        <time>2017-06-24T09:29:12Z</time>
      </trkpt>
      <trkpt lat="44.695010" lon="-0.764890">
        <time>2017-06-24T09:29:13Z</time>
      </trkpt>
      <trkpt lat="44.695240" lon="-0.764590">
        <time>2017-06-24T09:29:14Z</time>
      </trkpt>
      <trkpt lat="44.695440" lon="-0.764340">
        <time>2017-06-24T09:29:15Z</time>
      </trkpt>
      <trkpt lat="44.695680" lon="-0.764050">
        <time>2017-06-24T09:29:16Z</time>
      </trkpt>
      <trkpt lat="44.695880" lon="-0.763800">
        <time>2017-06-24T09:29:17Z</time>
      </trkpt>
      <trkpt lat="44.696100" lon="-0.763530">
        <time>2017-06-24T09:29:18Z</time>
      </trkpt>
      <trkpt lat="44.696330" lon="-0.763250">
        <time>2017-06-24T09:29:19Z</time>
      </trkpt>
      <trkpt lat="44.696530" lon="-0.763010">
        <time>2017-06-24T09:29:20Z</time>
      </trkpt>
      <trkpt lat="44.696750" lon="-0.762740">
        <time>2017-06-24T09:29:21Z</time>
      </trkpt>
      <trkpt lat="44.696970" lon="-0.762480">
        <time>2017-06-24T09:29:22Z</time>
      </trkpt>
      <trkpt lat="44.697190" lon="-0.762230">
        <time>2017-06-24T09:29:23Z</time>
      </trkpt>
      <trkpt lat="44.697420" lon="-0.761970">
        <time>2017-06-24T09:29:24Z</time>
      </trkpt>
      <trkpt lat="44.697620" lon="-0.761740">
        <time>2017-06-24T09:29:25Z</time>
      </trkpt>
      <trkpt lat="44.697840" lon="-0.761500">
        <time>2017-06-24T09:29:26Z</time>
      </trkpt>
      <trkpt lat="44.698070" lon="-0.761250">
        <time>2017-06-24T09:29:27Z</time>
      </trkpt>
      <trkpt lat="44.698260" lon="-0.761040">
        <time>2017-06-24T09:29:28Z</time>
      </trkpt>
      <trkpt lat="44.698460" lon="-0.760820">
        <time>2017-06-24T09:29:29Z</time>
      </trkpt>
      <trkpt lat="44.698670" lon="-0.760600">
        <time>2017-06-24T09:29:30Z</time>
      </trkpt>
      <trkpt lat="44.698840" lon="-0.760410">
        <time>2017-06-24T09:29:31Z</time>
      </trkpt>
      <trkpt lat="44.699050" lon="-0.760190">
        <time>2017-06-24T09:29:32Z</time>
      </trkpt>
      <trkpt lat="44.699240" lon="-0.759990">
        <time>2017-06-24T09:29:33Z</time>
      </trkpt>
      <trkpt lat="44.699450" lon="-0.759770">
        <time>2017-06-24T09:29:34Z</time>
      </trkpt>
      <trkpt lat="44.699680" lon="-0.759530">
        <time>2017-06-24T09:29:35Z</time>
      </trkpt>
      <trkpt lat="44.699890" lon="-0.759320">
        <time>2017-06-24T09:29:36Z</time>
      </trkpt>
      <trkpt lat="44.700120" lon="-0.759090">
        <time>2017-06-24T09:29:37Z</time>
      </trkpt>
      <trkpt lat="44.700350" lon="-0.758860">
        <time>2017-06-24T09:29:38Z</time>
      </trkpt>
      <trkpt lat="44.700570" lon="-0.758620">
        <time>2017-06-24T09:29:39Z</time>
      </trkpt>
      <trkpt lat="44.700820" lon="-0.758370">
        <time>2017-06-24T09:29:40Z</time>
      </trkpt>
      <trkpt lat="44.701030" lon="-0.758140">
        <time>2017-06-24T09:29:41Z</time>
      </trkpt>
      <trkpt lat="44.701260" lon="-0.757890">
        <time>2017-06-24T09:29:42Z</time>
      </trkpt>
      <trkpt lat="44.701500" lon="-0.757630">
        <time>2017-06-24T09:29:43Z</time>
      </trkpt>
      <trkpt lat="44.701720" lon="-0.757400">
        <time>2017-06-24T09:29:44Z</time>
      </trkpt>
      <trkpt lat="44.701950" lon="-0.757170">
        <time>2017-06-24T09:29:45Z</time>
      </trkpt>
      <trkpt lat="44.702200" lon="-0.756920">
        <time>2017-06-24T09:29:46Z</time>
      </trkpt>
      <trkpt lat="44.702410" lon="-0.756710">
        <time>2017-06-24T09:29:47Z</time>
      </trkpt>
      <trkpt lat="44.702660" lon="-0.756470">
        <time>2017-06-24T09:29:48Z</time>
      </trkpt>
      <trkpt lat="44.702870" lon="-0.756260">
        <time>2017-06-24T09:29:49Z</time>
      </trkpt>
      <trkpt lat="44.703100" lon="-0.756030">
        <time>2017-06-24T09:29:50Z</time>
      </trkpt>
      <trkpt lat="44.703340" lon="-0.755790">
        <time>2017-06-24T09:29:51Z</time>
      </trkpt>
      <trkpt lat="44.703550" lon="-0.755580">
        <time>2017-06-24T09:29:52Z</time>
      </trkpt>
      <trkpt lat="44.703780" lon="-0.755350">
        <time>2017-06-24T09:29:53Z</time>
      </trkpt>
      <trkpt lat="44.704000" lon="-0.755130">
        <time>2017-06-24T09:29:54Z</time>
      </trkpt>
      <trkpt lat="44.704220" lon="-0.754900">
        <time>2017-06-24T09:29:55Z</time>
      </trkpt>
      <trkpt lat="44.704460" lon="-0.754660">
        <time>2017-06-24T09:29:56Z</time>
      </trkpt>
      <trkpt lat="44.704670" lon="-0.754450">
        <time>2017-06-24T09:29:57Z</time>
      </trkpt>
      <trkpt lat="44.704890" lon="-0.754230">
        <time>2017-06-24T09:29:58Z</time>
      </trkpt>
      <trkpt lat="44.705130" lon="-0.753970">
        <time>2017-06-24T09:29:59Z</time>
      </trkpt>
      <trkpt lat="44.705340" lon="-0.753760">
        <time>2017-06-24T09:30:00Z</time>
      </trkpt>
      <trkpt lat="44.705570" lon="-0.753530">
        <time>2017-06-24T09:30:01Z</time>
      </trkpt>
      <trkpt lat="44.705810" lon="-0.753290">
        <time>2017-06-24T09:30:02Z</time>
      </trkpt>
      <trkpt lat="44.706030" lon="-0.753070">
        <time>2017-06-24T09:30:03Z</time>
      </trkpt>
      <trkpt lat="44.706280" lon="-0.752830">
        <time>2017-06-24T09:30:04Z</time>
      </trkpt>
      <trkpt lat="44.706500" lon="-0.752610">
        <time>2017-06-24T09:30:05Z</time>
      </trkpt>
      <trkpt lat="44.706730" lon="-0.752370">
        <time>2017-06-24T09:30:06Z</time>
      </trkpt>
      <trkpt lat="44.706980" lon="-0.752120">
        <time>2017-06-24T09:30:07Z</time>
      </trkpt>
      <trkpt lat="44.707200" lon="-0.751900">
        <time>2017-06-24T09:30:08Z</time>
      </trkpt>
      <trkpt lat="44.707430" lon="-0.751670">
        <time>2017-06-24T09:30:09Z</time>
      </trkpt>
      <trkpt lat="44.707670" lon="-0.751440">
        <time>2017-06-24T09:30:10Z</time>
      </trkpt>
      <trkpt lat="44.707910" lon="-0.751210">
        <time>2017-06-24T09:30:11Z</time>
      </trkpt>
      <trkpt lat="44.708160" lon="-0.750950">
        <time>2017-06-24T09:30:12Z</time>
      </trkpt>
      <trkpt lat="44.708380" lon="-0.750740">
        <time>2017-06-24T09:30:13Z</time>
      </trkpt>
      <trkpt lat="44.708610" lon="-0.750500">
        <time>2017-06-24T09:30:14Z</time>
      </trkpt>
      <trkpt lat="44.708870" lon="-0.750240">
        <time>2017-06-24T09:30:15Z</time>
      </trkpt>
      <trkpt lat="44.709090" lon="-0.750020">
        <time>2017-06-24T09:30:16Z</time>
      </trkpt>
      <trkpt lat="44.709350" lon="-0.749770">
        <time>2017-06-24T09:30:17Z</time>
      </trkpt>
      <trkpt lat="44.709620" lon="-0.749510">
        <time>2017-06-24T09:30:18Z</time>
      </trkpt>
      <trkpt lat="44.709860" lon="-0.749280">
        <time>2017-06-24T09:30:19Z</time>
      </trkpt>
      <trkpt lat="44.710130" lon="-0.749020">
        <time>2017-06-24T09:30:20Z</time>
      </trkpt>
      <trkpt lat="44.710370" lon="-0.748790">
        <time>2017-06-24T09:30:21Z</time>
      </trkpt>
      <trkpt lat="44.710630" lon="-0.748540">
        <time>2017-06-24T09:30:22Z</time>
      </trkpt>
      <trkpt lat="44.710900" lon="-0.748270">
        <time>2017-06-24T09:30:23Z</time>
      </trkpt>
      <trkpt lat="44.711140" lon="-0.748030">
        <time>2017-06-24T09:30:24Z</time>
      </trkpt>
      <trkpt lat="44.711390" lon="-0.747780">
        <time>2017-06-24T09:30:25Z</time>
      </trkpt>
      <trkpt lat="44.711640" lon="-0.747520">
        <time>2017-06-24T09:30:26Z</time>
      </trkpt>
      <trkpt lat="44.711890" lon="-0.747270">
        <time>2017-06-24T09:30:27Z</time>
      </trkpt>
      <trkpt lat="44.712160" lon="-0.746990">
        <time>2017-06-24T09:30:28Z</time>
      </trkpt>
      <trkpt lat="44.712390" lon="-0.746740">
        <time>2017-06-24T09:30:29Z</time>
      </trkpt>
      <trkpt lat="44.712640" lon="-0.746480">
        <time>2017-06-24T09:30:30Z</time>
      </trkpt>
      <trkpt lat="44.712900" lon="-0.746200">
        <time>2017-06-24T09:30:31Z</time>
      </trkpt>
      <trkpt lat="44.713130" lon="-0.745970">
        <time>2017-06-24T09:30:32Z</time>
      </trkpt>
      <trkpt lat="44.713380" lon="-0.745720">
        <time>2017-06-24T09:30:33Z</time>
      </trkpt>
      <trkpt lat="44.713630" lon="-0.745450">
        <time>2017-06-24T09:30:34Z</time>
      </trkpt>
      <trkpt lat="44.713860" lon="-0.745220">
        <time>2017-06-24T09:30:35Z</time>
      </trkpt>
      <trkpt lat="44.714120" lon="-0.744960">
        <time>2017-06-24T09:30:36Z</time>
      </trkpt>
      <trkpt lat="44.714340" lon="-0.744720">
        <time>2017-06-24T09:30:37Z</time>
      </trkpt>
      <trkpt lat="44.714580" lon="-0.744470">
        <time>2017-06-24T09:30:38Z</time>
      </trkpt>
      <trkpt lat="44.714830" lon="-0.744210">
        <time>2017-06-24T09:30:39Z</time>
      </trkpt>
      <trkpt lat="44.715040" lon="-0.743990">
        <time>2017-06-24T09:30:40Z</time>
      </trkpt>
      <trkpt lat="44.715270" lon="-0.743740">
        <time>2017-06-24T09:30:41Z</time>
      </trkpt>
      <trkpt lat="44.715500" lon="-0.743500">
        <time>2017-06-24T09:30:42Z</time>
      </trkpt>
      <trkpt lat="44.715730" lon="-0.743250">
        <time>2017-06-24T09:30:43Z</time>
      </trkpt>
      <trkpt lat="44.715970" lon="-0.743000">
        <time>2017-06-24T09:30:44Z</time>
      </trkpt>
      <trkpt lat="44.716180" lon="-0.742770">
        <time>2017-06-24T09:30:45Z</time>
      </trkpt>
      <trkpt lat="44.716410" lon="-0.742520">
        <time>2017-06-24T09:30:46Z</time>
      </trkpt>
      <trkpt lat="44.716650" lon="-0.742260">
        <time>2017-06-24T09:30:47Z</time>
      </trkpt>
      <trkpt lat="44.716860" lon="-0.742030">
        <time>2017-06-24T09:30:48Z</time>
      </trkpt>
      <trkpt lat="44.717070" lon="-0.741790">
        <time>2017-06-24T09:30:49Z</time>
      </trkpt>
      <trkpt lat="44.717310" lon="-0.741530">
        <time>2017-06-24T09:30:50Z</time>
      </trkpt>
      <trkpt lat="44.717510" lon="-0.741300">
        <time>2017-06-24T09:30:51Z</time>
      </trkpt>
      <trkpt lat="44.717750" lon="-0.741040">
        <time>2017-06-24T09:30:52Z</time>
      </trkpt>
      <trkpt lat="44.717960" lon="-0.740810">
        <time>2017-06-24T09:30:53Z</time>
      </trkpt>
      <trkpt lat="44.718190" lon="-0.740570">
        <time>2017-06-24T09:30:54Z</time>
      </trkpt>
      <trkpt lat="44.718440" lon="-0.740300">
        <time>2017-06-24T09:30:55Z</time>
      </trkpt>
      <trkpt lat="44.718650" lon="-0.740060">
        <time>2017-06-24T09:30:56Z</time>
      </trkpt>
      <trkpt lat="44.718880" lon="-0.739810">
        <time>2017-06-24T09:30:57Z</time>
      </trkpt>
      <trkpt lat="44.719110" lon="-0.739550">
        <time>2017-06-24T09:30:58Z</time>
      </trkpt>
      <trkpt lat="44.719340" lon="-0.739290">
        <time>2017-06-24T09:30:59Z</time>
      </trkpt>
      <trkpt lat="44.719600" lon="-0.739000">
        <time>2017-06-24T09:31:00Z</time>
      </trkpt>
      <trkpt lat="44.719830" lon="-0.738750">
        <time>2017-06-24T09:31:01Z</time>
      </trkpt>
      <trkpt lat="44.720070" lon="-0.738480">
        <time>2017-06-24T09:31:02Z</time>
      </trkpt>
      <trkpt lat="44.720340" lon="-0.738200">
        <time>2017-06-24T09:31:03Z</time>
      </trkpt>
      <trkpt lat="44.720580" lon="-0.737950">
        <time>2017-06-24T09:31:04Z</time>
      </trkpt>
      <trkpt lat="44.720820" lon="-0.737680">
        <time>2017-06-24T09:31:05Z</time>
      </trkpt>
      <trkpt lat="44.721080" lon="-0.737400">
        <time>2017-06-24T09:31:06Z</time>
      </trkpt>
      <trkpt lat="44.721310" lon="-0.737150">
        <time>2017-06-24T09:31:07Z</time>
      </trkpt>
      <trkpt lat="44.721560" lon="-0.736860">
        <time>2017-06-24T09:31:08Z</time>
      </trkpt>
      <trkpt lat="44.721780" lon="-0.736610">
        <time>2017-06-24T09:31:09Z</time>
      </trkpt>
      <trkpt lat="44.722020" lon="-0.736350">
        <time>2017-06-24T09:31:10Z</time>
      </trkpt>
      <trkpt lat="44.722270" lon="-0.736060">
        <time>2017-06-24T09:31:11Z</time>
      </trkpt>
      <trkpt lat="44.722480" lon="-0.735820">
        <time>2017-06-24T09:31:12Z</time>
      </trkpt>
      <trkpt lat="44.722710" lon="-0.735560">
        <time>2017-06-24T09:31:13Z</time>
      </trkpt>
      <trkpt lat="44.722940" lon="-0.735290">
        <time>2017-06-24T09:31:14Z</time>
      </trkpt>
      <trkpt lat="44.723170" lon="-0.735020">
        <time>2017-06-24T09:31:15Z</time>
      </trkpt>
      <trkpt lat="44.723410" lon="-0.734730">
        <time>2017-06-24T09:31:16Z</time>
      </trkpt>
      <trkpt lat="44.723620" lon="-0.734480">
        <time>2017-06-24T09:31:17Z</time>
      </trkpt>
      <trkpt lat="44.723850" lon="-0.734210">
        <time>2017-06-24T09:31:18Z</time>
      </trkpt>
      <trkpt lat="44.724090" lon="-0.733920">
        <time>2017-06-24T09:31:19Z</time>
      </trkpt>
      <trkpt lat="44.724310" lon="-0.733670">
        <time>2017-06-24T09:31:20Z</time>
      </trkpt>
      <trkpt lat="44.724530" lon="-0.733390">
        <time>2017-06-24T09:31:21Z</time>
      </trkpt>
      <trkpt lat="44.724780" lon="-0.733110">
        <time>2017-06-24T09:31:22Z</time>
      </trkpt>
      <trkpt lat="44.724990" lon="-0.732850">
        <time>2017-06-24T09:31:23Z</time>
      </trkpt>
      <trkpt lat="44.725230" lon="-0.732560">
        <time>2017-06-24T09:31:24Z</time>
      </trkpt>
      <trkpt lat="44.725440" lon="-0.732300">
        <time>2017-06-24T09:31:25Z</time>
      </trkpt>
      <trkpt lat="44.725670" lon="-0.732020">
        <time>2017-06-24T09:31:26Z</time>
      </trkpt>
      <trkpt lat="44.725920" lon="-0.731720">
        <time>2017-06-24T09:31:27Z</time>
      </trkpt>
      <trkpt lat="44.726130" lon="-0.731460">
        <time>2017-06-24T09:31:28Z</time>
      </trkpt>
      <trkpt lat="44.726360" lon="-0.731180">
        <time>2017-06-24T09:31:29Z</time>
      </trkpt>
      <trkpt lat="44.726580" lon="-0.730890">
        <time>2017-06-24T09:31:30Z</time>
      </trkpt>
      <trkpt lat="44.726800" lon="-0.730600">
        <time>2017-06-24T09:31:31Z</time>
      </trkpt>
      <trkpt lat="44.727040" lon="-0.730300">
        <time>2017-06-24T09:31:32Z</time>
      </trkpt>
      <trkpt lat="44.727250" lon="-0.730030">
        <time>2017-06-24T09:31:33Z</time>
      </trkpt>
      <trkpt lat="44.727470" lon="-0.729740">
        <time>2017-06-24T09:31:34Z</time>
      </trkpt>
      <trkpt lat="44.727700" lon="-0.729420">
        <time>2017-06-24T09:31:35Z</time>
      </trkpt>
      <trkpt lat="44.727910" lon="-0.729150">
        <time>2017-06-24T09:31:36Z</time>
      </trkpt>
      <trkpt lat="44.728120" lon="-0.728850">
        <time>2017-06-24T09:31:37Z</time>
      </trkpt>
      <trkpt lat="44.728350" lon="-0.728550">
        <time>2017-06-24T09:31:38Z</time>
      </trkpt>
      <trkpt lat="44.728550" lon="-0.728270">
        <time>2017-06-24T09:31:39Z</time>
      </trkpt>
      <trkpt lat="44.728780" lon="-0.727960">
        <time>2017-06-24T09:31:40Z</time>
      </trkpt>
      <trkpt lat="44.728980" lon="-0.727690">
        <time>2017-06-24T09:31:41Z</time>
      </trkpt>
      <trkpt lat="44.729190" lon="-0.727400">
        <time>2017-06-24T09:31:42Z</time>
      </trkpt>
      <trkpt lat="44.729410" lon="-0.727100">
        <time>2017-06-24T09:31:43Z</time>
      </trkpt>
      <trkpt lat="44.729610" lon="-0.726830">
        <time>2017-06-24T09:31:44Z</time>
      </trkpt>
      <trkpt lat="44.729820" lon="-0.726530">
        <time>2017-06-24T09:31:45Z</time>
      </trkpt>
      <trkpt lat="44.730030" lon="-0.726240">
        <time>2017-06-24T09:31:46Z</time>
      </trkpt>
      <trkpt lat="44.730250" lon="-0.725950">
        <time>2017-06-24T09:31:47Z</time>
      </trkpt>
      <trkpt lat="44.730470" lon="-0.725640">
        <time>2017-06-24T09:31:48Z</time>
      </trkpt>
      <trkpt lat="44.730670" lon="-0.725370">
        <time>2017-06-24T09:31:49Z</time>
      </trkpt>
      <trkpt lat="44.730880" lon="-0.725080">
        <time>2017-06-24T09:31:50Z</time>
      </trkpt>
      <trkpt lat="44.731100" lon="-0.724760">
        <time>2017-06-24T09:31:51Z</time>
      </trkpt>
      <trkpt lat="44.731300" lon="-0.724490">
        <time>2017-06-24T09:31:52Z</time>
      </trkpt>
      <trkpt lat="44.731510" lon="-0.724200">
        <time>2017-06-24T09:31:53Z</time>
      </trkpt>
      <trkpt lat="44.731730" lon="-0.723890">
        <time>2017-06-24T09:31:54Z</time>
      </trkpt>
      <trkpt lat="44.731930" lon="-0.723620">
        <time>2017-06-24T09:31:55Z</time>
      </trkpt>
      <trkpt lat="44.732150" lon="-0.723300">
        <time>2017-06-24T09:31:56Z</time>
      </trkpt>
      <trkpt lat="44.732340" lon="-0.723030">
        <time>2017-06-24T09:31:57Z</time>
      </trkpt>
      <trkpt lat="44.732550" lon="-0.722740">
        <time>2017-06-24T09:31:58Z</time>
      </trkpt>
      <trkpt lat="44.732760" lon="-0.722440">
        <time>2017-06-24T09:31:59Z</time>
      </trkpt>
      <trkpt lat="44.732960" lon="-0.722170">
        <time>2017-06-24T09:32:00Z</time>
      </trkpt>
      <trkpt lat="44.733170" lon="-0.721880">
        <time>2017-06-24T09:32:01Z</time>
      </trkpt>
      <trkpt lat="44.733370" lon="-0.721600">
        <time>2017-06-24T09:32:02Z</time>
      </trkpt>
      <trkpt lat="44.733570" lon="-0.721320">
        <time>2017-06-24T09:32:03Z</time>
      </trkpt>
      <trkpt lat="44.733770" lon="-0.721040">
        <time>2017-06-24T09:32:04Z</time>
      </trkpt>
      <trkpt lat="44.733960" lon="-0.720790">
        <time>2017-06-24T09:32:05Z</time>
      </trkpt>
      <trkpt lat="44.734150" lon="-0.720520">
        <time>2017-06-24T09:32:06Z</time>
      </trkpt>
      <trkpt lat="44.734370" lon="-0.720240">
        <time>2017-06-24T09:32:07Z</time>
      </trkpt>
      <trkpt lat="44.734560" lon="-0.719990">
        <time>2017-06-24T09:32:08Z</time>
      </trkpt>
      <trkpt lat="44.734760" lon="-0.719730">
        <time>2017-06-24T09:32:09Z</time>
      </trkpt>
      <trkpt lat="44.734960" lon="-0.719450">
        <time>2017-06-24T09:32:10Z</time>
      </trkpt>
      <trkpt lat="44.735130" lon="-0.719210">
        <time>2017-06-24T09:32:11Z</time>
      </trkpt>
      <trkpt lat="44.735320" lon="-0.718950">
        <time>2017-06-24T09:32:12Z</time>
      </trkpt>
      <trkpt lat="44.735490" lon="-0.718710">
        <time>2017-06-24T09:32:13Z</time>
      </trkpt>
      <trkpt lat="44.735670" lon="-0.718450">
        <time>2017-06-24T09:32:14Z</time>
      </trkpt>
      <trkpt lat="44.735860" lon="-0.718180">
        <time>2017-06-24T09:32:15Z</time>
      </trkpt>
      <trkpt lat="44.736030" lon="-0.717950">
        <time>2017-06-24T09:32:16Z</time>
      </trkpt>
      <trkpt lat="44.736210" lon="-0.717690">
        <time>2017-06-24T09:32:17Z</time>
      </trkpt>
      <trkpt lat="44.736390" lon="-0.717430">
        <time>2017-06-24T09:32:18Z</time>
      </trkpt>
      <trkpt lat="44.736580" lon="-0.717170">
        <time>2017-06-24T09:32:19Z</time>
      </trkpt>
      <trkpt lat="44.736780" lon="-0.716880">
        <time>2017-06-24T09:32:20Z</time>
      </trkpt>
      <trkpt lat="44.736960" lon="-0.716630">
        <time>2017-06-24T09:32:21Z</time>
      </trkpt>
      <trkpt lat="44.737150" lon="-0.716350">
        <time>2017-06-24T09:32:22Z</time>
      </trkpt>
      <trkpt lat="44.737350" lon="-0.716060">
        <time>2017-06-24T09:32:23Z</time>
      </trkpt>
      <trkpt lat="44.737530" lon="-0.715800">
        <time>2017-06-24T09:32:24Z</time>
      </trkpt>
      <trkpt lat="44.737730" lon="-0.715510">
        <time>2017-06-24T09:32:25Z</time>
      </trkpt>
      <trkpt lat="44.737940" lon="-0.715210">
        <time>2017-06-24T09:32:26Z</time>
      </trkpt>
      <trkpt lat="44.738110" lon="-0.714940">
        <time>2017-06-24T09:32:27Z</time>
      </trkpt>
      <trkpt lat="44.738320" lon="-0.714640">
        <time>2017-06-24T09:32:28Z</time>
      </trkpt>
      <trkpt lat="44.738500" lon="-0.714370">
        <time>2017-06-24T09:32:29Z</time>
      </trkpt>
      <trkpt lat="44.738690" lon="-0.714090">
        <time>2017-06-24T09:32:30Z</time>
      </trkpt>
      <trkpt lat="44.738890" lon="-0.713790">
        <time>2017-06-24T09:32:31Z</time>
      </trkpt>
      <trkpt lat="44.739070" lon="-0.713520">
        <time>2017-06-24T09:32:32Z</time>
      </trkpt>
      <trkpt lat="44.739250" lon="-0.713240">
        <time>2017-06-24T09:32:33Z</time>
      </trkpt>
      <trkpt lat="44.739430" lon="-0.712940">
        <time>2017-06-24T09:32:34Z</time>
      </trkpt>
      <trkpt lat="44.739610" lon="-0.712650">
        <time>2017-06-24T09:32:35Z</time>
      </trkpt>
      <trkpt lat="44.739810" lon="-0.712340">
        <time>2017-06-24T09:32:36Z</time>
      </trkpt>
      <trkpt lat="44.739980" lon="-0.712070">
        <time>2017-06-24T09:32:37Z</time>
      </trkpt>
      <trkpt lat="44.740160" lon="-0.711780">
        <time>2017-06-24T09:32:38Z</time>
      </trkpt>
      <trkpt lat="44.740340" lon="-0.711480">
        <time>2017-06-24T09:32:39Z</time>
      </trkpt>
      <trkpt lat="44.740510" lon="-0.711210">
        <time>2017-06-24T09:32:40Z</time>
      </trkpt>
      <trkpt lat="44.740680" lon="-0.710930">
        <time>2017-06-24T09:32:41Z</time>
      </trkpt>
      <trkpt lat="44.740860" lon="-0.710620">
        <time>2017-06-24T09:32:42Z</time>
      </trkpt>
      <trkpt lat="44.741020" lon="-0.710360">
        <time>2017-06-24T09:32:43Z</time>
      </trkpt>
      <trkpt lat="44.741190" lon="-0.710050">
        <time>2017-06-24T09:32:44Z</time>
      </trkpt>
      <trkpt lat="44.741350" lon="-0.709790">
        <time>2017-06-24T09:32:45Z</time>
      </trkpt>
      <trkpt lat="44.741510" lon="-0.709510">
        <time>2017-06-24T09:32:46Z</time>
      </trkpt>
      <trkpt lat="44.741690" lon="-0.709210">
        <time>2017-06-24T09:32:47Z</time>
      </trkpt>
      <trkpt lat="44.741840" lon="-0.708950">
        <time>2017-06-24T09:32:48Z</time>
      </trkpt>
      <trkpt lat="44.742000" lon="-0.708660">
        <time>2017-06-24T09:32:49Z</time>
      </trkpt>
      <trkpt lat="44.742170" lon="-0.708380">
        <time>2017-06-24T09:32:50Z</time>
      </trkpt>
      <trkpt lat="44.742320" lon="-0.708090">
        <time>2017-06-24T09:32:51Z</time>
      </trkpt>
      <trkpt lat="44.742500" lon="-0.707770">
        <time>2017-06-24T09:32:52Z</time>
      </trkpt>
      <trkpt lat="44.742650" lon="-0.707490">
        <time>2017-06-24T09:32:53Z</time>
      </trkpt>
      <trkpt lat="44.742830" lon="-0.707190">
        <time>2017-06-24T09:32:54Z</time>
      </trkpt>
      <trkpt lat="44.743010" lon="-0.706870">
        <time>2017-06-24T09:32:55Z</time>
      </trkpt>
      <trkpt lat="44.743170" lon="-0.706590">
        <time>2017-06-24T09:32:56Z</time>
      </trkpt>
      <trkpt lat="44.743340" lon="-0.706290">
        <time>2017-06-24T09:32:57Z</time>
      </trkpt>
      <trkpt lat="44.743520" lon="-0.705970">
        <time>2017-06-24T09:32:58Z</time>
      </trkpt>
      <trkpt lat="44.743670" lon="-0.705700">
        <time>2017-06-24T09:32:59Z</time>
      </trkpt>
      <trkpt lat="44.743850" lon="-0.705410">
        <time>2017-06-24T09:33:00Z</time>
      </trkpt>
      <trkpt lat="44.743990" lon="-0.705140">
        <time>2017-06-24T09:33:01Z</time>
      </trkpt>
      <trkpt lat="44.744150" lon="-0.704870">
        <time>2017-06-24T09:33:02Z</time>
      </trkpt>
      <trkpt lat="44.744310" lon="-0.704580">
        <time>2017-06-24T09:33:03Z</time>
      </trkpt>
      <trkpt lat="44.744450" lon="-0.704330">
        <time>2017-06-24T09:33:04Z</time>
      </trkpt>
      <trkpt lat="44.744600" lon="-0.704070">
        <time>2017-06-24T09:33:05Z</time>
      </trkpt>
      <trkpt lat="44.744750" lon="-0.703800">
        <time>2017-06-24T09:33:06Z</time>
      </trkpt>
      <trkpt lat="44.744900" lon="-0.703540">
        <time>2017-06-24T09:33:07Z</time>
      </trkpt>
      <trkpt lat="44.745070" lon="-0.703250">
        <time>2017-06-24T09:33:08Z</time>
      </trkpt>
      <trkpt lat="44.745220" lon="-0.703000">
        <time>2017-06-24T09:33:09Z</time>
      </trkpt>
      <trkpt lat="44.745370" lon="-0.702720">
        <time>2017-06-24T09:33:10Z</time>
      </trkpt>
      <trkpt lat="44.745540" lon="-0.702430">
        <time>2017-06-24T09:33:11Z</time>
      </trkpt>
      <trkpt lat="44.745690" lon="-0.702180">
        <time>2017-06-24T09:33:12Z</time>
      </trkpt>
      <trkpt lat="44.745840" lon="-0.701910">
        <time>2017-06-24T09:33:13Z</time>
      </trkpt>
      <trkpt lat="44.746010" lon="-0.701620">
        <time>2017-06-24T09:33:14Z</time>
      </trkpt>
      <trkpt lat="44.746160" lon="-0.701370">
        <time>2017-06-24T09:33:15Z</time>
      </trkpt>
      <trkpt lat="44.746330" lon="-0.701080">
        <time>2017-06-24T09:33:16Z</time>
      </trkpt>
      <trkpt lat="44.746490" lon="-0.700830">
        <time>2017-06-24T09:33:17Z</time>
      </trkpt>
      <trkpt lat="44.746660" lon="-0.700560">
        <time>2017-06-24T09:33:18Z</time>
      </trkpt>
      <trkpt lat="44.746840" lon="-0.700280">
        <time>2017-06-24T09:33:19Z</time>
      </trkpt>
      <trkpt lat="44.746990" lon="-0.700030">
        <time>2017-06-24T09:33:20Z</time>
      </trkpt>
      <trkpt lat="44.747160" lon="-0.699770">
        <time>2017-06-24T09:33:21Z</time>
      </trkpt>
      <trkpt lat="44.747320" lon="-0.699500">
        <time>2017-06-24T09:33:22Z</time>
      </trkpt>
      <trkpt lat="44.747490" lon="-0.699240">
        <time>2017-06-24T09:33:23Z</time>
      </trkpt>
      <trkpt lat="44.747660" lon="-0.698970">
        <time>2017-06-24T09:33:24Z</time>
      </trkpt>
      <trkpt lat="44.747820" lon="-0.698730">
        <time>2017-06-24T09:33:25Z</time>
      </trkpt>
      <trkpt lat="44.747980" lon="-0.698480">
        <time>2017-06-24T09:33:26Z</time>
      </trkpt>
      <trkpt lat="44.748170" lon="-0.698200">
        <time>2017-06-24T09:33:27Z</time>
      </trkpt>
      <trkpt lat="44.748330" lon="-0.697960">
        <time>2017-06-24T09:33:28Z</time>
      </trkpt>
      <trkpt lat="44.748490" lon="-0.697700">
        <time>2017-06-24T09:33:29Z</time>
      </trkpt>
      <trkpt lat="44.748670" lon="-0.697430">
        <time>2017-06-24T09:33:30Z</time>
      </trkpt>
      <trkpt lat="44.748830" lon="-0.697190">
        <time>2017-06-24T09:33:31Z</time>
      </trkpt>
      <trkpt lat="44.749020" lon="-0.696900">
        <time>2017-06-24T09:33:32Z</time>
      </trkpt>
      <trkpt lat="44.749180" lon="-0.696660">
        <time>2017-06-24T09:33:33Z</time>
      </trkpt>
      <trkpt lat="44.749360" lon="-0.696390">
        <time>2017-06-24T09:33:34Z</time>
      </trkpt>
      <trkpt lat="44.749550" lon="-0.696110">
        <time>2017-06-24T09:33:35Z</time>
      </trkpt>
      <trkpt lat="44.749720" lon="-0.695860">
        <time>2017-06-24T09:33:36Z</time>
      </trkpt>
      <trkpt lat="44.749890" lon="-0.695590">
        <time>2017-06-24T09:33:37Z</time>
      </trkpt>
      <trkpt lat="44.750070" lon="-0.695310">
        <time>2017-06-24T09:33:38Z</time>
      </trkpt>
      <trkpt lat="44.750250" lon="-0.695040">
        <time>2017-06-24T09:33:39Z</time>
      </trkpt>
      <trkpt lat="44.750440" lon="-0.694750">
        <time>2017-06-24T09:33:40Z</time>
      </trkpt>
      <trkpt lat="44.750610" lon="-0.694490">
        <time>2017-06-24T09:33:41Z</time>
      </trkpt>
      <trkpt lat="44.750780" lon="-0.694230">
        <time>2017-06-24T09:33:42Z</time>
      </trkpt>
      <trkpt lat="44.750960" lon="-0.693940">
        <time>2017-06-24T09:33:43Z</time>
      </trkpt>
      <trkpt lat="44.751130" lon="-0.693700">
        <time>2017-06-24T09:33:44Z</time>
      </trkpt>
      <trkpt lat="44.751300" lon="-0.693430">
        <time>2017-06-24T09:33:45Z</time>
      </trkpt>
      <trkpt lat="44.751480" lon="-0.693150">
        <time>2017-06-24T09:33:46Z</time>
      </trkpt>
      <trkpt lat="44.751640" lon="-0.692910">
        <time>2017-06-24T09:33:47Z</time>
      </trkpt>
      <trkpt lat="44.751820" lon="-0.692630">
        <time>2017-06-24T09:33:48Z</time>
      </trkpt>
      <trkpt lat="44.751980" lon="-0.692390">
        <time>2017-06-24T09:33:49Z</time>
      </trkpt>
      <trkpt lat="44.752150" lon="-0.692130">
        <time>2017-06-24T09:33:50Z</time>
      </trkpt>
      <trkpt lat="44.752330" lon="-0.691850">
        <time>2017-06-24T09:33:51Z</time>
      </trkpt>
      <trkpt lat="44.752490" lon="-0.691610">
        <time>2017-06-24T09:33:52Z</time>
      </trkpt>
      <trkpt lat="44.752660" lon="-0.691350">
        <time>2017-06-24T09:33:53Z</time>
      </trkpt>
      <trkpt lat="44.752830" lon="-0.691100">
        <time>2017-06-24T09:33:54Z</time>
      </trkpt>
      <trkpt lat="44.753000" lon="-0.690840">
        <time>2017-06-24T09:33:55Z</time>
      </trkpt>
      <trkpt lat="44.753180" lon="-0.690560">
        <time>2017-06-24T09:33:56Z</time>
      </trkpt>
      <trkpt lat="44.753340" lon="-0.690320">
        <time>2017-06-24T09:33:57Z</time>
      </trkpt>
      <trkpt lat="44.753510" lon="-0.690060">
        <time>2017-06-24T09:33:58Z</time>
      </trkpt>
      <trkpt lat="44.753690" lon="-0.689780">
        <time>2017-06-24T09:33:59Z</time>
      </trkpt>
      <trkpt lat="44.753860" lon="-0.689540">
        <time>2017-06-24T09:34:00Z</time>
      </trkpt>
      <trkpt lat="44.754030" lon="-0.689270">
        <time>2017-06-24T09:34:01Z</time>
      </trkpt>
      <trkpt lat="44.754230" lon="-0.688980">
        <time>2017-06-24T09:34:02Z</time>
      </trkpt>
      <trkpt lat="44.754400" lon="-0.688730">
        <time>2017-06-24T09:34:03Z</time>
      </trkpt>
      <trkpt lat="44.754590" lon="-0.688440">
        <time>2017-06-24T09:34:04Z</time>
      </trkpt>
      <trkpt lat="44.754770" lon="-0.688180">
        <time>2017-06-24T09:34:05Z</time>
      </trkpt>
      <trkpt lat="44.754950" lon="-0.687890">
        <time>2017-06-24T09:34:06Z</time>
      </trkpt>
      <trkpt lat="44.755150" lon="-0.687580">
        <time>2017-06-24T09:34:07Z</time>
      </trkpt>
      <trkpt lat="44.755320" lon="-0.687300">
        <time>2017-06-24T09:34:08Z</time>
      </trkpt>
      <trkpt lat="44.755510" lon="-0.686990">
        <time>2017-06-24T09:34:09Z</time>
      </trkpt>
      <trkpt lat="44.755700" lon="-0.686690">
        <time>2017-06-24T09:34:10Z</time>
      </trkpt>
      <trkpt lat="44.755890" lon="-0.686380">
        <time>2017-06-24T09:34:11Z</time>
      </trkpt>
      <trkpt lat="44.756100" lon="-0.686070">
        <time>2017-06-24T09:34:12Z</time>
      </trkpt>
      <trkpt lat="44.756280" lon="-0.685800">
        <time>2017-06-24T09:34:13Z</time>
      </trkpt>
      <trkpt lat="44.756470" lon="-0.685500">
        <time>2017-06-24T09:34:14Z</time>
      </trkpt>
      <trkpt lat="44.756670" lon="-0.685190">
        <time>2017-06-24T09:34:15Z</time>
      </trkpt>
      <trkpt lat="44.756850" lon="-0.684930">
        <time>2017-06-24T09:34:16Z</time>
      </trkpt>
      <trkpt lat="44.757030" lon="-0.684640">
        <time>2017-06-24T09:34:17Z</time>
      </trkpt>
      <trkpt lat="44.757230" lon="-0.684340">
        <time>2017-06-24T09:34:18Z</time>
      </trkpt>
      <trkpt lat="44.757410" lon="-0.684070">
        <time>2017-06-24T09:34:19Z</time>
      </trkpt>
      <trkpt lat="44.757620" lon="-0.683760">
        <time>2017-06-24T09:34:20Z</time>
      </trkpt>
      <trkpt lat="44.757800" lon="-0.683490">
        <time>2017-06-24T09:34:21Z</time>
      </trkpt>
      <trkpt lat="44.758000" lon="-0.683200">
        <time>2017-06-24T09:34:22Z</time>
      </trkpt>
      <trkpt lat="44.758220" lon="-0.682880">
        <time>2017-06-24T09:34:23Z</time>
      </trkpt>
      <trkpt lat="44.758410" lon="-0.682600">
        <time>2017-06-24T09:34:24Z</time>
      </trkpt>
      <trkpt lat="44.758620" lon="-0.682290">
        <time>2017-06-24T09:34:25Z</time>
      </trkpt>
      <trkpt lat="44.758820" lon="-0.681990">
        <time>2017-06-24T09:34:26Z</time>
      </trkpt>
      <trkpt lat="44.759020" lon="-0.681680">
        <time>2017-06-24T09:34:27Z</time>
      </trkpt>
      <trkpt lat="44.759240" lon="-0.681350">
        <time>2017-06-24T09:34:28Z</time>
      </trkpt>
      <trkpt lat="44.759430" lon="-0.681060">
        <time>2017-06-24T09:34:29Z</time>
      </trkpt>
      <trkpt lat="44.759630" lon="-0.680740">
        <time>2017-06-24T09:34:30Z</time>
      </trkpt>
      <trkpt lat="44.759840" lon="-0.680400">
        <time>2017-06-24T09:34:31Z</time>
      </trkpt>
      <trkpt lat="44.760010" lon="-0.680110">
        <time>2017-06-24T09:34:32Z</time>
      </trkpt>
      <trkpt lat="44.760200" lon="-0.679800">
        <time>2017-06-24T09:34:33Z</time>
      </trkpt>
      <trkpt lat="44.760410" lon="-0.679480">
        <time>2017-06-24T09:34:34Z</time>
      </trkpt>
      <trkpt lat="44.760590" lon="-0.679210">
        <time>2017-06-24T09:34:35Z</time>
      </trkpt>
      <trkpt lat="44.760790" lon="-0.678900">
        <time>2017-06-24T09:34:36Z</time>
      </trkpt>
      <trkpt lat="44.760970" lon="-0.678620">
        <time>2017-06-24T09:34:37Z</time>
      </trkpt>
      <trkpt lat="44.761160" lon="-0.678330">
        <time>2017-06-24T09:34:38Z</time>
      </trkpt>
      <trkpt lat="44.761360" lon="-0.678020">
        <time>2017-06-24T09:34:39Z</time>
      </trkpt>
      <trkpt lat="44.761540" lon="-0.677740">
        <time>2017-06-24T09:34:40Z</time>
      </trkpt>
      <trkpt lat="44.761740" lon="-0.677440">
        <time>2017-06-24T09:34:41Z</time>
      </trkpt>
      <trkpt lat="44.761930" lon="-0.677140">
        <time>2017-06-24T09:34:42Z</time>
      </trkpt>
      <trkpt lat="44.762120" lon="-0.676850">
        <time>2017-06-24T09:34:43Z</time>
      </trkpt>
      <trkpt lat="44.762320" lon="-0.676540">
        <time>2017-06-24T09:34:44Z</time>
      </trkpt>
      <trkpt lat="44.762490" lon="-0.676260">
        <time>2017-06-24T09:34:45Z</time>
      </trkpt>
      <trkpt lat="44.762670" lon="-0.675970">
        <time>2017-06-24T09:34:46Z</time>
      </trkpt>
      <trkpt lat="44.762860" lon="-0.675690">
        <time>2017-06-24T09:34:47Z</time>
      </trkpt>
      <trkpt lat="44.763030" lon="-0.675410">
        <time>2017-06-24T09:34:48Z</time>
      </trkpt>
      <trkpt lat="44.763210" lon="-0.675130">
        <time>2017-06-24T09:34:49Z</time>
      </trkpt>
      <trkpt lat="44.763410" lon="-0.674820">
        <time>2017-06-24T09:34:50Z</time>
      </trkpt>
      <trkpt lat="44.763580" lon="-0.674550">
        <time>2017-06-24T09:34:51Z</time>
      </trkpt>
      <trkpt lat="44.763780" lon="-0.674230">
        <time>2017-06-24T09:34:52Z</time>
      </trkpt>
      <trkpt lat="44.763960" lon="-0.673950">
        <time>2017-06-24T09:34:53Z</time>
      </trkpt>
      <trkpt lat="44.764150" lon="-0.673650">
        <time>2017-06-24T09:34:54Z</time>
      </trkpt>
      <trkpt lat="44.764350" lon="-0.673320">
        <time>2017-06-24T09:34:55Z</time>
      </trkpt>
      <trkpt lat="44.764540" lon="-0.673040">
        <time>2017-06-24T09:34:56Z</time>
      </trkpt>
      <trkpt lat="44.764730" lon="-0.672720">
        <time>2017-06-24T09:34:57Z</time>
      </trkpt>
      <trkpt lat="44.764920" lon="-0.672410">
        <time>2017-06-24T09:34:58Z</time>
      </trkpt>
      <trkpt lat="44.765110" lon="-0.672100">
        <time>2017-06-24T09:34:59Z</time>
      </trkpt>
      <trkpt lat="44.765310" lon="-0.671760">
        <time>2017-06-24T09:35:00Z</time>
      </trkpt>
      <trkpt lat="44.765480" lon="-0.671460">
        <time>2017-06-24T09:35:01Z</time>
      </trkpt>
      <trkpt lat="44.765670" lon="-0.671140">
        <time>2017-06-24T09:35:02Z</time>
      </trkpt>
      <trkpt lat="44.765870" lon="-0.670810">
        <time>2017-06-24T09:35:03Z</time>
      </trkpt>
      <trkpt lat="44.766040" lon="-0.670500">
        <time>2017-06-24T09:35:04Z</time>
      </trkpt>
      <trkpt lat="44.766220" lon="-0.670190">
        <time>2017-06-24T09:35:05Z</time>
      </trkpt>
      <trkpt lat="44.766410" lon="-0.669860">
        <time>2017-06-24T09:35:06Z</time>
      </trkpt>
      <trkpt lat="44.766580" lon="-0.669560">
        <time>2017-06-24T09:35:07Z</time>
      </trkpt>
      <trkpt lat="44.766760" lon="-0.669230">
        <time>2017-06-24T09:35:08Z</time>
      </trkpt>
      <trkpt lat="44.766920" lon="-0.668940">
        <time>2017-06-24T09:35:09Z</time>
      </trkpt>
      <trkpt lat="44.767090" lon="-0.668620">
        <time>2017-06-24T09:35:10Z</time>
      </trkpt>
      <trkpt lat="44.767270" lon="-0.668270">
        <time>2017-06-24T09:35:11Z</time>
      </trkpt>
      <trkpt lat="44.767430" lon="-0.667970">
        <time>2017-06-24T09:35:12Z</time>
      </trkpt>
      <trkpt lat="44.767610" lon="-0.667640">
        <time>2017-06-24T09:35:13Z</time>
      </trkpt>
      <trkpt lat="44.767780" lon="-0.667310">
        <time>2017-06-24T09:35:14Z</time>
      </trkpt>
      <trkpt lat="44.767950" lon="-0.666970">
        <time>2017-06-24T09:35:15Z</time>
      </trkpt>
      <trkpt lat="44.768120" lon="-0.666630">
        <time>2017-06-24T09:35:16Z</time>
      </trkpt>
      <trkpt lat="44.768270" lon="-0.666330">
        <time>2017-06-24T09:35:17Z</time>
      </trkpt>
      <trkpt lat="44.768430" lon="-0.666020">
        <time>2017-06-24T09:35:18Z</time>
      </trkpt>
      <trkpt lat="44.768590" lon="-0.665680">
        <time>2017-06-24T09:35:19Z</time>
      </trkpt>
      <trkpt lat="44.768740" lon="-0.665390">
        <time>2017-06-24T09:35:20Z</time>
      </trkpt>
      <trkpt lat="44.768890" lon="-0.665090">
        <time>2017-06-24T09:35:21Z</time>
      </trkpt>
      <trkpt lat="44.769040" lon="-0.664760">
        <time>2017-06-24T09:35:22Z</time>
      </trkpt>
      <trkpt lat="44.769180" lon="-0.664480">
        <time>2017-06-24T09:35:23Z</time>
      </trkpt>
      <trkpt lat="44.769330" lon="-0.664150">
        <time>2017-06-24T09:35:24Z</time>
      </trkpt>
      <trkpt lat="44.769460" lon="-0.663870">
        <time>2017-06-24T09:35:25Z</time>
      </trkpt>
      <trkpt lat="44.769600" lon="-0.663580">
        <time>2017-06-24T09:35:26Z</time>
      </trkpt>
      <trkpt lat="44.769740" lon="-0.663280">
        <time>2017-06-24T09:35:27Z</time>
      </trkpt>
      <trkpt lat="44.769860" lon="-0.663030">
        <time>2017-06-24T09:35:28Z</time>
      </trkpt>
      <trkpt lat="44.769980" lon="-0.662770">
        <time>2017-06-24T09:35:29Z</time>
      </trkpt>
      <trkpt lat="44.770090" lon="-0.662510">
        <time>2017-06-24T09:35:30Z</time>
      </trkpt>
      <trkpt lat="44.770210" lon="-0.662270">
        <time>2017-06-24T09:35:31Z</time>
      </trkpt>
      <trkpt lat="44.770330" lon="-0.662010">
        <time>2017-06-24T09:35:32Z</time>
      </trkpt>
      <trkpt lat="44.770420" lon="-0.661800">
        <time>2017-06-24T09:35:33Z</time>
      </trkpt>
      <trkpt lat="44.770510" lon="-0.661580">
        <time>2017-06-24T09:35:34Z</time>
      </trkpt>
      <trkpt lat="44.770610" lon="-0.661380">
        <time>2017-06-24T09:35:35Z</time>
      </trkpt>
      <trkpt lat="44.770680" lon="-0.661210">
        <time>2017-06-24T09:35:36Z</time>
      </trkpt>
      <trkpt lat="44.770760" lon="-0.661020">
        <time>2017-06-24T09:35:37Z</time>
      </trkpt>
      <trkpt lat="44.770840" lon="-0.660840">
        <time>2017-06-24T09:35:38Z</time>
      </trkpt>
      <trkpt lat="44.770910" lon="-0.660700">
        <time>2017-06-24T09:35:39Z</time>
      </trkpt>
      <trkpt lat="44.770980" lon="-0.660540">
        <time>2017-06-24T09:35:40Z</time>
      </trkpt>
      <trkpt lat="44.771030" lon="-0.660410">
        <time>2017-06-24T09:35:41Z</time>
      </trkpt>
      <trkpt lat="44.771090" lon="-0.660280">
        <time>2017-06-24T09:35:42Z</time>
      </trkpt>
      <trkpt lat="44.771140" lon="-0.660150">
        <time>2017-06-24T09:35:43Z</time>
      </trkpt>
      <trkpt lat="44.771180" lon="-0.660040">
        <time>2017-06-24T09:35:44Z</time>
      </trkpt>
      <trkpt lat="44.771230" lon="-0.659940">
        <time>2017-06-24T09:35:45Z</time>
      </trkpt>
      <trkpt lat="44.771280" lon="-0.659820">
        <time>2017-06-24T09:35:46Z</time>
      </trkpt>
      <trkpt lat="44.771330" lon="-0.659710">
        <time>2017-06-24T09:35:47Z</time>
      </trkpt>
      <trkpt lat="44.771380" lon="-0.659580">
        <time>2017-06-24T09:35:48Z</time>
      </trkpt>
      <trkpt lat="44.771440" lon="-0.659470">
        <time>2017-06-24T09:35:49Z</time>
      </trkpt>
      <trkpt lat="44.771500" lon="-0.659350">
        <time>2017-06-24T09:35:50Z</time>
      </trkpt>
      <trkpt lat="44.771560" lon="-0.659220">
        <time>2017-06-24T09:35:51Z</time>
      </trkpt>
      <trkpt lat="44.771610" lon="-0.659090">
        <time>2017-06-24T09:35:52Z</time>
      </trkpt>
      <trkpt lat="44.771670" lon="-0.658950">
        <time>2017-06-24T09:35:53Z</time>
      </trkpt>
      <trkpt lat="44.771740" lon="-0.658790">
        <time>2017-06-24T09:35:54Z</time>
      </trkpt>
      <trkpt lat="44.771800" lon="-0.658640">
        <time>2017-06-24T09:35:55Z</time>
      </trkpt>
      <trkpt lat="44.771860" lon="-0.658480">
        <time>2017-06-24T09:35:56Z</time>
      </trkpt>
      <trkpt lat="44.771930" lon="-0.658330">
        <time>2017-06-24T09:35:57Z</time>
      </trkpt>
      <trkpt lat="44.771990" lon="-0.658190">
        <time>2017-06-24T09:35:58Z</time>
      </trkpt>
      <trkpt lat="44.772060" lon="-0.658040">
        <time>2017-06-24T09:35:59Z</time>
      </trkpt>
      <trkpt lat="44.772110" lon="-0.657910">
        <time>2017-06-24T09:36:00Z</time>
      </trkpt>
      <trkpt lat="44.772180" lon="-0.657760">
        <time>2017-06-24T09:36:01Z</time>
      </trkpt>
      <trkpt lat="44.772250" lon="-0.657600">
        <time>2017-06-24T09:36:02Z</time>
      </trkpt>
      <trkpt lat="44.772310" lon="-0.657450">
        <time>2017-06-24T09:36:03Z</time>
      </trkpt>
      <trkpt lat="44.772390" lon="-0.657270">
        <time>2017-06-24T09:36:04Z</time>
      </trkpt>
      <trkpt lat="44.772460" lon="-0.657110">
        <time>2017-06-24T09:36:05Z</time>
      </trkpt>
      <trkpt lat="44.772540" lon="-0.656930">
        <time>2017-06-24T09:36:06Z</time>
      </trkpt>
      <trkpt lat="44.772630" lon="-0.656730">
        <time>2017-06-24T09:36:07Z</time>
      </trkpt>
      <trkpt lat="44.772700" lon="-0.656560">
        <time>2017-06-24T09:36:08Z</time>
      </trkpt>
      <trkpt lat="44.772780" lon="-0.656380">
        <time>2017-06-24T09:36:09Z</time>
      </trkpt>
      <trkpt lat="44.772860" lon="-0.656180">
        <time>2017-06-24T09:36:10Z</time>
      </trkpt>
      <trkpt lat="44.772930" lon="-0.656010">
        <time>2017-06-24T09:36:11Z</time>
      </trkpt>
      <trkpt lat="44.773020" lon="-0.655800">
        <time>2017-06-24T09:36:12Z</time>
      </trkpt>
      <trkpt lat="44.773100" lon="-0.655620">
        <time>2017-06-24T09:36:13Z</time>
      </trkpt>
      <trkpt lat="44.773180" lon="-0.655410">
        <time>2017-06-24T09:36:14Z</time>
      </trkpt>
      <trkpt lat="44.773270" lon="-0.655180">
        <time>2017-06-24T09:36:15Z</time>
      </trkpt>
      <trkpt lat="44.773350" lon="-0.654990">
        <time>2017-06-24T09:36:16Z</time>
      </trkpt>
      <trkpt lat="44.773440" lon="-0.654780">
        <time>2017-06-24T09:36:17Z</time>
      </trkpt>
      <trkpt lat="44.773530" lon="-0.654580">
        <time>2017-06-24T09:36:18Z</time>
      </trkpt>
      <trkpt lat="44.773610" lon="-0.654390">
        <time>2017-06-24T09:36:19Z</time>
      </trkpt>
      <trkpt lat="44.773700" lon="-0.654180">
        <time>2017-06-24T09:36:20Z</time>
      </trkpt>
      <trkpt lat="44.773780" lon="-0.654000">
        <time>2017-06-24T09:36:21Z</time>
      </trkpt>
      <trkpt lat="44.773850" lon="-0.653820">
        <time>2017-06-24T09:36:22Z</time>
      </trkpt>
      <trkpt lat="44.773940" lon="-0.653630">
        <time>2017-06-24T09:36:23Z</time>
      </trkpt>
      <trkpt lat="44.774020" lon="-0.653450">
        <time>2017-06-24T09:36:24Z</time>
      </trkpt>
      <trkpt lat="44.774100" lon="-0.653250">
        <time>2017-06-24T09:36:25Z</time>
      </trkpt>
      <trkpt lat="44.774190" lon="-0.653030">
        <time>2017-06-24T09:36:26Z</time>
      </trkpt>
      <trkpt lat="44.774280" lon="-0.652850">
        <time>2017-06-24T09:36:27Z</time>
      </trkpt>
      <trkpt lat="44.774370" lon="-0.652630">
        <time>2017-06-24T09:36:28Z</time>
      </trkpt>
      <trkpt lat="44.774450" lon="-0.652430">
        <time>2017-06-24T09:36:29Z</time>
      </trkpt>
      <trkpt lat="44.774540" lon="-0.652220">
        <time>2017-06-24T09:36:30Z</time>
      </trkpt>
      <trkpt lat="44.774640" lon="-0.652000">
        <time>2017-06-24T09:36:31Z</time>
      </trkpt>
      <trkpt lat="44.774720" lon="-0.651800">
        <time>2017-06-24T09:36:32Z</time>
      </trkpt>
      <trkpt lat="44.774810" lon="-0.651590">
        <time>2017-06-24T09:36:33Z</time>
      </trkpt>
      <trkpt lat="44.774900" lon="-0.651390">
        <time>2017-06-24T09:36:34Z</time>
      </trkpt>
      <trkpt lat="44.774990" lon="-0.651170">
        <time>2017-06-24T09:36:35Z</time>
      </trkpt>
      <trkpt lat="44.775090" lon="-0.650950">
        <time>2017-06-24T09:36:36Z</time>
      </trkpt>
      <trkpt lat="44.775180" lon="-0.650740">
        <time>2017-06-24T09:36:37Z</time>
      </trkpt>
      <trkpt lat="44.775270" lon="-0.650520">
        <time>2017-06-24T09:36:38Z</time>
      </trkpt>
      <trkpt lat="44.775370" lon="-0.650290">
        <time>2017-06-24T09:36:39Z</time>
      </trkpt>
      <trkpt lat="44.775460" lon="-0.650080">
        <time>2017-06-24T09:36:40Z</time>
      </trkpt>
      <trkpt lat="44.775560" lon="-0.649860">
        <time>2017-06-24T09:36:41Z</time>
      </trkpt>
      <trkpt lat="44.775650" lon="-0.649620">
        <time>2017-06-24T09:36:42Z</time>
      </trkpt>
      <trkpt lat="44.775740" lon="-0.649420">
        <time>2017-06-24T09:36:43Z</time>
      </trkpt>
      <trkpt lat="44.775840" lon="-0.649180">
        <time>2017-06-24T09:36:44Z</time>
      </trkpt>
      <trkpt lat="44.775930" lon="-0.648970">
        <time>2017-06-24T09:36:45Z</time>
      </trkpt>
      <trkpt lat="44.776030" lon="-0.648730">
        <time>2017-06-24T09:36:46Z</time>
      </trkpt>
      <trkpt lat="44.776130" lon="-0.648480">
        <time>2017-06-24T09:36:47Z</time>
      </trkpt>
      <trkpt lat="44.776230" lon="-0.648250">
        <time>2017-06-24T09:36:48Z</time>
      </trkpt>
      <trkpt lat="44.776340" lon="-0.648010">
        <time>2017-06-24T09:36:49Z</time>
      </trkpt>
      <trkpt lat="44.776440" lon="-0.647770">
        <time>2017-06-24T09:36:50Z</time>
      </trkpt>
      <trkpt lat="44.776540" lon="-0.647520">
        <time>2017-06-24T09:36:51Z</time>
      </trkpt>
      <trkpt lat="44.776650" lon="-0.647270">
        <time>2017-06-24T09:36:52Z</time>
      </trkpt>
      <trkpt lat="44.776750" lon="-0.647040">
        <time>2017-06-24T09:36:53Z</time>
      </trkpt>
      <trkpt lat="44.776860" lon="-0.646800">
        <time>2017-06-24T09:36:54Z</time>
      </trkpt>
      <trkpt lat="44.776970" lon="-0.646540">
        <time>2017-06-24T09:36:55Z</time>
      </trkpt>
      <trkpt lat="44.777060" lon="-0.646300">
        <time>2017-06-24T09:36:56Z</time>
      </trkpt>
      <trkpt lat="44.777170" lon="-0.646050">
        <time>2017-06-24T09:36:57Z</time>
      </trkpt>
      <trkpt lat="44.777280" lon="-0.645790">
        <time>2017-06-24T09:36:58Z</time>
      </trkpt>
      <trkpt lat="44.777370" lon="-0.645560">
        <time>2017-06-24T09:36:59Z</time>
      </trkpt>
      <trkpt lat="44.777490" lon="-0.645300">
        <time>2017-06-24T09:37:00Z</time>
      </trkpt>
      <trkpt lat="44.777590" lon="-0.645060">
        <time>2017-06-24T09:37:01Z</time>
      </trkpt>
      <trkpt lat="44.777700" lon="-0.644800">
        <time>2017-06-24T09:37:02Z</time>
      </trkpt>
      <trkpt lat="44.777820" lon="-0.644530">
        <time>2017-06-24T09:37:03Z</time>
      </trkpt>
      <trkpt lat="44.777930" lon="-0.644290">
        <time>2017-06-24T09:37:04Z</time>
      </trkpt>
      <trkpt lat="44.778050" lon="-0.644020">
        <time>2017-06-24T09:37:05Z</time>
      </trkpt>
      <trkpt lat="44.778160" lon="-0.643740">
        <time>2017-06-24T09:37:06Z</time>
      </trkpt>
      <trkpt lat="44.778270" lon="-0.643480">
        <time>2017-06-24T09:37:07Z</time>
      </trkpt>
      <trkpt lat="44.778400" lon="-0.643200">
        <time>2017-06-24T09:37:08Z</time>
      </trkpt>
      <trkpt lat="44.778500" lon="-0.642950">
        <time>2017-06-24T09:37:09Z</time>
      </trkpt>
      <trkpt lat="44.778620" lon="-0.642680">
        <time>2017-06-24T09:37:10Z</time>
      </trkpt>
      <trkpt lat="44.778730" lon="-0.642410">
        <time>2017-06-24T09:37:11Z</time>
      </trkpt>
      <trkpt lat="44.778840" lon="-0.642170">
        <time>2017-06-24T09:37:12Z</time>
      </trkpt>
      <trkpt lat="44.778960" lon="-0.641910">
        <time>2017-06-24T09:37:13Z</time>
      </trkpt>
      <trkpt lat="44.779070" lon="-0.641640">
        <time>2017-06-24T09:37:14Z</time>
      </trkpt>
      <trkpt lat="44.779180" lon="-0.641400">
        <time>2017-06-24T09:37:15Z</time>
      </trkpt>
      <trkpt lat="44.779290" lon="-0.641130">
        <time>2017-06-24T09:37:16Z</time>
      </trkpt>
      <trkpt lat="44.779390" lon="-0.640900">
        <time>2017-06-24T09:37:17Z</time>
      </trkpt>
      <trkpt lat="44.779500" lon="-0.640650">
        <time>2017-06-24T09:37:18Z</time>
      </trkpt>
      <trkpt lat="44.779620" lon="-0.640380">
        <time>2017-06-24T09:37:19Z</time>
      </trkpt>
      <trkpt lat="44.779730" lon="-0.640140">
        <time>2017-06-24T09:37:20Z</time>
      </trkpt>
      <trkpt lat="44.779830" lon="-0.639890">
        <time>2017-06-24T09:37:21Z</time>
      </trkpt>
      <trkpt lat="44.779940" lon="-0.639630">
        <time>2017-06-24T09:37:22Z</time>
      </trkpt>
      <trkpt lat="44.780050" lon="-0.639390">
        <time>2017-06-24T09:37:23Z</time>
      </trkpt>
      <trkpt lat="44.780160" lon="-0.639130">
        <time>2017-06-24T09:37:24Z</time>
      </trkpt>
      <trkpt lat="44.780260" lon="-0.638900">
        <time>2017-06-24T09:37:25Z</time>
      </trkpt>
      <trkpt lat="44.780360" lon="-0.638660">
        <time>2017-06-24T09:37:26Z</time>
      </trkpt>
      <trkpt lat="44.780470" lon="-0.638400">
        <time>2017-06-24T09:37:27Z</time>
      </trkpt>
      <trkpt lat="44.780570" lon="-0.638170">
        <time>2017-06-24T09:37:28Z</time>
      </trkpt>
      <trkpt lat="44.780680" lon="-0.637910">
        <time>2017-06-24T09:37:29Z</time>
      </trkpt>
      <trkpt lat="44.780790" lon="-0.637640">
        <time>2017-06-24T09:37:30Z</time>
      </trkpt>
      <trkpt lat="44.780900" lon="-0.637400">
        <time>2017-06-24T09:37:31Z</time>
      </trkpt>
      <trkpt lat="44.781010" lon="-0.637130">
        <time>2017-06-24T09:37:32Z</time>
      </trkpt>
      <trkpt lat="44.781120" lon="-0.636890">
        <time>2017-06-24T09:37:33Z</time>
      </trkpt>
      <trkpt lat="44.781240" lon="-0.636630">
        <time>2017-06-24T09:37:34Z</time>
      </trkpt>
      <trkpt lat="44.781350" lon="-0.636350">
        <time>2017-06-24T09:37:35Z</time>
      </trkpt>
      <trkpt lat="44.781460" lon="-0.636100">
        <time>2017-06-24T09:37:36Z</time>
      </trkpt>
      <trkpt lat="44.781560" lon="-0.635840">
        <time>2017-06-24T09:37:37Z</time>
      </trkpt>
      <trkpt lat="44.781670" lon="-0.635570">
        <time>2017-06-24T09:37:38Z</time>
      </trkpt>
      <trkpt lat="44.781780" lon="-0.635310">
        <time>2017-06-24T09:37:39Z</time>
      </trkpt>
      <trkpt lat="44.781900" lon="-0.635040">
        <time>2017-06-24T09:37:40Z</time>
      </trkpt>
      <trkpt lat="44.782000" lon="-0.634790">
        <time>2017-06-24T09:37:41Z</time>
      </trkpt>
      <trkpt lat="44.782120" lon="-0.634530">
        <time>2017-06-24T09:37:42Z</time>
      </trkpt>
      <trkpt lat="44.782240" lon="-0.634250">
        <time>2017-06-24T09:37:43Z</time>
      </trkpt>
      <trkpt lat="44.782340" lon="-0.634000">
        <time>2017-06-24T09:37:44Z</time>
      </trkpt>
      <trkpt lat="44.782450" lon="-0.633740">
        <time>2017-06-24T09:37:45Z</time>
      </trkpt>
      <trkpt lat="44.782580" lon="-0.633450">
        <time>2017-06-24T09:37:46Z</time>
      </trkpt>
      <trkpt lat="44.782690" lon="-0.633210">
        <time>2017-06-24T09:37:47Z</time>
      </trkpt>
      <trkpt lat="44.782810" lon="-0.632930">
        <time>2017-06-24T09:37:48Z</time>
      </trkpt>
      <trkpt lat="44.782930" lon="-0.632690">
        <time>2017-06-24T09:37:49Z</time>
      </trkpt>
      <trkpt lat="44.783050" lon="-0.632440">
        <time>2017-06-24T09:37:50Z</time>
      </trkpt>
      <trkpt lat="44.783180" lon="-0.632170">
        <time>2017-06-24T09:37:51Z</time>
      </trkpt>
      <trkpt lat="44.783290" lon="-0.631940">
        <time>2017-06-24T09:37:52Z</time>
      </trkpt>
      <trkpt lat="44.783420" lon="-0.631680">
        <time>2017-06-24T09:37:53Z</time>
      </trkpt>
      <trkpt lat="44.783540" lon="-0.631430">
        <time>2017-06-24T09:37:54Z</time>
      </trkpt>
      <trkpt lat="44.783670" lon="-0.631180">
        <time>2017-06-24T09:37:55Z</time>
      </trkpt>
      <trkpt lat="44.783800" lon="-0.630920">
        <time>2017-06-24T09:37:56Z</time>
      </trkpt>
      <trkpt lat="44.783930" lon="-0.630690">
        <time>2017-06-24T09:37:57Z</time>
      </trkpt>
      <trkpt lat="44.784070" lon="-0.630450">
        <time>2017-06-24T09:37:58Z</time>
      </trkpt>
      <trkpt lat="44.784210" lon="-0.630210">
        <time>2017-06-24T09:37:59Z</time>
      </trkpt>
      <trkpt lat="44.784350" lon="-0.630000">
        <time>2017-06-24T09:38:00Z</time>
      </trkpt>
      <trkpt lat="44.784500" lon="-0.629780">
        <time>2017-06-24T09:38:01Z</time>
      </trkpt>
      <trkpt lat="44.784650" lon="-0.629550">
        <time>2017-06-24T09:38:02Z</time>
      </trkpt>
      <trkpt lat="44.784790" lon="-0.629340">
        <time>2017-06-24T09:38:03Z</time>
      </trkpt>
      <trkpt lat="44.784950" lon="-0.629110">
        <time>2017-06-24T09:38:04Z</time>
      </trkpt>
      <trkpt lat="44.785090" lon="-0.628910">
        <time>2017-06-24T09:38:05Z</time>
      </trkpt>
      <trkpt lat="44.785240" lon="-0.628690">
        <time>2017-06-24T09:38:06Z</time>
      </trkpt>
      <trkpt lat="44.785390" lon="-0.628460">
        <time>2017-06-24T09:38:07Z</time>
      </trkpt>
      <trkpt lat="44.785520" lon="-0.628250">
        <time>2017-06-24T09:38:08Z</time>
      </trkpt>
      <trkpt lat="44.785660" lon="-0.628020">
        <time>2017-06-24T09:38:09Z</time>
      </trkpt>
      <trkpt lat="44.785800" lon="-0.627790">
        <time>2017-06-24T09:38:10Z</time>
      </trkpt>
      <trkpt lat="44.785930" lon="-0.627560">
        <time>2017-06-24T09:38:11Z</time>
      </trkpt>
      <trkpt lat="44.786060" lon="-0.627310">
        <time>2017-06-24T09:38:12Z</time>
      </trkpt>
      <trkpt lat="44.786170" lon="-0.627080">
        <time>2017-06-24T09:38:13Z</time>
      </trkpt>
      <trkpt lat="44.786290" lon="-0.626850">
        <time>2017-06-24T09:38:14Z</time>
      </trkpt>
      <trkpt lat="44.786410" lon="-0.626600">
        <time>2017-06-24T09:38:15Z</time>
      </trkpt>
      <trkpt lat="44.786510" lon="-0.626380">
        <time>2017-06-24T09:38:16Z</time>
      </trkpt>
      <trkpt lat="44.786610" lon="-0.626150">
        <time>2017-06-24T09:38:17Z</time>
      </trkpt>
      <trkpt lat="44.786720" lon="-0.625900">
        <time>2017-06-24T09:38:18Z</time>
      </trkpt>
      <trkpt lat="44.786810" lon="-0.625690">
        <time>2017-06-24T09:38:19Z</time>
      </trkpt>
      <trkpt lat="44.786910" lon="-0.625450">
        <time>2017-06-24T09:38:20Z</time>
      </trkpt>
      <trkpt lat="44.786990" lon="-0.625240">
        <time>2017-06-24T09:38:21Z</time>
      </trkpt>
      <trkpt lat="44.787090" lon="-0.625020">
        <time>2017-06-24T09:38:22Z</time>
      </trkpt>
      <trkpt lat="44.787190" lon="-0.624800">
        <time>2017-06-24T09:38:23Z</time>
      </trkpt>
      <trkpt lat="44.787290" lon="-0.624600">
        <time>2017-06-24T09:38:24Z</time>
      </trkpt>
      <trkpt lat="44.787390" lon="-0.624390">
        <time>2017-06-24T09:38:25Z</time>
      </trkpt>
      <trkpt lat="44.787500" lon="-0.624200">
        <time>2017-06-24T09:38:26Z</time>
      </trkpt>
      <trkpt lat="44.787610" lon="-0.624010">
        <time>2017-06-24T09:38:27Z</time>
      </trkpt>
      <trkpt lat="44.787720" lon="-0.623810">
        <time>2017-06-24T09:38:28Z</time>
      </trkpt>
      <trkpt lat="44.787830" lon="-0.623640">
        <time>2017-06-24T09:38:29Z</time>
      </trkpt>
      <trkpt lat="44.787950" lon="-0.623480">
        <time>2017-06-24T09:38:30Z</time>
      </trkpt>
      <trkpt lat="44.788080" lon="-0.623330">
        <time>2017-06-24T09:38:31Z</time>
      </trkpt>
      <trkpt lat="44.788200" lon="-0.623230">
        <time>2017-06-24T09:38:32Z</time>
      </trkpt>
      <trkpt lat="44.788340" lon="-0.623140">
        <time>2017-06-24T09:38:33Z</time>
      </trkpt>
      <trkpt lat="44.788500" lon="-0.623080">
        <time>2017-06-24T09:38:34Z</time>
      </trkpt>
      <trkpt lat="44.788640" lon="-0.623060">
        <time>2017-06-24T09:38:35Z</time>
      </trkpt>
      <trkpt lat="44.788810" lon="-0.623060">
        <time>2017-06-24T09:38:36Z</time>
      </trkpt>
      <trkpt lat="44.788950" lon="-0.623090">
        <time>2017-06-24T09:38:37Z</time>
      </trkpt>
      <trkpt lat="44.789110" lon="-0.623150">
        <time>2017-06-24T09:38:38Z</time>
      </trkpt>
      <trkpt lat="44.789270" lon="-0.623240">
        <time>2017-06-24T09:38:39Z</time>
      </trkpt>
      <trkpt lat="44.789400" lon="-0.623340">
        <time>2017-06-24T09:38:40Z</time>
      </trkpt>
      <trkpt lat="44.789520" lon="-0.623480">
        <time>2017-06-24T09:38:41Z</time>
      </trkpt>
      <trkpt lat="44.789640" lon="-0.623630">
        <time>2017-06-24T09:38:42Z</time>
      </trkpt>
      <trkpt lat="44.789730" lon="-0.623810">
        <time>2017-06-24T09:38:43Z</time>
      </trkpt>
      <trkpt lat="44.789820" lon="-0.624020">
        <time>2017-06-24T09:38:44Z</time>
      </trkpt>
      <trkpt lat="44.789870" lon="-0.624210">
        <time>2017-06-24T09:38:45Z</time>
      </trkpt>
      <trkpt lat="44.789910" lon="-0.624430">
        <time>2017-06-24T09:38:46Z</time>
      </trkpt>
      <trkpt lat="44.789940" lon="-0.624690">
        <time>2017-06-24T09:38:47Z</time>
      </trkpt>
      <trkpt lat="44.789960" lon="-0.624910">
        <time>2017-06-24T09:38:48Z</time>
      </trkpt>
      <trkpt lat="44.789970" lon="-0.625140">
        <time>2017-06-24T09:38:49Z</time>
      </trkpt>
      <trkpt lat="44.789960" lon="-0.625400">
        <time>2017-06-24T09:38:50Z</time>
      </trkpt>
      <trkpt lat="44.789950" lon="-0.625610">
        <time>2017-06-24T09:38:51Z</time>
      </trkpt>
      <trkpt lat="44.789930" lon="-0.625850">
        <time>2017-06-24T09:38:52Z</time>
      </trkpt>
      <trkpt lat="44.789900" lon="-0.626070">
        <time>2017-06-24T09:38:53Z</time>
      </trkpt>
      <trkpt lat="44.789860" lon="-0.626300">
        <time>2017-06-24T09:38:54Z</time>
      </trkpt>
      <trkpt lat="44.789810" lon="-0.626540">
        <time>2017-06-24T09:38:55Z</time>
      </trkpt>
      <trkpt lat="44.789750" lon="-0.626750">
        <time>2017-06-24T09:38:56Z</time>
      </trkpt>
      <trkpt lat="44.789670" lon="-0.626960">
        <time>2017-06-24T09:38:57Z</time>
      </trkpt>
      <trkpt lat="44.789590" lon="-0.627180">
        <time>2017-06-24T09:38:58Z</time>
      </trkpt>
      <trkpt lat="44.789520" lon="-0.627390">
        <time>2017-06-24T09:38:59Z</time>
      </trkpt>
      <trkpt lat="44.789420" lon="-0.627610">
        <time>2017-06-24T09:39:00Z</time>
      </trkpt>
      <trkpt lat="44.789340" lon="-0.627800">
        <time>2017-06-24T09:39:01Z</time>
      </trkpt>
      <trkpt lat="44.789240" lon="-0.628000">
        <time>2017-06-24T09:39:02Z</time>
      </trkpt>
      <trkpt lat="44.789140" lon="-0.628220">
        <time>2017-06-24T09:39:03Z</time>
      </trkpt>
      <trkpt lat="44.789040" lon="-0.628410">
        <time>2017-06-24T09:39:04Z</time>
      </trkpt>
      <trkpt lat="44.788940" lon="-0.628620">
        <time>2017-06-24T09:39:05Z</time>
      </trkpt>
      <trkpt lat="44.788840" lon="-0.628850">
        <time>2017-06-24T09:39:06Z</time>
      </trkpt>
      <trkpt lat="44.788760" lon="-0.629060">
        <time>2017-06-24T09:39:07Z</time>
      </trkpt>
      <trkpt lat="44.788680" lon="-0.629310">
        <time>2017-06-24T09:39:08Z</time>
      </trkpt>
      <trkpt lat="44.788630" lon="-0.629540">
        <time>2017-06-24T09:39:09Z</time>
      </trkpt>
      <trkpt lat="44.788580" lon="-0.629780">
        <time>2017-06-24T09:39:10Z</time>
      </trkpt>
      <trkpt lat="44.788540" lon="-0.630040">
        <time>2017-06-24T09:39:11Z</time>
      </trkpt>
      <trkpt lat="44.788510" lon="-0.630290">
        <time>2017-06-24T09:39:12Z</time>
      </trkpt>
      <trkpt lat="44.788480" lon="-0.630550">
        <time>2017-06-24T09:39:13Z</time>
      </trkpt>
      <trkpt lat="44.788450" lon="-0.630810">
        <time>2017-06-24T09:39:14Z</time>
      </trkpt>
      <trkpt lat="44.788420" lon="-0.631090">
        <time>2017-06-24T09:39:15Z</time>
      </trkpt>
      <trkpt lat="44.788380" lon="-0.631380">
        <time>2017-06-24T09:39:16Z</time>
      </trkpt>
      <trkpt lat="44.788350" lon="-0.631640">
        <time>2017-06-24T09:39:17Z</time>
      </trkpt>
      <trkpt lat="44.788320" lon="-0.631920">
        <time>2017-06-24T09:39:18Z</time>
      </trkpt>
      <trkpt lat="44.788290" lon="-0.632220">
        <time>2017-06-24T09:39:19Z</time>
      </trkpt>
      <trkpt lat="44.788260" lon="-0.632480">
        <time>2017-06-24T09:39:20Z</time>
      </trkpt>
      <trkpt lat="44.788220" lon="-0.632750">
        <time>2017-06-24T09:39:21Z</time>
      </trkpt>
      <trkpt lat="44.788190" lon="-0.633050">
        <time>2017-06-24T09:39:22Z</time>
      </trkpt>
      <trkpt lat="44.788160" lon="-0.633300">
        <time>2017-06-24T09:39:23Z</time>
      </trkpt>
      <trkpt lat="44.788130" lon="-0.633580">
        <time>2017-06-24T09:39:24Z</time>
      </trkpt>
      <trkpt lat="44.788100" lon="-0.633830">
        <time>2017-06-24T09:39:25Z</time>
      </trkpt>
      <trkpt lat="44.788080" lon="-0.634090">
        <time>2017-06-24T09:39:26Z</time>
      </trkpt>
      <trkpt lat="44.788050" lon="-0.634360">
        <time>2017-06-24T09:39:27Z</time>
      </trkpt>
      <trkpt lat="44.788020" lon="-0.634600">
        <time>2017-06-24T09:39:28Z</time>
      </trkpt>
      <trkpt lat="44.788000" lon="-0.634840">
        <time>2017-06-24T09:39:29Z</time>
      </trkpt>
      <trkpt lat="44.787980" lon="-0.635090">
        <time>2017-06-24T09:39:30Z</time>
      </trkpt>
      <trkpt lat="44.787950" lon="-0.635340">
        <time>2017-06-24T09:39:31Z</time>
      </trkpt>
      <trkpt lat="44.787930" lon="-0.635610">
        <time>2017-06-24T09:39:32Z</time>
      </trkpt>
      <trkpt lat="44.787910" lon="-0.635850">
        <time>2017-06-24T09:39:33Z</time>
      </trkpt>
      <trkpt lat="44.787890" lon="-0.636120">
        <time>2017-06-24T09:39:34Z</time>
      </trkpt>
      <trkpt lat="44.787870" lon="-0.636400">
        <time>2017-06-24T09:39:35Z</time>
      </trkpt>
      <trkpt lat="44.787850" lon="-0.636660">
        <time>2017-06-24T09:39:36Z</time>
      </trkpt>
      <trkpt lat="44.787830" lon="-0.636950">
        <time>2017-06-24T09:39:37Z</time>
      </trkpt>
      <trkpt lat="44.787810" lon="-0.637270">
        <time>2017-06-24T09:39:38Z</time>
      </trkpt>
      <trkpt lat="44.787800" lon="-0.637560">
        <time>2017-06-24T09:39:39Z</time>
      </trkpt>
      <trkpt lat="44.787800" lon="-0.637880">
        <time>2017-06-24T09:39:40Z</time>
      </trkpt>
      <trkpt lat="44.787810" lon="-0.638160">
        <time>2017-06-24T09:39:41Z</time>
      </trkpt>
      <trkpt lat="44.787820" lon="-0.638460">
        <time>2017-06-24T09:39:42Z</time>
      </trkpt>
      <trkpt lat="44.787840" lon="-0.638780">
        <time>2017-06-24T09:39:43Z</time>
      </trkpt>
      <trkpt lat="44.787860" lon="-0.639060">
        <time>2017-06-24T09:39:44Z</time>
      </trkpt>
      <trkpt lat="44.787890" lon="-0.639370">
        <time>2017-06-24T09:39:45Z</time>
      </trkpt>
      <trkpt lat="44.787920" lon="-0.639660">
        <time>2017-06-24T09:39:46Z</time>
      </trkpt>
      <trkpt lat="44.787950" lon="-0.639960">
        <time>2017-06-24T09:39:47Z</time>
      </trkpt>
      <trkpt lat="44.787990" lon="-0.640260">
        <time>2017-06-24T09:39:48Z</time>
      </trkpt>
      <trkpt lat="44.788040" lon="-0.640530">
        <time>2017-06-24T09:39:49Z</time>
      </trkpt>
      <trkpt lat="44.788090" lon="-0.640810">
        <time>2017-06-24T09:39:50Z</time>
      </trkpt>
      <trkpt lat="44.788150" lon="-0.641120">
        <time>2017-06-24T09:39:51Z</time>
      </trkpt>
      <trkpt lat="44.788200" lon="-0.641380">
        <time>2017-06-24T09:39:52Z</time>
      </trkpt>
      <trkpt lat="44.788270" lon="-0.641650">
        <time>2017-06-24T09:39:53Z</time>
      </trkpt>
      <trkpt lat="44.788340" lon="-0.641950">
        <time>2017-06-24T09:39:54Z</time>
      </trkpt>
      <trkpt lat="44.788410" lon="-0.642200">
        <time>2017-06-24T09:39:55Z</time>
      </trkpt>
      <trkpt lat="44.788490" lon="-0.642480">
        <time>2017-06-24T09:39:56Z</time>
      </trkpt>
      <trkpt lat="44.788570" lon="-0.642730">
        <time>2017-06-24T09:39:57Z</time>
      </trkpt>
      <trkpt lat="44.788650" lon="-0.642990">
        <time>2017-06-24T09:39:58Z</time>
      </trkpt>
      <trkpt lat="44.788740" lon="-0.643260">
        <time>2017-06-24T09:39:59Z</time>
      </trkpt>
      <trkpt lat="44.788830" lon="-0.643500">
        <time>2017-06-24T09:40:00Z</time>
      </trkpt>
      <trkpt lat="44.788930" lon="-0.643750">
        <time>2017-06-24T09:40:01Z</time>
      </trkpt>
      <trkpt lat="44.789030" lon="-0.644000">
        <time>2017-06-24T09:40:02Z</time>
      </trkpt>
      <trkpt lat="44.789140" lon="-0.644260">
        <time>2017-06-24T09:40:03Z</time>
      </trkpt>
      <trkpt lat="44.789260" lon="-0.644520">
        <time>2017-06-24T09:40:04Z</time>
      </trkpt>
      <trkpt lat="44.789370" lon="-0.644750">
        <time>2017-06-24T09:40:05Z</time>
      </trkpt>
      <trkpt lat="44.789490" lon="-0.645000">
        <time>2017-06-24T09:40:06Z</time>
      </trkpt>
      <trkpt lat="44.789630" lon="-0.645250">
        <time>2017-06-24T09:40:07Z</time>
      </trkpt>
      <trkpt lat="44.789750" lon="-0.645470">
        <time>2017-06-24T09:40:08Z</time>
      </trkpt>
      <trkpt lat="44.789890" lon="-0.645710">
        <time>2017-06-24T09:40:09Z</time>
      </trkpt>
      <trkpt lat="44.790040" lon="-0.645960">
        <time>2017-06-24T09:40:10Z</time>
      </trkpt>
      <trkpt lat="44.790170" lon="-0.646180">
        <time>2017-06-24T09:40:11Z</time>
      </trkpt>
      <trkpt lat="44.790330" lon="-0.646410">
        <time>2017-06-24T09:40:12Z</time>
      </trkpt>
      <trkpt lat="44.790480" lon="-0.646620">
        <time>2017-06-24T09:40:13Z</time>
      </trkpt>
      <trkpt lat="44.790630" lon="-0.646830">
        <time>2017-06-24T09:40:14Z</time>
      </trkpt>
      <trkpt lat="44.790800" lon="-0.647050">
        <time>2017-06-24T09:40:15Z</time>
      </trkpt>
      <trkpt lat="44.790950" lon="-0.647230">
        <time>2017-06-24T09:40:16Z</time>
      </trkpt>
      <trkpt lat="44.791120" lon="-0.647430">
        <time>2017-06-24T09:40:17Z</time>
      </trkpt>
      <trkpt lat="44.791290" lon="-0.647620">
        <time>2017-06-24T09:40:18Z</time>
      </trkpt>
      <trkpt lat="44.791470" lon="-0.647800">
        <time>2017-06-24T09:40:19Z</time>
      </trkpt>
      <trkpt lat="44.791660" lon="-0.647990">
        <time>2017-06-24T09:40:20Z</time>
      </trkpt>
      <trkpt lat="44.791830" lon="-0.648150">
        <time>2017-06-24T09:40:21Z</time>
      </trkpt>
      <trkpt lat="44.792010" lon="-0.648320">
        <time>2017-06-24T09:40:22Z</time>
      </trkpt>
      <trkpt lat="44.792200" lon="-0.648490">
        <time>2017-06-24T09:40:23Z</time>
      </trkpt>
      <trkpt lat="44.792370" lon="-0.648630">
        <time>2017-06-24T09:40:24Z</time>
      </trkpt>
      <trkpt lat="44.792550" lon="-0.648780">
        <time>2017-06-24T09:40:25Z</time>
      </trkpt>
      <trkpt lat="44.792750" lon="-0.648950">
        <time>2017-06-24T09:40:26Z</time>
      </trkpt>
      <trkpt lat="44.792920" lon="-0.649090">
        <time>2017-06-24T09:40:27Z</time>
      </trkpt>
      <trkpt lat="44.793130" lon="-0.649250">
        <time>2017-06-24T09:40:28Z</time>
      </trkpt>
      <trkpt lat="44.793310" lon="-0.649390">
        <time>2017-06-24T09:40:29Z</time>
      </trkpt>
      <trkpt lat="44.793500" lon="-0.649530">
        <time>2017-06-24T09:40:30Z</time>
      </trkpt>
      <trkpt lat="44.793690" lon="-0.649680">
        <time>2017-06-24T09:40:31Z</time>
      </trkpt>
      <trkpt lat="44.793860" lon="-0.649810">
        <time>2017-06-24T09:40:32Z</time>
      </trkpt>
      <trkpt lat="44.794040" lon="-0.649950">
        <time>2017-06-24T09:40:33Z</time>
      </trkpt>
      <trkpt lat="44.794210" lon="-0.650090">
        <time>2017-06-24T09:40:34Z</time>
      </trkpt>
      <trkpt lat="44.794390" lon="-0.650230">
        <time>2017-06-24T09:40:35Z</time>
      </trkpt>
      <trkpt lat="44.794590" lon="-0.650380">
        <time>2017-06-24T09:40:36Z</time>
      </trkpt>
      <trkpt lat="44.794770" lon="-0.650510">
        <time>2017-06-24T09:40:37Z</time>
      </trkpt>
      <trkpt lat="44.794950" lon="-0.650660">
        <time>2017-06-24T09:40:38Z</time>
      </trkpt>
      <trkpt lat="44.795160" lon="-0.650820">
        <time>2017-06-24T09:40:39Z</time>
      </trkpt>
      <trkpt lat="44.795340" lon="-0.650960">
        <time>2017-06-24T09:40:40Z</time>
      </trkpt>
      <trkpt lat="44.795530" lon="-0.651110">
        <time>2017-06-24T09:40:41Z</time>
      </trkpt>
      <trkpt lat="44.795730" lon="-0.651270">
        <time>2017-06-24T09:40:42Z</time>
      </trkpt>
      <trkpt lat="44.795920" lon="-0.651420">
        <time>2017-06-24T09:40:43Z</time>
      </trkpt>
      <trkpt lat="44.796130" lon="-0.651580">
        <time>2017-06-24T09:40:44Z</time>
      </trkpt>
      <trkpt lat="44.796300" lon="-0.651720">
        <time>2017-06-24T09:40:45Z</time>
      </trkpt>
      <trkpt lat="44.796500" lon="-0.651880">
        <time>2017-06-24T09:40:46Z</time>
      </trkpt>
      <trkpt lat="44.796700" lon="-0.652030">
        <time>2017-06-24T09:40:47Z</time>
      </trkpt>
      <trkpt lat="44.796870" lon="-0.652170">
        <time>2017-06-24T09:40:48Z</time>
      </trkpt>
      <trkpt lat="44.797060" lon="-0.652320">
        <time>2017-06-24T09:40:49Z</time>
      </trkpt>
      <trkpt lat="44.797250" lon="-0.652480">
        <time>2017-06-24T09:40:50Z</time>
      </trkpt>
      <trkpt lat="44.797440" lon="-0.652620">
        <time>2017-06-24T09:40:51Z</time>
      </trkpt>
      <trkpt lat="44.797640" lon="-0.652790">
        <time>2017-06-24T09:40:52Z</time>
      </trkpt>
      <trkpt lat="44.797820" lon="-0.652930">
        <time>2017-06-24T09:40:53Z</time>
      </trkpt>
      <trkpt lat="44.798020" lon="-0.653080">
        <time>2017-06-24T09:40:54Z</time>
      </trkpt>
      <trkpt lat="44.798220" lon="-0.653250">
        <time>2017-06-24T09:40:55Z</time>
      </trkpt>
      <trkpt lat="44.798390" lon="-0.653400">
        <time>2017-06-24T09:40:56Z</time>
      </trkpt>
      <trkpt lat="44.798580" lon="-0.653580">
        <time>2017-06-24T09:40:57Z</time>
      </trkpt>
      <trkpt lat="44.798770" lon="-0.653760">
        <time>2017-06-24T09:40:58Z</time>
      </trkpt>
      <trkpt lat="44.798940" lon="-0.653930">
        <time>2017-06-24T09:40:59Z</time>
      </trkpt>
      <trkpt lat="44.799130" lon="-0.654120">
        <time>2017-06-24T09:41:00Z</time>
      </trkpt>
      <trkpt lat="44.799290" lon="-0.654300">
        <time>2017-06-24T09:41:01Z</time>
      </trkpt>
      <trkpt lat="44.799450" lon="-0.654490">
        <time>2017-06-24T09:41:02Z</time>
      </trkpt>
      <trkpt lat="44.799630" lon="-0.654700">
        <time>2017-06-24T09:41:03Z</time>
      </trkpt>
      <trkpt lat="44.799780" lon="-0.654890">
        <time>2017-06-24T09:41:04Z</time>
      </trkpt>
      <trkpt lat="44.799930" lon="-0.655100">
        <time>2017-06-24T09:41:05Z</time>
      </trkpt>
      <trkpt lat="44.800090" lon="-0.655310">
        <time>2017-06-24T09:41:06Z</time>
      </trkpt>
      <trkpt lat="44.800240" lon="-0.655530">
        <time>2017-06-24T09:41:07Z</time>
      </trkpt>
      <trkpt lat="44.800400" lon="-0.655770">
        <time>2017-06-24T09:41:08Z</time>
      </trkpt>
      <trkpt lat="44.800530" lon="-0.655980">
        <time>2017-06-24T09:41:09Z</time>
      </trkpt>
      <trkpt lat="44.800670" lon="-0.656220">
        <time>2017-06-24T09:41:10Z</time>
      </trkpt>
      <trkpt lat="44.800820" lon="-0.656460">
        <time>2017-06-24T09:41:11Z</time>
      </trkpt>
      <trkpt lat="44.800940" lon="-0.656680">
        <time>2017-06-24T09:41:12Z</time>
      </trkpt>
      <trkpt lat="44.801070" lon="-0.656910">
        <time>2017-06-24T09:41:13Z</time>
      </trkpt>
      <trkpt lat="44.801220" lon="-0.657150">
        <time>2017-06-24T09:41:14Z</time>
      </trkpt>
      <trkpt lat="44.801340" lon="-0.657360">
        <time>2017-06-24T09:41:15Z</time>
      </trkpt>
      <trkpt lat="44.801490" lon="-0.657600">
        <time>2017-06-24T09:41:16Z</time>
      </trkpt>
      <trkpt lat="44.801620" lon="-0.657820">
        <time>2017-06-24T09:41:17Z</time>
      </trkpt>
      <trkpt lat="44.801760" lon="-0.658040">
        <time>2017-06-24T09:41:18Z</time>
      </trkpt>
      <trkpt lat="44.801900" lon="-0.658280">
        <time>2017-06-24T09:41:19Z</time>
      </trkpt>
      <trkpt lat="44.802030" lon="-0.658500">
        <time>2017-06-24T09:41:20Z</time>
      </trkpt>
      <trkpt lat="44.802170" lon="-0.658730">
        <time>2017-06-24T09:41:21Z</time>
      </trkpt>
      <trkpt lat="44.802320" lon="-0.658970">
        <time>2017-06-24T09:41:22Z</time>
      </trkpt>
      <trkpt lat="44.802460" lon="-0.659200">
        <time>2017-06-24T09:41:23Z</time>
      </trkpt>
      <trkpt lat="44.802610" lon="-0.659450">
        <time>2017-06-24T09:41:24Z</time>
      </trkpt>
      <trkpt lat="44.802740" lon="-0.659660">
        <time>2017-06-24T09:41:25Z</time>
      </trkpt>
      <trkpt lat="44.802880" lon="-0.659900">
        <time>2017-06-24T09:41:26Z</time>
      </trkpt>
      <trkpt lat="44.803030" lon="-0.660150">
        <time>2017-06-24T09:41:27Z</time>
      </trkpt>
      <trkpt lat="44.803160" lon="-0.660370">
        <time>2017-06-24T09:41:28Z</time>
      </trkpt>
      <trkpt lat="44.803300" lon="-0.660610">
        <time>2017-06-24T09:41:29Z</time>
      </trkpt>
      <trkpt lat="44.803450" lon="-0.660860">
        <time>2017-06-24T09:41:30Z</time>
      </trkpt>
      <trkpt lat="44.803580" lon="-0.661080">
        <time>2017-06-24T09:41:31Z</time>
      </trkpt>
      <trkpt lat="44.803730" lon="-0.661320">
        <time>2017-06-24T09:41:32Z</time>
      </trkpt>
      <trkpt lat="44.803860" lon="-0.661540">
        <time>2017-06-24T09:41:33Z</time>
      </trkpt>
      <trkpt lat="44.804000" lon="-0.661780">
        <time>2017-06-24T09:41:34Z</time>
      </trkpt>
      <trkpt lat="44.804150" lon="-0.662020">
        <time>2017-06-24T09:41:35Z</time>
      </trkpt>
      <trkpt lat="44.804270" lon="-0.662240">
        <time>2017-06-24T09:41:36Z</time>
      </trkpt>
      <trkpt lat="44.804410" lon="-0.662480">
        <time>2017-06-24T09:41:37Z</time>
      </trkpt>
      <trkpt lat="44.804540" lon="-0.662710">
        <time>2017-06-24T09:41:38Z</time>
      </trkpt>
      <trkpt lat="44.804680" lon="-0.662940">
        <time>2017-06-24T09:41:39Z</time>
      </trkpt>
      <trkpt lat="44.804840" lon="-0.663180">
        <time>2017-06-24T09:41:40Z</time>
      </trkpt>
      <trkpt lat="44.804970" lon="-0.663390">
        <time>2017-06-24T09:41:41Z</time>
      </trkpt>
      <trkpt lat="44.805110" lon="-0.663630">
        <time>2017-06-24T09:41:42Z</time>
      </trkpt>
      <trkpt lat="44.805250" lon="-0.663870">
        <time>2017-06-24T09:41:43Z</time>
      </trkpt>
      <trkpt lat="44.805380" lon="-0.664090">
        <time>2017-06-24T09:41:44Z</time>
      </trkpt>
      <trkpt lat="44.805520" lon="-0.664320">
        <time>2017-06-24T09:41:45Z</time>
      </trkpt>
      <trkpt lat="44.805660" lon="-0.664560">
        <time>2017-06-24T09:41:46Z</time>
      </trkpt>
      <trkpt lat="44.805790" lon="-0.664780">
        <time>2017-06-24T09:41:47Z</time>
      </trkpt>
      <trkpt lat="44.805940" lon="-0.665030">
        <time>2017-06-24T09:41:48Z</time>
      </trkpt>
      <trkpt lat="44.806070" lon="-0.665240">
        <time>2017-06-24T09:41:49Z</time>
      </trkpt>
      <trkpt lat="44.806210" lon="-0.665480">
        <time>2017-06-24T09:41:50Z</time>
      </trkpt>
      <trkpt lat="44.806370" lon="-0.665730">
        <time>2017-06-24T09:41:51Z</time>
      </trkpt>
      <trkpt lat="44.806500" lon="-0.665960">
        <time>2017-06-24T09:41:52Z</time>
      </trkpt>
      <trkpt lat="44.806640" lon="-0.666200">
        <time>2017-06-24T09:41:53Z</time>
      </trkpt>
      <trkpt lat="44.806780" lon="-0.666440">
        <time>2017-06-24T09:41:54Z</time>
      </trkpt>
      <trkpt lat="44.806920" lon="-0.666680">
        <time>2017-06-24T09:41:55Z</time>
      </trkpt>
      <trkpt lat="44.807080" lon="-0.666930">
        <time>2017-06-24T09:41:56Z</time>
      </trkpt>
      <trkpt lat="44.807210" lon="-0.667150">
        <time>2017-06-24T09:41:57Z</time>
      </trkpt>
      <trkpt lat="44.807350" lon="-0.667380">
        <time>2017-06-24T09:41:58Z</time>
      </trkpt>
      <trkpt lat="44.807500" lon="-0.667630">
        <time>2017-06-24T09:41:59Z</time>
      </trkpt>
      <trkpt lat="44.807640" lon="-0.667850">
        <time>2017-06-24T09:42:00Z</time>
      </trkpt>
      <trkpt lat="44.807780" lon="-0.668070">
        <time>2017-06-24T09:42:01Z</time>
      </trkpt>
      <trkpt lat="44.807940" lon="-0.668310">
        <time>2017-06-24T09:42:02Z</time>
      </trkpt>
      <trkpt lat="44.808080" lon="-0.668520">
        <time>2017-06-24T09:42:03Z</time>
      </trkpt>
      <trkpt lat="44.808250" lon="-0.668760">
        <time>2017-06-24T09:42:04Z</time>
      </trkpt>
      <trkpt lat="44.808400" lon="-0.668960">
        <time>2017-06-24T09:42:05Z</time>
      </trkpt>
      <trkpt lat="44.808550" lon="-0.669180">
        <time>2017-06-24T09:42:06Z</time>
      </trkpt>
      <trkpt lat="44.808720" lon="-0.669390">
        <time>2017-06-24T09:42:07Z</time>
      </trkpt>
      <trkpt lat="44.808870" lon="-0.669560">
        <time>2017-06-24T09:42:08Z</time>
      </trkpt>
      <trkpt lat="44.809040" lon="-0.669740">
        <time>2017-06-24T09:42:09Z</time>
      </trkpt>
      <trkpt lat="44.809210" lon="-0.669920">
        <time>2017-06-24T09:42:10Z</time>
      </trkpt>
      <trkpt lat="44.809390" lon="-0.670100">
        <time>2017-06-24T09:42:11Z</time>
      </trkpt>
      <trkpt lat="44.809580" lon="-0.670290">
        <time>2017-06-24T09:42:12Z</time>
      </trkpt>
      <trkpt lat="44.809750" lon="-0.670440">
        <time>2017-06-24T09:42:13Z</time>
      </trkpt>
      <trkpt lat="44.809930" lon="-0.670600">
        <time>2017-06-24T09:42:14Z</time>
      </trkpt>
      <trkpt lat="44.810130" lon="-0.670760">
        <time>2017-06-24T09:42:15Z</time>
      </trkpt>
      <trkpt lat="44.810310" lon="-0.670900">
        <time>2017-06-24T09:42:16Z</time>
      </trkpt>
      <trkpt lat="44.810510" lon="-0.671040">
        <time>2017-06-24T09:42:17Z</time>
      </trkpt>
      <trkpt lat="44.810720" lon="-0.671190">
        <time>2017-06-24T09:42:18Z</time>
      </trkpt>
      <trkpt lat="44.810910" lon="-0.671310">
        <time>2017-06-24T09:42:19Z</time>
      </trkpt>
      <trkpt lat="44.811120" lon="-0.671440">
        <time>2017-06-24T09:42:20Z</time>
      </trkpt>
      <trkpt lat="44.811310" lon="-0.671550">
        <time>2017-06-24T09:42:21Z</time>
      </trkpt>
      <trkpt lat="44.811510" lon="-0.671650">
        <time>2017-06-24T09:42:22Z</time>
      </trkpt>
      <trkpt lat="44.811740" lon="-0.671750">
        <time>2017-06-24T09:42:23Z</time>
      </trkpt>
      <trkpt lat="44.811930" lon="-0.671840">
        <time>2017-06-24T09:42:24Z</time>
      </trkpt>
      <trkpt lat="44.812140" lon="-0.671920">
        <time>2017-06-24T09:42:25Z</time>
      </trkpt>
      <trkpt lat="44.812350" lon="-0.672000">
        <time>2017-06-24T09:42:26Z</time>
      </trkpt>
      <trkpt lat="44.812570" lon="-0.672060">
        <time>2017-06-24T09:42:27Z</time>
      </trkpt>
      <trkpt lat="44.812790" lon="-0.672130">
        <time>2017-06-24T09:42:28Z</time>
      </trkpt>
      <trkpt lat="44.812990" lon="-0.672180">
        <time>2017-06-24T09:42:29Z</time>
      </trkpt>
      <trkpt lat="44.813200" lon="-0.672240">
        <time>2017-06-24T09:42:30Z</time>
      </trkpt>
      <trkpt lat="44.813420" lon="-0.672300">
        <time>2017-06-24T09:42:31Z</time>
      </trkpt>
      <trkpt lat="44.813620" lon="-0.672340">
        <time>2017-06-24T09:42:32Z</time>
      </trkpt>
      <trkpt lat="44.813830" lon="-0.672380">
        <time>2017-06-24T09:42:33Z</time>
      </trkpt>
      <trkpt lat="44.814060" lon="-0.672430">
        <time>2017-06-24T09:42:34Z</time>
      </trkpt>
      <trkpt lat="44.814250" lon="-0.672470">
        <time>2017-06-24T09:42:35Z</time>
      </trkpt>
      <trkpt lat="44.814470" lon="-0.672520">
        <time>2017-06-24T09:42:36Z</time>
      </trkpt>
      <trkpt lat="44.814660" lon="-0.672560">
        <time>2017-06-24T09:42:37Z</time>
      </trkpt>
      <trkpt lat="44.814870" lon="-0.672610">
        <time>2017-06-24T09:42:38Z</time>
      </trkpt>
      <trkpt lat="44.815090" lon="-0.672650">
        <time>2017-06-24T09:42:39Z</time>
      </trkpt>
      <trkpt lat="44.815280" lon="-0.672690">
        <time>2017-06-24T09:42:40Z</time>
      </trkpt>
      <trkpt lat="44.815500" lon="-0.672740">
        <time>2017-06-24T09:42:41Z</time>
      </trkpt>
      <trkpt lat="44.815710" lon="-0.672790">
        <time>2017-06-24T09:42:42Z</time>
      </trkpt>
      <trkpt lat="44.815930" lon="-0.672830">
        <time>2017-06-24T09:42:43Z</time>
      </trkpt>
      <trkpt lat="44.816160" lon="-0.672880">
        <time>2017-06-24T09:42:44Z</time>
      </trkpt>
      <trkpt lat="44.816360" lon="-0.672920">
        <time>2017-06-24T09:42:45Z</time>
      </trkpt>
      <trkpt lat="44.816570" lon="-0.672970">
        <time>2017-06-24T09:42:46Z</time>
      </trkpt>
      <trkpt lat="44.816800" lon="-0.673010">
        <time>2017-06-24T09:42:47Z</time>
      </trkpt>
      <trkpt lat="44.816990" lon="-0.673060">
        <time>2017-06-24T09:42:48Z</time>
      </trkpt>
      <trkpt lat="44.817210" lon="-0.673100">
        <time>2017-06-24T09:42:49Z</time>
      </trkpt>
      <trkpt lat="44.817440" lon="-0.673140">
        <time>2017-06-24T09:42:50Z</time>
      </trkpt>
      <trkpt lat="44.817640" lon="-0.673190">
        <time>2017-06-24T09:42:51Z</time>
      </trkpt>
      <trkpt lat="44.817870" lon="-0.673240">
        <time>2017-06-24T09:42:52Z</time>
      </trkpt>
      <trkpt lat="44.818070" lon="-0.673280">
        <time>2017-06-24T09:42:53Z</time>
      </trkpt>
      <trkpt lat="44.818290" lon="-0.673330">
        <time>2017-06-24T09:42:54Z</time>
      </trkpt>
      <trkpt lat="44.818520" lon="-0.673380">
        <time>2017-06-24T09:42:55Z</time>
      </trkpt>
      <trkpt lat="44.818720" lon="-0.673420">
        <time>2017-06-24T09:42:56Z</time>
      </trkpt>
      <trkpt lat="44.818940" lon="-0.673470">
        <time>2017-06-24T09:42:57Z</time>
      </trkpt>
      <trkpt lat="44.819160" lon="-0.673520">
        <time>2017-06-24T09:42:58Z</time>
      </trkpt>
      <trkpt lat="44.819380" lon="-0.673560">
        <time>2017-06-24T09:42:59Z</time>
      </trkpt>
      <trkpt lat="44.819610" lon="-0.673610">
        <time>2017-06-24T09:43:00Z</time>
      </trkpt>
      <trkpt lat="44.819810" lon="-0.673650">
        <time>2017-06-24T09:43:01Z</time>
      </trkpt>
      <trkpt lat="44.820030" lon="-0.673690">
        <time>2017-06-24T09:43:02Z</time>
      </trkpt>
      <trkpt lat="44.820250" lon="-0.673740">
        <time>2017-06-24T09:43:03Z</time>
      </trkpt>
      <trkpt lat="44.820450" lon="-0.673780">
        <time>2017-06-24T09:43:04Z</time>
      </trkpt>
      <trkpt lat="44.820660" lon="-0.673830">
        <time>2017-06-24T09:43:05Z</time>
      </trkpt>
      <trkpt lat="44.820880" lon="-0.673870">
        <time>2017-06-24T09:43:06Z</time>
      </trkpt>
      <trkpt lat="44.821080" lon="-0.673910">
        <time>2017-06-24T09:43:07Z</time>
      </trkpt>
      <trkpt lat="44.821300" lon="-0.673960">
        <time>2017-06-24T09:43:08Z</time>
      </trkpt>
      <trkpt lat="44.821500" lon="-0.674000">
        <time>2017-06-24T09:43:09Z</time>
      </trkpt>
      <trkpt lat="44.821680" lon="-0.674050">
        <time>2017-06-24T09:43:10Z</time>
      </trkpt>
      <trkpt lat="44.821880" lon="-0.674080">
        <time>2017-06-24T09:43:11Z</time>
      </trkpt>
      <trkpt lat="44.822060" lon="-0.674120">
        <time>2017-06-24T09:43:12Z</time>
      </trkpt>
      <trkpt lat="44.822240" lon="-0.674160">
        <time>2017-06-24T09:43:13Z</time>
      </trkpt>
      <trkpt lat="44.822430" lon="-0.674200">
        <time>2017-06-24T09:43:14Z</time>
      </trkpt>
      <trkpt lat="44.822620" lon="-0.674240">
        <time>2017-06-24T09:43:15Z</time>
      </trkpt>
      <trkpt lat="44.822830" lon="-0.674290">
        <time>2017-06-24T09:43:16Z</time>
      </trkpt>
      <trkpt lat="44.823010" lon="-0.674330">
        <time>2017-06-24T09:43:17Z</time>
      </trkpt>
      <trkpt lat="44.823210" lon="-0.674370">
        <time>2017-06-24T09:43:18Z</time>
      </trkpt>
      <trkpt lat="44.823420" lon="-0.674420">
        <time>2017-06-24T09:43:19Z</time>
      </trkpt>
      <trkpt lat="44.823620" lon="-0.674460">
        <time>2017-06-24T09:43:20Z</time>
      </trkpt>
      <trkpt lat="44.823840" lon="-0.674510">
        <time>2017-06-24T09:43:21Z</time>
      </trkpt>
      <trkpt lat="44.824060" lon="-0.674560">
        <time>2017-06-24T09:43:22Z</time>
      </trkpt>
      <trkpt lat="44.824260" lon="-0.674600">
        <time>2017-06-24T09:43:23Z</time>
      </trkpt>
      <trkpt lat="44.824490" lon="-0.674650">
        <time>2017-06-24T09:43:24Z</time>
      </trkpt>
      <trkpt lat="44.824690" lon="-0.674680">
        <time>2017-06-24T09:43:25Z</time>
      </trkpt>
      <trkpt lat="44.824910" lon="-0.674730">
        <time>2017-06-24T09:43:26Z</time>
      </trkpt>
      <trkpt lat="44.825140" lon="-0.674780">
        <time>2017-06-24T09:43:27Z</time>
      </trkpt>
      <trkpt lat="44.825350" lon="-0.674830">
        <time>2017-06-24T09:43:28Z</time>
      </trkpt>
      <trkpt lat="44.825570" lon="-0.674880">
        <time>2017-06-24T09:43:29Z</time>
      </trkpt>
      <trkpt lat="44.825790" lon="-0.674920">
        <time>2017-06-24T09:43:30Z</time>
      </trkpt>
      <trkpt lat="44.826010" lon="-0.674970">
        <time>2017-06-24T09:43:31Z</time>
      </trkpt>
      <trkpt lat="44.826250" lon="-0.675020">
        <time>2017-06-24T09:43:32Z</time>
      </trkpt>
      <trkpt lat="44.826450" lon="-0.675060">
        <time>2017-06-24T09:43:33Z</time>
      </trkpt>
      <trkpt lat="44.826670" lon="-0.675100">
        <time>2017-06-24T09:43:34Z</time>
      </trkpt>
      <trkpt lat="44.826910" lon="-0.675150">
        <time>2017-06-24T09:43:35Z</time>
      </trkpt>
      <trkpt lat="44.827110" lon="-0.675200">
        <time>2017-06-24T09:43:36Z</time>
      </trkpt>
      <trkpt lat="44.827330" lon="-0.675250">
        <time>2017-06-24T09:43:37Z</time>
      </trkpt>
      <trkpt lat="44.827570" lon="-0.675300">
        <time>2017-06-24T09:43:38Z</time>
      </trkpt>
      <trkpt lat="44.827770" lon="-0.675340">
        <time>2017-06-24T09:43:39Z</time>
      </trkpt>
      <trkpt lat="44.828000" lon="-0.675400">
        <time>2017-06-24T09:43:40Z</time>
      </trkpt>
      <trkpt lat="44.828210" lon="-0.675440">
        <time>2017-06-24T09:43:41Z</time>
      </trkpt>
      <trkpt lat="44.828430" lon="-0.675480">
        <time>2017-06-24T09:43:42Z</time>
      </trkpt>
      <trkpt lat="44.828670" lon="-0.675530">
        <time>2017-06-24T09:43:43Z</time>
      </trkpt>
      <trkpt lat="44.828880" lon="-0.675570">
        <time>2017-06-24T09:43:44Z</time>
      </trkpt>
      <trkpt lat="44.829100" lon="-0.675620">
        <time>2017-06-24T09:43:45Z</time>
      </trkpt>
      <trkpt lat="44.829330" lon="-0.675670">
        <time>2017-06-24T09:43:46Z</time>
      </trkpt>
      <trkpt lat="44.829550" lon="-0.675720">
        <time>2017-06-24T09:43:47Z</time>
      </trkpt>
      <trkpt lat="44.829790" lon="-0.675770">
        <time>2017-06-24T09:43:48Z</time>
      </trkpt>
      <trkpt lat="44.830010" lon="-0.675820">
        <time>2017-06-24T09:43:49Z</time>
      </trkpt>
      <trkpt lat="44.830230" lon="-0.675870">
        <time>2017-06-24T09:43:50Z</time>
      </trkpt>
      <trkpt lat="44.830470" lon="-0.675920">
        <time>2017-06-24T09:43:51Z</time>
      </trkpt>
      <trkpt lat="44.830680" lon="-0.675970">
        <time>2017-06-24T09:43:52Z</time>
      </trkpt>
      <trkpt lat="44.830900" lon="-0.676020">
        <time>2017-06-24T09:43:53Z</time>
      </trkpt>
      <trkpt lat="44.831130" lon="-0.676060">
        <time>2017-06-24T09:43:54Z</time>
      </trkpt>
      <trkpt lat="44.831340" lon="-0.676100">
        <time>2017-06-24T09:43:55Z</time>
      </trkpt>
      <trkpt lat="44.831570" lon="-0.676150">
        <time>2017-06-24T09:43:56Z</time>
      </trkpt>
      <trkpt lat="44.831780" lon="-0.676190">
        <time>2017-06-24T09:43:57Z</time>
      </trkpt>
      <trkpt lat="44.832010" lon="-0.676240">
        <time>2017-06-24T09:43:58Z</time>
      </trkpt>
      <trkpt lat="44.832240" lon="-0.676290">
        <time>2017-06-24T09:43:59Z</time>
      </trkpt>
      <trkpt lat="44.832460" lon="-0.676330">
        <time>2017-06-24T09:44:00Z</time>
      </trkpt>
      <trkpt lat="44.832690" lon="-0.676370">
        <time>2017-06-24T09:44:01Z</time>
      </trkpt>
      <trkpt lat="44.832920" lon="-0.676400">
        <time>2017-06-24T09:44:02Z</time>
      </trkpt>
      <trkpt lat="44.833140" lon="-0.676440">
        <time>2017-06-24T09:44:03Z</time>
      </trkpt>
      <trkpt lat="44.833390" lon="-0.676470">
        <time>2017-06-24T09:44:04Z</time>
      </trkpt>
      <trkpt lat="44.833600" lon="-0.676490">
        <time>2017-06-24T09:44:05Z</time>
      </trkpt>
      <trkpt lat="44.833820" lon="-0.676500">
        <time>2017-06-24T09:44:06Z</time>
      </trkpt>
      <trkpt lat="44.834060" lon="-0.676520">
        <time>2017-06-24T09:44:07Z</time>
      </trkpt>
      <trkpt lat="44.834270" lon="-0.676530">
        <time>2017-06-24T09:44:08Z</time>
      </trkpt>
      <trkpt lat="44.834500" lon="-0.676530">
        <time>2017-06-24T09:44:09Z</time>
      </trkpt>
      <trkpt lat="44.834740" lon="-0.676530">
        <time>2017-06-24T09:44:10Z</time>
      </trkpt>
      <trkpt lat="44.834960" lon="-0.676520">
        <time>2017-06-24T09:44:11Z</time>
      </trkpt>
      <trkpt lat="44.835200" lon="-0.676500">
        <time>2017-06-24T09:44:12Z</time>
      </trkpt>
      <trkpt lat="44.835410" lon="-0.676490">
        <time>2017-06-24T09:44:13Z</time>
      </trkpt>
      <trkpt lat="44.835640" lon="-0.676460">
        <time>2017-06-24T09:44:14Z</time>
      </trkpt>
      <trkpt lat="44.835880" lon="-0.676430">
        <time>2017-06-24T09:44:15Z</time>
      </trkpt>
      <trkpt lat="44.836090" lon="-0.676390">
        <time>2017-06-24T09:44:16Z</time>
      </trkpt>
      <trkpt lat="44.836310" lon="-0.676360">
        <time>2017-06-24T09:44:17Z</time>
      </trkpt>
      <trkpt lat="44.836530" lon="-0.676310">
        <time>2017-06-24T09:44:18Z</time>
      </trkpt>
      <trkpt lat="44.836760" lon="-0.676250">
        <time>2017-06-24T09:44:19Z</time>
      </trkpt>
      <trkpt lat="44.836990" lon="-0.676190">
        <time>2017-06-24T09:44:20Z</time>
      </trkpt>
      <trkpt lat="44.837200" lon="-0.676140">
        <time>2017-06-24T09:44:21Z</time>
      </trkpt>
      <trkpt lat="44.837410" lon="-0.676070">
        <time>2017-06-24T09:44:22Z</time>
      </trkpt>
      <trkpt lat="44.837640" lon="-0.675990">
        <time>2017-06-24T09:44:23Z</time>
      </trkpt>
      <trkpt lat="44.837840" lon="-0.675930">
        <time>2017-06-24T09:44:24Z</time>
      </trkpt>
      <trkpt lat="44.838060" lon="-0.675850">
        <time>2017-06-24T09:44:25Z</time>
      </trkpt>
      <trkpt lat="44.838280" lon="-0.675760">
        <time>2017-06-24T09:44:26Z</time>
      </trkpt>
      <trkpt lat="44.838490" lon="-0.675670">
        <time>2017-06-24T09:44:27Z</time>
      </trkpt>
      <trkpt lat="44.838710" lon="-0.675560">
        <time>2017-06-24T09:44:28Z</time>
      </trkpt>
      <trkpt lat="44.838910" lon="-0.675470">
        <time>2017-06-24T09:44:29Z</time>
      </trkpt>
      <trkpt lat="44.839130" lon="-0.675360">
        <time>2017-06-24T09:44:30Z</time>
      </trkpt>
      <trkpt lat="44.839350" lon="-0.675250">
        <time>2017-06-24T09:44:31Z</time>
      </trkpt>
      <trkpt lat="44.839540" lon="-0.675140">
        <time>2017-06-24T09:44:32Z</time>
      </trkpt>
      <trkpt lat="44.839750" lon="-0.675020">
        <time>2017-06-24T09:44:33Z</time>
      </trkpt>
      <trkpt lat="44.839950" lon="-0.674890">
        <time>2017-06-24T09:44:34Z</time>
      </trkpt>
      <trkpt lat="44.840150" lon="-0.674760">
        <time>2017-06-24T09:44:35Z</time>
      </trkpt>
      <trkpt lat="44.840360" lon="-0.674620">
        <time>2017-06-24T09:44:36Z</time>
      </trkpt>
      <trkpt lat="44.840550" lon="-0.674490">
        <time>2017-06-24T09:44:37Z</time>
      </trkpt>
      <trkpt lat="44.840740" lon="-0.674360">
        <time>2017-06-24T09:44:38Z</time>
      </trkpt>
      <trkpt lat="44.840950" lon="-0.674210">
        <time>2017-06-24T09:44:39Z</time>
      </trkpt>
      <trkpt lat="44.841140" lon="-0.674080">
        <time>2017-06-24T09:44:40Z</time>
      </trkpt>
      <trkpt lat="44.841330" lon="-0.673940">
        <time>2017-06-24T09:44:41Z</time>
      </trkpt>
      <trkpt lat="44.841540" lon="-0.673790">
        <time>2017-06-24T09:44:42Z</time>
      </trkpt>
      <trkpt lat="44.841720" lon="-0.673670">
        <time>2017-06-24T09:44:43Z</time>
      </trkpt>
      <trkpt lat="44.841920" lon="-0.673510">
        <time>2017-06-24T09:44:44Z</time>
      </trkpt>
      <trkpt lat="44.842100" lon="-0.673380">
        <time>2017-06-24T09:44:45Z</time>
      </trkpt>
      <trkpt lat="44.842290" lon="-0.673240">
        <time>2017-06-24T09:44:46Z</time>
      </trkpt>
      <trkpt lat="44.842480" lon="-0.673090">
        <time>2017-06-24T09:44:47Z</time>
      </trkpt>
      <trkpt lat="44.842650" lon="-0.672960">
        <time>2017-06-24T09:44:48Z</time>
      </trkpt>
      <trkpt lat="44.842820" lon="-0.672820">
        <time>2017-06-24T09:44:49Z</time>
      </trkpt>
      <trkpt lat="44.843000" lon="-0.672690">
        <time>2017-06-24T09:44:50Z</time>
      </trkpt>
      <trkpt lat="44.843180" lon="-0.672550">
        <time>2017-06-24T09:44:51Z</time>
      </trkpt>
      <trkpt lat="44.843370" lon="-0.672390">
        <time>2017-06-24T09:44:52Z</time>
      </trkpt>
      <trkpt lat="44.843530" lon="-0.672270">
        <time>2017-06-24T09:44:53Z</time>
      </trkpt>
      <trkpt lat="44.843710" lon="-0.672150">
        <time>2017-06-24T09:44:54Z</time>
      </trkpt>
      <trkpt lat="44.843890" lon="-0.672010">
        <time>2017-06-24T09:44:55Z</time>
      </trkpt>
      <trkpt lat="44.844050" lon="-0.671890">
        <time>2017-06-24T09:44:56Z</time>
      </trkpt>
      <trkpt lat="44.844230" lon="-0.671760">
        <time>2017-06-24T09:44:57Z</time>
      </trkpt>
      <trkpt lat="44.844410" lon="-0.671630">
        <time>2017-06-24T09:44:58Z</time>
      </trkpt>
      <trkpt lat="44.844570" lon="-0.671520">
        <time>2017-06-24T09:44:59Z</time>
      </trkpt>
      <trkpt lat="44.844740" lon="-0.671400">
        <time>2017-06-24T09:45:00Z</time>
      </trkpt>
      <trkpt lat="44.844900" lon="-0.671290">
        <time>2017-06-24T09:45:01Z</time>
      </trkpt>
      <trkpt lat="44.845050" lon="-0.671180">
        <time>2017-06-24T09:45:02Z</time>
      </trkpt>
      <trkpt lat="44.845210" lon="-0.671060">
        <time>2017-06-24T09:45:03Z</time>
      </trkpt>
      <trkpt lat="44.845360" lon="-0.670960">
        <time>2017-06-24T09:45:04Z</time>
      </trkpt>
      <trkpt lat="44.845530" lon="-0.670830">
        <time>2017-06-24T09:45:05Z</time>
      </trkpt>
      <trkpt lat="44.845690" lon="-0.670710">
        <time>2017-06-24T09:45:06Z</time>
      </trkpt>
      <trkpt lat="44.845870" lon="-0.670590">
        <time>2017-06-24T09:45:07Z</time>
      </trkpt>
      <trkpt lat="44.846050" lon="-0.670460">
        <time>2017-06-24T09:45:08Z</time>
      </trkpt>
      <trkpt lat="44.846210" lon="-0.670340">
        <time>2017-06-24T09:45:09Z</time>
      </trkpt>
      <trkpt lat="44.846390" lon="-0.670210">
        <time>2017-06-24T09:45:10Z</time>
      </trkpt>
      <trkpt lat="44.846580" lon="-0.670070">
        <time>2017-06-24T09:45:11Z</time>
      </trkpt>
      <trkpt lat="44.846740" lon="-0.669950">
        <time>2017-06-24T09:45:12Z</time>
      </trkpt>
      <trkpt lat="44.846920" lon="-0.669820">
        <time>2017-06-24T09:45:13Z</time>
      </trkpt>
      <trkpt lat="44.847110" lon="-0.669670">
        <time>2017-06-24T09:45:14Z</time>
      </trkpt>
      <trkpt lat="44.847280" lon="-0.669560">
        <time>2017-06-24T09:45:15Z</time>
      </trkpt>
      <trkpt lat="44.847460" lon="-0.669430">
        <time>2017-06-24T09:45:16Z</time>
      </trkpt>
      <trkpt lat="44.847630" lon="-0.669310">
        <time>2017-06-24T09:45:17Z</time>
      </trkpt>
      <trkpt lat="44.847800" lon="-0.669180">
        <time>2017-06-24T09:45:18Z</time>
      </trkpt>
      <trkpt lat="44.847990" lon="-0.669050">
        <time>2017-06-24T09:45:19Z</time>
      </trkpt>
      <trkpt lat="44.848160" lon="-0.668940">
        <time>2017-06-24T09:45:20Z</time>
      </trkpt>
      <trkpt lat="44.848330" lon="-0.668810">
        <time>2017-06-24T09:45:21Z</time>
      </trkpt>
      <trkpt lat="44.848510" lon="-0.668680">
        <time>2017-06-24T09:45:22Z</time>
      </trkpt>
      <trkpt lat="44.848680" lon="-0.668560">
        <time>2017-06-24T09:45:23Z</time>
      </trkpt>
      <trkpt lat="44.848870" lon="-0.668420">
        <time>2017-06-24T09:45:24Z</time>
      </trkpt>
      <trkpt lat="44.849030" lon="-0.668310">
        <time>2017-06-24T09:45:25Z</time>
      </trkpt>
      <trkpt lat="44.849200" lon="-0.668180">
        <time>2017-06-24T09:45:26Z</time>
      </trkpt>
      <trkpt lat="44.849380" lon="-0.668040">
        <time>2017-06-24T09:45:27Z</time>
      </trkpt>
      <trkpt lat="44.849550" lon="-0.667910">
        <time>2017-06-24T09:45:28Z</time>
      </trkpt>
      <trkpt lat="44.849720" lon="-0.667790">
        <time>2017-06-24T09:45:29Z</time>
      </trkpt>
      <trkpt lat="44.849910" lon="-0.667660">
        <time>2017-06-24T09:45:30Z</time>
      </trkpt>
      <trkpt lat="44.850070" lon="-0.667550">
        <time>2017-06-24T09:45:31Z</time>
      </trkpt>
      <trkpt lat="44.850250" lon="-0.667420">
        <time>2017-06-24T09:45:32Z</time>
      </trkpt>
      <trkpt lat="44.850420" lon="-0.667300">
        <time>2017-06-24T09:45:33Z</time>
      </trkpt>
      <trkpt lat="44.850590" lon="-0.667180">
        <time>2017-06-24T09:45:34Z</time>
      </trkpt>
      <trkpt lat="44.850760" lon="-0.667060">
        <time>2017-06-24T09:45:35Z</time>
      </trkpt>
      <trkpt lat="44.850920" lon="-0.666950">
        <time>2017-06-24T09:45:36Z</time>
      </trkpt>
      <trkpt lat="44.851090" lon="-0.666840">
        <time>2017-06-24T09:45:37Z</time>
      </trkpt>
      <trkpt lat="44.851270" lon="-0.666710">
        <time>2017-06-24T09:45:38Z</time>
      </trkpt>
      <trkpt lat="44.851460" lon="-0.666580">
        <time>2017-06-24T09:45:39Z</time>
      </trkpt>
      <trkpt lat="44.851670" lon="-0.666450">
        <time>2017-06-24T09:45:40Z</time>
      </trkpt>
      <trkpt lat="44.851860" lon="-0.666320">
        <time>2017-06-24T09:45:41Z</time>
      </trkpt>
      <trkpt lat="44.852050" lon="-0.666180">
        <time>2017-06-24T09:45:42Z</time>
      </trkpt>
      <trkpt lat="44.852260" lon="-0.666020">
        <time>2017-06-24T09:45:43Z</time>
      </trkpt>
      <trkpt lat="44.852450" lon="-0.665890">
        <time>2017-06-24T09:45:44Z</time>
      </trkpt>
      <trkpt lat="44.852650" lon="-0.665750">
        <time>2017-06-24T09:45:45Z</time>
      </trkpt>
      <trkpt lat="44.852870" lon="-0.665600">
        <time>2017-06-24T09:45:46Z</time>
      </trkpt>
      <trkpt lat="44.853070" lon="-0.665450">
        <time>2017-06-24T09:45:47Z</time>
      </trkpt>
      <trkpt lat="44.853310" lon="-0.665280">
        <time>2017-06-24T09:45:48Z</time>
      </trkpt>
      <trkpt lat="44.853520" lon="-0.665120">
        <time>2017-06-24T09:45:49Z</time>
      </trkpt>
      <trkpt lat="44.853740" lon="-0.664960">
        <time>2017-06-24T09:45:50Z</time>
      </trkpt>
      <trkpt lat="44.853970" lon="-0.664780">
        <time>2017-06-24T09:45:51Z</time>
      </trkpt>
      <trkpt lat="44.854160" lon="-0.664640">
        <time>2017-06-24T09:45:52Z</time>
      </trkpt>
      <trkpt lat="44.854360" lon="-0.664480">
        <time>2017-06-24T09:45:53Z</time>
      </trkpt>
      <trkpt lat="44.854560" lon="-0.664340">
        <time>2017-06-24T09:45:54Z</time>
      </trkpt>
      <trkpt lat="44.854740" lon="-0.664200">
        <time>2017-06-24T09:45:55Z</time>
      </trkpt>
      <trkpt lat="44.854930" lon="-0.664080">
        <time>2017-06-24T09:45:56Z</time>
      </trkpt>
      <trkpt lat="44.855070" lon="-0.663970">
        <time>2017-06-24T09:45:57Z</time>
      </trkpt>
      <trkpt lat="44.855210" lon="-0.663870">
        <time>2017-06-24T09:45:58Z</time>
      </trkpt>
      <trkpt lat="44.855360" lon="-0.663770">
        <time>2017-06-24T09:45:59Z</time>
      </trkpt>
      <trkpt lat="44.855470" lon="-0.663680">
        <time>2017-06-24T09:46:00Z</time>
      </trkpt>
      <trkpt lat="44.855580" lon="-0.663600">
        <time>2017-06-24T09:46:01Z</time>
      </trkpt>
      <trkpt lat="44.855700" lon="-0.663510">
        <time>2017-06-24T09:46:02Z</time>
      </trkpt>
      <trkpt lat="44.855800" lon="-0.663430">
        <time>2017-06-24T09:46:03Z</time>
      </trkpt>
      <trkpt lat="44.855910" lon="-0.663350">
        <time>2017-06-24T09:46:04Z</time>
      </trkpt>
      <trkpt lat="44.856010" lon="-0.663290">
        <time>2017-06-24T09:46:05Z</time>
      </trkpt>
      <trkpt lat="44.856110" lon="-0.663220">
        <time>2017-06-24T09:46:06Z</time>
      </trkpt>
      <trkpt lat="44.856220" lon="-0.663150">
        <time>2017-06-24T09:46:07Z</time>
      </trkpt>
      <trkpt lat="44.856310" lon="-0.663090">
        <time>2017-06-24T09:46:08Z</time>
      </trkpt>
      <trkpt lat="44.856400" lon="-0.663030">
        <time>2017-06-24T09:46:09Z</time>
      </trkpt>
      <trkpt lat="44.856470" lon="-0.662970">
        <time>2017-06-24T09:46:10Z</time>
      </trkpt>
      <trkpt lat="44.856550" lon="-0.662910">
        <time>2017-06-24T09:46:11Z</time>
      </trkpt>
      <trkpt lat="44.856630" lon="-0.662840">
        <time>2017-06-24T09:46:12Z</time>
      </trkpt>
      <trkpt lat="44.856700" lon="-0.662790">
        <time>2017-06-24T09:46:13Z</time>
      </trkpt>
      <trkpt lat="44.856770" lon="-0.662730">
        <time>2017-06-24T09:46:14Z</time>
      </trkpt>
      <trkpt lat="44.856850" lon="-0.662670">
        <time>2017-06-24T09:46:15Z</time>
      </trkpt>
      <trkpt lat="44.856920" lon="-0.662620">
        <time>2017-06-24T09:46:16Z</time>
      </trkpt>
      <trkpt lat="44.857000" lon="-0.662570">
        <time>2017-06-24T09:46:17Z</time>
      </trkpt>
      <trkpt lat="44.857070" lon="-0.662510">
        <time>2017-06-24T09:46:18Z</time>
      </trkpt>
      <trkpt lat="44.857120" lon="-0.662480">
        <time>2017-06-24T09:46:19Z</time>
      </trkpt>
      <trkpt lat="44.857170" lon="-0.662440">
        <time>2017-06-24T09:46:20Z</time>
      </trkpt>
      <trkpt lat="44.857200" lon="-0.662400">
        <time>2017-06-24T09:46:21Z</time>
      </trkpt>
      <trkpt lat="44.857230" lon="-0.662380">
        <time>2017-06-24T09:46:22Z</time>
      </trkpt>
      <trkpt lat="44.857250" lon="-0.662360">
        <time>2017-06-24T09:46:23Z</time>
      </trkpt>
      <trkpt lat="44.857270" lon="-0.662340">
        <time>2017-06-24T09:46:24Z</time>
      </trkpt>
      <trkpt lat="44.857300" lon="-0.662330">
        <time>2017-06-24T09:46:25Z</time>
      </trkpt>
      <trkpt lat="44.857300" lon="-0.662330">
        <time>2017-06-24T09:46:26Z</time>
      </trkpt>
      <trkpt lat="44.857300" lon="-0.662320">
        <time>2017-06-24T09:46:27Z</time>
      </trkpt>
      <trkpt lat="44.857300" lon="-0.662330">
        <time>2017-06-24T09:46:28Z</time>
      </trkpt>
      <trkpt lat="44.857300" lon="-0.662330">
        <time>2017-06-24T09:46:29Z</time>
      </trkpt>
      <trkpt lat="44.857300" lon="-0.662330">
        <time>2017-06-24T09:46:30Z</time>
      </trkpt>
      <trkpt lat="44.857300" lon="-0.662330">
        <time>2017-06-24T09:46:31Z</time>
      </trkpt>
      <trkpt lat="44.857300" lon="-0.662330">
        <time>2017-06-24T09:46:32Z</time>
      </trkpt>
      <trkpt lat="44.857300" lon="-0.662330">
        <time>2017-06-24T09:46:33Z</time>
      </trkpt>
      <trkpt lat="44.857300" lon="-0.662330">
        <time>2017-06-24T09:46:34Z</time>
      </trkpt>
      <trkpt lat="44.857300" lon="-0.662330">
        <time>2017-06-24T09:46:35Z</time>
      </trkpt>
      <trkpt lat="44.857300" lon="-0.662330">
        <time>2017-06-24T09:46:36Z</time>
      </trkpt>
      <trkpt lat="44.857300" lon="-0.662330">
        <time>2017-06-24T09:46:37Z</time>
      </trkpt>
      <trkpt lat="44.857300" lon="-0.662320">
        <time>2017-06-24T09:46:38Z</time>
      </trkpt>
      <trkpt lat="44.857310" lon="-0.662300">
        <time>2017-06-24T09:46:39Z</time>
      </trkpt>
      <trkpt lat="44.857340" lon="-0.662290">
        <time>2017-06-24T09:46:40Z</time>
      </trkpt>
      <trkpt lat="44.857370" lon="-0.662260">
        <time>2017-06-24T09:46:41Z</time>
      </trkpt>
      <trkpt lat="44.857410" lon="-0.662210">
        <time>2017-06-24T09:46:42Z</time>
      </trkpt>
      <trkpt lat="44.857450" lon="-0.662190">
        <time>2017-06-24T09:46:43Z</time>
      </trkpt>
      <trkpt lat="44.857480" lon="-0.662160">
        <time>2017-06-24T09:46:44Z</time>
      </trkpt>
      <trkpt lat="44.857510" lon="-0.662130">
        <time>2017-06-24T09:46:45Z</time>
      </trkpt>
      <trkpt lat="44.857530" lon="-0.662120">
        <time>2017-06-24T09:46:46Z</time>
      </trkpt>
      <trkpt lat="44.857560" lon="-0.662090">
        <time>2017-06-24T09:46:47Z</time>
      </trkpt>
      <trkpt lat="44.857580" lon="-0.662070">
        <time>2017-06-24T09:46:48Z</time>
      </trkpt>
      <trkpt lat="44.857610" lon="-0.662050">
        <time>2017-06-24T09:46:49Z</time>
      </trkpt>
      <trkpt lat="44.857630" lon="-0.662030">
        <time>2017-06-24T09:46:50Z</time>
      </trkpt>
      <trkpt lat="44.857640" lon="-0.662020">
        <time>2017-06-24T09:46:51Z</time>
      </trkpt>
      <trkpt lat="44.857650" lon="-0.662010">
        <time>2017-06-24T09:46:52Z</time>
      </trkpt>
      <trkpt lat="44.857660" lon="-0.662010">
        <time>2017-06-24T09:46:53Z</time>
      </trkpt>
      <trkpt lat="44.857680" lon="-0.662000">
        <time>2017-06-24T09:46:54Z</time>
      </trkpt>
      <trkpt lat="44.857700" lon="-0.661980">
        <time>2017-06-24T09:46:55Z</time>
      </trkpt>
      <trkpt lat="44.857730" lon="-0.661950">
        <time>2017-06-24T09:46:56Z</time>
      </trkpt>
      <trkpt lat="44.857810" lon="-0.661890">
        <time>2017-06-24T09:46:57Z</time>
      </trkpt>
      <trkpt lat="44.857860" lon="-0.661830">
        <time>2017-06-24T09:46:58Z</time>
      </trkpt>
      <trkpt lat="44.857920" lon="-0.661780">
        <time>2017-06-24T09:46:59Z</time>
      </trkpt>
      <trkpt lat="44.857960" lon="-0.661750">
        <time>2017-06-24T09:47:00Z</time>
      </trkpt>
      <trkpt lat="44.858000" lon="-0.661710">
        <time>2017-06-24T09:47:01Z</time>
      </trkpt>
      <trkpt lat="44.858040" lon="-0.661680">
        <time>2017-06-24T09:47:02Z</time>
      </trkpt>
      <trkpt lat="44.858090" lon="-0.661650">
        <time>2017-06-24T09:47:03Z</time>
      </trkpt>
      <trkpt lat="44.858150" lon="-0.661600">
        <time>2017-06-24T09:47:04Z</time>
      </trkpt>
      <trkpt lat="44.858220" lon="-0.661540">
        <time>2017-06-24T09:47:05Z</time>
      </trkpt>
      <trkpt lat="44.858300" lon="-0.661460">
        <time>2017-06-24T09:47:06Z</time>
      </trkpt>
      <trkpt lat="44.858380" lon="-0.661390">
        <time>2017-06-24T09:47:07Z</time>
      </trkpt>
      <trkpt lat="44.858470" lon="-0.661310">
        <time>2017-06-24T09:47:08Z</time>
      </trkpt>
      <trkpt lat="44.858550" lon="-0.661230">
        <time>2017-06-24T09:47:09Z</time>
      </trkpt>
      <trkpt lat="44.858650" lon="-0.661140">
        <time>2017-06-24T09:47:10Z</time>
      </trkpt>
      <trkpt lat="44.858750" lon="-0.661050">
        <time>2017-06-24T09:47:11Z</time>
      </trkpt>
      <trkpt lat="44.858860" lon="-0.660970">
        <time>2017-06-24T09:47:12Z</time>
      </trkpt>
      <trkpt lat="44.858970" lon="-0.660860">
        <time>2017-06-24T09:47:13Z</time>
      </trkpt>
      <trkpt lat="44.859080" lon="-0.660750">
        <time>2017-06-24T09:47:14Z</time>
      </trkpt>
      <trkpt lat="44.859200" lon="-0.660640">
        <time>2017-06-24T09:47:15Z</time>
      </trkpt>
      <trkpt lat="44.859320" lon="-0.660520">
        <time>2017-06-24T09:47:16Z</time>
      </trkpt>
      <trkpt lat="44.859420" lon="-0.660410">
        <time>2017-06-24T09:47:17Z</time>
      </trkpt>
      <trkpt lat="44.859540" lon="-0.660300">
        <time>2017-06-24T09:47:18Z</time>
      </trkpt>
      <trkpt lat="44.859650" lon="-0.660170">
        <time>2017-06-24T09:47:19Z</time>
      </trkpt>
      <trkpt lat="44.859760" lon="-0.660060">
        <time>2017-06-24T09:47:20Z</time>
      </trkpt>
      <trkpt lat="44.859870" lon="-0.659940">
        <time>2017-06-24T09:47:21Z</time>
      </trkpt>
      <trkpt lat="44.859990" lon="-0.659810">
        <time>2017-06-24T09:47:22Z</time>
      </trkpt>
      <trkpt lat="44.860100" lon="-0.659700">
        <time>2017-06-24T09:47:23Z</time>
      </trkpt>
      <trkpt lat="44.860230" lon="-0.659560">
        <time>2017-06-24T09:47:24Z</time>
      </trkpt>
      <trkpt lat="44.860350" lon="-0.659440">
        <time>2017-06-24T09:47:25Z</time>
      </trkpt>
      <trkpt lat="44.860480" lon="-0.659300">
        <time>2017-06-24T09:47:26Z</time>
      </trkpt>
      <trkpt lat="44.860620" lon="-0.659160">
        <time>2017-06-24T09:47:27Z</time>
      </trkpt>
      <trkpt lat="44.860740" lon="-0.659020">
        <time>2017-06-24T09:47:28Z</time>
      </trkpt>
      <trkpt lat="44.860870" lon="-0.658880">
        <time>2017-06-24T09:47:29Z</time>
      </trkpt>
      <trkpt lat="44.861010" lon="-0.658720">
        <time>2017-06-24T09:47:30Z</time>
      </trkpt>
      <trkpt lat="44.861140" lon="-0.658570">
        <time>2017-06-24T09:47:31Z</time>
      </trkpt>
      <trkpt lat="44.861270" lon="-0.658400">
        <time>2017-06-24T09:47:32Z</time>
      </trkpt>
      <trkpt lat="44.861390" lon="-0.658250">
        <time>2017-06-24T09:47:33Z</time>
      </trkpt>
      <trkpt lat="44.861520" lon="-0.658100">
        <time>2017-06-24T09:47:34Z</time>
      </trkpt>
      <trkpt lat="44.861660" lon="-0.657930">
        <time>2017-06-24T09:47:35Z</time>
      </trkpt>
      <trkpt lat="44.861780" lon="-0.657780">
        <time>2017-06-24T09:47:36Z</time>
      </trkpt>
      <trkpt lat="44.861920" lon="-0.657610">
        <time>2017-06-24T09:47:37Z</time>
      </trkpt>
      <trkpt lat="44.862060" lon="-0.657440">
        <time>2017-06-24T09:47:38Z</time>
      </trkpt>
      <trkpt lat="44.862180" lon="-0.657280">
        <time>2017-06-24T09:47:39Z</time>
      </trkpt>
      <trkpt lat="44.862330" lon="-0.657080">
        <time>2017-06-24T09:47:40Z</time>
      </trkpt>
      <trkpt lat="44.862470" lon="-0.656890">
        <time>2017-06-24T09:47:41Z</time>
      </trkpt>
      <trkpt lat="44.862620" lon="-0.656700">
        <time>2017-06-24T09:47:42Z</time>
      </trkpt>
      <trkpt lat="44.862780" lon="-0.656480">
        <time>2017-06-24T09:47:43Z</time>
      </trkpt>
      <trkpt lat="44.862920" lon="-0.656280">
        <time>2017-06-24T09:47:44Z</time>
      </trkpt>
      <trkpt lat="44.863070" lon="-0.656060">
        <time>2017-06-24T09:47:45Z</time>
      </trkpt>
      <trkpt lat="44.863230" lon="-0.655840">
        <time>2017-06-24T09:47:46Z</time>
      </trkpt>
      <trkpt lat="44.863390" lon="-0.655630">
        <time>2017-06-24T09:47:47Z</time>
      </trkpt>
      <trkpt lat="44.863550" lon="-0.655380">
        <time>2017-06-24T09:47:48Z</time>
      </trkpt>
      <trkpt lat="44.863690" lon="-0.655160">
        <time>2017-06-24T09:47:49Z</time>
      </trkpt>
      <trkpt lat="44.863840" lon="-0.654920">
        <time>2017-06-24T09:47:50Z</time>
      </trkpt>
      <trkpt lat="44.864000" lon="-0.654670">
        <time>2017-06-24T09:47:51Z</time>
      </trkpt>
      <trkpt lat="44.864150" lon="-0.654440">
        <time>2017-06-24T09:47:52Z</time>
      </trkpt>
      <trkpt lat="44.864300" lon="-0.654190">
        <time>2017-06-24T09:47:53Z</time>
      </trkpt>
      <trkpt lat="44.864470" lon="-0.653920">
        <time>2017-06-24T09:47:54Z</time>
      </trkpt>
      <trkpt lat="44.864610" lon="-0.653680">
        <time>2017-06-24T09:47:55Z</time>
      </trkpt>
      <trkpt lat="44.864770" lon="-0.653410">
        <time>2017-06-24T09:47:56Z</time>
      </trkpt>
      <trkpt lat="44.864910" lon="-0.653160">
        <time>2017-06-24T09:47:57Z</time>
      </trkpt>
      <trkpt lat="44.865050" lon="-0.652920">
        <time>2017-06-24T09:47:58Z</time>
      </trkpt>
      <trkpt lat="44.865190" lon="-0.652650">
        <time>2017-06-24T09:47:59Z</time>
      </trkpt>
      <trkpt lat="44.865320" lon="-0.652420">
        <time>2017-06-24T09:48:00Z</time>
      </trkpt>
      <trkpt lat="44.865460" lon="-0.652180">
        <time>2017-06-24T09:48:01Z</time>
      </trkpt>
      <trkpt lat="44.865590" lon="-0.651940">
        <time>2017-06-24T09:48:02Z</time>
      </trkpt>
      <trkpt lat="44.865720" lon="-0.651700">
        <time>2017-06-24T09:48:03Z</time>
      </trkpt>
      <trkpt lat="44.865880" lon="-0.651450">
        <time>2017-06-24T09:48:04Z</time>
      </trkpt>
      <trkpt lat="44.866000" lon="-0.651220">
        <time>2017-06-24T09:48:05Z</time>
      </trkpt>
      <trkpt lat="44.866140" lon="-0.650990">
        <time>2017-06-24T09:48:06Z</time>
      </trkpt>
      <trkpt lat="44.866280" lon="-0.650730">
        <time>2017-06-24T09:48:07Z</time>
      </trkpt>
      <trkpt lat="44.866410" lon="-0.650500">
        <time>2017-06-24T09:48:08Z</time>
      </trkpt>
      <trkpt lat="44.866570" lon="-0.650260">
        <time>2017-06-24T09:48:09Z</time>
      </trkpt>
      <trkpt lat="44.866740" lon="-0.649990">
        <time>2017-06-24T09:48:10Z</time>
      </trkpt>
      <trkpt lat="44.866890" lon="-0.649750">
        <time>2017-06-24T09:48:11Z</time>
      </trkpt>
      <trkpt lat="44.867060" lon="-0.649460">
        <time>2017-06-24T09:48:12Z</time>
      </trkpt>
      <trkpt lat="44.867200" lon="-0.649220">
        <time>2017-06-24T09:48:13Z</time>
      </trkpt>
      <trkpt lat="44.867360" lon="-0.648950">
        <time>2017-06-24T09:48:14Z</time>
      </trkpt>
      <trkpt lat="44.867520" lon="-0.648670">
        <time>2017-06-24T09:48:15Z</time>
      </trkpt>
      <trkpt lat="44.867660" lon="-0.648420">
        <time>2017-06-24T09:48:16Z</time>
      </trkpt>
      <trkpt lat="44.867810" lon="-0.648150">
        <time>2017-06-24T09:48:17Z</time>
      </trkpt>
      <trkpt lat="44.867970" lon="-0.647880">
        <time>2017-06-24T09:48:18Z</time>
      </trkpt>
      <trkpt lat="44.868130" lon="-0.647610">
        <time>2017-06-24T09:48:19Z</time>
      </trkpt>
      <trkpt lat="44.868290" lon="-0.647320">
        <time>2017-06-24T09:48:20Z</time>
      </trkpt>
      <trkpt lat="44.868440" lon="-0.647060">
        <time>2017-06-24T09:48:21Z</time>
      </trkpt>
      <trkpt lat="44.868590" lon="-0.646790">
        <time>2017-06-24T09:48:22Z</time>
      </trkpt>
      <trkpt lat="44.868760" lon="-0.646510">
        <time>2017-06-24T09:48:23Z</time>
      </trkpt>
      <trkpt lat="44.868900" lon="-0.646260">
        <time>2017-06-24T09:48:24Z</time>
      </trkpt>
      <trkpt lat="44.869040" lon="-0.646010">
        <time>2017-06-24T09:48:25Z</time>
      </trkpt>
      <trkpt lat="44.869190" lon="-0.645770">
        <time>2017-06-24T09:48:26Z</time>
      </trkpt>
      <trkpt lat="44.869310" lon="-0.645560">
        <time>2017-06-24T09:48:27Z</time>
      </trkpt>
      <trkpt lat="44.869440" lon="-0.645330">
        <time>2017-06-24T09:48:28Z</time>
      </trkpt>
      <trkpt lat="44.869560" lon="-0.645140">
        <time>2017-06-24T09:48:29Z</time>
      </trkpt>
      <trkpt lat="44.869670" lon="-0.644930">
        <time>2017-06-24T09:48:30Z</time>
      </trkpt>
      <trkpt lat="44.869790" lon="-0.644730">
        <time>2017-06-24T09:48:31Z</time>
      </trkpt>
      <trkpt lat="44.869890" lon="-0.644550">
        <time>2017-06-24T09:48:32Z</time>
      </trkpt>
      <trkpt lat="44.870000" lon="-0.644370">
        <time>2017-06-24T09:48:33Z</time>
      </trkpt>
      <trkpt lat="44.870100" lon="-0.644190">
        <time>2017-06-24T09:48:34Z</time>
      </trkpt>
      <trkpt lat="44.870200" lon="-0.644020">
        <time>2017-06-24T09:48:35Z</time>
      </trkpt>
      <trkpt lat="44.870290" lon="-0.643860">
        <time>2017-06-24T09:48:36Z</time>
      </trkpt>
      <trkpt lat="44.870380" lon="-0.643710">
        <time>2017-06-24T09:48:37Z</time>
      </trkpt>
      <trkpt lat="44.870470" lon="-0.643550">
        <time>2017-06-24T09:48:38Z</time>
      </trkpt>
      <trkpt lat="44.870560" lon="-0.643390">
        <time>2017-06-24T09:48:39Z</time>
      </trkpt>
      <trkpt lat="44.870630" lon="-0.643260">
        <time>2017-06-24T09:48:40Z</time>
      </trkpt>
      <trkpt lat="44.870720" lon="-0.643110">
        <time>2017-06-24T09:48:41Z</time>
      </trkpt>
      <trkpt lat="44.870810" lon="-0.642950">
        <time>2017-06-24T09:48:42Z</time>
      </trkpt>
      <trkpt lat="44.870880" lon="-0.642810">
        <time>2017-06-24T09:48:43Z</time>
      </trkpt>
      <trkpt lat="44.870960" lon="-0.642700">
        <time>2017-06-24T09:48:44Z</time>
      </trkpt>
      <trkpt lat="44.871000" lon="-0.642620">
        <time>2017-06-24T09:48:45Z</time>
      </trkpt>
      <trkpt lat="44.871040" lon="-0.642550">
        <time>2017-06-24T09:48:46Z</time>
      </trkpt>
      <trkpt lat="44.871070" lon="-0.642490">
        <time>2017-06-24T09:48:47Z</time>
      </trkpt>
      <trkpt lat="44.871090" lon="-0.642450">
        <time>2017-06-24T09:48:48Z</time>
      </trkpt>
      <trkpt lat="44.871120" lon="-0.642400">
        <time>2017-06-24T09:48:49Z</time>
      </trkpt>
      <trkpt lat="44.871150" lon="-0.642340">
        <time>2017-06-24T09:48:50Z</time>
      </trkpt>
      <trkpt lat="44.871200" lon="-0.642280">
        <time>2017-06-24T09:48:51Z</time>
      </trkpt>
      <trkpt lat="44.871240" lon="-0.642200">
        <time>2017-06-24T09:48:52Z</time>
      </trkpt>
      <trkpt lat="44.871280" lon="-0.642120">
        <time>2017-06-24T09:48:53Z</time>
      </trkpt>
      <trkpt lat="44.871330" lon="-0.642040">
        <time>2017-06-24T09:48:54Z</time>
      </trkpt>
      <trkpt lat="44.871380" lon="-0.641960">
        <time>2017-06-24T09:48:55Z</time>
      </trkpt>
      <trkpt lat="44.871420" lon="-0.641890">
        <time>2017-06-24T09:48:56Z</time>
      </trkpt>
      <trkpt lat="44.871460" lon="-0.641820">
        <time>2017-06-24T09:48:57Z</time>
      </trkpt>
      <trkpt lat="44.871510" lon="-0.641740">
        <time>2017-06-24T09:48:58Z</time>
      </trkpt>
      <trkpt lat="44.871540" lon="-0.641670">
        <time>2017-06-24T09:48:59Z</time>
      </trkpt>
      <trkpt lat="44.871590" lon="-0.641590">
        <time>2017-06-24T09:49:00Z</time>
      </trkpt>
      <trkpt lat="44.871640" lon="-0.641530">
        <time>2017-06-24T09:49:01Z</time>
      </trkpt>
      <trkpt lat="44.871690" lon="-0.641440">
        <time>2017-06-24T09:49:02Z</time>
      </trkpt>
      <trkpt lat="44.871740" lon="-0.641350">
        <time>2017-06-24T09:49:03Z</time>
      </trkpt>
      <trkpt lat="44.871790" lon="-0.641250">
        <time>2017-06-24T09:49:04Z</time>
      </trkpt>
      <trkpt lat="44.871850" lon="-0.641140">
        <time>2017-06-24T09:49:05Z</time>
      </trkpt>
      <trkpt lat="44.871910" lon="-0.641030">
        <time>2017-06-24T09:49:06Z</time>
      </trkpt>
      <trkpt lat="44.871980" lon="-0.640910">
        <time>2017-06-24T09:49:07Z</time>
      </trkpt>
      <trkpt lat="44.872060" lon="-0.640770">
        <time>2017-06-24T09:49:08Z</time>
      </trkpt>
      <trkpt lat="44.872130" lon="-0.640640">
        <time>2017-06-24T09:49:09Z</time>
      </trkpt>
      <trkpt lat="44.872210" lon="-0.640510">
        <time>2017-06-24T09:49:10Z</time>
      </trkpt>
      <trkpt lat="44.872290" lon="-0.640380">
        <time>2017-06-24T09:49:11Z</time>
      </trkpt>
      <trkpt lat="44.872360" lon="-0.640260">
        <time>2017-06-24T09:49:12Z</time>
      </trkpt>
      <trkpt lat="44.872430" lon="-0.640140">
        <time>2017-06-24T09:49:13Z</time>
      </trkpt>
      <trkpt lat="44.872500" lon="-0.640000">
        <time>2017-06-24T09:49:14Z</time>
      </trkpt>
      <trkpt lat="44.872570" lon="-0.639880">
        <time>2017-06-24T09:49:15Z</time>
      </trkpt>
      <trkpt lat="44.872650" lon="-0.639750">
        <time>2017-06-24T09:49:16Z</time>
      </trkpt>
      <trkpt lat="44.872700" lon="-0.639650">
        <time>2017-06-24T09:49:17Z</time>
      </trkpt>
      <trkpt lat="44.872760" lon="-0.639560">
        <time>2017-06-24T09:49:18Z</time>
      </trkpt>
      <trkpt lat="44.872810" lon="-0.639460">
        <time>2017-06-24T09:49:19Z</time>
      </trkpt>
      <trkpt lat="44.872850" lon="-0.639400">
        <time>2017-06-24T09:49:20Z</time>
      </trkpt>
      <trkpt lat="44.872890" lon="-0.639340">
        <time>2017-06-24T09:49:21Z</time>
      </trkpt>
      <trkpt lat="44.872910" lon="-0.639300">
        <time>2017-06-24T09:49:22Z</time>
      </trkpt>
      <trkpt lat="44.872920" lon="-0.639280">
        <time>2017-06-24T09:49:23Z</time>
      </trkpt>
      <trkpt lat="44.872920" lon="-0.639280">
        <time>2017-06-24T09:49:24Z</time>
      </trkpt>
      <trkpt lat="44.872920" lon="-0.639280">
        <time>2017-06-24T09:49:25Z</time>
      </trkpt>
      <trkpt lat="44.872920" lon="-0.639280">
        <time>2017-06-24T09:49:26Z</time>
      </trkpt>
      <trkpt lat="44.872920" lon="-0.639280">
        <time>2017-06-24T09:49:27Z</time>
      </trkpt>
      <trkpt lat="44.872920" lon="-0.639280">
        <time>2017-06-24T09:49:28Z</time>
      </trkpt>
      <trkpt lat="44.872920" lon="-0.639280">
        <time>2017-06-24T09:49:29Z</time>
      </trkpt>
      <trkpt lat="44.872920" lon="-0.639280">
        <time>2017-06-24T09:49:30Z</time>
      </trkpt>
      <trkpt lat="44.872920" lon="-0.639280">
        <time>2017-06-24T09:49:31Z</time>
      </trkpt>
      <trkpt lat="44.872920" lon="-0.639280">
        <time>2017-06-24T09:49:32Z</time>
      </trkpt>
      <trkpt lat="44.872920" lon="-0.639280">
        <time>2017-06-24T09:49:33Z</time>
      </trkpt>
      <trkpt lat="44.872920" lon="-0.639280">
        <time>2017-06-24T09:49:34Z</time>
      </trkpt>
      <trkpt lat="44.872920" lon="-0.639280">
        <time>2017-06-24T09:49:35Z</time>
      </trkpt>
      <trkpt lat="44.872920" lon="-0.639280">
        <time>2017-06-24T09:49:36Z</time>
      </trkpt>
      <trkpt lat="44.872900" lon="-0.639280">
        <time>2017-06-24T09:49:37Z</time>
      </trkpt>
      <trkpt lat="44.872910" lon="-0.639280">
        <time>2017-06-24T09:49:38Z</time>
      </trkpt>
      <trkpt lat="44.872910" lon="-0.639270">
        <time>2017-06-24T09:49:39Z</time>
      </trkpt>
      <trkpt lat="44.872910" lon="-0.639270">
        <time>2017-06-24T09:49:40Z</time>
      </trkpt>
      <trkpt lat="44.872910" lon="-0.639270">
        <time>2017-06-24T09:49:41Z</time>
      </trkpt>
      <trkpt lat="44.872910" lon="-0.639270">
        <time>2017-06-24T09:49:42Z</time>
      </trkpt>
      <trkpt lat="44.872920" lon="-0.639260">
        <time>2017-06-24T09:49:43Z</time>
      </trkpt>
      <trkpt lat="44.872920" lon="-0.639240">
        <time>2017-06-24T09:49:44Z</time>
      </trkpt>
      <trkpt lat="44.872950" lon="-0.639190">
        <time>2017-06-24T09:49:45Z</time>
      </trkpt>
      <trkpt lat="44.872990" lon="-0.639090">
        <time>2017-06-24T09:49:46Z</time>
      </trkpt>
      <trkpt lat="44.873030" lon="-0.639020">
        <time>2017-06-24T09:49:47Z</time>
      </trkpt>
      <trkpt lat="44.873070" lon="-0.638940">
        <time>2017-06-24T09:49:48Z</time>
      </trkpt>
      <trkpt lat="44.873120" lon="-0.638890">
        <time>2017-06-24T09:49:49Z</time>
      </trkpt>
      <trkpt lat="44.873150" lon="-0.638830">
        <time>2017-06-24T09:49:50Z</time>
      </trkpt>
      <trkpt lat="44.873190" lon="-0.638770">
        <time>2017-06-24T09:49:51Z</time>
      </trkpt>
      <trkpt lat="44.873220" lon="-0.638710">
        <time>2017-06-24T09:49:52Z</time>
      </trkpt>
      <trkpt lat="44.873250" lon="-0.638660">
        <time>2017-06-24T09:49:53Z</time>
      </trkpt>
      <trkpt lat="44.873290" lon="-0.638600">
        <time>2017-06-24T09:49:54Z</time>
      </trkpt>
      <trkpt lat="44.873320" lon="-0.638540">
        <time>2017-06-24T09:49:55Z</time>
      </trkpt>
      <trkpt lat="44.873370" lon="-0.638450">
        <time>2017-06-24T09:49:56Z</time>
      </trkpt>
      <trkpt lat="44.873410" lon="-0.638380">
        <time>2017-06-24T09:49:57Z</time>
      </trkpt>
      <trkpt lat="44.873460" lon="-0.638290">
        <time>2017-06-24T09:49:58Z</time>
      </trkpt>
      <trkpt lat="44.873520" lon="-0.638220">
        <time>2017-06-24T09:49:59Z</time>
      </trkpt>
      <trkpt lat="44.873550" lon="-0.638160">
        <time>2017-06-24T09:50:00Z</time>
      </trkpt>
      <trkpt lat="44.873590" lon="-0.638100">
        <time>2017-06-24T09:50:01Z</time>
      </trkpt>
      <trkpt lat="44.873630" lon="-0.638030">
        <time>2017-06-24T09:50:02Z</time>
      </trkpt>
      <trkpt lat="44.873660" lon="-0.637970">
        <time>2017-06-24T09:50:03Z</time>
      </trkpt>
      <trkpt lat="44.873700" lon="-0.637890">
        <time>2017-06-24T09:50:04Z</time>
      </trkpt>
      <trkpt lat="44.873740" lon="-0.637820">
        <time>2017-06-24T09:50:05Z</time>
      </trkpt>
      <trkpt lat="44.873780" lon="-0.637740">
        <time>2017-06-24T09:50:06Z</time>
      </trkpt>
      <trkpt lat="44.873830" lon="-0.637650">
        <time>2017-06-24T09:50:07Z</time>
      </trkpt>
      <trkpt lat="44.873870" lon="-0.637580">
        <time>2017-06-24T09:50:08Z</time>
      </trkpt>
      <trkpt lat="44.873910" lon="-0.637530">
        <time>2017-06-24T09:50:09Z</time>
      </trkpt>
      <trkpt lat="44.873940" lon="-0.637480">
        <time>2017-06-24T09:50:10Z</time>
      </trkpt>
      <trkpt lat="44.873950" lon="-0.637450">
        <time>2017-06-24T09:50:11Z</time>
      </trkpt>
      <trkpt lat="44.873970" lon="-0.637420">
        <time>2017-06-24T09:50:12Z</time>
      </trkpt>
      <trkpt lat="44.873970" lon="-0.637400">
        <time>2017-06-24T09:50:13Z</time>
      </trkpt>
      <trkpt lat="44.873980" lon="-0.637390">
        <time>2017-06-24T09:50:14Z</time>
      </trkpt>
      <trkpt lat="44.873980" lon="-0.637380">
        <time>2017-06-24T09:50:15Z</time>
      </trkpt>
      <trkpt lat="44.873990" lon="-0.637370">
        <time>2017-06-24T09:50:16Z</time>
      </trkpt>
      <trkpt lat="44.873990" lon="-0.637360">
        <time>2017-06-24T09:50:17Z</time>
      </trkpt>
      <trkpt lat="44.874000" lon="-0.637330">
        <time>2017-06-24T09:50:18Z</time>
      </trkpt>
      <trkpt lat="44.874010" lon="-0.637320">
        <time>2017-06-24T09:50:19Z</time>
      </trkpt>
      <trkpt lat="44.874020" lon="-0.637310">
        <time>2017-06-24T09:50:20Z</time>
      </trkpt>
      <trkpt lat="44.874020" lon="-0.637310">
        <time>2017-06-24T09:50:21Z</time>
      </trkpt>
      <trkpt lat="44.874020" lon="-0.637310">
        <time>2017-06-24T09:50:22Z</time>
      </trkpt>
      <trkpt lat="44.874020" lon="-0.637310">
        <time>2017-06-24T09:50:23Z</time>
      </trkpt>
      <trkpt lat="44.874020" lon="-0.637310">
        <time>2017-06-24T09:50:24Z</time>
      </trkpt>
      <trkpt lat="44.874020" lon="-0.637320">
        <time>2017-06-24T09:50:25Z</time>
      </trkpt>
      <trkpt lat="44.874030" lon="-0.637310">
        <time>2017-06-24T09:50:26Z</time>
      </trkpt>
      <trkpt lat="44.874040" lon="-0.637290">
        <time>2017-06-24T09:50:27Z</time>
      </trkpt>
      <trkpt lat="44.874070" lon="-0.637240">
        <time>2017-06-24T09:50:28Z</time>
      </trkpt>
      <trkpt lat="44.874140" lon="-0.637130">
        <time>2017-06-24T09:50:29Z</time>
      </trkpt>
      <trkpt lat="44.874200" lon="-0.637030">
        <time>2017-06-24T09:50:30Z</time>
      </trkpt>
      <trkpt lat="44.874250" lon="-0.636920">
        <time>2017-06-24T09:50:31Z</time>
      </trkpt>
      <trkpt lat="44.874310" lon="-0.636830">
        <time>2017-06-24T09:50:32Z</time>
      </trkpt>
      <trkpt lat="44.874370" lon="-0.636710">
        <time>2017-06-24T09:50:33Z</time>
      </trkpt>
      <trkpt lat="44.874440" lon="-0.636570">
        <time>2017-06-24T09:50:34Z</time>
      </trkpt>
      <trkpt lat="44.874510" lon="-0.636450">
        <time>2017-06-24T09:50:35Z</time>
      </trkpt>
      <trkpt lat="44.874610" lon="-0.636300">
        <time>2017-06-24T09:50:36Z</time>
      </trkpt>
      <trkpt lat="44.874690" lon="-0.636160">
        <time>2017-06-24T09:50:37Z</time>
      </trkpt>
      <trkpt lat="44.874770" lon="-0.636020">
        <time>2017-06-24T09:50:38Z</time>
      </trkpt>
      <trkpt lat="44.874860" lon="-0.635860">
        <time>2017-06-24T09:50:39Z</time>
      </trkpt>
      <trkpt lat="44.874950" lon="-0.635710">
        <time>2017-06-24T09:50:40Z</time>
      </trkpt>
      <trkpt lat="44.875040" lon="-0.635550">
        <time>2017-06-24T09:50:41Z</time>
      </trkpt>
      <trkpt lat="44.875130" lon="-0.635390">
        <time>2017-06-24T09:50:42Z</time>
      </trkpt>
      <trkpt lat="44.875230" lon="-0.635230">
        <time>2017-06-24T09:50:43Z</time>
      </trkpt>
      <trkpt lat="44.875330" lon="-0.635040">
        <time>2017-06-24T09:50:44Z</time>
      </trkpt>
      <trkpt lat="44.875430" lon="-0.634880">
        <time>2017-06-24T09:50:45Z</time>
      </trkpt>
      <trkpt lat="44.875540" lon="-0.634700">
        <time>2017-06-24T09:50:46Z</time>
      </trkpt>
      <trkpt lat="44.875650" lon="-0.634500">
        <time>2017-06-24T09:50:47Z</time>
      </trkpt>
      <trkpt lat="44.875760" lon="-0.634320">
        <time>2017-06-24T09:50:48Z</time>
      </trkpt>
      <trkpt lat="44.875880" lon="-0.634120">
        <time>2017-06-24T09:50:49Z</time>
      </trkpt>
      <trkpt lat="44.876000" lon="-0.633910">
        <time>2017-06-24T09:50:50Z</time>
      </trkpt>
      <trkpt lat="44.876100" lon="-0.633740">
        <time>2017-06-24T09:50:51Z</time>
      </trkpt>
      <trkpt lat="44.876210" lon="-0.633540">
        <time>2017-06-24T09:50:52Z</time>
      </trkpt>
      <trkpt lat="44.876300" lon="-0.633380">
        <time>2017-06-24T09:50:53Z</time>
      </trkpt>
      <trkpt lat="44.876400" lon="-0.633210">
        <time>2017-06-24T09:50:54Z</time>
      </trkpt>
      <trkpt lat="44.876510" lon="-0.633010">
        <time>2017-06-24T09:50:55Z</time>
      </trkpt>
      <trkpt lat="44.876600" lon="-0.632840">
        <time>2017-06-24T09:50:56Z</time>
      </trkpt>
      <trkpt lat="44.876700" lon="-0.632680">
        <time>2017-06-24T09:50:57Z</time>
      </trkpt>
      <trkpt lat="44.876800" lon="-0.632520">
        <time>2017-06-24T09:50:58Z</time>
      </trkpt>
      <trkpt lat="44.876880" lon="-0.632380">
        <time>2017-06-24T09:50:59Z</time>
      </trkpt>
      <trkpt lat="44.876940" lon="-0.632250">
        <time>2017-06-24T09:51:00Z</time>
      </trkpt>
      <trkpt lat="44.876990" lon="-0.632160">
        <time>2017-06-24T09:51:01Z</time>
      </trkpt>
      <trkpt lat="44.877030" lon="-0.632070">
        <time>2017-06-24T09:51:02Z</time>
      </trkpt>
      <trkpt lat="44.877070" lon="-0.631960">
        <time>2017-06-24T09:51:03Z</time>
      </trkpt>
      <trkpt lat="44.877120" lon="-0.631850">
        <time>2017-06-24T09:51:04Z</time>
      </trkpt>
      <trkpt lat="44.877190" lon="-0.631720">
        <time>2017-06-24T09:51:05Z</time>
      </trkpt>
      <trkpt lat="44.877270" lon="-0.631590">
        <time>2017-06-24T09:51:06Z</time>
      </trkpt>
      <trkpt lat="44.877340" lon="-0.631460">
        <time>2017-06-24T09:51:07Z</time>
      </trkpt>
      <trkpt lat="44.877430" lon="-0.631320">
        <time>2017-06-24T09:51:08Z</time>
      </trkpt>
      <trkpt lat="44.877500" lon="-0.631200">
        <time>2017-06-24T09:51:09Z</time>
      </trkpt>
      <trkpt lat="44.877580" lon="-0.631060">
        <time>2017-06-24T09:51:10Z</time>
      </trkpt>
      <trkpt lat="44.877660" lon="-0.630920">
        <time>2017-06-24T09:51:11Z</time>
      </trkpt>
      <trkpt lat="44.877730" lon="-0.630810">
        <time>2017-06-24T09:51:12Z</time>
      </trkpt>
      <trkpt lat="44.877800" lon="-0.630690">
        <time>2017-06-24T09:51:13Z</time>
      </trkpt>
      <trkpt lat="44.877860" lon="-0.630580">
        <time>2017-06-24T09:51:14Z</time>
      </trkpt>
      <trkpt lat="44.877930" lon="-0.630470">
        <time>2017-06-24T09:51:15Z</time>
      </trkpt>
      <trkpt lat="44.877990" lon="-0.630360">
        <time>2017-06-24T09:51:16Z</time>
      </trkpt>
      <trkpt lat="44.878050" lon="-0.630260">
        <time>2017-06-24T09:51:17Z</time>
      </trkpt>
      <trkpt lat="44.878110" lon="-0.630170">
        <time>2017-06-24T09:51:18Z</time>
      </trkpt>
      <trkpt lat="44.878170" lon="-0.630060">
        <time>2017-06-24T09:51:19Z</time>
      </trkpt>
      <trkpt lat="44.878220" lon="-0.629970">
        <time>2017-06-24T09:51:20Z</time>
      </trkpt>
      <trkpt lat="44.878270" lon="-0.629880">
        <time>2017-06-24T09:51:21Z</time>
      </trkpt>
      <trkpt lat="44.878310" lon="-0.629810">
        <time>2017-06-24T09:51:22Z</time>
      </trkpt>
      <trkpt lat="44.878350" lon="-0.629770">
        <time>2017-06-24T09:51:23Z</time>
      </trkpt>
      <trkpt lat="44.878370" lon="-0.629720">
        <time>2017-06-24T09:51:24Z</time>
      </trkpt>
      <trkpt lat="44.878390" lon="-0.629690">
        <time>2017-06-24T09:51:25Z</time>
      </trkpt>
      <trkpt lat="44.878410" lon="-0.629670">
        <time>2017-06-24T09:51:26Z</time>
      </trkpt>
      <trkpt lat="44.878430" lon="-0.629640">
        <time>2017-06-24T09:51:27Z</time>
      </trkpt>
      <trkpt lat="44.878440" lon="-0.629630">
        <time>2017-06-24T09:51:28Z</time>
      </trkpt>
      <trkpt lat="44.878450" lon="-0.629620">
        <time>2017-06-24T09:51:29Z</time>
      </trkpt>
      <trkpt lat="44.878460" lon="-0.629610">
        <time>2017-06-24T09:51:30Z</time>
      </trkpt>
      <trkpt lat="44.878470" lon="-0.629600">
        <time>2017-06-24T09:51:31Z</time>
      </trkpt>
      <trkpt lat="44.878490" lon="-0.629570">
        <time>2017-06-24T09:51:32Z</time>
      </trkpt>
      <trkpt lat="44.878510" lon="-0.629530">
        <time>2017-06-24T09:51:33Z</time>
      </trkpt>
      <trkpt lat="44.878530" lon="-0.629480">
        <time>2017-06-24T09:51:34Z</time>
      </trkpt>
      <trkpt lat="44.878550" lon="-0.629430">
        <time>2017-06-24T09:51:35Z</time>
      </trkpt>
      <trkpt lat="44.878590" lon="-0.629370">
        <time>2017-06-24T09:51:36Z</time>
      </trkpt>
      <trkpt lat="44.878630" lon="-0.629300">
        <time>2017-06-24T09:51:37Z</time>
      </trkpt>
      <trkpt lat="44.878660" lon="-0.629260">
        <time>2017-06-24T09:51:38Z</time>
      </trkpt>
      <trkpt lat="44.878670" lon="-0.629230">
        <time>2017-06-24T09:51:39Z</time>
      </trkpt>
      <trkpt lat="44.878680" lon="-0.629200">
        <time>2017-06-24T09:51:40Z</time>
      </trkpt>
      <trkpt lat="44.878690" lon="-0.629190">
        <time>2017-06-24T09:51:41Z</time>
      </trkpt>
      <trkpt lat="44.878700" lon="-0.629160">
        <time>2017-06-24T09:51:42Z</time>
      </trkpt>
      <trkpt lat="44.878720" lon="-0.629120">
        <time>2017-06-24T09:51:43Z</time>
      </trkpt>
      <trkpt lat="44.878750" lon="-0.629080">
        <time>2017-06-24T09:51:44Z</time>
      </trkpt>
      <trkpt lat="44.878790" lon="-0.629010">
        <time>2017-06-24T09:51:45Z</time>
      </trkpt>
      <trkpt lat="44.878860" lon="-0.628920">
        <time>2017-06-24T09:51:46Z</time>
      </trkpt>
      <trkpt lat="44.878920" lon="-0.628810">
        <time>2017-06-24T09:51:47Z</time>
      </trkpt>
      <trkpt lat="44.879000" lon="-0.628670">
        <time>2017-06-24T09:51:48Z</time>
      </trkpt>
      <trkpt lat="44.879080" lon="-0.628540">
        <time>2017-06-24T09:51:49Z</time>
      </trkpt>
      <trkpt lat="44.879160" lon="-0.628400">
        <time>2017-06-24T09:51:50Z</time>
      </trkpt>
      <trkpt lat="44.879260" lon="-0.628230">
        <time>2017-06-24T09:51:51Z</time>
      </trkpt>
      <trkpt lat="44.879340" lon="-0.628070">
        <time>2017-06-24T09:51:52Z</time>
      </trkpt>
      <trkpt lat="44.879440" lon="-0.627910">
        <time>2017-06-24T09:51:53Z</time>
      </trkpt>
      <trkpt lat="44.879530" lon="-0.627760">
        <time>2017-06-24T09:51:54Z</time>
      </trkpt>
      <trkpt lat="44.879610" lon="-0.627620">
        <time>2017-06-24T09:51:55Z</time>
      </trkpt>
      <trkpt lat="44.879710" lon="-0.627450">
        <time>2017-06-24T09:51:56Z</time>
      </trkpt>
      <trkpt lat="44.879780" lon="-0.627330">
        <time>2017-06-24T09:51:57Z</time>
      </trkpt>
      <trkpt lat="44.879860" lon="-0.627180">
        <time>2017-06-24T09:51:58Z</time>
      </trkpt>
      <trkpt lat="44.879940" lon="-0.627030">
        <time>2017-06-24T09:51:59Z</time>
      </trkpt>
      <trkpt lat="44.880010" lon="-0.626910">
        <time>2017-06-24T09:52:00Z</time>
      </trkpt>
      <trkpt lat="44.880080" lon="-0.626790">
        <time>2017-06-24T09:52:01Z</time>
      </trkpt>
      <trkpt lat="44.880140" lon="-0.626670">
        <time>2017-06-24T09:52:02Z</time>
      </trkpt>
      <trkpt lat="44.880220" lon="-0.626540">
        <time>2017-06-24T09:52:03Z</time>
      </trkpt>
      <trkpt lat="44.880290" lon="-0.626410">
        <time>2017-06-24T09:52:04Z</time>
      </trkpt>
      <trkpt lat="44.880360" lon="-0.626300">
        <time>2017-06-24T09:52:05Z</time>
      </trkpt>
      <trkpt lat="44.880430" lon="-0.626160">
        <time>2017-06-24T09:52:06Z</time>
      </trkpt>
      <trkpt lat="44.880520" lon="-0.626020">
        <time>2017-06-24T09:52:07Z</time>
      </trkpt>
      <trkpt lat="44.880580" lon="-0.625900">
        <time>2017-06-24T09:52:08Z</time>
      </trkpt>
      <trkpt lat="44.880660" lon="-0.625770">
        <time>2017-06-24T09:52:09Z</time>
      </trkpt>
      <trkpt lat="44.880740" lon="-0.625620">
        <time>2017-06-24T09:52:10Z</time>
      </trkpt>
      <trkpt lat="44.880810" lon="-0.625500">
        <time>2017-06-24T09:52:11Z</time>
      </trkpt>
      <trkpt lat="44.880890" lon="-0.625360">
        <time>2017-06-24T09:52:12Z</time>
      </trkpt>
      <trkpt lat="44.880970" lon="-0.625240">
        <time>2017-06-24T09:52:13Z</time>
      </trkpt>
      <trkpt lat="44.881040" lon="-0.625100">
        <time>2017-06-24T09:52:14Z</time>
      </trkpt>
      <trkpt lat="44.881120" lon="-0.624980">
        <time>2017-06-24T09:52:15Z</time>
      </trkpt>
      <trkpt lat="44.881190" lon="-0.624870">
        <time>2017-06-24T09:52:16Z</time>
      </trkpt>
      <trkpt lat="44.881280" lon="-0.624750">
        <time>2017-06-24T09:52:17Z</time>
      </trkpt>
      <trkpt lat="44.881360" lon="-0.624620">
        <time>2017-06-24T09:52:18Z</time>
      </trkpt>
      <trkpt lat="44.881440" lon="-0.624510">
        <time>2017-06-24T09:52:19Z</time>
      </trkpt>
      <trkpt lat="44.881520" lon="-0.624400">
        <time>2017-06-24T09:52:20Z</time>
      </trkpt>
      <trkpt lat="44.881590" lon="-0.624290">
        <time>2017-06-24T09:52:21Z</time>
      </trkpt>
      <trkpt lat="44.881670" lon="-0.624190">
        <time>2017-06-24T09:52:22Z</time>
      </trkpt>
      <trkpt lat="44.881750" lon="-0.624070">
        <time>2017-06-24T09:52:23Z</time>
      </trkpt>
      <trkpt lat="44.881820" lon="-0.623970">
        <time>2017-06-24T09:52:24Z</time>
      </trkpt>
      <trkpt lat="44.881900" lon="-0.623870">
        <time>2017-06-24T09:52:25Z</time>
      </trkpt>
      <trkpt lat="44.881990" lon="-0.623760">
        <time>2017-06-24T09:52:26Z</time>
      </trkpt>
      <trkpt lat="44.882060" lon="-0.623670">
        <time>2017-06-24T09:52:27Z</time>
      </trkpt>
      <trkpt lat="44.882160" lon="-0.623570">
        <time>2017-06-24T09:52:28Z</time>
      </trkpt>
      <trkpt lat="44.882240" lon="-0.623490">
        <time>2017-06-24T09:52:29Z</time>
      </trkpt>
      <trkpt lat="44.882320" lon="-0.623410">
        <time>2017-06-24T09:52:30Z</time>
      </trkpt>
      <trkpt lat="44.882400" lon="-0.623340">
        <time>2017-06-24T09:52:31Z</time>
      </trkpt>
      <trkpt lat="44.882460" lon="-0.623280">
        <time>2017-06-24T09:52:32Z</time>
      </trkpt>
      <trkpt lat="44.882520" lon="-0.623220">
        <time>2017-06-24T09:52:33Z</time>
      </trkpt>
      <trkpt lat="44.882580" lon="-0.623160">
        <time>2017-06-24T09:52:34Z</time>
      </trkpt>
      <trkpt lat="44.882640" lon="-0.623100">
        <time>2017-06-24T09:52:35Z</time>
      </trkpt>
      <trkpt lat="44.882710" lon="-0.623030">
        <time>2017-06-24T09:52:36Z</time>
      </trkpt>
      <trkpt lat="44.882780" lon="-0.622970">
        <time>2017-06-24T09:52:37Z</time>
      </trkpt>
      <trkpt lat="44.882840" lon="-0.622920">
        <time>2017-06-24T09:52:38Z</time>
      </trkpt>
      <trkpt lat="44.882900" lon="-0.622870">
        <time>2017-06-24T09:52:39Z</time>
      </trkpt>
      <trkpt lat="44.882950" lon="-0.622830">
        <time>2017-06-24T09:52:40Z</time>
      </trkpt>
      <trkpt lat="44.883000" lon="-0.622800">
        <time>2017-06-24T09:52:41Z</time>
      </trkpt>
      <trkpt lat="44.883050" lon="-0.622760">
        <time>2017-06-24T09:52:42Z</time>
      </trkpt>
      <trkpt lat="44.883100" lon="-0.622740">
        <time>2017-06-24T09:52:43Z</time>
      </trkpt>
      <trkpt lat="44.883160" lon="-0.622700">
        <time>2017-06-24T09:52:44Z</time>
      </trkpt>
      <trkpt lat="44.883230" lon="-0.622660">
        <time>2017-06-24T09:52:45Z</time>
      </trkpt>
      <trkpt lat="44.883320" lon="-0.622620">
        <time>2017-06-24T09:52:46Z</time>
      </trkpt>
      <trkpt lat="44.883410" lon="-0.622560">
        <time>2017-06-24T09:52:47Z</time>
      </trkpt>
      <trkpt lat="44.883500" lon="-0.622500">
        <time>2017-06-24T09:52:48Z</time>
      </trkpt>
      <trkpt lat="44.883570" lon="-0.622460">
        <time>2017-06-24T09:52:49Z</time>
      </trkpt>
      <trkpt lat="44.883620" lon="-0.622420">
        <time>2017-06-24T09:52:50Z</time>
      </trkpt>
      <trkpt lat="44.883660" lon="-0.622390">
        <time>2017-06-24T09:52:51Z</time>
      </trkpt>
      <trkpt lat="44.883710" lon="-0.622340">
        <time>2017-06-24T09:52:52Z</time>
      </trkpt>
      <trkpt lat="44.883770" lon="-0.622310">
        <time>2017-06-24T09:52:53Z</time>
      </trkpt>
      <trkpt lat="44.883830" lon="-0.622290">
        <time>2017-06-24T09:52:54Z</time>
      </trkpt>
      <trkpt lat="44.883900" lon="-0.622250">
        <time>2017-06-24T09:52:55Z</time>
      </trkpt>
      <trkpt lat="44.883960" lon="-0.622220">
        <time>2017-06-24T09:52:56Z</time>
      </trkpt>
      <trkpt lat="44.884030" lon="-0.622180">
        <time>2017-06-24T09:52:57Z</time>
      </trkpt>
      <trkpt lat="44.884110" lon="-0.622150">
        <time>2017-06-24T09:52:58Z</time>
      </trkpt>
      <trkpt lat="44.884200" lon="-0.622120">
        <time>2017-06-24T09:52:59Z</time>
      </trkpt>
      <trkpt lat="44.884310" lon="-0.622070">
        <time>2017-06-24T09:53:00Z</time>
      </trkpt>
      <trkpt lat="44.884400" lon="-0.622020">
        <time>2017-06-24T09:53:01Z</time>
      </trkpt>
      <trkpt lat="44.884500" lon="-0.621980">
        <time>2017-06-24T09:53:02Z</time>
      </trkpt>
      <trkpt lat="44.884600" lon="-0.621940">
        <time>2017-06-24T09:53:03Z</time>
      </trkpt>
      <trkpt lat="44.884690" lon="-0.621910">
        <time>2017-06-24T09:53:04Z</time>
      </trkpt>
      <trkpt lat="44.884800" lon="-0.621870">
        <time>2017-06-24T09:53:05Z</time>
      </trkpt>
      <trkpt lat="44.884910" lon="-0.621820">
        <time>2017-06-24T09:53:06Z</time>
      </trkpt>
      <trkpt lat="44.885030" lon="-0.621770">
        <time>2017-06-24T09:53:07Z</time>
      </trkpt>
      <trkpt lat="44.885150" lon="-0.621720">
        <time>2017-06-24T09:53:08Z</time>
      </trkpt>
      <trkpt lat="44.885240" lon="-0.621670">
        <time>2017-06-24T09:53:09Z</time>
      </trkpt>
      <trkpt lat="44.885350" lon="-0.621630">
        <time>2017-06-24T09:53:10Z</time>
      </trkpt>
      <trkpt lat="44.885460" lon="-0.621580">
        <time>2017-06-24T09:53:11Z</time>
      </trkpt>
      <trkpt lat="44.885570" lon="-0.621520">
        <time>2017-06-24T09:53:12Z</time>
      </trkpt>
      <trkpt lat="44.885680" lon="-0.621470">
        <time>2017-06-24T09:53:13Z</time>
      </trkpt>
      <trkpt lat="44.885800" lon="-0.621420">
        <time>2017-06-24T09:53:14Z</time>
      </trkpt>
      <trkpt lat="44.885900" lon="-0.621370">
        <time>2017-06-24T09:53:15Z</time>
      </trkpt>
      <trkpt lat="44.886010" lon="-0.621310">
        <time>2017-06-24T09:53:16Z</time>
      </trkpt>
      <trkpt lat="44.886120" lon="-0.621250">
        <time>2017-06-24T09:53:17Z</time>
      </trkpt>
      <trkpt lat="44.886220" lon="-0.621190">
        <time>2017-06-24T09:53:18Z</time>
      </trkpt>
      <trkpt lat="44.886330" lon="-0.621130">
        <time>2017-06-24T09:53:19Z</time>
      </trkpt>
      <trkpt lat="44.886440" lon="-0.621060">
        <time>2017-06-24T09:53:20Z</time>
      </trkpt>
      <trkpt lat="44.886560" lon="-0.620990">
        <time>2017-06-24T09:53:21Z</time>
      </trkpt>
      <trkpt lat="44.886680" lon="-0.620920">
        <time>2017-06-24T09:53:22Z</time>
      </trkpt>
      <trkpt lat="44.886810" lon="-0.620840">
        <time>2017-06-24T09:53:23Z</time>
      </trkpt>
      <trkpt lat="44.886940" lon="-0.620740">
        <time>2017-06-24T09:53:24Z</time>
      </trkpt>
      <trkpt lat="44.887040" lon="-0.620650">
        <time>2017-06-24T09:53:25Z</time>
      </trkpt>
      <trkpt lat="44.887150" lon="-0.620560">
        <time>2017-06-24T09:53:26Z</time>
      </trkpt>
      <trkpt lat="44.887250" lon="-0.620460">
        <time>2017-06-24T09:53:27Z</time>
      </trkpt>
      <trkpt lat="44.887340" lon="-0.620380">
        <time>2017-06-24T09:53:28Z</time>
      </trkpt>
      <trkpt lat="44.887430" lon="-0.620290">
        <time>2017-06-24T09:53:29Z</time>
      </trkpt>
      <trkpt lat="44.887530" lon="-0.620190">
        <time>2017-06-24T09:53:30Z</time>
      </trkpt>
      <trkpt lat="44.887620" lon="-0.620110">
        <time>2017-06-24T09:53:31Z</time>
      </trkpt>
      <trkpt lat="44.887700" lon="-0.620010">
        <time>2017-06-24T09:53:32Z</time>
      </trkpt>
      <trkpt lat="44.887770" lon="-0.619930">
        <time>2017-06-24T09:53:33Z</time>
      </trkpt>
      <trkpt lat="44.887850" lon="-0.619860">
        <time>2017-06-24T09:53:34Z</time>
      </trkpt>
      <trkpt lat="44.887930" lon="-0.619770">
        <time>2017-06-24T09:53:35Z</time>
      </trkpt>
      <trkpt lat="44.888000" lon="-0.619700">
        <time>2017-06-24T09:53:36Z</time>
      </trkpt>
      <trkpt lat="44.888060" lon="-0.619620">
        <time>2017-06-24T09:53:37Z</time>
      </trkpt>
      <trkpt lat="44.888120" lon="-0.619540">
        <time>2017-06-24T09:53:38Z</time>
      </trkpt>
      <trkpt lat="44.888180" lon="-0.619460">
        <time>2017-06-24T09:53:39Z</time>
      </trkpt>
      <trkpt lat="44.888240" lon="-0.619370">
        <time>2017-06-24T09:53:40Z</time>
      </trkpt>
      <trkpt lat="44.888290" lon="-0.619290">
        <time>2017-06-24T09:53:41Z</time>
      </trkpt>
      <trkpt lat="44.888350" lon="-0.619210">
        <time>2017-06-24T09:53:42Z</time>
      </trkpt>
      <trkpt lat="44.888420" lon="-0.619100">
        <time>2017-06-24T09:53:43Z</time>
      </trkpt>
      <trkpt lat="44.888490" lon="-0.619010">
        <time>2017-06-24T09:53:44Z</time>
      </trkpt>
      <trkpt lat="44.888540" lon="-0.618920">
        <time>2017-06-24T09:53:45Z</time>
      </trkpt>
      <trkpt lat="44.888600" lon="-0.618840">
        <time>2017-06-24T09:53:46Z</time>
      </trkpt>
      <trkpt lat="44.888640" lon="-0.618760">
        <time>2017-06-24T09:53:47Z</time>
      </trkpt>
      <trkpt lat="44.888690" lon="-0.618670">
        <time>2017-06-24T09:53:48Z</time>
      </trkpt>
      <trkpt lat="44.888730" lon="-0.618600">
        <time>2017-06-24T09:53:49Z</time>
      </trkpt>
      <trkpt lat="44.888770" lon="-0.618530">
        <time>2017-06-24T09:53:50Z</time>
      </trkpt>
      <trkpt lat="44.888810" lon="-0.618440">
        <time>2017-06-24T09:53:51Z</time>
      </trkpt>
      <trkpt lat="44.888840" lon="-0.618390">
        <time>2017-06-24T09:53:52Z</time>
      </trkpt>
      <trkpt lat="44.888850" lon="-0.618370">
        <time>2017-06-24T09:53:53Z</time>
      </trkpt>
      <trkpt lat="44.888860" lon="-0.618360">
        <time>2017-06-24T09:53:54Z</time>
      </trkpt>
      <trkpt lat="44.888870" lon="-0.618340">
        <time>2017-06-24T09:53:55Z</time>
      </trkpt>
      <trkpt lat="44.888890" lon="-0.618320">
        <time>2017-06-24T09:53:56Z</time>
      </trkpt>
      <trkpt lat="44.888910" lon="-0.618290">
        <time>2017-06-24T09:53:57Z</time>
      </trkpt>
      <trkpt lat="44.888940" lon="-0.618230">
        <time>2017-06-24T09:53:58Z</time>
      </trkpt>
      <trkpt lat="44.888980" lon="-0.618150">
        <time>2017-06-24T09:53:59Z</time>
      </trkpt>
      <trkpt lat="44.889020" lon="-0.618080">
        <time>2017-06-24T09:54:00Z</time>
      </trkpt>
      <trkpt lat="44.889060" lon="-0.618000">
        <time>2017-06-24T09:54:01Z</time>
      </trkpt>
      <trkpt lat="44.889090" lon="-0.617900">
        <time>2017-06-24T09:54:02Z</time>
      </trkpt>
      <trkpt lat="44.889130" lon="-0.617820">
        <time>2017-06-24T09:54:03Z</time>
      </trkpt>
      <trkpt lat="44.889170" lon="-0.617730">
        <time>2017-06-24T09:54:04Z</time>
      </trkpt>
      <trkpt lat="44.889210" lon="-0.617650">
        <time>2017-06-24T09:54:05Z</time>
      </trkpt>
      <trkpt lat="44.889250" lon="-0.617550">
        <time>2017-06-24T09:54:06Z</time>
      </trkpt>
      <trkpt lat="44.889300" lon="-0.617430">
        <time>2017-06-24T09:54:07Z</time>
      </trkpt>
      <trkpt lat="44.889340" lon="-0.617320">
        <time>2017-06-24T09:54:08Z</time>
      </trkpt>
      <trkpt lat="44.889380" lon="-0.617190">
        <time>2017-06-24T09:54:09Z</time>
      </trkpt>
      <trkpt lat="44.889430" lon="-0.617070">
        <time>2017-06-24T09:54:10Z</time>
      </trkpt>
      <trkpt lat="44.889480" lon="-0.616930">
        <time>2017-06-24T09:54:11Z</time>
      </trkpt>
      <trkpt lat="44.889520" lon="-0.616810">
        <time>2017-06-24T09:54:12Z</time>
      </trkpt>
      <trkpt lat="44.889550" lon="-0.616710">
        <time>2017-06-24T09:54:13Z</time>
      </trkpt>
      <trkpt lat="44.889580" lon="-0.616600">
        <time>2017-06-24T09:54:14Z</time>
      </trkpt>
      <trkpt lat="44.889610" lon="-0.616500">
        <time>2017-06-24T09:54:15Z</time>
      </trkpt>
      <trkpt lat="44.889630" lon="-0.616410">
        <time>2017-06-24T09:54:16Z</time>
      </trkpt>
      <trkpt lat="44.889660" lon="-0.616300">
        <time>2017-06-24T09:54:17Z</time>
      </trkpt>
      <trkpt lat="44.889690" lon="-0.616190">
        <time>2017-06-24T09:54:18Z</time>
      </trkpt>
      <trkpt lat="44.889700" lon="-0.616100">
        <time>2017-06-24T09:54:19Z</time>
      </trkpt>
      <trkpt lat="44.889730" lon="-0.616000">
        <time>2017-06-24T09:54:20Z</time>
      </trkpt>
      <trkpt lat="44.889750" lon="-0.615900">
        <time>2017-06-24T09:54:21Z</time>
      </trkpt>
      <trkpt lat="44.889770" lon="-0.615800">
        <time>2017-06-24T09:54:22Z</time>
      </trkpt>
      <trkpt lat="44.889790" lon="-0.615690">
        <time>2017-06-24T09:54:23Z</time>
      </trkpt>
      <trkpt lat="44.889810" lon="-0.615580">
        <time>2017-06-24T09:54:24Z</time>
      </trkpt>
      <trkpt lat="44.889830" lon="-0.615460">
        <time>2017-06-24T09:54:25Z</time>
      </trkpt>
      <trkpt lat="44.889850" lon="-0.615340">
        <time>2017-06-24T09:54:26Z</time>
      </trkpt>
      <trkpt lat="44.889870" lon="-0.615230">
        <time>2017-06-24T09:54:27Z</time>
      </trkpt>
      <trkpt lat="44.889880" lon="-0.615090">
        <time>2017-06-24T09:54:28Z</time>
      </trkpt>
      <trkpt lat="44.889900" lon="-0.614970">
        <time>2017-06-24T09:54:29Z</time>
      </trkpt>
      <trkpt lat="44.889920" lon="-0.614820">
        <time>2017-06-24T09:54:30Z</time>
      </trkpt>
      <trkpt lat="44.889940" lon="-0.614660">
        <time>2017-06-24T09:54:31Z</time>
      </trkpt>
      <trkpt lat="44.889950" lon="-0.614520">
        <time>2017-06-24T09:54:32Z</time>
      </trkpt>
      <trkpt lat="44.889960" lon="-0.614380">
        <time>2017-06-24T09:54:33Z</time>
      </trkpt>
      <trkpt lat="44.889970" lon="-0.614250">
        <time>2017-06-24T09:54:34Z</time>
      </trkpt>
      <trkpt lat="44.889980" lon="-0.614130">
        <time>2017-06-24T09:54:35Z</time>
      </trkpt>
      <trkpt lat="44.889980" lon="-0.614000">
        <time>2017-06-24T09:54:36Z</time>
      </trkpt>
      <trkpt lat="44.889990" lon="-0.613880">
        <time>2017-06-24T09:54:37Z</time>
      </trkpt>
      <trkpt lat="44.889990" lon="-0.613750">
        <time>2017-06-24T09:54:38Z</time>
      </trkpt>
      <trkpt lat="44.889990" lon="-0.613620">
        <time>2017-06-24T09:54:39Z</time>
      </trkpt>
      <trkpt lat="44.889990" lon="-0.613510">
        <time>2017-06-24T09:54:40Z</time>
      </trkpt>
      <trkpt lat="44.889990" lon="-0.613380">
        <time>2017-06-24T09:54:41Z</time>
      </trkpt>
      <trkpt lat="44.889990" lon="-0.613250">
        <time>2017-06-24T09:54:42Z</time>
      </trkpt>
      <trkpt lat="44.889990" lon="-0.613120">
        <time>2017-06-24T09:54:43Z</time>
      </trkpt>
      <trkpt lat="44.889980" lon="-0.612990">
        <time>2017-06-24T09:54:44Z</time>
      </trkpt>
      <trkpt lat="44.889980" lon="-0.612880">
        <time>2017-06-24T09:54:45Z</time>
      </trkpt>
      <trkpt lat="44.889980" lon="-0.612760">
        <time>2017-06-24T09:54:46Z</time>
      </trkpt>
      <trkpt lat="44.889980" lon="-0.612640">
        <time>2017-06-24T09:54:47Z</time>
      </trkpt>
      <trkpt lat="44.889970" lon="-0.612530">
        <time>2017-06-24T09:54:48Z</time>
      </trkpt>
      <trkpt lat="44.889970" lon="-0.612420">
        <time>2017-06-24T09:54:49Z</time>
      </trkpt>
      <trkpt lat="44.889960" lon="-0.612300">
        <time>2017-06-24T09:54:50Z</time>
      </trkpt>
      <trkpt lat="44.889960" lon="-0.612200">
        <time>2017-06-24T09:54:51Z</time>
      </trkpt>
      <trkpt lat="44.889950" lon="-0.612080">
        <time>2017-06-24T09:54:52Z</time>
      </trkpt>
      <trkpt lat="44.889950" lon="-0.611970">
        <time>2017-06-24T09:54:53Z</time>
      </trkpt>
      <trkpt lat="44.889940" lon="-0.611860">
        <time>2017-06-24T09:54:54Z</time>
      </trkpt>
      <trkpt lat="44.889930" lon="-0.611720">
        <time>2017-06-24T09:54:55Z</time>
      </trkpt>
      <trkpt lat="44.889930" lon="-0.611580">
        <time>2017-06-24T09:54:56Z</time>
      </trkpt>
      <trkpt lat="44.889910" lon="-0.611430">
        <time>2017-06-24T09:54:57Z</time>
      </trkpt>
      <trkpt lat="44.889900" lon="-0.611280">
        <time>2017-06-24T09:54:58Z</time>
      </trkpt>
      <trkpt lat="44.889900" lon="-0.611130">
        <time>2017-06-24T09:54:59Z</time>
      </trkpt>
      <trkpt lat="44.889890" lon="-0.610980">
        <time>2017-06-24T09:55:00Z</time>
      </trkpt>
      <trkpt lat="44.889880" lon="-0.610850">
        <time>2017-06-24T09:55:01Z</time>
      </trkpt>
      <trkpt lat="44.889870" lon="-0.610710">
        <time>2017-06-24T09:55:02Z</time>
      </trkpt>
      <trkpt lat="44.889860" lon="-0.610580">
        <time>2017-06-24T09:55:03Z</time>
      </trkpt>
      <trkpt lat="44.889850" lon="-0.610470">
        <time>2017-06-24T09:55:04Z</time>
      </trkpt>
      <trkpt lat="44.889840" lon="-0.610360">
        <time>2017-06-24T09:55:05Z</time>
      </trkpt>
      <trkpt lat="44.889840" lon="-0.610240">
        <time>2017-06-24T09:55:06Z</time>
      </trkpt>
      <trkpt lat="44.889820" lon="-0.610130">
        <time>2017-06-24T09:55:07Z</time>
      </trkpt>
      <trkpt lat="44.889800" lon="-0.610000">
        <time>2017-06-24T09:55:08Z</time>
      </trkpt>
      <trkpt lat="44.889800" lon="-0.609880">
        <time>2017-06-24T09:55:09Z</time>
      </trkpt>
      <trkpt lat="44.889790" lon="-0.609740">
        <time>2017-06-24T09:55:10Z</time>
      </trkpt>
      <trkpt lat="44.889770" lon="-0.609580">
        <time>2017-06-24T09:55:11Z</time>
      </trkpt>
      <trkpt lat="44.889760" lon="-0.609450">
        <time>2017-06-24T09:55:12Z</time>
      </trkpt>
      <trkpt lat="44.889750" lon="-0.609310">
        <time>2017-06-24T09:55:13Z</time>
      </trkpt>
      <trkpt lat="44.889740" lon="-0.609180">
        <time>2017-06-24T09:55:14Z</time>
      </trkpt>
      <trkpt lat="44.889740" lon="-0.609050">
        <time>2017-06-24T09:55:15Z</time>
      </trkpt>
      <trkpt lat="44.889730" lon="-0.608930">
        <time>2017-06-24T09:55:16Z</time>
      </trkpt>
      <trkpt lat="44.889730" lon="-0.608820">
        <time>2017-06-24T09:55:17Z</time>
      </trkpt>
      <trkpt lat="44.889720" lon="-0.608690">
        <time>2017-06-24T09:55:18Z</time>
      </trkpt>
      <trkpt lat="44.889710" lon="-0.608550">
        <time>2017-06-24T09:55:19Z</time>
      </trkpt>
      <trkpt lat="44.889700" lon="-0.608420">
        <time>2017-06-24T09:55:20Z</time>
      </trkpt>
      <trkpt lat="44.889690" lon="-0.608270">
        <time>2017-06-24T09:55:21Z</time>
      </trkpt>
      <trkpt lat="44.889680" lon="-0.608110">
        <time>2017-06-24T09:55:22Z</time>
      </trkpt>
      <trkpt lat="44.889680" lon="-0.607990">
        <time>2017-06-24T09:55:23Z</time>
      </trkpt>
      <trkpt lat="44.889670" lon="-0.607860">
        <time>2017-06-24T09:55:24Z</time>
      </trkpt>
      <trkpt lat="44.889660" lon="-0.607750">
        <time>2017-06-24T09:55:25Z</time>
      </trkpt>
      <trkpt lat="44.889650" lon="-0.607640">
        <time>2017-06-24T09:55:26Z</time>
      </trkpt>
      <trkpt lat="44.889650" lon="-0.607550">
        <time>2017-06-24T09:55:27Z</time>
      </trkpt>
      <trkpt lat="44.889640" lon="-0.607460">
        <time>2017-06-24T09:55:28Z</time>
      </trkpt>
      <trkpt lat="44.889640" lon="-0.607380">
        <time>2017-06-24T09:55:29Z</time>
      </trkpt>
      <trkpt lat="44.889630" lon="-0.607300">
        <time>2017-06-24T09:55:30Z</time>
      </trkpt>
      <trkpt lat="44.889620" lon="-0.607220">
        <time>2017-06-24T09:55:31Z</time>
      </trkpt>
      <trkpt lat="44.889610" lon="-0.607140">
        <time>2017-06-24T09:55:32Z</time>
      </trkpt>
      <trkpt lat="44.889600" lon="-0.607060">
        <time>2017-06-24T09:55:33Z</time>
      </trkpt>
      <trkpt lat="44.889580" lon="-0.606960">
        <time>2017-06-24T09:55:34Z</time>
      </trkpt>
      <trkpt lat="44.889570" lon="-0.606880">
        <time>2017-06-24T09:55:35Z</time>
      </trkpt>
      <trkpt lat="44.889570" lon="-0.606800">
        <time>2017-06-24T09:55:36Z</time>
      </trkpt>
      <trkpt lat="44.889560" lon="-0.606730">
        <time>2017-06-24T09:55:37Z</time>
      </trkpt>
      <trkpt lat="44.889560" lon="-0.606640">
        <time>2017-06-24T09:55:38Z</time>
      </trkpt>
      <trkpt lat="44.889550" lon="-0.606560">
        <time>2017-06-24T09:55:39Z</time>
      </trkpt>
      <trkpt lat="44.889540" lon="-0.606470">
        <time>2017-06-24T09:55:40Z</time>
      </trkpt>
      <trkpt lat="44.889540" lon="-0.606370">
        <time>2017-06-24T09:55:41Z</time>
      </trkpt>
      <trkpt lat="44.889530" lon="-0.606290">
        <time>2017-06-24T09:55:42Z</time>
      </trkpt>
      <trkpt lat="44.889530" lon="-0.606200">
        <time>2017-06-24T09:55:43Z</time>
      </trkpt>
      <trkpt lat="44.889520" lon="-0.606130">
        <time>2017-06-24T09:55:44Z</time>
      </trkpt>
      <trkpt lat="44.889510" lon="-0.606050">
        <time>2017-06-24T09:55:45Z</time>
      </trkpt>
      <trkpt lat="44.889510" lon="-0.605940">
        <time>2017-06-24T09:55:46Z</time>
      </trkpt>
      <trkpt lat="44.889520" lon="-0.605810">
        <time>2017-06-24T09:55:47Z</time>
      </trkpt>
      <trkpt lat="44.889520" lon="-0.605650">
        <time>2017-06-24T09:55:48Z</time>
      </trkpt>
      <trkpt lat="44.889510" lon="-0.605490">
        <time>2017-06-24T09:55:49Z</time>
      </trkpt>
      <trkpt lat="44.889500" lon="-0.605320">
        <time>2017-06-24T09:55:50Z</time>
      </trkpt>
      <trkpt lat="44.889480" lon="-0.605140">
        <time>2017-06-24T09:55:51Z</time>
      </trkpt>
      <trkpt lat="44.889470" lon="-0.604980">
        <time>2017-06-24T09:55:52Z</time>
      </trkpt>
      <trkpt lat="44.889450" lon="-0.604800">
        <time>2017-06-24T09:55:53Z</time>
      </trkpt>
      <trkpt lat="44.889440" lon="-0.604600">
        <time>2017-06-24T09:55:54Z</time>
      </trkpt>
      <trkpt lat="44.889430" lon="-0.604430">
        <time>2017-06-24T09:55:55Z</time>
      </trkpt>
      <trkpt lat="44.889420" lon="-0.604250">
        <time>2017-06-24T09:55:56Z</time>
      </trkpt>
      <trkpt lat="44.889400" lon="-0.604100">
        <time>2017-06-24T09:55:57Z</time>
      </trkpt>
      <trkpt lat="44.889380" lon="-0.603930">
        <time>2017-06-24T09:55:58Z</time>
      </trkpt>
      <trkpt lat="44.889360" lon="-0.603740">
        <time>2017-06-24T09:55:59Z</time>
      </trkpt>
      <trkpt lat="44.889340" lon="-0.603570">
        <time>2017-06-24T09:56:00Z</time>
      </trkpt>
      <trkpt lat="44.889330" lon="-0.603400">
        <time>2017-06-24T09:56:01Z</time>
      </trkpt>
      <trkpt lat="44.889320" lon="-0.603240">
        <time>2017-06-24T09:56:02Z</time>
      </trkpt>
      <trkpt lat="44.889310" lon="-0.603070">
        <time>2017-06-24T09:56:03Z</time>
      </trkpt>
      <trkpt lat="44.889290" lon="-0.602890">
        <time>2017-06-24T09:56:04Z</time>
      </trkpt>
      <trkpt lat="44.889290" lon="-0.602730">
        <time>2017-06-24T09:56:05Z</time>
      </trkpt>
      <trkpt lat="44.889280" lon="-0.602560">
        <time>2017-06-24T09:56:06Z</time>
      </trkpt>
      <trkpt lat="44.889280" lon="-0.602360">
        <time>2017-06-24T09:56:07Z</time>
      </trkpt>
      <trkpt lat="44.889280" lon="-0.602180">
        <time>2017-06-24T09:56:08Z</time>
      </trkpt>
      <trkpt lat="44.889260" lon="-0.601980">
        <time>2017-06-24T09:56:09Z</time>
      </trkpt>
      <trkpt lat="44.889250" lon="-0.601790">
        <time>2017-06-24T09:56:10Z</time>
      </trkpt>
      <trkpt lat="44.889240" lon="-0.601620">
        <time>2017-06-24T09:56:11Z</time>
      </trkpt>
      <trkpt lat="44.889230" lon="-0.601420">
        <time>2017-06-24T09:56:12Z</time>
      </trkpt>
      <trkpt lat="44.889220" lon="-0.601230">
        <time>2017-06-24T09:56:13Z</time>
      </trkpt>
      <trkpt lat="44.889200" lon="-0.601010">
        <time>2017-06-24T09:56:14Z</time>
      </trkpt>
      <trkpt lat="44.889180" lon="-0.600780">
        <time>2017-06-24T09:56:15Z</time>
      </trkpt>
      <trkpt lat="44.889160" lon="-0.600560">
        <time>2017-06-24T09:56:16Z</time>
      </trkpt>
      <trkpt lat="44.889130" lon="-0.600330">
        <time>2017-06-24T09:56:17Z</time>
      </trkpt>
      <trkpt lat="44.889110" lon="-0.600110">
        <time>2017-06-24T09:56:18Z</time>
      </trkpt>
      <trkpt lat="44.889100" lon="-0.599910">
        <time>2017-06-24T09:56:19Z</time>
      </trkpt>
      <trkpt lat="44.889090" lon="-0.599710">
        <time>2017-06-24T09:56:20Z</time>
      </trkpt>
      <trkpt lat="44.889080" lon="-0.599540">
        <time>2017-06-24T09:56:21Z</time>
      </trkpt>
      <trkpt lat="44.889060" lon="-0.599380">
        <time>2017-06-24T09:56:22Z</time>
      </trkpt>
      <trkpt lat="44.889050" lon="-0.599200">
        <time>2017-06-24T09:56:23Z</time>
      </trkpt>
      <trkpt lat="44.889040" lon="-0.599060">
        <time>2017-06-24T09:56:24Z</time>
      </trkpt>
      <trkpt lat="44.889030" lon="-0.598890">
        <time>2017-06-24T09:56:25Z</time>
      </trkpt>
      <trkpt lat="44.889020" lon="-0.598720">
        <time>2017-06-24T09:56:26Z</time>
      </trkpt>
      <trkpt lat="44.889020" lon="-0.598570">
        <time>2017-06-24T09:56:27Z</time>
      </trkpt>
      <trkpt lat="44.889000" lon="-0.598420">
        <time>2017-06-24T09:56:28Z</time>
      </trkpt>
      <trkpt lat="44.889000" lon="-0.598280">
        <time>2017-06-24T09:56:29Z</time>
      </trkpt>
      <trkpt lat="44.888990" lon="-0.598130">
        <time>2017-06-24T09:56:30Z</time>
      </trkpt>
      <trkpt lat="44.888970" lon="-0.597960">
        <time>2017-06-24T09:56:31Z</time>
      </trkpt>
      <trkpt lat="44.888960" lon="-0.597810">
        <time>2017-06-24T09:56:32Z</time>
      </trkpt>
      <trkpt lat="44.888950" lon="-0.597650">
        <time>2017-06-24T09:56:33Z</time>
      </trkpt>
      <trkpt lat="44.888940" lon="-0.597500">
        <time>2017-06-24T09:56:34Z</time>
      </trkpt>
      <trkpt lat="44.888920" lon="-0.597340">
        <time>2017-06-24T09:56:35Z</time>
      </trkpt>
      <trkpt lat="44.888910" lon="-0.597180">
        <time>2017-06-24T09:56:36Z</time>
      </trkpt>
      <trkpt lat="44.888910" lon="-0.597050">
        <time>2017-06-24T09:56:37Z</time>
      </trkpt>
      <trkpt lat="44.888900" lon="-0.596900">
        <time>2017-06-24T09:56:38Z</time>
      </trkpt>
      <trkpt lat="44.888890" lon="-0.596750">
        <time>2017-06-24T09:56:39Z</time>
      </trkpt>
      <trkpt lat="44.888890" lon="-0.596610">
        <time>2017-06-24T09:56:40Z</time>
      </trkpt>
      <trkpt lat="44.888890" lon="-0.596450">
        <time>2017-06-24T09:56:41Z</time>
      </trkpt>
      <trkpt lat="44.888880" lon="-0.596260">
        <time>2017-06-24T09:56:42Z</time>
      </trkpt>
      <trkpt lat="44.888870" lon="-0.596120">
        <time>2017-06-24T09:56:43Z</time>
      </trkpt>
      <trkpt lat="44.888860" lon="-0.595970">
        <time>2017-06-24T09:56:44Z</time>
      </trkpt>
      <trkpt lat="44.888850" lon="-0.595830">
        <time>2017-06-24T09:56:45Z</time>
      </trkpt>
      <trkpt lat="44.888840" lon="-0.595690">
        <time>2017-06-24T09:56:46Z</time>
      </trkpt>
      <trkpt lat="44.888820" lon="-0.595550">
        <time>2017-06-24T09:56:47Z</time>
      </trkpt>
      <trkpt lat="44.888820" lon="-0.595410">
        <time>2017-06-24T09:56:48Z</time>
      </trkpt>
      <trkpt lat="44.888810" lon="-0.595260">
        <time>2017-06-24T09:56:49Z</time>
      </trkpt>
      <trkpt lat="44.888800" lon="-0.595100">
        <time>2017-06-24T09:56:50Z</time>
      </trkpt>
      <trkpt lat="44.888790" lon="-0.594930">
        <time>2017-06-24T09:56:51Z</time>
      </trkpt>
      <trkpt lat="44.888770" lon="-0.594750">
        <time>2017-06-24T09:56:52Z</time>
      </trkpt>
      <trkpt lat="44.888760" lon="-0.594590">
        <time>2017-06-24T09:56:53Z</time>
      </trkpt>
      <trkpt lat="44.888750" lon="-0.594410">
        <time>2017-06-24T09:56:54Z</time>
      </trkpt>
      <trkpt lat="44.888740" lon="-0.594210">
        <time>2017-06-24T09:56:55Z</time>
      </trkpt>
      <trkpt lat="44.888730" lon="-0.594030">
        <time>2017-06-24T09:56:56Z</time>
      </trkpt>
      <trkpt lat="44.888710" lon="-0.593830">
        <time>2017-06-24T09:56:57Z</time>
      </trkpt>
      <trkpt lat="44.888700" lon="-0.593610">
        <time>2017-06-24T09:56:58Z</time>
      </trkpt>
      <trkpt lat="44.888690" lon="-0.593410">
        <time>2017-06-24T09:56:59Z</time>
      </trkpt>
      <trkpt lat="44.888670" lon="-0.593190">
        <time>2017-06-24T09:57:00Z</time>
      </trkpt>
      <trkpt lat="44.888660" lon="-0.592980">
        <time>2017-06-24T09:57:01Z</time>
      </trkpt>
      <trkpt lat="44.888650" lon="-0.592750">
        <time>2017-06-24T09:57:02Z</time>
      </trkpt>
      <trkpt lat="44.888630" lon="-0.592500">
        <time>2017-06-24T09:57:03Z</time>
      </trkpt>
      <trkpt lat="44.888610" lon="-0.592280">
        <time>2017-06-24T09:57:04Z</time>
      </trkpt>
      <trkpt lat="44.888590" lon="-0.592050">
        <time>2017-06-24T09:57:05Z</time>
      </trkpt>
      <trkpt lat="44.888580" lon="-0.591810">
        <time>2017-06-24T09:57:06Z</time>
      </trkpt>
      <trkpt lat="44.888570" lon="-0.591580">
        <time>2017-06-24T09:57:07Z</time>
      </trkpt>
      <trkpt lat="44.888550" lon="-0.591340">
        <time>2017-06-24T09:57:08Z</time>
      </trkpt>
      <trkpt lat="44.888540" lon="-0.591120">
        <time>2017-06-24T09:57:09Z</time>
      </trkpt>
      <trkpt lat="44.888520" lon="-0.590890">
        <time>2017-06-24T09:57:10Z</time>
      </trkpt>
      <trkpt lat="44.888500" lon="-0.590650">
        <time>2017-06-24T09:57:11Z</time>
      </trkpt>
      <trkpt lat="44.888490" lon="-0.590420">
        <time>2017-06-24T09:57:12Z</time>
      </trkpt>
      <trkpt lat="44.888470" lon="-0.590190">
        <time>2017-06-24T09:57:13Z</time>
      </trkpt>
      <trkpt lat="44.888450" lon="-0.589930">
        <time>2017-06-24T09:57:14Z</time>
      </trkpt>
      <trkpt lat="44.888440" lon="-0.589700">
        <time>2017-06-24T09:57:15Z</time>
      </trkpt>
      <trkpt lat="44.888420" lon="-0.589450">
        <time>2017-06-24T09:57:16Z</time>
      </trkpt>
      <trkpt lat="44.888410" lon="-0.589220">
        <time>2017-06-24T09:57:17Z</time>
      </trkpt>
      <trkpt lat="44.888390" lon="-0.588950">
        <time>2017-06-24T09:57:18Z</time>
      </trkpt>
      <trkpt lat="44.888370" lon="-0.588680">
        <time>2017-06-24T09:57:19Z</time>
      </trkpt>
      <trkpt lat="44.888350" lon="-0.588420">
        <time>2017-06-24T09:57:20Z</time>
      </trkpt>
      <trkpt lat="44.888330" lon="-0.588150">
        <time>2017-06-24T09:57:21Z</time>
      </trkpt>
      <trkpt lat="44.888310" lon="-0.587880">
        <time>2017-06-24T09:57:22Z</time>
      </trkpt>
      <trkpt lat="44.888290" lon="-0.587610">
        <time>2017-06-24T09:57:23Z</time>
      </trkpt>
      <trkpt lat="44.888260" lon="-0.587320">
        <time>2017-06-24T09:57:24Z</time>
      </trkpt>
      <trkpt lat="44.888250" lon="-0.587070">
        <time>2017-06-24T09:57:25Z</time>
      </trkpt>
      <trkpt lat="44.888240" lon="-0.586800">
        <time>2017-06-24T09:57:26Z</time>
      </trkpt>
      <trkpt lat="44.888220" lon="-0.586520">
        <time>2017-06-24T09:57:27Z</time>
      </trkpt>
      <trkpt lat="44.888200" lon="-0.586280">
        <time>2017-06-24T09:57:28Z</time>
      </trkpt>
      <trkpt lat="44.888180" lon="-0.586020">
        <time>2017-06-24T09:57:29Z</time>
      </trkpt>
      <trkpt lat="44.888170" lon="-0.585740">
        <time>2017-06-24T09:57:30Z</time>
      </trkpt>
      <trkpt lat="44.888150" lon="-0.585500">
        <time>2017-06-24T09:57:31Z</time>
      </trkpt>
      <trkpt lat="44.888130" lon="-0.585230">
        <time>2017-06-24T09:57:32Z</time>
      </trkpt>
      <trkpt lat="44.888110" lon="-0.585000">
        <time>2017-06-24T09:57:33Z</time>
      </trkpt>
      <trkpt lat="44.888090" lon="-0.584760">
        <time>2017-06-24T09:57:34Z</time>
      </trkpt>
      <trkpt lat="44.888080" lon="-0.584500">
        <time>2017-06-24T09:57:35Z</time>
      </trkpt>
      <trkpt lat="44.888070" lon="-0.584280">
        <time>2017-06-24T09:57:36Z</time>
      </trkpt>
      <trkpt lat="44.888050" lon="-0.584040">
        <time>2017-06-24T09:57:37Z</time>
      </trkpt>
      <trkpt lat="44.888030" lon="-0.583790">
        <time>2017-06-24T09:57:38Z</time>
      </trkpt>
      <trkpt lat="44.888010" lon="-0.583550">
        <time>2017-06-24T09:57:39Z</time>
      </trkpt>
      <trkpt lat="44.887990" lon="-0.583290">
        <time>2017-06-24T09:57:40Z</time>
      </trkpt>
      <trkpt lat="44.887980" lon="-0.583060">
        <time>2017-06-24T09:57:41Z</time>
      </trkpt>
      <trkpt lat="44.887960" lon="-0.582800">
        <time>2017-06-24T09:57:42Z</time>
      </trkpt>
      <trkpt lat="44.887950" lon="-0.582530">
        <time>2017-06-24T09:57:43Z</time>
      </trkpt>
      <trkpt lat="44.887930" lon="-0.582300">
        <time>2017-06-24T09:57:44Z</time>
      </trkpt>
      <trkpt lat="44.887920" lon="-0.582030">
        <time>2017-06-24T09:57:45Z</time>
      </trkpt>
      <trkpt lat="44.887890" lon="-0.581740">
        <time>2017-06-24T09:57:46Z</time>
      </trkpt>
      <trkpt lat="44.887870" lon="-0.581490">
        <time>2017-06-24T09:57:47Z</time>
      </trkpt>
      <trkpt lat="44.887850" lon="-0.581210">
        <time>2017-06-24T09:57:48Z</time>
      </trkpt>
      <trkpt lat="44.887840" lon="-0.580960">
        <time>2017-06-24T09:57:49Z</time>
      </trkpt>
      <trkpt lat="44.887820" lon="-0.580690">
        <time>2017-06-24T09:57:50Z</time>
      </trkpt>
      <trkpt lat="44.887800" lon="-0.580410">
        <time>2017-06-24T09:57:51Z</time>
      </trkpt>
      <trkpt lat="44.887780" lon="-0.580160">
        <time>2017-06-24T09:57:52Z</time>
      </trkpt>
      <trkpt lat="44.887760" lon="-0.579890">
        <time>2017-06-24T09:57:53Z</time>
      </trkpt>
      <trkpt lat="44.887750" lon="-0.579620">
        <time>2017-06-24T09:57:54Z</time>
      </trkpt>
      <trkpt lat="44.887720" lon="-0.579350">
        <time>2017-06-24T09:57:55Z</time>
      </trkpt>
      <trkpt lat="44.887710" lon="-0.579070">
        <time>2017-06-24T09:57:56Z</time>
      </trkpt>
      <trkpt lat="44.887690" lon="-0.578820">
        <time>2017-06-24T09:57:57Z</time>
      </trkpt>
      <trkpt lat="44.887680" lon="-0.578550">
        <time>2017-06-24T09:57:58Z</time>
      </trkpt>
      <trkpt lat="44.887660" lon="-0.578260">
        <time>2017-06-24T09:57:59Z</time>
      </trkpt>
      <trkpt lat="44.887640" lon="-0.578010">
        <time>2017-06-24T09:58:00Z</time>
      </trkpt>
      <trkpt lat="44.887620" lon="-0.577730">
        <time>2017-06-24T09:58:01Z</time>
      </trkpt>
      <trkpt lat="44.887600" lon="-0.577450">
        <time>2017-06-24T09:58:02Z</time>
      </trkpt>
      <trkpt lat="44.887590" lon="-0.577200">
        <time>2017-06-24T09:58:03Z</time>
      </trkpt>
      <trkpt lat="44.887570" lon="-0.576900">
        <time>2017-06-24T09:58:04Z</time>
      </trkpt>
      <trkpt lat="44.887550" lon="-0.576640">
        <time>2017-06-24T09:58:05Z</time>
      </trkpt>
      <trkpt lat="44.887530" lon="-0.576370">
        <time>2017-06-24T09:58:06Z</time>
      </trkpt>
      <trkpt lat="44.887510" lon="-0.576070">
        <time>2017-06-24T09:58:07Z</time>
      </trkpt>
      <trkpt lat="44.887490" lon="-0.575800">
        <time>2017-06-24T09:58:08Z</time>
      </trkpt>
      <trkpt lat="44.887480" lon="-0.575520">
        <time>2017-06-24T09:58:09Z</time>
      </trkpt>
      <trkpt lat="44.887460" lon="-0.575240">
        <time>2017-06-24T09:58:10Z</time>
      </trkpt>
      <trkpt lat="44.887440" lon="-0.574970">
        <time>2017-06-24T09:58:11Z</time>
      </trkpt>
      <trkpt lat="44.887420" lon="-0.574680">
        <time>2017-06-24T09:58:12Z</time>
      </trkpt>
      <trkpt lat="44.887400" lon="-0.574420">
        <time>2017-06-24T09:58:13Z</time>
      </trkpt>
      <trkpt lat="44.887380" lon="-0.574130">
        <time>2017-06-24T09:58:14Z</time>
      </trkpt>
      <trkpt lat="44.887350" lon="-0.573820">
        <time>2017-06-24T09:58:15Z</time>
      </trkpt>
      <trkpt lat="44.887340" lon="-0.573550">
        <time>2017-06-24T09:58:16Z</time>
      </trkpt>
      <trkpt lat="44.887310" lon="-0.573250">
        <time>2017-06-24T09:58:17Z</time>
      </trkpt>
      <trkpt lat="44.887280" lon="-0.572940">
        <time>2017-06-24T09:58:18Z</time>
      </trkpt>
      <trkpt lat="44.887260" lon="-0.572670">
        <time>2017-06-24T09:58:19Z</time>
      </trkpt>
      <trkpt lat="44.887220" lon="-0.572350">
        <time>2017-06-24T09:58:20Z</time>
      </trkpt>
      <trkpt lat="44.887190" lon="-0.572070">
        <time>2017-06-24T09:58:21Z</time>
      </trkpt>
      <trkpt lat="44.887160" lon="-0.571780">
        <time>2017-06-24T09:58:22Z</time>
      </trkpt>
      <trkpt lat="44.887120" lon="-0.571460">
        <time>2017-06-24T09:58:23Z</time>
      </trkpt>
      <trkpt lat="44.887080" lon="-0.571180">
        <time>2017-06-24T09:58:24Z</time>
      </trkpt>
      <trkpt lat="44.887040" lon="-0.570890">
        <time>2017-06-24T09:58:25Z</time>
      </trkpt>
      <trkpt lat="44.887010" lon="-0.570590">
        <time>2017-06-24T09:58:26Z</time>
      </trkpt>
      <trkpt lat="44.886970" lon="-0.570290">
        <time>2017-06-24T09:58:27Z</time>
      </trkpt>
      <trkpt lat="44.886920" lon="-0.569980">
        <time>2017-06-24T09:58:28Z</time>
      </trkpt>
      <trkpt lat="44.886870" lon="-0.569700">
        <time>2017-06-24T09:58:29Z</time>
      </trkpt>
      <trkpt lat="44.886820" lon="-0.569410">
        <time>2017-06-24T09:58:30Z</time>
      </trkpt>
      <trkpt lat="44.886770" lon="-0.569110">
        <time>2017-06-24T09:58:31Z</time>
      </trkpt>
      <trkpt lat="44.886720" lon="-0.568840">
        <time>2017-06-24T09:58:32Z</time>
      </trkpt>
      <trkpt lat="44.886670" lon="-0.568560">
        <time>2017-06-24T09:58:33Z</time>
      </trkpt>
      <trkpt lat="44.886620" lon="-0.568260">
        <time>2017-06-24T09:58:34Z</time>
      </trkpt>
      <trkpt lat="44.886570" lon="-0.568010">
        <time>2017-06-24T09:58:35Z</time>
      </trkpt>
      <trkpt lat="44.886500" lon="-0.567710">
        <time>2017-06-24T09:58:36Z</time>
      </trkpt>
      <trkpt lat="44.886450" lon="-0.567450">
        <time>2017-06-24T09:58:37Z</time>
      </trkpt>
      <trkpt lat="44.886390" lon="-0.567170">
        <time>2017-06-24T09:58:38Z</time>
      </trkpt>
      <trkpt lat="44.886320" lon="-0.566880">
        <time>2017-06-24T09:58:39Z</time>
      </trkpt>
      <trkpt lat="44.886260" lon="-0.566620">
        <time>2017-06-24T09:58:40Z</time>
      </trkpt>
      <trkpt lat="44.886190" lon="-0.566340">
        <time>2017-06-24T09:58:41Z</time>
      </trkpt>
      <trkpt lat="44.886130" lon="-0.566060">
        <time>2017-06-24T09:58:42Z</time>
      </trkpt>
      <trkpt lat="44.886060" lon="-0.565790">
        <time>2017-06-24T09:58:43Z</time>
      </trkpt>
      <trkpt lat="44.885980" lon="-0.565500">
        <time>2017-06-24T09:58:44Z</time>
      </trkpt>
      <trkpt lat="44.885910" lon="-0.565240">
        <time>2017-06-24T09:58:45Z</time>
      </trkpt>
      <trkpt lat="44.885840" lon="-0.564960">
        <time>2017-06-24T09:58:46Z</time>
      </trkpt>
      <trkpt lat="44.885760" lon="-0.564660">
        <time>2017-06-24T09:58:47Z</time>
      </trkpt>
      <trkpt lat="44.885700" lon="-0.564400">
        <time>2017-06-24T09:58:48Z</time>
      </trkpt>
      <trkpt lat="44.885620" lon="-0.564130">
        <time>2017-06-24T09:58:49Z</time>
      </trkpt>
      <trkpt lat="44.885540" lon="-0.563840">
        <time>2017-06-24T09:58:50Z</time>
      </trkpt>
      <trkpt lat="44.885470" lon="-0.563600">
        <time>2017-06-24T09:58:51Z</time>
      </trkpt>
      <trkpt lat="44.885380" lon="-0.563330">
        <time>2017-06-24T09:58:52Z</time>
      </trkpt>
      <trkpt lat="44.885310" lon="-0.563090">
        <time>2017-06-24T09:58:53Z</time>
      </trkpt>
      <trkpt lat="44.885230" lon="-0.562840">
        <time>2017-06-24T09:58:54Z</time>
      </trkpt>
      <trkpt lat="44.885140" lon="-0.562580">
        <time>2017-06-24T09:58:55Z</time>
      </trkpt>
      <trkpt lat="44.885070" lon="-0.562350">
        <time>2017-06-24T09:58:56Z</time>
      </trkpt>
      <trkpt lat="44.885000" lon="-0.562090">
        <time>2017-06-24T09:58:57Z</time>
      </trkpt>
      <trkpt lat="44.884920" lon="-0.561840">
        <time>2017-06-24T09:58:58Z</time>
      </trkpt>
      <trkpt lat="44.884840" lon="-0.561570">
        <time>2017-06-24T09:58:59Z</time>
      </trkpt>
      <trkpt lat="44.884750" lon="-0.561300">
        <time>2017-06-24T09:59:00Z</time>
      </trkpt>
      <trkpt lat="44.884690" lon="-0.561070">
        <time>2017-06-24T09:59:01Z</time>
      </trkpt>
      <trkpt lat="44.884620" lon="-0.560830">
        <time>2017-06-24T09:59:02Z</time>
      </trkpt>
      <trkpt lat="44.884560" lon="-0.560580">
        <time>2017-06-24T09:59:03Z</time>
      </trkpt>
      <trkpt lat="44.884490" lon="-0.560350">
        <time>2017-06-24T09:59:04Z</time>
      </trkpt>
      <trkpt lat="44.884420" lon="-0.560100">
        <time>2017-06-24T09:59:05Z</time>
      </trkpt>
      <trkpt lat="44.884350" lon="-0.559830">
        <time>2017-06-24T09:59:06Z</time>
      </trkpt>
      <trkpt lat="44.884290" lon="-0.559590">
        <time>2017-06-24T09:59:07Z</time>
      </trkpt>
      <trkpt lat="44.884220" lon="-0.559320">
        <time>2017-06-24T09:59:08Z</time>
      </trkpt>
      <trkpt lat="44.884160" lon="-0.559060">
        <time>2017-06-24T09:59:09Z</time>
      </trkpt>
      <trkpt lat="44.884100" lon="-0.558790">
        <time>2017-06-24T09:59:10Z</time>
      </trkpt>
      <trkpt lat="44.884030" lon="-0.558490">
        <time>2017-06-24T09:59:11Z</time>
      </trkpt>
      <trkpt lat="44.883970" lon="-0.558230">
        <time>2017-06-24T09:59:12Z</time>
      </trkpt>
      <trkpt lat="44.883910" lon="-0.557950">
        <time>2017-06-24T09:59:13Z</time>
      </trkpt>
      <trkpt lat="44.883840" lon="-0.557680">
        <time>2017-06-24T09:59:14Z</time>
      </trkpt>
      <trkpt lat="44.883780" lon="-0.557410">
        <time>2017-06-24T09:59:15Z</time>
      </trkpt>
      <trkpt lat="44.883720" lon="-0.557120">
        <time>2017-06-24T09:59:16Z</time>
      </trkpt>
      <trkpt lat="44.883680" lon="-0.556890">
        <time>2017-06-24T09:59:17Z</time>
      </trkpt>
      <trkpt lat="44.883630" lon="-0.556650">
        <time>2017-06-24T09:59:18Z</time>
      </trkpt>
      <trkpt lat="44.883580" lon="-0.556400">
        <time>2017-06-24T09:59:19Z</time>
      </trkpt>
      <trkpt lat="44.883530" lon="-0.556180">
        <time>2017-06-24T09:59:20Z</time>
      </trkpt>
      <trkpt lat="44.883490" lon="-0.555960">
        <time>2017-06-24T09:59:21Z</time>
      </trkpt>
      <trkpt lat="44.883440" lon="-0.555720">
        <time>2017-06-24T09:59:22Z</time>
      </trkpt>
      <trkpt lat="44.883400" lon="-0.555520">
        <time>2017-06-24T09:59:23Z</time>
      </trkpt>
      <trkpt lat="44.883360" lon="-0.555290">
        <time>2017-06-24T09:59:24Z</time>
      </trkpt>
      <trkpt lat="44.883320" lon="-0.555100">
        <time>2017-06-24T09:59:25Z</time>
      </trkpt>
      <trkpt lat="44.883280" lon="-0.554900">
        <time>2017-06-24T09:59:26Z</time>
      </trkpt>
      <trkpt lat="44.883240" lon="-0.554680">
        <time>2017-06-24T09:59:27Z</time>
      </trkpt>
      <trkpt lat="44.883210" lon="-0.554490">
        <time>2017-06-24T09:59:28Z</time>
      </trkpt>
      <trkpt lat="44.883170" lon="-0.554290">
        <time>2017-06-24T09:59:29Z</time>
      </trkpt>
      <trkpt lat="44.883120" lon="-0.554080">
        <time>2017-06-24T09:59:30Z</time>
      </trkpt>
      <trkpt lat="44.883080" lon="-0.553870">
        <time>2017-06-24T09:59:31Z</time>
      </trkpt>
      <trkpt lat="44.883040" lon="-0.553640">
        <time>2017-06-24T09:59:32Z</time>
      </trkpt>
      <trkpt lat="44.882990" lon="-0.553420">
        <time>2017-06-24T09:59:33Z</time>
      </trkpt>
      <trkpt lat="44.882950" lon="-0.553200">
        <time>2017-06-24T09:59:34Z</time>
      </trkpt>
      <trkpt lat="44.882910" lon="-0.552950">
        <time>2017-06-24T09:59:35Z</time>
      </trkpt>
      <trkpt lat="44.882870" lon="-0.552730">
        <time>2017-06-24T09:59:36Z</time>
      </trkpt>
      <trkpt lat="44.882820" lon="-0.552500">
        <time>2017-06-24T09:59:37Z</time>
      </trkpt>
      <trkpt lat="44.882780" lon="-0.552260">
        <time>2017-06-24T09:59:38Z</time>
      </trkpt>
      <trkpt lat="44.882730" lon="-0.552030">
        <time>2017-06-24T09:59:39Z</time>
      </trkpt>
      <trkpt lat="44.882690" lon="-0.551790">
        <time>2017-06-24T09:59:40Z</time>
      </trkpt>
      <trkpt lat="44.882650" lon="-0.551580">
        <time>2017-06-24T09:59:41Z</time>
      </trkpt>
      <trkpt lat="44.882600" lon="-0.551340">
        <time>2017-06-24T09:59:42Z</time>
      </trkpt>
      <trkpt lat="44.882560" lon="-0.551100">
        <time>2017-06-24T09:59:43Z</time>
      </trkpt>
      <trkpt lat="44.882510" lon="-0.550880">
        <time>2017-06-24T09:59:44Z</time>
      </trkpt>
      <trkpt lat="44.882470" lon="-0.550650">
        <time>2017-06-24T09:59:45Z</time>
      </trkpt>
      <trkpt lat="44.882430" lon="-0.550410">
        <time>2017-06-24T09:59:46Z</time>
      </trkpt>
      <trkpt lat="44.882380" lon="-0.550190">
        <time>2017-06-24T09:59:47Z</time>
      </trkpt>
      <trkpt lat="44.882330" lon="-0.549940">
        <time>2017-06-24T09:59:48Z</time>
      </trkpt>
      <trkpt lat="44.882300" lon="-0.549730">
        <time>2017-06-24T09:59:49Z</time>
      </trkpt>
      <trkpt lat="44.882250" lon="-0.549510">
        <time>2017-06-24T09:59:50Z</time>
      </trkpt>
      <trkpt lat="44.882210" lon="-0.549270">
        <time>2017-06-24T09:59:51Z</time>
      </trkpt>
      <trkpt lat="44.882170" lon="-0.549070">
        <time>2017-06-24T09:59:52Z</time>
      </trkpt>
      <trkpt lat="44.882120" lon="-0.548850">
        <time>2017-06-24T09:59:53Z</time>
      </trkpt>
      <trkpt lat="44.882080" lon="-0.548620">
        <time>2017-06-24T09:59:54Z</time>
      </trkpt>
      <trkpt lat="44.882040" lon="-0.548410">
        <time>2017-06-24T09:59:55Z</time>
      </trkpt>
      <trkpt lat="44.882000" lon="-0.548180">
        <time>2017-06-24T09:59:56Z</time>
      </trkpt>
      <trkpt lat="44.881960" lon="-0.547980">
        <time>2017-06-24T09:59:57Z</time>
      </trkpt>
      <trkpt lat="44.881920" lon="-0.547750">
        <time>2017-06-24T09:59:58Z</time>
      </trkpt>
      <trkpt lat="44.881870" lon="-0.547510">
        <time>2017-06-24T09:59:59Z</time>
      </trkpt>
      <trkpt lat="44.881830" lon="-0.547300">
        <time>2017-06-24T10:00:00Z</time>
      </trkpt>
      <trkpt lat="44.881780" lon="-0.547090">
        <time>2017-06-24T10:00:01Z</time>
      </trkpt>
      <trkpt lat="44.881740" lon="-0.546860">
        <time>2017-06-24T10:00:02Z</time>
      </trkpt>
      <trkpt lat="44.881700" lon="-0.546630">
        <time>2017-06-24T10:00:03Z</time>
      </trkpt>
      <trkpt lat="44.881650" lon="-0.546390">
        <time>2017-06-24T10:00:04Z</time>
      </trkpt>
      <trkpt lat="44.881610" lon="-0.546170">
        <time>2017-06-24T10:00:05Z</time>
      </trkpt>
      <trkpt lat="44.881570" lon="-0.545940">
        <time>2017-06-24T10:00:06Z</time>
      </trkpt>
      <trkpt lat="44.881520" lon="-0.545710">
        <time>2017-06-24T10:00:07Z</time>
      </trkpt>
      <trkpt lat="44.881480" lon="-0.545500">
        <time>2017-06-24T10:00:08Z</time>
      </trkpt>
      <trkpt lat="44.881440" lon="-0.545280">
        <time>2017-06-24T10:00:09Z</time>
      </trkpt>
      <trkpt lat="44.881390" lon="-0.545050">
        <time>2017-06-24T10:00:10Z</time>
      </trkpt>
      <trkpt lat="44.881350" lon="-0.544840">
        <time>2017-06-24T10:00:11Z</time>
      </trkpt>
      <trkpt lat="44.881310" lon="-0.544600">
        <time>2017-06-24T10:00:12Z</time>
      </trkpt>
      <trkpt lat="44.881270" lon="-0.544400">
        <time>2017-06-24T10:00:13Z</time>
      </trkpt>
      <trkpt lat="44.881220" lon="-0.544170">
        <time>2017-06-24T10:00:14Z</time>
      </trkpt>
      <trkpt lat="44.881180" lon="-0.543930">
        <time>2017-06-24T10:00:15Z</time>
      </trkpt>
      <trkpt lat="44.881140" lon="-0.543720">
        <time>2017-06-24T10:00:16Z</time>
      </trkpt>
      <trkpt lat="44.881090" lon="-0.543490">
        <time>2017-06-24T10:00:17Z</time>
      </trkpt>
      <trkpt lat="44.881050" lon="-0.543260">
        <time>2017-06-24T10:00:18Z</time>
      </trkpt>
      <trkpt lat="44.881010" lon="-0.543030">
        <time>2017-06-24T10:00:19Z</time>
      </trkpt>
      <trkpt lat="44.880960" lon="-0.542790">
        <time>2017-06-24T10:00:20Z</time>
      </trkpt>
      <trkpt lat="44.880920" lon="-0.542580">
        <time>2017-06-24T10:00:21Z</time>
      </trkpt>
      <trkpt lat="44.880870" lon="-0.542350">
        <time>2017-06-24T10:00:22Z</time>
      </trkpt>
      <trkpt lat="44.880830" lon="-0.542110">
        <time>2017-06-24T10:00:23Z</time>
      </trkpt>
      <trkpt lat="44.880780" lon="-0.541890">
        <time>2017-06-24T10:00:24Z</time>
      </trkpt>
      <trkpt lat="44.880740" lon="-0.541650">
        <time>2017-06-24T10:00:25Z</time>
      </trkpt>
      <trkpt lat="44.880690" lon="-0.541400">
        <time>2017-06-24T10:00:26Z</time>
      </trkpt>
      <trkpt lat="44.880640" lon="-0.541170">
        <time>2017-06-24T10:00:27Z</time>
      </trkpt>
      <trkpt lat="44.880590" lon="-0.540920">
        <time>2017-06-24T10:00:28Z</time>
      </trkpt>
      <trkpt lat="44.880550" lon="-0.540700">
        <time>2017-06-24T10:00:29Z</time>
      </trkpt>
      <trkpt lat="44.880510" lon="-0.540450">
        <time>2017-06-24T10:00:30Z</time>
      </trkpt>
      <trkpt lat="44.880460" lon="-0.540200">
        <time>2017-06-24T10:00:31Z</time>
      </trkpt>
      <trkpt lat="44.880420" lon="-0.539980">
        <time>2017-06-24T10:00:32Z</time>
      </trkpt>
      <trkpt lat="44.880370" lon="-0.539730">
        <time>2017-06-24T10:00:33Z</time>
      </trkpt>
      <trkpt lat="44.880330" lon="-0.539500">
        <time>2017-06-24T10:00:34Z</time>
      </trkpt>
      <trkpt lat="44.880280" lon="-0.539260">
        <time>2017-06-24T10:00:35Z</time>
      </trkpt>
      <trkpt lat="44.880230" lon="-0.539010">
        <time>2017-06-24T10:00:36Z</time>
      </trkpt>
      <trkpt lat="44.880190" lon="-0.538780">
        <time>2017-06-24T10:00:37Z</time>
      </trkpt>
      <trkpt lat="44.880140" lon="-0.538550">
        <time>2017-06-24T10:00:38Z</time>
      </trkpt>
      <trkpt lat="44.880090" lon="-0.538300">
        <time>2017-06-24T10:00:39Z</time>
      </trkpt>
      <trkpt lat="44.880060" lon="-0.538080">
        <time>2017-06-24T10:00:40Z</time>
      </trkpt>
      <trkpt lat="44.880010" lon="-0.537830">
        <time>2017-06-24T10:00:41Z</time>
      </trkpt>
      <trkpt lat="44.879960" lon="-0.537580">
        <time>2017-06-24T10:00:42Z</time>
      </trkpt>
      <trkpt lat="44.879920" lon="-0.537360">
        <time>2017-06-24T10:00:43Z</time>
      </trkpt>
      <trkpt lat="44.879870" lon="-0.537110">
        <time>2017-06-24T10:00:44Z</time>
      </trkpt>
      <trkpt lat="44.879820" lon="-0.536890">
        <time>2017-06-24T10:00:45Z</time>
      </trkpt>
      <trkpt lat="44.879780" lon="-0.536660">
        <time>2017-06-24T10:00:46Z</time>
      </trkpt>
      <trkpt lat="44.879730" lon="-0.536410">
        <time>2017-06-24T10:00:47Z</time>
      </trkpt>
      <trkpt lat="44.879690" lon="-0.536200">
        <time>2017-06-24T10:00:48Z</time>
      </trkpt>
      <trkpt lat="44.879650" lon="-0.535960">
        <time>2017-06-24T10:00:49Z</time>
      </trkpt>
      <trkpt lat="44.879600" lon="-0.535730">
        <time>2017-06-24T10:00:50Z</time>
      </trkpt>
      <trkpt lat="44.879560" lon="-0.535510">
        <time>2017-06-24T10:00:51Z</time>
      </trkpt>
      <trkpt lat="44.879520" lon="-0.535270">
        <time>2017-06-24T10:00:52Z</time>
      </trkpt>
      <trkpt lat="44.879480" lon="-0.535070">
        <time>2017-06-24T10:00:53Z</time>
      </trkpt>
      <trkpt lat="44.879440" lon="-0.534850">
        <time>2017-06-24T10:00:54Z</time>
      </trkpt>
      <trkpt lat="44.879400" lon="-0.534620">
        <time>2017-06-24T10:00:55Z</time>
      </trkpt>
      <trkpt lat="44.879360" lon="-0.534410">
        <time>2017-06-24T10:00:56Z</time>
      </trkpt>
      <trkpt lat="44.879310" lon="-0.534190">
        <time>2017-06-24T10:00:57Z</time>
      </trkpt>
      <trkpt lat="44.879260" lon="-0.533950">
        <time>2017-06-24T10:00:58Z</time>
      </trkpt>
      <trkpt lat="44.879220" lon="-0.533740">
        <time>2017-06-24T10:00:59Z</time>
      </trkpt>
      <trkpt lat="44.879170" lon="-0.533490">
        <time>2017-06-24T10:01:00Z</time>
      </trkpt>
      <trkpt lat="44.879130" lon="-0.533280">
        <time>2017-06-24T10:01:01Z</time>
      </trkpt>
      <trkpt lat="44.879080" lon="-0.533060">
        <time>2017-06-24T10:01:02Z</time>
      </trkpt>
      <trkpt lat="44.879030" lon="-0.532830">
        <time>2017-06-24T10:01:03Z</time>
      </trkpt>
      <trkpt lat="44.879000" lon="-0.532620">
        <time>2017-06-24T10:01:04Z</time>
      </trkpt>
      <trkpt lat="44.878950" lon="-0.532390">
        <time>2017-06-24T10:01:05Z</time>
      </trkpt>
      <trkpt lat="44.878910" lon="-0.532160">
        <time>2017-06-24T10:01:06Z</time>
      </trkpt>
      <trkpt lat="44.878870" lon="-0.531940">
        <time>2017-06-24T10:01:07Z</time>
      </trkpt>
      <trkpt lat="44.878820" lon="-0.531700">
        <time>2017-06-24T10:01:08Z</time>
      </trkpt>
      <trkpt lat="44.878780" lon="-0.531490">
        <time>2017-06-24T10:01:09Z</time>
      </trkpt>
      <trkpt lat="44.878740" lon="-0.531260">
        <time>2017-06-24T10:01:10Z</time>
      </trkpt>
      <trkpt lat="44.878710" lon="-0.531010">
        <time>2017-06-24T10:01:11Z</time>
      </trkpt>
      <trkpt lat="44.878680" lon="-0.530790">
        <time>2017-06-24T10:01:12Z</time>
      </trkpt>
      <trkpt lat="44.878660" lon="-0.530540">
        <time>2017-06-24T10:01:13Z</time>
      </trkpt>
      <trkpt lat="44.878650" lon="-0.530270">
        <time>2017-06-24T10:01:14Z</time>
      </trkpt>
      <trkpt lat="44.878650" lon="-0.530040">
        <time>2017-06-24T10:01:15Z</time>
      </trkpt>
      <trkpt lat="44.878650" lon="-0.529770">
        <time>2017-06-24T10:01:16Z</time>
      </trkpt>
      <trkpt lat="44.878660" lon="-0.529540">
        <time>2017-06-24T10:01:17Z</time>
      </trkpt>
      <trkpt lat="44.878680" lon="-0.529290">
        <time>2017-06-24T10:01:18Z</time>
      </trkpt>
      <trkpt lat="44.878700" lon="-0.529030">
        <time>2017-06-24T10:01:19Z</time>
      </trkpt>
      <trkpt lat="44.878730" lon="-0.528800">
        <time>2017-06-24T10:01:20Z</time>
      </trkpt>
      <trkpt lat="44.878770" lon="-0.528550">
        <time>2017-06-24T10:01:21Z</time>
      </trkpt>
      <trkpt lat="44.878820" lon="-0.528320">
        <time>2017-06-24T10:01:22Z</time>
      </trkpt>
      <trkpt lat="44.878870" lon="-0.528080">
        <time>2017-06-24T10:01:23Z</time>
      </trkpt>
      <trkpt lat="44.878930" lon="-0.527830">
        <time>2017-06-24T10:01:24Z</time>
      </trkpt>
      <trkpt lat="44.878990" lon="-0.527610">
        <time>2017-06-24T10:01:25Z</time>
      </trkpt>
      <trkpt lat="44.879060" lon="-0.527370">
        <time>2017-06-24T10:01:26Z</time>
      </trkpt>
      <trkpt lat="44.879140" lon="-0.527140">
        <time>2017-06-24T10:01:27Z</time>
      </trkpt>
      <trkpt lat="44.879220" lon="-0.526930">
        <time>2017-06-24T10:01:28Z</time>
      </trkpt>
      <trkpt lat="44.879300" lon="-0.526720">
        <time>2017-06-24T10:01:29Z</time>
      </trkpt>
      <trkpt lat="44.879400" lon="-0.526500">
        <time>2017-06-24T10:01:30Z</time>
      </trkpt>
      <trkpt lat="44.879490" lon="-0.526310">
        <time>2017-06-24T10:01:31Z</time>
      </trkpt>
      <trkpt lat="44.879610" lon="-0.526080">
        <time>2017-06-24T10:01:32Z</time>
      </trkpt>
      <trkpt lat="44.879720" lon="-0.525900">
        <time>2017-06-24T10:01:33Z</time>
      </trkpt>
      <trkpt lat="44.879840" lon="-0.525700">
        <time>2017-06-24T10:01:34Z</time>
      </trkpt>
      <trkpt lat="44.879970" lon="-0.525500">
        <time>2017-06-24T10:01:35Z</time>
      </trkpt>
      <trkpt lat="44.880080" lon="-0.525320">
        <time>2017-06-24T10:01:36Z</time>
      </trkpt>
      <trkpt lat="44.880200" lon="-0.525140">
        <time>2017-06-24T10:01:37Z</time>
      </trkpt>
      <trkpt lat="44.880310" lon="-0.524960">
        <time>2017-06-24T10:01:38Z</time>
      </trkpt>
      <trkpt lat="44.880430" lon="-0.524780">
        <time>2017-06-24T10:01:39Z</time>
      </trkpt>
      <trkpt lat="44.880560" lon="-0.524580">
        <time>2017-06-24T10:01:40Z</time>
      </trkpt>
      <trkpt lat="44.880680" lon="-0.524400">
        <time>2017-06-24T10:01:41Z</time>
      </trkpt>
      <trkpt lat="44.880810" lon="-0.524220">
        <time>2017-06-24T10:01:42Z</time>
      </trkpt>
      <trkpt lat="44.880940" lon="-0.524030">
        <time>2017-06-24T10:01:43Z</time>
      </trkpt>
      <trkpt lat="44.881050" lon="-0.523870">
        <time>2017-06-24T10:01:44Z</time>
      </trkpt>
      <trkpt lat="44.881170" lon="-0.523690">
        <time>2017-06-24T10:01:45Z</time>
      </trkpt>
      <trkpt lat="44.881300" lon="-0.523500">
        <time>2017-06-24T10:01:46Z</time>
      </trkpt>
      <trkpt lat="44.881410" lon="-0.523330">
        <time>2017-06-24T10:01:47Z</time>
      </trkpt>
      <trkpt lat="44.881540" lon="-0.523150">
        <time>2017-06-24T10:01:48Z</time>
      </trkpt>
      <trkpt lat="44.881650" lon="-0.522990">
        <time>2017-06-24T10:01:49Z</time>
      </trkpt>
      <trkpt lat="44.881760" lon="-0.522810">
        <time>2017-06-24T10:01:50Z</time>
      </trkpt>
      <trkpt lat="44.881890" lon="-0.522630">
        <time>2017-06-24T10:01:51Z</time>
      </trkpt>
      <trkpt lat="44.882000" lon="-0.522460">
        <time>2017-06-24T10:01:52Z</time>
      </trkpt>
      <trkpt lat="44.882120" lon="-0.522280">
        <time>2017-06-24T10:01:53Z</time>
      </trkpt>
      <trkpt lat="44.882250" lon="-0.522100">
        <time>2017-06-24T10:01:54Z</time>
      </trkpt>
      <trkpt lat="44.882370" lon="-0.521920">
        <time>2017-06-24T10:01:55Z</time>
      </trkpt>
      <trkpt lat="44.882500" lon="-0.521730">
        <time>2017-06-24T10:01:56Z</time>
      </trkpt>
      <trkpt lat="44.882620" lon="-0.521560">
        <time>2017-06-24T10:01:57Z</time>
      </trkpt>
      <trkpt lat="44.882740" lon="-0.521360">
        <time>2017-06-24T10:01:58Z</time>
      </trkpt>
      <trkpt lat="44.882880" lon="-0.521150">
        <time>2017-06-24T10:01:59Z</time>
      </trkpt>
      <trkpt lat="44.883010" lon="-0.520960">
        <time>2017-06-24T10:02:00Z</time>
      </trkpt>
      <trkpt lat="44.883150" lon="-0.520760">
        <time>2017-06-24T10:02:01Z</time>
      </trkpt>
      <trkpt lat="44.883290" lon="-0.520520">
        <time>2017-06-24T10:02:02Z</time>
      </trkpt>
      <trkpt lat="44.883420" lon="-0.520310">
        <time>2017-06-24T10:02:03Z</time>
      </trkpt>
      <trkpt lat="44.883540" lon="-0.520060">
        <time>2017-06-24T10:02:04Z</time>
      </trkpt>
      <trkpt lat="44.883650" lon="-0.519850">
        <time>2017-06-24T10:02:05Z</time>
      </trkpt>
      <trkpt lat="44.883740" lon="-0.519620">
        <time>2017-06-24T10:02:06Z</time>
      </trkpt>
      <trkpt lat="44.883850" lon="-0.519390">
        <time>2017-06-24T10:02:07Z</time>
      </trkpt>
      <trkpt lat="44.883930" lon="-0.519190">
        <time>2017-06-24T10:02:08Z</time>
      </trkpt>
      <trkpt lat="44.884020" lon="-0.518980">
        <time>2017-06-24T10:02:09Z</time>
      </trkpt>
      <trkpt lat="44.884090" lon="-0.518780">
        <time>2017-06-24T10:02:10Z</time>
      </trkpt>
      <trkpt lat="44.884160" lon="-0.518570">
        <time>2017-06-24T10:02:11Z</time>
      </trkpt>
      <trkpt lat="44.884220" lon="-0.518350">
        <time>2017-06-24T10:02:12Z</time>
      </trkpt>
      <trkpt lat="44.884280" lon="-0.518140">
        <time>2017-06-24T10:02:13Z</time>
      </trkpt>
      <trkpt lat="44.884340" lon="-0.517910">
        <time>2017-06-24T10:02:14Z</time>
      </trkpt>
      <trkpt lat="44.884400" lon="-0.517660">
        <time>2017-06-24T10:02:15Z</time>
      </trkpt>
      <trkpt lat="44.884460" lon="-0.517440">
        <time>2017-06-24T10:02:16Z</time>
      </trkpt>
      <trkpt lat="44.884510" lon="-0.517200">
        <time>2017-06-24T10:02:17Z</time>
      </trkpt>
      <trkpt lat="44.884560" lon="-0.516940">
        <time>2017-06-24T10:02:18Z</time>
      </trkpt>
      <trkpt lat="44.884590" lon="-0.516690">
        <time>2017-06-24T10:02:19Z</time>
      </trkpt>
      <trkpt lat="44.884630" lon="-0.516420">
        <time>2017-06-24T10:02:20Z</time>
      </trkpt>
      <trkpt lat="44.884650" lon="-0.516160">
        <time>2017-06-24T10:02:21Z</time>
      </trkpt>
      <trkpt lat="44.884670" lon="-0.515890">
        <time>2017-06-24T10:02:22Z</time>
      </trkpt>
      <trkpt lat="44.884670" lon="-0.515600">
        <time>2017-06-24T10:02:23Z</time>
      </trkpt>
      <trkpt lat="44.884680" lon="-0.515320">
        <time>2017-06-24T10:02:24Z</time>
      </trkpt>
      <trkpt lat="44.884670" lon="-0.515030">
        <time>2017-06-24T10:02:25Z</time>
      </trkpt>
      <trkpt lat="44.884650" lon="-0.514720">
        <time>2017-06-24T10:02:26Z</time>
      </trkpt>
      <trkpt lat="44.884630" lon="-0.514430">
        <time>2017-06-24T10:02:27Z</time>
      </trkpt>
      <trkpt lat="44.884610" lon="-0.514110">
        <time>2017-06-24T10:02:28Z</time>
      </trkpt>
      <trkpt lat="44.884590" lon="-0.513840">
        <time>2017-06-24T10:02:29Z</time>
      </trkpt>
      <trkpt lat="44.884570" lon="-0.513560">
        <time>2017-06-24T10:02:30Z</time>
      </trkpt>
      <trkpt lat="44.884560" lon="-0.513260">
        <time>2017-06-24T10:02:31Z</time>
      </trkpt>
      <trkpt lat="44.884550" lon="-0.512990">
        <time>2017-06-24T10:02:32Z</time>
      </trkpt>
      <trkpt lat="44.884550" lon="-0.512710">
        <time>2017-06-24T10:02:33Z</time>
      </trkpt>
      <trkpt lat="44.884560" lon="-0.512410">
        <time>2017-06-24T10:02:34Z</time>
      </trkpt>
      <trkpt lat="44.884570" lon="-0.512160">
        <time>2017-06-24T10:02:35Z</time>
      </trkpt>
      <trkpt lat="44.884590" lon="-0.511860">
        <time>2017-06-24T10:02:36Z</time>
      </trkpt>
      <trkpt lat="44.884610" lon="-0.511590">
        <time>2017-06-24T10:02:37Z</time>
      </trkpt>
      <trkpt lat="44.884650" lon="-0.511320">
        <time>2017-06-24T10:02:38Z</time>
      </trkpt>
      <trkpt lat="44.884690" lon="-0.511050">
        <time>2017-06-24T10:02:39Z</time>
      </trkpt>
      <trkpt lat="44.884730" lon="-0.510810">
        <time>2017-06-24T10:02:40Z</time>
      </trkpt>
      <trkpt lat="44.884780" lon="-0.510570">
        <time>2017-06-24T10:02:41Z</time>
      </trkpt>
      <trkpt lat="44.884840" lon="-0.510330">
        <time>2017-06-24T10:02:42Z</time>
      </trkpt>
      <trkpt lat="44.884900" lon="-0.510090">
        <time>2017-06-24T10:02:43Z</time>
      </trkpt>
      <trkpt lat="44.884960" lon="-0.509840">
        <time>2017-06-24T10:02:44Z</time>
      </trkpt>
      <trkpt lat="44.885030" lon="-0.509630">
        <time>2017-06-24T10:02:45Z</time>
      </trkpt>
      <trkpt lat="44.885110" lon="-0.509400">
        <time>2017-06-24T10:02:46Z</time>
      </trkpt>
      <trkpt lat="44.885200" lon="-0.509150">
        <time>2017-06-24T10:02:47Z</time>
      </trkpt>
      <trkpt lat="44.885280" lon="-0.508930">
        <time>2017-06-24T10:02:48Z</time>
      </trkpt>
      <trkpt lat="44.885370" lon="-0.508700">
        <time>2017-06-24T10:02:49Z</time>
      </trkpt>
      <trkpt lat="44.885470" lon="-0.508460">
        <time>2017-06-24T10:02:50Z</time>
      </trkpt>
      <trkpt lat="44.885570" lon="-0.508250">
        <time>2017-06-24T10:02:51Z</time>
      </trkpt>
      <trkpt lat="44.885680" lon="-0.508010">
        <time>2017-06-24T10:02:52Z</time>
      </trkpt>
      <trkpt lat="44.885780" lon="-0.507800">
        <time>2017-06-24T10:02:53Z</time>
      </trkpt>
      <trkpt lat="44.885900" lon="-0.507590">
        <time>2017-06-24T10:02:54Z</time>
      </trkpt>
      <trkpt lat="44.886030" lon="-0.507360">
        <time>2017-06-24T10:02:55Z</time>
      </trkpt>
      <trkpt lat="44.886150" lon="-0.507170">
        <time>2017-06-24T10:02:56Z</time>
      </trkpt>
      <trkpt lat="44.886290" lon="-0.506980">
        <time>2017-06-24T10:02:57Z</time>
      </trkpt>
      <trkpt lat="44.886430" lon="-0.506770">
        <time>2017-06-24T10:02:58Z</time>
      </trkpt>
      <trkpt lat="44.886580" lon="-0.506590">
        <time>2017-06-24T10:02:59Z</time>
      </trkpt>
      <trkpt lat="44.886730" lon="-0.506380">
        <time>2017-06-24T10:03:00Z</time>
      </trkpt>
      <trkpt lat="44.886870" lon="-0.506220">
        <time>2017-06-24T10:03:01Z</time>
      </trkpt>
      <trkpt lat="44.887010" lon="-0.506060">
        <time>2017-06-24T10:03:02Z</time>
      </trkpt>
      <trkpt lat="44.887180" lon="-0.505890">
        <time>2017-06-24T10:03:03Z</time>
      </trkpt>
      <trkpt lat="44.887320" lon="-0.505740">
        <time>2017-06-24T10:03:04Z</time>
      </trkpt>
      <trkpt lat="44.887490" lon="-0.505590">
        <time>2017-06-24T10:03:05Z</time>
      </trkpt>
      <trkpt lat="44.887670" lon="-0.505430">
        <time>2017-06-24T10:03:06Z</time>
      </trkpt>
      <trkpt lat="44.887820" lon="-0.505280">
        <time>2017-06-24T10:03:07Z</time>
      </trkpt>
      <trkpt lat="44.887990" lon="-0.505120">
        <time>2017-06-24T10:03:08Z</time>
      </trkpt>
      <trkpt lat="44.888140" lon="-0.504970">
        <time>2017-06-24T10:03:09Z</time>
      </trkpt>
      <trkpt lat="44.888310" lon="-0.504820">
        <time>2017-06-24T10:03:10Z</time>
      </trkpt>
      <trkpt lat="44.888490" lon="-0.504660">
        <time>2017-06-24T10:03:11Z</time>
      </trkpt>
      <trkpt lat="44.888640" lon="-0.504510">
        <time>2017-06-24T10:03:12Z</time>
      </trkpt>
      <trkpt lat="44.888810" lon="-0.504370">
        <time>2017-06-24T10:03:13Z</time>
      </trkpt>
      <trkpt lat="44.888970" lon="-0.504200">
        <time>2017-06-24T10:03:14Z</time>
      </trkpt>
      <trkpt lat="44.889130" lon="-0.504050">
        <time>2017-06-24T10:03:15Z</time>
      </trkpt>
      <trkpt lat="44.889300" lon="-0.503880">
        <time>2017-06-24T10:03:16Z</time>
      </trkpt>
      <trkpt lat="44.889450" lon="-0.503720">
        <time>2017-06-24T10:03:17Z</time>
      </trkpt>
      <trkpt lat="44.889620" lon="-0.503560">
        <time>2017-06-24T10:03:18Z</time>
      </trkpt>
      <trkpt lat="44.889780" lon="-0.503380">
        <time>2017-06-24T10:03:19Z</time>
      </trkpt>
      <trkpt lat="44.889930" lon="-0.503230">
        <time>2017-06-24T10:03:20Z</time>
      </trkpt>
      <trkpt lat="44.890090" lon="-0.503050">
        <time>2017-06-24T10:03:21Z</time>
      </trkpt>
      <trkpt lat="44.890260" lon="-0.502860">
        <time>2017-06-24T10:03:22Z</time>
      </trkpt>
      <trkpt lat="44.890400" lon="-0.502700">
        <time>2017-06-24T10:03:23Z</time>
      </trkpt>
      <trkpt lat="44.890560" lon="-0.502520">
        <time>2017-06-24T10:03:24Z</time>
      </trkpt>
      <trkpt lat="44.890690" lon="-0.502370">
        <time>2017-06-24T10:03:25Z</time>
      </trkpt>
      <trkpt lat="44.890820" lon="-0.502220">
        <time>2017-06-24T10:03:26Z</time>
      </trkpt>
      <trkpt lat="44.890970" lon="-0.502060">
        <time>2017-06-24T10:03:27Z</time>
      </trkpt>
      <trkpt lat="44.891080" lon="-0.501930">
        <time>2017-06-24T10:03:28Z</time>
      </trkpt>
      <trkpt lat="44.891200" lon="-0.501790">
        <time>2017-06-24T10:03:29Z</time>
      </trkpt>
      <trkpt lat="44.891310" lon="-0.501660">
        <time>2017-06-24T10:03:30Z</time>
      </trkpt>
      <trkpt lat="44.891420" lon="-0.501540">
        <time>2017-06-24T10:03:31Z</time>
      </trkpt>
      <trkpt lat="44.891530" lon="-0.501420">
        <time>2017-06-24T10:03:32Z</time>
      </trkpt>
      <trkpt lat="44.891620" lon="-0.501320">
        <time>2017-06-24T10:03:33Z</time>
      </trkpt>
      <trkpt lat="44.891720" lon="-0.501220">
        <time>2017-06-24T10:03:34Z</time>
      </trkpt>
      <trkpt lat="44.891810" lon="-0.501110">
        <time>2017-06-24T10:03:35Z</time>
      </trkpt>
      <trkpt lat="44.891890" lon="-0.501020">
        <time>2017-06-24T10:03:36Z</time>
      </trkpt>
      <trkpt lat="44.891960" lon="-0.500960">
        <time>2017-06-24T10:03:37Z</time>
      </trkpt>
      <trkpt lat="44.892020" lon="-0.500890">
        <time>2017-06-24T10:03:38Z</time>
      </trkpt>
      <trkpt lat="44.892070" lon="-0.500840">
        <time>2017-06-24T10:03:39Z</time>
      </trkpt>
      <trkpt lat="44.892110" lon="-0.500780">
        <time>2017-06-24T10:03:40Z</time>
      </trkpt>
      <trkpt lat="44.892150" lon="-0.500740">
        <time>2017-06-24T10:03:41Z</time>
      </trkpt>
      <trkpt lat="44.892190" lon="-0.500700">
        <time>2017-06-24T10:03:42Z</time>
      </trkpt>
      <trkpt lat="44.892220" lon="-0.500660">
        <time>2017-06-24T10:03:43Z</time>
      </trkpt>
      <trkpt lat="44.892250" lon="-0.500630">
        <time>2017-06-24T10:03:44Z</time>
      </trkpt>
      <trkpt lat="44.892290" lon="-0.500580">
        <time>2017-06-24T10:03:45Z</time>
      </trkpt>
      <trkpt lat="44.892330" lon="-0.500530">
        <time>2017-06-24T10:03:46Z</time>
      </trkpt>
      <trkpt lat="44.892380" lon="-0.500480">
        <time>2017-06-24T10:03:47Z</time>
      </trkpt>
      <trkpt lat="44.892430" lon="-0.500420">
        <time>2017-06-24T10:03:48Z</time>
      </trkpt>
      <trkpt lat="44.892480" lon="-0.500360">
        <time>2017-06-24T10:03:49Z</time>
      </trkpt>
      <trkpt lat="44.892550" lon="-0.500310">
        <time>2017-06-24T10:03:50Z</time>
      </trkpt>
      <trkpt lat="44.892610" lon="-0.500240">
        <time>2017-06-24T10:03:51Z</time>
      </trkpt>
      <trkpt lat="44.892670" lon="-0.500160">
        <time>2017-06-24T10:03:52Z</time>
      </trkpt>
      <trkpt lat="44.892740" lon="-0.500090">
        <time>2017-06-24T10:03:53Z</time>
      </trkpt>
      <trkpt lat="44.892820" lon="-0.500010">
        <time>2017-06-24T10:03:54Z</time>
      </trkpt>
      <trkpt lat="44.892890" lon="-0.499930">
        <time>2017-06-24T10:03:55Z</time>
      </trkpt>
      <trkpt lat="44.892980" lon="-0.499830">
        <time>2017-06-24T10:03:56Z</time>
      </trkpt>
      <trkpt lat="44.893070" lon="-0.499740">
        <time>2017-06-24T10:03:57Z</time>
      </trkpt>
      <trkpt lat="44.893170" lon="-0.499620">
        <time>2017-06-24T10:03:58Z</time>
      </trkpt>
      <trkpt lat="44.893300" lon="-0.499500">
        <time>2017-06-24T10:03:59Z</time>
      </trkpt>
      <trkpt lat="44.893410" lon="-0.499390">
        <time>2017-06-24T10:04:00Z</time>
      </trkpt>
      <trkpt lat="44.893530" lon="-0.499270">
        <time>2017-06-24T10:04:01Z</time>
      </trkpt>
      <trkpt lat="44.893650" lon="-0.499140">
        <time>2017-06-24T10:04:02Z</time>
      </trkpt>
      <trkpt lat="44.893760" lon="-0.499020">
        <time>2017-06-24T10:04:03Z</time>
      </trkpt>
      <trkpt lat="44.893870" lon="-0.498890">
        <time>2017-06-24T10:04:04Z</time>
      </trkpt>
      <trkpt lat="44.893960" lon="-0.498790">
        <time>2017-06-24T10:04:05Z</time>
      </trkpt>
      <trkpt lat="44.894050" lon="-0.498690">
        <time>2017-06-24T10:04:06Z</time>
      </trkpt>
      <trkpt lat="44.894140" lon="-0.498590">
        <time>2017-06-24T10:04:07Z</time>
      </trkpt>
      <trkpt lat="44.894220" lon="-0.498500">
        <time>2017-06-24T10:04:08Z</time>
      </trkpt>
      <trkpt lat="44.894300" lon="-0.498400">
        <time>2017-06-24T10:04:09Z</time>
      </trkpt>
      <trkpt lat="44.894390" lon="-0.498300">
        <time>2017-06-24T10:04:10Z</time>
      </trkpt>
      <trkpt lat="44.894480" lon="-0.498190">
        <time>2017-06-24T10:04:11Z</time>
      </trkpt>
      <trkpt lat="44.894580" lon="-0.498090">
        <time>2017-06-24T10:04:12Z</time>
      </trkpt>
      <trkpt lat="44.894670" lon="-0.497990">
        <time>2017-06-24T10:04:13Z</time>
      </trkpt>
      <trkpt lat="44.894770" lon="-0.497880">
        <time>2017-06-24T10:04:14Z</time>
      </trkpt>
      <trkpt lat="44.894870" lon="-0.497770">
        <time>2017-06-24T10:04:15Z</time>
      </trkpt>
      <trkpt lat="44.894950" lon="-0.497700">
        <time>2017-06-24T10:04:16Z</time>
      </trkpt>
      <trkpt lat="44.895020" lon="-0.497620">
        <time>2017-06-24T10:04:17Z</time>
      </trkpt>
      <trkpt lat="44.895070" lon="-0.497570">
        <time>2017-06-24T10:04:18Z</time>
      </trkpt>
      <trkpt lat="44.895110" lon="-0.497520">
        <time>2017-06-24T10:04:19Z</time>
      </trkpt>
      <trkpt lat="44.895150" lon="-0.497480">
        <time>2017-06-24T10:04:20Z</time>
      </trkpt>
      <trkpt lat="44.895180" lon="-0.497460">
        <time>2017-06-24T10:04:21Z</time>
      </trkpt>
      <trkpt lat="44.895200" lon="-0.497430">
        <time>2017-06-24T10:04:22Z</time>
      </trkpt>
      <trkpt lat="44.895220" lon="-0.497410">
        <time>2017-06-24T10:04:23Z</time>
      </trkpt>
      <trkpt lat="44.895230" lon="-0.497410">
        <time>2017-06-24T10:04:24Z</time>
      </trkpt>
      <trkpt lat="44.895240" lon="-0.497390">
        <time>2017-06-24T10:04:25Z</time>
      </trkpt>
      <trkpt lat="44.895240" lon="-0.497380">
        <time>2017-06-24T10:04:26Z</time>
      </trkpt>
      <trkpt lat="44.895240" lon="-0.497390">
        <time>2017-06-24T10:04:27Z</time>
      </trkpt>
      <trkpt lat="44.895250" lon="-0.497380">
        <time>2017-06-24T10:04:28Z</time>
      </trkpt>
      <trkpt lat="44.895270" lon="-0.497370">
        <time>2017-06-24T10:04:29Z</time>
      </trkpt>
      <trkpt lat="44.895290" lon="-0.497340">
        <time>2017-06-24T10:04:30Z</time>
      </trkpt>
      <trkpt lat="44.895330" lon="-0.497300">
        <time>2017-06-24T10:04:31Z</time>
      </trkpt>
      <trkpt lat="44.895390" lon="-0.497240">
        <time>2017-06-24T10:04:32Z</time>
      </trkpt>
      <trkpt lat="44.895450" lon="-0.497170">
        <time>2017-06-24T10:04:33Z</time>
      </trkpt>
      <trkpt lat="44.895520" lon="-0.497110">
        <time>2017-06-24T10:04:34Z</time>
      </trkpt>
      <trkpt lat="44.895580" lon="-0.497050">
        <time>2017-06-24T10:04:35Z</time>
      </trkpt>
      <trkpt lat="44.895660" lon="-0.496990">
        <time>2017-06-24T10:04:36Z</time>
      </trkpt>
      <trkpt lat="44.895720" lon="-0.496940">
        <time>2017-06-24T10:04:37Z</time>
      </trkpt>
      <trkpt lat="44.895780" lon="-0.496870">
        <time>2017-06-24T10:04:38Z</time>
      </trkpt>
      <trkpt lat="44.895860" lon="-0.496790">
        <time>2017-06-24T10:04:39Z</time>
      </trkpt>
      <trkpt lat="44.895940" lon="-0.496720">
        <time>2017-06-24T10:04:40Z</time>
      </trkpt>
      <trkpt lat="44.896030" lon="-0.496640">
        <time>2017-06-24T10:04:41Z</time>
      </trkpt>
      <trkpt lat="44.896130" lon="-0.496550">
        <time>2017-06-24T10:04:42Z</time>
      </trkpt>
      <trkpt lat="44.896230" lon="-0.496470">
        <time>2017-06-24T10:04:43Z</time>
      </trkpt>
      <trkpt lat="44.896340" lon="-0.496370">
        <time>2017-06-24T10:04:44Z</time>
      </trkpt>
      <trkpt lat="44.896450" lon="-0.496290">
        <time>2017-06-24T10:04:45Z</time>
      </trkpt>
      <trkpt lat="44.896560" lon="-0.496210">
        <time>2017-06-24T10:04:46Z</time>
      </trkpt>
      <trkpt lat="44.896690" lon="-0.496120">
        <time>2017-06-24T10:04:47Z</time>
      </trkpt>
      <trkpt lat="44.896790" lon="-0.496040">
        <time>2017-06-24T10:04:48Z</time>
      </trkpt>
      <trkpt lat="44.896920" lon="-0.495960">
        <time>2017-06-24T10:04:49Z</time>
      </trkpt>
      <trkpt lat="44.897040" lon="-0.495880">
        <time>2017-06-24T10:04:50Z</time>
      </trkpt>
      <trkpt lat="44.897160" lon="-0.495810">
        <time>2017-06-24T10:04:51Z</time>
      </trkpt>
      <trkpt lat="44.897280" lon="-0.495730">
        <time>2017-06-24T10:04:52Z</time>
      </trkpt>
      <trkpt lat="44.897390" lon="-0.495670">
        <time>2017-06-24T10:04:53Z</time>
      </trkpt>
      <trkpt lat="44.897510" lon="-0.495590">
        <time>2017-06-24T10:04:54Z</time>
      </trkpt>
      <trkpt lat="44.897630" lon="-0.495520">
        <time>2017-06-24T10:04:55Z</time>
      </trkpt>
      <trkpt lat="44.897740" lon="-0.495470">
        <time>2017-06-24T10:04:56Z</time>
      </trkpt>
      <trkpt lat="44.897840" lon="-0.495410">
        <time>2017-06-24T10:04:57Z</time>
      </trkpt>
      <trkpt lat="44.897960" lon="-0.495360">
        <time>2017-06-24T10:04:58Z</time>
      </trkpt>
      <trkpt lat="44.898070" lon="-0.495310">
        <time>2017-06-24T10:04:59Z</time>
      </trkpt>
      <trkpt lat="44.898190" lon="-0.495240">
        <time>2017-06-24T10:05:00Z</time>
      </trkpt>
      <trkpt lat="44.898300" lon="-0.495200">
        <time>2017-06-24T10:05:01Z</time>
      </trkpt>
      <trkpt lat="44.898410" lon="-0.495140">
        <time>2017-06-24T10:05:02Z</time>
      </trkpt>
      <trkpt lat="44.898540" lon="-0.495080">
        <time>2017-06-24T10:05:03Z</time>
      </trkpt>
      <trkpt lat="44.898650" lon="-0.495030">
        <time>2017-06-24T10:05:04Z</time>
      </trkpt>
      <trkpt lat="44.898780" lon="-0.494980">
        <time>2017-06-24T10:05:05Z</time>
      </trkpt>
      <trkpt lat="44.898900" lon="-0.494930">
        <time>2017-06-24T10:05:06Z</time>
      </trkpt>
      <trkpt lat="44.899030" lon="-0.494880">
        <time>2017-06-24T10:05:07Z</time>
      </trkpt>
      <trkpt lat="44.899170" lon="-0.494830">
        <time>2017-06-24T10:05:08Z</time>
      </trkpt>
      <trkpt lat="44.899290" lon="-0.494780">
        <time>2017-06-24T10:05:09Z</time>
      </trkpt>
      <trkpt lat="44.899430" lon="-0.494720">
        <time>2017-06-24T10:05:10Z</time>
      </trkpt>
      <trkpt lat="44.899570" lon="-0.494660">
        <time>2017-06-24T10:05:11Z</time>
      </trkpt>
      <trkpt lat="44.899690" lon="-0.494610">
        <time>2017-06-24T10:05:12Z</time>
      </trkpt>
      <trkpt lat="44.899830" lon="-0.494550">
        <time>2017-06-24T10:05:13Z</time>
      </trkpt>
      <trkpt lat="44.899980" lon="-0.494500">
        <time>2017-06-24T10:05:14Z</time>
      </trkpt>
      <trkpt lat="44.900120" lon="-0.494450">
        <time>2017-06-24T10:05:15Z</time>
      </trkpt>
      <trkpt lat="44.900280" lon="-0.494380">
        <time>2017-06-24T10:05:16Z</time>
      </trkpt>
      <trkpt lat="44.900430" lon="-0.494320">
        <time>2017-06-24T10:05:17Z</time>
      </trkpt>
      <trkpt lat="44.900590" lon="-0.494250">
        <time>2017-06-24T10:05:18Z</time>
      </trkpt>
      <trkpt lat="44.900770" lon="-0.494180">
        <time>2017-06-24T10:05:19Z</time>
      </trkpt>
      <trkpt lat="44.900920" lon="-0.494120">
        <time>2017-06-24T10:05:20Z</time>
      </trkpt>
      <trkpt lat="44.901080" lon="-0.494050">
        <time>2017-06-24T10:05:21Z</time>
      </trkpt>
      <trkpt lat="44.901260" lon="-0.493980">
        <time>2017-06-24T10:05:22Z</time>
      </trkpt>
      <trkpt lat="44.901440" lon="-0.493900">
        <time>2017-06-24T10:05:23Z</time>
      </trkpt>
      <trkpt lat="44.901650" lon="-0.493820">
        <time>2017-06-24T10:05:24Z</time>
      </trkpt>
      <trkpt lat="44.901820" lon="-0.493750">
        <time>2017-06-24T10:05:25Z</time>
      </trkpt>
      <trkpt lat="44.902020" lon="-0.493670">
        <time>2017-06-24T10:05:26Z</time>
      </trkpt>
      <trkpt lat="44.902230" lon="-0.493580">
        <time>2017-06-24T10:05:27Z</time>
      </trkpt>
      <trkpt lat="44.902420" lon="-0.493500">
        <time>2017-06-24T10:05:28Z</time>
      </trkpt>
      <trkpt lat="44.902620" lon="-0.493420">
        <time>2017-06-24T10:05:29Z</time>
      </trkpt>
      <trkpt lat="44.902840" lon="-0.493330">
        <time>2017-06-24T10:05:30Z</time>
      </trkpt>
      <trkpt lat="44.903030" lon="-0.493250">
        <time>2017-06-24T10:05:31Z</time>
      </trkpt>
      <trkpt lat="44.903240" lon="-0.493160">
        <time>2017-06-24T10:05:32Z</time>
      </trkpt>
      <trkpt lat="44.903420" lon="-0.493090">
        <time>2017-06-24T10:05:33Z</time>
      </trkpt>
      <trkpt lat="44.903630" lon="-0.493010">
        <time>2017-06-24T10:05:34Z</time>
      </trkpt>
      <trkpt lat="44.903850" lon="-0.492920">
        <time>2017-06-24T10:05:35Z</time>
      </trkpt>
      <trkpt lat="44.904040" lon="-0.492840">
        <time>2017-06-24T10:05:36Z</time>
      </trkpt>
      <trkpt lat="44.904250" lon="-0.492750">
        <time>2017-06-24T10:05:37Z</time>
      </trkpt>
      <trkpt lat="44.904460" lon="-0.492670">
        <time>2017-06-24T10:05:38Z</time>
      </trkpt>
      <trkpt lat="44.904670" lon="-0.492590">
        <time>2017-06-24T10:05:39Z</time>
      </trkpt>
      <trkpt lat="44.904880" lon="-0.492500">
        <time>2017-06-24T10:05:40Z</time>
      </trkpt>
      <trkpt lat="44.905080" lon="-0.492410">
        <time>2017-06-24T10:05:41Z</time>
      </trkpt>
      <trkpt lat="44.905290" lon="-0.492320">
        <time>2017-06-24T10:05:42Z</time>
      </trkpt>
      <trkpt lat="44.905530" lon="-0.492220">
        <time>2017-06-24T10:05:43Z</time>
      </trkpt>
      <trkpt lat="44.905730" lon="-0.492140">
        <time>2017-06-24T10:05:44Z</time>
      </trkpt>
      <trkpt lat="44.905950" lon="-0.492040">
        <time>2017-06-24T10:05:45Z</time>
      </trkpt>
      <trkpt lat="44.906180" lon="-0.491930">
        <time>2017-06-24T10:05:46Z</time>
      </trkpt>
      <trkpt lat="44.906380" lon="-0.491830">
        <time>2017-06-24T10:05:47Z</time>
      </trkpt>
      <trkpt lat="44.906610" lon="-0.491710">
        <time>2017-06-24T10:05:48Z</time>
      </trkpt>
      <trkpt lat="44.906820" lon="-0.491590">
        <time>2017-06-24T10:05:49Z</time>
      </trkpt>
      <trkpt lat="44.907040" lon="-0.491450">
        <time>2017-06-24T10:05:50Z</time>
      </trkpt>
      <trkpt lat="44.907290" lon="-0.491290">
        <time>2017-06-24T10:05:51Z</time>
      </trkpt>
      <trkpt lat="44.907500" lon="-0.491140">
        <time>2017-06-24T10:05:52Z</time>
      </trkpt>
      <trkpt lat="44.907720" lon="-0.490960">
        <time>2017-06-24T10:05:53Z</time>
      </trkpt>
      <trkpt lat="44.907940" lon="-0.490780">
        <time>2017-06-24T10:05:54Z</time>
      </trkpt>
      <trkpt lat="44.908160" lon="-0.490590">
        <time>2017-06-24T10:05:55Z</time>
      </trkpt>
      <trkpt lat="44.908400" lon="-0.490370">
        <time>2017-06-24T10:05:56Z</time>
      </trkpt>
      <trkpt lat="44.908600" lon="-0.490160">
        <time>2017-06-24T10:05:57Z</time>
      </trkpt>
      <trkpt lat="44.908810" lon="-0.489920">
        <time>2017-06-24T10:05:58Z</time>
      </trkpt>
      <trkpt lat="44.909040" lon="-0.489670">
        <time>2017-06-24T10:05:59Z</time>
      </trkpt>
      <trkpt lat="44.909230" lon="-0.489440">
        <time>2017-06-24T10:06:00Z</time>
      </trkpt>
      <trkpt lat="44.909430" lon="-0.489180">
        <time>2017-06-24T10:06:01Z</time>
      </trkpt>
      <trkpt lat="44.909630" lon="-0.488900">
        <time>2017-06-24T10:06:02Z</time>
      </trkpt>
      <trkpt lat="44.909810" lon="-0.488630">
        <time>2017-06-24T10:06:03Z</time>
      </trkpt>
      <trkpt lat="44.910000" lon="-0.488340">
        <time>2017-06-24T10:06:04Z</time>
      </trkpt>
      <trkpt lat="44.910160" lon="-0.488070">
        <time>2017-06-24T10:06:05Z</time>
      </trkpt>
      <trkpt lat="44.910330" lon="-0.487770">
        <time>2017-06-24T10:06:06Z</time>
      </trkpt>
      <trkpt lat="44.910500" lon="-0.487460">
        <time>2017-06-24T10:06:07Z</time>
      </trkpt>
      <trkpt lat="44.910650" lon="-0.487180">
        <time>2017-06-24T10:06:08Z</time>
      </trkpt>
      <trkpt lat="44.910800" lon="-0.486880">
        <time>2017-06-24T10:06:09Z</time>
      </trkpt>
      <trkpt lat="44.910960" lon="-0.486580">
        <time>2017-06-24T10:06:10Z</time>
      </trkpt>
      <trkpt lat="44.911110" lon="-0.486280">
        <time>2017-06-24T10:06:11Z</time>
      </trkpt>
      <trkpt lat="44.911270" lon="-0.485950">
        <time>2017-06-24T10:06:12Z</time>
      </trkpt>
      <trkpt lat="44.911410" lon="-0.485670">
        <time>2017-06-24T10:06:13Z</time>
      </trkpt>
      <trkpt lat="44.911560" lon="-0.485360">
        <time>2017-06-24T10:06:14Z</time>
      </trkpt>
      <trkpt lat="44.911710" lon="-0.485040">
        <time>2017-06-24T10:06:15Z</time>
      </trkpt>
      <trkpt lat="44.911860" lon="-0.484750">
        <time>2017-06-24T10:06:16Z</time>
      </trkpt>
      <trkpt lat="44.912010" lon="-0.484450">
        <time>2017-06-24T10:06:17Z</time>
      </trkpt>
      <trkpt lat="44.912170" lon="-0.484120">
        <time>2017-06-24T10:06:18Z</time>
      </trkpt>
      <trkpt lat="44.912310" lon="-0.483840">
        <time>2017-06-24T10:06:19Z</time>
      </trkpt>
      <trkpt lat="44.912470" lon="-0.483520">
        <time>2017-06-24T10:06:20Z</time>
      </trkpt>
      <trkpt lat="44.912620" lon="-0.483230">
        <time>2017-06-24T10:06:21Z</time>
      </trkpt>
      <trkpt lat="44.912770" lon="-0.482910">
        <time>2017-06-24T10:06:22Z</time>
      </trkpt>
      <trkpt lat="44.912930" lon="-0.482570">
        <time>2017-06-24T10:06:23Z</time>
      </trkpt>
      <trkpt lat="44.913080" lon="-0.482280">
        <time>2017-06-24T10:06:24Z</time>
      </trkpt>
      <trkpt lat="44.913240" lon="-0.481960">
        <time>2017-06-24T10:06:25Z</time>
      </trkpt>
      <trkpt lat="44.913400" lon="-0.481640">
        <time>2017-06-24T10:06:26Z</time>
      </trkpt>
      <trkpt lat="44.913560" lon="-0.481330">
        <time>2017-06-24T10:06:27Z</time>
      </trkpt>
      <trkpt lat="44.913740" lon="-0.481000">
        <time>2017-06-24T10:06:28Z</time>
      </trkpt>
      <trkpt lat="44.913900" lon="-0.480720">
        <time>2017-06-24T10:06:29Z</time>
      </trkpt>
      <trkpt lat="44.914080" lon="-0.480420">
        <time>2017-06-24T10:06:30Z</time>
      </trkpt>
      <trkpt lat="44.914280" lon="-0.480110">
        <time>2017-06-24T10:06:31Z</time>
      </trkpt>
      <trkpt lat="44.914470" lon="-0.479850">
        <time>2017-06-24T10:06:32Z</time>
      </trkpt>
      <trkpt lat="44.914680" lon="-0.479570">
        <time>2017-06-24T10:06:33Z</time>
      </trkpt>
      <trkpt lat="44.914900" lon="-0.479290">
        <time>2017-06-24T10:06:34Z</time>
      </trkpt>
      <trkpt lat="44.915110" lon="-0.479050">
        <time>2017-06-24T10:06:35Z</time>
      </trkpt>
      <trkpt lat="44.915350" lon="-0.478780">
        <time>2017-06-24T10:06:36Z</time>
      </trkpt>
      <trkpt lat="44.915570" lon="-0.478550">
        <time>2017-06-24T10:06:37Z</time>
      </trkpt>
      <trkpt lat="44.915810" lon="-0.478310">
        <time>2017-06-24T10:06:38Z</time>
      </trkpt>
      <trkpt lat="44.916070" lon="-0.478070">
        <time>2017-06-24T10:06:39Z</time>
      </trkpt>
      <trkpt lat="44.916310" lon="-0.477880">
        <time>2017-06-24T10:06:40Z</time>
      </trkpt>
      <trkpt lat="44.916570" lon="-0.477680">
        <time>2017-06-24T10:06:41Z</time>
      </trkpt>
      <trkpt lat="44.916830" lon="-0.477490">
        <time>2017-06-24T10:06:42Z</time>
      </trkpt>
      <trkpt lat="44.917090" lon="-0.477310">
        <time>2017-06-24T10:06:43Z</time>
      </trkpt>
      <trkpt lat="44.917370" lon="-0.477120">
        <time>2017-06-24T10:06:44Z</time>
      </trkpt>
      <trkpt lat="44.917620" lon="-0.476970">
        <time>2017-06-24T10:06:45Z</time>
      </trkpt>
      <trkpt lat="44.917880" lon="-0.476810">
        <time>2017-06-24T10:06:46Z</time>
      </trkpt>
      <trkpt lat="44.918170" lon="-0.476660">
        <time>2017-06-24T10:06:47Z</time>
      </trkpt>
      <trkpt lat="44.918410" lon="-0.476530">
        <time>2017-06-24T10:06:48Z</time>
      </trkpt>
      <trkpt lat="44.918670" lon="-0.476380">
        <time>2017-06-24T10:06:49Z</time>
      </trkpt>
      <trkpt lat="44.918950" lon="-0.476240">
        <time>2017-06-24T10:06:50Z</time>
      </trkpt>
      <trkpt lat="44.919200" lon="-0.476120">
        <time>2017-06-24T10:06:51Z</time>
      </trkpt>
      <trkpt lat="44.919470" lon="-0.475970">
        <time>2017-06-24T10:06:52Z</time>
      </trkpt>
      <trkpt lat="44.919710" lon="-0.475840">
        <time>2017-06-24T10:06:53Z</time>
      </trkpt>
      <trkpt lat="44.919970" lon="-0.475700">
        <time>2017-06-24T10:06:54Z</time>
      </trkpt>
      <trkpt lat="44.920240" lon="-0.475560">
        <time>2017-06-24T10:06:55Z</time>
      </trkpt>
      <trkpt lat="44.920480" lon="-0.475430">
        <time>2017-06-24T10:06:56Z</time>
      </trkpt>
      <trkpt lat="44.920740" lon="-0.475300">
        <time>2017-06-24T10:06:57Z</time>
      </trkpt>
      <trkpt lat="44.921000" lon="-0.475160">
        <time>2017-06-24T10:06:58Z</time>
      </trkpt>
      <trkpt lat="44.921250" lon="-0.475020">
        <time>2017-06-24T10:06:59Z</time>
      </trkpt>
      <trkpt lat="44.921530" lon="-0.474880">
        <time>2017-06-24T10:07:00Z</time>
      </trkpt>
      <trkpt lat="44.921770" lon="-0.474750">
        <time>2017-06-24T10:07:01Z</time>
      </trkpt>
      <trkpt lat="44.922030" lon="-0.474620">
        <time>2017-06-24T10:07:02Z</time>
      </trkpt>
      <trkpt lat="44.922300" lon="-0.474470">
        <time>2017-06-24T10:07:03Z</time>
      </trkpt>
      <trkpt lat="44.922530" lon="-0.474340">
        <time>2017-06-24T10:07:04Z</time>
      </trkpt>
      <trkpt lat="44.922780" lon="-0.474200">
        <time>2017-06-24T10:07:05Z</time>
      </trkpt>
      <trkpt lat="44.923050" lon="-0.474040">
        <time>2017-06-24T10:07:06Z</time>
      </trkpt>
      <trkpt lat="44.923280" lon="-0.473890">
        <time>2017-06-24T10:07:07Z</time>
      </trkpt>
      <trkpt lat="44.923540" lon="-0.473730">
        <time>2017-06-24T10:07:08Z</time>
      </trkpt>
      <trkpt lat="44.923760" lon="-0.473590">
        <time>2017-06-24T10:07:09Z</time>
      </trkpt>
      <trkpt lat="44.923990" lon="-0.473430">
        <time>2017-06-24T10:07:10Z</time>
      </trkpt>
      <trkpt lat="44.924250" lon="-0.473270">
        <time>2017-06-24T10:07:11Z</time>
      </trkpt>
      <trkpt lat="44.924470" lon="-0.473120">
        <time>2017-06-24T10:07:12Z</time>
      </trkpt>
      <trkpt lat="44.924700" lon="-0.472960">
        <time>2017-06-24T10:07:13Z</time>
      </trkpt>
      <trkpt lat="44.924930" lon="-0.472810">
        <time>2017-06-24T10:07:14Z</time>
      </trkpt>
      <trkpt lat="44.925150" lon="-0.472660">
        <time>2017-06-24T10:07:15Z</time>
      </trkpt>
      <trkpt lat="44.925390" lon="-0.472500">
        <time>2017-06-24T10:07:16Z</time>
      </trkpt>
      <trkpt lat="44.925600" lon="-0.472360">
        <time>2017-06-24T10:07:17Z</time>
      </trkpt>
      <trkpt lat="44.925820" lon="-0.472210">
        <time>2017-06-24T10:07:18Z</time>
      </trkpt>
      <trkpt lat="44.926060" lon="-0.472050">
        <time>2017-06-24T10:07:19Z</time>
      </trkpt>
      <trkpt lat="44.926270" lon="-0.471910">
        <time>2017-06-24T10:07:20Z</time>
      </trkpt>
      <trkpt lat="44.926500" lon="-0.471760">
        <time>2017-06-24T10:07:21Z</time>
      </trkpt>
      <trkpt lat="44.926730" lon="-0.471600">
        <time>2017-06-24T10:07:22Z</time>
      </trkpt>
      <trkpt lat="44.926930" lon="-0.471470">
        <time>2017-06-24T10:07:23Z</time>
      </trkpt>
      <trkpt lat="44.927160" lon="-0.471310">
        <time>2017-06-24T10:07:24Z</time>
      </trkpt>
      <trkpt lat="44.927360" lon="-0.471180">
        <time>2017-06-24T10:07:25Z</time>
      </trkpt>
      <trkpt lat="44.927570" lon="-0.471040">
        <time>2017-06-24T10:07:26Z</time>
      </trkpt>
      <trkpt lat="44.927800" lon="-0.470900">
        <time>2017-06-24T10:07:27Z</time>
      </trkpt>
      <trkpt lat="44.928000" lon="-0.470760">
        <time>2017-06-24T10:07:28Z</time>
      </trkpt>
      <trkpt lat="44.928210" lon="-0.470620">
        <time>2017-06-24T10:07:29Z</time>
      </trkpt>
      <trkpt lat="44.928420" lon="-0.470480">
        <time>2017-06-24T10:07:30Z</time>
      </trkpt>
      <trkpt lat="44.928640" lon="-0.470330">
        <time>2017-06-24T10:07:31Z</time>
      </trkpt>
      <trkpt lat="44.928870" lon="-0.470180">
        <time>2017-06-24T10:07:32Z</time>
      </trkpt>
      <trkpt lat="44.929080" lon="-0.470040">
        <time>2017-06-24T10:07:33Z</time>
      </trkpt>
      <trkpt lat="44.929300" lon="-0.469890">
        <time>2017-06-24T10:07:34Z</time>
      </trkpt>
      <trkpt lat="44.929530" lon="-0.469740">
        <time>2017-06-24T10:07:35Z</time>
      </trkpt>
      <trkpt lat="44.929730" lon="-0.469610">
        <time>2017-06-24T10:07:36Z</time>
      </trkpt>
      <trkpt lat="44.929950" lon="-0.469460">
        <time>2017-06-24T10:07:37Z</time>
      </trkpt>
      <trkpt lat="44.930170" lon="-0.469310">
        <time>2017-06-24T10:07:38Z</time>
      </trkpt>
      <trkpt lat="44.930370" lon="-0.469180">
        <time>2017-06-24T10:07:39Z</time>
      </trkpt>
      <trkpt lat="44.930600" lon="-0.469040">
        <time>2017-06-24T10:07:40Z</time>
      </trkpt>
      <trkpt lat="44.930800" lon="-0.468910">
        <time>2017-06-24T10:07:41Z</time>
      </trkpt>
      <trkpt lat="44.931020" lon="-0.468780">
        <time>2017-06-24T10:07:42Z</time>
      </trkpt>
      <trkpt lat="44.931250" lon="-0.468640">
        <time>2017-06-24T10:07:43Z</time>
      </trkpt>
      <trkpt lat="44.931450" lon="-0.468520">
        <time>2017-06-24T10:07:44Z</time>
      </trkpt>
      <trkpt lat="44.931680" lon="-0.468400">
        <time>2017-06-24T10:07:45Z</time>
      </trkpt>
      <trkpt lat="44.931910" lon="-0.468290">
        <time>2017-06-24T10:07:46Z</time>
      </trkpt>
      <trkpt lat="44.932140" lon="-0.468190">
        <time>2017-06-24T10:07:47Z</time>
      </trkpt>
      <trkpt lat="44.932390" lon="-0.468080">
        <time>2017-06-24T10:07:48Z</time>
      </trkpt>
      <trkpt lat="44.932610" lon="-0.468000">
        <time>2017-06-24T10:07:49Z</time>
      </trkpt>
      <trkpt lat="44.932850" lon="-0.467910">
        <time>2017-06-24T10:07:50Z</time>
      </trkpt>
      <trkpt lat="44.933110" lon="-0.467830">
        <time>2017-06-24T10:07:51Z</time>
      </trkpt>
      <trkpt lat="44.933330" lon="-0.467770">
        <time>2017-06-24T10:07:52Z</time>
      </trkpt>
      <trkpt lat="44.933560" lon="-0.467700">
        <time>2017-06-24T10:07:53Z</time>
      </trkpt>
      <trkpt lat="44.933810" lon="-0.467640">
        <time>2017-06-24T10:07:54Z</time>
      </trkpt>
      <trkpt lat="44.934020" lon="-0.467590">
        <time>2017-06-24T10:07:55Z</time>
      </trkpt>
      <trkpt lat="44.934270" lon="-0.467550">
        <time>2017-06-24T10:07:56Z</time>
      </trkpt>
      <trkpt lat="44.934480" lon="-0.467520">
        <time>2017-06-24T10:07:57Z</time>
      </trkpt>
      <trkpt lat="44.934710" lon="-0.467470">
        <time>2017-06-24T10:07:58Z</time>
      </trkpt>
      <trkpt lat="44.934950" lon="-0.467430">
        <time>2017-06-24T10:07:59Z</time>
      </trkpt>
      <trkpt lat="44.935170" lon="-0.467400">
        <time>2017-06-24T10:08:00Z</time>
      </trkpt>
      <trkpt lat="44.935390" lon="-0.467360">
        <time>2017-06-24T10:08:01Z</time>
      </trkpt>
      <trkpt lat="44.935620" lon="-0.467320">
        <time>2017-06-24T10:08:02Z</time>
      </trkpt>
      <trkpt lat="44.935850" lon="-0.467280">
        <time>2017-06-24T10:08:03Z</time>
      </trkpt>
      <trkpt lat="44.936100" lon="-0.467240">
        <time>2017-06-24T10:08:04Z</time>
      </trkpt>
      <trkpt lat="44.936300" lon="-0.467210">
        <time>2017-06-24T10:08:05Z</time>
      </trkpt>
      <trkpt lat="44.936520" lon="-0.467170">
        <time>2017-06-24T10:08:06Z</time>
      </trkpt>
      <trkpt lat="44.936760" lon="-0.467130">
        <time>2017-06-24T10:08:07Z</time>
      </trkpt>
      <trkpt lat="44.936970" lon="-0.467090">
        <time>2017-06-24T10:08:08Z</time>
      </trkpt>
      <trkpt lat="44.937190" lon="-0.467060">
        <time>2017-06-24T10:08:09Z</time>
      </trkpt>
      <trkpt lat="44.937440" lon="-0.467020">
        <time>2017-06-24T10:08:10Z</time>
      </trkpt>
      <trkpt lat="44.937650" lon="-0.466980">
        <time>2017-06-24T10:08:11Z</time>
      </trkpt>
      <trkpt lat="44.937900" lon="-0.466930">
        <time>2017-06-24T10:08:12Z</time>
      </trkpt>
      <trkpt lat="44.938120" lon="-0.466890">
        <time>2017-06-24T10:08:13Z</time>
      </trkpt>
      <trkpt lat="44.938350" lon="-0.466850">
        <time>2017-06-24T10:08:14Z</time>
      </trkpt>
      <trkpt lat="44.938600" lon="-0.466800">
        <time>2017-06-24T10:08:15Z</time>
      </trkpt>
      <trkpt lat="44.938810" lon="-0.466770">
        <time>2017-06-24T10:08:16Z</time>
      </trkpt>
      <trkpt lat="44.939030" lon="-0.466740">
        <time>2017-06-24T10:08:17Z</time>
      </trkpt>
      <trkpt lat="44.939260" lon="-0.466700">
        <time>2017-06-24T10:08:18Z</time>
      </trkpt>
      <trkpt lat="44.939490" lon="-0.466660">
        <time>2017-06-24T10:08:19Z</time>
      </trkpt>
      <trkpt lat="44.939730" lon="-0.466630">
        <time>2017-06-24T10:08:20Z</time>
      </trkpt>
      <trkpt lat="44.939930" lon="-0.466620">
        <time>2017-06-24T10:08:21Z</time>
      </trkpt>
      <trkpt lat="44.940150" lon="-0.466590">
        <time>2017-06-24T10:08:22Z</time>
      </trkpt>
      <trkpt lat="44.940400" lon="-0.466530">
        <time>2017-06-24T10:08:23Z</time>
      </trkpt>
      <trkpt lat="44.940630" lon="-0.466490">
        <time>2017-06-24T10:08:24Z</time>
      </trkpt>
      <trkpt lat="44.940870" lon="-0.466450">
        <time>2017-06-24T10:08:25Z</time>
      </trkpt>
      <trkpt lat="44.941130" lon="-0.466400">
        <time>2017-06-24T10:08:26Z</time>
      </trkpt>
      <trkpt lat="44.941350" lon="-0.466360">
        <time>2017-06-24T10:08:27Z</time>
      </trkpt>
      <trkpt lat="44.941610" lon="-0.466320">
        <time>2017-06-24T10:08:28Z</time>
      </trkpt>
      <trkpt lat="44.941840" lon="-0.466280">
        <time>2017-06-24T10:08:29Z</time>
      </trkpt>
      <trkpt lat="44.942090" lon="-0.466240">
        <time>2017-06-24T10:08:30Z</time>
      </trkpt>
      <trkpt lat="44.942350" lon="-0.466190">
        <time>2017-06-24T10:08:31Z</time>
      </trkpt>
      <trkpt lat="44.942570" lon="-0.466150">
        <time>2017-06-24T10:08:32Z</time>
      </trkpt>
      <trkpt lat="44.942820" lon="-0.466110">
        <time>2017-06-24T10:08:33Z</time>
      </trkpt>
      <trkpt lat="44.943070" lon="-0.466070">
        <time>2017-06-24T10:08:34Z</time>
      </trkpt>
      <trkpt lat="44.943320" lon="-0.466020">
        <time>2017-06-24T10:08:35Z</time>
      </trkpt>
      <trkpt lat="44.943590" lon="-0.465980">
        <time>2017-06-24T10:08:36Z</time>
      </trkpt>
      <trkpt lat="44.943820" lon="-0.465930">
        <time>2017-06-24T10:08:37Z</time>
      </trkpt>
      <trkpt lat="44.944070" lon="-0.465890">
        <time>2017-06-24T10:08:38Z</time>
      </trkpt>
      <trkpt lat="44.944330" lon="-0.465850">
        <time>2017-06-24T10:08:39Z</time>
      </trkpt>
      <trkpt lat="44.944560" lon="-0.465810">
        <time>2017-06-24T10:08:40Z</time>
      </trkpt>
      <trkpt lat="44.944800" lon="-0.465750">
        <time>2017-06-24T10:08:41Z</time>
      </trkpt>
      <trkpt lat="44.945060" lon="-0.465700">
        <time>2017-06-24T10:08:42Z</time>
      </trkpt>
      <trkpt lat="44.945290" lon="-0.465640">
        <time>2017-06-24T10:08:43Z</time>
      </trkpt>
      <trkpt lat="44.945540" lon="-0.465580">
        <time>2017-06-24T10:08:44Z</time>
      </trkpt>
      <trkpt lat="44.945760" lon="-0.465520">
        <time>2017-06-24T10:08:45Z</time>
      </trkpt>
      <trkpt lat="44.945990" lon="-0.465440">
        <time>2017-06-24T10:08:46Z</time>
      </trkpt>
      <trkpt lat="44.946250" lon="-0.465360">
        <time>2017-06-24T10:08:47Z</time>
      </trkpt>
      <trkpt lat="44.946470" lon="-0.465270">
        <time>2017-06-24T10:08:48Z</time>
      </trkpt>
      <trkpt lat="44.946700" lon="-0.465180">
        <time>2017-06-24T10:08:49Z</time>
      </trkpt>
      <trkpt lat="44.946930" lon="-0.465080">
        <time>2017-06-24T10:08:50Z</time>
      </trkpt>
      <trkpt lat="44.947160" lon="-0.464980">
        <time>2017-06-24T10:08:51Z</time>
      </trkpt>
      <trkpt lat="44.947400" lon="-0.464860">
        <time>2017-06-24T10:08:52Z</time>
      </trkpt>
      <trkpt lat="44.947610" lon="-0.464740">
        <time>2017-06-24T10:08:53Z</time>
      </trkpt>
      <trkpt lat="44.947830" lon="-0.464620">
        <time>2017-06-24T10:08:54Z</time>
      </trkpt>
      <trkpt lat="44.948050" lon="-0.464480">
        <time>2017-06-24T10:08:55Z</time>
      </trkpt>
      <trkpt lat="44.948250" lon="-0.464350">
        <time>2017-06-24T10:08:56Z</time>
      </trkpt>
      <trkpt lat="44.948460" lon="-0.464200">
        <time>2017-06-24T10:08:57Z</time>
      </trkpt>
      <trkpt lat="44.948680" lon="-0.464050">
        <time>2017-06-24T10:08:58Z</time>
      </trkpt>
      <trkpt lat="44.948870" lon="-0.463900">
        <time>2017-06-24T10:08:59Z</time>
      </trkpt>
      <trkpt lat="44.949080" lon="-0.463730">
        <time>2017-06-24T10:09:00Z</time>
      </trkpt>
      <trkpt lat="44.949260" lon="-0.463570">
        <time>2017-06-24T10:09:01Z</time>
      </trkpt>
      <trkpt lat="44.949460" lon="-0.463390">
        <time>2017-06-24T10:09:02Z</time>
      </trkpt>
      <trkpt lat="44.949670" lon="-0.463200">
        <time>2017-06-24T10:09:03Z</time>
      </trkpt>
      <trkpt lat="44.949860" lon="-0.463020">
        <time>2017-06-24T10:09:04Z</time>
      </trkpt>
      <trkpt lat="44.950060" lon="-0.462820">
        <time>2017-06-24T10:09:05Z</time>
      </trkpt>
      <trkpt lat="44.950250" lon="-0.462600">
        <time>2017-06-24T10:09:06Z</time>
      </trkpt>
      <trkpt lat="44.950450" lon="-0.462380">
        <time>2017-06-24T10:09:07Z</time>
      </trkpt>
      <trkpt lat="44.950650" lon="-0.462140">
        <time>2017-06-24T10:09:08Z</time>
      </trkpt>
      <trkpt lat="44.950830" lon="-0.461920">
        <time>2017-06-24T10:09:09Z</time>
      </trkpt>
      <trkpt lat="44.951010" lon="-0.461680">
        <time>2017-06-24T10:09:10Z</time>
      </trkpt>
      <trkpt lat="44.951200" lon="-0.461430">
        <time>2017-06-24T10:09:11Z</time>
      </trkpt>
      <trkpt lat="44.951360" lon="-0.461200">
        <time>2017-06-24T10:09:12Z</time>
      </trkpt>
      <trkpt lat="44.951530" lon="-0.460940">
        <time>2017-06-24T10:09:13Z</time>
      </trkpt>
      <trkpt lat="44.951700" lon="-0.460680">
        <time>2017-06-24T10:09:14Z</time>
      </trkpt>
      <trkpt lat="44.951840" lon="-0.460450">
        <time>2017-06-24T10:09:15Z</time>
      </trkpt>
      <trkpt lat="44.951990" lon="-0.460180">
        <time>2017-06-24T10:09:16Z</time>
      </trkpt>
      <trkpt lat="44.952130" lon="-0.459940">
        <time>2017-06-24T10:09:17Z</time>
      </trkpt>
      <trkpt lat="44.952270" lon="-0.459690">
        <time>2017-06-24T10:09:18Z</time>
      </trkpt>
      <trkpt lat="44.952410" lon="-0.459430">
        <time>2017-06-24T10:09:19Z</time>
      </trkpt>
      <trkpt lat="44.952530" lon="-0.459200">
        <time>2017-06-24T10:09:20Z</time>
      </trkpt>
      <trkpt lat="44.952640" lon="-0.458960">
        <time>2017-06-24T10:09:21Z</time>
      </trkpt>
      <trkpt lat="44.952760" lon="-0.458730">
        <time>2017-06-24T10:09:22Z</time>
      </trkpt>
      <trkpt lat="44.952880" lon="-0.458490">
        <time>2017-06-24T10:09:23Z</time>
      </trkpt>
      <trkpt lat="44.953000" lon="-0.458230">
        <time>2017-06-24T10:09:24Z</time>
      </trkpt>
      <trkpt lat="44.953110" lon="-0.458020">
        <time>2017-06-24T10:09:25Z</time>
      </trkpt>
      <trkpt lat="44.953220" lon="-0.457790">
        <time>2017-06-24T10:09:26Z</time>
      </trkpt>
      <trkpt lat="44.953330" lon="-0.457560">
        <time>2017-06-24T10:09:27Z</time>
      </trkpt>
      <trkpt lat="44.953430" lon="-0.457360">
        <time>2017-06-24T10:09:28Z</time>
      </trkpt>
      <trkpt lat="44.953530" lon="-0.457150">
        <time>2017-06-24T10:09:29Z</time>
      </trkpt>
      <trkpt lat="44.953640" lon="-0.456920">
        <time>2017-06-24T10:09:30Z</time>
      </trkpt>
      <trkpt lat="44.953740" lon="-0.456730">
        <time>2017-06-24T10:09:31Z</time>
      </trkpt>
      <trkpt lat="44.953850" lon="-0.456500">
        <time>2017-06-24T10:09:32Z</time>
      </trkpt>
      <trkpt lat="44.953950" lon="-0.456300">
        <time>2017-06-24T10:09:33Z</time>
      </trkpt>
      <trkpt lat="44.954060" lon="-0.456080">
        <time>2017-06-24T10:09:34Z</time>
      </trkpt>
      <trkpt lat="44.954170" lon="-0.455850">
        <time>2017-06-24T10:09:35Z</time>
      </trkpt>
      <trkpt lat="44.954270" lon="-0.455660">
        <time>2017-06-24T10:09:36Z</time>
      </trkpt>
      <trkpt lat="44.954360" lon="-0.455450">
        <time>2017-06-24T10:09:37Z</time>
      </trkpt>
      <trkpt lat="44.954470" lon="-0.455240">
        <time>2017-06-24T10:09:38Z</time>
      </trkpt>
      <trkpt lat="44.954570" lon="-0.455030">
        <time>2017-06-24T10:09:39Z</time>
      </trkpt>
      <trkpt lat="44.954690" lon="-0.454800">
        <time>2017-06-24T10:09:40Z</time>
      </trkpt>
      <trkpt lat="44.954790" lon="-0.454590">
        <time>2017-06-24T10:09:41Z</time>
      </trkpt>
      <trkpt lat="44.954900" lon="-0.454370">
        <time>2017-06-24T10:09:42Z</time>
      </trkpt>
      <trkpt lat="44.955020" lon="-0.454130">
        <time>2017-06-24T10:09:43Z</time>
      </trkpt>
      <trkpt lat="44.955130" lon="-0.453900">
        <time>2017-06-24T10:09:44Z</time>
      </trkpt>
      <trkpt lat="44.955240" lon="-0.453670">
        <time>2017-06-24T10:09:45Z</time>
      </trkpt>
      <trkpt lat="44.955360" lon="-0.453430">
        <time>2017-06-24T10:09:46Z</time>
      </trkpt>
      <trkpt lat="44.955470" lon="-0.453210">
        <time>2017-06-24T10:09:47Z</time>
      </trkpt>
      <trkpt lat="44.955600" lon="-0.452960">
        <time>2017-06-24T10:09:48Z</time>
      </trkpt>
      <trkpt lat="44.955710" lon="-0.452730">
        <time>2017-06-24T10:09:49Z</time>
      </trkpt>
      <trkpt lat="44.955840" lon="-0.452480">
        <time>2017-06-24T10:09:50Z</time>
      </trkpt>
      <trkpt lat="44.955970" lon="-0.452210">
        <time>2017-06-24T10:09:51Z</time>
      </trkpt>
      <trkpt lat="44.956090" lon="-0.451980">
        <time>2017-06-24T10:09:52Z</time>
      </trkpt>
      <trkpt lat="44.956210" lon="-0.451720">
        <time>2017-06-24T10:09:53Z</time>
      </trkpt>
      <trkpt lat="44.956340" lon="-0.451450">
        <time>2017-06-24T10:09:54Z</time>
      </trkpt>
      <trkpt lat="44.956470" lon="-0.451180">
        <time>2017-06-24T10:09:55Z</time>
      </trkpt>
      <trkpt lat="44.956620" lon="-0.450890">
        <time>2017-06-24T10:09:56Z</time>
      </trkpt>
      <trkpt lat="44.956740" lon="-0.450640">
        <time>2017-06-24T10:09:57Z</time>
      </trkpt>
      <trkpt lat="44.956880" lon="-0.450370">
        <time>2017-06-24T10:09:58Z</time>
      </trkpt>
      <trkpt lat="44.957020" lon="-0.450080">
        <time>2017-06-24T10:09:59Z</time>
      </trkpt>
      <trkpt lat="44.957150" lon="-0.449830">
        <time>2017-06-24T10:10:00Z</time>
      </trkpt>
      <trkpt lat="44.957280" lon="-0.449560">
        <time>2017-06-24T10:10:01Z</time>
      </trkpt>
      <trkpt lat="44.957430" lon="-0.449280">
        <time>2017-06-24T10:10:02Z</time>
      </trkpt>
      <trkpt lat="44.957560" lon="-0.449020">
        <time>2017-06-24T10:10:03Z</time>
      </trkpt>
      <trkpt lat="44.957710" lon="-0.448730">
        <time>2017-06-24T10:10:04Z</time>
      </trkpt>
      <trkpt lat="44.957850" lon="-0.448480">
        <time>2017-06-24T10:10:05Z</time>
      </trkpt>
      <trkpt lat="44.958010" lon="-0.448210">
        <time>2017-06-24T10:10:06Z</time>
      </trkpt>
      <trkpt lat="44.958170" lon="-0.447920">
        <time>2017-06-24T10:10:07Z</time>
      </trkpt>
      <trkpt lat="44.958330" lon="-0.447670">
        <time>2017-06-24T10:10:08Z</time>
      </trkpt>
      <trkpt lat="44.958490" lon="-0.447410">
        <time>2017-06-24T10:10:09Z</time>
      </trkpt>
      <trkpt lat="44.958650" lon="-0.447150">
        <time>2017-06-24T10:10:10Z</time>
      </trkpt>
      <trkpt lat="44.958810" lon="-0.446890">
        <time>2017-06-24T10:10:11Z</time>
      </trkpt>
      <trkpt lat="44.959000" lon="-0.446610">
        <time>2017-06-24T10:10:12Z</time>
      </trkpt>
      <trkpt lat="44.959150" lon="-0.446380">
        <time>2017-06-24T10:10:13Z</time>
      </trkpt>
      <trkpt lat="44.959330" lon="-0.446120">
        <time>2017-06-24T10:10:14Z</time>
      </trkpt>
      <trkpt lat="44.959520" lon="-0.445860">
        <time>2017-06-24T10:10:15Z</time>
      </trkpt>
      <trkpt lat="44.959690" lon="-0.445630">
        <time>2017-06-24T10:10:16Z</time>
      </trkpt>
      <trkpt lat="44.959880" lon="-0.445380">
        <time>2017-06-24T10:10:17Z</time>
      </trkpt>
      <trkpt lat="44.960080" lon="-0.445130">
        <time>2017-06-24T10:10:18Z</time>
      </trkpt>
      <trkpt lat="44.960260" lon="-0.444900">
        <time>2017-06-24T10:10:19Z</time>
      </trkpt>
      <trkpt lat="44.960460" lon="-0.444650">
        <time>2017-06-24T10:10:20Z</time>
      </trkpt>
      <trkpt lat="44.960650" lon="-0.444430">
        <time>2017-06-24T10:10:21Z</time>
      </trkpt>
      <trkpt lat="44.960840" lon="-0.444210">
        <time>2017-06-24T10:10:22Z</time>
      </trkpt>
      <trkpt lat="44.961050" lon="-0.443980">
        <time>2017-06-24T10:10:23Z</time>
      </trkpt>
      <trkpt lat="44.961240" lon="-0.443780">
        <time>2017-06-24T10:10:24Z</time>
      </trkpt>
      <trkpt lat="44.961440" lon="-0.443570">
        <time>2017-06-24T10:10:25Z</time>
      </trkpt>
      <trkpt lat="44.961640" lon="-0.443370">
        <time>2017-06-24T10:10:26Z</time>
      </trkpt>
      <trkpt lat="44.961830" lon="-0.443160">
        <time>2017-06-24T10:10:27Z</time>
      </trkpt>
      <trkpt lat="44.962040" lon="-0.442950">
        <time>2017-06-24T10:10:28Z</time>
      </trkpt>
      <trkpt lat="44.962230" lon="-0.442760">
        <time>2017-06-24T10:10:29Z</time>
      </trkpt>
      <trkpt lat="44.962430" lon="-0.442560">
        <time>2017-06-24T10:10:30Z</time>
      </trkpt>
      <trkpt lat="44.962650" lon="-0.442350">
        <time>2017-06-24T10:10:31Z</time>
      </trkpt>
      <trkpt lat="44.962840" lon="-0.442160">
        <time>2017-06-24T10:10:32Z</time>
      </trkpt>
      <trkpt lat="44.963050" lon="-0.441950">
        <time>2017-06-24T10:10:33Z</time>
      </trkpt>
      <trkpt lat="44.963280" lon="-0.441730">
        <time>2017-06-24T10:10:34Z</time>
      </trkpt>
      <trkpt lat="44.963480" lon="-0.441530">
        <time>2017-06-24T10:10:35Z</time>
      </trkpt>
      <trkpt lat="44.963710" lon="-0.441300">
        <time>2017-06-24T10:10:36Z</time>
      </trkpt>
      <trkpt lat="44.963920" lon="-0.441100">
        <time>2017-06-24T10:10:37Z</time>
      </trkpt>
      <trkpt lat="44.964130" lon="-0.440890">
        <time>2017-06-24T10:10:38Z</time>
      </trkpt>
      <trkpt lat="44.964360" lon="-0.440660">
        <time>2017-06-24T10:10:39Z</time>
      </trkpt>
      <trkpt lat="44.964560" lon="-0.440460">
        <time>2017-06-24T10:10:40Z</time>
      </trkpt>
      <trkpt lat="44.964780" lon="-0.440250">
        <time>2017-06-24T10:10:41Z</time>
      </trkpt>
      <trkpt lat="44.964990" lon="-0.440040">
        <time>2017-06-24T10:10:42Z</time>
      </trkpt>
      <trkpt lat="44.965210" lon="-0.439830">
        <time>2017-06-24T10:10:43Z</time>
      </trkpt>
      <trkpt lat="44.965430" lon="-0.439600">
        <time>2017-06-24T10:10:44Z</time>
      </trkpt>
      <trkpt lat="44.965630" lon="-0.439410">
        <time>2017-06-24T10:10:45Z</time>
      </trkpt>
      <trkpt lat="44.965850" lon="-0.439200">
        <time>2017-06-24T10:10:46Z</time>
      </trkpt>
      <trkpt lat="44.966090" lon="-0.438970">
        <time>2017-06-24T10:10:47Z</time>
      </trkpt>
      <trkpt lat="44.966300" lon="-0.438760">
        <time>2017-06-24T10:10:48Z</time>
      </trkpt>
      <trkpt lat="44.966530" lon="-0.438550">
        <time>2017-06-24T10:10:49Z</time>
      </trkpt>
      <trkpt lat="44.966780" lon="-0.438320">
        <time>2017-06-24T10:10:50Z</time>
      </trkpt>
      <trkpt lat="44.967000" lon="-0.438120">
        <time>2017-06-24T10:10:51Z</time>
      </trkpt>
      <trkpt lat="44.967250" lon="-0.437900">
        <time>2017-06-24T10:10:52Z</time>
      </trkpt>
      <trkpt lat="44.967470" lon="-0.437700">
        <time>2017-06-24T10:10:53Z</time>
      </trkpt>
      <trkpt lat="44.967710" lon="-0.437500">
        <time>2017-06-24T10:10:54Z</time>
      </trkpt>
      <trkpt lat="44.967950" lon="-0.437280">
        <time>2017-06-24T10:10:55Z</time>
      </trkpt>
      <trkpt lat="44.968170" lon="-0.437100">
        <time>2017-06-24T10:10:56Z</time>
      </trkpt>
      <trkpt lat="44.968390" lon="-0.436920">
        <time>2017-06-24T10:10:57Z</time>
      </trkpt>
      <trkpt lat="44.968620" lon="-0.436740">
        <time>2017-06-24T10:10:58Z</time>
      </trkpt>
      <trkpt lat="44.968850" lon="-0.436570">
        <time>2017-06-24T10:10:59Z</time>
      </trkpt>
      <trkpt lat="44.969090" lon="-0.436400">
        <time>2017-06-24T10:11:00Z</time>
      </trkpt>
      <trkpt lat="44.969310" lon="-0.436250">
        <time>2017-06-24T10:11:01Z</time>
      </trkpt>
      <trkpt lat="44.969550" lon="-0.436110">
        <time>2017-06-24T10:11:02Z</time>
      </trkpt>
      <trkpt lat="44.969810" lon="-0.435950">
        <time>2017-06-24T10:11:03Z</time>
      </trkpt>
      <trkpt lat="44.970020" lon="-0.435820">
        <time>2017-06-24T10:11:04Z</time>
      </trkpt>
      <trkpt lat="44.970260" lon="-0.435690">
        <time>2017-06-24T10:11:05Z</time>
      </trkpt>
      <trkpt lat="44.970500" lon="-0.435550">
        <time>2017-06-24T10:11:06Z</time>
      </trkpt>
      <trkpt lat="44.970720" lon="-0.435440">
        <time>2017-06-24T10:11:07Z</time>
      </trkpt>
      <trkpt lat="44.970960" lon="-0.435320">
        <time>2017-06-24T10:11:08Z</time>
      </trkpt>
      <trkpt lat="44.971180" lon="-0.435210">
        <time>2017-06-24T10:11:09Z</time>
      </trkpt>
      <trkpt lat="44.971410" lon="-0.435100">
        <time>2017-06-24T10:11:10Z</time>
      </trkpt>
      <trkpt lat="44.971650" lon="-0.434990">
        <time>2017-06-24T10:11:11Z</time>
      </trkpt>
      <trkpt lat="44.971870" lon="-0.434900">
        <time>2017-06-24T10:11:12Z</time>
      </trkpt>
      <trkpt lat="44.972090" lon="-0.434800">
        <time>2017-06-24T10:11:13Z</time>
      </trkpt>
      <trkpt lat="44.972320" lon="-0.434700">
        <time>2017-06-24T10:11:14Z</time>
      </trkpt>
      <trkpt lat="44.972540" lon="-0.434590">
        <time>2017-06-24T10:11:15Z</time>
      </trkpt>
      <trkpt lat="44.972780" lon="-0.434500">
        <time>2017-06-24T10:11:16Z</time>
      </trkpt>
      <trkpt lat="44.972970" lon="-0.434400">
        <time>2017-06-24T10:11:17Z</time>
      </trkpt>
      <trkpt lat="44.973160" lon="-0.434300">
        <time>2017-06-24T10:11:18Z</time>
      </trkpt>
      <trkpt lat="44.973350" lon="-0.434210">
        <time>2017-06-24T10:11:19Z</time>
      </trkpt>
      <trkpt lat="44.973520" lon="-0.434130">
        <time>2017-06-24T10:11:20Z</time>
      </trkpt>
      <trkpt lat="44.973670" lon="-0.434050">
        <time>2017-06-24T10:11:21Z</time>
      </trkpt>
      <trkpt lat="44.973820" lon="-0.433970">
        <time>2017-06-24T10:11:22Z</time>
      </trkpt>
      <trkpt lat="44.973940" lon="-0.433900">
        <time>2017-06-24T10:11:23Z</time>
      </trkpt>
      <trkpt lat="44.974070" lon="-0.433820">
        <time>2017-06-24T10:11:24Z</time>
      </trkpt>
      <trkpt lat="44.974170" lon="-0.433750">
        <time>2017-06-24T10:11:25Z</time>
      </trkpt>
      <trkpt lat="44.974280" lon="-0.433680">
        <time>2017-06-24T10:11:26Z</time>
      </trkpt>
      <trkpt lat="44.974390" lon="-0.433610">
        <time>2017-06-24T10:11:27Z</time>
      </trkpt>
      <trkpt lat="44.974470" lon="-0.433560">
        <time>2017-06-24T10:11:28Z</time>
      </trkpt>
      <trkpt lat="44.974550" lon="-0.433480">
        <time>2017-06-24T10:11:29Z</time>
      </trkpt>
      <trkpt lat="44.974610" lon="-0.433400">
        <time>2017-06-24T10:11:30Z</time>
      </trkpt>
      <trkpt lat="44.974660" lon="-0.433310">
        <time>2017-06-24T10:11:31Z</time>
      </trkpt>
      <trkpt lat="44.974710" lon="-0.433230">
        <time>2017-06-24T10:11:32Z</time>
      </trkpt>
      <trkpt lat="44.974750" lon="-0.433170">
        <time>2017-06-24T10:11:33Z</time>
      </trkpt>
      <trkpt lat="44.974770" lon="-0.433110">
        <time>2017-06-24T10:11:34Z</time>
      </trkpt>
      <trkpt lat="44.974800" lon="-0.433060">
        <time>2017-06-24T10:11:35Z</time>
      </trkpt>
      <trkpt lat="44.974820" lon="-0.433020">
        <time>2017-06-24T10:11:36Z</time>
      </trkpt>
      <trkpt lat="44.974840" lon="-0.432970">
        <time>2017-06-24T10:11:37Z</time>
      </trkpt>
      <trkpt lat="44.974860" lon="-0.432910">
        <time>2017-06-24T10:11:38Z</time>
      </trkpt>
      <trkpt lat="44.974870" lon="-0.432870">
        <time>2017-06-24T10:11:39Z</time>
      </trkpt>
      <trkpt lat="44.974900" lon="-0.432830">
        <time>2017-06-24T10:11:40Z</time>
      </trkpt>
      <trkpt lat="44.974920" lon="-0.432790">
        <time>2017-06-24T10:11:41Z</time>
      </trkpt>
      <trkpt lat="44.974940" lon="-0.432750">
        <time>2017-06-24T10:11:42Z</time>
      </trkpt>
      <trkpt lat="44.974970" lon="-0.432720">
        <time>2017-06-24T10:11:43Z</time>
      </trkpt>
      <trkpt lat="44.974990" lon="-0.432700">
        <time>2017-06-24T10:11:44Z</time>
      </trkpt>
      <trkpt lat="44.974990" lon="-0.432680">
        <time>2017-06-24T10:11:45Z</time>
      </trkpt>
      <trkpt lat="44.975010" lon="-0.432670">
        <time>2017-06-24T10:11:46Z</time>
      </trkpt>
      <trkpt lat="44.975020" lon="-0.432670">
        <time>2017-06-24T10:11:47Z</time>
      </trkpt>
      <trkpt lat="44.975020" lon="-0.432670">
        <time>2017-06-24T10:11:48Z</time>
      </trkpt>
      <trkpt lat="44.975020" lon="-0.432670">
        <time>2017-06-24T10:11:49Z</time>
      </trkpt>
      <trkpt lat="44.975020" lon="-0.432660">
        <time>2017-06-24T10:11:50Z</time>
      </trkpt>
      <trkpt lat="44.975020" lon="-0.432670">
        <time>2017-06-24T10:11:51Z</time>
      </trkpt>
      <trkpt lat="44.975020" lon="-0.432670">
        <time>2017-06-24T10:11:52Z</time>
      </trkpt>
      <trkpt lat="44.975020" lon="-0.432670">
        <time>2017-06-24T10:11:53Z</time>
      </trkpt>
      <trkpt lat="44.975020" lon="-0.432670">
        <time>2017-06-24T10:11:54Z</time>
      </trkpt>
      <trkpt lat="44.975020" lon="-0.432670">
        <time>2017-06-24T10:11:55Z</time>
      </trkpt>
      <trkpt lat="44.975020" lon="-0.432670">
        <time>2017-06-24T10:11:56Z</time>
      </trkpt>
      <trkpt lat="44.975020" lon="-0.432670">
        <time>2017-06-24T10:11:57Z</time>
      </trkpt>
      <trkpt lat="44.975020" lon="-0.432670">
        <time>2017-06-24T10:11:58Z</time>
      </trkpt>
      <trkpt lat="44.975020" lon="-0.432670">
        <time>2017-06-24T10:11:59Z</time>
      </trkpt>
      <trkpt lat="44.975020" lon="-0.432670">
        <time>2017-06-24T10:12:00Z</time>
      </trkpt>
      <trkpt lat="44.975020" lon="-0.432670">
        <time>2017-06-24T10:12:01Z</time>
      </trkpt>
      <trkpt lat="44.975020" lon="-0.432670">
        <time>2017-06-24T10:12:02Z</time>
      </trkpt>
      <trkpt lat="44.975020" lon="-0.432670">
        <time>2017-06-24T10:12:03Z</time>
      </trkpt>
      <trkpt lat="44.975020" lon="-0.432670">
        <time>2017-06-24T10:12:04Z</time>
      </trkpt>
      <trkpt lat="44.975020" lon="-0.432670">
        <time>2017-06-24T10:12:05Z</time>
      </trkpt>
      <trkpt lat="44.975020" lon="-0.432670">
        <time>2017-06-24T10:12:06Z</time>
      </trkpt>
      <trkpt lat="44.975020" lon="-0.432670">
        <time>2017-06-24T10:12:07Z</time>
      </trkpt>
      <trkpt lat="44.975020" lon="-0.432670">
        <time>2017-06-24T10:12:08Z</time>
      </trkpt>
      <trkpt lat="44.975020" lon="-0.432670">
        <time>2017-06-24T10:12:09Z</time>
      </trkpt>
      <trkpt lat="44.975020" lon="-0.432670">
        <time>2017-06-24T10:12:10Z</time>
      </trkpt>
      <trkpt lat="44.975020" lon="-0.432670">
        <time>2017-06-24T10:12:11Z</time>
      </trkpt>
      <trkpt lat="44.975020" lon="-0.432670">
        <time>2017-06-24T10:12:12Z</time>
      </trkpt>
      <trkpt lat="44.975020" lon="-0.432670">
        <time>2017-06-24T10:12:13Z</time>
      </trkpt>
      <trkpt lat="44.975020" lon="-0.432670">
        <time>2017-06-24T10:12:14Z</time>
      </trkpt>
      <trkpt lat="44.975020" lon="-0.432670">
        <time>2017-06-24T10:12:15Z</time>
      </trkpt>
      <trkpt lat="44.975020" lon="-0.432670">
        <time>2017-06-24T10:12:16Z</time>
      </trkpt>
      <trkpt lat="44.975020" lon="-0.432670">
        <time>2017-06-24T10:12:17Z</time>
      </trkpt>
      <trkpt lat="44.975020" lon="-0.432670">
        <time>2017-06-24T10:12:18Z</time>
      </trkpt>
      <trkpt lat="44.975020" lon="-0.432670">
        <time>2017-06-24T10:12:19Z</time>
      </trkpt>
      <trkpt lat="44.975020" lon="-0.432670">
        <time>2017-06-24T10:12:20Z</time>
      </trkpt>
      <trkpt lat="44.975020" lon="-0.432670">
        <time>2017-06-24T10:12:21Z</time>
      </trkpt>
      <trkpt lat="44.975020" lon="-0.432670">
        <time>2017-06-24T10:12:22Z</time>
      </trkpt>
      <trkpt lat="44.975020" lon="-0.432670">
        <time>2017-06-24T10:12:23Z</time>
      </trkpt>
      <trkpt lat="44.975020" lon="-0.432670">
        <time>2017-06-24T10:12:24Z</time>
      </trkpt>
      <trkpt lat="44.975020" lon="-0.432670">
        <time>2017-06-24T10:12:25Z</time>
      </trkpt>
      <trkpt lat="44.975020" lon="-0.432670">
        <time>2017-06-24T10:12:26Z</time>
      </trkpt>
      <trkpt lat="44.975020" lon="-0.432670">
        <time>2017-06-24T10:12:27Z</time>
      </trkpt>
      <trkpt lat="44.975020" lon="-0.432670">
        <time>2017-06-24T10:12:28Z</time>
      </trkpt>
      <trkpt lat="44.975020" lon="-0.432670">
        <time>2017-06-24T10:12:29Z</time>
      </trkpt>
      <trkpt lat="44.975020" lon="-0.432670">
        <time>2017-06-24T10:12:30Z</time>
      </trkpt>
      <trkpt lat="44.975020" lon="-0.432670">
        <time>2017-06-24T10:12:31Z</time>
      </trkpt>
      <trkpt lat="44.975020" lon="-0.432670">
        <time>2017-06-24T10:12:32Z</time>
      </trkpt>
      <trkpt lat="44.975020" lon="-0.432670">
        <time>2017-06-24T10:12:33Z</time>
      </trkpt>
      <trkpt lat="44.975020" lon="-0.432670">
        <time>2017-06-24T10:12:34Z</time>
      </trkpt>
      <trkpt lat="44.975020" lon="-0.432670">
        <time>2017-06-24T10:12:35Z</time>
      </trkpt>
      <trkpt lat="44.975020" lon="-0.432670">
        <time>2017-06-24T10:12:36Z</time>
      </trkpt>
      <trkpt lat="44.975020" lon="-0.432670">
        <time>2017-06-24T10:12:37Z</time>
      </trkpt>
      <trkpt lat="44.975020" lon="-0.432670">
        <time>2017-06-24T10:12:38Z</time>
      </trkpt>
      <trkpt lat="44.975020" lon="-0.432670">
        <time>2017-06-24T10:12:39Z</time>
      </trkpt>
      <trkpt lat="44.975020" lon="-0.432670">
        <time>2017-06-24T10:12:40Z</time>
      </trkpt>
      <trkpt lat="44.975020" lon="-0.432670">
        <time>2017-06-24T10:12:41Z</time>
      </trkpt>
      <trkpt lat="44.975020" lon="-0.432670">
        <time>2017-06-24T10:12:42Z</time>
      </trkpt>
      <trkpt lat="44.975020" lon="-0.432670">
        <time>2017-06-24T10:12:43Z</time>
      </trkpt>
      <trkpt lat="44.975020" lon="-0.432670">
        <time>2017-06-24T10:12:44Z</time>
      </trkpt>
      <trkpt lat="44.975020" lon="-0.432670">
        <time>2017-06-24T10:12:45Z</time>
      </trkpt>
      <trkpt lat="44.975020" lon="-0.432670">
        <time>2017-06-24T10:12:46Z</time>
      </trkpt>
      <trkpt lat="44.975020" lon="-0.432670">
        <time>2017-06-24T10:12:47Z</time>
      </trkpt>
      <trkpt lat="44.975020" lon="-0.432670">
        <time>2017-06-24T10:12:48Z</time>
      </trkpt>
      <trkpt lat="44.975020" lon="-0.432670">
        <time>2017-06-24T10:12:49Z</time>
      </trkpt>
      <trkpt lat="44.975020" lon="-0.432670">
        <time>2017-06-24T10:12:50Z</time>
      </trkpt>
      <trkpt lat="44.975020" lon="-0.432670">
        <time>2017-06-24T10:12:51Z</time>
      </trkpt>
      <trkpt lat="44.975020" lon="-0.432670">
        <time>2017-06-24T10:12:52Z</time>
      </trkpt>
      <trkpt lat="44.975020" lon="-0.432670">
        <time>2017-06-24T10:12:53Z</time>
      </trkpt>
      <trkpt lat="44.975020" lon="-0.432670">
        <time>2017-06-24T10:12:54Z</time>
      </trkpt>
      <trkpt lat="44.975020" lon="-0.432670">
        <time>2017-06-24T10:12:55Z</time>
      </trkpt>
      <trkpt lat="44.975020" lon="-0.432670">
        <time>2017-06-24T10:12:56Z</time>
      </trkpt>
      <trkpt lat="44.975020" lon="-0.432670">
        <time>2017-06-24T10:12:57Z</time>
      </trkpt>
      <trkpt lat="44.975020" lon="-0.432670">
        <time>2017-06-24T10:12:58Z</time>
      </trkpt>
      <trkpt lat="44.975020" lon="-0.432670">
        <time>2017-06-24T10:12:59Z</time>
      </trkpt>
      <trkpt lat="44.975020" lon="-0.432670">
        <time>2017-06-24T10:13:00Z</time>
      </trkpt>
      <trkpt lat="44.975020" lon="-0.432670">
        <time>2017-06-24T10:13:01Z</time>
      </trkpt>
      <trkpt lat="44.975020" lon="-0.432670">
        <time>2017-06-24T10:13:02Z</time>
      </trkpt>
      <trkpt lat="44.975020" lon="-0.432670">
        <time>2017-06-24T10:13:03Z</time>
      </trkpt>
      <trkpt lat="44.975020" lon="-0.432670">
        <time>2017-06-24T10:13:04Z</time>
      </trkpt>
      <trkpt lat="44.975020" lon="-0.432670">
        <time>2017-06-24T10:13:05Z</time>
      </trkpt>
      <trkpt lat="44.975020" lon="-0.432670">
        <time>2017-06-24T10:13:06Z</time>
      </trkpt>
      <trkpt lat="44.975020" lon="-0.432670">
        <time>2017-06-24T10:13:07Z</time>
      </trkpt>
      <trkpt lat="44.975020" lon="-0.432670">
        <time>2017-06-24T10:13:08Z</time>
      </trkpt>
      <trkpt lat="44.975020" lon="-0.432670">
        <time>2017-06-24T10:13:09Z</time>
      </trkpt>
      <trkpt lat="44.975020" lon="-0.432670">
        <time>2017-06-24T10:13:10Z</time>
      </trkpt>
      <trkpt lat="44.975020" lon="-0.432670">
        <time>2017-06-24T10:13:11Z</time>
      </trkpt>
      <trkpt lat="44.975020" lon="-0.432670">
        <time>2017-06-24T10:13:12Z</time>
      </trkpt>
      <trkpt lat="44.975020" lon="-0.432670">
        <time>2017-06-24T10:13:13Z</time>
      </trkpt>
      <trkpt lat="44.975020" lon="-0.432670">
        <time>2017-06-24T10:13:14Z</time>
      </trkpt>
      <trkpt lat="44.975020" lon="-0.432670">
        <time>2017-06-24T10:13:15Z</time>
      </trkpt>
      <trkpt lat="44.975020" lon="-0.432670">
        <time>2017-06-24T10:13:16Z</time>
      </trkpt>
      <trkpt lat="44.975020" lon="-0.432670">
        <time>2017-06-24T10:13:17Z</time>
      </trkpt>
      <trkpt lat="44.975020" lon="-0.432670">
        <time>2017-06-24T10:13:18Z</time>
      </trkpt>
      <trkpt lat="44.975020" lon="-0.432670">
        <time>2017-06-24T10:13:19Z</time>
      </trkpt>
      <trkpt lat="44.975020" lon="-0.432670">
        <time>2017-06-24T10:13:20Z</time>
      </trkpt>
      <trkpt lat="44.975020" lon="-0.432670">
        <time>2017-06-24T10:13:21Z</time>
      </trkpt>
      <trkpt lat="44.975020" lon="-0.432670">
        <time>2017-06-24T10:13:22Z</time>
      </trkpt>
      <trkpt lat="44.975020" lon="-0.432670">
        <time>2017-06-24T10:13:23Z</time>
      </trkpt>
      <trkpt lat="44.975020" lon="-0.432670">
        <time>2017-06-24T10:13:24Z</time>
      </trkpt>
      <trkpt lat="44.975020" lon="-0.432670">
        <time>2017-06-24T10:13:25Z</time>
      </trkpt>
      <trkpt lat="44.975020" lon="-0.432670">
        <time>2017-06-24T10:13:26Z</time>
      </trkpt>
      <trkpt lat="44.975020" lon="-0.432670">
        <time>2017-06-24T10:13:27Z</time>
      </trkpt>
      <trkpt lat="44.975020" lon="-0.432670">
        <time>2017-06-24T10:13:28Z</time>
      </trkpt>
      <trkpt lat="44.975020" lon="-0.432670">
        <time>2017-06-24T10:13:29Z</time>
      </trkpt>
      <trkpt lat="44.975020" lon="-0.432670">
        <time>2017-06-24T10:13:30Z</time>
      </trkpt>
      <trkpt lat="44.975100" lon="-0.432740">
        <time>2017-06-24T10:19:22Z</time>
      </trkpt>
      <trkpt lat="44.974930" lon="-0.432740">
        <time>2017-06-24T10:19:23Z</time>
      </trkpt>
      <trkpt lat="44.975020" lon="-0.432760">
        <time>2017-06-24T10:19:24Z</time>
      </trkpt>
      <trkpt lat="44.975130" lon="-0.432890">
        <time>2017-06-24T10:19:25Z</time>
      </trkpt>
      <trkpt lat="44.975040" lon="-0.432670">
        <time>2017-06-24T10:19:26Z</time>
      </trkpt>
      <trkpt lat="44.975040" lon="-0.432670">
        <time>2017-06-24T10:19:27Z</time>
      </trkpt>
      <trkpt lat="44.975040" lon="-0.432670">
        <time>2017-06-24T10:19:28Z</time>
      </trkpt>
      <trkpt lat="44.975040" lon="-0.432670">
        <time>2017-06-24T10:19:29Z</time>
      </trkpt>
      <trkpt lat="44.975040" lon="-0.432670">
        <time>2017-06-24T10:19:30Z</time>
      </trkpt>
      <trkpt lat="44.975040" lon="-0.432670">
        <time>2017-06-24T10:19:31Z</time>
      </trkpt>
      <trkpt lat="44.975040" lon="-0.432670">
        <time>2017-06-24T10:19:32Z</time>
      </trkpt>
      <trkpt lat="44.975040" lon="-0.432670">
        <time>2017-06-24T10:19:33Z</time>
      </trkpt>
      <trkpt lat="44.975040" lon="-0.432670">
        <time>2017-06-24T10:19:34Z</time>
      </trkpt>
      <trkpt lat="44.975040" lon="-0.432670">
        <time>2017-06-24T10:19:35Z</time>
      </trkpt>
      <trkpt lat="44.975040" lon="-0.432670">
        <time>2017-06-24T10:19:36Z</time>
      </trkpt>
      <trkpt lat="44.975040" lon="-0.432670">
        <time>2017-06-24T10:19:37Z</time>
      </trkpt>
      <trkpt lat="44.975040" lon="-0.432670">
        <time>2017-06-24T10:19:38Z</time>
      </trkpt>
      <trkpt lat="44.975040" lon="-0.432670">
        <time>2017-06-24T10:19:39Z</time>
      </trkpt>
      <trkpt lat="44.975040" lon="-0.432670">
        <time>2017-06-24T10:19:40Z</time>
      </trkpt>
      <trkpt lat="44.975040" lon="-0.432670">
        <time>2017-06-24T10:19:41Z</time>
      </trkpt>
      <trkpt lat="44.975040" lon="-0.432670">
        <time>2017-06-24T10:19:42Z</time>
      </trkpt>
      <trkpt lat="44.975040" lon="-0.432670">
        <time>2017-06-24T10:19:43Z</time>
      </trkpt>
      <trkpt lat="44.975040" lon="-0.432670">
        <time>2017-06-24T10:19:44Z</time>
      </trkpt>
      <trkpt lat="44.975040" lon="-0.432670">
        <time>2017-06-24T10:19:45Z</time>
      </trkpt>
      <trkpt lat="44.975040" lon="-0.432670">
        <time>2017-06-24T10:19:46Z</time>
      </trkpt>
      <trkpt lat="44.975040" lon="-0.432670">
        <time>2017-06-24T10:19:47Z</time>
      </trkpt>
      <trkpt lat="44.975040" lon="-0.432670">
        <time>2017-06-24T10:19:48Z</time>
      </trkpt>
      <trkpt lat="44.975040" lon="-0.432670">
        <time>2017-06-24T10:19:49Z</time>
      </trkpt>
      <trkpt lat="44.975040" lon="-0.432670">
        <time>2017-06-24T10:19:50Z</time>
      </trkpt>
      <trkpt lat="44.975040" lon="-0.432670">
        <time>2017-06-24T10:19:51Z</time>
      </trkpt>
      <trkpt lat="44.975040" lon="-0.432680">
        <time>2017-06-24T10:19:52Z</time>
      </trkpt>
      <trkpt lat="44.975040" lon="-0.432680">
        <time>2017-06-24T10:19:53Z</time>
      </trkpt>
      <trkpt lat="44.975040" lon="-0.432680">
        <time>2017-06-24T10:19:54Z</time>
      </trkpt>
      <trkpt lat="44.975040" lon="-0.432680">
        <time>2017-06-24T10:19:55Z</time>
      </trkpt>
      <trkpt lat="44.975030" lon="-0.432680">
        <time>2017-06-24T10:19:56Z</time>
      </trkpt>
      <trkpt lat="44.975030" lon="-0.432670">
        <time>2017-06-24T10:19:57Z</time>
      </trkpt>
      <trkpt lat="44.975030" lon="-0.432660">
        <time>2017-06-24T10:19:58Z</time>
      </trkpt>
      <trkpt lat="44.975050" lon="-0.432630">
        <time>2017-06-24T10:19:59Z</time>
      </trkpt>
      <trkpt lat="44.975060" lon="-0.432590">
        <time>2017-06-24T10:20:00Z</time>
      </trkpt>
      <trkpt lat="44.975070" lon="-0.432530">
        <time>2017-06-24T10:20:01Z</time>
      </trkpt>
      <trkpt lat="44.975070" lon="-0.432470">
        <time>2017-06-24T10:20:02Z</time>
      </trkpt>
      <trkpt lat="44.975060" lon="-0.432400">
        <time>2017-06-24T10:20:03Z</time>
      </trkpt>
      <trkpt lat="44.975050" lon="-0.432340">
        <time>2017-06-24T10:20:04Z</time>
      </trkpt>
      <trkpt lat="44.975030" lon="-0.432280">
        <time>2017-06-24T10:20:05Z</time>
      </trkpt>
      <trkpt lat="44.975010" lon="-0.432220">
        <time>2017-06-24T10:20:06Z</time>
      </trkpt>
      <trkpt lat="44.974990" lon="-0.432120">
        <time>2017-06-24T10:20:07Z</time>
      </trkpt>
      <trkpt lat="44.975000" lon="-0.432060">
        <time>2017-06-24T10:20:08Z</time>
      </trkpt>
      <trkpt lat="44.975030" lon="-0.431980">
        <time>2017-06-24T10:20:09Z</time>
      </trkpt>
      <trkpt lat="44.975080" lon="-0.431940">
        <time>2017-06-24T10:20:10Z</time>
      </trkpt>
      <trkpt lat="44.975140" lon="-0.431930">
        <time>2017-06-24T10:20:11Z</time>
      </trkpt>
      <trkpt lat="44.975210" lon="-0.431940">
        <time>2017-06-24T10:20:12Z</time>
      </trkpt>
      <trkpt lat="44.975260" lon="-0.431970">
        <time>2017-06-24T10:20:13Z</time>
      </trkpt>
      <trkpt lat="44.975310" lon="-0.432010">
        <time>2017-06-24T10:20:14Z</time>
      </trkpt>
      <trkpt lat="44.975360" lon="-0.432030">
        <time>2017-06-24T10:20:15Z</time>
      </trkpt>
      <trkpt lat="44.975400" lon="-0.432050">
        <time>2017-06-24T10:20:16Z</time>
      </trkpt>
      <trkpt lat="44.975440" lon="-0.432070">
        <time>2017-06-24T10:20:17Z</time>
      </trkpt>
      <trkpt lat="44.975490" lon="-0.432090">
        <time>2017-06-24T10:20:18Z</time>
      </trkpt>
      <trkpt lat="44.975530" lon="-0.432100">
        <time>2017-06-24T10:20:19Z</time>
      </trkpt>
      <trkpt lat="44.975570" lon="-0.432080">
        <time>2017-06-24T10:20:20Z</time>
      </trkpt>
      <trkpt lat="44.975620" lon="-0.432060">
        <time>2017-06-24T10:20:21Z</time>
      </trkpt>
      <trkpt lat="44.975650" lon="-0.432040">
        <time>2017-06-24T10:20:22Z</time>
      </trkpt>
      <trkpt lat="44.975670" lon="-0.432020">
        <time>2017-06-24T10:20:23Z</time>
      </trkpt>
      <trkpt lat="44.975680" lon="-0.432000">
        <time>2017-06-24T10:20:24Z</time>
      </trkpt>
      <trkpt lat="44.975690" lon="-0.431980">
        <time>2017-06-24T10:20:25Z</time>
      </trkpt>
      <trkpt lat="44.975720" lon="-0.431960">
        <time>2017-06-24T10:20:26Z</time>
      </trkpt>
      <trkpt lat="44.975730" lon="-0.431950">
        <time>2017-06-24T10:20:27Z</time>
      </trkpt>
      <trkpt lat="44.975740" lon="-0.431940">
        <time>2017-06-24T10:20:28Z</time>
      </trkpt>
      <trkpt lat="44.975760" lon="-0.431940">
        <time>2017-06-24T10:20:29Z</time>
      </trkpt>
      <trkpt lat="44.975770" lon="-0.431930">
        <time>2017-06-24T10:20:30Z</time>
      </trkpt>
      <trkpt lat="44.975790" lon="-0.431920">
        <time>2017-06-24T10:20:31Z</time>
      </trkpt>
      <trkpt lat="44.975810" lon="-0.431900">
        <time>2017-06-24T10:20:32Z</time>
      </trkpt>
      <trkpt lat="44.975830" lon="-0.431890">
        <time>2017-06-24T10:20:33Z</time>
      </trkpt>
      <trkpt lat="44.975840" lon="-0.431890">
        <time>2017-06-24T10:20:34Z</time>
      </trkpt>
      <trkpt lat="44.975860" lon="-0.431870">
        <time>2017-06-24T10:20:35Z</time>
      </trkpt>
      <trkpt lat="44.975870" lon="-0.431860">
        <time>2017-06-24T10:20:36Z</time>
      </trkpt>
      <trkpt lat="44.975880" lon="-0.431850">
        <time>2017-06-24T10:20:37Z</time>
      </trkpt>
      <trkpt lat="44.975890" lon="-0.431840">
        <time>2017-06-24T10:20:38Z</time>
      </trkpt>
      <trkpt lat="44.975900" lon="-0.431830">
        <time>2017-06-24T10:20:39Z</time>
      </trkpt>
      <trkpt lat="44.975910" lon="-0.431820">
        <time>2017-06-24T10:20:40Z</time>
      </trkpt>
      <trkpt lat="44.975920" lon="-0.431810">
        <time>2017-06-24T10:20:41Z</time>
      </trkpt>
      <trkpt lat="44.975940" lon="-0.431790">
        <time>2017-06-24T10:20:42Z</time>
      </trkpt>
      <trkpt lat="44.975950" lon="-0.431780">
        <time>2017-06-24T10:20:43Z</time>
      </trkpt>
      <trkpt lat="44.975960" lon="-0.431770">
        <time>2017-06-24T10:20:44Z</time>
      </trkpt>
      <trkpt lat="44.975960" lon="-0.431770">
        <time>2017-06-24T10:20:45Z</time>
      </trkpt>
      <trkpt lat="44.975960" lon="-0.431770">
        <time>2017-06-24T10:20:46Z</time>
      </trkpt>
      <trkpt lat="44.975960" lon="-0.431770">
        <time>2017-06-24T10:20:47Z</time>
      </trkpt>
      <trkpt lat="44.975960" lon="-0.431770">
        <time>2017-06-24T10:20:48Z</time>
      </trkpt>
      <trkpt lat="44.975960" lon="-0.431770">
        <time>2017-06-24T10:20:49Z</time>
      </trkpt>
      <trkpt lat="44.975960" lon="-0.431770">
        <time>2017-06-24T10:20:50Z</time>
      </trkpt>
      <trkpt lat="44.975960" lon="-0.431770">
        <time>2017-06-24T10:20:51Z</time>
      </trkpt>
      <trkpt lat="44.975960" lon="-0.431770">
        <time>2017-06-24T10:20:52Z</time>
      </trkpt>
      <trkpt lat="44.975960" lon="-0.431770">
        <time>2017-06-24T10:20:53Z</time>
      </trkpt>
      <trkpt lat="44.975960" lon="-0.431770">
        <time>2017-06-24T10:20:54Z</time>
      </trkpt>
      <trkpt lat="44.975960" lon="-0.431770">
        <time>2017-06-24T10:20:55Z</time>
      </trkpt>
      <trkpt lat="44.975960" lon="-0.431770">
        <time>2017-06-24T10:20:56Z</time>
      </trkpt>
      <trkpt lat="44.975960" lon="-0.431770">
        <time>2017-06-24T10:20:57Z</time>
      </trkpt>
      <trkpt lat="44.975960" lon="-0.431770">
        <time>2017-06-24T10:20:58Z</time>
      </trkpt>
      <trkpt lat="44.975960" lon="-0.431770">
        <time>2017-06-24T10:20:59Z</time>
      </trkpt>
      <trkpt lat="44.975960" lon="-0.431770">
        <time>2017-06-24T10:21:00Z</time>
      </trkpt>
      <trkpt lat="44.975960" lon="-0.431770">
        <time>2017-06-24T10:21:01Z</time>
      </trkpt>
      <trkpt lat="44.975960" lon="-0.431770">
        <time>2017-06-24T10:21:02Z</time>
      </trkpt>
      <trkpt lat="44.975960" lon="-0.431770">
        <time>2017-06-24T10:21:03Z</time>
      </trkpt>
      <trkpt lat="44.975960" lon="-0.431770">
        <time>2017-06-24T10:21:04Z</time>
      </trkpt>
      <trkpt lat="44.975960" lon="-0.431770">
        <time>2017-06-24T10:21:05Z</time>
      </trkpt>
      <trkpt lat="44.975960" lon="-0.431770">
        <time>2017-06-24T10:21:06Z</time>
      </trkpt>
      <trkpt lat="44.975960" lon="-0.431770">
        <time>2017-06-24T10:21:07Z</time>
      </trkpt>
      <trkpt lat="44.975960" lon="-0.431770">
        <time>2017-06-24T10:21:08Z</time>
      </trkpt>
      <trkpt lat="44.975960" lon="-0.431770">
        <time>2017-06-24T10:21:09Z</time>
      </trkpt>
      <trkpt lat="44.975960" lon="-0.431770">
        <time>2017-06-24T10:21:10Z</time>
      </trkpt>
      <trkpt lat="44.975960" lon="-0.431770">
        <time>2017-06-24T10:21:11Z</time>
      </trkpt>
      <trkpt lat="44.975960" lon="-0.431770">
        <time>2017-06-24T10:21:12Z</time>
      </trkpt>
      <trkpt lat="44.975960" lon="-0.431770">
        <time>2017-06-24T10:21:13Z</time>
      </trkpt>
      <trkpt lat="44.975960" lon="-0.431770">
        <time>2017-06-24T10:21:14Z</time>
      </trkpt>
      <trkpt lat="44.975960" lon="-0.431770">
        <time>2017-06-24T10:21:15Z</time>
      </trkpt>
      <trkpt lat="44.975960" lon="-0.431770">
        <time>2017-06-24T10:21:16Z</time>
      </trkpt>
      <trkpt lat="44.975960" lon="-0.431770">
        <time>2017-06-24T10:21:17Z</time>
      </trkpt>
      <trkpt lat="44.975960" lon="-0.431770">
        <time>2017-06-24T10:21:18Z</time>
      </trkpt>
      <trkpt lat="44.975960" lon="-0.431770">
        <time>2017-06-24T10:21:19Z</time>
      </trkpt>
      <trkpt lat="44.975960" lon="-0.431770">
        <time>2017-06-24T10:21:20Z</time>
      </trkpt>
      <trkpt lat="44.975960" lon="-0.431770">
        <time>2017-06-24T10:21:21Z</time>
      </trkpt>
      <trkpt lat="44.975960" lon="-0.431770">
        <time>2017-06-24T10:21:22Z</time>
      </trkpt>
      <trkpt lat="44.975960" lon="-0.431770">
        <time>2017-06-24T10:21:23Z</time>
      </trkpt>
      <trkpt lat="44.975960" lon="-0.431770">
        <time>2017-06-24T10:21:24Z</time>
      </trkpt>
      <trkpt lat="44.975960" lon="-0.431770">
        <time>2017-06-24T10:21:25Z</time>
      </trkpt>
      <trkpt lat="44.975960" lon="-0.431770">
        <time>2017-06-24T10:21:26Z</time>
      </trkpt>
      <trkpt lat="44.975960" lon="-0.431770">
        <time>2017-06-24T10:21:27Z</time>
      </trkpt>
      <trkpt lat="44.975960" lon="-0.431770">
        <time>2017-06-24T10:21:28Z</time>
      </trkpt>
      <trkpt lat="44.975960" lon="-0.431770">
        <time>2017-06-24T10:21:29Z</time>
      </trkpt>
      <trkpt lat="44.975960" lon="-0.431770">
        <time>2017-06-24T10:21:30Z</time>
      </trkpt>
      <trkpt lat="44.975960" lon="-0.431770">
        <time>2017-06-24T10:21:31Z</time>
      </trkpt>
      <trkpt lat="44.975960" lon="-0.431770">
        <time>2017-06-24T10:21:32Z</time>
      </trkpt>
      <trkpt lat="44.975960" lon="-0.431770">
        <time>2017-06-24T10:21:33Z</time>
      </trkpt>
      <trkpt lat="44.975960" lon="-0.431770">
        <time>2017-06-24T10:21:34Z</time>
      </trkpt>
      <trkpt lat="44.975960" lon="-0.431770">
        <time>2017-06-24T10:21:35Z</time>
      </trkpt>
      <trkpt lat="44.975960" lon="-0.431770">
        <time>2017-06-24T10:21:36Z</time>
      </trkpt>
      <trkpt lat="44.975960" lon="-0.431770">
        <time>2017-06-24T10:21:37Z</time>
      </trkpt>
      <trkpt lat="44.975960" lon="-0.431770">
        <time>2017-06-24T10:21:38Z</time>
      </trkpt>
      <trkpt lat="44.975960" lon="-0.431770">
        <time>2017-06-24T10:21:39Z</time>
      </trkpt>
      <trkpt lat="44.975960" lon="-0.431770">
        <time>2017-06-24T10:21:40Z</time>
      </trkpt>
      <trkpt lat="44.975960" lon="-0.431770">
        <time>2017-06-24T10:21:41Z</time>
      </trkpt>
      <trkpt lat="44.975960" lon="-0.431770">
        <time>2017-06-24T10:21:42Z</time>
      </trkpt>
      <trkpt lat="44.975960" lon="-0.431770">
        <time>2017-06-24T10:21:43Z</time>
      </trkpt>
      <trkpt lat="44.975960" lon="-0.431770">
        <time>2017-06-24T10:21:44Z</time>
      </trkpt>
      <trkpt lat="44.975960" lon="-0.431770">
        <time>2017-06-24T10:21:45Z</time>
      </trkpt>
      <trkpt lat="44.975960" lon="-0.431770">
        <time>2017-06-24T10:21:46Z</time>
      </trkpt>
      <trkpt lat="44.975960" lon="-0.431770">
        <time>2017-06-24T10:21:47Z</time>
      </trkpt>
      <trkpt lat="44.975960" lon="-0.431770">
        <time>2017-06-24T10:21:48Z</time>
      </trkpt>
      <trkpt lat="44.975960" lon="-0.431770">
        <time>2017-06-24T10:21:49Z</time>
      </trkpt>
      <trkpt lat="44.975960" lon="-0.431770">
        <time>2017-06-24T10:21:50Z</time>
      </trkpt>
      <trkpt lat="44.975960" lon="-0.431770">
        <time>2017-06-24T10:21:51Z</time>
      </trkpt>
      <trkpt lat="44.975960" lon="-0.431770">
        <time>2017-06-24T10:21:52Z</time>
      </trkpt>
      <trkpt lat="44.975960" lon="-0.431770">
        <time>2017-06-24T10:21:53Z</time>
      </trkpt>
      <trkpt lat="44.975960" lon="-0.431770">
        <time>2017-06-24T10:21:54Z</time>
      </trkpt>
      <trkpt lat="44.975960" lon="-0.431770">
        <time>2017-06-24T10:21:55Z</time>
      </trkpt>
      <trkpt lat="44.975960" lon="-0.431770">
        <time>2017-06-24T10:21:56Z</time>
      </trkpt>
      <trkpt lat="44.975960" lon="-0.431770">
        <time>2017-06-24T10:21:57Z</time>
      </trkpt>
      <trkpt lat="44.975960" lon="-0.431770">
        <time>2017-06-24T10:21:58Z</time>
      </trkpt>
      <trkpt lat="44.975960" lon="-0.431770">
        <time>2017-06-24T10:21:59Z</time>
      </trkpt>
      <trkpt lat="44.975960" lon="-0.431770">
        <time>2017-06-24T10:22:00Z</time>
      </trkpt>
      <trkpt lat="44.975960" lon="-0.431770">
        <time>2017-06-24T10:22:01Z</time>
      </trkpt>
      <trkpt lat="44.975960" lon="-0.431770">
        <time>2017-06-24T10:22:02Z</time>
      </trkpt>
      <trkpt lat="44.975960" lon="-0.431770">
        <time>2017-06-24T10:22:03Z</time>
      </trkpt>
      <trkpt lat="44.975960" lon="-0.431770">
        <time>2017-06-24T10:22:04Z</time>
      </trkpt>
      <trkpt lat="44.975960" lon="-0.431770">
        <time>2017-06-24T10:22:05Z</time>
      </trkpt>
      <trkpt lat="44.975960" lon="-0.431770">
        <time>2017-06-24T10:22:06Z</time>
      </trkpt>
      <trkpt lat="44.975960" lon="-0.431770">
        <time>2017-06-24T10:22:07Z</time>
      </trkpt>
      <trkpt lat="44.975960" lon="-0.431770">
        <time>2017-06-24T10:22:08Z</time>
      </trkpt>
      <trkpt lat="44.975960" lon="-0.431770">
        <time>2017-06-24T10:22:09Z</time>
      </trkpt>
      <trkpt lat="44.975960" lon="-0.431770">
        <time>2017-06-24T10:22:10Z</time>
      </trkpt>
      <trkpt lat="44.975960" lon="-0.431770">
        <time>2017-06-24T10:22:11Z</time>
      </trkpt>
      <trkpt lat="44.975960" lon="-0.431770">
        <time>2017-06-24T10:22:12Z</time>
      </trkpt>
      <trkpt lat="44.975960" lon="-0.431770">
        <time>2017-06-24T10:22:13Z</time>
      </trkpt>
      <trkpt lat="44.975960" lon="-0.431770">
        <time>2017-06-24T10:22:14Z</time>
      </trkpt>
      <trkpt lat="44.975960" lon="-0.431770">
        <time>2017-06-24T10:22:15Z</time>
      </trkpt>
      <trkpt lat="44.975960" lon="-0.431770">
        <time>2017-06-24T10:22:16Z</time>
      </trkpt>
      <trkpt lat="44.975960" lon="-0.431770">
        <time>2017-06-24T10:22:17Z</time>
      </trkpt>
      <trkpt lat="44.975960" lon="-0.431770">
        <time>2017-06-24T10:22:18Z</time>
      </trkpt>
      <trkpt lat="44.975960" lon="-0.431770">
        <time>2017-06-24T10:22:19Z</time>
      </trkpt>
      <trkpt lat="44.975960" lon="-0.431770">
        <time>2017-06-24T10:22:20Z</time>
      </trkpt>
      <trkpt lat="44.975960" lon="-0.431770">
        <time>2017-06-24T10:22:21Z</time>
      </trkpt>
      <trkpt lat="44.975960" lon="-0.431770">
        <time>2017-06-24T10:22:22Z</time>
      </trkpt>
      <trkpt lat="44.975960" lon="-0.431770">
        <time>2017-06-24T10:22:23Z</time>
      </trkpt>
      <trkpt lat="44.975960" lon="-0.431770">
        <time>2017-06-24T10:22:24Z</time>
      </trkpt>
      <trkpt lat="44.975960" lon="-0.431770">
        <time>2017-06-24T10:22:25Z</time>
      </trkpt>
      <trkpt lat="44.975960" lon="-0.431770">
        <time>2017-06-24T10:22:26Z</time>
      </trkpt>
      <trkpt lat="44.975960" lon="-0.431770">
        <time>2017-06-24T10:22:27Z</time>
      </trkpt>
      <trkpt lat="44.975960" lon="-0.431770">
        <time>2017-06-24T10:22:28Z</time>
      </trkpt>
      <trkpt lat="44.975960" lon="-0.431770">
        <time>2017-06-24T10:22:29Z</time>
      </trkpt>
      <trkpt lat="44.975960" lon="-0.431770">
        <time>2017-06-24T10:22:30Z</time>
      </trkpt>
      <trkpt lat="44.975960" lon="-0.431770">
        <time>2017-06-24T10:22:31Z</time>
      </trkpt>
      <trkpt lat="44.975960" lon="-0.431770">
        <time>2017-06-24T10:22:32Z</time>
      </trkpt>
      <trkpt lat="44.975960" lon="-0.431770">
        <time>2017-06-24T10:22:33Z</time>
      </trkpt>
      <trkpt lat="44.975960" lon="-0.431770">
        <time>2017-06-24T10:22:34Z</time>
      </trkpt>
      <trkpt lat="44.975960" lon="-0.431770">
        <time>2017-06-24T10:22:35Z</time>
      </trkpt>
      <trkpt lat="44.975960" lon="-0.431770">
        <time>2017-06-24T10:22:36Z</time>
      </trkpt>
      <trkpt lat="44.975960" lon="-0.431770">
        <time>2017-06-24T10:22:37Z</time>
      </trkpt>
      <trkpt lat="44.975960" lon="-0.431770">
        <time>2017-06-24T10:22:38Z</time>
      </trkpt>
      <trkpt lat="44.975960" lon="-0.431770">
        <time>2017-06-24T10:22:39Z</time>
      </trkpt>
      <trkpt lat="44.975960" lon="-0.431770">
        <time>2017-06-24T10:22:40Z</time>
      </trkpt>
      <trkpt lat="44.975960" lon="-0.431770">
        <time>2017-06-24T10:22:41Z</time>
      </trkpt>
      <trkpt lat="44.975960" lon="-0.431770">
        <time>2017-06-24T10:22:42Z</time>
      </trkpt>
      <trkpt lat="44.975960" lon="-0.431770">
        <time>2017-06-24T10:22:43Z</time>
      </trkpt>
      <trkpt lat="44.975960" lon="-0.431770">
        <time>2017-06-24T10:22:44Z</time>
      </trkpt>
      <trkpt lat="44.975960" lon="-0.431770">
        <time>2017-06-24T10:22:45Z</time>
      </trkpt>
      <trkpt lat="44.975960" lon="-0.431770">
        <time>2017-06-24T10:22:46Z</time>
      </trkpt>
      <trkpt lat="44.975960" lon="-0.431770">
        <time>2017-06-24T10:22:47Z</time>
      </trkpt>
      <trkpt lat="44.975960" lon="-0.431770">
        <time>2017-06-24T10:22:48Z</time>
      </trkpt>
      <trkpt lat="44.975960" lon="-0.431770">
        <time>2017-06-24T10:22:49Z</time>
      </trkpt>
      <trkpt lat="44.975960" lon="-0.431770">
        <time>2017-06-24T10:22:50Z</time>
      </trkpt>
      <trkpt lat="44.975960" lon="-0.431770">
        <time>2017-06-24T10:22:51Z</time>
      </trkpt>
      <trkpt lat="44.975960" lon="-0.431770">
        <time>2017-06-24T10:22:52Z</time>
      </trkpt>
      <trkpt lat="44.975960" lon="-0.431770">
        <time>2017-06-24T10:22:53Z</time>
      </trkpt>
      <trkpt lat="44.975960" lon="-0.431770">
        <time>2017-06-24T10:22:54Z</time>
      </trkpt>
      <trkpt lat="44.975960" lon="-0.431770">
        <time>2017-06-24T10:22:55Z</time>
      </trkpt>
      <trkpt lat="44.975960" lon="-0.431770">
        <time>2017-06-24T10:22:56Z</time>
      </trkpt>
      <trkpt lat="44.975960" lon="-0.431770">
        <time>2017-06-24T10:22:57Z</time>
      </trkpt>
      <trkpt lat="44.975960" lon="-0.431770">
        <time>2017-06-24T10:22:58Z</time>
      </trkpt>
      <trkpt lat="44.975960" lon="-0.431770">
        <time>2017-06-24T10:22:59Z</time>
      </trkpt>
      <trkpt lat="44.975960" lon="-0.431770">
        <time>2017-06-24T10:23:00Z</time>
      </trkpt>
      <trkpt lat="44.975960" lon="-0.431770">
        <time>2017-06-24T10:23:01Z</time>
      </trkpt>
      <trkpt lat="44.975960" lon="-0.431770">
        <time>2017-06-24T10:23:02Z</time>
      </trkpt>
      <trkpt lat="44.975960" lon="-0.431770">
        <time>2017-06-24T10:23:03Z</time>
      </trkpt>
      <trkpt lat="44.975960" lon="-0.431770">
        <time>2017-06-24T10:23:04Z</time>
      </trkpt>
      <trkpt lat="44.975960" lon="-0.431770">
        <time>2017-06-24T10:23:05Z</time>
      </trkpt>
      <trkpt lat="44.975960" lon="-0.431770">
        <time>2017-06-24T10:23:06Z</time>
      </trkpt>
      <trkpt lat="44.975960" lon="-0.431770">
        <time>2017-06-24T10:23:07Z</time>
      </trkpt>
      <trkpt lat="44.975960" lon="-0.431770">
        <time>2017-06-24T10:23:08Z</time>
      </trkpt>
      <trkpt lat="44.975960" lon="-0.431770">
        <time>2017-06-24T10:23:09Z</time>
      </trkpt>
      <trkpt lat="44.975960" lon="-0.431770">
        <time>2017-06-24T10:23:10Z</time>
      </trkpt>
      <trkpt lat="44.975960" lon="-0.431770">
        <time>2017-06-24T10:23:11Z</time>
      </trkpt>
      <trkpt lat="44.975960" lon="-0.431770">
        <time>2017-06-24T10:23:12Z</time>
      </trkpt>
      <trkpt lat="44.975960" lon="-0.431770">
        <time>2017-06-24T10:23:13Z</time>
      </trkpt>
      <trkpt lat="44.975960" lon="-0.431770">
        <time>2017-06-24T10:23:14Z</time>
      </trkpt>
      <trkpt lat="44.975960" lon="-0.431770">
        <time>2017-06-24T10:23:15Z</time>
      </trkpt>
      <trkpt lat="44.975960" lon="-0.431770">
        <time>2017-06-24T10:23:16Z</time>
      </trkpt>
      <trkpt lat="44.975960" lon="-0.431770">
        <time>2017-06-24T10:23:17Z</time>
      </trkpt>
      <trkpt lat="44.975960" lon="-0.431770">
        <time>2017-06-24T10:23:18Z</time>
      </trkpt>
      <trkpt lat="44.975960" lon="-0.431770">
        <time>2017-06-24T10:23:19Z</time>
      </trkpt>
      <trkpt lat="44.975960" lon="-0.431770">
        <time>2017-06-24T10:23:20Z</time>
      </trkpt>
      <trkpt lat="44.975960" lon="-0.431770">
        <time>2017-06-24T10:23:21Z</time>
      </trkpt>
      <trkpt lat="44.975960" lon="-0.431770">
        <time>2017-06-24T10:23:22Z</time>
      </trkpt>
      <trkpt lat="44.975960" lon="-0.431770">
        <time>2017-06-24T10:23:23Z</time>
      </trkpt>
      <trkpt lat="44.975960" lon="-0.431770">
        <time>2017-06-24T10:23:24Z</time>
      </trkpt>
      <trkpt lat="44.975960" lon="-0.431770">
        <time>2017-06-24T10:23:25Z</time>
      </trkpt>
      <trkpt lat="44.975960" lon="-0.431770">
        <time>2017-06-24T10:23:26Z</time>
      </trkpt>
      <trkpt lat="44.975960" lon="-0.431770">
        <time>2017-06-24T10:23:27Z</time>
      </trkpt>
      <trkpt lat="44.975960" lon="-0.431770">
        <time>2017-06-24T10:23:28Z</time>
      </trkpt>
      <trkpt lat="44.975960" lon="-0.431770">
        <time>2017-06-24T10:23:29Z</time>
      </trkpt>
      <trkpt lat="44.975960" lon="-0.431770">
        <time>2017-06-24T10:23:30Z</time>
      </trkpt>
      <trkpt lat="44.975960" lon="-0.431770">
        <time>2017-06-24T10:23:31Z</time>
      </trkpt>
      <trkpt lat="44.975960" lon="-0.431770">
        <time>2017-06-24T10:23:32Z</time>
      </trkpt>
      <trkpt lat="44.975960" lon="-0.431770">
        <time>2017-06-24T10:23:33Z</time>
      </trkpt>
      <trkpt lat="44.975960" lon="-0.431770">
        <time>2017-06-24T10:23:34Z</time>
      </trkpt>
      <trkpt lat="44.975960" lon="-0.431770">
        <time>2017-06-24T10:23:35Z</time>
      </trkpt>
      <trkpt lat="44.975960" lon="-0.431770">
        <time>2017-06-24T10:23:36Z</time>
      </trkpt>
      <trkpt lat="44.975960" lon="-0.431770">
        <time>2017-06-24T10:23:37Z</time>
      </trkpt>
      <trkpt lat="44.975960" lon="-0.431770">
        <time>2017-06-24T10:23:38Z</time>
      </trkpt>
      <trkpt lat="44.975960" lon="-0.431770">
        <time>2017-06-24T10:23:39Z</time>
      </trkpt>
      <trkpt lat="44.975960" lon="-0.431770">
        <time>2017-06-24T10:23:40Z</time>
      </trkpt>
      <trkpt lat="44.975960" lon="-0.431770">
        <time>2017-06-24T10:23:41Z</time>
      </trkpt>
      <trkpt lat="44.975960" lon="-0.431780">
        <time>2017-06-24T10:23:42Z</time>
      </trkpt>
      <trkpt lat="44.975960" lon="-0.431780">
        <time>2017-06-24T10:23:43Z</time>
      </trkpt>
      <trkpt lat="44.975980" lon="-0.431770">
        <time>2017-06-24T10:23:44Z</time>
      </trkpt>
      <trkpt lat="44.976020" lon="-0.431760">
        <time>2017-06-24T10:23:45Z</time>
      </trkpt>
      <trkpt lat="44.976070" lon="-0.431750">
        <time>2017-06-24T10:23:46Z</time>
      </trkpt>
      <trkpt lat="44.976140" lon="-0.431710">
        <time>2017-06-24T10:23:47Z</time>
      </trkpt>
      <trkpt lat="44.976190" lon="-0.431670">
        <time>2017-06-24T10:23:48Z</time>
      </trkpt>
      <trkpt lat="44.976230" lon="-0.431640">
        <time>2017-06-24T10:23:49Z</time>
      </trkpt>
      <trkpt lat="44.976270" lon="-0.431630">
        <time>2017-06-24T10:23:50Z</time>
      </trkpt>
      <trkpt lat="44.976320" lon="-0.431660">
        <time>2017-06-24T10:23:51Z</time>
      </trkpt>
      <trkpt lat="44.976360" lon="-0.431720">
        <time>2017-06-24T10:23:52Z</time>
      </trkpt>
      <trkpt lat="44.976380" lon="-0.431790">
        <time>2017-06-24T10:23:53Z</time>
      </trkpt>
      <trkpt lat="44.976400" lon="-0.431880">
        <time>2017-06-24T10:23:54Z</time>
      </trkpt>
      <trkpt lat="44.976400" lon="-0.431970">
        <time>2017-06-24T10:23:55Z</time>
      </trkpt>
      <trkpt lat="44.976360" lon="-0.432050">
        <time>2017-06-24T10:23:56Z</time>
      </trkpt>
      <trkpt lat="44.976320" lon="-0.432120">
        <time>2017-06-24T10:23:57Z</time>
      </trkpt>
      <trkpt lat="44.976260" lon="-0.432170">
        <time>2017-06-24T10:23:58Z</time>
      </trkpt>
      <trkpt lat="44.976200" lon="-0.432220">
        <time>2017-06-24T10:23:59Z</time>
      </trkpt>
      <trkpt lat="44.976140" lon="-0.432260">
        <time>2017-06-24T10:24:00Z</time>
      </trkpt>
      <trkpt lat="44.976070" lon="-0.432290">
        <time>2017-06-24T10:24:01Z</time>
      </trkpt>
      <trkpt lat="44.976010" lon="-0.432290">
        <time>2017-06-24T10:24:02Z</time>
      </trkpt>
      <trkpt lat="44.975940" lon="-0.432260">
        <time>2017-06-24T10:24:03Z</time>
      </trkpt>
      <trkpt lat="44.975880" lon="-0.432230">
        <time>2017-06-24T10:24:04Z</time>
      </trkpt>
      <trkpt lat="44.975840" lon="-0.432210">
        <time>2017-06-24T10:24:05Z</time>
      </trkpt>
      <trkpt lat="44.975800" lon="-0.432200">
        <time>2017-06-24T10:24:06Z</time>
      </trkpt>
      <trkpt lat="44.975760" lon="-0.432190">
        <time>2017-06-24T10:24:07Z</time>
      </trkpt>
      <trkpt lat="44.975710" lon="-0.432200">
        <time>2017-06-24T10:24:08Z</time>
      </trkpt>
      <trkpt lat="44.975660" lon="-0.432220">
        <time>2017-06-24T10:24:09Z</time>
      </trkpt>
      <trkpt lat="44.975620" lon="-0.432280">
        <time>2017-06-24T10:24:10Z</time>
      </trkpt>
      <trkpt lat="44.975580" lon="-0.432360">
        <time>2017-06-24T10:24:11Z</time>
      </trkpt>
      <trkpt lat="44.975560" lon="-0.432460">
        <time>2017-06-24T10:24:12Z</time>
      </trkpt>
      <trkpt lat="44.975560" lon="-0.432540">
        <time>2017-06-24T10:24:13Z</time>
      </trkpt>
      <trkpt lat="44.975570" lon="-0.432620">
        <time>2017-06-24T10:24:14Z</time>
      </trkpt>
      <trkpt lat="44.975610" lon="-0.432700">
        <time>2017-06-24T10:24:15Z</time>
      </trkpt>
      <trkpt lat="44.975650" lon="-0.432750">
        <time>2017-06-24T10:24:16Z</time>
      </trkpt>
      <trkpt lat="44.975700" lon="-0.432770">
        <time>2017-06-24T10:24:17Z</time>
      </trkpt>
      <trkpt lat="44.975760" lon="-0.432760">
        <time>2017-06-24T10:24:18Z</time>
      </trkpt>
      <trkpt lat="44.975840" lon="-0.432740">
        <time>2017-06-24T10:24:19Z</time>
      </trkpt>
      <trkpt lat="44.975920" lon="-0.432700">
        <time>2017-06-24T10:24:20Z</time>
      </trkpt>
      <trkpt lat="44.976020" lon="-0.432640">
        <time>2017-06-24T10:24:21Z</time>
      </trkpt>
      <trkpt lat="44.976120" lon="-0.432580">
        <time>2017-06-24T10:24:22Z</time>
      </trkpt>
      <trkpt lat="44.976230" lon="-0.432510">
        <time>2017-06-24T10:24:23Z</time>
      </trkpt>
      <trkpt lat="44.976330" lon="-0.432460">
        <time>2017-06-24T10:24:24Z</time>
      </trkpt>
      <trkpt lat="44.976430" lon="-0.432390">
        <time>2017-06-24T10:24:25Z</time>
      </trkpt>
      <trkpt lat="44.976540" lon="-0.432320">
        <time>2017-06-24T10:24:26Z</time>
      </trkpt>
      <trkpt lat="44.976650" lon="-0.432250">
        <time>2017-06-24T10:24:27Z</time>
      </trkpt>
      <trkpt lat="44.976790" lon="-0.432170">
        <time>2017-06-24T10:24:28Z</time>
      </trkpt>
      <trkpt lat="44.976910" lon="-0.432080">
        <time>2017-06-24T10:24:29Z</time>
      </trkpt>
      <trkpt lat="44.977050" lon="-0.431980">
        <time>2017-06-24T10:24:30Z</time>
      </trkpt>
      <trkpt lat="44.977210" lon="-0.431880">
        <time>2017-06-24T10:24:31Z</time>
      </trkpt>
      <trkpt lat="44.977340" lon="-0.431780">
        <time>2017-06-24T10:24:32Z</time>
      </trkpt>
      <trkpt lat="44.977480" lon="-0.431690">
        <time>2017-06-24T10:24:33Z</time>
      </trkpt>
      <trkpt lat="44.977630" lon="-0.431590">
        <time>2017-06-24T10:24:34Z</time>
      </trkpt>
      <trkpt lat="44.977790" lon="-0.431480">
        <time>2017-06-24T10:24:35Z</time>
      </trkpt>
      <trkpt lat="44.977970" lon="-0.431350">
        <time>2017-06-24T10:24:36Z</time>
      </trkpt>
      <trkpt lat="44.978140" lon="-0.431250">
        <time>2017-06-24T10:24:37Z</time>
      </trkpt>
      <trkpt lat="44.978320" lon="-0.431130">
        <time>2017-06-24T10:24:38Z</time>
      </trkpt>
      <trkpt lat="44.978500" lon="-0.431010">
        <time>2017-06-24T10:24:39Z</time>
      </trkpt>
      <trkpt lat="44.978660" lon="-0.430900">
        <time>2017-06-24T10:24:40Z</time>
      </trkpt>
      <trkpt lat="44.978840" lon="-0.430770">
        <time>2017-06-24T10:24:41Z</time>
      </trkpt>
      <trkpt lat="44.979040" lon="-0.430640">
        <time>2017-06-24T10:24:42Z</time>
      </trkpt>
      <trkpt lat="44.979210" lon="-0.430530">
        <time>2017-06-24T10:24:43Z</time>
      </trkpt>
      <trkpt lat="44.979410" lon="-0.430400">
        <time>2017-06-24T10:24:44Z</time>
      </trkpt>
      <trkpt lat="44.979580" lon="-0.430290">
        <time>2017-06-24T10:24:45Z</time>
      </trkpt>
      <trkpt lat="44.979780" lon="-0.430170">
        <time>2017-06-24T10:24:46Z</time>
      </trkpt>
      <trkpt lat="44.979980" lon="-0.430050">
        <time>2017-06-24T10:24:47Z</time>
      </trkpt>
      <trkpt lat="44.980170" lon="-0.429940">
        <time>2017-06-24T10:24:48Z</time>
      </trkpt>
      <trkpt lat="44.980370" lon="-0.429820">
        <time>2017-06-24T10:24:49Z</time>
      </trkpt>
      <trkpt lat="44.980580" lon="-0.429700">
        <time>2017-06-24T10:24:50Z</time>
      </trkpt>
      <trkpt lat="44.980780" lon="-0.429590">
        <time>2017-06-24T10:24:51Z</time>
      </trkpt>
      <trkpt lat="44.981000" lon="-0.429470">
        <time>2017-06-24T10:24:52Z</time>
      </trkpt>
      <trkpt lat="44.981180" lon="-0.429370">
        <time>2017-06-24T10:24:53Z</time>
      </trkpt>
      <trkpt lat="44.981380" lon="-0.429270">
        <time>2017-06-24T10:24:54Z</time>
      </trkpt>
      <trkpt lat="44.981600" lon="-0.429160">
        <time>2017-06-24T10:24:55Z</time>
      </trkpt>
      <trkpt lat="44.981790" lon="-0.429060">
        <time>2017-06-24T10:24:56Z</time>
      </trkpt>
      <trkpt lat="44.981990" lon="-0.428960">
        <time>2017-06-24T10:24:57Z</time>
      </trkpt>
      <trkpt lat="44.982220" lon="-0.428860">
        <time>2017-06-24T10:24:58Z</time>
      </trkpt>
      <trkpt lat="44.982420" lon="-0.428770">
        <time>2017-06-24T10:24:59Z</time>
      </trkpt>
      <trkpt lat="44.982640" lon="-0.428670">
        <time>2017-06-24T10:25:00Z</time>
      </trkpt>
      <trkpt lat="44.982840" lon="-0.428590">
        <time>2017-06-24T10:25:01Z</time>
      </trkpt>
      <trkpt lat="44.983060" lon="-0.428500">
        <time>2017-06-24T10:25:02Z</time>
      </trkpt>
      <trkpt lat="44.983290" lon="-0.428410">
        <time>2017-06-24T10:25:03Z</time>
      </trkpt>
      <trkpt lat="44.983510" lon="-0.428330">
        <time>2017-06-24T10:25:04Z</time>
      </trkpt>
      <trkpt lat="44.983740" lon="-0.428260">
        <time>2017-06-24T10:25:05Z</time>
      </trkpt>
      <trkpt lat="44.983990" lon="-0.428180">
        <time>2017-06-24T10:25:06Z</time>
      </trkpt>
      <trkpt lat="44.984240" lon="-0.428090">
        <time>2017-06-24T10:25:07Z</time>
      </trkpt>
      <trkpt lat="44.984490" lon="-0.428010">
        <time>2017-06-24T10:25:08Z</time>
      </trkpt>
      <trkpt lat="44.984720" lon="-0.427940">
        <time>2017-06-24T10:25:09Z</time>
      </trkpt>
      <trkpt lat="44.984960" lon="-0.427870">
        <time>2017-06-24T10:25:10Z</time>
      </trkpt>
      <trkpt lat="44.985220" lon="-0.427780">
        <time>2017-06-24T10:25:11Z</time>
      </trkpt>
      <trkpt lat="44.985460" lon="-0.427720">
        <time>2017-06-24T10:25:12Z</time>
      </trkpt>
      <trkpt lat="44.985730" lon="-0.427650">
        <time>2017-06-24T10:25:13Z</time>
      </trkpt>
      <trkpt lat="44.986020" lon="-0.427580">
        <time>2017-06-24T10:25:14Z</time>
      </trkpt>
      <trkpt lat="44.986280" lon="-0.427510">
        <time>2017-06-24T10:25:15Z</time>
      </trkpt>
      <trkpt lat="44.986580" lon="-0.427450">
        <time>2017-06-24T10:25:16Z</time>
      </trkpt>
      <trkpt lat="44.986850" lon="-0.427390">
        <time>2017-06-24T10:25:17Z</time>
      </trkpt>
      <trkpt lat="44.987140" lon="-0.427340">
        <time>2017-06-24T10:25:18Z</time>
      </trkpt>
      <trkpt lat="44.987450" lon="-0.427280">
        <time>2017-06-24T10:25:19Z</time>
      </trkpt>
      <trkpt lat="44.987720" lon="-0.427240">
        <time>2017-06-24T10:25:20Z</time>
      </trkpt>
      <trkpt lat="44.988010" lon="-0.427200">
        <time>2017-06-24T10:25:21Z</time>
      </trkpt>
      <trkpt lat="44.988290" lon="-0.427170">
        <time>2017-06-24T10:25:22Z</time>
      </trkpt>
      <trkpt lat="44.988560" lon="-0.427140">
        <time>2017-06-24T10:25:23Z</time>
      </trkpt>
      <trkpt lat="44.988840" lon="-0.427110">
        <time>2017-06-24T10:25:24Z</time>
      </trkpt>
      <trkpt lat="44.989090" lon="-0.427090">
        <time>2017-06-24T10:25:25Z</time>
      </trkpt>
      <trkpt lat="44.989350" lon="-0.427070">
        <time>2017-06-24T10:25:26Z</time>
      </trkpt>
      <trkpt lat="44.989630" lon="-0.427050">
        <time>2017-06-24T10:25:27Z</time>
      </trkpt>
      <trkpt lat="44.989890" lon="-0.427040">
        <time>2017-06-24T10:25:28Z</time>
      </trkpt>
      <trkpt lat="44.990160" lon="-0.427020">
        <time>2017-06-24T10:25:29Z</time>
      </trkpt>
      <trkpt lat="44.990450" lon="-0.427010">
        <time>2017-06-24T10:25:30Z</time>
      </trkpt>
      <trkpt lat="44.990700" lon="-0.427000">
        <time>2017-06-24T10:25:31Z</time>
      </trkpt>
      <trkpt lat="44.990990" lon="-0.426980">
        <time>2017-06-24T10:25:32Z</time>
      </trkpt>
      <trkpt lat="44.991240" lon="-0.426960">
        <time>2017-06-24T10:25:33Z</time>
      </trkpt>
      <trkpt lat="44.991490" lon="-0.426960">
        <time>2017-06-24T10:25:34Z</time>
      </trkpt>
      <trkpt lat="44.991760" lon="-0.426950">
        <time>2017-06-24T10:25:35Z</time>
      </trkpt>
      <trkpt lat="44.991990" lon="-0.426950">
        <time>2017-06-24T10:25:36Z</time>
      </trkpt>
      <trkpt lat="44.992240" lon="-0.426940">
        <time>2017-06-24T10:25:37Z</time>
      </trkpt>
      <trkpt lat="44.992490" lon="-0.426940">
        <time>2017-06-24T10:25:38Z</time>
      </trkpt>
      <trkpt lat="44.992740" lon="-0.426930">
        <time>2017-06-24T10:25:39Z</time>
      </trkpt>
      <trkpt lat="44.993010" lon="-0.426920">
        <time>2017-06-24T10:25:40Z</time>
      </trkpt>
      <trkpt lat="44.993240" lon="-0.426910">
        <time>2017-06-24T10:25:41Z</time>
      </trkpt>
      <trkpt lat="44.993490" lon="-0.426910">
        <time>2017-06-24T10:25:42Z</time>
      </trkpt>
      <trkpt lat="44.993760" lon="-0.426900">
        <time>2017-06-24T10:25:43Z</time>
      </trkpt>
      <trkpt lat="44.994000" lon="-0.426880">
        <time>2017-06-24T10:25:44Z</time>
      </trkpt>
      <trkpt lat="44.994250" lon="-0.426870">
        <time>2017-06-24T10:25:45Z</time>
      </trkpt>
      <trkpt lat="44.994530" lon="-0.426850">
        <time>2017-06-24T10:25:46Z</time>
      </trkpt>
      <trkpt lat="44.994770" lon="-0.426850">
        <time>2017-06-24T10:25:47Z</time>
      </trkpt>
      <trkpt lat="44.995050" lon="-0.426830">
        <time>2017-06-24T10:25:48Z</time>
      </trkpt>
      <trkpt lat="44.995290" lon="-0.426830">
        <time>2017-06-24T10:25:49Z</time>
      </trkpt>
      <trkpt lat="44.995560" lon="-0.426830">
        <time>2017-06-24T10:25:50Z</time>
      </trkpt>
      <trkpt lat="44.995830" lon="-0.426820">
        <time>2017-06-24T10:25:51Z</time>
      </trkpt>
      <trkpt lat="44.996090" lon="-0.426820">
        <time>2017-06-24T10:25:52Z</time>
      </trkpt>
      <trkpt lat="44.996350" lon="-0.426800">
        <time>2017-06-24T10:25:53Z</time>
      </trkpt>
      <trkpt lat="44.996620" lon="-0.426790">
        <time>2017-06-24T10:25:54Z</time>
      </trkpt>
      <trkpt lat="44.996900" lon="-0.426780">
        <time>2017-06-24T10:25:55Z</time>
      </trkpt>
      <trkpt lat="44.997190" lon="-0.426770">
        <time>2017-06-24T10:25:56Z</time>
      </trkpt>
      <trkpt lat="44.997450" lon="-0.426760">
        <time>2017-06-24T10:25:57Z</time>
      </trkpt>
      <trkpt lat="44.997720" lon="-0.426750">
        <time>2017-06-24T10:25:58Z</time>
      </trkpt>
      <trkpt lat="44.998020" lon="-0.426750">
        <time>2017-06-24T10:25:59Z</time>
      </trkpt>
      <trkpt lat="44.998270" lon="-0.426750">
        <time>2017-06-24T10:26:00Z</time>
      </trkpt>
      <trkpt lat="44.998540" lon="-0.426750">
        <time>2017-06-24T10:26:01Z</time>
      </trkpt>
      <trkpt lat="44.998840" lon="-0.426750">
        <time>2017-06-24T10:26:02Z</time>
      </trkpt>
      <trkpt lat="44.999090" lon="-0.426750">
        <time>2017-06-24T10:26:03Z</time>
      </trkpt>
      <trkpt lat="44.999390" lon="-0.426760">
        <time>2017-06-24T10:26:04Z</time>
      </trkpt>
      <trkpt lat="44.999640" lon="-0.426760">
        <time>2017-06-24T10:26:05Z</time>
      </trkpt>
      <trkpt lat="44.999920" lon="-0.426760">
        <time>2017-06-24T10:26:06Z</time>
      </trkpt>
      <trkpt lat="45.000210" lon="-0.426770">
        <time>2017-06-24T10:26:07Z</time>
      </trkpt>
      <trkpt lat="45.000470" lon="-0.426780">
        <time>2017-06-24T10:26:08Z</time>
      </trkpt>
      <trkpt lat="45.000750" lon="-0.426790">
        <time>2017-06-24T10:26:09Z</time>
      </trkpt>
      <trkpt lat="45.001020" lon="-0.426810">
        <time>2017-06-24T10:26:10Z</time>
      </trkpt>
      <trkpt lat="45.001290" lon="-0.426830">
        <time>2017-06-24T10:26:11Z</time>
      </trkpt>
      <trkpt lat="45.001590" lon="-0.426850">
        <time>2017-06-24T10:26:12Z</time>
      </trkpt>
      <trkpt lat="45.001850" lon="-0.426870">
        <time>2017-06-24T10:26:13Z</time>
      </trkpt>
      <trkpt lat="45.002120" lon="-0.426900">
        <time>2017-06-24T10:26:14Z</time>
      </trkpt>
      <trkpt lat="45.002420" lon="-0.426920">
        <time>2017-06-24T10:26:15Z</time>
      </trkpt>
      <trkpt lat="45.002680" lon="-0.426950">
        <time>2017-06-24T10:26:16Z</time>
      </trkpt>
      <trkpt lat="45.002950" lon="-0.426980">
        <time>2017-06-24T10:26:17Z</time>
      </trkpt>
      <trkpt lat="45.003250" lon="-0.427010">
        <time>2017-06-24T10:26:18Z</time>
      </trkpt>
      <trkpt lat="45.003510" lon="-0.427050">
        <time>2017-06-24T10:26:19Z</time>
      </trkpt>
      <trkpt lat="45.003800" lon="-0.427080">
        <time>2017-06-24T10:26:20Z</time>
      </trkpt>
      <trkpt lat="45.004060" lon="-0.427120">
        <time>2017-06-24T10:26:21Z</time>
      </trkpt>
      <trkpt lat="45.004340" lon="-0.427170">
        <time>2017-06-24T10:26:22Z</time>
      </trkpt>
      <trkpt lat="45.004630" lon="-0.427220">
        <time>2017-06-24T10:26:23Z</time>
      </trkpt>
      <trkpt lat="45.004870" lon="-0.427260">
        <time>2017-06-24T10:26:24Z</time>
      </trkpt>
      <trkpt lat="45.005140" lon="-0.427300">
        <time>2017-06-24T10:26:25Z</time>
      </trkpt>
      <trkpt lat="45.005400" lon="-0.427360">
        <time>2017-06-24T10:26:26Z</time>
      </trkpt>
      <trkpt lat="45.005660" lon="-0.427410">
        <time>2017-06-24T10:26:27Z</time>
      </trkpt>
      <trkpt lat="45.005920" lon="-0.427460">
        <time>2017-06-24T10:26:28Z</time>
      </trkpt>
      <trkpt lat="45.006160" lon="-0.427510">
        <time>2017-06-24T10:26:29Z</time>
      </trkpt>
      <trkpt lat="45.006410" lon="-0.427570">
        <time>2017-06-24T10:26:30Z</time>
      </trkpt>
      <trkpt lat="45.006690" lon="-0.427640">
        <time>2017-06-24T10:26:31Z</time>
      </trkpt>
      <trkpt lat="45.006930" lon="-0.427690">
        <time>2017-06-24T10:26:32Z</time>
      </trkpt>
      <trkpt lat="45.007180" lon="-0.427760">
        <time>2017-06-24T10:26:33Z</time>
      </trkpt>
      <trkpt lat="45.007460" lon="-0.427830">
        <time>2017-06-24T10:26:34Z</time>
      </trkpt>
      <trkpt lat="45.007700" lon="-0.427900">
        <time>2017-06-24T10:26:35Z</time>
      </trkpt>
      <trkpt lat="45.007980" lon="-0.427980">
        <time>2017-06-24T10:26:36Z</time>
      </trkpt>
      <trkpt lat="45.008220" lon="-0.428040">
        <time>2017-06-24T10:26:37Z</time>
      </trkpt>
      <trkpt lat="45.008470" lon="-0.428120">
        <time>2017-06-24T10:26:38Z</time>
      </trkpt>
      <trkpt lat="45.008750" lon="-0.428200">
        <time>2017-06-24T10:26:39Z</time>
      </trkpt>
      <trkpt lat="45.008990" lon="-0.428280">
        <time>2017-06-24T10:26:40Z</time>
      </trkpt>
      <trkpt lat="45.009260" lon="-0.428360">
        <time>2017-06-24T10:26:41Z</time>
      </trkpt>
      <trkpt lat="45.009520" lon="-0.428450">
        <time>2017-06-24T10:26:42Z</time>
      </trkpt>
      <trkpt lat="45.009780" lon="-0.428550">
        <time>2017-06-24T10:26:43Z</time>
      </trkpt>
      <trkpt lat="45.010060" lon="-0.428640">
        <time>2017-06-24T10:26:44Z</time>
      </trkpt>
      <trkpt lat="45.010310" lon="-0.428720">
        <time>2017-06-24T10:26:45Z</time>
      </trkpt>
      <trkpt lat="45.010560" lon="-0.428820">
        <time>2017-06-24T10:26:46Z</time>
      </trkpt>
      <trkpt lat="45.010840" lon="-0.428920">
        <time>2017-06-24T10:26:47Z</time>
      </trkpt>
      <trkpt lat="45.011090" lon="-0.429010">
        <time>2017-06-24T10:26:48Z</time>
      </trkpt>
      <trkpt lat="45.011350" lon="-0.429110">
        <time>2017-06-24T10:26:49Z</time>
      </trkpt>
      <trkpt lat="45.011630" lon="-0.429230">
        <time>2017-06-24T10:26:50Z</time>
      </trkpt>
      <trkpt lat="45.011870" lon="-0.429330">
        <time>2017-06-24T10:26:51Z</time>
      </trkpt>
      <trkpt lat="45.012150" lon="-0.429450">
        <time>2017-06-24T10:26:52Z</time>
      </trkpt>
      <trkpt lat="45.012390" lon="-0.429550">
        <time>2017-06-24T10:26:53Z</time>
      </trkpt>
      <trkpt lat="45.012650" lon="-0.429660">
        <time>2017-06-24T10:26:54Z</time>
      </trkpt>
      <trkpt lat="45.012920" lon="-0.429790">
        <time>2017-06-24T10:26:55Z</time>
      </trkpt>
      <trkpt lat="45.013160" lon="-0.429900">
        <time>2017-06-24T10:26:56Z</time>
      </trkpt>
      <trkpt lat="45.013420" lon="-0.430020">
        <time>2017-06-24T10:26:57Z</time>
      </trkpt>
      <trkpt lat="45.013680" lon="-0.430140">
        <time>2017-06-24T10:26:58Z</time>
      </trkpt>
      <trkpt lat="45.013940" lon="-0.430270">
        <time>2017-06-24T10:26:59Z</time>
      </trkpt>
      <trkpt lat="45.014210" lon="-0.430410">
        <time>2017-06-24T10:27:00Z</time>
      </trkpt>
      <trkpt lat="45.014450" lon="-0.430530">
        <time>2017-06-24T10:27:01Z</time>
      </trkpt>
      <trkpt lat="45.014700" lon="-0.430650">
        <time>2017-06-24T10:27:02Z</time>
      </trkpt>
      <trkpt lat="45.014970" lon="-0.430790">
        <time>2017-06-24T10:27:03Z</time>
      </trkpt>
      <trkpt lat="45.015200" lon="-0.430910">
        <time>2017-06-24T10:27:04Z</time>
      </trkpt>
      <trkpt lat="45.015460" lon="-0.431040">
        <time>2017-06-24T10:27:05Z</time>
      </trkpt>
      <trkpt lat="45.015730" lon="-0.431180">
        <time>2017-06-24T10:27:06Z</time>
      </trkpt>
      <trkpt lat="45.015960" lon="-0.431300">
        <time>2017-06-24T10:27:07Z</time>
      </trkpt>
      <trkpt lat="45.016230" lon="-0.431450">
        <time>2017-06-24T10:27:08Z</time>
      </trkpt>
      <trkpt lat="45.016460" lon="-0.431570">
        <time>2017-06-24T10:27:09Z</time>
      </trkpt>
      <trkpt lat="45.016710" lon="-0.431710">
        <time>2017-06-24T10:27:10Z</time>
      </trkpt>
      <trkpt lat="45.016980" lon="-0.431860">
        <time>2017-06-24T10:27:11Z</time>
      </trkpt>
      <trkpt lat="45.017210" lon="-0.431990">
        <time>2017-06-24T10:27:12Z</time>
      </trkpt>
      <trkpt lat="45.017440" lon="-0.432120">
        <time>2017-06-24T10:27:13Z</time>
      </trkpt>
      <trkpt lat="45.017670" lon="-0.432250">
        <time>2017-06-24T10:27:14Z</time>
      </trkpt>
      <trkpt lat="45.017900" lon="-0.432370">
        <time>2017-06-24T10:27:15Z</time>
      </trkpt>
      <trkpt lat="45.018130" lon="-0.432490">
        <time>2017-06-24T10:27:16Z</time>
      </trkpt>
      <trkpt lat="45.018320" lon="-0.432600">
        <time>2017-06-24T10:27:17Z</time>
      </trkpt>
      <trkpt lat="45.018520" lon="-0.432710">
        <time>2017-06-24T10:27:18Z</time>
      </trkpt>
      <trkpt lat="45.018720" lon="-0.432830">
        <time>2017-06-24T10:27:19Z</time>
      </trkpt>
      <trkpt lat="45.018900" lon="-0.432930">
        <time>2017-06-24T10:27:20Z</time>
      </trkpt>
      <trkpt lat="45.019080" lon="-0.433030">
        <time>2017-06-24T10:27:21Z</time>
      </trkpt>
      <trkpt lat="45.019280" lon="-0.433140">
        <time>2017-06-24T10:27:22Z</time>
      </trkpt>
      <trkpt lat="45.019460" lon="-0.433240">
        <time>2017-06-24T10:27:23Z</time>
      </trkpt>
      <trkpt lat="45.019660" lon="-0.433360">
        <time>2017-06-24T10:27:24Z</time>
      </trkpt>
      <trkpt lat="45.019830" lon="-0.433450">
        <time>2017-06-24T10:27:25Z</time>
      </trkpt>
      <trkpt lat="45.020000" lon="-0.433560">
        <time>2017-06-24T10:27:26Z</time>
      </trkpt>
      <trkpt lat="45.020180" lon="-0.433660">
        <time>2017-06-24T10:27:27Z</time>
      </trkpt>
      <trkpt lat="45.020330" lon="-0.433750">
        <time>2017-06-24T10:27:28Z</time>
      </trkpt>
      <trkpt lat="45.020490" lon="-0.433840">
        <time>2017-06-24T10:27:29Z</time>
      </trkpt>
      <trkpt lat="45.020650" lon="-0.433930">
        <time>2017-06-24T10:27:30Z</time>
      </trkpt>
      <trkpt lat="45.020800" lon="-0.434020">
        <time>2017-06-24T10:27:31Z</time>
      </trkpt>
      <trkpt lat="45.020970" lon="-0.434110">
        <time>2017-06-24T10:27:32Z</time>
      </trkpt>
      <trkpt lat="45.021130" lon="-0.434190">
        <time>2017-06-24T10:27:33Z</time>
      </trkpt>
      <trkpt lat="45.021290" lon="-0.434260">
        <time>2017-06-24T10:27:34Z</time>
      </trkpt>
      <trkpt lat="45.021450" lon="-0.434340">
        <time>2017-06-24T10:27:35Z</time>
      </trkpt>
      <trkpt lat="45.021600" lon="-0.434380">
        <time>2017-06-24T10:27:36Z</time>
      </trkpt>
      <trkpt lat="45.021750" lon="-0.434420">
        <time>2017-06-24T10:27:37Z</time>
      </trkpt>
      <trkpt lat="45.021910" lon="-0.434470">
        <time>2017-06-24T10:27:38Z</time>
      </trkpt>
      <trkpt lat="45.022040" lon="-0.434500">
        <time>2017-06-24T10:27:39Z</time>
      </trkpt>
      <trkpt lat="45.022170" lon="-0.434530">
        <time>2017-06-24T10:27:40Z</time>
      </trkpt>
      <trkpt lat="45.022290" lon="-0.434560">
        <time>2017-06-24T10:27:41Z</time>
      </trkpt>
      <trkpt lat="45.022420" lon="-0.434590">
        <time>2017-06-24T10:27:42Z</time>
      </trkpt>
      <trkpt lat="45.022540" lon="-0.434620">
        <time>2017-06-24T10:27:43Z</time>
      </trkpt>
      <trkpt lat="45.022660" lon="-0.434650">
        <time>2017-06-24T10:27:44Z</time>
      </trkpt>
      <trkpt lat="45.022780" lon="-0.434670">
        <time>2017-06-24T10:27:45Z</time>
      </trkpt>
      <trkpt lat="45.022900" lon="-0.434700">
        <time>2017-06-24T10:27:46Z</time>
      </trkpt>
      <trkpt lat="45.023010" lon="-0.434730">
        <time>2017-06-24T10:27:47Z</time>
      </trkpt>
      <trkpt lat="45.023130" lon="-0.434760">
        <time>2017-06-24T10:27:48Z</time>
      </trkpt>
      <trkpt lat="45.023220" lon="-0.434790">
        <time>2017-06-24T10:27:49Z</time>
      </trkpt>
      <trkpt lat="45.023320" lon="-0.434830">
        <time>2017-06-24T10:27:50Z</time>
      </trkpt>
      <trkpt lat="45.023410" lon="-0.434870">
        <time>2017-06-24T10:27:51Z</time>
      </trkpt>
      <trkpt lat="45.023470" lon="-0.434900">
        <time>2017-06-24T10:27:52Z</time>
      </trkpt>
      <trkpt lat="45.023530" lon="-0.434930">
        <time>2017-06-24T10:27:53Z</time>
      </trkpt>
      <trkpt lat="45.023590" lon="-0.434960">
        <time>2017-06-24T10:27:54Z</time>
      </trkpt>
      <trkpt lat="45.023630" lon="-0.434980">
        <time>2017-06-24T10:27:55Z</time>
      </trkpt>
      <trkpt lat="45.023660" lon="-0.435000">
        <time>2017-06-24T10:27:56Z</time>
      </trkpt>
      <trkpt lat="45.023680" lon="-0.435010">
        <time>2017-06-24T10:27:57Z</time>
      </trkpt>
      <trkpt lat="45.023690" lon="-0.435000">
        <time>2017-06-24T10:27:58Z</time>
      </trkpt>
      <trkpt lat="45.023690" lon="-0.435000">
        <time>2017-06-24T10:27:59Z</time>
      </trkpt>
      <trkpt lat="45.023690" lon="-0.435000">
        <time>2017-06-24T10:28:00Z</time>
      </trkpt>
      <trkpt lat="45.023690" lon="-0.435000">
        <time>2017-06-24T10:28:01Z</time>
      </trkpt>
      <trkpt lat="45.023700" lon="-0.435020">
        <time>2017-06-24T10:28:02Z</time>
      </trkpt>
      <trkpt lat="45.023710" lon="-0.435030">
        <time>2017-06-24T10:28:03Z</time>
      </trkpt>
      <trkpt lat="45.023710" lon="-0.435030">
        <time>2017-06-24T10:28:04Z</time>
      </trkpt>
      <trkpt lat="45.023710" lon="-0.435030">
        <time>2017-06-24T10:28:05Z</time>
      </trkpt>
      <trkpt lat="45.023710" lon="-0.435030">
        <time>2017-06-24T10:28:06Z</time>
      </trkpt>
      <trkpt lat="45.023710" lon="-0.435030">
        <time>2017-06-24T10:28:07Z</time>
      </trkpt>
      <trkpt lat="45.023710" lon="-0.435030">
        <time>2017-06-24T10:28:08Z</time>
      </trkpt>
      <trkpt lat="45.023710" lon="-0.435030">
        <time>2017-06-24T10:28:09Z</time>
      </trkpt>
      <trkpt lat="45.023710" lon="-0.435030">
        <time>2017-06-24T10:28:10Z</time>
      </trkpt>
      <trkpt lat="45.023710" lon="-0.435030">
        <time>2017-06-24T10:28:11Z</time>
      </trkpt>
      <trkpt lat="45.023710" lon="-0.435030">
        <time>2017-06-24T10:28:12Z</time>
      </trkpt>
      <trkpt lat="45.023710" lon="-0.435030">
        <time>2017-06-24T10:28:13Z</time>
      </trkpt>
      <trkpt lat="45.023710" lon="-0.435030">
        <time>2017-06-24T10:28:14Z</time>
      </trkpt>
      <trkpt lat="45.023710" lon="-0.435030">
        <time>2017-06-24T10:28:15Z</time>
      </trkpt>
      <trkpt lat="45.023710" lon="-0.435030">
        <time>2017-06-24T10:28:16Z</time>
      </trkpt>
      <trkpt lat="45.023710" lon="-0.435030">
        <time>2017-06-24T10:28:17Z</time>
      </trkpt>
      <trkpt lat="45.023710" lon="-0.435030">
        <time>2017-06-24T10:28:18Z</time>
      </trkpt>
      <trkpt lat="45.023710" lon="-0.435030">
        <time>2017-06-24T10:28:19Z</time>
      </trkpt>
      <trkpt lat="45.023710" lon="-0.435030">
        <time>2017-06-24T10:28:20Z</time>
      </trkpt>
      <trkpt lat="45.023710" lon="-0.435030">
        <time>2017-06-24T10:28:21Z</time>
      </trkpt>
      <trkpt lat="45.023710" lon="-0.435030">
        <time>2017-06-24T10:28:22Z</time>
      </trkpt>
      <trkpt lat="45.023710" lon="-0.435030">
        <time>2017-06-24T10:28:23Z</time>
      </trkpt>
      <trkpt lat="45.023710" lon="-0.435030">
        <time>2017-06-24T10:28:24Z</time>
      </trkpt>
      <trkpt lat="45.023740" lon="-0.435050">
        <time>2017-06-24T10:28:25Z</time>
      </trkpt>
      <trkpt lat="45.023780" lon="-0.435070">
        <time>2017-06-24T10:28:26Z</time>
      </trkpt>
      <trkpt lat="45.023860" lon="-0.435120">
        <time>2017-06-24T10:28:27Z</time>
      </trkpt>
      <trkpt lat="45.023940" lon="-0.435180">
        <time>2017-06-24T10:28:28Z</time>
      </trkpt>
      <trkpt lat="45.024020" lon="-0.435250">
        <time>2017-06-24T10:28:29Z</time>
      </trkpt>
      <trkpt lat="45.024120" lon="-0.435340">
        <time>2017-06-24T10:28:30Z</time>
      </trkpt>
      <trkpt lat="45.024210" lon="-0.435440">
        <time>2017-06-24T10:28:31Z</time>
      </trkpt>
      <trkpt lat="45.024310" lon="-0.435530">
        <time>2017-06-24T10:28:32Z</time>
      </trkpt>
      <trkpt lat="45.024420" lon="-0.435630">
        <time>2017-06-24T10:28:33Z</time>
      </trkpt>
      <trkpt lat="45.024540" lon="-0.435750">
        <time>2017-06-24T10:28:34Z</time>
      </trkpt>
      <trkpt lat="45.024680" lon="-0.435880">
        <time>2017-06-24T10:28:35Z</time>
      </trkpt>
      <trkpt lat="45.024840" lon="-0.436030">
        <time>2017-06-24T10:28:36Z</time>
      </trkpt>
      <trkpt lat="45.024980" lon="-0.436160">
        <time>2017-06-24T10:28:37Z</time>
      </trkpt>
      <trkpt lat="45.025140" lon="-0.436290">
        <time>2017-06-24T10:28:38Z</time>
      </trkpt>
      <trkpt lat="45.025300" lon="-0.436440">
        <time>2017-06-24T10:28:39Z</time>
      </trkpt>
      <trkpt lat="45.025460" lon="-0.436570">
        <time>2017-06-24T10:28:40Z</time>
      </trkpt>
      <trkpt lat="45.025630" lon="-0.436710">
        <time>2017-06-24T10:28:41Z</time>
      </trkpt>
      <trkpt lat="45.025830" lon="-0.436860">
        <time>2017-06-24T10:28:42Z</time>
      </trkpt>
      <trkpt lat="45.026030" lon="-0.436990">
        <time>2017-06-24T10:28:43Z</time>
      </trkpt>
      <trkpt lat="45.026280" lon="-0.437140">
        <time>2017-06-24T10:28:44Z</time>
      </trkpt>
      <trkpt lat="45.026490" lon="-0.437270">
        <time>2017-06-24T10:28:45Z</time>
      </trkpt>
      <trkpt lat="45.026730" lon="-0.437400">
        <time>2017-06-24T10:28:46Z</time>
      </trkpt>
      <trkpt lat="45.026980" lon="-0.437520">
        <time>2017-06-24T10:28:47Z</time>
      </trkpt>
      <trkpt lat="45.027220" lon="-0.437640">
        <time>2017-06-24T10:28:48Z</time>
      </trkpt>
      <trkpt lat="45.027470" lon="-0.437780">
        <time>2017-06-24T10:28:49Z</time>
      </trkpt>
      <trkpt lat="45.027730" lon="-0.437930">
        <time>2017-06-24T10:28:50Z</time>
      </trkpt>
      <trkpt lat="45.027990" lon="-0.438100">
        <time>2017-06-24T10:28:51Z</time>
      </trkpt>
      <trkpt lat="45.028280" lon="-0.438280">
        <time>2017-06-24T10:28:52Z</time>
      </trkpt>
      <trkpt lat="45.028540" lon="-0.438450">
        <time>2017-06-24T10:28:53Z</time>
      </trkpt>
      <trkpt lat="45.028830" lon="-0.438620">
        <time>2017-06-24T10:28:54Z</time>
      </trkpt>
      <trkpt lat="45.029130" lon="-0.438790">
        <time>2017-06-24T10:28:55Z</time>
      </trkpt>
      <trkpt lat="45.029390" lon="-0.438960">
        <time>2017-06-24T10:28:56Z</time>
      </trkpt>
      <trkpt lat="45.029670" lon="-0.439140">
        <time>2017-06-24T10:28:57Z</time>
      </trkpt>
      <trkpt lat="45.029970" lon="-0.439320">
        <time>2017-06-24T10:28:58Z</time>
      </trkpt>
      <trkpt lat="45.030230" lon="-0.439490">
        <time>2017-06-24T10:28:59Z</time>
      </trkpt>
      <trkpt lat="45.030530" lon="-0.439670">
        <time>2017-06-24T10:29:00Z</time>
      </trkpt>
      <trkpt lat="45.030790" lon="-0.439840">
        <time>2017-06-24T10:29:01Z</time>
      </trkpt>
      <trkpt lat="45.031060" lon="-0.440010">
        <time>2017-06-24T10:29:02Z</time>
      </trkpt>
      <trkpt lat="45.031350" lon="-0.440190">
        <time>2017-06-24T10:29:03Z</time>
      </trkpt>
      <trkpt lat="45.031610" lon="-0.440340">
        <time>2017-06-24T10:29:04Z</time>
      </trkpt>
      <trkpt lat="45.031890" lon="-0.440520">
        <time>2017-06-24T10:29:05Z</time>
      </trkpt>
      <trkpt lat="45.032160" lon="-0.440700">
        <time>2017-06-24T10:29:06Z</time>
      </trkpt>
      <trkpt lat="45.032430" lon="-0.440880">
        <time>2017-06-24T10:29:07Z</time>
      </trkpt>
      <trkpt lat="45.032700" lon="-0.441060">
        <time>2017-06-24T10:29:08Z</time>
      </trkpt>
      <trkpt lat="45.032930" lon="-0.441210">
        <time>2017-06-24T10:29:09Z</time>
      </trkpt>
      <trkpt lat="45.033160" lon="-0.441370">
        <time>2017-06-24T10:29:10Z</time>
      </trkpt>
      <trkpt lat="45.033390" lon="-0.441530">
        <time>2017-06-24T10:29:11Z</time>
      </trkpt>
      <trkpt lat="45.033600" lon="-0.441680">
        <time>2017-06-24T10:29:12Z</time>
      </trkpt>
      <trkpt lat="45.033830" lon="-0.441840">
        <time>2017-06-24T10:29:13Z</time>
      </trkpt>
      <trkpt lat="45.034080" lon="-0.442010">
        <time>2017-06-24T10:29:14Z</time>
      </trkpt>
      <trkpt lat="45.034290" lon="-0.442160">
        <time>2017-06-24T10:29:15Z</time>
      </trkpt>
      <trkpt lat="45.034550" lon="-0.442330">
        <time>2017-06-24T10:29:16Z</time>
      </trkpt>
      <trkpt lat="45.034770" lon="-0.442490">
        <time>2017-06-24T10:29:17Z</time>
      </trkpt>
      <trkpt lat="45.035010" lon="-0.442660">
        <time>2017-06-24T10:29:18Z</time>
      </trkpt>
      <trkpt lat="45.035260" lon="-0.442840">
        <time>2017-06-24T10:29:19Z</time>
      </trkpt>
      <trkpt lat="45.035480" lon="-0.443010">
        <time>2017-06-24T10:29:20Z</time>
      </trkpt>
      <trkpt lat="45.035720" lon="-0.443190">
        <time>2017-06-24T10:29:21Z</time>
      </trkpt>
      <trkpt lat="45.035960" lon="-0.443370">
        <time>2017-06-24T10:29:22Z</time>
      </trkpt>
      <trkpt lat="45.036210" lon="-0.443560">
        <time>2017-06-24T10:29:23Z</time>
      </trkpt>
      <trkpt lat="45.036480" lon="-0.443750">
        <time>2017-06-24T10:29:24Z</time>
      </trkpt>
      <trkpt lat="45.036720" lon="-0.443910">
        <time>2017-06-24T10:29:25Z</time>
      </trkpt>
      <trkpt lat="45.036980" lon="-0.444090">
        <time>2017-06-24T10:29:26Z</time>
      </trkpt>
      <trkpt lat="45.037260" lon="-0.444290">
        <time>2017-06-24T10:29:27Z</time>
      </trkpt>
      <trkpt lat="45.037510" lon="-0.444460">
        <time>2017-06-24T10:29:28Z</time>
      </trkpt>
      <trkpt lat="45.037780" lon="-0.444630">
        <time>2017-06-24T10:29:29Z</time>
      </trkpt>
      <trkpt lat="45.038070" lon="-0.444810">
        <time>2017-06-24T10:29:30Z</time>
      </trkpt>
      <trkpt lat="45.038320" lon="-0.444980">
        <time>2017-06-24T10:29:31Z</time>
      </trkpt>
      <trkpt lat="45.038600" lon="-0.445160">
        <time>2017-06-24T10:29:32Z</time>
      </trkpt>
      <trkpt lat="45.038860" lon="-0.445340">
        <time>2017-06-24T10:29:33Z</time>
      </trkpt>
      <trkpt lat="45.039120" lon="-0.445520">
        <time>2017-06-24T10:29:34Z</time>
      </trkpt>
      <trkpt lat="45.039410" lon="-0.445720">
        <time>2017-06-24T10:29:35Z</time>
      </trkpt>
      <trkpt lat="45.039660" lon="-0.445890">
        <time>2017-06-24T10:29:36Z</time>
      </trkpt>
      <trkpt lat="45.039930" lon="-0.446080">
        <time>2017-06-24T10:29:37Z</time>
      </trkpt>
      <trkpt lat="45.040200" lon="-0.446270">
        <time>2017-06-24T10:29:38Z</time>
      </trkpt>
      <trkpt lat="45.040480" lon="-0.446450">
        <time>2017-06-24T10:29:39Z</time>
      </trkpt>
      <trkpt lat="45.040760" lon="-0.446640">
        <time>2017-06-24T10:29:40Z</time>
      </trkpt>
      <trkpt lat="45.041020" lon="-0.446810">
        <time>2017-06-24T10:29:41Z</time>
      </trkpt>
      <trkpt lat="45.041280" lon="-0.446980">
        <time>2017-06-24T10:29:42Z</time>
      </trkpt>
      <trkpt lat="45.041570" lon="-0.447170">
        <time>2017-06-24T10:29:43Z</time>
      </trkpt>
      <trkpt lat="45.041820" lon="-0.447330">
        <time>2017-06-24T10:29:44Z</time>
      </trkpt>
      <trkpt lat="45.042090" lon="-0.447500">
        <time>2017-06-24T10:29:45Z</time>
      </trkpt>
      <trkpt lat="45.042370" lon="-0.447690">
        <time>2017-06-24T10:29:46Z</time>
      </trkpt>
      <trkpt lat="45.042620" lon="-0.447840">
        <time>2017-06-24T10:29:47Z</time>
      </trkpt>
      <trkpt lat="45.042910" lon="-0.448020">
        <time>2017-06-24T10:29:48Z</time>
      </trkpt>
      <trkpt lat="45.043160" lon="-0.448170">
        <time>2017-06-24T10:29:49Z</time>
      </trkpt>
      <trkpt lat="45.043430" lon="-0.448330">
        <time>2017-06-24T10:29:50Z</time>
      </trkpt>
      <trkpt lat="45.043720" lon="-0.448500">
        <time>2017-06-24T10:29:51Z</time>
      </trkpt>
      <trkpt lat="45.043970" lon="-0.448640">
        <time>2017-06-24T10:29:52Z</time>
      </trkpt>
      <trkpt lat="45.044240" lon="-0.448800">
        <time>2017-06-24T10:29:53Z</time>
      </trkpt>
      <trkpt lat="45.044510" lon="-0.448950">
        <time>2017-06-24T10:29:54Z</time>
      </trkpt>
      <trkpt lat="45.044780" lon="-0.449110">
        <time>2017-06-24T10:29:55Z</time>
      </trkpt>
      <trkpt lat="45.045060" lon="-0.449270">
        <time>2017-06-24T10:29:56Z</time>
      </trkpt>
      <trkpt lat="45.045320" lon="-0.449410">
        <time>2017-06-24T10:29:57Z</time>
      </trkpt>
      <trkpt lat="45.045590" lon="-0.449550">
        <time>2017-06-24T10:29:58Z</time>
      </trkpt>
      <trkpt lat="45.045880" lon="-0.449710">
        <time>2017-06-24T10:29:59Z</time>
      </trkpt>
      <trkpt lat="45.046130" lon="-0.449840">
        <time>2017-06-24T10:30:00Z</time>
      </trkpt>
      <trkpt lat="45.046400" lon="-0.449990">
        <time>2017-06-24T10:30:01Z</time>
      </trkpt>
      <trkpt lat="45.046690" lon="-0.450140">
        <time>2017-06-24T10:30:02Z</time>
      </trkpt>
      <trkpt lat="45.046930" lon="-0.450270">
        <time>2017-06-24T10:30:03Z</time>
      </trkpt>
      <trkpt lat="45.047220" lon="-0.450410">
        <time>2017-06-24T10:30:04Z</time>
      </trkpt>
      <trkpt lat="45.047460" lon="-0.450540">
        <time>2017-06-24T10:30:05Z</time>
      </trkpt>
      <trkpt lat="45.047720" lon="-0.450680">
        <time>2017-06-24T10:30:06Z</time>
      </trkpt>
      <trkpt lat="45.047990" lon="-0.450820">
        <time>2017-06-24T10:30:07Z</time>
      </trkpt>
      <trkpt lat="45.048230" lon="-0.450940">
        <time>2017-06-24T10:30:08Z</time>
      </trkpt>
      <trkpt lat="45.048470" lon="-0.451070">
        <time>2017-06-24T10:30:09Z</time>
      </trkpt>
      <trkpt lat="45.048710" lon="-0.451200">
        <time>2017-06-24T10:30:10Z</time>
      </trkpt>
      <trkpt lat="45.048960" lon="-0.451320">
        <time>2017-06-24T10:30:11Z</time>
      </trkpt>
      <trkpt lat="45.049220" lon="-0.451460">
        <time>2017-06-24T10:30:12Z</time>
      </trkpt>
      <trkpt lat="45.049440" lon="-0.451580">
        <time>2017-06-24T10:30:13Z</time>
      </trkpt>
      <trkpt lat="45.049690" lon="-0.451710">
        <time>2017-06-24T10:30:14Z</time>
      </trkpt>
      <trkpt lat="45.049940" lon="-0.451830">
        <time>2017-06-24T10:30:15Z</time>
      </trkpt>
      <trkpt lat="45.050170" lon="-0.451950">
        <time>2017-06-24T10:30:16Z</time>
      </trkpt>
      <trkpt lat="45.050400" lon="-0.452070">
        <time>2017-06-24T10:30:17Z</time>
      </trkpt>
      <trkpt lat="45.050650" lon="-0.452200">
        <time>2017-06-24T10:30:18Z</time>
      </trkpt>
      <trkpt lat="45.050870" lon="-0.452320">
        <time>2017-06-24T10:30:19Z</time>
      </trkpt>
      <trkpt lat="45.051120" lon="-0.452450">
        <time>2017-06-24T10:30:20Z</time>
      </trkpt>
      <trkpt lat="45.051340" lon="-0.452560">
        <time>2017-06-24T10:30:21Z</time>
      </trkpt>
      <trkpt lat="45.051580" lon="-0.452690">
        <time>2017-06-24T10:30:22Z</time>
      </trkpt>
      <trkpt lat="45.051820" lon="-0.452820">
        <time>2017-06-24T10:30:23Z</time>
      </trkpt>
      <trkpt lat="45.052040" lon="-0.452940">
        <time>2017-06-24T10:30:24Z</time>
      </trkpt>
      <trkpt lat="45.052270" lon="-0.453060">
        <time>2017-06-24T10:30:25Z</time>
      </trkpt>
      <trkpt lat="45.052500" lon="-0.453180">
        <time>2017-06-24T10:30:26Z</time>
      </trkpt>
      <trkpt lat="45.052740" lon="-0.453300">
        <time>2017-06-24T10:30:27Z</time>
      </trkpt>
      <trkpt lat="45.052990" lon="-0.453430">
        <time>2017-06-24T10:30:28Z</time>
      </trkpt>
      <trkpt lat="45.053210" lon="-0.453550">
        <time>2017-06-24T10:30:29Z</time>
      </trkpt>
      <trkpt lat="45.053450" lon="-0.453670">
        <time>2017-06-24T10:30:30Z</time>
      </trkpt>
      <trkpt lat="45.053690" lon="-0.453800">
        <time>2017-06-24T10:30:31Z</time>
      </trkpt>
      <trkpt lat="45.053890" lon="-0.453900">
        <time>2017-06-24T10:30:32Z</time>
      </trkpt>
      <trkpt lat="45.054120" lon="-0.454020">
        <time>2017-06-24T10:30:33Z</time>
      </trkpt>
      <trkpt lat="45.054360" lon="-0.454140">
        <time>2017-06-24T10:30:34Z</time>
      </trkpt>
      <trkpt lat="45.054560" lon="-0.454250">
        <time>2017-06-24T10:30:35Z</time>
      </trkpt>
      <trkpt lat="45.054790" lon="-0.454370">
        <time>2017-06-24T10:30:36Z</time>
      </trkpt>
      <trkpt lat="45.054990" lon="-0.454480">
        <time>2017-06-24T10:30:37Z</time>
      </trkpt>
      <trkpt lat="45.055200" lon="-0.454590">
        <time>2017-06-24T10:30:38Z</time>
      </trkpt>
      <trkpt lat="45.055430" lon="-0.454710">
        <time>2017-06-24T10:30:39Z</time>
      </trkpt>
      <trkpt lat="45.055640" lon="-0.454820">
        <time>2017-06-24T10:30:40Z</time>
      </trkpt>
      <trkpt lat="45.055870" lon="-0.454940">
        <time>2017-06-24T10:30:41Z</time>
      </trkpt>
      <trkpt lat="45.056090" lon="-0.455060">
        <time>2017-06-24T10:30:42Z</time>
      </trkpt>
      <trkpt lat="45.056310" lon="-0.455180">
        <time>2017-06-24T10:30:43Z</time>
      </trkpt>
      <trkpt lat="45.056540" lon="-0.455290">
        <time>2017-06-24T10:30:44Z</time>
      </trkpt>
      <trkpt lat="45.056740" lon="-0.455390">
        <time>2017-06-24T10:30:45Z</time>
      </trkpt>
      <trkpt lat="45.056940" lon="-0.455500">
        <time>2017-06-24T10:30:46Z</time>
      </trkpt>
      <trkpt lat="45.057140" lon="-0.455620">
        <time>2017-06-24T10:30:47Z</time>
      </trkpt>
      <trkpt lat="45.057320" lon="-0.455720">
        <time>2017-06-24T10:30:48Z</time>
      </trkpt>
      <trkpt lat="45.057510" lon="-0.455830">
        <time>2017-06-24T10:30:49Z</time>
      </trkpt>
      <trkpt lat="45.057730" lon="-0.455950">
        <time>2017-06-24T10:30:50Z</time>
      </trkpt>
      <trkpt lat="45.057930" lon="-0.456060">
        <time>2017-06-24T10:30:51Z</time>
      </trkpt>
      <trkpt lat="45.058150" lon="-0.456190">
        <time>2017-06-24T10:30:52Z</time>
      </trkpt>
      <trkpt lat="45.058360" lon="-0.456300">
        <time>2017-06-24T10:30:53Z</time>
      </trkpt>
      <trkpt lat="45.058590" lon="-0.456420">
        <time>2017-06-24T10:30:54Z</time>
      </trkpt>
      <trkpt lat="45.058830" lon="-0.456570">
        <time>2017-06-24T10:30:55Z</time>
      </trkpt>
      <trkpt lat="45.059020" lon="-0.456700">
        <time>2017-06-24T10:30:56Z</time>
      </trkpt>
      <trkpt lat="45.059250" lon="-0.456840">
        <time>2017-06-24T10:30:57Z</time>
      </trkpt>
      <trkpt lat="45.059480" lon="-0.456980">
        <time>2017-06-24T10:30:58Z</time>
      </trkpt>
      <trkpt lat="45.059710" lon="-0.457130">
        <time>2017-06-24T10:30:59Z</time>
      </trkpt>
      <trkpt lat="45.059950" lon="-0.457280">
        <time>2017-06-24T10:31:00Z</time>
      </trkpt>
      <trkpt lat="45.060150" lon="-0.457410">
        <time>2017-06-24T10:31:01Z</time>
      </trkpt>
      <trkpt lat="45.060370" lon="-0.457550">
        <time>2017-06-24T10:31:02Z</time>
      </trkpt>
      <trkpt lat="45.060610" lon="-0.457700">
        <time>2017-06-24T10:31:03Z</time>
      </trkpt>
      <trkpt lat="45.060820" lon="-0.457820">
        <time>2017-06-24T10:31:04Z</time>
      </trkpt>
      <trkpt lat="45.061040" lon="-0.457970">
        <time>2017-06-24T10:31:05Z</time>
      </trkpt>
      <trkpt lat="45.061270" lon="-0.458110">
        <time>2017-06-24T10:31:06Z</time>
      </trkpt>
      <trkpt lat="45.061480" lon="-0.458250">
        <time>2017-06-24T10:31:07Z</time>
      </trkpt>
      <trkpt lat="45.061710" lon="-0.458400">
        <time>2017-06-24T10:31:08Z</time>
      </trkpt>
      <trkpt lat="45.061900" lon="-0.458530">
        <time>2017-06-24T10:31:09Z</time>
      </trkpt>
      <trkpt lat="45.062110" lon="-0.458680">
        <time>2017-06-24T10:31:10Z</time>
      </trkpt>
      <trkpt lat="45.062340" lon="-0.458830">
        <time>2017-06-24T10:31:11Z</time>
      </trkpt>
      <trkpt lat="45.062540" lon="-0.458970">
        <time>2017-06-24T10:31:12Z</time>
      </trkpt>
      <trkpt lat="45.062750" lon="-0.459110">
        <time>2017-06-24T10:31:13Z</time>
      </trkpt>
      <trkpt lat="45.062950" lon="-0.459250">
        <time>2017-06-24T10:31:14Z</time>
      </trkpt>
      <trkpt lat="45.063140" lon="-0.459390">
        <time>2017-06-24T10:31:15Z</time>
      </trkpt>
      <trkpt lat="45.063350" lon="-0.459530">
        <time>2017-06-24T10:31:16Z</time>
      </trkpt>
      <trkpt lat="45.063540" lon="-0.459670">
        <time>2017-06-24T10:31:17Z</time>
      </trkpt>
      <trkpt lat="45.063750" lon="-0.459820">
        <time>2017-06-24T10:31:18Z</time>
      </trkpt>
      <trkpt lat="45.063980" lon="-0.459980">
        <time>2017-06-24T10:31:19Z</time>
      </trkpt>
      <trkpt lat="45.064190" lon="-0.460120">
        <time>2017-06-24T10:31:20Z</time>
      </trkpt>
      <trkpt lat="45.064400" lon="-0.460270">
        <time>2017-06-24T10:31:21Z</time>
      </trkpt>
      <trkpt lat="45.064630" lon="-0.460430">
        <time>2017-06-24T10:31:22Z</time>
      </trkpt>
      <trkpt lat="45.064830" lon="-0.460570">
        <time>2017-06-24T10:31:23Z</time>
      </trkpt>
      <trkpt lat="45.065060" lon="-0.460730">
        <time>2017-06-24T10:31:24Z</time>
      </trkpt>
      <trkpt lat="45.065270" lon="-0.460870">
        <time>2017-06-24T10:31:25Z</time>
      </trkpt>
      <trkpt lat="45.065490" lon="-0.461030">
        <time>2017-06-24T10:31:26Z</time>
      </trkpt>
      <trkpt lat="45.065730" lon="-0.461190">
        <time>2017-06-24T10:31:27Z</time>
      </trkpt>
      <trkpt lat="45.065940" lon="-0.461340">
        <time>2017-06-24T10:31:28Z</time>
      </trkpt>
      <trkpt lat="45.066160" lon="-0.461490">
        <time>2017-06-24T10:31:29Z</time>
      </trkpt>
      <trkpt lat="45.066380" lon="-0.461650">
        <time>2017-06-24T10:31:30Z</time>
      </trkpt>
      <trkpt lat="45.066600" lon="-0.461800">
        <time>2017-06-24T10:31:31Z</time>
      </trkpt>
      <trkpt lat="45.066830" lon="-0.461950">
        <time>2017-06-24T10:31:32Z</time>
      </trkpt>
      <trkpt lat="45.067020" lon="-0.462080">
        <time>2017-06-24T10:31:33Z</time>
      </trkpt>
      <trkpt lat="45.067230" lon="-0.462230">
        <time>2017-06-24T10:31:34Z</time>
      </trkpt>
      <trkpt lat="45.067450" lon="-0.462390">
        <time>2017-06-24T10:31:35Z</time>
      </trkpt>
      <trkpt lat="45.067640" lon="-0.462530">
        <time>2017-06-24T10:31:36Z</time>
      </trkpt>
      <trkpt lat="45.067860" lon="-0.462680">
        <time>2017-06-24T10:31:37Z</time>
      </trkpt>
      <trkpt lat="45.068100" lon="-0.462860">
        <time>2017-06-24T10:31:38Z</time>
      </trkpt>
      <trkpt lat="45.068320" lon="-0.463030">
        <time>2017-06-24T10:31:39Z</time>
      </trkpt>
      <trkpt lat="45.068590" lon="-0.463230">
        <time>2017-06-24T10:31:40Z</time>
      </trkpt>
      <trkpt lat="45.068830" lon="-0.463400">
        <time>2017-06-24T10:31:41Z</time>
      </trkpt>
      <trkpt lat="45.069100" lon="-0.463580">
        <time>2017-06-24T10:31:42Z</time>
      </trkpt>
      <trkpt lat="45.069380" lon="-0.463770">
        <time>2017-06-24T10:31:43Z</time>
      </trkpt>
      <trkpt lat="45.069630" lon="-0.463920">
        <time>2017-06-24T10:31:44Z</time>
      </trkpt>
      <trkpt lat="45.069890" lon="-0.464090">
        <time>2017-06-24T10:31:45Z</time>
      </trkpt>
      <trkpt lat="45.070150" lon="-0.464260">
        <time>2017-06-24T10:31:46Z</time>
      </trkpt>
      <trkpt lat="45.070410" lon="-0.464430">
        <time>2017-06-24T10:31:47Z</time>
      </trkpt>
      <trkpt lat="45.070680" lon="-0.464600">
        <time>2017-06-24T10:31:48Z</time>
      </trkpt>
      <trkpt lat="45.070930" lon="-0.464750">
        <time>2017-06-24T10:31:49Z</time>
      </trkpt>
      <trkpt lat="45.071190" lon="-0.464900">
        <time>2017-06-24T10:31:50Z</time>
      </trkpt>
      <trkpt lat="45.071470" lon="-0.465080">
        <time>2017-06-24T10:31:51Z</time>
      </trkpt>
      <trkpt lat="45.071730" lon="-0.465220">
        <time>2017-06-24T10:31:52Z</time>
      </trkpt>
      <trkpt lat="45.072000" lon="-0.465380">
        <time>2017-06-24T10:31:53Z</time>
      </trkpt>
      <trkpt lat="45.072290" lon="-0.465540">
        <time>2017-06-24T10:31:54Z</time>
      </trkpt>
      <trkpt lat="45.072550" lon="-0.465680">
        <time>2017-06-24T10:31:55Z</time>
      </trkpt>
      <trkpt lat="45.072840" lon="-0.465840">
        <time>2017-06-24T10:31:56Z</time>
      </trkpt>
      <trkpt lat="45.073100" lon="-0.465980">
        <time>2017-06-24T10:31:57Z</time>
      </trkpt>
      <trkpt lat="45.073380" lon="-0.466120">
        <time>2017-06-24T10:31:58Z</time>
      </trkpt>
      <trkpt lat="45.073680" lon="-0.466270">
        <time>2017-06-24T10:31:59Z</time>
      </trkpt>
      <trkpt lat="45.073950" lon="-0.466400">
        <time>2017-06-24T10:32:00Z</time>
      </trkpt>
      <trkpt lat="45.074230" lon="-0.466530">
        <time>2017-06-24T10:32:01Z</time>
      </trkpt>
      <trkpt lat="45.074520" lon="-0.466660">
        <time>2017-06-24T10:32:02Z</time>
      </trkpt>
      <trkpt lat="45.074800" lon="-0.466790">
        <time>2017-06-24T10:32:03Z</time>
      </trkpt>
      <trkpt lat="45.075110" lon="-0.466920">
        <time>2017-06-24T10:32:04Z</time>
      </trkpt>
      <trkpt lat="45.075390" lon="-0.467030">
        <time>2017-06-24T10:32:05Z</time>
      </trkpt>
      <trkpt lat="45.075680" lon="-0.467150">
        <time>2017-06-24T10:32:06Z</time>
      </trkpt>
      <trkpt lat="45.075990" lon="-0.467280">
        <time>2017-06-24T10:32:07Z</time>
      </trkpt>
      <trkpt lat="45.076260" lon="-0.467390">
        <time>2017-06-24T10:32:08Z</time>
      </trkpt>
      <trkpt lat="45.076550" lon="-0.467480">
        <time>2017-06-24T10:32:09Z</time>
      </trkpt>
      <trkpt lat="45.076860" lon="-0.467580">
        <time>2017-06-24T10:32:10Z</time>
      </trkpt>
      <trkpt lat="45.077140" lon="-0.467660">
        <time>2017-06-24T10:32:11Z</time>
      </trkpt>
      <trkpt lat="45.077450" lon="-0.467760">
        <time>2017-06-24T10:32:12Z</time>
      </trkpt>
      <trkpt lat="45.077720" lon="-0.467850">
        <time>2017-06-24T10:32:13Z</time>
      </trkpt>
      <trkpt lat="45.078010" lon="-0.467950">
        <time>2017-06-24T10:32:14Z</time>
      </trkpt>
      <trkpt lat="45.078330" lon="-0.468050">
        <time>2017-06-24T10:32:15Z</time>
      </trkpt>
      <trkpt lat="45.078610" lon="-0.468150">
        <time>2017-06-24T10:32:16Z</time>
      </trkpt>
      <trkpt lat="45.078920" lon="-0.468260">
        <time>2017-06-24T10:32:17Z</time>
      </trkpt>
      <trkpt lat="45.079230" lon="-0.468360">
        <time>2017-06-24T10:32:18Z</time>
      </trkpt>
      <trkpt lat="45.079540" lon="-0.468450">
        <time>2017-06-24T10:32:19Z</time>
      </trkpt>
      <trkpt lat="45.079880" lon="-0.468550">
        <time>2017-06-24T10:32:20Z</time>
      </trkpt>
      <trkpt lat="45.080180" lon="-0.468640">
        <time>2017-06-24T10:32:21Z</time>
      </trkpt>
      <trkpt lat="45.080500" lon="-0.468730">
        <time>2017-06-24T10:32:22Z</time>
      </trkpt>
      <trkpt lat="45.080830" lon="-0.468810">
        <time>2017-06-24T10:32:23Z</time>
      </trkpt>
      <trkpt lat="45.081130" lon="-0.468870">
        <time>2017-06-24T10:32:24Z</time>
      </trkpt>
      <trkpt lat="45.081440" lon="-0.468940">
        <time>2017-06-24T10:32:25Z</time>
      </trkpt>
      <trkpt lat="45.081760" lon="-0.469020">
        <time>2017-06-24T10:32:26Z</time>
      </trkpt>
      <trkpt lat="45.082050" lon="-0.469090">
        <time>2017-06-24T10:32:27Z</time>
      </trkpt>
      <trkpt lat="45.082360" lon="-0.469170">
        <time>2017-06-24T10:32:28Z</time>
      </trkpt>
      <trkpt lat="45.082640" lon="-0.469240">
        <time>2017-06-24T10:32:29Z</time>
      </trkpt>
      <trkpt lat="45.082950" lon="-0.469310">
        <time>2017-06-24T10:32:30Z</time>
      </trkpt>
      <trkpt lat="45.083270" lon="-0.469410">
        <time>2017-06-24T10:32:31Z</time>
      </trkpt>
      <trkpt lat="45.083550" lon="-0.469480">
        <time>2017-06-24T10:32:32Z</time>
      </trkpt>
      <trkpt lat="45.083850" lon="-0.469570">
        <time>2017-06-24T10:32:33Z</time>
      </trkpt>
      <trkpt lat="45.084150" lon="-0.469650">
        <time>2017-06-24T10:32:34Z</time>
      </trkpt>
      <trkpt lat="45.084460" lon="-0.469730">
        <time>2017-06-24T10:32:35Z</time>
      </trkpt>
      <trkpt lat="45.084780" lon="-0.469820">
        <time>2017-06-24T10:32:36Z</time>
      </trkpt>
      <trkpt lat="45.085060" lon="-0.469890">
        <time>2017-06-24T10:32:37Z</time>
      </trkpt>
      <trkpt lat="45.085370" lon="-0.469980">
        <time>2017-06-24T10:32:38Z</time>
      </trkpt>
      <trkpt lat="45.085680" lon="-0.470080">
        <time>2017-06-24T10:32:39Z</time>
      </trkpt>
      <trkpt lat="45.085960" lon="-0.470160">
        <time>2017-06-24T10:32:40Z</time>
      </trkpt>
      <trkpt lat="45.086260" lon="-0.470260">
        <time>2017-06-24T10:32:41Z</time>
      </trkpt>
      <trkpt lat="45.086580" lon="-0.470360">
        <time>2017-06-24T10:32:42Z</time>
      </trkpt>
      <trkpt lat="45.086860" lon="-0.470460">
        <time>2017-06-24T10:32:43Z</time>
      </trkpt>
      <trkpt lat="45.087170" lon="-0.470570">
        <time>2017-06-24T10:32:44Z</time>
      </trkpt>
      <trkpt lat="45.087450" lon="-0.470670">
        <time>2017-06-24T10:32:45Z</time>
      </trkpt>
      <trkpt lat="45.087740" lon="-0.470770">
        <time>2017-06-24T10:32:46Z</time>
      </trkpt>
      <trkpt lat="45.088060" lon="-0.470890">
        <time>2017-06-24T10:32:47Z</time>
      </trkpt>
      <trkpt lat="45.088330" lon="-0.471000">
        <time>2017-06-24T10:32:48Z</time>
      </trkpt>
      <trkpt lat="45.088610" lon="-0.471110">
        <time>2017-06-24T10:32:49Z</time>
      </trkpt>
      <trkpt lat="45.088890" lon="-0.471230">
        <time>2017-06-24T10:32:50Z</time>
      </trkpt>
      <trkpt lat="45.089170" lon="-0.471350">
        <time>2017-06-24T10:32:51Z</time>
      </trkpt>
      <trkpt lat="45.089470" lon="-0.471480">
        <time>2017-06-24T10:32:52Z</time>
      </trkpt>
      <trkpt lat="45.089730" lon="-0.471590">
        <time>2017-06-24T10:32:53Z</time>
      </trkpt>
      <trkpt lat="45.090010" lon="-0.471720">
        <time>2017-06-24T10:32:54Z</time>
      </trkpt>
      <trkpt lat="45.090300" lon="-0.471860">
        <time>2017-06-24T10:32:55Z</time>
      </trkpt>
      <trkpt lat="45.090560" lon="-0.471990">
        <time>2017-06-24T10:32:56Z</time>
      </trkpt>
      <trkpt lat="45.090830" lon="-0.472120">
        <time>2017-06-24T10:32:57Z</time>
      </trkpt>
      <trkpt lat="45.091130" lon="-0.472270">
        <time>2017-06-24T10:32:58Z</time>
      </trkpt>
      <trkpt lat="45.091380" lon="-0.472400">
        <time>2017-06-24T10:32:59Z</time>
      </trkpt>
      <trkpt lat="45.091670" lon="-0.472560">
        <time>2017-06-24T10:33:00Z</time>
      </trkpt>
      <trkpt lat="45.091930" lon="-0.472690">
        <time>2017-06-24T10:33:01Z</time>
      </trkpt>
      <trkpt lat="45.092200" lon="-0.472840">
        <time>2017-06-24T10:33:02Z</time>
      </trkpt>
      <trkpt lat="45.092490" lon="-0.473000">
        <time>2017-06-24T10:33:03Z</time>
      </trkpt>
      <trkpt lat="45.092740" lon="-0.473150">
        <time>2017-06-24T10:33:04Z</time>
      </trkpt>
      <trkpt lat="45.093020" lon="-0.473320">
        <time>2017-06-24T10:33:05Z</time>
      </trkpt>
      <trkpt lat="45.093280" lon="-0.473480">
        <time>2017-06-24T10:33:06Z</time>
      </trkpt>
      <trkpt lat="45.093550" lon="-0.473650">
        <time>2017-06-24T10:33:07Z</time>
      </trkpt>
      <trkpt lat="45.093840" lon="-0.473830">
        <time>2017-06-24T10:33:08Z</time>
      </trkpt>
      <trkpt lat="45.094090" lon="-0.473990">
        <time>2017-06-24T10:33:09Z</time>
      </trkpt>
      <trkpt lat="45.094360" lon="-0.474160">
        <time>2017-06-24T10:33:10Z</time>
      </trkpt>
      <trkpt lat="45.094650" lon="-0.474340">
        <time>2017-06-24T10:33:11Z</time>
      </trkpt>
      <trkpt lat="45.094900" lon="-0.474510">
        <time>2017-06-24T10:33:12Z</time>
      </trkpt>
      <trkpt lat="45.095160" lon="-0.474690">
        <time>2017-06-24T10:33:13Z</time>
      </trkpt>
      <trkpt lat="45.095440" lon="-0.474880">
        <time>2017-06-24T10:33:14Z</time>
      </trkpt>
      <trkpt lat="45.095680" lon="-0.475050">
        <time>2017-06-24T10:33:15Z</time>
      </trkpt>
      <trkpt lat="45.095970" lon="-0.475240">
        <time>2017-06-24T10:33:16Z</time>
      </trkpt>
      <trkpt lat="45.096210" lon="-0.475410">
        <time>2017-06-24T10:33:17Z</time>
      </trkpt>
      <trkpt lat="45.096470" lon="-0.475590">
        <time>2017-06-24T10:33:18Z</time>
      </trkpt>
      <trkpt lat="45.096750" lon="-0.475800">
        <time>2017-06-24T10:33:19Z</time>
      </trkpt>
      <trkpt lat="45.097000" lon="-0.475950">
        <time>2017-06-24T10:33:20Z</time>
      </trkpt>
      <trkpt lat="45.097250" lon="-0.476140">
        <time>2017-06-24T10:33:21Z</time>
      </trkpt>
      <trkpt lat="45.097510" lon="-0.476320">
        <time>2017-06-24T10:33:22Z</time>
      </trkpt>
      <trkpt lat="45.097770" lon="-0.476510">
        <time>2017-06-24T10:33:23Z</time>
      </trkpt>
      <trkpt lat="45.098040" lon="-0.476710">
        <time>2017-06-24T10:33:24Z</time>
      </trkpt>
      <trkpt lat="45.098280" lon="-0.476890">
        <time>2017-06-24T10:33:25Z</time>
      </trkpt>
      <trkpt lat="45.098540" lon="-0.477080">
        <time>2017-06-24T10:33:26Z</time>
      </trkpt>
      <trkpt lat="45.098810" lon="-0.477280">
        <time>2017-06-24T10:33:27Z</time>
      </trkpt>
      <trkpt lat="45.099060" lon="-0.477460">
        <time>2017-06-24T10:33:28Z</time>
      </trkpt>
      <trkpt lat="45.099320" lon="-0.477650">
        <time>2017-06-24T10:33:29Z</time>
      </trkpt>
      <trkpt lat="45.099600" lon="-0.477850">
        <time>2017-06-24T10:33:30Z</time>
      </trkpt>
      <trkpt lat="45.099850" lon="-0.478020">
        <time>2017-06-24T10:33:31Z</time>
      </trkpt>
      <trkpt lat="45.100130" lon="-0.478220">
        <time>2017-06-24T10:33:32Z</time>
      </trkpt>
      <trkpt lat="45.100390" lon="-0.478400">
        <time>2017-06-24T10:33:33Z</time>
      </trkpt>
      <trkpt lat="45.100650" lon="-0.478590">
        <time>2017-06-24T10:33:34Z</time>
      </trkpt>
      <trkpt lat="45.100940" lon="-0.478790">
        <time>2017-06-24T10:33:35Z</time>
      </trkpt>
      <trkpt lat="45.101200" lon="-0.478960">
        <time>2017-06-24T10:33:36Z</time>
      </trkpt>
      <trkpt lat="45.101470" lon="-0.479140">
        <time>2017-06-24T10:33:37Z</time>
      </trkpt>
      <trkpt lat="45.101740" lon="-0.479320">
        <time>2017-06-24T10:33:38Z</time>
      </trkpt>
      <trkpt lat="45.102010" lon="-0.479500">
        <time>2017-06-24T10:33:39Z</time>
      </trkpt>
      <trkpt lat="45.102290" lon="-0.479690">
        <time>2017-06-24T10:33:40Z</time>
      </trkpt>
      <trkpt lat="45.102540" lon="-0.479850">
        <time>2017-06-24T10:33:41Z</time>
      </trkpt>
      <trkpt lat="45.102810" lon="-0.480030">
        <time>2017-06-24T10:33:42Z</time>
      </trkpt>
      <trkpt lat="45.103100" lon="-0.480210">
        <time>2017-06-24T10:33:43Z</time>
      </trkpt>
      <trkpt lat="45.103360" lon="-0.480360">
        <time>2017-06-24T10:33:44Z</time>
      </trkpt>
      <trkpt lat="45.103630" lon="-0.480530">
        <time>2017-06-24T10:33:45Z</time>
      </trkpt>
      <trkpt lat="45.103930" lon="-0.480700">
        <time>2017-06-24T10:33:46Z</time>
      </trkpt>
      <trkpt lat="45.104180" lon="-0.480850">
        <time>2017-06-24T10:33:47Z</time>
      </trkpt>
      <trkpt lat="45.104470" lon="-0.481010">
        <time>2017-06-24T10:33:48Z</time>
      </trkpt>
      <trkpt lat="45.104730" lon="-0.481160">
        <time>2017-06-24T10:33:49Z</time>
      </trkpt>
      <trkpt lat="45.105000" lon="-0.481310">
        <time>2017-06-24T10:33:50Z</time>
      </trkpt>
      <trkpt lat="45.105300" lon="-0.481470">
        <time>2017-06-24T10:33:51Z</time>
      </trkpt>
      <trkpt lat="45.105560" lon="-0.481610">
        <time>2017-06-24T10:33:52Z</time>
      </trkpt>
      <trkpt lat="45.105830" lon="-0.481750">
        <time>2017-06-24T10:33:53Z</time>
      </trkpt>
      <trkpt lat="45.106100" lon="-0.481890">
        <time>2017-06-24T10:33:54Z</time>
      </trkpt>
      <trkpt lat="45.106380" lon="-0.482030">
        <time>2017-06-24T10:33:55Z</time>
      </trkpt>
      <trkpt lat="45.106670" lon="-0.482170">
        <time>2017-06-24T10:33:56Z</time>
      </trkpt>
      <trkpt lat="45.106910" lon="-0.482290">
        <time>2017-06-24T10:33:57Z</time>
      </trkpt>
      <trkpt lat="45.107190" lon="-0.482420">
        <time>2017-06-24T10:33:58Z</time>
      </trkpt>
      <trkpt lat="45.107480" lon="-0.482560">
        <time>2017-06-24T10:33:59Z</time>
      </trkpt>
      <trkpt lat="45.107740" lon="-0.482670">
        <time>2017-06-24T10:34:00Z</time>
      </trkpt>
      <trkpt lat="45.108010" lon="-0.482790">
        <time>2017-06-24T10:34:01Z</time>
      </trkpt>
      <trkpt lat="45.108300" lon="-0.482920">
        <time>2017-06-24T10:34:02Z</time>
      </trkpt>
      <trkpt lat="45.108560" lon="-0.483020">
        <time>2017-06-24T10:34:03Z</time>
      </trkpt>
      <trkpt lat="45.108850" lon="-0.483150">
        <time>2017-06-24T10:34:04Z</time>
      </trkpt>
      <trkpt lat="45.109110" lon="-0.483250">
        <time>2017-06-24T10:34:05Z</time>
      </trkpt>
      <trkpt lat="45.109380" lon="-0.483360">
        <time>2017-06-24T10:34:06Z</time>
      </trkpt>
      <trkpt lat="45.109680" lon="-0.483480">
        <time>2017-06-24T10:34:07Z</time>
      </trkpt>
      <trkpt lat="45.109950" lon="-0.483580">
        <time>2017-06-24T10:34:08Z</time>
      </trkpt>
      <trkpt lat="45.110230" lon="-0.483690">
        <time>2017-06-24T10:34:09Z</time>
      </trkpt>
      <trkpt lat="45.110510" lon="-0.483790">
        <time>2017-06-24T10:34:10Z</time>
      </trkpt>
      <trkpt lat="45.110800" lon="-0.483890">
        <time>2017-06-24T10:34:11Z</time>
      </trkpt>
      <trkpt lat="45.111110" lon="-0.483990">
        <time>2017-06-24T10:34:12Z</time>
      </trkpt>
      <trkpt lat="45.111390" lon="-0.484080">
        <time>2017-06-24T10:34:13Z</time>
      </trkpt>
      <trkpt lat="45.111680" lon="-0.484180">
        <time>2017-06-24T10:34:14Z</time>
      </trkpt>
      <trkpt lat="45.112000" lon="-0.484270">
        <time>2017-06-24T10:34:15Z</time>
      </trkpt>
      <trkpt lat="45.112270" lon="-0.484350">
        <time>2017-06-24T10:34:16Z</time>
      </trkpt>
      <trkpt lat="45.112560" lon="-0.484440">
        <time>2017-06-24T10:34:17Z</time>
      </trkpt>
      <trkpt lat="45.112860" lon="-0.484530">
        <time>2017-06-24T10:34:18Z</time>
      </trkpt>
      <trkpt lat="45.113140" lon="-0.484600">
        <time>2017-06-24T10:34:19Z</time>
      </trkpt>
      <trkpt lat="45.113440" lon="-0.484680">
        <time>2017-06-24T10:34:20Z</time>
      </trkpt>
      <trkpt lat="45.113700" lon="-0.484750">
        <time>2017-06-24T10:34:21Z</time>
      </trkpt>
      <trkpt lat="45.113990" lon="-0.484820">
        <time>2017-06-24T10:34:22Z</time>
      </trkpt>
      <trkpt lat="45.114300" lon="-0.484900">
        <time>2017-06-24T10:34:23Z</time>
      </trkpt>
      <trkpt lat="45.114570" lon="-0.484960">
        <time>2017-06-24T10:34:24Z</time>
      </trkpt>
      <trkpt lat="45.114860" lon="-0.485020">
        <time>2017-06-24T10:34:25Z</time>
      </trkpt>
      <trkpt lat="45.115140" lon="-0.485090">
        <time>2017-06-24T10:34:26Z</time>
      </trkpt>
      <trkpt lat="45.115430" lon="-0.485150">
        <time>2017-06-24T10:34:27Z</time>
      </trkpt>
      <trkpt lat="45.115740" lon="-0.485200">
        <time>2017-06-24T10:34:28Z</time>
      </trkpt>
      <trkpt lat="45.116000" lon="-0.485240">
        <time>2017-06-24T10:34:29Z</time>
      </trkpt>
      <trkpt lat="45.116290" lon="-0.485290">
        <time>2017-06-24T10:34:30Z</time>
      </trkpt>
      <trkpt lat="45.116580" lon="-0.485340">
        <time>2017-06-24T10:34:31Z</time>
      </trkpt>
      <trkpt lat="45.116850" lon="-0.485380">
        <time>2017-06-24T10:34:32Z</time>
      </trkpt>
      <trkpt lat="45.117130" lon="-0.485430">
        <time>2017-06-24T10:34:33Z</time>
      </trkpt>
      <trkpt lat="45.117430" lon="-0.485470">
        <time>2017-06-24T10:34:34Z</time>
      </trkpt>
      <trkpt lat="45.117690" lon="-0.485500">
        <time>2017-06-24T10:34:35Z</time>
      </trkpt>
      <trkpt lat="45.117980" lon="-0.485540">
        <time>2017-06-24T10:34:36Z</time>
      </trkpt>
      <trkpt lat="45.118220" lon="-0.485570">
        <time>2017-06-24T10:34:37Z</time>
      </trkpt>
      <trkpt lat="45.118480" lon="-0.485590">
        <time>2017-06-24T10:34:38Z</time>
      </trkpt>
      <trkpt lat="45.118770" lon="-0.485620">
        <time>2017-06-24T10:34:39Z</time>
      </trkpt>
      <trkpt lat="45.119020" lon="-0.485640">
        <time>2017-06-24T10:34:40Z</time>
      </trkpt>
      <trkpt lat="45.119280" lon="-0.485660">
        <time>2017-06-24T10:34:41Z</time>
      </trkpt>
      <trkpt lat="45.119550" lon="-0.485680">
        <time>2017-06-24T10:34:42Z</time>
      </trkpt>
      <trkpt lat="45.119820" lon="-0.485700">
        <time>2017-06-24T10:34:43Z</time>
      </trkpt>
      <trkpt lat="45.120110" lon="-0.485720">
        <time>2017-06-24T10:34:44Z</time>
      </trkpt>
      <trkpt lat="45.120380" lon="-0.485740">
        <time>2017-06-24T10:34:45Z</time>
      </trkpt>
      <trkpt lat="45.120680" lon="-0.485770">
        <time>2017-06-24T10:34:46Z</time>
      </trkpt>
      <trkpt lat="45.120990" lon="-0.485790">
        <time>2017-06-24T10:34:47Z</time>
      </trkpt>
      <trkpt lat="45.121270" lon="-0.485810">
        <time>2017-06-24T10:34:48Z</time>
      </trkpt>
      <trkpt lat="45.121550" lon="-0.485820">
        <time>2017-06-24T10:34:49Z</time>
      </trkpt>
      <trkpt lat="45.121840" lon="-0.485830">
        <time>2017-06-24T10:34:50Z</time>
      </trkpt>
      <trkpt lat="45.122090" lon="-0.485830">
        <time>2017-06-24T10:34:51Z</time>
      </trkpt>
      <trkpt lat="45.122360" lon="-0.485830">
        <time>2017-06-24T10:34:52Z</time>
      </trkpt>
      <trkpt lat="45.122610" lon="-0.485820">
        <time>2017-06-24T10:34:53Z</time>
      </trkpt>
      <trkpt lat="45.122870" lon="-0.485810">
        <time>2017-06-24T10:34:54Z</time>
      </trkpt>
      <trkpt lat="45.123150" lon="-0.485800">
        <time>2017-06-24T10:34:55Z</time>
      </trkpt>
      <trkpt lat="45.123390" lon="-0.485790">
        <time>2017-06-24T10:34:56Z</time>
      </trkpt>
      <trkpt lat="45.123660" lon="-0.485780">
        <time>2017-06-24T10:34:57Z</time>
      </trkpt>
      <trkpt lat="45.123930" lon="-0.485760">
        <time>2017-06-24T10:34:58Z</time>
      </trkpt>
      <trkpt lat="45.124210" lon="-0.485750">
        <time>2017-06-24T10:34:59Z</time>
      </trkpt>
      <trkpt lat="45.124510" lon="-0.485730">
        <time>2017-06-24T10:35:00Z</time>
      </trkpt>
      <trkpt lat="45.124770" lon="-0.485700">
        <time>2017-06-24T10:35:01Z</time>
      </trkpt>
      <trkpt lat="45.125060" lon="-0.485680">
        <time>2017-06-24T10:35:02Z</time>
      </trkpt>
      <trkpt lat="45.125360" lon="-0.485650">
        <time>2017-06-24T10:35:03Z</time>
      </trkpt>
      <trkpt lat="45.125620" lon="-0.485610">
        <time>2017-06-24T10:35:04Z</time>
      </trkpt>
      <trkpt lat="45.125920" lon="-0.485580">
        <time>2017-06-24T10:35:05Z</time>
      </trkpt>
      <trkpt lat="45.126230" lon="-0.485540">
        <time>2017-06-24T10:35:06Z</time>
      </trkpt>
      <trkpt lat="45.126500" lon="-0.485510">
        <time>2017-06-24T10:35:07Z</time>
      </trkpt>
      <trkpt lat="45.126820" lon="-0.485470">
        <time>2017-06-24T10:35:08Z</time>
      </trkpt>
      <trkpt lat="45.127110" lon="-0.485430">
        <time>2017-06-24T10:35:09Z</time>
      </trkpt>
      <trkpt lat="45.127410" lon="-0.485380">
        <time>2017-06-24T10:35:10Z</time>
      </trkpt>
      <trkpt lat="45.127730" lon="-0.485320">
        <time>2017-06-24T10:35:11Z</time>
      </trkpt>
      <trkpt lat="45.128020" lon="-0.485280">
        <time>2017-06-24T10:35:12Z</time>
      </trkpt>
      <trkpt lat="45.128330" lon="-0.485230">
        <time>2017-06-24T10:35:13Z</time>
      </trkpt>
      <trkpt lat="45.128640" lon="-0.485160">
        <time>2017-06-24T10:35:14Z</time>
      </trkpt>
      <trkpt lat="45.128950" lon="-0.485110">
        <time>2017-06-24T10:35:15Z</time>
      </trkpt>
      <trkpt lat="45.129290" lon="-0.485030">
        <time>2017-06-24T10:35:16Z</time>
      </trkpt>
      <trkpt lat="45.129580" lon="-0.484950">
        <time>2017-06-24T10:35:17Z</time>
      </trkpt>
      <trkpt lat="45.129900" lon="-0.484860">
        <time>2017-06-24T10:35:18Z</time>
      </trkpt>
      <trkpt lat="45.130230" lon="-0.484770">
        <time>2017-06-24T10:35:19Z</time>
      </trkpt>
      <trkpt lat="45.130530" lon="-0.484690">
        <time>2017-06-24T10:35:20Z</time>
      </trkpt>
      <trkpt lat="45.130850" lon="-0.484600">
        <time>2017-06-24T10:35:21Z</time>
      </trkpt>
      <trkpt lat="45.131180" lon="-0.484500">
        <time>2017-06-24T10:35:22Z</time>
      </trkpt>
      <trkpt lat="45.131460" lon="-0.484420">
        <time>2017-06-24T10:35:23Z</time>
      </trkpt>
      <trkpt lat="45.131790" lon="-0.484320">
        <time>2017-06-24T10:35:24Z</time>
      </trkpt>
      <trkpt lat="45.132070" lon="-0.484240">
        <time>2017-06-24T10:35:25Z</time>
      </trkpt>
      <trkpt lat="45.132370" lon="-0.484140">
        <time>2017-06-24T10:35:26Z</time>
      </trkpt>
      <trkpt lat="45.132690" lon="-0.484040">
        <time>2017-06-24T10:35:27Z</time>
      </trkpt>
      <trkpt lat="45.132970" lon="-0.483940">
        <time>2017-06-24T10:35:28Z</time>
      </trkpt>
      <trkpt lat="45.133260" lon="-0.483850">
        <time>2017-06-24T10:35:29Z</time>
      </trkpt>
      <trkpt lat="45.133550" lon="-0.483750">
        <time>2017-06-24T10:35:30Z</time>
      </trkpt>
      <trkpt lat="45.133840" lon="-0.483650">
        <time>2017-06-24T10:35:31Z</time>
      </trkpt>
      <trkpt lat="45.134150" lon="-0.483540">
        <time>2017-06-24T10:35:32Z</time>
      </trkpt>
      <trkpt lat="45.134420" lon="-0.483430">
        <time>2017-06-24T10:35:33Z</time>
      </trkpt>
      <trkpt lat="45.134710" lon="-0.483330">
        <time>2017-06-24T10:35:34Z</time>
      </trkpt>
      <trkpt lat="45.135030" lon="-0.483220">
        <time>2017-06-24T10:35:35Z</time>
      </trkpt>
      <trkpt lat="45.135300" lon="-0.483120">
        <time>2017-06-24T10:35:36Z</time>
      </trkpt>
      <trkpt lat="45.135590" lon="-0.483010">
        <time>2017-06-24T10:35:37Z</time>
      </trkpt>
      <trkpt lat="45.135900" lon="-0.482890">
        <time>2017-06-24T10:35:38Z</time>
      </trkpt>
      <trkpt lat="45.136190" lon="-0.482780">
        <time>2017-06-24T10:35:39Z</time>
      </trkpt>
      <trkpt lat="45.136500" lon="-0.482670">
        <time>2017-06-24T10:35:40Z</time>
      </trkpt>
      <trkpt lat="45.136770" lon="-0.482570">
        <time>2017-06-24T10:35:41Z</time>
      </trkpt>
      <trkpt lat="45.137070" lon="-0.482460">
        <time>2017-06-24T10:35:42Z</time>
      </trkpt>
      <trkpt lat="45.137380" lon="-0.482340">
        <time>2017-06-24T10:35:43Z</time>
      </trkpt>
      <trkpt lat="45.137650" lon="-0.482230">
        <time>2017-06-24T10:35:44Z</time>
      </trkpt>
      <trkpt lat="45.137940" lon="-0.482120">
        <time>2017-06-24T10:35:45Z</time>
      </trkpt>
      <trkpt lat="45.138240" lon="-0.482010">
        <time>2017-06-24T10:35:46Z</time>
      </trkpt>
      <trkpt lat="45.138540" lon="-0.481900">
        <time>2017-06-24T10:35:47Z</time>
      </trkpt>
      <trkpt lat="45.138850" lon="-0.481790">
        <time>2017-06-24T10:35:48Z</time>
      </trkpt>
      <trkpt lat="45.139130" lon="-0.481680">
        <time>2017-06-24T10:35:49Z</time>
      </trkpt>
      <trkpt lat="45.139430" lon="-0.481570">
        <time>2017-06-24T10:35:50Z</time>
      </trkpt>
      <trkpt lat="45.139750" lon="-0.481450">
        <time>2017-06-24T10:35:51Z</time>
      </trkpt>
      <trkpt lat="45.140030" lon="-0.481350">
        <time>2017-06-24T10:35:52Z</time>
      </trkpt>
      <trkpt lat="45.140340" lon="-0.481240">
        <time>2017-06-24T10:35:53Z</time>
      </trkpt>
      <trkpt lat="45.140670" lon="-0.481130">
        <time>2017-06-24T10:35:54Z</time>
      </trkpt>
      <trkpt lat="45.140950" lon="-0.481030">
        <time>2017-06-24T10:35:55Z</time>
      </trkpt>
      <trkpt lat="45.141270" lon="-0.480930">
        <time>2017-06-24T10:35:56Z</time>
      </trkpt>
      <trkpt lat="45.141560" lon="-0.480840">
        <time>2017-06-24T10:35:57Z</time>
      </trkpt>
      <trkpt lat="45.141860" lon="-0.480750">
        <time>2017-06-24T10:35:58Z</time>
      </trkpt>
      <trkpt lat="45.142180" lon="-0.480650">
        <time>2017-06-24T10:35:59Z</time>
      </trkpt>
      <trkpt lat="45.142460" lon="-0.480560">
        <time>2017-06-24T10:36:00Z</time>
      </trkpt>
      <trkpt lat="45.142760" lon="-0.480470">
        <time>2017-06-24T10:36:01Z</time>
      </trkpt>
      <trkpt lat="45.143060" lon="-0.480380">
        <time>2017-06-24T10:36:02Z</time>
      </trkpt>
      <trkpt lat="45.143370" lon="-0.480300">
        <time>2017-06-24T10:36:03Z</time>
      </trkpt>
      <trkpt lat="45.143700" lon="-0.480200">
        <time>2017-06-24T10:36:04Z</time>
      </trkpt>
      <trkpt lat="45.143980" lon="-0.480130">
        <time>2017-06-24T10:36:05Z</time>
      </trkpt>
      <trkpt lat="45.144290" lon="-0.480050">
        <time>2017-06-24T10:36:06Z</time>
      </trkpt>
      <trkpt lat="45.144620" lon="-0.479970">
        <time>2017-06-24T10:36:07Z</time>
      </trkpt>
      <trkpt lat="45.144910" lon="-0.479900">
        <time>2017-06-24T10:36:08Z</time>
      </trkpt>
      <trkpt lat="45.145220" lon="-0.479820">
        <time>2017-06-24T10:36:09Z</time>
      </trkpt>
      <trkpt lat="45.145550" lon="-0.479750">
        <time>2017-06-24T10:36:10Z</time>
      </trkpt>
      <trkpt lat="45.145830" lon="-0.479690">
        <time>2017-06-24T10:36:11Z</time>
      </trkpt>
      <trkpt lat="45.146160" lon="-0.479620">
        <time>2017-06-24T10:36:12Z</time>
      </trkpt>
      <trkpt lat="45.146450" lon="-0.479560">
        <time>2017-06-24T10:36:13Z</time>
      </trkpt>
      <trkpt lat="45.146760" lon="-0.479500">
        <time>2017-06-24T10:36:14Z</time>
      </trkpt>
      <trkpt lat="45.147090" lon="-0.479440">
        <time>2017-06-24T10:36:15Z</time>
      </trkpt>
      <trkpt lat="45.147380" lon="-0.479380">
        <time>2017-06-24T10:36:16Z</time>
      </trkpt>
      <trkpt lat="45.147690" lon="-0.479330">
        <time>2017-06-24T10:36:17Z</time>
      </trkpt>
      <trkpt lat="45.148010" lon="-0.479280">
        <time>2017-06-24T10:36:18Z</time>
      </trkpt>
      <trkpt lat="45.148330" lon="-0.479240">
        <time>2017-06-24T10:36:19Z</time>
      </trkpt>
      <trkpt lat="45.148650" lon="-0.479180">
        <time>2017-06-24T10:36:20Z</time>
      </trkpt>
      <trkpt lat="45.148940" lon="-0.479150">
        <time>2017-06-24T10:36:21Z</time>
      </trkpt>
      <trkpt lat="45.149250" lon="-0.479110">
        <time>2017-06-24T10:36:22Z</time>
      </trkpt>
      <trkpt lat="45.149580" lon="-0.479080">
        <time>2017-06-24T10:36:23Z</time>
      </trkpt>
      <trkpt lat="45.149870" lon="-0.479040">
        <time>2017-06-24T10:36:24Z</time>
      </trkpt>
      <trkpt lat="45.150180" lon="-0.479010">
        <time>2017-06-24T10:36:25Z</time>
      </trkpt>
      <trkpt lat="45.150510" lon="-0.478990">
        <time>2017-06-24T10:36:26Z</time>
      </trkpt>
      <trkpt lat="45.150800" lon="-0.478960">
        <time>2017-06-24T10:36:27Z</time>
      </trkpt>
      <trkpt lat="45.151120" lon="-0.478930">
        <time>2017-06-24T10:36:28Z</time>
      </trkpt>
      <trkpt lat="45.151420" lon="-0.478920">
        <time>2017-06-24T10:36:29Z</time>
      </trkpt>
      <trkpt lat="45.151730" lon="-0.478890">
        <time>2017-06-24T10:36:30Z</time>
      </trkpt>
      <trkpt lat="45.152050" lon="-0.478870">
        <time>2017-06-24T10:36:31Z</time>
      </trkpt>
      <trkpt lat="45.152350" lon="-0.478860">
        <time>2017-06-24T10:36:32Z</time>
      </trkpt>
      <trkpt lat="45.152660" lon="-0.478850">
        <time>2017-06-24T10:36:33Z</time>
      </trkpt>
      <trkpt lat="45.152970" lon="-0.478850">
        <time>2017-06-24T10:36:34Z</time>
      </trkpt>
      <trkpt lat="45.153280" lon="-0.478850">
        <time>2017-06-24T10:36:35Z</time>
      </trkpt>
      <trkpt lat="45.153600" lon="-0.478850">
        <time>2017-06-24T10:36:36Z</time>
      </trkpt>
      <trkpt lat="45.153890" lon="-0.478860">
        <time>2017-06-24T10:36:37Z</time>
      </trkpt>
      <trkpt lat="45.154200" lon="-0.478870">
        <time>2017-06-24T10:36:38Z</time>
      </trkpt>
      <trkpt lat="45.154530" lon="-0.478870">
        <time>2017-06-24T10:36:39Z</time>
      </trkpt>
      <trkpt lat="45.154820" lon="-0.478880">
        <time>2017-06-24T10:36:40Z</time>
      </trkpt>
      <trkpt lat="45.155140" lon="-0.478890">
        <time>2017-06-24T10:36:41Z</time>
      </trkpt>
      <trkpt lat="45.155460" lon="-0.478890">
        <time>2017-06-24T10:36:42Z</time>
      </trkpt>
      <trkpt lat="45.155750" lon="-0.478900">
        <time>2017-06-24T10:36:43Z</time>
      </trkpt>
      <trkpt lat="45.156080" lon="-0.478910">
        <time>2017-06-24T10:36:44Z</time>
      </trkpt>
      <trkpt lat="45.156380" lon="-0.478930">
        <time>2017-06-24T10:36:45Z</time>
      </trkpt>
      <trkpt lat="45.156700" lon="-0.478950">
        <time>2017-06-24T10:36:46Z</time>
      </trkpt>
      <trkpt lat="45.157030" lon="-0.478980">
        <time>2017-06-24T10:36:47Z</time>
      </trkpt>
      <trkpt lat="45.157330" lon="-0.479010">
        <time>2017-06-24T10:36:48Z</time>
      </trkpt>
      <trkpt lat="45.157640" lon="-0.479050">
        <time>2017-06-24T10:36:49Z</time>
      </trkpt>
      <trkpt lat="45.157960" lon="-0.479070">
        <time>2017-06-24T10:36:50Z</time>
      </trkpt>
      <trkpt lat="45.158270" lon="-0.479110">
        <time>2017-06-24T10:36:51Z</time>
      </trkpt>
      <trkpt lat="45.158600" lon="-0.479160">
        <time>2017-06-24T10:36:52Z</time>
      </trkpt>
      <trkpt lat="45.158890" lon="-0.479190">
        <time>2017-06-24T10:36:53Z</time>
      </trkpt>
      <trkpt lat="45.159200" lon="-0.479230">
        <time>2017-06-24T10:36:54Z</time>
      </trkpt>
      <trkpt lat="45.159530" lon="-0.479280">
        <time>2017-06-24T10:36:55Z</time>
      </trkpt>
      <trkpt lat="45.159810" lon="-0.479330">
        <time>2017-06-24T10:36:56Z</time>
      </trkpt>
      <trkpt lat="45.160120" lon="-0.479380">
        <time>2017-06-24T10:36:57Z</time>
      </trkpt>
      <trkpt lat="45.160440" lon="-0.479440">
        <time>2017-06-24T10:36:58Z</time>
      </trkpt>
      <trkpt lat="45.160710" lon="-0.479490">
        <time>2017-06-24T10:36:59Z</time>
      </trkpt>
      <trkpt lat="45.161030" lon="-0.479540">
        <time>2017-06-24T10:37:00Z</time>
      </trkpt>
      <trkpt lat="45.161300" lon="-0.479600">
        <time>2017-06-24T10:37:01Z</time>
      </trkpt>
      <trkpt lat="45.161590" lon="-0.479650">
        <time>2017-06-24T10:37:02Z</time>
      </trkpt>
      <trkpt lat="45.161900" lon="-0.479720">
        <time>2017-06-24T10:37:03Z</time>
      </trkpt>
      <trkpt lat="45.162170" lon="-0.479780">
        <time>2017-06-24T10:37:04Z</time>
      </trkpt>
      <trkpt lat="45.162460" lon="-0.479840">
        <time>2017-06-24T10:37:05Z</time>
      </trkpt>
      <trkpt lat="45.162740" lon="-0.479910">
        <time>2017-06-24T10:37:06Z</time>
      </trkpt>
      <trkpt lat="45.163030" lon="-0.479980">
        <time>2017-06-24T10:37:07Z</time>
      </trkpt>
      <trkpt lat="45.163330" lon="-0.480060">
        <time>2017-06-24T10:37:08Z</time>
      </trkpt>
      <trkpt lat="45.163580" lon="-0.480130">
        <time>2017-06-24T10:37:09Z</time>
      </trkpt>
      <trkpt lat="45.163860" lon="-0.480200">
        <time>2017-06-24T10:37:10Z</time>
      </trkpt>
      <trkpt lat="45.164150" lon="-0.480280">
        <time>2017-06-24T10:37:11Z</time>
      </trkpt>
      <trkpt lat="45.164410" lon="-0.480350">
        <time>2017-06-24T10:37:12Z</time>
      </trkpt>
      <trkpt lat="45.164680" lon="-0.480430">
        <time>2017-06-24T10:37:13Z</time>
      </trkpt>
      <trkpt lat="45.164960" lon="-0.480520">
        <time>2017-06-24T10:37:14Z</time>
      </trkpt>
      <trkpt lat="45.165220" lon="-0.480600">
        <time>2017-06-24T10:37:15Z</time>
      </trkpt>
      <trkpt lat="45.165520" lon="-0.480680">
        <time>2017-06-24T10:37:16Z</time>
      </trkpt>
      <trkpt lat="45.165770" lon="-0.480760">
        <time>2017-06-24T10:37:17Z</time>
      </trkpt>
      <trkpt lat="45.166040" lon="-0.480850">
        <time>2017-06-24T10:37:18Z</time>
      </trkpt>
      <trkpt lat="45.166330" lon="-0.480950">
        <time>2017-06-24T10:37:19Z</time>
      </trkpt>
      <trkpt lat="45.166590" lon="-0.481040">
        <time>2017-06-24T10:37:20Z</time>
      </trkpt>
      <trkpt lat="45.166860" lon="-0.481130">
        <time>2017-06-24T10:37:21Z</time>
      </trkpt>
      <trkpt lat="45.167130" lon="-0.481230">
        <time>2017-06-24T10:37:22Z</time>
      </trkpt>
      <trkpt lat="45.167400" lon="-0.481330">
        <time>2017-06-24T10:37:23Z</time>
      </trkpt>
      <trkpt lat="45.167690" lon="-0.481440">
        <time>2017-06-24T10:37:24Z</time>
      </trkpt>
      <trkpt lat="45.167940" lon="-0.481540">
        <time>2017-06-24T10:37:25Z</time>
      </trkpt>
      <trkpt lat="45.168210" lon="-0.481640">
        <time>2017-06-24T10:37:26Z</time>
      </trkpt>
      <trkpt lat="45.168490" lon="-0.481750">
        <time>2017-06-24T10:37:27Z</time>
      </trkpt>
      <trkpt lat="45.168740" lon="-0.481850">
        <time>2017-06-24T10:37:28Z</time>
      </trkpt>
      <trkpt lat="45.169010" lon="-0.481960">
        <time>2017-06-24T10:37:29Z</time>
      </trkpt>
      <trkpt lat="45.169300" lon="-0.482080">
        <time>2017-06-24T10:37:30Z</time>
      </trkpt>
      <trkpt lat="45.169550" lon="-0.482190">
        <time>2017-06-24T10:37:31Z</time>
      </trkpt>
      <trkpt lat="45.169830" lon="-0.482320">
        <time>2017-06-24T10:37:32Z</time>
      </trkpt>
      <trkpt lat="45.170080" lon="-0.482430">
        <time>2017-06-24T10:37:33Z</time>
      </trkpt>
      <trkpt lat="45.170350" lon="-0.482550">
        <time>2017-06-24T10:37:34Z</time>
      </trkpt>
      <trkpt lat="45.170640" lon="-0.482680">
        <time>2017-06-24T10:37:35Z</time>
      </trkpt>
      <trkpt lat="45.170890" lon="-0.482800">
        <time>2017-06-24T10:37:36Z</time>
      </trkpt>
      <trkpt lat="45.171160" lon="-0.482920">
        <time>2017-06-24T10:37:37Z</time>
      </trkpt>
      <trkpt lat="45.171420" lon="-0.483050">
        <time>2017-06-24T10:37:38Z</time>
      </trkpt>
      <trkpt lat="45.171690" lon="-0.483180">
        <time>2017-06-24T10:37:39Z</time>
      </trkpt>
      <trkpt lat="45.171970" lon="-0.483310">
        <time>2017-06-24T10:37:40Z</time>
      </trkpt>
      <trkpt lat="45.172220" lon="-0.483440">
        <time>2017-06-24T10:37:41Z</time>
      </trkpt>
      <trkpt lat="45.172480" lon="-0.483560">
        <time>2017-06-24T10:37:42Z</time>
      </trkpt>
      <trkpt lat="45.172760" lon="-0.483710">
        <time>2017-06-24T10:37:43Z</time>
      </trkpt>
      <trkpt lat="45.173000" lon="-0.483830">
        <time>2017-06-24T10:37:44Z</time>
      </trkpt>
      <trkpt lat="45.173260" lon="-0.483960">
        <time>2017-06-24T10:37:45Z</time>
      </trkpt>
      <trkpt lat="45.173530" lon="-0.484100">
        <time>2017-06-24T10:37:46Z</time>
      </trkpt>
      <trkpt lat="45.173770" lon="-0.484220">
        <time>2017-06-24T10:37:47Z</time>
      </trkpt>
      <trkpt lat="45.174040" lon="-0.484360">
        <time>2017-06-24T10:37:48Z</time>
      </trkpt>
      <trkpt lat="45.174270" lon="-0.484490">
        <time>2017-06-24T10:37:49Z</time>
      </trkpt>
      <trkpt lat="45.174520" lon="-0.484610">
        <time>2017-06-24T10:37:50Z</time>
      </trkpt>
      <trkpt lat="45.174800" lon="-0.484750">
        <time>2017-06-24T10:37:51Z</time>
      </trkpt>
      <trkpt lat="45.175040" lon="-0.484880">
        <time>2017-06-24T10:37:52Z</time>
      </trkpt>
      <trkpt lat="45.175290" lon="-0.485010">
        <time>2017-06-24T10:37:53Z</time>
      </trkpt>
      <trkpt lat="45.175550" lon="-0.485150">
        <time>2017-06-24T10:37:54Z</time>
      </trkpt>
      <trkpt lat="45.175810" lon="-0.485280">
        <time>2017-06-24T10:37:55Z</time>
      </trkpt>
      <trkpt lat="45.176080" lon="-0.485420">
        <time>2017-06-24T10:37:56Z</time>
      </trkpt>
      <trkpt lat="45.176330" lon="-0.485540">
        <time>2017-06-24T10:37:57Z</time>
      </trkpt>
      <trkpt lat="45.176590" lon="-0.485680">
        <time>2017-06-24T10:37:58Z</time>
      </trkpt>
      <trkpt lat="45.176870" lon="-0.485820">
        <time>2017-06-24T10:37:59Z</time>
      </trkpt>
      <trkpt lat="45.177120" lon="-0.485960">
        <time>2017-06-24T10:38:00Z</time>
      </trkpt>
      <trkpt lat="45.177380" lon="-0.486100">
        <time>2017-06-24T10:38:01Z</time>
      </trkpt>
      <trkpt lat="45.177660" lon="-0.486250">
        <time>2017-06-24T10:38:02Z</time>
      </trkpt>
      <trkpt lat="45.177910" lon="-0.486380">
        <time>2017-06-24T10:38:03Z</time>
      </trkpt>
      <trkpt lat="45.178200" lon="-0.486520">
        <time>2017-06-24T10:38:04Z</time>
      </trkpt>
      <trkpt lat="45.178450" lon="-0.486650">
        <time>2017-06-24T10:38:05Z</time>
      </trkpt>
      <trkpt lat="45.178710" lon="-0.486790">
        <time>2017-06-24T10:38:06Z</time>
      </trkpt>
      <trkpt lat="45.179000" lon="-0.486930">
        <time>2017-06-24T10:38:07Z</time>
      </trkpt>
      <trkpt lat="45.179250" lon="-0.487070">
        <time>2017-06-24T10:38:08Z</time>
      </trkpt>
      <trkpt lat="45.179510" lon="-0.487210">
        <time>2017-06-24T10:38:09Z</time>
      </trkpt>
      <trkpt lat="45.179780" lon="-0.487350">
        <time>2017-06-24T10:38:10Z</time>
      </trkpt>
      <trkpt lat="45.180050" lon="-0.487500">
        <time>2017-06-24T10:38:11Z</time>
      </trkpt>
      <trkpt lat="45.180330" lon="-0.487640">
        <time>2017-06-24T10:38:12Z</time>
      </trkpt>
      <trkpt lat="45.180580" lon="-0.487770">
        <time>2017-06-24T10:38:13Z</time>
      </trkpt>
      <trkpt lat="45.180850" lon="-0.487910">
        <time>2017-06-24T10:38:14Z</time>
      </trkpt>
      <trkpt lat="45.181130" lon="-0.488050">
        <time>2017-06-24T10:38:15Z</time>
      </trkpt>
      <trkpt lat="45.181380" lon="-0.488180">
        <time>2017-06-24T10:38:16Z</time>
      </trkpt>
      <trkpt lat="45.181650" lon="-0.488320">
        <time>2017-06-24T10:38:17Z</time>
      </trkpt>
      <trkpt lat="45.181930" lon="-0.488470">
        <time>2017-06-24T10:38:18Z</time>
      </trkpt>
      <trkpt lat="45.182180" lon="-0.488610">
        <time>2017-06-24T10:38:19Z</time>
      </trkpt>
      <trkpt lat="45.182470" lon="-0.488750">
        <time>2017-06-24T10:38:20Z</time>
      </trkpt>
      <trkpt lat="45.182710" lon="-0.488880">
        <time>2017-06-24T10:38:21Z</time>
      </trkpt>
      <trkpt lat="45.182980" lon="-0.489010">
        <time>2017-06-24T10:38:22Z</time>
      </trkpt>
      <trkpt lat="45.183260" lon="-0.489160">
        <time>2017-06-24T10:38:23Z</time>
      </trkpt>
      <trkpt lat="45.183510" lon="-0.489290">
        <time>2017-06-24T10:38:24Z</time>
      </trkpt>
      <trkpt lat="45.183780" lon="-0.489430">
        <time>2017-06-24T10:38:25Z</time>
      </trkpt>
      <trkpt lat="45.184060" lon="-0.489570">
        <time>2017-06-24T10:38:26Z</time>
      </trkpt>
      <trkpt lat="45.184330" lon="-0.489710">
        <time>2017-06-24T10:38:27Z</time>
      </trkpt>
      <trkpt lat="45.184620" lon="-0.489850">
        <time>2017-06-24T10:38:28Z</time>
      </trkpt>
      <trkpt lat="45.184870" lon="-0.489970">
        <time>2017-06-24T10:38:29Z</time>
      </trkpt>
      <trkpt lat="45.185140" lon="-0.490100">
        <time>2017-06-24T10:38:30Z</time>
      </trkpt>
      <trkpt lat="45.185430" lon="-0.490230">
        <time>2017-06-24T10:38:31Z</time>
      </trkpt>
      <trkpt lat="45.185680" lon="-0.490350">
        <time>2017-06-24T10:38:32Z</time>
      </trkpt>
      <trkpt lat="45.185940" lon="-0.490470">
        <time>2017-06-24T10:38:33Z</time>
      </trkpt>
      <trkpt lat="45.186210" lon="-0.490590">
        <time>2017-06-24T10:38:34Z</time>
      </trkpt>
      <trkpt lat="45.186450" lon="-0.490690">
        <time>2017-06-24T10:38:35Z</time>
      </trkpt>
      <trkpt lat="45.186730" lon="-0.490830">
        <time>2017-06-24T10:38:36Z</time>
      </trkpt>
      <trkpt lat="45.186980" lon="-0.490950">
        <time>2017-06-24T10:38:37Z</time>
      </trkpt>
      <trkpt lat="45.187250" lon="-0.491090">
        <time>2017-06-24T10:38:38Z</time>
      </trkpt>
      <trkpt lat="45.187550" lon="-0.491230">
        <time>2017-06-24T10:38:39Z</time>
      </trkpt>
      <trkpt lat="45.187810" lon="-0.491340">
        <time>2017-06-24T10:38:40Z</time>
      </trkpt>
      <trkpt lat="45.188090" lon="-0.491470">
        <time>2017-06-24T10:38:41Z</time>
      </trkpt>
      <trkpt lat="45.188370" lon="-0.491590">
        <time>2017-06-24T10:38:42Z</time>
      </trkpt>
      <trkpt lat="45.188660" lon="-0.491700">
        <time>2017-06-24T10:38:43Z</time>
      </trkpt>
      <trkpt lat="45.188960" lon="-0.491810">
        <time>2017-06-24T10:38:44Z</time>
      </trkpt>
      <trkpt lat="45.189200" lon="-0.491900">
        <time>2017-06-24T10:38:45Z</time>
      </trkpt>
      <trkpt lat="45.189470" lon="-0.491980">
        <time>2017-06-24T10:38:46Z</time>
      </trkpt>
      <trkpt lat="45.189750" lon="-0.492080">
        <time>2017-06-24T10:38:47Z</time>
      </trkpt>
      <trkpt lat="45.189990" lon="-0.492170">
        <time>2017-06-24T10:38:48Z</time>
      </trkpt>
      <trkpt lat="45.190250" lon="-0.492270">
        <time>2017-06-24T10:38:49Z</time>
      </trkpt>
      <trkpt lat="45.190520" lon="-0.492370">
        <time>2017-06-24T10:38:50Z</time>
      </trkpt>
      <trkpt lat="45.190770" lon="-0.492470">
        <time>2017-06-24T10:38:51Z</time>
      </trkpt>
      <trkpt lat="45.191050" lon="-0.492570">
        <time>2017-06-24T10:38:52Z</time>
      </trkpt>
      <trkpt lat="45.191310" lon="-0.492670">
        <time>2017-06-24T10:38:53Z</time>
      </trkpt>
      <trkpt lat="45.191580" lon="-0.492760">
        <time>2017-06-24T10:38:54Z</time>
      </trkpt>
      <trkpt lat="45.191880" lon="-0.492870">
        <time>2017-06-24T10:38:55Z</time>
      </trkpt>
      <trkpt lat="45.192150" lon="-0.492970">
        <time>2017-06-24T10:38:56Z</time>
      </trkpt>
      <trkpt lat="45.192430" lon="-0.493090">
        <time>2017-06-24T10:38:57Z</time>
      </trkpt>
      <trkpt lat="45.192730" lon="-0.493200">
        <time>2017-06-24T10:38:58Z</time>
      </trkpt>
      <trkpt lat="45.193020" lon="-0.493310">
        <time>2017-06-24T10:38:59Z</time>
      </trkpt>
      <trkpt lat="45.193330" lon="-0.493430">
        <time>2017-06-24T10:39:00Z</time>
      </trkpt>
      <trkpt lat="45.193610" lon="-0.493530">
        <time>2017-06-24T10:39:01Z</time>
      </trkpt>
      <trkpt lat="45.193910" lon="-0.493640">
        <time>2017-06-24T10:39:02Z</time>
      </trkpt>
      <trkpt lat="45.194230" lon="-0.493750">
        <time>2017-06-24T10:39:03Z</time>
      </trkpt>
      <trkpt lat="45.194510" lon="-0.493830">
        <time>2017-06-24T10:39:04Z</time>
      </trkpt>
      <trkpt lat="45.194810" lon="-0.493920">
        <time>2017-06-24T10:39:05Z</time>
      </trkpt>
      <trkpt lat="45.195130" lon="-0.494030">
        <time>2017-06-24T10:39:06Z</time>
      </trkpt>
      <trkpt lat="45.195400" lon="-0.494130">
        <time>2017-06-24T10:39:07Z</time>
      </trkpt>
      <trkpt lat="45.195710" lon="-0.494250">
        <time>2017-06-24T10:39:08Z</time>
      </trkpt>
      <trkpt lat="45.195980" lon="-0.494350">
        <time>2017-06-24T10:39:09Z</time>
      </trkpt>
      <trkpt lat="45.196260" lon="-0.494450">
        <time>2017-06-24T10:39:10Z</time>
      </trkpt>
      <trkpt lat="45.196570" lon="-0.494580">
        <time>2017-06-24T10:39:11Z</time>
      </trkpt>
      <trkpt lat="45.196840" lon="-0.494680">
        <time>2017-06-24T10:39:12Z</time>
      </trkpt>
      <trkpt lat="45.197120" lon="-0.494800">
        <time>2017-06-24T10:39:13Z</time>
      </trkpt>
      <trkpt lat="45.197410" lon="-0.494920">
        <time>2017-06-24T10:39:14Z</time>
      </trkpt>
      <trkpt lat="45.197690" lon="-0.495050">
        <time>2017-06-24T10:39:15Z</time>
      </trkpt>
      <trkpt lat="45.197990" lon="-0.495180">
        <time>2017-06-24T10:39:16Z</time>
      </trkpt>
      <trkpt lat="45.198250" lon="-0.495300">
        <time>2017-06-24T10:39:17Z</time>
      </trkpt>
      <trkpt lat="45.198530" lon="-0.495450">
        <time>2017-06-24T10:39:18Z</time>
      </trkpt>
      <trkpt lat="45.198840" lon="-0.495600">
        <time>2017-06-24T10:39:19Z</time>
      </trkpt>
      <trkpt lat="45.199110" lon="-0.495730">
        <time>2017-06-24T10:39:20Z</time>
      </trkpt>
      <trkpt lat="45.199380" lon="-0.495880">
        <time>2017-06-24T10:39:21Z</time>
      </trkpt>
      <trkpt lat="45.199680" lon="-0.496040">
        <time>2017-06-24T10:39:22Z</time>
      </trkpt>
      <trkpt lat="45.199940" lon="-0.496190">
        <time>2017-06-24T10:39:23Z</time>
      </trkpt>
      <trkpt lat="45.200230" lon="-0.496360">
        <time>2017-06-24T10:39:24Z</time>
      </trkpt>
      <trkpt lat="45.200490" lon="-0.496520">
        <time>2017-06-24T10:39:25Z</time>
      </trkpt>
      <trkpt lat="45.200760" lon="-0.496690">
        <time>2017-06-24T10:39:26Z</time>
      </trkpt>
      <trkpt lat="45.201050" lon="-0.496870">
        <time>2017-06-24T10:39:27Z</time>
      </trkpt>
      <trkpt lat="45.201300" lon="-0.497050">
        <time>2017-06-24T10:39:28Z</time>
      </trkpt>
      <trkpt lat="45.201580" lon="-0.497230">
        <time>2017-06-24T10:39:29Z</time>
      </trkpt>
      <trkpt lat="45.201840" lon="-0.497420">
        <time>2017-06-24T10:39:30Z</time>
      </trkpt>
      <trkpt lat="45.202110" lon="-0.497610">
        <time>2017-06-24T10:39:31Z</time>
      </trkpt>
      <trkpt lat="45.202390" lon="-0.497810">
        <time>2017-06-24T10:39:32Z</time>
      </trkpt>
      <trkpt lat="45.202640" lon="-0.497990">
        <time>2017-06-24T10:39:33Z</time>
      </trkpt>
      <trkpt lat="45.202900" lon="-0.498190">
        <time>2017-06-24T10:39:34Z</time>
      </trkpt>
      <trkpt lat="45.203170" lon="-0.498410">
        <time>2017-06-24T10:39:35Z</time>
      </trkpt>
      <trkpt lat="45.203410" lon="-0.498610">
        <time>2017-06-24T10:39:36Z</time>
      </trkpt>
      <trkpt lat="45.203670" lon="-0.498820">
        <time>2017-06-24T10:39:37Z</time>
      </trkpt>
      <trkpt lat="45.203950" lon="-0.499050">
        <time>2017-06-24T10:39:38Z</time>
      </trkpt>
      <trkpt lat="45.204190" lon="-0.499250">
        <time>2017-06-24T10:39:39Z</time>
      </trkpt>
      <trkpt lat="45.204460" lon="-0.499480">
        <time>2017-06-24T10:39:40Z</time>
      </trkpt>
      <trkpt lat="45.204690" lon="-0.499670">
        <time>2017-06-24T10:39:41Z</time>
      </trkpt>
      <trkpt lat="45.204940" lon="-0.499880">
        <time>2017-06-24T10:39:42Z</time>
      </trkpt>
      <trkpt lat="45.205200" lon="-0.500110">
        <time>2017-06-24T10:39:43Z</time>
      </trkpt>
      <trkpt lat="45.205430" lon="-0.500300">
        <time>2017-06-24T10:39:44Z</time>
      </trkpt>
      <trkpt lat="45.205670" lon="-0.500510">
        <time>2017-06-24T10:39:45Z</time>
      </trkpt>
      <trkpt lat="45.205910" lon="-0.500710">
        <time>2017-06-24T10:39:46Z</time>
      </trkpt>
      <trkpt lat="45.206160" lon="-0.500920">
        <time>2017-06-24T10:39:47Z</time>
      </trkpt>
      <trkpt lat="45.206420" lon="-0.501140">
        <time>2017-06-24T10:39:48Z</time>
      </trkpt>
      <trkpt lat="45.206650" lon="-0.501330">
        <time>2017-06-24T10:39:49Z</time>
      </trkpt>
      <trkpt lat="45.206910" lon="-0.501540">
        <time>2017-06-24T10:39:50Z</time>
      </trkpt>
      <trkpt lat="45.207180" lon="-0.501750">
        <time>2017-06-24T10:39:51Z</time>
      </trkpt>
      <trkpt lat="45.207420" lon="-0.501950">
        <time>2017-06-24T10:39:52Z</time>
      </trkpt>
      <trkpt lat="45.207670" lon="-0.502140">
        <time>2017-06-24T10:39:53Z</time>
      </trkpt>
      <trkpt lat="45.207950" lon="-0.502360">
        <time>2017-06-24T10:39:54Z</time>
      </trkpt>
      <trkpt lat="45.208180" lon="-0.502540">
        <time>2017-06-24T10:39:55Z</time>
      </trkpt>
      <trkpt lat="45.208460" lon="-0.502750">
        <time>2017-06-24T10:39:56Z</time>
      </trkpt>
      <trkpt lat="45.208700" lon="-0.502920">
        <time>2017-06-24T10:39:57Z</time>
      </trkpt>
      <trkpt lat="45.208960" lon="-0.503110">
        <time>2017-06-24T10:39:58Z</time>
      </trkpt>
      <trkpt lat="45.209230" lon="-0.503300">
        <time>2017-06-24T10:39:59Z</time>
      </trkpt>
      <trkpt lat="45.209470" lon="-0.503460">
        <time>2017-06-24T10:40:00Z</time>
      </trkpt>
      <trkpt lat="45.209730" lon="-0.503630">
        <time>2017-06-24T10:40:01Z</time>
      </trkpt>
      <trkpt lat="45.209980" lon="-0.503800">
        <time>2017-06-24T10:40:02Z</time>
      </trkpt>
      <trkpt lat="45.210240" lon="-0.503960">
        <time>2017-06-24T10:40:03Z</time>
      </trkpt>
      <trkpt lat="45.210510" lon="-0.504130">
        <time>2017-06-24T10:40:04Z</time>
      </trkpt>
      <trkpt lat="45.210750" lon="-0.504280">
        <time>2017-06-24T10:40:05Z</time>
      </trkpt>
      <trkpt lat="45.211010" lon="-0.504430">
        <time>2017-06-24T10:40:06Z</time>
      </trkpt>
      <trkpt lat="45.211300" lon="-0.504600">
        <time>2017-06-24T10:40:07Z</time>
      </trkpt>
      <trkpt lat="45.211560" lon="-0.504740">
        <time>2017-06-24T10:40:08Z</time>
      </trkpt>
      <trkpt lat="45.211830" lon="-0.504900">
        <time>2017-06-24T10:40:09Z</time>
      </trkpt>
      <trkpt lat="45.212120" lon="-0.505050">
        <time>2017-06-24T10:40:10Z</time>
      </trkpt>
      <trkpt lat="45.212380" lon="-0.505180">
        <time>2017-06-24T10:40:11Z</time>
      </trkpt>
      <trkpt lat="45.212690" lon="-0.505330">
        <time>2017-06-24T10:40:12Z</time>
      </trkpt>
      <trkpt lat="45.212950" lon="-0.505460">
        <time>2017-06-24T10:40:13Z</time>
      </trkpt>
      <trkpt lat="45.213240" lon="-0.505600">
        <time>2017-06-24T10:40:14Z</time>
      </trkpt>
      <trkpt lat="45.213560" lon="-0.505760">
        <time>2017-06-24T10:40:15Z</time>
      </trkpt>
      <trkpt lat="45.213840" lon="-0.505900">
        <time>2017-06-24T10:40:16Z</time>
      </trkpt>
      <trkpt lat="45.214150" lon="-0.506040">
        <time>2017-06-24T10:40:17Z</time>
      </trkpt>
      <trkpt lat="45.214450" lon="-0.506180">
        <time>2017-06-24T10:40:18Z</time>
      </trkpt>
      <trkpt lat="45.214750" lon="-0.506320">
        <time>2017-06-24T10:40:19Z</time>
      </trkpt>
      <trkpt lat="45.215080" lon="-0.506460">
        <time>2017-06-24T10:40:20Z</time>
      </trkpt>
      <trkpt lat="45.215360" lon="-0.506580">
        <time>2017-06-24T10:40:21Z</time>
      </trkpt>
      <trkpt lat="45.215670" lon="-0.506710">
        <time>2017-06-24T10:40:22Z</time>
      </trkpt>
      <trkpt lat="45.216010" lon="-0.506850">
        <time>2017-06-24T10:40:23Z</time>
      </trkpt>
      <trkpt lat="45.216290" lon="-0.506980">
        <time>2017-06-24T10:40:24Z</time>
      </trkpt>
      <trkpt lat="45.216600" lon="-0.507090">
        <time>2017-06-24T10:40:25Z</time>
      </trkpt>
      <trkpt lat="45.216920" lon="-0.507230">
        <time>2017-06-24T10:40:26Z</time>
      </trkpt>
      <trkpt lat="45.217210" lon="-0.507370">
        <time>2017-06-24T10:40:27Z</time>
      </trkpt>
      <trkpt lat="45.217530" lon="-0.507530">
        <time>2017-06-24T10:40:28Z</time>
      </trkpt>
      <trkpt lat="45.217810" lon="-0.507680">
        <time>2017-06-24T10:40:29Z</time>
      </trkpt>
      <trkpt lat="45.218100" lon="-0.507840">
        <time>2017-06-24T10:40:30Z</time>
      </trkpt>
      <trkpt lat="45.218420" lon="-0.508010">
        <time>2017-06-24T10:40:31Z</time>
      </trkpt>
      <trkpt lat="45.218690" lon="-0.508170">
        <time>2017-06-24T10:40:32Z</time>
      </trkpt>
      <trkpt lat="45.218990" lon="-0.508340">
        <time>2017-06-24T10:40:33Z</time>
      </trkpt>
      <trkpt lat="45.219270" lon="-0.508520">
        <time>2017-06-24T10:40:34Z</time>
      </trkpt>
      <trkpt lat="45.219540" lon="-0.508700">
        <time>2017-06-24T10:40:35Z</time>
      </trkpt>
      <trkpt lat="45.219830" lon="-0.508900">
        <time>2017-06-24T10:40:36Z</time>
      </trkpt>
      <trkpt lat="45.220080" lon="-0.509080">
        <time>2017-06-24T10:40:37Z</time>
      </trkpt>
      <trkpt lat="45.220330" lon="-0.509290">
        <time>2017-06-24T10:40:38Z</time>
      </trkpt>
      <trkpt lat="45.220600" lon="-0.509490">
        <time>2017-06-24T10:40:39Z</time>
      </trkpt>
      <trkpt lat="45.220840" lon="-0.509690">
        <time>2017-06-24T10:40:40Z</time>
      </trkpt>
      <trkpt lat="45.221080" lon="-0.509910">
        <time>2017-06-24T10:40:41Z</time>
      </trkpt>
      <trkpt lat="45.221340" lon="-0.510140">
        <time>2017-06-24T10:40:42Z</time>
      </trkpt>
      <trkpt lat="45.221570" lon="-0.510360">
        <time>2017-06-24T10:40:43Z</time>
      </trkpt>
      <trkpt lat="45.221820" lon="-0.510610">
        <time>2017-06-24T10:40:44Z</time>
      </trkpt>
      <trkpt lat="45.222050" lon="-0.510850">
        <time>2017-06-24T10:40:45Z</time>
      </trkpt>
      <trkpt lat="45.222290" lon="-0.511100">
        <time>2017-06-24T10:40:46Z</time>
      </trkpt>
      <trkpt lat="45.222530" lon="-0.511370">
        <time>2017-06-24T10:40:47Z</time>
      </trkpt>
      <trkpt lat="45.222750" lon="-0.511620">
        <time>2017-06-24T10:40:48Z</time>
      </trkpt>
      <trkpt lat="45.222980" lon="-0.511900">
        <time>2017-06-24T10:40:49Z</time>
      </trkpt>
      <trkpt lat="45.223210" lon="-0.512180">
        <time>2017-06-24T10:40:50Z</time>
      </trkpt>
      <trkpt lat="45.223450" lon="-0.512480">
        <time>2017-06-24T10:40:51Z</time>
      </trkpt>
      <trkpt lat="45.223690" lon="-0.512810">
        <time>2017-06-24T10:40:52Z</time>
      </trkpt>
      <trkpt lat="45.223900" lon="-0.513090">
        <time>2017-06-24T10:40:53Z</time>
      </trkpt>
      <trkpt lat="45.224120" lon="-0.513400">
        <time>2017-06-24T10:40:54Z</time>
      </trkpt>
      <trkpt lat="45.224340" lon="-0.513740">
        <time>2017-06-24T10:40:55Z</time>
      </trkpt>
      <trkpt lat="45.224530" lon="-0.514040">
        <time>2017-06-24T10:40:56Z</time>
      </trkpt>
      <trkpt lat="45.224730" lon="-0.514360">
        <time>2017-06-24T10:40:57Z</time>
      </trkpt>
      <trkpt lat="45.224930" lon="-0.514700">
        <time>2017-06-24T10:40:58Z</time>
      </trkpt>
      <trkpt lat="45.225110" lon="-0.515000">
        <time>2017-06-24T10:40:59Z</time>
      </trkpt>
      <trkpt lat="45.225310" lon="-0.515340">
        <time>2017-06-24T10:41:00Z</time>
      </trkpt>
      <trkpt lat="45.225480" lon="-0.515650">
        <time>2017-06-24T10:41:01Z</time>
      </trkpt>
      <trkpt lat="45.225660" lon="-0.515970">
        <time>2017-06-24T10:41:02Z</time>
      </trkpt>
      <trkpt lat="45.225850" lon="-0.516310">
        <time>2017-06-24T10:41:03Z</time>
      </trkpt>
      <trkpt lat="45.226010" lon="-0.516610">
        <time>2017-06-24T10:41:04Z</time>
      </trkpt>
      <trkpt lat="45.226180" lon="-0.516940">
        <time>2017-06-24T10:41:05Z</time>
      </trkpt>
      <trkpt lat="45.226350" lon="-0.517260">
        <time>2017-06-24T10:41:06Z</time>
      </trkpt>
      <trkpt lat="45.226520" lon="-0.517580">
        <time>2017-06-24T10:41:07Z</time>
      </trkpt>
      <trkpt lat="45.226710" lon="-0.517930">
        <time>2017-06-24T10:41:08Z</time>
      </trkpt>
      <trkpt lat="45.226870" lon="-0.518240">
        <time>2017-06-24T10:41:09Z</time>
      </trkpt>
      <trkpt lat="45.227040" lon="-0.518560">
        <time>2017-06-24T10:41:10Z</time>
      </trkpt>
      <trkpt lat="45.227220" lon="-0.518910">
        <time>2017-06-24T10:41:11Z</time>
      </trkpt>
      <trkpt lat="45.227380" lon="-0.519210">
        <time>2017-06-24T10:41:12Z</time>
      </trkpt>
      <trkpt lat="45.227550" lon="-0.519530">
        <time>2017-06-24T10:41:13Z</time>
      </trkpt>
      <trkpt lat="45.227740" lon="-0.519870">
        <time>2017-06-24T10:41:14Z</time>
      </trkpt>
      <trkpt lat="45.227910" lon="-0.520170">
        <time>2017-06-24T10:41:15Z</time>
      </trkpt>
      <trkpt lat="45.228100" lon="-0.520520">
        <time>2017-06-24T10:41:16Z</time>
      </trkpt>
      <trkpt lat="45.228270" lon="-0.520810">
        <time>2017-06-24T10:41:17Z</time>
      </trkpt>
      <trkpt lat="45.228450" lon="-0.521130">
        <time>2017-06-24T10:41:18Z</time>
      </trkpt>
      <trkpt lat="45.228650" lon="-0.521470">
        <time>2017-06-24T10:41:19Z</time>
      </trkpt>
      <trkpt lat="45.228820" lon="-0.521760">
        <time>2017-06-24T10:41:20Z</time>
      </trkpt>
      <trkpt lat="45.229020" lon="-0.522080">
        <time>2017-06-24T10:41:21Z</time>
      </trkpt>
      <trkpt lat="45.229210" lon="-0.522370">
        <time>2017-06-24T10:41:22Z</time>
      </trkpt>
      <trkpt lat="45.229400" lon="-0.522670">
        <time>2017-06-24T10:41:23Z</time>
      </trkpt>
      <trkpt lat="45.229620" lon="-0.522980">
        <time>2017-06-24T10:41:24Z</time>
      </trkpt>
      <trkpt lat="45.229810" lon="-0.523260">
        <time>2017-06-24T10:41:25Z</time>
      </trkpt>
      <trkpt lat="45.230020" lon="-0.523540">
        <time>2017-06-24T10:41:26Z</time>
      </trkpt>
      <trkpt lat="45.230250" lon="-0.523840">
        <time>2017-06-24T10:41:27Z</time>
      </trkpt>
      <trkpt lat="45.230450" lon="-0.524090">
        <time>2017-06-24T10:41:28Z</time>
      </trkpt>
      <trkpt lat="45.230660" lon="-0.524370">
        <time>2017-06-24T10:41:29Z</time>
      </trkpt>
      <trkpt lat="45.230900" lon="-0.524660">
        <time>2017-06-24T10:41:30Z</time>
      </trkpt>
      <trkpt lat="45.231100" lon="-0.524900">
        <time>2017-06-24T10:41:31Z</time>
      </trkpt>
      <trkpt lat="45.231330" lon="-0.525180">
        <time>2017-06-24T10:41:32Z</time>
      </trkpt>
      <trkpt lat="45.231550" lon="-0.525430">
        <time>2017-06-24T10:41:33Z</time>
      </trkpt>
      <trkpt lat="45.231780" lon="-0.525680">
        <time>2017-06-24T10:41:34Z</time>
      </trkpt>
      <trkpt lat="45.232030" lon="-0.525940">
        <time>2017-06-24T10:41:35Z</time>
      </trkpt>
      <trkpt lat="45.232260" lon="-0.526170">
        <time>2017-06-24T10:41:36Z</time>
      </trkpt>
      <trkpt lat="45.232490" lon="-0.526400">
        <time>2017-06-24T10:41:37Z</time>
      </trkpt>
      <trkpt lat="45.232740" lon="-0.526630">
        <time>2017-06-24T10:41:38Z</time>
      </trkpt>
      <trkpt lat="45.232980" lon="-0.526860">
        <time>2017-06-24T10:41:39Z</time>
      </trkpt>
      <trkpt lat="45.233250" lon="-0.527100">
        <time>2017-06-24T10:41:40Z</time>
      </trkpt>
      <trkpt lat="45.233480" lon="-0.527290">
        <time>2017-06-24T10:41:41Z</time>
      </trkpt>
      <trkpt lat="45.233730" lon="-0.527500">
        <time>2017-06-24T10:41:42Z</time>
      </trkpt>
      <trkpt lat="45.234010" lon="-0.527720">
        <time>2017-06-24T10:41:43Z</time>
      </trkpt>
      <trkpt lat="45.234250" lon="-0.527900">
        <time>2017-06-24T10:41:44Z</time>
      </trkpt>
      <trkpt lat="45.234500" lon="-0.528090">
        <time>2017-06-24T10:41:45Z</time>
      </trkpt>
      <trkpt lat="45.234770" lon="-0.528280">
        <time>2017-06-24T10:41:46Z</time>
      </trkpt>
      <trkpt lat="45.235020" lon="-0.528460">
        <time>2017-06-24T10:41:47Z</time>
      </trkpt>
      <trkpt lat="45.235290" lon="-0.528660">
        <time>2017-06-24T10:41:48Z</time>
      </trkpt>
      <trkpt lat="45.235540" lon="-0.528840">
        <time>2017-06-24T10:41:49Z</time>
      </trkpt>
      <trkpt lat="45.235800" lon="-0.529030">
        <time>2017-06-24T10:41:50Z</time>
      </trkpt>
      <trkpt lat="45.236080" lon="-0.529230">
        <time>2017-06-24T10:41:51Z</time>
      </trkpt>
      <trkpt lat="45.236330" lon="-0.529400">
        <time>2017-06-24T10:41:52Z</time>
      </trkpt>
      <trkpt lat="45.236610" lon="-0.529590">
        <time>2017-06-24T10:41:53Z</time>
      </trkpt>
      <trkpt lat="45.236880" lon="-0.529780">
        <time>2017-06-24T10:41:54Z</time>
      </trkpt>
      <trkpt lat="45.237140" lon="-0.529960">
        <time>2017-06-24T10:41:55Z</time>
      </trkpt>
      <trkpt lat="45.237430" lon="-0.530160">
        <time>2017-06-24T10:41:56Z</time>
      </trkpt>
      <trkpt lat="45.237680" lon="-0.530340">
        <time>2017-06-24T10:41:57Z</time>
      </trkpt>
      <trkpt lat="45.237940" lon="-0.530530">
        <time>2017-06-24T10:41:58Z</time>
      </trkpt>
      <trkpt lat="45.238230" lon="-0.530730">
        <time>2017-06-24T10:41:59Z</time>
      </trkpt>
      <trkpt lat="45.238480" lon="-0.530900">
        <time>2017-06-24T10:42:00Z</time>
      </trkpt>
      <trkpt lat="45.238750" lon="-0.531080">
        <time>2017-06-24T10:42:01Z</time>
      </trkpt>
      <trkpt lat="45.239030" lon="-0.531270">
        <time>2017-06-24T10:42:02Z</time>
      </trkpt>
      <trkpt lat="45.239280" lon="-0.531450">
        <time>2017-06-24T10:42:03Z</time>
      </trkpt>
      <trkpt lat="45.239570" lon="-0.531640">
        <time>2017-06-24T10:42:04Z</time>
      </trkpt>
      <trkpt lat="45.239810" lon="-0.531810">
        <time>2017-06-24T10:42:05Z</time>
      </trkpt>
      <trkpt lat="45.240070" lon="-0.532000">
        <time>2017-06-24T10:42:06Z</time>
      </trkpt>
      <trkpt lat="45.240350" lon="-0.532200">
        <time>2017-06-24T10:42:07Z</time>
      </trkpt>
      <trkpt lat="45.240600" lon="-0.532380">
        <time>2017-06-24T10:42:08Z</time>
      </trkpt>
      <trkpt lat="45.240880" lon="-0.532580">
        <time>2017-06-24T10:42:09Z</time>
      </trkpt>
      <trkpt lat="45.241160" lon="-0.532790">
        <time>2017-06-24T10:42:10Z</time>
      </trkpt>
      <trkpt lat="45.241450" lon="-0.532990">
        <time>2017-06-24T10:42:11Z</time>
      </trkpt>
      <trkpt lat="45.241750" lon="-0.533200">
        <time>2017-06-24T10:42:12Z</time>
      </trkpt>
      <trkpt lat="45.242020" lon="-0.533400">
        <time>2017-06-24T10:42:13Z</time>
      </trkpt>
      <trkpt lat="45.242320" lon="-0.533610">
        <time>2017-06-24T10:42:14Z</time>
      </trkpt>
      <trkpt lat="45.242630" lon="-0.533840">
        <time>2017-06-24T10:42:15Z</time>
      </trkpt>
      <trkpt lat="45.242900" lon="-0.534050">
        <time>2017-06-24T10:42:16Z</time>
      </trkpt>
      <trkpt lat="45.243190" lon="-0.534270">
        <time>2017-06-24T10:42:17Z</time>
      </trkpt>
      <trkpt lat="45.243500" lon="-0.534490">
        <time>2017-06-24T10:42:18Z</time>
      </trkpt>
      <trkpt lat="45.243770" lon="-0.534690">
        <time>2017-06-24T10:42:19Z</time>
      </trkpt>
      <trkpt lat="45.244080" lon="-0.534910">
        <time>2017-06-24T10:42:20Z</time>
      </trkpt>
      <trkpt lat="45.244350" lon="-0.535100">
        <time>2017-06-24T10:42:21Z</time>
      </trkpt>
      <trkpt lat="45.244640" lon="-0.535300">
        <time>2017-06-24T10:42:22Z</time>
      </trkpt>
      <trkpt lat="45.244950" lon="-0.535510">
        <time>2017-06-24T10:42:23Z</time>
      </trkpt>
      <trkpt lat="45.245220" lon="-0.535700">
        <time>2017-06-24T10:42:24Z</time>
      </trkpt>
      <trkpt lat="45.245510" lon="-0.535910">
        <time>2017-06-24T10:42:25Z</time>
      </trkpt>
      <trkpt lat="45.245800" lon="-0.536090">
        <time>2017-06-24T10:42:26Z</time>
      </trkpt>
      <trkpt lat="45.246090" lon="-0.536290">
        <time>2017-06-24T10:42:27Z</time>
      </trkpt>
      <trkpt lat="45.246410" lon="-0.536500">
        <time>2017-06-24T10:42:28Z</time>
      </trkpt>
      <trkpt lat="45.246680" lon="-0.536690">
        <time>2017-06-24T10:42:29Z</time>
      </trkpt>
      <trkpt lat="45.246970" lon="-0.536890">
        <time>2017-06-24T10:42:30Z</time>
      </trkpt>
      <trkpt lat="45.247270" lon="-0.537100">
        <time>2017-06-24T10:42:31Z</time>
      </trkpt>
      <trkpt lat="45.247540" lon="-0.537300">
        <time>2017-06-24T10:42:32Z</time>
      </trkpt>
      <trkpt lat="45.247820" lon="-0.537500">
        <time>2017-06-24T10:42:33Z</time>
      </trkpt>
      <trkpt lat="45.248110" lon="-0.537710">
        <time>2017-06-24T10:42:34Z</time>
      </trkpt>
      <trkpt lat="45.248380" lon="-0.537890">
        <time>2017-06-24T10:42:35Z</time>
      </trkpt>
      <trkpt lat="45.248680" lon="-0.538100">
        <time>2017-06-24T10:42:36Z</time>
      </trkpt>
      <trkpt lat="45.248950" lon="-0.538300">
        <time>2017-06-24T10:42:37Z</time>
      </trkpt>
      <trkpt lat="45.249240" lon="-0.538510">
        <time>2017-06-24T10:42:38Z</time>
      </trkpt>
      <trkpt lat="45.249550" lon="-0.538750">
        <time>2017-06-24T10:42:39Z</time>
      </trkpt>
      <trkpt lat="45.249820" lon="-0.538950">
        <time>2017-06-24T10:42:40Z</time>
      </trkpt>
      <trkpt lat="45.250110" lon="-0.539170">
        <time>2017-06-24T10:42:41Z</time>
      </trkpt>
      <trkpt lat="45.250410" lon="-0.539390">
        <time>2017-06-24T10:42:42Z</time>
      </trkpt>
      <trkpt lat="45.250710" lon="-0.539610">
        <time>2017-06-24T10:42:43Z</time>
      </trkpt>
      <trkpt lat="45.251040" lon="-0.539840">
        <time>2017-06-24T10:42:44Z</time>
      </trkpt>
      <trkpt lat="45.251320" lon="-0.540030">
        <time>2017-06-24T10:42:45Z</time>
      </trkpt>
      <trkpt lat="45.251620" lon="-0.540240">
        <time>2017-06-24T10:42:46Z</time>
      </trkpt>
      <trkpt lat="45.251950" lon="-0.540460">
        <time>2017-06-24T10:42:47Z</time>
      </trkpt>
      <trkpt lat="45.252230" lon="-0.540650">
        <time>2017-06-24T10:42:48Z</time>
      </trkpt>
      <trkpt lat="45.252540" lon="-0.540860">
        <time>2017-06-24T10:42:49Z</time>
      </trkpt>
      <trkpt lat="45.252850" lon="-0.541080">
        <time>2017-06-24T10:42:50Z</time>
      </trkpt>
      <trkpt lat="45.253140" lon="-0.541280">
        <time>2017-06-24T10:42:51Z</time>
      </trkpt>
      <trkpt lat="45.253460" lon="-0.541490">
        <time>2017-06-24T10:42:52Z</time>
      </trkpt>
      <trkpt lat="45.253740" lon="-0.541680">
        <time>2017-06-24T10:42:53Z</time>
      </trkpt>
      <trkpt lat="45.254040" lon="-0.541880">
        <time>2017-06-24T10:42:54Z</time>
      </trkpt>
      <trkpt lat="45.254360" lon="-0.542090">
        <time>2017-06-24T10:42:55Z</time>
      </trkpt>
      <trkpt lat="45.254630" lon="-0.542280">
        <time>2017-06-24T10:42:56Z</time>
      </trkpt>
      <trkpt lat="45.254920" lon="-0.542490">
        <time>2017-06-24T10:42:57Z</time>
      </trkpt>
      <trkpt lat="45.255210" lon="-0.542690">
        <time>2017-06-24T10:42:58Z</time>
      </trkpt>
      <trkpt lat="45.255500" lon="-0.542880">
        <time>2017-06-24T10:42:59Z</time>
      </trkpt>
      <trkpt lat="45.255800" lon="-0.543100">
        <time>2017-06-24T10:43:00Z</time>
      </trkpt>
      <trkpt lat="45.256080" lon="-0.543290">
        <time>2017-06-24T10:43:01Z</time>
      </trkpt>
      <trkpt lat="45.256360" lon="-0.543490">
        <time>2017-06-24T10:43:02Z</time>
      </trkpt>
      <trkpt lat="45.256680" lon="-0.543710">
        <time>2017-06-24T10:43:03Z</time>
      </trkpt>
      <trkpt lat="45.256950" lon="-0.543900">
        <time>2017-06-24T10:43:04Z</time>
      </trkpt>
      <trkpt lat="45.257260" lon="-0.544110">
        <time>2017-06-24T10:43:05Z</time>
      </trkpt>
      <trkpt lat="45.257580" lon="-0.544350">
        <time>2017-06-24T10:43:06Z</time>
      </trkpt>
      <trkpt lat="45.257860" lon="-0.544540">
        <time>2017-06-24T10:43:07Z</time>
      </trkpt>
      <trkpt lat="45.258180" lon="-0.544760">
        <time>2017-06-24T10:43:08Z</time>
      </trkpt>
      <trkpt lat="45.258460" lon="-0.544940">
        <time>2017-06-24T10:43:09Z</time>
      </trkpt>
      <trkpt lat="45.258770" lon="-0.545130">
        <time>2017-06-24T10:43:10Z</time>
      </trkpt>
      <trkpt lat="45.259100" lon="-0.545340">
        <time>2017-06-24T10:43:11Z</time>
      </trkpt>
      <trkpt lat="45.259390" lon="-0.545510">
        <time>2017-06-24T10:43:12Z</time>
      </trkpt>
      <trkpt lat="45.259710" lon="-0.545690">
        <time>2017-06-24T10:43:13Z</time>
      </trkpt>
      <trkpt lat="45.260030" lon="-0.545870">
        <time>2017-06-24T10:43:14Z</time>
      </trkpt>
      <trkpt lat="45.260350" lon="-0.546050">
        <time>2017-06-24T10:43:15Z</time>
      </trkpt>
      <trkpt lat="45.260690" lon="-0.546220">
        <time>2017-06-24T10:43:16Z</time>
      </trkpt>
      <trkpt lat="45.261000" lon="-0.546380">
        <time>2017-06-24T10:43:17Z</time>
      </trkpt>
      <trkpt lat="45.261320" lon="-0.546550">
        <time>2017-06-24T10:43:18Z</time>
      </trkpt>
      <trkpt lat="45.261670" lon="-0.546720">
        <time>2017-06-24T10:43:19Z</time>
      </trkpt>
      <trkpt lat="45.261970" lon="-0.546880">
        <time>2017-06-24T10:43:20Z</time>
      </trkpt>
      <trkpt lat="45.262300" lon="-0.547040">
        <time>2017-06-24T10:43:21Z</time>
      </trkpt>
      <trkpt lat="45.262640" lon="-0.547200">
        <time>2017-06-24T10:43:22Z</time>
      </trkpt>
      <trkpt lat="45.262950" lon="-0.547330">
        <time>2017-06-24T10:43:23Z</time>
      </trkpt>
      <trkpt lat="45.263300" lon="-0.547480">
        <time>2017-06-24T10:43:24Z</time>
      </trkpt>
      <trkpt lat="45.263600" lon="-0.547610">
        <time>2017-06-24T10:43:25Z</time>
      </trkpt>
      <trkpt lat="45.263920" lon="-0.547750">
        <time>2017-06-24T10:43:26Z</time>
      </trkpt>
      <trkpt lat="45.264260" lon="-0.547880">
        <time>2017-06-24T10:43:27Z</time>
      </trkpt>
      <trkpt lat="45.264560" lon="-0.548000">
        <time>2017-06-24T10:43:28Z</time>
      </trkpt>
      <trkpt lat="45.264870" lon="-0.548130">
        <time>2017-06-24T10:43:29Z</time>
      </trkpt>
      <trkpt lat="45.265180" lon="-0.548250">
        <time>2017-06-24T10:43:30Z</time>
      </trkpt>
      <trkpt lat="45.265490" lon="-0.548370">
        <time>2017-06-24T10:43:31Z</time>
      </trkpt>
      <trkpt lat="45.265830" lon="-0.548480">
        <time>2017-06-24T10:43:32Z</time>
      </trkpt>
      <trkpt lat="45.266120" lon="-0.548580">
        <time>2017-06-24T10:43:33Z</time>
      </trkpt>
      <trkpt lat="45.266440" lon="-0.548690">
        <time>2017-06-24T10:43:34Z</time>
      </trkpt>
      <trkpt lat="45.266780" lon="-0.548800">
        <time>2017-06-24T10:43:35Z</time>
      </trkpt>
      <trkpt lat="45.267080" lon="-0.548890">
        <time>2017-06-24T10:43:36Z</time>
      </trkpt>
      <trkpt lat="45.267400" lon="-0.549000">
        <time>2017-06-24T10:43:37Z</time>
      </trkpt>
      <trkpt lat="45.267750" lon="-0.549100">
        <time>2017-06-24T10:43:38Z</time>
      </trkpt>
      <trkpt lat="45.268050" lon="-0.549190">
        <time>2017-06-24T10:43:39Z</time>
      </trkpt>
      <trkpt lat="45.268390" lon="-0.549280">
        <time>2017-06-24T10:43:40Z</time>
      </trkpt>
      <trkpt lat="45.268700" lon="-0.549360">
        <time>2017-06-24T10:43:41Z</time>
      </trkpt>
      <trkpt lat="45.269020" lon="-0.549430">
        <time>2017-06-24T10:43:42Z</time>
      </trkpt>
      <trkpt lat="45.269360" lon="-0.549510">
        <time>2017-06-24T10:43:43Z</time>
      </trkpt>
      <trkpt lat="45.269660" lon="-0.549580">
        <time>2017-06-24T10:43:44Z</time>
      </trkpt>
      <trkpt lat="45.269980" lon="-0.549650">
        <time>2017-06-24T10:43:45Z</time>
      </trkpt>
      <trkpt lat="45.270290" lon="-0.549710">
        <time>2017-06-24T10:43:46Z</time>
      </trkpt>
      <trkpt lat="45.270620" lon="-0.549770">
        <time>2017-06-24T10:43:47Z</time>
      </trkpt>
      <trkpt lat="45.270960" lon="-0.549840">
        <time>2017-06-24T10:43:48Z</time>
      </trkpt>
      <trkpt lat="45.271270" lon="-0.549900">
        <time>2017-06-24T10:43:49Z</time>
      </trkpt>
      <trkpt lat="45.271600" lon="-0.549960">
        <time>2017-06-24T10:43:50Z</time>
      </trkpt>
      <trkpt lat="45.271950" lon="-0.550010">
        <time>2017-06-24T10:43:51Z</time>
      </trkpt>
      <trkpt lat="45.272260" lon="-0.550050">
        <time>2017-06-24T10:43:52Z</time>
      </trkpt>
      <trkpt lat="45.272580" lon="-0.550090">
        <time>2017-06-24T10:43:53Z</time>
      </trkpt>
      <trkpt lat="45.272930" lon="-0.550140">
        <time>2017-06-24T10:43:54Z</time>
      </trkpt>
      <trkpt lat="45.273240" lon="-0.550170">
        <time>2017-06-24T10:43:55Z</time>
      </trkpt>
      <trkpt lat="45.273590" lon="-0.550210">
        <time>2017-06-24T10:43:56Z</time>
      </trkpt>
      <trkpt lat="45.273890" lon="-0.550240">
        <time>2017-06-24T10:43:57Z</time>
      </trkpt>
      <trkpt lat="45.274220" lon="-0.550280">
        <time>2017-06-24T10:43:58Z</time>
      </trkpt>
      <trkpt lat="45.274570" lon="-0.550310">
        <time>2017-06-24T10:43:59Z</time>
      </trkpt>
      <trkpt lat="45.274880" lon="-0.550330">
        <time>2017-06-24T10:44:00Z</time>
      </trkpt>
      <trkpt lat="45.275200" lon="-0.550360">
        <time>2017-06-24T10:44:01Z</time>
      </trkpt>
      <trkpt lat="45.275530" lon="-0.550380">
        <time>2017-06-24T10:44:02Z</time>
      </trkpt>
      <trkpt lat="45.275870" lon="-0.550400">
        <time>2017-06-24T10:44:03Z</time>
      </trkpt>
      <trkpt lat="45.276230" lon="-0.550430">
        <time>2017-06-24T10:44:04Z</time>
      </trkpt>
      <trkpt lat="45.276540" lon="-0.550430">
        <time>2017-06-24T10:44:05Z</time>
      </trkpt>
      <trkpt lat="45.276880" lon="-0.550440">
        <time>2017-06-24T10:44:06Z</time>
      </trkpt>
      <trkpt lat="45.277230" lon="-0.550450">
        <time>2017-06-24T10:44:07Z</time>
      </trkpt>
      <trkpt lat="45.277540" lon="-0.550470">
        <time>2017-06-24T10:44:08Z</time>
      </trkpt>
      <trkpt lat="45.277880" lon="-0.550490">
        <time>2017-06-24T10:44:09Z</time>
      </trkpt>
      <trkpt lat="45.278220" lon="-0.550510">
        <time>2017-06-24T10:44:10Z</time>
      </trkpt>
      <trkpt lat="45.278530" lon="-0.550520">
        <time>2017-06-24T10:44:11Z</time>
      </trkpt>
      <trkpt lat="45.278880" lon="-0.550540">
        <time>2017-06-24T10:44:12Z</time>
      </trkpt>
      <trkpt lat="45.279180" lon="-0.550560">
        <time>2017-06-24T10:44:13Z</time>
      </trkpt>
      <trkpt lat="45.279510" lon="-0.550590">
        <time>2017-06-24T10:44:14Z</time>
      </trkpt>
      <trkpt lat="45.279850" lon="-0.550610">
        <time>2017-06-24T10:44:15Z</time>
      </trkpt>
      <trkpt lat="45.280160" lon="-0.550630">
        <time>2017-06-24T10:44:16Z</time>
      </trkpt>
      <trkpt lat="45.280490" lon="-0.550660">
        <time>2017-06-24T10:44:17Z</time>
      </trkpt>
      <trkpt lat="45.280810" lon="-0.550680">
        <time>2017-06-24T10:44:18Z</time>
      </trkpt>
      <trkpt lat="45.281140" lon="-0.550720">
        <time>2017-06-24T10:44:19Z</time>
      </trkpt>
      <trkpt lat="45.281480" lon="-0.550750">
        <time>2017-06-24T10:44:20Z</time>
      </trkpt>
      <trkpt lat="45.281780" lon="-0.550780">
        <time>2017-06-24T10:44:21Z</time>
      </trkpt>
      <trkpt lat="45.282110" lon="-0.550810">
        <time>2017-06-24T10:44:22Z</time>
      </trkpt>
      <trkpt lat="45.282450" lon="-0.550840">
        <time>2017-06-24T10:44:23Z</time>
      </trkpt>
      <trkpt lat="45.282760" lon="-0.550860">
        <time>2017-06-24T10:44:24Z</time>
      </trkpt>
      <trkpt lat="45.283080" lon="-0.550890">
        <time>2017-06-24T10:44:25Z</time>
      </trkpt>
      <trkpt lat="45.283410" lon="-0.550920">
        <time>2017-06-24T10:44:26Z</time>
      </trkpt>
      <trkpt lat="45.283710" lon="-0.550940">
        <time>2017-06-24T10:44:27Z</time>
      </trkpt>
      <trkpt lat="45.284040" lon="-0.550980">
        <time>2017-06-24T10:44:28Z</time>
      </trkpt>
      <trkpt lat="45.284330" lon="-0.551010">
        <time>2017-06-24T10:44:29Z</time>
      </trkpt>
      <trkpt lat="45.284640" lon="-0.551050">
        <time>2017-06-24T10:44:30Z</time>
      </trkpt>
      <trkpt lat="45.284970" lon="-0.551090">
        <time>2017-06-24T10:44:31Z</time>
      </trkpt>
      <trkpt lat="45.285260" lon="-0.551130">
        <time>2017-06-24T10:44:32Z</time>
      </trkpt>
      <trkpt lat="45.285560" lon="-0.551170">
        <time>2017-06-24T10:44:33Z</time>
      </trkpt>
      <trkpt lat="45.285870" lon="-0.551210">
        <time>2017-06-24T10:44:34Z</time>
      </trkpt>
      <trkpt lat="45.286190" lon="-0.551260">
        <time>2017-06-24T10:44:35Z</time>
      </trkpt>
      <trkpt lat="45.286520" lon="-0.551300">
        <time>2017-06-24T10:44:36Z</time>
      </trkpt>
      <trkpt lat="45.286810" lon="-0.551330">
        <time>2017-06-24T10:44:37Z</time>
      </trkpt>
      <trkpt lat="45.287120" lon="-0.551380">
        <time>2017-06-24T10:44:38Z</time>
      </trkpt>
      <trkpt lat="45.287450" lon="-0.551450">
        <time>2017-06-24T10:44:39Z</time>
      </trkpt>
      <trkpt lat="45.287740" lon="-0.551510">
        <time>2017-06-24T10:44:40Z</time>
      </trkpt>
      <trkpt lat="45.288050" lon="-0.551580">
        <time>2017-06-24T10:44:41Z</time>
      </trkpt>
      <trkpt lat="45.288380" lon="-0.551660">
        <time>2017-06-24T10:44:42Z</time>
      </trkpt>
      <trkpt lat="45.288660" lon="-0.551730">
        <time>2017-06-24T10:44:43Z</time>
      </trkpt>
      <trkpt lat="45.288990" lon="-0.551810">
        <time>2017-06-24T10:44:44Z</time>
      </trkpt>
      <trkpt lat="45.289280" lon="-0.551890">
        <time>2017-06-24T10:44:45Z</time>
      </trkpt>
      <trkpt lat="45.289580" lon="-0.551970">
        <time>2017-06-24T10:44:46Z</time>
      </trkpt>
      <trkpt lat="45.289910" lon="-0.552070">
        <time>2017-06-24T10:44:47Z</time>
      </trkpt>
      <trkpt lat="45.290190" lon="-0.552150">
        <time>2017-06-24T10:44:48Z</time>
      </trkpt>
      <trkpt lat="45.290510" lon="-0.552250">
        <time>2017-06-24T10:44:49Z</time>
      </trkpt>
      <trkpt lat="45.290810" lon="-0.552340">
        <time>2017-06-24T10:44:50Z</time>
      </trkpt>
      <trkpt lat="45.291130" lon="-0.552440">
        <time>2017-06-24T10:44:51Z</time>
      </trkpt>
      <trkpt lat="45.291460" lon="-0.552560">
        <time>2017-06-24T10:44:52Z</time>
      </trkpt>
      <trkpt lat="45.291750" lon="-0.552660">
        <time>2017-06-24T10:44:53Z</time>
      </trkpt>
      <trkpt lat="45.292060" lon="-0.552770">
        <time>2017-06-24T10:44:54Z</time>
      </trkpt>
      <trkpt lat="45.292380" lon="-0.552890">
        <time>2017-06-24T10:44:55Z</time>
      </trkpt>
      <trkpt lat="45.292680" lon="-0.553000">
        <time>2017-06-24T10:44:56Z</time>
      </trkpt>
      <trkpt lat="45.292980" lon="-0.553120">
        <time>2017-06-24T10:44:57Z</time>
      </trkpt>
      <trkpt lat="45.293300" lon="-0.553240">
        <time>2017-06-24T10:44:58Z</time>
      </trkpt>
      <trkpt lat="45.293590" lon="-0.553350">
        <time>2017-06-24T10:44:59Z</time>
      </trkpt>
      <trkpt lat="45.293910" lon="-0.553480">
        <time>2017-06-24T10:45:00Z</time>
      </trkpt>
      <trkpt lat="45.294200" lon="-0.553590">
        <time>2017-06-24T10:45:01Z</time>
      </trkpt>
      <trkpt lat="45.294500" lon="-0.553720">
        <time>2017-06-24T10:45:02Z</time>
      </trkpt>
      <trkpt lat="45.294810" lon="-0.553850">
        <time>2017-06-24T10:45:03Z</time>
      </trkpt>
      <trkpt lat="45.295090" lon="-0.553960">
        <time>2017-06-24T10:45:04Z</time>
      </trkpt>
      <trkpt lat="45.295380" lon="-0.554080">
        <time>2017-06-24T10:45:05Z</time>
      </trkpt>
      <trkpt lat="45.295670" lon="-0.554200">
        <time>2017-06-24T10:45:06Z</time>
      </trkpt>
      <trkpt lat="45.295960" lon="-0.554320">
        <time>2017-06-24T10:45:07Z</time>
      </trkpt>
      <trkpt lat="45.296270" lon="-0.554450">
        <time>2017-06-24T10:45:08Z</time>
      </trkpt>
      <trkpt lat="45.296540" lon="-0.554560">
        <time>2017-06-24T10:45:09Z</time>
      </trkpt>
      <trkpt lat="45.296830" lon="-0.554670">
        <time>2017-06-24T10:45:10Z</time>
      </trkpt>
      <trkpt lat="45.297140" lon="-0.554800">
        <time>2017-06-24T10:45:11Z</time>
      </trkpt>
      <trkpt lat="45.297400" lon="-0.554920">
        <time>2017-06-24T10:45:12Z</time>
      </trkpt>
      <trkpt lat="45.297700" lon="-0.555040">
        <time>2017-06-24T10:45:13Z</time>
      </trkpt>
      <trkpt lat="45.298000" lon="-0.555170">
        <time>2017-06-24T10:45:14Z</time>
      </trkpt>
      <trkpt lat="45.298260" lon="-0.555290">
        <time>2017-06-24T10:45:15Z</time>
      </trkpt>
      <trkpt lat="45.298560" lon="-0.555410">
        <time>2017-06-24T10:45:16Z</time>
      </trkpt>
      <trkpt lat="45.298820" lon="-0.555520">
        <time>2017-06-24T10:45:17Z</time>
      </trkpt>
      <trkpt lat="45.299100" lon="-0.555620">
        <time>2017-06-24T10:45:18Z</time>
      </trkpt>
      <trkpt lat="45.299390" lon="-0.555740">
        <time>2017-06-24T10:45:19Z</time>
      </trkpt>
      <trkpt lat="45.299650" lon="-0.555850">
        <time>2017-06-24T10:45:20Z</time>
      </trkpt>
      <trkpt lat="45.299930" lon="-0.555950">
        <time>2017-06-24T10:45:21Z</time>
      </trkpt>
      <trkpt lat="45.300210" lon="-0.556060">
        <time>2017-06-24T10:45:22Z</time>
      </trkpt>
      <trkpt lat="45.300490" lon="-0.556160">
        <time>2017-06-24T10:45:23Z</time>
      </trkpt>
      <trkpt lat="45.300780" lon="-0.556260">
        <time>2017-06-24T10:45:24Z</time>
      </trkpt>
      <trkpt lat="45.301030" lon="-0.556350">
        <time>2017-06-24T10:45:25Z</time>
      </trkpt>
      <trkpt lat="45.301310" lon="-0.556460">
        <time>2017-06-24T10:45:26Z</time>
      </trkpt>
      <trkpt lat="45.301620" lon="-0.556560">
        <time>2017-06-24T10:45:27Z</time>
      </trkpt>
      <trkpt lat="45.301880" lon="-0.556650">
        <time>2017-06-24T10:45:28Z</time>
      </trkpt>
      <trkpt lat="45.302170" lon="-0.556750">
        <time>2017-06-24T10:45:29Z</time>
      </trkpt>
      <trkpt lat="45.302490" lon="-0.556860">
        <time>2017-06-24T10:45:30Z</time>
      </trkpt>
      <trkpt lat="45.302770" lon="-0.556950">
        <time>2017-06-24T10:45:31Z</time>
      </trkpt>
      <trkpt lat="45.303080" lon="-0.557070">
        <time>2017-06-24T10:45:32Z</time>
      </trkpt>
      <trkpt lat="45.303370" lon="-0.557150">
        <time>2017-06-24T10:45:33Z</time>
      </trkpt>
      <trkpt lat="45.303670" lon="-0.557240">
        <time>2017-06-24T10:45:34Z</time>
      </trkpt>
      <trkpt lat="45.303990" lon="-0.557320">
        <time>2017-06-24T10:45:35Z</time>
      </trkpt>
      <trkpt lat="45.304280" lon="-0.557390">
        <time>2017-06-24T10:45:36Z</time>
      </trkpt>
      <trkpt lat="45.304580" lon="-0.557460">
        <time>2017-06-24T10:45:37Z</time>
      </trkpt>
      <trkpt lat="45.304880" lon="-0.557530">
        <time>2017-06-24T10:45:38Z</time>
      </trkpt>
      <trkpt lat="45.305180" lon="-0.557600">
        <time>2017-06-24T10:45:39Z</time>
      </trkpt>
      <trkpt lat="45.305500" lon="-0.557680">
        <time>2017-06-24T10:45:40Z</time>
      </trkpt>
      <trkpt lat="45.305790" lon="-0.557740">
        <time>2017-06-24T10:45:41Z</time>
      </trkpt>
      <trkpt lat="45.306090" lon="-0.557800">
        <time>2017-06-24T10:45:42Z</time>
      </trkpt>
      <trkpt lat="45.306410" lon="-0.557850">
        <time>2017-06-24T10:45:43Z</time>
      </trkpt>
      <trkpt lat="45.306700" lon="-0.557900">
        <time>2017-06-24T10:45:44Z</time>
      </trkpt>
      <trkpt lat="45.307000" lon="-0.557950">
        <time>2017-06-24T10:45:45Z</time>
      </trkpt>
      <trkpt lat="45.307330" lon="-0.557990">
        <time>2017-06-24T10:45:46Z</time>
      </trkpt>
      <trkpt lat="45.307620" lon="-0.558020">
        <time>2017-06-24T10:45:47Z</time>
      </trkpt>
      <trkpt lat="45.307940" lon="-0.558050">
        <time>2017-06-24T10:45:48Z</time>
      </trkpt>
      <trkpt lat="45.308220" lon="-0.558090">
        <time>2017-06-24T10:45:49Z</time>
      </trkpt>
      <trkpt lat="45.308520" lon="-0.558130">
        <time>2017-06-24T10:45:50Z</time>
      </trkpt>
      <trkpt lat="45.308840" lon="-0.558170">
        <time>2017-06-24T10:45:51Z</time>
      </trkpt>
      <trkpt lat="45.309120" lon="-0.558200">
        <time>2017-06-24T10:45:52Z</time>
      </trkpt>
      <trkpt lat="45.309420" lon="-0.558240">
        <time>2017-06-24T10:45:53Z</time>
      </trkpt>
      <trkpt lat="45.309720" lon="-0.558280">
        <time>2017-06-24T10:45:54Z</time>
      </trkpt>
      <trkpt lat="45.310020" lon="-0.558320">
        <time>2017-06-24T10:45:55Z</time>
      </trkpt>
      <trkpt lat="45.310340" lon="-0.558350">
        <time>2017-06-24T10:45:56Z</time>
      </trkpt>
      <trkpt lat="45.310630" lon="-0.558370">
        <time>2017-06-24T10:45:57Z</time>
      </trkpt>
      <trkpt lat="45.310930" lon="-0.558400">
        <time>2017-06-24T10:45:58Z</time>
      </trkpt>
      <trkpt lat="45.311260" lon="-0.558440">
        <time>2017-06-24T10:45:59Z</time>
      </trkpt>
      <trkpt lat="45.311560" lon="-0.558470">
        <time>2017-06-24T10:46:00Z</time>
      </trkpt>
      <trkpt lat="45.311860" lon="-0.558500">
        <time>2017-06-24T10:46:01Z</time>
      </trkpt>
      <trkpt lat="45.312200" lon="-0.558550">
        <time>2017-06-24T10:46:02Z</time>
      </trkpt>
      <trkpt lat="45.312480" lon="-0.558580">
        <time>2017-06-24T10:46:03Z</time>
      </trkpt>
      <trkpt lat="45.312810" lon="-0.558620">
        <time>2017-06-24T10:46:04Z</time>
      </trkpt>
      <trkpt lat="45.313100" lon="-0.558650">
        <time>2017-06-24T10:46:05Z</time>
      </trkpt>
      <trkpt lat="45.313400" lon="-0.558700">
        <time>2017-06-24T10:46:06Z</time>
      </trkpt>
      <trkpt lat="45.313730" lon="-0.558750">
        <time>2017-06-24T10:46:07Z</time>
      </trkpt>
      <trkpt lat="45.314010" lon="-0.558780">
        <time>2017-06-24T10:46:08Z</time>
      </trkpt>
      <trkpt lat="45.314320" lon="-0.558820">
        <time>2017-06-24T10:46:09Z</time>
      </trkpt>
      <trkpt lat="45.314630" lon="-0.558870">
        <time>2017-06-24T10:46:10Z</time>
      </trkpt>
      <trkpt lat="45.314940" lon="-0.558930">
        <time>2017-06-24T10:46:11Z</time>
      </trkpt>
      <trkpt lat="45.315270" lon="-0.559000">
        <time>2017-06-24T10:46:12Z</time>
      </trkpt>
      <trkpt lat="45.315570" lon="-0.559060">
        <time>2017-06-24T10:46:13Z</time>
      </trkpt>
      <trkpt lat="45.315880" lon="-0.559140">
        <time>2017-06-24T10:46:14Z</time>
      </trkpt>
      <trkpt lat="45.316220" lon="-0.559220">
        <time>2017-06-24T10:46:15Z</time>
      </trkpt>
      <trkpt lat="45.316500" lon="-0.559290">
        <time>2017-06-24T10:46:16Z</time>
      </trkpt>
      <trkpt lat="45.316810" lon="-0.559370">
        <time>2017-06-24T10:46:17Z</time>
      </trkpt>
      <trkpt lat="45.317140" lon="-0.559470">
        <time>2017-06-24T10:46:18Z</time>
      </trkpt>
      <trkpt lat="45.317420" lon="-0.559560">
        <time>2017-06-24T10:46:19Z</time>
      </trkpt>
      <trkpt lat="45.317740" lon="-0.559660">
        <time>2017-06-24T10:46:20Z</time>
      </trkpt>
      <trkpt lat="45.318020" lon="-0.559760">
        <time>2017-06-24T10:46:21Z</time>
      </trkpt>
      <trkpt lat="45.318320" lon="-0.559860">
        <time>2017-06-24T10:46:22Z</time>
      </trkpt>
      <trkpt lat="45.318640" lon="-0.559980">
        <time>2017-06-24T10:46:23Z</time>
      </trkpt>
      <trkpt lat="45.318920" lon="-0.560090">
        <time>2017-06-24T10:46:24Z</time>
      </trkpt>
      <trkpt lat="45.319220" lon="-0.560220">
        <time>2017-06-24T10:46:25Z</time>
      </trkpt>
      <trkpt lat="45.319520" lon="-0.560350">
        <time>2017-06-24T10:46:26Z</time>
      </trkpt>
      <trkpt lat="45.319820" lon="-0.560490">
        <time>2017-06-24T10:46:27Z</time>
      </trkpt>
      <trkpt lat="45.320130" lon="-0.560640">
        <time>2017-06-24T10:46:28Z</time>
      </trkpt>
      <trkpt lat="45.320400" lon="-0.560780">
        <time>2017-06-24T10:46:29Z</time>
      </trkpt>
      <trkpt lat="45.320680" lon="-0.560930">
        <time>2017-06-24T10:46:30Z</time>
      </trkpt>
      <trkpt lat="45.320980" lon="-0.561090">
        <time>2017-06-24T10:46:31Z</time>
      </trkpt>
      <trkpt lat="45.321250" lon="-0.561220">
        <time>2017-06-24T10:46:32Z</time>
      </trkpt>
      <trkpt lat="45.321530" lon="-0.561380">
        <time>2017-06-24T10:46:33Z</time>
      </trkpt>
      <trkpt lat="45.321820" lon="-0.561540">
        <time>2017-06-24T10:46:34Z</time>
      </trkpt>
      <trkpt lat="45.322080" lon="-0.561690">
        <time>2017-06-24T10:46:35Z</time>
      </trkpt>
      <trkpt lat="45.322370" lon="-0.561870">
        <time>2017-06-24T10:46:36Z</time>
      </trkpt>
      <trkpt lat="45.322630" lon="-0.562030">
        <time>2017-06-24T10:46:37Z</time>
      </trkpt>
      <trkpt lat="45.322900" lon="-0.562200">
        <time>2017-06-24T10:46:38Z</time>
      </trkpt>
      <trkpt lat="45.323190" lon="-0.562400">
        <time>2017-06-24T10:46:39Z</time>
      </trkpt>
      <trkpt lat="45.323440" lon="-0.562570">
        <time>2017-06-24T10:46:40Z</time>
      </trkpt>
      <trkpt lat="45.323710" lon="-0.562760">
        <time>2017-06-24T10:46:41Z</time>
      </trkpt>
      <trkpt lat="45.323970" lon="-0.562940">
        <time>2017-06-24T10:46:42Z</time>
      </trkpt>
      <trkpt lat="45.324220" lon="-0.563130">
        <time>2017-06-24T10:46:43Z</time>
      </trkpt>
      <trkpt lat="45.324490" lon="-0.563340">
        <time>2017-06-24T10:46:44Z</time>
      </trkpt>
      <trkpt lat="45.324730" lon="-0.563520">
        <time>2017-06-24T10:46:45Z</time>
      </trkpt>
      <trkpt lat="45.324980" lon="-0.563730">
        <time>2017-06-24T10:46:46Z</time>
      </trkpt>
      <trkpt lat="45.325260" lon="-0.563940">
        <time>2017-06-24T10:46:47Z</time>
      </trkpt>
      <trkpt lat="45.325500" lon="-0.564130">
        <time>2017-06-24T10:46:48Z</time>
      </trkpt>
      <trkpt lat="45.325750" lon="-0.564330">
        <time>2017-06-24T10:46:49Z</time>
      </trkpt>
      <trkpt lat="45.326030" lon="-0.564550">
        <time>2017-06-24T10:46:50Z</time>
      </trkpt>
      <trkpt lat="45.326280" lon="-0.564750">
        <time>2017-06-24T10:46:51Z</time>
      </trkpt>
      <trkpt lat="45.326550" lon="-0.564970">
        <time>2017-06-24T10:46:52Z</time>
      </trkpt>
      <trkpt lat="45.326790" lon="-0.565160">
        <time>2017-06-24T10:46:53Z</time>
      </trkpt>
      <trkpt lat="45.327050" lon="-0.565370">
        <time>2017-06-24T10:46:54Z</time>
      </trkpt>
      <trkpt lat="45.327330" lon="-0.565590">
        <time>2017-06-24T10:46:55Z</time>
      </trkpt>
      <trkpt lat="45.327570" lon="-0.565780">
        <time>2017-06-24T10:46:56Z</time>
      </trkpt>
      <trkpt lat="45.327830" lon="-0.565980">
        <time>2017-06-24T10:46:57Z</time>
      </trkpt>
      <trkpt lat="45.328090" lon="-0.566180">
        <time>2017-06-24T10:46:58Z</time>
      </trkpt>
      <trkpt lat="45.328360" lon="-0.566380">
        <time>2017-06-24T10:46:59Z</time>
      </trkpt>
      <trkpt lat="45.328640" lon="-0.566580">
        <time>2017-06-24T10:47:00Z</time>
      </trkpt>
      <trkpt lat="45.328890" lon="-0.566760">
        <time>2017-06-24T10:47:01Z</time>
      </trkpt>
      <trkpt lat="45.329160" lon="-0.566950">
        <time>2017-06-24T10:47:02Z</time>
      </trkpt>
      <trkpt lat="45.329440" lon="-0.567150">
        <time>2017-06-24T10:47:03Z</time>
      </trkpt>
      <trkpt lat="45.329680" lon="-0.567320">
        <time>2017-06-24T10:47:04Z</time>
      </trkpt>
      <trkpt lat="45.329960" lon="-0.567490">
        <time>2017-06-24T10:47:05Z</time>
      </trkpt>
      <trkpt lat="45.330250" lon="-0.567660">
        <time>2017-06-24T10:47:06Z</time>
      </trkpt>
      <trkpt lat="45.330510" lon="-0.567810">
        <time>2017-06-24T10:47:07Z</time>
      </trkpt>
      <trkpt lat="45.330800" lon="-0.567980">
        <time>2017-06-24T10:47:08Z</time>
      </trkpt>
      <trkpt lat="45.331060" lon="-0.568130">
        <time>2017-06-24T10:47:09Z</time>
      </trkpt>
      <trkpt lat="45.331340" lon="-0.568300">
        <time>2017-06-24T10:47:10Z</time>
      </trkpt>
      <trkpt lat="45.331650" lon="-0.568460">
        <time>2017-06-24T10:47:11Z</time>
      </trkpt>
      <trkpt lat="45.331910" lon="-0.568590">
        <time>2017-06-24T10:47:12Z</time>
      </trkpt>
      <trkpt lat="45.332190" lon="-0.568740">
        <time>2017-06-24T10:47:13Z</time>
      </trkpt>
      <trkpt lat="45.332480" lon="-0.568880">
        <time>2017-06-24T10:47:14Z</time>
      </trkpt>
      <trkpt lat="45.332770" lon="-0.569010">
        <time>2017-06-24T10:47:15Z</time>
      </trkpt>
      <trkpt lat="45.333080" lon="-0.569150">
        <time>2017-06-24T10:47:16Z</time>
      </trkpt>
      <trkpt lat="45.333350" lon="-0.569270">
        <time>2017-06-24T10:47:17Z</time>
      </trkpt>
      <trkpt lat="45.333640" lon="-0.569390">
        <time>2017-06-24T10:47:18Z</time>
      </trkpt>
      <trkpt lat="45.333940" lon="-0.569520">
        <time>2017-06-24T10:47:19Z</time>
      </trkpt>
      <trkpt lat="45.334220" lon="-0.569620">
        <time>2017-06-24T10:47:20Z</time>
      </trkpt>
      <trkpt lat="45.334510" lon="-0.569730">
        <time>2017-06-24T10:47:21Z</time>
      </trkpt>
      <trkpt lat="45.334820" lon="-0.569840">
        <time>2017-06-24T10:47:22Z</time>
      </trkpt>
      <trkpt lat="45.335090" lon="-0.569930">
        <time>2017-06-24T10:47:23Z</time>
      </trkpt>
      <trkpt lat="45.335410" lon="-0.570040">
        <time>2017-06-24T10:47:24Z</time>
      </trkpt>
      <trkpt lat="45.335680" lon="-0.570140">
        <time>2017-06-24T10:47:25Z</time>
      </trkpt>
      <trkpt lat="45.335980" lon="-0.570230">
        <time>2017-06-24T10:47:26Z</time>
      </trkpt>
      <trkpt lat="45.336290" lon="-0.570330">
        <time>2017-06-24T10:47:27Z</time>
      </trkpt>
      <trkpt lat="45.336570" lon="-0.570420">
        <time>2017-06-24T10:47:28Z</time>
      </trkpt>
      <trkpt lat="45.336860" lon="-0.570520">
        <time>2017-06-24T10:47:29Z</time>
      </trkpt>
      <trkpt lat="45.337160" lon="-0.570610">
        <time>2017-06-24T10:47:30Z</time>
      </trkpt>
      <trkpt lat="45.337460" lon="-0.570710">
        <time>2017-06-24T10:47:31Z</time>
      </trkpt>
      <trkpt lat="45.337770" lon="-0.570810">
        <time>2017-06-24T10:47:32Z</time>
      </trkpt>
      <trkpt lat="45.338050" lon="-0.570900">
        <time>2017-06-24T10:47:33Z</time>
      </trkpt>
      <trkpt lat="45.338340" lon="-0.571000">
        <time>2017-06-24T10:47:34Z</time>
      </trkpt>
      <trkpt lat="45.338660" lon="-0.571120">
        <time>2017-06-24T10:47:35Z</time>
      </trkpt>
      <trkpt lat="45.338930" lon="-0.571220">
        <time>2017-06-24T10:47:36Z</time>
      </trkpt>
      <trkpt lat="45.339220" lon="-0.571340">
        <time>2017-06-24T10:47:37Z</time>
      </trkpt>
      <trkpt lat="45.339530" lon="-0.571470">
        <time>2017-06-24T10:47:38Z</time>
      </trkpt>
      <trkpt lat="45.339800" lon="-0.571600">
        <time>2017-06-24T10:47:39Z</time>
      </trkpt>
      <trkpt lat="45.340110" lon="-0.571750">
        <time>2017-06-24T10:47:40Z</time>
      </trkpt>
      <trkpt lat="45.340370" lon="-0.571880">
        <time>2017-06-24T10:47:41Z</time>
      </trkpt>
      <trkpt lat="45.340650" lon="-0.572040">
        <time>2017-06-24T10:47:42Z</time>
      </trkpt>
      <trkpt lat="45.340950" lon="-0.572200">
        <time>2017-06-24T10:47:43Z</time>
      </trkpt>
      <trkpt lat="45.341200" lon="-0.572350">
        <time>2017-06-24T10:47:44Z</time>
      </trkpt>
      <trkpt lat="45.341470" lon="-0.572520">
        <time>2017-06-24T10:47:45Z</time>
      </trkpt>
      <trkpt lat="45.341740" lon="-0.572700">
        <time>2017-06-24T10:47:46Z</time>
      </trkpt>
      <trkpt lat="45.342020" lon="-0.572880">
        <time>2017-06-24T10:47:47Z</time>
      </trkpt>
      <trkpt lat="45.342300" lon="-0.573090">
        <time>2017-06-24T10:47:48Z</time>
      </trkpt>
      <trkpt lat="45.342550" lon="-0.573290">
        <time>2017-06-24T10:47:49Z</time>
      </trkpt>
      <trkpt lat="45.342820" lon="-0.573520">
        <time>2017-06-24T10:47:50Z</time>
      </trkpt>
      <trkpt lat="45.343100" lon="-0.573760">
        <time>2017-06-24T10:47:51Z</time>
      </trkpt>
      <trkpt lat="45.343340" lon="-0.573970">
        <time>2017-06-24T10:47:52Z</time>
      </trkpt>
      <trkpt lat="45.343600" lon="-0.574190">
        <time>2017-06-24T10:47:53Z</time>
      </trkpt>
      <trkpt lat="45.343880" lon="-0.574440">
        <time>2017-06-24T10:47:54Z</time>
      </trkpt>
      <trkpt lat="45.344120" lon="-0.574660">
        <time>2017-06-24T10:47:55Z</time>
      </trkpt>
      <trkpt lat="45.344410" lon="-0.574910">
        <time>2017-06-24T10:47:56Z</time>
      </trkpt>
      <trkpt lat="45.344650" lon="-0.575130">
        <time>2017-06-24T10:47:57Z</time>
      </trkpt>
      <trkpt lat="45.344910" lon="-0.575360">
        <time>2017-06-24T10:47:58Z</time>
      </trkpt>
      <trkpt lat="45.345170" lon="-0.575630">
        <time>2017-06-24T10:47:59Z</time>
      </trkpt>
      <trkpt lat="45.345400" lon="-0.575860">
        <time>2017-06-24T10:48:00Z</time>
      </trkpt>
      <trkpt lat="45.345640" lon="-0.576100">
        <time>2017-06-24T10:48:01Z</time>
      </trkpt>
      <trkpt lat="45.345880" lon="-0.576340">
        <time>2017-06-24T10:48:02Z</time>
      </trkpt>
      <trkpt lat="45.346110" lon="-0.576590">
        <time>2017-06-24T10:48:03Z</time>
      </trkpt>
      <trkpt lat="45.346350" lon="-0.576850">
        <time>2017-06-24T10:48:04Z</time>
      </trkpt>
      <trkpt lat="45.346570" lon="-0.577080">
        <time>2017-06-24T10:48:05Z</time>
      </trkpt>
      <trkpt lat="45.346800" lon="-0.577330">
        <time>2017-06-24T10:48:06Z</time>
      </trkpt>
      <trkpt lat="45.347050" lon="-0.577580">
        <time>2017-06-24T10:48:07Z</time>
      </trkpt>
      <trkpt lat="45.347260" lon="-0.577810">
        <time>2017-06-24T10:48:08Z</time>
      </trkpt>
      <trkpt lat="45.347490" lon="-0.578050">
        <time>2017-06-24T10:48:09Z</time>
      </trkpt>
      <trkpt lat="45.347740" lon="-0.578310">
        <time>2017-06-24T10:48:10Z</time>
      </trkpt>
      <trkpt lat="45.347960" lon="-0.578530">
        <time>2017-06-24T10:48:11Z</time>
      </trkpt>
      <trkpt lat="45.348210" lon="-0.578790">
        <time>2017-06-24T10:48:12Z</time>
      </trkpt>
      <trkpt lat="45.348430" lon="-0.579010">
        <time>2017-06-24T10:48:13Z</time>
      </trkpt>
      <trkpt lat="45.348670" lon="-0.579250">
        <time>2017-06-24T10:48:14Z</time>
      </trkpt>
      <trkpt lat="45.348930" lon="-0.579500">
        <time>2017-06-24T10:48:15Z</time>
      </trkpt>
      <trkpt lat="45.349150" lon="-0.579720">
        <time>2017-06-24T10:48:16Z</time>
      </trkpt>
      <trkpt lat="45.349390" lon="-0.579960">
        <time>2017-06-24T10:48:17Z</time>
      </trkpt>
      <trkpt lat="45.349640" lon="-0.580190">
        <time>2017-06-24T10:48:18Z</time>
      </trkpt>
      <trkpt lat="45.349880" lon="-0.580410">
        <time>2017-06-24T10:48:19Z</time>
      </trkpt>
      <trkpt lat="45.350150" lon="-0.580650">
        <time>2017-06-24T10:48:20Z</time>
      </trkpt>
      <trkpt lat="45.350380" lon="-0.580850">
        <time>2017-06-24T10:48:21Z</time>
      </trkpt>
      <trkpt lat="45.350630" lon="-0.581070">
        <time>2017-06-24T10:48:22Z</time>
      </trkpt>
      <trkpt lat="45.350900" lon="-0.581310">
        <time>2017-06-24T10:48:23Z</time>
      </trkpt>
      <trkpt lat="45.351140" lon="-0.581510">
        <time>2017-06-24T10:48:24Z</time>
      </trkpt>
      <trkpt lat="45.351400" lon="-0.581730">
        <time>2017-06-24T10:48:25Z</time>
      </trkpt>
      <trkpt lat="45.351680" lon="-0.581960">
        <time>2017-06-24T10:48:26Z</time>
      </trkpt>
      <trkpt lat="45.351920" lon="-0.582160">
        <time>2017-06-24T10:48:27Z</time>
      </trkpt>
      <trkpt lat="45.352200" lon="-0.582380">
        <time>2017-06-24T10:48:28Z</time>
      </trkpt>
      <trkpt lat="45.352450" lon="-0.582580">
        <time>2017-06-24T10:48:29Z</time>
      </trkpt>
      <trkpt lat="45.352720" lon="-0.582790">
        <time>2017-06-24T10:48:30Z</time>
      </trkpt>
      <trkpt lat="45.353010" lon="-0.583010">
        <time>2017-06-24T10:48:31Z</time>
      </trkpt>
      <trkpt lat="45.353260" lon="-0.583190">
        <time>2017-06-24T10:48:32Z</time>
      </trkpt>
      <trkpt lat="45.353520" lon="-0.583380">
        <time>2017-06-24T10:48:33Z</time>
      </trkpt>
      <trkpt lat="45.353790" lon="-0.583570">
        <time>2017-06-24T10:48:34Z</time>
      </trkpt>
      <trkpt lat="45.354060" lon="-0.583750">
        <time>2017-06-24T10:48:35Z</time>
      </trkpt>
      <trkpt lat="45.354350" lon="-0.583950">
        <time>2017-06-24T10:48:36Z</time>
      </trkpt>
      <trkpt lat="45.354600" lon="-0.584110">
        <time>2017-06-24T10:48:37Z</time>
      </trkpt>
      <trkpt lat="45.354880" lon="-0.584290">
        <time>2017-06-24T10:48:38Z</time>
      </trkpt>
      <trkpt lat="45.355170" lon="-0.584470">
        <time>2017-06-24T10:48:39Z</time>
      </trkpt>
      <trkpt lat="45.355420" lon="-0.584630">
        <time>2017-06-24T10:48:40Z</time>
      </trkpt>
      <trkpt lat="45.355700" lon="-0.584810">
        <time>2017-06-24T10:48:41Z</time>
      </trkpt>
      <trkpt lat="45.356000" lon="-0.584970">
        <time>2017-06-24T10:48:42Z</time>
      </trkpt>
      <trkpt lat="45.356260" lon="-0.585120">
        <time>2017-06-24T10:48:43Z</time>
      </trkpt>
      <trkpt lat="45.356570" lon="-0.585290">
        <time>2017-06-24T10:48:44Z</time>
      </trkpt>
      <trkpt lat="45.356830" lon="-0.585430">
        <time>2017-06-24T10:48:45Z</time>
      </trkpt>
      <trkpt lat="45.357110" lon="-0.585580">
        <time>2017-06-24T10:48:46Z</time>
      </trkpt>
      <trkpt lat="45.357420" lon="-0.585740">
        <time>2017-06-24T10:48:47Z</time>
      </trkpt>
      <trkpt lat="45.357690" lon="-0.585870">
        <time>2017-06-24T10:48:48Z</time>
      </trkpt>
      <trkpt lat="45.357970" lon="-0.586010">
        <time>2017-06-24T10:48:49Z</time>
      </trkpt>
      <trkpt lat="45.358260" lon="-0.586140">
        <time>2017-06-24T10:48:50Z</time>
      </trkpt>
      <trkpt lat="45.358550" lon="-0.586280">
        <time>2017-06-24T10:48:51Z</time>
      </trkpt>
      <trkpt lat="45.358850" lon="-0.586420">
        <time>2017-06-24T10:48:52Z</time>
      </trkpt>
      <trkpt lat="45.359120" lon="-0.586550">
        <time>2017-06-24T10:48:53Z</time>
      </trkpt>
      <trkpt lat="45.359410" lon="-0.586680">
        <time>2017-06-24T10:48:54Z</time>
      </trkpt>
      <trkpt lat="45.359710" lon="-0.586830">
        <time>2017-06-24T10:48:55Z</time>
      </trkpt>
      <trkpt lat="45.359980" lon="-0.586960">
        <time>2017-06-24T10:48:56Z</time>
      </trkpt>
      <trkpt lat="45.360260" lon="-0.587080">
        <time>2017-06-24T10:48:57Z</time>
      </trkpt>
      <trkpt lat="45.360560" lon="-0.587220">
        <time>2017-06-24T10:48:58Z</time>
      </trkpt>
      <trkpt lat="45.360830" lon="-0.587350">
        <time>2017-06-24T10:48:59Z</time>
      </trkpt>
      <trkpt lat="45.361130" lon="-0.587490">
        <time>2017-06-24T10:49:00Z</time>
      </trkpt>
      <trkpt lat="45.361390" lon="-0.587610">
        <time>2017-06-24T10:49:01Z</time>
      </trkpt>
      <trkpt lat="45.361670" lon="-0.587740">
        <time>2017-06-24T10:49:02Z</time>
      </trkpt>
      <trkpt lat="45.361970" lon="-0.587880">
        <time>2017-06-24T10:49:03Z</time>
      </trkpt>
      <trkpt lat="45.362230" lon="-0.588000">
        <time>2017-06-24T10:49:04Z</time>
      </trkpt>
      <trkpt lat="45.362510" lon="-0.588130">
        <time>2017-06-24T10:49:05Z</time>
      </trkpt>
      <trkpt lat="45.362780" lon="-0.588250">
        <time>2017-06-24T10:49:06Z</time>
      </trkpt>
      <trkpt lat="45.363060" lon="-0.588380">
        <time>2017-06-24T10:49:07Z</time>
      </trkpt>
      <trkpt lat="45.363350" lon="-0.588520">
        <time>2017-06-24T10:49:08Z</time>
      </trkpt>
      <trkpt lat="45.363620" lon="-0.588640">
        <time>2017-06-24T10:49:09Z</time>
      </trkpt>
      <trkpt lat="45.363900" lon="-0.588770">
        <time>2017-06-24T10:49:10Z</time>
      </trkpt>
      <trkpt lat="45.364190" lon="-0.588910">
        <time>2017-06-24T10:49:11Z</time>
      </trkpt>
      <trkpt lat="45.364450" lon="-0.589030">
        <time>2017-06-24T10:49:12Z</time>
      </trkpt>
      <trkpt lat="45.364720" lon="-0.589160">
        <time>2017-06-24T10:49:13Z</time>
      </trkpt>
      <trkpt lat="45.365020" lon="-0.589300">
        <time>2017-06-24T10:49:14Z</time>
      </trkpt>
      <trkpt lat="45.365280" lon="-0.589420">
        <time>2017-06-24T10:49:15Z</time>
      </trkpt>
      <trkpt lat="45.365580" lon="-0.589570">
        <time>2017-06-24T10:49:16Z</time>
      </trkpt>
      <trkpt lat="45.365840" lon="-0.589690">
        <time>2017-06-24T10:49:17Z</time>
      </trkpt>
      <trkpt lat="45.366120" lon="-0.589830">
        <time>2017-06-24T10:49:18Z</time>
      </trkpt>
      <trkpt lat="45.366420" lon="-0.589980">
        <time>2017-06-24T10:49:19Z</time>
      </trkpt>
      <trkpt lat="45.366680" lon="-0.590130">
        <time>2017-06-24T10:49:20Z</time>
      </trkpt>
      <trkpt lat="45.366960" lon="-0.590290">
        <time>2017-06-24T10:49:21Z</time>
      </trkpt>
      <trkpt lat="45.367250" lon="-0.590450">
        <time>2017-06-24T10:49:22Z</time>
      </trkpt>
      <trkpt lat="45.367530" lon="-0.590610">
        <time>2017-06-24T10:49:23Z</time>
      </trkpt>
      <trkpt lat="45.367830" lon="-0.590780">
        <time>2017-06-24T10:49:24Z</time>
      </trkpt>
      <trkpt lat="45.368090" lon="-0.590930">
        <time>2017-06-24T10:49:25Z</time>
      </trkpt>
      <trkpt lat="45.368370" lon="-0.591090">
        <time>2017-06-24T10:49:26Z</time>
      </trkpt>
      <trkpt lat="45.368670" lon="-0.591280">
        <time>2017-06-24T10:49:27Z</time>
      </trkpt>
      <trkpt lat="45.368930" lon="-0.591440">
        <time>2017-06-24T10:49:28Z</time>
      </trkpt>
      <trkpt lat="45.369210" lon="-0.591610">
        <time>2017-06-24T10:49:29Z</time>
      </trkpt>
      <trkpt lat="45.369500" lon="-0.591810">
        <time>2017-06-24T10:49:30Z</time>
      </trkpt>
      <trkpt lat="45.369760" lon="-0.591970">
        <time>2017-06-24T10:49:31Z</time>
      </trkpt>
      <trkpt lat="45.370050" lon="-0.592170">
        <time>2017-06-24T10:49:32Z</time>
      </trkpt>
      <trkpt lat="45.370290" lon="-0.592340">
        <time>2017-06-24T10:49:33Z</time>
      </trkpt>
      <trkpt lat="45.370560" lon="-0.592530">
        <time>2017-06-24T10:49:34Z</time>
      </trkpt>
      <trkpt lat="45.370850" lon="-0.592740">
        <time>2017-06-24T10:49:35Z</time>
      </trkpt>
      <trkpt lat="45.371110" lon="-0.592930">
        <time>2017-06-24T10:49:36Z</time>
      </trkpt>
      <trkpt lat="45.371380" lon="-0.593120">
        <time>2017-06-24T10:49:37Z</time>
      </trkpt>
      <trkpt lat="45.371650" lon="-0.593320">
        <time>2017-06-24T10:49:38Z</time>
      </trkpt>
      <trkpt lat="45.371910" lon="-0.593530">
        <time>2017-06-24T10:49:39Z</time>
      </trkpt>
      <trkpt lat="45.372190" lon="-0.593760">
        <time>2017-06-24T10:49:40Z</time>
      </trkpt>
      <trkpt lat="45.372430" lon="-0.593960">
        <time>2017-06-24T10:49:41Z</time>
      </trkpt>
      <trkpt lat="45.372690" lon="-0.594180">
        <time>2017-06-24T10:49:42Z</time>
      </trkpt>
      <trkpt lat="45.372960" lon="-0.594420">
        <time>2017-06-24T10:49:43Z</time>
      </trkpt>
      <trkpt lat="45.373200" lon="-0.594630">
        <time>2017-06-24T10:49:44Z</time>
      </trkpt>
      <trkpt lat="45.373460" lon="-0.594860">
        <time>2017-06-24T10:49:45Z</time>
      </trkpt>
      <trkpt lat="45.373730" lon="-0.595100">
        <time>2017-06-24T10:49:46Z</time>
      </trkpt>
      <trkpt lat="45.373980" lon="-0.595320">
        <time>2017-06-24T10:49:47Z</time>
      </trkpt>
      <trkpt lat="45.374250" lon="-0.595570">
        <time>2017-06-24T10:49:48Z</time>
      </trkpt>
      <trkpt lat="45.374500" lon="-0.595790">
        <time>2017-06-24T10:49:49Z</time>
      </trkpt>
      <trkpt lat="45.374760" lon="-0.596030">
        <time>2017-06-24T10:49:50Z</time>
      </trkpt>
      <trkpt lat="45.375040" lon="-0.596290">
        <time>2017-06-24T10:49:51Z</time>
      </trkpt>
      <trkpt lat="45.375290" lon="-0.596520">
        <time>2017-06-24T10:49:52Z</time>
      </trkpt>
      <trkpt lat="45.375550" lon="-0.596770">
        <time>2017-06-24T10:49:53Z</time>
      </trkpt>
      <trkpt lat="45.375820" lon="-0.597010">
        <time>2017-06-24T10:49:54Z</time>
      </trkpt>
      <trkpt lat="45.376080" lon="-0.597260">
        <time>2017-06-24T10:49:55Z</time>
      </trkpt>
      <trkpt lat="45.376370" lon="-0.597520">
        <time>2017-06-24T10:49:56Z</time>
      </trkpt>
      <trkpt lat="45.376610" lon="-0.597740">
        <time>2017-06-24T10:49:57Z</time>
      </trkpt>
      <trkpt lat="45.376880" lon="-0.597980">
        <time>2017-06-24T10:49:58Z</time>
      </trkpt>
      <trkpt lat="45.377170" lon="-0.598230">
        <time>2017-06-24T10:49:59Z</time>
      </trkpt>
      <trkpt lat="45.377420" lon="-0.598450">
        <time>2017-06-24T10:50:00Z</time>
      </trkpt>
      <trkpt lat="45.377690" lon="-0.598680">
        <time>2017-06-24T10:50:01Z</time>
      </trkpt>
      <trkpt lat="45.377980" lon="-0.598920">
        <time>2017-06-24T10:50:02Z</time>
      </trkpt>
      <trkpt lat="45.378230" lon="-0.599130">
        <time>2017-06-24T10:50:03Z</time>
      </trkpt>
      <trkpt lat="45.378520" lon="-0.599370">
        <time>2017-06-24T10:50:04Z</time>
      </trkpt>
      <trkpt lat="45.378780" lon="-0.599580">
        <time>2017-06-24T10:50:05Z</time>
      </trkpt>
      <trkpt lat="45.379050" lon="-0.599790">
        <time>2017-06-24T10:50:06Z</time>
      </trkpt>
      <trkpt lat="45.379340" lon="-0.600010">
        <time>2017-06-24T10:50:07Z</time>
      </trkpt>
      <trkpt lat="45.379600" lon="-0.600200">
        <time>2017-06-24T10:50:08Z</time>
      </trkpt>
      <trkpt lat="45.379880" lon="-0.600400">
        <time>2017-06-24T10:50:09Z</time>
      </trkpt>
      <trkpt lat="45.380170" lon="-0.600600">
        <time>2017-06-24T10:50:10Z</time>
      </trkpt>
      <trkpt lat="45.380450" lon="-0.600780">
        <time>2017-06-24T10:50:11Z</time>
      </trkpt>
      <trkpt lat="45.380750" lon="-0.600980">
        <time>2017-06-24T10:50:12Z</time>
      </trkpt>
      <trkpt lat="45.381010" lon="-0.601150">
        <time>2017-06-24T10:50:13Z</time>
      </trkpt>
      <trkpt lat="45.381300" lon="-0.601320">
        <time>2017-06-24T10:50:14Z</time>
      </trkpt>
      <trkpt lat="45.381600" lon="-0.601510">
        <time>2017-06-24T10:50:15Z</time>
      </trkpt>
      <trkpt lat="45.381870" lon="-0.601660">
        <time>2017-06-24T10:50:16Z</time>
      </trkpt>
      <trkpt lat="45.382160" lon="-0.601820">
        <time>2017-06-24T10:50:17Z</time>
      </trkpt>
      <trkpt lat="45.382470" lon="-0.601980">
        <time>2017-06-24T10:50:18Z</time>
      </trkpt>
      <trkpt lat="45.382740" lon="-0.602110">
        <time>2017-06-24T10:50:19Z</time>
      </trkpt>
      <trkpt lat="45.383040" lon="-0.602270">
        <time>2017-06-24T10:50:20Z</time>
      </trkpt>
      <trkpt lat="45.383310" lon="-0.602400">
        <time>2017-06-24T10:50:21Z</time>
      </trkpt>
      <trkpt lat="45.383600" lon="-0.602540">
        <time>2017-06-24T10:50:22Z</time>
      </trkpt>
      <trkpt lat="45.383920" lon="-0.602680">
        <time>2017-06-24T10:50:23Z</time>
      </trkpt>
      <trkpt lat="45.384190" lon="-0.602810">
        <time>2017-06-24T10:50:24Z</time>
      </trkpt>
      <trkpt lat="45.384490" lon="-0.602930">
        <time>2017-06-24T10:50:25Z</time>
      </trkpt>
      <trkpt lat="45.384780" lon="-0.603050">
        <time>2017-06-24T10:50:26Z</time>
      </trkpt>
      <trkpt lat="45.385070" lon="-0.603160">
        <time>2017-06-24T10:50:27Z</time>
      </trkpt>
      <trkpt lat="45.385390" lon="-0.603270">
        <time>2017-06-24T10:50:28Z</time>
      </trkpt>
      <trkpt lat="45.385670" lon="-0.603370">
        <time>2017-06-24T10:50:29Z</time>
      </trkpt>
      <trkpt lat="45.385970" lon="-0.603460">
        <time>2017-06-24T10:50:30Z</time>
      </trkpt>
      <trkpt lat="45.386290" lon="-0.603560">
        <time>2017-06-24T10:50:31Z</time>
      </trkpt>
      <trkpt lat="45.386560" lon="-0.603650">
        <time>2017-06-24T10:50:32Z</time>
      </trkpt>
      <trkpt lat="45.386860" lon="-0.603740">
        <time>2017-06-24T10:50:33Z</time>
      </trkpt>
      <trkpt lat="45.387180" lon="-0.603820">
        <time>2017-06-24T10:50:34Z</time>
      </trkpt>
      <trkpt lat="45.387460" lon="-0.603880">
        <time>2017-06-24T10:50:35Z</time>
      </trkpt>
      <trkpt lat="45.387770" lon="-0.603960">
        <time>2017-06-24T10:50:36Z</time>
      </trkpt>
      <trkpt lat="45.388050" lon="-0.604010">
        <time>2017-06-24T10:50:37Z</time>
      </trkpt>
      <trkpt lat="45.388350" lon="-0.604070">
        <time>2017-06-24T10:50:38Z</time>
      </trkpt>
      <trkpt lat="45.388670" lon="-0.604120">
        <time>2017-06-24T10:50:39Z</time>
      </trkpt>
      <trkpt lat="45.388960" lon="-0.604170">
        <time>2017-06-24T10:50:40Z</time>
      </trkpt>
      <trkpt lat="45.389260" lon="-0.604210">
        <time>2017-06-24T10:50:41Z</time>
      </trkpt>
      <trkpt lat="45.389570" lon="-0.604250">
        <time>2017-06-24T10:50:42Z</time>
      </trkpt>
      <trkpt lat="45.389870" lon="-0.604290">
        <time>2017-06-24T10:50:43Z</time>
      </trkpt>
      <trkpt lat="45.390200" lon="-0.604330">
        <time>2017-06-24T10:50:44Z</time>
      </trkpt>
      <trkpt lat="45.390490" lon="-0.604350">
        <time>2017-06-24T10:50:45Z</time>
      </trkpt>
      <trkpt lat="45.390810" lon="-0.604370">
        <time>2017-06-24T10:50:46Z</time>
      </trkpt>
      <trkpt lat="45.391150" lon="-0.604380">
        <time>2017-06-24T10:50:47Z</time>
      </trkpt>
      <trkpt lat="45.391440" lon="-0.604390">
        <time>2017-06-24T10:50:48Z</time>
      </trkpt>
      <trkpt lat="45.391770" lon="-0.604400">
        <time>2017-06-24T10:50:49Z</time>
      </trkpt>
      <trkpt lat="45.392110" lon="-0.604400">
        <time>2017-06-24T10:50:50Z</time>
      </trkpt>
      <trkpt lat="45.392410" lon="-0.604400">
        <time>2017-06-24T10:50:51Z</time>
      </trkpt>
      <trkpt lat="45.392760" lon="-0.604390">
        <time>2017-06-24T10:50:52Z</time>
      </trkpt>
      <trkpt lat="45.393070" lon="-0.604370">
        <time>2017-06-24T10:50:53Z</time>
      </trkpt>
      <trkpt lat="45.393400" lon="-0.604340">
        <time>2017-06-24T10:50:54Z</time>
      </trkpt>
      <trkpt lat="45.393760" lon="-0.604310">
        <time>2017-06-24T10:50:55Z</time>
      </trkpt>
      <trkpt lat="45.394060" lon="-0.604280">
        <time>2017-06-24T10:50:56Z</time>
      </trkpt>
      <trkpt lat="45.394390" lon="-0.604240">
        <time>2017-06-24T10:50:57Z</time>
      </trkpt>
      <trkpt lat="45.394710" lon="-0.604190">
        <time>2017-06-24T10:50:58Z</time>
      </trkpt>
      <trkpt lat="45.395030" lon="-0.604140">
        <time>2017-06-24T10:50:59Z</time>
      </trkpt>
      <trkpt lat="45.395370" lon="-0.604090">
        <time>2017-06-24T10:51:00Z</time>
      </trkpt>
      <trkpt lat="45.395660" lon="-0.604040">
        <time>2017-06-24T10:51:01Z</time>
      </trkpt>
      <trkpt lat="45.395980" lon="-0.603980">
        <time>2017-06-24T10:51:02Z</time>
      </trkpt>
      <trkpt lat="45.396310" lon="-0.603900">
        <time>2017-06-24T10:51:03Z</time>
      </trkpt>
      <trkpt lat="45.396590" lon="-0.603830">
        <time>2017-06-24T10:51:04Z</time>
      </trkpt>
      <trkpt lat="45.396900" lon="-0.603750">
        <time>2017-06-24T10:51:05Z</time>
      </trkpt>
      <trkpt lat="45.397230" lon="-0.603670">
        <time>2017-06-24T10:51:06Z</time>
      </trkpt>
      <trkpt lat="45.397510" lon="-0.603590">
        <time>2017-06-24T10:51:07Z</time>
      </trkpt>
      <trkpt lat="45.397830" lon="-0.603510">
        <time>2017-06-24T10:51:08Z</time>
      </trkpt>
      <trkpt lat="45.398120" lon="-0.603430">
        <time>2017-06-24T10:51:09Z</time>
      </trkpt>
      <trkpt lat="45.398420" lon="-0.603350">
        <time>2017-06-24T10:51:10Z</time>
      </trkpt>
      <trkpt lat="45.398740" lon="-0.603270">
        <time>2017-06-24T10:51:11Z</time>
      </trkpt>
      <trkpt lat="45.399030" lon="-0.603190">
        <time>2017-06-24T10:51:12Z</time>
      </trkpt>
      <trkpt lat="45.399350" lon="-0.603110">
        <time>2017-06-24T10:51:13Z</time>
      </trkpt>
      <trkpt lat="45.399640" lon="-0.603030">
        <time>2017-06-24T10:51:14Z</time>
      </trkpt>
      <trkpt lat="45.399940" lon="-0.602940">
        <time>2017-06-24T10:51:15Z</time>
      </trkpt>
      <trkpt lat="45.400240" lon="-0.602860">
        <time>2017-06-24T10:51:16Z</time>
      </trkpt>
      <trkpt lat="45.400510" lon="-0.602790">
        <time>2017-06-24T10:51:17Z</time>
      </trkpt>
      <trkpt lat="45.400790" lon="-0.602710">
        <time>2017-06-24T10:51:18Z</time>
      </trkpt>
      <trkpt lat="45.401080" lon="-0.602620">
        <time>2017-06-24T10:51:19Z</time>
      </trkpt>
      <trkpt lat="45.401340" lon="-0.602550">
        <time>2017-06-24T10:51:20Z</time>
      </trkpt>
      <trkpt lat="45.401620" lon="-0.602470">
        <time>2017-06-24T10:51:21Z</time>
      </trkpt>
      <trkpt lat="45.401910" lon="-0.602390">
        <time>2017-06-24T10:51:22Z</time>
      </trkpt>
      <trkpt lat="45.402170" lon="-0.602320">
        <time>2017-06-24T10:51:23Z</time>
      </trkpt>
      <trkpt lat="45.402470" lon="-0.602240">
        <time>2017-06-24T10:51:24Z</time>
      </trkpt>
      <trkpt lat="45.402740" lon="-0.602180">
        <time>2017-06-24T10:51:25Z</time>
      </trkpt>
      <trkpt lat="45.403030" lon="-0.602110">
        <time>2017-06-24T10:51:26Z</time>
      </trkpt>
      <trkpt lat="45.403340" lon="-0.602040">
        <time>2017-06-24T10:51:27Z</time>
      </trkpt>
      <trkpt lat="45.403620" lon="-0.601980">
        <time>2017-06-24T10:51:28Z</time>
      </trkpt>
      <trkpt lat="45.403920" lon="-0.601920">
        <time>2017-06-24T10:51:29Z</time>
      </trkpt>
      <trkpt lat="45.404220" lon="-0.601850">
        <time>2017-06-24T10:51:30Z</time>
      </trkpt>
      <trkpt lat="45.404520" lon="-0.601790">
        <time>2017-06-24T10:51:31Z</time>
      </trkpt>
      <trkpt lat="45.404840" lon="-0.601720">
        <time>2017-06-24T10:51:32Z</time>
      </trkpt>
      <trkpt lat="45.405120" lon="-0.601660">
        <time>2017-06-24T10:51:33Z</time>
      </trkpt>
      <trkpt lat="45.405420" lon="-0.601600">
        <time>2017-06-24T10:51:34Z</time>
      </trkpt>
      <trkpt lat="45.405740" lon="-0.601540">
        <time>2017-06-24T10:51:35Z</time>
      </trkpt>
      <trkpt lat="45.406030" lon="-0.601490">
        <time>2017-06-24T10:51:36Z</time>
      </trkpt>
      <trkpt lat="45.406340" lon="-0.601420">
        <time>2017-06-24T10:51:37Z</time>
      </trkpt>
      <trkpt lat="45.406670" lon="-0.601370">
        <time>2017-06-24T10:51:38Z</time>
      </trkpt>
      <trkpt lat="45.406960" lon="-0.601330">
        <time>2017-06-24T10:51:39Z</time>
      </trkpt>
      <trkpt lat="45.407290" lon="-0.601300">
        <time>2017-06-24T10:51:40Z</time>
      </trkpt>
      <trkpt lat="45.407580" lon="-0.601280">
        <time>2017-06-24T10:51:41Z</time>
      </trkpt>
      <trkpt lat="45.407890" lon="-0.601260">
        <time>2017-06-24T10:51:42Z</time>
      </trkpt>
      <trkpt lat="45.408210" lon="-0.601250">
        <time>2017-06-24T10:51:43Z</time>
      </trkpt>
      <trkpt lat="45.408500" lon="-0.601250">
        <time>2017-06-24T10:51:44Z</time>
      </trkpt>
      <trkpt lat="45.408800" lon="-0.601250">
        <time>2017-06-24T10:51:45Z</time>
      </trkpt>
      <trkpt lat="45.409100" lon="-0.601250">
        <time>2017-06-24T10:51:46Z</time>
      </trkpt>
      <trkpt lat="45.409400" lon="-0.601260">
        <time>2017-06-24T10:51:47Z</time>
      </trkpt>
      <trkpt lat="45.409720" lon="-0.601280">
        <time>2017-06-24T10:51:48Z</time>
      </trkpt>
      <trkpt lat="45.410000" lon="-0.601290">
        <time>2017-06-24T10:51:49Z</time>
      </trkpt>
      <trkpt lat="45.410300" lon="-0.601300">
        <time>2017-06-24T10:51:50Z</time>
      </trkpt>
      <trkpt lat="45.410610" lon="-0.601330">
        <time>2017-06-24T10:51:51Z</time>
      </trkpt>
      <trkpt lat="45.410890" lon="-0.601350">
        <time>2017-06-24T10:51:52Z</time>
      </trkpt>
      <trkpt lat="45.411180" lon="-0.601390">
        <time>2017-06-24T10:51:53Z</time>
      </trkpt>
      <trkpt lat="45.411500" lon="-0.601430">
        <time>2017-06-24T10:51:54Z</time>
      </trkpt>
      <trkpt lat="45.411770" lon="-0.601470">
        <time>2017-06-24T10:51:55Z</time>
      </trkpt>
      <trkpt lat="45.412090" lon="-0.601530">
        <time>2017-06-24T10:51:56Z</time>
      </trkpt>
      <trkpt lat="45.412370" lon="-0.601580">
        <time>2017-06-24T10:51:57Z</time>
      </trkpt>
      <trkpt lat="45.412670" lon="-0.601630">
        <time>2017-06-24T10:51:58Z</time>
      </trkpt>
      <trkpt lat="45.412990" lon="-0.601700">
        <time>2017-06-24T10:51:59Z</time>
      </trkpt>
      <trkpt lat="45.413270" lon="-0.601760">
        <time>2017-06-24T10:52:00Z</time>
      </trkpt>
      <trkpt lat="45.413570" lon="-0.601840">
        <time>2017-06-24T10:52:01Z</time>
      </trkpt>
      <trkpt lat="45.413870" lon="-0.601910">
        <time>2017-06-24T10:52:02Z</time>
      </trkpt>
      <trkpt lat="45.414170" lon="-0.601990">
        <time>2017-06-24T10:52:03Z</time>
      </trkpt>
      <trkpt lat="45.414490" lon="-0.602070">
        <time>2017-06-24T10:52:04Z</time>
      </trkpt>
      <trkpt lat="45.414780" lon="-0.602150">
        <time>2017-06-24T10:52:05Z</time>
      </trkpt>
      <trkpt lat="45.415100" lon="-0.602240">
        <time>2017-06-24T10:52:06Z</time>
      </trkpt>
      <trkpt lat="45.415440" lon="-0.602350">
        <time>2017-06-24T10:52:07Z</time>
      </trkpt>
      <trkpt lat="45.415740" lon="-0.602450">
        <time>2017-06-24T10:52:08Z</time>
      </trkpt>
      <trkpt lat="45.416070" lon="-0.602540">
        <time>2017-06-24T10:52:09Z</time>
      </trkpt>
      <trkpt lat="45.416410" lon="-0.602650">
        <time>2017-06-24T10:52:10Z</time>
      </trkpt>
      <trkpt lat="45.416720" lon="-0.602740">
        <time>2017-06-24T10:52:11Z</time>
      </trkpt>
      <trkpt lat="45.417060" lon="-0.602830">
        <time>2017-06-24T10:52:12Z</time>
      </trkpt>
      <trkpt lat="45.417360" lon="-0.602920">
        <time>2017-06-24T10:52:13Z</time>
      </trkpt>
      <trkpt lat="45.417680" lon="-0.603010">
        <time>2017-06-24T10:52:14Z</time>
      </trkpt>
      <trkpt lat="45.418030" lon="-0.603100">
        <time>2017-06-24T10:52:15Z</time>
      </trkpt>
      <trkpt lat="45.418340" lon="-0.603190">
        <time>2017-06-24T10:52:16Z</time>
      </trkpt>
      <trkpt lat="45.418670" lon="-0.603270">
        <time>2017-06-24T10:52:17Z</time>
      </trkpt>
      <trkpt lat="45.418990" lon="-0.603350">
        <time>2017-06-24T10:52:18Z</time>
      </trkpt>
      <trkpt lat="45.419320" lon="-0.603420">
        <time>2017-06-24T10:52:19Z</time>
      </trkpt>
      <trkpt lat="45.419660" lon="-0.603510">
        <time>2017-06-24T10:52:20Z</time>
      </trkpt>
      <trkpt lat="45.419960" lon="-0.603590">
        <time>2017-06-24T10:52:21Z</time>
      </trkpt>
      <trkpt lat="45.420280" lon="-0.603680">
        <time>2017-06-24T10:52:22Z</time>
      </trkpt>
      <trkpt lat="45.420610" lon="-0.603770">
        <time>2017-06-24T10:52:23Z</time>
      </trkpt>
      <trkpt lat="45.420900" lon="-0.603850">
        <time>2017-06-24T10:52:24Z</time>
      </trkpt>
      <trkpt lat="45.421220" lon="-0.603940">
        <time>2017-06-24T10:52:25Z</time>
      </trkpt>
      <trkpt lat="45.421550" lon="-0.604030">
        <time>2017-06-24T10:52:26Z</time>
      </trkpt>
      <trkpt lat="45.421840" lon="-0.604100">
        <time>2017-06-24T10:52:27Z</time>
      </trkpt>
      <trkpt lat="45.422170" lon="-0.604180">
        <time>2017-06-24T10:52:28Z</time>
      </trkpt>
      <trkpt lat="45.422460" lon="-0.604240">
        <time>2017-06-24T10:52:29Z</time>
      </trkpt>
      <trkpt lat="45.422770" lon="-0.604310">
        <time>2017-06-24T10:52:30Z</time>
      </trkpt>
      <trkpt lat="45.423100" lon="-0.604380">
        <time>2017-06-24T10:52:31Z</time>
      </trkpt>
      <trkpt lat="45.423390" lon="-0.604440">
        <time>2017-06-24T10:52:32Z</time>
      </trkpt>
      <trkpt lat="45.423700" lon="-0.604500">
        <time>2017-06-24T10:52:33Z</time>
      </trkpt>
      <trkpt lat="45.424020" lon="-0.604560">
        <time>2017-06-24T10:52:34Z</time>
      </trkpt>
      <trkpt lat="45.424340" lon="-0.604620">
        <time>2017-06-24T10:52:35Z</time>
      </trkpt>
      <trkpt lat="45.424680" lon="-0.604670">
        <time>2017-06-24T10:52:36Z</time>
      </trkpt>
      <trkpt lat="45.424980" lon="-0.604720">
        <time>2017-06-24T10:52:37Z</time>
      </trkpt>
      <trkpt lat="45.425310" lon="-0.604770">
        <time>2017-06-24T10:52:38Z</time>
      </trkpt>
      <trkpt lat="45.425650" lon="-0.604830">
        <time>2017-06-24T10:52:39Z</time>
      </trkpt>
      <trkpt lat="45.425940" lon="-0.604870">
        <time>2017-06-24T10:52:40Z</time>
      </trkpt>
      <trkpt lat="45.426260" lon="-0.604910">
        <time>2017-06-24T10:52:41Z</time>
      </trkpt>
      <trkpt lat="45.426600" lon="-0.604940">
        <time>2017-06-24T10:52:42Z</time>
      </trkpt>
      <trkpt lat="45.426900" lon="-0.604980">
        <time>2017-06-24T10:52:43Z</time>
      </trkpt>
      <trkpt lat="45.427230" lon="-0.605010">
        <time>2017-06-24T10:52:44Z</time>
      </trkpt>
      <trkpt lat="45.427520" lon="-0.605040">
        <time>2017-06-24T10:52:45Z</time>
      </trkpt>
      <trkpt lat="45.427830" lon="-0.605070">
        <time>2017-06-24T10:52:46Z</time>
      </trkpt>
      <trkpt lat="45.428150" lon="-0.605100">
        <time>2017-06-24T10:52:47Z</time>
      </trkpt>
      <trkpt lat="45.428430" lon="-0.605130">
        <time>2017-06-24T10:52:48Z</time>
      </trkpt>
      <trkpt lat="45.428720" lon="-0.605160">
        <time>2017-06-24T10:52:49Z</time>
      </trkpt>
      <trkpt lat="45.429010" lon="-0.605180">
        <time>2017-06-24T10:52:50Z</time>
      </trkpt>
      <trkpt lat="45.429290" lon="-0.605200">
        <time>2017-06-24T10:52:51Z</time>
      </trkpt>
      <trkpt lat="45.429580" lon="-0.605220">
        <time>2017-06-24T10:52:52Z</time>
      </trkpt>
      <trkpt lat="45.429830" lon="-0.605230">
        <time>2017-06-24T10:52:53Z</time>
      </trkpt>
      <trkpt lat="45.430100" lon="-0.605250">
        <time>2017-06-24T10:52:54Z</time>
      </trkpt>
      <trkpt lat="45.430400" lon="-0.605270">
        <time>2017-06-24T10:52:55Z</time>
      </trkpt>
      <trkpt lat="45.430660" lon="-0.605290">
        <time>2017-06-24T10:52:56Z</time>
      </trkpt>
      <trkpt lat="45.430950" lon="-0.605300">
        <time>2017-06-24T10:52:57Z</time>
      </trkpt>
      <trkpt lat="45.431250" lon="-0.605330">
        <time>2017-06-24T10:52:58Z</time>
      </trkpt>
      <trkpt lat="45.431530" lon="-0.605340">
        <time>2017-06-24T10:52:59Z</time>
      </trkpt>
      <trkpt lat="45.431840" lon="-0.605360">
        <time>2017-06-24T10:53:00Z</time>
      </trkpt>
      <trkpt lat="45.432120" lon="-0.605380">
        <time>2017-06-24T10:53:01Z</time>
      </trkpt>
      <trkpt lat="45.432410" lon="-0.605400">
        <time>2017-06-24T10:53:02Z</time>
      </trkpt>
      <trkpt lat="45.432740" lon="-0.605420">
        <time>2017-06-24T10:53:03Z</time>
      </trkpt>
      <trkpt lat="45.433010" lon="-0.605440">
        <time>2017-06-24T10:53:04Z</time>
      </trkpt>
      <trkpt lat="45.433310" lon="-0.605460">
        <time>2017-06-24T10:53:05Z</time>
      </trkpt>
      <trkpt lat="45.433610" lon="-0.605490">
        <time>2017-06-24T10:53:06Z</time>
      </trkpt>
      <trkpt lat="45.433910" lon="-0.605520">
        <time>2017-06-24T10:53:07Z</time>
      </trkpt>
      <trkpt lat="45.434230" lon="-0.605540">
        <time>2017-06-24T10:53:08Z</time>
      </trkpt>
      <trkpt lat="45.434510" lon="-0.605550">
        <time>2017-06-24T10:53:09Z</time>
      </trkpt>
      <trkpt lat="45.434820" lon="-0.605570">
        <time>2017-06-24T10:53:10Z</time>
      </trkpt>
      <trkpt lat="45.435140" lon="-0.605600">
        <time>2017-06-24T10:53:11Z</time>
      </trkpt>
      <trkpt lat="45.435430" lon="-0.605630">
        <time>2017-06-24T10:53:12Z</time>
      </trkpt>
      <trkpt lat="45.435720" lon="-0.605660">
        <time>2017-06-24T10:53:13Z</time>
      </trkpt>
      <trkpt lat="45.436040" lon="-0.605700">
        <time>2017-06-24T10:53:14Z</time>
      </trkpt>
      <trkpt lat="45.436310" lon="-0.605760">
        <time>2017-06-24T10:53:15Z</time>
      </trkpt>
      <trkpt lat="45.436620" lon="-0.605810">
        <time>2017-06-24T10:53:16Z</time>
      </trkpt>
      <trkpt lat="45.436890" lon="-0.605860">
        <time>2017-06-24T10:53:17Z</time>
      </trkpt>
      <trkpt lat="45.437180" lon="-0.605920">
        <time>2017-06-24T10:53:18Z</time>
      </trkpt>
      <trkpt lat="45.437490" lon="-0.605990">
        <time>2017-06-24T10:53:19Z</time>
      </trkpt>
      <trkpt lat="45.437760" lon="-0.606060">
        <time>2017-06-24T10:53:20Z</time>
      </trkpt>
      <trkpt lat="45.438040" lon="-0.606130">
        <time>2017-06-24T10:53:21Z</time>
      </trkpt>
      <trkpt lat="45.438320" lon="-0.606210">
        <time>2017-06-24T10:53:22Z</time>
      </trkpt>
      <trkpt lat="45.438610" lon="-0.606290">
        <time>2017-06-24T10:53:23Z</time>
      </trkpt>
      <trkpt lat="45.438910" lon="-0.606380">
        <time>2017-06-24T10:53:24Z</time>
      </trkpt>
      <trkpt lat="45.439170" lon="-0.606470">
        <time>2017-06-24T10:53:25Z</time>
      </trkpt>
      <trkpt lat="45.439450" lon="-0.606570">
        <time>2017-06-24T10:53:26Z</time>
      </trkpt>
      <trkpt lat="45.439740" lon="-0.606670">
        <time>2017-06-24T10:53:27Z</time>
      </trkpt>
      <trkpt lat="45.440000" lon="-0.606770">
        <time>2017-06-24T10:53:28Z</time>
      </trkpt>
      <trkpt lat="45.440270" lon="-0.606880">
        <time>2017-06-24T10:53:29Z</time>
      </trkpt>
      <trkpt lat="45.440550" lon="-0.606990">
        <time>2017-06-24T10:53:30Z</time>
      </trkpt>
      <trkpt lat="45.440800" lon="-0.607100">
        <time>2017-06-24T10:53:31Z</time>
      </trkpt>
      <trkpt lat="45.441090" lon="-0.607220">
        <time>2017-06-24T10:53:32Z</time>
      </trkpt>
      <trkpt lat="45.441340" lon="-0.607320">
        <time>2017-06-24T10:53:33Z</time>
      </trkpt>
      <trkpt lat="45.441600" lon="-0.607450">
        <time>2017-06-24T10:53:34Z</time>
      </trkpt>
      <trkpt lat="45.441870" lon="-0.607580">
        <time>2017-06-24T10:53:35Z</time>
      </trkpt>
      <trkpt lat="45.442120" lon="-0.607710">
        <time>2017-06-24T10:53:36Z</time>
      </trkpt>
      <trkpt lat="45.442380" lon="-0.607840">
        <time>2017-06-24T10:53:37Z</time>
      </trkpt>
      <trkpt lat="45.442640" lon="-0.607980">
        <time>2017-06-24T10:53:38Z</time>
      </trkpt>
      <trkpt lat="45.442900" lon="-0.608120">
        <time>2017-06-24T10:53:39Z</time>
      </trkpt>
      <trkpt lat="45.443180" lon="-0.608280">
        <time>2017-06-24T10:53:40Z</time>
      </trkpt>
      <trkpt lat="45.443420" lon="-0.608420">
        <time>2017-06-24T10:53:41Z</time>
      </trkpt>
      <trkpt lat="45.443680" lon="-0.608570">
        <time>2017-06-24T10:53:42Z</time>
      </trkpt>
      <trkpt lat="45.443960" lon="-0.608720">
        <time>2017-06-24T10:53:43Z</time>
      </trkpt>
      <trkpt lat="45.444190" lon="-0.608870">
        <time>2017-06-24T10:53:44Z</time>
      </trkpt>
      <trkpt lat="45.444440" lon="-0.609020">
        <time>2017-06-24T10:53:45Z</time>
      </trkpt>
      <trkpt lat="45.444710" lon="-0.609190">
        <time>2017-06-24T10:53:46Z</time>
      </trkpt>
      <trkpt lat="45.444950" lon="-0.609350">
        <time>2017-06-24T10:53:47Z</time>
      </trkpt>
      <trkpt lat="45.445220" lon="-0.609520">
        <time>2017-06-24T10:53:48Z</time>
      </trkpt>
      <trkpt lat="45.445460" lon="-0.609670">
        <time>2017-06-24T10:53:49Z</time>
      </trkpt>
      <trkpt lat="45.445720" lon="-0.609830">
        <time>2017-06-24T10:53:50Z</time>
      </trkpt>
      <trkpt lat="45.445990" lon="-0.609990">
        <time>2017-06-24T10:53:51Z</time>
      </trkpt>
      <trkpt lat="45.446230" lon="-0.610130">
        <time>2017-06-24T10:53:52Z</time>
      </trkpt>
      <trkpt lat="45.446500" lon="-0.610290">
        <time>2017-06-24T10:53:53Z</time>
      </trkpt>
      <trkpt lat="45.446750" lon="-0.610440">
        <time>2017-06-24T10:53:54Z</time>
      </trkpt>
      <trkpt lat="45.447010" lon="-0.610600">
        <time>2017-06-24T10:53:55Z</time>
      </trkpt>
      <trkpt lat="45.447290" lon="-0.610770">
        <time>2017-06-24T10:53:56Z</time>
      </trkpt>
      <trkpt lat="45.447540" lon="-0.610930">
        <time>2017-06-24T10:53:57Z</time>
      </trkpt>
      <trkpt lat="45.447800" lon="-0.611090">
        <time>2017-06-24T10:53:58Z</time>
      </trkpt>
      <trkpt lat="45.448080" lon="-0.611260">
        <time>2017-06-24T10:53:59Z</time>
      </trkpt>
      <trkpt lat="45.448330" lon="-0.611410">
        <time>2017-06-24T10:54:00Z</time>
      </trkpt>
      <trkpt lat="45.448600" lon="-0.611580">
        <time>2017-06-24T10:54:01Z</time>
      </trkpt>
      <trkpt lat="45.448880" lon="-0.611760">
        <time>2017-06-24T10:54:02Z</time>
      </trkpt>
      <trkpt lat="45.449130" lon="-0.611920">
        <time>2017-06-24T10:54:03Z</time>
      </trkpt>
      <trkpt lat="45.449420" lon="-0.612110">
        <time>2017-06-24T10:54:04Z</time>
      </trkpt>
      <trkpt lat="45.449680" lon="-0.612270">
        <time>2017-06-24T10:54:05Z</time>
      </trkpt>
      <trkpt lat="45.449950" lon="-0.612450">
        <time>2017-06-24T10:54:06Z</time>
      </trkpt>
      <trkpt lat="45.450230" lon="-0.612630">
        <time>2017-06-24T10:54:07Z</time>
      </trkpt>
      <trkpt lat="45.450490" lon="-0.612790">
        <time>2017-06-24T10:54:08Z</time>
      </trkpt>
      <trkpt lat="45.450760" lon="-0.612960">
        <time>2017-06-24T10:54:09Z</time>
      </trkpt>
      <trkpt lat="45.451030" lon="-0.613120">
        <time>2017-06-24T10:54:10Z</time>
      </trkpt>
      <trkpt lat="45.451320" lon="-0.613300">
        <time>2017-06-24T10:54:11Z</time>
      </trkpt>
      <trkpt lat="45.451620" lon="-0.613480">
        <time>2017-06-24T10:54:12Z</time>
      </trkpt>
      <trkpt lat="45.451900" lon="-0.613640">
        <time>2017-06-24T10:54:13Z</time>
      </trkpt>
      <trkpt lat="45.452180" lon="-0.613800">
        <time>2017-06-24T10:54:14Z</time>
      </trkpt>
      <trkpt lat="45.452480" lon="-0.613970">
        <time>2017-06-24T10:54:15Z</time>
      </trkpt>
      <trkpt lat="45.452740" lon="-0.614130">
        <time>2017-06-24T10:54:16Z</time>
      </trkpt>
      <trkpt lat="45.453020" lon="-0.614300">
        <time>2017-06-24T10:54:17Z</time>
      </trkpt>
      <trkpt lat="45.453310" lon="-0.614480">
        <time>2017-06-24T10:54:18Z</time>
      </trkpt>
      <trkpt lat="45.453560" lon="-0.614630">
        <time>2017-06-24T10:54:19Z</time>
      </trkpt>
      <trkpt lat="45.453850" lon="-0.614810">
        <time>2017-06-24T10:54:20Z</time>
      </trkpt>
      <trkpt lat="45.454100" lon="-0.614960">
        <time>2017-06-24T10:54:21Z</time>
      </trkpt>
      <trkpt lat="45.454370" lon="-0.615130">
        <time>2017-06-24T10:54:22Z</time>
      </trkpt>
      <trkpt lat="45.454660" lon="-0.615310">
        <time>2017-06-24T10:54:23Z</time>
      </trkpt>
      <trkpt lat="45.454910" lon="-0.615460">
        <time>2017-06-24T10:54:24Z</time>
      </trkpt>
      <trkpt lat="45.455180" lon="-0.615630">
        <time>2017-06-24T10:54:25Z</time>
      </trkpt>
      <trkpt lat="45.455460" lon="-0.615800">
        <time>2017-06-24T10:54:26Z</time>
      </trkpt>
      <trkpt lat="45.455730" lon="-0.615960">
        <time>2017-06-24T10:54:27Z</time>
      </trkpt>
      <trkpt lat="45.456020" lon="-0.616140">
        <time>2017-06-24T10:54:28Z</time>
      </trkpt>
      <trkpt lat="45.456270" lon="-0.616280">
        <time>2017-06-24T10:54:29Z</time>
      </trkpt>
      <trkpt lat="45.456540" lon="-0.616430">
        <time>2017-06-24T10:54:30Z</time>
      </trkpt>
      <trkpt lat="45.456820" lon="-0.616590">
        <time>2017-06-24T10:54:31Z</time>
      </trkpt>
      <trkpt lat="45.457070" lon="-0.616730">
        <time>2017-06-24T10:54:32Z</time>
      </trkpt>
      <trkpt lat="45.457330" lon="-0.616880">
        <time>2017-06-24T10:54:33Z</time>
      </trkpt>
      <trkpt lat="45.457600" lon="-0.617030">
        <time>2017-06-24T10:54:34Z</time>
      </trkpt>
      <trkpt lat="45.457840" lon="-0.617160">
        <time>2017-06-24T10:54:35Z</time>
      </trkpt>
      <trkpt lat="45.458120" lon="-0.617310">
        <time>2017-06-24T10:54:36Z</time>
      </trkpt>
      <trkpt lat="45.458350" lon="-0.617430">
        <time>2017-06-24T10:54:37Z</time>
      </trkpt>
      <trkpt lat="45.458600" lon="-0.617560">
        <time>2017-06-24T10:54:38Z</time>
      </trkpt>
      <trkpt lat="45.458870" lon="-0.617700">
        <time>2017-06-24T10:54:39Z</time>
      </trkpt>
      <trkpt lat="45.459120" lon="-0.617810">
        <time>2017-06-24T10:54:40Z</time>
      </trkpt>
      <trkpt lat="45.459380" lon="-0.617930">
        <time>2017-06-24T10:54:41Z</time>
      </trkpt>
      <trkpt lat="45.459650" lon="-0.618060">
        <time>2017-06-24T10:54:42Z</time>
      </trkpt>
      <trkpt lat="45.459920" lon="-0.618190">
        <time>2017-06-24T10:54:43Z</time>
      </trkpt>
      <trkpt lat="45.460210" lon="-0.618320">
        <time>2017-06-24T10:54:44Z</time>
      </trkpt>
      <trkpt lat="45.460480" lon="-0.618440">
        <time>2017-06-24T10:54:45Z</time>
      </trkpt>
      <trkpt lat="45.460760" lon="-0.618570">
        <time>2017-06-24T10:54:46Z</time>
      </trkpt>
      <trkpt lat="45.461070" lon="-0.618700">
        <time>2017-06-24T10:54:47Z</time>
      </trkpt>
      <trkpt lat="45.461340" lon="-0.618810">
        <time>2017-06-24T10:54:48Z</time>
      </trkpt>
      <trkpt lat="45.461650" lon="-0.618930">
        <time>2017-06-24T10:54:49Z</time>
      </trkpt>
      <trkpt lat="45.461970" lon="-0.619040">
        <time>2017-06-24T10:54:50Z</time>
      </trkpt>
      <trkpt lat="45.462260" lon="-0.619140">
        <time>2017-06-24T10:54:51Z</time>
      </trkpt>
      <trkpt lat="45.462590" lon="-0.619250">
        <time>2017-06-24T10:54:52Z</time>
      </trkpt>
      <trkpt lat="45.462870" lon="-0.619350">
        <time>2017-06-24T10:54:53Z</time>
      </trkpt>
      <trkpt lat="45.463190" lon="-0.619440">
        <time>2017-06-24T10:54:54Z</time>
      </trkpt>
      <trkpt lat="45.463510" lon="-0.619540">
        <time>2017-06-24T10:54:55Z</time>
      </trkpt>
      <trkpt lat="45.463800" lon="-0.619620">
        <time>2017-06-24T10:54:56Z</time>
      </trkpt>
      <trkpt lat="45.464110" lon="-0.619710">
        <time>2017-06-24T10:54:57Z</time>
      </trkpt>
      <trkpt lat="45.464420" lon="-0.619790">
        <time>2017-06-24T10:54:58Z</time>
      </trkpt>
      <trkpt lat="45.464740" lon="-0.619860">
        <time>2017-06-24T10:54:59Z</time>
      </trkpt>
      <trkpt lat="45.465060" lon="-0.619940">
        <time>2017-06-24T10:55:00Z</time>
      </trkpt>
      <trkpt lat="45.465360" lon="-0.620010">
        <time>2017-06-24T10:55:01Z</time>
      </trkpt>
      <trkpt lat="45.465680" lon="-0.620070">
        <time>2017-06-24T10:55:02Z</time>
      </trkpt>
      <trkpt lat="45.466020" lon="-0.620150">
        <time>2017-06-24T10:55:03Z</time>
      </trkpt>
      <trkpt lat="45.466320" lon="-0.620210">
        <time>2017-06-24T10:55:04Z</time>
      </trkpt>
      <trkpt lat="45.466650" lon="-0.620280">
        <time>2017-06-24T10:55:05Z</time>
      </trkpt>
      <trkpt lat="45.467000" lon="-0.620340">
        <time>2017-06-24T10:55:06Z</time>
      </trkpt>
      <trkpt lat="45.467300" lon="-0.620390">
        <time>2017-06-24T10:55:07Z</time>
      </trkpt>
      <trkpt lat="45.467650" lon="-0.620430">
        <time>2017-06-24T10:55:08Z</time>
      </trkpt>
      <trkpt lat="45.467950" lon="-0.620470">
        <time>2017-06-24T10:55:09Z</time>
      </trkpt>
      <trkpt lat="45.468280" lon="-0.620500">
        <time>2017-06-24T10:55:10Z</time>
      </trkpt>
      <trkpt lat="45.468630" lon="-0.620540">
        <time>2017-06-24T10:55:11Z</time>
      </trkpt>
      <trkpt lat="45.468930" lon="-0.620560">
        <time>2017-06-24T10:55:12Z</time>
      </trkpt>
      <trkpt lat="45.469260" lon="-0.620580">
        <time>2017-06-24T10:55:13Z</time>
      </trkpt>
      <trkpt lat="45.469580" lon="-0.620590">
        <time>2017-06-24T10:55:14Z</time>
      </trkpt>
      <trkpt lat="45.469910" lon="-0.620590">
        <time>2017-06-24T10:55:15Z</time>
      </trkpt>
      <trkpt lat="45.470250" lon="-0.620590">
        <time>2017-06-24T10:55:16Z</time>
      </trkpt>
      <trkpt lat="45.470550" lon="-0.620590">
        <time>2017-06-24T10:55:17Z</time>
      </trkpt>
      <trkpt lat="45.470870" lon="-0.620590">
        <time>2017-06-24T10:55:18Z</time>
      </trkpt>
      <trkpt lat="45.471210" lon="-0.620580">
        <time>2017-06-24T10:55:19Z</time>
      </trkpt>
      <trkpt lat="45.471510" lon="-0.620570">
        <time>2017-06-24T10:55:20Z</time>
      </trkpt>
      <trkpt lat="45.471820" lon="-0.620560">
        <time>2017-06-24T10:55:21Z</time>
      </trkpt>
      <trkpt lat="45.472140" lon="-0.620530">
        <time>2017-06-24T10:55:22Z</time>
      </trkpt>
      <trkpt lat="45.472440" lon="-0.620510">
        <time>2017-06-24T10:55:23Z</time>
      </trkpt>
      <trkpt lat="45.472770" lon="-0.620490">
        <time>2017-06-24T10:55:24Z</time>
      </trkpt>
      <trkpt lat="45.473060" lon="-0.620460">
        <time>2017-06-24T10:55:25Z</time>
      </trkpt>
      <trkpt lat="45.473370" lon="-0.620440">
        <time>2017-06-24T10:55:26Z</time>
      </trkpt>
      <trkpt lat="45.473700" lon="-0.620410">
        <time>2017-06-24T10:55:27Z</time>
      </trkpt>
      <trkpt lat="45.473990" lon="-0.620370">
        <time>2017-06-24T10:55:28Z</time>
      </trkpt>
      <trkpt lat="45.474310" lon="-0.620320">
        <time>2017-06-24T10:55:29Z</time>
      </trkpt>
      <trkpt lat="45.474620" lon="-0.620270">
        <time>2017-06-24T10:55:30Z</time>
      </trkpt>
      <trkpt lat="45.474940" lon="-0.620230">
        <time>2017-06-24T10:55:31Z</time>
      </trkpt>
      <trkpt lat="45.475280" lon="-0.620160">
        <time>2017-06-24T10:55:32Z</time>
      </trkpt>
      <trkpt lat="45.475570" lon="-0.620110">
        <time>2017-06-24T10:55:33Z</time>
      </trkpt>
      <trkpt lat="45.475890" lon="-0.620050">
        <time>2017-06-24T10:55:34Z</time>
      </trkpt>
      <trkpt lat="45.476220" lon="-0.619980">
        <time>2017-06-24T10:55:35Z</time>
      </trkpt>
      <trkpt lat="45.476520" lon="-0.619920">
        <time>2017-06-24T10:55:36Z</time>
      </trkpt>
      <trkpt lat="45.476830" lon="-0.619840">
        <time>2017-06-24T10:55:37Z</time>
      </trkpt>
      <trkpt lat="45.477180" lon="-0.619770">
        <time>2017-06-24T10:55:38Z</time>
      </trkpt>
      <trkpt lat="45.477470" lon="-0.619680">
        <time>2017-06-24T10:55:39Z</time>
      </trkpt>
      <trkpt lat="45.477810" lon="-0.619590">
        <time>2017-06-24T10:55:40Z</time>
      </trkpt>
      <trkpt lat="45.478110" lon="-0.619500">
        <time>2017-06-24T10:55:41Z</time>
      </trkpt>
      <trkpt lat="45.478420" lon="-0.619390">
        <time>2017-06-24T10:55:42Z</time>
      </trkpt>
      <trkpt lat="45.478750" lon="-0.619280">
        <time>2017-06-24T10:55:43Z</time>
      </trkpt>
      <trkpt lat="45.479040" lon="-0.619190">
        <time>2017-06-24T10:55:44Z</time>
      </trkpt>
      <trkpt lat="45.479350" lon="-0.619090">
        <time>2017-06-24T10:55:45Z</time>
      </trkpt>
      <trkpt lat="45.479660" lon="-0.618980">
        <time>2017-06-24T10:55:46Z</time>
      </trkpt>
      <trkpt lat="45.479970" lon="-0.618870">
        <time>2017-06-24T10:55:47Z</time>
      </trkpt>
      <trkpt lat="45.480290" lon="-0.618750">
        <time>2017-06-24T10:55:48Z</time>
      </trkpt>
      <trkpt lat="45.480580" lon="-0.618630">
        <time>2017-06-24T10:55:49Z</time>
      </trkpt>
      <trkpt lat="45.480900" lon="-0.618510">
        <time>2017-06-24T10:55:50Z</time>
      </trkpt>
      <trkpt lat="45.481230" lon="-0.618380">
        <time>2017-06-24T10:55:51Z</time>
      </trkpt>
      <trkpt lat="45.481510" lon="-0.618260">
        <time>2017-06-24T10:55:52Z</time>
      </trkpt>
      <trkpt lat="45.481820" lon="-0.618140">
        <time>2017-06-24T10:55:53Z</time>
      </trkpt>
      <trkpt lat="45.482150" lon="-0.618010">
        <time>2017-06-24T10:55:54Z</time>
      </trkpt>
      <trkpt lat="45.482440" lon="-0.617890">
        <time>2017-06-24T10:55:55Z</time>
      </trkpt>
      <trkpt lat="45.482770" lon="-0.617760">
        <time>2017-06-24T10:55:56Z</time>
      </trkpt>
      <trkpt lat="45.483060" lon="-0.617640">
        <time>2017-06-24T10:55:57Z</time>
      </trkpt>
      <trkpt lat="45.483360" lon="-0.617510">
        <time>2017-06-24T10:55:58Z</time>
      </trkpt>
      <trkpt lat="45.483700" lon="-0.617380">
        <time>2017-06-24T10:55:59Z</time>
      </trkpt>
      <trkpt lat="45.484000" lon="-0.617260">
        <time>2017-06-24T10:56:00Z</time>
      </trkpt>
      <trkpt lat="45.484310" lon="-0.617120">
        <time>2017-06-24T10:56:01Z</time>
      </trkpt>
      <trkpt lat="45.484630" lon="-0.616990">
        <time>2017-06-24T10:56:02Z</time>
      </trkpt>
      <trkpt lat="45.484940" lon="-0.616850">
        <time>2017-06-24T10:56:03Z</time>
      </trkpt>
      <trkpt lat="45.485280" lon="-0.616710">
        <time>2017-06-24T10:56:04Z</time>
      </trkpt>
      <trkpt lat="45.485570" lon="-0.616590">
        <time>2017-06-24T10:56:05Z</time>
      </trkpt>
      <trkpt lat="45.485870" lon="-0.616470">
        <time>2017-06-24T10:56:06Z</time>
      </trkpt>
      <trkpt lat="45.486200" lon="-0.616340">
        <time>2017-06-24T10:56:07Z</time>
      </trkpt>
      <trkpt lat="45.486480" lon="-0.616230">
        <time>2017-06-24T10:56:08Z</time>
      </trkpt>
      <trkpt lat="45.486780" lon="-0.616110">
        <time>2017-06-24T10:56:09Z</time>
      </trkpt>
      <trkpt lat="45.487100" lon="-0.615980">
        <time>2017-06-24T10:56:10Z</time>
      </trkpt>
      <trkpt lat="45.487390" lon="-0.615860">
        <time>2017-06-24T10:56:11Z</time>
      </trkpt>
      <trkpt lat="45.487710" lon="-0.615730">
        <time>2017-06-24T10:56:12Z</time>
      </trkpt>
      <trkpt lat="45.488000" lon="-0.615620">
        <time>2017-06-24T10:56:13Z</time>
      </trkpt>
      <trkpt lat="45.488300" lon="-0.615510">
        <time>2017-06-24T10:56:14Z</time>
      </trkpt>
      <trkpt lat="45.488630" lon="-0.615390">
        <time>2017-06-24T10:56:15Z</time>
      </trkpt>
      <trkpt lat="45.488910" lon="-0.615290">
        <time>2017-06-24T10:56:16Z</time>
      </trkpt>
      <trkpt lat="45.489220" lon="-0.615180">
        <time>2017-06-24T10:56:17Z</time>
      </trkpt>
      <trkpt lat="45.489530" lon="-0.615080">
        <time>2017-06-24T10:56:18Z</time>
      </trkpt>
      <trkpt lat="45.489850" lon="-0.614990">
        <time>2017-06-24T10:56:19Z</time>
      </trkpt>
      <trkpt lat="45.490190" lon="-0.614880">
        <time>2017-06-24T10:56:20Z</time>
      </trkpt>
      <trkpt lat="45.490480" lon="-0.614790">
        <time>2017-06-24T10:56:21Z</time>
      </trkpt>
      <trkpt lat="45.490790" lon="-0.614700">
        <time>2017-06-24T10:56:22Z</time>
      </trkpt>
      <trkpt lat="45.491120" lon="-0.614610">
        <time>2017-06-24T10:56:23Z</time>
      </trkpt>
      <trkpt lat="45.491420" lon="-0.614530">
        <time>2017-06-24T10:56:24Z</time>
      </trkpt>
      <trkpt lat="45.491730" lon="-0.614440">
        <time>2017-06-24T10:56:25Z</time>
      </trkpt>
      <trkpt lat="45.492060" lon="-0.614360">
        <time>2017-06-24T10:56:26Z</time>
      </trkpt>
      <trkpt lat="45.492350" lon="-0.614290">
        <time>2017-06-24T10:56:27Z</time>
      </trkpt>
      <trkpt lat="45.492680" lon="-0.614210">
        <time>2017-06-24T10:56:28Z</time>
      </trkpt>
      <trkpt lat="45.492970" lon="-0.614150">
        <time>2017-06-24T10:56:29Z</time>
      </trkpt>
      <trkpt lat="45.493280" lon="-0.614080">
        <time>2017-06-24T10:56:30Z</time>
      </trkpt>
      <trkpt lat="45.493610" lon="-0.614010">
        <time>2017-06-24T10:56:31Z</time>
      </trkpt>
      <trkpt lat="45.493900" lon="-0.613940">
        <time>2017-06-24T10:56:32Z</time>
      </trkpt>
      <trkpt lat="45.494200" lon="-0.613860">
        <time>2017-06-24T10:56:33Z</time>
      </trkpt>
      <trkpt lat="45.494490" lon="-0.613800">
        <time>2017-06-24T10:56:34Z</time>
      </trkpt>
      <trkpt lat="45.494790" lon="-0.613740">
        <time>2017-06-24T10:56:35Z</time>
      </trkpt>
      <trkpt lat="45.495110" lon="-0.613690">
        <time>2017-06-24T10:56:36Z</time>
      </trkpt>
      <trkpt lat="45.495390" lon="-0.613660">
        <time>2017-06-24T10:56:37Z</time>
      </trkpt>
      <trkpt lat="45.495700" lon="-0.613620">
        <time>2017-06-24T10:56:38Z</time>
      </trkpt>
      <trkpt lat="45.496020" lon="-0.613580">
        <time>2017-06-24T10:56:39Z</time>
      </trkpt>
      <trkpt lat="45.496300" lon="-0.613550">
        <time>2017-06-24T10:56:40Z</time>
      </trkpt>
      <trkpt lat="45.496600" lon="-0.613520">
        <time>2017-06-24T10:56:41Z</time>
      </trkpt>
      <trkpt lat="45.496920" lon="-0.613490">
        <time>2017-06-24T10:56:42Z</time>
      </trkpt>
      <trkpt lat="45.497200" lon="-0.613470">
        <time>2017-06-24T10:56:43Z</time>
      </trkpt>
      <trkpt lat="45.497520" lon="-0.613440">
        <time>2017-06-24T10:56:44Z</time>
      </trkpt>
      <trkpt lat="45.497800" lon="-0.613420">
        <time>2017-06-24T10:56:45Z</time>
      </trkpt>
      <trkpt lat="45.498100" lon="-0.613390">
        <time>2017-06-24T10:56:46Z</time>
      </trkpt>
      <trkpt lat="45.498430" lon="-0.613360">
        <time>2017-06-24T10:56:47Z</time>
      </trkpt>
      <trkpt lat="45.498710" lon="-0.613350">
        <time>2017-06-24T10:56:48Z</time>
      </trkpt>
      <trkpt lat="45.499010" lon="-0.613330">
        <time>2017-06-24T10:56:49Z</time>
      </trkpt>
      <trkpt lat="45.499310" lon="-0.613320">
        <time>2017-06-24T10:56:50Z</time>
      </trkpt>
      <trkpt lat="45.499620" lon="-0.613320">
        <time>2017-06-24T10:56:51Z</time>
      </trkpt>
      <trkpt lat="45.499940" lon="-0.613320">
        <time>2017-06-24T10:56:52Z</time>
      </trkpt>
      <trkpt lat="45.500210" lon="-0.613320">
        <time>2017-06-24T10:56:53Z</time>
      </trkpt>
      <trkpt lat="45.500510" lon="-0.613310">
        <time>2017-06-24T10:56:54Z</time>
      </trkpt>
      <trkpt lat="45.500820" lon="-0.613310">
        <time>2017-06-24T10:56:55Z</time>
      </trkpt>
      <trkpt lat="45.501090" lon="-0.613300">
        <time>2017-06-24T10:56:56Z</time>
      </trkpt>
      <trkpt lat="45.501370" lon="-0.613290">
        <time>2017-06-24T10:56:57Z</time>
      </trkpt>
      <trkpt lat="45.501680" lon="-0.613290">
        <time>2017-06-24T10:56:58Z</time>
      </trkpt>
      <trkpt lat="45.501960" lon="-0.613280">
        <time>2017-06-24T10:56:59Z</time>
      </trkpt>
      <trkpt lat="45.502260" lon="-0.613270">
        <time>2017-06-24T10:57:00Z</time>
      </trkpt>
      <trkpt lat="45.502540" lon="-0.613270">
        <time>2017-06-24T10:57:01Z</time>
      </trkpt>
      <trkpt lat="45.502840" lon="-0.613260">
        <time>2017-06-24T10:57:02Z</time>
      </trkpt>
      <trkpt lat="45.503160" lon="-0.613260">
        <time>2017-06-24T10:57:03Z</time>
      </trkpt>
      <trkpt lat="45.503450" lon="-0.613250">
        <time>2017-06-24T10:57:04Z</time>
      </trkpt>
      <trkpt lat="45.503760" lon="-0.613250">
        <time>2017-06-24T10:57:05Z</time>
      </trkpt>
      <trkpt lat="45.504070" lon="-0.613240">
        <time>2017-06-24T10:57:06Z</time>
      </trkpt>
      <trkpt lat="45.504390" lon="-0.613230">
        <time>2017-06-24T10:57:07Z</time>
      </trkpt>
      <trkpt lat="45.504730" lon="-0.613220">
        <time>2017-06-24T10:57:08Z</time>
      </trkpt>
      <trkpt lat="45.505030" lon="-0.613210">
        <time>2017-06-24T10:57:09Z</time>
      </trkpt>
      <trkpt lat="45.505350" lon="-0.613200">
        <time>2017-06-24T10:57:10Z</time>
      </trkpt>
      <trkpt lat="45.505680" lon="-0.613190">
        <time>2017-06-24T10:57:11Z</time>
      </trkpt>
      <trkpt lat="45.505980" lon="-0.613180">
        <time>2017-06-24T10:57:12Z</time>
      </trkpt>
      <trkpt lat="45.506290" lon="-0.613170">
        <time>2017-06-24T10:57:13Z</time>
      </trkpt>
      <trkpt lat="45.506630" lon="-0.613160">
        <time>2017-06-24T10:57:14Z</time>
      </trkpt>
      <trkpt lat="45.506920" lon="-0.613150">
        <time>2017-06-24T10:57:15Z</time>
      </trkpt>
      <trkpt lat="45.507260" lon="-0.613130">
        <time>2017-06-24T10:57:16Z</time>
      </trkpt>
      <trkpt lat="45.507550" lon="-0.613120">
        <time>2017-06-24T10:57:17Z</time>
      </trkpt>
      <trkpt lat="45.507870" lon="-0.613100">
        <time>2017-06-24T10:57:18Z</time>
      </trkpt>
      <trkpt lat="45.508200" lon="-0.613080">
        <time>2017-06-24T10:57:19Z</time>
      </trkpt>
      <trkpt lat="45.508500" lon="-0.613060">
        <time>2017-06-24T10:57:20Z</time>
      </trkpt>
      <trkpt lat="45.508820" lon="-0.613030">
        <time>2017-06-24T10:57:21Z</time>
      </trkpt>
      <trkpt lat="45.509130" lon="-0.613010">
        <time>2017-06-24T10:57:22Z</time>
      </trkpt>
      <trkpt lat="45.509450" lon="-0.612980">
        <time>2017-06-24T10:57:23Z</time>
      </trkpt>
      <trkpt lat="45.509790" lon="-0.612950">
        <time>2017-06-24T10:57:24Z</time>
      </trkpt>
      <trkpt lat="45.510090" lon="-0.612930">
        <time>2017-06-24T10:57:25Z</time>
      </trkpt>
      <trkpt lat="45.510410" lon="-0.612900">
        <time>2017-06-24T10:57:26Z</time>
      </trkpt>
      <trkpt lat="45.510740" lon="-0.612870">
        <time>2017-06-24T10:57:27Z</time>
      </trkpt>
      <trkpt lat="45.511030" lon="-0.612840">
        <time>2017-06-24T10:57:28Z</time>
      </trkpt>
      <trkpt lat="45.511350" lon="-0.612800">
        <time>2017-06-24T10:57:29Z</time>
      </trkpt>
      <trkpt lat="45.511690" lon="-0.612770">
        <time>2017-06-24T10:57:30Z</time>
      </trkpt>
      <trkpt lat="45.511990" lon="-0.612720">
        <time>2017-06-24T10:57:31Z</time>
      </trkpt>
      <trkpt lat="45.512330" lon="-0.612670">
        <time>2017-06-24T10:57:32Z</time>
      </trkpt>
      <trkpt lat="45.512630" lon="-0.612620">
        <time>2017-06-24T10:57:33Z</time>
      </trkpt>
      <trkpt lat="45.512960" lon="-0.612570">
        <time>2017-06-24T10:57:34Z</time>
      </trkpt>
      <trkpt lat="45.513310" lon="-0.612520">
        <time>2017-06-24T10:57:35Z</time>
      </trkpt>
      <trkpt lat="45.513600" lon="-0.612470">
        <time>2017-06-24T10:57:36Z</time>
      </trkpt>
      <trkpt lat="45.513930" lon="-0.612420">
        <time>2017-06-24T10:57:37Z</time>
      </trkpt>
      <trkpt lat="45.514250" lon="-0.612370">
        <time>2017-06-24T10:57:38Z</time>
      </trkpt>
      <trkpt lat="45.514570" lon="-0.612320">
        <time>2017-06-24T10:57:39Z</time>
      </trkpt>
      <trkpt lat="45.514910" lon="-0.612260">
        <time>2017-06-24T10:57:40Z</time>
      </trkpt>
      <trkpt lat="45.515210" lon="-0.612220">
        <time>2017-06-24T10:57:41Z</time>
      </trkpt>
      <trkpt lat="45.515530" lon="-0.612160">
        <time>2017-06-24T10:57:42Z</time>
      </trkpt>
      <trkpt lat="45.515850" lon="-0.612090">
        <time>2017-06-24T10:57:43Z</time>
      </trkpt>
      <trkpt lat="45.516150" lon="-0.612040">
        <time>2017-06-24T10:57:44Z</time>
      </trkpt>
      <trkpt lat="45.516480" lon="-0.611980">
        <time>2017-06-24T10:57:45Z</time>
      </trkpt>
      <trkpt lat="45.516820" lon="-0.611930">
        <time>2017-06-24T10:57:46Z</time>
      </trkpt>
      <trkpt lat="45.517140" lon="-0.611870">
        <time>2017-06-24T10:57:47Z</time>
      </trkpt>
      <trkpt lat="45.517500" lon="-0.611810">
        <time>2017-06-24T10:57:48Z</time>
      </trkpt>
      <trkpt lat="45.517820" lon="-0.611750">
        <time>2017-06-24T10:57:49Z</time>
      </trkpt>
      <trkpt lat="45.518150" lon="-0.611680">
        <time>2017-06-24T10:57:50Z</time>
      </trkpt>
      <trkpt lat="45.518510" lon="-0.611600">
        <time>2017-06-24T10:57:51Z</time>
      </trkpt>
      <trkpt lat="45.518820" lon="-0.611520">
        <time>2017-06-24T10:57:52Z</time>
      </trkpt>
      <trkpt lat="45.519160" lon="-0.611450">
        <time>2017-06-24T10:57:53Z</time>
      </trkpt>
      <trkpt lat="45.519500" lon="-0.611370">
        <time>2017-06-24T10:57:54Z</time>
      </trkpt>
      <trkpt lat="45.519830" lon="-0.611290">
        <time>2017-06-24T10:57:55Z</time>
      </trkpt>
      <trkpt lat="45.520190" lon="-0.611190">
        <time>2017-06-24T10:57:56Z</time>
      </trkpt>
      <trkpt lat="45.520500" lon="-0.611120">
        <time>2017-06-24T10:57:57Z</time>
      </trkpt>
      <trkpt lat="45.520820" lon="-0.611040">
        <time>2017-06-24T10:57:58Z</time>
      </trkpt>
      <trkpt lat="45.521180" lon="-0.610960">
        <time>2017-06-24T10:57:59Z</time>
      </trkpt>
      <trkpt lat="45.521480" lon="-0.610890">
        <time>2017-06-24T10:58:00Z</time>
      </trkpt>
      <trkpt lat="45.521810" lon="-0.610820">
        <time>2017-06-24T10:58:01Z</time>
      </trkpt>
      <trkpt lat="45.522160" lon="-0.610740">
        <time>2017-06-24T10:58:02Z</time>
      </trkpt>
      <trkpt lat="45.522460" lon="-0.610660">
        <time>2017-06-24T10:58:03Z</time>
      </trkpt>
      <trkpt lat="45.522800" lon="-0.610590">
        <time>2017-06-24T10:58:04Z</time>
      </trkpt>
      <trkpt lat="45.523110" lon="-0.610510">
        <time>2017-06-24T10:58:05Z</time>
      </trkpt>
      <trkpt lat="45.523440" lon="-0.610430">
        <time>2017-06-24T10:58:06Z</time>
      </trkpt>
      <trkpt lat="45.523790" lon="-0.610350">
        <time>2017-06-24T10:58:07Z</time>
      </trkpt>
      <trkpt lat="45.524100" lon="-0.610270">
        <time>2017-06-24T10:58:08Z</time>
      </trkpt>
      <trkpt lat="45.524430" lon="-0.610190">
        <time>2017-06-24T10:58:09Z</time>
      </trkpt>
      <trkpt lat="45.524760" lon="-0.610100">
        <time>2017-06-24T10:58:10Z</time>
      </trkpt>
      <trkpt lat="45.525080" lon="-0.610010">
        <time>2017-06-24T10:58:11Z</time>
      </trkpt>
      <trkpt lat="45.525430" lon="-0.609930">
        <time>2017-06-24T10:58:12Z</time>
      </trkpt>
      <trkpt lat="45.525740" lon="-0.609850">
        <time>2017-06-24T10:58:13Z</time>
      </trkpt>
      <trkpt lat="45.526060" lon="-0.609770">
        <time>2017-06-24T10:58:14Z</time>
      </trkpt>
      <trkpt lat="45.526410" lon="-0.609680">
        <time>2017-06-24T10:58:15Z</time>
      </trkpt>
      <trkpt lat="45.526710" lon="-0.609610">
        <time>2017-06-24T10:58:16Z</time>
      </trkpt>
      <trkpt lat="45.527030" lon="-0.609530">
        <time>2017-06-24T10:58:17Z</time>
      </trkpt>
      <trkpt lat="45.527380" lon="-0.609450">
        <time>2017-06-24T10:58:18Z</time>
      </trkpt>
      <trkpt lat="45.527680" lon="-0.609370">
        <time>2017-06-24T10:58:19Z</time>
      </trkpt>
      <trkpt lat="45.528010" lon="-0.609290">
        <time>2017-06-24T10:58:20Z</time>
      </trkpt>
      <trkpt lat="45.528310" lon="-0.609220">
        <time>2017-06-24T10:58:21Z</time>
      </trkpt>
      <trkpt lat="45.528630" lon="-0.609140">
        <time>2017-06-24T10:58:22Z</time>
      </trkpt>
      <trkpt lat="45.528960" lon="-0.609060">
        <time>2017-06-24T10:58:23Z</time>
      </trkpt>
      <trkpt lat="45.529250" lon="-0.608990">
        <time>2017-06-24T10:58:24Z</time>
      </trkpt>
      <trkpt lat="45.529570" lon="-0.608920">
        <time>2017-06-24T10:58:25Z</time>
      </trkpt>
      <trkpt lat="45.529880" lon="-0.608850">
        <time>2017-06-24T10:58:26Z</time>
      </trkpt>
      <trkpt lat="45.530190" lon="-0.608780">
        <time>2017-06-24T10:58:27Z</time>
      </trkpt>
      <trkpt lat="45.530520" lon="-0.608700">
        <time>2017-06-24T10:58:28Z</time>
      </trkpt>
      <trkpt lat="45.530810" lon="-0.608630">
        <time>2017-06-24T10:58:29Z</time>
      </trkpt>
      <trkpt lat="45.531120" lon="-0.608550">
        <time>2017-06-24T10:58:30Z</time>
      </trkpt>
      <trkpt lat="45.531460" lon="-0.608470">
        <time>2017-06-24T10:58:31Z</time>
      </trkpt>
      <trkpt lat="45.531750" lon="-0.608400">
        <time>2017-06-24T10:58:32Z</time>
      </trkpt>
      <trkpt lat="45.532070" lon="-0.608320">
        <time>2017-06-24T10:58:33Z</time>
      </trkpt>
      <trkpt lat="45.532410" lon="-0.608240">
        <time>2017-06-24T10:58:34Z</time>
      </trkpt>
      <trkpt lat="45.532700" lon="-0.608170">
        <time>2017-06-24T10:58:35Z</time>
      </trkpt>
      <trkpt lat="45.533030" lon="-0.608090">
        <time>2017-06-24T10:58:36Z</time>
      </trkpt>
      <trkpt lat="45.533320" lon="-0.608020">
        <time>2017-06-24T10:58:37Z</time>
      </trkpt>
      <trkpt lat="45.533630" lon="-0.607950">
        <time>2017-06-24T10:58:38Z</time>
      </trkpt>
      <trkpt lat="45.533950" lon="-0.607870">
        <time>2017-06-24T10:58:39Z</time>
      </trkpt>
      <trkpt lat="45.534240" lon="-0.607800">
        <time>2017-06-24T10:58:40Z</time>
      </trkpt>
      <trkpt lat="45.534540" lon="-0.607730">
        <time>2017-06-24T10:58:41Z</time>
      </trkpt>
      <trkpt lat="45.534840" lon="-0.607660">
        <time>2017-06-24T10:58:42Z</time>
      </trkpt>
      <trkpt lat="45.535150" lon="-0.607590">
        <time>2017-06-24T10:58:43Z</time>
      </trkpt>
      <trkpt lat="45.535470" lon="-0.607520">
        <time>2017-06-24T10:58:44Z</time>
      </trkpt>
      <trkpt lat="45.535760" lon="-0.607450">
        <time>2017-06-24T10:58:45Z</time>
      </trkpt>
      <trkpt lat="45.536060" lon="-0.607380">
        <time>2017-06-24T10:58:46Z</time>
      </trkpt>
      <trkpt lat="45.536390" lon="-0.607310">
        <time>2017-06-24T10:58:47Z</time>
      </trkpt>
      <trkpt lat="45.536680" lon="-0.607250">
        <time>2017-06-24T10:58:48Z</time>
      </trkpt>
      <trkpt lat="45.536980" lon="-0.607180">
        <time>2017-06-24T10:58:49Z</time>
      </trkpt>
      <trkpt lat="45.537310" lon="-0.607100">
        <time>2017-06-24T10:58:50Z</time>
      </trkpt>
      <trkpt lat="45.537600" lon="-0.607040">
        <time>2017-06-24T10:58:51Z</time>
      </trkpt>
      <trkpt lat="45.537920" lon="-0.606960">
        <time>2017-06-24T10:58:52Z</time>
      </trkpt>
      <trkpt lat="45.538210" lon="-0.606890">
        <time>2017-06-24T10:58:53Z</time>
      </trkpt>
      <trkpt lat="45.538510" lon="-0.606810">
        <time>2017-06-24T10:58:54Z</time>
      </trkpt>
      <trkpt lat="45.538840" lon="-0.606730">
        <time>2017-06-24T10:58:55Z</time>
      </trkpt>
      <trkpt lat="45.539120" lon="-0.606660">
        <time>2017-06-24T10:58:56Z</time>
      </trkpt>
      <trkpt lat="45.539430" lon="-0.606590">
        <time>2017-06-24T10:58:57Z</time>
      </trkpt>
      <trkpt lat="45.539730" lon="-0.606520">
        <time>2017-06-24T10:58:58Z</time>
      </trkpt>
      <trkpt lat="45.540030" lon="-0.606440">
        <time>2017-06-24T10:58:59Z</time>
      </trkpt>
      <trkpt lat="45.540360" lon="-0.606360">
        <time>2017-06-24T10:59:00Z</time>
      </trkpt>
      <trkpt lat="45.540660" lon="-0.606300">
        <time>2017-06-24T10:59:01Z</time>
      </trkpt>
      <trkpt lat="45.540970" lon="-0.606220">
        <time>2017-06-24T10:59:02Z</time>
      </trkpt>
      <trkpt lat="45.541300" lon="-0.606150">
        <time>2017-06-24T10:59:03Z</time>
      </trkpt>
      <trkpt lat="45.541580" lon="-0.606080">
        <time>2017-06-24T10:59:04Z</time>
      </trkpt>
      <trkpt lat="45.541890" lon="-0.606010">
        <time>2017-06-24T10:59:05Z</time>
      </trkpt>
      <trkpt lat="45.542230" lon="-0.605930">
        <time>2017-06-24T10:59:06Z</time>
      </trkpt>
      <trkpt lat="45.542520" lon="-0.605860">
        <time>2017-06-24T10:59:07Z</time>
      </trkpt>
      <trkpt lat="45.542850" lon="-0.605780">
        <time>2017-06-24T10:59:08Z</time>
      </trkpt>
      <trkpt lat="45.543140" lon="-0.605720">
        <time>2017-06-24T10:59:09Z</time>
      </trkpt>
      <trkpt lat="45.543450" lon="-0.605640">
        <time>2017-06-24T10:59:10Z</time>
      </trkpt>
      <trkpt lat="45.543790" lon="-0.605560">
        <time>2017-06-24T10:59:11Z</time>
      </trkpt>
      <trkpt lat="45.544080" lon="-0.605490">
        <time>2017-06-24T10:59:12Z</time>
      </trkpt>
      <trkpt lat="45.544400" lon="-0.605420">
        <time>2017-06-24T10:59:13Z</time>
      </trkpt>
      <trkpt lat="45.544710" lon="-0.605340">
        <time>2017-06-24T10:59:14Z</time>
      </trkpt>
      <trkpt lat="45.545030" lon="-0.605270">
        <time>2017-06-24T10:59:15Z</time>
      </trkpt>
      <trkpt lat="45.545370" lon="-0.605180">
        <time>2017-06-24T10:59:16Z</time>
      </trkpt>
      <trkpt lat="45.545670" lon="-0.605100">
        <time>2017-06-24T10:59:17Z</time>
      </trkpt>
      <trkpt lat="45.545980" lon="-0.605030">
        <time>2017-06-24T10:59:18Z</time>
      </trkpt>
      <trkpt lat="45.546320" lon="-0.604950">
        <time>2017-06-24T10:59:19Z</time>
      </trkpt>
      <trkpt lat="45.546610" lon="-0.604880">
        <time>2017-06-24T10:59:20Z</time>
      </trkpt>
      <trkpt lat="45.546920" lon="-0.604800">
        <time>2017-06-24T10:59:21Z</time>
      </trkpt>
      <trkpt lat="45.547240" lon="-0.604730">
        <time>2017-06-24T10:59:22Z</time>
      </trkpt>
      <trkpt lat="45.547530" lon="-0.604660">
        <time>2017-06-24T10:59:23Z</time>
      </trkpt>
      <trkpt lat="45.547850" lon="-0.604580">
        <time>2017-06-24T10:59:24Z</time>
      </trkpt>
      <trkpt lat="45.548140" lon="-0.604510">
        <time>2017-06-24T10:59:25Z</time>
      </trkpt>
      <trkpt lat="45.548440" lon="-0.604440">
        <time>2017-06-24T10:59:26Z</time>
      </trkpt>
      <trkpt lat="45.548770" lon="-0.604370">
        <time>2017-06-24T10:59:27Z</time>
      </trkpt>
      <trkpt lat="45.549060" lon="-0.604300">
        <time>2017-06-24T10:59:28Z</time>
      </trkpt>
      <trkpt lat="45.549370" lon="-0.604230">
        <time>2017-06-24T10:59:29Z</time>
      </trkpt>
      <trkpt lat="45.549680" lon="-0.604150">
        <time>2017-06-24T10:59:30Z</time>
      </trkpt>
      <trkpt lat="45.550000" lon="-0.604080">
        <time>2017-06-24T10:59:31Z</time>
      </trkpt>
      <trkpt lat="45.550340" lon="-0.604010">
        <time>2017-06-24T10:59:32Z</time>
      </trkpt>
      <trkpt lat="45.550640" lon="-0.603950">
        <time>2017-06-24T10:59:33Z</time>
      </trkpt>
      <trkpt lat="45.550960" lon="-0.603870">
        <time>2017-06-24T10:59:34Z</time>
      </trkpt>
      <trkpt lat="45.551300" lon="-0.603800">
        <time>2017-06-24T10:59:35Z</time>
      </trkpt>
      <trkpt lat="45.551600" lon="-0.603720">
        <time>2017-06-24T10:59:36Z</time>
      </trkpt>
      <trkpt lat="45.551920" lon="-0.603650">
        <time>2017-06-24T10:59:37Z</time>
      </trkpt>
      <trkpt lat="45.552250" lon="-0.603570">
        <time>2017-06-24T10:59:38Z</time>
      </trkpt>
      <trkpt lat="45.552550" lon="-0.603500">
        <time>2017-06-24T10:59:39Z</time>
      </trkpt>
      <trkpt lat="45.552870" lon="-0.603420">
        <time>2017-06-24T10:59:40Z</time>
      </trkpt>
      <trkpt lat="45.553160" lon="-0.603350">
        <time>2017-06-24T10:59:41Z</time>
      </trkpt>
      <trkpt lat="45.553470" lon="-0.603280">
        <time>2017-06-24T10:59:42Z</time>
      </trkpt>
      <trkpt lat="45.553800" lon="-0.603210">
        <time>2017-06-24T10:59:43Z</time>
      </trkpt>
      <trkpt lat="45.554090" lon="-0.603150">
        <time>2017-06-24T10:59:44Z</time>
      </trkpt>
      <trkpt lat="45.554400" lon="-0.603090">
        <time>2017-06-24T10:59:45Z</time>
      </trkpt>
      <trkpt lat="45.554710" lon="-0.603040">
        <time>2017-06-24T10:59:46Z</time>
      </trkpt>
      <trkpt lat="45.555020" lon="-0.602960">
        <time>2017-06-24T10:59:47Z</time>
      </trkpt>
      <trkpt lat="45.555350" lon="-0.602900">
        <time>2017-06-24T10:59:48Z</time>
      </trkpt>
      <trkpt lat="45.555640" lon="-0.602840">
        <time>2017-06-24T10:59:49Z</time>
      </trkpt>
      <trkpt lat="45.555960" lon="-0.602780">
        <time>2017-06-24T10:59:50Z</time>
      </trkpt>
      <trkpt lat="45.556290" lon="-0.602720">
        <time>2017-06-24T10:59:51Z</time>
      </trkpt>
      <trkpt lat="45.556590" lon="-0.602660">
        <time>2017-06-24T10:59:52Z</time>
      </trkpt>
      <trkpt lat="45.556900" lon="-0.602600">
        <time>2017-06-24T10:59:53Z</time>
      </trkpt>
      <trkpt lat="45.557240" lon="-0.602540">
        <time>2017-06-24T10:59:54Z</time>
      </trkpt>
      <trkpt lat="45.557530" lon="-0.602490">
        <time>2017-06-24T10:59:55Z</time>
      </trkpt>
      <trkpt lat="45.557870" lon="-0.602430">
        <time>2017-06-24T10:59:56Z</time>
      </trkpt>
      <trkpt lat="45.558170" lon="-0.602380">
        <time>2017-06-24T10:59:57Z</time>
      </trkpt>
      <trkpt lat="45.558490" lon="-0.602330">
        <time>2017-06-24T10:59:58Z</time>
      </trkpt>
      <trkpt lat="45.558830" lon="-0.602280">
        <time>2017-06-24T10:59:59Z</time>
      </trkpt>
      <trkpt lat="45.559130" lon="-0.602230">
        <time>2017-06-24T11:00:00Z</time>
      </trkpt>
      <trkpt lat="45.559450" lon="-0.602170">
        <time>2017-06-24T11:00:01Z</time>
      </trkpt>
      <trkpt lat="45.559770" lon="-0.602120">
        <time>2017-06-24T11:00:02Z</time>
      </trkpt>
      <trkpt lat="45.560100" lon="-0.602080">
        <time>2017-06-24T11:00:03Z</time>
      </trkpt>
      <trkpt lat="45.560440" lon="-0.602030">
        <time>2017-06-24T11:00:04Z</time>
      </trkpt>
      <trkpt lat="45.560740" lon="-0.601980">
        <time>2017-06-24T11:00:05Z</time>
      </trkpt>
      <trkpt lat="45.561060" lon="-0.601940">
        <time>2017-06-24T11:00:06Z</time>
      </trkpt>
      <trkpt lat="45.561400" lon="-0.601890">
        <time>2017-06-24T11:00:07Z</time>
      </trkpt>
      <trkpt lat="45.561700" lon="-0.601850">
        <time>2017-06-24T11:00:08Z</time>
      </trkpt>
      <trkpt lat="45.562020" lon="-0.601800">
        <time>2017-06-24T11:00:09Z</time>
      </trkpt>
      <trkpt lat="45.562360" lon="-0.601760">
        <time>2017-06-24T11:00:10Z</time>
      </trkpt>
      <trkpt lat="45.562660" lon="-0.601720">
        <time>2017-06-24T11:00:11Z</time>
      </trkpt>
      <trkpt lat="45.563000" lon="-0.601680">
        <time>2017-06-24T11:00:12Z</time>
      </trkpt>
      <trkpt lat="45.563300" lon="-0.601640">
        <time>2017-06-24T11:00:13Z</time>
      </trkpt>
      <trkpt lat="45.563620" lon="-0.601600">
        <time>2017-06-24T11:00:14Z</time>
      </trkpt>
      <trkpt lat="45.563960" lon="-0.601560">
        <time>2017-06-24T11:00:15Z</time>
      </trkpt>
      <trkpt lat="45.564260" lon="-0.601520">
        <time>2017-06-24T11:00:16Z</time>
      </trkpt>
      <trkpt lat="45.564580" lon="-0.601470">
        <time>2017-06-24T11:00:17Z</time>
      </trkpt>
      <trkpt lat="45.564900" lon="-0.601420">
        <time>2017-06-24T11:00:18Z</time>
      </trkpt>
      <trkpt lat="45.565210" lon="-0.601380">
        <time>2017-06-24T11:00:19Z</time>
      </trkpt>
      <trkpt lat="45.565540" lon="-0.601330">
        <time>2017-06-24T11:00:20Z</time>
      </trkpt>
      <trkpt lat="45.565830" lon="-0.601300">
        <time>2017-06-24T11:00:21Z</time>
      </trkpt>
      <trkpt lat="45.566140" lon="-0.601260">
        <time>2017-06-24T11:00:22Z</time>
      </trkpt>
      <trkpt lat="45.566470" lon="-0.601210">
        <time>2017-06-24T11:00:23Z</time>
      </trkpt>
      <trkpt lat="45.566760" lon="-0.601180">
        <time>2017-06-24T11:00:24Z</time>
      </trkpt>
      <trkpt lat="45.567070" lon="-0.601140">
        <time>2017-06-24T11:00:25Z</time>
      </trkpt>
      <trkpt lat="45.567400" lon="-0.601090">
        <time>2017-06-24T11:00:26Z</time>
      </trkpt>
      <trkpt lat="45.567690" lon="-0.601050">
        <time>2017-06-24T11:00:27Z</time>
      </trkpt>
      <trkpt lat="45.568010" lon="-0.601000">
        <time>2017-06-24T11:00:28Z</time>
      </trkpt>
      <trkpt lat="45.568290" lon="-0.600960">
        <time>2017-06-24T11:00:29Z</time>
      </trkpt>
      <trkpt lat="45.568600" lon="-0.600930">
        <time>2017-06-24T11:00:30Z</time>
      </trkpt>
      <trkpt lat="45.568920" lon="-0.600880">
        <time>2017-06-24T11:00:31Z</time>
      </trkpt>
      <trkpt lat="45.569200" lon="-0.600830">
        <time>2017-06-24T11:00:32Z</time>
      </trkpt>
      <trkpt lat="45.569500" lon="-0.600790">
        <time>2017-06-24T11:00:33Z</time>
      </trkpt>
      <trkpt lat="45.569800" lon="-0.600750">
        <time>2017-06-24T11:00:34Z</time>
      </trkpt>
      <trkpt lat="45.570100" lon="-0.600710">
        <time>2017-06-24T11:00:35Z</time>
      </trkpt>
      <trkpt lat="45.570430" lon="-0.600660">
        <time>2017-06-24T11:00:36Z</time>
      </trkpt>
      <trkpt lat="45.570710" lon="-0.600630">
        <time>2017-06-24T11:00:37Z</time>
      </trkpt>
      <trkpt lat="45.571010" lon="-0.600580">
        <time>2017-06-24T11:00:38Z</time>
      </trkpt>
      <trkpt lat="45.571340" lon="-0.600540">
        <time>2017-06-24T11:00:39Z</time>
      </trkpt>
      <trkpt lat="45.571620" lon="-0.600500">
        <time>2017-06-24T11:00:40Z</time>
      </trkpt>
      <trkpt lat="45.571920" lon="-0.600460">
        <time>2017-06-24T11:00:41Z</time>
      </trkpt>
      <trkpt lat="45.572250" lon="-0.600420">
        <time>2017-06-24T11:00:42Z</time>
      </trkpt>
      <trkpt lat="45.572540" lon="-0.600380">
        <time>2017-06-24T11:00:43Z</time>
      </trkpt>
      <trkpt lat="45.572860" lon="-0.600340">
        <time>2017-06-24T11:00:44Z</time>
      </trkpt>
      <trkpt lat="45.573140" lon="-0.600290">
        <time>2017-06-24T11:00:45Z</time>
      </trkpt>
      <trkpt lat="45.573430" lon="-0.600250">
        <time>2017-06-24T11:00:46Z</time>
      </trkpt>
      <trkpt lat="45.573750" lon="-0.600210">
        <time>2017-06-24T11:00:47Z</time>
      </trkpt>
      <trkpt lat="45.574020" lon="-0.600160">
        <time>2017-06-24T11:00:48Z</time>
      </trkpt>
      <trkpt lat="45.574320" lon="-0.600120">
        <time>2017-06-24T11:00:49Z</time>
      </trkpt>
      <trkpt lat="45.574610" lon="-0.600070">
        <time>2017-06-24T11:00:50Z</time>
      </trkpt>
      <trkpt lat="45.574910" lon="-0.600020">
        <time>2017-06-24T11:00:51Z</time>
      </trkpt>
      <trkpt lat="45.575220" lon="-0.599970">
        <time>2017-06-24T11:00:52Z</time>
      </trkpt>
      <trkpt lat="45.575500" lon="-0.599920">
        <time>2017-06-24T11:00:53Z</time>
      </trkpt>
      <trkpt lat="45.575790" lon="-0.599860">
        <time>2017-06-24T11:00:54Z</time>
      </trkpt>
      <trkpt lat="45.576100" lon="-0.599800">
        <time>2017-06-24T11:00:55Z</time>
      </trkpt>
      <trkpt lat="45.576380" lon="-0.599740">
        <time>2017-06-24T11:00:56Z</time>
      </trkpt>
      <trkpt lat="45.576670" lon="-0.599670">
        <time>2017-06-24T11:00:57Z</time>
      </trkpt>
      <trkpt lat="45.576980" lon="-0.599590">
        <time>2017-06-24T11:00:58Z</time>
      </trkpt>
      <trkpt lat="45.577250" lon="-0.599510">
        <time>2017-06-24T11:00:59Z</time>
      </trkpt>
      <trkpt lat="45.577560" lon="-0.599420">
        <time>2017-06-24T11:01:00Z</time>
      </trkpt>
      <trkpt lat="45.577830" lon="-0.599340">
        <time>2017-06-24T11:01:01Z</time>
      </trkpt>
      <trkpt lat="45.578130" lon="-0.599250">
        <time>2017-06-24T11:01:02Z</time>
      </trkpt>
      <trkpt lat="45.578440" lon="-0.599140">
        <time>2017-06-24T11:01:03Z</time>
      </trkpt>
      <trkpt lat="45.578720" lon="-0.599040">
        <time>2017-06-24T11:01:04Z</time>
      </trkpt>
      <trkpt lat="45.579020" lon="-0.598940">
        <time>2017-06-24T11:01:05Z</time>
      </trkpt>
      <trkpt lat="45.579320" lon="-0.598840">
        <time>2017-06-24T11:01:06Z</time>
      </trkpt>
      <trkpt lat="45.579620" lon="-0.598720">
        <time>2017-06-24T11:01:07Z</time>
      </trkpt>
      <trkpt lat="45.579940" lon="-0.598580">
        <time>2017-06-24T11:01:08Z</time>
      </trkpt>
      <trkpt lat="45.580220" lon="-0.598460">
        <time>2017-06-24T11:01:09Z</time>
      </trkpt>
      <trkpt lat="45.580530" lon="-0.598340">
        <time>2017-06-24T11:01:10Z</time>
      </trkpt>
      <trkpt lat="45.580860" lon="-0.598190">
        <time>2017-06-24T11:01:11Z</time>
      </trkpt>
      <trkpt lat="45.581140" lon="-0.598060">
        <time>2017-06-24T11:01:12Z</time>
      </trkpt>
      <trkpt lat="45.581440" lon="-0.597910">
        <time>2017-06-24T11:01:13Z</time>
      </trkpt>
      <trkpt lat="45.581770" lon="-0.597740">
        <time>2017-06-24T11:01:14Z</time>
      </trkpt>
      <trkpt lat="45.582050" lon="-0.597600">
        <time>2017-06-24T11:01:15Z</time>
      </trkpt>
      <trkpt lat="45.582370" lon="-0.597440">
        <time>2017-06-24T11:01:16Z</time>
      </trkpt>
      <trkpt lat="45.582650" lon="-0.597300">
        <time>2017-06-24T11:01:17Z</time>
      </trkpt>
      <trkpt lat="45.582940" lon="-0.597140">
        <time>2017-06-24T11:01:18Z</time>
      </trkpt>
      <trkpt lat="45.583260" lon="-0.596960">
        <time>2017-06-24T11:01:19Z</time>
      </trkpt>
      <trkpt lat="45.583530" lon="-0.596800">
        <time>2017-06-24T11:01:20Z</time>
      </trkpt>
      <trkpt lat="45.583820" lon="-0.596620">
        <time>2017-06-24T11:01:21Z</time>
      </trkpt>
      <trkpt lat="45.584110" lon="-0.596440">
        <time>2017-06-24T11:01:22Z</time>
      </trkpt>
      <trkpt lat="45.584400" lon="-0.596250">
        <time>2017-06-24T11:01:23Z</time>
      </trkpt>
      <trkpt lat="45.584700" lon="-0.596050">
        <time>2017-06-24T11:01:24Z</time>
      </trkpt>
      <trkpt lat="45.584960" lon="-0.595870">
        <time>2017-06-24T11:01:25Z</time>
      </trkpt>
      <trkpt lat="45.585240" lon="-0.595680">
        <time>2017-06-24T11:01:26Z</time>
      </trkpt>
      <trkpt lat="45.585530" lon="-0.595480">
        <time>2017-06-24T11:01:27Z</time>
      </trkpt>
      <trkpt lat="45.585790" lon="-0.595300">
        <time>2017-06-24T11:01:28Z</time>
      </trkpt>
      <trkpt lat="45.586070" lon="-0.595100">
        <time>2017-06-24T11:01:29Z</time>
      </trkpt>
      <trkpt lat="45.586360" lon="-0.594880">
        <time>2017-06-24T11:01:30Z</time>
      </trkpt>
      <trkpt lat="45.586620" lon="-0.594690">
        <time>2017-06-24T11:01:31Z</time>
      </trkpt>
      <trkpt lat="45.586920" lon="-0.594480">
        <time>2017-06-24T11:01:32Z</time>
      </trkpt>
      <trkpt lat="45.587180" lon="-0.594280">
        <time>2017-06-24T11:01:33Z</time>
      </trkpt>
      <trkpt lat="45.587470" lon="-0.594070">
        <time>2017-06-24T11:01:34Z</time>
      </trkpt>
      <trkpt lat="45.587780" lon="-0.593840">
        <time>2017-06-24T11:01:35Z</time>
      </trkpt>
      <trkpt lat="45.588050" lon="-0.593640">
        <time>2017-06-24T11:01:36Z</time>
      </trkpt>
      <trkpt lat="45.588340" lon="-0.593430">
        <time>2017-06-24T11:01:37Z</time>
      </trkpt>
      <trkpt lat="45.588640" lon="-0.593210">
        <time>2017-06-24T11:01:38Z</time>
      </trkpt>
      <trkpt lat="45.588940" lon="-0.593010">
        <time>2017-06-24T11:01:39Z</time>
      </trkpt>
      <trkpt lat="45.589260" lon="-0.592800">
        <time>2017-06-24T11:01:40Z</time>
      </trkpt>
      <trkpt lat="45.589540" lon="-0.592600">
        <time>2017-06-24T11:01:41Z</time>
      </trkpt>
      <trkpt lat="45.589830" lon="-0.592390">
        <time>2017-06-24T11:01:42Z</time>
      </trkpt>
      <trkpt lat="45.590150" lon="-0.592170">
        <time>2017-06-24T11:01:43Z</time>
      </trkpt>
      <trkpt lat="45.590430" lon="-0.591980">
        <time>2017-06-24T11:01:44Z</time>
      </trkpt>
      <trkpt lat="45.590720" lon="-0.591790">
        <time>2017-06-24T11:01:45Z</time>
      </trkpt>
      <trkpt lat="45.591040" lon="-0.591570">
        <time>2017-06-24T11:01:46Z</time>
      </trkpt>
      <trkpt lat="45.591310" lon="-0.591400">
        <time>2017-06-24T11:01:47Z</time>
      </trkpt>
      <trkpt lat="45.591630" lon="-0.591210">
        <time>2017-06-24T11:01:48Z</time>
      </trkpt>
      <trkpt lat="45.591910" lon="-0.591050">
        <time>2017-06-24T11:01:49Z</time>
      </trkpt>
      <trkpt lat="45.592200" lon="-0.590880">
        <time>2017-06-24T11:01:50Z</time>
      </trkpt>
      <trkpt lat="45.592520" lon="-0.590700">
        <time>2017-06-24T11:01:51Z</time>
      </trkpt>
      <trkpt lat="45.592800" lon="-0.590560">
        <time>2017-06-24T11:01:52Z</time>
      </trkpt>
      <trkpt lat="45.593090" lon="-0.590420">
        <time>2017-06-24T11:01:53Z</time>
      </trkpt>
      <trkpt lat="45.593390" lon="-0.590290">
        <time>2017-06-24T11:01:54Z</time>
      </trkpt>
      <trkpt lat="45.593690" lon="-0.590170">
        <time>2017-06-24T11:01:55Z</time>
      </trkpt>
      <trkpt lat="45.594020" lon="-0.590060">
        <time>2017-06-24T11:01:56Z</time>
      </trkpt>
      <trkpt lat="45.594310" lon="-0.589970">
        <time>2017-06-24T11:01:57Z</time>
      </trkpt>
      <trkpt lat="45.594620" lon="-0.589900">
        <time>2017-06-24T11:01:58Z</time>
      </trkpt>
      <trkpt lat="45.594950" lon="-0.589830">
        <time>2017-06-24T11:01:59Z</time>
      </trkpt>
      <trkpt lat="45.595240" lon="-0.589780">
        <time>2017-06-24T11:02:00Z</time>
      </trkpt>
      <trkpt lat="45.595560" lon="-0.589720">
        <time>2017-06-24T11:02:01Z</time>
      </trkpt>
      <trkpt lat="45.595890" lon="-0.589680">
        <time>2017-06-24T11:02:02Z</time>
      </trkpt>
      <trkpt lat="45.596190" lon="-0.589640">
        <time>2017-06-24T11:02:03Z</time>
      </trkpt>
      <trkpt lat="45.596520" lon="-0.589600">
        <time>2017-06-24T11:02:04Z</time>
      </trkpt>
      <trkpt lat="45.596810" lon="-0.589570">
        <time>2017-06-24T11:02:05Z</time>
      </trkpt>
      <trkpt lat="45.597120" lon="-0.589550">
        <time>2017-06-24T11:02:06Z</time>
      </trkpt>
      <trkpt lat="45.597450" lon="-0.589540">
        <time>2017-06-24T11:02:07Z</time>
      </trkpt>
      <trkpt lat="45.597730" lon="-0.589550">
        <time>2017-06-24T11:02:08Z</time>
      </trkpt>
      <trkpt lat="45.598040" lon="-0.589580">
        <time>2017-06-24T11:02:09Z</time>
      </trkpt>
      <trkpt lat="45.598340" lon="-0.589600">
        <time>2017-06-24T11:02:10Z</time>
      </trkpt>
      <trkpt lat="45.598650" lon="-0.589640">
        <time>2017-06-24T11:02:11Z</time>
      </trkpt>
      <trkpt lat="45.598980" lon="-0.589690">
        <time>2017-06-24T11:02:12Z</time>
      </trkpt>
      <trkpt lat="45.599260" lon="-0.589740">
        <time>2017-06-24T11:02:13Z</time>
      </trkpt>
      <trkpt lat="45.599560" lon="-0.589800">
        <time>2017-06-24T11:02:14Z</time>
      </trkpt>
      <trkpt lat="45.599890" lon="-0.589880">
        <time>2017-06-24T11:02:15Z</time>
      </trkpt>
      <trkpt lat="45.600170" lon="-0.589960">
        <time>2017-06-24T11:02:16Z</time>
      </trkpt>
      <trkpt lat="45.600480" lon="-0.590060">
        <time>2017-06-24T11:02:17Z</time>
      </trkpt>
      <trkpt lat="45.600800" lon="-0.590160">
        <time>2017-06-24T11:02:18Z</time>
      </trkpt>
      <trkpt lat="45.601080" lon="-0.590270">
        <time>2017-06-24T11:02:19Z</time>
      </trkpt>
      <trkpt lat="45.601400" lon="-0.590400">
        <time>2017-06-24T11:02:20Z</time>
      </trkpt>
      <trkpt lat="45.601680" lon="-0.590530">
        <time>2017-06-24T11:02:21Z</time>
      </trkpt>
      <trkpt lat="45.601980" lon="-0.590670">
        <time>2017-06-24T11:02:22Z</time>
      </trkpt>
      <trkpt lat="45.602290" lon="-0.590830">
        <time>2017-06-24T11:02:23Z</time>
      </trkpt>
      <trkpt lat="45.602570" lon="-0.590980">
        <time>2017-06-24T11:02:24Z</time>
      </trkpt>
      <trkpt lat="45.602860" lon="-0.591150">
        <time>2017-06-24T11:02:25Z</time>
      </trkpt>
      <trkpt lat="45.603150" lon="-0.591330">
        <time>2017-06-24T11:02:26Z</time>
      </trkpt>
      <trkpt lat="45.603440" lon="-0.591520">
        <time>2017-06-24T11:02:27Z</time>
      </trkpt>
      <trkpt lat="45.603740" lon="-0.591730">
        <time>2017-06-24T11:02:28Z</time>
      </trkpt>
      <trkpt lat="45.604010" lon="-0.591930">
        <time>2017-06-24T11:02:29Z</time>
      </trkpt>
      <trkpt lat="45.604280" lon="-0.592140">
        <time>2017-06-24T11:02:30Z</time>
      </trkpt>
      <trkpt lat="45.604580" lon="-0.592390">
        <time>2017-06-24T11:02:31Z</time>
      </trkpt>
      <trkpt lat="45.604830" lon="-0.592600">
        <time>2017-06-24T11:02:32Z</time>
      </trkpt>
      <trkpt lat="45.605100" lon="-0.592840">
        <time>2017-06-24T11:02:33Z</time>
      </trkpt>
      <trkpt lat="45.605370" lon="-0.593100">
        <time>2017-06-24T11:02:34Z</time>
      </trkpt>
      <trkpt lat="45.605610" lon="-0.593330">
        <time>2017-06-24T11:02:35Z</time>
      </trkpt>
      <trkpt lat="45.605880" lon="-0.593610">
        <time>2017-06-24T11:02:36Z</time>
      </trkpt>
      <trkpt lat="45.606120" lon="-0.593870">
        <time>2017-06-24T11:02:37Z</time>
      </trkpt>
      <trkpt lat="45.606360" lon="-0.594150">
        <time>2017-06-24T11:02:38Z</time>
      </trkpt>
      <trkpt lat="45.606620" lon="-0.594440">
        <time>2017-06-24T11:02:39Z</time>
      </trkpt>
      <trkpt lat="45.606840" lon="-0.594710">
        <time>2017-06-24T11:02:40Z</time>
      </trkpt>
      <trkpt lat="45.607090" lon="-0.595000">
        <time>2017-06-24T11:02:41Z</time>
      </trkpt>
      <trkpt lat="45.607320" lon="-0.595300">
        <time>2017-06-24T11:02:42Z</time>
      </trkpt>
      <trkpt lat="45.607550" lon="-0.595590">
        <time>2017-06-24T11:02:43Z</time>
      </trkpt>
      <trkpt lat="45.607790" lon="-0.595920">
        <time>2017-06-24T11:02:44Z</time>
      </trkpt>
      <trkpt lat="45.608000" lon="-0.596200">
        <time>2017-06-24T11:02:45Z</time>
      </trkpt>
      <trkpt lat="45.608230" lon="-0.596510">
        <time>2017-06-24T11:02:46Z</time>
      </trkpt>
      <trkpt lat="45.608470" lon="-0.596840">
        <time>2017-06-24T11:02:47Z</time>
      </trkpt>
      <trkpt lat="45.608680" lon="-0.597130">
        <time>2017-06-24T11:02:48Z</time>
      </trkpt>
      <trkpt lat="45.608900" lon="-0.597450">
        <time>2017-06-24T11:02:49Z</time>
      </trkpt>
      <trkpt lat="45.609140" lon="-0.597780">
        <time>2017-06-24T11:02:50Z</time>
      </trkpt>
      <trkpt lat="45.609350" lon="-0.598080">
        <time>2017-06-24T11:02:51Z</time>
      </trkpt>
      <trkpt lat="45.609590" lon="-0.598410">
        <time>2017-06-24T11:02:52Z</time>
      </trkpt>
      <trkpt lat="45.609800" lon="-0.598700">
        <time>2017-06-24T11:02:53Z</time>
      </trkpt>
      <trkpt lat="45.610020" lon="-0.599020">
        <time>2017-06-24T11:02:54Z</time>
      </trkpt>
      <trkpt lat="45.610260" lon="-0.599350">
        <time>2017-06-24T11:02:55Z</time>
      </trkpt>
      <trkpt lat="45.610470" lon="-0.599630">
        <time>2017-06-24T11:02:56Z</time>
      </trkpt>
      <trkpt lat="45.610690" lon="-0.599930">
        <time>2017-06-24T11:02:57Z</time>
      </trkpt>
      <trkpt lat="45.610910" lon="-0.600230">
        <time>2017-06-24T11:02:58Z</time>
      </trkpt>
      <trkpt lat="45.611150" lon="-0.600520">
        <time>2017-06-24T11:02:59Z</time>
      </trkpt>
      <trkpt lat="45.611390" lon="-0.600830">
        <time>2017-06-24T11:03:00Z</time>
      </trkpt>
      <trkpt lat="45.611610" lon="-0.601100">
        <time>2017-06-24T11:03:01Z</time>
      </trkpt>
      <trkpt lat="45.611850" lon="-0.601380">
        <time>2017-06-24T11:03:02Z</time>
      </trkpt>
      <trkpt lat="45.612100" lon="-0.601670">
        <time>2017-06-24T11:03:03Z</time>
      </trkpt>
      <trkpt lat="45.612330" lon="-0.601930">
        <time>2017-06-24T11:03:04Z</time>
      </trkpt>
      <trkpt lat="45.612570" lon="-0.602190">
        <time>2017-06-24T11:03:05Z</time>
      </trkpt>
      <trkpt lat="45.612830" lon="-0.602480">
        <time>2017-06-24T11:03:06Z</time>
      </trkpt>
      <trkpt lat="45.613070" lon="-0.602720">
        <time>2017-06-24T11:03:07Z</time>
      </trkpt>
      <trkpt lat="45.613330" lon="-0.602990">
        <time>2017-06-24T11:03:08Z</time>
      </trkpt>
      <trkpt lat="45.613570" lon="-0.603230">
        <time>2017-06-24T11:03:09Z</time>
      </trkpt>
      <trkpt lat="45.613830" lon="-0.603480">
        <time>2017-06-24T11:03:10Z</time>
      </trkpt>
      <trkpt lat="45.614110" lon="-0.603730">
        <time>2017-06-24T11:03:11Z</time>
      </trkpt>
      <trkpt lat="45.614350" lon="-0.603940">
        <time>2017-06-24T11:03:12Z</time>
      </trkpt>
      <trkpt lat="45.614620" lon="-0.604160">
        <time>2017-06-24T11:03:13Z</time>
      </trkpt>
      <trkpt lat="45.614900" lon="-0.604380">
        <time>2017-06-24T11:03:14Z</time>
      </trkpt>
      <trkpt lat="45.615170" lon="-0.604590">
        <time>2017-06-24T11:03:15Z</time>
      </trkpt>
      <trkpt lat="45.615460" lon="-0.604810">
        <time>2017-06-24T11:03:16Z</time>
      </trkpt>
      <trkpt lat="45.615720" lon="-0.605000">
        <time>2017-06-24T11:03:17Z</time>
      </trkpt>
      <trkpt lat="45.615990" lon="-0.605190">
        <time>2017-06-24T11:03:18Z</time>
      </trkpt>
      <trkpt lat="45.616290" lon="-0.605390">
        <time>2017-06-24T11:03:19Z</time>
      </trkpt>
      <trkpt lat="45.616550" lon="-0.605570">
        <time>2017-06-24T11:03:20Z</time>
      </trkpt>
      <trkpt lat="45.616830" lon="-0.605750">
        <time>2017-06-24T11:03:21Z</time>
      </trkpt>
      <trkpt lat="45.617130" lon="-0.605950">
        <time>2017-06-24T11:03:22Z</time>
      </trkpt>
      <trkpt lat="45.617400" lon="-0.606110">
        <time>2017-06-24T11:03:23Z</time>
      </trkpt>
      <trkpt lat="45.617710" lon="-0.606290">
        <time>2017-06-24T11:03:24Z</time>
      </trkpt>
      <trkpt lat="45.617980" lon="-0.606450">
        <time>2017-06-24T11:03:25Z</time>
      </trkpt>
      <trkpt lat="45.618280" lon="-0.606620">
        <time>2017-06-24T11:03:26Z</time>
      </trkpt>
      <trkpt lat="45.618590" lon="-0.606790">
        <time>2017-06-24T11:03:27Z</time>
      </trkpt>
      <trkpt lat="45.618870" lon="-0.606920">
        <time>2017-06-24T11:03:28Z</time>
      </trkpt>
      <trkpt lat="45.619170" lon="-0.607090">
        <time>2017-06-24T11:03:29Z</time>
      </trkpt>
      <trkpt lat="45.619470" lon="-0.607260">
        <time>2017-06-24T11:03:30Z</time>
      </trkpt>
      <trkpt lat="45.619770" lon="-0.607440">
        <time>2017-06-24T11:03:31Z</time>
      </trkpt>
      <trkpt lat="45.620080" lon="-0.607610">
        <time>2017-06-24T11:03:32Z</time>
      </trkpt>
      <trkpt lat="45.620360" lon="-0.607770">
        <time>2017-06-24T11:03:33Z</time>
      </trkpt>
      <trkpt lat="45.620660" lon="-0.607940">
        <time>2017-06-24T11:03:34Z</time>
      </trkpt>
      <trkpt lat="45.620980" lon="-0.608120">
        <time>2017-06-24T11:03:35Z</time>
      </trkpt>
      <trkpt lat="45.621270" lon="-0.608270">
        <time>2017-06-24T11:03:36Z</time>
      </trkpt>
      <trkpt lat="45.621570" lon="-0.608430">
        <time>2017-06-24T11:03:37Z</time>
      </trkpt>
      <trkpt lat="45.621890" lon="-0.608620">
        <time>2017-06-24T11:03:38Z</time>
      </trkpt>
      <trkpt lat="45.622170" lon="-0.608770">
        <time>2017-06-24T11:03:39Z</time>
      </trkpt>
      <trkpt lat="45.622490" lon="-0.608950">
        <time>2017-06-24T11:03:40Z</time>
      </trkpt>
      <trkpt lat="45.622760" lon="-0.609090">
        <time>2017-06-24T11:03:41Z</time>
      </trkpt>
      <trkpt lat="45.623050" lon="-0.609240">
        <time>2017-06-24T11:03:42Z</time>
      </trkpt>
      <trkpt lat="45.623350" lon="-0.609410">
        <time>2017-06-24T11:03:43Z</time>
      </trkpt>
      <trkpt lat="45.623620" lon="-0.609560">
        <time>2017-06-24T11:03:44Z</time>
      </trkpt>
      <trkpt lat="45.623900" lon="-0.609720">
        <time>2017-06-24T11:03:45Z</time>
      </trkpt>
      <trkpt lat="45.624180" lon="-0.609890">
        <time>2017-06-24T11:03:46Z</time>
      </trkpt>
      <trkpt lat="45.624460" lon="-0.610070">
        <time>2017-06-24T11:03:47Z</time>
      </trkpt>
      <trkpt lat="45.624760" lon="-0.610260">
        <time>2017-06-24T11:03:48Z</time>
      </trkpt>
      <trkpt lat="45.625020" lon="-0.610430">
        <time>2017-06-24T11:03:49Z</time>
      </trkpt>
      <trkpt lat="45.625300" lon="-0.610610">
        <time>2017-06-24T11:03:50Z</time>
      </trkpt>
      <trkpt lat="45.625590" lon="-0.610810">
        <time>2017-06-24T11:03:51Z</time>
      </trkpt>
      <trkpt lat="45.625860" lon="-0.610990">
        <time>2017-06-24T11:03:52Z</time>
      </trkpt>
      <trkpt lat="45.626130" lon="-0.611190">
        <time>2017-06-24T11:03:53Z</time>
      </trkpt>
      <trkpt lat="45.626420" lon="-0.611410">
        <time>2017-06-24T11:03:54Z</time>
      </trkpt>
      <trkpt lat="45.626670" lon="-0.611610">
        <time>2017-06-24T11:03:55Z</time>
      </trkpt>
      <trkpt lat="45.626960" lon="-0.611840">
        <time>2017-06-24T11:03:56Z</time>
      </trkpt>
      <trkpt lat="45.627210" lon="-0.612040">
        <time>2017-06-24T11:03:57Z</time>
      </trkpt>
      <trkpt lat="45.627470" lon="-0.612250">
        <time>2017-06-24T11:03:58Z</time>
      </trkpt>
      <trkpt lat="45.627750" lon="-0.612500">
        <time>2017-06-24T11:03:59Z</time>
      </trkpt>
      <trkpt lat="45.628000" lon="-0.612710">
        <time>2017-06-24T11:04:00Z</time>
      </trkpt>
      <trkpt lat="45.628270" lon="-0.612940">
        <time>2017-06-24T11:04:01Z</time>
      </trkpt>
      <trkpt lat="45.628520" lon="-0.613170">
        <time>2017-06-24T11:04:02Z</time>
      </trkpt>
      <trkpt lat="45.628790" lon="-0.613410">
        <time>2017-06-24T11:04:03Z</time>
      </trkpt>
      <trkpt lat="45.629070" lon="-0.613680">
        <time>2017-06-24T11:04:04Z</time>
      </trkpt>
      <trkpt lat="45.629310" lon="-0.613910">
        <time>2017-06-24T11:04:05Z</time>
      </trkpt>
      <trkpt lat="45.629570" lon="-0.614170">
        <time>2017-06-24T11:04:06Z</time>
      </trkpt>
      <trkpt lat="45.629840" lon="-0.614440">
        <time>2017-06-24T11:04:07Z</time>
      </trkpt>
      <trkpt lat="45.630080" lon="-0.614690">
        <time>2017-06-24T11:04:08Z</time>
      </trkpt>
      <trkpt lat="45.630330" lon="-0.614960">
        <time>2017-06-24T11:04:09Z</time>
      </trkpt>
      <trkpt lat="45.630590" lon="-0.615250">
        <time>2017-06-24T11:04:10Z</time>
      </trkpt>
      <trkpt lat="45.630820" lon="-0.615500">
        <time>2017-06-24T11:04:11Z</time>
      </trkpt>
      <trkpt lat="45.631090" lon="-0.615790">
        <time>2017-06-24T11:04:12Z</time>
      </trkpt>
      <trkpt lat="45.631320" lon="-0.616050">
        <time>2017-06-24T11:04:13Z</time>
      </trkpt>
      <trkpt lat="45.631560" lon="-0.616330">
        <time>2017-06-24T11:04:14Z</time>
      </trkpt>
      <trkpt lat="45.631820" lon="-0.616630">
        <time>2017-06-24T11:04:15Z</time>
      </trkpt>
      <trkpt lat="45.632050" lon="-0.616900">
        <time>2017-06-24T11:04:16Z</time>
      </trkpt>
      <trkpt lat="45.632300" lon="-0.617170">
        <time>2017-06-24T11:04:17Z</time>
      </trkpt>
      <trkpt lat="45.632540" lon="-0.617470">
        <time>2017-06-24T11:04:18Z</time>
      </trkpt>
      <trkpt lat="45.632790" lon="-0.617760">
        <time>2017-06-24T11:04:19Z</time>
      </trkpt>
      <trkpt lat="45.633050" lon="-0.618070">
        <time>2017-06-24T11:04:20Z</time>
      </trkpt>
      <trkpt lat="45.633280" lon="-0.618340">
        <time>2017-06-24T11:04:21Z</time>
      </trkpt>
      <trkpt lat="45.633520" lon="-0.618630">
        <time>2017-06-24T11:04:22Z</time>
      </trkpt>
      <trkpt lat="45.633780" lon="-0.618940">
        <time>2017-06-24T11:04:23Z</time>
      </trkpt>
      <trkpt lat="45.634010" lon="-0.619210">
        <time>2017-06-24T11:04:24Z</time>
      </trkpt>
      <trkpt lat="45.634250" lon="-0.619500">
        <time>2017-06-24T11:04:25Z</time>
      </trkpt>
      <trkpt lat="45.634510" lon="-0.619800">
        <time>2017-06-24T11:04:26Z</time>
      </trkpt>
      <trkpt lat="45.634740" lon="-0.620070">
        <time>2017-06-24T11:04:27Z</time>
      </trkpt>
      <trkpt lat="45.634990" lon="-0.620370">
        <time>2017-06-24T11:04:28Z</time>
      </trkpt>
      <trkpt lat="45.635230" lon="-0.620640">
        <time>2017-06-24T11:04:29Z</time>
      </trkpt>
      <trkpt lat="45.635470" lon="-0.620930">
        <time>2017-06-24T11:04:30Z</time>
      </trkpt>
      <trkpt lat="45.635730" lon="-0.621230">
        <time>2017-06-24T11:04:31Z</time>
      </trkpt>
      <trkpt lat="45.635960" lon="-0.621500">
        <time>2017-06-24T11:04:32Z</time>
      </trkpt>
      <trkpt lat="45.636200" lon="-0.621780">
        <time>2017-06-24T11:04:33Z</time>
      </trkpt>
      <trkpt lat="45.636450" lon="-0.622050">
        <time>2017-06-24T11:04:34Z</time>
      </trkpt>
      <trkpt lat="45.636690" lon="-0.622330">
        <time>2017-06-24T11:04:35Z</time>
      </trkpt>
      <trkpt lat="45.636950" lon="-0.622620">
        <time>2017-06-24T11:04:36Z</time>
      </trkpt>
      <trkpt lat="45.637190" lon="-0.622880">
        <time>2017-06-24T11:04:37Z</time>
      </trkpt>
      <trkpt lat="45.637430" lon="-0.623140">
        <time>2017-06-24T11:04:38Z</time>
      </trkpt>
      <trkpt lat="45.637700" lon="-0.623430">
        <time>2017-06-24T11:04:39Z</time>
      </trkpt>
      <trkpt lat="45.637940" lon="-0.623680">
        <time>2017-06-24T11:04:40Z</time>
      </trkpt>
      <trkpt lat="45.638200" lon="-0.623950">
        <time>2017-06-24T11:04:41Z</time>
      </trkpt>
      <trkpt lat="45.638480" lon="-0.624230">
        <time>2017-06-24T11:04:42Z</time>
      </trkpt>
      <trkpt lat="45.638720" lon="-0.624470">
        <time>2017-06-24T11:04:43Z</time>
      </trkpt>
      <trkpt lat="45.639000" lon="-0.624750">
        <time>2017-06-24T11:04:44Z</time>
      </trkpt>
      <trkpt lat="45.639240" lon="-0.624990">
        <time>2017-06-24T11:04:45Z</time>
      </trkpt>
      <trkpt lat="45.639510" lon="-0.625250">
        <time>2017-06-24T11:04:46Z</time>
      </trkpt>
      <trkpt lat="45.639790" lon="-0.625510">
        <time>2017-06-24T11:04:47Z</time>
      </trkpt>
      <trkpt lat="45.640040" lon="-0.625740">
        <time>2017-06-24T11:04:48Z</time>
      </trkpt>
      <trkpt lat="45.640300" lon="-0.625990">
        <time>2017-06-24T11:04:49Z</time>
      </trkpt>
      <trkpt lat="45.640570" lon="-0.626230">
        <time>2017-06-24T11:04:50Z</time>
      </trkpt>
      <trkpt lat="45.640840" lon="-0.626480">
        <time>2017-06-24T11:04:51Z</time>
      </trkpt>
      <trkpt lat="45.641130" lon="-0.626730">
        <time>2017-06-24T11:04:52Z</time>
      </trkpt>
      <trkpt lat="45.641380" lon="-0.626940">
        <time>2017-06-24T11:04:53Z</time>
      </trkpt>
      <trkpt lat="45.641650" lon="-0.627170">
        <time>2017-06-24T11:04:54Z</time>
      </trkpt>
      <trkpt lat="45.641940" lon="-0.627410">
        <time>2017-06-24T11:04:55Z</time>
      </trkpt>
      <trkpt lat="45.642200" lon="-0.627610">
        <time>2017-06-24T11:04:56Z</time>
      </trkpt>
      <trkpt lat="45.642480" lon="-0.627830">
        <time>2017-06-24T11:04:57Z</time>
      </trkpt>
      <trkpt lat="45.642760" lon="-0.628060">
        <time>2017-06-24T11:04:58Z</time>
      </trkpt>
      <trkpt lat="45.643010" lon="-0.628240">
        <time>2017-06-24T11:04:59Z</time>
      </trkpt>
      <trkpt lat="45.643310" lon="-0.628460">
        <time>2017-06-24T11:05:00Z</time>
      </trkpt>
      <trkpt lat="45.643560" lon="-0.628660">
        <time>2017-06-24T11:05:01Z</time>
      </trkpt>
      <trkpt lat="45.643830" lon="-0.628860">
        <time>2017-06-24T11:05:02Z</time>
      </trkpt>
      <trkpt lat="45.644130" lon="-0.629070">
        <time>2017-06-24T11:05:03Z</time>
      </trkpt>
      <trkpt lat="45.644400" lon="-0.629260">
        <time>2017-06-24T11:05:04Z</time>
      </trkpt>
      <trkpt lat="45.644680" lon="-0.629460">
        <time>2017-06-24T11:05:05Z</time>
      </trkpt>
      <trkpt lat="45.644970" lon="-0.629660">
        <time>2017-06-24T11:05:06Z</time>
      </trkpt>
      <trkpt lat="45.645240" lon="-0.629850">
        <time>2017-06-24T11:05:07Z</time>
      </trkpt>
      <trkpt lat="45.645550" lon="-0.630050">
        <time>2017-06-24T11:05:08Z</time>
      </trkpt>
      <trkpt lat="45.645810" lon="-0.630230">
        <time>2017-06-24T11:05:09Z</time>
      </trkpt>
      <trkpt lat="45.646100" lon="-0.630410">
        <time>2017-06-24T11:05:10Z</time>
      </trkpt>
      <trkpt lat="45.646400" lon="-0.630610">
        <time>2017-06-24T11:05:11Z</time>
      </trkpt>
      <trkpt lat="45.646670" lon="-0.630780">
        <time>2017-06-24T11:05:12Z</time>
      </trkpt>
      <trkpt lat="45.646960" lon="-0.630950">
        <time>2017-06-24T11:05:13Z</time>
      </trkpt>
      <trkpt lat="45.647270" lon="-0.631130">
        <time>2017-06-24T11:05:14Z</time>
      </trkpt>
      <trkpt lat="45.647540" lon="-0.631280">
        <time>2017-06-24T11:05:15Z</time>
      </trkpt>
      <trkpt lat="45.647850" lon="-0.631460">
        <time>2017-06-24T11:05:16Z</time>
      </trkpt>
      <trkpt lat="45.648120" lon="-0.631590">
        <time>2017-06-24T11:05:17Z</time>
      </trkpt>
      <trkpt lat="45.648400" lon="-0.631740">
        <time>2017-06-24T11:05:18Z</time>
      </trkpt>
      <trkpt lat="45.648710" lon="-0.631900">
        <time>2017-06-24T11:05:19Z</time>
      </trkpt>
      <trkpt lat="45.648980" lon="-0.632030">
        <time>2017-06-24T11:05:20Z</time>
      </trkpt>
      <trkpt lat="45.649270" lon="-0.632160">
        <time>2017-06-24T11:05:21Z</time>
      </trkpt>
      <trkpt lat="45.649550" lon="-0.632290">
        <time>2017-06-24T11:05:22Z</time>
      </trkpt>
      <trkpt lat="45.649830" lon="-0.632410">
        <time>2017-06-24T11:05:23Z</time>
      </trkpt>
      <trkpt lat="45.650120" lon="-0.632530">
        <time>2017-06-24T11:05:24Z</time>
      </trkpt>
      <trkpt lat="45.650370" lon="-0.632630">
        <time>2017-06-24T11:05:25Z</time>
      </trkpt>
      <trkpt lat="45.650640" lon="-0.632740">
        <time>2017-06-24T11:05:26Z</time>
      </trkpt>
      <trkpt lat="45.650920" lon="-0.632870">
        <time>2017-06-24T11:05:27Z</time>
      </trkpt>
      <trkpt lat="45.651170" lon="-0.632970">
        <time>2017-06-24T11:05:28Z</time>
      </trkpt>
      <trkpt lat="45.651430" lon="-0.633080">
        <time>2017-06-24T11:05:29Z</time>
      </trkpt>
      <trkpt lat="45.651710" lon="-0.633190">
        <time>2017-06-24T11:05:30Z</time>
      </trkpt>
      <trkpt lat="45.651960" lon="-0.633290">
        <time>2017-06-24T11:05:31Z</time>
      </trkpt>
      <trkpt lat="45.652240" lon="-0.633400">
        <time>2017-06-24T11:05:32Z</time>
      </trkpt>
      <trkpt lat="45.652490" lon="-0.633490">
        <time>2017-06-24T11:05:33Z</time>
      </trkpt>
      <trkpt lat="45.652760" lon="-0.633580">
        <time>2017-06-24T11:05:34Z</time>
      </trkpt>
      <trkpt lat="45.653060" lon="-0.633690">
        <time>2017-06-24T11:05:35Z</time>
      </trkpt>
      <trkpt lat="45.653320" lon="-0.633780">
        <time>2017-06-24T11:05:36Z</time>
      </trkpt>
      <trkpt lat="45.653620" lon="-0.633880">
        <time>2017-06-24T11:05:37Z</time>
      </trkpt>
      <trkpt lat="45.653910" lon="-0.633980">
        <time>2017-06-24T11:05:38Z</time>
      </trkpt>
      <trkpt lat="45.654200" lon="-0.634080">
        <time>2017-06-24T11:05:39Z</time>
      </trkpt>
      <trkpt lat="45.654520" lon="-0.634190">
        <time>2017-06-24T11:05:40Z</time>
      </trkpt>
      <trkpt lat="45.654810" lon="-0.634280">
        <time>2017-06-24T11:05:41Z</time>
      </trkpt>
      <trkpt lat="45.655110" lon="-0.634370">
        <time>2017-06-24T11:05:42Z</time>
      </trkpt>
      <trkpt lat="45.655440" lon="-0.634470">
        <time>2017-06-24T11:05:43Z</time>
      </trkpt>
      <trkpt lat="45.655720" lon="-0.634550">
        <time>2017-06-24T11:05:44Z</time>
      </trkpt>
      <trkpt lat="45.656040" lon="-0.634640">
        <time>2017-06-24T11:05:45Z</time>
      </trkpt>
      <trkpt lat="45.656370" lon="-0.634710">
        <time>2017-06-24T11:05:46Z</time>
      </trkpt>
      <trkpt lat="45.656650" lon="-0.634770">
        <time>2017-06-24T11:05:47Z</time>
      </trkpt>
      <trkpt lat="45.656980" lon="-0.634830">
        <time>2017-06-24T11:05:48Z</time>
      </trkpt>
      <trkpt lat="45.657270" lon="-0.634900">
        <time>2017-06-24T11:05:49Z</time>
      </trkpt>
      <trkpt lat="45.657570" lon="-0.634970">
        <time>2017-06-24T11:05:50Z</time>
      </trkpt>
      <trkpt lat="45.657900" lon="-0.635040">
        <time>2017-06-24T11:05:51Z</time>
      </trkpt>
      <trkpt lat="45.658180" lon="-0.635100">
        <time>2017-06-24T11:05:52Z</time>
      </trkpt>
      <trkpt lat="45.658480" lon="-0.635170">
        <time>2017-06-24T11:05:53Z</time>
      </trkpt>
      <trkpt lat="45.658780" lon="-0.635240">
        <time>2017-06-24T11:05:54Z</time>
      </trkpt>
      <trkpt lat="45.659080" lon="-0.635300">
        <time>2017-06-24T11:05:55Z</time>
      </trkpt>
      <trkpt lat="45.659400" lon="-0.635380">
        <time>2017-06-24T11:05:56Z</time>
      </trkpt>
      <trkpt lat="45.659690" lon="-0.635440">
        <time>2017-06-24T11:05:57Z</time>
      </trkpt>
      <trkpt lat="45.659990" lon="-0.635510">
        <time>2017-06-24T11:05:58Z</time>
      </trkpt>
      <trkpt lat="45.660310" lon="-0.635590">
        <time>2017-06-24T11:05:59Z</time>
      </trkpt>
      <trkpt lat="45.660580" lon="-0.635660">
        <time>2017-06-24T11:06:00Z</time>
      </trkpt>
      <trkpt lat="45.660880" lon="-0.635730">
        <time>2017-06-24T11:06:01Z</time>
      </trkpt>
      <trkpt lat="45.661190" lon="-0.635800">
        <time>2017-06-24T11:06:02Z</time>
      </trkpt>
      <trkpt lat="45.661460" lon="-0.635870">
        <time>2017-06-24T11:06:03Z</time>
      </trkpt>
      <trkpt lat="45.661770" lon="-0.635950">
        <time>2017-06-24T11:06:04Z</time>
      </trkpt>
      <trkpt lat="45.662040" lon="-0.636020">
        <time>2017-06-24T11:06:05Z</time>
      </trkpt>
      <trkpt lat="45.662320" lon="-0.636090">
        <time>2017-06-24T11:06:06Z</time>
      </trkpt>
      <trkpt lat="45.662630" lon="-0.636170">
        <time>2017-06-24T11:06:07Z</time>
      </trkpt>
      <trkpt lat="45.662890" lon="-0.636230">
        <time>2017-06-24T11:06:08Z</time>
      </trkpt>
      <trkpt lat="45.663180" lon="-0.636300">
        <time>2017-06-24T11:06:09Z</time>
      </trkpt>
      <trkpt lat="45.663470" lon="-0.636360">
        <time>2017-06-24T11:06:10Z</time>
      </trkpt>
      <trkpt lat="45.663750" lon="-0.636430">
        <time>2017-06-24T11:06:11Z</time>
      </trkpt>
      <trkpt lat="45.664060" lon="-0.636500">
        <time>2017-06-24T11:06:12Z</time>
      </trkpt>
      <trkpt lat="45.664340" lon="-0.636560">
        <time>2017-06-24T11:06:13Z</time>
      </trkpt>
      <trkpt lat="45.664630" lon="-0.636630">
        <time>2017-06-24T11:06:14Z</time>
      </trkpt>
      <trkpt lat="45.664940" lon="-0.636700">
        <time>2017-06-24T11:06:15Z</time>
      </trkpt>
      <trkpt lat="45.665220" lon="-0.636770">
        <time>2017-06-24T11:06:16Z</time>
      </trkpt>
      <trkpt lat="45.665500" lon="-0.636840">
        <time>2017-06-24T11:06:17Z</time>
      </trkpt>
      <trkpt lat="45.665810" lon="-0.636910">
        <time>2017-06-24T11:06:18Z</time>
      </trkpt>
      <trkpt lat="45.666080" lon="-0.636970">
        <time>2017-06-24T11:06:19Z</time>
      </trkpt>
      <trkpt lat="45.666390" lon="-0.637030">
        <time>2017-06-24T11:06:20Z</time>
      </trkpt>
      <trkpt lat="45.666670" lon="-0.637090">
        <time>2017-06-24T11:06:21Z</time>
      </trkpt>
      <trkpt lat="45.666960" lon="-0.637160">
        <time>2017-06-24T11:06:22Z</time>
      </trkpt>
      <trkpt lat="45.667270" lon="-0.637250">
        <time>2017-06-24T11:06:23Z</time>
      </trkpt>
      <trkpt lat="45.667550" lon="-0.637340">
        <time>2017-06-24T11:06:24Z</time>
      </trkpt>
      <trkpt lat="45.667850" lon="-0.637440">
        <time>2017-06-24T11:06:25Z</time>
      </trkpt>
      <trkpt lat="45.668160" lon="-0.637550">
        <time>2017-06-24T11:06:26Z</time>
      </trkpt>
      <trkpt lat="45.668470" lon="-0.637660">
        <time>2017-06-24T11:06:27Z</time>
      </trkpt>
      <trkpt lat="45.668790" lon="-0.637780">
        <time>2017-06-24T11:06:28Z</time>
      </trkpt>
      <trkpt lat="45.669080" lon="-0.637880">
        <time>2017-06-24T11:06:29Z</time>
      </trkpt>
      <trkpt lat="45.669390" lon="-0.637980">
        <time>2017-06-24T11:06:30Z</time>
      </trkpt>
      <trkpt lat="45.669710" lon="-0.638090">
        <time>2017-06-24T11:06:31Z</time>
      </trkpt>
      <trkpt lat="45.669990" lon="-0.638180">
        <time>2017-06-24T11:06:32Z</time>
      </trkpt>
      <trkpt lat="45.670290" lon="-0.638280">
        <time>2017-06-24T11:06:33Z</time>
      </trkpt>
      <trkpt lat="45.670610" lon="-0.638400">
        <time>2017-06-24T11:06:34Z</time>
      </trkpt>
      <trkpt lat="45.670890" lon="-0.638500">
        <time>2017-06-24T11:06:35Z</time>
      </trkpt>
      <trkpt lat="45.671210" lon="-0.638630">
        <time>2017-06-24T11:06:36Z</time>
      </trkpt>
      <trkpt lat="45.671480" lon="-0.638750">
        <time>2017-06-24T11:06:37Z</time>
      </trkpt>
      <trkpt lat="45.671770" lon="-0.638880">
        <time>2017-06-24T11:06:38Z</time>
      </trkpt>
      <trkpt lat="45.672090" lon="-0.639020">
        <time>2017-06-24T11:06:39Z</time>
      </trkpt>
      <trkpt lat="45.672360" lon="-0.639140">
        <time>2017-06-24T11:06:40Z</time>
      </trkpt>
      <trkpt lat="45.672650" lon="-0.639270">
        <time>2017-06-24T11:06:41Z</time>
      </trkpt>
      <trkpt lat="45.672940" lon="-0.639400">
        <time>2017-06-24T11:06:42Z</time>
      </trkpt>
      <trkpt lat="45.673240" lon="-0.639530">
        <time>2017-06-24T11:06:43Z</time>
      </trkpt>
      <trkpt lat="45.673540" lon="-0.639680">
        <time>2017-06-24T11:06:44Z</time>
      </trkpt>
      <trkpt lat="45.673820" lon="-0.639820">
        <time>2017-06-24T11:06:45Z</time>
      </trkpt>
      <trkpt lat="45.674110" lon="-0.639960">
        <time>2017-06-24T11:06:46Z</time>
      </trkpt>
      <trkpt lat="45.674420" lon="-0.640120">
        <time>2017-06-24T11:06:47Z</time>
      </trkpt>
      <trkpt lat="45.674690" lon="-0.640250">
        <time>2017-06-24T11:06:48Z</time>
      </trkpt>
      <trkpt lat="45.674980" lon="-0.640400">
        <time>2017-06-24T11:06:49Z</time>
      </trkpt>
      <trkpt lat="45.675290" lon="-0.640560">
        <time>2017-06-24T11:06:50Z</time>
      </trkpt>
      <trkpt lat="45.675560" lon="-0.640700">
        <time>2017-06-24T11:06:51Z</time>
      </trkpt>
      <trkpt lat="45.675860" lon="-0.640860">
        <time>2017-06-24T11:06:52Z</time>
      </trkpt>
      <trkpt lat="45.676140" lon="-0.641000">
        <time>2017-06-24T11:06:53Z</time>
      </trkpt>
      <trkpt lat="45.676430" lon="-0.641150">
        <time>2017-06-24T11:06:54Z</time>
      </trkpt>
      <trkpt lat="45.676740" lon="-0.641310">
        <time>2017-06-24T11:06:55Z</time>
      </trkpt>
      <trkpt lat="45.677010" lon="-0.641450">
        <time>2017-06-24T11:06:56Z</time>
      </trkpt>
      <trkpt lat="45.677300" lon="-0.641600">
        <time>2017-06-24T11:06:57Z</time>
      </trkpt>
      <trkpt lat="45.677600" lon="-0.641750">
        <time>2017-06-24T11:06:58Z</time>
      </trkpt>
      <trkpt lat="45.677900" lon="-0.641910">
        <time>2017-06-24T11:06:59Z</time>
      </trkpt>
      <trkpt lat="45.678210" lon="-0.642070">
        <time>2017-06-24T11:07:00Z</time>
      </trkpt>
      <trkpt lat="45.678490" lon="-0.642210">
        <time>2017-06-24T11:07:01Z</time>
      </trkpt>
      <trkpt lat="45.678790" lon="-0.642360">
        <time>2017-06-24T11:07:02Z</time>
      </trkpt>
      <trkpt lat="45.679100" lon="-0.642520">
        <time>2017-06-24T11:07:03Z</time>
      </trkpt>
      <trkpt lat="45.679370" lon="-0.642660">
        <time>2017-06-24T11:07:04Z</time>
      </trkpt>
      <trkpt lat="45.679660" lon="-0.642810">
        <time>2017-06-24T11:07:05Z</time>
      </trkpt>
      <trkpt lat="45.679970" lon="-0.642970">
        <time>2017-06-24T11:07:06Z</time>
      </trkpt>
      <trkpt lat="45.680240" lon="-0.643120">
        <time>2017-06-24T11:07:07Z</time>
      </trkpt>
      <trkpt lat="45.680540" lon="-0.643280">
        <time>2017-06-24T11:07:08Z</time>
      </trkpt>
      <trkpt lat="45.680810" lon="-0.643420">
        <time>2017-06-24T11:07:09Z</time>
      </trkpt>
      <trkpt lat="45.681100" lon="-0.643560">
        <time>2017-06-24T11:07:10Z</time>
      </trkpt>
      <trkpt lat="45.681400" lon="-0.643710">
        <time>2017-06-24T11:07:11Z</time>
      </trkpt>
      <trkpt lat="45.681660" lon="-0.643840">
        <time>2017-06-24T11:07:12Z</time>
      </trkpt>
      <trkpt lat="45.681940" lon="-0.643970">
        <time>2017-06-24T11:07:13Z</time>
      </trkpt>
      <trkpt lat="45.682210" lon="-0.644100">
        <time>2017-06-24T11:07:14Z</time>
      </trkpt>
      <trkpt lat="45.682480" lon="-0.644220">
        <time>2017-06-24T11:07:15Z</time>
      </trkpt>
      <trkpt lat="45.682760" lon="-0.644350">
        <time>2017-06-24T11:07:16Z</time>
      </trkpt>
      <trkpt lat="45.683010" lon="-0.644460">
        <time>2017-06-24T11:07:17Z</time>
      </trkpt>
      <trkpt lat="45.683290" lon="-0.644570">
        <time>2017-06-24T11:07:18Z</time>
      </trkpt>
      <trkpt lat="45.683570" lon="-0.644690">
        <time>2017-06-24T11:07:19Z</time>
      </trkpt>
      <trkpt lat="45.683810" lon="-0.644800">
        <time>2017-06-24T11:07:20Z</time>
      </trkpt>
      <trkpt lat="45.684060" lon="-0.644910">
        <time>2017-06-24T11:07:21Z</time>
      </trkpt>
      <trkpt lat="45.684320" lon="-0.645030">
        <time>2017-06-24T11:07:22Z</time>
      </trkpt>
      <trkpt lat="45.684540" lon="-0.645120">
        <time>2017-06-24T11:07:23Z</time>
      </trkpt>
      <trkpt lat="45.684790" lon="-0.645230">
        <time>2017-06-24T11:07:24Z</time>
      </trkpt>
      <trkpt lat="45.685000" lon="-0.645310">
        <time>2017-06-24T11:07:25Z</time>
      </trkpt>
      <trkpt lat="45.685230" lon="-0.645400">
        <time>2017-06-24T11:07:26Z</time>
      </trkpt>
      <trkpt lat="45.685470" lon="-0.645490">
        <time>2017-06-24T11:07:27Z</time>
      </trkpt>
      <trkpt lat="45.685680" lon="-0.645580">
        <time>2017-06-24T11:07:28Z</time>
      </trkpt>
      <trkpt lat="45.685920" lon="-0.645670">
        <time>2017-06-24T11:07:29Z</time>
      </trkpt>
      <trkpt lat="45.686160" lon="-0.645770">
        <time>2017-06-24T11:07:30Z</time>
      </trkpt>
      <trkpt lat="45.686410" lon="-0.645880">
        <time>2017-06-24T11:07:31Z</time>
      </trkpt>
      <trkpt lat="45.686680" lon="-0.645990">
        <time>2017-06-24T11:07:32Z</time>
      </trkpt>
      <trkpt lat="45.686920" lon="-0.646080">
        <time>2017-06-24T11:07:33Z</time>
      </trkpt>
      <trkpt lat="45.687170" lon="-0.646170">
        <time>2017-06-24T11:07:34Z</time>
      </trkpt>
      <trkpt lat="45.687450" lon="-0.646270">
        <time>2017-06-24T11:07:35Z</time>
      </trkpt>
      <trkpt lat="45.687700" lon="-0.646360">
        <time>2017-06-24T11:07:36Z</time>
      </trkpt>
      <trkpt lat="45.687970" lon="-0.646450">
        <time>2017-06-24T11:07:37Z</time>
      </trkpt>
      <trkpt lat="45.688270" lon="-0.646550">
        <time>2017-06-24T11:07:38Z</time>
      </trkpt>
      <trkpt lat="45.688530" lon="-0.646640">
        <time>2017-06-24T11:07:39Z</time>
      </trkpt>
      <trkpt lat="45.688830" lon="-0.646740">
        <time>2017-06-24T11:07:40Z</time>
      </trkpt>
      <trkpt lat="45.689090" lon="-0.646820">
        <time>2017-06-24T11:07:41Z</time>
      </trkpt>
      <trkpt lat="45.689370" lon="-0.646900">
        <time>2017-06-24T11:07:42Z</time>
      </trkpt>
      <trkpt lat="45.689670" lon="-0.646990">
        <time>2017-06-24T11:07:43Z</time>
      </trkpt>
      <trkpt lat="45.689930" lon="-0.647080">
        <time>2017-06-24T11:07:44Z</time>
      </trkpt>
      <trkpt lat="45.690220" lon="-0.647170">
        <time>2017-06-24T11:07:45Z</time>
      </trkpt>
      <trkpt lat="45.690510" lon="-0.647250">
        <time>2017-06-24T11:07:46Z</time>
      </trkpt>
      <trkpt lat="45.690800" lon="-0.647340">
        <time>2017-06-24T11:07:47Z</time>
      </trkpt>
      <trkpt lat="45.691110" lon="-0.647440">
        <time>2017-06-24T11:07:48Z</time>
      </trkpt>
      <trkpt lat="45.691380" lon="-0.647520">
        <time>2017-06-24T11:07:49Z</time>
      </trkpt>
      <trkpt lat="45.691680" lon="-0.647610">
        <time>2017-06-24T11:07:50Z</time>
      </trkpt>
      <trkpt lat="45.691980" lon="-0.647700">
        <time>2017-06-24T11:07:51Z</time>
      </trkpt>
      <trkpt lat="45.692250" lon="-0.647780">
        <time>2017-06-24T11:07:52Z</time>
      </trkpt>
      <trkpt lat="45.692540" lon="-0.647860">
        <time>2017-06-24T11:07:53Z</time>
      </trkpt>
      <trkpt lat="45.692850" lon="-0.647940">
        <time>2017-06-24T11:07:54Z</time>
      </trkpt>
      <trkpt lat="45.693110" lon="-0.648020">
        <time>2017-06-24T11:07:55Z</time>
      </trkpt>
      <trkpt lat="45.693410" lon="-0.648110">
        <time>2017-06-24T11:07:56Z</time>
      </trkpt>
      <trkpt lat="45.693690" lon="-0.648200">
        <time>2017-06-24T11:07:57Z</time>
      </trkpt>
      <trkpt lat="45.693980" lon="-0.648280">
        <time>2017-06-24T11:07:58Z</time>
      </trkpt>
      <trkpt lat="45.694290" lon="-0.648380">
        <time>2017-06-24T11:07:59Z</time>
      </trkpt>
      <trkpt lat="45.694560" lon="-0.648460">
        <time>2017-06-24T11:08:00Z</time>
      </trkpt>
      <trkpt lat="45.694840" lon="-0.648550">
        <time>2017-06-24T11:08:01Z</time>
      </trkpt>
      <trkpt lat="45.695130" lon="-0.648640">
        <time>2017-06-24T11:08:02Z</time>
      </trkpt>
      <trkpt lat="45.695410" lon="-0.648740">
        <time>2017-06-24T11:08:03Z</time>
      </trkpt>
      <trkpt lat="45.695720" lon="-0.648840">
        <time>2017-06-24T11:08:04Z</time>
      </trkpt>
      <trkpt lat="45.695990" lon="-0.648920">
        <time>2017-06-24T11:08:05Z</time>
      </trkpt>
      <trkpt lat="45.696290" lon="-0.649010">
        <time>2017-06-24T11:08:06Z</time>
      </trkpt>
      <trkpt lat="45.696600" lon="-0.649100">
        <time>2017-06-24T11:08:07Z</time>
      </trkpt>
      <trkpt lat="45.696870" lon="-0.649190">
        <time>2017-06-24T11:08:08Z</time>
      </trkpt>
      <trkpt lat="45.697160" lon="-0.649280">
        <time>2017-06-24T11:08:09Z</time>
      </trkpt>
      <trkpt lat="45.697480" lon="-0.649380">
        <time>2017-06-24T11:08:10Z</time>
      </trkpt>
      <trkpt lat="45.697750" lon="-0.649460">
        <time>2017-06-24T11:08:11Z</time>
      </trkpt>
      <trkpt lat="45.698060" lon="-0.649560">
        <time>2017-06-24T11:08:12Z</time>
      </trkpt>
      <trkpt lat="45.698340" lon="-0.649650">
        <time>2017-06-24T11:08:13Z</time>
      </trkpt>
      <trkpt lat="45.698630" lon="-0.649740">
        <time>2017-06-24T11:08:14Z</time>
      </trkpt>
      <trkpt lat="45.698940" lon="-0.649840">
        <time>2017-06-24T11:08:15Z</time>
      </trkpt>
      <trkpt lat="45.699220" lon="-0.649920">
        <time>2017-06-24T11:08:16Z</time>
      </trkpt>
      <trkpt lat="45.699510" lon="-0.650010">
        <time>2017-06-24T11:08:17Z</time>
      </trkpt>
      <trkpt lat="45.699800" lon="-0.650100">
        <time>2017-06-24T11:08:18Z</time>
      </trkpt>
      <trkpt lat="45.700090" lon="-0.650190">
        <time>2017-06-24T11:08:19Z</time>
      </trkpt>
      <trkpt lat="45.700390" lon="-0.650290">
        <time>2017-06-24T11:08:20Z</time>
      </trkpt>
      <trkpt lat="45.700670" lon="-0.650370">
        <time>2017-06-24T11:08:21Z</time>
      </trkpt>
      <trkpt lat="45.700970" lon="-0.650470">
        <time>2017-06-24T11:08:22Z</time>
      </trkpt>
      <trkpt lat="45.701280" lon="-0.650580">
        <time>2017-06-24T11:08:23Z</time>
      </trkpt>
      <trkpt lat="45.701560" lon="-0.650670">
        <time>2017-06-24T11:08:24Z</time>
      </trkpt>
      <trkpt lat="45.701860" lon="-0.650770">
        <time>2017-06-24T11:08:25Z</time>
      </trkpt>
      <trkpt lat="45.702170" lon="-0.650870">
        <time>2017-06-24T11:08:26Z</time>
      </trkpt>
      <trkpt lat="45.702440" lon="-0.650970">
        <time>2017-06-24T11:08:27Z</time>
      </trkpt>
      <trkpt lat="45.702750" lon="-0.651090">
        <time>2017-06-24T11:08:28Z</time>
      </trkpt>
      <trkpt lat="45.703020" lon="-0.651200">
        <time>2017-06-24T11:08:29Z</time>
      </trkpt>
      <trkpt lat="45.703300" lon="-0.651310">
        <time>2017-06-24T11:08:30Z</time>
      </trkpt>
      <trkpt lat="45.703600" lon="-0.651430">
        <time>2017-06-24T11:08:31Z</time>
      </trkpt>
      <trkpt lat="45.703870" lon="-0.651540">
        <time>2017-06-24T11:08:32Z</time>
      </trkpt>
      <trkpt lat="45.704150" lon="-0.651640">
        <time>2017-06-24T11:08:33Z</time>
      </trkpt>
      <trkpt lat="45.704440" lon="-0.651760">
        <time>2017-06-24T11:08:34Z</time>
      </trkpt>
      <trkpt lat="45.704720" lon="-0.651880">
        <time>2017-06-24T11:08:35Z</time>
      </trkpt>
      <trkpt lat="45.705030" lon="-0.652010">
        <time>2017-06-24T11:08:36Z</time>
      </trkpt>
      <trkpt lat="45.705290" lon="-0.652130">
        <time>2017-06-24T11:08:37Z</time>
      </trkpt>
      <trkpt lat="45.705570" lon="-0.652250">
        <time>2017-06-24T11:08:38Z</time>
      </trkpt>
      <trkpt lat="45.705860" lon="-0.652390">
        <time>2017-06-24T11:08:39Z</time>
      </trkpt>
      <trkpt lat="45.706110" lon="-0.652520">
        <time>2017-06-24T11:08:40Z</time>
      </trkpt>
      <trkpt lat="45.706380" lon="-0.652650">
        <time>2017-06-24T11:08:41Z</time>
      </trkpt>
      <trkpt lat="45.706660" lon="-0.652790">
        <time>2017-06-24T11:08:42Z</time>
      </trkpt>
      <trkpt lat="45.706910" lon="-0.652920">
        <time>2017-06-24T11:08:43Z</time>
      </trkpt>
      <trkpt lat="45.707180" lon="-0.653070">
        <time>2017-06-24T11:08:44Z</time>
      </trkpt>
      <trkpt lat="45.707430" lon="-0.653190">
        <time>2017-06-24T11:08:45Z</time>
      </trkpt>
      <trkpt lat="45.707690" lon="-0.653320">
        <time>2017-06-24T11:08:46Z</time>
      </trkpt>
      <trkpt lat="45.707960" lon="-0.653440">
        <time>2017-06-24T11:08:47Z</time>
      </trkpt>
      <trkpt lat="45.708200" lon="-0.653570">
        <time>2017-06-24T11:08:48Z</time>
      </trkpt>
      <trkpt lat="45.708450" lon="-0.653710">
        <time>2017-06-24T11:08:49Z</time>
      </trkpt>
      <trkpt lat="45.708700" lon="-0.653840">
        <time>2017-06-24T11:08:50Z</time>
      </trkpt>
      <trkpt lat="45.708940" lon="-0.653980">
        <time>2017-06-24T11:08:51Z</time>
      </trkpt>
      <trkpt lat="45.709210" lon="-0.654140">
        <time>2017-06-24T11:08:52Z</time>
      </trkpt>
      <trkpt lat="45.709440" lon="-0.654270">
        <time>2017-06-24T11:08:53Z</time>
      </trkpt>
      <trkpt lat="45.709680" lon="-0.654410">
        <time>2017-06-24T11:08:54Z</time>
      </trkpt>
      <trkpt lat="45.709930" lon="-0.654560">
        <time>2017-06-24T11:08:55Z</time>
      </trkpt>
      <trkpt lat="45.710160" lon="-0.654700">
        <time>2017-06-24T11:08:56Z</time>
      </trkpt>
      <trkpt lat="45.710400" lon="-0.654840">
        <time>2017-06-24T11:08:57Z</time>
      </trkpt>
      <trkpt lat="45.710660" lon="-0.654990">
        <time>2017-06-24T11:08:58Z</time>
      </trkpt>
      <trkpt lat="45.710880" lon="-0.655120">
        <time>2017-06-24T11:08:59Z</time>
      </trkpt>
      <trkpt lat="45.711140" lon="-0.655280">
        <time>2017-06-24T11:09:00Z</time>
      </trkpt>
      <trkpt lat="45.711370" lon="-0.655400">
        <time>2017-06-24T11:09:01Z</time>
      </trkpt>
      <trkpt lat="45.711610" lon="-0.655540">
        <time>2017-06-24T11:09:02Z</time>
      </trkpt>
      <trkpt lat="45.711870" lon="-0.655700">
        <time>2017-06-24T11:09:03Z</time>
      </trkpt>
      <trkpt lat="45.712100" lon="-0.655830">
        <time>2017-06-24T11:09:04Z</time>
      </trkpt>
      <trkpt lat="45.712350" lon="-0.655980">
        <time>2017-06-24T11:09:05Z</time>
      </trkpt>
      <trkpt lat="45.712610" lon="-0.656120">
        <time>2017-06-24T11:09:06Z</time>
      </trkpt>
      <trkpt lat="45.712870" lon="-0.656270">
        <time>2017-06-24T11:09:07Z</time>
      </trkpt>
      <trkpt lat="45.713150" lon="-0.656430">
        <time>2017-06-24T11:09:08Z</time>
      </trkpt>
      <trkpt lat="45.713410" lon="-0.656570">
        <time>2017-06-24T11:09:09Z</time>
      </trkpt>
      <trkpt lat="45.713690" lon="-0.656740">
        <time>2017-06-24T11:09:10Z</time>
      </trkpt>
      <trkpt lat="45.713990" lon="-0.656910">
        <time>2017-06-24T11:09:11Z</time>
      </trkpt>
      <trkpt lat="45.714260" lon="-0.657050">
        <time>2017-06-24T11:09:12Z</time>
      </trkpt>
      <trkpt lat="45.714540" lon="-0.657210">
        <time>2017-06-24T11:09:13Z</time>
      </trkpt>
      <trkpt lat="45.714850" lon="-0.657380">
        <time>2017-06-24T11:09:14Z</time>
      </trkpt>
      <trkpt lat="45.715120" lon="-0.657530">
        <time>2017-06-24T11:09:15Z</time>
      </trkpt>
      <trkpt lat="45.715430" lon="-0.657690">
        <time>2017-06-24T11:09:16Z</time>
      </trkpt>
      <trkpt lat="45.715710" lon="-0.657840">
        <time>2017-06-24T11:09:17Z</time>
      </trkpt>
      <trkpt lat="45.716000" lon="-0.657980">
        <time>2017-06-24T11:09:18Z</time>
      </trkpt>
      <trkpt lat="45.716300" lon="-0.658130">
        <time>2017-06-24T11:09:19Z</time>
      </trkpt>
      <trkpt lat="45.716580" lon="-0.658270">
        <time>2017-06-24T11:09:20Z</time>
      </trkpt>
      <trkpt lat="45.716860" lon="-0.658410">
        <time>2017-06-24T11:09:21Z</time>
      </trkpt>
      <trkpt lat="45.717150" lon="-0.658540">
        <time>2017-06-24T11:09:22Z</time>
      </trkpt>
      <trkpt lat="45.717440" lon="-0.658670">
        <time>2017-06-24T11:09:23Z</time>
      </trkpt>
      <trkpt lat="45.717760" lon="-0.658810">
        <time>2017-06-24T11:09:24Z</time>
      </trkpt>
      <trkpt lat="45.718040" lon="-0.658930">
        <time>2017-06-24T11:09:25Z</time>
      </trkpt>
      <trkpt lat="45.718340" lon="-0.659050">
        <time>2017-06-24T11:09:26Z</time>
      </trkpt>
      <trkpt lat="45.718660" lon="-0.659180">
        <time>2017-06-24T11:09:27Z</time>
      </trkpt>
      <trkpt lat="45.718940" lon="-0.659290">
        <time>2017-06-24T11:09:28Z</time>
      </trkpt>
      <trkpt lat="45.719240" lon="-0.659410">
        <time>2017-06-24T11:09:29Z</time>
      </trkpt>
      <trkpt lat="45.719560" lon="-0.659540">
        <time>2017-06-24T11:09:30Z</time>
      </trkpt>
      <trkpt lat="45.719840" lon="-0.659640">
        <time>2017-06-24T11:09:31Z</time>
      </trkpt>
      <trkpt lat="45.720170" lon="-0.659750">
        <time>2017-06-24T11:09:32Z</time>
      </trkpt>
      <trkpt lat="45.720460" lon="-0.659840">
        <time>2017-06-24T11:09:33Z</time>
      </trkpt>
      <trkpt lat="45.720760" lon="-0.659940">
        <time>2017-06-24T11:09:34Z</time>
      </trkpt>
      <trkpt lat="45.721090" lon="-0.660030">
        <time>2017-06-24T11:09:35Z</time>
      </trkpt>
      <trkpt lat="45.721380" lon="-0.660120">
        <time>2017-06-24T11:09:36Z</time>
      </trkpt>
      <trkpt lat="45.721690" lon="-0.660200">
        <time>2017-06-24T11:09:37Z</time>
      </trkpt>
      <trkpt lat="45.721990" lon="-0.660290">
        <time>2017-06-24T11:09:38Z</time>
      </trkpt>
      <trkpt lat="45.722300" lon="-0.660360">
        <time>2017-06-24T11:09:39Z</time>
      </trkpt>
      <trkpt lat="45.722620" lon="-0.660440">
        <time>2017-06-24T11:09:40Z</time>
      </trkpt>
      <trkpt lat="45.722910" lon="-0.660520">
        <time>2017-06-24T11:09:41Z</time>
      </trkpt>
      <trkpt lat="45.723220" lon="-0.660590">
        <time>2017-06-24T11:09:42Z</time>
      </trkpt>
      <trkpt lat="45.723550" lon="-0.660670">
        <time>2017-06-24T11:09:43Z</time>
      </trkpt>
      <trkpt lat="45.723840" lon="-0.660730">
        <time>2017-06-24T11:09:44Z</time>
      </trkpt>
      <trkpt lat="45.724160" lon="-0.660800">
        <time>2017-06-24T11:09:45Z</time>
      </trkpt>
      <trkpt lat="45.724480" lon="-0.660880">
        <time>2017-06-24T11:09:46Z</time>
      </trkpt>
      <trkpt lat="45.724780" lon="-0.660940">
        <time>2017-06-24T11:09:47Z</time>
      </trkpt>
      <trkpt lat="45.725110" lon="-0.661020">
        <time>2017-06-24T11:09:48Z</time>
      </trkpt>
      <trkpt lat="45.725410" lon="-0.661080">
        <time>2017-06-24T11:09:49Z</time>
      </trkpt>
      <trkpt lat="45.725710" lon="-0.661150">
        <time>2017-06-24T11:09:50Z</time>
      </trkpt>
      <trkpt lat="45.726040" lon="-0.661230">
        <time>2017-06-24T11:09:51Z</time>
      </trkpt>
      <trkpt lat="45.726340" lon="-0.661290">
        <time>2017-06-24T11:09:52Z</time>
      </trkpt>
      <trkpt lat="45.726660" lon="-0.661360">
        <time>2017-06-24T11:09:53Z</time>
      </trkpt>
      <trkpt lat="45.726980" lon="-0.661440">
        <time>2017-06-24T11:09:54Z</time>
      </trkpt>
      <trkpt lat="45.727290" lon="-0.661510">
        <time>2017-06-24T11:09:55Z</time>
      </trkpt>
      <trkpt lat="45.727630" lon="-0.661590">
        <time>2017-06-24T11:09:56Z</time>
      </trkpt>
      <trkpt lat="45.727930" lon="-0.661660">
        <time>2017-06-24T11:09:57Z</time>
      </trkpt>
      <trkpt lat="45.728250" lon="-0.661740">
        <time>2017-06-24T11:09:58Z</time>
      </trkpt>
      <trkpt lat="45.728580" lon="-0.661840">
        <time>2017-06-24T11:09:59Z</time>
      </trkpt>
      <trkpt lat="45.728880" lon="-0.661930">
        <time>2017-06-24T11:10:00Z</time>
      </trkpt>
      <trkpt lat="45.729190" lon="-0.662030">
        <time>2017-06-24T11:10:01Z</time>
      </trkpt>
      <trkpt lat="45.729530" lon="-0.662140">
        <time>2017-06-24T11:10:02Z</time>
      </trkpt>
      <trkpt lat="45.729820" lon="-0.662240">
        <time>2017-06-24T11:10:03Z</time>
      </trkpt>
      <trkpt lat="45.730150" lon="-0.662350">
        <time>2017-06-24T11:10:04Z</time>
      </trkpt>
      <trkpt lat="45.730440" lon="-0.662460">
        <time>2017-06-24T11:10:05Z</time>
      </trkpt>
      <trkpt lat="45.730750" lon="-0.662580">
        <time>2017-06-24T11:10:06Z</time>
      </trkpt>
      <trkpt lat="45.731080" lon="-0.662700">
        <time>2017-06-24T11:10:07Z</time>
      </trkpt>
      <trkpt lat="45.731370" lon="-0.662820">
        <time>2017-06-24T11:10:08Z</time>
      </trkpt>
      <trkpt lat="45.731690" lon="-0.662950">
        <time>2017-06-24T11:10:09Z</time>
      </trkpt>
      <trkpt lat="45.732000" lon="-0.663080">
        <time>2017-06-24T11:10:10Z</time>
      </trkpt>
      <trkpt lat="45.732300" lon="-0.663230">
        <time>2017-06-24T11:10:11Z</time>
      </trkpt>
      <trkpt lat="45.732630" lon="-0.663390">
        <time>2017-06-24T11:10:12Z</time>
      </trkpt>
      <trkpt lat="45.732920" lon="-0.663530">
        <time>2017-06-24T11:10:13Z</time>
      </trkpt>
      <trkpt lat="45.733230" lon="-0.663680">
        <time>2017-06-24T11:10:14Z</time>
      </trkpt>
      <trkpt lat="45.733560" lon="-0.663850">
        <time>2017-06-24T11:10:15Z</time>
      </trkpt>
      <trkpt lat="45.733840" lon="-0.664000">
        <time>2017-06-24T11:10:16Z</time>
      </trkpt>
      <trkpt lat="45.734140" lon="-0.664160">
        <time>2017-06-24T11:10:17Z</time>
      </trkpt>
      <trkpt lat="45.734460" lon="-0.664340">
        <time>2017-06-24T11:10:18Z</time>
      </trkpt>
      <trkpt lat="45.734730" lon="-0.664500">
        <time>2017-06-24T11:10:19Z</time>
      </trkpt>
      <trkpt lat="45.735040" lon="-0.664690">
        <time>2017-06-24T11:10:20Z</time>
      </trkpt>
      <trkpt lat="45.735300" lon="-0.664850">
        <time>2017-06-24T11:10:21Z</time>
      </trkpt>
      <trkpt lat="45.735580" lon="-0.665020">
        <time>2017-06-24T11:10:22Z</time>
      </trkpt>
      <trkpt lat="45.735880" lon="-0.665210">
        <time>2017-06-24T11:10:23Z</time>
      </trkpt>
      <trkpt lat="45.736140" lon="-0.665370">
        <time>2017-06-24T11:10:24Z</time>
      </trkpt>
      <trkpt lat="45.736420" lon="-0.665540">
        <time>2017-06-24T11:10:25Z</time>
      </trkpt>
      <trkpt lat="45.736700" lon="-0.665710">
        <time>2017-06-24T11:10:26Z</time>
      </trkpt>
      <trkpt lat="45.736990" lon="-0.665890">
        <time>2017-06-24T11:10:27Z</time>
      </trkpt>
      <trkpt lat="45.737280" lon="-0.666080">
        <time>2017-06-24T11:10:28Z</time>
      </trkpt>
      <trkpt lat="45.737540" lon="-0.666260">
        <time>2017-06-24T11:10:29Z</time>
      </trkpt>
      <trkpt lat="45.737820" lon="-0.666440">
        <time>2017-06-24T11:10:30Z</time>
      </trkpt>
      <trkpt lat="45.738110" lon="-0.666630">
        <time>2017-06-24T11:10:31Z</time>
      </trkpt>
      <trkpt lat="45.738370" lon="-0.666790">
        <time>2017-06-24T11:10:32Z</time>
      </trkpt>
      <trkpt lat="45.738640" lon="-0.666960">
        <time>2017-06-24T11:10:33Z</time>
      </trkpt>
      <trkpt lat="45.738930" lon="-0.667150">
        <time>2017-06-24T11:10:34Z</time>
      </trkpt>
      <trkpt lat="45.739190" lon="-0.667310">
        <time>2017-06-24T11:10:35Z</time>
      </trkpt>
      <trkpt lat="45.739490" lon="-0.667490">
        <time>2017-06-24T11:10:36Z</time>
      </trkpt>
      <trkpt lat="45.739760" lon="-0.667660">
        <time>2017-06-24T11:10:37Z</time>
      </trkpt>
      <trkpt lat="45.740050" lon="-0.667830">
        <time>2017-06-24T11:10:38Z</time>
      </trkpt>
      <trkpt lat="45.740370" lon="-0.668030">
        <time>2017-06-24T11:10:39Z</time>
      </trkpt>
      <trkpt lat="45.740650" lon="-0.668200">
        <time>2017-06-24T11:10:40Z</time>
      </trkpt>
      <trkpt lat="45.740950" lon="-0.668380">
        <time>2017-06-24T11:10:41Z</time>
      </trkpt>
      <trkpt lat="45.741260" lon="-0.668550">
        <time>2017-06-24T11:10:42Z</time>
      </trkpt>
      <trkpt lat="45.741570" lon="-0.668720">
        <time>2017-06-24T11:10:43Z</time>
      </trkpt>
      <trkpt lat="45.741900" lon="-0.668890">
        <time>2017-06-24T11:10:44Z</time>
      </trkpt>
      <trkpt lat="45.742200" lon="-0.669020">
        <time>2017-06-24T11:10:45Z</time>
      </trkpt>
      <trkpt lat="45.742520" lon="-0.669150">
        <time>2017-06-24T11:10:46Z</time>
      </trkpt>
      <trkpt lat="45.742850" lon="-0.669280">
        <time>2017-06-24T11:10:47Z</time>
      </trkpt>
      <trkpt lat="45.743140" lon="-0.669400">
        <time>2017-06-24T11:10:48Z</time>
      </trkpt>
      <trkpt lat="45.743440" lon="-0.669530">
        <time>2017-06-24T11:10:49Z</time>
      </trkpt>
      <trkpt lat="45.743760" lon="-0.669660">
        <time>2017-06-24T11:10:50Z</time>
      </trkpt>
      <trkpt lat="45.744040" lon="-0.669770">
        <time>2017-06-24T11:10:51Z</time>
      </trkpt>
      <trkpt lat="45.744360" lon="-0.669890">
        <time>2017-06-24T11:10:52Z</time>
      </trkpt>
      <trkpt lat="45.744640" lon="-0.669990">
        <time>2017-06-24T11:10:53Z</time>
      </trkpt>
      <trkpt lat="45.744950" lon="-0.670100">
        <time>2017-06-24T11:10:54Z</time>
      </trkpt>
      <trkpt lat="45.745270" lon="-0.670220">
        <time>2017-06-24T11:10:55Z</time>
      </trkpt>
      <trkpt lat="45.745570" lon="-0.670310">
        <time>2017-06-24T11:10:56Z</time>
      </trkpt>
      <trkpt lat="45.745880" lon="-0.670410">
        <time>2017-06-24T11:10:57Z</time>
      </trkpt>
      <trkpt lat="45.746180" lon="-0.670510">
        <time>2017-06-24T11:10:58Z</time>
      </trkpt>
      <trkpt lat="45.746480" lon="-0.670590">
        <time>2017-06-24T11:10:59Z</time>
      </trkpt>
      <trkpt lat="45.746810" lon="-0.670680">
        <time>2017-06-24T11:11:00Z</time>
      </trkpt>
      <trkpt lat="45.747100" lon="-0.670750">
        <time>2017-06-24T11:11:01Z</time>
      </trkpt>
      <trkpt lat="45.747420" lon="-0.670840">
        <time>2017-06-24T11:11:02Z</time>
      </trkpt>
      <trkpt lat="45.747750" lon="-0.670910">
        <time>2017-06-24T11:11:03Z</time>
      </trkpt>
      <trkpt lat="45.748040" lon="-0.670980">
        <time>2017-06-24T11:11:04Z</time>
      </trkpt>
      <trkpt lat="45.748350" lon="-0.671050">
        <time>2017-06-24T11:11:05Z</time>
      </trkpt>
      <trkpt lat="45.748680" lon="-0.671120">
        <time>2017-06-24T11:11:06Z</time>
      </trkpt>
      <trkpt lat="45.748960" lon="-0.671180">
        <time>2017-06-24T11:11:07Z</time>
      </trkpt>
      <trkpt lat="45.749270" lon="-0.671240">
        <time>2017-06-24T11:11:08Z</time>
      </trkpt>
      <trkpt lat="45.749540" lon="-0.671300">
        <time>2017-06-24T11:11:09Z</time>
      </trkpt>
      <trkpt lat="45.749830" lon="-0.671370">
        <time>2017-06-24T11:11:10Z</time>
      </trkpt>
      <trkpt lat="45.750150" lon="-0.671440">
        <time>2017-06-24T11:11:11Z</time>
      </trkpt>
      <trkpt lat="45.750420" lon="-0.671500">
        <time>2017-06-24T11:11:12Z</time>
      </trkpt>
      <trkpt lat="45.750710" lon="-0.671550">
        <time>2017-06-24T11:11:13Z</time>
      </trkpt>
      <trkpt lat="45.751000" lon="-0.671590">
        <time>2017-06-24T11:11:14Z</time>
      </trkpt>
      <trkpt lat="45.751290" lon="-0.671640">
        <time>2017-06-24T11:11:15Z</time>
      </trkpt>
      <trkpt lat="45.751600" lon="-0.671690">
        <time>2017-06-24T11:11:16Z</time>
      </trkpt>
      <trkpt lat="45.751880" lon="-0.671730">
        <time>2017-06-24T11:11:17Z</time>
      </trkpt>
      <trkpt lat="45.752180" lon="-0.671780">
        <time>2017-06-24T11:11:18Z</time>
      </trkpt>
      <trkpt lat="45.752500" lon="-0.671810">
        <time>2017-06-24T11:11:19Z</time>
      </trkpt>
      <trkpt lat="45.752790" lon="-0.671840">
        <time>2017-06-24T11:11:20Z</time>
      </trkpt>
      <trkpt lat="45.753100" lon="-0.671870">
        <time>2017-06-24T11:11:21Z</time>
      </trkpt>
      <trkpt lat="45.753420" lon="-0.671900">
        <time>2017-06-24T11:11:22Z</time>
      </trkpt>
      <trkpt lat="45.753710" lon="-0.671920">
        <time>2017-06-24T11:11:23Z</time>
      </trkpt>
      <trkpt lat="45.754040" lon="-0.671960">
        <time>2017-06-24T11:11:24Z</time>
      </trkpt>
      <trkpt lat="45.754330" lon="-0.671990">
        <time>2017-06-24T11:11:25Z</time>
      </trkpt>
      <trkpt lat="45.754640" lon="-0.672020">
        <time>2017-06-24T11:11:26Z</time>
      </trkpt>
      <trkpt lat="45.754970" lon="-0.672050">
        <time>2017-06-24T11:11:27Z</time>
      </trkpt>
      <trkpt lat="45.755250" lon="-0.672080">
        <time>2017-06-24T11:11:28Z</time>
      </trkpt>
      <trkpt lat="45.755560" lon="-0.672100">
        <time>2017-06-24T11:11:29Z</time>
      </trkpt>
      <trkpt lat="45.755870" lon="-0.672120">
        <time>2017-06-24T11:11:30Z</time>
      </trkpt>
      <trkpt lat="45.756180" lon="-0.672140">
        <time>2017-06-24T11:11:31Z</time>
      </trkpt>
      <trkpt lat="45.756510" lon="-0.672160">
        <time>2017-06-24T11:11:32Z</time>
      </trkpt>
      <trkpt lat="45.756810" lon="-0.672170">
        <time>2017-06-24T11:11:33Z</time>
      </trkpt>
      <trkpt lat="45.757120" lon="-0.672190">
        <time>2017-06-24T11:11:34Z</time>
      </trkpt>
      <trkpt lat="45.757460" lon="-0.672190">
        <time>2017-06-24T11:11:35Z</time>
      </trkpt>
      <trkpt lat="45.757750" lon="-0.672190">
        <time>2017-06-24T11:11:36Z</time>
      </trkpt>
      <trkpt lat="45.758070" lon="-0.672190">
        <time>2017-06-24T11:11:37Z</time>
      </trkpt>
      <trkpt lat="45.758410" lon="-0.672180">
        <time>2017-06-24T11:11:38Z</time>
      </trkpt>
      <trkpt lat="45.758700" lon="-0.672170">
        <time>2017-06-24T11:11:39Z</time>
      </trkpt>
      <trkpt lat="45.759040" lon="-0.672150">
        <time>2017-06-24T11:11:40Z</time>
      </trkpt>
      <trkpt lat="45.759330" lon="-0.672120">
        <time>2017-06-24T11:11:41Z</time>
      </trkpt>
      <trkpt lat="45.759650" lon="-0.672100">
        <time>2017-06-24T11:11:42Z</time>
      </trkpt>
      <trkpt lat="45.759990" lon="-0.672070">
        <time>2017-06-24T11:11:43Z</time>
      </trkpt>
      <trkpt lat="45.760290" lon="-0.672040">
        <time>2017-06-24T11:11:44Z</time>
      </trkpt>
      <trkpt lat="45.760600" lon="-0.672000">
        <time>2017-06-24T11:11:45Z</time>
      </trkpt>
      <trkpt lat="45.760910" lon="-0.671950">
        <time>2017-06-24T11:11:46Z</time>
      </trkpt>
      <trkpt lat="45.761220" lon="-0.671890">
        <time>2017-06-24T11:11:47Z</time>
      </trkpt>
      <trkpt lat="45.761540" lon="-0.671830">
        <time>2017-06-24T11:11:48Z</time>
      </trkpt>
      <trkpt lat="45.761830" lon="-0.671770">
        <time>2017-06-24T11:11:49Z</time>
      </trkpt>
      <trkpt lat="45.762130" lon="-0.671700">
        <time>2017-06-24T11:11:50Z</time>
      </trkpt>
      <trkpt lat="45.762450" lon="-0.671620">
        <time>2017-06-24T11:11:51Z</time>
      </trkpt>
      <trkpt lat="45.762730" lon="-0.671550">
        <time>2017-06-24T11:11:52Z</time>
      </trkpt>
      <trkpt lat="45.763040" lon="-0.671470">
        <time>2017-06-24T11:11:53Z</time>
      </trkpt>
      <trkpt lat="45.763360" lon="-0.671370">
        <time>2017-06-24T11:11:54Z</time>
      </trkpt>
      <trkpt lat="45.763640" lon="-0.671270">
        <time>2017-06-24T11:11:55Z</time>
      </trkpt>
      <trkpt lat="45.763960" lon="-0.671170">
        <time>2017-06-24T11:11:56Z</time>
      </trkpt>
      <trkpt lat="45.764250" lon="-0.671080">
        <time>2017-06-24T11:11:57Z</time>
      </trkpt>
      <trkpt lat="45.764550" lon="-0.670980">
        <time>2017-06-24T11:11:58Z</time>
      </trkpt>
      <trkpt lat="45.764870" lon="-0.670860">
        <time>2017-06-24T11:11:59Z</time>
      </trkpt>
      <trkpt lat="45.765140" lon="-0.670760">
        <time>2017-06-24T11:12:00Z</time>
      </trkpt>
      <trkpt lat="45.765440" lon="-0.670650">
        <time>2017-06-24T11:12:01Z</time>
      </trkpt>
      <trkpt lat="45.765740" lon="-0.670530">
        <time>2017-06-24T11:12:02Z</time>
      </trkpt>
      <trkpt lat="45.766040" lon="-0.670420">
        <time>2017-06-24T11:12:03Z</time>
      </trkpt>
      <trkpt lat="45.766360" lon="-0.670290">
        <time>2017-06-24T11:12:04Z</time>
      </trkpt>
      <trkpt lat="45.766630" lon="-0.670170">
        <time>2017-06-24T11:12:05Z</time>
      </trkpt>
      <trkpt lat="45.766930" lon="-0.670040">
        <time>2017-06-24T11:12:06Z</time>
      </trkpt>
      <trkpt lat="45.767250" lon="-0.669910">
        <time>2017-06-24T11:12:07Z</time>
      </trkpt>
      <trkpt lat="45.767520" lon="-0.669790">
        <time>2017-06-24T11:12:08Z</time>
      </trkpt>
      <trkpt lat="45.767820" lon="-0.669670">
        <time>2017-06-24T11:12:09Z</time>
      </trkpt>
      <trkpt lat="45.768130" lon="-0.669540">
        <time>2017-06-24T11:12:10Z</time>
      </trkpt>
      <trkpt lat="45.768410" lon="-0.669430">
        <time>2017-06-24T11:12:11Z</time>
      </trkpt>
      <trkpt lat="45.768730" lon="-0.669310">
        <time>2017-06-24T11:12:12Z</time>
      </trkpt>
      <trkpt lat="45.769000" lon="-0.669190">
        <time>2017-06-24T11:12:13Z</time>
      </trkpt>
      <trkpt lat="45.769300" lon="-0.669070">
        <time>2017-06-24T11:12:14Z</time>
      </trkpt>
      <trkpt lat="45.769610" lon="-0.668950">
        <time>2017-06-24T11:12:15Z</time>
      </trkpt>
      <trkpt lat="45.769880" lon="-0.668850">
        <time>2017-06-24T11:12:16Z</time>
      </trkpt>
      <trkpt lat="45.770170" lon="-0.668740">
        <time>2017-06-24T11:12:17Z</time>
      </trkpt>
      <trkpt lat="45.770460" lon="-0.668620">
        <time>2017-06-24T11:12:18Z</time>
      </trkpt>
      <trkpt lat="45.770740" lon="-0.668530">
        <time>2017-06-24T11:12:19Z</time>
      </trkpt>
      <trkpt lat="45.771040" lon="-0.668430">
        <time>2017-06-24T11:12:20Z</time>
      </trkpt>
      <trkpt lat="45.771310" lon="-0.668350">
        <time>2017-06-24T11:12:21Z</time>
      </trkpt>
      <trkpt lat="45.771590" lon="-0.668270">
        <time>2017-06-24T11:12:22Z</time>
      </trkpt>
      <trkpt lat="45.771890" lon="-0.668190">
        <time>2017-06-24T11:12:23Z</time>
      </trkpt>
      <trkpt lat="45.772150" lon="-0.668120">
        <time>2017-06-24T11:12:24Z</time>
      </trkpt>
      <trkpt lat="45.772440" lon="-0.668050">
        <time>2017-06-24T11:12:25Z</time>
      </trkpt>
      <trkpt lat="45.772740" lon="-0.667980">
        <time>2017-06-24T11:12:26Z</time>
      </trkpt>
      <trkpt lat="45.773000" lon="-0.667920">
        <time>2017-06-24T11:12:27Z</time>
      </trkpt>
      <trkpt lat="45.773310" lon="-0.667850">
        <time>2017-06-24T11:12:28Z</time>
      </trkpt>
      <trkpt lat="45.773590" lon="-0.667800">
        <time>2017-06-24T11:12:29Z</time>
      </trkpt>
      <trkpt lat="45.773880" lon="-0.667750">
        <time>2017-06-24T11:12:30Z</time>
      </trkpt>
      <trkpt lat="45.774190" lon="-0.667700">
        <time>2017-06-24T11:12:31Z</time>
      </trkpt>
      <trkpt lat="45.774470" lon="-0.667670">
        <time>2017-06-24T11:12:32Z</time>
      </trkpt>
      <trkpt lat="45.774770" lon="-0.667630">
        <time>2017-06-24T11:12:33Z</time>
      </trkpt>
      <trkpt lat="45.775050" lon="-0.667590">
        <time>2017-06-24T11:12:34Z</time>
      </trkpt>
      <trkpt lat="45.775350" lon="-0.667570">
        <time>2017-06-24T11:12:35Z</time>
      </trkpt>
      <trkpt lat="45.775660" lon="-0.667540">
        <time>2017-06-24T11:12:36Z</time>
      </trkpt>
      <trkpt lat="45.775930" lon="-0.667510">
        <time>2017-06-24T11:12:37Z</time>
      </trkpt>
      <trkpt lat="45.776230" lon="-0.667500">
        <time>2017-06-24T11:12:38Z</time>
      </trkpt>
      <trkpt lat="45.776540" lon="-0.667490">
        <time>2017-06-24T11:12:39Z</time>
      </trkpt>
      <trkpt lat="45.776820" lon="-0.667490">
        <time>2017-06-24T11:12:40Z</time>
      </trkpt>
      <trkpt lat="45.777110" lon="-0.667490">
        <time>2017-06-24T11:12:41Z</time>
      </trkpt>
      <trkpt lat="45.777420" lon="-0.667500">
        <time>2017-06-24T11:12:42Z</time>
      </trkpt>
      <trkpt lat="45.777690" lon="-0.667510">
        <time>2017-06-24T11:12:43Z</time>
      </trkpt>
      <trkpt lat="45.777990" lon="-0.667520">
        <time>2017-06-24T11:12:44Z</time>
      </trkpt>
      <trkpt lat="45.778270" lon="-0.667530">
        <time>2017-06-24T11:12:45Z</time>
      </trkpt>
      <trkpt lat="45.778560" lon="-0.667540">
        <time>2017-06-24T11:12:46Z</time>
      </trkpt>
      <trkpt lat="45.778870" lon="-0.667550">
        <time>2017-06-24T11:12:47Z</time>
      </trkpt>
      <trkpt lat="45.779140" lon="-0.667560">
        <time>2017-06-24T11:12:48Z</time>
      </trkpt>
      <trkpt lat="45.779430" lon="-0.667580">
        <time>2017-06-24T11:12:49Z</time>
      </trkpt>
      <trkpt lat="45.779710" lon="-0.667590">
        <time>2017-06-24T11:12:50Z</time>
      </trkpt>
      <trkpt lat="45.780010" lon="-0.667610">
        <time>2017-06-24T11:12:51Z</time>
      </trkpt>
      <trkpt lat="45.780320" lon="-0.667630">
        <time>2017-06-24T11:12:52Z</time>
      </trkpt>
      <trkpt lat="45.780590" lon="-0.667650">
        <time>2017-06-24T11:12:53Z</time>
      </trkpt>
      <trkpt lat="45.780880" lon="-0.667670">
        <time>2017-06-24T11:12:54Z</time>
      </trkpt>
      <trkpt lat="45.781170" lon="-0.667690">
        <time>2017-06-24T11:12:55Z</time>
      </trkpt>
      <trkpt lat="45.781440" lon="-0.667700">
        <time>2017-06-24T11:12:56Z</time>
      </trkpt>
      <trkpt lat="45.781720" lon="-0.667710">
        <time>2017-06-24T11:12:57Z</time>
      </trkpt>
      <trkpt lat="45.782030" lon="-0.667730">
        <time>2017-06-24T11:12:58Z</time>
      </trkpt>
      <trkpt lat="45.782300" lon="-0.667740">
        <time>2017-06-24T11:12:59Z</time>
      </trkpt>
      <trkpt lat="45.782600" lon="-0.667750">
        <time>2017-06-24T11:13:00Z</time>
      </trkpt>
      <trkpt lat="45.782880" lon="-0.667760">
        <time>2017-06-24T11:13:01Z</time>
      </trkpt>
      <trkpt lat="45.783170" lon="-0.667770">
        <time>2017-06-24T11:13:02Z</time>
      </trkpt>
      <trkpt lat="45.783480" lon="-0.667770">
        <time>2017-06-24T11:13:03Z</time>
      </trkpt>
      <trkpt lat="45.783750" lon="-0.667770">
        <time>2017-06-24T11:13:04Z</time>
      </trkpt>
      <trkpt lat="45.784040" lon="-0.667760">
        <time>2017-06-24T11:13:05Z</time>
      </trkpt>
      <trkpt lat="45.784340" lon="-0.667760">
        <time>2017-06-24T11:13:06Z</time>
      </trkpt>
      <trkpt lat="45.784630" lon="-0.667740">
        <time>2017-06-24T11:13:07Z</time>
      </trkpt>
      <trkpt lat="45.784940" lon="-0.667720">
        <time>2017-06-24T11:13:08Z</time>
      </trkpt>
      <trkpt lat="45.785220" lon="-0.667700">
        <time>2017-06-24T11:13:09Z</time>
      </trkpt>
      <trkpt lat="45.785510" lon="-0.667660">
        <time>2017-06-24T11:13:10Z</time>
      </trkpt>
      <trkpt lat="45.785820" lon="-0.667610">
        <time>2017-06-24T11:13:11Z</time>
      </trkpt>
      <trkpt lat="45.786110" lon="-0.667560">
        <time>2017-06-24T11:13:12Z</time>
      </trkpt>
      <trkpt lat="45.786410" lon="-0.667500">
        <time>2017-06-24T11:13:13Z</time>
      </trkpt>
      <trkpt lat="45.786730" lon="-0.667430">
        <time>2017-06-24T11:13:14Z</time>
      </trkpt>
      <trkpt lat="45.787020" lon="-0.667370">
        <time>2017-06-24T11:13:15Z</time>
      </trkpt>
      <trkpt lat="45.787340" lon="-0.667280">
        <time>2017-06-24T11:13:16Z</time>
      </trkpt>
      <trkpt lat="45.787620" lon="-0.667190">
        <time>2017-06-24T11:13:17Z</time>
      </trkpt>
      <trkpt lat="45.787920" lon="-0.667090">
        <time>2017-06-24T11:13:18Z</time>
      </trkpt>
      <trkpt lat="45.788230" lon="-0.666980">
        <time>2017-06-24T11:13:19Z</time>
      </trkpt>
      <trkpt lat="45.788490" lon="-0.666860">
        <time>2017-06-24T11:13:20Z</time>
      </trkpt>
      <trkpt lat="45.788780" lon="-0.666740">
        <time>2017-06-24T11:13:21Z</time>
      </trkpt>
      <trkpt lat="45.789060" lon="-0.666620">
        <time>2017-06-24T11:13:22Z</time>
      </trkpt>
      <trkpt lat="45.789340" lon="-0.666480">
        <time>2017-06-24T11:13:23Z</time>
      </trkpt>
      <trkpt lat="45.789620" lon="-0.666340">
        <time>2017-06-24T11:13:24Z</time>
      </trkpt>
      <trkpt lat="45.789870" lon="-0.666200">
        <time>2017-06-24T11:13:25Z</time>
      </trkpt>
      <trkpt lat="45.790150" lon="-0.666060">
        <time>2017-06-24T11:13:26Z</time>
      </trkpt>
      <trkpt lat="45.790430" lon="-0.665890">
        <time>2017-06-24T11:13:27Z</time>
      </trkpt>
      <trkpt lat="45.790670" lon="-0.665740">
        <time>2017-06-24T11:13:28Z</time>
      </trkpt>
      <trkpt lat="45.790940" lon="-0.665560">
        <time>2017-06-24T11:13:29Z</time>
      </trkpt>
      <trkpt lat="45.791220" lon="-0.665370">
        <time>2017-06-24T11:13:30Z</time>
      </trkpt>
      <trkpt lat="45.791470" lon="-0.665190">
        <time>2017-06-24T11:13:31Z</time>
      </trkpt>
      <trkpt lat="45.791750" lon="-0.664980">
        <time>2017-06-24T11:13:32Z</time>
      </trkpt>
      <trkpt lat="45.792000" lon="-0.664780">
        <time>2017-06-24T11:13:33Z</time>
      </trkpt>
      <trkpt lat="45.792260" lon="-0.664560">
        <time>2017-06-24T11:13:34Z</time>
      </trkpt>
      <trkpt lat="45.792530" lon="-0.664330">
        <time>2017-06-24T11:13:35Z</time>
      </trkpt>
      <trkpt lat="45.792780" lon="-0.664110">
        <time>2017-06-24T11:13:36Z</time>
      </trkpt>
      <trkpt lat="45.793030" lon="-0.663890">
        <time>2017-06-24T11:13:37Z</time>
      </trkpt>
      <trkpt lat="45.793280" lon="-0.663650">
        <time>2017-06-24T11:13:38Z</time>
      </trkpt>
      <trkpt lat="45.793530" lon="-0.663420">
        <time>2017-06-24T11:13:39Z</time>
      </trkpt>
      <trkpt lat="45.793780" lon="-0.663160">
        <time>2017-06-24T11:13:40Z</time>
      </trkpt>
      <trkpt lat="45.794010" lon="-0.662930">
        <time>2017-06-24T11:13:41Z</time>
      </trkpt>
      <trkpt lat="45.794260" lon="-0.662680">
        <time>2017-06-24T11:13:42Z</time>
      </trkpt>
      <trkpt lat="45.794520" lon="-0.662410">
        <time>2017-06-24T11:13:43Z</time>
      </trkpt>
      <trkpt lat="45.794750" lon="-0.662170">
        <time>2017-06-24T11:13:44Z</time>
      </trkpt>
      <trkpt lat="45.794980" lon="-0.661920">
        <time>2017-06-24T11:13:45Z</time>
      </trkpt>
      <trkpt lat="45.795220" lon="-0.661660">
        <time>2017-06-24T11:13:46Z</time>
      </trkpt>
      <trkpt lat="45.795430" lon="-0.661430">
        <time>2017-06-24T11:13:47Z</time>
      </trkpt>
      <trkpt lat="45.795670" lon="-0.661170">
        <time>2017-06-24T11:13:48Z</time>
      </trkpt>
      <trkpt lat="45.795890" lon="-0.660940">
        <time>2017-06-24T11:13:49Z</time>
      </trkpt>
      <trkpt lat="45.796110" lon="-0.660690">
        <time>2017-06-24T11:13:50Z</time>
      </trkpt>
      <trkpt lat="45.796350" lon="-0.660440">
        <time>2017-06-24T11:13:51Z</time>
      </trkpt>
      <trkpt lat="45.796550" lon="-0.660210">
        <time>2017-06-24T11:13:52Z</time>
      </trkpt>
      <trkpt lat="45.796770" lon="-0.659990">
        <time>2017-06-24T11:13:53Z</time>
      </trkpt>
      <trkpt lat="45.796990" lon="-0.659760">
        <time>2017-06-24T11:13:54Z</time>
      </trkpt>
      <trkpt lat="45.797200" lon="-0.659550">
        <time>2017-06-24T11:13:55Z</time>
      </trkpt>
      <trkpt lat="45.797410" lon="-0.659320">
        <time>2017-06-24T11:13:56Z</time>
      </trkpt>
      <trkpt lat="45.797590" lon="-0.659120">
        <time>2017-06-24T11:13:57Z</time>
      </trkpt>
      <trkpt lat="45.797780" lon="-0.658920">
        <time>2017-06-24T11:13:58Z</time>
      </trkpt>
      <trkpt lat="45.797970" lon="-0.658730">
        <time>2017-06-24T11:13:59Z</time>
      </trkpt>
      <trkpt lat="45.798130" lon="-0.658580">
        <time>2017-06-24T11:14:00Z</time>
      </trkpt>
      <trkpt lat="45.798280" lon="-0.658420">
        <time>2017-06-24T11:14:01Z</time>
      </trkpt>
      <trkpt lat="45.798430" lon="-0.658270">
        <time>2017-06-24T11:14:02Z</time>
      </trkpt>
      <trkpt lat="45.798550" lon="-0.658140">
        <time>2017-06-24T11:14:03Z</time>
      </trkpt>
      <trkpt lat="45.798660" lon="-0.657980">
        <time>2017-06-24T11:14:04Z</time>
      </trkpt>
      <trkpt lat="45.798740" lon="-0.657840">
        <time>2017-06-24T11:14:05Z</time>
      </trkpt>
      <trkpt lat="45.798800" lon="-0.657690">
        <time>2017-06-24T11:14:06Z</time>
      </trkpt>
      <trkpt lat="45.798850" lon="-0.657520">
        <time>2017-06-24T11:14:07Z</time>
      </trkpt>
      <trkpt lat="45.798860" lon="-0.657380">
        <time>2017-06-24T11:14:08Z</time>
      </trkpt>
      <trkpt lat="45.798850" lon="-0.657220">
        <time>2017-06-24T11:14:09Z</time>
      </trkpt>
      <trkpt lat="45.798830" lon="-0.657080">
        <time>2017-06-24T11:14:10Z</time>
      </trkpt>
      <trkpt lat="45.798810" lon="-0.656960">
        <time>2017-06-24T11:14:11Z</time>
      </trkpt>
      <trkpt lat="45.798790" lon="-0.656830">
        <time>2017-06-24T11:14:12Z</time>
      </trkpt>
      <trkpt lat="45.798790" lon="-0.656740">
        <time>2017-06-24T11:14:13Z</time>
      </trkpt>
      <trkpt lat="45.798800" lon="-0.656640">
        <time>2017-06-24T11:14:14Z</time>
      </trkpt>
      <trkpt lat="45.798820" lon="-0.656560">
        <time>2017-06-24T11:14:15Z</time>
      </trkpt>
      <trkpt lat="45.798860" lon="-0.656510">
        <time>2017-06-24T11:14:16Z</time>
      </trkpt>
      <trkpt lat="45.798900" lon="-0.656460">
        <time>2017-06-24T11:14:17Z</time>
      </trkpt>
      <trkpt lat="45.798950" lon="-0.656420">
        <time>2017-06-24T11:14:18Z</time>
      </trkpt>
      <trkpt lat="45.798980" lon="-0.656400">
        <time>2017-06-24T11:14:19Z</time>
      </trkpt>
      <trkpt lat="45.799030" lon="-0.656380">
        <time>2017-06-24T11:14:20Z</time>
      </trkpt>
      <trkpt lat="45.799070" lon="-0.656370">
        <time>2017-06-24T11:14:21Z</time>
      </trkpt>
      <trkpt lat="45.799120" lon="-0.656360">
        <time>2017-06-24T11:14:22Z</time>
      </trkpt>
      <trkpt lat="45.799170" lon="-0.656350">
        <time>2017-06-24T11:14:23Z</time>
      </trkpt>
      <trkpt lat="45.799210" lon="-0.656330">
        <time>2017-06-24T11:14:24Z</time>
      </trkpt>
      <trkpt lat="45.799260" lon="-0.656320">
        <time>2017-06-24T11:14:25Z</time>
      </trkpt>
      <trkpt lat="45.799300" lon="-0.656310">
        <time>2017-06-24T11:14:26Z</time>
      </trkpt>
      <trkpt lat="45.799340" lon="-0.656310">
        <time>2017-06-24T11:14:27Z</time>
      </trkpt>
      <trkpt lat="45.799370" lon="-0.656290">
        <time>2017-06-24T11:14:28Z</time>
      </trkpt>
      <trkpt lat="45.799400" lon="-0.656290">
        <time>2017-06-24T11:14:29Z</time>
      </trkpt>
      <trkpt lat="45.799420" lon="-0.656280">
        <time>2017-06-24T11:14:30Z</time>
      </trkpt>
      <trkpt lat="45.799430" lon="-0.656270">
        <time>2017-06-24T11:14:31Z</time>
      </trkpt>
      <trkpt lat="45.799440" lon="-0.656250">
        <time>2017-06-24T11:14:32Z</time>
      </trkpt>
      <trkpt lat="45.799460" lon="-0.656240">
        <time>2017-06-24T11:14:33Z</time>
      </trkpt>
      <trkpt lat="45.799470" lon="-0.656240">
        <time>2017-06-24T11:14:34Z</time>
      </trkpt>
      <trkpt lat="45.799470" lon="-0.656230">
        <time>2017-06-24T11:14:35Z</time>
      </trkpt>
      <trkpt lat="45.799470" lon="-0.656210">
        <time>2017-06-24T11:14:36Z</time>
      </trkpt>
      <trkpt lat="45.799470" lon="-0.656200">
        <time>2017-06-24T11:14:37Z</time>
      </trkpt>
      <trkpt lat="45.799470" lon="-0.656190">
        <time>2017-06-24T11:14:38Z</time>
      </trkpt>
      <trkpt lat="45.799460" lon="-0.656190">
        <time>2017-06-24T11:14:39Z</time>
      </trkpt>
      <trkpt lat="45.799460" lon="-0.656200">
        <time>2017-06-24T11:14:40Z</time>
      </trkpt>
      <trkpt lat="45.799460" lon="-0.656210">
        <time>2017-06-24T11:14:41Z</time>
      </trkpt>
      <trkpt lat="45.799460" lon="-0.656210">
        <time>2017-06-24T11:14:42Z</time>
      </trkpt>
      <trkpt lat="45.799460" lon="-0.656220">
        <time>2017-06-24T11:14:43Z</time>
      </trkpt>
      <trkpt lat="45.799450" lon="-0.656210">
        <time>2017-06-24T11:14:44Z</time>
      </trkpt>
      <trkpt lat="45.799440" lon="-0.656210">
        <time>2017-06-24T11:14:45Z</time>
      </trkpt>
      <trkpt lat="45.799430" lon="-0.656200">
        <time>2017-06-24T11:14:46Z</time>
      </trkpt>
      <trkpt lat="45.799410" lon="-0.656210">
        <time>2017-06-24T11:14:47Z</time>
      </trkpt>
      <trkpt lat="45.799400" lon="-0.656220">
        <time>2017-06-24T11:14:48Z</time>
      </trkpt>
      <trkpt lat="45.799400" lon="-0.656240">
        <time>2017-06-24T11:14:49Z</time>
      </trkpt>
      <trkpt lat="45.799410" lon="-0.656250">
        <time>2017-06-24T11:14:50Z</time>
      </trkpt>
      <trkpt lat="45.799410" lon="-0.656240">
        <time>2017-06-24T11:14:51Z</time>
      </trkpt>
      <trkpt lat="45.799410" lon="-0.656230">
        <time>2017-06-24T11:14:52Z</time>
      </trkpt>
      <trkpt lat="45.799410" lon="-0.656230">
        <time>2017-06-24T11:14:53Z</time>
      </trkpt>
      <trkpt lat="45.799410" lon="-0.656230">
        <time>2017-06-24T11:14:54Z</time>
      </trkpt>
      <trkpt lat="45.799420" lon="-0.656230">
        <time>2017-06-24T11:14:55Z</time>
      </trkpt>
      <trkpt lat="45.799420" lon="-0.656230">
        <time>2017-06-24T11:14:56Z</time>
      </trkpt>
      <trkpt lat="45.799420" lon="-0.656230">
        <time>2017-06-24T11:14:57Z</time>
      </trkpt>
      <trkpt lat="45.799420" lon="-0.656240">
        <time>2017-06-24T11:14:58Z</time>
      </trkpt>
      <trkpt lat="45.799420" lon="-0.656240">
        <time>2017-06-24T11:14:59Z</time>
      </trkpt>
      <trkpt lat="45.799420" lon="-0.656240">
        <time>2017-06-24T11:15:00Z</time>
      </trkpt>
      <trkpt lat="45.799420" lon="-0.656240">
        <time>2017-06-24T11:15:01Z</time>
      </trkpt>
      <trkpt lat="45.799420" lon="-0.656240">
        <time>2017-06-24T11:15:02Z</time>
      </trkpt>
      <trkpt lat="45.799420" lon="-0.656240">
        <time>2017-06-24T11:15:03Z</time>
      </trkpt>
      <trkpt lat="45.799420" lon="-0.656240">
        <time>2017-06-24T11:15:04Z</time>
      </trkpt>
      <trkpt lat="45.799420" lon="-0.656240">
        <time>2017-06-24T11:15:05Z</time>
      </trkpt>
      <trkpt lat="45.799420" lon="-0.656240">
        <time>2017-06-24T11:15:06Z</time>
      </trkpt>
      <trkpt lat="45.799420" lon="-0.656240">
        <time>2017-06-24T11:15:07Z</time>
      </trkpt>
      <trkpt lat="45.799420" lon="-0.656240">
        <time>2017-06-24T11:15:08Z</time>
      </trkpt>
      <trkpt lat="45.799420" lon="-0.656240">
        <time>2017-06-24T11:15:09Z</time>
      </trkpt>
      <trkpt lat="45.799420" lon="-0.656240">
        <time>2017-06-24T11:15:10Z</time>
      </trkpt>
      <trkpt lat="45.799420" lon="-0.656240">
        <time>2017-06-24T11:15:11Z</time>
      </trkpt>
      <trkpt lat="45.799420" lon="-0.656240">
        <time>2017-06-24T11:15:12Z</time>
      </trkpt>
      <trkpt lat="45.799420" lon="-0.656240">
        <time>2017-06-24T11:15:13Z</time>
      </trkpt>
      <trkpt lat="45.799420" lon="-0.656240">
        <time>2017-06-24T11:15:14Z</time>
      </trkpt>
      <trkpt lat="45.799420" lon="-0.656240">
        <time>2017-06-24T11:15:15Z</time>
      </trkpt>
      <trkpt lat="45.799420" lon="-0.656240">
        <time>2017-06-24T11:15:16Z</time>
      </trkpt>
      <trkpt lat="45.799420" lon="-0.656240">
        <time>2017-06-24T11:15:17Z</time>
      </trkpt>
      <trkpt lat="45.799420" lon="-0.656240">
        <time>2017-06-24T11:15:18Z</time>
      </trkpt>
      <trkpt lat="45.799420" lon="-0.656240">
        <time>2017-06-24T11:15:19Z</time>
      </trkpt>
      <trkpt lat="45.799420" lon="-0.656240">
        <time>2017-06-24T11:15:20Z</time>
      </trkpt>
      <trkpt lat="45.799420" lon="-0.656240">
        <time>2017-06-24T11:15:21Z</time>
      </trkpt>
      <trkpt lat="45.799420" lon="-0.656240">
        <time>2017-06-24T11:15:22Z</time>
      </trkpt>
      <trkpt lat="45.799420" lon="-0.656240">
        <time>2017-06-24T11:15:23Z</time>
      </trkpt>
      <trkpt lat="45.799420" lon="-0.656240">
        <time>2017-06-24T11:15:24Z</time>
      </trkpt>
      <trkpt lat="45.799420" lon="-0.656240">
        <time>2017-06-24T11:15:25Z</time>
      </trkpt>
      <trkpt lat="45.799420" lon="-0.656240">
        <time>2017-06-24T11:15:26Z</time>
      </trkpt>
      <trkpt lat="45.799420" lon="-0.656240">
        <time>2017-06-24T11:15:27Z</time>
      </trkpt>
      <trkpt lat="45.799420" lon="-0.656240">
        <time>2017-06-24T11:15:28Z</time>
      </trkpt>
      <trkpt lat="45.799420" lon="-0.656240">
        <time>2017-06-24T11:15:29Z</time>
      </trkpt>
      <trkpt lat="45.799420" lon="-0.656240">
        <time>2017-06-24T11:15:30Z</time>
      </trkpt>
      <trkpt lat="45.799420" lon="-0.656240">
        <time>2017-06-24T11:15:31Z</time>
      </trkpt>
      <trkpt lat="45.799420" lon="-0.656240">
        <time>2017-06-24T11:15:32Z</time>
      </trkpt>
      <trkpt lat="45.799420" lon="-0.656240">
        <time>2017-06-24T11:15:33Z</time>
      </trkpt>
      <trkpt lat="45.799420" lon="-0.656240">
        <time>2017-06-24T11:15:34Z</time>
      </trkpt>
      <trkpt lat="45.799420" lon="-0.656240">
        <time>2017-06-24T11:15:35Z</time>
      </trkpt>
      <trkpt lat="45.799420" lon="-0.656240">
        <time>2017-06-24T11:15:36Z</time>
      </trkpt>
      <trkpt lat="45.799420" lon="-0.656240">
        <time>2017-06-24T11:15:37Z</time>
      </trkpt>
      <trkpt lat="45.799420" lon="-0.656240">
        <time>2017-06-24T11:15:38Z</time>
      </trkpt>
      <trkpt lat="45.799420" lon="-0.656240">
        <time>2017-06-24T11:15:39Z</time>
      </trkpt>
      <trkpt lat="45.799420" lon="-0.656240">
        <time>2017-06-24T11:15:40Z</time>
      </trkpt>
      <trkpt lat="45.799420" lon="-0.656240">
        <time>2017-06-24T11:15:41Z</time>
      </trkpt>
      <trkpt lat="45.799420" lon="-0.656240">
        <time>2017-06-24T11:15:42Z</time>
      </trkpt>
      <trkpt lat="45.799420" lon="-0.656240">
        <time>2017-06-24T11:15:43Z</time>
      </trkpt>
      <trkpt lat="45.799420" lon="-0.656240">
        <time>2017-06-24T11:15:44Z</time>
      </trkpt>
      <trkpt lat="45.799420" lon="-0.656240">
        <time>2017-06-24T11:15:45Z</time>
      </trkpt>
      <trkpt lat="45.799420" lon="-0.656240">
        <time>2017-06-24T11:15:46Z</time>
      </trkpt>
      <trkpt lat="45.799420" lon="-0.656240">
        <time>2017-06-24T11:15:47Z</time>
      </trkpt>
      <trkpt lat="45.799420" lon="-0.656240">
        <time>2017-06-24T11:15:48Z</time>
      </trkpt>
      <trkpt lat="45.799420" lon="-0.656240">
        <time>2017-06-24T11:15:49Z</time>
      </trkpt>
      <trkpt lat="45.799420" lon="-0.656240">
        <time>2017-06-24T11:15:50Z</time>
      </trkpt>
      <trkpt lat="45.799420" lon="-0.656240">
        <time>2017-06-24T11:15:51Z</time>
      </trkpt>
      <trkpt lat="45.799420" lon="-0.656240">
        <time>2017-06-24T11:15:52Z</time>
      </trkpt>
      <trkpt lat="45.799420" lon="-0.656240">
        <time>2017-06-24T11:15:53Z</time>
      </trkpt>
      <trkpt lat="45.799420" lon="-0.656240">
        <time>2017-06-24T11:15:54Z</time>
      </trkpt>
      <trkpt lat="45.799420" lon="-0.656240">
        <time>2017-06-24T11:15:55Z</time>
      </trkpt>
      <trkpt lat="45.799420" lon="-0.656240">
        <time>2017-06-24T11:15:56Z</time>
      </trkpt>
      <trkpt lat="45.799420" lon="-0.656240">
        <time>2017-06-24T11:15:57Z</time>
      </trkpt>
      <trkpt lat="45.799420" lon="-0.656240">
        <time>2017-06-24T11:15:58Z</time>
      </trkpt>
      <trkpt lat="45.799420" lon="-0.656240">
        <time>2017-06-24T11:15:59Z</time>
      </trkpt>
      <trkpt lat="45.799420" lon="-0.656240">
        <time>2017-06-24T11:16:00Z</time>
      </trkpt>
      <trkpt lat="45.799420" lon="-0.656240">
        <time>2017-06-24T11:16:01Z</time>
      </trkpt>
      <trkpt lat="45.799420" lon="-0.656240">
        <time>2017-06-24T11:16:02Z</time>
      </trkpt>
      <trkpt lat="45.799420" lon="-0.656240">
        <time>2017-06-24T11:16:03Z</time>
      </trkpt>
      <trkpt lat="45.799420" lon="-0.656240">
        <time>2017-06-24T11:16:04Z</time>
      </trkpt>
      <trkpt lat="45.799420" lon="-0.656240">
        <time>2017-06-24T11:16:05Z</time>
      </trkpt>
      <trkpt lat="45.799420" lon="-0.656240">
        <time>2017-06-24T11:16:06Z</time>
      </trkpt>
      <trkpt lat="45.799420" lon="-0.656240">
        <time>2017-06-24T11:16:07Z</time>
      </trkpt>
      <trkpt lat="45.799420" lon="-0.656240">
        <time>2017-06-24T11:16:08Z</time>
      </trkpt>
      <trkpt lat="45.799420" lon="-0.656240">
        <time>2017-06-24T11:16:09Z</time>
      </trkpt>
      <trkpt lat="45.799420" lon="-0.656240">
        <time>2017-06-24T11:16:10Z</time>
      </trkpt>
      <trkpt lat="45.799420" lon="-0.656240">
        <time>2017-06-24T11:16:11Z</time>
      </trkpt>
      <trkpt lat="45.799420" lon="-0.656240">
        <time>2017-06-24T11:16:12Z</time>
      </trkpt>
      <trkpt lat="45.799420" lon="-0.656240">
        <time>2017-06-24T11:16:13Z</time>
      </trkpt>
      <trkpt lat="45.799420" lon="-0.656240">
        <time>2017-06-24T11:16:14Z</time>
      </trkpt>
      <trkpt lat="45.799420" lon="-0.656240">
        <time>2017-06-24T11:16:15Z</time>
      </trkpt>
      <trkpt lat="45.799420" lon="-0.656240">
        <time>2017-06-24T11:16:16Z</time>
      </trkpt>
      <trkpt lat="45.799420" lon="-0.656240">
        <time>2017-06-24T11:16:17Z</time>
      </trkpt>
      <trkpt lat="45.799420" lon="-0.656240">
        <time>2017-06-24T11:16:18Z</time>
      </trkpt>
      <trkpt lat="45.799420" lon="-0.656240">
        <time>2017-06-24T11:16:19Z</time>
      </trkpt>
      <trkpt lat="45.799420" lon="-0.656240">
        <time>2017-06-24T11:16:20Z</time>
      </trkpt>
      <trkpt lat="45.799420" lon="-0.656240">
        <time>2017-06-24T11:16:21Z</time>
      </trkpt>
      <trkpt lat="45.799420" lon="-0.656240">
        <time>2017-06-24T11:16:22Z</time>
      </trkpt>
      <trkpt lat="45.799420" lon="-0.656240">
        <time>2017-06-24T11:16:23Z</time>
      </trkpt>
      <trkpt lat="45.799420" lon="-0.656240">
        <time>2017-06-24T11:16:24Z</time>
      </trkpt>
      <trkpt lat="45.799420" lon="-0.656240">
        <time>2017-06-24T11:16:25Z</time>
      </trkpt>
      <trkpt lat="45.799420" lon="-0.656240">
        <time>2017-06-24T11:16:26Z</time>
      </trkpt>
      <trkpt lat="45.799420" lon="-0.656240">
        <time>2017-06-24T11:16:27Z</time>
      </trkpt>
      <trkpt lat="45.799420" lon="-0.656240">
        <time>2017-06-24T11:16:28Z</time>
      </trkpt>
      <trkpt lat="45.799420" lon="-0.656240">
        <time>2017-06-24T11:16:29Z</time>
      </trkpt>
      <trkpt lat="45.799420" lon="-0.656240">
        <time>2017-06-24T11:16:30Z</time>
      </trkpt>
      <trkpt lat="45.799420" lon="-0.656240">
        <time>2017-06-24T11:16:31Z</time>
      </trkpt>
      <trkpt lat="45.799420" lon="-0.656240">
        <time>2017-06-24T11:16:32Z</time>
      </trkpt>
      <trkpt lat="45.799420" lon="-0.656240">
        <time>2017-06-24T11:16:33Z</time>
      </trkpt>
      <trkpt lat="45.799420" lon="-0.656240">
        <time>2017-06-24T11:16:34Z</time>
      </trkpt>
      <trkpt lat="45.799420" lon="-0.656240">
        <time>2017-06-24T11:16:35Z</time>
      </trkpt>
      <trkpt lat="45.799420" lon="-0.656240">
        <time>2017-06-24T11:16:36Z</time>
      </trkpt>
      <trkpt lat="45.799420" lon="-0.656240">
        <time>2017-06-24T11:16:37Z</time>
      </trkpt>
      <trkpt lat="45.799420" lon="-0.656240">
        <time>2017-06-24T11:16:38Z</time>
      </trkpt>
      <trkpt lat="45.799420" lon="-0.656240">
        <time>2017-06-24T11:16:39Z</time>
      </trkpt>
      <trkpt lat="45.799420" lon="-0.656240">
        <time>2017-06-24T11:16:40Z</time>
      </trkpt>
      <trkpt lat="45.799420" lon="-0.656240">
        <time>2017-06-24T11:16:41Z</time>
      </trkpt>
      <trkpt lat="45.799420" lon="-0.656240">
        <time>2017-06-24T11:16:42Z</time>
      </trkpt>
      <trkpt lat="45.799420" lon="-0.656240">
        <time>2017-06-24T11:16:43Z</time>
      </trkpt>
      <trkpt lat="45.799420" lon="-0.656240">
        <time>2017-06-24T11:16:44Z</time>
      </trkpt>
      <trkpt lat="45.799420" lon="-0.656240">
        <time>2017-06-24T11:16:45Z</time>
      </trkpt>
      <trkpt lat="45.799420" lon="-0.656240">
        <time>2017-06-24T11:16:46Z</time>
      </trkpt>
      <trkpt lat="45.799420" lon="-0.656240">
        <time>2017-06-24T11:16:47Z</time>
      </trkpt>
      <trkpt lat="45.799420" lon="-0.656240">
        <time>2017-06-24T11:16:48Z</time>
      </trkpt>
      <trkpt lat="45.799420" lon="-0.656240">
        <time>2017-06-24T11:16:49Z</time>
      </trkpt>
      <trkpt lat="45.799420" lon="-0.656240">
        <time>2017-06-24T11:16:50Z</time>
      </trkpt>
      <trkpt lat="45.799420" lon="-0.656240">
        <time>2017-06-24T11:16:51Z</time>
      </trkpt>
      <trkpt lat="45.799420" lon="-0.656240">
        <time>2017-06-24T11:16:52Z</time>
      </trkpt>
      <trkpt lat="45.799420" lon="-0.656240">
        <time>2017-06-24T11:16:53Z</time>
      </trkpt>
      <trkpt lat="45.799420" lon="-0.656240">
        <time>2017-06-24T11:16:54Z</time>
      </trkpt>
      <trkpt lat="45.799420" lon="-0.656240">
        <time>2017-06-24T11:16:55Z</time>
      </trkpt>
      <trkpt lat="45.799420" lon="-0.656240">
        <time>2017-06-24T11:16:56Z</time>
      </trkpt>
      <trkpt lat="45.799420" lon="-0.656240">
        <time>2017-06-24T11:16:57Z</time>
      </trkpt>
      <trkpt lat="45.799420" lon="-0.656240">
        <time>2017-06-24T11:16:58Z</time>
      </trkpt>
      <trkpt lat="45.799420" lon="-0.656240">
        <time>2017-06-24T11:16:59Z</time>
      </trkpt>
      <trkpt lat="45.799420" lon="-0.656240">
        <time>2017-06-24T11:17:00Z</time>
      </trkpt>
      <trkpt lat="45.799420" lon="-0.656240">
        <time>2017-06-24T11:17:01Z</time>
      </trkpt>
      <trkpt lat="45.799420" lon="-0.656240">
        <time>2017-06-24T11:17:02Z</time>
      </trkpt>
      <trkpt lat="45.799420" lon="-0.656240">
        <time>2017-06-24T11:17:03Z</time>
      </trkpt>
      <trkpt lat="45.799420" lon="-0.656240">
        <time>2017-06-24T11:17:04Z</time>
      </trkpt>
      <trkpt lat="45.799420" lon="-0.656240">
        <time>2017-06-24T11:17:05Z</time>
      </trkpt>
      <trkpt lat="45.799420" lon="-0.656240">
        <time>2017-06-24T11:17:06Z</time>
      </trkpt>
      <trkpt lat="45.799420" lon="-0.656240">
        <time>2017-06-24T11:17:07Z</time>
      </trkpt>
      <trkpt lat="45.799420" lon="-0.656240">
        <time>2017-06-24T11:17:08Z</time>
      </trkpt>
      <trkpt lat="45.799420" lon="-0.656240">
        <time>2017-06-24T11:17:09Z</time>
      </trkpt>
      <trkpt lat="45.799420" lon="-0.656240">
        <time>2017-06-24T11:17:10Z</time>
      </trkpt>
      <trkpt lat="45.799420" lon="-0.656240">
        <time>2017-06-24T11:17:11Z</time>
      </trkpt>
      <trkpt lat="45.799420" lon="-0.656240">
        <time>2017-06-24T11:17:12Z</time>
      </trkpt>
      <trkpt lat="45.799420" lon="-0.656240">
        <time>2017-06-24T11:17:13Z</time>
      </trkpt>
      <trkpt lat="45.799420" lon="-0.656240">
        <time>2017-06-24T11:17:14Z</time>
      </trkpt>
      <trkpt lat="45.799420" lon="-0.656240">
        <time>2017-06-24T11:17:15Z</time>
      </trkpt>
      <trkpt lat="45.799420" lon="-0.656240">
        <time>2017-06-24T11:17:16Z</time>
      </trkpt>
      <trkpt lat="45.799420" lon="-0.656240">
        <time>2017-06-24T11:17:17Z</time>
      </trkpt>
      <trkpt lat="45.799420" lon="-0.656240">
        <time>2017-06-24T11:17:18Z</time>
      </trkpt>
      <trkpt lat="45.799420" lon="-0.656240">
        <time>2017-06-24T11:17:19Z</time>
      </trkpt>
      <trkpt lat="45.799420" lon="-0.656240">
        <time>2017-06-24T11:17:20Z</time>
      </trkpt>
      <trkpt lat="45.799420" lon="-0.656240">
        <time>2017-06-24T11:17:21Z</time>
      </trkpt>
      <trkpt lat="45.799420" lon="-0.656240">
        <time>2017-06-24T11:17:22Z</time>
      </trkpt>
      <trkpt lat="45.799420" lon="-0.656240">
        <time>2017-06-24T11:17:23Z</time>
      </trkpt>
      <trkpt lat="45.799420" lon="-0.656240">
        <time>2017-06-24T11:17:24Z</time>
      </trkpt>
      <trkpt lat="45.799420" lon="-0.656240">
        <time>2017-06-24T11:17:25Z</time>
      </trkpt>
      <trkpt lat="45.799420" lon="-0.656240">
        <time>2017-06-24T11:17:26Z</time>
      </trkpt>
      <trkpt lat="45.799420" lon="-0.656240">
        <time>2017-06-24T11:17:27Z</time>
      </trkpt>
      <trkpt lat="45.799420" lon="-0.656240">
        <time>2017-06-24T11:17:28Z</time>
      </trkpt>
      <trkpt lat="45.799420" lon="-0.656240">
        <time>2017-06-24T11:17:29Z</time>
      </trkpt>
      <trkpt lat="45.799420" lon="-0.656240">
        <time>2017-06-24T11:17:30Z</time>
      </trkpt>
      <trkpt lat="45.799390" lon="-0.656250">
        <time>2017-06-24T11:34:22Z</time>
      </trkpt>
      <trkpt lat="45.799460" lon="-0.656200">
        <time>2017-06-24T11:34:23Z</time>
      </trkpt>
      <trkpt lat="45.799450" lon="-0.656330">
        <time>2017-06-24T11:34:24Z</time>
      </trkpt>
      <trkpt lat="45.799480" lon="-0.656300">
        <time>2017-06-24T11:34:25Z</time>
      </trkpt>
      <trkpt lat="45.799370" lon="-0.656330">
        <time>2017-06-24T11:34:26Z</time>
      </trkpt>
      <trkpt lat="45.799380" lon="-0.656330">
        <time>2017-06-24T11:34:27Z</time>
      </trkpt>
      <trkpt lat="45.799380" lon="-0.656320">
        <time>2017-06-24T11:34:28Z</time>
      </trkpt>
      <trkpt lat="45.799380" lon="-0.656320">
        <time>2017-06-24T11:34:29Z</time>
      </trkpt>
      <trkpt lat="45.799380" lon="-0.656320">
        <time>2017-06-24T11:34:30Z</time>
      </trkpt>
      <trkpt lat="45.799380" lon="-0.656320">
        <time>2017-06-24T11:34:31Z</time>
      </trkpt>
      <trkpt lat="45.799380" lon="-0.656320">
        <time>2017-06-24T11:34:32Z</time>
      </trkpt>
      <trkpt lat="45.799380" lon="-0.656320">
        <time>2017-06-24T11:34:33Z</time>
      </trkpt>
      <trkpt lat="45.799380" lon="-0.656320">
        <time>2017-06-24T11:34:34Z</time>
      </trkpt>
      <trkpt lat="45.799380" lon="-0.656320">
        <time>2017-06-24T11:34:35Z</time>
      </trkpt>
      <trkpt lat="45.799380" lon="-0.656320">
        <time>2017-06-24T11:34:36Z</time>
      </trkpt>
      <trkpt lat="45.799380" lon="-0.656320">
        <time>2017-06-24T11:34:37Z</time>
      </trkpt>
      <trkpt lat="45.799380" lon="-0.656320">
        <time>2017-06-24T11:34:38Z</time>
      </trkpt>
      <trkpt lat="45.799380" lon="-0.656320">
        <time>2017-06-24T11:34:39Z</time>
      </trkpt>
      <trkpt lat="45.799380" lon="-0.656320">
        <time>2017-06-24T11:34:40Z</time>
      </trkpt>
      <trkpt lat="45.799380" lon="-0.656320">
        <time>2017-06-24T11:34:41Z</time>
      </trkpt>
      <trkpt lat="45.799380" lon="-0.656320">
        <time>2017-06-24T11:34:42Z</time>
      </trkpt>
      <trkpt lat="45.799380" lon="-0.656320">
        <time>2017-06-24T11:34:43Z</time>
      </trkpt>
      <trkpt lat="45.799380" lon="-0.656320">
        <time>2017-06-24T11:34:44Z</time>
      </trkpt>
      <trkpt lat="45.799380" lon="-0.656320">
        <time>2017-06-24T11:34:45Z</time>
      </trkpt>
      <trkpt lat="45.799380" lon="-0.656320">
        <time>2017-06-24T11:34:46Z</time>
      </trkpt>
      <trkpt lat="45.799380" lon="-0.656320">
        <time>2017-06-24T11:34:47Z</time>
      </trkpt>
      <trkpt lat="45.799380" lon="-0.656320">
        <time>2017-06-24T11:34:48Z</time>
      </trkpt>
      <trkpt lat="45.799380" lon="-0.656320">
        <time>2017-06-24T11:34:49Z</time>
      </trkpt>
      <trkpt lat="45.799380" lon="-0.656320">
        <time>2017-06-24T11:34:50Z</time>
      </trkpt>
      <trkpt lat="45.799380" lon="-0.656320">
        <time>2017-06-24T11:34:51Z</time>
      </trkpt>
      <trkpt lat="45.799380" lon="-0.656320">
        <time>2017-06-24T11:34:52Z</time>
      </trkpt>
      <trkpt lat="45.799380" lon="-0.656320">
        <time>2017-06-24T11:34:53Z</time>
      </trkpt>
      <trkpt lat="45.799380" lon="-0.656320">
        <time>2017-06-24T11:34:54Z</time>
      </trkpt>
      <trkpt lat="45.799380" lon="-0.656320">
        <time>2017-06-24T11:34:55Z</time>
      </trkpt>
      <trkpt lat="45.799380" lon="-0.656320">
        <time>2017-06-24T11:34:56Z</time>
      </trkpt>
      <trkpt lat="45.799380" lon="-0.656320">
        <time>2017-06-24T11:34:57Z</time>
      </trkpt>
      <trkpt lat="45.799380" lon="-0.656320">
        <time>2017-06-24T11:34:58Z</time>
      </trkpt>
      <trkpt lat="45.799380" lon="-0.656320">
        <time>2017-06-24T11:34:59Z</time>
      </trkpt>
      <trkpt lat="45.799380" lon="-0.656320">
        <time>2017-06-24T11:35:00Z</time>
      </trkpt>
      <trkpt lat="45.799380" lon="-0.656320">
        <time>2017-06-24T11:35:01Z</time>
      </trkpt>
      <trkpt lat="45.799380" lon="-0.656320">
        <time>2017-06-24T11:35:02Z</time>
      </trkpt>
      <trkpt lat="45.799380" lon="-0.656320">
        <time>2017-06-24T11:35:03Z</time>
      </trkpt>
      <trkpt lat="45.799380" lon="-0.656320">
        <time>2017-06-24T11:35:04Z</time>
      </trkpt>
      <trkpt lat="45.799380" lon="-0.656320">
        <time>2017-06-24T11:35:05Z</time>
      </trkpt>
      <trkpt lat="45.799380" lon="-0.656320">
        <time>2017-06-24T11:35:06Z</time>
      </trkpt>
      <trkpt lat="45.799380" lon="-0.656320">
        <time>2017-06-24T11:35:07Z</time>
      </trkpt>
      <trkpt lat="45.799380" lon="-0.656320">
        <time>2017-06-24T11:35:08Z</time>
      </trkpt>
      <trkpt lat="45.799380" lon="-0.656320">
        <time>2017-06-24T11:35:09Z</time>
      </trkpt>
      <trkpt lat="45.799380" lon="-0.656320">
        <time>2017-06-24T11:35:10Z</time>
      </trkpt>
      <trkpt lat="45.799380" lon="-0.656320">
        <time>2017-06-24T11:35:11Z</time>
      </trkpt>
      <trkpt lat="45.799380" lon="-0.656320">
        <time>2017-06-24T11:35:12Z</time>
      </trkpt>
      <trkpt lat="45.799380" lon="-0.656320">
        <time>2017-06-24T11:35:13Z</time>
      </trkpt>
      <trkpt lat="45.799380" lon="-0.656320">
        <time>2017-06-24T11:35:14Z</time>
      </trkpt>
      <trkpt lat="45.799380" lon="-0.656320">
        <time>2017-06-24T11:35:15Z</time>
      </trkpt>
      <trkpt lat="45.799380" lon="-0.656320">
        <time>2017-06-24T11:35:16Z</time>
      </trkpt>
      <trkpt lat="45.799380" lon="-0.656320">
        <time>2017-06-24T11:35:17Z</time>
      </trkpt>
      <trkpt lat="45.799380" lon="-0.656320">
        <time>2017-06-24T11:35:18Z</time>
      </trkpt>
      <trkpt lat="45.799380" lon="-0.656320">
        <time>2017-06-24T11:35:19Z</time>
      </trkpt>
      <trkpt lat="45.799380" lon="-0.656320">
        <time>2017-06-24T11:35:20Z</time>
      </trkpt>
      <trkpt lat="45.799380" lon="-0.656320">
        <time>2017-06-24T11:35:21Z</time>
      </trkpt>
      <trkpt lat="45.799380" lon="-0.656320">
        <time>2017-06-24T11:35:22Z</time>
      </trkpt>
      <trkpt lat="45.799380" lon="-0.656320">
        <time>2017-06-24T11:35:23Z</time>
      </trkpt>
      <trkpt lat="45.799380" lon="-0.656320">
        <time>2017-06-24T11:35:24Z</time>
      </trkpt>
      <trkpt lat="45.799380" lon="-0.656320">
        <time>2017-06-24T11:35:25Z</time>
      </trkpt>
      <trkpt lat="45.799380" lon="-0.656320">
        <time>2017-06-24T11:35:26Z</time>
      </trkpt>
      <trkpt lat="45.799380" lon="-0.656320">
        <time>2017-06-24T11:35:27Z</time>
      </trkpt>
      <trkpt lat="45.799380" lon="-0.656320">
        <time>2017-06-24T11:35:28Z</time>
      </trkpt>
      <trkpt lat="45.799380" lon="-0.656320">
        <time>2017-06-24T11:35:29Z</time>
      </trkpt>
      <trkpt lat="45.799420" lon="-0.656290">
        <time>2017-06-24T11:35:30Z</time>
      </trkpt>
      <trkpt lat="45.799420" lon="-0.656290">
        <time>2017-06-24T11:35:31Z</time>
      </trkpt>
      <trkpt lat="45.799420" lon="-0.656290">
        <time>2017-06-24T11:35:32Z</time>
      </trkpt>
      <trkpt lat="45.799420" lon="-0.656290">
        <time>2017-06-24T11:35:33Z</time>
      </trkpt>
      <trkpt lat="45.799420" lon="-0.656290">
        <time>2017-06-24T11:35:34Z</time>
      </trkpt>
      <trkpt lat="45.799420" lon="-0.656290">
        <time>2017-06-24T11:35:35Z</time>
      </trkpt>
      <trkpt lat="45.799420" lon="-0.656290">
        <time>2017-06-24T11:35:36Z</time>
      </trkpt>
      <trkpt lat="45.799420" lon="-0.656290">
        <time>2017-06-24T11:35:37Z</time>
      </trkpt>
      <trkpt lat="45.799420" lon="-0.656290">
        <time>2017-06-24T11:35:38Z</time>
      </trkpt>
      <trkpt lat="45.799420" lon="-0.656290">
        <time>2017-06-24T11:35:39Z</time>
      </trkpt>
      <trkpt lat="45.799420" lon="-0.656290">
        <time>2017-06-24T11:35:40Z</time>
      </trkpt>
      <trkpt lat="45.799420" lon="-0.656290">
        <time>2017-06-24T11:35:41Z</time>
      </trkpt>
      <trkpt lat="45.799420" lon="-0.656290">
        <time>2017-06-24T11:35:42Z</time>
      </trkpt>
      <trkpt lat="45.799420" lon="-0.656290">
        <time>2017-06-24T11:35:43Z</time>
      </trkpt>
      <trkpt lat="45.799420" lon="-0.656290">
        <time>2017-06-24T11:35:44Z</time>
      </trkpt>
      <trkpt lat="45.799420" lon="-0.656290">
        <time>2017-06-24T11:35:45Z</time>
      </trkpt>
      <trkpt lat="45.799420" lon="-0.656290">
        <time>2017-06-24T11:35:46Z</time>
      </trkpt>
      <trkpt lat="45.799420" lon="-0.656290">
        <time>2017-06-24T11:35:47Z</time>
      </trkpt>
      <trkpt lat="45.799420" lon="-0.656290">
        <time>2017-06-24T11:35:48Z</time>
      </trkpt>
      <trkpt lat="45.799420" lon="-0.656290">
        <time>2017-06-24T11:35:49Z</time>
      </trkpt>
      <trkpt lat="45.799420" lon="-0.656290">
        <time>2017-06-24T11:35:50Z</time>
      </trkpt>
      <trkpt lat="45.799420" lon="-0.656290">
        <time>2017-06-24T11:35:51Z</time>
      </trkpt>
      <trkpt lat="45.799420" lon="-0.656290">
        <time>2017-06-24T11:35:52Z</time>
      </trkpt>
      <trkpt lat="45.799420" lon="-0.656290">
        <time>2017-06-24T11:35:53Z</time>
      </trkpt>
      <trkpt lat="45.799420" lon="-0.656290">
        <time>2017-06-24T11:35:54Z</time>
      </trkpt>
      <trkpt lat="45.799420" lon="-0.656290">
        <time>2017-06-24T11:35:55Z</time>
      </trkpt>
      <trkpt lat="45.799420" lon="-0.656290">
        <time>2017-06-24T11:35:56Z</time>
      </trkpt>
      <trkpt lat="45.799420" lon="-0.656290">
        <time>2017-06-24T11:35:57Z</time>
      </trkpt>
      <trkpt lat="45.799420" lon="-0.656290">
        <time>2017-06-24T11:35:58Z</time>
      </trkpt>
      <trkpt lat="45.799420" lon="-0.656290">
        <time>2017-06-24T11:35:59Z</time>
      </trkpt>
      <trkpt lat="45.799420" lon="-0.656290">
        <time>2017-06-24T11:36:00Z</time>
      </trkpt>
      <trkpt lat="45.799420" lon="-0.656290">
        <time>2017-06-24T11:36:01Z</time>
      </trkpt>
      <trkpt lat="45.799420" lon="-0.656290">
        <time>2017-06-24T11:36:02Z</time>
      </trkpt>
      <trkpt lat="45.799420" lon="-0.656290">
        <time>2017-06-24T11:36:03Z</time>
      </trkpt>
      <trkpt lat="45.799420" lon="-0.656290">
        <time>2017-06-24T11:36:04Z</time>
      </trkpt>
      <trkpt lat="45.799420" lon="-0.656290">
        <time>2017-06-24T11:36:05Z</time>
      </trkpt>
      <trkpt lat="45.799420" lon="-0.656290">
        <time>2017-06-24T11:36:06Z</time>
      </trkpt>
      <trkpt lat="45.799420" lon="-0.656290">
        <time>2017-06-24T11:36:07Z</time>
      </trkpt>
      <trkpt lat="45.799420" lon="-0.656290">
        <time>2017-06-24T11:36:08Z</time>
      </trkpt>
      <trkpt lat="45.799420" lon="-0.656290">
        <time>2017-06-24T11:36:09Z</time>
      </trkpt>
      <trkpt lat="45.799420" lon="-0.656290">
        <time>2017-06-24T11:36:10Z</time>
      </trkpt>
      <trkpt lat="45.799420" lon="-0.656290">
        <time>2017-06-24T11:36:11Z</time>
      </trkpt>
      <trkpt lat="45.799420" lon="-0.656290">
        <time>2017-06-24T11:36:12Z</time>
      </trkpt>
      <trkpt lat="45.799420" lon="-0.656290">
        <time>2017-06-24T11:36:13Z</time>
      </trkpt>
      <trkpt lat="45.799420" lon="-0.656290">
        <time>2017-06-24T11:36:14Z</time>
      </trkpt>
      <trkpt lat="45.799420" lon="-0.656290">
        <time>2017-06-24T11:36:15Z</time>
      </trkpt>
      <trkpt lat="45.799420" lon="-0.656290">
        <time>2017-06-24T11:36:16Z</time>
      </trkpt>
      <trkpt lat="45.799420" lon="-0.656290">
        <time>2017-06-24T11:36:17Z</time>
      </trkpt>
      <trkpt lat="45.799420" lon="-0.656290">
        <time>2017-06-24T11:36:18Z</time>
      </trkpt>
      <trkpt lat="45.799420" lon="-0.656290">
        <time>2017-06-24T11:36:19Z</time>
      </trkpt>
      <trkpt lat="45.799420" lon="-0.656290">
        <time>2017-06-24T11:36:20Z</time>
      </trkpt>
      <trkpt lat="45.799420" lon="-0.656290">
        <time>2017-06-24T11:36:21Z</time>
      </trkpt>
      <trkpt lat="45.799420" lon="-0.656290">
        <time>2017-06-24T11:36:22Z</time>
      </trkpt>
      <trkpt lat="45.799420" lon="-0.656290">
        <time>2017-06-24T11:36:23Z</time>
      </trkpt>
      <trkpt lat="45.799420" lon="-0.656290">
        <time>2017-06-24T11:36:24Z</time>
      </trkpt>
      <trkpt lat="45.799420" lon="-0.656290">
        <time>2017-06-24T11:36:25Z</time>
      </trkpt>
      <trkpt lat="45.799420" lon="-0.656290">
        <time>2017-06-24T11:36:26Z</time>
      </trkpt>
      <trkpt lat="45.799420" lon="-0.656290">
        <time>2017-06-24T11:36:27Z</time>
      </trkpt>
      <trkpt lat="45.799420" lon="-0.656290">
        <time>2017-06-24T11:36:28Z</time>
      </trkpt>
      <trkpt lat="45.799420" lon="-0.656290">
        <time>2017-06-24T11:36:29Z</time>
      </trkpt>
      <trkpt lat="45.799420" lon="-0.656290">
        <time>2017-06-24T11:36:30Z</time>
      </trkpt>
      <trkpt lat="45.799420" lon="-0.656290">
        <time>2017-06-24T11:36:31Z</time>
      </trkpt>
      <trkpt lat="45.799420" lon="-0.656290">
        <time>2017-06-24T11:36:32Z</time>
      </trkpt>
      <trkpt lat="45.799420" lon="-0.656290">
        <time>2017-06-24T11:36:33Z</time>
      </trkpt>
      <trkpt lat="45.799420" lon="-0.656290">
        <time>2017-06-24T11:36:34Z</time>
      </trkpt>
      <trkpt lat="45.799420" lon="-0.656290">
        <time>2017-06-24T11:36:35Z</time>
      </trkpt>
      <trkpt lat="45.799420" lon="-0.656290">
        <time>2017-06-24T11:36:36Z</time>
      </trkpt>
      <trkpt lat="45.799420" lon="-0.656290">
        <time>2017-06-24T11:36:37Z</time>
      </trkpt>
      <trkpt lat="45.799420" lon="-0.656290">
        <time>2017-06-24T11:36:38Z</time>
      </trkpt>
      <trkpt lat="45.799420" lon="-0.656290">
        <time>2017-06-24T11:36:39Z</time>
      </trkpt>
      <trkpt lat="45.799420" lon="-0.656290">
        <time>2017-06-24T11:36:40Z</time>
      </trkpt>
      <trkpt lat="45.799420" lon="-0.656290">
        <time>2017-06-24T11:36:41Z</time>
      </trkpt>
      <trkpt lat="45.799420" lon="-0.656290">
        <time>2017-06-24T11:36:42Z</time>
      </trkpt>
      <trkpt lat="45.799420" lon="-0.656290">
        <time>2017-06-24T11:36:43Z</time>
      </trkpt>
      <trkpt lat="45.799420" lon="-0.656290">
        <time>2017-06-24T11:36:44Z</time>
      </trkpt>
      <trkpt lat="45.799420" lon="-0.656290">
        <time>2017-06-24T11:36:45Z</time>
      </trkpt>
      <trkpt lat="45.799420" lon="-0.656290">
        <time>2017-06-24T11:36:46Z</time>
      </trkpt>
      <trkpt lat="45.799420" lon="-0.656290">
        <time>2017-06-24T11:36:47Z</time>
      </trkpt>
      <trkpt lat="45.799420" lon="-0.656290">
        <time>2017-06-24T11:36:48Z</time>
      </trkpt>
      <trkpt lat="45.799420" lon="-0.656290">
        <time>2017-06-24T11:36:49Z</time>
      </trkpt>
      <trkpt lat="45.799420" lon="-0.656290">
        <time>2017-06-24T11:36:50Z</time>
      </trkpt>
      <trkpt lat="45.799420" lon="-0.656290">
        <time>2017-06-24T11:36:51Z</time>
      </trkpt>
      <trkpt lat="45.799420" lon="-0.656290">
        <time>2017-06-24T11:36:52Z</time>
      </trkpt>
      <trkpt lat="45.799420" lon="-0.656290">
        <time>2017-06-24T11:36:53Z</time>
      </trkpt>
      <trkpt lat="45.799420" lon="-0.656290">
        <time>2017-06-24T11:36:54Z</time>
      </trkpt>
      <trkpt lat="45.799420" lon="-0.656290">
        <time>2017-06-24T11:36:55Z</time>
      </trkpt>
      <trkpt lat="45.799420" lon="-0.656290">
        <time>2017-06-24T11:36:56Z</time>
      </trkpt>
      <trkpt lat="45.799420" lon="-0.656290">
        <time>2017-06-24T11:36:57Z</time>
      </trkpt>
      <trkpt lat="45.799420" lon="-0.656290">
        <time>2017-06-24T11:36:58Z</time>
      </trkpt>
      <trkpt lat="45.799420" lon="-0.656290">
        <time>2017-06-24T11:36:59Z</time>
      </trkpt>
      <trkpt lat="45.799420" lon="-0.656290">
        <time>2017-06-24T11:37:00Z</time>
      </trkpt>
      <trkpt lat="45.799420" lon="-0.656290">
        <time>2017-06-24T11:37:01Z</time>
      </trkpt>
      <trkpt lat="45.799420" lon="-0.656290">
        <time>2017-06-24T11:37:02Z</time>
      </trkpt>
      <trkpt lat="45.799420" lon="-0.656290">
        <time>2017-06-24T11:37:03Z</time>
      </trkpt>
      <trkpt lat="45.799420" lon="-0.656290">
        <time>2017-06-24T11:37:04Z</time>
      </trkpt>
      <trkpt lat="45.799420" lon="-0.656290">
        <time>2017-06-24T11:37:05Z</time>
      </trkpt>
      <trkpt lat="45.799420" lon="-0.656290">
        <time>2017-06-24T11:37:06Z</time>
      </trkpt>
      <trkpt lat="45.799420" lon="-0.656290">
        <time>2017-06-24T11:37:07Z</time>
      </trkpt>
      <trkpt lat="45.799420" lon="-0.656290">
        <time>2017-06-24T11:37:08Z</time>
      </trkpt>
      <trkpt lat="45.799420" lon="-0.656290">
        <time>2017-06-24T11:37:09Z</time>
      </trkpt>
      <trkpt lat="45.799420" lon="-0.656290">
        <time>2017-06-24T11:37:10Z</time>
      </trkpt>
      <trkpt lat="45.799420" lon="-0.656290">
        <time>2017-06-24T11:37:11Z</time>
      </trkpt>
      <trkpt lat="45.799420" lon="-0.656290">
        <time>2017-06-24T11:37:12Z</time>
      </trkpt>
      <trkpt lat="45.799420" lon="-0.656290">
        <time>2017-06-24T11:37:13Z</time>
      </trkpt>
      <trkpt lat="45.799420" lon="-0.656290">
        <time>2017-06-24T11:37:14Z</time>
      </trkpt>
      <trkpt lat="45.799420" lon="-0.656290">
        <time>2017-06-24T11:37:15Z</time>
      </trkpt>
      <trkpt lat="45.799420" lon="-0.656290">
        <time>2017-06-24T11:37:16Z</time>
      </trkpt>
      <trkpt lat="45.799420" lon="-0.656290">
        <time>2017-06-24T11:37:17Z</time>
      </trkpt>
      <trkpt lat="45.799420" lon="-0.656290">
        <time>2017-06-24T11:37:18Z</time>
      </trkpt>
      <trkpt lat="45.799420" lon="-0.656290">
        <time>2017-06-24T11:37:19Z</time>
      </trkpt>
      <trkpt lat="45.799420" lon="-0.656290">
        <time>2017-06-24T11:37:20Z</time>
      </trkpt>
      <trkpt lat="45.799420" lon="-0.656290">
        <time>2017-06-24T11:37:21Z</time>
      </trkpt>
      <trkpt lat="45.799420" lon="-0.656290">
        <time>2017-06-24T11:37:22Z</time>
      </trkpt>
      <trkpt lat="45.799420" lon="-0.656290">
        <time>2017-06-24T11:37:23Z</time>
      </trkpt>
      <trkpt lat="45.799420" lon="-0.656290">
        <time>2017-06-24T11:37:24Z</time>
      </trkpt>
      <trkpt lat="45.799420" lon="-0.656290">
        <time>2017-06-24T11:37:25Z</time>
      </trkpt>
      <trkpt lat="45.799420" lon="-0.656290">
        <time>2017-06-24T11:37:26Z</time>
      </trkpt>
      <trkpt lat="45.799420" lon="-0.656290">
        <time>2017-06-24T11:37:27Z</time>
      </trkpt>
      <trkpt lat="45.799420" lon="-0.656290">
        <time>2017-06-24T11:37:28Z</time>
      </trkpt>
      <trkpt lat="45.799420" lon="-0.656290">
        <time>2017-06-24T11:37:29Z</time>
      </trkpt>
      <trkpt lat="45.799420" lon="-0.656290">
        <time>2017-06-24T11:37:30Z</time>
      </trkpt>
      <trkpt lat="45.799420" lon="-0.656290">
        <time>2017-06-24T11:37:31Z</time>
      </trkpt>
      <trkpt lat="45.799420" lon="-0.656290">
        <time>2017-06-24T11:37:32Z</time>
      </trkpt>
      <trkpt lat="45.799420" lon="-0.656290">
        <time>2017-06-24T11:37:33Z</time>
      </trkpt>
      <trkpt lat="45.799420" lon="-0.656290">
        <time>2017-06-24T11:37:34Z</time>
      </trkpt>
      <trkpt lat="45.799420" lon="-0.656290">
        <time>2017-06-24T11:37:35Z</time>
      </trkpt>
      <trkpt lat="45.799420" lon="-0.656290">
        <time>2017-06-24T11:37:36Z</time>
      </trkpt>
      <trkpt lat="45.799420" lon="-0.656290">
        <time>2017-06-24T11:37:37Z</time>
      </trkpt>
      <trkpt lat="45.799420" lon="-0.656290">
        <time>2017-06-24T11:37:38Z</time>
      </trkpt>
      <trkpt lat="45.799420" lon="-0.656290">
        <time>2017-06-24T11:37:39Z</time>
      </trkpt>
      <trkpt lat="45.799420" lon="-0.656290">
        <time>2017-06-24T11:37:40Z</time>
      </trkpt>
      <trkpt lat="45.799420" lon="-0.656290">
        <time>2017-06-24T11:37:41Z</time>
      </trkpt>
      <trkpt lat="45.799420" lon="-0.656290">
        <time>2017-06-24T11:37:42Z</time>
      </trkpt>
      <trkpt lat="45.799420" lon="-0.656290">
        <time>2017-06-24T11:37:43Z</time>
      </trkpt>
      <trkpt lat="45.799420" lon="-0.656290">
        <time>2017-06-24T11:37:44Z</time>
      </trkpt>
      <trkpt lat="45.799420" lon="-0.656290">
        <time>2017-06-24T11:37:45Z</time>
      </trkpt>
      <trkpt lat="45.799420" lon="-0.656290">
        <time>2017-06-24T11:37:46Z</time>
      </trkpt>
      <trkpt lat="45.799420" lon="-0.656290">
        <time>2017-06-24T11:37:47Z</time>
      </trkpt>
      <trkpt lat="45.799420" lon="-0.656290">
        <time>2017-06-24T11:37:48Z</time>
      </trkpt>
      <trkpt lat="45.799420" lon="-0.656290">
        <time>2017-06-24T11:37:49Z</time>
      </trkpt>
      <trkpt lat="45.799420" lon="-0.656290">
        <time>2017-06-24T11:37:50Z</time>
      </trkpt>
      <trkpt lat="45.799420" lon="-0.656290">
        <time>2017-06-24T11:37:51Z</time>
      </trkpt>
      <trkpt lat="45.799420" lon="-0.656290">
        <time>2017-06-24T11:37:52Z</time>
      </trkpt>
      <trkpt lat="45.799420" lon="-0.656290">
        <time>2017-06-24T11:37:53Z</time>
      </trkpt>
      <trkpt lat="45.799420" lon="-0.656290">
        <time>2017-06-24T11:37:54Z</time>
      </trkpt>
      <trkpt lat="45.799420" lon="-0.656290">
        <time>2017-06-24T11:37:55Z</time>
      </trkpt>
      <trkpt lat="45.799420" lon="-0.656290">
        <time>2017-06-24T11:37:56Z</time>
      </trkpt>
      <trkpt lat="45.799420" lon="-0.656290">
        <time>2017-06-24T11:37:57Z</time>
      </trkpt>
      <trkpt lat="45.799420" lon="-0.656290">
        <time>2017-06-24T11:37:58Z</time>
      </trkpt>
      <trkpt lat="45.799420" lon="-0.656290">
        <time>2017-06-24T11:37:59Z</time>
      </trkpt>
      <trkpt lat="45.799420" lon="-0.656290">
        <time>2017-06-24T11:38:00Z</time>
      </trkpt>
      <trkpt lat="45.799420" lon="-0.656290">
        <time>2017-06-24T11:38:01Z</time>
      </trkpt>
      <trkpt lat="45.799420" lon="-0.656290">
        <time>2017-06-24T11:38:02Z</time>
      </trkpt>
      <trkpt lat="45.799420" lon="-0.656290">
        <time>2017-06-24T11:38:03Z</time>
      </trkpt>
      <trkpt lat="45.799420" lon="-0.656290">
        <time>2017-06-24T11:38:04Z</time>
      </trkpt>
      <trkpt lat="45.799420" lon="-0.656290">
        <time>2017-06-24T11:38:05Z</time>
      </trkpt>
      <trkpt lat="45.799420" lon="-0.656290">
        <time>2017-06-24T11:38:06Z</time>
      </trkpt>
      <trkpt lat="45.799420" lon="-0.656290">
        <time>2017-06-24T11:38:07Z</time>
      </trkpt>
      <trkpt lat="45.799420" lon="-0.656290">
        <time>2017-06-24T11:38:08Z</time>
      </trkpt>
      <trkpt lat="45.799420" lon="-0.656290">
        <time>2017-06-24T11:38:09Z</time>
      </trkpt>
      <trkpt lat="45.799420" lon="-0.656290">
        <time>2017-06-24T11:38:10Z</time>
      </trkpt>
      <trkpt lat="45.799420" lon="-0.656290">
        <time>2017-06-24T11:38:11Z</time>
      </trkpt>
      <trkpt lat="45.799420" lon="-0.656290">
        <time>2017-06-24T11:38:12Z</time>
      </trkpt>
      <trkpt lat="45.799420" lon="-0.656290">
        <time>2017-06-24T11:38:13Z</time>
      </trkpt>
      <trkpt lat="45.799420" lon="-0.656290">
        <time>2017-06-24T11:38:14Z</time>
      </trkpt>
      <trkpt lat="45.799420" lon="-0.656290">
        <time>2017-06-24T11:38:15Z</time>
      </trkpt>
      <trkpt lat="45.799420" lon="-0.656290">
        <time>2017-06-24T11:38:16Z</time>
      </trkpt>
      <trkpt lat="45.799420" lon="-0.656290">
        <time>2017-06-24T11:38:17Z</time>
      </trkpt>
      <trkpt lat="45.799420" lon="-0.656290">
        <time>2017-06-24T11:38:18Z</time>
      </trkpt>
      <trkpt lat="45.799420" lon="-0.656290">
        <time>2017-06-24T11:38:19Z</time>
      </trkpt>
      <trkpt lat="45.799420" lon="-0.656290">
        <time>2017-06-24T11:38:20Z</time>
      </trkpt>
      <trkpt lat="45.799420" lon="-0.656290">
        <time>2017-06-24T11:38:21Z</time>
      </trkpt>
      <trkpt lat="45.799420" lon="-0.656290">
        <time>2017-06-24T11:38:22Z</time>
      </trkpt>
      <trkpt lat="45.799420" lon="-0.656290">
        <time>2017-06-24T11:38:23Z</time>
      </trkpt>
      <trkpt lat="45.799420" lon="-0.656290">
        <time>2017-06-24T11:38:24Z</time>
      </trkpt>
      <trkpt lat="45.799420" lon="-0.656290">
        <time>2017-06-24T11:38:25Z</time>
      </trkpt>
      <trkpt lat="45.799420" lon="-0.656290">
        <time>2017-06-24T11:38:26Z</time>
      </trkpt>
      <trkpt lat="45.799420" lon="-0.656290">
        <time>2017-06-24T11:38:27Z</time>
      </trkpt>
      <trkpt lat="45.799420" lon="-0.656290">
        <time>2017-06-24T11:38:28Z</time>
      </trkpt>
      <trkpt lat="45.799420" lon="-0.656290">
        <time>2017-06-24T11:38:29Z</time>
      </trkpt>
      <trkpt lat="45.799420" lon="-0.656290">
        <time>2017-06-24T11:38:30Z</time>
      </trkpt>
      <trkpt lat="45.799420" lon="-0.656290">
        <time>2017-06-24T11:38:31Z</time>
      </trkpt>
      <trkpt lat="45.799420" lon="-0.656290">
        <time>2017-06-24T11:38:32Z</time>
      </trkpt>
      <trkpt lat="45.799420" lon="-0.656290">
        <time>2017-06-24T11:38:33Z</time>
      </trkpt>
      <trkpt lat="45.799420" lon="-0.656290">
        <time>2017-06-24T11:38:34Z</time>
      </trkpt>
      <trkpt lat="45.799420" lon="-0.656290">
        <time>2017-06-24T11:38:35Z</time>
      </trkpt>
      <trkpt lat="45.799420" lon="-0.656290">
        <time>2017-06-24T11:38:36Z</time>
      </trkpt>
      <trkpt lat="45.799420" lon="-0.656290">
        <time>2017-06-24T11:38:37Z</time>
      </trkpt>
      <trkpt lat="45.799420" lon="-0.656290">
        <time>2017-06-24T11:38:38Z</time>
      </trkpt>
      <trkpt lat="45.799420" lon="-0.656290">
        <time>2017-06-24T11:38:39Z</time>
      </trkpt>
      <trkpt lat="45.799420" lon="-0.656290">
        <time>2017-06-24T11:38:40Z</time>
      </trkpt>
      <trkpt lat="45.799420" lon="-0.656290">
        <time>2017-06-24T11:38:41Z</time>
      </trkpt>
      <trkpt lat="45.799420" lon="-0.656290">
        <time>2017-06-24T11:38:42Z</time>
      </trkpt>
      <trkpt lat="45.799420" lon="-0.656290">
        <time>2017-06-24T11:38:43Z</time>
      </trkpt>
      <trkpt lat="45.799420" lon="-0.656290">
        <time>2017-06-24T11:38:44Z</time>
      </trkpt>
      <trkpt lat="45.799420" lon="-0.656290">
        <time>2017-06-24T11:38:45Z</time>
      </trkpt>
      <trkpt lat="45.799420" lon="-0.656290">
        <time>2017-06-24T11:38:46Z</time>
      </trkpt>
      <trkpt lat="45.799420" lon="-0.656290">
        <time>2017-06-24T11:38:47Z</time>
      </trkpt>
      <trkpt lat="45.799420" lon="-0.656290">
        <time>2017-06-24T11:38:48Z</time>
      </trkpt>
      <trkpt lat="45.799420" lon="-0.656290">
        <time>2017-06-24T11:38:49Z</time>
      </trkpt>
      <trkpt lat="45.799420" lon="-0.656290">
        <time>2017-06-24T11:38:50Z</time>
      </trkpt>
      <trkpt lat="45.799420" lon="-0.656290">
        <time>2017-06-24T11:38:51Z</time>
      </trkpt>
      <trkpt lat="45.799420" lon="-0.656280">
        <time>2017-06-24T11:38:52Z</time>
      </trkpt>
      <trkpt lat="45.799420" lon="-0.656260">
        <time>2017-06-24T11:38:53Z</time>
      </trkpt>
      <trkpt lat="45.799420" lon="-0.656260">
        <time>2017-06-24T11:38:54Z</time>
      </trkpt>
      <trkpt lat="45.799420" lon="-0.656260">
        <time>2017-06-24T11:38:55Z</time>
      </trkpt>
      <trkpt lat="45.799420" lon="-0.656260">
        <time>2017-06-24T11:38:56Z</time>
      </trkpt>
      <trkpt lat="45.799420" lon="-0.656260">
        <time>2017-06-24T11:38:57Z</time>
      </trkpt>
      <trkpt lat="45.799420" lon="-0.656260">
        <time>2017-06-24T11:38:58Z</time>
      </trkpt>
      <trkpt lat="45.799420" lon="-0.656260">
        <time>2017-06-24T11:38:59Z</time>
      </trkpt>
      <trkpt lat="45.799420" lon="-0.656260">
        <time>2017-06-24T11:39:00Z</time>
      </trkpt>
      <trkpt lat="45.799420" lon="-0.656260">
        <time>2017-06-24T11:39:01Z</time>
      </trkpt>
      <trkpt lat="45.799420" lon="-0.656260">
        <time>2017-06-24T11:39:02Z</time>
      </trkpt>
      <trkpt lat="45.799420" lon="-0.656260">
        <time>2017-06-24T11:39:03Z</time>
      </trkpt>
      <trkpt lat="45.799420" lon="-0.656260">
        <time>2017-06-24T11:39:04Z</time>
      </trkpt>
      <trkpt lat="45.799420" lon="-0.656260">
        <time>2017-06-24T11:39:05Z</time>
      </trkpt>
      <trkpt lat="45.799420" lon="-0.656260">
        <time>2017-06-24T11:39:06Z</time>
      </trkpt>
      <trkpt lat="45.799420" lon="-0.656260">
        <time>2017-06-24T11:39:07Z</time>
      </trkpt>
      <trkpt lat="45.799420" lon="-0.656260">
        <time>2017-06-24T11:39:08Z</time>
      </trkpt>
      <trkpt lat="45.799420" lon="-0.656260">
        <time>2017-06-24T11:39:09Z</time>
      </trkpt>
      <trkpt lat="45.799420" lon="-0.656260">
        <time>2017-06-24T11:39:10Z</time>
      </trkpt>
      <trkpt lat="45.799420" lon="-0.656260">
        <time>2017-06-24T11:39:11Z</time>
      </trkpt>
      <trkpt lat="45.799420" lon="-0.656260">
        <time>2017-06-24T11:39:12Z</time>
      </trkpt>
      <trkpt lat="45.799420" lon="-0.656260">
        <time>2017-06-24T11:39:13Z</time>
      </trkpt>
      <trkpt lat="45.799420" lon="-0.656260">
        <time>2017-06-24T11:39:14Z</time>
      </trkpt>
      <trkpt lat="45.799420" lon="-0.656260">
        <time>2017-06-24T11:39:15Z</time>
      </trkpt>
      <trkpt lat="45.799420" lon="-0.656260">
        <time>2017-06-24T11:39:16Z</time>
      </trkpt>
      <trkpt lat="45.799420" lon="-0.656260">
        <time>2017-06-24T11:39:17Z</time>
      </trkpt>
      <trkpt lat="45.799420" lon="-0.656260">
        <time>2017-06-24T11:39:18Z</time>
      </trkpt>
      <trkpt lat="45.799420" lon="-0.656260">
        <time>2017-06-24T11:39:19Z</time>
      </trkpt>
      <trkpt lat="45.799420" lon="-0.656260">
        <time>2017-06-24T11:39:20Z</time>
      </trkpt>
      <trkpt lat="45.799410" lon="-0.656260">
        <time>2017-06-24T11:39:21Z</time>
      </trkpt>
      <trkpt lat="45.799410" lon="-0.656260">
        <time>2017-06-24T11:39:22Z</time>
      </trkpt>
      <trkpt lat="45.799410" lon="-0.656260">
        <time>2017-06-24T11:39:23Z</time>
      </trkpt>
      <trkpt lat="45.799410" lon="-0.656260">
        <time>2017-06-24T11:39:24Z</time>
      </trkpt>
      <trkpt lat="45.799410" lon="-0.656260">
        <time>2017-06-24T11:39:25Z</time>
      </trkpt>
      <trkpt lat="45.799410" lon="-0.656260">
        <time>2017-06-24T11:39:26Z</time>
      </trkpt>
      <trkpt lat="45.799410" lon="-0.656260">
        <time>2017-06-24T11:39:27Z</time>
      </trkpt>
      <trkpt lat="45.799410" lon="-0.656260">
        <time>2017-06-24T11:39:28Z</time>
      </trkpt>
      <trkpt lat="45.799410" lon="-0.656260">
        <time>2017-06-24T11:39:29Z</time>
      </trkpt>
      <trkpt lat="45.799410" lon="-0.656260">
        <time>2017-06-24T11:39:30Z</time>
      </trkpt>
      <trkpt lat="45.799410" lon="-0.656260">
        <time>2017-06-24T11:39:31Z</time>
      </trkpt>
      <trkpt lat="45.799410" lon="-0.656260">
        <time>2017-06-24T11:39:32Z</time>
      </trkpt>
      <trkpt lat="45.799410" lon="-0.656270">
        <time>2017-06-24T11:39:33Z</time>
      </trkpt>
      <trkpt lat="45.799420" lon="-0.656270">
        <time>2017-06-24T11:39:34Z</time>
      </trkpt>
      <trkpt lat="45.799430" lon="-0.656270">
        <time>2017-06-24T11:39:35Z</time>
      </trkpt>
      <trkpt lat="45.799430" lon="-0.656270">
        <time>2017-06-24T11:39:36Z</time>
      </trkpt>
      <trkpt lat="45.799430" lon="-0.656270">
        <time>2017-06-24T11:39:37Z</time>
      </trkpt>
      <trkpt lat="45.799430" lon="-0.656270">
        <time>2017-06-24T11:39:38Z</time>
      </trkpt>
      <trkpt lat="45.799430" lon="-0.656270">
        <time>2017-06-24T11:39:39Z</time>
      </trkpt>
      <trkpt lat="45.799430" lon="-0.656270">
        <time>2017-06-24T11:39:40Z</time>
      </trkpt>
      <trkpt lat="45.799430" lon="-0.656270">
        <time>2017-06-24T11:39:41Z</time>
      </trkpt>
      <trkpt lat="45.799430" lon="-0.656270">
        <time>2017-06-24T11:39:42Z</time>
      </trkpt>
      <trkpt lat="45.799430" lon="-0.656270">
        <time>2017-06-24T11:39:43Z</time>
      </trkpt>
      <trkpt lat="45.799430" lon="-0.656270">
        <time>2017-06-24T11:39:44Z</time>
      </trkpt>
      <trkpt lat="45.799430" lon="-0.656270">
        <time>2017-06-24T11:39:45Z</time>
      </trkpt>
      <trkpt lat="45.799430" lon="-0.656270">
        <time>2017-06-24T11:39:46Z</time>
      </trkpt>
      <trkpt lat="45.799430" lon="-0.656270">
        <time>2017-06-24T11:39:47Z</time>
      </trkpt>
      <trkpt lat="45.799430" lon="-0.656270">
        <time>2017-06-24T11:39:48Z</time>
      </trkpt>
      <trkpt lat="45.799430" lon="-0.656270">
        <time>2017-06-24T11:39:49Z</time>
      </trkpt>
      <trkpt lat="45.799430" lon="-0.656270">
        <time>2017-06-24T11:39:50Z</time>
      </trkpt>
      <trkpt lat="45.799430" lon="-0.656270">
        <time>2017-06-24T11:39:51Z</time>
      </trkpt>
      <trkpt lat="45.799430" lon="-0.656270">
        <time>2017-06-24T11:39:52Z</time>
      </trkpt>
      <trkpt lat="45.799430" lon="-0.656270">
        <time>2017-06-24T11:39:53Z</time>
      </trkpt>
      <trkpt lat="45.799430" lon="-0.656270">
        <time>2017-06-24T11:39:54Z</time>
      </trkpt>
      <trkpt lat="45.799430" lon="-0.656270">
        <time>2017-06-24T11:39:55Z</time>
      </trkpt>
      <trkpt lat="45.799430" lon="-0.656270">
        <time>2017-06-24T11:39:56Z</time>
      </trkpt>
      <trkpt lat="45.799430" lon="-0.656270">
        <time>2017-06-24T11:39:57Z</time>
      </trkpt>
      <trkpt lat="45.799430" lon="-0.656270">
        <time>2017-06-24T11:39:58Z</time>
      </trkpt>
      <trkpt lat="45.799430" lon="-0.656270">
        <time>2017-06-24T11:39:59Z</time>
      </trkpt>
      <trkpt lat="45.799430" lon="-0.656270">
        <time>2017-06-24T11:40:00Z</time>
      </trkpt>
      <trkpt lat="45.799430" lon="-0.656270">
        <time>2017-06-24T11:40:01Z</time>
      </trkpt>
      <trkpt lat="45.799430" lon="-0.656270">
        <time>2017-06-24T11:40:02Z</time>
      </trkpt>
      <trkpt lat="45.799430" lon="-0.656260">
        <time>2017-06-24T11:40:03Z</time>
      </trkpt>
      <trkpt lat="45.799440" lon="-0.656260">
        <time>2017-06-24T11:40:04Z</time>
      </trkpt>
      <trkpt lat="45.799450" lon="-0.656250">
        <time>2017-06-24T11:40:05Z</time>
      </trkpt>
      <trkpt lat="45.799480" lon="-0.656250">
        <time>2017-06-24T11:40:06Z</time>
      </trkpt>
      <trkpt lat="45.799500" lon="-0.656250">
        <time>2017-06-24T11:40:07Z</time>
      </trkpt>
      <trkpt lat="45.799530" lon="-0.656250">
        <time>2017-06-24T11:40:08Z</time>
      </trkpt>
      <trkpt lat="45.799560" lon="-0.656250">
        <time>2017-06-24T11:40:09Z</time>
      </trkpt>
      <trkpt lat="45.799600" lon="-0.656250">
        <time>2017-06-24T11:40:10Z</time>
      </trkpt>
      <trkpt lat="45.799620" lon="-0.656250">
        <time>2017-06-24T11:40:11Z</time>
      </trkpt>
      <trkpt lat="45.799660" lon="-0.656250">
        <time>2017-06-24T11:40:12Z</time>
      </trkpt>
      <trkpt lat="45.799700" lon="-0.656250">
        <time>2017-06-24T11:40:13Z</time>
      </trkpt>
      <trkpt lat="45.799740" lon="-0.656240">
        <time>2017-06-24T11:40:14Z</time>
      </trkpt>
      <trkpt lat="45.799780" lon="-0.656240">
        <time>2017-06-24T11:40:15Z</time>
      </trkpt>
      <trkpt lat="45.799850" lon="-0.656220">
        <time>2017-06-24T11:40:16Z</time>
      </trkpt>
      <trkpt lat="45.799910" lon="-0.656230">
        <time>2017-06-24T11:40:17Z</time>
      </trkpt>
      <trkpt lat="45.799990" lon="-0.656250">
        <time>2017-06-24T11:40:18Z</time>
      </trkpt>
      <trkpt lat="45.800080" lon="-0.656260">
        <time>2017-06-24T11:40:19Z</time>
      </trkpt>
      <trkpt lat="45.800180" lon="-0.656260">
        <time>2017-06-24T11:40:20Z</time>
      </trkpt>
      <trkpt lat="45.800270" lon="-0.656270">
        <time>2017-06-24T11:40:21Z</time>
      </trkpt>
      <trkpt lat="45.800360" lon="-0.656280">
        <time>2017-06-24T11:40:22Z</time>
      </trkpt>
      <trkpt lat="45.800470" lon="-0.656280">
        <time>2017-06-24T11:40:23Z</time>
      </trkpt>
      <trkpt lat="45.800560" lon="-0.656270">
        <time>2017-06-24T11:40:24Z</time>
      </trkpt>
      <trkpt lat="45.800650" lon="-0.656260">
        <time>2017-06-24T11:40:25Z</time>
      </trkpt>
      <trkpt lat="45.800780" lon="-0.656250">
        <time>2017-06-24T11:40:26Z</time>
      </trkpt>
      <trkpt lat="45.800890" lon="-0.656220">
        <time>2017-06-24T11:40:27Z</time>
      </trkpt>
      <trkpt lat="45.801030" lon="-0.656160">
        <time>2017-06-24T11:40:28Z</time>
      </trkpt>
      <trkpt lat="45.801160" lon="-0.656090">
        <time>2017-06-24T11:40:29Z</time>
      </trkpt>
      <trkpt lat="45.801310" lon="-0.656010">
        <time>2017-06-24T11:40:30Z</time>
      </trkpt>
      <trkpt lat="45.801490" lon="-0.655910">
        <time>2017-06-24T11:40:31Z</time>
      </trkpt>
      <trkpt lat="45.801650" lon="-0.655820">
        <time>2017-06-24T11:40:32Z</time>
      </trkpt>
      <trkpt lat="45.801830" lon="-0.655720">
        <time>2017-06-24T11:40:33Z</time>
      </trkpt>
      <trkpt lat="45.802000" lon="-0.655620">
        <time>2017-06-24T11:40:34Z</time>
      </trkpt>
      <trkpt lat="45.802180" lon="-0.655520">
        <time>2017-06-24T11:40:35Z</time>
      </trkpt>
      <trkpt lat="45.802390" lon="-0.655410">
        <time>2017-06-24T11:40:36Z</time>
      </trkpt>
      <trkpt lat="45.802580" lon="-0.655300">
        <time>2017-06-24T11:40:37Z</time>
      </trkpt>
      <trkpt lat="45.802790" lon="-0.655200">
        <time>2017-06-24T11:40:38Z</time>
      </trkpt>
      <trkpt lat="45.803020" lon="-0.655090">
        <time>2017-06-24T11:40:39Z</time>
      </trkpt>
      <trkpt lat="45.803250" lon="-0.654990">
        <time>2017-06-24T11:40:40Z</time>
      </trkpt>
      <trkpt lat="45.803500" lon="-0.654890">
        <time>2017-06-24T11:40:41Z</time>
      </trkpt>
      <trkpt lat="45.803760" lon="-0.654770">
        <time>2017-06-24T11:40:42Z</time>
      </trkpt>
      <trkpt lat="45.803980" lon="-0.654680">
        <time>2017-06-24T11:40:43Z</time>
      </trkpt>
      <trkpt lat="45.804240" lon="-0.654580">
        <time>2017-06-24T11:40:44Z</time>
      </trkpt>
      <trkpt lat="45.804470" lon="-0.654490">
        <time>2017-06-24T11:40:45Z</time>
      </trkpt>
      <trkpt lat="45.804720" lon="-0.654400">
        <time>2017-06-24T11:40:46Z</time>
      </trkpt>
      <trkpt lat="45.804990" lon="-0.654300">
        <time>2017-06-24T11:40:47Z</time>
      </trkpt>
      <trkpt lat="45.805230" lon="-0.654200">
        <time>2017-06-24T11:40:48Z</time>
      </trkpt>
      <trkpt lat="45.805500" lon="-0.654120">
        <time>2017-06-24T11:40:49Z</time>
      </trkpt>
      <trkpt lat="45.805760" lon="-0.654040">
        <time>2017-06-24T11:40:50Z</time>
      </trkpt>
      <trkpt lat="45.806020" lon="-0.653950">
        <time>2017-06-24T11:40:51Z</time>
      </trkpt>
      <trkpt lat="45.806290" lon="-0.653880">
        <time>2017-06-24T11:40:52Z</time>
      </trkpt>
      <trkpt lat="45.806540" lon="-0.653810">
        <time>2017-06-24T11:40:53Z</time>
      </trkpt>
      <trkpt lat="45.806810" lon="-0.653740">
        <time>2017-06-24T11:40:54Z</time>
      </trkpt>
      <trkpt lat="45.807100" lon="-0.653680">
        <time>2017-06-24T11:40:55Z</time>
      </trkpt>
      <trkpt lat="45.807360" lon="-0.653620">
        <time>2017-06-24T11:40:56Z</time>
      </trkpt>
      <trkpt lat="45.807640" lon="-0.653560">
        <time>2017-06-24T11:40:57Z</time>
      </trkpt>
      <trkpt lat="45.807950" lon="-0.653510">
        <time>2017-06-24T11:40:58Z</time>
      </trkpt>
      <trkpt lat="45.808210" lon="-0.653450">
        <time>2017-06-24T11:40:59Z</time>
      </trkpt>
      <trkpt lat="45.808520" lon="-0.653390">
        <time>2017-06-24T11:41:00Z</time>
      </trkpt>
      <trkpt lat="45.808790" lon="-0.653350">
        <time>2017-06-24T11:41:01Z</time>
      </trkpt>
      <trkpt lat="45.809080" lon="-0.653300">
        <time>2017-06-24T11:41:02Z</time>
      </trkpt>
      <trkpt lat="45.809390" lon="-0.653240">
        <time>2017-06-24T11:41:03Z</time>
      </trkpt>
      <trkpt lat="45.809670" lon="-0.653200">
        <time>2017-06-24T11:41:04Z</time>
      </trkpt>
      <trkpt lat="45.809970" lon="-0.653150">
        <time>2017-06-24T11:41:05Z</time>
      </trkpt>
      <trkpt lat="45.810260" lon="-0.653100">
        <time>2017-06-24T11:41:06Z</time>
      </trkpt>
      <trkpt lat="45.810550" lon="-0.653060">
        <time>2017-06-24T11:41:07Z</time>
      </trkpt>
      <trkpt lat="45.810860" lon="-0.653010">
        <time>2017-06-24T11:41:08Z</time>
      </trkpt>
      <trkpt lat="45.811130" lon="-0.652980">
        <time>2017-06-24T11:41:09Z</time>
      </trkpt>
      <trkpt lat="45.811420" lon="-0.652930">
        <time>2017-06-24T11:41:10Z</time>
      </trkpt>
      <trkpt lat="45.811720" lon="-0.652880">
        <time>2017-06-24T11:41:11Z</time>
      </trkpt>
      <trkpt lat="45.811970" lon="-0.652830">
        <time>2017-06-24T11:41:12Z</time>
      </trkpt>
      <trkpt lat="45.812260" lon="-0.652780">
        <time>2017-06-24T11:41:13Z</time>
      </trkpt>
      <trkpt lat="45.812550" lon="-0.652720">
        <time>2017-06-24T11:41:14Z</time>
      </trkpt>
      <trkpt lat="45.812800" lon="-0.652660">
        <time>2017-06-24T11:41:15Z</time>
      </trkpt>
      <trkpt lat="45.813090" lon="-0.652600">
        <time>2017-06-24T11:41:16Z</time>
      </trkpt>
      <trkpt lat="45.813340" lon="-0.652540">
        <time>2017-06-24T11:41:17Z</time>
      </trkpt>
      <trkpt lat="45.813600" lon="-0.652460">
        <time>2017-06-24T11:41:18Z</time>
      </trkpt>
      <trkpt lat="45.813890" lon="-0.652380">
        <time>2017-06-24T11:41:19Z</time>
      </trkpt>
      <trkpt lat="45.814140" lon="-0.652300">
        <time>2017-06-24T11:41:20Z</time>
      </trkpt>
      <trkpt lat="45.814410" lon="-0.652210">
        <time>2017-06-24T11:41:21Z</time>
      </trkpt>
      <trkpt lat="45.814680" lon="-0.652110">
        <time>2017-06-24T11:41:22Z</time>
      </trkpt>
      <trkpt lat="45.814950" lon="-0.652010">
        <time>2017-06-24T11:41:23Z</time>
      </trkpt>
      <trkpt lat="45.815240" lon="-0.651880">
        <time>2017-06-24T11:41:24Z</time>
      </trkpt>
      <trkpt lat="45.815490" lon="-0.651770">
        <time>2017-06-24T11:41:25Z</time>
      </trkpt>
      <trkpt lat="45.815760" lon="-0.651630">
        <time>2017-06-24T11:41:26Z</time>
      </trkpt>
      <trkpt lat="45.816050" lon="-0.651480">
        <time>2017-06-24T11:41:27Z</time>
      </trkpt>
      <trkpt lat="45.816300" lon="-0.651340">
        <time>2017-06-24T11:41:28Z</time>
      </trkpt>
      <trkpt lat="45.816570" lon="-0.651180">
        <time>2017-06-24T11:41:29Z</time>
      </trkpt>
      <trkpt lat="45.816860" lon="-0.650990">
        <time>2017-06-24T11:41:30Z</time>
      </trkpt>
      <trkpt lat="45.817110" lon="-0.650820">
        <time>2017-06-24T11:41:31Z</time>
      </trkpt>
      <trkpt lat="45.817400" lon="-0.650610">
        <time>2017-06-24T11:41:32Z</time>
      </trkpt>
      <trkpt lat="45.817650" lon="-0.650420">
        <time>2017-06-24T11:41:33Z</time>
      </trkpt>
      <trkpt lat="45.817920" lon="-0.650210">
        <time>2017-06-24T11:41:34Z</time>
      </trkpt>
      <trkpt lat="45.818210" lon="-0.649970">
        <time>2017-06-24T11:41:35Z</time>
      </trkpt>
      <trkpt lat="45.818450" lon="-0.649730">
        <time>2017-06-24T11:41:36Z</time>
      </trkpt>
      <trkpt lat="45.818710" lon="-0.649490">
        <time>2017-06-24T11:41:37Z</time>
      </trkpt>
      <trkpt lat="45.818970" lon="-0.649230">
        <time>2017-06-24T11:41:38Z</time>
      </trkpt>
      <trkpt lat="45.819230" lon="-0.648980">
        <time>2017-06-24T11:41:39Z</time>
      </trkpt>
      <trkpt lat="45.819490" lon="-0.648700">
        <time>2017-06-24T11:41:40Z</time>
      </trkpt>
      <trkpt lat="45.819720" lon="-0.648440">
        <time>2017-06-24T11:41:41Z</time>
      </trkpt>
      <trkpt lat="45.819950" lon="-0.648150">
        <time>2017-06-24T11:41:42Z</time>
      </trkpt>
      <trkpt lat="45.820200" lon="-0.647830">
        <time>2017-06-24T11:41:43Z</time>
      </trkpt>
      <trkpt lat="45.820410" lon="-0.647560">
        <time>2017-06-24T11:41:44Z</time>
      </trkpt>
      <trkpt lat="45.820630" lon="-0.647250">
        <time>2017-06-24T11:41:45Z</time>
      </trkpt>
      <trkpt lat="45.820860" lon="-0.646920">
        <time>2017-06-24T11:41:46Z</time>
      </trkpt>
      <trkpt lat="45.821070" lon="-0.646620">
        <time>2017-06-24T11:41:47Z</time>
      </trkpt>
      <trkpt lat="45.821290" lon="-0.646270">
        <time>2017-06-24T11:41:48Z</time>
      </trkpt>
      <trkpt lat="45.821480" lon="-0.645960">
        <time>2017-06-24T11:41:49Z</time>
      </trkpt>
      <trkpt lat="45.821690" lon="-0.645620">
        <time>2017-06-24T11:41:50Z</time>
      </trkpt>
      <trkpt lat="45.821910" lon="-0.645250">
        <time>2017-06-24T11:41:51Z</time>
      </trkpt>
      <trkpt lat="45.822100" lon="-0.644930">
        <time>2017-06-24T11:41:52Z</time>
      </trkpt>
      <trkpt lat="45.822290" lon="-0.644560">
        <time>2017-06-24T11:41:53Z</time>
      </trkpt>
      <trkpt lat="45.822480" lon="-0.644200">
        <time>2017-06-24T11:41:54Z</time>
      </trkpt>
      <trkpt lat="45.822680" lon="-0.643840">
        <time>2017-06-24T11:41:55Z</time>
      </trkpt>
      <trkpt lat="45.822880" lon="-0.643440">
        <time>2017-06-24T11:41:56Z</time>
      </trkpt>
      <trkpt lat="45.823060" lon="-0.643100">
        <time>2017-06-24T11:41:57Z</time>
      </trkpt>
      <trkpt lat="45.823260" lon="-0.642730">
        <time>2017-06-24T11:41:58Z</time>
      </trkpt>
      <trkpt lat="45.823460" lon="-0.642330">
        <time>2017-06-24T11:41:59Z</time>
      </trkpt>
      <trkpt lat="45.823650" lon="-0.641980">
        <time>2017-06-24T11:42:00Z</time>
      </trkpt>
      <trkpt lat="45.823840" lon="-0.641610">
        <time>2017-06-24T11:42:01Z</time>
      </trkpt>
      <trkpt lat="45.824040" lon="-0.641220">
        <time>2017-06-24T11:42:02Z</time>
      </trkpt>
      <trkpt lat="45.824220" lon="-0.640880">
        <time>2017-06-24T11:42:03Z</time>
      </trkpt>
      <trkpt lat="45.824420" lon="-0.640490">
        <time>2017-06-24T11:42:04Z</time>
      </trkpt>
      <trkpt lat="45.824590" lon="-0.640150">
        <time>2017-06-24T11:42:05Z</time>
      </trkpt>
      <trkpt lat="45.824780" lon="-0.639790">
        <time>2017-06-24T11:42:06Z</time>
      </trkpt>
      <trkpt lat="45.824980" lon="-0.639400">
        <time>2017-06-24T11:42:07Z</time>
      </trkpt>
      <trkpt lat="45.825160" lon="-0.639060">
        <time>2017-06-24T11:42:08Z</time>
      </trkpt>
      <trkpt lat="45.825350" lon="-0.638700">
        <time>2017-06-24T11:42:09Z</time>
      </trkpt>
      <trkpt lat="45.825540" lon="-0.638340">
        <time>2017-06-24T11:42:10Z</time>
      </trkpt>
      <trkpt lat="45.825730" lon="-0.637970">
        <time>2017-06-24T11:42:11Z</time>
      </trkpt>
      <trkpt lat="45.825930" lon="-0.637580">
        <time>2017-06-24T11:42:12Z</time>
      </trkpt>
      <trkpt lat="45.826120" lon="-0.637250">
        <time>2017-06-24T11:42:13Z</time>
      </trkpt>
      <trkpt lat="45.826330" lon="-0.636890">
        <time>2017-06-24T11:42:14Z</time>
      </trkpt>
      <trkpt lat="45.826540" lon="-0.636510">
        <time>2017-06-24T11:42:15Z</time>
      </trkpt>
      <trkpt lat="45.826740" lon="-0.636170">
        <time>2017-06-24T11:42:16Z</time>
      </trkpt>
      <trkpt lat="45.826940" lon="-0.635810">
        <time>2017-06-24T11:42:17Z</time>
      </trkpt>
      <trkpt lat="45.827170" lon="-0.635430">
        <time>2017-06-24T11:42:18Z</time>
      </trkpt>
      <trkpt lat="45.827370" lon="-0.635100">
        <time>2017-06-24T11:42:19Z</time>
      </trkpt>
      <trkpt lat="45.827610" lon="-0.634740">
        <time>2017-06-24T11:42:20Z</time>
      </trkpt>
      <trkpt lat="45.827820" lon="-0.634420">
        <time>2017-06-24T11:42:21Z</time>
      </trkpt>
      <trkpt lat="45.828050" lon="-0.634090">
        <time>2017-06-24T11:42:22Z</time>
      </trkpt>
      <trkpt lat="45.828290" lon="-0.633740">
        <time>2017-06-24T11:42:23Z</time>
      </trkpt>
      <trkpt lat="45.828510" lon="-0.633440">
        <time>2017-06-24T11:42:24Z</time>
      </trkpt>
      <trkpt lat="45.828750" lon="-0.633130">
        <time>2017-06-24T11:42:25Z</time>
      </trkpt>
      <trkpt lat="45.828990" lon="-0.632820">
        <time>2017-06-24T11:42:26Z</time>
      </trkpt>
      <trkpt lat="45.829240" lon="-0.632510">
        <time>2017-06-24T11:42:27Z</time>
      </trkpt>
      <trkpt lat="45.829500" lon="-0.632200">
        <time>2017-06-24T11:42:28Z</time>
      </trkpt>
      <trkpt lat="45.829740" lon="-0.631930">
        <time>2017-06-24T11:42:29Z</time>
      </trkpt>
      <trkpt lat="45.830000" lon="-0.631660">
        <time>2017-06-24T11:42:30Z</time>
      </trkpt>
      <trkpt lat="45.830270" lon="-0.631370">
        <time>2017-06-24T11:42:31Z</time>
      </trkpt>
      <trkpt lat="45.830520" lon="-0.631130">
        <time>2017-06-24T11:42:32Z</time>
      </trkpt>
      <trkpt lat="45.830790" lon="-0.630870">
        <time>2017-06-24T11:42:33Z</time>
      </trkpt>
      <trkpt lat="45.831080" lon="-0.630610">
        <time>2017-06-24T11:42:34Z</time>
      </trkpt>
      <trkpt lat="45.831340" lon="-0.630380">
        <time>2017-06-24T11:42:35Z</time>
      </trkpt>
      <trkpt lat="45.831630" lon="-0.630130">
        <time>2017-06-24T11:42:36Z</time>
      </trkpt>
      <trkpt lat="45.831880" lon="-0.629910">
        <time>2017-06-24T11:42:37Z</time>
      </trkpt>
      <trkpt lat="45.832170" lon="-0.629690">
        <time>2017-06-24T11:42:38Z</time>
      </trkpt>
      <trkpt lat="45.832470" lon="-0.629450">
        <time>2017-06-24T11:42:39Z</time>
      </trkpt>
      <trkpt lat="45.832740" lon="-0.629250">
        <time>2017-06-24T11:42:40Z</time>
      </trkpt>
      <trkpt lat="45.833040" lon="-0.629050">
        <time>2017-06-24T11:42:41Z</time>
      </trkpt>
      <trkpt lat="45.833340" lon="-0.628850">
        <time>2017-06-24T11:42:42Z</time>
      </trkpt>
      <trkpt lat="45.833650" lon="-0.628660">
        <time>2017-06-24T11:42:43Z</time>
      </trkpt>
      <trkpt lat="45.833980" lon="-0.628460">
        <time>2017-06-24T11:42:44Z</time>
      </trkpt>
      <trkpt lat="45.834280" lon="-0.628290">
        <time>2017-06-24T11:42:45Z</time>
      </trkpt>
      <trkpt lat="45.834590" lon="-0.628130">
        <time>2017-06-24T11:42:46Z</time>
      </trkpt>
      <trkpt lat="45.834930" lon="-0.627950">
        <time>2017-06-24T11:42:47Z</time>
      </trkpt>
      <trkpt lat="45.835230" lon="-0.627810">
        <time>2017-06-24T11:42:48Z</time>
      </trkpt>
      <trkpt lat="45.835550" lon="-0.627670">
        <time>2017-06-24T11:42:49Z</time>
      </trkpt>
      <trkpt lat="45.835890" lon="-0.627520">
        <time>2017-06-24T11:42:50Z</time>
      </trkpt>
      <trkpt lat="45.836190" lon="-0.627410">
        <time>2017-06-24T11:42:51Z</time>
      </trkpt>
      <trkpt lat="45.836530" lon="-0.627280">
        <time>2017-06-24T11:42:52Z</time>
      </trkpt>
      <trkpt lat="45.836830" lon="-0.627180">
        <time>2017-06-24T11:42:53Z</time>
      </trkpt>
      <trkpt lat="45.837140" lon="-0.627090">
        <time>2017-06-24T11:42:54Z</time>
      </trkpt>
      <trkpt lat="45.837470" lon="-0.626990">
        <time>2017-06-24T11:42:55Z</time>
      </trkpt>
      <trkpt lat="45.837760" lon="-0.626910">
        <time>2017-06-24T11:42:56Z</time>
      </trkpt>
      <trkpt lat="45.838070" lon="-0.626820">
        <time>2017-06-24T11:42:57Z</time>
      </trkpt>
      <trkpt lat="45.838380" lon="-0.626750">
        <time>2017-06-24T11:42:58Z</time>
      </trkpt>
      <trkpt lat="45.838690" lon="-0.626670">
        <time>2017-06-24T11:42:59Z</time>
      </trkpt>
      <trkpt lat="45.839020" lon="-0.626600">
        <time>2017-06-24T11:43:00Z</time>
      </trkpt>
      <trkpt lat="45.839310" lon="-0.626530">
        <time>2017-06-24T11:43:01Z</time>
      </trkpt>
      <trkpt lat="45.839610" lon="-0.626460">
        <time>2017-06-24T11:43:02Z</time>
      </trkpt>
      <trkpt lat="45.839940" lon="-0.626390">
        <time>2017-06-24T11:43:03Z</time>
      </trkpt>
      <trkpt lat="45.840230" lon="-0.626320">
        <time>2017-06-24T11:43:04Z</time>
      </trkpt>
      <trkpt lat="45.840530" lon="-0.626260">
        <time>2017-06-24T11:43:05Z</time>
      </trkpt>
      <trkpt lat="45.840850" lon="-0.626190">
        <time>2017-06-24T11:43:06Z</time>
      </trkpt>
      <trkpt lat="45.841140" lon="-0.626120">
        <time>2017-06-24T11:43:07Z</time>
      </trkpt>
      <trkpt lat="45.841460" lon="-0.626050">
        <time>2017-06-24T11:43:08Z</time>
      </trkpt>
      <trkpt lat="45.841740" lon="-0.625980">
        <time>2017-06-24T11:43:09Z</time>
      </trkpt>
      <trkpt lat="45.842040" lon="-0.625910">
        <time>2017-06-24T11:43:10Z</time>
      </trkpt>
      <trkpt lat="45.842370" lon="-0.625840">
        <time>2017-06-24T11:43:11Z</time>
      </trkpt>
      <trkpt lat="45.842660" lon="-0.625770">
        <time>2017-06-24T11:43:12Z</time>
      </trkpt>
      <trkpt lat="45.842970" lon="-0.625700">
        <time>2017-06-24T11:43:13Z</time>
      </trkpt>
      <trkpt lat="45.843270" lon="-0.625630">
        <time>2017-06-24T11:43:14Z</time>
      </trkpt>
      <trkpt lat="45.843570" lon="-0.625570">
        <time>2017-06-24T11:43:15Z</time>
      </trkpt>
      <trkpt lat="45.843890" lon="-0.625500">
        <time>2017-06-24T11:43:16Z</time>
      </trkpt>
      <trkpt lat="45.844180" lon="-0.625430">
        <time>2017-06-24T11:43:17Z</time>
      </trkpt>
      <trkpt lat="45.844490" lon="-0.625360">
        <time>2017-06-24T11:43:18Z</time>
      </trkpt>
      <trkpt lat="45.844830" lon="-0.625290">
        <time>2017-06-24T11:43:19Z</time>
      </trkpt>
      <trkpt lat="45.845120" lon="-0.625220">
        <time>2017-06-24T11:43:20Z</time>
      </trkpt>
      <trkpt lat="45.845440" lon="-0.625140">
        <time>2017-06-24T11:43:21Z</time>
      </trkpt>
      <trkpt lat="45.845790" lon="-0.625070">
        <time>2017-06-24T11:43:22Z</time>
      </trkpt>
      <trkpt lat="45.846090" lon="-0.624990">
        <time>2017-06-24T11:43:23Z</time>
      </trkpt>
      <trkpt lat="45.846440" lon="-0.624910">
        <time>2017-06-24T11:43:24Z</time>
      </trkpt>
      <trkpt lat="45.846740" lon="-0.624830">
        <time>2017-06-24T11:43:25Z</time>
      </trkpt>
      <trkpt lat="45.847070" lon="-0.624750">
        <time>2017-06-24T11:43:26Z</time>
      </trkpt>
      <trkpt lat="45.847410" lon="-0.624650">
        <time>2017-06-24T11:43:27Z</time>
      </trkpt>
      <trkpt lat="45.847710" lon="-0.624560">
        <time>2017-06-24T11:43:28Z</time>
      </trkpt>
      <trkpt lat="45.848050" lon="-0.624470">
        <time>2017-06-24T11:43:29Z</time>
      </trkpt>
      <trkpt lat="45.848380" lon="-0.624390">
        <time>2017-06-24T11:43:30Z</time>
      </trkpt>
      <trkpt lat="45.848720" lon="-0.624300">
        <time>2017-06-24T11:43:31Z</time>
      </trkpt>
      <trkpt lat="45.849060" lon="-0.624210">
        <time>2017-06-24T11:43:32Z</time>
      </trkpt>
      <trkpt lat="45.849370" lon="-0.624120">
        <time>2017-06-24T11:43:33Z</time>
      </trkpt>
      <trkpt lat="45.849690" lon="-0.624020">
        <time>2017-06-24T11:43:34Z</time>
      </trkpt>
      <trkpt lat="45.850040" lon="-0.623920">
        <time>2017-06-24T11:43:35Z</time>
      </trkpt>
      <trkpt lat="45.850350" lon="-0.623820">
        <time>2017-06-24T11:43:36Z</time>
      </trkpt>
      <trkpt lat="45.850670" lon="-0.623710">
        <time>2017-06-24T11:43:37Z</time>
      </trkpt>
      <trkpt lat="45.851010" lon="-0.623590">
        <time>2017-06-24T11:43:38Z</time>
      </trkpt>
      <trkpt lat="45.851310" lon="-0.623480">
        <time>2017-06-24T11:43:39Z</time>
      </trkpt>
      <trkpt lat="45.851660" lon="-0.623370">
        <time>2017-06-24T11:43:40Z</time>
      </trkpt>
      <trkpt lat="45.851960" lon="-0.623250">
        <time>2017-06-24T11:43:41Z</time>
      </trkpt>
      <trkpt lat="45.852280" lon="-0.623130">
        <time>2017-06-24T11:43:42Z</time>
      </trkpt>
      <trkpt lat="45.852610" lon="-0.623000">
        <time>2017-06-24T11:43:43Z</time>
      </trkpt>
      <trkpt lat="45.852910" lon="-0.622890">
        <time>2017-06-24T11:43:44Z</time>
      </trkpt>
      <trkpt lat="45.853230" lon="-0.622770">
        <time>2017-06-24T11:43:45Z</time>
      </trkpt>
      <trkpt lat="45.853550" lon="-0.622660">
        <time>2017-06-24T11:43:46Z</time>
      </trkpt>
      <trkpt lat="45.853870" lon="-0.622540">
        <time>2017-06-24T11:43:47Z</time>
      </trkpt>
      <trkpt lat="45.854210" lon="-0.622420">
        <time>2017-06-24T11:43:48Z</time>
      </trkpt>
      <trkpt lat="45.854500" lon="-0.622320">
        <time>2017-06-24T11:43:49Z</time>
      </trkpt>
      <trkpt lat="45.854820" lon="-0.622210">
        <time>2017-06-24T11:43:50Z</time>
      </trkpt>
      <trkpt lat="45.855150" lon="-0.622090">
        <time>2017-06-24T11:43:51Z</time>
      </trkpt>
      <trkpt lat="45.855440" lon="-0.621990">
        <time>2017-06-24T11:43:52Z</time>
      </trkpt>
      <trkpt lat="45.855750" lon="-0.621900">
        <time>2017-06-24T11:43:53Z</time>
      </trkpt>
      <trkpt lat="45.856070" lon="-0.621810">
        <time>2017-06-24T11:43:54Z</time>
      </trkpt>
      <trkpt lat="45.856370" lon="-0.621730">
        <time>2017-06-24T11:43:55Z</time>
      </trkpt>
      <trkpt lat="45.856700" lon="-0.621640">
        <time>2017-06-24T11:43:56Z</time>
      </trkpt>
      <trkpt lat="45.856990" lon="-0.621580">
        <time>2017-06-24T11:43:57Z</time>
      </trkpt>
      <trkpt lat="45.857300" lon="-0.621510">
        <time>2017-06-24T11:43:58Z</time>
      </trkpt>
      <trkpt lat="45.857630" lon="-0.621440">
        <time>2017-06-24T11:43:59Z</time>
      </trkpt>
      <trkpt lat="45.857920" lon="-0.621390">
        <time>2017-06-24T11:44:00Z</time>
      </trkpt>
      <trkpt lat="45.858230" lon="-0.621340">
        <time>2017-06-24T11:44:01Z</time>
      </trkpt>
      <trkpt lat="45.858550" lon="-0.621310">
        <time>2017-06-24T11:44:02Z</time>
      </trkpt>
      <trkpt lat="45.858850" lon="-0.621280">
        <time>2017-06-24T11:44:03Z</time>
      </trkpt>
      <trkpt lat="45.859180" lon="-0.621240">
        <time>2017-06-24T11:44:04Z</time>
      </trkpt>
      <trkpt lat="45.859480" lon="-0.621220">
        <time>2017-06-24T11:44:05Z</time>
      </trkpt>
      <trkpt lat="45.859790" lon="-0.621190">
        <time>2017-06-24T11:44:06Z</time>
      </trkpt>
      <trkpt lat="45.860120" lon="-0.621180">
        <time>2017-06-24T11:44:07Z</time>
      </trkpt>
      <trkpt lat="45.860410" lon="-0.621180">
        <time>2017-06-24T11:44:08Z</time>
      </trkpt>
      <trkpt lat="45.860730" lon="-0.621170">
        <time>2017-06-24T11:44:09Z</time>
      </trkpt>
      <trkpt lat="45.861060" lon="-0.621180">
        <time>2017-06-24T11:44:10Z</time>
      </trkpt>
      <trkpt lat="45.861350" lon="-0.621200">
        <time>2017-06-24T11:44:11Z</time>
      </trkpt>
      <trkpt lat="45.861690" lon="-0.621220">
        <time>2017-06-24T11:44:12Z</time>
      </trkpt>
      <trkpt lat="45.861980" lon="-0.621240">
        <time>2017-06-24T11:44:13Z</time>
      </trkpt>
      <trkpt lat="45.862300" lon="-0.621270">
        <time>2017-06-24T11:44:14Z</time>
      </trkpt>
      <trkpt lat="45.862630" lon="-0.621300">
        <time>2017-06-24T11:44:15Z</time>
      </trkpt>
      <trkpt lat="45.862920" lon="-0.621340">
        <time>2017-06-24T11:44:16Z</time>
      </trkpt>
      <trkpt lat="45.863230" lon="-0.621390">
        <time>2017-06-24T11:44:17Z</time>
      </trkpt>
      <trkpt lat="45.863540" lon="-0.621430">
        <time>2017-06-24T11:44:18Z</time>
      </trkpt>
      <trkpt lat="45.863850" lon="-0.621480">
        <time>2017-06-24T11:44:19Z</time>
      </trkpt>
      <trkpt lat="45.864180" lon="-0.621530">
        <time>2017-06-24T11:44:20Z</time>
      </trkpt>
      <trkpt lat="45.864470" lon="-0.621580">
        <time>2017-06-24T11:44:21Z</time>
      </trkpt>
      <trkpt lat="45.864770" lon="-0.621630">
        <time>2017-06-24T11:44:22Z</time>
      </trkpt>
      <trkpt lat="45.865100" lon="-0.621680">
        <time>2017-06-24T11:44:23Z</time>
      </trkpt>
      <trkpt lat="45.865380" lon="-0.621730">
        <time>2017-06-24T11:44:24Z</time>
      </trkpt>
      <trkpt lat="45.865690" lon="-0.621780">
        <time>2017-06-24T11:44:25Z</time>
      </trkpt>
      <trkpt lat="45.866010" lon="-0.621830">
        <time>2017-06-24T11:44:26Z</time>
      </trkpt>
      <trkpt lat="45.866290" lon="-0.621880">
        <time>2017-06-24T11:44:27Z</time>
      </trkpt>
      <trkpt lat="45.866610" lon="-0.621930">
        <time>2017-06-24T11:44:28Z</time>
      </trkpt>
      <trkpt lat="45.866890" lon="-0.621980">
        <time>2017-06-24T11:44:29Z</time>
      </trkpt>
      <trkpt lat="45.867180" lon="-0.622030">
        <time>2017-06-24T11:44:30Z</time>
      </trkpt>
      <trkpt lat="45.867500" lon="-0.622090">
        <time>2017-06-24T11:44:31Z</time>
      </trkpt>
      <trkpt lat="45.867780" lon="-0.622130">
        <time>2017-06-24T11:44:32Z</time>
      </trkpt>
      <trkpt lat="45.868080" lon="-0.622180">
        <time>2017-06-24T11:44:33Z</time>
      </trkpt>
      <trkpt lat="45.868370" lon="-0.622230">
        <time>2017-06-24T11:44:34Z</time>
      </trkpt>
      <trkpt lat="45.868670" lon="-0.622280">
        <time>2017-06-24T11:44:35Z</time>
      </trkpt>
      <trkpt lat="45.868980" lon="-0.622330">
        <time>2017-06-24T11:44:36Z</time>
      </trkpt>
      <trkpt lat="45.869250" lon="-0.622370">
        <time>2017-06-24T11:44:37Z</time>
      </trkpt>
      <trkpt lat="45.869560" lon="-0.622430">
        <time>2017-06-24T11:44:38Z</time>
      </trkpt>
      <trkpt lat="45.869880" lon="-0.622480">
        <time>2017-06-24T11:44:39Z</time>
      </trkpt>
      <trkpt lat="45.870160" lon="-0.622530">
        <time>2017-06-24T11:44:40Z</time>
      </trkpt>
      <trkpt lat="45.870460" lon="-0.622580">
        <time>2017-06-24T11:44:41Z</time>
      </trkpt>
      <trkpt lat="45.870780" lon="-0.622630">
        <time>2017-06-24T11:44:42Z</time>
      </trkpt>
      <trkpt lat="45.871070" lon="-0.622670">
        <time>2017-06-24T11:44:43Z</time>
      </trkpt>
      <trkpt lat="45.871390" lon="-0.622710">
        <time>2017-06-24T11:44:44Z</time>
      </trkpt>
      <trkpt lat="45.871670" lon="-0.622740">
        <time>2017-06-24T11:44:45Z</time>
      </trkpt>
      <trkpt lat="45.871970" lon="-0.622770">
        <time>2017-06-24T11:44:46Z</time>
      </trkpt>
      <trkpt lat="45.872290" lon="-0.622800">
        <time>2017-06-24T11:44:47Z</time>
      </trkpt>
      <trkpt lat="45.872580" lon="-0.622820">
        <time>2017-06-24T11:44:48Z</time>
      </trkpt>
      <trkpt lat="45.872880" lon="-0.622830">
        <time>2017-06-24T11:44:49Z</time>
      </trkpt>
      <trkpt lat="45.873190" lon="-0.622840">
        <time>2017-06-24T11:44:50Z</time>
      </trkpt>
      <trkpt lat="45.873500" lon="-0.622850">
        <time>2017-06-24T11:44:51Z</time>
      </trkpt>
      <trkpt lat="45.873830" lon="-0.622840">
        <time>2017-06-24T11:44:52Z</time>
      </trkpt>
      <trkpt lat="45.874120" lon="-0.622830">
        <time>2017-06-24T11:44:53Z</time>
      </trkpt>
      <trkpt lat="45.874430" lon="-0.622800">
        <time>2017-06-24T11:44:54Z</time>
      </trkpt>
      <trkpt lat="45.874760" lon="-0.622770">
        <time>2017-06-24T11:44:55Z</time>
      </trkpt>
      <trkpt lat="45.875040" lon="-0.622730">
        <time>2017-06-24T11:44:56Z</time>
      </trkpt>
      <trkpt lat="45.875340" lon="-0.622690">
        <time>2017-06-24T11:44:57Z</time>
      </trkpt>
      <trkpt lat="45.875660" lon="-0.622640">
        <time>2017-06-24T11:44:58Z</time>
      </trkpt>
      <trkpt lat="45.875950" lon="-0.622580">
        <time>2017-06-24T11:44:59Z</time>
      </trkpt>
      <trkpt lat="45.876270" lon="-0.622510">
        <time>2017-06-24T11:45:00Z</time>
      </trkpt>
      <trkpt lat="45.876550" lon="-0.622440">
        <time>2017-06-24T11:45:01Z</time>
      </trkpt>
      <trkpt lat="45.876850" lon="-0.622350">
        <time>2017-06-24T11:45:02Z</time>
      </trkpt>
      <trkpt lat="45.877170" lon="-0.622270">
        <time>2017-06-24T11:45:03Z</time>
      </trkpt>
      <trkpt lat="45.877450" lon="-0.622170">
        <time>2017-06-24T11:45:04Z</time>
      </trkpt>
      <trkpt lat="45.877740" lon="-0.622070">
        <time>2017-06-24T11:45:05Z</time>
      </trkpt>
      <trkpt lat="45.878040" lon="-0.621950">
        <time>2017-06-24T11:45:06Z</time>
      </trkpt>
      <trkpt lat="45.878340" lon="-0.621830">
        <time>2017-06-24T11:45:07Z</time>
      </trkpt>
      <trkpt lat="45.878650" lon="-0.621700">
        <time>2017-06-24T11:45:08Z</time>
      </trkpt>
      <trkpt lat="45.878930" lon="-0.621570">
        <time>2017-06-24T11:45:09Z</time>
      </trkpt>
      <trkpt lat="45.879220" lon="-0.621430">
        <time>2017-06-24T11:45:10Z</time>
      </trkpt>
      <trkpt lat="45.879540" lon="-0.621270">
        <time>2017-06-24T11:45:11Z</time>
      </trkpt>
      <trkpt lat="45.879820" lon="-0.621130">
        <time>2017-06-24T11:45:12Z</time>
      </trkpt>
      <trkpt lat="45.880120" lon="-0.620970">
        <time>2017-06-24T11:45:13Z</time>
      </trkpt>
      <trkpt lat="45.880430" lon="-0.620780">
        <time>2017-06-24T11:45:14Z</time>
      </trkpt>
      <trkpt lat="45.880700" lon="-0.620600">
        <time>2017-06-24T11:45:15Z</time>
      </trkpt>
      <trkpt lat="45.881010" lon="-0.620390">
        <time>2017-06-24T11:45:16Z</time>
      </trkpt>
      <trkpt lat="45.881270" lon="-0.620210">
        <time>2017-06-24T11:45:17Z</time>
      </trkpt>
      <trkpt lat="45.881560" lon="-0.620000">
        <time>2017-06-24T11:45:18Z</time>
      </trkpt>
      <trkpt lat="45.881860" lon="-0.619780">
        <time>2017-06-24T11:45:19Z</time>
      </trkpt>
      <trkpt lat="45.882120" lon="-0.619570">
        <time>2017-06-24T11:45:20Z</time>
      </trkpt>
      <trkpt lat="45.882400" lon="-0.619350">
        <time>2017-06-24T11:45:21Z</time>
      </trkpt>
      <trkpt lat="45.882670" lon="-0.619130">
        <time>2017-06-24T11:45:22Z</time>
      </trkpt>
      <trkpt lat="45.882950" lon="-0.618880">
        <time>2017-06-24T11:45:23Z</time>
      </trkpt>
      <trkpt lat="45.883240" lon="-0.618620">
        <time>2017-06-24T11:45:24Z</time>
      </trkpt>
      <trkpt lat="45.883490" lon="-0.618370">
        <time>2017-06-24T11:45:25Z</time>
      </trkpt>
      <trkpt lat="45.883760" lon="-0.618110">
        <time>2017-06-24T11:45:26Z</time>
      </trkpt>
      <trkpt lat="45.884030" lon="-0.617820">
        <time>2017-06-24T11:45:27Z</time>
      </trkpt>
      <trkpt lat="45.884270" lon="-0.617570">
        <time>2017-06-24T11:45:28Z</time>
      </trkpt>
      <trkpt lat="45.884530" lon="-0.617290">
        <time>2017-06-24T11:45:29Z</time>
      </trkpt>
      <trkpt lat="45.884790" lon="-0.616990">
        <time>2017-06-24T11:45:30Z</time>
      </trkpt>
      <trkpt lat="45.885020" lon="-0.616710">
        <time>2017-06-24T11:45:31Z</time>
      </trkpt>
      <trkpt lat="45.885280" lon="-0.616390">
        <time>2017-06-24T11:45:32Z</time>
      </trkpt>
      <trkpt lat="45.885500" lon="-0.616100">
        <time>2017-06-24T11:45:33Z</time>
      </trkpt>
      <trkpt lat="45.885730" lon="-0.615790">
        <time>2017-06-24T11:45:34Z</time>
      </trkpt>
      <trkpt lat="45.885970" lon="-0.615450">
        <time>2017-06-24T11:45:35Z</time>
      </trkpt>
      <trkpt lat="45.886180" lon="-0.615160">
        <time>2017-06-24T11:45:36Z</time>
      </trkpt>
      <trkpt lat="45.886400" lon="-0.614840">
        <time>2017-06-24T11:45:37Z</time>
      </trkpt>
      <trkpt lat="45.886620" lon="-0.614520">
        <time>2017-06-24T11:45:38Z</time>
      </trkpt>
      <trkpt lat="45.886830" lon="-0.614190">
        <time>2017-06-24T11:45:39Z</time>
      </trkpt>
      <trkpt lat="45.887070" lon="-0.613850">
        <time>2017-06-24T11:45:40Z</time>
      </trkpt>
      <trkpt lat="45.887270" lon="-0.613540">
        <time>2017-06-24T11:45:41Z</time>
      </trkpt>
      <trkpt lat="45.887480" lon="-0.613200">
        <time>2017-06-24T11:45:42Z</time>
      </trkpt>
      <trkpt lat="45.887710" lon="-0.612830">
        <time>2017-06-24T11:45:43Z</time>
      </trkpt>
      <trkpt lat="45.887910" lon="-0.612510">
        <time>2017-06-24T11:45:44Z</time>
      </trkpt>
      <trkpt lat="45.888130" lon="-0.612170">
        <time>2017-06-24T11:45:45Z</time>
      </trkpt>
      <trkpt lat="45.888350" lon="-0.611800">
        <time>2017-06-24T11:45:46Z</time>
      </trkpt>
      <trkpt lat="45.888550" lon="-0.611470">
        <time>2017-06-24T11:45:47Z</time>
      </trkpt>
      <trkpt lat="45.888780" lon="-0.611100">
        <time>2017-06-24T11:45:48Z</time>
      </trkpt>
      <trkpt lat="45.888970" lon="-0.610780">
        <time>2017-06-24T11:45:49Z</time>
      </trkpt>
      <trkpt lat="45.889190" lon="-0.610430">
        <time>2017-06-24T11:45:50Z</time>
      </trkpt>
      <trkpt lat="45.889420" lon="-0.610060">
        <time>2017-06-24T11:45:51Z</time>
      </trkpt>
      <trkpt lat="45.889620" lon="-0.609730">
        <time>2017-06-24T11:45:52Z</time>
      </trkpt>
      <trkpt lat="45.889840" lon="-0.609380">
        <time>2017-06-24T11:45:53Z</time>
      </trkpt>
      <trkpt lat="45.890070" lon="-0.609020">
        <time>2017-06-24T11:45:54Z</time>
      </trkpt>
      <trkpt lat="45.890300" lon="-0.608670">
        <time>2017-06-24T11:45:55Z</time>
      </trkpt>
      <trkpt lat="45.890540" lon="-0.608290">
        <time>2017-06-24T11:45:56Z</time>
      </trkpt>
      <trkpt lat="45.890750" lon="-0.607950">
        <time>2017-06-24T11:45:57Z</time>
      </trkpt>
      <trkpt lat="45.890980" lon="-0.607590">
        <time>2017-06-24T11:45:58Z</time>
      </trkpt>
      <trkpt lat="45.891220" lon="-0.607210">
        <time>2017-06-24T11:45:59Z</time>
      </trkpt>
      <trkpt lat="45.891420" lon="-0.606870">
        <time>2017-06-24T11:46:00Z</time>
      </trkpt>
      <trkpt lat="45.891640" lon="-0.606520">
        <time>2017-06-24T11:46:01Z</time>
      </trkpt>
      <trkpt lat="45.891870" lon="-0.606150">
        <time>2017-06-24T11:46:02Z</time>
      </trkpt>
      <trkpt lat="45.892080" lon="-0.605810">
        <time>2017-06-24T11:46:03Z</time>
      </trkpt>
      <trkpt lat="45.892310" lon="-0.605430">
        <time>2017-06-24T11:46:04Z</time>
      </trkpt>
      <trkpt lat="45.892520" lon="-0.605090">
        <time>2017-06-24T11:46:05Z</time>
      </trkpt>
      <trkpt lat="45.892740" lon="-0.604730">
        <time>2017-06-24T11:46:06Z</time>
      </trkpt>
      <trkpt lat="45.892980" lon="-0.604330">
        <time>2017-06-24T11:46:07Z</time>
      </trkpt>
      <trkpt lat="45.893190" lon="-0.603980">
        <time>2017-06-24T11:46:08Z</time>
      </trkpt>
      <trkpt lat="45.893410" lon="-0.603610">
        <time>2017-06-24T11:46:09Z</time>
      </trkpt>
      <trkpt lat="45.893630" lon="-0.603240">
        <time>2017-06-24T11:46:10Z</time>
      </trkpt>
      <trkpt lat="45.893850" lon="-0.602870">
        <time>2017-06-24T11:46:11Z</time>
      </trkpt>
      <trkpt lat="45.894090" lon="-0.602470">
        <time>2017-06-24T11:46:12Z</time>
      </trkpt>
      <trkpt lat="45.894290" lon="-0.602130">
        <time>2017-06-24T11:46:13Z</time>
      </trkpt>
      <trkpt lat="45.894520" lon="-0.601780">
        <time>2017-06-24T11:46:14Z</time>
      </trkpt>
      <trkpt lat="45.894750" lon="-0.601400">
        <time>2017-06-24T11:46:15Z</time>
      </trkpt>
      <trkpt lat="45.894960" lon="-0.601060">
        <time>2017-06-24T11:46:16Z</time>
      </trkpt>
      <trkpt lat="45.895180" lon="-0.600710">
        <time>2017-06-24T11:46:17Z</time>
      </trkpt>
      <trkpt lat="45.895410" lon="-0.600330">
        <time>2017-06-24T11:46:18Z</time>
      </trkpt>
      <trkpt lat="45.895620" lon="-0.600000">
        <time>2017-06-24T11:46:19Z</time>
      </trkpt>
      <trkpt lat="45.895850" lon="-0.599620">
        <time>2017-06-24T11:46:20Z</time>
      </trkpt>
      <trkpt lat="45.896050" lon="-0.599290">
        <time>2017-06-24T11:46:21Z</time>
      </trkpt>
      <trkpt lat="45.896260" lon="-0.598930">
        <time>2017-06-24T11:46:22Z</time>
      </trkpt>
      <trkpt lat="45.896490" lon="-0.598560">
        <time>2017-06-24T11:46:23Z</time>
      </trkpt>
      <trkpt lat="45.896690" lon="-0.598230">
        <time>2017-06-24T11:46:24Z</time>
      </trkpt>
      <trkpt lat="45.896910" lon="-0.597880">
        <time>2017-06-24T11:46:25Z</time>
      </trkpt>
      <trkpt lat="45.897120" lon="-0.597540">
        <time>2017-06-24T11:46:26Z</time>
      </trkpt>
      <trkpt lat="45.897340" lon="-0.597190">
        <time>2017-06-24T11:46:27Z</time>
      </trkpt>
      <trkpt lat="45.897570" lon="-0.596820">
        <time>2017-06-24T11:46:28Z</time>
      </trkpt>
      <trkpt lat="45.897770" lon="-0.596500">
        <time>2017-06-24T11:46:29Z</time>
      </trkpt>
      <trkpt lat="45.897980" lon="-0.596150">
        <time>2017-06-24T11:46:30Z</time>
      </trkpt>
      <trkpt lat="45.898220" lon="-0.595780">
        <time>2017-06-24T11:46:31Z</time>
      </trkpt>
      <trkpt lat="45.898420" lon="-0.595450">
        <time>2017-06-24T11:46:32Z</time>
      </trkpt>
      <trkpt lat="45.898650" lon="-0.595100">
        <time>2017-06-24T11:46:33Z</time>
      </trkpt>
      <trkpt lat="45.898880" lon="-0.594730">
        <time>2017-06-24T11:46:34Z</time>
      </trkpt>
      <trkpt lat="45.899090" lon="-0.594410">
        <time>2017-06-24T11:46:35Z</time>
      </trkpt>
      <trkpt lat="45.899330" lon="-0.594060">
        <time>2017-06-24T11:46:36Z</time>
      </trkpt>
      <trkpt lat="45.899540" lon="-0.593750">
        <time>2017-06-24T11:46:37Z</time>
      </trkpt>
      <trkpt lat="45.899770" lon="-0.593420">
        <time>2017-06-24T11:46:38Z</time>
      </trkpt>
      <trkpt lat="45.900010" lon="-0.593070">
        <time>2017-06-24T11:46:39Z</time>
      </trkpt>
      <trkpt lat="45.900220" lon="-0.592780">
        <time>2017-06-24T11:46:40Z</time>
      </trkpt>
      <trkpt lat="45.900460" lon="-0.592470">
        <time>2017-06-24T11:46:41Z</time>
      </trkpt>
      <trkpt lat="45.900700" lon="-0.592160">
        <time>2017-06-24T11:46:42Z</time>
      </trkpt>
      <trkpt lat="45.900940" lon="-0.591850">
        <time>2017-06-24T11:46:43Z</time>
      </trkpt>
      <trkpt lat="45.901200" lon="-0.591540">
        <time>2017-06-24T11:46:44Z</time>
      </trkpt>
      <trkpt lat="45.901430" lon="-0.591260">
        <time>2017-06-24T11:46:45Z</time>
      </trkpt>
      <trkpt lat="45.901680" lon="-0.590960">
        <time>2017-06-24T11:46:46Z</time>
      </trkpt>
      <trkpt lat="45.901940" lon="-0.590650">
        <time>2017-06-24T11:46:47Z</time>
      </trkpt>
      <trkpt lat="45.902180" lon="-0.590390">
        <time>2017-06-24T11:46:48Z</time>
      </trkpt>
      <trkpt lat="45.902430" lon="-0.590110">
        <time>2017-06-24T11:46:49Z</time>
      </trkpt>
      <trkpt lat="45.902700" lon="-0.589820">
        <time>2017-06-24T11:46:50Z</time>
      </trkpt>
      <trkpt lat="45.902940" lon="-0.589580">
        <time>2017-06-24T11:46:51Z</time>
      </trkpt>
      <trkpt lat="45.903220" lon="-0.589300">
        <time>2017-06-24T11:46:52Z</time>
      </trkpt>
      <trkpt lat="45.903460" lon="-0.589060">
        <time>2017-06-24T11:46:53Z</time>
      </trkpt>
      <trkpt lat="45.903730" lon="-0.588810">
        <time>2017-06-24T11:46:54Z</time>
      </trkpt>
      <trkpt lat="45.904010" lon="-0.588550">
        <time>2017-06-24T11:46:55Z</time>
      </trkpt>
      <trkpt lat="45.904260" lon="-0.588320">
        <time>2017-06-24T11:46:56Z</time>
      </trkpt>
      <trkpt lat="45.904520" lon="-0.588090">
        <time>2017-06-24T11:46:57Z</time>
      </trkpt>
      <trkpt lat="45.904800" lon="-0.587870">
        <time>2017-06-24T11:46:58Z</time>
      </trkpt>
      <trkpt lat="45.905070" lon="-0.587650">
        <time>2017-06-24T11:46:59Z</time>
      </trkpt>
      <trkpt lat="45.905360" lon="-0.587420">
        <time>2017-06-24T11:47:00Z</time>
      </trkpt>
      <trkpt lat="45.905620" lon="-0.587230">
        <time>2017-06-24T11:47:01Z</time>
      </trkpt>
      <trkpt lat="45.905890" lon="-0.587030">
        <time>2017-06-24T11:47:02Z</time>
      </trkpt>
      <trkpt lat="45.906180" lon="-0.586810">
        <time>2017-06-24T11:47:03Z</time>
      </trkpt>
      <trkpt lat="45.906430" lon="-0.586630">
        <time>2017-06-24T11:47:04Z</time>
      </trkpt>
      <trkpt lat="45.906690" lon="-0.586430">
        <time>2017-06-24T11:47:05Z</time>
      </trkpt>
      <trkpt lat="45.906980" lon="-0.586240">
        <time>2017-06-24T11:47:06Z</time>
      </trkpt>
      <trkpt lat="45.907240" lon="-0.586080">
        <time>2017-06-24T11:47:07Z</time>
      </trkpt>
      <trkpt lat="45.907540" lon="-0.585890">
        <time>2017-06-24T11:47:08Z</time>
      </trkpt>
      <trkpt lat="45.907790" lon="-0.585730">
        <time>2017-06-24T11:47:09Z</time>
      </trkpt>
      <trkpt lat="45.908070" lon="-0.585570">
        <time>2017-06-24T11:47:10Z</time>
      </trkpt>
      <trkpt lat="45.908360" lon="-0.585400">
        <time>2017-06-24T11:47:11Z</time>
      </trkpt>
      <trkpt lat="45.908630" lon="-0.585270">
        <time>2017-06-24T11:47:12Z</time>
      </trkpt>
      <trkpt lat="45.908910" lon="-0.585130">
        <time>2017-06-24T11:47:13Z</time>
      </trkpt>
      <trkpt lat="45.909180" lon="-0.584990">
        <time>2017-06-24T11:47:14Z</time>
      </trkpt>
      <trkpt lat="45.909460" lon="-0.584860">
        <time>2017-06-24T11:47:15Z</time>
      </trkpt>
      <trkpt lat="45.909750" lon="-0.584720">
        <time>2017-06-24T11:47:16Z</time>
      </trkpt>
      <trkpt lat="45.910010" lon="-0.584610">
        <time>2017-06-24T11:47:17Z</time>
      </trkpt>
      <trkpt lat="45.910270" lon="-0.584500">
        <time>2017-06-24T11:47:18Z</time>
      </trkpt>
      <trkpt lat="45.910560" lon="-0.584380">
        <time>2017-06-24T11:47:19Z</time>
      </trkpt>
      <trkpt lat="45.910810" lon="-0.584280">
        <time>2017-06-24T11:47:20Z</time>
      </trkpt>
      <trkpt lat="45.911080" lon="-0.584190">
        <time>2017-06-24T11:47:21Z</time>
      </trkpt>
      <trkpt lat="45.911370" lon="-0.584100">
        <time>2017-06-24T11:47:22Z</time>
      </trkpt>
      <trkpt lat="45.911620" lon="-0.584020">
        <time>2017-06-24T11:47:23Z</time>
      </trkpt>
      <trkpt lat="45.911910" lon="-0.583930">
        <time>2017-06-24T11:47:24Z</time>
      </trkpt>
      <trkpt lat="45.912160" lon="-0.583840">
        <time>2017-06-24T11:47:25Z</time>
      </trkpt>
      <trkpt lat="45.912440" lon="-0.583760">
        <time>2017-06-24T11:47:26Z</time>
      </trkpt>
      <trkpt lat="45.912740" lon="-0.583670">
        <time>2017-06-24T11:47:27Z</time>
      </trkpt>
      <trkpt lat="45.913010" lon="-0.583590">
        <time>2017-06-24T11:47:28Z</time>
      </trkpt>
      <trkpt lat="45.913310" lon="-0.583510">
        <time>2017-06-24T11:47:29Z</time>
      </trkpt>
      <trkpt lat="45.913610" lon="-0.583420">
        <time>2017-06-24T11:47:30Z</time>
      </trkpt>
      <trkpt lat="45.913910" lon="-0.583340">
        <time>2017-06-24T11:47:31Z</time>
      </trkpt>
      <trkpt lat="45.914230" lon="-0.583260">
        <time>2017-06-24T11:47:32Z</time>
      </trkpt>
      <trkpt lat="45.914520" lon="-0.583190">
        <time>2017-06-24T11:47:33Z</time>
      </trkpt>
      <trkpt lat="45.914820" lon="-0.583110">
        <time>2017-06-24T11:47:34Z</time>
      </trkpt>
      <trkpt lat="45.915150" lon="-0.583030">
        <time>2017-06-24T11:47:35Z</time>
      </trkpt>
      <trkpt lat="45.915440" lon="-0.582960">
        <time>2017-06-24T11:47:36Z</time>
      </trkpt>
      <trkpt lat="45.915750" lon="-0.582880">
        <time>2017-06-24T11:47:37Z</time>
      </trkpt>
      <trkpt lat="45.916080" lon="-0.582790">
        <time>2017-06-24T11:47:38Z</time>
      </trkpt>
      <trkpt lat="45.916370" lon="-0.582720">
        <time>2017-06-24T11:47:39Z</time>
      </trkpt>
      <trkpt lat="45.916700" lon="-0.582630">
        <time>2017-06-24T11:47:40Z</time>
      </trkpt>
      <trkpt lat="45.916990" lon="-0.582550">
        <time>2017-06-24T11:47:41Z</time>
      </trkpt>
      <trkpt lat="45.917300" lon="-0.582480">
        <time>2017-06-24T11:47:42Z</time>
      </trkpt>
      <trkpt lat="45.917630" lon="-0.582390">
        <time>2017-06-24T11:47:43Z</time>
      </trkpt>
      <trkpt lat="45.917920" lon="-0.582290">
        <time>2017-06-24T11:47:44Z</time>
      </trkpt>
      <trkpt lat="45.918230" lon="-0.582190">
        <time>2017-06-24T11:47:45Z</time>
      </trkpt>
      <trkpt lat="45.918540" lon="-0.582100">
        <time>2017-06-24T11:47:46Z</time>
      </trkpt>
      <trkpt lat="45.918850" lon="-0.581990">
        <time>2017-06-24T11:47:47Z</time>
      </trkpt>
      <trkpt lat="45.919170" lon="-0.581880">
        <time>2017-06-24T11:47:48Z</time>
      </trkpt>
      <trkpt lat="45.919460" lon="-0.581770">
        <time>2017-06-24T11:47:49Z</time>
      </trkpt>
      <trkpt lat="45.919770" lon="-0.581660">
        <time>2017-06-24T11:47:50Z</time>
      </trkpt>
      <trkpt lat="45.920090" lon="-0.581530">
        <time>2017-06-24T11:47:51Z</time>
      </trkpt>
      <trkpt lat="45.920370" lon="-0.581410">
        <time>2017-06-24T11:47:52Z</time>
      </trkpt>
      <trkpt lat="45.920680" lon="-0.581270">
        <time>2017-06-24T11:47:53Z</time>
      </trkpt>
      <trkpt lat="45.921000" lon="-0.581120">
        <time>2017-06-24T11:47:54Z</time>
      </trkpt>
      <trkpt lat="45.921290" lon="-0.580970">
        <time>2017-06-24T11:47:55Z</time>
      </trkpt>
      <trkpt lat="45.921610" lon="-0.580790">
        <time>2017-06-24T11:47:56Z</time>
      </trkpt>
      <trkpt lat="45.921900" lon="-0.580640">
        <time>2017-06-24T11:47:57Z</time>
      </trkpt>
      <trkpt lat="45.922190" lon="-0.580460">
        <time>2017-06-24T11:47:58Z</time>
      </trkpt>
      <trkpt lat="45.922510" lon="-0.580260">
        <time>2017-06-24T11:47:59Z</time>
      </trkpt>
      <trkpt lat="45.922780" lon="-0.580060">
        <time>2017-06-24T11:48:00Z</time>
      </trkpt>
      <trkpt lat="45.923070" lon="-0.579850">
        <time>2017-06-24T11:48:01Z</time>
      </trkpt>
      <trkpt lat="45.923360" lon="-0.579640">
        <time>2017-06-24T11:48:02Z</time>
      </trkpt>
      <trkpt lat="45.923650" lon="-0.579420">
        <time>2017-06-24T11:48:03Z</time>
      </trkpt>
      <trkpt lat="45.923950" lon="-0.579180">
        <time>2017-06-24T11:48:04Z</time>
      </trkpt>
      <trkpt lat="45.924210" lon="-0.578960">
        <time>2017-06-24T11:48:05Z</time>
      </trkpt>
      <trkpt lat="45.924490" lon="-0.578710">
        <time>2017-06-24T11:48:06Z</time>
      </trkpt>
      <trkpt lat="45.924780" lon="-0.578440">
        <time>2017-06-24T11:48:07Z</time>
      </trkpt>
      <trkpt lat="45.925040" lon="-0.578200">
        <time>2017-06-24T11:48:08Z</time>
      </trkpt>
      <trkpt lat="45.925310" lon="-0.577940">
        <time>2017-06-24T11:48:09Z</time>
      </trkpt>
      <trkpt lat="45.925600" lon="-0.577640">
        <time>2017-06-24T11:48:10Z</time>
      </trkpt>
      <trkpt lat="45.925850" lon="-0.577380">
        <time>2017-06-24T11:48:11Z</time>
      </trkpt>
      <trkpt lat="45.926130" lon="-0.577080">
        <time>2017-06-24T11:48:12Z</time>
      </trkpt>
      <trkpt lat="45.926370" lon="-0.576800">
        <time>2017-06-24T11:48:13Z</time>
      </trkpt>
      <trkpt lat="45.926630" lon="-0.576500">
        <time>2017-06-24T11:48:14Z</time>
      </trkpt>
      <trkpt lat="45.926900" lon="-0.576170">
        <time>2017-06-24T11:48:15Z</time>
      </trkpt>
      <trkpt lat="45.927130" lon="-0.575870">
        <time>2017-06-24T11:48:16Z</time>
      </trkpt>
      <trkpt lat="45.927370" lon="-0.575540">
        <time>2017-06-24T11:48:17Z</time>
      </trkpt>
      <trkpt lat="45.927620" lon="-0.575200">
        <time>2017-06-24T11:48:18Z</time>
      </trkpt>
      <trkpt lat="45.927850" lon="-0.574860">
        <time>2017-06-24T11:48:19Z</time>
      </trkpt>
      <trkpt lat="45.928090" lon="-0.574480">
        <time>2017-06-24T11:48:20Z</time>
      </trkpt>
      <trkpt lat="45.928300" lon="-0.574160">
        <time>2017-06-24T11:48:21Z</time>
      </trkpt>
      <trkpt lat="45.928530" lon="-0.573810">
        <time>2017-06-24T11:48:22Z</time>
      </trkpt>
      <trkpt lat="45.928760" lon="-0.573430">
        <time>2017-06-24T11:48:23Z</time>
      </trkpt>
      <trkpt lat="45.928960" lon="-0.573090">
        <time>2017-06-24T11:48:24Z</time>
      </trkpt>
      <trkpt lat="45.929170" lon="-0.572730">
        <time>2017-06-24T11:48:25Z</time>
      </trkpt>
      <trkpt lat="45.929390" lon="-0.572350">
        <time>2017-06-24T11:48:26Z</time>
      </trkpt>
      <trkpt lat="45.929590" lon="-0.572000">
        <time>2017-06-24T11:48:27Z</time>
      </trkpt>
      <trkpt lat="45.929810" lon="-0.571610">
        <time>2017-06-24T11:48:28Z</time>
      </trkpt>
      <trkpt lat="45.930000" lon="-0.571260">
        <time>2017-06-24T11:48:29Z</time>
      </trkpt>
      <trkpt lat="45.930200" lon="-0.570890">
        <time>2017-06-24T11:48:30Z</time>
      </trkpt>
      <trkpt lat="45.930420" lon="-0.570500">
        <time>2017-06-24T11:48:31Z</time>
      </trkpt>
      <trkpt lat="45.930610" lon="-0.570150">
        <time>2017-06-24T11:48:32Z</time>
      </trkpt>
      <trkpt lat="45.930830" lon="-0.569770">
        <time>2017-06-24T11:48:33Z</time>
      </trkpt>
      <trkpt lat="45.931040" lon="-0.569390">
        <time>2017-06-24T11:48:34Z</time>
      </trkpt>
      <trkpt lat="45.931260" lon="-0.569000">
        <time>2017-06-24T11:48:35Z</time>
      </trkpt>
      <trkpt lat="45.931490" lon="-0.568590">
        <time>2017-06-24T11:48:36Z</time>
      </trkpt>
      <trkpt lat="45.931690" lon="-0.568230">
        <time>2017-06-24T11:48:37Z</time>
      </trkpt>
      <trkpt lat="45.931920" lon="-0.567840">
        <time>2017-06-24T11:48:38Z</time>
      </trkpt>
      <trkpt lat="45.932150" lon="-0.567440">
        <time>2017-06-24T11:48:39Z</time>
      </trkpt>
      <trkpt lat="45.932360" lon="-0.567090">
        <time>2017-06-24T11:48:40Z</time>
      </trkpt>
      <trkpt lat="45.932580" lon="-0.566720">
        <time>2017-06-24T11:48:41Z</time>
      </trkpt>
      <trkpt lat="45.932820" lon="-0.566330">
        <time>2017-06-24T11:48:42Z</time>
      </trkpt>
      <trkpt lat="45.933030" lon="-0.565990">
        <time>2017-06-24T11:48:43Z</time>
      </trkpt>
      <trkpt lat="45.933280" lon="-0.565610">
        <time>2017-06-24T11:48:44Z</time>
      </trkpt>
      <trkpt lat="45.933500" lon="-0.565280">
        <time>2017-06-24T11:48:45Z</time>
      </trkpt>
      <trkpt lat="45.933740" lon="-0.564930">
        <time>2017-06-24T11:48:46Z</time>
      </trkpt>
      <trkpt lat="45.933990" lon="-0.564560">
        <time>2017-06-24T11:48:47Z</time>
      </trkpt>
      <trkpt lat="45.934220" lon="-0.564260">
        <time>2017-06-24T11:48:48Z</time>
      </trkpt>
      <trkpt lat="45.934470" lon="-0.563940">
        <time>2017-06-24T11:48:49Z</time>
      </trkpt>
      <trkpt lat="45.934720" lon="-0.563630">
        <time>2017-06-24T11:48:50Z</time>
      </trkpt>
      <trkpt lat="45.934970" lon="-0.563330">
        <time>2017-06-24T11:48:51Z</time>
      </trkpt>
      <trkpt lat="45.935250" lon="-0.563030">
        <time>2017-06-24T11:48:52Z</time>
      </trkpt>
      <trkpt lat="45.935490" lon="-0.562760">
        <time>2017-06-24T11:48:53Z</time>
      </trkpt>
      <trkpt lat="45.935750" lon="-0.562490">
        <time>2017-06-24T11:48:54Z</time>
      </trkpt>
      <trkpt lat="45.936020" lon="-0.562200">
        <time>2017-06-24T11:48:55Z</time>
      </trkpt>
      <trkpt lat="45.936270" lon="-0.561950">
        <time>2017-06-24T11:48:56Z</time>
      </trkpt>
      <trkpt lat="45.936530" lon="-0.561700">
        <time>2017-06-24T11:48:57Z</time>
      </trkpt>
      <trkpt lat="45.936810" lon="-0.561430">
        <time>2017-06-24T11:48:58Z</time>
      </trkpt>
      <trkpt lat="45.937060" lon="-0.561200">
        <time>2017-06-24T11:48:59Z</time>
      </trkpt>
      <trkpt lat="45.937340" lon="-0.560950">
        <time>2017-06-24T11:49:00Z</time>
      </trkpt>
      <trkpt lat="45.937590" lon="-0.560750">
        <time>2017-06-24T11:49:01Z</time>
      </trkpt>
      <trkpt lat="45.937870" lon="-0.560530">
        <time>2017-06-24T11:49:02Z</time>
      </trkpt>
      <trkpt lat="45.938170" lon="-0.560310">
        <time>2017-06-24T11:49:03Z</time>
      </trkpt>
      <trkpt lat="45.938430" lon="-0.560120">
        <time>2017-06-24T11:49:04Z</time>
      </trkpt>
      <trkpt lat="45.938720" lon="-0.559920">
        <time>2017-06-24T11:49:05Z</time>
      </trkpt>
      <trkpt lat="45.939000" lon="-0.559740">
        <time>2017-06-24T11:49:06Z</time>
      </trkpt>
      <trkpt lat="45.939280" lon="-0.559560">
        <time>2017-06-24T11:49:07Z</time>
      </trkpt>
      <trkpt lat="45.939570" lon="-0.559390">
        <time>2017-06-24T11:49:08Z</time>
      </trkpt>
      <trkpt lat="45.939820" lon="-0.559250">
        <time>2017-06-24T11:49:09Z</time>
      </trkpt>
      <trkpt lat="45.940090" lon="-0.559100">
        <time>2017-06-24T11:49:10Z</time>
      </trkpt>
      <trkpt lat="45.940380" lon="-0.558960">
        <time>2017-06-24T11:49:11Z</time>
      </trkpt>
      <trkpt lat="45.940620" lon="-0.558830">
        <time>2017-06-24T11:49:12Z</time>
      </trkpt>
      <trkpt lat="45.940870" lon="-0.558720">
        <time>2017-06-24T11:49:13Z</time>
      </trkpt>
      <trkpt lat="45.941150" lon="-0.558590">
        <time>2017-06-24T11:49:14Z</time>
      </trkpt>
      <trkpt lat="45.941390" lon="-0.558480">
        <time>2017-06-24T11:49:15Z</time>
      </trkpt>
      <trkpt lat="45.941680" lon="-0.558370">
        <time>2017-06-24T11:49:16Z</time>
      </trkpt>
      <trkpt lat="45.941950" lon="-0.558290">
        <time>2017-06-24T11:49:17Z</time>
      </trkpt>
      <trkpt lat="45.942250" lon="-0.558190">
        <time>2017-06-24T11:49:18Z</time>
      </trkpt>
      <trkpt lat="45.942580" lon="-0.558080">
        <time>2017-06-24T11:49:19Z</time>
      </trkpt>
      <trkpt lat="45.942870" lon="-0.557980">
        <time>2017-06-24T11:49:20Z</time>
      </trkpt>
      <trkpt lat="45.943190" lon="-0.557870">
        <time>2017-06-24T11:49:21Z</time>
      </trkpt>
      <trkpt lat="45.943500" lon="-0.557760">
        <time>2017-06-24T11:49:22Z</time>
      </trkpt>
      <trkpt lat="45.943820" lon="-0.557640">
        <time>2017-06-24T11:49:23Z</time>
      </trkpt>
      <trkpt lat="45.944160" lon="-0.557520">
        <time>2017-06-24T11:49:24Z</time>
      </trkpt>
      <trkpt lat="45.944460" lon="-0.557420">
        <time>2017-06-24T11:49:25Z</time>
      </trkpt>
      <trkpt lat="45.944780" lon="-0.557330">
        <time>2017-06-24T11:49:26Z</time>
      </trkpt>
      <trkpt lat="45.945110" lon="-0.557230">
        <time>2017-06-24T11:49:27Z</time>
      </trkpt>
      <trkpt lat="45.945400" lon="-0.557160">
        <time>2017-06-24T11:49:28Z</time>
      </trkpt>
      <trkpt lat="45.945710" lon="-0.557070">
        <time>2017-06-24T11:49:29Z</time>
      </trkpt>
      <trkpt lat="45.946030" lon="-0.556970">
        <time>2017-06-24T11:49:30Z</time>
      </trkpt>
      <trkpt lat="45.946320" lon="-0.556890">
        <time>2017-06-24T11:49:31Z</time>
      </trkpt>
      <trkpt lat="45.946650" lon="-0.556790">
        <time>2017-06-24T11:49:32Z</time>
      </trkpt>
      <trkpt lat="45.946930" lon="-0.556710">
        <time>2017-06-24T11:49:33Z</time>
      </trkpt>
      <trkpt lat="45.947230" lon="-0.556620">
        <time>2017-06-24T11:49:34Z</time>
      </trkpt>
      <trkpt lat="45.947560" lon="-0.556520">
        <time>2017-06-24T11:49:35Z</time>
      </trkpt>
      <trkpt lat="45.947850" lon="-0.556430">
        <time>2017-06-24T11:49:36Z</time>
      </trkpt>
      <trkpt lat="45.948160" lon="-0.556340">
        <time>2017-06-24T11:49:37Z</time>
      </trkpt>
      <trkpt lat="45.948470" lon="-0.556250">
        <time>2017-06-24T11:49:38Z</time>
      </trkpt>
      <trkpt lat="45.948780" lon="-0.556160">
        <time>2017-06-24T11:49:39Z</time>
      </trkpt>
      <trkpt lat="45.949110" lon="-0.556060">
        <time>2017-06-24T11:49:40Z</time>
      </trkpt>
      <trkpt lat="45.949400" lon="-0.555970">
        <time>2017-06-24T11:49:41Z</time>
      </trkpt>
      <trkpt lat="45.949720" lon="-0.555890">
        <time>2017-06-24T11:49:42Z</time>
      </trkpt>
      <trkpt lat="45.950050" lon="-0.555790">
        <time>2017-06-24T11:49:43Z</time>
      </trkpt>
      <trkpt lat="45.950350" lon="-0.555710">
        <time>2017-06-24T11:49:44Z</time>
      </trkpt>
      <trkpt lat="45.950660" lon="-0.555610">
        <time>2017-06-24T11:49:45Z</time>
      </trkpt>
      <trkpt lat="45.950990" lon="-0.555510">
        <time>2017-06-24T11:49:46Z</time>
      </trkpt>
      <trkpt lat="45.951280" lon="-0.555420">
        <time>2017-06-24T11:49:47Z</time>
      </trkpt>
      <trkpt lat="45.951610" lon="-0.555320">
        <time>2017-06-24T11:49:48Z</time>
      </trkpt>
      <trkpt lat="45.951890" lon="-0.555220">
        <time>2017-06-24T11:49:49Z</time>
      </trkpt>
      <trkpt lat="45.952200" lon="-0.555120">
        <time>2017-06-24T11:49:50Z</time>
      </trkpt>
      <trkpt lat="45.952540" lon="-0.555020">
        <time>2017-06-24T11:49:51Z</time>
      </trkpt>
      <trkpt lat="45.952820" lon="-0.554930">
        <time>2017-06-24T11:49:52Z</time>
      </trkpt>
      <trkpt lat="45.953130" lon="-0.554840">
        <time>2017-06-24T11:49:53Z</time>
      </trkpt>
      <trkpt lat="45.953430" lon="-0.554740">
        <time>2017-06-24T11:49:54Z</time>
      </trkpt>
      <trkpt lat="45.953730" lon="-0.554640">
        <time>2017-06-24T11:49:55Z</time>
      </trkpt>
      <trkpt lat="45.954050" lon="-0.554530">
        <time>2017-06-24T11:49:56Z</time>
      </trkpt>
      <trkpt lat="45.954340" lon="-0.554430">
        <time>2017-06-24T11:49:57Z</time>
      </trkpt>
      <trkpt lat="45.954630" lon="-0.554330">
        <time>2017-06-24T11:49:58Z</time>
      </trkpt>
      <trkpt lat="45.954950" lon="-0.554220">
        <time>2017-06-24T11:49:59Z</time>
      </trkpt>
      <trkpt lat="45.955230" lon="-0.554120">
        <time>2017-06-24T11:50:00Z</time>
      </trkpt>
      <trkpt lat="45.955530" lon="-0.554020">
        <time>2017-06-24T11:50:01Z</time>
      </trkpt>
      <trkpt lat="45.955850" lon="-0.553910">
        <time>2017-06-24T11:50:02Z</time>
      </trkpt>
      <trkpt lat="45.956130" lon="-0.553810">
        <time>2017-06-24T11:50:03Z</time>
      </trkpt>
      <trkpt lat="45.956450" lon="-0.553690">
        <time>2017-06-24T11:50:04Z</time>
      </trkpt>
      <trkpt lat="45.956730" lon="-0.553590">
        <time>2017-06-24T11:50:05Z</time>
      </trkpt>
      <trkpt lat="45.957020" lon="-0.553460">
        <time>2017-06-24T11:50:06Z</time>
      </trkpt>
      <trkpt lat="45.957340" lon="-0.553340">
        <time>2017-06-24T11:50:07Z</time>
      </trkpt>
      <trkpt lat="45.957620" lon="-0.553230">
        <time>2017-06-24T11:50:08Z</time>
      </trkpt>
      <trkpt lat="45.957920" lon="-0.553120">
        <time>2017-06-24T11:50:09Z</time>
      </trkpt>
      <trkpt lat="45.958220" lon="-0.553010">
        <time>2017-06-24T11:50:10Z</time>
      </trkpt>
      <trkpt lat="45.958530" lon="-0.552900">
        <time>2017-06-24T11:50:11Z</time>
      </trkpt>
      <trkpt lat="45.958850" lon="-0.552770">
        <time>2017-06-24T11:50:12Z</time>
      </trkpt>
      <trkpt lat="45.959140" lon="-0.552670">
        <time>2017-06-24T11:50:13Z</time>
      </trkpt>
      <trkpt lat="45.959450" lon="-0.552550">
        <time>2017-06-24T11:50:14Z</time>
      </trkpt>
      <trkpt lat="45.959770" lon="-0.552430">
        <time>2017-06-24T11:50:15Z</time>
      </trkpt>
      <trkpt lat="45.960060" lon="-0.552330">
        <time>2017-06-24T11:50:16Z</time>
      </trkpt>
      <trkpt lat="45.960360" lon="-0.552220">
        <time>2017-06-24T11:50:17Z</time>
      </trkpt>
      <trkpt lat="45.960680" lon="-0.552110">
        <time>2017-06-24T11:50:18Z</time>
      </trkpt>
      <trkpt lat="45.960960" lon="-0.552000">
        <time>2017-06-24T11:50:19Z</time>
      </trkpt>
      <trkpt lat="45.961290" lon="-0.551880">
        <time>2017-06-24T11:50:20Z</time>
      </trkpt>
      <trkpt lat="45.961590" lon="-0.551770">
        <time>2017-06-24T11:50:21Z</time>
      </trkpt>
      <trkpt lat="45.961900" lon="-0.551670">
        <time>2017-06-24T11:50:22Z</time>
      </trkpt>
      <trkpt lat="45.962240" lon="-0.551550">
        <time>2017-06-24T11:50:23Z</time>
      </trkpt>
      <trkpt lat="45.962530" lon="-0.551450">
        <time>2017-06-24T11:50:24Z</time>
      </trkpt>
      <trkpt lat="45.962840" lon="-0.551350">
        <time>2017-06-24T11:50:25Z</time>
      </trkpt>
      <trkpt lat="45.963150" lon="-0.551240">
        <time>2017-06-24T11:50:26Z</time>
      </trkpt>
      <trkpt lat="45.963460" lon="-0.551120">
        <time>2017-06-24T11:50:27Z</time>
      </trkpt>
      <trkpt lat="45.963780" lon="-0.551000">
        <time>2017-06-24T11:50:28Z</time>
      </trkpt>
      <trkpt lat="45.964060" lon="-0.550900">
        <time>2017-06-24T11:50:29Z</time>
      </trkpt>
      <trkpt lat="45.964370" lon="-0.550780">
        <time>2017-06-24T11:50:30Z</time>
      </trkpt>
      <trkpt lat="45.964690" lon="-0.550660">
        <time>2017-06-24T11:50:31Z</time>
      </trkpt>
      <trkpt lat="45.964980" lon="-0.550560">
        <time>2017-06-24T11:50:32Z</time>
      </trkpt>
      <trkpt lat="45.965290" lon="-0.550440">
        <time>2017-06-24T11:50:33Z</time>
      </trkpt>
      <trkpt lat="45.965620" lon="-0.550320">
        <time>2017-06-24T11:50:34Z</time>
      </trkpt>
      <trkpt lat="45.965910" lon="-0.550210">
        <time>2017-06-24T11:50:35Z</time>
      </trkpt>
      <trkpt lat="45.966240" lon="-0.550080">
        <time>2017-06-24T11:50:36Z</time>
      </trkpt>
      <trkpt lat="45.966530" lon="-0.549960">
        <time>2017-06-24T11:50:37Z</time>
      </trkpt>
      <trkpt lat="45.966830" lon="-0.549830">
        <time>2017-06-24T11:50:38Z</time>
      </trkpt>
      <trkpt lat="45.967160" lon="-0.549690">
        <time>2017-06-24T11:50:39Z</time>
      </trkpt>
      <trkpt lat="45.967450" lon="-0.549580">
        <time>2017-06-24T11:50:40Z</time>
      </trkpt>
      <trkpt lat="45.967760" lon="-0.549460">
        <time>2017-06-24T11:50:41Z</time>
      </trkpt>
      <trkpt lat="45.968070" lon="-0.549350">
        <time>2017-06-24T11:50:42Z</time>
      </trkpt>
      <trkpt lat="45.968380" lon="-0.549230">
        <time>2017-06-24T11:50:43Z</time>
      </trkpt>
      <trkpt lat="45.968710" lon="-0.549110">
        <time>2017-06-24T11:50:44Z</time>
      </trkpt>
      <trkpt lat="45.968990" lon="-0.549010">
        <time>2017-06-24T11:50:45Z</time>
      </trkpt>
      <trkpt lat="45.969290" lon="-0.548900">
        <time>2017-06-24T11:50:46Z</time>
      </trkpt>
      <trkpt lat="45.969620" lon="-0.548790">
        <time>2017-06-24T11:50:47Z</time>
      </trkpt>
      <trkpt lat="45.969900" lon="-0.548680">
        <time>2017-06-24T11:50:48Z</time>
      </trkpt>
      <trkpt lat="45.970210" lon="-0.548570">
        <time>2017-06-24T11:50:49Z</time>
      </trkpt>
      <trkpt lat="45.970530" lon="-0.548460">
        <time>2017-06-24T11:50:50Z</time>
      </trkpt>
      <trkpt lat="45.970810" lon="-0.548350">
        <time>2017-06-24T11:50:51Z</time>
      </trkpt>
      <trkpt lat="45.971130" lon="-0.548240">
        <time>2017-06-24T11:50:52Z</time>
      </trkpt>
      <trkpt lat="45.971410" lon="-0.548140">
        <time>2017-06-24T11:50:53Z</time>
      </trkpt>
      <trkpt lat="45.971720" lon="-0.548040">
        <time>2017-06-24T11:50:54Z</time>
      </trkpt>
      <trkpt lat="45.972040" lon="-0.547940">
        <time>2017-06-24T11:50:55Z</time>
      </trkpt>
      <trkpt lat="45.972330" lon="-0.547850">
        <time>2017-06-24T11:50:56Z</time>
      </trkpt>
      <trkpt lat="45.972640" lon="-0.547750">
        <time>2017-06-24T11:50:57Z</time>
      </trkpt>
      <trkpt lat="45.972960" lon="-0.547650">
        <time>2017-06-24T11:50:58Z</time>
      </trkpt>
      <trkpt lat="45.973270" lon="-0.547550">
        <time>2017-06-24T11:50:59Z</time>
      </trkpt>
      <trkpt lat="45.973610" lon="-0.547450">
        <time>2017-06-24T11:51:00Z</time>
      </trkpt>
      <trkpt lat="45.973900" lon="-0.547370">
        <time>2017-06-24T11:51:01Z</time>
      </trkpt>
      <trkpt lat="45.974220" lon="-0.547270">
        <time>2017-06-24T11:51:02Z</time>
      </trkpt>
      <trkpt lat="45.974560" lon="-0.547170">
        <time>2017-06-24T11:51:03Z</time>
      </trkpt>
      <trkpt lat="45.974850" lon="-0.547080">
        <time>2017-06-24T11:51:04Z</time>
      </trkpt>
      <trkpt lat="45.975170" lon="-0.546990">
        <time>2017-06-24T11:51:05Z</time>
      </trkpt>
      <trkpt lat="45.975500" lon="-0.546910">
        <time>2017-06-24T11:51:06Z</time>
      </trkpt>
      <trkpt lat="45.975800" lon="-0.546830">
        <time>2017-06-24T11:51:07Z</time>
      </trkpt>
      <trkpt lat="45.976130" lon="-0.546750">
        <time>2017-06-24T11:51:08Z</time>
      </trkpt>
      <trkpt lat="45.976430" lon="-0.546680">
        <time>2017-06-24T11:51:09Z</time>
      </trkpt>
      <trkpt lat="45.976740" lon="-0.546590">
        <time>2017-06-24T11:51:10Z</time>
      </trkpt>
      <trkpt lat="45.977080" lon="-0.546510">
        <time>2017-06-24T11:51:11Z</time>
      </trkpt>
      <trkpt lat="45.977360" lon="-0.546440">
        <time>2017-06-24T11:51:12Z</time>
      </trkpt>
      <trkpt lat="45.977670" lon="-0.546370">
        <time>2017-06-24T11:51:13Z</time>
      </trkpt>
      <trkpt lat="45.977980" lon="-0.546300">
        <time>2017-06-24T11:51:14Z</time>
      </trkpt>
      <trkpt lat="45.978280" lon="-0.546230">
        <time>2017-06-24T11:51:15Z</time>
      </trkpt>
      <trkpt lat="45.978600" lon="-0.546160">
        <time>2017-06-24T11:51:16Z</time>
      </trkpt>
      <trkpt lat="45.978880" lon="-0.546100">
        <time>2017-06-24T11:51:17Z</time>
      </trkpt>
      <trkpt lat="45.979180" lon="-0.546040">
        <time>2017-06-24T11:51:18Z</time>
      </trkpt>
      <trkpt lat="45.979500" lon="-0.545980">
        <time>2017-06-24T11:51:19Z</time>
      </trkpt>
      <trkpt lat="45.979770" lon="-0.545920">
        <time>2017-06-24T11:51:20Z</time>
      </trkpt>
      <trkpt lat="45.980060" lon="-0.545870">
        <time>2017-06-24T11:51:21Z</time>
      </trkpt>
      <trkpt lat="45.980380" lon="-0.545810">
        <time>2017-06-24T11:51:22Z</time>
      </trkpt>
      <trkpt lat="45.980650" lon="-0.545760">
        <time>2017-06-24T11:51:23Z</time>
      </trkpt>
      <trkpt lat="45.980970" lon="-0.545690">
        <time>2017-06-24T11:51:24Z</time>
      </trkpt>
      <trkpt lat="45.981240" lon="-0.545640">
        <time>2017-06-24T11:51:25Z</time>
      </trkpt>
      <trkpt lat="45.981540" lon="-0.545590">
        <time>2017-06-24T11:51:26Z</time>
      </trkpt>
      <trkpt lat="45.981860" lon="-0.545540">
        <time>2017-06-24T11:51:27Z</time>
      </trkpt>
      <trkpt lat="45.982150" lon="-0.545500">
        <time>2017-06-24T11:51:28Z</time>
      </trkpt>
      <trkpt lat="45.982450" lon="-0.545450">
        <time>2017-06-24T11:51:29Z</time>
      </trkpt>
      <trkpt lat="45.982750" lon="-0.545410">
        <time>2017-06-24T11:51:30Z</time>
      </trkpt>
      <trkpt lat="45.983050" lon="-0.545360">
        <time>2017-06-24T11:51:31Z</time>
      </trkpt>
      <trkpt lat="45.983380" lon="-0.545310">
        <time>2017-06-24T11:51:32Z</time>
      </trkpt>
      <trkpt lat="45.983660" lon="-0.545270">
        <time>2017-06-24T11:51:33Z</time>
      </trkpt>
      <trkpt lat="45.983960" lon="-0.545230">
        <time>2017-06-24T11:51:34Z</time>
      </trkpt>
      <trkpt lat="45.984290" lon="-0.545180">
        <time>2017-06-24T11:51:35Z</time>
      </trkpt>
      <trkpt lat="45.984580" lon="-0.545150">
        <time>2017-06-24T11:51:36Z</time>
      </trkpt>
      <trkpt lat="45.984880" lon="-0.545110">
        <time>2017-06-24T11:51:37Z</time>
      </trkpt>
      <trkpt lat="45.985200" lon="-0.545070">
        <time>2017-06-24T11:51:38Z</time>
      </trkpt>
      <trkpt lat="45.985480" lon="-0.545030">
        <time>2017-06-24T11:51:39Z</time>
      </trkpt>
      <trkpt lat="45.985800" lon="-0.545000">
        <time>2017-06-24T11:51:40Z</time>
      </trkpt>
      <trkpt lat="45.986080" lon="-0.544960">
        <time>2017-06-24T11:51:41Z</time>
      </trkpt>
      <trkpt lat="45.986380" lon="-0.544940">
        <time>2017-06-24T11:51:42Z</time>
      </trkpt>
      <trkpt lat="45.986700" lon="-0.544900">
        <time>2017-06-24T11:51:43Z</time>
      </trkpt>
      <trkpt lat="45.986980" lon="-0.544870">
        <time>2017-06-24T11:51:44Z</time>
      </trkpt>
      <trkpt lat="45.987280" lon="-0.544830">
        <time>2017-06-24T11:51:45Z</time>
      </trkpt>
      <trkpt lat="45.987590" lon="-0.544800">
        <time>2017-06-24T11:51:46Z</time>
      </trkpt>
      <trkpt lat="45.987890" lon="-0.544760">
        <time>2017-06-24T11:51:47Z</time>
      </trkpt>
      <trkpt lat="45.988220" lon="-0.544730">
        <time>2017-06-24T11:51:48Z</time>
      </trkpt>
      <trkpt lat="45.988500" lon="-0.544700">
        <time>2017-06-24T11:51:49Z</time>
      </trkpt>
      <trkpt lat="45.988800" lon="-0.544670">
        <time>2017-06-24T11:51:50Z</time>
      </trkpt>
      <trkpt lat="45.989120" lon="-0.544640">
        <time>2017-06-24T11:51:51Z</time>
      </trkpt>
      <trkpt lat="45.989400" lon="-0.544610">
        <time>2017-06-24T11:51:52Z</time>
      </trkpt>
      <trkpt lat="45.989690" lon="-0.544590">
        <time>2017-06-24T11:51:53Z</time>
      </trkpt>
      <trkpt lat="45.990010" lon="-0.544560">
        <time>2017-06-24T11:51:54Z</time>
      </trkpt>
      <trkpt lat="45.990280" lon="-0.544530">
        <time>2017-06-24T11:51:55Z</time>
      </trkpt>
      <trkpt lat="45.990590" lon="-0.544490">
        <time>2017-06-24T11:51:56Z</time>
      </trkpt>
      <trkpt lat="45.990860" lon="-0.544460">
        <time>2017-06-24T11:51:57Z</time>
      </trkpt>
      <trkpt lat="45.991140" lon="-0.544430">
        <time>2017-06-24T11:51:58Z</time>
      </trkpt>
      <trkpt lat="45.991440" lon="-0.544400">
        <time>2017-06-24T11:51:59Z</time>
      </trkpt>
      <trkpt lat="45.991700" lon="-0.544370">
        <time>2017-06-24T11:52:00Z</time>
      </trkpt>
      <trkpt lat="45.991970" lon="-0.544340">
        <time>2017-06-24T11:52:01Z</time>
      </trkpt>
      <trkpt lat="45.992250" lon="-0.544310">
        <time>2017-06-24T11:52:02Z</time>
      </trkpt>
      <trkpt lat="45.992520" lon="-0.544280">
        <time>2017-06-24T11:52:03Z</time>
      </trkpt>
      <trkpt lat="45.992820" lon="-0.544240">
        <time>2017-06-24T11:52:04Z</time>
      </trkpt>
      <trkpt lat="45.993080" lon="-0.544210">
        <time>2017-06-24T11:52:05Z</time>
      </trkpt>
      <trkpt lat="45.993360" lon="-0.544160">
        <time>2017-06-24T11:52:06Z</time>
      </trkpt>
      <trkpt lat="45.993660" lon="-0.544120">
        <time>2017-06-24T11:52:07Z</time>
      </trkpt>
      <trkpt lat="45.993920" lon="-0.544070">
        <time>2017-06-24T11:52:08Z</time>
      </trkpt>
      <trkpt lat="45.994210" lon="-0.544030">
        <time>2017-06-24T11:52:09Z</time>
      </trkpt>
      <trkpt lat="45.994520" lon="-0.543980">
        <time>2017-06-24T11:52:10Z</time>
      </trkpt>
      <trkpt lat="45.994800" lon="-0.543930">
        <time>2017-06-24T11:52:11Z</time>
      </trkpt>
      <trkpt lat="45.995120" lon="-0.543870">
        <time>2017-06-24T11:52:12Z</time>
      </trkpt>
      <trkpt lat="45.995390" lon="-0.543810">
        <time>2017-06-24T11:52:13Z</time>
      </trkpt>
      <trkpt lat="45.995690" lon="-0.543740">
        <time>2017-06-24T11:52:14Z</time>
      </trkpt>
      <trkpt lat="45.996010" lon="-0.543660">
        <time>2017-06-24T11:52:15Z</time>
      </trkpt>
      <trkpt lat="45.996290" lon="-0.543590">
        <time>2017-06-24T11:52:16Z</time>
      </trkpt>
      <trkpt lat="45.996600" lon="-0.543500">
        <time>2017-06-24T11:52:17Z</time>
      </trkpt>
      <trkpt lat="45.996900" lon="-0.543410">
        <time>2017-06-24T11:52:18Z</time>
      </trkpt>
      <trkpt lat="45.997210" lon="-0.543320">
        <time>2017-06-24T11:52:19Z</time>
      </trkpt>
      <trkpt lat="45.997540" lon="-0.543230">
        <time>2017-06-24T11:52:20Z</time>
      </trkpt>
      <trkpt lat="45.997830" lon="-0.543140">
        <time>2017-06-24T11:52:21Z</time>
      </trkpt>
      <trkpt lat="45.998140" lon="-0.543050">
        <time>2017-06-24T11:52:22Z</time>
      </trkpt>
      <trkpt lat="45.998470" lon="-0.542940">
        <time>2017-06-24T11:52:23Z</time>
      </trkpt>
      <trkpt lat="45.998760" lon="-0.542850">
        <time>2017-06-24T11:52:24Z</time>
      </trkpt>
      <trkpt lat="45.999080" lon="-0.542750">
        <time>2017-06-24T11:52:25Z</time>
      </trkpt>
      <trkpt lat="45.999410" lon="-0.542650">
        <time>2017-06-24T11:52:26Z</time>
      </trkpt>
      <trkpt lat="45.999710" lon="-0.542550">
        <time>2017-06-24T11:52:27Z</time>
      </trkpt>
      <trkpt lat="46.000040" lon="-0.542440">
        <time>2017-06-24T11:52:28Z</time>
      </trkpt>
      <trkpt lat="46.000330" lon="-0.542350">
        <time>2017-06-24T11:52:29Z</time>
      </trkpt>
      <trkpt lat="46.000640" lon="-0.542240">
        <time>2017-06-24T11:52:30Z</time>
      </trkpt>
      <trkpt lat="46.000980" lon="-0.542140">
        <time>2017-06-24T11:52:31Z</time>
      </trkpt>
      <trkpt lat="46.001270" lon="-0.542040">
        <time>2017-06-24T11:52:32Z</time>
      </trkpt>
      <trkpt lat="46.001580" lon="-0.541940">
        <time>2017-06-24T11:52:33Z</time>
      </trkpt>
      <trkpt lat="46.001890" lon="-0.541840">
        <time>2017-06-24T11:52:34Z</time>
      </trkpt>
      <trkpt lat="46.002200" lon="-0.541740">
        <time>2017-06-24T11:52:35Z</time>
      </trkpt>
      <trkpt lat="46.002540" lon="-0.541640">
        <time>2017-06-24T11:52:36Z</time>
      </trkpt>
      <trkpt lat="46.002840" lon="-0.541550">
        <time>2017-06-24T11:52:37Z</time>
      </trkpt>
      <trkpt lat="46.003150" lon="-0.541460">
        <time>2017-06-24T11:52:38Z</time>
      </trkpt>
      <trkpt lat="46.003480" lon="-0.541370">
        <time>2017-06-24T11:52:39Z</time>
      </trkpt>
      <trkpt lat="46.003770" lon="-0.541280">
        <time>2017-06-24T11:52:40Z</time>
      </trkpt>
      <trkpt lat="46.004080" lon="-0.541210">
        <time>2017-06-24T11:52:41Z</time>
      </trkpt>
      <trkpt lat="46.004410" lon="-0.541130">
        <time>2017-06-24T11:52:42Z</time>
      </trkpt>
      <trkpt lat="46.004690" lon="-0.541060">
        <time>2017-06-24T11:52:43Z</time>
      </trkpt>
      <trkpt lat="46.005020" lon="-0.540990">
        <time>2017-06-24T11:52:44Z</time>
      </trkpt>
      <trkpt lat="46.005300" lon="-0.540940">
        <time>2017-06-24T11:52:45Z</time>
      </trkpt>
      <trkpt lat="46.005610" lon="-0.540890">
        <time>2017-06-24T11:52:46Z</time>
      </trkpt>
      <trkpt lat="46.005940" lon="-0.540840">
        <time>2017-06-24T11:52:47Z</time>
      </trkpt>
      <trkpt lat="46.006220" lon="-0.540810">
        <time>2017-06-24T11:52:48Z</time>
      </trkpt>
      <trkpt lat="46.006540" lon="-0.540770">
        <time>2017-06-24T11:52:49Z</time>
      </trkpt>
      <trkpt lat="46.006850" lon="-0.540730">
        <time>2017-06-24T11:52:50Z</time>
      </trkpt>
      <trkpt lat="46.007170" lon="-0.540700">
        <time>2017-06-24T11:52:51Z</time>
      </trkpt>
      <trkpt lat="46.007500" lon="-0.540670">
        <time>2017-06-24T11:52:52Z</time>
      </trkpt>
      <trkpt lat="46.007790" lon="-0.540650">
        <time>2017-06-24T11:52:53Z</time>
      </trkpt>
      <trkpt lat="46.008100" lon="-0.540640">
        <time>2017-06-24T11:52:54Z</time>
      </trkpt>
      <trkpt lat="46.008430" lon="-0.540630">
        <time>2017-06-24T11:52:55Z</time>
      </trkpt>
      <trkpt lat="46.008730" lon="-0.540630">
        <time>2017-06-24T11:52:56Z</time>
      </trkpt>
      <trkpt lat="46.009040" lon="-0.540630">
        <time>2017-06-24T11:52:57Z</time>
      </trkpt>
      <trkpt lat="46.009380" lon="-0.540640">
        <time>2017-06-24T11:52:58Z</time>
      </trkpt>
      <trkpt lat="46.009670" lon="-0.540660">
        <time>2017-06-24T11:52:59Z</time>
      </trkpt>
      <trkpt lat="46.010010" lon="-0.540680">
        <time>2017-06-24T11:53:00Z</time>
      </trkpt>
      <trkpt lat="46.010300" lon="-0.540700">
        <time>2017-06-24T11:53:01Z</time>
      </trkpt>
      <trkpt lat="46.010620" lon="-0.540720">
        <time>2017-06-24T11:53:02Z</time>
      </trkpt>
      <trkpt lat="46.010950" lon="-0.540740">
        <time>2017-06-24T11:53:03Z</time>
      </trkpt>
      <trkpt lat="46.011250" lon="-0.540780">
        <time>2017-06-24T11:53:04Z</time>
      </trkpt>
      <trkpt lat="46.011570" lon="-0.540810">
        <time>2017-06-24T11:53:05Z</time>
      </trkpt>
      <trkpt lat="46.011890" lon="-0.540850">
        <time>2017-06-24T11:53:06Z</time>
      </trkpt>
      <trkpt lat="46.012210" lon="-0.540900">
        <time>2017-06-24T11:53:07Z</time>
      </trkpt>
      <trkpt lat="46.012560" lon="-0.540940">
        <time>2017-06-24T11:53:08Z</time>
      </trkpt>
      <trkpt lat="46.012870" lon="-0.540980">
        <time>2017-06-24T11:53:09Z</time>
      </trkpt>
      <trkpt lat="46.013190" lon="-0.541030">
        <time>2017-06-24T11:53:10Z</time>
      </trkpt>
      <trkpt lat="46.013540" lon="-0.541070">
        <time>2017-06-24T11:53:11Z</time>
      </trkpt>
      <trkpt lat="46.013840" lon="-0.541120">
        <time>2017-06-24T11:53:12Z</time>
      </trkpt>
      <trkpt lat="46.014160" lon="-0.541170">
        <time>2017-06-24T11:53:13Z</time>
      </trkpt>
      <trkpt lat="46.014500" lon="-0.541220">
        <time>2017-06-24T11:53:14Z</time>
      </trkpt>
      <trkpt lat="46.014810" lon="-0.541270">
        <time>2017-06-24T11:53:15Z</time>
      </trkpt>
      <trkpt lat="46.015150" lon="-0.541320">
        <time>2017-06-24T11:53:16Z</time>
      </trkpt>
      <trkpt lat="46.015450" lon="-0.541360">
        <time>2017-06-24T11:53:17Z</time>
      </trkpt>
      <trkpt lat="46.015780" lon="-0.541400">
        <time>2017-06-24T11:53:18Z</time>
      </trkpt>
      <trkpt lat="46.016120" lon="-0.541450">
        <time>2017-06-24T11:53:19Z</time>
      </trkpt>
      <trkpt lat="46.016430" lon="-0.541480">
        <time>2017-06-24T11:53:20Z</time>
      </trkpt>
      <trkpt lat="46.016750" lon="-0.541520">
        <time>2017-06-24T11:53:21Z</time>
      </trkpt>
      <trkpt lat="46.017080" lon="-0.541560">
        <time>2017-06-24T11:53:22Z</time>
      </trkpt>
      <trkpt lat="46.017400" lon="-0.541590">
        <time>2017-06-24T11:53:23Z</time>
      </trkpt>
      <trkpt lat="46.017740" lon="-0.541610">
        <time>2017-06-24T11:53:24Z</time>
      </trkpt>
      <trkpt lat="46.018040" lon="-0.541620">
        <time>2017-06-24T11:53:25Z</time>
      </trkpt>
      <trkpt lat="46.018370" lon="-0.541640">
        <time>2017-06-24T11:53:26Z</time>
      </trkpt>
      <trkpt lat="46.018710" lon="-0.541640">
        <time>2017-06-24T11:53:27Z</time>
      </trkpt>
      <trkpt lat="46.019020" lon="-0.541640">
        <time>2017-06-24T11:53:28Z</time>
      </trkpt>
      <trkpt lat="46.019340" lon="-0.541630">
        <time>2017-06-24T11:53:29Z</time>
      </trkpt>
      <trkpt lat="46.019680" lon="-0.541610">
        <time>2017-06-24T11:53:30Z</time>
      </trkpt>
      <trkpt lat="46.019980" lon="-0.541590">
        <time>2017-06-24T11:53:31Z</time>
      </trkpt>
      <trkpt lat="46.020310" lon="-0.541570">
        <time>2017-06-24T11:53:32Z</time>
      </trkpt>
      <trkpt lat="46.020600" lon="-0.541540">
        <time>2017-06-24T11:53:33Z</time>
      </trkpt>
      <trkpt lat="46.020900" lon="-0.541510">
        <time>2017-06-24T11:53:34Z</time>
      </trkpt>
      <trkpt lat="46.021220" lon="-0.541470">
        <time>2017-06-24T11:53:35Z</time>
      </trkpt>
      <trkpt lat="46.021490" lon="-0.541420">
        <time>2017-06-24T11:53:36Z</time>
      </trkpt>
      <trkpt lat="46.021790" lon="-0.541370">
        <time>2017-06-24T11:53:37Z</time>
      </trkpt>
      <trkpt lat="46.022090" lon="-0.541320">
        <time>2017-06-24T11:53:38Z</time>
      </trkpt>
      <trkpt lat="46.022390" lon="-0.541270">
        <time>2017-06-24T11:53:39Z</time>
      </trkpt>
      <trkpt lat="46.022720" lon="-0.541200">
        <time>2017-06-24T11:53:40Z</time>
      </trkpt>
      <trkpt lat="46.023000" lon="-0.541130">
        <time>2017-06-24T11:53:41Z</time>
      </trkpt>
      <trkpt lat="46.023310" lon="-0.541060">
        <time>2017-06-24T11:53:42Z</time>
      </trkpt>
      <trkpt lat="46.023640" lon="-0.540970">
        <time>2017-06-24T11:53:43Z</time>
      </trkpt>
      <trkpt lat="46.023940" lon="-0.540900">
        <time>2017-06-24T11:53:44Z</time>
      </trkpt>
      <trkpt lat="46.024250" lon="-0.540810">
        <time>2017-06-24T11:53:45Z</time>
      </trkpt>
      <trkpt lat="46.024580" lon="-0.540710">
        <time>2017-06-24T11:53:46Z</time>
      </trkpt>
      <trkpt lat="46.024870" lon="-0.540610">
        <time>2017-06-24T11:53:47Z</time>
      </trkpt>
      <trkpt lat="46.025200" lon="-0.540500">
        <time>2017-06-24T11:53:48Z</time>
      </trkpt>
      <trkpt lat="46.025490" lon="-0.540400">
        <time>2017-06-24T11:53:49Z</time>
      </trkpt>
      <trkpt lat="46.025800" lon="-0.540290">
        <time>2017-06-24T11:53:50Z</time>
      </trkpt>
      <trkpt lat="46.026130" lon="-0.540170">
        <time>2017-06-24T11:53:51Z</time>
      </trkpt>
      <trkpt lat="46.026420" lon="-0.540050">
        <time>2017-06-24T11:53:52Z</time>
      </trkpt>
      <trkpt lat="46.026730" lon="-0.539930">
        <time>2017-06-24T11:53:53Z</time>
      </trkpt>
      <trkpt lat="46.027030" lon="-0.539800">
        <time>2017-06-24T11:53:54Z</time>
      </trkpt>
      <trkpt lat="46.027340" lon="-0.539670">
        <time>2017-06-24T11:53:55Z</time>
      </trkpt>
      <trkpt lat="46.027670" lon="-0.539540">
        <time>2017-06-24T11:53:56Z</time>
      </trkpt>
      <trkpt lat="46.027960" lon="-0.539420">
        <time>2017-06-24T11:53:57Z</time>
      </trkpt>
      <trkpt lat="46.028260" lon="-0.539300">
        <time>2017-06-24T11:53:58Z</time>
      </trkpt>
      <trkpt lat="46.028590" lon="-0.539170">
        <time>2017-06-24T11:53:59Z</time>
      </trkpt>
      <trkpt lat="46.028880" lon="-0.539060">
        <time>2017-06-24T11:54:00Z</time>
      </trkpt>
      <trkpt lat="46.029190" lon="-0.538940">
        <time>2017-06-24T11:54:01Z</time>
      </trkpt>
      <trkpt lat="46.029520" lon="-0.538820">
        <time>2017-06-24T11:54:02Z</time>
      </trkpt>
      <trkpt lat="46.029810" lon="-0.538710">
        <time>2017-06-24T11:54:03Z</time>
      </trkpt>
      <trkpt lat="46.030150" lon="-0.538580">
        <time>2017-06-24T11:54:04Z</time>
      </trkpt>
      <trkpt lat="46.030440" lon="-0.538480">
        <time>2017-06-24T11:54:05Z</time>
      </trkpt>
      <trkpt lat="46.030750" lon="-0.538370">
        <time>2017-06-24T11:54:06Z</time>
      </trkpt>
      <trkpt lat="46.031080" lon="-0.538260">
        <time>2017-06-24T11:54:07Z</time>
      </trkpt>
      <trkpt lat="46.031380" lon="-0.538160">
        <time>2017-06-24T11:54:08Z</time>
      </trkpt>
      <trkpt lat="46.031700" lon="-0.538050">
        <time>2017-06-24T11:54:09Z</time>
      </trkpt>
      <trkpt lat="46.032020" lon="-0.537950">
        <time>2017-06-24T11:54:10Z</time>
      </trkpt>
      <trkpt lat="46.032340" lon="-0.537860">
        <time>2017-06-24T11:54:11Z</time>
      </trkpt>
      <trkpt lat="46.032680" lon="-0.537760">
        <time>2017-06-24T11:54:12Z</time>
      </trkpt>
      <trkpt lat="46.032990" lon="-0.537690">
        <time>2017-06-24T11:54:13Z</time>
      </trkpt>
      <trkpt lat="46.033310" lon="-0.537600">
        <time>2017-06-24T11:54:14Z</time>
      </trkpt>
      <trkpt lat="46.033650" lon="-0.537520">
        <time>2017-06-24T11:54:15Z</time>
      </trkpt>
      <trkpt lat="46.033950" lon="-0.537460">
        <time>2017-06-24T11:54:16Z</time>
      </trkpt>
      <trkpt lat="46.034270" lon="-0.537390">
        <time>2017-06-24T11:54:17Z</time>
      </trkpt>
      <trkpt lat="46.034610" lon="-0.537320">
        <time>2017-06-24T11:54:18Z</time>
      </trkpt>
      <trkpt lat="46.034910" lon="-0.537270">
        <time>2017-06-24T11:54:19Z</time>
      </trkpt>
      <trkpt lat="46.035250" lon="-0.537210">
        <time>2017-06-24T11:54:20Z</time>
      </trkpt>
      <trkpt lat="46.035550" lon="-0.537160">
        <time>2017-06-24T11:54:21Z</time>
      </trkpt>
      <trkpt lat="46.035880" lon="-0.537110">
        <time>2017-06-24T11:54:22Z</time>
      </trkpt>
      <trkpt lat="46.036230" lon="-0.537060">
        <time>2017-06-24T11:54:23Z</time>
      </trkpt>
      <trkpt lat="46.036530" lon="-0.537030">
        <time>2017-06-24T11:54:24Z</time>
      </trkpt>
      <trkpt lat="46.036860" lon="-0.536990">
        <time>2017-06-24T11:54:25Z</time>
      </trkpt>
      <trkpt lat="46.037180" lon="-0.536950">
        <time>2017-06-24T11:54:26Z</time>
      </trkpt>
      <trkpt lat="46.037500" lon="-0.536920">
        <time>2017-06-24T11:54:27Z</time>
      </trkpt>
      <trkpt lat="46.037850" lon="-0.536900">
        <time>2017-06-24T11:54:28Z</time>
      </trkpt>
      <trkpt lat="46.038150" lon="-0.536870">
        <time>2017-06-24T11:54:29Z</time>
      </trkpt>
      <trkpt lat="46.038480" lon="-0.536820">
        <time>2017-06-24T11:54:30Z</time>
      </trkpt>
      <trkpt lat="46.038810" lon="-0.536780">
        <time>2017-06-24T11:54:31Z</time>
      </trkpt>
      <trkpt lat="46.039110" lon="-0.536760">
        <time>2017-06-24T11:54:32Z</time>
      </trkpt>
      <trkpt lat="46.039430" lon="-0.536760">
        <time>2017-06-24T11:54:33Z</time>
      </trkpt>
      <trkpt lat="46.039770" lon="-0.536750">
        <time>2017-06-24T11:54:34Z</time>
      </trkpt>
      <trkpt lat="46.040070" lon="-0.536750">
        <time>2017-06-24T11:54:35Z</time>
      </trkpt>
      <trkpt lat="46.040410" lon="-0.536750">
        <time>2017-06-24T11:54:36Z</time>
      </trkpt>
      <trkpt lat="46.040710" lon="-0.536750">
        <time>2017-06-24T11:54:37Z</time>
      </trkpt>
      <trkpt lat="46.041030" lon="-0.536760">
        <time>2017-06-24T11:54:38Z</time>
      </trkpt>
      <trkpt lat="46.041370" lon="-0.536760">
        <time>2017-06-24T11:54:39Z</time>
      </trkpt>
      <trkpt lat="46.041680" lon="-0.536770">
        <time>2017-06-24T11:54:40Z</time>
      </trkpt>
      <trkpt lat="46.042000" lon="-0.536790">
        <time>2017-06-24T11:54:41Z</time>
      </trkpt>
      <trkpt lat="46.042320" lon="-0.536810">
        <time>2017-06-24T11:54:42Z</time>
      </trkpt>
      <trkpt lat="46.042640" lon="-0.536820">
        <time>2017-06-24T11:54:43Z</time>
      </trkpt>
      <trkpt lat="46.042990" lon="-0.536830">
        <time>2017-06-24T11:54:44Z</time>
      </trkpt>
      <trkpt lat="46.043300" lon="-0.536840">
        <time>2017-06-24T11:54:45Z</time>
      </trkpt>
      <trkpt lat="46.043630" lon="-0.536850">
        <time>2017-06-24T11:54:46Z</time>
      </trkpt>
      <trkpt lat="46.043980" lon="-0.536860">
        <time>2017-06-24T11:54:47Z</time>
      </trkpt>
      <trkpt lat="46.044290" lon="-0.536870">
        <time>2017-06-24T11:54:48Z</time>
      </trkpt>
      <trkpt lat="46.044620" lon="-0.536890">
        <time>2017-06-24T11:54:49Z</time>
      </trkpt>
      <trkpt lat="46.044960" lon="-0.536910">
        <time>2017-06-24T11:54:50Z</time>
      </trkpt>
      <trkpt lat="46.045260" lon="-0.536920">
        <time>2017-06-24T11:54:51Z</time>
      </trkpt>
      <trkpt lat="46.045610" lon="-0.536940">
        <time>2017-06-24T11:54:52Z</time>
      </trkpt>
      <trkpt lat="46.045910" lon="-0.536950">
        <time>2017-06-24T11:54:53Z</time>
      </trkpt>
      <trkpt lat="46.046230" lon="-0.536960">
        <time>2017-06-24T11:54:54Z</time>
      </trkpt>
      <trkpt lat="46.046570" lon="-0.536970">
        <time>2017-06-24T11:54:55Z</time>
      </trkpt>
      <trkpt lat="46.046860" lon="-0.536980">
        <time>2017-06-24T11:54:56Z</time>
      </trkpt>
      <trkpt lat="46.047180" lon="-0.536990">
        <time>2017-06-24T11:54:57Z</time>
      </trkpt>
      <trkpt lat="46.047490" lon="-0.537010">
        <time>2017-06-24T11:54:58Z</time>
      </trkpt>
      <trkpt lat="46.047810" lon="-0.537020">
        <time>2017-06-24T11:54:59Z</time>
      </trkpt>
      <trkpt lat="46.048140" lon="-0.537040">
        <time>2017-06-24T11:55:00Z</time>
      </trkpt>
      <trkpt lat="46.048430" lon="-0.537050">
        <time>2017-06-24T11:55:01Z</time>
      </trkpt>
      <trkpt lat="46.048750" lon="-0.537060">
        <time>2017-06-24T11:55:02Z</time>
      </trkpt>
      <trkpt lat="46.049080" lon="-0.537070">
        <time>2017-06-24T11:55:03Z</time>
      </trkpt>
      <trkpt lat="46.049380" lon="-0.537070">
        <time>2017-06-24T11:55:04Z</time>
      </trkpt>
      <trkpt lat="46.049690" lon="-0.537070">
        <time>2017-06-24T11:55:05Z</time>
      </trkpt>
      <trkpt lat="46.050030" lon="-0.537080">
        <time>2017-06-24T11:55:06Z</time>
      </trkpt>
      <trkpt lat="46.050320" lon="-0.537090">
        <time>2017-06-24T11:55:07Z</time>
      </trkpt>
      <trkpt lat="46.050660" lon="-0.537090">
        <time>2017-06-24T11:55:08Z</time>
      </trkpt>
      <trkpt lat="46.050960" lon="-0.537080">
        <time>2017-06-24T11:55:09Z</time>
      </trkpt>
      <trkpt lat="46.051280" lon="-0.537080">
        <time>2017-06-24T11:55:10Z</time>
      </trkpt>
      <trkpt lat="46.051620" lon="-0.537080">
        <time>2017-06-24T11:55:11Z</time>
      </trkpt>
      <trkpt lat="46.051910" lon="-0.537070">
        <time>2017-06-24T11:55:12Z</time>
      </trkpt>
      <trkpt lat="46.052230" lon="-0.537060">
        <time>2017-06-24T11:55:13Z</time>
      </trkpt>
      <trkpt lat="46.052540" lon="-0.537050">
        <time>2017-06-24T11:55:14Z</time>
      </trkpt>
      <trkpt lat="46.052860" lon="-0.537030">
        <time>2017-06-24T11:55:15Z</time>
      </trkpt>
      <trkpt lat="46.053190" lon="-0.537010">
        <time>2017-06-24T11:55:16Z</time>
      </trkpt>
      <trkpt lat="46.053490" lon="-0.536990">
        <time>2017-06-24T11:55:17Z</time>
      </trkpt>
      <trkpt lat="46.053800" lon="-0.536960">
        <time>2017-06-24T11:55:18Z</time>
      </trkpt>
      <trkpt lat="46.054130" lon="-0.536920">
        <time>2017-06-24T11:55:19Z</time>
      </trkpt>
      <trkpt lat="46.054430" lon="-0.536880">
        <time>2017-06-24T11:55:20Z</time>
      </trkpt>
      <trkpt lat="46.054740" lon="-0.536850">
        <time>2017-06-24T11:55:21Z</time>
      </trkpt>
      <trkpt lat="46.055070" lon="-0.536800">
        <time>2017-06-24T11:55:22Z</time>
      </trkpt>
      <trkpt lat="46.055370" lon="-0.536770">
        <time>2017-06-24T11:55:23Z</time>
      </trkpt>
      <trkpt lat="46.055700" lon="-0.536720">
        <time>2017-06-24T11:55:24Z</time>
      </trkpt>
      <trkpt lat="46.056000" lon="-0.536670">
        <time>2017-06-24T11:55:25Z</time>
      </trkpt>
      <trkpt lat="46.056310" lon="-0.536620">
        <time>2017-06-24T11:55:26Z</time>
      </trkpt>
      <trkpt lat="46.056640" lon="-0.536560">
        <time>2017-06-24T11:55:27Z</time>
      </trkpt>
      <trkpt lat="46.056930" lon="-0.536500">
        <time>2017-06-24T11:55:28Z</time>
      </trkpt>
      <trkpt lat="46.057240" lon="-0.536440">
        <time>2017-06-24T11:55:29Z</time>
      </trkpt>
      <trkpt lat="46.057550" lon="-0.536370">
        <time>2017-06-24T11:55:30Z</time>
      </trkpt>
      <trkpt lat="46.057860" lon="-0.536300">
        <time>2017-06-24T11:55:31Z</time>
      </trkpt>
      <trkpt lat="46.058190" lon="-0.536230">
        <time>2017-06-24T11:55:32Z</time>
      </trkpt>
      <trkpt lat="46.058470" lon="-0.536160">
        <time>2017-06-24T11:55:33Z</time>
      </trkpt>
      <trkpt lat="46.058780" lon="-0.536090">
        <time>2017-06-24T11:55:34Z</time>
      </trkpt>
      <trkpt lat="46.059100" lon="-0.536000">
        <time>2017-06-24T11:55:35Z</time>
      </trkpt>
      <trkpt lat="46.059390" lon="-0.535930">
        <time>2017-06-24T11:55:36Z</time>
      </trkpt>
      <trkpt lat="46.059690" lon="-0.535850">
        <time>2017-06-24T11:55:37Z</time>
      </trkpt>
      <trkpt lat="46.060020" lon="-0.535760">
        <time>2017-06-24T11:55:38Z</time>
      </trkpt>
      <trkpt lat="46.060300" lon="-0.535680">
        <time>2017-06-24T11:55:39Z</time>
      </trkpt>
      <trkpt lat="46.060630" lon="-0.535590">
        <time>2017-06-24T11:55:40Z</time>
      </trkpt>
      <trkpt lat="46.060910" lon="-0.535520">
        <time>2017-06-24T11:55:41Z</time>
      </trkpt>
      <trkpt lat="46.061220" lon="-0.535440">
        <time>2017-06-24T11:55:42Z</time>
      </trkpt>
      <trkpt lat="46.061540" lon="-0.535350">
        <time>2017-06-24T11:55:43Z</time>
      </trkpt>
      <trkpt lat="46.061830" lon="-0.535270">
        <time>2017-06-24T11:55:44Z</time>
      </trkpt>
      <trkpt lat="46.062140" lon="-0.535190">
        <time>2017-06-24T11:55:45Z</time>
      </trkpt>
      <trkpt lat="46.062440" lon="-0.535090">
        <time>2017-06-24T11:55:46Z</time>
      </trkpt>
      <trkpt lat="46.062750" lon="-0.535000">
        <time>2017-06-24T11:55:47Z</time>
      </trkpt>
      <trkpt lat="46.063080" lon="-0.534910">
        <time>2017-06-24T11:55:48Z</time>
      </trkpt>
      <trkpt lat="46.063370" lon="-0.534830">
        <time>2017-06-24T11:55:49Z</time>
      </trkpt>
      <trkpt lat="46.063670" lon="-0.534750">
        <time>2017-06-24T11:55:50Z</time>
      </trkpt>
      <trkpt lat="46.063990" lon="-0.534650">
        <time>2017-06-24T11:55:51Z</time>
      </trkpt>
      <trkpt lat="46.064280" lon="-0.534570">
        <time>2017-06-24T11:55:52Z</time>
      </trkpt>
      <trkpt lat="46.064580" lon="-0.534490">
        <time>2017-06-24T11:55:53Z</time>
      </trkpt>
      <trkpt lat="46.064910" lon="-0.534400">
        <time>2017-06-24T11:55:54Z</time>
      </trkpt>
      <trkpt lat="46.065200" lon="-0.534320">
        <time>2017-06-24T11:55:55Z</time>
      </trkpt>
      <trkpt lat="46.065530" lon="-0.534230">
        <time>2017-06-24T11:55:56Z</time>
      </trkpt>
      <trkpt lat="46.065820" lon="-0.534150">
        <time>2017-06-24T11:55:57Z</time>
      </trkpt>
      <trkpt lat="46.066120" lon="-0.534050">
        <time>2017-06-24T11:55:58Z</time>
      </trkpt>
      <trkpt lat="46.066450" lon="-0.533970">
        <time>2017-06-24T11:55:59Z</time>
      </trkpt>
      <trkpt lat="46.066740" lon="-0.533880">
        <time>2017-06-24T11:56:00Z</time>
      </trkpt>
      <trkpt lat="46.067050" lon="-0.533800">
        <time>2017-06-24T11:56:01Z</time>
      </trkpt>
      <trkpt lat="46.067370" lon="-0.533710">
        <time>2017-06-24T11:56:02Z</time>
      </trkpt>
      <trkpt lat="46.067690" lon="-0.533620">
        <time>2017-06-24T11:56:03Z</time>
      </trkpt>
      <trkpt lat="46.068030" lon="-0.533520">
        <time>2017-06-24T11:56:04Z</time>
      </trkpt>
      <trkpt lat="46.068330" lon="-0.533430">
        <time>2017-06-24T11:56:05Z</time>
      </trkpt>
      <trkpt lat="46.068650" lon="-0.533340">
        <time>2017-06-24T11:56:06Z</time>
      </trkpt>
      <trkpt lat="46.068990" lon="-0.533240">
        <time>2017-06-24T11:56:07Z</time>
      </trkpt>
      <trkpt lat="46.069300" lon="-0.533150">
        <time>2017-06-24T11:56:08Z</time>
      </trkpt>
      <trkpt lat="46.069630" lon="-0.533070">
        <time>2017-06-24T11:56:09Z</time>
      </trkpt>
      <trkpt lat="46.069980" lon="-0.532970">
        <time>2017-06-24T11:56:10Z</time>
      </trkpt>
      <trkpt lat="46.070290" lon="-0.532880">
        <time>2017-06-24T11:56:11Z</time>
      </trkpt>
      <trkpt lat="46.070640" lon="-0.532780">
        <time>2017-06-24T11:56:12Z</time>
      </trkpt>
      <trkpt lat="46.070950" lon="-0.532690">
        <time>2017-06-24T11:56:13Z</time>
      </trkpt>
      <trkpt lat="46.071280" lon="-0.532590">
        <time>2017-06-24T11:56:14Z</time>
      </trkpt>
      <trkpt lat="46.071630" lon="-0.532500">
        <time>2017-06-24T11:56:15Z</time>
      </trkpt>
      <trkpt lat="46.071940" lon="-0.532420">
        <time>2017-06-24T11:56:16Z</time>
      </trkpt>
      <trkpt lat="46.072260" lon="-0.532330">
        <time>2017-06-24T11:56:17Z</time>
      </trkpt>
      <trkpt lat="46.072590" lon="-0.532240">
        <time>2017-06-24T11:56:18Z</time>
      </trkpt>
      <trkpt lat="46.072910" lon="-0.532160">
        <time>2017-06-24T11:56:19Z</time>
      </trkpt>
      <trkpt lat="46.073260" lon="-0.532080">
        <time>2017-06-24T11:56:20Z</time>
      </trkpt>
      <trkpt lat="46.073560" lon="-0.532010">
        <time>2017-06-24T11:56:21Z</time>
      </trkpt>
      <trkpt lat="46.073890" lon="-0.531930">
        <time>2017-06-24T11:56:22Z</time>
      </trkpt>
      <trkpt lat="46.074230" lon="-0.531850">
        <time>2017-06-24T11:56:23Z</time>
      </trkpt>
      <trkpt lat="46.074540" lon="-0.531780">
        <time>2017-06-24T11:56:24Z</time>
      </trkpt>
      <trkpt lat="46.074860" lon="-0.531710">
        <time>2017-06-24T11:56:25Z</time>
      </trkpt>
      <trkpt lat="46.075210" lon="-0.531640">
        <time>2017-06-24T11:56:26Z</time>
      </trkpt>
      <trkpt lat="46.075520" lon="-0.531570">
        <time>2017-06-24T11:56:27Z</time>
      </trkpt>
      <trkpt lat="46.075860" lon="-0.531510">
        <time>2017-06-24T11:56:28Z</time>
      </trkpt>
      <trkpt lat="46.076170" lon="-0.531460">
        <time>2017-06-24T11:56:29Z</time>
      </trkpt>
      <trkpt lat="46.076490" lon="-0.531400">
        <time>2017-06-24T11:56:30Z</time>
      </trkpt>
      <trkpt lat="46.076830" lon="-0.531350">
        <time>2017-06-24T11:56:31Z</time>
      </trkpt>
      <trkpt lat="46.077130" lon="-0.531310">
        <time>2017-06-24T11:56:32Z</time>
      </trkpt>
      <trkpt lat="46.077450" lon="-0.531260">
        <time>2017-06-24T11:56:33Z</time>
      </trkpt>
      <trkpt lat="46.077770" lon="-0.531230">
        <time>2017-06-24T11:56:34Z</time>
      </trkpt>
      <trkpt lat="46.078090" lon="-0.531200">
        <time>2017-06-24T11:56:35Z</time>
      </trkpt>
      <trkpt lat="46.078430" lon="-0.531170">
        <time>2017-06-24T11:56:36Z</time>
      </trkpt>
      <trkpt lat="46.078720" lon="-0.531150">
        <time>2017-06-24T11:56:37Z</time>
      </trkpt>
      <trkpt lat="46.079040" lon="-0.531130">
        <time>2017-06-24T11:56:38Z</time>
      </trkpt>
      <trkpt lat="46.079380" lon="-0.531110">
        <time>2017-06-24T11:56:39Z</time>
      </trkpt>
      <trkpt lat="46.079670" lon="-0.531090">
        <time>2017-06-24T11:56:40Z</time>
      </trkpt>
      <trkpt lat="46.079990" lon="-0.531080">
        <time>2017-06-24T11:56:41Z</time>
      </trkpt>
      <trkpt lat="46.080320" lon="-0.531070">
        <time>2017-06-24T11:56:42Z</time>
      </trkpt>
      <trkpt lat="46.080620" lon="-0.531060">
        <time>2017-06-24T11:56:43Z</time>
      </trkpt>
      <trkpt lat="46.080960" lon="-0.531060">
        <time>2017-06-24T11:56:44Z</time>
      </trkpt>
      <trkpt lat="46.081250" lon="-0.531060">
        <time>2017-06-24T11:56:45Z</time>
      </trkpt>
      <trkpt lat="46.081570" lon="-0.531070">
        <time>2017-06-24T11:56:46Z</time>
      </trkpt>
      <trkpt lat="46.081910" lon="-0.531080">
        <time>2017-06-24T11:56:47Z</time>
      </trkpt>
      <trkpt lat="46.082200" lon="-0.531090">
        <time>2017-06-24T11:56:48Z</time>
      </trkpt>
      <trkpt lat="46.082520" lon="-0.531110">
        <time>2017-06-24T11:56:49Z</time>
      </trkpt>
      <trkpt lat="46.082840" lon="-0.531130">
        <time>2017-06-24T11:56:50Z</time>
      </trkpt>
      <trkpt lat="46.083160" lon="-0.531150">
        <time>2017-06-24T11:56:51Z</time>
      </trkpt>
      <trkpt lat="46.083510" lon="-0.531170">
        <time>2017-06-24T11:56:52Z</time>
      </trkpt>
      <trkpt lat="46.083810" lon="-0.531200">
        <time>2017-06-24T11:56:53Z</time>
      </trkpt>
      <trkpt lat="46.084140" lon="-0.531240">
        <time>2017-06-24T11:56:54Z</time>
      </trkpt>
      <trkpt lat="46.084490" lon="-0.531290">
        <time>2017-06-24T11:56:55Z</time>
      </trkpt>
      <trkpt lat="46.084790" lon="-0.531330">
        <time>2017-06-24T11:56:56Z</time>
      </trkpt>
      <trkpt lat="46.085110" lon="-0.531380">
        <time>2017-06-24T11:56:57Z</time>
      </trkpt>
      <trkpt lat="46.085460" lon="-0.531430">
        <time>2017-06-24T11:56:58Z</time>
      </trkpt>
      <trkpt lat="46.085760" lon="-0.531480">
        <time>2017-06-24T11:56:59Z</time>
      </trkpt>
      <trkpt lat="46.086100" lon="-0.531540">
        <time>2017-06-24T11:57:00Z</time>
      </trkpt>
      <trkpt lat="46.086390" lon="-0.531600">
        <time>2017-06-24T11:57:01Z</time>
      </trkpt>
      <trkpt lat="46.086710" lon="-0.531660">
        <time>2017-06-24T11:57:02Z</time>
      </trkpt>
      <trkpt lat="46.087050" lon="-0.531740">
        <time>2017-06-24T11:57:03Z</time>
      </trkpt>
      <trkpt lat="46.087350" lon="-0.531800">
        <time>2017-06-24T11:57:04Z</time>
      </trkpt>
      <trkpt lat="46.087660" lon="-0.531880">
        <time>2017-06-24T11:57:05Z</time>
      </trkpt>
      <trkpt lat="46.087980" lon="-0.531960">
        <time>2017-06-24T11:57:06Z</time>
      </trkpt>
      <trkpt lat="46.088290" lon="-0.532040">
        <time>2017-06-24T11:57:07Z</time>
      </trkpt>
      <trkpt lat="46.088630" lon="-0.532130">
        <time>2017-06-24T11:57:08Z</time>
      </trkpt>
      <trkpt lat="46.088920" lon="-0.532210">
        <time>2017-06-24T11:57:09Z</time>
      </trkpt>
      <trkpt lat="46.089230" lon="-0.532290">
        <time>2017-06-24T11:57:10Z</time>
      </trkpt>
      <trkpt lat="46.089570" lon="-0.532390">
        <time>2017-06-24T11:57:11Z</time>
      </trkpt>
      <trkpt lat="46.089860" lon="-0.532470">
        <time>2017-06-24T11:57:12Z</time>
      </trkpt>
      <trkpt lat="46.090170" lon="-0.532560">
        <time>2017-06-24T11:57:13Z</time>
      </trkpt>
      <trkpt lat="46.090500" lon="-0.532660">
        <time>2017-06-24T11:57:14Z</time>
      </trkpt>
      <trkpt lat="46.090790" lon="-0.532750">
        <time>2017-06-24T11:57:15Z</time>
      </trkpt>
      <trkpt lat="46.091120" lon="-0.532850">
        <time>2017-06-24T11:57:16Z</time>
      </trkpt>
      <trkpt lat="46.091410" lon="-0.532930">
        <time>2017-06-24T11:57:17Z</time>
      </trkpt>
      <trkpt lat="46.091720" lon="-0.533030">
        <time>2017-06-24T11:57:18Z</time>
      </trkpt>
      <trkpt lat="46.092060" lon="-0.533130">
        <time>2017-06-24T11:57:19Z</time>
      </trkpt>
      <trkpt lat="46.092350" lon="-0.533220">
        <time>2017-06-24T11:57:20Z</time>
      </trkpt>
      <trkpt lat="46.092660" lon="-0.533310">
        <time>2017-06-24T11:57:21Z</time>
      </trkpt>
      <trkpt lat="46.092960" lon="-0.533420">
        <time>2017-06-24T11:57:22Z</time>
      </trkpt>
      <trkpt lat="46.093270" lon="-0.533510">
        <time>2017-06-24T11:57:23Z</time>
      </trkpt>
      <trkpt lat="46.093590" lon="-0.533610">
        <time>2017-06-24T11:57:24Z</time>
      </trkpt>
      <trkpt lat="46.093880" lon="-0.533700">
        <time>2017-06-24T11:57:25Z</time>
      </trkpt>
      <trkpt lat="46.094190" lon="-0.533800">
        <time>2017-06-24T11:57:26Z</time>
      </trkpt>
      <trkpt lat="46.094510" lon="-0.533890">
        <time>2017-06-24T11:57:27Z</time>
      </trkpt>
      <trkpt lat="46.094800" lon="-0.533970">
        <time>2017-06-24T11:57:28Z</time>
      </trkpt>
      <trkpt lat="46.095100" lon="-0.534060">
        <time>2017-06-24T11:57:29Z</time>
      </trkpt>
      <trkpt lat="46.095420" lon="-0.534150">
        <time>2017-06-24T11:57:30Z</time>
      </trkpt>
      <trkpt lat="46.095710" lon="-0.534230">
        <time>2017-06-24T11:57:31Z</time>
      </trkpt>
      <trkpt lat="46.096030" lon="-0.534320">
        <time>2017-06-24T11:57:32Z</time>
      </trkpt>
      <trkpt lat="46.096320" lon="-0.534390">
        <time>2017-06-24T11:57:33Z</time>
      </trkpt>
      <trkpt lat="46.096620" lon="-0.534460">
        <time>2017-06-24T11:57:34Z</time>
      </trkpt>
      <trkpt lat="46.096950" lon="-0.534530">
        <time>2017-06-24T11:57:35Z</time>
      </trkpt>
      <trkpt lat="46.097230" lon="-0.534610">
        <time>2017-06-24T11:57:36Z</time>
      </trkpt>
      <trkpt lat="46.097540" lon="-0.534670">
        <time>2017-06-24T11:57:37Z</time>
      </trkpt>
      <trkpt lat="46.097850" lon="-0.534740">
        <time>2017-06-24T11:57:38Z</time>
      </trkpt>
      <trkpt lat="46.098170" lon="-0.534810">
        <time>2017-06-24T11:57:39Z</time>
      </trkpt>
      <trkpt lat="46.098500" lon="-0.534870">
        <time>2017-06-24T11:57:40Z</time>
      </trkpt>
      <trkpt lat="46.098800" lon="-0.534920">
        <time>2017-06-24T11:57:41Z</time>
      </trkpt>
      <trkpt lat="46.099110" lon="-0.534970">
        <time>2017-06-24T11:57:42Z</time>
      </trkpt>
      <trkpt lat="46.099450" lon="-0.535020">
        <time>2017-06-24T11:57:43Z</time>
      </trkpt>
      <trkpt lat="46.099740" lon="-0.535070">
        <time>2017-06-24T11:57:44Z</time>
      </trkpt>
      <trkpt lat="46.100060" lon="-0.535110">
        <time>2017-06-24T11:57:45Z</time>
      </trkpt>
      <trkpt lat="46.100390" lon="-0.535140">
        <time>2017-06-24T11:57:46Z</time>
      </trkpt>
      <trkpt lat="46.100680" lon="-0.535160">
        <time>2017-06-24T11:57:47Z</time>
      </trkpt>
      <trkpt lat="46.101020" lon="-0.535190">
        <time>2017-06-24T11:57:48Z</time>
      </trkpt>
      <trkpt lat="46.101320" lon="-0.535220">
        <time>2017-06-24T11:57:49Z</time>
      </trkpt>
      <trkpt lat="46.101630" lon="-0.535240">
        <time>2017-06-24T11:57:50Z</time>
      </trkpt>
      <trkpt lat="46.101980" lon="-0.535270">
        <time>2017-06-24T11:57:51Z</time>
      </trkpt>
      <trkpt lat="46.102270" lon="-0.535280">
        <time>2017-06-24T11:57:52Z</time>
      </trkpt>
      <trkpt lat="46.102590" lon="-0.535300">
        <time>2017-06-24T11:57:53Z</time>
      </trkpt>
      <trkpt lat="46.102920" lon="-0.535320">
        <time>2017-06-24T11:57:54Z</time>
      </trkpt>
      <trkpt lat="46.103240" lon="-0.535330">
        <time>2017-06-24T11:57:55Z</time>
      </trkpt>
      <trkpt lat="46.103580" lon="-0.535340">
        <time>2017-06-24T11:57:56Z</time>
      </trkpt>
      <trkpt lat="46.103880" lon="-0.535340">
        <time>2017-06-24T11:57:57Z</time>
      </trkpt>
      <trkpt lat="46.104200" lon="-0.535340">
        <time>2017-06-24T11:57:58Z</time>
      </trkpt>
      <trkpt lat="46.104540" lon="-0.535340">
        <time>2017-06-24T11:57:59Z</time>
      </trkpt>
      <trkpt lat="46.104840" lon="-0.535330">
        <time>2017-06-24T11:58:00Z</time>
      </trkpt>
      <trkpt lat="46.105160" lon="-0.535320">
        <time>2017-06-24T11:58:01Z</time>
      </trkpt>
      <trkpt lat="46.105490" lon="-0.535320">
        <time>2017-06-24T11:58:02Z</time>
      </trkpt>
      <trkpt lat="46.105790" lon="-0.535300">
        <time>2017-06-24T11:58:03Z</time>
      </trkpt>
      <trkpt lat="46.106120" lon="-0.535290">
        <time>2017-06-24T11:58:04Z</time>
      </trkpt>
      <trkpt lat="46.106420" lon="-0.535270">
        <time>2017-06-24T11:58:05Z</time>
      </trkpt>
      <trkpt lat="46.106740" lon="-0.535250">
        <time>2017-06-24T11:58:06Z</time>
      </trkpt>
      <trkpt lat="46.107070" lon="-0.535220">
        <time>2017-06-24T11:58:07Z</time>
      </trkpt>
      <trkpt lat="46.107360" lon="-0.535190">
        <time>2017-06-24T11:58:08Z</time>
      </trkpt>
      <trkpt lat="46.107680" lon="-0.535150">
        <time>2017-06-24T11:58:09Z</time>
      </trkpt>
      <trkpt lat="46.107990" lon="-0.535110">
        <time>2017-06-24T11:58:10Z</time>
      </trkpt>
      <trkpt lat="46.108300" lon="-0.535070">
        <time>2017-06-24T11:58:11Z</time>
      </trkpt>
      <trkpt lat="46.108640" lon="-0.535030">
        <time>2017-06-24T11:58:12Z</time>
      </trkpt>
      <trkpt lat="46.108930" lon="-0.534980">
        <time>2017-06-24T11:58:13Z</time>
      </trkpt>
      <trkpt lat="46.109250" lon="-0.534930">
        <time>2017-06-24T11:58:14Z</time>
      </trkpt>
      <trkpt lat="46.109580" lon="-0.534860">
        <time>2017-06-24T11:58:15Z</time>
      </trkpt>
      <trkpt lat="46.109880" lon="-0.534810">
        <time>2017-06-24T11:58:16Z</time>
      </trkpt>
      <trkpt lat="46.110190" lon="-0.534740">
        <time>2017-06-24T11:58:17Z</time>
      </trkpt>
      <trkpt lat="46.110510" lon="-0.534670">
        <time>2017-06-24T11:58:18Z</time>
      </trkpt>
      <trkpt lat="46.110800" lon="-0.534620">
        <time>2017-06-24T11:58:19Z</time>
      </trkpt>
      <trkpt lat="46.111110" lon="-0.534570">
        <time>2017-06-24T11:58:20Z</time>
      </trkpt>
      <trkpt lat="46.111390" lon="-0.534510">
        <time>2017-06-24T11:58:21Z</time>
      </trkpt>
      <trkpt lat="46.111690" lon="-0.534460">
        <time>2017-06-24T11:58:22Z</time>
      </trkpt>
      <trkpt lat="46.112000" lon="-0.534380">
        <time>2017-06-24T11:58:23Z</time>
      </trkpt>
      <trkpt lat="46.112280" lon="-0.534320">
        <time>2017-06-24T11:58:24Z</time>
      </trkpt>
      <trkpt lat="46.112580" lon="-0.534250">
        <time>2017-06-24T11:58:25Z</time>
      </trkpt>
      <trkpt lat="46.112880" lon="-0.534180">
        <time>2017-06-24T11:58:26Z</time>
      </trkpt>
      <trkpt lat="46.113180" lon="-0.534120">
        <time>2017-06-24T11:58:27Z</time>
      </trkpt>
      <trkpt lat="46.113510" lon="-0.534050">
        <time>2017-06-24T11:58:28Z</time>
      </trkpt>
      <trkpt lat="46.113800" lon="-0.533990">
        <time>2017-06-24T11:58:29Z</time>
      </trkpt>
      <trkpt lat="46.114100" lon="-0.533920">
        <time>2017-06-24T11:58:30Z</time>
      </trkpt>
      <trkpt lat="46.114430" lon="-0.533870">
        <time>2017-06-24T11:58:31Z</time>
      </trkpt>
      <trkpt lat="46.114720" lon="-0.533810">
        <time>2017-06-24T11:58:32Z</time>
      </trkpt>
      <trkpt lat="46.115040" lon="-0.533750">
        <time>2017-06-24T11:58:33Z</time>
      </trkpt>
      <trkpt lat="46.115370" lon="-0.533680">
        <time>2017-06-24T11:58:34Z</time>
      </trkpt>
      <trkpt lat="46.115670" lon="-0.533620">
        <time>2017-06-24T11:58:35Z</time>
      </trkpt>
      <trkpt lat="46.116000" lon="-0.533540">
        <time>2017-06-24T11:58:36Z</time>
      </trkpt>
      <trkpt lat="46.116290" lon="-0.533470">
        <time>2017-06-24T11:58:37Z</time>
      </trkpt>
      <trkpt lat="46.116600" lon="-0.533400">
        <time>2017-06-24T11:58:38Z</time>
      </trkpt>
      <trkpt lat="46.116930" lon="-0.533320">
        <time>2017-06-24T11:58:39Z</time>
      </trkpt>
      <trkpt lat="46.117220" lon="-0.533250">
        <time>2017-06-24T11:58:40Z</time>
      </trkpt>
      <trkpt lat="46.117530" lon="-0.533180">
        <time>2017-06-24T11:58:41Z</time>
      </trkpt>
      <trkpt lat="46.117840" lon="-0.533110">
        <time>2017-06-24T11:58:42Z</time>
      </trkpt>
      <trkpt lat="46.118160" lon="-0.533040">
        <time>2017-06-24T11:58:43Z</time>
      </trkpt>
      <trkpt lat="46.118490" lon="-0.532970">
        <time>2017-06-24T11:58:44Z</time>
      </trkpt>
      <trkpt lat="46.118780" lon="-0.532910">
        <time>2017-06-24T11:58:45Z</time>
      </trkpt>
      <trkpt lat="46.119100" lon="-0.532840">
        <time>2017-06-24T11:58:46Z</time>
      </trkpt>
      <trkpt lat="46.119420" lon="-0.532750">
        <time>2017-06-24T11:58:47Z</time>
      </trkpt>
      <trkpt lat="46.119710" lon="-0.532680">
        <time>2017-06-24T11:58:48Z</time>
      </trkpt>
      <trkpt lat="46.120020" lon="-0.532590">
        <time>2017-06-24T11:58:49Z</time>
      </trkpt>
      <trkpt lat="46.120340" lon="-0.532510">
        <time>2017-06-24T11:58:50Z</time>
      </trkpt>
      <trkpt lat="46.120630" lon="-0.532440">
        <time>2017-06-24T11:58:51Z</time>
      </trkpt>
      <trkpt lat="46.120950" lon="-0.532360">
        <time>2017-06-24T11:58:52Z</time>
      </trkpt>
      <trkpt lat="46.121240" lon="-0.532290">
        <time>2017-06-24T11:58:53Z</time>
      </trkpt>
      <trkpt lat="46.121540" lon="-0.532220">
        <time>2017-06-24T11:58:54Z</time>
      </trkpt>
      <trkpt lat="46.121870" lon="-0.532150">
        <time>2017-06-24T11:58:55Z</time>
      </trkpt>
      <trkpt lat="46.122150" lon="-0.532080">
        <time>2017-06-24T11:58:56Z</time>
      </trkpt>
      <trkpt lat="46.122460" lon="-0.532010">
        <time>2017-06-24T11:58:57Z</time>
      </trkpt>
      <trkpt lat="46.122770" lon="-0.531940">
        <time>2017-06-24T11:58:58Z</time>
      </trkpt>
      <trkpt lat="46.123080" lon="-0.531870">
        <time>2017-06-24T11:58:59Z</time>
      </trkpt>
      <trkpt lat="46.123420" lon="-0.531800">
        <time>2017-06-24T11:59:00Z</time>
      </trkpt>
      <trkpt lat="46.123710" lon="-0.531740">
        <time>2017-06-24T11:59:01Z</time>
      </trkpt>
      <trkpt lat="46.124020" lon="-0.531670">
        <time>2017-06-24T11:59:02Z</time>
      </trkpt>
      <trkpt lat="46.124360" lon="-0.531600">
        <time>2017-06-24T11:59:03Z</time>
      </trkpt>
      <trkpt lat="46.124660" lon="-0.531530">
        <time>2017-06-24T11:59:04Z</time>
      </trkpt>
      <trkpt lat="46.124990" lon="-0.531460">
        <time>2017-06-24T11:59:05Z</time>
      </trkpt>
      <trkpt lat="46.125330" lon="-0.531380">
        <time>2017-06-24T11:59:06Z</time>
      </trkpt>
      <trkpt lat="46.125620" lon="-0.531320">
        <time>2017-06-24T11:59:07Z</time>
      </trkpt>
      <trkpt lat="46.125950" lon="-0.531250">
        <time>2017-06-24T11:59:08Z</time>
      </trkpt>
      <trkpt lat="46.126230" lon="-0.531170">
        <time>2017-06-24T11:59:09Z</time>
      </trkpt>
      <trkpt lat="46.126550" lon="-0.531090">
        <time>2017-06-24T11:59:10Z</time>
      </trkpt>
      <trkpt lat="46.126870" lon="-0.531010">
        <time>2017-06-24T11:59:11Z</time>
      </trkpt>
      <trkpt lat="46.127150" lon="-0.530950">
        <time>2017-06-24T11:59:12Z</time>
      </trkpt>
      <trkpt lat="46.127450" lon="-0.530880">
        <time>2017-06-24T11:59:13Z</time>
      </trkpt>
      <trkpt lat="46.127750" lon="-0.530810">
        <time>2017-06-24T11:59:14Z</time>
      </trkpt>
      <trkpt lat="46.128040" lon="-0.530750">
        <time>2017-06-24T11:59:15Z</time>
      </trkpt>
      <trkpt lat="46.128350" lon="-0.530670">
        <time>2017-06-24T11:59:16Z</time>
      </trkpt>
      <trkpt lat="46.128630" lon="-0.530600">
        <time>2017-06-24T11:59:17Z</time>
      </trkpt>
      <trkpt lat="46.128920" lon="-0.530540">
        <time>2017-06-24T11:59:18Z</time>
      </trkpt>
      <trkpt lat="46.129220" lon="-0.530470">
        <time>2017-06-24T11:59:19Z</time>
      </trkpt>
      <trkpt lat="46.129500" lon="-0.530410">
        <time>2017-06-24T11:59:20Z</time>
      </trkpt>
      <trkpt lat="46.129790" lon="-0.530340">
        <time>2017-06-24T11:59:21Z</time>
      </trkpt>
      <trkpt lat="46.130100" lon="-0.530270">
        <time>2017-06-24T11:59:22Z</time>
      </trkpt>
      <trkpt lat="46.130370" lon="-0.530210">
        <time>2017-06-24T11:59:23Z</time>
      </trkpt>
      <trkpt lat="46.130670" lon="-0.530140">
        <time>2017-06-24T11:59:24Z</time>
      </trkpt>
      <trkpt lat="46.130940" lon="-0.530080">
        <time>2017-06-24T11:59:25Z</time>
      </trkpt>
      <trkpt lat="46.131230" lon="-0.530000">
        <time>2017-06-24T11:59:26Z</time>
      </trkpt>
      <trkpt lat="46.131550" lon="-0.529930">
        <time>2017-06-24T11:59:27Z</time>
      </trkpt>
      <trkpt lat="46.131820" lon="-0.529860">
        <time>2017-06-24T11:59:28Z</time>
      </trkpt>
      <trkpt lat="46.132110" lon="-0.529780">
        <time>2017-06-24T11:59:29Z</time>
      </trkpt>
      <trkpt lat="46.132400" lon="-0.529700">
        <time>2017-06-24T11:59:30Z</time>
      </trkpt>
      <trkpt lat="46.132690" lon="-0.529620">
        <time>2017-06-24T11:59:31Z</time>
      </trkpt>
      <trkpt lat="46.133000" lon="-0.529540">
        <time>2017-06-24T11:59:32Z</time>
      </trkpt>
      <trkpt lat="46.133260" lon="-0.529470">
        <time>2017-06-24T11:59:33Z</time>
      </trkpt>
      <trkpt lat="46.133540" lon="-0.529390">
        <time>2017-06-24T11:59:34Z</time>
      </trkpt>
      <trkpt lat="46.133850" lon="-0.529300">
        <time>2017-06-24T11:59:35Z</time>
      </trkpt>
      <trkpt lat="46.134120" lon="-0.529220">
        <time>2017-06-24T11:59:36Z</time>
      </trkpt>
      <trkpt lat="46.134410" lon="-0.529130">
        <time>2017-06-24T11:59:37Z</time>
      </trkpt>
      <trkpt lat="46.134710" lon="-0.529030">
        <time>2017-06-24T11:59:38Z</time>
      </trkpt>
      <trkpt lat="46.134990" lon="-0.528930">
        <time>2017-06-24T11:59:39Z</time>
      </trkpt>
      <trkpt lat="46.135290" lon="-0.528830">
        <time>2017-06-24T11:59:40Z</time>
      </trkpt>
      <trkpt lat="46.135570" lon="-0.528740">
        <time>2017-06-24T11:59:41Z</time>
      </trkpt>
      <trkpt lat="46.135850" lon="-0.528640">
        <time>2017-06-24T11:59:42Z</time>
      </trkpt>
      <trkpt lat="46.136160" lon="-0.528520">
        <time>2017-06-24T11:59:43Z</time>
      </trkpt>
      <trkpt lat="46.136430" lon="-0.528420">
        <time>2017-06-24T11:59:44Z</time>
      </trkpt>
      <trkpt lat="46.136730" lon="-0.528310">
        <time>2017-06-24T11:59:45Z</time>
      </trkpt>
      <trkpt lat="46.137030" lon="-0.528200">
        <time>2017-06-24T11:59:46Z</time>
      </trkpt>
      <trkpt lat="46.137340" lon="-0.528080">
        <time>2017-06-24T11:59:47Z</time>
      </trkpt>
      <trkpt lat="46.137670" lon="-0.527950">
        <time>2017-06-24T11:59:48Z</time>
      </trkpt>
      <trkpt lat="46.137960" lon="-0.527840">
        <time>2017-06-24T11:59:49Z</time>
      </trkpt>
      <trkpt lat="46.138270" lon="-0.527700">
        <time>2017-06-24T11:59:50Z</time>
      </trkpt>
      <trkpt lat="46.138600" lon="-0.527570">
        <time>2017-06-24T11:59:51Z</time>
      </trkpt>
      <trkpt lat="46.138900" lon="-0.527430">
        <time>2017-06-24T11:59:52Z</time>
      </trkpt>
      <trkpt lat="46.139210" lon="-0.527290">
        <time>2017-06-24T11:59:53Z</time>
      </trkpt>
      <trkpt lat="46.139550" lon="-0.527130">
        <time>2017-06-24T11:59:54Z</time>
      </trkpt>
      <trkpt lat="46.139840" lon="-0.526990">
        <time>2017-06-24T11:59:55Z</time>
      </trkpt>
      <trkpt lat="46.140160" lon="-0.526820">
        <time>2017-06-24T11:59:56Z</time>
      </trkpt>
      <trkpt lat="46.140450" lon="-0.526660">
        <time>2017-06-24T11:59:57Z</time>
      </trkpt>
      <trkpt lat="46.140760" lon="-0.526500">
        <time>2017-06-24T11:59:58Z</time>
      </trkpt>
      <trkpt lat="46.141080" lon="-0.526310">
        <time>2017-06-24T11:59:59Z</time>
      </trkpt>
      <trkpt lat="46.141360" lon="-0.526160">
        <time>2017-06-24T12:00:00Z</time>
      </trkpt>
      <trkpt lat="46.141670" lon="-0.525990">
        <time>2017-06-24T12:00:01Z</time>
      </trkpt>
      <trkpt lat="46.141980" lon="-0.525800">
        <time>2017-06-24T12:00:02Z</time>
      </trkpt>
      <trkpt lat="46.142280" lon="-0.525620">
        <time>2017-06-24T12:00:03Z</time>
      </trkpt>
      <trkpt lat="46.142600" lon="-0.525420">
        <time>2017-06-24T12:00:04Z</time>
      </trkpt>
      <trkpt lat="46.142880" lon="-0.525230">
        <time>2017-06-24T12:00:05Z</time>
      </trkpt>
      <trkpt lat="46.143170" lon="-0.525030">
        <time>2017-06-24T12:00:06Z</time>
      </trkpt>
      <trkpt lat="46.143490" lon="-0.524820">
        <time>2017-06-24T12:00:07Z</time>
      </trkpt>
      <trkpt lat="46.143770" lon="-0.524640">
        <time>2017-06-24T12:00:08Z</time>
      </trkpt>
      <trkpt lat="46.144060" lon="-0.524450">
        <time>2017-06-24T12:00:09Z</time>
      </trkpt>
      <trkpt lat="46.144370" lon="-0.524240">
        <time>2017-06-24T12:00:10Z</time>
      </trkpt>
      <trkpt lat="46.144650" lon="-0.524060">
        <time>2017-06-24T12:00:11Z</time>
      </trkpt>
      <trkpt lat="46.144970" lon="-0.523840">
        <time>2017-06-24T12:00:12Z</time>
      </trkpt>
      <trkpt lat="46.145250" lon="-0.523640">
        <time>2017-06-24T12:00:13Z</time>
      </trkpt>
      <trkpt lat="46.145540" lon="-0.523440">
        <time>2017-06-24T12:00:14Z</time>
      </trkpt>
      <trkpt lat="46.145860" lon="-0.523240">
        <time>2017-06-24T12:00:15Z</time>
      </trkpt>
      <trkpt lat="46.146130" lon="-0.523060">
        <time>2017-06-24T12:00:16Z</time>
      </trkpt>
      <trkpt lat="46.146420" lon="-0.522840">
        <time>2017-06-24T12:00:17Z</time>
      </trkpt>
      <trkpt lat="46.146720" lon="-0.522650">
        <time>2017-06-24T12:00:18Z</time>
      </trkpt>
      <trkpt lat="46.147010" lon="-0.522450">
        <time>2017-06-24T12:00:19Z</time>
      </trkpt>
      <trkpt lat="46.147320" lon="-0.522240">
        <time>2017-06-24T12:00:20Z</time>
      </trkpt>
      <trkpt lat="46.147590" lon="-0.522060">
        <time>2017-06-24T12:00:21Z</time>
      </trkpt>
      <trkpt lat="46.147890" lon="-0.521870">
        <time>2017-06-24T12:00:22Z</time>
      </trkpt>
      <trkpt lat="46.148200" lon="-0.521650">
        <time>2017-06-24T12:00:23Z</time>
      </trkpt>
      <trkpt lat="46.148470" lon="-0.521470">
        <time>2017-06-24T12:00:24Z</time>
      </trkpt>
      <trkpt lat="46.148770" lon="-0.521270">
        <time>2017-06-24T12:00:25Z</time>
      </trkpt>
      <trkpt lat="46.149080" lon="-0.521060">
        <time>2017-06-24T12:00:26Z</time>
      </trkpt>
      <trkpt lat="46.149350" lon="-0.520870">
        <time>2017-06-24T12:00:27Z</time>
      </trkpt>
      <trkpt lat="46.149660" lon="-0.520670">
        <time>2017-06-24T12:00:28Z</time>
      </trkpt>
      <trkpt lat="46.149940" lon="-0.520500">
        <time>2017-06-24T12:00:29Z</time>
      </trkpt>
      <trkpt lat="46.150230" lon="-0.520310">
        <time>2017-06-24T12:00:30Z</time>
      </trkpt>
      <trkpt lat="46.150540" lon="-0.520110">
        <time>2017-06-24T12:00:31Z</time>
      </trkpt>
      <trkpt lat="46.150820" lon="-0.519940">
        <time>2017-06-24T12:00:32Z</time>
      </trkpt>
      <trkpt lat="46.151110" lon="-0.519750">
        <time>2017-06-24T12:00:33Z</time>
      </trkpt>
      <trkpt lat="46.151410" lon="-0.519570">
        <time>2017-06-24T12:00:34Z</time>
      </trkpt>
      <trkpt lat="46.151710" lon="-0.519380">
        <time>2017-06-24T12:00:35Z</time>
      </trkpt>
      <trkpt lat="46.152020" lon="-0.519180">
        <time>2017-06-24T12:00:36Z</time>
      </trkpt>
      <trkpt lat="46.152290" lon="-0.519020">
        <time>2017-06-24T12:00:37Z</time>
      </trkpt>
      <trkpt lat="46.152600" lon="-0.518840">
        <time>2017-06-24T12:00:38Z</time>
      </trkpt>
      <trkpt lat="46.152910" lon="-0.518670">
        <time>2017-06-24T12:00:39Z</time>
      </trkpt>
      <trkpt lat="46.153190" lon="-0.518520">
        <time>2017-06-24T12:00:40Z</time>
      </trkpt>
      <trkpt lat="46.153490" lon="-0.518360">
        <time>2017-06-24T12:00:41Z</time>
      </trkpt>
      <trkpt lat="46.153800" lon="-0.518180">
        <time>2017-06-24T12:00:42Z</time>
      </trkpt>
      <trkpt lat="46.154070" lon="-0.518030">
        <time>2017-06-24T12:00:43Z</time>
      </trkpt>
      <trkpt lat="46.154370" lon="-0.517860">
        <time>2017-06-24T12:00:44Z</time>
      </trkpt>
      <trkpt lat="46.154620" lon="-0.517710">
        <time>2017-06-24T12:00:45Z</time>
      </trkpt>
      <trkpt lat="46.154890" lon="-0.517550">
        <time>2017-06-24T12:00:46Z</time>
      </trkpt>
      <trkpt lat="46.155180" lon="-0.517400">
        <time>2017-06-24T12:00:47Z</time>
      </trkpt>
      <trkpt lat="46.155440" lon="-0.517270">
        <time>2017-06-24T12:00:48Z</time>
      </trkpt>
      <trkpt lat="46.155720" lon="-0.517140">
        <time>2017-06-24T12:00:49Z</time>
      </trkpt>
      <trkpt lat="46.156000" lon="-0.517000">
        <time>2017-06-24T12:00:50Z</time>
      </trkpt>
      <trkpt lat="46.156280" lon="-0.516860">
        <time>2017-06-24T12:00:51Z</time>
      </trkpt>
      <trkpt lat="46.156570" lon="-0.516720">
        <time>2017-06-24T12:00:52Z</time>
      </trkpt>
      <trkpt lat="46.156830" lon="-0.516600">
        <time>2017-06-24T12:00:53Z</time>
      </trkpt>
      <trkpt lat="46.157110" lon="-0.516460">
        <time>2017-06-24T12:00:54Z</time>
      </trkpt>
      <trkpt lat="46.157390" lon="-0.516320">
        <time>2017-06-24T12:00:55Z</time>
      </trkpt>
      <trkpt lat="46.157640" lon="-0.516200">
        <time>2017-06-24T12:00:56Z</time>
      </trkpt>
      <trkpt lat="46.157930" lon="-0.516070">
        <time>2017-06-24T12:00:57Z</time>
      </trkpt>
      <trkpt lat="46.158220" lon="-0.515940">
        <time>2017-06-24T12:00:58Z</time>
      </trkpt>
      <trkpt lat="46.158480" lon="-0.515830">
        <time>2017-06-24T12:00:59Z</time>
      </trkpt>
      <trkpt lat="46.158780" lon="-0.515700">
        <time>2017-06-24T12:01:00Z</time>
      </trkpt>
      <trkpt lat="46.159030" lon="-0.515580">
        <time>2017-06-24T12:01:01Z</time>
      </trkpt>
      <trkpt lat="46.159310" lon="-0.515460">
        <time>2017-06-24T12:01:02Z</time>
      </trkpt>
      <trkpt lat="46.159600" lon="-0.515330">
        <time>2017-06-24T12:01:03Z</time>
      </trkpt>
      <trkpt lat="46.159860" lon="-0.515210">
        <time>2017-06-24T12:01:04Z</time>
      </trkpt>
      <trkpt lat="46.160130" lon="-0.515080">
        <time>2017-06-24T12:01:05Z</time>
      </trkpt>
      <trkpt lat="46.160410" lon="-0.514950">
        <time>2017-06-24T12:01:06Z</time>
      </trkpt>
      <trkpt lat="46.160690" lon="-0.514820">
        <time>2017-06-24T12:01:07Z</time>
      </trkpt>
      <trkpt lat="46.160990" lon="-0.514680">
        <time>2017-06-24T12:01:08Z</time>
      </trkpt>
      <trkpt lat="46.161250" lon="-0.514550">
        <time>2017-06-24T12:01:09Z</time>
      </trkpt>
      <trkpt lat="46.161530" lon="-0.514410">
        <time>2017-06-24T12:01:10Z</time>
      </trkpt>
      <trkpt lat="46.161830" lon="-0.514260">
        <time>2017-06-24T12:01:11Z</time>
      </trkpt>
      <trkpt lat="46.162080" lon="-0.514140">
        <time>2017-06-24T12:01:12Z</time>
      </trkpt>
      <trkpt lat="46.162360" lon="-0.514020">
        <time>2017-06-24T12:01:13Z</time>
      </trkpt>
      <trkpt lat="46.162650" lon="-0.513870">
        <time>2017-06-24T12:01:14Z</time>
      </trkpt>
      <trkpt lat="46.162900" lon="-0.513750">
        <time>2017-06-24T12:01:15Z</time>
      </trkpt>
      <trkpt lat="46.163190" lon="-0.513630">
        <time>2017-06-24T12:01:16Z</time>
      </trkpt>
      <trkpt lat="46.163450" lon="-0.513500">
        <time>2017-06-24T12:01:17Z</time>
      </trkpt>
      <trkpt lat="46.163730" lon="-0.513380">
        <time>2017-06-24T12:01:18Z</time>
      </trkpt>
      <trkpt lat="46.164020" lon="-0.513240">
        <time>2017-06-24T12:01:19Z</time>
      </trkpt>
      <trkpt lat="46.164280" lon="-0.513130">
        <time>2017-06-24T12:01:20Z</time>
      </trkpt>
      <trkpt lat="46.164560" lon="-0.512990">
        <time>2017-06-24T12:01:21Z</time>
      </trkpt>
      <trkpt lat="46.164830" lon="-0.512860">
        <time>2017-06-24T12:01:22Z</time>
      </trkpt>
      <trkpt lat="46.165100" lon="-0.512730">
        <time>2017-06-24T12:01:23Z</time>
      </trkpt>
      <trkpt lat="46.165390" lon="-0.512570">
        <time>2017-06-24T12:01:24Z</time>
      </trkpt>
      <trkpt lat="46.165640" lon="-0.512440">
        <time>2017-06-24T12:01:25Z</time>
      </trkpt>
      <trkpt lat="46.165920" lon="-0.512300">
        <time>2017-06-24T12:01:26Z</time>
      </trkpt>
      <trkpt lat="46.166200" lon="-0.512150">
        <time>2017-06-24T12:01:27Z</time>
      </trkpt>
      <trkpt lat="46.166460" lon="-0.512020">
        <time>2017-06-24T12:01:28Z</time>
      </trkpt>
      <trkpt lat="46.166720" lon="-0.511870">
        <time>2017-06-24T12:01:29Z</time>
      </trkpt>
      <trkpt lat="46.167010" lon="-0.511710">
        <time>2017-06-24T12:01:30Z</time>
      </trkpt>
      <trkpt lat="46.167260" lon="-0.511580">
        <time>2017-06-24T12:01:31Z</time>
      </trkpt>
      <trkpt lat="46.167540" lon="-0.511410">
        <time>2017-06-24T12:01:32Z</time>
      </trkpt>
      <trkpt lat="46.167790" lon="-0.511270">
        <time>2017-06-24T12:01:33Z</time>
      </trkpt>
      <trkpt lat="46.168060" lon="-0.511100">
        <time>2017-06-24T12:01:34Z</time>
      </trkpt>
      <trkpt lat="46.168340" lon="-0.510930">
        <time>2017-06-24T12:01:35Z</time>
      </trkpt>
      <trkpt lat="46.168590" lon="-0.510780">
        <time>2017-06-24T12:01:36Z</time>
      </trkpt>
      <trkpt lat="46.168850" lon="-0.510620">
        <time>2017-06-24T12:01:37Z</time>
      </trkpt>
      <trkpt lat="46.169110" lon="-0.510450">
        <time>2017-06-24T12:01:38Z</time>
      </trkpt>
      <trkpt lat="46.169380" lon="-0.510270">
        <time>2017-06-24T12:01:39Z</time>
      </trkpt>
      <trkpt lat="46.169660" lon="-0.510090">
        <time>2017-06-24T12:01:40Z</time>
      </trkpt>
      <trkpt lat="46.169910" lon="-0.509920">
        <time>2017-06-24T12:01:41Z</time>
      </trkpt>
      <trkpt lat="46.170180" lon="-0.509740">
        <time>2017-06-24T12:01:42Z</time>
      </trkpt>
      <trkpt lat="46.170480" lon="-0.509550">
        <time>2017-06-24T12:01:43Z</time>
      </trkpt>
      <trkpt lat="46.170740" lon="-0.509380">
        <time>2017-06-24T12:01:44Z</time>
      </trkpt>
      <trkpt lat="46.171010" lon="-0.509190">
        <time>2017-06-24T12:01:45Z</time>
      </trkpt>
      <trkpt lat="46.171300" lon="-0.508980">
        <time>2017-06-24T12:01:46Z</time>
      </trkpt>
      <trkpt lat="46.171550" lon="-0.508800">
        <time>2017-06-24T12:01:47Z</time>
      </trkpt>
      <trkpt lat="46.171830" lon="-0.508590">
        <time>2017-06-24T12:01:48Z</time>
      </trkpt>
      <trkpt lat="46.172080" lon="-0.508410">
        <time>2017-06-24T12:01:49Z</time>
      </trkpt>
      <trkpt lat="46.172340" lon="-0.508210">
        <time>2017-06-24T12:01:50Z</time>
      </trkpt>
      <trkpt lat="46.172620" lon="-0.508000">
        <time>2017-06-24T12:01:51Z</time>
      </trkpt>
      <trkpt lat="46.172870" lon="-0.507810">
        <time>2017-06-24T12:01:52Z</time>
      </trkpt>
      <trkpt lat="46.173130" lon="-0.507600">
        <time>2017-06-24T12:01:53Z</time>
      </trkpt>
      <trkpt lat="46.173390" lon="-0.507390">
        <time>2017-06-24T12:01:54Z</time>
      </trkpt>
      <trkpt lat="46.173650" lon="-0.507190">
        <time>2017-06-24T12:01:55Z</time>
      </trkpt>
      <trkpt lat="46.173930" lon="-0.506970">
        <time>2017-06-24T12:01:56Z</time>
      </trkpt>
      <trkpt lat="46.174170" lon="-0.506760">
        <time>2017-06-24T12:01:57Z</time>
      </trkpt>
      <trkpt lat="46.174430" lon="-0.506540">
        <time>2017-06-24T12:01:58Z</time>
      </trkpt>
      <trkpt lat="46.174710" lon="-0.506310">
        <time>2017-06-24T12:01:59Z</time>
      </trkpt>
      <trkpt lat="46.174950" lon="-0.506100">
        <time>2017-06-24T12:02:00Z</time>
      </trkpt>
      <trkpt lat="46.175210" lon="-0.505880">
        <time>2017-06-24T12:02:01Z</time>
      </trkpt>
      <trkpt lat="46.175480" lon="-0.505650">
        <time>2017-06-24T12:02:02Z</time>
      </trkpt>
      <trkpt lat="46.175720" lon="-0.505440">
        <time>2017-06-24T12:02:03Z</time>
      </trkpt>
      <trkpt lat="46.175990" lon="-0.505200">
        <time>2017-06-24T12:02:04Z</time>
      </trkpt>
      <trkpt lat="46.176220" lon="-0.504980">
        <time>2017-06-24T12:02:05Z</time>
      </trkpt>
      <trkpt lat="46.176480" lon="-0.504750">
        <time>2017-06-24T12:02:06Z</time>
      </trkpt>
      <trkpt lat="46.176750" lon="-0.504500">
        <time>2017-06-24T12:02:07Z</time>
      </trkpt>
      <trkpt lat="46.176990" lon="-0.504280">
        <time>2017-06-24T12:02:08Z</time>
      </trkpt>
      <trkpt lat="46.177250" lon="-0.504050">
        <time>2017-06-24T12:02:09Z</time>
      </trkpt>
      <trkpt lat="46.177510" lon="-0.503800">
        <time>2017-06-24T12:02:10Z</time>
      </trkpt>
      <trkpt lat="46.177760" lon="-0.503560">
        <time>2017-06-24T12:02:11Z</time>
      </trkpt>
      <trkpt lat="46.178040" lon="-0.503290">
        <time>2017-06-24T12:02:12Z</time>
      </trkpt>
      <trkpt lat="46.178280" lon="-0.503050">
        <time>2017-06-24T12:02:13Z</time>
      </trkpt>
      <trkpt lat="46.178530" lon="-0.502790">
        <time>2017-06-24T12:02:14Z</time>
      </trkpt>
      <trkpt lat="46.178810" lon="-0.502510">
        <time>2017-06-24T12:02:15Z</time>
      </trkpt>
      <trkpt lat="46.179050" lon="-0.502250">
        <time>2017-06-24T12:02:16Z</time>
      </trkpt>
      <trkpt lat="46.179310" lon="-0.501990">
        <time>2017-06-24T12:02:17Z</time>
      </trkpt>
      <trkpt lat="46.179580" lon="-0.501710">
        <time>2017-06-24T12:02:18Z</time>
      </trkpt>
      <trkpt lat="46.179810" lon="-0.501460">
        <time>2017-06-24T12:02:19Z</time>
      </trkpt>
      <trkpt lat="46.180070" lon="-0.501160">
        <time>2017-06-24T12:02:20Z</time>
      </trkpt>
      <trkpt lat="46.180300" lon="-0.500900">
        <time>2017-06-24T12:02:21Z</time>
      </trkpt>
      <trkpt lat="46.180550" lon="-0.500630">
        <time>2017-06-24T12:02:22Z</time>
      </trkpt>
      <trkpt lat="46.180800" lon="-0.500330">
        <time>2017-06-24T12:02:23Z</time>
      </trkpt>
      <trkpt lat="46.181020" lon="-0.500080">
        <time>2017-06-24T12:02:24Z</time>
      </trkpt>
      <trkpt lat="46.181260" lon="-0.499800">
        <time>2017-06-24T12:02:25Z</time>
      </trkpt>
      <trkpt lat="46.181490" lon="-0.499530">
        <time>2017-06-24T12:02:26Z</time>
      </trkpt>
      <trkpt lat="46.181710" lon="-0.499280">
        <time>2017-06-24T12:02:27Z</time>
      </trkpt>
      <trkpt lat="46.181950" lon="-0.499000">
        <time>2017-06-24T12:02:28Z</time>
      </trkpt>
      <trkpt lat="46.182160" lon="-0.498770">
        <time>2017-06-24T12:02:29Z</time>
      </trkpt>
      <trkpt lat="46.182380" lon="-0.498520">
        <time>2017-06-24T12:02:30Z</time>
      </trkpt>
      <trkpt lat="46.182620" lon="-0.498270">
        <time>2017-06-24T12:02:31Z</time>
      </trkpt>
      <trkpt lat="46.182820" lon="-0.498030">
        <time>2017-06-24T12:02:32Z</time>
      </trkpt>
      <trkpt lat="46.183040" lon="-0.497790">
        <time>2017-06-24T12:02:33Z</time>
      </trkpt>
      <trkpt lat="46.183270" lon="-0.497530">
        <time>2017-06-24T12:02:34Z</time>
      </trkpt>
      <trkpt lat="46.183470" lon="-0.497300">
        <time>2017-06-24T12:02:35Z</time>
      </trkpt>
      <trkpt lat="46.183700" lon="-0.497030">
        <time>2017-06-24T12:02:36Z</time>
      </trkpt>
      <trkpt lat="46.183910" lon="-0.496800">
        <time>2017-06-24T12:02:37Z</time>
      </trkpt>
      <trkpt lat="46.184120" lon="-0.496560">
        <time>2017-06-24T12:02:38Z</time>
      </trkpt>
      <trkpt lat="46.184350" lon="-0.496300">
        <time>2017-06-24T12:02:39Z</time>
      </trkpt>
      <trkpt lat="46.184550" lon="-0.496080">
        <time>2017-06-24T12:02:40Z</time>
      </trkpt>
      <trkpt lat="46.184760" lon="-0.495840">
        <time>2017-06-24T12:02:41Z</time>
      </trkpt>
      <trkpt lat="46.184970" lon="-0.495600">
        <time>2017-06-24T12:02:42Z</time>
      </trkpt>
      <trkpt lat="46.185180" lon="-0.495370">
        <time>2017-06-24T12:02:43Z</time>
      </trkpt>
      <trkpt lat="46.185410" lon="-0.495110">
        <time>2017-06-24T12:02:44Z</time>
      </trkpt>
      <trkpt lat="46.185610" lon="-0.494900">
        <time>2017-06-24T12:02:45Z</time>
      </trkpt>
      <trkpt lat="46.185810" lon="-0.494670">
        <time>2017-06-24T12:02:46Z</time>
      </trkpt>
      <trkpt lat="46.186030" lon="-0.494420">
        <time>2017-06-24T12:02:47Z</time>
      </trkpt>
      <trkpt lat="46.186220" lon="-0.494210">
        <time>2017-06-24T12:02:48Z</time>
      </trkpt>
      <trkpt lat="46.186420" lon="-0.493970">
        <time>2017-06-24T12:02:49Z</time>
      </trkpt>
      <trkpt lat="46.186640" lon="-0.493730">
        <time>2017-06-24T12:02:50Z</time>
      </trkpt>
      <trkpt lat="46.186820" lon="-0.493530">
        <time>2017-06-24T12:02:51Z</time>
      </trkpt>
      <trkpt lat="46.187030" lon="-0.493290">
        <time>2017-06-24T12:02:52Z</time>
      </trkpt>
      <trkpt lat="46.187220" lon="-0.493090">
        <time>2017-06-24T12:02:53Z</time>
      </trkpt>
      <trkpt lat="46.187420" lon="-0.492870">
        <time>2017-06-24T12:02:54Z</time>
      </trkpt>
      <trkpt lat="46.187650" lon="-0.492630">
        <time>2017-06-24T12:02:55Z</time>
      </trkpt>
      <trkpt lat="46.187840" lon="-0.492420">
        <time>2017-06-24T12:02:56Z</time>
      </trkpt>
      <trkpt lat="46.188060" lon="-0.492190">
        <time>2017-06-24T12:02:57Z</time>
      </trkpt>
      <trkpt lat="46.188270" lon="-0.491950">
        <time>2017-06-24T12:02:58Z</time>
      </trkpt>
      <trkpt lat="46.188480" lon="-0.491720">
        <time>2017-06-24T12:02:59Z</time>
      </trkpt>
      <trkpt lat="46.188700" lon="-0.491480">
        <time>2017-06-24T12:03:00Z</time>
      </trkpt>
      <trkpt lat="46.188890" lon="-0.491260">
        <time>2017-06-24T12:03:01Z</time>
      </trkpt>
      <trkpt lat="46.189090" lon="-0.491040">
        <time>2017-06-24T12:03:02Z</time>
      </trkpt>
      <trkpt lat="46.189300" lon="-0.490790">
        <time>2017-06-24T12:03:03Z</time>
      </trkpt>
      <trkpt lat="46.189490" lon="-0.490580">
        <time>2017-06-24T12:03:04Z</time>
      </trkpt>
      <trkpt lat="46.189700" lon="-0.490350">
        <time>2017-06-24T12:03:05Z</time>
      </trkpt>
      <trkpt lat="46.189910" lon="-0.490110">
        <time>2017-06-24T12:03:06Z</time>
      </trkpt>
      <trkpt lat="46.190110" lon="-0.489900">
        <time>2017-06-24T12:03:07Z</time>
      </trkpt>
      <trkpt lat="46.190330" lon="-0.489650">
        <time>2017-06-24T12:03:08Z</time>
      </trkpt>
      <trkpt lat="46.190530" lon="-0.489430">
        <time>2017-06-24T12:03:09Z</time>
      </trkpt>
      <trkpt lat="46.190740" lon="-0.489190">
        <time>2017-06-24T12:03:10Z</time>
      </trkpt>
      <trkpt lat="46.190970" lon="-0.488940">
        <time>2017-06-24T12:03:11Z</time>
      </trkpt>
      <trkpt lat="46.191160" lon="-0.488720">
        <time>2017-06-24T12:03:12Z</time>
      </trkpt>
      <trkpt lat="46.191370" lon="-0.488480">
        <time>2017-06-24T12:03:13Z</time>
      </trkpt>
      <trkpt lat="46.191590" lon="-0.488240">
        <time>2017-06-24T12:03:14Z</time>
      </trkpt>
      <trkpt lat="46.191800" lon="-0.487990">
        <time>2017-06-24T12:03:15Z</time>
      </trkpt>
      <trkpt lat="46.192030" lon="-0.487730">
        <time>2017-06-24T12:03:16Z</time>
      </trkpt>
      <trkpt lat="46.192240" lon="-0.487500">
        <time>2017-06-24T12:03:17Z</time>
      </trkpt>
      <trkpt lat="46.192470" lon="-0.487260">
        <time>2017-06-24T12:03:18Z</time>
      </trkpt>
      <trkpt lat="46.192700" lon="-0.486980">
        <time>2017-06-24T12:03:19Z</time>
      </trkpt>
      <trkpt lat="46.192900" lon="-0.486730">
        <time>2017-06-24T12:03:20Z</time>
      </trkpt>
      <trkpt lat="46.193120" lon="-0.486480">
        <time>2017-06-24T12:03:21Z</time>
      </trkpt>
      <trkpt lat="46.193350" lon="-0.486200">
        <time>2017-06-24T12:03:22Z</time>
      </trkpt>
      <trkpt lat="46.193550" lon="-0.485970">
        <time>2017-06-24T12:03:23Z</time>
      </trkpt>
      <trkpt lat="46.193790" lon="-0.485710">
        <time>2017-06-24T12:03:24Z</time>
      </trkpt>
      <trkpt lat="46.194000" lon="-0.485480">
        <time>2017-06-24T12:03:25Z</time>
      </trkpt>
      <trkpt lat="46.194210" lon="-0.485220">
        <time>2017-06-24T12:03:26Z</time>
      </trkpt>
      <trkpt lat="46.194450" lon="-0.484960">
        <time>2017-06-24T12:03:27Z</time>
      </trkpt>
      <trkpt lat="46.194660" lon="-0.484730">
        <time>2017-06-24T12:03:28Z</time>
      </trkpt>
      <trkpt lat="46.194880" lon="-0.484480">
        <time>2017-06-24T12:03:29Z</time>
      </trkpt>
      <trkpt lat="46.195100" lon="-0.484220">
        <time>2017-06-24T12:03:30Z</time>
      </trkpt>
      <trkpt lat="46.195320" lon="-0.483950">
        <time>2017-06-24T12:03:31Z</time>
      </trkpt>
      <trkpt lat="46.195550" lon="-0.483680">
        <time>2017-06-24T12:03:32Z</time>
      </trkpt>
      <trkpt lat="46.195760" lon="-0.483430">
        <time>2017-06-24T12:03:33Z</time>
      </trkpt>
      <trkpt lat="46.195980" lon="-0.483170">
        <time>2017-06-24T12:03:34Z</time>
      </trkpt>
      <trkpt lat="46.196210" lon="-0.482890">
        <time>2017-06-24T12:03:35Z</time>
      </trkpt>
      <trkpt lat="46.196410" lon="-0.482640">
        <time>2017-06-24T12:03:36Z</time>
      </trkpt>
      <trkpt lat="46.196620" lon="-0.482370">
        <time>2017-06-24T12:03:37Z</time>
      </trkpt>
      <trkpt lat="46.196850" lon="-0.482080">
        <time>2017-06-24T12:03:38Z</time>
      </trkpt>
      <trkpt lat="46.197050" lon="-0.481820">
        <time>2017-06-24T12:03:39Z</time>
      </trkpt>
      <trkpt lat="46.197280" lon="-0.481530">
        <time>2017-06-24T12:03:40Z</time>
      </trkpt>
      <trkpt lat="46.197490" lon="-0.481270">
        <time>2017-06-24T12:03:41Z</time>
      </trkpt>
      <trkpt lat="46.197700" lon="-0.480990">
        <time>2017-06-24T12:03:42Z</time>
      </trkpt>
      <trkpt lat="46.197930" lon="-0.480690">
        <time>2017-06-24T12:03:43Z</time>
      </trkpt>
      <trkpt lat="46.198130" lon="-0.480430">
        <time>2017-06-24T12:03:44Z</time>
      </trkpt>
      <trkpt lat="46.198350" lon="-0.480140">
        <time>2017-06-24T12:03:45Z</time>
      </trkpt>
      <trkpt lat="46.198560" lon="-0.479850">
        <time>2017-06-24T12:03:46Z</time>
      </trkpt>
      <trkpt lat="46.198790" lon="-0.479580">
        <time>2017-06-24T12:03:47Z</time>
      </trkpt>
      <trkpt lat="46.199020" lon="-0.479260">
        <time>2017-06-24T12:03:48Z</time>
      </trkpt>
      <trkpt lat="46.199220" lon="-0.478980">
        <time>2017-06-24T12:03:49Z</time>
      </trkpt>
      <trkpt lat="46.199440" lon="-0.478680">
        <time>2017-06-24T12:03:50Z</time>
      </trkpt>
      <trkpt lat="46.199670" lon="-0.478360">
        <time>2017-06-24T12:03:51Z</time>
      </trkpt>
      <trkpt lat="46.199870" lon="-0.478070">
        <time>2017-06-24T12:03:52Z</time>
      </trkpt>
      <trkpt lat="46.200080" lon="-0.477760">
        <time>2017-06-24T12:03:53Z</time>
      </trkpt>
      <trkpt lat="46.200300" lon="-0.477460">
        <time>2017-06-24T12:03:54Z</time>
      </trkpt>
      <trkpt lat="46.200480" lon="-0.477210">
        <time>2017-06-24T12:03:55Z</time>
      </trkpt>
      <trkpt lat="46.200680" lon="-0.476910">
        <time>2017-06-24T12:03:56Z</time>
      </trkpt>
      <trkpt lat="46.200860" lon="-0.476660">
        <time>2017-06-24T12:03:57Z</time>
      </trkpt>
      <trkpt lat="46.201040" lon="-0.476380">
        <time>2017-06-24T12:03:58Z</time>
      </trkpt>
      <trkpt lat="46.201240" lon="-0.476090">
        <time>2017-06-24T12:03:59Z</time>
      </trkpt>
      <trkpt lat="46.201420" lon="-0.475830">
        <time>2017-06-24T12:04:00Z</time>
      </trkpt>
      <trkpt lat="46.201610" lon="-0.475550">
        <time>2017-06-24T12:04:01Z</time>
      </trkpt>
      <trkpt lat="46.201790" lon="-0.475270">
        <time>2017-06-24T12:04:02Z</time>
      </trkpt>
      <trkpt lat="46.201980" lon="-0.474980">
        <time>2017-06-24T12:04:03Z</time>
      </trkpt>
      <trkpt lat="46.202180" lon="-0.474670">
        <time>2017-06-24T12:04:04Z</time>
      </trkpt>
      <trkpt lat="46.202360" lon="-0.474400">
        <time>2017-06-24T12:04:05Z</time>
      </trkpt>
      <trkpt lat="46.202550" lon="-0.474110">
        <time>2017-06-24T12:04:06Z</time>
      </trkpt>
      <trkpt lat="46.202740" lon="-0.473800">
        <time>2017-06-24T12:04:07Z</time>
      </trkpt>
      <trkpt lat="46.202920" lon="-0.473530">
        <time>2017-06-24T12:04:08Z</time>
      </trkpt>
      <trkpt lat="46.203110" lon="-0.473230">
        <time>2017-06-24T12:04:09Z</time>
      </trkpt>
      <trkpt lat="46.203300" lon="-0.472920">
        <time>2017-06-24T12:04:10Z</time>
      </trkpt>
      <trkpt lat="46.203480" lon="-0.472650">
        <time>2017-06-24T12:04:11Z</time>
      </trkpt>
      <trkpt lat="46.203670" lon="-0.472330">
        <time>2017-06-24T12:04:12Z</time>
      </trkpt>
      <trkpt lat="46.203840" lon="-0.472060">
        <time>2017-06-24T12:04:13Z</time>
      </trkpt>
      <trkpt lat="46.204020" lon="-0.471750">
        <time>2017-06-24T12:04:14Z</time>
      </trkpt>
      <trkpt lat="46.204210" lon="-0.471440">
        <time>2017-06-24T12:04:15Z</time>
      </trkpt>
      <trkpt lat="46.204380" lon="-0.471160">
        <time>2017-06-24T12:04:16Z</time>
      </trkpt>
      <trkpt lat="46.204550" lon="-0.470860">
        <time>2017-06-24T12:04:17Z</time>
      </trkpt>
      <trkpt lat="46.204730" lon="-0.470580">
        <time>2017-06-24T12:04:18Z</time>
      </trkpt>
      <trkpt lat="46.204900" lon="-0.470290">
        <time>2017-06-24T12:04:19Z</time>
      </trkpt>
      <trkpt lat="46.205080" lon="-0.469990">
        <time>2017-06-24T12:04:20Z</time>
      </trkpt>
      <trkpt lat="46.205240" lon="-0.469720">
        <time>2017-06-24T12:04:21Z</time>
      </trkpt>
      <trkpt lat="46.205410" lon="-0.469440">
        <time>2017-06-24T12:04:22Z</time>
      </trkpt>
      <trkpt lat="46.205600" lon="-0.469140">
        <time>2017-06-24T12:04:23Z</time>
      </trkpt>
      <trkpt lat="46.205760" lon="-0.468870">
        <time>2017-06-24T12:04:24Z</time>
      </trkpt>
      <trkpt lat="46.205940" lon="-0.468590">
        <time>2017-06-24T12:04:25Z</time>
      </trkpt>
      <trkpt lat="46.206120" lon="-0.468280">
        <time>2017-06-24T12:04:26Z</time>
      </trkpt>
      <trkpt lat="46.206280" lon="-0.468020">
        <time>2017-06-24T12:04:27Z</time>
      </trkpt>
      <trkpt lat="46.206470" lon="-0.467710">
        <time>2017-06-24T12:04:28Z</time>
      </trkpt>
      <trkpt lat="46.206630" lon="-0.467440">
        <time>2017-06-24T12:04:29Z</time>
      </trkpt>
      <trkpt lat="46.206810" lon="-0.467150">
        <time>2017-06-24T12:04:30Z</time>
      </trkpt>
      <trkpt lat="46.207000" lon="-0.466840">
        <time>2017-06-24T12:04:31Z</time>
      </trkpt>
      <trkpt lat="46.207150" lon="-0.466580">
        <time>2017-06-24T12:04:32Z</time>
      </trkpt>
      <trkpt lat="46.207320" lon="-0.466310">
        <time>2017-06-24T12:04:33Z</time>
      </trkpt>
      <trkpt lat="46.207490" lon="-0.466030">
        <time>2017-06-24T12:04:34Z</time>
      </trkpt>
      <trkpt lat="46.207650" lon="-0.465770">
        <time>2017-06-24T12:04:35Z</time>
      </trkpt>
      <trkpt lat="46.207820" lon="-0.465480">
        <time>2017-06-24T12:04:36Z</time>
      </trkpt>
      <trkpt lat="46.207980" lon="-0.465240">
        <time>2017-06-24T12:04:37Z</time>
      </trkpt>
      <trkpt lat="46.208130" lon="-0.464980">
        <time>2017-06-24T12:04:38Z</time>
      </trkpt>
      <trkpt lat="46.208300" lon="-0.464710">
        <time>2017-06-24T12:04:39Z</time>
      </trkpt>
      <trkpt lat="46.208450" lon="-0.464470">
        <time>2017-06-24T12:04:40Z</time>
      </trkpt>
      <trkpt lat="46.208600" lon="-0.464210">
        <time>2017-06-24T12:04:41Z</time>
      </trkpt>
      <trkpt lat="46.208770" lon="-0.463940">
        <time>2017-06-24T12:04:42Z</time>
      </trkpt>
      <trkpt lat="46.208920" lon="-0.463710">
        <time>2017-06-24T12:04:43Z</time>
      </trkpt>
      <trkpt lat="46.209090" lon="-0.463430">
        <time>2017-06-24T12:04:44Z</time>
      </trkpt>
      <trkpt lat="46.209240" lon="-0.463190">
        <time>2017-06-24T12:04:45Z</time>
      </trkpt>
      <trkpt lat="46.209410" lon="-0.462930">
        <time>2017-06-24T12:04:46Z</time>
      </trkpt>
      <trkpt lat="46.209590" lon="-0.462660">
        <time>2017-06-24T12:04:47Z</time>
      </trkpt>
      <trkpt lat="46.209750" lon="-0.462410">
        <time>2017-06-24T12:04:48Z</time>
      </trkpt>
      <trkpt lat="46.209940" lon="-0.462140">
        <time>2017-06-24T12:04:49Z</time>
      </trkpt>
      <trkpt lat="46.210120" lon="-0.461870">
        <time>2017-06-24T12:04:50Z</time>
      </trkpt>
      <trkpt lat="46.210300" lon="-0.461600">
        <time>2017-06-24T12:04:51Z</time>
      </trkpt>
      <trkpt lat="46.210500" lon="-0.461320">
        <time>2017-06-24T12:04:52Z</time>
      </trkpt>
      <trkpt lat="46.210670" lon="-0.461060">
        <time>2017-06-24T12:04:53Z</time>
      </trkpt>
      <trkpt lat="46.210860" lon="-0.460780">
        <time>2017-06-24T12:04:54Z</time>
      </trkpt>
      <trkpt lat="46.211060" lon="-0.460480">
        <time>2017-06-24T12:04:55Z</time>
      </trkpt>
      <trkpt lat="46.211240" lon="-0.460230">
        <time>2017-06-24T12:04:56Z</time>
      </trkpt>
      <trkpt lat="46.211450" lon="-0.459940">
        <time>2017-06-24T12:04:57Z</time>
      </trkpt>
      <trkpt lat="46.211660" lon="-0.459630">
        <time>2017-06-24T12:04:58Z</time>
      </trkpt>
      <trkpt lat="46.211860" lon="-0.459350">
        <time>2017-06-24T12:04:59Z</time>
      </trkpt>
      <trkpt lat="46.212070" lon="-0.459040">
        <time>2017-06-24T12:05:00Z</time>
      </trkpt>
      <trkpt lat="46.212260" lon="-0.458770">
        <time>2017-06-24T12:05:01Z</time>
      </trkpt>
      <trkpt lat="46.212470" lon="-0.458480">
        <time>2017-06-24T12:05:02Z</time>
      </trkpt>
      <trkpt lat="46.212700" lon="-0.458170">
        <time>2017-06-24T12:05:03Z</time>
      </trkpt>
      <trkpt lat="46.212900" lon="-0.457910">
        <time>2017-06-24T12:05:04Z</time>
      </trkpt>
      <trkpt lat="46.213120" lon="-0.457620">
        <time>2017-06-24T12:05:05Z</time>
      </trkpt>
      <trkpt lat="46.213330" lon="-0.457340">
        <time>2017-06-24T12:05:06Z</time>
      </trkpt>
      <trkpt lat="46.213550" lon="-0.457070">
        <time>2017-06-24T12:05:07Z</time>
      </trkpt>
      <trkpt lat="46.213790" lon="-0.456780">
        <time>2017-06-24T12:05:08Z</time>
      </trkpt>
      <trkpt lat="46.214000" lon="-0.456540">
        <time>2017-06-24T12:05:09Z</time>
      </trkpt>
      <trkpt lat="46.214230" lon="-0.456280">
        <time>2017-06-24T12:05:10Z</time>
      </trkpt>
      <trkpt lat="46.214470" lon="-0.456010">
        <time>2017-06-24T12:05:11Z</time>
      </trkpt>
      <trkpt lat="46.214690" lon="-0.455770">
        <time>2017-06-24T12:05:12Z</time>
      </trkpt>
      <trkpt lat="46.214930" lon="-0.455500">
        <time>2017-06-24T12:05:13Z</time>
      </trkpt>
      <trkpt lat="46.215170" lon="-0.455230">
        <time>2017-06-24T12:05:14Z</time>
      </trkpt>
      <trkpt lat="46.215400" lon="-0.454980">
        <time>2017-06-24T12:05:15Z</time>
      </trkpt>
      <trkpt lat="46.215650" lon="-0.454700">
        <time>2017-06-24T12:05:16Z</time>
      </trkpt>
      <trkpt lat="46.215860" lon="-0.454450">
        <time>2017-06-24T12:05:17Z</time>
      </trkpt>
      <trkpt lat="46.216090" lon="-0.454190">
        <time>2017-06-24T12:05:18Z</time>
      </trkpt>
      <trkpt lat="46.216330" lon="-0.453910">
        <time>2017-06-24T12:05:19Z</time>
      </trkpt>
      <trkpt lat="46.216540" lon="-0.453680">
        <time>2017-06-24T12:05:20Z</time>
      </trkpt>
      <trkpt lat="46.216770" lon="-0.453440">
        <time>2017-06-24T12:05:21Z</time>
      </trkpt>
      <trkpt lat="46.217000" lon="-0.453200">
        <time>2017-06-24T12:05:22Z</time>
      </trkpt>
      <trkpt lat="46.217230" lon="-0.452970">
        <time>2017-06-24T12:05:23Z</time>
      </trkpt>
      <trkpt lat="46.217470" lon="-0.452730">
        <time>2017-06-24T12:05:24Z</time>
      </trkpt>
      <trkpt lat="46.217690" lon="-0.452510">
        <time>2017-06-24T12:05:25Z</time>
      </trkpt>
      <trkpt lat="46.217920" lon="-0.452290">
        <time>2017-06-24T12:05:26Z</time>
      </trkpt>
      <trkpt lat="46.218170" lon="-0.452050">
        <time>2017-06-24T12:05:27Z</time>
      </trkpt>
      <trkpt lat="46.218390" lon="-0.451840">
        <time>2017-06-24T12:05:28Z</time>
      </trkpt>
      <trkpt lat="46.218620" lon="-0.451630">
        <time>2017-06-24T12:05:29Z</time>
      </trkpt>
      <trkpt lat="46.218880" lon="-0.451400">
        <time>2017-06-24T12:05:30Z</time>
      </trkpt>
      <trkpt lat="46.219100" lon="-0.451200">
        <time>2017-06-24T12:05:31Z</time>
      </trkpt>
      <trkpt lat="46.219360" lon="-0.450970">
        <time>2017-06-24T12:05:32Z</time>
      </trkpt>
      <trkpt lat="46.219580" lon="-0.450770">
        <time>2017-06-24T12:05:33Z</time>
      </trkpt>
      <trkpt lat="46.219830" lon="-0.450560">
        <time>2017-06-24T12:05:34Z</time>
      </trkpt>
      <trkpt lat="46.220090" lon="-0.450330">
        <time>2017-06-24T12:05:35Z</time>
      </trkpt>
      <trkpt lat="46.220310" lon="-0.450140">
        <time>2017-06-24T12:05:36Z</time>
      </trkpt>
      <trkpt lat="46.220560" lon="-0.449940">
        <time>2017-06-24T12:05:37Z</time>
      </trkpt>
      <trkpt lat="46.220810" lon="-0.449740">
        <time>2017-06-24T12:05:38Z</time>
      </trkpt>
      <trkpt lat="46.221050" lon="-0.449540">
        <time>2017-06-24T12:05:39Z</time>
      </trkpt>
      <trkpt lat="46.221320" lon="-0.449320">
        <time>2017-06-24T12:05:40Z</time>
      </trkpt>
      <trkpt lat="46.221550" lon="-0.449130">
        <time>2017-06-24T12:05:41Z</time>
      </trkpt>
      <trkpt lat="46.221810" lon="-0.448920">
        <time>2017-06-24T12:05:42Z</time>
      </trkpt>
      <trkpt lat="46.222080" lon="-0.448700">
        <time>2017-06-24T12:05:43Z</time>
      </trkpt>
      <trkpt lat="46.222320" lon="-0.448520">
        <time>2017-06-24T12:05:44Z</time>
      </trkpt>
      <trkpt lat="46.222580" lon="-0.448310">
        <time>2017-06-24T12:05:45Z</time>
      </trkpt>
      <trkpt lat="46.222850" lon="-0.448110">
        <time>2017-06-24T12:05:46Z</time>
      </trkpt>
      <trkpt lat="46.223090" lon="-0.447920">
        <time>2017-06-24T12:05:47Z</time>
      </trkpt>
      <trkpt lat="46.223370" lon="-0.447710">
        <time>2017-06-24T12:05:48Z</time>
      </trkpt>
      <trkpt lat="46.223620" lon="-0.447520">
        <time>2017-06-24T12:05:49Z</time>
      </trkpt>
      <trkpt lat="46.223880" lon="-0.447320">
        <time>2017-06-24T12:05:50Z</time>
      </trkpt>
      <trkpt lat="46.224160" lon="-0.447110">
        <time>2017-06-24T12:05:51Z</time>
      </trkpt>
      <trkpt lat="46.224410" lon="-0.446920">
        <time>2017-06-24T12:05:52Z</time>
      </trkpt>
      <trkpt lat="46.224670" lon="-0.446720">
        <time>2017-06-24T12:05:53Z</time>
      </trkpt>
      <trkpt lat="46.224940" lon="-0.446510">
        <time>2017-06-24T12:05:54Z</time>
      </trkpt>
      <trkpt lat="46.225200" lon="-0.446300">
        <time>2017-06-24T12:05:55Z</time>
      </trkpt>
      <trkpt lat="46.225490" lon="-0.446080">
        <time>2017-06-24T12:05:56Z</time>
      </trkpt>
      <trkpt lat="46.225740" lon="-0.445880">
        <time>2017-06-24T12:05:57Z</time>
      </trkpt>
      <trkpt lat="46.226010" lon="-0.445670">
        <time>2017-06-24T12:05:58Z</time>
      </trkpt>
      <trkpt lat="46.226300" lon="-0.445450">
        <time>2017-06-24T12:05:59Z</time>
      </trkpt>
      <trkpt lat="46.226560" lon="-0.445260">
        <time>2017-06-24T12:06:00Z</time>
      </trkpt>
      <trkpt lat="46.226830" lon="-0.445050">
        <time>2017-06-24T12:06:01Z</time>
      </trkpt>
      <trkpt lat="46.227120" lon="-0.444830">
        <time>2017-06-24T12:06:02Z</time>
      </trkpt>
      <trkpt lat="46.227370" lon="-0.444630">
        <time>2017-06-24T12:06:03Z</time>
      </trkpt>
      <trkpt lat="46.227660" lon="-0.444410">
        <time>2017-06-24T12:06:04Z</time>
      </trkpt>
      <trkpt lat="46.227910" lon="-0.444220">
        <time>2017-06-24T12:06:05Z</time>
      </trkpt>
      <trkpt lat="46.228180" lon="-0.444010">
        <time>2017-06-24T12:06:06Z</time>
      </trkpt>
      <trkpt lat="46.228470" lon="-0.443790">
        <time>2017-06-24T12:06:07Z</time>
      </trkpt>
      <trkpt lat="46.228720" lon="-0.443590">
        <time>2017-06-24T12:06:08Z</time>
      </trkpt>
      <trkpt lat="46.229000" lon="-0.443380">
        <time>2017-06-24T12:06:09Z</time>
      </trkpt>
      <trkpt lat="46.229270" lon="-0.443160">
        <time>2017-06-24T12:06:10Z</time>
      </trkpt>
      <trkpt lat="46.229540" lon="-0.442950">
        <time>2017-06-24T12:06:11Z</time>
      </trkpt>
      <trkpt lat="46.229840" lon="-0.442730">
        <time>2017-06-24T12:06:12Z</time>
      </trkpt>
      <trkpt lat="46.230090" lon="-0.442530">
        <time>2017-06-24T12:06:13Z</time>
      </trkpt>
      <trkpt lat="46.230360" lon="-0.442320">
        <time>2017-06-24T12:06:14Z</time>
      </trkpt>
      <trkpt lat="46.230660" lon="-0.442100">
        <time>2017-06-24T12:06:15Z</time>
      </trkpt>
      <trkpt lat="46.230910" lon="-0.441900">
        <time>2017-06-24T12:06:16Z</time>
      </trkpt>
      <trkpt lat="46.231190" lon="-0.441690">
        <time>2017-06-24T12:06:17Z</time>
      </trkpt>
      <trkpt lat="46.231480" lon="-0.441470">
        <time>2017-06-24T12:06:18Z</time>
      </trkpt>
      <trkpt lat="46.231740" lon="-0.441270">
        <time>2017-06-24T12:06:19Z</time>
      </trkpt>
      <trkpt lat="46.232030" lon="-0.441050">
        <time>2017-06-24T12:06:20Z</time>
      </trkpt>
      <trkpt lat="46.232280" lon="-0.440850">
        <time>2017-06-24T12:06:21Z</time>
      </trkpt>
      <trkpt lat="46.232550" lon="-0.440650">
        <time>2017-06-24T12:06:22Z</time>
      </trkpt>
      <trkpt lat="46.232830" lon="-0.440420">
        <time>2017-06-24T12:06:23Z</time>
      </trkpt>
      <trkpt lat="46.233070" lon="-0.440220">
        <time>2017-06-24T12:06:24Z</time>
      </trkpt>
      <trkpt lat="46.233350" lon="-0.440010">
        <time>2017-06-24T12:06:25Z</time>
      </trkpt>
      <trkpt lat="46.233610" lon="-0.439800">
        <time>2017-06-24T12:06:26Z</time>
      </trkpt>
      <trkpt lat="46.233880" lon="-0.439600">
        <time>2017-06-24T12:06:27Z</time>
      </trkpt>
      <trkpt lat="46.234160" lon="-0.439380">
        <time>2017-06-24T12:06:28Z</time>
      </trkpt>
      <trkpt lat="46.234390" lon="-0.439180">
        <time>2017-06-24T12:06:29Z</time>
      </trkpt>
      <trkpt lat="46.234650" lon="-0.438970">
        <time>2017-06-24T12:06:30Z</time>
      </trkpt>
      <trkpt lat="46.234930" lon="-0.438740">
        <time>2017-06-24T12:06:31Z</time>
      </trkpt>
      <trkpt lat="46.235170" lon="-0.438540">
        <time>2017-06-24T12:06:32Z</time>
      </trkpt>
      <trkpt lat="46.235430" lon="-0.438340">
        <time>2017-06-24T12:06:33Z</time>
      </trkpt>
      <trkpt lat="46.235700" lon="-0.438120">
        <time>2017-06-24T12:06:34Z</time>
      </trkpt>
      <trkpt lat="46.235930" lon="-0.437930">
        <time>2017-06-24T12:06:35Z</time>
      </trkpt>
      <trkpt lat="46.236180" lon="-0.437710">
        <time>2017-06-24T12:06:36Z</time>
      </trkpt>
      <trkpt lat="46.236410" lon="-0.437530">
        <time>2017-06-24T12:06:37Z</time>
      </trkpt>
      <trkpt lat="46.236640" lon="-0.437330">
        <time>2017-06-24T12:06:38Z</time>
      </trkpt>
      <trkpt lat="46.236880" lon="-0.437120">
        <time>2017-06-24T12:06:39Z</time>
      </trkpt>
      <trkpt lat="46.237100" lon="-0.436930">
        <time>2017-06-24T12:06:40Z</time>
      </trkpt>
      <trkpt lat="46.237340" lon="-0.436730">
        <time>2017-06-24T12:06:41Z</time>
      </trkpt>
      <trkpt lat="46.237580" lon="-0.436510">
        <time>2017-06-24T12:06:42Z</time>
      </trkpt>
      <trkpt lat="46.237830" lon="-0.436300">
        <time>2017-06-24T12:06:43Z</time>
      </trkpt>
      <trkpt lat="46.238100" lon="-0.436080">
        <time>2017-06-24T12:06:44Z</time>
      </trkpt>
      <trkpt lat="46.238340" lon="-0.435870">
        <time>2017-06-24T12:06:45Z</time>
      </trkpt>
      <trkpt lat="46.238610" lon="-0.435640">
        <time>2017-06-24T12:06:46Z</time>
      </trkpt>
      <trkpt lat="46.238890" lon="-0.435380">
        <time>2017-06-24T12:06:47Z</time>
      </trkpt>
      <trkpt lat="46.239140" lon="-0.435150">
        <time>2017-06-24T12:06:48Z</time>
      </trkpt>
      <trkpt lat="46.239410" lon="-0.434910">
        <time>2017-06-24T12:06:49Z</time>
      </trkpt>
      <trkpt lat="46.239690" lon="-0.434630">
        <time>2017-06-24T12:06:50Z</time>
      </trkpt>
      <trkpt lat="46.239930" lon="-0.434400">
        <time>2017-06-24T12:06:51Z</time>
      </trkpt>
      <trkpt lat="46.240210" lon="-0.434130">
        <time>2017-06-24T12:06:52Z</time>
      </trkpt>
      <trkpt lat="46.240440" lon="-0.433900">
        <time>2017-06-24T12:06:53Z</time>
      </trkpt>
      <trkpt lat="46.240700" lon="-0.433660">
        <time>2017-06-24T12:06:54Z</time>
      </trkpt>
      <trkpt lat="46.240960" lon="-0.433410">
        <time>2017-06-24T12:06:55Z</time>
      </trkpt>
      <trkpt lat="46.241190" lon="-0.433190">
        <time>2017-06-24T12:06:56Z</time>
      </trkpt>
      <trkpt lat="46.241430" lon="-0.432950">
        <time>2017-06-24T12:06:57Z</time>
      </trkpt>
      <trkpt lat="46.241670" lon="-0.432710">
        <time>2017-06-24T12:06:58Z</time>
      </trkpt>
      <trkpt lat="46.241910" lon="-0.432480">
        <time>2017-06-24T12:06:59Z</time>
      </trkpt>
      <trkpt lat="46.242170" lon="-0.432230">
        <time>2017-06-24T12:07:00Z</time>
      </trkpt>
      <trkpt lat="46.242390" lon="-0.432020">
        <time>2017-06-24T12:07:01Z</time>
      </trkpt>
      <trkpt lat="46.242630" lon="-0.431780">
        <time>2017-06-24T12:07:02Z</time>
      </trkpt>
      <trkpt lat="46.242890" lon="-0.431540">
        <time>2017-06-24T12:07:03Z</time>
      </trkpt>
      <trkpt lat="46.243130" lon="-0.431320">
        <time>2017-06-24T12:07:04Z</time>
      </trkpt>
      <trkpt lat="46.243370" lon="-0.431090">
        <time>2017-06-24T12:07:05Z</time>
      </trkpt>
      <trkpt lat="46.243640" lon="-0.430840">
        <time>2017-06-24T12:07:06Z</time>
      </trkpt>
      <trkpt lat="46.243870" lon="-0.430630">
        <time>2017-06-24T12:07:07Z</time>
      </trkpt>
      <trkpt lat="46.244140" lon="-0.430390">
        <time>2017-06-24T12:07:08Z</time>
      </trkpt>
      <trkpt lat="46.244380" lon="-0.430170">
        <time>2017-06-24T12:07:09Z</time>
      </trkpt>
      <trkpt lat="46.244640" lon="-0.429930">
        <time>2017-06-24T12:07:10Z</time>
      </trkpt>
      <trkpt lat="46.244920" lon="-0.429670">
        <time>2017-06-24T12:07:11Z</time>
      </trkpt>
      <trkpt lat="46.245170" lon="-0.429450">
        <time>2017-06-24T12:07:12Z</time>
      </trkpt>
      <trkpt lat="46.245440" lon="-0.429210">
        <time>2017-06-24T12:07:13Z</time>
      </trkpt>
      <trkpt lat="46.245720" lon="-0.428960">
        <time>2017-06-24T12:07:14Z</time>
      </trkpt>
      <trkpt lat="46.245990" lon="-0.428720">
        <time>2017-06-24T12:07:15Z</time>
      </trkpt>
      <trkpt lat="46.246280" lon="-0.428470">
        <time>2017-06-24T12:07:16Z</time>
      </trkpt>
      <trkpt lat="46.246540" lon="-0.428250">
        <time>2017-06-24T12:07:17Z</time>
      </trkpt>
      <trkpt lat="46.246830" lon="-0.428010">
        <time>2017-06-24T12:07:18Z</time>
      </trkpt>
      <trkpt lat="46.247120" lon="-0.427750">
        <time>2017-06-24T12:07:19Z</time>
      </trkpt>
      <trkpt lat="46.247380" lon="-0.427530">
        <time>2017-06-24T12:07:20Z</time>
      </trkpt>
      <trkpt lat="46.247660" lon="-0.427300">
        <time>2017-06-24T12:07:21Z</time>
      </trkpt>
      <trkpt lat="46.247960" lon="-0.427040">
        <time>2017-06-24T12:07:22Z</time>
      </trkpt>
      <trkpt lat="46.248220" lon="-0.426820">
        <time>2017-06-24T12:07:23Z</time>
      </trkpt>
      <trkpt lat="46.248510" lon="-0.426580">
        <time>2017-06-24T12:07:24Z</time>
      </trkpt>
      <trkpt lat="46.248780" lon="-0.426370">
        <time>2017-06-24T12:07:25Z</time>
      </trkpt>
      <trkpt lat="46.249060" lon="-0.426150">
        <time>2017-06-24T12:07:26Z</time>
      </trkpt>
      <trkpt lat="46.249360" lon="-0.425910">
        <time>2017-06-24T12:07:27Z</time>
      </trkpt>
      <trkpt lat="46.249620" lon="-0.425710">
        <time>2017-06-24T12:07:28Z</time>
      </trkpt>
      <trkpt lat="46.249890" lon="-0.425490">
        <time>2017-06-24T12:07:29Z</time>
      </trkpt>
      <trkpt lat="46.250160" lon="-0.425270">
        <time>2017-06-24T12:07:30Z</time>
      </trkpt>
      <trkpt lat="46.250450" lon="-0.425060">
        <time>2017-06-24T12:07:31Z</time>
      </trkpt>
      <trkpt lat="46.250750" lon="-0.424840">
        <time>2017-06-24T12:07:32Z</time>
      </trkpt>
      <trkpt lat="46.251020" lon="-0.424640">
        <time>2017-06-24T12:07:33Z</time>
      </trkpt>
      <trkpt lat="46.251310" lon="-0.424420">
        <time>2017-06-24T12:07:34Z</time>
      </trkpt>
      <trkpt lat="46.251610" lon="-0.424200">
        <time>2017-06-24T12:07:35Z</time>
      </trkpt>
      <trkpt lat="46.251880" lon="-0.424000">
        <time>2017-06-24T12:07:36Z</time>
      </trkpt>
      <trkpt lat="46.252170" lon="-0.423800">
        <time>2017-06-24T12:07:37Z</time>
      </trkpt>
      <trkpt lat="46.252470" lon="-0.423580">
        <time>2017-06-24T12:07:38Z</time>
      </trkpt>
      <trkpt lat="46.252730" lon="-0.423390">
        <time>2017-06-24T12:07:39Z</time>
      </trkpt>
      <trkpt lat="46.253030" lon="-0.423180">
        <time>2017-06-24T12:07:40Z</time>
      </trkpt>
      <trkpt lat="46.253290" lon="-0.423000">
        <time>2017-06-24T12:07:41Z</time>
      </trkpt>
      <trkpt lat="46.253570" lon="-0.422810">
        <time>2017-06-24T12:07:42Z</time>
      </trkpt>
      <trkpt lat="46.253880" lon="-0.422600">
        <time>2017-06-24T12:07:43Z</time>
      </trkpt>
      <trkpt lat="46.254140" lon="-0.422420">
        <time>2017-06-24T12:07:44Z</time>
      </trkpt>
      <trkpt lat="46.254410" lon="-0.422240">
        <time>2017-06-24T12:07:45Z</time>
      </trkpt>
      <trkpt lat="46.254690" lon="-0.422050">
        <time>2017-06-24T12:07:46Z</time>
      </trkpt>
      <trkpt lat="46.254970" lon="-0.421870">
        <time>2017-06-24T12:07:47Z</time>
      </trkpt>
      <trkpt lat="46.255270" lon="-0.421670">
        <time>2017-06-24T12:07:48Z</time>
      </trkpt>
      <trkpt lat="46.255540" lon="-0.421490">
        <time>2017-06-24T12:07:49Z</time>
      </trkpt>
      <trkpt lat="46.255820" lon="-0.421290">
        <time>2017-06-24T12:07:50Z</time>
      </trkpt>
      <trkpt lat="46.256110" lon="-0.421090">
        <time>2017-06-24T12:07:51Z</time>
      </trkpt>
      <trkpt lat="46.256380" lon="-0.420910">
        <time>2017-06-24T12:07:52Z</time>
      </trkpt>
      <trkpt lat="46.256660" lon="-0.420710">
        <time>2017-06-24T12:07:53Z</time>
      </trkpt>
      <trkpt lat="46.256960" lon="-0.420500">
        <time>2017-06-24T12:07:54Z</time>
      </trkpt>
      <trkpt lat="46.257230" lon="-0.420300">
        <time>2017-06-24T12:07:55Z</time>
      </trkpt>
      <trkpt lat="46.257530" lon="-0.420070">
        <time>2017-06-24T12:07:56Z</time>
      </trkpt>
      <trkpt lat="46.257800" lon="-0.419860">
        <time>2017-06-24T12:07:57Z</time>
      </trkpt>
      <trkpt lat="46.258080" lon="-0.419640">
        <time>2017-06-24T12:07:58Z</time>
      </trkpt>
      <trkpt lat="46.258390" lon="-0.419410">
        <time>2017-06-24T12:07:59Z</time>
      </trkpt>
      <trkpt lat="46.258660" lon="-0.419200">
        <time>2017-06-24T12:08:00Z</time>
      </trkpt>
      <trkpt lat="46.258940" lon="-0.418970">
        <time>2017-06-24T12:08:01Z</time>
      </trkpt>
      <trkpt lat="46.259220" lon="-0.418740">
        <time>2017-06-24T12:08:02Z</time>
      </trkpt>
      <trkpt lat="46.259510" lon="-0.418510">
        <time>2017-06-24T12:08:03Z</time>
      </trkpt>
      <trkpt lat="46.259810" lon="-0.418260">
        <time>2017-06-24T12:08:04Z</time>
      </trkpt>
      <trkpt lat="46.260070" lon="-0.418030">
        <time>2017-06-24T12:08:05Z</time>
      </trkpt>
      <trkpt lat="46.260350" lon="-0.417790">
        <time>2017-06-24T12:08:06Z</time>
      </trkpt>
      <trkpt lat="46.260640" lon="-0.417520">
        <time>2017-06-24T12:08:07Z</time>
      </trkpt>
      <trkpt lat="46.260910" lon="-0.417290">
        <time>2017-06-24T12:08:08Z</time>
      </trkpt>
      <trkpt lat="46.261190" lon="-0.417040">
        <time>2017-06-24T12:08:09Z</time>
      </trkpt>
      <trkpt lat="46.261470" lon="-0.416780">
        <time>2017-06-24T12:08:10Z</time>
      </trkpt>
      <trkpt lat="46.261730" lon="-0.416540">
        <time>2017-06-24T12:08:11Z</time>
      </trkpt>
      <trkpt lat="46.262030" lon="-0.416270">
        <time>2017-06-24T12:08:12Z</time>
      </trkpt>
      <trkpt lat="46.262280" lon="-0.416030">
        <time>2017-06-24T12:08:13Z</time>
      </trkpt>
      <trkpt lat="46.262550" lon="-0.415770">
        <time>2017-06-24T12:08:14Z</time>
      </trkpt>
      <trkpt lat="46.262840" lon="-0.415500">
        <time>2017-06-24T12:08:15Z</time>
      </trkpt>
      <trkpt lat="46.263090" lon="-0.415260">
        <time>2017-06-24T12:08:16Z</time>
      </trkpt>
      <trkpt lat="46.263360" lon="-0.415010">
        <time>2017-06-24T12:08:17Z</time>
      </trkpt>
      <trkpt lat="46.263630" lon="-0.414750">
        <time>2017-06-24T12:08:18Z</time>
      </trkpt>
      <trkpt lat="46.263900" lon="-0.414490">
        <time>2017-06-24T12:08:19Z</time>
      </trkpt>
      <trkpt lat="46.264170" lon="-0.414200">
        <time>2017-06-24T12:08:20Z</time>
      </trkpt>
      <trkpt lat="46.264410" lon="-0.413950">
        <time>2017-06-24T12:08:21Z</time>
      </trkpt>
      <trkpt lat="46.264670" lon="-0.413680">
        <time>2017-06-24T12:08:22Z</time>
      </trkpt>
      <trkpt lat="46.264940" lon="-0.413400">
        <time>2017-06-24T12:08:23Z</time>
      </trkpt>
      <trkpt lat="46.265180" lon="-0.413150">
        <time>2017-06-24T12:08:24Z</time>
      </trkpt>
      <trkpt lat="46.265430" lon="-0.412880">
        <time>2017-06-24T12:08:25Z</time>
      </trkpt>
      <trkpt lat="46.265700" lon="-0.412580">
        <time>2017-06-24T12:08:26Z</time>
      </trkpt>
      <trkpt lat="46.265940" lon="-0.412310">
        <time>2017-06-24T12:08:27Z</time>
      </trkpt>
      <trkpt lat="46.266190" lon="-0.412010">
        <time>2017-06-24T12:08:28Z</time>
      </trkpt>
      <trkpt lat="46.266420" lon="-0.411750">
        <time>2017-06-24T12:08:29Z</time>
      </trkpt>
      <trkpt lat="46.266650" lon="-0.411450">
        <time>2017-06-24T12:08:30Z</time>
      </trkpt>
      <trkpt lat="46.266900" lon="-0.411140">
        <time>2017-06-24T12:08:31Z</time>
      </trkpt>
      <trkpt lat="46.267110" lon="-0.410880">
        <time>2017-06-24T12:08:32Z</time>
      </trkpt>
      <trkpt lat="46.267340" lon="-0.410610">
        <time>2017-06-24T12:08:33Z</time>
      </trkpt>
      <trkpt lat="46.267560" lon="-0.410330">
        <time>2017-06-24T12:08:34Z</time>
      </trkpt>
      <trkpt lat="46.267780" lon="-0.410070">
        <time>2017-06-24T12:08:35Z</time>
      </trkpt>
      <trkpt lat="46.268020" lon="-0.409790">
        <time>2017-06-24T12:08:36Z</time>
      </trkpt>
      <trkpt lat="46.268220" lon="-0.409540">
        <time>2017-06-24T12:08:37Z</time>
      </trkpt>
      <trkpt lat="46.268440" lon="-0.409280">
        <time>2017-06-24T12:08:38Z</time>
      </trkpt>
      <trkpt lat="46.268680" lon="-0.409010">
        <time>2017-06-24T12:08:39Z</time>
      </trkpt>
      <trkpt lat="46.268890" lon="-0.408760">
        <time>2017-06-24T12:08:40Z</time>
      </trkpt>
      <trkpt lat="46.269120" lon="-0.408500">
        <time>2017-06-24T12:08:41Z</time>
      </trkpt>
      <trkpt lat="46.269370" lon="-0.408220">
        <time>2017-06-24T12:08:42Z</time>
      </trkpt>
      <trkpt lat="46.269590" lon="-0.407980">
        <time>2017-06-24T12:08:43Z</time>
      </trkpt>
      <trkpt lat="46.269850" lon="-0.407700">
        <time>2017-06-24T12:08:44Z</time>
      </trkpt>
      <trkpt lat="46.270070" lon="-0.407450">
        <time>2017-06-24T12:08:45Z</time>
      </trkpt>
      <trkpt lat="46.270310" lon="-0.407190">
        <time>2017-06-24T12:08:46Z</time>
      </trkpt>
      <trkpt lat="46.270570" lon="-0.406920">
        <time>2017-06-24T12:08:47Z</time>
      </trkpt>
      <trkpt lat="46.270790" lon="-0.406680">
        <time>2017-06-24T12:08:48Z</time>
      </trkpt>
      <trkpt lat="46.271040" lon="-0.406430">
        <time>2017-06-24T12:08:49Z</time>
      </trkpt>
      <trkpt lat="46.271280" lon="-0.406180">
        <time>2017-06-24T12:08:50Z</time>
      </trkpt>
      <trkpt lat="46.271520" lon="-0.405940">
        <time>2017-06-24T12:08:51Z</time>
      </trkpt>
      <trkpt lat="46.271770" lon="-0.405680">
        <time>2017-06-24T12:08:52Z</time>
      </trkpt>
      <trkpt lat="46.272000" lon="-0.405460">
        <time>2017-06-24T12:08:53Z</time>
      </trkpt>
      <trkpt lat="46.272240" lon="-0.405220">
        <time>2017-06-24T12:08:54Z</time>
      </trkpt>
      <trkpt lat="46.272500" lon="-0.404970">
        <time>2017-06-24T12:08:55Z</time>
      </trkpt>
      <trkpt lat="46.272730" lon="-0.404760">
        <time>2017-06-24T12:08:56Z</time>
      </trkpt>
      <trkpt lat="46.272990" lon="-0.404530">
        <time>2017-06-24T12:08:57Z</time>
      </trkpt>
      <trkpt lat="46.273250" lon="-0.404280">
        <time>2017-06-24T12:08:58Z</time>
      </trkpt>
      <trkpt lat="46.273490" lon="-0.404060">
        <time>2017-06-24T12:08:59Z</time>
      </trkpt>
      <trkpt lat="46.273760" lon="-0.403820">
        <time>2017-06-24T12:09:00Z</time>
      </trkpt>
      <trkpt lat="46.274000" lon="-0.403610">
        <time>2017-06-24T12:09:01Z</time>
      </trkpt>
      <trkpt lat="46.274260" lon="-0.403370">
        <time>2017-06-24T12:09:02Z</time>
      </trkpt>
      <trkpt lat="46.274540" lon="-0.403110">
        <time>2017-06-24T12:09:03Z</time>
      </trkpt>
      <trkpt lat="46.274790" lon="-0.402900">
        <time>2017-06-24T12:09:04Z</time>
      </trkpt>
      <trkpt lat="46.275060" lon="-0.402670">
        <time>2017-06-24T12:09:05Z</time>
      </trkpt>
      <trkpt lat="46.275330" lon="-0.402450">
        <time>2017-06-24T12:09:06Z</time>
      </trkpt>
      <trkpt lat="46.275600" lon="-0.402220">
        <time>2017-06-24T12:09:07Z</time>
      </trkpt>
      <trkpt lat="46.275880" lon="-0.401990">
        <time>2017-06-24T12:09:08Z</time>
      </trkpt>
      <trkpt lat="46.276140" lon="-0.401780">
        <time>2017-06-24T12:09:09Z</time>
      </trkpt>
      <trkpt lat="46.276410" lon="-0.401560">
        <time>2017-06-24T12:09:10Z</time>
      </trkpt>
      <trkpt lat="46.276700" lon="-0.401330">
        <time>2017-06-24T12:09:11Z</time>
      </trkpt>
      <trkpt lat="46.276950" lon="-0.401140">
        <time>2017-06-24T12:09:12Z</time>
      </trkpt>
      <trkpt lat="46.277220" lon="-0.400930">
        <time>2017-06-24T12:09:13Z</time>
      </trkpt>
      <trkpt lat="46.277520" lon="-0.400720">
        <time>2017-06-24T12:09:14Z</time>
      </trkpt>
      <trkpt lat="46.277770" lon="-0.400540">
        <time>2017-06-24T12:09:15Z</time>
      </trkpt>
      <trkpt lat="46.278050" lon="-0.400330">
        <time>2017-06-24T12:09:16Z</time>
      </trkpt>
      <trkpt lat="46.278310" lon="-0.400150">
        <time>2017-06-24T12:09:17Z</time>
      </trkpt>
      <trkpt lat="46.278580" lon="-0.399960">
        <time>2017-06-24T12:09:18Z</time>
      </trkpt>
      <trkpt lat="46.278870" lon="-0.399750">
        <time>2017-06-24T12:09:19Z</time>
      </trkpt>
      <trkpt lat="46.279120" lon="-0.399570">
        <time>2017-06-24T12:09:20Z</time>
      </trkpt>
      <trkpt lat="46.279400" lon="-0.399390">
        <time>2017-06-24T12:09:21Z</time>
      </trkpt>
      <trkpt lat="46.279670" lon="-0.399200">
        <time>2017-06-24T12:09:22Z</time>
      </trkpt>
      <trkpt lat="46.279940" lon="-0.399010">
        <time>2017-06-24T12:09:23Z</time>
      </trkpt>
      <trkpt lat="46.280230" lon="-0.398810">
        <time>2017-06-24T12:09:24Z</time>
      </trkpt>
      <trkpt lat="46.280490" lon="-0.398640">
        <time>2017-06-24T12:09:25Z</time>
      </trkpt>
      <trkpt lat="46.280760" lon="-0.398450">
        <time>2017-06-24T12:09:26Z</time>
      </trkpt>
      <trkpt lat="46.281050" lon="-0.398260">
        <time>2017-06-24T12:09:27Z</time>
      </trkpt>
      <trkpt lat="46.281310" lon="-0.398080">
        <time>2017-06-24T12:09:28Z</time>
      </trkpt>
      <trkpt lat="46.281590" lon="-0.397890">
        <time>2017-06-24T12:09:29Z</time>
      </trkpt>
      <trkpt lat="46.281880" lon="-0.397680">
        <time>2017-06-24T12:09:30Z</time>
      </trkpt>
      <trkpt lat="46.282130" lon="-0.397500">
        <time>2017-06-24T12:09:31Z</time>
      </trkpt>
      <trkpt lat="46.282410" lon="-0.397290">
        <time>2017-06-24T12:09:32Z</time>
      </trkpt>
      <trkpt lat="46.282660" lon="-0.397110">
        <time>2017-06-24T12:09:33Z</time>
      </trkpt>
      <trkpt lat="46.282920" lon="-0.396910">
        <time>2017-06-24T12:09:34Z</time>
      </trkpt>
      <trkpt lat="46.283190" lon="-0.396690">
        <time>2017-06-24T12:09:35Z</time>
      </trkpt>
      <trkpt lat="46.283430" lon="-0.396500">
        <time>2017-06-24T12:09:36Z</time>
      </trkpt>
      <trkpt lat="46.283700" lon="-0.396290">
        <time>2017-06-24T12:09:37Z</time>
      </trkpt>
      <trkpt lat="46.283960" lon="-0.396080">
        <time>2017-06-24T12:09:38Z</time>
      </trkpt>
      <trkpt lat="46.284230" lon="-0.395860">
        <time>2017-06-24T12:09:39Z</time>
      </trkpt>
      <trkpt lat="46.284510" lon="-0.395620">
        <time>2017-06-24T12:09:40Z</time>
      </trkpt>
      <trkpt lat="46.284760" lon="-0.395410">
        <time>2017-06-24T12:09:41Z</time>
      </trkpt>
      <trkpt lat="46.285030" lon="-0.395170">
        <time>2017-06-24T12:09:42Z</time>
      </trkpt>
      <trkpt lat="46.285310" lon="-0.394910">
        <time>2017-06-24T12:09:43Z</time>
      </trkpt>
      <trkpt lat="46.285560" lon="-0.394680">
        <time>2017-06-24T12:09:44Z</time>
      </trkpt>
      <trkpt lat="46.285830" lon="-0.394410">
        <time>2017-06-24T12:09:45Z</time>
      </trkpt>
      <trkpt lat="46.286110" lon="-0.394130">
        <time>2017-06-24T12:09:46Z</time>
      </trkpt>
      <trkpt lat="46.286360" lon="-0.393880">
        <time>2017-06-24T12:09:47Z</time>
      </trkpt>
      <trkpt lat="46.286640" lon="-0.393580">
        <time>2017-06-24T12:09:48Z</time>
      </trkpt>
      <trkpt lat="46.286890" lon="-0.393320">
        <time>2017-06-24T12:09:49Z</time>
      </trkpt>
      <trkpt lat="46.287140" lon="-0.393030">
        <time>2017-06-24T12:09:50Z</time>
      </trkpt>
      <trkpt lat="46.287420" lon="-0.392720">
        <time>2017-06-24T12:09:51Z</time>
      </trkpt>
      <trkpt lat="46.287660" lon="-0.392460">
        <time>2017-06-24T12:09:52Z</time>
      </trkpt>
      <trkpt lat="46.287900" lon="-0.392160">
        <time>2017-06-24T12:09:53Z</time>
      </trkpt>
      <trkpt lat="46.288150" lon="-0.391860">
        <time>2017-06-24T12:09:54Z</time>
      </trkpt>
      <trkpt lat="46.288390" lon="-0.391570">
        <time>2017-06-24T12:09:55Z</time>
      </trkpt>
      <trkpt lat="46.288640" lon="-0.391250">
        <time>2017-06-24T12:09:56Z</time>
      </trkpt>
      <trkpt lat="46.288860" lon="-0.390950">
        <time>2017-06-24T12:09:57Z</time>
      </trkpt>
      <trkpt lat="46.289090" lon="-0.390640">
        <time>2017-06-24T12:09:58Z</time>
      </trkpt>
      <trkpt lat="46.289330" lon="-0.390290">
        <time>2017-06-24T12:09:59Z</time>
      </trkpt>
      <trkpt lat="46.289540" lon="-0.389980">
        <time>2017-06-24T12:10:00Z</time>
      </trkpt>
      <trkpt lat="46.289760" lon="-0.389640">
        <time>2017-06-24T12:10:01Z</time>
      </trkpt>
      <trkpt lat="46.289990" lon="-0.389280">
        <time>2017-06-24T12:10:02Z</time>
      </trkpt>
      <trkpt lat="46.290200" lon="-0.388970">
        <time>2017-06-24T12:10:03Z</time>
      </trkpt>
      <trkpt lat="46.290420" lon="-0.388610">
        <time>2017-06-24T12:10:04Z</time>
      </trkpt>
      <trkpt lat="46.290630" lon="-0.388300">
        <time>2017-06-24T12:10:05Z</time>
      </trkpt>
      <trkpt lat="46.290830" lon="-0.387960">
        <time>2017-06-24T12:10:06Z</time>
      </trkpt>
      <trkpt lat="46.291050" lon="-0.387590">
        <time>2017-06-24T12:10:07Z</time>
      </trkpt>
      <trkpt lat="46.291240" lon="-0.387270">
        <time>2017-06-24T12:10:08Z</time>
      </trkpt>
      <trkpt lat="46.291440" lon="-0.386920">
        <time>2017-06-24T12:10:09Z</time>
      </trkpt>
      <trkpt lat="46.291630" lon="-0.386570">
        <time>2017-06-24T12:10:10Z</time>
      </trkpt>
      <trkpt lat="46.291830" lon="-0.386210">
        <time>2017-06-24T12:10:11Z</time>
      </trkpt>
      <trkpt lat="46.292040" lon="-0.385830">
        <time>2017-06-24T12:10:12Z</time>
      </trkpt>
      <trkpt lat="46.292210" lon="-0.385490">
        <time>2017-06-24T12:10:13Z</time>
      </trkpt>
      <trkpt lat="46.292400" lon="-0.385120">
        <time>2017-06-24T12:10:14Z</time>
      </trkpt>
      <trkpt lat="46.292600" lon="-0.384720">
        <time>2017-06-24T12:10:15Z</time>
      </trkpt>
      <trkpt lat="46.292770" lon="-0.384380">
        <time>2017-06-24T12:10:16Z</time>
      </trkpt>
      <trkpt lat="46.292950" lon="-0.383990">
        <time>2017-06-24T12:10:17Z</time>
      </trkpt>
      <trkpt lat="46.293140" lon="-0.383580">
        <time>2017-06-24T12:10:18Z</time>
      </trkpt>
      <trkpt lat="46.293300" lon="-0.383220">
        <time>2017-06-24T12:10:19Z</time>
      </trkpt>
      <trkpt lat="46.293480" lon="-0.382810">
        <time>2017-06-24T12:10:20Z</time>
      </trkpt>
      <trkpt lat="46.293640" lon="-0.382450">
        <time>2017-06-24T12:10:21Z</time>
      </trkpt>
      <trkpt lat="46.293810" lon="-0.382060">
        <time>2017-06-24T12:10:22Z</time>
      </trkpt>
      <trkpt lat="46.293980" lon="-0.381630">
        <time>2017-06-24T12:10:23Z</time>
      </trkpt>
      <trkpt lat="46.294130" lon="-0.381260">
        <time>2017-06-24T12:10:24Z</time>
      </trkpt>
      <trkpt lat="46.294290" lon="-0.380860">
        <time>2017-06-24T12:10:25Z</time>
      </trkpt>
      <trkpt lat="46.294440" lon="-0.380460">
        <time>2017-06-24T12:10:26Z</time>
      </trkpt>
      <trkpt lat="46.294600" lon="-0.380050">
        <time>2017-06-24T12:10:27Z</time>
      </trkpt>
      <trkpt lat="46.294760" lon="-0.379620">
        <time>2017-06-24T12:10:28Z</time>
      </trkpt>
      <trkpt lat="46.294900" lon="-0.379240">
        <time>2017-06-24T12:10:29Z</time>
      </trkpt>
      <trkpt lat="46.295060" lon="-0.378830">
        <time>2017-06-24T12:10:30Z</time>
      </trkpt>
      <trkpt lat="46.295220" lon="-0.378410">
        <time>2017-06-24T12:10:31Z</time>
      </trkpt>
      <trkpt lat="46.295360" lon="-0.378020">
        <time>2017-06-24T12:10:32Z</time>
      </trkpt>
      <trkpt lat="46.295520" lon="-0.377620">
        <time>2017-06-24T12:10:33Z</time>
      </trkpt>
      <trkpt lat="46.295680" lon="-0.377180">
        <time>2017-06-24T12:10:34Z</time>
      </trkpt>
      <trkpt lat="46.295830" lon="-0.376800">
        <time>2017-06-24T12:10:35Z</time>
      </trkpt>
      <trkpt lat="46.295990" lon="-0.376370">
        <time>2017-06-24T12:10:36Z</time>
      </trkpt>
      <trkpt lat="46.296140" lon="-0.375990">
        <time>2017-06-24T12:10:37Z</time>
      </trkpt>
      <trkpt lat="46.296290" lon="-0.375580">
        <time>2017-06-24T12:10:38Z</time>
      </trkpt>
      <trkpt lat="46.296450" lon="-0.375150">
        <time>2017-06-24T12:10:39Z</time>
      </trkpt>
      <trkpt lat="46.296600" lon="-0.374780">
        <time>2017-06-24T12:10:40Z</time>
      </trkpt>
      <trkpt lat="46.296750" lon="-0.374370">
        <time>2017-06-24T12:10:41Z</time>
      </trkpt>
      <trkpt lat="46.296900" lon="-0.373970">
        <time>2017-06-24T12:10:42Z</time>
      </trkpt>
      <trkpt lat="46.297060" lon="-0.373570">
        <time>2017-06-24T12:10:43Z</time>
      </trkpt>
      <trkpt lat="46.297230" lon="-0.373140">
        <time>2017-06-24T12:10:44Z</time>
      </trkpt>
      <trkpt lat="46.297370" lon="-0.372770">
        <time>2017-06-24T12:10:45Z</time>
      </trkpt>
      <trkpt lat="46.297530" lon="-0.372370">
        <time>2017-06-24T12:10:46Z</time>
      </trkpt>
      <trkpt lat="46.297700" lon="-0.371950">
        <time>2017-06-24T12:10:47Z</time>
      </trkpt>
      <trkpt lat="46.297850" lon="-0.371590">
        <time>2017-06-24T12:10:48Z</time>
      </trkpt>
      <trkpt lat="46.298010" lon="-0.371210">
        <time>2017-06-24T12:10:49Z</time>
      </trkpt>
      <trkpt lat="46.298190" lon="-0.370800">
        <time>2017-06-24T12:10:50Z</time>
      </trkpt>
      <trkpt lat="46.298350" lon="-0.370450">
        <time>2017-06-24T12:10:51Z</time>
      </trkpt>
      <trkpt lat="46.298520" lon="-0.370060">
        <time>2017-06-24T12:10:52Z</time>
      </trkpt>
      <trkpt lat="46.298680" lon="-0.369710">
        <time>2017-06-24T12:10:53Z</time>
      </trkpt>
      <trkpt lat="46.298850" lon="-0.369350">
        <time>2017-06-24T12:10:54Z</time>
      </trkpt>
      <trkpt lat="46.299030" lon="-0.368970">
        <time>2017-06-24T12:10:55Z</time>
      </trkpt>
      <trkpt lat="46.299190" lon="-0.368630">
        <time>2017-06-24T12:10:56Z</time>
      </trkpt>
      <trkpt lat="46.299360" lon="-0.368270">
        <time>2017-06-24T12:10:57Z</time>
      </trkpt>
      <trkpt lat="46.299540" lon="-0.367920">
        <time>2017-06-24T12:10:58Z</time>
      </trkpt>
      <trkpt lat="46.299710" lon="-0.367560">
        <time>2017-06-24T12:10:59Z</time>
      </trkpt>
      <trkpt lat="46.299900" lon="-0.367190">
        <time>2017-06-24T12:11:00Z</time>
      </trkpt>
      <trkpt lat="46.300070" lon="-0.366860">
        <time>2017-06-24T12:11:01Z</time>
      </trkpt>
      <trkpt lat="46.300260" lon="-0.366520">
        <time>2017-06-24T12:11:02Z</time>
      </trkpt>
      <trkpt lat="46.300460" lon="-0.366150">
        <time>2017-06-24T12:11:03Z</time>
      </trkpt>
      <trkpt lat="46.300640" lon="-0.365820">
        <time>2017-06-24T12:11:04Z</time>
      </trkpt>
      <trkpt lat="46.300840" lon="-0.365480">
        <time>2017-06-24T12:11:05Z</time>
      </trkpt>
      <trkpt lat="46.301040" lon="-0.365120">
        <time>2017-06-24T12:11:06Z</time>
      </trkpt>
      <trkpt lat="46.301230" lon="-0.364800">
        <time>2017-06-24T12:11:07Z</time>
      </trkpt>
      <trkpt lat="46.301440" lon="-0.364430">
        <time>2017-06-24T12:11:08Z</time>
      </trkpt>
      <trkpt lat="46.301620" lon="-0.364120">
        <time>2017-06-24T12:11:09Z</time>
      </trkpt>
      <trkpt lat="46.301830" lon="-0.363780">
        <time>2017-06-24T12:11:10Z</time>
      </trkpt>
      <trkpt lat="46.302050" lon="-0.363420">
        <time>2017-06-24T12:11:11Z</time>
      </trkpt>
      <trkpt lat="46.302250" lon="-0.363110">
        <time>2017-06-24T12:11:12Z</time>
      </trkpt>
      <trkpt lat="46.302470" lon="-0.362780">
        <time>2017-06-24T12:11:13Z</time>
      </trkpt>
      <trkpt lat="46.302690" lon="-0.362460">
        <time>2017-06-24T12:11:14Z</time>
      </trkpt>
      <trkpt lat="46.302900" lon="-0.362140">
        <time>2017-06-24T12:11:15Z</time>
      </trkpt>
      <trkpt lat="46.303150" lon="-0.361800">
        <time>2017-06-24T12:11:16Z</time>
      </trkpt>
      <trkpt lat="46.303360" lon="-0.361510">
        <time>2017-06-24T12:11:17Z</time>
      </trkpt>
      <trkpt lat="46.303580" lon="-0.361200">
        <time>2017-06-24T12:11:18Z</time>
      </trkpt>
      <trkpt lat="46.303820" lon="-0.360880">
        <time>2017-06-24T12:11:19Z</time>
      </trkpt>
      <trkpt lat="46.304030" lon="-0.360600">
        <time>2017-06-24T12:11:20Z</time>
      </trkpt>
      <trkpt lat="46.304250" lon="-0.360300">
        <time>2017-06-24T12:11:21Z</time>
      </trkpt>
      <trkpt lat="46.304490" lon="-0.359990">
        <time>2017-06-24T12:11:22Z</time>
      </trkpt>
      <trkpt lat="46.304700" lon="-0.359730">
        <time>2017-06-24T12:11:23Z</time>
      </trkpt>
      <trkpt lat="46.304940" lon="-0.359430">
        <time>2017-06-24T12:11:24Z</time>
      </trkpt>
      <trkpt lat="46.305150" lon="-0.359160">
        <time>2017-06-24T12:11:25Z</time>
      </trkpt>
      <trkpt lat="46.305380" lon="-0.358890">
        <time>2017-06-24T12:11:26Z</time>
      </trkpt>
      <trkpt lat="46.305620" lon="-0.358600">
        <time>2017-06-24T12:11:27Z</time>
      </trkpt>
      <trkpt lat="46.305840" lon="-0.358350">
        <time>2017-06-24T12:11:28Z</time>
      </trkpt>
      <trkpt lat="46.306070" lon="-0.358080">
        <time>2017-06-24T12:11:29Z</time>
      </trkpt>
      <trkpt lat="46.306310" lon="-0.357820">
        <time>2017-06-24T12:11:30Z</time>
      </trkpt>
      <trkpt lat="46.306550" lon="-0.357550">
        <time>2017-06-24T12:11:31Z</time>
      </trkpt>
      <trkpt lat="46.306810" lon="-0.357270">
        <time>2017-06-24T12:11:32Z</time>
      </trkpt>
      <trkpt lat="46.307050" lon="-0.357030">
        <time>2017-06-24T12:11:33Z</time>
      </trkpt>
      <trkpt lat="46.307300" lon="-0.356770">
        <time>2017-06-24T12:11:34Z</time>
      </trkpt>
      <trkpt lat="46.307580" lon="-0.356500">
        <time>2017-06-24T12:11:35Z</time>
      </trkpt>
      <trkpt lat="46.307810" lon="-0.356260">
        <time>2017-06-24T12:11:36Z</time>
      </trkpt>
      <trkpt lat="46.308070" lon="-0.356020">
        <time>2017-06-24T12:11:37Z</time>
      </trkpt>
      <trkpt lat="46.308350" lon="-0.355760">
        <time>2017-06-24T12:11:38Z</time>
      </trkpt>
      <trkpt lat="46.308590" lon="-0.355530">
        <time>2017-06-24T12:11:39Z</time>
      </trkpt>
      <trkpt lat="46.308840" lon="-0.355280">
        <time>2017-06-24T12:11:40Z</time>
      </trkpt>
      <trkpt lat="46.309070" lon="-0.355040">
        <time>2017-06-24T12:11:41Z</time>
      </trkpt>
      <trkpt lat="46.309330" lon="-0.354790">
        <time>2017-06-24T12:11:42Z</time>
      </trkpt>
      <trkpt lat="46.309600" lon="-0.354530">
        <time>2017-06-24T12:11:43Z</time>
      </trkpt>
      <trkpt lat="46.309850" lon="-0.354300">
        <time>2017-06-24T12:11:44Z</time>
      </trkpt>
      <trkpt lat="46.310110" lon="-0.354070">
        <time>2017-06-24T12:11:45Z</time>
      </trkpt>
      <trkpt lat="46.310380" lon="-0.353840">
        <time>2017-06-24T12:11:46Z</time>
      </trkpt>
      <trkpt lat="46.310650" lon="-0.353610">
        <time>2017-06-24T12:11:47Z</time>
      </trkpt>
      <trkpt lat="46.310940" lon="-0.353360">
        <time>2017-06-24T12:11:48Z</time>
      </trkpt>
      <trkpt lat="46.311190" lon="-0.353150">
        <time>2017-06-24T12:11:49Z</time>
      </trkpt>
      <trkpt lat="46.311450" lon="-0.352910">
        <time>2017-06-24T12:11:50Z</time>
      </trkpt>
      <trkpt lat="46.311740" lon="-0.352670">
        <time>2017-06-24T12:11:51Z</time>
      </trkpt>
      <trkpt lat="46.311990" lon="-0.352460">
        <time>2017-06-24T12:11:52Z</time>
      </trkpt>
      <trkpt lat="46.312270" lon="-0.352220">
        <time>2017-06-24T12:11:53Z</time>
      </trkpt>
      <trkpt lat="46.312550" lon="-0.351970">
        <time>2017-06-24T12:11:54Z</time>
      </trkpt>
      <trkpt lat="46.312800" lon="-0.351730">
        <time>2017-06-24T12:11:55Z</time>
      </trkpt>
      <trkpt lat="46.313090" lon="-0.351490">
        <time>2017-06-24T12:11:56Z</time>
      </trkpt>
      <trkpt lat="46.313340" lon="-0.351260">
        <time>2017-06-24T12:11:57Z</time>
      </trkpt>
      <trkpt lat="46.313610" lon="-0.351030">
        <time>2017-06-24T12:11:58Z</time>
      </trkpt>
      <trkpt lat="46.313900" lon="-0.350770">
        <time>2017-06-24T12:11:59Z</time>
      </trkpt>
      <trkpt lat="46.314160" lon="-0.350550">
        <time>2017-06-24T12:12:00Z</time>
      </trkpt>
      <trkpt lat="46.314430" lon="-0.350310">
        <time>2017-06-24T12:12:01Z</time>
      </trkpt>
      <trkpt lat="46.314710" lon="-0.350080">
        <time>2017-06-24T12:12:02Z</time>
      </trkpt>
      <trkpt lat="46.314990" lon="-0.349850">
        <time>2017-06-24T12:12:03Z</time>
      </trkpt>
      <trkpt lat="46.315280" lon="-0.349600">
        <time>2017-06-24T12:12:04Z</time>
      </trkpt>
      <trkpt lat="46.315550" lon="-0.349380">
        <time>2017-06-24T12:12:05Z</time>
      </trkpt>
      <trkpt lat="46.315820" lon="-0.349150">
        <time>2017-06-24T12:12:06Z</time>
      </trkpt>
      <trkpt lat="46.316120" lon="-0.348900">
        <time>2017-06-24T12:12:07Z</time>
      </trkpt>
      <trkpt lat="46.316380" lon="-0.348670">
        <time>2017-06-24T12:12:08Z</time>
      </trkpt>
      <trkpt lat="46.316650" lon="-0.348430">
        <time>2017-06-24T12:12:09Z</time>
      </trkpt>
      <trkpt lat="46.316930" lon="-0.348180">
        <time>2017-06-24T12:12:10Z</time>
      </trkpt>
      <trkpt lat="46.317180" lon="-0.347950">
        <time>2017-06-24T12:12:11Z</time>
      </trkpt>
      <trkpt lat="46.317470" lon="-0.347680">
        <time>2017-06-24T12:12:12Z</time>
      </trkpt>
      <trkpt lat="46.317720" lon="-0.347430">
        <time>2017-06-24T12:12:13Z</time>
      </trkpt>
      <trkpt lat="46.317990" lon="-0.347160">
        <time>2017-06-24T12:12:14Z</time>
      </trkpt>
      <trkpt lat="46.318280" lon="-0.346870">
        <time>2017-06-24T12:12:15Z</time>
      </trkpt>
      <trkpt lat="46.318540" lon="-0.346610">
        <time>2017-06-24T12:12:16Z</time>
      </trkpt>
      <trkpt lat="46.318810" lon="-0.346330">
        <time>2017-06-24T12:12:17Z</time>
      </trkpt>
      <trkpt lat="46.319090" lon="-0.346060">
        <time>2017-06-24T12:12:18Z</time>
      </trkpt>
      <trkpt lat="46.319370" lon="-0.345780">
        <time>2017-06-24T12:12:19Z</time>
      </trkpt>
      <trkpt lat="46.319660" lon="-0.345480">
        <time>2017-06-24T12:12:20Z</time>
      </trkpt>
      <trkpt lat="46.319920" lon="-0.345210">
        <time>2017-06-24T12:12:21Z</time>
      </trkpt>
      <trkpt lat="46.320190" lon="-0.344920">
        <time>2017-06-24T12:12:22Z</time>
      </trkpt>
      <trkpt lat="46.320470" lon="-0.344610">
        <time>2017-06-24T12:12:23Z</time>
      </trkpt>
      <trkpt lat="46.320720" lon="-0.344340">
        <time>2017-06-24T12:12:24Z</time>
      </trkpt>
      <trkpt lat="46.320980" lon="-0.344040">
        <time>2017-06-24T12:12:25Z</time>
      </trkpt>
      <trkpt lat="46.321260" lon="-0.343720">
        <time>2017-06-24T12:12:26Z</time>
      </trkpt>
      <trkpt lat="46.321500" lon="-0.343450">
        <time>2017-06-24T12:12:27Z</time>
      </trkpt>
      <trkpt lat="46.321760" lon="-0.343130">
        <time>2017-06-24T12:12:28Z</time>
      </trkpt>
      <trkpt lat="46.321990" lon="-0.342860">
        <time>2017-06-24T12:12:29Z</time>
      </trkpt>
      <trkpt lat="46.322230" lon="-0.342560">
        <time>2017-06-24T12:12:30Z</time>
      </trkpt>
      <trkpt lat="46.322490" lon="-0.342240">
        <time>2017-06-24T12:12:31Z</time>
      </trkpt>
      <trkpt lat="46.322720" lon="-0.341960">
        <time>2017-06-24T12:12:32Z</time>
      </trkpt>
      <trkpt lat="46.322950" lon="-0.341650">
        <time>2017-06-24T12:12:33Z</time>
      </trkpt>
      <trkpt lat="46.323190" lon="-0.341350">
        <time>2017-06-24T12:12:34Z</time>
      </trkpt>
      <trkpt lat="46.323420" lon="-0.341040">
        <time>2017-06-24T12:12:35Z</time>
      </trkpt>
      <trkpt lat="46.323670" lon="-0.340700">
        <time>2017-06-24T12:12:36Z</time>
      </trkpt>
      <trkpt lat="46.323880" lon="-0.340410">
        <time>2017-06-24T12:12:37Z</time>
      </trkpt>
      <trkpt lat="46.324110" lon="-0.340090">
        <time>2017-06-24T12:12:38Z</time>
      </trkpt>
      <trkpt lat="46.324350" lon="-0.339750">
        <time>2017-06-24T12:12:39Z</time>
      </trkpt>
      <trkpt lat="46.324570" lon="-0.339450">
        <time>2017-06-24T12:12:40Z</time>
      </trkpt>
      <trkpt lat="46.324790" lon="-0.339120">
        <time>2017-06-24T12:12:41Z</time>
      </trkpt>
      <trkpt lat="46.325040" lon="-0.338770">
        <time>2017-06-24T12:12:42Z</time>
      </trkpt>
      <trkpt lat="46.325250" lon="-0.338460">
        <time>2017-06-24T12:12:43Z</time>
      </trkpt>
      <trkpt lat="46.325490" lon="-0.338090">
        <time>2017-06-24T12:12:44Z</time>
      </trkpt>
      <trkpt lat="46.325700" lon="-0.337770">
        <time>2017-06-24T12:12:45Z</time>
      </trkpt>
      <trkpt lat="46.325920" lon="-0.337410">
        <time>2017-06-24T12:12:46Z</time>
      </trkpt>
      <trkpt lat="46.326160" lon="-0.337030">
        <time>2017-06-24T12:12:47Z</time>
      </trkpt>
      <trkpt lat="46.326370" lon="-0.336690">
        <time>2017-06-24T12:12:48Z</time>
      </trkpt>
      <trkpt lat="46.326590" lon="-0.336320">
        <time>2017-06-24T12:12:49Z</time>
      </trkpt>
      <trkpt lat="46.326820" lon="-0.335960">
        <time>2017-06-24T12:12:50Z</time>
      </trkpt>
      <trkpt lat="46.327040" lon="-0.335600">
        <time>2017-06-24T12:12:51Z</time>
      </trkpt>
      <trkpt lat="46.327280" lon="-0.335200">
        <time>2017-06-24T12:12:52Z</time>
      </trkpt>
      <trkpt lat="46.327480" lon="-0.334860">
        <time>2017-06-24T12:12:53Z</time>
      </trkpt>
      <trkpt lat="46.327700" lon="-0.334500">
        <time>2017-06-24T12:12:54Z</time>
      </trkpt>
      <trkpt lat="46.327920" lon="-0.334100">
        <time>2017-06-24T12:12:55Z</time>
      </trkpt>
      <trkpt lat="46.328120" lon="-0.333760">
        <time>2017-06-24T12:12:56Z</time>
      </trkpt>
      <trkpt lat="46.328330" lon="-0.333390">
        <time>2017-06-24T12:12:57Z</time>
      </trkpt>
      <trkpt lat="46.328540" lon="-0.333000">
        <time>2017-06-24T12:12:58Z</time>
      </trkpt>
      <trkpt lat="46.328720" lon="-0.332660">
        <time>2017-06-24T12:12:59Z</time>
      </trkpt>
      <trkpt lat="46.328920" lon="-0.332270">
        <time>2017-06-24T12:13:00Z</time>
      </trkpt>
      <trkpt lat="46.329100" lon="-0.331930">
        <time>2017-06-24T12:13:01Z</time>
      </trkpt>
      <trkpt lat="46.329290" lon="-0.331560">
        <time>2017-06-24T12:13:02Z</time>
      </trkpt>
      <trkpt lat="46.329500" lon="-0.331180">
        <time>2017-06-24T12:13:03Z</time>
      </trkpt>
      <trkpt lat="46.329680" lon="-0.330850">
        <time>2017-06-24T12:13:04Z</time>
      </trkpt>
      <trkpt lat="46.329880" lon="-0.330500">
        <time>2017-06-24T12:13:05Z</time>
      </trkpt>
      <trkpt lat="46.330070" lon="-0.330140">
        <time>2017-06-24T12:13:06Z</time>
      </trkpt>
      <trkpt lat="46.330280" lon="-0.329780">
        <time>2017-06-24T12:13:07Z</time>
      </trkpt>
      <trkpt lat="46.330490" lon="-0.329400">
        <time>2017-06-24T12:13:08Z</time>
      </trkpt>
      <trkpt lat="46.330680" lon="-0.329060">
        <time>2017-06-24T12:13:09Z</time>
      </trkpt>
      <trkpt lat="46.330880" lon="-0.328700">
        <time>2017-06-24T12:13:10Z</time>
      </trkpt>
      <trkpt lat="46.331100" lon="-0.328320">
        <time>2017-06-24T12:13:11Z</time>
      </trkpt>
      <trkpt lat="46.331290" lon="-0.327980">
        <time>2017-06-24T12:13:12Z</time>
      </trkpt>
      <trkpt lat="46.331490" lon="-0.327620">
        <time>2017-06-24T12:13:13Z</time>
      </trkpt>
      <trkpt lat="46.331700" lon="-0.327230">
        <time>2017-06-24T12:13:14Z</time>
      </trkpt>
      <trkpt lat="46.331870" lon="-0.326890">
        <time>2017-06-24T12:13:15Z</time>
      </trkpt>
      <trkpt lat="46.332090" lon="-0.326510">
        <time>2017-06-24T12:13:16Z</time>
      </trkpt>
      <trkpt lat="46.332280" lon="-0.326180">
        <time>2017-06-24T12:13:17Z</time>
      </trkpt>
      <trkpt lat="46.332480" lon="-0.325830">
        <time>2017-06-24T12:13:18Z</time>
      </trkpt>
      <trkpt lat="46.332690" lon="-0.325450">
        <time>2017-06-24T12:13:19Z</time>
      </trkpt>
      <trkpt lat="46.332880" lon="-0.325110">
        <time>2017-06-24T12:13:20Z</time>
      </trkpt>
      <trkpt lat="46.333080" lon="-0.324750">
        <time>2017-06-24T12:13:21Z</time>
      </trkpt>
      <trkpt lat="46.333270" lon="-0.324400">
        <time>2017-06-24T12:13:22Z</time>
      </trkpt>
      <trkpt lat="46.333470" lon="-0.324040">
        <time>2017-06-24T12:13:23Z</time>
      </trkpt>
      <trkpt lat="46.333680" lon="-0.323670">
        <time>2017-06-24T12:13:24Z</time>
      </trkpt>
      <trkpt lat="46.333860" lon="-0.323340">
        <time>2017-06-24T12:13:25Z</time>
      </trkpt>
      <trkpt lat="46.334050" lon="-0.322990">
        <time>2017-06-24T12:13:26Z</time>
      </trkpt>
      <trkpt lat="46.334260" lon="-0.322620">
        <time>2017-06-24T12:13:27Z</time>
      </trkpt>
      <trkpt lat="46.334440" lon="-0.322290">
        <time>2017-06-24T12:13:28Z</time>
      </trkpt>
      <trkpt lat="46.334630" lon="-0.321940">
        <time>2017-06-24T12:13:29Z</time>
      </trkpt>
      <trkpt lat="46.334830" lon="-0.321580">
        <time>2017-06-24T12:13:30Z</time>
      </trkpt>
      <trkpt lat="46.335010" lon="-0.321260">
        <time>2017-06-24T12:13:31Z</time>
      </trkpt>
      <trkpt lat="46.335220" lon="-0.320890">
        <time>2017-06-24T12:13:32Z</time>
      </trkpt>
      <trkpt lat="46.335400" lon="-0.320570">
        <time>2017-06-24T12:13:33Z</time>
      </trkpt>
      <trkpt lat="46.335590" lon="-0.320220">
        <time>2017-06-24T12:13:34Z</time>
      </trkpt>
      <trkpt lat="46.335800" lon="-0.319850">
        <time>2017-06-24T12:13:35Z</time>
      </trkpt>
      <trkpt lat="46.335980" lon="-0.319520">
        <time>2017-06-24T12:13:36Z</time>
      </trkpt>
      <trkpt lat="46.336180" lon="-0.319170">
        <time>2017-06-24T12:13:37Z</time>
      </trkpt>
      <trkpt lat="46.336380" lon="-0.318820">
        <time>2017-06-24T12:13:38Z</time>
      </trkpt>
      <trkpt lat="46.336580" lon="-0.318470">
        <time>2017-06-24T12:13:39Z</time>
      </trkpt>
      <trkpt lat="46.336790" lon="-0.318100">
        <time>2017-06-24T12:13:40Z</time>
      </trkpt>
      <trkpt lat="46.336980" lon="-0.317770">
        <time>2017-06-24T12:13:41Z</time>
      </trkpt>
      <trkpt lat="46.337170" lon="-0.317420">
        <time>2017-06-24T12:13:42Z</time>
      </trkpt>
      <trkpt lat="46.337380" lon="-0.317050">
        <time>2017-06-24T12:13:43Z</time>
      </trkpt>
      <trkpt lat="46.337550" lon="-0.316720">
        <time>2017-06-24T12:13:44Z</time>
      </trkpt>
      <trkpt lat="46.337750" lon="-0.316380">
        <time>2017-06-24T12:13:45Z</time>
      </trkpt>
      <trkpt lat="46.337950" lon="-0.316010">
        <time>2017-06-24T12:13:46Z</time>
      </trkpt>
      <trkpt lat="46.338130" lon="-0.315690">
        <time>2017-06-24T12:13:47Z</time>
      </trkpt>
      <trkpt lat="46.338340" lon="-0.315320">
        <time>2017-06-24T12:13:48Z</time>
      </trkpt>
      <trkpt lat="46.338530" lon="-0.314980">
        <time>2017-06-24T12:13:49Z</time>
      </trkpt>
      <trkpt lat="46.338710" lon="-0.314630">
        <time>2017-06-24T12:13:50Z</time>
      </trkpt>
      <trkpt lat="46.338920" lon="-0.314240">
        <time>2017-06-24T12:13:51Z</time>
      </trkpt>
      <trkpt lat="46.339090" lon="-0.313900">
        <time>2017-06-24T12:13:52Z</time>
      </trkpt>
      <trkpt lat="46.339280" lon="-0.313530">
        <time>2017-06-24T12:13:53Z</time>
      </trkpt>
      <trkpt lat="46.339480" lon="-0.313160">
        <time>2017-06-24T12:13:54Z</time>
      </trkpt>
      <trkpt lat="46.339670" lon="-0.312800">
        <time>2017-06-24T12:13:55Z</time>
      </trkpt>
      <trkpt lat="46.339870" lon="-0.312410">
        <time>2017-06-24T12:13:56Z</time>
      </trkpt>
      <trkpt lat="46.340050" lon="-0.312060">
        <time>2017-06-24T12:13:57Z</time>
      </trkpt>
      <trkpt lat="46.340230" lon="-0.311680">
        <time>2017-06-24T12:13:58Z</time>
      </trkpt>
      <trkpt lat="46.340440" lon="-0.311280">
        <time>2017-06-24T12:13:59Z</time>
      </trkpt>
      <trkpt lat="46.340620" lon="-0.310920">
        <time>2017-06-24T12:14:00Z</time>
      </trkpt>
      <trkpt lat="46.340810" lon="-0.310530">
        <time>2017-06-24T12:14:01Z</time>
      </trkpt>
      <trkpt lat="46.341010" lon="-0.310120">
        <time>2017-06-24T12:14:02Z</time>
      </trkpt>
      <trkpt lat="46.341180" lon="-0.309770">
        <time>2017-06-24T12:14:03Z</time>
      </trkpt>
      <trkpt lat="46.341380" lon="-0.309360">
        <time>2017-06-24T12:14:04Z</time>
      </trkpt>
      <trkpt lat="46.341540" lon="-0.309010">
        <time>2017-06-24T12:14:05Z</time>
      </trkpt>
      <trkpt lat="46.341710" lon="-0.308630">
        <time>2017-06-24T12:14:06Z</time>
      </trkpt>
      <trkpt lat="46.341890" lon="-0.308230">
        <time>2017-06-24T12:14:07Z</time>
      </trkpt>
      <trkpt lat="46.342040" lon="-0.307860">
        <time>2017-06-24T12:14:08Z</time>
      </trkpt>
      <trkpt lat="46.342200" lon="-0.307480">
        <time>2017-06-24T12:14:09Z</time>
      </trkpt>
      <trkpt lat="46.342360" lon="-0.307090">
        <time>2017-06-24T12:14:10Z</time>
      </trkpt>
      <trkpt lat="46.342520" lon="-0.306710">
        <time>2017-06-24T12:14:11Z</time>
      </trkpt>
      <trkpt lat="46.342690" lon="-0.306310">
        <time>2017-06-24T12:14:12Z</time>
      </trkpt>
      <trkpt lat="46.342840" lon="-0.305960">
        <time>2017-06-24T12:14:13Z</time>
      </trkpt>
      <trkpt lat="46.343000" lon="-0.305580">
        <time>2017-06-24T12:14:14Z</time>
      </trkpt>
      <trkpt lat="46.343170" lon="-0.305170">
        <time>2017-06-24T12:14:15Z</time>
      </trkpt>
      <trkpt lat="46.343320" lon="-0.304810">
        <time>2017-06-24T12:14:16Z</time>
      </trkpt>
      <trkpt lat="46.343480" lon="-0.304420">
        <time>2017-06-24T12:14:17Z</time>
      </trkpt>
      <trkpt lat="46.343650" lon="-0.304000">
        <time>2017-06-24T12:14:18Z</time>
      </trkpt>
      <trkpt lat="46.343800" lon="-0.303630">
        <time>2017-06-24T12:14:19Z</time>
      </trkpt>
      <trkpt lat="46.343970" lon="-0.303210">
        <time>2017-06-24T12:14:20Z</time>
      </trkpt>
      <trkpt lat="46.344110" lon="-0.302840">
        <time>2017-06-24T12:14:21Z</time>
      </trkpt>
      <trkpt lat="46.344270" lon="-0.302450">
        <time>2017-06-24T12:14:22Z</time>
      </trkpt>
      <trkpt lat="46.344430" lon="-0.302030">
        <time>2017-06-24T12:14:23Z</time>
      </trkpt>
      <trkpt lat="46.344580" lon="-0.301660">
        <time>2017-06-24T12:14:24Z</time>
      </trkpt>
      <trkpt lat="46.344730" lon="-0.301270">
        <time>2017-06-24T12:14:25Z</time>
      </trkpt>
      <trkpt lat="46.344880" lon="-0.300890">
        <time>2017-06-24T12:14:26Z</time>
      </trkpt>
      <trkpt lat="46.345020" lon="-0.300500">
        <time>2017-06-24T12:14:27Z</time>
      </trkpt>
      <trkpt lat="46.345180" lon="-0.300090">
        <time>2017-06-24T12:14:28Z</time>
      </trkpt>
      <trkpt lat="46.345310" lon="-0.299730">
        <time>2017-06-24T12:14:29Z</time>
      </trkpt>
      <trkpt lat="46.345450" lon="-0.299350">
        <time>2017-06-24T12:14:30Z</time>
      </trkpt>
      <trkpt lat="46.345600" lon="-0.298930">
        <time>2017-06-24T12:14:31Z</time>
      </trkpt>
      <trkpt lat="46.345730" lon="-0.298570">
        <time>2017-06-24T12:14:32Z</time>
      </trkpt>
      <trkpt lat="46.345870" lon="-0.298170">
        <time>2017-06-24T12:14:33Z</time>
      </trkpt>
      <trkpt lat="46.346010" lon="-0.297750">
        <time>2017-06-24T12:14:34Z</time>
      </trkpt>
      <trkpt lat="46.346140" lon="-0.297380">
        <time>2017-06-24T12:14:35Z</time>
      </trkpt>
      <trkpt lat="46.346280" lon="-0.296960">
        <time>2017-06-24T12:14:36Z</time>
      </trkpt>
      <trkpt lat="46.346410" lon="-0.296590">
        <time>2017-06-24T12:14:37Z</time>
      </trkpt>
      <trkpt lat="46.346540" lon="-0.296190">
        <time>2017-06-24T12:14:38Z</time>
      </trkpt>
      <trkpt lat="46.346680" lon="-0.295780">
        <time>2017-06-24T12:14:39Z</time>
      </trkpt>
      <trkpt lat="46.346800" lon="-0.295410">
        <time>2017-06-24T12:14:40Z</time>
      </trkpt>
      <trkpt lat="46.346930" lon="-0.295020">
        <time>2017-06-24T12:14:41Z</time>
      </trkpt>
      <trkpt lat="46.347050" lon="-0.294630">
        <time>2017-06-24T12:14:42Z</time>
      </trkpt>
      <trkpt lat="46.347170" lon="-0.294240">
        <time>2017-06-24T12:14:43Z</time>
      </trkpt>
      <trkpt lat="46.347300" lon="-0.293830">
        <time>2017-06-24T12:14:44Z</time>
      </trkpt>
      <trkpt lat="46.347410" lon="-0.293470">
        <time>2017-06-24T12:14:45Z</time>
      </trkpt>
      <trkpt lat="46.347540" lon="-0.293080">
        <time>2017-06-24T12:14:46Z</time>
      </trkpt>
      <trkpt lat="46.347660" lon="-0.292660">
        <time>2017-06-24T12:14:47Z</time>
      </trkpt>
      <trkpt lat="46.347770" lon="-0.292300">
        <time>2017-06-24T12:14:48Z</time>
      </trkpt>
      <trkpt lat="46.347890" lon="-0.291910">
        <time>2017-06-24T12:14:49Z</time>
      </trkpt>
      <trkpt lat="46.348020" lon="-0.291500">
        <time>2017-06-24T12:14:50Z</time>
      </trkpt>
      <trkpt lat="46.348130" lon="-0.291140">
        <time>2017-06-24T12:14:51Z</time>
      </trkpt>
      <trkpt lat="46.348260" lon="-0.290720">
        <time>2017-06-24T12:14:52Z</time>
      </trkpt>
      <trkpt lat="46.348370" lon="-0.290360">
        <time>2017-06-24T12:14:53Z</time>
      </trkpt>
      <trkpt lat="46.348490" lon="-0.289970">
        <time>2017-06-24T12:14:54Z</time>
      </trkpt>
      <trkpt lat="46.348620" lon="-0.289550">
        <time>2017-06-24T12:14:55Z</time>
      </trkpt>
      <trkpt lat="46.348740" lon="-0.289190">
        <time>2017-06-24T12:14:56Z</time>
      </trkpt>
      <trkpt lat="46.348860" lon="-0.288800">
        <time>2017-06-24T12:14:57Z</time>
      </trkpt>
      <trkpt lat="46.348980" lon="-0.288400">
        <time>2017-06-24T12:14:58Z</time>
      </trkpt>
      <trkpt lat="46.349110" lon="-0.288010">
        <time>2017-06-24T12:14:59Z</time>
      </trkpt>
      <trkpt lat="46.349240" lon="-0.287590">
        <time>2017-06-24T12:15:00Z</time>
      </trkpt>
      <trkpt lat="46.349350" lon="-0.287220">
        <time>2017-06-24T12:15:01Z</time>
      </trkpt>
      <trkpt lat="46.349490" lon="-0.286840">
        <time>2017-06-24T12:15:02Z</time>
      </trkpt>
      <trkpt lat="46.349630" lon="-0.286440">
        <time>2017-06-24T12:15:03Z</time>
      </trkpt>
      <trkpt lat="46.349750" lon="-0.286080">
        <time>2017-06-24T12:15:04Z</time>
      </trkpt>
      <trkpt lat="46.349880" lon="-0.285700">
        <time>2017-06-24T12:15:05Z</time>
      </trkpt>
      <trkpt lat="46.350030" lon="-0.285300">
        <time>2017-06-24T12:15:06Z</time>
      </trkpt>
      <trkpt lat="46.350160" lon="-0.284940">
        <time>2017-06-24T12:15:07Z</time>
      </trkpt>
      <trkpt lat="46.350310" lon="-0.284530">
        <time>2017-06-24T12:15:08Z</time>
      </trkpt>
      <trkpt lat="46.350450" lon="-0.284180">
        <time>2017-06-24T12:15:09Z</time>
      </trkpt>
      <trkpt lat="46.350590" lon="-0.283810">
        <time>2017-06-24T12:15:10Z</time>
      </trkpt>
      <trkpt lat="46.350750" lon="-0.283410">
        <time>2017-06-24T12:15:11Z</time>
      </trkpt>
      <trkpt lat="46.350890" lon="-0.283070">
        <time>2017-06-24T12:15:12Z</time>
      </trkpt>
      <trkpt lat="46.351040" lon="-0.282710">
        <time>2017-06-24T12:15:13Z</time>
      </trkpt>
      <trkpt lat="46.351190" lon="-0.282350">
        <time>2017-06-24T12:15:14Z</time>
      </trkpt>
      <trkpt lat="46.351340" lon="-0.281990">
        <time>2017-06-24T12:15:15Z</time>
      </trkpt>
      <trkpt lat="46.351510" lon="-0.281610">
        <time>2017-06-24T12:15:16Z</time>
      </trkpt>
      <trkpt lat="46.351650" lon="-0.281270">
        <time>2017-06-24T12:15:17Z</time>
      </trkpt>
      <trkpt lat="46.351810" lon="-0.280910">
        <time>2017-06-24T12:15:18Z</time>
      </trkpt>
      <trkpt lat="46.351990" lon="-0.280540">
        <time>2017-06-24T12:15:19Z</time>
      </trkpt>
      <trkpt lat="46.352150" lon="-0.280210">
        <time>2017-06-24T12:15:20Z</time>
      </trkpt>
      <trkpt lat="46.352320" lon="-0.279840">
        <time>2017-06-24T12:15:21Z</time>
      </trkpt>
      <trkpt lat="46.352510" lon="-0.279450">
        <time>2017-06-24T12:15:22Z</time>
      </trkpt>
      <trkpt lat="46.352690" lon="-0.279110">
        <time>2017-06-24T12:15:23Z</time>
      </trkpt>
      <trkpt lat="46.352890" lon="-0.278720">
        <time>2017-06-24T12:15:24Z</time>
      </trkpt>
      <trkpt lat="46.353070" lon="-0.278380">
        <time>2017-06-24T12:15:25Z</time>
      </trkpt>
      <trkpt lat="46.353260" lon="-0.278020">
        <time>2017-06-24T12:15:26Z</time>
      </trkpt>
      <trkpt lat="46.353460" lon="-0.277630">
        <time>2017-06-24T12:15:27Z</time>
      </trkpt>
      <trkpt lat="46.353640" lon="-0.277300">
        <time>2017-06-24T12:15:28Z</time>
      </trkpt>
      <trkpt lat="46.353830" lon="-0.276950">
        <time>2017-06-24T12:15:29Z</time>
      </trkpt>
      <trkpt lat="46.354030" lon="-0.276600">
        <time>2017-06-24T12:15:30Z</time>
      </trkpt>
      <trkpt lat="46.354230" lon="-0.276260">
        <time>2017-06-24T12:15:31Z</time>
      </trkpt>
      <trkpt lat="46.354450" lon="-0.275900">
        <time>2017-06-24T12:15:32Z</time>
      </trkpt>
      <trkpt lat="46.354640" lon="-0.275580">
        <time>2017-06-24T12:15:33Z</time>
      </trkpt>
      <trkpt lat="46.354850" lon="-0.275230">
        <time>2017-06-24T12:15:34Z</time>
      </trkpt>
      <trkpt lat="46.355080" lon="-0.274870">
        <time>2017-06-24T12:15:35Z</time>
      </trkpt>
      <trkpt lat="46.355280" lon="-0.274550">
        <time>2017-06-24T12:15:36Z</time>
      </trkpt>
      <trkpt lat="46.355500" lon="-0.274220">
        <time>2017-06-24T12:15:37Z</time>
      </trkpt>
      <trkpt lat="46.355730" lon="-0.273860">
        <time>2017-06-24T12:15:38Z</time>
      </trkpt>
      <trkpt lat="46.355940" lon="-0.273550">
        <time>2017-06-24T12:15:39Z</time>
      </trkpt>
      <trkpt lat="46.356180" lon="-0.273200">
        <time>2017-06-24T12:15:40Z</time>
      </trkpt>
      <trkpt lat="46.356390" lon="-0.272890">
        <time>2017-06-24T12:15:41Z</time>
      </trkpt>
      <trkpt lat="46.356610" lon="-0.272560">
        <time>2017-06-24T12:15:42Z</time>
      </trkpt>
      <trkpt lat="46.356860" lon="-0.272200">
        <time>2017-06-24T12:15:43Z</time>
      </trkpt>
      <trkpt lat="46.357070" lon="-0.271890">
        <time>2017-06-24T12:15:44Z</time>
      </trkpt>
      <trkpt lat="46.357300" lon="-0.271560">
        <time>2017-06-24T12:15:45Z</time>
      </trkpt>
      <trkpt lat="46.357530" lon="-0.271220">
        <time>2017-06-24T12:15:46Z</time>
      </trkpt>
      <trkpt lat="46.357750" lon="-0.270890">
        <time>2017-06-24T12:15:47Z</time>
      </trkpt>
      <trkpt lat="46.358000" lon="-0.270540">
        <time>2017-06-24T12:15:48Z</time>
      </trkpt>
      <trkpt lat="46.358200" lon="-0.270230">
        <time>2017-06-24T12:15:49Z</time>
      </trkpt>
      <trkpt lat="46.358430" lon="-0.269910">
        <time>2017-06-24T12:15:50Z</time>
      </trkpt>
      <trkpt lat="46.358670" lon="-0.269560">
        <time>2017-06-24T12:15:51Z</time>
      </trkpt>
      <trkpt lat="46.358880" lon="-0.269260">
        <time>2017-06-24T12:15:52Z</time>
      </trkpt>
      <trkpt lat="46.359100" lon="-0.268930">
        <time>2017-06-24T12:15:53Z</time>
      </trkpt>
      <trkpt lat="46.359340" lon="-0.268580">
        <time>2017-06-24T12:15:54Z</time>
      </trkpt>
      <trkpt lat="46.359550" lon="-0.268280">
        <time>2017-06-24T12:15:55Z</time>
      </trkpt>
      <trkpt lat="46.359790" lon="-0.267930">
        <time>2017-06-24T12:15:56Z</time>
      </trkpt>
      <trkpt lat="46.359990" lon="-0.267620">
        <time>2017-06-24T12:15:57Z</time>
      </trkpt>
      <trkpt lat="46.360210" lon="-0.267270">
        <time>2017-06-24T12:15:58Z</time>
      </trkpt>
      <trkpt lat="46.360440" lon="-0.266920">
        <time>2017-06-24T12:15:59Z</time>
      </trkpt>
      <trkpt lat="46.360640" lon="-0.266600">
        <time>2017-06-24T12:16:00Z</time>
      </trkpt>
      <trkpt lat="46.360860" lon="-0.266250">
        <time>2017-06-24T12:16:01Z</time>
      </trkpt>
      <trkpt lat="46.361060" lon="-0.265900">
        <time>2017-06-24T12:16:02Z</time>
      </trkpt>
      <trkpt lat="46.361270" lon="-0.265540">
        <time>2017-06-24T12:16:03Z</time>
      </trkpt>
      <trkpt lat="46.361490" lon="-0.265170">
        <time>2017-06-24T12:16:04Z</time>
      </trkpt>
      <trkpt lat="46.361680" lon="-0.264830">
        <time>2017-06-24T12:16:05Z</time>
      </trkpt>
      <trkpt lat="46.361870" lon="-0.264460">
        <time>2017-06-24T12:16:06Z</time>
      </trkpt>
      <trkpt lat="46.362080" lon="-0.264070">
        <time>2017-06-24T12:16:07Z</time>
      </trkpt>
      <trkpt lat="46.362250" lon="-0.263710">
        <time>2017-06-24T12:16:08Z</time>
      </trkpt>
      <trkpt lat="46.362430" lon="-0.263340">
        <time>2017-06-24T12:16:09Z</time>
      </trkpt>
      <trkpt lat="46.362620" lon="-0.262940">
        <time>2017-06-24T12:16:10Z</time>
      </trkpt>
      <trkpt lat="46.362790" lon="-0.262580">
        <time>2017-06-24T12:16:11Z</time>
      </trkpt>
      <trkpt lat="46.362970" lon="-0.262170">
        <time>2017-06-24T12:16:12Z</time>
      </trkpt>
      <trkpt lat="46.363130" lon="-0.261810">
        <time>2017-06-24T12:16:13Z</time>
      </trkpt>
      <trkpt lat="46.363290" lon="-0.261410">
        <time>2017-06-24T12:16:14Z</time>
      </trkpt>
      <trkpt lat="46.363460" lon="-0.261000">
        <time>2017-06-24T12:16:15Z</time>
      </trkpt>
      <trkpt lat="46.363610" lon="-0.260630">
        <time>2017-06-24T12:16:16Z</time>
      </trkpt>
      <trkpt lat="46.363760" lon="-0.260230">
        <time>2017-06-24T12:16:17Z</time>
      </trkpt>
      <trkpt lat="46.363910" lon="-0.259830">
        <time>2017-06-24T12:16:18Z</time>
      </trkpt>
      <trkpt lat="46.364050" lon="-0.259420">
        <time>2017-06-24T12:16:19Z</time>
      </trkpt>
      <trkpt lat="46.364200" lon="-0.258990">
        <time>2017-06-24T12:16:20Z</time>
      </trkpt>
      <trkpt lat="46.364330" lon="-0.258600">
        <time>2017-06-24T12:16:21Z</time>
      </trkpt>
      <trkpt lat="46.364450" lon="-0.258190">
        <time>2017-06-24T12:16:22Z</time>
      </trkpt>
      <trkpt lat="46.364590" lon="-0.257740">
        <time>2017-06-24T12:16:23Z</time>
      </trkpt>
      <trkpt lat="46.364700" lon="-0.257350">
        <time>2017-06-24T12:16:24Z</time>
      </trkpt>
      <trkpt lat="46.364820" lon="-0.256920">
        <time>2017-06-24T12:16:25Z</time>
      </trkpt>
      <trkpt lat="46.364940" lon="-0.256450">
        <time>2017-06-24T12:16:26Z</time>
      </trkpt>
      <trkpt lat="46.365040" lon="-0.256050">
        <time>2017-06-24T12:16:27Z</time>
      </trkpt>
      <trkpt lat="46.365160" lon="-0.255580">
        <time>2017-06-24T12:16:28Z</time>
      </trkpt>
      <trkpt lat="46.365260" lon="-0.255170">
        <time>2017-06-24T12:16:29Z</time>
      </trkpt>
      <trkpt lat="46.365360" lon="-0.254730">
        <time>2017-06-24T12:16:30Z</time>
      </trkpt>
      <trkpt lat="46.365470" lon="-0.254260">
        <time>2017-06-24T12:16:31Z</time>
      </trkpt>
      <trkpt lat="46.365550" lon="-0.253850">
        <time>2017-06-24T12:16:32Z</time>
      </trkpt>
      <trkpt lat="46.365640" lon="-0.253400">
        <time>2017-06-24T12:16:33Z</time>
      </trkpt>
      <trkpt lat="46.365730" lon="-0.252960">
        <time>2017-06-24T12:16:34Z</time>
      </trkpt>
      <trkpt lat="46.365800" lon="-0.252510">
        <time>2017-06-24T12:16:35Z</time>
      </trkpt>
      <trkpt lat="46.365880" lon="-0.252040">
        <time>2017-06-24T12:16:36Z</time>
      </trkpt>
      <trkpt lat="46.365940" lon="-0.251620">
        <time>2017-06-24T12:16:37Z</time>
      </trkpt>
      <trkpt lat="46.366020" lon="-0.251170">
        <time>2017-06-24T12:16:38Z</time>
      </trkpt>
      <trkpt lat="46.366090" lon="-0.250700">
        <time>2017-06-24T12:16:39Z</time>
      </trkpt>
      <trkpt lat="46.366150" lon="-0.250280">
        <time>2017-06-24T12:16:40Z</time>
      </trkpt>
      <trkpt lat="46.366210" lon="-0.249820">
        <time>2017-06-24T12:16:41Z</time>
      </trkpt>
      <trkpt lat="46.366260" lon="-0.249330">
        <time>2017-06-24T12:16:42Z</time>
      </trkpt>
      <trkpt lat="46.366310" lon="-0.248890">
        <time>2017-06-24T12:16:43Z</time>
      </trkpt>
      <trkpt lat="46.366370" lon="-0.248410">
        <time>2017-06-24T12:16:44Z</time>
      </trkpt>
      <trkpt lat="46.366410" lon="-0.247960">
        <time>2017-06-24T12:16:45Z</time>
      </trkpt>
      <trkpt lat="46.366450" lon="-0.247500">
        <time>2017-06-24T12:16:46Z</time>
      </trkpt>
      <trkpt lat="46.366500" lon="-0.247000">
        <time>2017-06-24T12:16:47Z</time>
      </trkpt>
      <trkpt lat="46.366540" lon="-0.246580">
        <time>2017-06-24T12:16:48Z</time>
      </trkpt>
      <trkpt lat="46.366570" lon="-0.246130">
        <time>2017-06-24T12:16:49Z</time>
      </trkpt>
      <trkpt lat="46.366610" lon="-0.245690">
        <time>2017-06-24T12:16:50Z</time>
      </trkpt>
      <trkpt lat="46.366650" lon="-0.245240">
        <time>2017-06-24T12:16:51Z</time>
      </trkpt>
      <trkpt lat="46.366690" lon="-0.244760">
        <time>2017-06-24T12:16:52Z</time>
      </trkpt>
      <trkpt lat="46.366730" lon="-0.244330">
        <time>2017-06-24T12:16:53Z</time>
      </trkpt>
      <trkpt lat="46.366760" lon="-0.243880">
        <time>2017-06-24T12:16:54Z</time>
      </trkpt>
      <trkpt lat="46.366800" lon="-0.243390">
        <time>2017-06-24T12:16:55Z</time>
      </trkpt>
      <trkpt lat="46.366840" lon="-0.242970">
        <time>2017-06-24T12:16:56Z</time>
      </trkpt>
      <trkpt lat="46.366880" lon="-0.242510">
        <time>2017-06-24T12:16:57Z</time>
      </trkpt>
      <trkpt lat="46.366920" lon="-0.242030">
        <time>2017-06-24T12:16:58Z</time>
      </trkpt>
      <trkpt lat="46.366950" lon="-0.241600">
        <time>2017-06-24T12:16:59Z</time>
      </trkpt>
      <trkpt lat="46.366990" lon="-0.241120">
        <time>2017-06-24T12:17:00Z</time>
      </trkpt>
      <trkpt lat="46.367040" lon="-0.240700">
        <time>2017-06-24T12:17:01Z</time>
      </trkpt>
      <trkpt lat="46.367080" lon="-0.240250">
        <time>2017-06-24T12:17:02Z</time>
      </trkpt>
      <trkpt lat="46.367120" lon="-0.239770">
        <time>2017-06-24T12:17:03Z</time>
      </trkpt>
      <trkpt lat="46.367170" lon="-0.239340">
        <time>2017-06-24T12:17:04Z</time>
      </trkpt>
      <trkpt lat="46.367210" lon="-0.238890">
        <time>2017-06-24T12:17:05Z</time>
      </trkpt>
      <trkpt lat="46.367250" lon="-0.238430">
        <time>2017-06-24T12:17:06Z</time>
      </trkpt>
      <trkpt lat="46.367300" lon="-0.237960">
        <time>2017-06-24T12:17:07Z</time>
      </trkpt>
      <trkpt lat="46.367350" lon="-0.237470">
        <time>2017-06-24T12:17:08Z</time>
      </trkpt>
      <trkpt lat="46.367390" lon="-0.237030">
        <time>2017-06-24T12:17:09Z</time>
      </trkpt>
      <trkpt lat="46.367430" lon="-0.236570">
        <time>2017-06-24T12:17:10Z</time>
      </trkpt>
      <trkpt lat="46.367480" lon="-0.236070">
        <time>2017-06-24T12:17:11Z</time>
      </trkpt>
      <trkpt lat="46.367520" lon="-0.235640">
        <time>2017-06-24T12:17:12Z</time>
      </trkpt>
      <trkpt lat="46.367550" lon="-0.235190">
        <time>2017-06-24T12:17:13Z</time>
      </trkpt>
      <trkpt lat="46.367600" lon="-0.234700">
        <time>2017-06-24T12:17:14Z</time>
      </trkpt>
      <trkpt lat="46.367640" lon="-0.234280">
        <time>2017-06-24T12:17:15Z</time>
      </trkpt>
      <trkpt lat="46.367690" lon="-0.233790">
        <time>2017-06-24T12:17:16Z</time>
      </trkpt>
      <trkpt lat="46.367730" lon="-0.233350">
        <time>2017-06-24T12:17:17Z</time>
      </trkpt>
      <trkpt lat="46.367760" lon="-0.232890">
        <time>2017-06-24T12:17:18Z</time>
      </trkpt>
      <trkpt lat="46.367790" lon="-0.232400">
        <time>2017-06-24T12:17:19Z</time>
      </trkpt>
      <trkpt lat="46.367820" lon="-0.231960">
        <time>2017-06-24T12:17:20Z</time>
      </trkpt>
      <trkpt lat="46.367860" lon="-0.231500">
        <time>2017-06-24T12:17:21Z</time>
      </trkpt>
      <trkpt lat="46.367910" lon="-0.231040">
        <time>2017-06-24T12:17:22Z</time>
      </trkpt>
      <trkpt lat="46.367950" lon="-0.230570">
        <time>2017-06-24T12:17:23Z</time>
      </trkpt>
      <trkpt lat="46.368000" lon="-0.230070">
        <time>2017-06-24T12:17:24Z</time>
      </trkpt>
      <trkpt lat="46.368030" lon="-0.229620">
        <time>2017-06-24T12:17:25Z</time>
      </trkpt>
      <trkpt lat="46.368070" lon="-0.229150">
        <time>2017-06-24T12:17:26Z</time>
      </trkpt>
      <trkpt lat="46.368120" lon="-0.228650">
        <time>2017-06-24T12:17:27Z</time>
      </trkpt>
      <trkpt lat="46.368160" lon="-0.228220">
        <time>2017-06-24T12:17:28Z</time>
      </trkpt>
      <trkpt lat="46.368200" lon="-0.227740">
        <time>2017-06-24T12:17:29Z</time>
      </trkpt>
      <trkpt lat="46.368240" lon="-0.227240">
        <time>2017-06-24T12:17:30Z</time>
      </trkpt>
      <trkpt lat="46.368280" lon="-0.226790">
        <time>2017-06-24T12:17:31Z</time>
      </trkpt>
      <trkpt lat="46.368330" lon="-0.226290">
        <time>2017-06-24T12:17:32Z</time>
      </trkpt>
      <trkpt lat="46.368370" lon="-0.225840">
        <time>2017-06-24T12:17:33Z</time>
      </trkpt>
      <trkpt lat="46.368430" lon="-0.225370">
        <time>2017-06-24T12:17:34Z</time>
      </trkpt>
      <trkpt lat="46.368490" lon="-0.224870">
        <time>2017-06-24T12:17:35Z</time>
      </trkpt>
      <trkpt lat="46.368550" lon="-0.224430">
        <time>2017-06-24T12:17:36Z</time>
      </trkpt>
      <trkpt lat="46.368620" lon="-0.223960">
        <time>2017-06-24T12:17:37Z</time>
      </trkpt>
      <trkpt lat="46.368690" lon="-0.223490">
        <time>2017-06-24T12:17:38Z</time>
      </trkpt>
      <trkpt lat="46.368770" lon="-0.223030">
        <time>2017-06-24T12:17:39Z</time>
      </trkpt>
      <trkpt lat="46.368860" lon="-0.222540">
        <time>2017-06-24T12:17:40Z</time>
      </trkpt>
      <trkpt lat="46.368940" lon="-0.222110">
        <time>2017-06-24T12:17:41Z</time>
      </trkpt>
      <trkpt lat="46.369040" lon="-0.221670">
        <time>2017-06-24T12:17:42Z</time>
      </trkpt>
      <trkpt lat="46.369150" lon="-0.221200">
        <time>2017-06-24T12:17:43Z</time>
      </trkpt>
      <trkpt lat="46.369260" lon="-0.220790">
        <time>2017-06-24T12:17:44Z</time>
      </trkpt>
      <trkpt lat="46.369370" lon="-0.220360">
        <time>2017-06-24T12:17:45Z</time>
      </trkpt>
      <trkpt lat="46.369520" lon="-0.219910">
        <time>2017-06-24T12:17:46Z</time>
      </trkpt>
      <trkpt lat="46.369640" lon="-0.219510">
        <time>2017-06-24T12:17:47Z</time>
      </trkpt>
      <trkpt lat="46.369790" lon="-0.219080">
        <time>2017-06-24T12:17:48Z</time>
      </trkpt>
      <trkpt lat="46.369930" lon="-0.218700">
        <time>2017-06-24T12:17:49Z</time>
      </trkpt>
      <trkpt lat="46.370070" lon="-0.218300">
        <time>2017-06-24T12:17:50Z</time>
      </trkpt>
      <trkpt lat="46.370240" lon="-0.217890">
        <time>2017-06-24T12:17:51Z</time>
      </trkpt>
      <trkpt lat="46.370390" lon="-0.217530">
        <time>2017-06-24T12:17:52Z</time>
      </trkpt>
      <trkpt lat="46.370560" lon="-0.217160">
        <time>2017-06-24T12:17:53Z</time>
      </trkpt>
      <trkpt lat="46.370730" lon="-0.216790">
        <time>2017-06-24T12:17:54Z</time>
      </trkpt>
      <trkpt lat="46.370920" lon="-0.216440">
        <time>2017-06-24T12:17:55Z</time>
      </trkpt>
      <trkpt lat="46.371110" lon="-0.216060">
        <time>2017-06-24T12:17:56Z</time>
      </trkpt>
      <trkpt lat="46.371290" lon="-0.215740">
        <time>2017-06-24T12:17:57Z</time>
      </trkpt>
      <trkpt lat="46.371480" lon="-0.215410">
        <time>2017-06-24T12:17:58Z</time>
      </trkpt>
      <trkpt lat="46.371700" lon="-0.215060">
        <time>2017-06-24T12:17:59Z</time>
      </trkpt>
      <trkpt lat="46.371900" lon="-0.214760">
        <time>2017-06-24T12:18:00Z</time>
      </trkpt>
      <trkpt lat="46.372110" lon="-0.214440">
        <time>2017-06-24T12:18:01Z</time>
      </trkpt>
      <trkpt lat="46.372350" lon="-0.214100">
        <time>2017-06-24T12:18:02Z</time>
      </trkpt>
      <trkpt lat="46.372560" lon="-0.213820">
        <time>2017-06-24T12:18:03Z</time>
      </trkpt>
      <trkpt lat="46.372810" lon="-0.213500">
        <time>2017-06-24T12:18:04Z</time>
      </trkpt>
      <trkpt lat="46.373030" lon="-0.213220">
        <time>2017-06-24T12:18:05Z</time>
      </trkpt>
      <trkpt lat="46.373280" lon="-0.212930">
        <time>2017-06-24T12:18:06Z</time>
      </trkpt>
      <trkpt lat="46.373540" lon="-0.212650">
        <time>2017-06-24T12:18:07Z</time>
      </trkpt>
      <trkpt lat="46.373790" lon="-0.212400">
        <time>2017-06-24T12:18:08Z</time>
      </trkpt>
      <trkpt lat="46.374050" lon="-0.212130">
        <time>2017-06-24T12:18:09Z</time>
      </trkpt>
      <trkpt lat="46.374320" lon="-0.211880">
        <time>2017-06-24T12:18:10Z</time>
      </trkpt>
      <trkpt lat="46.374580" lon="-0.211650">
        <time>2017-06-24T12:18:11Z</time>
      </trkpt>
      <trkpt lat="46.374860" lon="-0.211400">
        <time>2017-06-24T12:18:12Z</time>
      </trkpt>
      <trkpt lat="46.375120" lon="-0.211190">
        <time>2017-06-24T12:18:13Z</time>
      </trkpt>
      <trkpt lat="46.375390" lon="-0.210960">
        <time>2017-06-24T12:18:14Z</time>
      </trkpt>
      <trkpt lat="46.375670" lon="-0.210750">
        <time>2017-06-24T12:18:15Z</time>
      </trkpt>
      <trkpt lat="46.375930" lon="-0.210550">
        <time>2017-06-24T12:18:16Z</time>
      </trkpt>
      <trkpt lat="46.376210" lon="-0.210340">
        <time>2017-06-24T12:18:17Z</time>
      </trkpt>
      <trkpt lat="46.376500" lon="-0.210120">
        <time>2017-06-24T12:18:18Z</time>
      </trkpt>
      <trkpt lat="46.376760" lon="-0.209940">
        <time>2017-06-24T12:18:19Z</time>
      </trkpt>
      <trkpt lat="46.377070" lon="-0.209730">
        <time>2017-06-24T12:18:20Z</time>
      </trkpt>
      <trkpt lat="46.377330" lon="-0.209550">
        <time>2017-06-24T12:18:21Z</time>
      </trkpt>
      <trkpt lat="46.377610" lon="-0.209360">
        <time>2017-06-24T12:18:22Z</time>
      </trkpt>
      <trkpt lat="46.377910" lon="-0.209160">
        <time>2017-06-24T12:18:23Z</time>
      </trkpt>
      <trkpt lat="46.378170" lon="-0.208980">
        <time>2017-06-24T12:18:24Z</time>
      </trkpt>
      <trkpt lat="46.378460" lon="-0.208790">
        <time>2017-06-24T12:18:25Z</time>
      </trkpt>
      <trkpt lat="46.378740" lon="-0.208610">
        <time>2017-06-24T12:18:26Z</time>
      </trkpt>
      <trkpt lat="46.379020" lon="-0.208420">
        <time>2017-06-24T12:18:27Z</time>
      </trkpt>
      <trkpt lat="46.379330" lon="-0.208220">
        <time>2017-06-24T12:18:28Z</time>
      </trkpt>
      <trkpt lat="46.379590" lon="-0.208040">
        <time>2017-06-24T12:18:29Z</time>
      </trkpt>
      <trkpt lat="46.379870" lon="-0.207850">
        <time>2017-06-24T12:18:30Z</time>
      </trkpt>
      <trkpt lat="46.380180" lon="-0.207640">
        <time>2017-06-24T12:18:31Z</time>
      </trkpt>
      <trkpt lat="46.380440" lon="-0.207460">
        <time>2017-06-24T12:18:32Z</time>
      </trkpt>
      <trkpt lat="46.380720" lon="-0.207260">
        <time>2017-06-24T12:18:33Z</time>
      </trkpt>
      <trkpt lat="46.381030" lon="-0.207050">
        <time>2017-06-24T12:18:34Z</time>
      </trkpt>
      <trkpt lat="46.381310" lon="-0.206860">
        <time>2017-06-24T12:18:35Z</time>
      </trkpt>
      <trkpt lat="46.381620" lon="-0.206660">
        <time>2017-06-24T12:18:36Z</time>
      </trkpt>
      <trkpt lat="46.381890" lon="-0.206480">
        <time>2017-06-24T12:18:37Z</time>
      </trkpt>
      <trkpt lat="46.382180" lon="-0.206280">
        <time>2017-06-24T12:18:38Z</time>
      </trkpt>
      <trkpt lat="46.382490" lon="-0.206070">
        <time>2017-06-24T12:18:39Z</time>
      </trkpt>
      <trkpt lat="46.382760" lon="-0.205880">
        <time>2017-06-24T12:18:40Z</time>
      </trkpt>
      <trkpt lat="46.383050" lon="-0.205680">
        <time>2017-06-24T12:18:41Z</time>
      </trkpt>
      <trkpt lat="46.383330" lon="-0.205480">
        <time>2017-06-24T12:18:42Z</time>
      </trkpt>
      <trkpt lat="46.383610" lon="-0.205270">
        <time>2017-06-24T12:18:43Z</time>
      </trkpt>
      <trkpt lat="46.383910" lon="-0.205050">
        <time>2017-06-24T12:18:44Z</time>
      </trkpt>
      <trkpt lat="46.384170" lon="-0.204840">
        <time>2017-06-24T12:18:45Z</time>
      </trkpt>
      <trkpt lat="46.384450" lon="-0.204630">
        <time>2017-06-24T12:18:46Z</time>
      </trkpt>
      <trkpt lat="46.384740" lon="-0.204400">
        <time>2017-06-24T12:18:47Z</time>
      </trkpt>
      <trkpt lat="46.385000" lon="-0.204190">
        <time>2017-06-24T12:18:48Z</time>
      </trkpt>
      <trkpt lat="46.385260" lon="-0.203960">
        <time>2017-06-24T12:18:49Z</time>
      </trkpt>
      <trkpt lat="46.385550" lon="-0.203710">
        <time>2017-06-24T12:18:50Z</time>
      </trkpt>
      <trkpt lat="46.385800" lon="-0.203480">
        <time>2017-06-24T12:18:51Z</time>
      </trkpt>
      <trkpt lat="46.386070" lon="-0.203220">
        <time>2017-06-24T12:18:52Z</time>
      </trkpt>
      <trkpt lat="46.386320" lon="-0.202980">
        <time>2017-06-24T12:18:53Z</time>
      </trkpt>
      <trkpt lat="46.386570" lon="-0.202710">
        <time>2017-06-24T12:18:54Z</time>
      </trkpt>
      <trkpt lat="46.386840" lon="-0.202420">
        <time>2017-06-24T12:18:55Z</time>
      </trkpt>
      <trkpt lat="46.387070" lon="-0.202160">
        <time>2017-06-24T12:18:56Z</time>
      </trkpt>
      <trkpt lat="46.387310" lon="-0.201870">
        <time>2017-06-24T12:18:57Z</time>
      </trkpt>
      <trkpt lat="46.387560" lon="-0.201580">
        <time>2017-06-24T12:18:58Z</time>
      </trkpt>
      <trkpt lat="46.387800" lon="-0.201270">
        <time>2017-06-24T12:18:59Z</time>
      </trkpt>
      <trkpt lat="46.388050" lon="-0.200940">
        <time>2017-06-24T12:19:00Z</time>
      </trkpt>
      <trkpt lat="46.388260" lon="-0.200650">
        <time>2017-06-24T12:19:01Z</time>
      </trkpt>
      <trkpt lat="46.388490" lon="-0.200340">
        <time>2017-06-24T12:19:02Z</time>
      </trkpt>
      <trkpt lat="46.388720" lon="-0.200000">
        <time>2017-06-24T12:19:03Z</time>
      </trkpt>
      <trkpt lat="46.388930" lon="-0.199690">
        <time>2017-06-24T12:19:04Z</time>
      </trkpt>
      <trkpt lat="46.389150" lon="-0.199340">
        <time>2017-06-24T12:19:05Z</time>
      </trkpt>
      <trkpt lat="46.389380" lon="-0.198970">
        <time>2017-06-24T12:19:06Z</time>
      </trkpt>
      <trkpt lat="46.389580" lon="-0.198640">
        <time>2017-06-24T12:19:07Z</time>
      </trkpt>
      <trkpt lat="46.389810" lon="-0.198250">
        <time>2017-06-24T12:19:08Z</time>
      </trkpt>
      <trkpt lat="46.390000" lon="-0.197920">
        <time>2017-06-24T12:19:09Z</time>
      </trkpt>
      <trkpt lat="46.390190" lon="-0.197560">
        <time>2017-06-24T12:19:10Z</time>
      </trkpt>
      <trkpt lat="46.390400" lon="-0.197170">
        <time>2017-06-24T12:19:11Z</time>
      </trkpt>
      <trkpt lat="46.390580" lon="-0.196820">
        <time>2017-06-24T12:19:12Z</time>
      </trkpt>
      <trkpt lat="46.390760" lon="-0.196440">
        <time>2017-06-24T12:19:13Z</time>
      </trkpt>
      <trkpt lat="46.390950" lon="-0.196050">
        <time>2017-06-24T12:19:14Z</time>
      </trkpt>
      <trkpt lat="46.391120" lon="-0.195670">
        <time>2017-06-24T12:19:15Z</time>
      </trkpt>
      <trkpt lat="46.391300" lon="-0.195240">
        <time>2017-06-24T12:19:16Z</time>
      </trkpt>
      <trkpt lat="46.391450" lon="-0.194860">
        <time>2017-06-24T12:19:17Z</time>
      </trkpt>
      <trkpt lat="46.391620" lon="-0.194460">
        <time>2017-06-24T12:19:18Z</time>
      </trkpt>
      <trkpt lat="46.391780" lon="-0.194010">
        <time>2017-06-24T12:19:19Z</time>
      </trkpt>
      <trkpt lat="46.391930" lon="-0.193630">
        <time>2017-06-24T12:19:20Z</time>
      </trkpt>
      <trkpt lat="46.392070" lon="-0.193200">
        <time>2017-06-24T12:19:21Z</time>
      </trkpt>
      <trkpt lat="46.392220" lon="-0.192740">
        <time>2017-06-24T12:19:22Z</time>
      </trkpt>
      <trkpt lat="46.392340" lon="-0.192340">
        <time>2017-06-24T12:19:23Z</time>
      </trkpt>
      <trkpt lat="46.392480" lon="-0.191880">
        <time>2017-06-24T12:19:24Z</time>
      </trkpt>
      <trkpt lat="46.392590" lon="-0.191470">
        <time>2017-06-24T12:19:25Z</time>
      </trkpt>
      <trkpt lat="46.392710" lon="-0.191040">
        <time>2017-06-24T12:19:26Z</time>
      </trkpt>
      <trkpt lat="46.392820" lon="-0.190560">
        <time>2017-06-24T12:19:27Z</time>
      </trkpt>
      <trkpt lat="46.392920" lon="-0.190150">
        <time>2017-06-24T12:19:28Z</time>
      </trkpt>
      <trkpt lat="46.393020" lon="-0.189710">
        <time>2017-06-24T12:19:29Z</time>
      </trkpt>
      <trkpt lat="46.393120" lon="-0.189260">
        <time>2017-06-24T12:19:30Z</time>
      </trkpt>
      <trkpt lat="46.393210" lon="-0.188810">
        <time>2017-06-24T12:19:31Z</time>
      </trkpt>
      <trkpt lat="46.393310" lon="-0.188330">
        <time>2017-06-24T12:19:32Z</time>
      </trkpt>
      <trkpt lat="46.393380" lon="-0.187900">
        <time>2017-06-24T12:19:33Z</time>
      </trkpt>
      <trkpt lat="46.393460" lon="-0.187440">
        <time>2017-06-24T12:19:34Z</time>
      </trkpt>
      <trkpt lat="46.393540" lon="-0.186940">
        <time>2017-06-24T12:19:35Z</time>
      </trkpt>
      <trkpt lat="46.393600" lon="-0.186510">
        <time>2017-06-24T12:19:36Z</time>
      </trkpt>
      <trkpt lat="46.393670" lon="-0.186040">
        <time>2017-06-24T12:19:37Z</time>
      </trkpt>
      <trkpt lat="46.393740" lon="-0.185560">
        <time>2017-06-24T12:19:38Z</time>
      </trkpt>
      <trkpt lat="46.393800" lon="-0.185130">
        <time>2017-06-24T12:19:39Z</time>
      </trkpt>
      <trkpt lat="46.393860" lon="-0.184640">
        <time>2017-06-24T12:19:40Z</time>
      </trkpt>
      <trkpt lat="46.393910" lon="-0.184210">
        <time>2017-06-24T12:19:41Z</time>
      </trkpt>
      <trkpt lat="46.393970" lon="-0.183760">
        <time>2017-06-24T12:19:42Z</time>
      </trkpt>
      <trkpt lat="46.394020" lon="-0.183270">
        <time>2017-06-24T12:19:43Z</time>
      </trkpt>
      <trkpt lat="46.394080" lon="-0.182840">
        <time>2017-06-24T12:19:44Z</time>
      </trkpt>
      <trkpt lat="46.394120" lon="-0.182390">
        <time>2017-06-24T12:19:45Z</time>
      </trkpt>
      <trkpt lat="46.394180" lon="-0.181930">
        <time>2017-06-24T12:19:46Z</time>
      </trkpt>
      <trkpt lat="46.394230" lon="-0.181480">
        <time>2017-06-24T12:19:47Z</time>
      </trkpt>
      <trkpt lat="46.394290" lon="-0.181000">
        <time>2017-06-24T12:19:48Z</time>
      </trkpt>
      <trkpt lat="46.394340" lon="-0.180580">
        <time>2017-06-24T12:19:49Z</time>
      </trkpt>
      <trkpt lat="46.394390" lon="-0.180120">
        <time>2017-06-24T12:19:50Z</time>
      </trkpt>
      <trkpt lat="46.394460" lon="-0.179640">
        <time>2017-06-24T12:19:51Z</time>
      </trkpt>
      <trkpt lat="46.394510" lon="-0.179210">
        <time>2017-06-24T12:19:52Z</time>
      </trkpt>
      <trkpt lat="46.394570" lon="-0.178750">
        <time>2017-06-24T12:19:53Z</time>
      </trkpt>
      <trkpt lat="46.394640" lon="-0.178260">
        <time>2017-06-24T12:19:54Z</time>
      </trkpt>
      <trkpt lat="46.394700" lon="-0.177830">
        <time>2017-06-24T12:19:55Z</time>
      </trkpt>
      <trkpt lat="46.394780" lon="-0.177350">
        <time>2017-06-24T12:19:56Z</time>
      </trkpt>
      <trkpt lat="46.394840" lon="-0.176920">
        <time>2017-06-24T12:19:57Z</time>
      </trkpt>
      <trkpt lat="46.394910" lon="-0.176480">
        <time>2017-06-24T12:19:58Z</time>
      </trkpt>
      <trkpt lat="46.394990" lon="-0.176020">
        <time>2017-06-24T12:19:59Z</time>
      </trkpt>
      <trkpt lat="46.395060" lon="-0.175630">
        <time>2017-06-24T12:20:00Z</time>
      </trkpt>
      <trkpt lat="46.395140" lon="-0.175210">
        <time>2017-06-24T12:20:01Z</time>
      </trkpt>
      <trkpt lat="46.395220" lon="-0.174800">
        <time>2017-06-24T12:20:02Z</time>
      </trkpt>
      <trkpt lat="46.395310" lon="-0.174380">
        <time>2017-06-24T12:20:03Z</time>
      </trkpt>
      <trkpt lat="46.395420" lon="-0.173930">
        <time>2017-06-24T12:20:04Z</time>
      </trkpt>
      <trkpt lat="46.395520" lon="-0.173530">
        <time>2017-06-24T12:20:05Z</time>
      </trkpt>
      <trkpt lat="46.395640" lon="-0.173090">
        <time>2017-06-24T12:20:06Z</time>
      </trkpt>
      <trkpt lat="46.395750" lon="-0.172620">
        <time>2017-06-24T12:20:07Z</time>
      </trkpt>
      <trkpt lat="46.395860" lon="-0.172190">
        <time>2017-06-24T12:20:08Z</time>
      </trkpt>
      <trkpt lat="46.395980" lon="-0.171730">
        <time>2017-06-24T12:20:09Z</time>
      </trkpt>
      <trkpt lat="46.396090" lon="-0.171250">
        <time>2017-06-24T12:20:10Z</time>
      </trkpt>
      <trkpt lat="46.396210" lon="-0.170820">
        <time>2017-06-24T12:20:11Z</time>
      </trkpt>
      <trkpt lat="46.396340" lon="-0.170340">
        <time>2017-06-24T12:20:12Z</time>
      </trkpt>
      <trkpt lat="46.396460" lon="-0.169930">
        <time>2017-06-24T12:20:13Z</time>
      </trkpt>
      <trkpt lat="46.396600" lon="-0.169490">
        <time>2017-06-24T12:20:14Z</time>
      </trkpt>
      <trkpt lat="46.396750" lon="-0.169030">
        <time>2017-06-24T12:20:15Z</time>
      </trkpt>
      <trkpt lat="46.396880" lon="-0.168620">
        <time>2017-06-24T12:20:16Z</time>
      </trkpt>
      <trkpt lat="46.397030" lon="-0.168200">
        <time>2017-06-24T12:20:17Z</time>
      </trkpt>
      <trkpt lat="46.397180" lon="-0.167780">
        <time>2017-06-24T12:20:18Z</time>
      </trkpt>
      <trkpt lat="46.397330" lon="-0.167360">
        <time>2017-06-24T12:20:19Z</time>
      </trkpt>
      <trkpt lat="46.397500" lon="-0.166920">
        <time>2017-06-24T12:20:20Z</time>
      </trkpt>
      <trkpt lat="46.397660" lon="-0.166540">
        <time>2017-06-24T12:20:21Z</time>
      </trkpt>
      <trkpt lat="46.397820" lon="-0.166130">
        <time>2017-06-24T12:20:22Z</time>
      </trkpt>
      <trkpt lat="46.398000" lon="-0.165700">
        <time>2017-06-24T12:20:23Z</time>
      </trkpt>
      <trkpt lat="46.398160" lon="-0.165330">
        <time>2017-06-24T12:20:24Z</time>
      </trkpt>
      <trkpt lat="46.398330" lon="-0.164930">
        <time>2017-06-24T12:20:25Z</time>
      </trkpt>
      <trkpt lat="46.398510" lon="-0.164510">
        <time>2017-06-24T12:20:26Z</time>
      </trkpt>
      <trkpt lat="46.398680" lon="-0.164150">
        <time>2017-06-24T12:20:27Z</time>
      </trkpt>
      <trkpt lat="46.398870" lon="-0.163740">
        <time>2017-06-24T12:20:28Z</time>
      </trkpt>
      <trkpt lat="46.399050" lon="-0.163390">
        <time>2017-06-24T12:20:29Z</time>
      </trkpt>
      <trkpt lat="46.399240" lon="-0.163010">
        <time>2017-06-24T12:20:30Z</time>
      </trkpt>
      <trkpt lat="46.399430" lon="-0.162620">
        <time>2017-06-24T12:20:31Z</time>
      </trkpt>
      <trkpt lat="46.399600" lon="-0.162270">
        <time>2017-06-24T12:20:32Z</time>
      </trkpt>
      <trkpt lat="46.399790" lon="-0.161900">
        <time>2017-06-24T12:20:33Z</time>
      </trkpt>
      <trkpt lat="46.399970" lon="-0.161540">
        <time>2017-06-24T12:20:34Z</time>
      </trkpt>
      <trkpt lat="46.400150" lon="-0.161190">
        <time>2017-06-24T12:20:35Z</time>
      </trkpt>
      <trkpt lat="46.400340" lon="-0.160810">
        <time>2017-06-24T12:20:36Z</time>
      </trkpt>
      <trkpt lat="46.400510" lon="-0.160480">
        <time>2017-06-24T12:20:37Z</time>
      </trkpt>
      <trkpt lat="46.400690" lon="-0.160130">
        <time>2017-06-24T12:20:38Z</time>
      </trkpt>
      <trkpt lat="46.400880" lon="-0.159770">
        <time>2017-06-24T12:20:39Z</time>
      </trkpt>
      <trkpt lat="46.401050" lon="-0.159440">
        <time>2017-06-24T12:20:40Z</time>
      </trkpt>
      <trkpt lat="46.401230" lon="-0.159100">
        <time>2017-06-24T12:20:41Z</time>
      </trkpt>
      <trkpt lat="46.401410" lon="-0.158740">
        <time>2017-06-24T12:20:42Z</time>
      </trkpt>
      <trkpt lat="46.401580" lon="-0.158420">
        <time>2017-06-24T12:20:43Z</time>
      </trkpt>
      <trkpt lat="46.401760" lon="-0.158070">
        <time>2017-06-24T12:20:44Z</time>
      </trkpt>
      <trkpt lat="46.401930" lon="-0.157750">
        <time>2017-06-24T12:20:45Z</time>
      </trkpt>
      <trkpt lat="46.402110" lon="-0.157410">
        <time>2017-06-24T12:20:46Z</time>
      </trkpt>
      <trkpt lat="46.402300" lon="-0.157050">
        <time>2017-06-24T12:20:47Z</time>
      </trkpt>
      <trkpt lat="46.402480" lon="-0.156720">
        <time>2017-06-24T12:20:48Z</time>
      </trkpt>
      <trkpt lat="46.402660" lon="-0.156380">
        <time>2017-06-24T12:20:49Z</time>
      </trkpt>
      <trkpt lat="46.402840" lon="-0.156030">
        <time>2017-06-24T12:20:50Z</time>
      </trkpt>
      <trkpt lat="46.403020" lon="-0.155670">
        <time>2017-06-24T12:20:51Z</time>
      </trkpt>
      <trkpt lat="46.403220" lon="-0.155300">
        <time>2017-06-24T12:20:52Z</time>
      </trkpt>
      <trkpt lat="46.403390" lon="-0.154970">
        <time>2017-06-24T12:20:53Z</time>
      </trkpt>
      <trkpt lat="46.403580" lon="-0.154610">
        <time>2017-06-24T12:20:54Z</time>
      </trkpt>
      <trkpt lat="46.403780" lon="-0.154230">
        <time>2017-06-24T12:20:55Z</time>
      </trkpt>
      <trkpt lat="46.403950" lon="-0.153890">
        <time>2017-06-24T12:20:56Z</time>
      </trkpt>
      <trkpt lat="46.404140" lon="-0.153530">
        <time>2017-06-24T12:20:57Z</time>
      </trkpt>
      <trkpt lat="46.404340" lon="-0.153140">
        <time>2017-06-24T12:20:58Z</time>
      </trkpt>
      <trkpt lat="46.404510" lon="-0.152810">
        <time>2017-06-24T12:20:59Z</time>
      </trkpt>
      <trkpt lat="46.404710" lon="-0.152430">
        <time>2017-06-24T12:21:00Z</time>
      </trkpt>
      <trkpt lat="46.404890" lon="-0.152090">
        <time>2017-06-24T12:21:01Z</time>
      </trkpt>
      <trkpt lat="46.405070" lon="-0.151730">
        <time>2017-06-24T12:21:02Z</time>
      </trkpt>
      <trkpt lat="46.405270" lon="-0.151340">
        <time>2017-06-24T12:21:03Z</time>
      </trkpt>
      <trkpt lat="46.405440" lon="-0.151000">
        <time>2017-06-24T12:21:04Z</time>
      </trkpt>
      <trkpt lat="46.405620" lon="-0.150630">
        <time>2017-06-24T12:21:05Z</time>
      </trkpt>
      <trkpt lat="46.405810" lon="-0.150250">
        <time>2017-06-24T12:21:06Z</time>
      </trkpt>
      <trkpt lat="46.405990" lon="-0.149880">
        <time>2017-06-24T12:21:07Z</time>
      </trkpt>
      <trkpt lat="46.406190" lon="-0.149490">
        <time>2017-06-24T12:21:08Z</time>
      </trkpt>
      <trkpt lat="46.406350" lon="-0.149130">
        <time>2017-06-24T12:21:09Z</time>
      </trkpt>
      <trkpt lat="46.406530" lon="-0.148760">
        <time>2017-06-24T12:21:10Z</time>
      </trkpt>
      <trkpt lat="46.406720" lon="-0.148350">
        <time>2017-06-24T12:21:11Z</time>
      </trkpt>
      <trkpt lat="46.406880" lon="-0.148000">
        <time>2017-06-24T12:21:12Z</time>
      </trkpt>
      <trkpt lat="46.407050" lon="-0.147610">
        <time>2017-06-24T12:21:13Z</time>
      </trkpt>
      <trkpt lat="46.407240" lon="-0.147190">
        <time>2017-06-24T12:21:14Z</time>
      </trkpt>
      <trkpt lat="46.407390" lon="-0.146830">
        <time>2017-06-24T12:21:15Z</time>
      </trkpt>
      <trkpt lat="46.407570" lon="-0.146420">
        <time>2017-06-24T12:21:16Z</time>
      </trkpt>
      <trkpt lat="46.407730" lon="-0.146060">
        <time>2017-06-24T12:21:17Z</time>
      </trkpt>
      <trkpt lat="46.407910" lon="-0.145680">
        <time>2017-06-24T12:21:18Z</time>
      </trkpt>
      <trkpt lat="46.408080" lon="-0.145270">
        <time>2017-06-24T12:21:19Z</time>
      </trkpt>
      <trkpt lat="46.408240" lon="-0.144900">
        <time>2017-06-24T12:21:20Z</time>
      </trkpt>
      <trkpt lat="46.408400" lon="-0.144510">
        <time>2017-06-24T12:21:21Z</time>
      </trkpt>
      <trkpt lat="46.408560" lon="-0.144110">
        <time>2017-06-24T12:21:22Z</time>
      </trkpt>
      <trkpt lat="46.408710" lon="-0.143710">
        <time>2017-06-24T12:21:23Z</time>
      </trkpt>
      <trkpt lat="46.408870" lon="-0.143280">
        <time>2017-06-24T12:21:24Z</time>
      </trkpt>
      <trkpt lat="46.409010" lon="-0.142910">
        <time>2017-06-24T12:21:25Z</time>
      </trkpt>
      <trkpt lat="46.409160" lon="-0.142500">
        <time>2017-06-24T12:21:26Z</time>
      </trkpt>
      <trkpt lat="46.409300" lon="-0.142060">
        <time>2017-06-24T12:21:27Z</time>
      </trkpt>
      <trkpt lat="46.409430" lon="-0.141680">
        <time>2017-06-24T12:21:28Z</time>
      </trkpt>
      <trkpt lat="46.409570" lon="-0.141270">
        <time>2017-06-24T12:21:29Z</time>
      </trkpt>
      <trkpt lat="46.409720" lon="-0.140850">
        <time>2017-06-24T12:21:30Z</time>
      </trkpt>
      <trkpt lat="46.409850" lon="-0.140480">
        <time>2017-06-24T12:21:31Z</time>
      </trkpt>
      <trkpt lat="46.410000" lon="-0.140060">
        <time>2017-06-24T12:21:32Z</time>
      </trkpt>
      <trkpt lat="46.410130" lon="-0.139680">
        <time>2017-06-24T12:21:33Z</time>
      </trkpt>
      <trkpt lat="46.410270" lon="-0.139270">
        <time>2017-06-24T12:21:34Z</time>
      </trkpt>
      <trkpt lat="46.410400" lon="-0.138860">
        <time>2017-06-24T12:21:35Z</time>
      </trkpt>
      <trkpt lat="46.410530" lon="-0.138470">
        <time>2017-06-24T12:21:36Z</time>
      </trkpt>
      <trkpt lat="46.410660" lon="-0.138060">
        <time>2017-06-24T12:21:37Z</time>
      </trkpt>
      <trkpt lat="46.410790" lon="-0.137640">
        <time>2017-06-24T12:21:38Z</time>
      </trkpt>
      <trkpt lat="46.410920" lon="-0.137240">
        <time>2017-06-24T12:21:39Z</time>
      </trkpt>
      <trkpt lat="46.411050" lon="-0.136820">
        <time>2017-06-24T12:21:40Z</time>
      </trkpt>
      <trkpt lat="46.411170" lon="-0.136460">
        <time>2017-06-24T12:21:41Z</time>
      </trkpt>
      <trkpt lat="46.411280" lon="-0.136060">
        <time>2017-06-24T12:21:42Z</time>
      </trkpt>
      <trkpt lat="46.411400" lon="-0.135640">
        <time>2017-06-24T12:21:43Z</time>
      </trkpt>
      <trkpt lat="46.411500" lon="-0.135280">
        <time>2017-06-24T12:21:44Z</time>
      </trkpt>
      <trkpt lat="46.411620" lon="-0.134890">
        <time>2017-06-24T12:21:45Z</time>
      </trkpt>
      <trkpt lat="46.411730" lon="-0.134470">
        <time>2017-06-24T12:21:46Z</time>
      </trkpt>
      <trkpt lat="46.411830" lon="-0.134110">
        <time>2017-06-24T12:21:47Z</time>
      </trkpt>
      <trkpt lat="46.411930" lon="-0.133730">
        <time>2017-06-24T12:21:48Z</time>
      </trkpt>
      <trkpt lat="46.412020" lon="-0.133400">
        <time>2017-06-24T12:21:49Z</time>
      </trkpt>
      <trkpt lat="46.412110" lon="-0.133060">
        <time>2017-06-24T12:21:50Z</time>
      </trkpt>
      <trkpt lat="46.412210" lon="-0.132710">
        <time>2017-06-24T12:21:51Z</time>
      </trkpt>
      <trkpt lat="46.412290" lon="-0.132390">
        <time>2017-06-24T12:21:52Z</time>
      </trkpt>
      <trkpt lat="46.412370" lon="-0.132040">
        <time>2017-06-24T12:21:53Z</time>
      </trkpt>
      <trkpt lat="46.412460" lon="-0.131690">
        <time>2017-06-24T12:21:54Z</time>
      </trkpt>
      <trkpt lat="46.412560" lon="-0.131340">
        <time>2017-06-24T12:21:55Z</time>
      </trkpt>
      <trkpt lat="46.412660" lon="-0.130940">
        <time>2017-06-24T12:21:56Z</time>
      </trkpt>
      <trkpt lat="46.412760" lon="-0.130580">
        <time>2017-06-24T12:21:57Z</time>
      </trkpt>
      <trkpt lat="46.412860" lon="-0.130180">
        <time>2017-06-24T12:21:58Z</time>
      </trkpt>
      <trkpt lat="46.412960" lon="-0.129750">
        <time>2017-06-24T12:21:59Z</time>
      </trkpt>
      <trkpt lat="46.413050" lon="-0.129360">
        <time>2017-06-24T12:22:00Z</time>
      </trkpt>
      <trkpt lat="46.413150" lon="-0.128930">
        <time>2017-06-24T12:22:01Z</time>
      </trkpt>
      <trkpt lat="46.413240" lon="-0.128480">
        <time>2017-06-24T12:22:02Z</time>
      </trkpt>
      <trkpt lat="46.413310" lon="-0.128070">
        <time>2017-06-24T12:22:03Z</time>
      </trkpt>
      <trkpt lat="46.413400" lon="-0.127600">
        <time>2017-06-24T12:22:04Z</time>
      </trkpt>
      <trkpt lat="46.413480" lon="-0.127200">
        <time>2017-06-24T12:22:05Z</time>
      </trkpt>
      <trkpt lat="46.413560" lon="-0.126760">
        <time>2017-06-24T12:22:06Z</time>
      </trkpt>
      <trkpt lat="46.413660" lon="-0.126310">
        <time>2017-06-24T12:22:07Z</time>
      </trkpt>
      <trkpt lat="46.413740" lon="-0.125900">
        <time>2017-06-24T12:22:08Z</time>
      </trkpt>
      <trkpt lat="46.413840" lon="-0.125460">
        <time>2017-06-24T12:22:09Z</time>
      </trkpt>
      <trkpt lat="46.413930" lon="-0.125030">
        <time>2017-06-24T12:22:10Z</time>
      </trkpt>
      <trkpt lat="46.414010" lon="-0.124590">
        <time>2017-06-24T12:22:11Z</time>
      </trkpt>
      <trkpt lat="46.414100" lon="-0.124130">
        <time>2017-06-24T12:22:12Z</time>
      </trkpt>
      <trkpt lat="46.414190" lon="-0.123740">
        <time>2017-06-24T12:22:13Z</time>
      </trkpt>
      <trkpt lat="46.414270" lon="-0.123310">
        <time>2017-06-24T12:22:14Z</time>
      </trkpt>
      <trkpt lat="46.414360" lon="-0.122850">
        <time>2017-06-24T12:22:15Z</time>
      </trkpt>
      <trkpt lat="46.414430" lon="-0.122440">
        <time>2017-06-24T12:22:16Z</time>
      </trkpt>
      <trkpt lat="46.414520" lon="-0.122000">
        <time>2017-06-24T12:22:17Z</time>
      </trkpt>
      <trkpt lat="46.414610" lon="-0.121540">
        <time>2017-06-24T12:22:18Z</time>
      </trkpt>
      <trkpt lat="46.414690" lon="-0.121140">
        <time>2017-06-24T12:22:19Z</time>
      </trkpt>
      <trkpt lat="46.414780" lon="-0.120670">
        <time>2017-06-24T12:22:20Z</time>
      </trkpt>
      <trkpt lat="46.414860" lon="-0.120260">
        <time>2017-06-24T12:22:21Z</time>
      </trkpt>
      <trkpt lat="46.414950" lon="-0.119820">
        <time>2017-06-24T12:22:22Z</time>
      </trkpt>
      <trkpt lat="46.415040" lon="-0.119360">
        <time>2017-06-24T12:22:23Z</time>
      </trkpt>
      <trkpt lat="46.415110" lon="-0.118950">
        <time>2017-06-24T12:22:24Z</time>
      </trkpt>
      <trkpt lat="46.415200" lon="-0.118530">
        <time>2017-06-24T12:22:25Z</time>
      </trkpt>
      <trkpt lat="46.415280" lon="-0.118110">
        <time>2017-06-24T12:22:26Z</time>
      </trkpt>
      <trkpt lat="46.415360" lon="-0.117680">
        <time>2017-06-24T12:22:27Z</time>
      </trkpt>
      <trkpt lat="46.415450" lon="-0.117230">
        <time>2017-06-24T12:22:28Z</time>
      </trkpt>
      <trkpt lat="46.415520" lon="-0.116840">
        <time>2017-06-24T12:22:29Z</time>
      </trkpt>
      <trkpt lat="46.415600" lon="-0.116420">
        <time>2017-06-24T12:22:30Z</time>
      </trkpt>
      <trkpt lat="46.415690" lon="-0.115990">
        <time>2017-06-24T12:22:31Z</time>
      </trkpt>
      <trkpt lat="46.415770" lon="-0.115610">
        <time>2017-06-24T12:22:32Z</time>
      </trkpt>
      <trkpt lat="46.415860" lon="-0.115210">
        <time>2017-06-24T12:22:33Z</time>
      </trkpt>
      <trkpt lat="46.415950" lon="-0.114790">
        <time>2017-06-24T12:22:34Z</time>
      </trkpt>
      <trkpt lat="46.416030" lon="-0.114430">
        <time>2017-06-24T12:22:35Z</time>
      </trkpt>
      <trkpt lat="46.416120" lon="-0.114010">
        <time>2017-06-24T12:22:36Z</time>
      </trkpt>
      <trkpt lat="46.416210" lon="-0.113650">
        <time>2017-06-24T12:22:37Z</time>
      </trkpt>
      <trkpt lat="46.416300" lon="-0.113260">
        <time>2017-06-24T12:22:38Z</time>
      </trkpt>
      <trkpt lat="46.416410" lon="-0.112840">
        <time>2017-06-24T12:22:39Z</time>
      </trkpt>
      <trkpt lat="46.416500" lon="-0.112450">
        <time>2017-06-24T12:22:40Z</time>
      </trkpt>
      <trkpt lat="46.416610" lon="-0.112030">
        <time>2017-06-24T12:22:41Z</time>
      </trkpt>
      <trkpt lat="46.416730" lon="-0.111610">
        <time>2017-06-24T12:22:42Z</time>
      </trkpt>
      <trkpt lat="46.416840" lon="-0.111190">
        <time>2017-06-24T12:22:43Z</time>
      </trkpt>
      <trkpt lat="46.416960" lon="-0.110740">
        <time>2017-06-24T12:22:44Z</time>
      </trkpt>
      <trkpt lat="46.417080" lon="-0.110340">
        <time>2017-06-24T12:22:45Z</time>
      </trkpt>
      <trkpt lat="46.417200" lon="-0.109910">
        <time>2017-06-24T12:22:46Z</time>
      </trkpt>
      <trkpt lat="46.417350" lon="-0.109470">
        <time>2017-06-24T12:22:47Z</time>
      </trkpt>
      <trkpt lat="46.417460" lon="-0.109070">
        <time>2017-06-24T12:22:48Z</time>
      </trkpt>
      <trkpt lat="46.417580" lon="-0.108650">
        <time>2017-06-24T12:22:49Z</time>
      </trkpt>
      <trkpt lat="46.417710" lon="-0.108210">
        <time>2017-06-24T12:22:50Z</time>
      </trkpt>
      <trkpt lat="46.417830" lon="-0.107810">
        <time>2017-06-24T12:22:51Z</time>
      </trkpt>
      <trkpt lat="46.417960" lon="-0.107360">
        <time>2017-06-24T12:22:52Z</time>
      </trkpt>
      <trkpt lat="46.418090" lon="-0.106980">
        <time>2017-06-24T12:22:53Z</time>
      </trkpt>
      <trkpt lat="46.418240" lon="-0.106570">
        <time>2017-06-24T12:22:54Z</time>
      </trkpt>
      <trkpt lat="46.418390" lon="-0.106140">
        <time>2017-06-24T12:22:55Z</time>
      </trkpt>
      <trkpt lat="46.418520" lon="-0.105760">
        <time>2017-06-24T12:22:56Z</time>
      </trkpt>
      <trkpt lat="46.418660" lon="-0.105370">
        <time>2017-06-24T12:22:57Z</time>
      </trkpt>
      <trkpt lat="46.418810" lon="-0.104980">
        <time>2017-06-24T12:22:58Z</time>
      </trkpt>
      <trkpt lat="46.418970" lon="-0.104590">
        <time>2017-06-24T12:22:59Z</time>
      </trkpt>
      <trkpt lat="46.419140" lon="-0.104180">
        <time>2017-06-24T12:23:00Z</time>
      </trkpt>
      <trkpt lat="46.419280" lon="-0.103810">
        <time>2017-06-24T12:23:01Z</time>
      </trkpt>
      <trkpt lat="46.419440" lon="-0.103430">
        <time>2017-06-24T12:23:02Z</time>
      </trkpt>
      <trkpt lat="46.419620" lon="-0.103020">
        <time>2017-06-24T12:23:03Z</time>
      </trkpt>
      <trkpt lat="46.419780" lon="-0.102670">
        <time>2017-06-24T12:23:04Z</time>
      </trkpt>
      <trkpt lat="46.419950" lon="-0.102280">
        <time>2017-06-24T12:23:05Z</time>
      </trkpt>
      <trkpt lat="46.420140" lon="-0.101890">
        <time>2017-06-24T12:23:06Z</time>
      </trkpt>
      <trkpt lat="46.420310" lon="-0.101540">
        <time>2017-06-24T12:23:07Z</time>
      </trkpt>
      <trkpt lat="46.420500" lon="-0.101140">
        <time>2017-06-24T12:23:08Z</time>
      </trkpt>
      <trkpt lat="46.420670" lon="-0.100790">
        <time>2017-06-24T12:23:09Z</time>
      </trkpt>
      <trkpt lat="46.420840" lon="-0.100410">
        <time>2017-06-24T12:23:10Z</time>
      </trkpt>
      <trkpt lat="46.421020" lon="-0.100010">
        <time>2017-06-24T12:23:11Z</time>
      </trkpt>
      <trkpt lat="46.421190" lon="-0.099660">
        <time>2017-06-24T12:23:12Z</time>
      </trkpt>
      <trkpt lat="46.421370" lon="-0.099300">
        <time>2017-06-24T12:23:13Z</time>
      </trkpt>
      <trkpt lat="46.421560" lon="-0.098940">
        <time>2017-06-24T12:23:14Z</time>
      </trkpt>
      <trkpt lat="46.421750" lon="-0.098580">
        <time>2017-06-24T12:23:15Z</time>
      </trkpt>
      <trkpt lat="46.421950" lon="-0.098200">
        <time>2017-06-24T12:23:16Z</time>
      </trkpt>
      <trkpt lat="46.422120" lon="-0.097870">
        <time>2017-06-24T12:23:17Z</time>
      </trkpt>
      <trkpt lat="46.422300" lon="-0.097520">
        <time>2017-06-24T12:23:18Z</time>
      </trkpt>
      <trkpt lat="46.422500" lon="-0.097150">
        <time>2017-06-24T12:23:19Z</time>
      </trkpt>
      <trkpt lat="46.422670" lon="-0.096820">
        <time>2017-06-24T12:23:20Z</time>
      </trkpt>
      <trkpt lat="46.422860" lon="-0.096480">
        <time>2017-06-24T12:23:21Z</time>
      </trkpt>
      <trkpt lat="46.423050" lon="-0.096120">
        <time>2017-06-24T12:23:22Z</time>
      </trkpt>
      <trkpt lat="46.423230" lon="-0.095800">
        <time>2017-06-24T12:23:23Z</time>
      </trkpt>
      <trkpt lat="46.423430" lon="-0.095440">
        <time>2017-06-24T12:23:24Z</time>
      </trkpt>
      <trkpt lat="46.423600" lon="-0.095130">
        <time>2017-06-24T12:23:25Z</time>
      </trkpt>
      <trkpt lat="46.423780" lon="-0.094790">
        <time>2017-06-24T12:23:26Z</time>
      </trkpt>
      <trkpt lat="46.423980" lon="-0.094440">
        <time>2017-06-24T12:23:27Z</time>
      </trkpt>
      <trkpt lat="46.424150" lon="-0.094120">
        <time>2017-06-24T12:23:28Z</time>
      </trkpt>
      <trkpt lat="46.424340" lon="-0.093790">
        <time>2017-06-24T12:23:29Z</time>
      </trkpt>
      <trkpt lat="46.424520" lon="-0.093440">
        <time>2017-06-24T12:23:30Z</time>
      </trkpt>
      <trkpt lat="46.424700" lon="-0.093100">
        <time>2017-06-24T12:23:31Z</time>
      </trkpt>
      <trkpt lat="46.424890" lon="-0.092740">
        <time>2017-06-24T12:23:32Z</time>
      </trkpt>
      <trkpt lat="46.425070" lon="-0.092420">
        <time>2017-06-24T12:23:33Z</time>
      </trkpt>
      <trkpt lat="46.425250" lon="-0.092070">
        <time>2017-06-24T12:23:34Z</time>
      </trkpt>
      <trkpt lat="46.425450" lon="-0.091700">
        <time>2017-06-24T12:23:35Z</time>
      </trkpt>
      <trkpt lat="46.425620" lon="-0.091370">
        <time>2017-06-24T12:23:36Z</time>
      </trkpt>
      <trkpt lat="46.425800" lon="-0.091020">
        <time>2017-06-24T12:23:37Z</time>
      </trkpt>
      <trkpt lat="46.425990" lon="-0.090640">
        <time>2017-06-24T12:23:38Z</time>
      </trkpt>
      <trkpt lat="46.426160" lon="-0.090300">
        <time>2017-06-24T12:23:39Z</time>
      </trkpt>
      <trkpt lat="46.426350" lon="-0.089910">
        <time>2017-06-24T12:23:40Z</time>
      </trkpt>
      <trkpt lat="46.426510" lon="-0.089570">
        <time>2017-06-24T12:23:41Z</time>
      </trkpt>
      <trkpt lat="46.426680" lon="-0.089200">
        <time>2017-06-24T12:23:42Z</time>
      </trkpt>
      <trkpt lat="46.426860" lon="-0.088810">
        <time>2017-06-24T12:23:43Z</time>
      </trkpt>
      <trkpt lat="46.427020" lon="-0.088470">
        <time>2017-06-24T12:23:44Z</time>
      </trkpt>
      <trkpt lat="46.427180" lon="-0.088080">
        <time>2017-06-24T12:23:45Z</time>
      </trkpt>
      <trkpt lat="46.427340" lon="-0.087700">
        <time>2017-06-24T12:23:46Z</time>
      </trkpt>
      <trkpt lat="46.427490" lon="-0.087310">
        <time>2017-06-24T12:23:47Z</time>
      </trkpt>
      <trkpt lat="46.427660" lon="-0.086880">
        <time>2017-06-24T12:23:48Z</time>
      </trkpt>
      <trkpt lat="46.427800" lon="-0.086510">
        <time>2017-06-24T12:23:49Z</time>
      </trkpt>
      <trkpt lat="46.427950" lon="-0.086100">
        <time>2017-06-24T12:23:50Z</time>
      </trkpt>
      <trkpt lat="46.428100" lon="-0.085660">
        <time>2017-06-24T12:23:51Z</time>
      </trkpt>
      <trkpt lat="46.428230" lon="-0.085260">
        <time>2017-06-24T12:23:52Z</time>
      </trkpt>
      <trkpt lat="46.428360" lon="-0.084840">
        <time>2017-06-24T12:23:53Z</time>
      </trkpt>
      <trkpt lat="46.428490" lon="-0.084390">
        <time>2017-06-24T12:23:54Z</time>
      </trkpt>
      <trkpt lat="46.428610" lon="-0.083990">
        <time>2017-06-24T12:23:55Z</time>
      </trkpt>
      <trkpt lat="46.428730" lon="-0.083530">
        <time>2017-06-24T12:23:56Z</time>
      </trkpt>
      <trkpt lat="46.428840" lon="-0.083120">
        <time>2017-06-24T12:23:57Z</time>
      </trkpt>
      <trkpt lat="46.428960" lon="-0.082690">
        <time>2017-06-24T12:23:58Z</time>
      </trkpt>
      <trkpt lat="46.429070" lon="-0.082230">
        <time>2017-06-24T12:23:59Z</time>
      </trkpt>
      <trkpt lat="46.429170" lon="-0.081820">
        <time>2017-06-24T12:24:00Z</time>
      </trkpt>
      <trkpt lat="46.429280" lon="-0.081390">
        <time>2017-06-24T12:24:01Z</time>
      </trkpt>
      <trkpt lat="46.429380" lon="-0.080960">
        <time>2017-06-24T12:24:02Z</time>
      </trkpt>
      <trkpt lat="46.429490" lon="-0.080530">
        <time>2017-06-24T12:24:03Z</time>
      </trkpt>
      <trkpt lat="46.429590" lon="-0.080060">
        <time>2017-06-24T12:24:04Z</time>
      </trkpt>
      <trkpt lat="46.429680" lon="-0.079640">
        <time>2017-06-24T12:24:05Z</time>
      </trkpt>
      <trkpt lat="46.429790" lon="-0.079200">
        <time>2017-06-24T12:24:06Z</time>
      </trkpt>
      <trkpt lat="46.429890" lon="-0.078740">
        <time>2017-06-24T12:24:07Z</time>
      </trkpt>
      <trkpt lat="46.429990" lon="-0.078330">
        <time>2017-06-24T12:24:08Z</time>
      </trkpt>
      <trkpt lat="46.430090" lon="-0.077890">
        <time>2017-06-24T12:24:09Z</time>
      </trkpt>
      <trkpt lat="46.430200" lon="-0.077430">
        <time>2017-06-24T12:24:10Z</time>
      </trkpt>
      <trkpt lat="46.430290" lon="-0.077020">
        <time>2017-06-24T12:24:11Z</time>
      </trkpt>
      <trkpt lat="46.430400" lon="-0.076560">
        <time>2017-06-24T12:24:12Z</time>
      </trkpt>
      <trkpt lat="46.430490" lon="-0.076150">
        <time>2017-06-24T12:24:13Z</time>
      </trkpt>
      <trkpt lat="46.430590" lon="-0.075710">
        <time>2017-06-24T12:24:14Z</time>
      </trkpt>
      <trkpt lat="46.430700" lon="-0.075240">
        <time>2017-06-24T12:24:15Z</time>
      </trkpt>
      <trkpt lat="46.430790" lon="-0.074820">
        <time>2017-06-24T12:24:16Z</time>
      </trkpt>
      <trkpt lat="46.430880" lon="-0.074370">
        <time>2017-06-24T12:24:17Z</time>
      </trkpt>
      <trkpt lat="46.430990" lon="-0.073920">
        <time>2017-06-24T12:24:18Z</time>
      </trkpt>
      <trkpt lat="46.431100" lon="-0.073460">
        <time>2017-06-24T12:24:19Z</time>
      </trkpt>
      <trkpt lat="46.431210" lon="-0.072970">
        <time>2017-06-24T12:24:20Z</time>
      </trkpt>
      <trkpt lat="46.431310" lon="-0.072540">
        <time>2017-06-24T12:24:21Z</time>
      </trkpt>
      <trkpt lat="46.431410" lon="-0.072070">
        <time>2017-06-24T12:24:22Z</time>
      </trkpt>
      <trkpt lat="46.431520" lon="-0.071580">
        <time>2017-06-24T12:24:23Z</time>
      </trkpt>
      <trkpt lat="46.431620" lon="-0.071140">
        <time>2017-06-24T12:24:24Z</time>
      </trkpt>
      <trkpt lat="46.431740" lon="-0.070680">
        <time>2017-06-24T12:24:25Z</time>
      </trkpt>
      <trkpt lat="46.431860" lon="-0.070190">
        <time>2017-06-24T12:24:26Z</time>
      </trkpt>
      <trkpt lat="46.431970" lon="-0.069760">
        <time>2017-06-24T12:24:27Z</time>
      </trkpt>
      <trkpt lat="46.432100" lon="-0.069270">
        <time>2017-06-24T12:24:28Z</time>
      </trkpt>
      <trkpt lat="46.432210" lon="-0.068840">
        <time>2017-06-24T12:24:29Z</time>
      </trkpt>
      <trkpt lat="46.432340" lon="-0.068390">
        <time>2017-06-24T12:24:30Z</time>
      </trkpt>
      <trkpt lat="46.432470" lon="-0.067910">
        <time>2017-06-24T12:24:31Z</time>
      </trkpt>
      <trkpt lat="46.432590" lon="-0.067480">
        <time>2017-06-24T12:24:32Z</time>
      </trkpt>
      <trkpt lat="46.432720" lon="-0.067040">
        <time>2017-06-24T12:24:33Z</time>
      </trkpt>
      <trkpt lat="46.432840" lon="-0.066590">
        <time>2017-06-24T12:24:34Z</time>
      </trkpt>
      <trkpt lat="46.432980" lon="-0.066150">
        <time>2017-06-24T12:24:35Z</time>
      </trkpt>
      <trkpt lat="46.433110" lon="-0.065680">
        <time>2017-06-24T12:24:36Z</time>
      </trkpt>
      <trkpt lat="46.433250" lon="-0.065270">
        <time>2017-06-24T12:24:37Z</time>
      </trkpt>
      <trkpt lat="46.433390" lon="-0.064840">
        <time>2017-06-24T12:24:38Z</time>
      </trkpt>
      <trkpt lat="46.433540" lon="-0.064370">
        <time>2017-06-24T12:24:39Z</time>
      </trkpt>
      <trkpt lat="46.433670" lon="-0.063960">
        <time>2017-06-24T12:24:40Z</time>
      </trkpt>
      <trkpt lat="46.433820" lon="-0.063530">
        <time>2017-06-24T12:24:41Z</time>
      </trkpt>
      <trkpt lat="46.433960" lon="-0.063060">
        <time>2017-06-24T12:24:42Z</time>
      </trkpt>
      <trkpt lat="46.434100" lon="-0.062660">
        <time>2017-06-24T12:24:43Z</time>
      </trkpt>
      <trkpt lat="46.434250" lon="-0.062200">
        <time>2017-06-24T12:24:44Z</time>
      </trkpt>
      <trkpt lat="46.434400" lon="-0.061800">
        <time>2017-06-24T12:24:45Z</time>
      </trkpt>
      <trkpt lat="46.434550" lon="-0.061370">
        <time>2017-06-24T12:24:46Z</time>
      </trkpt>
      <trkpt lat="46.434710" lon="-0.060910">
        <time>2017-06-24T12:24:47Z</time>
      </trkpt>
      <trkpt lat="46.434860" lon="-0.060510">
        <time>2017-06-24T12:24:48Z</time>
      </trkpt>
      <trkpt lat="46.435020" lon="-0.060080">
        <time>2017-06-24T12:24:49Z</time>
      </trkpt>
      <trkpt lat="46.435180" lon="-0.059660">
        <time>2017-06-24T12:24:50Z</time>
      </trkpt>
      <trkpt lat="46.435340" lon="-0.059240">
        <time>2017-06-24T12:24:51Z</time>
      </trkpt>
      <trkpt lat="46.435510" lon="-0.058790">
        <time>2017-06-24T12:24:52Z</time>
      </trkpt>
      <trkpt lat="46.435670" lon="-0.058400">
        <time>2017-06-24T12:24:53Z</time>
      </trkpt>
      <trkpt lat="46.435840" lon="-0.057980">
        <time>2017-06-24T12:24:54Z</time>
      </trkpt>
      <trkpt lat="46.436010" lon="-0.057540">
        <time>2017-06-24T12:24:55Z</time>
      </trkpt>
      <trkpt lat="46.436170" lon="-0.057150">
        <time>2017-06-24T12:24:56Z</time>
      </trkpt>
      <trkpt lat="46.436340" lon="-0.056730">
        <time>2017-06-24T12:24:57Z</time>
      </trkpt>
      <trkpt lat="46.436530" lon="-0.056290">
        <time>2017-06-24T12:24:58Z</time>
      </trkpt>
      <trkpt lat="46.436690" lon="-0.055900">
        <time>2017-06-24T12:24:59Z</time>
      </trkpt>
      <trkpt lat="46.436870" lon="-0.055460">
        <time>2017-06-24T12:25:00Z</time>
      </trkpt>
      <trkpt lat="46.437050" lon="-0.055080">
        <time>2017-06-24T12:25:01Z</time>
      </trkpt>
      <trkpt lat="46.437230" lon="-0.054670">
        <time>2017-06-24T12:25:02Z</time>
      </trkpt>
      <trkpt lat="46.437430" lon="-0.054240">
        <time>2017-06-24T12:25:03Z</time>
      </trkpt>
      <trkpt lat="46.437590" lon="-0.053860">
        <time>2017-06-24T12:25:04Z</time>
      </trkpt>
      <trkpt lat="46.437770" lon="-0.053460">
        <time>2017-06-24T12:25:05Z</time>
      </trkpt>
      <trkpt lat="46.437940" lon="-0.053070">
        <time>2017-06-24T12:25:06Z</time>
      </trkpt>
      <trkpt lat="46.438110" lon="-0.052680">
        <time>2017-06-24T12:25:07Z</time>
      </trkpt>
      <trkpt lat="46.438300" lon="-0.052270">
        <time>2017-06-24T12:25:08Z</time>
      </trkpt>
      <trkpt lat="46.438470" lon="-0.051900">
        <time>2017-06-24T12:25:09Z</time>
      </trkpt>
      <trkpt lat="46.438660" lon="-0.051510">
        <time>2017-06-24T12:25:10Z</time>
      </trkpt>
      <trkpt lat="46.438850" lon="-0.051100">
        <time>2017-06-24T12:25:11Z</time>
      </trkpt>
      <trkpt lat="46.439020" lon="-0.050740">
        <time>2017-06-24T12:25:12Z</time>
      </trkpt>
      <trkpt lat="46.439200" lon="-0.050350">
        <time>2017-06-24T12:25:13Z</time>
      </trkpt>
      <trkpt lat="46.439390" lon="-0.049930">
        <time>2017-06-24T12:25:14Z</time>
      </trkpt>
      <trkpt lat="46.439550" lon="-0.049570">
        <time>2017-06-24T12:25:15Z</time>
      </trkpt>
      <trkpt lat="46.439740" lon="-0.049160">
        <time>2017-06-24T12:25:16Z</time>
      </trkpt>
      <trkpt lat="46.439900" lon="-0.048800">
        <time>2017-06-24T12:25:17Z</time>
      </trkpt>
      <trkpt lat="46.440070" lon="-0.048410">
        <time>2017-06-24T12:25:18Z</time>
      </trkpt>
      <trkpt lat="46.440250" lon="-0.047990">
        <time>2017-06-24T12:25:19Z</time>
      </trkpt>
      <trkpt lat="46.440410" lon="-0.047620">
        <time>2017-06-24T12:25:20Z</time>
      </trkpt>
      <trkpt lat="46.440580" lon="-0.047220">
        <time>2017-06-24T12:25:21Z</time>
      </trkpt>
      <trkpt lat="46.440750" lon="-0.046820">
        <time>2017-06-24T12:25:22Z</time>
      </trkpt>
      <trkpt lat="46.440920" lon="-0.046420">
        <time>2017-06-24T12:25:23Z</time>
      </trkpt>
      <trkpt lat="46.441110" lon="-0.046000">
        <time>2017-06-24T12:25:24Z</time>
      </trkpt>
      <trkpt lat="46.441270" lon="-0.045630">
        <time>2017-06-24T12:25:25Z</time>
      </trkpt>
      <trkpt lat="46.441450" lon="-0.045230">
        <time>2017-06-24T12:25:26Z</time>
      </trkpt>
      <trkpt lat="46.441630" lon="-0.044810">
        <time>2017-06-24T12:25:27Z</time>
      </trkpt>
      <trkpt lat="46.441800" lon="-0.044430">
        <time>2017-06-24T12:25:28Z</time>
      </trkpt>
      <trkpt lat="46.441970" lon="-0.044030">
        <time>2017-06-24T12:25:29Z</time>
      </trkpt>
      <trkpt lat="46.442150" lon="-0.043610">
        <time>2017-06-24T12:25:30Z</time>
      </trkpt>
      <trkpt lat="46.442320" lon="-0.043240">
        <time>2017-06-24T12:25:31Z</time>
      </trkpt>
      <trkpt lat="46.442500" lon="-0.042810">
        <time>2017-06-24T12:25:32Z</time>
      </trkpt>
      <trkpt lat="46.442670" lon="-0.042440">
        <time>2017-06-24T12:25:33Z</time>
      </trkpt>
      <trkpt lat="46.442850" lon="-0.042040">
        <time>2017-06-24T12:25:34Z</time>
      </trkpt>
      <trkpt lat="46.443040" lon="-0.041620">
        <time>2017-06-24T12:25:35Z</time>
      </trkpt>
      <trkpt lat="46.443200" lon="-0.041250">
        <time>2017-06-24T12:25:36Z</time>
      </trkpt>
      <trkpt lat="46.443380" lon="-0.040860">
        <time>2017-06-24T12:25:37Z</time>
      </trkpt>
      <trkpt lat="46.443560" lon="-0.040460">
        <time>2017-06-24T12:25:38Z</time>
      </trkpt>
      <trkpt lat="46.443740" lon="-0.040060">
        <time>2017-06-24T12:25:39Z</time>
      </trkpt>
      <trkpt lat="46.443930" lon="-0.039640">
        <time>2017-06-24T12:25:40Z</time>
      </trkpt>
      <trkpt lat="46.444090" lon="-0.039260">
        <time>2017-06-24T12:25:41Z</time>
      </trkpt>
      <trkpt lat="46.444270" lon="-0.038870">
        <time>2017-06-24T12:25:42Z</time>
      </trkpt>
      <trkpt lat="46.444450" lon="-0.038450">
        <time>2017-06-24T12:25:43Z</time>
      </trkpt>
      <trkpt lat="46.444620" lon="-0.038070">
        <time>2017-06-24T12:25:44Z</time>
      </trkpt>
      <trkpt lat="46.444800" lon="-0.037680">
        <time>2017-06-24T12:25:45Z</time>
      </trkpt>
      <trkpt lat="46.444990" lon="-0.037260">
        <time>2017-06-24T12:25:46Z</time>
      </trkpt>
      <trkpt lat="46.445170" lon="-0.036880">
        <time>2017-06-24T12:25:47Z</time>
      </trkpt>
      <trkpt lat="46.445360" lon="-0.036460">
        <time>2017-06-24T12:25:48Z</time>
      </trkpt>
      <trkpt lat="46.445540" lon="-0.036080">
        <time>2017-06-24T12:25:49Z</time>
      </trkpt>
      <trkpt lat="46.445720" lon="-0.035670">
        <time>2017-06-24T12:25:50Z</time>
      </trkpt>
      <trkpt lat="46.445920" lon="-0.035240">
        <time>2017-06-24T12:25:51Z</time>
      </trkpt>
      <trkpt lat="46.446090" lon="-0.034860">
        <time>2017-06-24T12:25:52Z</time>
      </trkpt>
      <trkpt lat="46.446270" lon="-0.034460">
        <time>2017-06-24T12:25:53Z</time>
      </trkpt>
      <trkpt lat="46.446440" lon="-0.034050">
        <time>2017-06-24T12:25:54Z</time>
      </trkpt>
      <trkpt lat="46.446610" lon="-0.033650">
        <time>2017-06-24T12:25:55Z</time>
      </trkpt>
      <trkpt lat="46.446790" lon="-0.033240">
        <time>2017-06-24T12:25:56Z</time>
      </trkpt>
      <trkpt lat="46.446940" lon="-0.032860">
        <time>2017-06-24T12:25:57Z</time>
      </trkpt>
      <trkpt lat="46.447100" lon="-0.032460">
        <time>2017-06-24T12:25:58Z</time>
      </trkpt>
      <trkpt lat="46.447270" lon="-0.032040">
        <time>2017-06-24T12:25:59Z</time>
      </trkpt>
      <trkpt lat="46.447420" lon="-0.031670">
        <time>2017-06-24T12:26:00Z</time>
      </trkpt>
      <trkpt lat="46.447590" lon="-0.031280">
        <time>2017-06-24T12:26:01Z</time>
      </trkpt>
      <trkpt lat="46.447760" lon="-0.030850">
        <time>2017-06-24T12:26:02Z</time>
      </trkpt>
      <trkpt lat="46.447910" lon="-0.030480">
        <time>2017-06-24T12:26:03Z</time>
      </trkpt>
      <trkpt lat="46.448080" lon="-0.030040">
        <time>2017-06-24T12:26:04Z</time>
      </trkpt>
      <trkpt lat="46.448230" lon="-0.029660">
        <time>2017-06-24T12:26:05Z</time>
      </trkpt>
      <trkpt lat="46.448380" lon="-0.029260">
        <time>2017-06-24T12:26:06Z</time>
      </trkpt>
      <trkpt lat="46.448550" lon="-0.028830">
        <time>2017-06-24T12:26:07Z</time>
      </trkpt>
      <trkpt lat="46.448690" lon="-0.028440">
        <time>2017-06-24T12:26:08Z</time>
      </trkpt>
      <trkpt lat="46.448840" lon="-0.028040">
        <time>2017-06-24T12:26:09Z</time>
      </trkpt>
      <trkpt lat="46.448990" lon="-0.027630">
        <time>2017-06-24T12:26:10Z</time>
      </trkpt>
      <trkpt lat="46.449140" lon="-0.027220">
        <time>2017-06-24T12:26:11Z</time>
      </trkpt>
      <trkpt lat="46.449300" lon="-0.026780">
        <time>2017-06-24T12:26:12Z</time>
      </trkpt>
      <trkpt lat="46.449430" lon="-0.026400">
        <time>2017-06-24T12:26:13Z</time>
      </trkpt>
      <trkpt lat="46.449580" lon="-0.025990">
        <time>2017-06-24T12:26:14Z</time>
      </trkpt>
      <trkpt lat="46.449730" lon="-0.025550">
        <time>2017-06-24T12:26:15Z</time>
      </trkpt>
      <trkpt lat="46.449860" lon="-0.025160">
        <time>2017-06-24T12:26:16Z</time>
      </trkpt>
      <trkpt lat="46.449990" lon="-0.024760">
        <time>2017-06-24T12:26:17Z</time>
      </trkpt>
      <trkpt lat="46.450140" lon="-0.024330">
        <time>2017-06-24T12:26:18Z</time>
      </trkpt>
      <trkpt lat="46.450270" lon="-0.023940">
        <time>2017-06-24T12:26:19Z</time>
      </trkpt>
      <trkpt lat="46.450410" lon="-0.023500">
        <time>2017-06-24T12:26:20Z</time>
      </trkpt>
      <trkpt lat="46.450530" lon="-0.023110">
        <time>2017-06-24T12:26:21Z</time>
      </trkpt>
      <trkpt lat="46.450660" lon="-0.022700">
        <time>2017-06-24T12:26:22Z</time>
      </trkpt>
      <trkpt lat="46.450800" lon="-0.022270">
        <time>2017-06-24T12:26:23Z</time>
      </trkpt>
      <trkpt lat="46.450910" lon="-0.021890">
        <time>2017-06-24T12:26:24Z</time>
      </trkpt>
      <trkpt lat="46.451040" lon="-0.021480">
        <time>2017-06-24T12:26:25Z</time>
      </trkpt>
      <trkpt lat="46.451170" lon="-0.021070">
        <time>2017-06-24T12:26:26Z</time>
      </trkpt>
      <trkpt lat="46.451290" lon="-0.020670">
        <time>2017-06-24T12:26:27Z</time>
      </trkpt>
      <trkpt lat="46.451420" lon="-0.020230">
        <time>2017-06-24T12:26:28Z</time>
      </trkpt>
      <trkpt lat="46.451530" lon="-0.019850">
        <time>2017-06-24T12:26:29Z</time>
      </trkpt>
      <trkpt lat="46.451640" lon="-0.019440">
        <time>2017-06-24T12:26:30Z</time>
      </trkpt>
      <trkpt lat="46.451760" lon="-0.019000">
        <time>2017-06-24T12:26:31Z</time>
      </trkpt>
      <trkpt lat="46.451870" lon="-0.018620">
        <time>2017-06-24T12:26:32Z</time>
      </trkpt>
      <trkpt lat="46.451980" lon="-0.018210">
        <time>2017-06-24T12:26:33Z</time>
      </trkpt>
      <trkpt lat="46.452100" lon="-0.017760">
        <time>2017-06-24T12:26:34Z</time>
      </trkpt>
      <trkpt lat="46.452200" lon="-0.017370">
        <time>2017-06-24T12:26:35Z</time>
      </trkpt>
      <trkpt lat="46.452320" lon="-0.016930">
        <time>2017-06-24T12:26:36Z</time>
      </trkpt>
      <trkpt lat="46.452430" lon="-0.016540">
        <time>2017-06-24T12:26:37Z</time>
      </trkpt>
      <trkpt lat="46.452530" lon="-0.016120">
        <time>2017-06-24T12:26:38Z</time>
      </trkpt>
      <trkpt lat="46.452650" lon="-0.015680">
        <time>2017-06-24T12:26:39Z</time>
      </trkpt>
      <trkpt lat="46.452760" lon="-0.015290">
        <time>2017-06-24T12:26:40Z</time>
      </trkpt>
      <trkpt lat="46.452880" lon="-0.014880">
        <time>2017-06-24T12:26:41Z</time>
      </trkpt>
      <trkpt lat="46.452990" lon="-0.014460">
        <time>2017-06-24T12:26:42Z</time>
      </trkpt>
      <trkpt lat="46.453100" lon="-0.014040">
        <time>2017-06-24T12:26:43Z</time>
      </trkpt>
      <trkpt lat="46.453220" lon="-0.013600">
        <time>2017-06-24T12:26:44Z</time>
      </trkpt>
      <trkpt lat="46.453320" lon="-0.013200">
        <time>2017-06-24T12:26:45Z</time>
      </trkpt>
      <trkpt lat="46.453440" lon="-0.012790">
        <time>2017-06-24T12:26:46Z</time>
      </trkpt>
      <trkpt lat="46.453560" lon="-0.012350">
        <time>2017-06-24T12:26:47Z</time>
      </trkpt>
      <trkpt lat="46.453660" lon="-0.011950">
        <time>2017-06-24T12:26:48Z</time>
      </trkpt>
      <trkpt lat="46.453770" lon="-0.011530">
        <time>2017-06-24T12:26:49Z</time>
      </trkpt>
      <trkpt lat="46.453890" lon="-0.011090">
        <time>2017-06-24T12:26:50Z</time>
      </trkpt>
      <trkpt lat="46.454000" lon="-0.010700">
        <time>2017-06-24T12:26:51Z</time>
      </trkpt>
      <trkpt lat="46.454120" lon="-0.010260">
        <time>2017-06-24T12:26:52Z</time>
      </trkpt>
      <trkpt lat="46.454230" lon="-0.009860">
        <time>2017-06-24T12:26:53Z</time>
      </trkpt>
      <trkpt lat="46.454340" lon="-0.009440">
        <time>2017-06-24T12:26:54Z</time>
      </trkpt>
      <trkpt lat="46.454460" lon="-0.009000">
        <time>2017-06-24T12:26:55Z</time>
      </trkpt>
      <trkpt lat="46.454570" lon="-0.008600">
        <time>2017-06-24T12:26:56Z</time>
      </trkpt>
      <trkpt lat="46.454690" lon="-0.008190">
        <time>2017-06-24T12:26:57Z</time>
      </trkpt>
      <trkpt lat="46.454790" lon="-0.007780">
        <time>2017-06-24T12:26:58Z</time>
      </trkpt>
      <trkpt lat="46.454900" lon="-0.007370">
        <time>2017-06-24T12:26:59Z</time>
      </trkpt>
      <trkpt lat="46.455010" lon="-0.006930">
        <time>2017-06-24T12:27:00Z</time>
      </trkpt>
      <trkpt lat="46.455120" lon="-0.006540">
        <time>2017-06-24T12:27:01Z</time>
      </trkpt>
      <trkpt lat="46.455230" lon="-0.006130">
        <time>2017-06-24T12:27:02Z</time>
      </trkpt>
      <trkpt lat="46.455350" lon="-0.005700">
        <time>2017-06-24T12:27:03Z</time>
      </trkpt>
      <trkpt lat="46.455450" lon="-0.005310">
        <time>2017-06-24T12:27:04Z</time>
      </trkpt>
      <trkpt lat="46.455560" lon="-0.004900">
        <time>2017-06-24T12:27:05Z</time>
      </trkpt>
      <trkpt lat="46.455680" lon="-0.004460">
        <time>2017-06-24T12:27:06Z</time>
      </trkpt>
      <trkpt lat="46.455790" lon="-0.004070">
        <time>2017-06-24T12:27:07Z</time>
      </trkpt>
      <trkpt lat="46.455910" lon="-0.003620">
        <time>2017-06-24T12:27:08Z</time>
      </trkpt>
      <trkpt lat="46.456020" lon="-0.003220">
        <time>2017-06-24T12:27:09Z</time>
      </trkpt>
      <trkpt lat="46.456140" lon="-0.002790">
        <time>2017-06-24T12:27:10Z</time>
      </trkpt>
      <trkpt lat="46.456260" lon="-0.002330">
        <time>2017-06-24T12:27:11Z</time>
      </trkpt>
      <trkpt lat="46.456380" lon="-0.001930">
        <time>2017-06-24T12:27:12Z</time>
      </trkpt>
      <trkpt lat="46.456500" lon="-0.001510">
        <time>2017-06-24T12:27:13Z</time>
      </trkpt>
      <trkpt lat="46.456630" lon="-0.001080">
        <time>2017-06-24T12:27:14Z</time>
      </trkpt>
      <trkpt lat="46.456760" lon="-0.000650">
        <time>2017-06-24T12:27:15Z</time>
      </trkpt>
      <trkpt lat="46.456900" lon="-0.000200">
        <time>2017-06-24T12:27:16Z</time>
      </trkpt>
      <trkpt lat="46.457030" lon="0.000210">
        <time>2017-06-24T12:27:17Z</time>
      </trkpt>
      <trkpt lat="46.457160" lon="0.000640">
        <time>2017-06-24T12:27:18Z</time>
      </trkpt>
      <trkpt lat="46.457300" lon="0.001110">
        <time>2017-06-24T12:27:19Z</time>
      </trkpt>
      <trkpt lat="46.457440" lon="0.001510">
        <time>2017-06-24T12:27:20Z</time>
      </trkpt>
      <trkpt lat="46.457580" lon="0.001940">
        <time>2017-06-24T12:27:21Z</time>
      </trkpt>
      <trkpt lat="46.457740" lon="0.002400">
        <time>2017-06-24T12:27:22Z</time>
      </trkpt>
      <trkpt lat="46.457880" lon="0.002800">
        <time>2017-06-24T12:27:23Z</time>
      </trkpt>
      <trkpt lat="46.458040" lon="0.003250">
        <time>2017-06-24T12:27:24Z</time>
      </trkpt>
      <trkpt lat="46.458190" lon="0.003650">
        <time>2017-06-24T12:27:25Z</time>
      </trkpt>
      <trkpt lat="46.458340" lon="0.004080">
        <time>2017-06-24T12:27:26Z</time>
      </trkpt>
      <trkpt lat="46.458520" lon="0.004530">
        <time>2017-06-24T12:27:27Z</time>
      </trkpt>
      <trkpt lat="46.458660" lon="0.004930">
        <time>2017-06-24T12:27:28Z</time>
      </trkpt>
      <trkpt lat="46.458820" lon="0.005350">
        <time>2017-06-24T12:27:29Z</time>
      </trkpt>
      <trkpt lat="46.458980" lon="0.005770">
        <time>2017-06-24T12:27:30Z</time>
      </trkpt>
      <trkpt lat="46.459140" lon="0.006200">
        <time>2017-06-24T12:27:31Z</time>
      </trkpt>
      <trkpt lat="46.459310" lon="0.006640">
        <time>2017-06-24T12:27:32Z</time>
      </trkpt>
      <trkpt lat="46.459470" lon="0.007020">
        <time>2017-06-24T12:27:33Z</time>
      </trkpt>
      <trkpt lat="46.459640" lon="0.007440">
        <time>2017-06-24T12:27:34Z</time>
      </trkpt>
      <trkpt lat="46.459820" lon="0.007860">
        <time>2017-06-24T12:27:35Z</time>
      </trkpt>
      <trkpt lat="46.459980" lon="0.008240">
        <time>2017-06-24T12:27:36Z</time>
      </trkpt>
      <trkpt lat="46.460150" lon="0.008650">
        <time>2017-06-24T12:27:37Z</time>
      </trkpt>
      <trkpt lat="46.460330" lon="0.009070">
        <time>2017-06-24T12:27:38Z</time>
      </trkpt>
      <trkpt lat="46.460500" lon="0.009450">
        <time>2017-06-24T12:27:39Z</time>
      </trkpt>
      <trkpt lat="46.460690" lon="0.009870">
        <time>2017-06-24T12:27:40Z</time>
      </trkpt>
      <trkpt lat="46.460860" lon="0.010250">
        <time>2017-06-24T12:27:41Z</time>
      </trkpt>
      <trkpt lat="46.461050" lon="0.010650">
        <time>2017-06-24T12:27:42Z</time>
      </trkpt>
      <trkpt lat="46.461250" lon="0.011070">
        <time>2017-06-24T12:27:43Z</time>
      </trkpt>
      <trkpt lat="46.461430" lon="0.011430">
        <time>2017-06-24T12:27:44Z</time>
      </trkpt>
      <trkpt lat="46.461630" lon="0.011840">
        <time>2017-06-24T12:27:45Z</time>
      </trkpt>
      <trkpt lat="46.461820" lon="0.012230">
        <time>2017-06-24T12:27:46Z</time>
      </trkpt>
      <trkpt lat="46.462010" lon="0.012620">
        <time>2017-06-24T12:27:47Z</time>
      </trkpt>
      <trkpt lat="46.462220" lon="0.013040">
        <time>2017-06-24T12:27:48Z</time>
      </trkpt>
      <trkpt lat="46.462400" lon="0.013400">
        <time>2017-06-24T12:27:49Z</time>
      </trkpt>
      <trkpt lat="46.462600" lon="0.013800">
        <time>2017-06-24T12:27:50Z</time>
      </trkpt>
      <trkpt lat="46.462800" lon="0.014210">
        <time>2017-06-24T12:27:51Z</time>
      </trkpt>
      <trkpt lat="46.462980" lon="0.014570">
        <time>2017-06-24T12:27:52Z</time>
      </trkpt>
      <trkpt lat="46.463160" lon="0.014960">
        <time>2017-06-24T12:27:53Z</time>
      </trkpt>
      <trkpt lat="46.463360" lon="0.015380">
        <time>2017-06-24T12:27:54Z</time>
      </trkpt>
      <trkpt lat="46.463520" lon="0.015740">
        <time>2017-06-24T12:27:55Z</time>
      </trkpt>
      <trkpt lat="46.463720" lon="0.016150">
        <time>2017-06-24T12:27:56Z</time>
      </trkpt>
      <trkpt lat="46.463890" lon="0.016510">
        <time>2017-06-24T12:27:57Z</time>
      </trkpt>
      <trkpt lat="46.464070" lon="0.016890">
        <time>2017-06-24T12:27:58Z</time>
      </trkpt>
      <trkpt lat="46.464260" lon="0.017300">
        <time>2017-06-24T12:27:59Z</time>
      </trkpt>
      <trkpt lat="46.464430" lon="0.017650">
        <time>2017-06-24T12:28:00Z</time>
      </trkpt>
      <trkpt lat="46.464610" lon="0.018040">
        <time>2017-06-24T12:28:01Z</time>
      </trkpt>
      <trkpt lat="46.464780" lon="0.018430">
        <time>2017-06-24T12:28:02Z</time>
      </trkpt>
      <trkpt lat="46.464960" lon="0.018820">
        <time>2017-06-24T12:28:03Z</time>
      </trkpt>
      <trkpt lat="46.465150" lon="0.019230">
        <time>2017-06-24T12:28:04Z</time>
      </trkpt>
      <trkpt lat="46.465310" lon="0.019610">
        <time>2017-06-24T12:28:05Z</time>
      </trkpt>
      <trkpt lat="46.465470" lon="0.020000">
        <time>2017-06-24T12:28:06Z</time>
      </trkpt>
      <trkpt lat="46.465650" lon="0.020420">
        <time>2017-06-24T12:28:07Z</time>
      </trkpt>
      <trkpt lat="46.465810" lon="0.020780">
        <time>2017-06-24T12:28:08Z</time>
      </trkpt>
      <trkpt lat="46.465970" lon="0.021180">
        <time>2017-06-24T12:28:09Z</time>
      </trkpt>
      <trkpt lat="46.466140" lon="0.021610">
        <time>2017-06-24T12:28:10Z</time>
      </trkpt>
      <trkpt lat="46.466290" lon="0.021970">
        <time>2017-06-24T12:28:11Z</time>
      </trkpt>
      <trkpt lat="46.466450" lon="0.022390">
        <time>2017-06-24T12:28:12Z</time>
      </trkpt>
      <trkpt lat="46.466600" lon="0.022770">
        <time>2017-06-24T12:28:13Z</time>
      </trkpt>
      <trkpt lat="46.466750" lon="0.023160">
        <time>2017-06-24T12:28:14Z</time>
      </trkpt>
      <trkpt lat="46.466910" lon="0.023590">
        <time>2017-06-24T12:28:15Z</time>
      </trkpt>
      <trkpt lat="46.467050" lon="0.023970">
        <time>2017-06-24T12:28:16Z</time>
      </trkpt>
      <trkpt lat="46.467200" lon="0.024370">
        <time>2017-06-24T12:28:17Z</time>
      </trkpt>
      <trkpt lat="46.467340" lon="0.024780">
        <time>2017-06-24T12:28:18Z</time>
      </trkpt>
      <trkpt lat="46.467490" lon="0.025190">
        <time>2017-06-24T12:28:19Z</time>
      </trkpt>
      <trkpt lat="46.467640" lon="0.025620">
        <time>2017-06-24T12:28:20Z</time>
      </trkpt>
      <trkpt lat="46.467770" lon="0.026020">
        <time>2017-06-24T12:28:21Z</time>
      </trkpt>
      <trkpt lat="46.467910" lon="0.026420">
        <time>2017-06-24T12:28:22Z</time>
      </trkpt>
      <trkpt lat="46.468050" lon="0.026860">
        <time>2017-06-24T12:28:23Z</time>
      </trkpt>
      <trkpt lat="46.468190" lon="0.027250">
        <time>2017-06-24T12:28:24Z</time>
      </trkpt>
      <trkpt lat="46.468330" lon="0.027670">
        <time>2017-06-24T12:28:25Z</time>
      </trkpt>
      <trkpt lat="46.468470" lon="0.028110">
        <time>2017-06-24T12:28:26Z</time>
      </trkpt>
      <trkpt lat="46.468600" lon="0.028500">
        <time>2017-06-24T12:28:27Z</time>
      </trkpt>
      <trkpt lat="46.468730" lon="0.028950">
        <time>2017-06-24T12:28:28Z</time>
      </trkpt>
      <trkpt lat="46.468860" lon="0.029340">
        <time>2017-06-24T12:28:29Z</time>
      </trkpt>
      <trkpt lat="46.468990" lon="0.029770">
        <time>2017-06-24T12:28:30Z</time>
      </trkpt>
      <trkpt lat="46.469120" lon="0.030210">
        <time>2017-06-24T12:28:31Z</time>
      </trkpt>
      <trkpt lat="46.469230" lon="0.030600">
        <time>2017-06-24T12:28:32Z</time>
      </trkpt>
      <trkpt lat="46.469350" lon="0.031030">
        <time>2017-06-24T12:28:33Z</time>
      </trkpt>
      <trkpt lat="46.469470" lon="0.031440">
        <time>2017-06-24T12:28:34Z</time>
      </trkpt>
      <trkpt lat="46.469590" lon="0.031860">
        <time>2017-06-24T12:28:35Z</time>
      </trkpt>
      <trkpt lat="46.469710" lon="0.032310">
        <time>2017-06-24T12:28:36Z</time>
      </trkpt>
      <trkpt lat="46.469820" lon="0.032700">
        <time>2017-06-24T12:28:37Z</time>
      </trkpt>
      <trkpt lat="46.469930" lon="0.033120">
        <time>2017-06-24T12:28:38Z</time>
      </trkpt>
      <trkpt lat="46.470050" lon="0.033570">
        <time>2017-06-24T12:28:39Z</time>
      </trkpt>
      <trkpt lat="46.470150" lon="0.033970">
        <time>2017-06-24T12:28:40Z</time>
      </trkpt>
      <trkpt lat="46.470260" lon="0.034390">
        <time>2017-06-24T12:28:41Z</time>
      </trkpt>
      <trkpt lat="46.470370" lon="0.034850">
        <time>2017-06-24T12:28:42Z</time>
      </trkpt>
      <trkpt lat="46.470470" lon="0.035260">
        <time>2017-06-24T12:28:43Z</time>
      </trkpt>
      <trkpt lat="46.470570" lon="0.035720">
        <time>2017-06-24T12:28:44Z</time>
      </trkpt>
      <trkpt lat="46.470670" lon="0.036120">
        <time>2017-06-24T12:28:45Z</time>
      </trkpt>
      <trkpt lat="46.470770" lon="0.036560">
        <time>2017-06-24T12:28:46Z</time>
      </trkpt>
      <trkpt lat="46.470870" lon="0.037030">
        <time>2017-06-24T12:28:47Z</time>
      </trkpt>
      <trkpt lat="46.470960" lon="0.037450">
        <time>2017-06-24T12:28:48Z</time>
      </trkpt>
      <trkpt lat="46.471050" lon="0.037900">
        <time>2017-06-24T12:28:49Z</time>
      </trkpt>
      <trkpt lat="46.471140" lon="0.038350">
        <time>2017-06-24T12:28:50Z</time>
      </trkpt>
      <trkpt lat="46.471240" lon="0.038800">
        <time>2017-06-24T12:28:51Z</time>
      </trkpt>
      <trkpt lat="46.471340" lon="0.039300">
        <time>2017-06-24T12:28:52Z</time>
      </trkpt>
      <trkpt lat="46.471420" lon="0.039720">
        <time>2017-06-24T12:28:53Z</time>
      </trkpt>
      <trkpt lat="46.471520" lon="0.040170">
        <time>2017-06-24T12:28:54Z</time>
      </trkpt>
      <trkpt lat="46.471620" lon="0.040650">
        <time>2017-06-24T12:28:55Z</time>
      </trkpt>
      <trkpt lat="46.471710" lon="0.041070">
        <time>2017-06-24T12:28:56Z</time>
      </trkpt>
      <trkpt lat="46.471810" lon="0.041520">
        <time>2017-06-24T12:28:57Z</time>
      </trkpt>
      <trkpt lat="46.471920" lon="0.042010">
        <time>2017-06-24T12:28:58Z</time>
      </trkpt>
      <trkpt lat="46.472010" lon="0.042440">
        <time>2017-06-24T12:28:59Z</time>
      </trkpt>
      <trkpt lat="46.472120" lon="0.042940">
        <time>2017-06-24T12:29:00Z</time>
      </trkpt>
      <trkpt lat="46.472210" lon="0.043360">
        <time>2017-06-24T12:29:01Z</time>
      </trkpt>
      <trkpt lat="46.472320" lon="0.043810">
        <time>2017-06-24T12:29:02Z</time>
      </trkpt>
      <trkpt lat="46.472420" lon="0.044290">
        <time>2017-06-24T12:29:03Z</time>
      </trkpt>
      <trkpt lat="46.472490" lon="0.044710">
        <time>2017-06-24T12:29:04Z</time>
      </trkpt>
      <trkpt lat="46.472570" lon="0.045160">
        <time>2017-06-24T12:29:05Z</time>
      </trkpt>
      <trkpt lat="46.472660" lon="0.045610">
        <time>2017-06-24T12:29:06Z</time>
      </trkpt>
      <trkpt lat="46.472750" lon="0.046050">
        <time>2017-06-24T12:29:07Z</time>
      </trkpt>
      <trkpt lat="46.472840" lon="0.046530">
        <time>2017-06-24T12:29:08Z</time>
      </trkpt>
      <trkpt lat="46.472930" lon="0.046960">
        <time>2017-06-24T12:29:09Z</time>
      </trkpt>
      <trkpt lat="46.473020" lon="0.047410">
        <time>2017-06-24T12:29:10Z</time>
      </trkpt>
      <trkpt lat="46.473110" lon="0.047890">
        <time>2017-06-24T12:29:11Z</time>
      </trkpt>
      <trkpt lat="46.473200" lon="0.048320">
        <time>2017-06-24T12:29:12Z</time>
      </trkpt>
      <trkpt lat="46.473300" lon="0.048770">
        <time>2017-06-24T12:29:13Z</time>
      </trkpt>
      <trkpt lat="46.473410" lon="0.049240">
        <time>2017-06-24T12:29:14Z</time>
      </trkpt>
      <trkpt lat="46.473510" lon="0.049660">
        <time>2017-06-24T12:29:15Z</time>
      </trkpt>
      <trkpt lat="46.473600" lon="0.050140">
        <time>2017-06-24T12:29:16Z</time>
      </trkpt>
      <trkpt lat="46.473700" lon="0.050550">
        <time>2017-06-24T12:29:17Z</time>
      </trkpt>
      <trkpt lat="46.473810" lon="0.051000">
        <time>2017-06-24T12:29:18Z</time>
      </trkpt>
      <trkpt lat="46.473930" lon="0.051480">
        <time>2017-06-24T12:29:19Z</time>
      </trkpt>
      <trkpt lat="46.474030" lon="0.051900">
        <time>2017-06-24T12:29:20Z</time>
      </trkpt>
      <trkpt lat="46.474150" lon="0.052340">
        <time>2017-06-24T12:29:21Z</time>
      </trkpt>
      <trkpt lat="46.474270" lon="0.052780">
        <time>2017-06-24T12:29:22Z</time>
      </trkpt>
      <trkpt lat="46.474390" lon="0.053210">
        <time>2017-06-24T12:29:23Z</time>
      </trkpt>
      <trkpt lat="46.474520" lon="0.053660">
        <time>2017-06-24T12:29:24Z</time>
      </trkpt>
      <trkpt lat="46.474650" lon="0.054060">
        <time>2017-06-24T12:29:25Z</time>
      </trkpt>
      <trkpt lat="46.474780" lon="0.054480">
        <time>2017-06-24T12:29:26Z</time>
      </trkpt>
      <trkpt lat="46.474920" lon="0.054930">
        <time>2017-06-24T12:29:27Z</time>
      </trkpt>
      <trkpt lat="46.475050" lon="0.055310">
        <time>2017-06-24T12:29:28Z</time>
      </trkpt>
      <trkpt lat="46.475180" lon="0.055720">
        <time>2017-06-24T12:29:29Z</time>
      </trkpt>
      <trkpt lat="46.475330" lon="0.056160">
        <time>2017-06-24T12:29:30Z</time>
      </trkpt>
      <trkpt lat="46.475470" lon="0.056530">
        <time>2017-06-24T12:29:31Z</time>
      </trkpt>
      <trkpt lat="46.475630" lon="0.056960">
        <time>2017-06-24T12:29:32Z</time>
      </trkpt>
      <trkpt lat="46.475770" lon="0.057340">
        <time>2017-06-24T12:29:33Z</time>
      </trkpt>
      <trkpt lat="46.475920" lon="0.057730">
        <time>2017-06-24T12:29:34Z</time>
      </trkpt>
      <trkpt lat="46.476090" lon="0.058150">
        <time>2017-06-24T12:29:35Z</time>
      </trkpt>
      <trkpt lat="46.476240" lon="0.058510">
        <time>2017-06-24T12:29:36Z</time>
      </trkpt>
      <trkpt lat="46.476400" lon="0.058900">
        <time>2017-06-24T12:29:37Z</time>
      </trkpt>
      <trkpt lat="46.476570" lon="0.059270">
        <time>2017-06-24T12:29:38Z</time>
      </trkpt>
      <trkpt lat="46.476740" lon="0.059650">
        <time>2017-06-24T12:29:39Z</time>
      </trkpt>
      <trkpt lat="46.476920" lon="0.060040">
        <time>2017-06-24T12:29:40Z</time>
      </trkpt>
      <trkpt lat="46.477070" lon="0.060390">
        <time>2017-06-24T12:29:41Z</time>
      </trkpt>
      <trkpt lat="46.477240" lon="0.060750">
        <time>2017-06-24T12:29:42Z</time>
      </trkpt>
      <trkpt lat="46.477430" lon="0.061140">
        <time>2017-06-24T12:29:43Z</time>
      </trkpt>
      <trkpt lat="46.477610" lon="0.061490">
        <time>2017-06-24T12:29:44Z</time>
      </trkpt>
      <trkpt lat="46.477800" lon="0.061850">
        <time>2017-06-24T12:29:45Z</time>
      </trkpt>
      <trkpt lat="46.478000" lon="0.062240">
        <time>2017-06-24T12:29:46Z</time>
      </trkpt>
      <trkpt lat="46.478180" lon="0.062590">
        <time>2017-06-24T12:29:47Z</time>
      </trkpt>
      <trkpt lat="46.478400" lon="0.062970">
        <time>2017-06-24T12:29:48Z</time>
      </trkpt>
      <trkpt lat="46.478590" lon="0.063310">
        <time>2017-06-24T12:29:49Z</time>
      </trkpt>
      <trkpt lat="46.478790" lon="0.063670">
        <time>2017-06-24T12:29:50Z</time>
      </trkpt>
      <trkpt lat="46.479020" lon="0.064050">
        <time>2017-06-24T12:29:51Z</time>
      </trkpt>
      <trkpt lat="46.479210" lon="0.064380">
        <time>2017-06-24T12:29:52Z</time>
      </trkpt>
      <trkpt lat="46.479420" lon="0.064720">
        <time>2017-06-24T12:29:53Z</time>
      </trkpt>
      <trkpt lat="46.479640" lon="0.065060">
        <time>2017-06-24T12:29:54Z</time>
      </trkpt>
      <trkpt lat="46.479860" lon="0.065390">
        <time>2017-06-24T12:29:55Z</time>
      </trkpt>
      <trkpt lat="46.480080" lon="0.065740">
        <time>2017-06-24T12:29:56Z</time>
      </trkpt>
      <trkpt lat="46.480280" lon="0.066050">
        <time>2017-06-24T12:29:57Z</time>
      </trkpt>
      <trkpt lat="46.480500" lon="0.066370">
        <time>2017-06-24T12:29:58Z</time>
      </trkpt>
      <trkpt lat="46.480740" lon="0.066700">
        <time>2017-06-24T12:29:59Z</time>
      </trkpt>
      <trkpt lat="46.480940" lon="0.066990">
        <time>2017-06-24T12:30:00Z</time>
      </trkpt>
      <trkpt lat="46.481160" lon="0.067290">
        <time>2017-06-24T12:30:01Z</time>
      </trkpt>
      <trkpt lat="46.481400" lon="0.067620">
        <time>2017-06-24T12:30:02Z</time>
      </trkpt>
      <trkpt lat="46.481610" lon="0.067900">
        <time>2017-06-24T12:30:03Z</time>
      </trkpt>
      <trkpt lat="46.481840" lon="0.068210">
        <time>2017-06-24T12:30:04Z</time>
      </trkpt>
      <trkpt lat="46.482050" lon="0.068490">
        <time>2017-06-24T12:30:05Z</time>
      </trkpt>
      <trkpt lat="46.482270" lon="0.068780">
        <time>2017-06-24T12:30:06Z</time>
      </trkpt>
      <trkpt lat="46.482510" lon="0.069090">
        <time>2017-06-24T12:30:07Z</time>
      </trkpt>
      <trkpt lat="46.482720" lon="0.069360">
        <time>2017-06-24T12:30:08Z</time>
      </trkpt>
      <trkpt lat="46.482940" lon="0.069640">
        <time>2017-06-24T12:30:09Z</time>
      </trkpt>
      <trkpt lat="46.483160" lon="0.069940">
        <time>2017-06-24T12:30:10Z</time>
      </trkpt>
      <trkpt lat="46.483390" lon="0.070220">
        <time>2017-06-24T12:30:11Z</time>
      </trkpt>
      <trkpt lat="46.483630" lon="0.070510">
        <time>2017-06-24T12:30:12Z</time>
      </trkpt>
      <trkpt lat="46.483840" lon="0.070780">
        <time>2017-06-24T12:30:13Z</time>
      </trkpt>
      <trkpt lat="46.484070" lon="0.071070">
        <time>2017-06-24T12:30:14Z</time>
      </trkpt>
      <trkpt lat="46.484310" lon="0.071380">
        <time>2017-06-24T12:30:15Z</time>
      </trkpt>
      <trkpt lat="46.484520" lon="0.071650">
        <time>2017-06-24T12:30:16Z</time>
      </trkpt>
      <trkpt lat="46.484750" lon="0.071950">
        <time>2017-06-24T12:30:17Z</time>
      </trkpt>
      <trkpt lat="46.485000" lon="0.072270">
        <time>2017-06-24T12:30:18Z</time>
      </trkpt>
      <trkpt lat="46.485220" lon="0.072540">
        <time>2017-06-24T12:30:19Z</time>
      </trkpt>
      <trkpt lat="46.485460" lon="0.072850">
        <time>2017-06-24T12:30:20Z</time>
      </trkpt>
      <trkpt lat="46.485680" lon="0.073120">
        <time>2017-06-24T12:30:21Z</time>
      </trkpt>
      <trkpt lat="46.485910" lon="0.073420">
        <time>2017-06-24T12:30:22Z</time>
      </trkpt>
      <trkpt lat="46.486160" lon="0.073730">
        <time>2017-06-24T12:30:23Z</time>
      </trkpt>
      <trkpt lat="46.486380" lon="0.074000">
        <time>2017-06-24T12:30:24Z</time>
      </trkpt>
      <trkpt lat="46.486610" lon="0.074290">
        <time>2017-06-24T12:30:25Z</time>
      </trkpt>
      <trkpt lat="46.486840" lon="0.074580">
        <time>2017-06-24T12:30:26Z</time>
      </trkpt>
      <trkpt lat="46.487070" lon="0.074890">
        <time>2017-06-24T12:30:27Z</time>
      </trkpt>
      <trkpt lat="46.487310" lon="0.075210">
        <time>2017-06-24T12:30:28Z</time>
      </trkpt>
      <trkpt lat="46.487520" lon="0.075490">
        <time>2017-06-24T12:30:29Z</time>
      </trkpt>
      <trkpt lat="46.487750" lon="0.075800">
        <time>2017-06-24T12:30:30Z</time>
      </trkpt>
      <trkpt lat="46.487980" lon="0.076130">
        <time>2017-06-24T12:30:31Z</time>
      </trkpt>
      <trkpt lat="46.488190" lon="0.076410">
        <time>2017-06-24T12:30:32Z</time>
      </trkpt>
      <trkpt lat="46.488410" lon="0.076720">
        <time>2017-06-24T12:30:33Z</time>
      </trkpt>
      <trkpt lat="46.488650" lon="0.077050">
        <time>2017-06-24T12:30:34Z</time>
      </trkpt>
      <trkpt lat="46.488860" lon="0.077340">
        <time>2017-06-24T12:30:35Z</time>
      </trkpt>
      <trkpt lat="46.489100" lon="0.077670">
        <time>2017-06-24T12:30:36Z</time>
      </trkpt>
      <trkpt lat="46.489300" lon="0.077960">
        <time>2017-06-24T12:30:37Z</time>
      </trkpt>
      <trkpt lat="46.489520" lon="0.078280">
        <time>2017-06-24T12:30:38Z</time>
      </trkpt>
      <trkpt lat="46.489750" lon="0.078620">
        <time>2017-06-24T12:30:39Z</time>
      </trkpt>
      <trkpt lat="46.489960" lon="0.078930">
        <time>2017-06-24T12:30:40Z</time>
      </trkpt>
      <trkpt lat="46.490190" lon="0.079260">
        <time>2017-06-24T12:30:41Z</time>
      </trkpt>
      <trkpt lat="46.490410" lon="0.079590">
        <time>2017-06-24T12:30:42Z</time>
      </trkpt>
      <trkpt lat="46.490630" lon="0.079920">
        <time>2017-06-24T12:30:43Z</time>
      </trkpt>
      <trkpt lat="46.490870" lon="0.080290">
        <time>2017-06-24T12:30:44Z</time>
      </trkpt>
      <trkpt lat="46.491070" lon="0.080610">
        <time>2017-06-24T12:30:45Z</time>
      </trkpt>
      <trkpt lat="46.491300" lon="0.080960">
        <time>2017-06-24T12:30:46Z</time>
      </trkpt>
      <trkpt lat="46.491540" lon="0.081330">
        <time>2017-06-24T12:30:47Z</time>
      </trkpt>
      <trkpt lat="46.491750" lon="0.081650">
        <time>2017-06-24T12:30:48Z</time>
      </trkpt>
      <trkpt lat="46.491970" lon="0.082000">
        <time>2017-06-24T12:30:49Z</time>
      </trkpt>
      <trkpt lat="46.492210" lon="0.082370">
        <time>2017-06-24T12:30:50Z</time>
      </trkpt>
      <trkpt lat="46.492420" lon="0.082690">
        <time>2017-06-24T12:30:51Z</time>
      </trkpt>
      <trkpt lat="46.492650" lon="0.083060">
        <time>2017-06-24T12:30:52Z</time>
      </trkpt>
      <trkpt lat="46.492850" lon="0.083380">
        <time>2017-06-24T12:30:53Z</time>
      </trkpt>
      <trkpt lat="46.493070" lon="0.083720">
        <time>2017-06-24T12:30:54Z</time>
      </trkpt>
      <trkpt lat="46.493300" lon="0.084090">
        <time>2017-06-24T12:30:55Z</time>
      </trkpt>
      <trkpt lat="46.493510" lon="0.084410">
        <time>2017-06-24T12:30:56Z</time>
      </trkpt>
      <trkpt lat="46.493730" lon="0.084750">
        <time>2017-06-24T12:30:57Z</time>
      </trkpt>
      <trkpt lat="46.493950" lon="0.085110">
        <time>2017-06-24T12:30:58Z</time>
      </trkpt>
      <trkpt lat="46.494170" lon="0.085450">
        <time>2017-06-24T12:30:59Z</time>
      </trkpt>
      <trkpt lat="46.494400" lon="0.085810">
        <time>2017-06-24T12:31:00Z</time>
      </trkpt>
      <trkpt lat="46.494610" lon="0.086140">
        <time>2017-06-24T12:31:01Z</time>
      </trkpt>
      <trkpt lat="46.494830" lon="0.086490">
        <time>2017-06-24T12:31:02Z</time>
      </trkpt>
      <trkpt lat="46.495060" lon="0.086860">
        <time>2017-06-24T12:31:03Z</time>
      </trkpt>
      <trkpt lat="46.495270" lon="0.087180">
        <time>2017-06-24T12:31:04Z</time>
      </trkpt>
      <trkpt lat="46.495490" lon="0.087520">
        <time>2017-06-24T12:31:05Z</time>
      </trkpt>
      <trkpt lat="46.495710" lon="0.087900">
        <time>2017-06-24T12:31:06Z</time>
      </trkpt>
      <trkpt lat="46.495920" lon="0.088210">
        <time>2017-06-24T12:31:07Z</time>
      </trkpt>
      <trkpt lat="46.496140" lon="0.088570">
        <time>2017-06-24T12:31:08Z</time>
      </trkpt>
      <trkpt lat="46.496330" lon="0.088890">
        <time>2017-06-24T12:31:09Z</time>
      </trkpt>
      <trkpt lat="46.496540" lon="0.089230">
        <time>2017-06-24T12:31:10Z</time>
      </trkpt>
      <trkpt lat="46.496760" lon="0.089580">
        <time>2017-06-24T12:31:11Z</time>
      </trkpt>
      <trkpt lat="46.496960" lon="0.089910">
        <time>2017-06-24T12:31:12Z</time>
      </trkpt>
      <trkpt lat="46.497160" lon="0.090250">
        <time>2017-06-24T12:31:13Z</time>
      </trkpt>
      <trkpt lat="46.497370" lon="0.090600">
        <time>2017-06-24T12:31:14Z</time>
      </trkpt>
      <trkpt lat="46.497580" lon="0.090950">
        <time>2017-06-24T12:31:15Z</time>
      </trkpt>
      <trkpt lat="46.497800" lon="0.091330">
        <time>2017-06-24T12:31:16Z</time>
      </trkpt>
      <trkpt lat="46.497990" lon="0.091680">
        <time>2017-06-24T12:31:17Z</time>
      </trkpt>
      <trkpt lat="46.498200" lon="0.092040">
        <time>2017-06-24T12:31:18Z</time>
      </trkpt>
      <trkpt lat="46.498410" lon="0.092440">
        <time>2017-06-24T12:31:19Z</time>
      </trkpt>
      <trkpt lat="46.498600" lon="0.092790">
        <time>2017-06-24T12:31:20Z</time>
      </trkpt>
      <trkpt lat="46.498800" lon="0.093160">
        <time>2017-06-24T12:31:21Z</time>
      </trkpt>
      <trkpt lat="46.499010" lon="0.093570">
        <time>2017-06-24T12:31:22Z</time>
      </trkpt>
      <trkpt lat="46.499200" lon="0.093930">
        <time>2017-06-24T12:31:23Z</time>
      </trkpt>
      <trkpt lat="46.499420" lon="0.094340">
        <time>2017-06-24T12:31:24Z</time>
      </trkpt>
      <trkpt lat="46.499600" lon="0.094700">
        <time>2017-06-24T12:31:25Z</time>
      </trkpt>
      <trkpt lat="46.499790" lon="0.095100">
        <time>2017-06-24T12:31:26Z</time>
      </trkpt>
      <trkpt lat="46.500000" lon="0.095520">
        <time>2017-06-24T12:31:27Z</time>
      </trkpt>
      <trkpt lat="46.500180" lon="0.095890">
        <time>2017-06-24T12:31:28Z</time>
      </trkpt>
      <trkpt lat="46.500380" lon="0.096280">
        <time>2017-06-24T12:31:29Z</time>
      </trkpt>
      <trkpt lat="46.500570" lon="0.096680">
        <time>2017-06-24T12:31:30Z</time>
      </trkpt>
      <trkpt lat="46.500760" lon="0.097080">
        <time>2017-06-24T12:31:31Z</time>
      </trkpt>
      <trkpt lat="46.500960" lon="0.097500">
        <time>2017-06-24T12:31:32Z</time>
      </trkpt>
      <trkpt lat="46.501140" lon="0.097880">
        <time>2017-06-24T12:31:33Z</time>
      </trkpt>
      <trkpt lat="46.501320" lon="0.098280">
        <time>2017-06-24T12:31:34Z</time>
      </trkpt>
      <trkpt lat="46.501510" lon="0.098710">
        <time>2017-06-24T12:31:35Z</time>
      </trkpt>
      <trkpt lat="46.501670" lon="0.099090">
        <time>2017-06-24T12:31:36Z</time>
      </trkpt>
      <trkpt lat="46.501850" lon="0.099490">
        <time>2017-06-24T12:31:37Z</time>
      </trkpt>
      <trkpt lat="46.502030" lon="0.099920">
        <time>2017-06-24T12:31:38Z</time>
      </trkpt>
      <trkpt lat="46.502190" lon="0.100300">
        <time>2017-06-24T12:31:39Z</time>
      </trkpt>
      <trkpt lat="46.502370" lon="0.100720">
        <time>2017-06-24T12:31:40Z</time>
      </trkpt>
      <trkpt lat="46.502530" lon="0.101090">
        <time>2017-06-24T12:31:41Z</time>
      </trkpt>
      <trkpt lat="46.502700" lon="0.101480">
        <time>2017-06-24T12:31:42Z</time>
      </trkpt>
      <trkpt lat="46.502870" lon="0.101900">
        <time>2017-06-24T12:31:43Z</time>
      </trkpt>
      <trkpt lat="46.503030" lon="0.102260">
        <time>2017-06-24T12:31:44Z</time>
      </trkpt>
      <trkpt lat="46.503190" lon="0.102650">
        <time>2017-06-24T12:31:45Z</time>
      </trkpt>
      <trkpt lat="46.503360" lon="0.103030">
        <time>2017-06-24T12:31:46Z</time>
      </trkpt>
      <trkpt lat="46.503530" lon="0.103410">
        <time>2017-06-24T12:31:47Z</time>
      </trkpt>
      <trkpt lat="46.503700" lon="0.103820">
        <time>2017-06-24T12:31:48Z</time>
      </trkpt>
      <trkpt lat="46.503850" lon="0.104170">
        <time>2017-06-24T12:31:49Z</time>
      </trkpt>
      <trkpt lat="46.504000" lon="0.104550">
        <time>2017-06-24T12:31:50Z</time>
      </trkpt>
      <trkpt lat="46.504170" lon="0.104950">
        <time>2017-06-24T12:31:51Z</time>
      </trkpt>
      <trkpt lat="46.504310" lon="0.105310">
        <time>2017-06-24T12:31:52Z</time>
      </trkpt>
      <trkpt lat="46.504460" lon="0.105700">
        <time>2017-06-24T12:31:53Z</time>
      </trkpt>
      <trkpt lat="46.504620" lon="0.106120">
        <time>2017-06-24T12:31:54Z</time>
      </trkpt>
      <trkpt lat="46.504760" lon="0.106500">
        <time>2017-06-24T12:31:55Z</time>
      </trkpt>
      <trkpt lat="46.504930" lon="0.106930">
        <time>2017-06-24T12:31:56Z</time>
      </trkpt>
      <trkpt lat="46.505060" lon="0.107320">
        <time>2017-06-24T12:31:57Z</time>
      </trkpt>
      <trkpt lat="46.505210" lon="0.107740">
        <time>2017-06-24T12:31:58Z</time>
      </trkpt>
      <trkpt lat="46.505370" lon="0.108180">
        <time>2017-06-24T12:31:59Z</time>
      </trkpt>
      <trkpt lat="46.505510" lon="0.108570">
        <time>2017-06-24T12:32:00Z</time>
      </trkpt>
      <trkpt lat="46.505660" lon="0.108990">
        <time>2017-06-24T12:32:01Z</time>
      </trkpt>
      <trkpt lat="46.505800" lon="0.109420">
        <time>2017-06-24T12:32:02Z</time>
      </trkpt>
      <trkpt lat="46.505940" lon="0.109850">
        <time>2017-06-24T12:32:03Z</time>
      </trkpt>
      <trkpt lat="46.506080" lon="0.110310">
        <time>2017-06-24T12:32:04Z</time>
      </trkpt>
      <trkpt lat="46.506210" lon="0.110720">
        <time>2017-06-24T12:32:05Z</time>
      </trkpt>
      <trkpt lat="46.506340" lon="0.111170">
        <time>2017-06-24T12:32:06Z</time>
      </trkpt>
      <trkpt lat="46.506480" lon="0.111640">
        <time>2017-06-24T12:32:07Z</time>
      </trkpt>
      <trkpt lat="46.506610" lon="0.112050">
        <time>2017-06-24T12:32:08Z</time>
      </trkpt>
      <trkpt lat="46.506730" lon="0.112510">
        <time>2017-06-24T12:32:09Z</time>
      </trkpt>
      <trkpt lat="46.506860" lon="0.112980">
        <time>2017-06-24T12:32:10Z</time>
      </trkpt>
      <trkpt lat="46.506970" lon="0.113400">
        <time>2017-06-24T12:32:11Z</time>
      </trkpt>
      <trkpt lat="46.507100" lon="0.113880">
        <time>2017-06-24T12:32:12Z</time>
      </trkpt>
      <trkpt lat="46.507210" lon="0.114300">
        <time>2017-06-24T12:32:13Z</time>
      </trkpt>
      <trkpt lat="46.507320" lon="0.114760">
        <time>2017-06-24T12:32:14Z</time>
      </trkpt>
      <trkpt lat="46.507440" lon="0.115250">
        <time>2017-06-24T12:32:15Z</time>
      </trkpt>
      <trkpt lat="46.507540" lon="0.115670">
        <time>2017-06-24T12:32:16Z</time>
      </trkpt>
      <trkpt lat="46.507650" lon="0.116130">
        <time>2017-06-24T12:32:17Z</time>
      </trkpt>
      <trkpt lat="46.507760" lon="0.116600">
        <time>2017-06-24T12:32:18Z</time>
      </trkpt>
      <trkpt lat="46.507860" lon="0.117070">
        <time>2017-06-24T12:32:19Z</time>
      </trkpt>
      <trkpt lat="46.507970" lon="0.117560">
        <time>2017-06-24T12:32:20Z</time>
      </trkpt>
      <trkpt lat="46.508060" lon="0.118000">
        <time>2017-06-24T12:32:21Z</time>
      </trkpt>
      <trkpt lat="46.508150" lon="0.118460">
        <time>2017-06-24T12:32:22Z</time>
      </trkpt>
      <trkpt lat="46.508250" lon="0.118950">
        <time>2017-06-24T12:32:23Z</time>
      </trkpt>
      <trkpt lat="46.508330" lon="0.119380">
        <time>2017-06-24T12:32:24Z</time>
      </trkpt>
      <trkpt lat="46.508410" lon="0.119840">
        <time>2017-06-24T12:32:25Z</time>
      </trkpt>
      <trkpt lat="46.508500" lon="0.120320">
        <time>2017-06-24T12:32:26Z</time>
      </trkpt>
      <trkpt lat="46.508570" lon="0.120750">
        <time>2017-06-24T12:32:27Z</time>
      </trkpt>
      <trkpt lat="46.508650" lon="0.121240">
        <time>2017-06-24T12:32:28Z</time>
      </trkpt>
      <trkpt lat="46.508720" lon="0.121670">
        <time>2017-06-24T12:32:29Z</time>
      </trkpt>
      <trkpt lat="46.508790" lon="0.122120">
        <time>2017-06-24T12:32:30Z</time>
      </trkpt>
      <trkpt lat="46.508870" lon="0.122610">
        <time>2017-06-24T12:32:31Z</time>
      </trkpt>
      <trkpt lat="46.508930" lon="0.123040">
        <time>2017-06-24T12:32:32Z</time>
      </trkpt>
      <trkpt lat="46.508990" lon="0.123500">
        <time>2017-06-24T12:32:33Z</time>
      </trkpt>
      <trkpt lat="46.509060" lon="0.123960">
        <time>2017-06-24T12:32:34Z</time>
      </trkpt>
      <trkpt lat="46.509120" lon="0.124420">
        <time>2017-06-24T12:32:35Z</time>
      </trkpt>
      <trkpt lat="46.509180" lon="0.124900">
        <time>2017-06-24T12:32:36Z</time>
      </trkpt>
      <trkpt lat="46.509230" lon="0.125330">
        <time>2017-06-24T12:32:37Z</time>
      </trkpt>
      <trkpt lat="46.509280" lon="0.125790">
        <time>2017-06-24T12:32:38Z</time>
      </trkpt>
      <trkpt lat="46.509330" lon="0.126290">
        <time>2017-06-24T12:32:39Z</time>
      </trkpt>
      <trkpt lat="46.509370" lon="0.126710">
        <time>2017-06-24T12:32:40Z</time>
      </trkpt>
      <trkpt lat="46.509420" lon="0.127160">
        <time>2017-06-24T12:32:41Z</time>
      </trkpt>
      <trkpt lat="46.509470" lon="0.127660">
        <time>2017-06-24T12:32:42Z</time>
      </trkpt>
      <trkpt lat="46.509520" lon="0.128100">
        <time>2017-06-24T12:32:43Z</time>
      </trkpt>
      <trkpt lat="46.509570" lon="0.128600">
        <time>2017-06-24T12:32:44Z</time>
      </trkpt>
      <trkpt lat="46.509620" lon="0.129050">
        <time>2017-06-24T12:32:45Z</time>
      </trkpt>
      <trkpt lat="46.509670" lon="0.129510">
        <time>2017-06-24T12:32:46Z</time>
      </trkpt>
      <trkpt lat="46.509720" lon="0.129990">
        <time>2017-06-24T12:32:47Z</time>
      </trkpt>
      <trkpt lat="46.509760" lon="0.130420">
        <time>2017-06-24T12:32:48Z</time>
      </trkpt>
      <trkpt lat="46.509810" lon="0.130860">
        <time>2017-06-24T12:32:49Z</time>
      </trkpt>
      <trkpt lat="46.509850" lon="0.131310">
        <time>2017-06-24T12:32:50Z</time>
      </trkpt>
      <trkpt lat="46.509890" lon="0.131740">
        <time>2017-06-24T12:32:51Z</time>
      </trkpt>
      <trkpt lat="46.509940" lon="0.132210">
        <time>2017-06-24T12:32:52Z</time>
      </trkpt>
      <trkpt lat="46.509990" lon="0.132620">
        <time>2017-06-24T12:32:53Z</time>
      </trkpt>
      <trkpt lat="46.510030" lon="0.133060">
        <time>2017-06-24T12:32:54Z</time>
      </trkpt>
      <trkpt lat="46.510070" lon="0.133520">
        <time>2017-06-24T12:32:55Z</time>
      </trkpt>
      <trkpt lat="46.510110" lon="0.133930">
        <time>2017-06-24T12:32:56Z</time>
      </trkpt>
      <trkpt lat="46.510160" lon="0.134360">
        <time>2017-06-24T12:32:57Z</time>
      </trkpt>
      <trkpt lat="46.510200" lon="0.134820">
        <time>2017-06-24T12:32:58Z</time>
      </trkpt>
      <trkpt lat="46.510250" lon="0.135220">
        <time>2017-06-24T12:32:59Z</time>
      </trkpt>
      <trkpt lat="46.510300" lon="0.135680">
        <time>2017-06-24T12:33:00Z</time>
      </trkpt>
      <trkpt lat="46.510340" lon="0.136080">
        <time>2017-06-24T12:33:01Z</time>
      </trkpt>
      <trkpt lat="46.510390" lon="0.136510">
        <time>2017-06-24T12:33:02Z</time>
      </trkpt>
      <trkpt lat="46.510440" lon="0.136960">
        <time>2017-06-24T12:33:03Z</time>
      </trkpt>
      <trkpt lat="46.510470" lon="0.137360">
        <time>2017-06-24T12:33:04Z</time>
      </trkpt>
      <trkpt lat="46.510520" lon="0.137780">
        <time>2017-06-24T12:33:05Z</time>
      </trkpt>
      <trkpt lat="46.510560" lon="0.138200">
        <time>2017-06-24T12:33:06Z</time>
      </trkpt>
      <trkpt lat="46.510600" lon="0.138620">
        <time>2017-06-24T12:33:07Z</time>
      </trkpt>
      <trkpt lat="46.510650" lon="0.139070">
        <time>2017-06-24T12:33:08Z</time>
      </trkpt>
      <trkpt lat="46.510680" lon="0.139460">
        <time>2017-06-24T12:33:09Z</time>
      </trkpt>
      <trkpt lat="46.510710" lon="0.139890">
        <time>2017-06-24T12:33:10Z</time>
      </trkpt>
      <trkpt lat="46.510750" lon="0.140330">
        <time>2017-06-24T12:33:11Z</time>
      </trkpt>
      <trkpt lat="46.510780" lon="0.140730">
        <time>2017-06-24T12:33:12Z</time>
      </trkpt>
      <trkpt lat="46.510810" lon="0.141170">
        <time>2017-06-24T12:33:13Z</time>
      </trkpt>
      <trkpt lat="46.510840" lon="0.141620">
        <time>2017-06-24T12:33:14Z</time>
      </trkpt>
      <trkpt lat="46.510860" lon="0.142020">
        <time>2017-06-24T12:33:15Z</time>
      </trkpt>
      <trkpt lat="46.510890" lon="0.142490">
        <time>2017-06-24T12:33:16Z</time>
      </trkpt>
      <trkpt lat="46.510900" lon="0.142900">
        <time>2017-06-24T12:33:17Z</time>
      </trkpt>
      <trkpt lat="46.510920" lon="0.143340">
        <time>2017-06-24T12:33:18Z</time>
      </trkpt>
      <trkpt lat="46.510940" lon="0.143820">
        <time>2017-06-24T12:33:19Z</time>
      </trkpt>
      <trkpt lat="46.510960" lon="0.144240">
        <time>2017-06-24T12:33:20Z</time>
      </trkpt>
      <trkpt lat="46.510980" lon="0.144680">
        <time>2017-06-24T12:33:21Z</time>
      </trkpt>
      <trkpt lat="46.510990" lon="0.145130">
        <time>2017-06-24T12:33:22Z</time>
      </trkpt>
      <trkpt lat="46.511000" lon="0.145590">
        <time>2017-06-24T12:33:23Z</time>
      </trkpt>
      <trkpt lat="46.511020" lon="0.146070">
        <time>2017-06-24T12:33:24Z</time>
      </trkpt>
      <trkpt lat="46.511020" lon="0.146510">
        <time>2017-06-24T12:33:25Z</time>
      </trkpt>
      <trkpt lat="46.511030" lon="0.146970">
        <time>2017-06-24T12:33:26Z</time>
      </trkpt>
      <trkpt lat="46.511030" lon="0.147470">
        <time>2017-06-24T12:33:27Z</time>
      </trkpt>
      <trkpt lat="46.511040" lon="0.147910">
        <time>2017-06-24T12:33:28Z</time>
      </trkpt>
      <trkpt lat="46.511030" lon="0.148390">
        <time>2017-06-24T12:33:29Z</time>
      </trkpt>
      <trkpt lat="46.511030" lon="0.148890">
        <time>2017-06-24T12:33:30Z</time>
      </trkpt>
      <trkpt lat="46.511020" lon="0.149350">
        <time>2017-06-24T12:33:31Z</time>
      </trkpt>
      <trkpt lat="46.511010" lon="0.149860">
        <time>2017-06-24T12:33:32Z</time>
      </trkpt>
      <trkpt lat="46.511000" lon="0.150320">
        <time>2017-06-24T12:33:33Z</time>
      </trkpt>
      <trkpt lat="46.510980" lon="0.150810">
        <time>2017-06-24T12:33:34Z</time>
      </trkpt>
      <trkpt lat="46.510970" lon="0.151330">
        <time>2017-06-24T12:33:35Z</time>
      </trkpt>
      <trkpt lat="46.510950" lon="0.151790">
        <time>2017-06-24T12:33:36Z</time>
      </trkpt>
      <trkpt lat="46.510930" lon="0.152290">
        <time>2017-06-24T12:33:37Z</time>
      </trkpt>
      <trkpt lat="46.510900" lon="0.152780">
        <time>2017-06-24T12:33:38Z</time>
      </trkpt>
      <trkpt lat="46.510870" lon="0.153280">
        <time>2017-06-24T12:33:39Z</time>
      </trkpt>
      <trkpt lat="46.510830" lon="0.153810">
        <time>2017-06-24T12:33:40Z</time>
      </trkpt>
      <trkpt lat="46.510800" lon="0.154280">
        <time>2017-06-24T12:33:41Z</time>
      </trkpt>
      <trkpt lat="46.510760" lon="0.154780">
        <time>2017-06-24T12:33:42Z</time>
      </trkpt>
      <trkpt lat="46.510710" lon="0.155310">
        <time>2017-06-24T12:33:43Z</time>
      </trkpt>
      <trkpt lat="46.510680" lon="0.155770">
        <time>2017-06-24T12:33:44Z</time>
      </trkpt>
      <trkpt lat="46.510640" lon="0.156260">
        <time>2017-06-24T12:33:45Z</time>
      </trkpt>
      <trkpt lat="46.510590" lon="0.156790">
        <time>2017-06-24T12:33:46Z</time>
      </trkpt>
      <trkpt lat="46.510540" lon="0.157250">
        <time>2017-06-24T12:33:47Z</time>
      </trkpt>
      <trkpt lat="46.510490" lon="0.157770">
        <time>2017-06-24T12:33:48Z</time>
      </trkpt>
      <trkpt lat="46.510440" lon="0.158230">
        <time>2017-06-24T12:33:49Z</time>
      </trkpt>
      <trkpt lat="46.510380" lon="0.158710">
        <time>2017-06-24T12:33:50Z</time>
      </trkpt>
      <trkpt lat="46.510320" lon="0.159230">
        <time>2017-06-24T12:33:51Z</time>
      </trkpt>
      <trkpt lat="46.510260" lon="0.159690">
        <time>2017-06-24T12:33:52Z</time>
      </trkpt>
      <trkpt lat="46.510200" lon="0.160180">
        <time>2017-06-24T12:33:53Z</time>
      </trkpt>
      <trkpt lat="46.510140" lon="0.160670">
        <time>2017-06-24T12:33:54Z</time>
      </trkpt>
      <trkpt lat="46.510080" lon="0.161160">
        <time>2017-06-24T12:33:55Z</time>
      </trkpt>
      <trkpt lat="46.510000" lon="0.161670">
        <time>2017-06-24T12:33:56Z</time>
      </trkpt>
      <trkpt lat="46.509950" lon="0.162120">
        <time>2017-06-24T12:33:57Z</time>
      </trkpt>
      <trkpt lat="46.509890" lon="0.162600">
        <time>2017-06-24T12:33:58Z</time>
      </trkpt>
      <trkpt lat="46.509830" lon="0.163110">
        <time>2017-06-24T12:33:59Z</time>
      </trkpt>
      <trkpt lat="46.509780" lon="0.163560">
        <time>2017-06-24T12:34:00Z</time>
      </trkpt>
      <trkpt lat="46.509720" lon="0.164020">
        <time>2017-06-24T12:34:01Z</time>
      </trkpt>
      <trkpt lat="46.509660" lon="0.164510">
        <time>2017-06-24T12:34:02Z</time>
      </trkpt>
      <trkpt lat="46.509600" lon="0.164940">
        <time>2017-06-24T12:34:03Z</time>
      </trkpt>
      <trkpt lat="46.509540" lon="0.165430">
        <time>2017-06-24T12:34:04Z</time>
      </trkpt>
      <trkpt lat="46.509490" lon="0.165870">
        <time>2017-06-24T12:34:05Z</time>
      </trkpt>
      <trkpt lat="46.509420" lon="0.166340">
        <time>2017-06-24T12:34:06Z</time>
      </trkpt>
      <trkpt lat="46.509370" lon="0.166840">
        <time>2017-06-24T12:34:07Z</time>
      </trkpt>
      <trkpt lat="46.509310" lon="0.167280">
        <time>2017-06-24T12:34:08Z</time>
      </trkpt>
      <trkpt lat="46.509260" lon="0.167760">
        <time>2017-06-24T12:34:09Z</time>
      </trkpt>
      <trkpt lat="46.509200" lon="0.168240">
        <time>2017-06-24T12:34:10Z</time>
      </trkpt>
      <trkpt lat="46.509140" lon="0.168720">
        <time>2017-06-24T12:34:11Z</time>
      </trkpt>
      <trkpt lat="46.509070" lon="0.169230">
        <time>2017-06-24T12:34:12Z</time>
      </trkpt>
      <trkpt lat="46.509010" lon="0.169680">
        <time>2017-06-24T12:34:13Z</time>
      </trkpt>
      <trkpt lat="46.508950" lon="0.170160">
        <time>2017-06-24T12:34:14Z</time>
      </trkpt>
      <trkpt lat="46.508890" lon="0.170670">
        <time>2017-06-24T12:34:15Z</time>
      </trkpt>
      <trkpt lat="46.508830" lon="0.171120">
        <time>2017-06-24T12:34:16Z</time>
      </trkpt>
      <trkpt lat="46.508770" lon="0.171600">
        <time>2017-06-24T12:34:17Z</time>
      </trkpt>
      <trkpt lat="46.508710" lon="0.172110">
        <time>2017-06-24T12:34:18Z</time>
      </trkpt>
      <trkpt lat="46.508650" lon="0.172560">
        <time>2017-06-24T12:34:19Z</time>
      </trkpt>
      <trkpt lat="46.508590" lon="0.173070">
        <time>2017-06-24T12:34:20Z</time>
      </trkpt>
      <trkpt lat="46.508530" lon="0.173520">
        <time>2017-06-24T12:34:21Z</time>
      </trkpt>
      <trkpt lat="46.508470" lon="0.174000">
        <time>2017-06-24T12:34:22Z</time>
      </trkpt>
      <trkpt lat="46.508400" lon="0.174500">
        <time>2017-06-24T12:34:23Z</time>
      </trkpt>
      <trkpt lat="46.508350" lon="0.174940">
        <time>2017-06-24T12:34:24Z</time>
      </trkpt>
      <trkpt lat="46.508290" lon="0.175410">
        <time>2017-06-24T12:34:25Z</time>
      </trkpt>
      <trkpt lat="46.508230" lon="0.175880">
        <time>2017-06-24T12:34:26Z</time>
      </trkpt>
      <trkpt lat="46.508170" lon="0.176350">
        <time>2017-06-24T12:34:27Z</time>
      </trkpt>
      <trkpt lat="46.508110" lon="0.176850">
        <time>2017-06-24T12:34:28Z</time>
      </trkpt>
      <trkpt lat="46.508050" lon="0.177290">
        <time>2017-06-24T12:34:29Z</time>
      </trkpt>
      <trkpt lat="46.507990" lon="0.177760">
        <time>2017-06-24T12:34:30Z</time>
      </trkpt>
      <trkpt lat="46.507930" lon="0.178260">
        <time>2017-06-24T12:34:31Z</time>
      </trkpt>
      <trkpt lat="46.507880" lon="0.178710">
        <time>2017-06-24T12:34:32Z</time>
      </trkpt>
      <trkpt lat="46.507820" lon="0.179180">
        <time>2017-06-24T12:34:33Z</time>
      </trkpt>
      <trkpt lat="46.507760" lon="0.179690">
        <time>2017-06-24T12:34:34Z</time>
      </trkpt>
      <trkpt lat="46.507700" lon="0.180140">
        <time>2017-06-24T12:34:35Z</time>
      </trkpt>
      <trkpt lat="46.507640" lon="0.180650">
        <time>2017-06-24T12:34:36Z</time>
      </trkpt>
      <trkpt lat="46.507580" lon="0.181110">
        <time>2017-06-24T12:34:37Z</time>
      </trkpt>
      <trkpt lat="46.507510" lon="0.181600">
        <time>2017-06-24T12:34:38Z</time>
      </trkpt>
      <trkpt lat="46.507450" lon="0.182120">
        <time>2017-06-24T12:34:39Z</time>
      </trkpt>
      <trkpt lat="46.507390" lon="0.182580">
        <time>2017-06-24T12:34:40Z</time>
      </trkpt>
      <trkpt lat="46.507330" lon="0.183070">
        <time>2017-06-24T12:34:41Z</time>
      </trkpt>
      <trkpt lat="46.507280" lon="0.183560">
        <time>2017-06-24T12:34:42Z</time>
      </trkpt>
      <trkpt lat="46.507220" lon="0.184050">
        <time>2017-06-24T12:34:43Z</time>
      </trkpt>
      <trkpt lat="46.507160" lon="0.184560">
        <time>2017-06-24T12:34:44Z</time>
      </trkpt>
      <trkpt lat="46.507110" lon="0.185020">
        <time>2017-06-24T12:34:45Z</time>
      </trkpt>
      <trkpt lat="46.507060" lon="0.185500">
        <time>2017-06-24T12:34:46Z</time>
      </trkpt>
      <trkpt lat="46.506990" lon="0.186010">
        <time>2017-06-24T12:34:47Z</time>
      </trkpt>
      <trkpt lat="46.506930" lon="0.186460">
        <time>2017-06-24T12:34:48Z</time>
      </trkpt>
      <trkpt lat="46.506880" lon="0.186930">
        <time>2017-06-24T12:34:49Z</time>
      </trkpt>
      <trkpt lat="46.506810" lon="0.187430">
        <time>2017-06-24T12:34:50Z</time>
      </trkpt>
      <trkpt lat="46.506750" lon="0.187880">
        <time>2017-06-24T12:34:51Z</time>
      </trkpt>
      <trkpt lat="46.506680" lon="0.188380">
        <time>2017-06-24T12:34:52Z</time>
      </trkpt>
      <trkpt lat="46.506630" lon="0.188830">
        <time>2017-06-24T12:34:53Z</time>
      </trkpt>
      <trkpt lat="46.506560" lon="0.189310">
        <time>2017-06-24T12:34:54Z</time>
      </trkpt>
      <trkpt lat="46.506490" lon="0.189810">
        <time>2017-06-24T12:34:55Z</time>
      </trkpt>
      <trkpt lat="46.506420" lon="0.190240">
        <time>2017-06-24T12:34:56Z</time>
      </trkpt>
      <trkpt lat="46.506360" lon="0.190710">
        <time>2017-06-24T12:34:57Z</time>
      </trkpt>
      <trkpt lat="46.506310" lon="0.191180">
        <time>2017-06-24T12:34:58Z</time>
      </trkpt>
      <trkpt lat="46.506250" lon="0.191660">
        <time>2017-06-24T12:34:59Z</time>
      </trkpt>
      <trkpt lat="46.506200" lon="0.192170">
        <time>2017-06-24T12:35:00Z</time>
      </trkpt>
      <trkpt lat="46.506160" lon="0.192610">
        <time>2017-06-24T12:35:01Z</time>
      </trkpt>
      <trkpt lat="46.506110" lon="0.193090">
        <time>2017-06-24T12:35:02Z</time>
      </trkpt>
      <trkpt lat="46.506070" lon="0.193610">
        <time>2017-06-24T12:35:03Z</time>
      </trkpt>
      <trkpt lat="46.506050" lon="0.194060">
        <time>2017-06-24T12:35:04Z</time>
      </trkpt>
      <trkpt lat="46.506020" lon="0.194540">
        <time>2017-06-24T12:35:05Z</time>
      </trkpt>
      <trkpt lat="46.506000" lon="0.195060">
        <time>2017-06-24T12:35:06Z</time>
      </trkpt>
      <trkpt lat="46.505990" lon="0.195510">
        <time>2017-06-24T12:35:07Z</time>
      </trkpt>
      <trkpt lat="46.505990" lon="0.196020">
        <time>2017-06-24T12:35:08Z</time>
      </trkpt>
      <trkpt lat="46.505990" lon="0.196480">
        <time>2017-06-24T12:35:09Z</time>
      </trkpt>
      <trkpt lat="46.505990" lon="0.196960">
        <time>2017-06-24T12:35:10Z</time>
      </trkpt>
      <trkpt lat="46.506000" lon="0.197480">
        <time>2017-06-24T12:35:11Z</time>
      </trkpt>
      <trkpt lat="46.506020" lon="0.197940">
        <time>2017-06-24T12:35:12Z</time>
      </trkpt>
      <trkpt lat="46.506050" lon="0.198420">
        <time>2017-06-24T12:35:13Z</time>
      </trkpt>
      <trkpt lat="46.506080" lon="0.198900">
        <time>2017-06-24T12:35:14Z</time>
      </trkpt>
      <trkpt lat="46.506110" lon="0.199400">
        <time>2017-06-24T12:35:15Z</time>
      </trkpt>
      <trkpt lat="46.506160" lon="0.199910">
        <time>2017-06-24T12:35:16Z</time>
      </trkpt>
      <trkpt lat="46.506200" lon="0.200360">
        <time>2017-06-24T12:35:17Z</time>
      </trkpt>
      <trkpt lat="46.506260" lon="0.200840">
        <time>2017-06-24T12:35:18Z</time>
      </trkpt>
      <trkpt lat="46.506320" lon="0.201350">
        <time>2017-06-24T12:35:19Z</time>
      </trkpt>
      <trkpt lat="46.506370" lon="0.201790">
        <time>2017-06-24T12:35:20Z</time>
      </trkpt>
      <trkpt lat="46.506440" lon="0.202260">
        <time>2017-06-24T12:35:21Z</time>
      </trkpt>
      <trkpt lat="46.506520" lon="0.202750">
        <time>2017-06-24T12:35:22Z</time>
      </trkpt>
      <trkpt lat="46.506600" lon="0.203190">
        <time>2017-06-24T12:35:23Z</time>
      </trkpt>
      <trkpt lat="46.506700" lon="0.203680">
        <time>2017-06-24T12:35:24Z</time>
      </trkpt>
      <trkpt lat="46.506780" lon="0.204110">
        <time>2017-06-24T12:35:25Z</time>
      </trkpt>
      <trkpt lat="46.506880" lon="0.204570">
        <time>2017-06-24T12:35:26Z</time>
      </trkpt>
      <trkpt lat="46.506990" lon="0.205060">
        <time>2017-06-24T12:35:27Z</time>
      </trkpt>
      <trkpt lat="46.507100" lon="0.205480">
        <time>2017-06-24T12:35:28Z</time>
      </trkpt>
      <trkpt lat="46.507210" lon="0.205940">
        <time>2017-06-24T12:35:29Z</time>
      </trkpt>
      <trkpt lat="46.507340" lon="0.206390">
        <time>2017-06-24T12:35:30Z</time>
      </trkpt>
      <trkpt lat="46.507470" lon="0.206840">
        <time>2017-06-24T12:35:31Z</time>
      </trkpt>
      <trkpt lat="46.507600" lon="0.207310">
        <time>2017-06-24T12:35:32Z</time>
      </trkpt>
      <trkpt lat="46.507730" lon="0.207720">
        <time>2017-06-24T12:35:33Z</time>
      </trkpt>
      <trkpt lat="46.507870" lon="0.208150">
        <time>2017-06-24T12:35:34Z</time>
      </trkpt>
      <trkpt lat="46.508020" lon="0.208600">
        <time>2017-06-24T12:35:35Z</time>
      </trkpt>
      <trkpt lat="46.508160" lon="0.208980">
        <time>2017-06-24T12:35:36Z</time>
      </trkpt>
      <trkpt lat="46.508310" lon="0.209390">
        <time>2017-06-24T12:35:37Z</time>
      </trkpt>
      <trkpt lat="46.508480" lon="0.209820">
        <time>2017-06-24T12:35:38Z</time>
      </trkpt>
      <trkpt lat="46.508620" lon="0.210190">
        <time>2017-06-24T12:35:39Z</time>
      </trkpt>
      <trkpt lat="46.508800" lon="0.210610">
        <time>2017-06-24T12:35:40Z</time>
      </trkpt>
      <trkpt lat="46.508950" lon="0.210970">
        <time>2017-06-24T12:35:41Z</time>
      </trkpt>
      <trkpt lat="46.509120" lon="0.211360">
        <time>2017-06-24T12:35:42Z</time>
      </trkpt>
      <trkpt lat="46.509310" lon="0.211770">
        <time>2017-06-24T12:35:43Z</time>
      </trkpt>
      <trkpt lat="46.509480" lon="0.212130">
        <time>2017-06-24T12:35:44Z</time>
      </trkpt>
      <trkpt lat="46.509670" lon="0.212500">
        <time>2017-06-24T12:35:45Z</time>
      </trkpt>
      <trkpt lat="46.509860" lon="0.212870">
        <time>2017-06-24T12:35:46Z</time>
      </trkpt>
      <trkpt lat="46.510060" lon="0.213240">
        <time>2017-06-24T12:35:47Z</time>
      </trkpt>
      <trkpt lat="46.510280" lon="0.213630">
        <time>2017-06-24T12:35:48Z</time>
      </trkpt>
      <trkpt lat="46.510470" lon="0.213960">
        <time>2017-06-24T12:35:49Z</time>
      </trkpt>
      <trkpt lat="46.510680" lon="0.214310">
        <time>2017-06-24T12:35:50Z</time>
      </trkpt>
      <trkpt lat="46.510900" lon="0.214670">
        <time>2017-06-24T12:35:51Z</time>
      </trkpt>
      <trkpt lat="46.511100" lon="0.214970">
        <time>2017-06-24T12:35:52Z</time>
      </trkpt>
      <trkpt lat="46.511310" lon="0.215290">
        <time>2017-06-24T12:35:53Z</time>
      </trkpt>
      <trkpt lat="46.511540" lon="0.215640">
        <time>2017-06-24T12:35:54Z</time>
      </trkpt>
      <trkpt lat="46.511740" lon="0.215940">
        <time>2017-06-24T12:35:55Z</time>
      </trkpt>
      <trkpt lat="46.511980" lon="0.216260">
        <time>2017-06-24T12:35:56Z</time>
      </trkpt>
      <trkpt lat="46.512190" lon="0.216540">
        <time>2017-06-24T12:35:57Z</time>
      </trkpt>
      <trkpt lat="46.512420" lon="0.216850">
        <time>2017-06-24T12:35:58Z</time>
      </trkpt>
      <trkpt lat="46.512670" lon="0.217170">
        <time>2017-06-24T12:35:59Z</time>
      </trkpt>
      <trkpt lat="46.512900" lon="0.217440">
        <time>2017-06-24T12:36:00Z</time>
      </trkpt>
      <trkpt lat="46.513150" lon="0.217740">
        <time>2017-06-24T12:36:01Z</time>
      </trkpt>
      <trkpt lat="46.513400" lon="0.218020">
        <time>2017-06-24T12:36:02Z</time>
      </trkpt>
      <trkpt lat="46.513660" lon="0.218300">
        <time>2017-06-24T12:36:03Z</time>
      </trkpt>
      <trkpt lat="46.513940" lon="0.218570">
        <time>2017-06-24T12:36:04Z</time>
      </trkpt>
      <trkpt lat="46.514180" lon="0.218830">
        <time>2017-06-24T12:36:05Z</time>
      </trkpt>
      <trkpt lat="46.514450" lon="0.219100">
        <time>2017-06-24T12:36:06Z</time>
      </trkpt>
      <trkpt lat="46.514720" lon="0.219360">
        <time>2017-06-24T12:36:07Z</time>
      </trkpt>
      <trkpt lat="46.514970" lon="0.219590">
        <time>2017-06-24T12:36:08Z</time>
      </trkpt>
      <trkpt lat="46.515240" lon="0.219820">
        <time>2017-06-24T12:36:09Z</time>
      </trkpt>
      <trkpt lat="46.515530" lon="0.220070">
        <time>2017-06-24T12:36:10Z</time>
      </trkpt>
      <trkpt lat="46.515780" lon="0.220270">
        <time>2017-06-24T12:36:11Z</time>
      </trkpt>
      <trkpt lat="46.516070" lon="0.220500">
        <time>2017-06-24T12:36:12Z</time>
      </trkpt>
      <trkpt lat="46.516330" lon="0.220700">
        <time>2017-06-24T12:36:13Z</time>
      </trkpt>
      <trkpt lat="46.516620" lon="0.220900">
        <time>2017-06-24T12:36:14Z</time>
      </trkpt>
      <trkpt lat="46.516910" lon="0.221120">
        <time>2017-06-24T12:36:15Z</time>
      </trkpt>
      <trkpt lat="46.517180" lon="0.221300">
        <time>2017-06-24T12:36:16Z</time>
      </trkpt>
      <trkpt lat="46.517470" lon="0.221480">
        <time>2017-06-24T12:36:17Z</time>
      </trkpt>
      <trkpt lat="46.517770" lon="0.221660">
        <time>2017-06-24T12:36:18Z</time>
      </trkpt>
      <trkpt lat="46.518070" lon="0.221830">
        <time>2017-06-24T12:36:19Z</time>
      </trkpt>
      <trkpt lat="46.518380" lon="0.222010">
        <time>2017-06-24T12:36:20Z</time>
      </trkpt>
      <trkpt lat="46.518670" lon="0.222160">
        <time>2017-06-24T12:36:21Z</time>
      </trkpt>
      <trkpt lat="46.518960" lon="0.222330">
        <time>2017-06-24T12:36:22Z</time>
      </trkpt>
      <trkpt lat="46.519280" lon="0.222490">
        <time>2017-06-24T12:36:23Z</time>
      </trkpt>
      <trkpt lat="46.519560" lon="0.222640">
        <time>2017-06-24T12:36:24Z</time>
      </trkpt>
      <trkpt lat="46.519860" lon="0.222810">
        <time>2017-06-24T12:36:25Z</time>
      </trkpt>
      <trkpt lat="46.520180" lon="0.222980">
        <time>2017-06-24T12:36:26Z</time>
      </trkpt>
      <trkpt lat="46.520460" lon="0.223140">
        <time>2017-06-24T12:36:27Z</time>
      </trkpt>
      <trkpt lat="46.520780" lon="0.223310">
        <time>2017-06-24T12:36:28Z</time>
      </trkpt>
      <trkpt lat="46.521060" lon="0.223470">
        <time>2017-06-24T12:36:29Z</time>
      </trkpt>
      <trkpt lat="46.521370" lon="0.223620">
        <time>2017-06-24T12:36:30Z</time>
      </trkpt>
      <trkpt lat="46.521690" lon="0.223790">
        <time>2017-06-24T12:36:31Z</time>
      </trkpt>
      <trkpt lat="46.521980" lon="0.223940">
        <time>2017-06-24T12:36:32Z</time>
      </trkpt>
      <trkpt lat="46.522280" lon="0.224100">
        <time>2017-06-24T12:36:33Z</time>
      </trkpt>
      <trkpt lat="46.522580" lon="0.224260">
        <time>2017-06-24T12:36:34Z</time>
      </trkpt>
      <trkpt lat="46.522880" lon="0.224430">
        <time>2017-06-24T12:36:35Z</time>
      </trkpt>
      <trkpt lat="46.523200" lon="0.224610">
        <time>2017-06-24T12:36:36Z</time>
      </trkpt>
      <trkpt lat="46.523480" lon="0.224760">
        <time>2017-06-24T12:36:37Z</time>
      </trkpt>
      <trkpt lat="46.523770" lon="0.224940">
        <time>2017-06-24T12:36:38Z</time>
      </trkpt>
      <trkpt lat="46.524080" lon="0.225140">
        <time>2017-06-24T12:36:39Z</time>
      </trkpt>
      <trkpt lat="46.524350" lon="0.225330">
        <time>2017-06-24T12:36:40Z</time>
      </trkpt>
      <trkpt lat="46.524640" lon="0.225530">
        <time>2017-06-24T12:36:41Z</time>
      </trkpt>
      <trkpt lat="46.524940" lon="0.225740">
        <time>2017-06-24T12:36:42Z</time>
      </trkpt>
      <trkpt lat="46.525210" lon="0.225950">
        <time>2017-06-24T12:36:43Z</time>
      </trkpt>
      <trkpt lat="46.525500" lon="0.226190">
        <time>2017-06-24T12:36:44Z</time>
      </trkpt>
      <trkpt lat="46.525760" lon="0.226410">
        <time>2017-06-24T12:36:45Z</time>
      </trkpt>
      <trkpt lat="46.526040" lon="0.226650">
        <time>2017-06-24T12:36:46Z</time>
      </trkpt>
      <trkpt lat="46.526320" lon="0.226890">
        <time>2017-06-24T12:36:47Z</time>
      </trkpt>
      <trkpt lat="46.526570" lon="0.227120">
        <time>2017-06-24T12:36:48Z</time>
      </trkpt>
      <trkpt lat="46.526830" lon="0.227370">
        <time>2017-06-24T12:36:49Z</time>
      </trkpt>
      <trkpt lat="46.527090" lon="0.227630">
        <time>2017-06-24T12:36:50Z</time>
      </trkpt>
      <trkpt lat="46.527340" lon="0.227910">
        <time>2017-06-24T12:36:51Z</time>
      </trkpt>
      <trkpt lat="46.527620" lon="0.228200">
        <time>2017-06-24T12:36:52Z</time>
      </trkpt>
      <trkpt lat="46.527850" lon="0.228460">
        <time>2017-06-24T12:36:53Z</time>
      </trkpt>
      <trkpt lat="46.528110" lon="0.228740">
        <time>2017-06-24T12:36:54Z</time>
      </trkpt>
      <trkpt lat="46.528370" lon="0.229040">
        <time>2017-06-24T12:36:55Z</time>
      </trkpt>
      <trkpt lat="46.528600" lon="0.229320">
        <time>2017-06-24T12:36:56Z</time>
      </trkpt>
      <trkpt lat="46.528850" lon="0.229630">
        <time>2017-06-24T12:36:57Z</time>
      </trkpt>
      <trkpt lat="46.529100" lon="0.229970">
        <time>2017-06-24T12:36:58Z</time>
      </trkpt>
      <trkpt lat="46.529310" lon="0.230280">
        <time>2017-06-24T12:36:59Z</time>
      </trkpt>
      <trkpt lat="46.529550" lon="0.230640">
        <time>2017-06-24T12:37:00Z</time>
      </trkpt>
      <trkpt lat="46.529760" lon="0.230980">
        <time>2017-06-24T12:37:01Z</time>
      </trkpt>
      <trkpt lat="46.529980" lon="0.231330">
        <time>2017-06-24T12:37:02Z</time>
      </trkpt>
      <trkpt lat="46.530200" lon="0.231710">
        <time>2017-06-24T12:37:03Z</time>
      </trkpt>
      <trkpt lat="46.530400" lon="0.232050">
        <time>2017-06-24T12:37:04Z</time>
      </trkpt>
      <trkpt lat="46.530610" lon="0.232420">
        <time>2017-06-24T12:37:05Z</time>
      </trkpt>
      <trkpt lat="46.530810" lon="0.232790">
        <time>2017-06-24T12:37:06Z</time>
      </trkpt>
      <trkpt lat="46.531010" lon="0.233180">
        <time>2017-06-24T12:37:07Z</time>
      </trkpt>
      <trkpt lat="46.531220" lon="0.233590">
        <time>2017-06-24T12:37:08Z</time>
      </trkpt>
      <trkpt lat="46.531410" lon="0.233960">
        <time>2017-06-24T12:37:09Z</time>
      </trkpt>
      <trkpt lat="46.531600" lon="0.234360">
        <time>2017-06-24T12:37:10Z</time>
      </trkpt>
      <trkpt lat="46.531800" lon="0.234790">
        <time>2017-06-24T12:37:11Z</time>
      </trkpt>
      <trkpt lat="46.531980" lon="0.235170">
        <time>2017-06-24T12:37:12Z</time>
      </trkpt>
      <trkpt lat="46.532180" lon="0.235570">
        <time>2017-06-24T12:37:13Z</time>
      </trkpt>
      <trkpt lat="46.532370" lon="0.235990">
        <time>2017-06-24T12:37:14Z</time>
      </trkpt>
      <trkpt lat="46.532540" lon="0.236360">
        <time>2017-06-24T12:37:15Z</time>
      </trkpt>
      <trkpt lat="46.532740" lon="0.236780">
        <time>2017-06-24T12:37:16Z</time>
      </trkpt>
      <trkpt lat="46.532910" lon="0.237150">
        <time>2017-06-24T12:37:17Z</time>
      </trkpt>
      <trkpt lat="46.533100" lon="0.237540">
        <time>2017-06-24T12:37:18Z</time>
      </trkpt>
      <trkpt lat="46.533300" lon="0.237950">
        <time>2017-06-24T12:37:19Z</time>
      </trkpt>
      <trkpt lat="46.533470" lon="0.238320">
        <time>2017-06-24T12:37:20Z</time>
      </trkpt>
      <trkpt lat="46.533660" lon="0.238710">
        <time>2017-06-24T12:37:21Z</time>
      </trkpt>
      <trkpt lat="46.533840" lon="0.239100">
        <time>2017-06-24T12:37:22Z</time>
      </trkpt>
      <trkpt lat="46.534030" lon="0.239480">
        <time>2017-06-24T12:37:23Z</time>
      </trkpt>
      <trkpt lat="46.534240" lon="0.239890">
        <time>2017-06-24T12:37:24Z</time>
      </trkpt>
      <trkpt lat="46.534420" lon="0.240250">
        <time>2017-06-24T12:37:25Z</time>
      </trkpt>
      <trkpt lat="46.534610" lon="0.240630">
        <time>2017-06-24T12:37:26Z</time>
      </trkpt>
      <trkpt lat="46.534820" lon="0.241030">
        <time>2017-06-24T12:37:27Z</time>
      </trkpt>
      <trkpt lat="46.535010" lon="0.241370">
        <time>2017-06-24T12:37:28Z</time>
      </trkpt>
      <trkpt lat="46.535210" lon="0.241740">
        <time>2017-06-24T12:37:29Z</time>
      </trkpt>
      <trkpt lat="46.535420" lon="0.242130">
        <time>2017-06-24T12:37:30Z</time>
      </trkpt>
      <trkpt lat="46.535610" lon="0.242470">
        <time>2017-06-24T12:37:31Z</time>
      </trkpt>
      <trkpt lat="46.535820" lon="0.242850">
        <time>2017-06-24T12:37:32Z</time>
      </trkpt>
      <trkpt lat="46.536010" lon="0.243190">
        <time>2017-06-24T12:37:33Z</time>
      </trkpt>
      <trkpt lat="46.536230" lon="0.243540">
        <time>2017-06-24T12:37:34Z</time>
      </trkpt>
      <trkpt lat="46.536450" lon="0.243920">
        <time>2017-06-24T12:37:35Z</time>
      </trkpt>
      <trkpt lat="46.536640" lon="0.244240">
        <time>2017-06-24T12:37:36Z</time>
      </trkpt>
      <trkpt lat="46.536850" lon="0.244590">
        <time>2017-06-24T12:37:37Z</time>
      </trkpt>
      <trkpt lat="46.537060" lon="0.244920">
        <time>2017-06-24T12:37:38Z</time>
      </trkpt>
      <trkpt lat="46.537270" lon="0.245250">
        <time>2017-06-24T12:37:39Z</time>
      </trkpt>
      <trkpt lat="46.537490" lon="0.245610">
        <time>2017-06-24T12:37:40Z</time>
      </trkpt>
      <trkpt lat="46.537680" lon="0.245920">
        <time>2017-06-24T12:37:41Z</time>
      </trkpt>
      <trkpt lat="46.537890" lon="0.246250">
        <time>2017-06-24T12:37:42Z</time>
      </trkpt>
      <trkpt lat="46.538100" lon="0.246600">
        <time>2017-06-24T12:37:43Z</time>
      </trkpt>
      <trkpt lat="46.538280" lon="0.246900">
        <time>2017-06-24T12:37:44Z</time>
      </trkpt>
      <trkpt lat="46.538480" lon="0.247210">
        <time>2017-06-24T12:37:45Z</time>
      </trkpt>
      <trkpt lat="46.538680" lon="0.247550">
        <time>2017-06-24T12:37:46Z</time>
      </trkpt>
      <trkpt lat="46.538860" lon="0.247850">
        <time>2017-06-24T12:37:47Z</time>
      </trkpt>
      <trkpt lat="46.539050" lon="0.248180">
        <time>2017-06-24T12:37:48Z</time>
      </trkpt>
      <trkpt lat="46.539220" lon="0.248460">
        <time>2017-06-24T12:37:49Z</time>
      </trkpt>
      <trkpt lat="46.539410" lon="0.248760">
        <time>2017-06-24T12:37:50Z</time>
      </trkpt>
      <trkpt lat="46.539600" lon="0.249090">
        <time>2017-06-24T12:37:51Z</time>
      </trkpt>
      <trkpt lat="46.539770" lon="0.249380">
        <time>2017-06-24T12:37:52Z</time>
      </trkpt>
      <trkpt lat="46.539940" lon="0.249690">
        <time>2017-06-24T12:37:53Z</time>
      </trkpt>
      <trkpt lat="46.540120" lon="0.250000">
        <time>2017-06-24T12:37:54Z</time>
      </trkpt>
      <trkpt lat="46.540290" lon="0.250300">
        <time>2017-06-24T12:37:55Z</time>
      </trkpt>
      <trkpt lat="46.540480" lon="0.250620">
        <time>2017-06-24T12:37:56Z</time>
      </trkpt>
      <trkpt lat="46.540650" lon="0.250900">
        <time>2017-06-24T12:37:57Z</time>
      </trkpt>
      <trkpt lat="46.540830" lon="0.251200">
        <time>2017-06-24T12:37:58Z</time>
      </trkpt>
      <trkpt lat="46.541020" lon="0.251510">
        <time>2017-06-24T12:37:59Z</time>
      </trkpt>
      <trkpt lat="46.541190" lon="0.251790">
        <time>2017-06-24T12:38:00Z</time>
      </trkpt>
      <trkpt lat="46.541360" lon="0.252090">
        <time>2017-06-24T12:38:01Z</time>
      </trkpt>
      <trkpt lat="46.541550" lon="0.252400">
        <time>2017-06-24T12:38:02Z</time>
      </trkpt>
      <trkpt lat="46.541720" lon="0.252670">
        <time>2017-06-24T12:38:03Z</time>
      </trkpt>
      <trkpt lat="46.541910" lon="0.252990">
        <time>2017-06-24T12:38:04Z</time>
      </trkpt>
      <trkpt lat="46.542080" lon="0.253270">
        <time>2017-06-24T12:38:05Z</time>
      </trkpt>
      <trkpt lat="46.542270" lon="0.253580">
        <time>2017-06-24T12:38:06Z</time>
      </trkpt>
      <trkpt lat="46.542470" lon="0.253910">
        <time>2017-06-24T12:38:07Z</time>
      </trkpt>
      <trkpt lat="46.542650" lon="0.254210">
        <time>2017-06-24T12:38:08Z</time>
      </trkpt>
      <trkpt lat="46.542830" lon="0.254530">
        <time>2017-06-24T12:38:09Z</time>
      </trkpt>
      <trkpt lat="46.543020" lon="0.254840">
        <time>2017-06-24T12:38:10Z</time>
      </trkpt>
      <trkpt lat="46.543220" lon="0.255160">
        <time>2017-06-24T12:38:11Z</time>
      </trkpt>
      <trkpt lat="46.543430" lon="0.255510">
        <time>2017-06-24T12:38:12Z</time>
      </trkpt>
      <trkpt lat="46.543610" lon="0.255810">
        <time>2017-06-24T12:38:13Z</time>
      </trkpt>
      <trkpt lat="46.543810" lon="0.256140">
        <time>2017-06-24T12:38:14Z</time>
      </trkpt>
      <trkpt lat="46.544020" lon="0.256500">
        <time>2017-06-24T12:38:15Z</time>
      </trkpt>
      <trkpt lat="46.544210" lon="0.256810">
        <time>2017-06-24T12:38:16Z</time>
      </trkpt>
      <trkpt lat="46.544400" lon="0.257150">
        <time>2017-06-24T12:38:17Z</time>
      </trkpt>
      <trkpt lat="46.544610" lon="0.257520">
        <time>2017-06-24T12:38:18Z</time>
      </trkpt>
      <trkpt lat="46.544780" lon="0.257850">
        <time>2017-06-24T12:38:19Z</time>
      </trkpt>
      <trkpt lat="46.544980" lon="0.258240">
        <time>2017-06-24T12:38:20Z</time>
      </trkpt>
      <trkpt lat="46.545140" lon="0.258580">
        <time>2017-06-24T12:38:21Z</time>
      </trkpt>
      <trkpt lat="46.545320" lon="0.258960">
        <time>2017-06-24T12:38:22Z</time>
      </trkpt>
      <trkpt lat="46.545510" lon="0.259360">
        <time>2017-06-24T12:38:23Z</time>
      </trkpt>
      <trkpt lat="46.545670" lon="0.259730">
        <time>2017-06-24T12:38:24Z</time>
      </trkpt>
      <trkpt lat="46.545830" lon="0.260130">
        <time>2017-06-24T12:38:25Z</time>
      </trkpt>
      <trkpt lat="46.545990" lon="0.260530">
        <time>2017-06-24T12:38:26Z</time>
      </trkpt>
      <trkpt lat="46.546140" lon="0.260940">
        <time>2017-06-24T12:38:27Z</time>
      </trkpt>
      <trkpt lat="46.546300" lon="0.261380">
        <time>2017-06-24T12:38:28Z</time>
      </trkpt>
      <trkpt lat="46.546430" lon="0.261780">
        <time>2017-06-24T12:38:29Z</time>
      </trkpt>
      <trkpt lat="46.546550" lon="0.262210">
        <time>2017-06-24T12:38:30Z</time>
      </trkpt>
      <trkpt lat="46.546690" lon="0.262670">
        <time>2017-06-24T12:38:31Z</time>
      </trkpt>
      <trkpt lat="46.546800" lon="0.263090">
        <time>2017-06-24T12:38:32Z</time>
      </trkpt>
      <trkpt lat="46.546910" lon="0.263530">
        <time>2017-06-24T12:38:33Z</time>
      </trkpt>
      <trkpt lat="46.547020" lon="0.264010">
        <time>2017-06-24T12:38:34Z</time>
      </trkpt>
      <trkpt lat="46.547110" lon="0.264430">
        <time>2017-06-24T12:38:35Z</time>
      </trkpt>
      <trkpt lat="46.547210" lon="0.264900">
        <time>2017-06-24T12:38:36Z</time>
      </trkpt>
      <trkpt lat="46.547290" lon="0.265320">
        <time>2017-06-24T12:38:37Z</time>
      </trkpt>
      <trkpt lat="46.547380" lon="0.265760">
        <time>2017-06-24T12:38:38Z</time>
      </trkpt>
      <trkpt lat="46.547460" lon="0.266220">
        <time>2017-06-24T12:38:39Z</time>
      </trkpt>
      <trkpt lat="46.547540" lon="0.266630">
        <time>2017-06-24T12:38:40Z</time>
      </trkpt>
      <trkpt lat="46.547620" lon="0.267060">
        <time>2017-06-24T12:38:41Z</time>
      </trkpt>
      <trkpt lat="46.547690" lon="0.267490">
        <time>2017-06-24T12:38:42Z</time>
      </trkpt>
      <trkpt lat="46.547770" lon="0.267920">
        <time>2017-06-24T12:38:43Z</time>
      </trkpt>
      <trkpt lat="46.547850" lon="0.268370">
        <time>2017-06-24T12:38:44Z</time>
      </trkpt>
      <trkpt lat="46.547920" lon="0.268770">
        <time>2017-06-24T12:38:45Z</time>
      </trkpt>
      <trkpt lat="46.547990" lon="0.269180">
        <time>2017-06-24T12:38:46Z</time>
      </trkpt>
      <trkpt lat="46.548070" lon="0.269620">
        <time>2017-06-24T12:38:47Z</time>
      </trkpt>
      <trkpt lat="46.548140" lon="0.270000">
        <time>2017-06-24T12:38:48Z</time>
      </trkpt>
      <trkpt lat="46.548220" lon="0.270410">
        <time>2017-06-24T12:38:49Z</time>
      </trkpt>
      <trkpt lat="46.548300" lon="0.270850">
        <time>2017-06-24T12:38:50Z</time>
      </trkpt>
      <trkpt lat="46.548380" lon="0.271240">
        <time>2017-06-24T12:38:51Z</time>
      </trkpt>
      <trkpt lat="46.548470" lon="0.271680">
        <time>2017-06-24T12:38:52Z</time>
      </trkpt>
      <trkpt lat="46.548550" lon="0.272060">
        <time>2017-06-24T12:38:53Z</time>
      </trkpt>
      <trkpt lat="46.548640" lon="0.272450">
        <time>2017-06-24T12:38:54Z</time>
      </trkpt>
      <trkpt lat="46.548740" lon="0.272870">
        <time>2017-06-24T12:38:55Z</time>
      </trkpt>
      <trkpt lat="46.548820" lon="0.273230">
        <time>2017-06-24T12:38:56Z</time>
      </trkpt>
      <trkpt lat="46.548920" lon="0.273600">
        <time>2017-06-24T12:38:57Z</time>
      </trkpt>
      <trkpt lat="46.549030" lon="0.273980">
        <time>2017-06-24T12:38:58Z</time>
      </trkpt>
      <trkpt lat="46.549150" lon="0.274350">
        <time>2017-06-24T12:38:59Z</time>
      </trkpt>
      <trkpt lat="46.549280" lon="0.274740">
        <time>2017-06-24T12:39:00Z</time>
      </trkpt>
      <trkpt lat="46.549390" lon="0.275070">
        <time>2017-06-24T12:39:01Z</time>
      </trkpt>
      <trkpt lat="46.549520" lon="0.275420">
        <time>2017-06-24T12:39:02Z</time>
      </trkpt>
      <trkpt lat="46.549670" lon="0.275790">
        <time>2017-06-24T12:39:03Z</time>
      </trkpt>
      <trkpt lat="46.549810" lon="0.276130">
        <time>2017-06-24T12:39:04Z</time>
      </trkpt>
      <trkpt lat="46.549970" lon="0.276490">
        <time>2017-06-24T12:39:05Z</time>
      </trkpt>
      <trkpt lat="46.550140" lon="0.276860">
        <time>2017-06-24T12:39:06Z</time>
      </trkpt>
      <trkpt lat="46.550290" lon="0.277190">
        <time>2017-06-24T12:39:07Z</time>
      </trkpt>
      <trkpt lat="46.550460" lon="0.277560">
        <time>2017-06-24T12:39:08Z</time>
      </trkpt>
      <trkpt lat="46.550630" lon="0.277890">
        <time>2017-06-24T12:39:09Z</time>
      </trkpt>
      <trkpt lat="46.550810" lon="0.278240">
        <time>2017-06-24T12:39:10Z</time>
      </trkpt>
      <trkpt lat="46.551000" lon="0.278600">
        <time>2017-06-24T12:39:11Z</time>
      </trkpt>
      <trkpt lat="46.551180" lon="0.278910">
        <time>2017-06-24T12:39:12Z</time>
      </trkpt>
      <trkpt lat="46.551370" lon="0.279230">
        <time>2017-06-24T12:39:13Z</time>
      </trkpt>
      <trkpt lat="46.551570" lon="0.279540">
        <time>2017-06-24T12:39:14Z</time>
      </trkpt>
      <trkpt lat="46.551780" lon="0.279860">
        <time>2017-06-24T12:39:15Z</time>
      </trkpt>
      <trkpt lat="46.552010" lon="0.280190">
        <time>2017-06-24T12:39:16Z</time>
      </trkpt>
      <trkpt lat="46.552210" lon="0.280480">
        <time>2017-06-24T12:39:17Z</time>
      </trkpt>
      <trkpt lat="46.552440" lon="0.280790">
        <time>2017-06-24T12:39:18Z</time>
      </trkpt>
      <trkpt lat="46.552690" lon="0.281100">
        <time>2017-06-24T12:39:19Z</time>
      </trkpt>
      <trkpt lat="46.552910" lon="0.281390">
        <time>2017-06-24T12:39:20Z</time>
      </trkpt>
      <trkpt lat="46.553150" lon="0.281690">
        <time>2017-06-24T12:39:21Z</time>
      </trkpt>
      <trkpt lat="46.553410" lon="0.282000">
        <time>2017-06-24T12:39:22Z</time>
      </trkpt>
      <trkpt lat="46.553640" lon="0.282260">
        <time>2017-06-24T12:39:23Z</time>
      </trkpt>
      <trkpt lat="46.553920" lon="0.282540">
        <time>2017-06-24T12:39:24Z</time>
      </trkpt>
      <trkpt lat="46.554150" lon="0.282760">
        <time>2017-06-24T12:39:25Z</time>
      </trkpt>
      <trkpt lat="46.554400" lon="0.282980">
        <time>2017-06-24T12:39:26Z</time>
      </trkpt>
      <trkpt lat="46.554670" lon="0.283220">
        <time>2017-06-24T12:39:27Z</time>
      </trkpt>
      <trkpt lat="46.554900" lon="0.283410">
        <time>2017-06-24T12:39:28Z</time>
      </trkpt>
      <trkpt lat="46.555150" lon="0.283610">
        <time>2017-06-24T12:39:29Z</time>
      </trkpt>
      <trkpt lat="46.555410" lon="0.283810">
        <time>2017-06-24T12:39:30Z</time>
      </trkpt>
      <trkpt lat="46.555670" lon="0.283980">
        <time>2017-06-24T12:39:31Z</time>
      </trkpt>
      <trkpt lat="46.555940" lon="0.284170">
        <time>2017-06-24T12:39:32Z</time>
      </trkpt>
      <trkpt lat="46.556180" lon="0.284330">
        <time>2017-06-24T12:39:33Z</time>
      </trkpt>
      <trkpt lat="46.556440" lon="0.284480">
        <time>2017-06-24T12:39:34Z</time>
      </trkpt>
      <trkpt lat="46.556710" lon="0.284640">
        <time>2017-06-24T12:39:35Z</time>
      </trkpt>
      <trkpt lat="46.556950" lon="0.284780">
        <time>2017-06-24T12:39:36Z</time>
      </trkpt>
      <trkpt lat="46.557220" lon="0.284900">
        <time>2017-06-24T12:39:37Z</time>
      </trkpt>
      <trkpt lat="46.557510" lon="0.285040">
        <time>2017-06-24T12:39:38Z</time>
      </trkpt>
      <trkpt lat="46.557760" lon="0.285160">
        <time>2017-06-24T12:39:39Z</time>
      </trkpt>
      <trkpt lat="46.558060" lon="0.285280">
        <time>2017-06-24T12:39:40Z</time>
      </trkpt>
      <trkpt lat="46.558320" lon="0.285390">
        <time>2017-06-24T12:39:41Z</time>
      </trkpt>
      <trkpt lat="46.558610" lon="0.285500">
        <time>2017-06-24T12:39:42Z</time>
      </trkpt>
      <trkpt lat="46.558920" lon="0.285620">
        <time>2017-06-24T12:39:43Z</time>
      </trkpt>
      <trkpt lat="46.559190" lon="0.285710">
        <time>2017-06-24T12:39:44Z</time>
      </trkpt>
      <trkpt lat="46.559490" lon="0.285820">
        <time>2017-06-24T12:39:45Z</time>
      </trkpt>
      <trkpt lat="46.559780" lon="0.285920">
        <time>2017-06-24T12:39:46Z</time>
      </trkpt>
      <trkpt lat="46.560060" lon="0.286010">
        <time>2017-06-24T12:39:47Z</time>
      </trkpt>
      <trkpt lat="46.560350" lon="0.286120">
        <time>2017-06-24T12:39:48Z</time>
      </trkpt>
      <trkpt lat="46.560620" lon="0.286200">
        <time>2017-06-24T12:39:49Z</time>
      </trkpt>
      <trkpt lat="46.560890" lon="0.286290">
        <time>2017-06-24T12:39:50Z</time>
      </trkpt>
      <trkpt lat="46.561180" lon="0.286390">
        <time>2017-06-24T12:39:51Z</time>
      </trkpt>
      <trkpt lat="46.561440" lon="0.286470">
        <time>2017-06-24T12:39:52Z</time>
      </trkpt>
      <trkpt lat="46.561710" lon="0.286550">
        <time>2017-06-24T12:39:53Z</time>
      </trkpt>
      <trkpt lat="46.562010" lon="0.286640">
        <time>2017-06-24T12:39:54Z</time>
      </trkpt>
      <trkpt lat="46.562260" lon="0.286730">
        <time>2017-06-24T12:39:55Z</time>
      </trkpt>
      <trkpt lat="46.562550" lon="0.286810">
        <time>2017-06-24T12:39:56Z</time>
      </trkpt>
      <trkpt lat="46.562810" lon="0.286880">
        <time>2017-06-24T12:39:57Z</time>
      </trkpt>
      <trkpt lat="46.563080" lon="0.286960">
        <time>2017-06-24T12:39:58Z</time>
      </trkpt>
      <trkpt lat="46.563370" lon="0.287040">
        <time>2017-06-24T12:39:59Z</time>
      </trkpt>
      <trkpt lat="46.563610" lon="0.287100">
        <time>2017-06-24T12:40:00Z</time>
      </trkpt>
      <trkpt lat="46.563870" lon="0.287170">
        <time>2017-06-24T12:40:01Z</time>
      </trkpt>
      <trkpt lat="46.564130" lon="0.287250">
        <time>2017-06-24T12:40:02Z</time>
      </trkpt>
      <trkpt lat="46.564380" lon="0.287320">
        <time>2017-06-24T12:40:03Z</time>
      </trkpt>
      <trkpt lat="46.564660" lon="0.287390">
        <time>2017-06-24T12:40:04Z</time>
      </trkpt>
      <trkpt lat="46.564890" lon="0.287460">
        <time>2017-06-24T12:40:05Z</time>
      </trkpt>
      <trkpt lat="46.565150" lon="0.287520">
        <time>2017-06-24T12:40:06Z</time>
      </trkpt>
      <trkpt lat="46.565430" lon="0.287590">
        <time>2017-06-24T12:40:07Z</time>
      </trkpt>
      <trkpt lat="46.565670" lon="0.287650">
        <time>2017-06-24T12:40:08Z</time>
      </trkpt>
      <trkpt lat="46.565940" lon="0.287710">
        <time>2017-06-24T12:40:09Z</time>
      </trkpt>
      <trkpt lat="46.566220" lon="0.287770">
        <time>2017-06-24T12:40:10Z</time>
      </trkpt>
      <trkpt lat="46.566480" lon="0.287820">
        <time>2017-06-24T12:40:11Z</time>
      </trkpt>
      <trkpt lat="46.566770" lon="0.287890">
        <time>2017-06-24T12:40:12Z</time>
      </trkpt>
      <trkpt lat="46.567020" lon="0.287940">
        <time>2017-06-24T12:40:13Z</time>
      </trkpt>
      <trkpt lat="46.567280" lon="0.288010">
        <time>2017-06-24T12:40:14Z</time>
      </trkpt>
      <trkpt lat="46.567560" lon="0.288080">
        <time>2017-06-24T12:40:15Z</time>
      </trkpt>
      <trkpt lat="46.567800" lon="0.288140">
        <time>2017-06-24T12:40:16Z</time>
      </trkpt>
      <trkpt lat="46.568060" lon="0.288200">
        <time>2017-06-24T12:40:17Z</time>
      </trkpt>
      <trkpt lat="46.568330" lon="0.288270">
        <time>2017-06-24T12:40:18Z</time>
      </trkpt>
      <trkpt lat="46.568590" lon="0.288340">
        <time>2017-06-24T12:40:19Z</time>
      </trkpt>
      <trkpt lat="46.568870" lon="0.288420">
        <time>2017-06-24T12:40:20Z</time>
      </trkpt>
      <trkpt lat="46.569110" lon="0.288500">
        <time>2017-06-24T12:40:21Z</time>
      </trkpt>
      <trkpt lat="46.569360" lon="0.288580">
        <time>2017-06-24T12:40:22Z</time>
      </trkpt>
      <trkpt lat="46.569620" lon="0.288660">
        <time>2017-06-24T12:40:23Z</time>
      </trkpt>
      <trkpt lat="46.569850" lon="0.288730">
        <time>2017-06-24T12:40:24Z</time>
      </trkpt>
      <trkpt lat="46.570110" lon="0.288790">
        <time>2017-06-24T12:40:25Z</time>
      </trkpt>
      <trkpt lat="46.570380" lon="0.288870">
        <time>2017-06-24T12:40:26Z</time>
      </trkpt>
      <trkpt lat="46.570620" lon="0.288930">
        <time>2017-06-24T12:40:27Z</time>
      </trkpt>
      <trkpt lat="46.570880" lon="0.289010">
        <time>2017-06-24T12:40:28Z</time>
      </trkpt>
      <trkpt lat="46.571110" lon="0.289060">
        <time>2017-06-24T12:40:29Z</time>
      </trkpt>
      <trkpt lat="46.571350" lon="0.289130">
        <time>2017-06-24T12:40:30Z</time>
      </trkpt>
      <trkpt lat="46.571600" lon="0.289190">
        <time>2017-06-24T12:40:31Z</time>
      </trkpt>
      <trkpt lat="46.571820" lon="0.289250">
        <time>2017-06-24T12:40:32Z</time>
      </trkpt>
      <trkpt lat="46.572050" lon="0.289310">
        <time>2017-06-24T12:40:33Z</time>
      </trkpt>
      <trkpt lat="46.572290" lon="0.289380">
        <time>2017-06-24T12:40:34Z</time>
      </trkpt>
      <trkpt lat="46.572530" lon="0.289440">
        <time>2017-06-24T12:40:35Z</time>
      </trkpt>
      <trkpt lat="46.572780" lon="0.289510">
        <time>2017-06-24T12:40:36Z</time>
      </trkpt>
      <trkpt lat="46.573010" lon="0.289570">
        <time>2017-06-24T12:40:37Z</time>
      </trkpt>
      <trkpt lat="46.573240" lon="0.289630">
        <time>2017-06-24T12:40:38Z</time>
      </trkpt>
      <trkpt lat="46.573490" lon="0.289690">
        <time>2017-06-24T12:40:39Z</time>
      </trkpt>
      <trkpt lat="46.573720" lon="0.289750">
        <time>2017-06-24T12:40:40Z</time>
      </trkpt>
      <trkpt lat="46.573940" lon="0.289800">
        <time>2017-06-24T12:40:41Z</time>
      </trkpt>
      <trkpt lat="46.574170" lon="0.289860">
        <time>2017-06-24T12:40:42Z</time>
      </trkpt>
      <trkpt lat="46.574380" lon="0.289920">
        <time>2017-06-24T12:40:43Z</time>
      </trkpt>
      <trkpt lat="46.574620" lon="0.289980">
        <time>2017-06-24T12:40:44Z</time>
      </trkpt>
      <trkpt lat="46.574830" lon="0.290040">
        <time>2017-06-24T12:40:45Z</time>
      </trkpt>
      <trkpt lat="46.575050" lon="0.290100">
        <time>2017-06-24T12:40:46Z</time>
      </trkpt>
      <trkpt lat="46.575300" lon="0.290160">
        <time>2017-06-24T12:40:47Z</time>
      </trkpt>
      <trkpt lat="46.575520" lon="0.290220">
        <time>2017-06-24T12:40:48Z</time>
      </trkpt>
      <trkpt lat="46.575740" lon="0.290280">
        <time>2017-06-24T12:40:49Z</time>
      </trkpt>
      <trkpt lat="46.575970" lon="0.290340">
        <time>2017-06-24T12:40:50Z</time>
      </trkpt>
      <trkpt lat="46.576200" lon="0.290400">
        <time>2017-06-24T12:40:51Z</time>
      </trkpt>
      <trkpt lat="46.576450" lon="0.290470">
        <time>2017-06-24T12:40:52Z</time>
      </trkpt>
      <trkpt lat="46.576660" lon="0.290540">
        <time>2017-06-24T12:40:53Z</time>
      </trkpt>
      <trkpt lat="46.576880" lon="0.290620">
        <time>2017-06-24T12:40:54Z</time>
      </trkpt>
      <trkpt lat="46.577120" lon="0.290700">
        <time>2017-06-24T12:40:55Z</time>
      </trkpt>
      <trkpt lat="46.577330" lon="0.290770">
        <time>2017-06-24T12:40:56Z</time>
      </trkpt>
      <trkpt lat="46.577560" lon="0.290850">
        <time>2017-06-24T12:40:57Z</time>
      </trkpt>
      <trkpt lat="46.577800" lon="0.290930">
        <time>2017-06-24T12:40:58Z</time>
      </trkpt>
      <trkpt lat="46.578010" lon="0.291010">
        <time>2017-06-24T12:40:59Z</time>
      </trkpt>
      <trkpt lat="46.578240" lon="0.291090">
        <time>2017-06-24T12:41:00Z</time>
      </trkpt>
      <trkpt lat="46.578450" lon="0.291180">
        <time>2017-06-24T12:41:01Z</time>
      </trkpt>
      <trkpt lat="46.578670" lon="0.291270">
        <time>2017-06-24T12:41:02Z</time>
      </trkpt>
      <trkpt lat="46.578900" lon="0.291380">
        <time>2017-06-24T12:41:03Z</time>
      </trkpt>
      <trkpt lat="46.579100" lon="0.291470">
        <time>2017-06-24T12:41:04Z</time>
      </trkpt>
      <trkpt lat="46.579310" lon="0.291570">
        <time>2017-06-24T12:41:05Z</time>
      </trkpt>
      <trkpt lat="46.579520" lon="0.291690">
        <time>2017-06-24T12:41:06Z</time>
      </trkpt>
      <trkpt lat="46.579730" lon="0.291800">
        <time>2017-06-24T12:41:07Z</time>
      </trkpt>
      <trkpt lat="46.579950" lon="0.291920">
        <time>2017-06-24T12:41:08Z</time>
      </trkpt>
      <trkpt lat="46.580150" lon="0.292020">
        <time>2017-06-24T12:41:09Z</time>
      </trkpt>
      <trkpt lat="46.580360" lon="0.292130">
        <time>2017-06-24T12:41:10Z</time>
      </trkpt>
      <trkpt lat="46.580580" lon="0.292260">
        <time>2017-06-24T12:41:11Z</time>
      </trkpt>
      <trkpt lat="46.580780" lon="0.292370">
        <time>2017-06-24T12:41:12Z</time>
      </trkpt>
      <trkpt lat="46.580990" lon="0.292500">
        <time>2017-06-24T12:41:13Z</time>
      </trkpt>
      <trkpt lat="46.581210" lon="0.292630">
        <time>2017-06-24T12:41:14Z</time>
      </trkpt>
      <trkpt lat="46.581400" lon="0.292760">
        <time>2017-06-24T12:41:15Z</time>
      </trkpt>
      <trkpt lat="46.581620" lon="0.292900">
        <time>2017-06-24T12:41:16Z</time>
      </trkpt>
      <trkpt lat="46.581800" lon="0.293020">
        <time>2017-06-24T12:41:17Z</time>
      </trkpt>
      <trkpt lat="46.582000" lon="0.293150">
        <time>2017-06-24T12:41:18Z</time>
      </trkpt>
      <trkpt lat="46.582210" lon="0.293310">
        <time>2017-06-24T12:41:19Z</time>
      </trkpt>
      <trkpt lat="46.582390" lon="0.293430">
        <time>2017-06-24T12:41:20Z</time>
      </trkpt>
      <trkpt lat="46.582580" lon="0.293570">
        <time>2017-06-24T12:41:21Z</time>
      </trkpt>
      <trkpt lat="46.582770" lon="0.293710">
        <time>2017-06-24T12:41:22Z</time>
      </trkpt>
      <trkpt lat="46.582960" lon="0.293860">
        <time>2017-06-24T12:41:23Z</time>
      </trkpt>
      <trkpt lat="46.583170" lon="0.294020">
        <time>2017-06-24T12:41:24Z</time>
      </trkpt>
      <trkpt lat="46.583350" lon="0.294170">
        <time>2017-06-24T12:41:25Z</time>
      </trkpt>
      <trkpt lat="46.583550" lon="0.294320">
        <time>2017-06-24T12:41:26Z</time>
      </trkpt>
      <trkpt lat="46.583760" lon="0.294490">
        <time>2017-06-24T12:41:27Z</time>
      </trkpt>
      <trkpt lat="46.583940" lon="0.294640">
        <time>2017-06-24T12:41:28Z</time>
      </trkpt>
      <trkpt lat="46.584140" lon="0.294800">
        <time>2017-06-24T12:41:29Z</time>
      </trkpt>
      <trkpt lat="46.584350" lon="0.294970">
        <time>2017-06-24T12:41:30Z</time>
      </trkpt>
      <trkpt lat="46.584530" lon="0.295130">
        <time>2017-06-24T12:41:31Z</time>
      </trkpt>
      <trkpt lat="46.584740" lon="0.295310">
        <time>2017-06-24T12:41:32Z</time>
      </trkpt>
      <trkpt lat="46.584930" lon="0.295470">
        <time>2017-06-24T12:41:33Z</time>
      </trkpt>
      <trkpt lat="46.585130" lon="0.295650">
        <time>2017-06-24T12:41:34Z</time>
      </trkpt>
      <trkpt lat="46.585340" lon="0.295840">
        <time>2017-06-24T12:41:35Z</time>
      </trkpt>
      <trkpt lat="46.585520" lon="0.296000">
        <time>2017-06-24T12:41:36Z</time>
      </trkpt>
      <trkpt lat="46.585710" lon="0.296180">
        <time>2017-06-24T12:41:37Z</time>
      </trkpt>
      <trkpt lat="46.585910" lon="0.296360">
        <time>2017-06-24T12:41:38Z</time>
      </trkpt>
      <trkpt lat="46.586100" lon="0.296540">
        <time>2017-06-24T12:41:39Z</time>
      </trkpt>
      <trkpt lat="46.586310" lon="0.296730">
        <time>2017-06-24T12:41:40Z</time>
      </trkpt>
      <trkpt lat="46.586490" lon="0.296900">
        <time>2017-06-24T12:41:41Z</time>
      </trkpt>
      <trkpt lat="46.586680" lon="0.297080">
        <time>2017-06-24T12:41:42Z</time>
      </trkpt>
      <trkpt lat="46.586880" lon="0.297280">
        <time>2017-06-24T12:41:43Z</time>
      </trkpt>
      <trkpt lat="46.587050" lon="0.297440">
        <time>2017-06-24T12:41:44Z</time>
      </trkpt>
      <trkpt lat="46.587230" lon="0.297620">
        <time>2017-06-24T12:41:45Z</time>
      </trkpt>
      <trkpt lat="46.587430" lon="0.297820">
        <time>2017-06-24T12:41:46Z</time>
      </trkpt>
      <trkpt lat="46.587600" lon="0.297990">
        <time>2017-06-24T12:41:47Z</time>
      </trkpt>
      <trkpt lat="46.587810" lon="0.298190">
        <time>2017-06-24T12:41:48Z</time>
      </trkpt>
      <trkpt lat="46.587990" lon="0.298360">
        <time>2017-06-24T12:41:49Z</time>
      </trkpt>
      <trkpt lat="46.588170" lon="0.298560">
        <time>2017-06-24T12:41:50Z</time>
      </trkpt>
      <trkpt lat="46.588380" lon="0.298760">
        <time>2017-06-24T12:41:51Z</time>
      </trkpt>
      <trkpt lat="46.588550" lon="0.298940">
        <time>2017-06-24T12:41:52Z</time>
      </trkpt>
      <trkpt lat="46.588750" lon="0.299130">
        <time>2017-06-24T12:41:53Z</time>
      </trkpt>
      <trkpt lat="46.588940" lon="0.299320">
        <time>2017-06-24T12:41:54Z</time>
      </trkpt>
      <trkpt lat="46.589130" lon="0.299510">
        <time>2017-06-24T12:41:55Z</time>
      </trkpt>
      <trkpt lat="46.589330" lon="0.299720">
        <time>2017-06-24T12:41:56Z</time>
      </trkpt>
      <trkpt lat="46.589510" lon="0.299900">
        <time>2017-06-24T12:41:57Z</time>
      </trkpt>
      <trkpt lat="46.589700" lon="0.300100">
        <time>2017-06-24T12:41:58Z</time>
      </trkpt>
      <trkpt lat="46.589910" lon="0.300300">
        <time>2017-06-24T12:41:59Z</time>
      </trkpt>
      <trkpt lat="46.590090" lon="0.300490">
        <time>2017-06-24T12:42:00Z</time>
      </trkpt>
      <trkpt lat="46.590280" lon="0.300690">
        <time>2017-06-24T12:42:01Z</time>
      </trkpt>
      <trkpt lat="46.590500" lon="0.300910">
        <time>2017-06-24T12:42:02Z</time>
      </trkpt>
      <trkpt lat="46.590690" lon="0.301100">
        <time>2017-06-24T12:42:03Z</time>
      </trkpt>
      <trkpt lat="46.590900" lon="0.301330">
        <time>2017-06-24T12:42:04Z</time>
      </trkpt>
      <trkpt lat="46.591090" lon="0.301520">
        <time>2017-06-24T12:42:05Z</time>
      </trkpt>
      <trkpt lat="46.591290" lon="0.301730">
        <time>2017-06-24T12:42:06Z</time>
      </trkpt>
      <trkpt lat="46.591500" lon="0.301950">
        <time>2017-06-24T12:42:07Z</time>
      </trkpt>
      <trkpt lat="46.591670" lon="0.302140">
        <time>2017-06-24T12:42:08Z</time>
      </trkpt>
      <trkpt lat="46.591870" lon="0.302330">
        <time>2017-06-24T12:42:09Z</time>
      </trkpt>
      <trkpt lat="46.592060" lon="0.302530">
        <time>2017-06-24T12:42:10Z</time>
      </trkpt>
      <trkpt lat="46.592260" lon="0.302730">
        <time>2017-06-24T12:42:11Z</time>
      </trkpt>
      <trkpt lat="46.592460" lon="0.302950">
        <time>2017-06-24T12:42:12Z</time>
      </trkpt>
      <trkpt lat="46.592650" lon="0.303140">
        <time>2017-06-24T12:42:13Z</time>
      </trkpt>
      <trkpt lat="46.592840" lon="0.303340">
        <time>2017-06-24T12:42:14Z</time>
      </trkpt>
      <trkpt lat="46.593030" lon="0.303550">
        <time>2017-06-24T12:42:15Z</time>
      </trkpt>
      <trkpt lat="46.593200" lon="0.303730">
        <time>2017-06-24T12:42:16Z</time>
      </trkpt>
      <trkpt lat="46.593380" lon="0.303920">
        <time>2017-06-24T12:42:17Z</time>
      </trkpt>
      <trkpt lat="46.593560" lon="0.304110">
        <time>2017-06-24T12:42:18Z</time>
      </trkpt>
      <trkpt lat="46.593710" lon="0.304290">
        <time>2017-06-24T12:42:19Z</time>
      </trkpt>
      <trkpt lat="46.593890" lon="0.304480">
        <time>2017-06-24T12:42:20Z</time>
      </trkpt>
      <trkpt lat="46.594050" lon="0.304650">
        <time>2017-06-24T12:42:21Z</time>
      </trkpt>
      <trkpt lat="46.594210" lon="0.304830">
        <time>2017-06-24T12:42:22Z</time>
      </trkpt>
      <trkpt lat="46.594390" lon="0.305030">
        <time>2017-06-24T12:42:23Z</time>
      </trkpt>
      <trkpt lat="46.594550" lon="0.305200">
        <time>2017-06-24T12:42:24Z</time>
      </trkpt>
      <trkpt lat="46.594710" lon="0.305390">
        <time>2017-06-24T12:42:25Z</time>
      </trkpt>
      <trkpt lat="46.594870" lon="0.305570">
        <time>2017-06-24T12:42:26Z</time>
      </trkpt>
      <trkpt lat="46.595030" lon="0.305750">
        <time>2017-06-24T12:42:27Z</time>
      </trkpt>
      <trkpt lat="46.595180" lon="0.305930">
        <time>2017-06-24T12:42:28Z</time>
      </trkpt>
      <trkpt lat="46.595320" lon="0.306090">
        <time>2017-06-24T12:42:29Z</time>
      </trkpt>
      <trkpt lat="46.595450" lon="0.306250">
        <time>2017-06-24T12:42:30Z</time>
      </trkpt>
      <trkpt lat="46.595600" lon="0.306420">
        <time>2017-06-24T12:42:31Z</time>
      </trkpt>
      <trkpt lat="46.595730" lon="0.306560">
        <time>2017-06-24T12:42:32Z</time>
      </trkpt>
      <trkpt lat="46.595870" lon="0.306730">
        <time>2017-06-24T12:42:33Z</time>
      </trkpt>
      <trkpt lat="46.596010" lon="0.306890">
        <time>2017-06-24T12:42:34Z</time>
      </trkpt>
      <trkpt lat="46.596140" lon="0.307040">
        <time>2017-06-24T12:42:35Z</time>
      </trkpt>
      <trkpt lat="46.596280" lon="0.307200">
        <time>2017-06-24T12:42:36Z</time>
      </trkpt>
      <trkpt lat="46.596400" lon="0.307350">
        <time>2017-06-24T12:42:37Z</time>
      </trkpt>
      <trkpt lat="46.596530" lon="0.307510">
        <time>2017-06-24T12:42:38Z</time>
      </trkpt>
      <trkpt lat="46.596680" lon="0.307690">
        <time>2017-06-24T12:42:39Z</time>
      </trkpt>
      <trkpt lat="46.596810" lon="0.307840">
        <time>2017-06-24T12:42:40Z</time>
      </trkpt>
      <trkpt lat="46.596960" lon="0.308020">
        <time>2017-06-24T12:42:41Z</time>
      </trkpt>
      <trkpt lat="46.597120" lon="0.308200">
        <time>2017-06-24T12:42:42Z</time>
      </trkpt>
      <trkpt lat="46.597290" lon="0.308390">
        <time>2017-06-24T12:42:43Z</time>
      </trkpt>
      <trkpt lat="46.597490" lon="0.308610">
        <time>2017-06-24T12:42:44Z</time>
      </trkpt>
      <trkpt lat="46.597670" lon="0.308820">
        <time>2017-06-24T12:42:45Z</time>
      </trkpt>
      <trkpt lat="46.597860" lon="0.309040">
        <time>2017-06-24T12:42:46Z</time>
      </trkpt>
      <trkpt lat="46.598050" lon="0.309270">
        <time>2017-06-24T12:42:47Z</time>
      </trkpt>
      <trkpt lat="46.598220" lon="0.309480">
        <time>2017-06-24T12:42:48Z</time>
      </trkpt>
      <trkpt lat="46.598410" lon="0.309710">
        <time>2017-06-24T12:42:49Z</time>
      </trkpt>
      <trkpt lat="46.598610" lon="0.309960">
        <time>2017-06-24T12:42:50Z</time>
      </trkpt>
      <trkpt lat="46.598800" lon="0.310190">
        <time>2017-06-24T12:42:51Z</time>
      </trkpt>
      <trkpt lat="46.599010" lon="0.310470">
        <time>2017-06-24T12:42:52Z</time>
      </trkpt>
      <trkpt lat="46.599190" lon="0.310710">
        <time>2017-06-24T12:42:53Z</time>
      </trkpt>
      <trkpt lat="46.599400" lon="0.310980">
        <time>2017-06-24T12:42:54Z</time>
      </trkpt>
      <trkpt lat="46.599620" lon="0.311280">
        <time>2017-06-24T12:42:55Z</time>
      </trkpt>
      <trkpt lat="46.599820" lon="0.311540">
        <time>2017-06-24T12:42:56Z</time>
      </trkpt>
      <trkpt lat="46.600040" lon="0.311820">
        <time>2017-06-24T12:42:57Z</time>
      </trkpt>
      <trkpt lat="46.600250" lon="0.312100">
        <time>2017-06-24T12:42:58Z</time>
      </trkpt>
      <trkpt lat="46.600450" lon="0.312370">
        <time>2017-06-24T12:42:59Z</time>
      </trkpt>
      <trkpt lat="46.600660" lon="0.312660">
        <time>2017-06-24T12:43:00Z</time>
      </trkpt>
      <trkpt lat="46.600860" lon="0.312930">
        <time>2017-06-24T12:43:01Z</time>
      </trkpt>
      <trkpt lat="46.601070" lon="0.313220">
        <time>2017-06-24T12:43:02Z</time>
      </trkpt>
      <trkpt lat="46.601300" lon="0.313550">
        <time>2017-06-24T12:43:03Z</time>
      </trkpt>
      <trkpt lat="46.601510" lon="0.313840">
        <time>2017-06-24T12:43:04Z</time>
      </trkpt>
      <trkpt lat="46.601730" lon="0.314150">
        <time>2017-06-24T12:43:05Z</time>
      </trkpt>
      <trkpt lat="46.601960" lon="0.314480">
        <time>2017-06-24T12:43:06Z</time>
      </trkpt>
      <trkpt lat="46.602170" lon="0.314770">
        <time>2017-06-24T12:43:07Z</time>
      </trkpt>
      <trkpt lat="46.602410" lon="0.315110">
        <time>2017-06-24T12:43:08Z</time>
      </trkpt>
      <trkpt lat="46.602620" lon="0.315410">
        <time>2017-06-24T12:43:09Z</time>
      </trkpt>
      <trkpt lat="46.602840" lon="0.315730">
        <time>2017-06-24T12:43:10Z</time>
      </trkpt>
      <trkpt lat="46.603070" lon="0.316070">
        <time>2017-06-24T12:43:11Z</time>
      </trkpt>
      <trkpt lat="46.603270" lon="0.316370">
        <time>2017-06-24T12:43:12Z</time>
      </trkpt>
      <trkpt lat="46.603490" lon="0.316700">
        <time>2017-06-24T12:43:13Z</time>
      </trkpt>
      <trkpt lat="46.603710" lon="0.317040">
        <time>2017-06-24T12:43:14Z</time>
      </trkpt>
      <trkpt lat="46.603920" lon="0.317370">
        <time>2017-06-24T12:43:15Z</time>
      </trkpt>
      <trkpt lat="46.604140" lon="0.317720">
        <time>2017-06-24T12:43:16Z</time>
      </trkpt>
      <trkpt lat="46.604340" lon="0.318020">
        <time>2017-06-24T12:43:17Z</time>
      </trkpt>
      <trkpt lat="46.604540" lon="0.318350">
        <time>2017-06-24T12:43:18Z</time>
      </trkpt>
      <trkpt lat="46.604760" lon="0.318690">
        <time>2017-06-24T12:43:19Z</time>
      </trkpt>
      <trkpt lat="46.604950" lon="0.318990">
        <time>2017-06-24T12:43:20Z</time>
      </trkpt>
      <trkpt lat="46.605160" lon="0.319310">
        <time>2017-06-24T12:43:21Z</time>
      </trkpt>
      <trkpt lat="46.605370" lon="0.319650">
        <time>2017-06-24T12:43:22Z</time>
      </trkpt>
      <trkpt lat="46.605560" lon="0.319950">
        <time>2017-06-24T12:43:23Z</time>
      </trkpt>
      <trkpt lat="46.605770" lon="0.320290">
        <time>2017-06-24T12:43:24Z</time>
      </trkpt>
      <trkpt lat="46.605960" lon="0.320590">
        <time>2017-06-24T12:43:25Z</time>
      </trkpt>
      <trkpt lat="46.606150" lon="0.320910">
        <time>2017-06-24T12:43:26Z</time>
      </trkpt>
      <trkpt lat="46.606370" lon="0.321250">
        <time>2017-06-24T12:43:27Z</time>
      </trkpt>
      <trkpt lat="46.606550" lon="0.321560">
        <time>2017-06-24T12:43:28Z</time>
      </trkpt>
      <trkpt lat="46.606760" lon="0.321890">
        <time>2017-06-24T12:43:29Z</time>
      </trkpt>
      <trkpt lat="46.606950" lon="0.322220">
        <time>2017-06-24T12:43:30Z</time>
      </trkpt>
      <trkpt lat="46.607150" lon="0.322560">
        <time>2017-06-24T12:43:31Z</time>
      </trkpt>
      <trkpt lat="46.607360" lon="0.322920">
        <time>2017-06-24T12:43:32Z</time>
      </trkpt>
      <trkpt lat="46.607540" lon="0.323240">
        <time>2017-06-24T12:43:33Z</time>
      </trkpt>
      <trkpt lat="46.607740" lon="0.323570">
        <time>2017-06-24T12:43:34Z</time>
      </trkpt>
      <trkpt lat="46.607940" lon="0.323930">
        <time>2017-06-24T12:43:35Z</time>
      </trkpt>
      <trkpt lat="46.608130" lon="0.324250">
        <time>2017-06-24T12:43:36Z</time>
      </trkpt>
      <trkpt lat="46.608320" lon="0.324590">
        <time>2017-06-24T12:43:37Z</time>
      </trkpt>
      <trkpt lat="46.608520" lon="0.324940">
        <time>2017-06-24T12:43:38Z</time>
      </trkpt>
      <trkpt lat="46.608700" lon="0.325250">
        <time>2017-06-24T12:43:39Z</time>
      </trkpt>
      <trkpt lat="46.608900" lon="0.325610">
        <time>2017-06-24T12:43:40Z</time>
      </trkpt>
      <trkpt lat="46.609070" lon="0.325920">
        <time>2017-06-24T12:43:41Z</time>
      </trkpt>
      <trkpt lat="46.609250" lon="0.326250">
        <time>2017-06-24T12:43:42Z</time>
      </trkpt>
      <trkpt lat="46.609450" lon="0.326610">
        <time>2017-06-24T12:43:43Z</time>
      </trkpt>
      <trkpt lat="46.609620" lon="0.326930">
        <time>2017-06-24T12:43:44Z</time>
      </trkpt>
      <trkpt lat="46.609800" lon="0.327270">
        <time>2017-06-24T12:43:45Z</time>
      </trkpt>
      <trkpt lat="46.609980" lon="0.327600">
        <time>2017-06-24T12:43:46Z</time>
      </trkpt>
      <trkpt lat="46.610150" lon="0.327920">
        <time>2017-06-24T12:43:47Z</time>
      </trkpt>
      <trkpt lat="46.610330" lon="0.328270">
        <time>2017-06-24T12:43:48Z</time>
      </trkpt>
      <trkpt lat="46.610490" lon="0.328580">
        <time>2017-06-24T12:43:49Z</time>
      </trkpt>
      <trkpt lat="46.610660" lon="0.328910">
        <time>2017-06-24T12:43:50Z</time>
      </trkpt>
      <trkpt lat="46.610850" lon="0.329270">
        <time>2017-06-24T12:43:51Z</time>
      </trkpt>
      <trkpt lat="46.611020" lon="0.329580">
        <time>2017-06-24T12:43:52Z</time>
      </trkpt>
      <trkpt lat="46.611200" lon="0.329920">
        <time>2017-06-24T12:43:53Z</time>
      </trkpt>
      <trkpt lat="46.611390" lon="0.330290">
        <time>2017-06-24T12:43:54Z</time>
      </trkpt>
      <trkpt lat="46.611560" lon="0.330620">
        <time>2017-06-24T12:43:55Z</time>
      </trkpt>
      <trkpt lat="46.611740" lon="0.331000">
        <time>2017-06-24T12:43:56Z</time>
      </trkpt>
      <trkpt lat="46.611910" lon="0.331330">
        <time>2017-06-24T12:43:57Z</time>
      </trkpt>
      <trkpt lat="46.612080" lon="0.331690">
        <time>2017-06-24T12:43:58Z</time>
      </trkpt>
      <trkpt lat="46.612270" lon="0.332070">
        <time>2017-06-24T12:43:59Z</time>
      </trkpt>
      <trkpt lat="46.612430" lon="0.332400">
        <time>2017-06-24T12:44:00Z</time>
      </trkpt>
      <trkpt lat="46.612600" lon="0.332760">
        <time>2017-06-24T12:44:01Z</time>
      </trkpt>
      <trkpt lat="46.612760" lon="0.333120">
        <time>2017-06-24T12:44:02Z</time>
      </trkpt>
      <trkpt lat="46.612930" lon="0.333480">
        <time>2017-06-24T12:44:03Z</time>
      </trkpt>
      <trkpt lat="46.613110" lon="0.333850">
        <time>2017-06-24T12:44:04Z</time>
      </trkpt>
      <trkpt lat="46.613260" lon="0.334190">
        <time>2017-06-24T12:44:05Z</time>
      </trkpt>
      <trkpt lat="46.613430" lon="0.334540">
        <time>2017-06-24T12:44:06Z</time>
      </trkpt>
      <trkpt lat="46.613620" lon="0.334910">
        <time>2017-06-24T12:44:07Z</time>
      </trkpt>
      <trkpt lat="46.613770" lon="0.335230">
        <time>2017-06-24T12:44:08Z</time>
      </trkpt>
      <trkpt lat="46.613940" lon="0.335580">
        <time>2017-06-24T12:44:09Z</time>
      </trkpt>
      <trkpt lat="46.614130" lon="0.335940">
        <time>2017-06-24T12:44:10Z</time>
      </trkpt>
      <trkpt lat="46.614280" lon="0.336270">
        <time>2017-06-24T12:44:11Z</time>
      </trkpt>
      <trkpt lat="46.614460" lon="0.336640">
        <time>2017-06-24T12:44:12Z</time>
      </trkpt>
      <trkpt lat="46.614620" lon="0.336970">
        <time>2017-06-24T12:44:13Z</time>
      </trkpt>
      <trkpt lat="46.614780" lon="0.337310">
        <time>2017-06-24T12:44:14Z</time>
      </trkpt>
      <trkpt lat="46.614970" lon="0.337680">
        <time>2017-06-24T12:44:15Z</time>
      </trkpt>
      <trkpt lat="46.615130" lon="0.338010">
        <time>2017-06-24T12:44:16Z</time>
      </trkpt>
      <trkpt lat="46.615300" lon="0.338350">
        <time>2017-06-24T12:44:17Z</time>
      </trkpt>
      <trkpt lat="46.615480" lon="0.338690">
        <time>2017-06-24T12:44:18Z</time>
      </trkpt>
      <trkpt lat="46.615660" lon="0.339040">
        <time>2017-06-24T12:44:19Z</time>
      </trkpt>
      <trkpt lat="46.615860" lon="0.339400">
        <time>2017-06-24T12:44:20Z</time>
      </trkpt>
      <trkpt lat="46.616030" lon="0.339720">
        <time>2017-06-24T12:44:21Z</time>
      </trkpt>
      <trkpt lat="46.616220" lon="0.340060">
        <time>2017-06-24T12:44:22Z</time>
      </trkpt>
      <trkpt lat="46.616420" lon="0.340410">
        <time>2017-06-24T12:44:23Z</time>
      </trkpt>
      <trkpt lat="46.616610" lon="0.340720">
        <time>2017-06-24T12:44:24Z</time>
      </trkpt>
      <trkpt lat="46.616800" lon="0.341040">
        <time>2017-06-24T12:44:25Z</time>
      </trkpt>
      <trkpt lat="46.617020" lon="0.341380">
        <time>2017-06-24T12:44:26Z</time>
      </trkpt>
      <trkpt lat="46.617210" lon="0.341680">
        <time>2017-06-24T12:44:27Z</time>
      </trkpt>
      <trkpt lat="46.617430" lon="0.342020">
        <time>2017-06-24T12:44:28Z</time>
      </trkpt>
      <trkpt lat="46.617630" lon="0.342300">
        <time>2017-06-24T12:44:29Z</time>
      </trkpt>
      <trkpt lat="46.617840" lon="0.342610">
        <time>2017-06-24T12:44:30Z</time>
      </trkpt>
      <trkpt lat="46.618060" lon="0.342910">
        <time>2017-06-24T12:44:31Z</time>
      </trkpt>
      <trkpt lat="46.618260" lon="0.343170">
        <time>2017-06-24T12:44:32Z</time>
      </trkpt>
      <trkpt lat="46.618470" lon="0.343450">
        <time>2017-06-24T12:44:33Z</time>
      </trkpt>
      <trkpt lat="46.618670" lon="0.343710">
        <time>2017-06-24T12:44:34Z</time>
      </trkpt>
      <trkpt lat="46.618880" lon="0.343970">
        <time>2017-06-24T12:44:35Z</time>
      </trkpt>
      <trkpt lat="46.619100" lon="0.344250">
        <time>2017-06-24T12:44:36Z</time>
      </trkpt>
      <trkpt lat="46.619310" lon="0.344480">
        <time>2017-06-24T12:44:37Z</time>
      </trkpt>
      <trkpt lat="46.619530" lon="0.344720">
        <time>2017-06-24T12:44:38Z</time>
      </trkpt>
      <trkpt lat="46.619760" lon="0.344980">
        <time>2017-06-24T12:44:39Z</time>
      </trkpt>
      <trkpt lat="46.619980" lon="0.345210">
        <time>2017-06-24T12:44:40Z</time>
      </trkpt>
      <trkpt lat="46.620210" lon="0.345450">
        <time>2017-06-24T12:44:41Z</time>
      </trkpt>
      <trkpt lat="46.620450" lon="0.345720">
        <time>2017-06-24T12:44:42Z</time>
      </trkpt>
      <trkpt lat="46.620670" lon="0.345940">
        <time>2017-06-24T12:44:43Z</time>
      </trkpt>
      <trkpt lat="46.620930" lon="0.346210">
        <time>2017-06-24T12:44:44Z</time>
      </trkpt>
      <trkpt lat="46.621150" lon="0.346450">
        <time>2017-06-24T12:44:45Z</time>
      </trkpt>
      <trkpt lat="46.621410" lon="0.346680">
        <time>2017-06-24T12:44:46Z</time>
      </trkpt>
      <trkpt lat="46.621680" lon="0.346930">
        <time>2017-06-24T12:44:47Z</time>
      </trkpt>
      <trkpt lat="46.621920" lon="0.347150">
        <time>2017-06-24T12:44:48Z</time>
      </trkpt>
      <trkpt lat="46.622180" lon="0.347360">
        <time>2017-06-24T12:44:49Z</time>
      </trkpt>
      <trkpt lat="46.622430" lon="0.347580">
        <time>2017-06-24T12:44:50Z</time>
      </trkpt>
      <trkpt lat="46.622680" lon="0.347790">
        <time>2017-06-24T12:44:51Z</time>
      </trkpt>
      <trkpt lat="46.622950" lon="0.348000">
        <time>2017-06-24T12:44:52Z</time>
      </trkpt>
      <trkpt lat="46.623180" lon="0.348180">
        <time>2017-06-24T12:44:53Z</time>
      </trkpt>
      <trkpt lat="46.623430" lon="0.348370">
        <time>2017-06-24T12:44:54Z</time>
      </trkpt>
      <trkpt lat="46.623700" lon="0.348560">
        <time>2017-06-24T12:44:55Z</time>
      </trkpt>
      <trkpt lat="46.623930" lon="0.348720">
        <time>2017-06-24T12:44:56Z</time>
      </trkpt>
      <trkpt lat="46.624170" lon="0.348880">
        <time>2017-06-24T12:44:57Z</time>
      </trkpt>
      <trkpt lat="46.624420" lon="0.349050">
        <time>2017-06-24T12:44:58Z</time>
      </trkpt>
      <trkpt lat="46.624640" lon="0.349180">
        <time>2017-06-24T12:44:59Z</time>
      </trkpt>
      <trkpt lat="46.624890" lon="0.349330">
        <time>2017-06-24T12:45:00Z</time>
      </trkpt>
      <trkpt lat="46.625100" lon="0.349460">
        <time>2017-06-24T12:45:01Z</time>
      </trkpt>
      <trkpt lat="46.625320" lon="0.349580">
        <time>2017-06-24T12:45:02Z</time>
      </trkpt>
      <trkpt lat="46.625550" lon="0.349720">
        <time>2017-06-24T12:45:03Z</time>
      </trkpt>
      <trkpt lat="46.625750" lon="0.349830">
        <time>2017-06-24T12:45:04Z</time>
      </trkpt>
      <trkpt lat="46.625970" lon="0.349940">
        <time>2017-06-24T12:45:05Z</time>
      </trkpt>
      <trkpt lat="46.626180" lon="0.350060">
        <time>2017-06-24T12:45:06Z</time>
      </trkpt>
      <trkpt lat="46.626400" lon="0.350170">
        <time>2017-06-24T12:45:07Z</time>
      </trkpt>
      <trkpt lat="46.626630" lon="0.350280">
        <time>2017-06-24T12:45:08Z</time>
      </trkpt>
      <trkpt lat="46.626830" lon="0.350380">
        <time>2017-06-24T12:45:09Z</time>
      </trkpt>
      <trkpt lat="46.627060" lon="0.350480">
        <time>2017-06-24T12:45:10Z</time>
      </trkpt>
      <trkpt lat="46.627300" lon="0.350590">
        <time>2017-06-24T12:45:11Z</time>
      </trkpt>
      <trkpt lat="46.627510" lon="0.350670">
        <time>2017-06-24T12:45:12Z</time>
      </trkpt>
      <trkpt lat="46.627730" lon="0.350750">
        <time>2017-06-24T12:45:13Z</time>
      </trkpt>
      <trkpt lat="46.627970" lon="0.350830">
        <time>2017-06-24T12:45:14Z</time>
      </trkpt>
      <trkpt lat="46.628170" lon="0.350900">
        <time>2017-06-24T12:45:15Z</time>
      </trkpt>
      <trkpt lat="46.628400" lon="0.350980">
        <time>2017-06-24T12:45:16Z</time>
      </trkpt>
      <trkpt lat="46.628610" lon="0.351040">
        <time>2017-06-24T12:45:17Z</time>
      </trkpt>
      <trkpt lat="46.628830" lon="0.351120">
        <time>2017-06-24T12:45:18Z</time>
      </trkpt>
      <trkpt lat="46.629060" lon="0.351190">
        <time>2017-06-24T12:45:19Z</time>
      </trkpt>
      <trkpt lat="46.629270" lon="0.351260">
        <time>2017-06-24T12:45:20Z</time>
      </trkpt>
      <trkpt lat="46.629490" lon="0.351320">
        <time>2017-06-24T12:45:21Z</time>
      </trkpt>
      <trkpt lat="46.629710" lon="0.351370">
        <time>2017-06-24T12:45:22Z</time>
      </trkpt>
      <trkpt lat="46.629930" lon="0.351440">
        <time>2017-06-24T12:45:23Z</time>
      </trkpt>
      <trkpt lat="46.630170" lon="0.351500">
        <time>2017-06-24T12:45:24Z</time>
      </trkpt>
      <trkpt lat="46.630380" lon="0.351550">
        <time>2017-06-24T12:45:25Z</time>
      </trkpt>
      <trkpt lat="46.630600" lon="0.351600">
        <time>2017-06-24T12:45:26Z</time>
      </trkpt>
      <trkpt lat="46.630840" lon="0.351650">
        <time>2017-06-24T12:45:27Z</time>
      </trkpt>
      <trkpt lat="46.631040" lon="0.351700">
        <time>2017-06-24T12:45:28Z</time>
      </trkpt>
      <trkpt lat="46.631260" lon="0.351750">
        <time>2017-06-24T12:45:29Z</time>
      </trkpt>
      <trkpt lat="46.631490" lon="0.351800">
        <time>2017-06-24T12:45:30Z</time>
      </trkpt>
      <trkpt lat="46.631700" lon="0.351850">
        <time>2017-06-24T12:45:31Z</time>
      </trkpt>
      <trkpt lat="46.631940" lon="0.351900">
        <time>2017-06-24T12:45:32Z</time>
      </trkpt>
      <trkpt lat="46.632160" lon="0.351950">
        <time>2017-06-24T12:45:33Z</time>
      </trkpt>
      <trkpt lat="46.632390" lon="0.352010">
        <time>2017-06-24T12:45:34Z</time>
      </trkpt>
      <trkpt lat="46.632640" lon="0.352070">
        <time>2017-06-24T12:45:35Z</time>
      </trkpt>
      <trkpt lat="46.632860" lon="0.352120">
        <time>2017-06-24T12:45:36Z</time>
      </trkpt>
      <trkpt lat="46.633100" lon="0.352180">
        <time>2017-06-24T12:45:37Z</time>
      </trkpt>
      <trkpt lat="46.633340" lon="0.352230">
        <time>2017-06-24T12:45:38Z</time>
      </trkpt>
      <trkpt lat="46.633570" lon="0.352280">
        <time>2017-06-24T12:45:39Z</time>
      </trkpt>
      <trkpt lat="46.633830" lon="0.352340">
        <time>2017-06-24T12:45:40Z</time>
      </trkpt>
      <trkpt lat="46.634060" lon="0.352400">
        <time>2017-06-24T12:45:41Z</time>
      </trkpt>
      <trkpt lat="46.634290" lon="0.352460">
        <time>2017-06-24T12:45:42Z</time>
      </trkpt>
      <trkpt lat="46.634540" lon="0.352530">
        <time>2017-06-24T12:45:43Z</time>
      </trkpt>
      <trkpt lat="46.634770" lon="0.352580">
        <time>2017-06-24T12:45:44Z</time>
      </trkpt>
      <trkpt lat="46.635000" lon="0.352650">
        <time>2017-06-24T12:45:45Z</time>
      </trkpt>
      <trkpt lat="46.635260" lon="0.352720">
        <time>2017-06-24T12:45:46Z</time>
      </trkpt>
      <trkpt lat="46.635490" lon="0.352780">
        <time>2017-06-24T12:45:47Z</time>
      </trkpt>
      <trkpt lat="46.635750" lon="0.352850">
        <time>2017-06-24T12:45:48Z</time>
      </trkpt>
      <trkpt lat="46.635980" lon="0.352930">
        <time>2017-06-24T12:45:49Z</time>
      </trkpt>
      <trkpt lat="46.636230" lon="0.353000">
        <time>2017-06-24T12:45:50Z</time>
      </trkpt>
      <trkpt lat="46.636500" lon="0.353080">
        <time>2017-06-24T12:45:51Z</time>
      </trkpt>
      <trkpt lat="46.636730" lon="0.353150">
        <time>2017-06-24T12:45:52Z</time>
      </trkpt>
      <trkpt lat="46.636990" lon="0.353230">
        <time>2017-06-24T12:45:53Z</time>
      </trkpt>
      <trkpt lat="46.637250" lon="0.353310">
        <time>2017-06-24T12:45:54Z</time>
      </trkpt>
      <trkpt lat="46.637510" lon="0.353400">
        <time>2017-06-24T12:45:55Z</time>
      </trkpt>
      <trkpt lat="46.637790" lon="0.353490">
        <time>2017-06-24T12:45:56Z</time>
      </trkpt>
      <trkpt lat="46.638050" lon="0.353570">
        <time>2017-06-24T12:45:57Z</time>
      </trkpt>
      <trkpt lat="46.638320" lon="0.353660">
        <time>2017-06-24T12:45:58Z</time>
      </trkpt>
      <trkpt lat="46.638600" lon="0.353740">
        <time>2017-06-24T12:45:59Z</time>
      </trkpt>
      <trkpt lat="46.638850" lon="0.353820">
        <time>2017-06-24T12:46:00Z</time>
      </trkpt>
      <trkpt lat="46.639110" lon="0.353900">
        <time>2017-06-24T12:46:01Z</time>
      </trkpt>
      <trkpt lat="46.639380" lon="0.353980">
        <time>2017-06-24T12:46:02Z</time>
      </trkpt>
      <trkpt lat="46.639610" lon="0.354060">
        <time>2017-06-24T12:46:03Z</time>
      </trkpt>
      <trkpt lat="46.639880" lon="0.354140">
        <time>2017-06-24T12:46:04Z</time>
      </trkpt>
      <trkpt lat="46.640120" lon="0.354220">
        <time>2017-06-24T12:46:05Z</time>
      </trkpt>
      <trkpt lat="46.640380" lon="0.354290">
        <time>2017-06-24T12:46:06Z</time>
      </trkpt>
      <trkpt lat="46.640650" lon="0.354370">
        <time>2017-06-24T12:46:07Z</time>
      </trkpt>
      <trkpt lat="46.640900" lon="0.354450">
        <time>2017-06-24T12:46:08Z</time>
      </trkpt>
      <trkpt lat="46.641170" lon="0.354520">
        <time>2017-06-24T12:46:09Z</time>
      </trkpt>
      <trkpt lat="46.641440" lon="0.354600">
        <time>2017-06-24T12:46:10Z</time>
      </trkpt>
      <trkpt lat="46.641700" lon="0.354670">
        <time>2017-06-24T12:46:11Z</time>
      </trkpt>
      <trkpt lat="46.641980" lon="0.354750">
        <time>2017-06-24T12:46:12Z</time>
      </trkpt>
      <trkpt lat="46.642210" lon="0.354810">
        <time>2017-06-24T12:46:13Z</time>
      </trkpt>
      <trkpt lat="46.642470" lon="0.354870">
        <time>2017-06-24T12:46:14Z</time>
      </trkpt>
      <trkpt lat="46.642740" lon="0.354930">
        <time>2017-06-24T12:46:15Z</time>
      </trkpt>
      <trkpt lat="46.642970" lon="0.354990">
        <time>2017-06-24T12:46:16Z</time>
      </trkpt>
      <trkpt lat="46.643230" lon="0.355040">
        <time>2017-06-24T12:46:17Z</time>
      </trkpt>
      <trkpt lat="46.643510" lon="0.355100">
        <time>2017-06-24T12:46:18Z</time>
      </trkpt>
      <trkpt lat="46.643750" lon="0.355150">
        <time>2017-06-24T12:46:19Z</time>
      </trkpt>
      <trkpt lat="46.644030" lon="0.355200">
        <time>2017-06-24T12:46:20Z</time>
      </trkpt>
      <trkpt lat="46.644280" lon="0.355250">
        <time>2017-06-24T12:46:21Z</time>
      </trkpt>
      <trkpt lat="46.644540" lon="0.355300">
        <time>2017-06-24T12:46:22Z</time>
      </trkpt>
      <trkpt lat="46.644820" lon="0.355340">
        <time>2017-06-24T12:46:23Z</time>
      </trkpt>
      <trkpt lat="46.645070" lon="0.355380">
        <time>2017-06-24T12:46:24Z</time>
      </trkpt>
      <trkpt lat="46.645320" lon="0.355430">
        <time>2017-06-24T12:46:25Z</time>
      </trkpt>
      <trkpt lat="46.645580" lon="0.355460">
        <time>2017-06-24T12:46:26Z</time>
      </trkpt>
      <trkpt lat="46.645850" lon="0.355490">
        <time>2017-06-24T12:46:27Z</time>
      </trkpt>
      <trkpt lat="46.646140" lon="0.355520">
        <time>2017-06-24T12:46:28Z</time>
      </trkpt>
      <trkpt lat="46.646390" lon="0.355540">
        <time>2017-06-24T12:46:29Z</time>
      </trkpt>
      <trkpt lat="46.646670" lon="0.355570">
        <time>2017-06-24T12:46:30Z</time>
      </trkpt>
      <trkpt lat="46.646960" lon="0.355590">
        <time>2017-06-24T12:46:31Z</time>
      </trkpt>
      <trkpt lat="46.647220" lon="0.355610">
        <time>2017-06-24T12:46:32Z</time>
      </trkpt>
      <trkpt lat="46.647490" lon="0.355630">
        <time>2017-06-24T12:46:33Z</time>
      </trkpt>
      <trkpt lat="46.647780" lon="0.355640">
        <time>2017-06-24T12:46:34Z</time>
      </trkpt>
      <trkpt lat="46.648030" lon="0.355650">
        <time>2017-06-24T12:46:35Z</time>
      </trkpt>
      <trkpt lat="46.648310" lon="0.355670">
        <time>2017-06-24T12:46:36Z</time>
      </trkpt>
      <trkpt lat="46.648560" lon="0.355690">
        <time>2017-06-24T12:46:37Z</time>
      </trkpt>
      <trkpt lat="46.648820" lon="0.355710">
        <time>2017-06-24T12:46:38Z</time>
      </trkpt>
      <trkpt lat="46.649090" lon="0.355720">
        <time>2017-06-24T12:46:39Z</time>
      </trkpt>
      <trkpt lat="46.649320" lon="0.355720">
        <time>2017-06-24T12:46:40Z</time>
      </trkpt>
      <trkpt lat="46.649560" lon="0.355720">
        <time>2017-06-24T12:46:41Z</time>
      </trkpt>
      <trkpt lat="46.649790" lon="0.355720">
        <time>2017-06-24T12:46:42Z</time>
      </trkpt>
      <trkpt lat="46.650040" lon="0.355720">
        <time>2017-06-24T12:46:43Z</time>
      </trkpt>
      <trkpt lat="46.650300" lon="0.355700">
        <time>2017-06-24T12:46:44Z</time>
      </trkpt>
      <trkpt lat="46.650550" lon="0.355690">
        <time>2017-06-24T12:46:45Z</time>
      </trkpt>
      <trkpt lat="46.650810" lon="0.355660">
        <time>2017-06-24T12:46:46Z</time>
      </trkpt>
      <trkpt lat="46.651090" lon="0.355630">
        <time>2017-06-24T12:46:47Z</time>
      </trkpt>
      <trkpt lat="46.651340" lon="0.355610">
        <time>2017-06-24T12:46:48Z</time>
      </trkpt>
      <trkpt lat="46.651620" lon="0.355580">
        <time>2017-06-24T12:46:49Z</time>
      </trkpt>
      <trkpt lat="46.651910" lon="0.355550">
        <time>2017-06-24T12:46:50Z</time>
      </trkpt>
      <trkpt lat="46.652170" lon="0.355520">
        <time>2017-06-24T12:46:51Z</time>
      </trkpt>
      <trkpt lat="46.652460" lon="0.355490">
        <time>2017-06-24T12:46:52Z</time>
      </trkpt>
      <trkpt lat="46.652720" lon="0.355470">
        <time>2017-06-24T12:46:53Z</time>
      </trkpt>
      <trkpt lat="46.653000" lon="0.355450">
        <time>2017-06-24T12:46:54Z</time>
      </trkpt>
      <trkpt lat="46.653300" lon="0.355440">
        <time>2017-06-24T12:46:55Z</time>
      </trkpt>
      <trkpt lat="46.653570" lon="0.355440">
        <time>2017-06-24T12:46:56Z</time>
      </trkpt>
      <trkpt lat="46.653840" lon="0.355430">
        <time>2017-06-24T12:46:57Z</time>
      </trkpt>
      <trkpt lat="46.654110" lon="0.355430">
        <time>2017-06-24T12:46:58Z</time>
      </trkpt>
      <trkpt lat="46.654390" lon="0.355410">
        <time>2017-06-24T12:46:59Z</time>
      </trkpt>
      <trkpt lat="46.654680" lon="0.355410">
        <time>2017-06-24T12:47:00Z</time>
      </trkpt>
      <trkpt lat="46.654930" lon="0.355390">
        <time>2017-06-24T12:47:01Z</time>
      </trkpt>
      <trkpt lat="46.655210" lon="0.355380">
        <time>2017-06-24T12:47:02Z</time>
      </trkpt>
      <trkpt lat="46.655500" lon="0.355370">
        <time>2017-06-24T12:47:03Z</time>
      </trkpt>
      <trkpt lat="46.655750" lon="0.355370">
        <time>2017-06-24T12:47:04Z</time>
      </trkpt>
      <trkpt lat="46.656030" lon="0.355360">
        <time>2017-06-24T12:47:05Z</time>
      </trkpt>
      <trkpt lat="46.656320" lon="0.355350">
        <time>2017-06-24T12:47:06Z</time>
      </trkpt>
      <trkpt lat="46.656580" lon="0.355350">
        <time>2017-06-24T12:47:07Z</time>
      </trkpt>
      <trkpt lat="46.656860" lon="0.355350">
        <time>2017-06-24T12:47:08Z</time>
      </trkpt>
      <trkpt lat="46.657120" lon="0.355350">
        <time>2017-06-24T12:47:09Z</time>
      </trkpt>
      <trkpt lat="46.657390" lon="0.355370">
        <time>2017-06-24T12:47:10Z</time>
      </trkpt>
      <trkpt lat="46.657680" lon="0.355390">
        <time>2017-06-24T12:47:11Z</time>
      </trkpt>
      <trkpt lat="46.657940" lon="0.355400">
        <time>2017-06-24T12:47:12Z</time>
      </trkpt>
      <trkpt lat="46.658210" lon="0.355420">
        <time>2017-06-24T12:47:13Z</time>
      </trkpt>
      <trkpt lat="46.658480" lon="0.355450">
        <time>2017-06-24T12:47:14Z</time>
      </trkpt>
      <trkpt lat="46.658750" lon="0.355470">
        <time>2017-06-24T12:47:15Z</time>
      </trkpt>
      <trkpt lat="46.659040" lon="0.355500">
        <time>2017-06-24T12:47:16Z</time>
      </trkpt>
      <trkpt lat="46.659290" lon="0.355520">
        <time>2017-06-24T12:47:17Z</time>
      </trkpt>
      <trkpt lat="46.659560" lon="0.355550">
        <time>2017-06-24T12:47:18Z</time>
      </trkpt>
      <trkpt lat="46.659850" lon="0.355590">
        <time>2017-06-24T12:47:19Z</time>
      </trkpt>
      <trkpt lat="46.660110" lon="0.355620">
        <time>2017-06-24T12:47:20Z</time>
      </trkpt>
      <trkpt lat="46.660370" lon="0.355660">
        <time>2017-06-24T12:47:21Z</time>
      </trkpt>
      <trkpt lat="46.660660" lon="0.355700">
        <time>2017-06-24T12:47:22Z</time>
      </trkpt>
      <trkpt lat="46.660910" lon="0.355740">
        <time>2017-06-24T12:47:23Z</time>
      </trkpt>
      <trkpt lat="46.661190" lon="0.355790">
        <time>2017-06-24T12:47:24Z</time>
      </trkpt>
      <trkpt lat="46.661440" lon="0.355830">
        <time>2017-06-24T12:47:25Z</time>
      </trkpt>
      <trkpt lat="46.661710" lon="0.355890">
        <time>2017-06-24T12:47:26Z</time>
      </trkpt>
      <trkpt lat="46.661990" lon="0.355940">
        <time>2017-06-24T12:47:27Z</time>
      </trkpt>
      <trkpt lat="46.662240" lon="0.355990">
        <time>2017-06-24T12:47:28Z</time>
      </trkpt>
      <trkpt lat="46.662510" lon="0.356040">
        <time>2017-06-24T12:47:29Z</time>
      </trkpt>
      <trkpt lat="46.662790" lon="0.356100">
        <time>2017-06-24T12:47:30Z</time>
      </trkpt>
      <trkpt lat="46.663060" lon="0.356160">
        <time>2017-06-24T12:47:31Z</time>
      </trkpt>
      <trkpt lat="46.663350" lon="0.356220">
        <time>2017-06-24T12:47:32Z</time>
      </trkpt>
      <trkpt lat="46.663620" lon="0.356290">
        <time>2017-06-24T12:47:33Z</time>
      </trkpt>
      <trkpt lat="46.663890" lon="0.356340">
        <time>2017-06-24T12:47:34Z</time>
      </trkpt>
      <trkpt lat="46.664190" lon="0.356400">
        <time>2017-06-24T12:47:35Z</time>
      </trkpt>
      <trkpt lat="46.664450" lon="0.356450">
        <time>2017-06-24T12:47:36Z</time>
      </trkpt>
      <trkpt lat="46.664730" lon="0.356510">
        <time>2017-06-24T12:47:37Z</time>
      </trkpt>
      <trkpt lat="46.665010" lon="0.356560">
        <time>2017-06-24T12:47:38Z</time>
      </trkpt>
      <trkpt lat="46.665270" lon="0.356620">
        <time>2017-06-24T12:47:39Z</time>
      </trkpt>
      <trkpt lat="46.665560" lon="0.356670">
        <time>2017-06-24T12:47:40Z</time>
      </trkpt>
      <trkpt lat="46.665810" lon="0.356730">
        <time>2017-06-24T12:47:41Z</time>
      </trkpt>
      <trkpt lat="46.666090" lon="0.356790">
        <time>2017-06-24T12:47:42Z</time>
      </trkpt>
      <trkpt lat="46.666370" lon="0.356850">
        <time>2017-06-24T12:47:43Z</time>
      </trkpt>
      <trkpt lat="46.666620" lon="0.356900">
        <time>2017-06-24T12:47:44Z</time>
      </trkpt>
      <trkpt lat="46.666890" lon="0.356960">
        <time>2017-06-24T12:47:45Z</time>
      </trkpt>
      <trkpt lat="46.667170" lon="0.357020">
        <time>2017-06-24T12:47:46Z</time>
      </trkpt>
      <trkpt lat="46.667440" lon="0.357070">
        <time>2017-06-24T12:47:47Z</time>
      </trkpt>
      <trkpt lat="46.667730" lon="0.357130">
        <time>2017-06-24T12:47:48Z</time>
      </trkpt>
      <trkpt lat="46.667990" lon="0.357180">
        <time>2017-06-24T12:47:49Z</time>
      </trkpt>
      <trkpt lat="46.668260" lon="0.357240">
        <time>2017-06-24T12:47:50Z</time>
      </trkpt>
      <trkpt lat="46.668550" lon="0.357300">
        <time>2017-06-24T12:47:51Z</time>
      </trkpt>
      <trkpt lat="46.668810" lon="0.357360">
        <time>2017-06-24T12:47:52Z</time>
      </trkpt>
      <trkpt lat="46.669090" lon="0.357420">
        <time>2017-06-24T12:47:53Z</time>
      </trkpt>
      <trkpt lat="46.669390" lon="0.357480">
        <time>2017-06-24T12:47:54Z</time>
      </trkpt>
      <trkpt lat="46.669650" lon="0.357530">
        <time>2017-06-24T12:47:55Z</time>
      </trkpt>
      <trkpt lat="46.669960" lon="0.357590">
        <time>2017-06-24T12:47:56Z</time>
      </trkpt>
      <trkpt lat="46.670230" lon="0.357650">
        <time>2017-06-24T12:47:57Z</time>
      </trkpt>
      <trkpt lat="46.670520" lon="0.357710">
        <time>2017-06-24T12:47:58Z</time>
      </trkpt>
      <trkpt lat="46.670820" lon="0.357780">
        <time>2017-06-24T12:47:59Z</time>
      </trkpt>
      <trkpt lat="46.671090" lon="0.357830">
        <time>2017-06-24T12:48:00Z</time>
      </trkpt>
      <trkpt lat="46.671380" lon="0.357890">
        <time>2017-06-24T12:48:01Z</time>
      </trkpt>
      <trkpt lat="46.671670" lon="0.357950">
        <time>2017-06-24T12:48:02Z</time>
      </trkpt>
      <trkpt lat="46.671960" lon="0.358000">
        <time>2017-06-24T12:48:03Z</time>
      </trkpt>
      <trkpt lat="46.672270" lon="0.358060">
        <time>2017-06-24T12:48:04Z</time>
      </trkpt>
      <trkpt lat="46.672550" lon="0.358120">
        <time>2017-06-24T12:48:05Z</time>
      </trkpt>
      <trkpt lat="46.672850" lon="0.358170">
        <time>2017-06-24T12:48:06Z</time>
      </trkpt>
      <trkpt lat="46.673180" lon="0.358220">
        <time>2017-06-24T12:48:07Z</time>
      </trkpt>
      <trkpt lat="46.673480" lon="0.358280">
        <time>2017-06-24T12:48:08Z</time>
      </trkpt>
      <trkpt lat="46.673790" lon="0.358350">
        <time>2017-06-24T12:48:09Z</time>
      </trkpt>
      <trkpt lat="46.674130" lon="0.358420">
        <time>2017-06-24T12:48:10Z</time>
      </trkpt>
      <trkpt lat="46.674420" lon="0.358490">
        <time>2017-06-24T12:48:11Z</time>
      </trkpt>
      <trkpt lat="46.674750" lon="0.358550">
        <time>2017-06-24T12:48:12Z</time>
      </trkpt>
      <trkpt lat="46.675040" lon="0.358610">
        <time>2017-06-24T12:48:13Z</time>
      </trkpt>
      <trkpt lat="46.675350" lon="0.358670">
        <time>2017-06-24T12:48:14Z</time>
      </trkpt>
      <trkpt lat="46.675670" lon="0.358740">
        <time>2017-06-24T12:48:15Z</time>
      </trkpt>
      <trkpt lat="46.675960" lon="0.358800">
        <time>2017-06-24T12:48:16Z</time>
      </trkpt>
      <trkpt lat="46.676260" lon="0.358870">
        <time>2017-06-24T12:48:17Z</time>
      </trkpt>
      <trkpt lat="46.676570" lon="0.358940">
        <time>2017-06-24T12:48:18Z</time>
      </trkpt>
      <trkpt lat="46.676880" lon="0.359010">
        <time>2017-06-24T12:48:19Z</time>
      </trkpt>
      <trkpt lat="46.677210" lon="0.359100">
        <time>2017-06-24T12:48:20Z</time>
      </trkpt>
      <trkpt lat="46.677500" lon="0.359170">
        <time>2017-06-24T12:48:21Z</time>
      </trkpt>
      <trkpt lat="46.677810" lon="0.359260">
        <time>2017-06-24T12:48:22Z</time>
      </trkpt>
      <trkpt lat="46.678130" lon="0.359360">
        <time>2017-06-24T12:48:23Z</time>
      </trkpt>
      <trkpt lat="46.678410" lon="0.359460">
        <time>2017-06-24T12:48:24Z</time>
      </trkpt>
      <trkpt lat="46.678710" lon="0.359570">
        <time>2017-06-24T12:48:25Z</time>
      </trkpt>
      <trkpt lat="46.679030" lon="0.359670">
        <time>2017-06-24T12:48:26Z</time>
      </trkpt>
      <trkpt lat="46.679310" lon="0.359770">
        <time>2017-06-24T12:48:27Z</time>
      </trkpt>
      <trkpt lat="46.679630" lon="0.359880">
        <time>2017-06-24T12:48:28Z</time>
      </trkpt>
      <trkpt lat="46.679910" lon="0.359980">
        <time>2017-06-24T12:48:29Z</time>
      </trkpt>
      <trkpt lat="46.680210" lon="0.360090">
        <time>2017-06-24T12:48:30Z</time>
      </trkpt>
      <trkpt lat="46.680530" lon="0.360190">
        <time>2017-06-24T12:48:31Z</time>
      </trkpt>
      <trkpt lat="46.680810" lon="0.360290">
        <time>2017-06-24T12:48:32Z</time>
      </trkpt>
      <trkpt lat="46.681100" lon="0.360400">
        <time>2017-06-24T12:48:33Z</time>
      </trkpt>
      <trkpt lat="46.681380" lon="0.360510">
        <time>2017-06-24T12:48:34Z</time>
      </trkpt>
      <trkpt lat="46.681670" lon="0.360630">
        <time>2017-06-24T12:48:35Z</time>
      </trkpt>
      <trkpt lat="46.681970" lon="0.360770">
        <time>2017-06-24T12:48:36Z</time>
      </trkpt>
      <trkpt lat="46.682230" lon="0.360880">
        <time>2017-06-24T12:48:37Z</time>
      </trkpt>
      <trkpt lat="46.682500" lon="0.361020">
        <time>2017-06-24T12:48:38Z</time>
      </trkpt>
      <trkpt lat="46.682790" lon="0.361180">
        <time>2017-06-24T12:48:39Z</time>
      </trkpt>
      <trkpt lat="46.683050" lon="0.361320">
        <time>2017-06-24T12:48:40Z</time>
      </trkpt>
      <trkpt lat="46.683320" lon="0.361460">
        <time>2017-06-24T12:48:41Z</time>
      </trkpt>
      <trkpt lat="46.683610" lon="0.361610">
        <time>2017-06-24T12:48:42Z</time>
      </trkpt>
      <trkpt lat="46.683860" lon="0.361750">
        <time>2017-06-24T12:48:43Z</time>
      </trkpt>
      <trkpt lat="46.684150" lon="0.361910">
        <time>2017-06-24T12:48:44Z</time>
      </trkpt>
      <trkpt lat="46.684410" lon="0.362060">
        <time>2017-06-24T12:48:45Z</time>
      </trkpt>
      <trkpt lat="46.684680" lon="0.362210">
        <time>2017-06-24T12:48:46Z</time>
      </trkpt>
      <trkpt lat="46.684970" lon="0.362370">
        <time>2017-06-24T12:48:47Z</time>
      </trkpt>
      <trkpt lat="46.685210" lon="0.362510">
        <time>2017-06-24T12:48:48Z</time>
      </trkpt>
      <trkpt lat="46.685480" lon="0.362670">
        <time>2017-06-24T12:48:49Z</time>
      </trkpt>
      <trkpt lat="46.685740" lon="0.362820">
        <time>2017-06-24T12:48:50Z</time>
      </trkpt>
      <trkpt lat="46.686000" lon="0.362990">
        <time>2017-06-24T12:48:51Z</time>
      </trkpt>
      <trkpt lat="46.686270" lon="0.363160">
        <time>2017-06-24T12:48:52Z</time>
      </trkpt>
      <trkpt lat="46.686520" lon="0.363320">
        <time>2017-06-24T12:48:53Z</time>
      </trkpt>
      <trkpt lat="46.686780" lon="0.363490">
        <time>2017-06-24T12:48:54Z</time>
      </trkpt>
      <trkpt lat="46.687060" lon="0.363670">
        <time>2017-06-24T12:48:55Z</time>
      </trkpt>
      <trkpt lat="46.687310" lon="0.363840">
        <time>2017-06-24T12:48:56Z</time>
      </trkpt>
      <trkpt lat="46.687570" lon="0.364010">
        <time>2017-06-24T12:48:57Z</time>
      </trkpt>
      <trkpt lat="46.687840" lon="0.364200">
        <time>2017-06-24T12:48:58Z</time>
      </trkpt>
      <trkpt lat="46.688080" lon="0.364360">
        <time>2017-06-24T12:48:59Z</time>
      </trkpt>
      <trkpt lat="46.688350" lon="0.364540">
        <time>2017-06-24T12:49:00Z</time>
      </trkpt>
      <trkpt lat="46.688590" lon="0.364700">
        <time>2017-06-24T12:49:01Z</time>
      </trkpt>
      <trkpt lat="46.688840" lon="0.364870">
        <time>2017-06-24T12:49:02Z</time>
      </trkpt>
      <trkpt lat="46.689110" lon="0.365050">
        <time>2017-06-24T12:49:03Z</time>
      </trkpt>
      <trkpt lat="46.689360" lon="0.365220">
        <time>2017-06-24T12:49:04Z</time>
      </trkpt>
      <trkpt lat="46.689610" lon="0.365390">
        <time>2017-06-24T12:49:05Z</time>
      </trkpt>
      <trkpt lat="46.689880" lon="0.365570">
        <time>2017-06-24T12:49:06Z</time>
      </trkpt>
      <trkpt lat="46.690140" lon="0.365730">
        <time>2017-06-24T12:49:07Z</time>
      </trkpt>
      <trkpt lat="46.690410" lon="0.365910">
        <time>2017-06-24T12:49:08Z</time>
      </trkpt>
      <trkpt lat="46.690650" lon="0.366060">
        <time>2017-06-24T12:49:09Z</time>
      </trkpt>
      <trkpt lat="46.690920" lon="0.366220">
        <time>2017-06-24T12:49:10Z</time>
      </trkpt>
      <trkpt lat="46.691190" lon="0.366380">
        <time>2017-06-24T12:49:11Z</time>
      </trkpt>
      <trkpt lat="46.691440" lon="0.366530">
        <time>2017-06-24T12:49:12Z</time>
      </trkpt>
      <trkpt lat="46.691710" lon="0.366680">
        <time>2017-06-24T12:49:13Z</time>
      </trkpt>
      <trkpt lat="46.691980" lon="0.366840">
        <time>2017-06-24T12:49:14Z</time>
      </trkpt>
      <trkpt lat="46.692230" lon="0.366970">
        <time>2017-06-24T12:49:15Z</time>
      </trkpt>
      <trkpt lat="46.692510" lon="0.367120">
        <time>2017-06-24T12:49:16Z</time>
      </trkpt>
      <trkpt lat="46.692750" lon="0.367250">
        <time>2017-06-24T12:49:17Z</time>
      </trkpt>
      <trkpt lat="46.693010" lon="0.367390">
        <time>2017-06-24T12:49:18Z</time>
      </trkpt>
      <trkpt lat="46.693290" lon="0.367530">
        <time>2017-06-24T12:49:19Z</time>
      </trkpt>
      <trkpt lat="46.693530" lon="0.367640">
        <time>2017-06-24T12:49:20Z</time>
      </trkpt>
      <trkpt lat="46.693790" lon="0.367770">
        <time>2017-06-24T12:49:21Z</time>
      </trkpt>
      <trkpt lat="46.694060" lon="0.367890">
        <time>2017-06-24T12:49:22Z</time>
      </trkpt>
      <trkpt lat="46.694310" lon="0.368010">
        <time>2017-06-24T12:49:23Z</time>
      </trkpt>
      <trkpt lat="46.694590" lon="0.368150">
        <time>2017-06-24T12:49:24Z</time>
      </trkpt>
      <trkpt lat="46.694830" lon="0.368260">
        <time>2017-06-24T12:49:25Z</time>
      </trkpt>
      <trkpt lat="46.695090" lon="0.368370">
        <time>2017-06-24T12:49:26Z</time>
      </trkpt>
      <trkpt lat="46.695370" lon="0.368500">
        <time>2017-06-24T12:49:27Z</time>
      </trkpt>
      <trkpt lat="46.695620" lon="0.368600">
        <time>2017-06-24T12:49:28Z</time>
      </trkpt>
      <trkpt lat="46.695890" lon="0.368720">
        <time>2017-06-24T12:49:29Z</time>
      </trkpt>
      <trkpt lat="46.696170" lon="0.368840">
        <time>2017-06-24T12:49:30Z</time>
      </trkpt>
      <trkpt lat="46.696440" lon="0.368930">
        <time>2017-06-24T12:49:31Z</time>
      </trkpt>
      <trkpt lat="46.696740" lon="0.369040">
        <time>2017-06-24T12:49:32Z</time>
      </trkpt>
      <trkpt lat="46.697020" lon="0.369140">
        <time>2017-06-24T12:49:33Z</time>
      </trkpt>
      <trkpt lat="46.697310" lon="0.369240">
        <time>2017-06-24T12:49:34Z</time>
      </trkpt>
      <trkpt lat="46.697630" lon="0.369350">
        <time>2017-06-24T12:49:35Z</time>
      </trkpt>
      <trkpt lat="46.697920" lon="0.369440">
        <time>2017-06-24T12:49:36Z</time>
      </trkpt>
      <trkpt lat="46.698220" lon="0.369540">
        <time>2017-06-24T12:49:37Z</time>
      </trkpt>
      <trkpt lat="46.698530" lon="0.369640">
        <time>2017-06-24T12:49:38Z</time>
      </trkpt>
      <trkpt lat="46.698840" lon="0.369730">
        <time>2017-06-24T12:49:39Z</time>
      </trkpt>
      <trkpt lat="46.699160" lon="0.369830">
        <time>2017-06-24T12:49:40Z</time>
      </trkpt>
      <trkpt lat="46.699420" lon="0.369910">
        <time>2017-06-24T12:49:41Z</time>
      </trkpt>
      <trkpt lat="46.699710" lon="0.369990">
        <time>2017-06-24T12:49:42Z</time>
      </trkpt>
      <trkpt lat="46.700010" lon="0.370080">
        <time>2017-06-24T12:49:43Z</time>
      </trkpt>
      <trkpt lat="46.700280" lon="0.370160">
        <time>2017-06-24T12:49:44Z</time>
      </trkpt>
      <trkpt lat="46.700580" lon="0.370250">
        <time>2017-06-24T12:49:45Z</time>
      </trkpt>
      <trkpt lat="46.700890" lon="0.370350">
        <time>2017-06-24T12:49:46Z</time>
      </trkpt>
      <trkpt lat="46.701170" lon="0.370440">
        <time>2017-06-24T12:49:47Z</time>
      </trkpt>
      <trkpt lat="46.701490" lon="0.370550">
        <time>2017-06-24T12:49:48Z</time>
      </trkpt>
      <trkpt lat="46.701770" lon="0.370640">
        <time>2017-06-24T12:49:49Z</time>
      </trkpt>
      <trkpt lat="46.702060" lon="0.370740">
        <time>2017-06-24T12:49:50Z</time>
      </trkpt>
      <trkpt lat="46.702370" lon="0.370860">
        <time>2017-06-24T12:49:51Z</time>
      </trkpt>
      <trkpt lat="46.702650" lon="0.370960">
        <time>2017-06-24T12:49:52Z</time>
      </trkpt>
      <trkpt lat="46.702940" lon="0.371070">
        <time>2017-06-24T12:49:53Z</time>
      </trkpt>
      <trkpt lat="46.703230" lon="0.371190">
        <time>2017-06-24T12:49:54Z</time>
      </trkpt>
      <trkpt lat="46.703530" lon="0.371310">
        <time>2017-06-24T12:49:55Z</time>
      </trkpt>
      <trkpt lat="46.703840" lon="0.371430">
        <time>2017-06-24T12:49:56Z</time>
      </trkpt>
      <trkpt lat="46.704100" lon="0.371550">
        <time>2017-06-24T12:49:57Z</time>
      </trkpt>
      <trkpt lat="46.704380" lon="0.371670">
        <time>2017-06-24T12:49:58Z</time>
      </trkpt>
      <trkpt lat="46.704690" lon="0.371810">
        <time>2017-06-24T12:49:59Z</time>
      </trkpt>
      <trkpt lat="46.704960" lon="0.371930">
        <time>2017-06-24T12:50:00Z</time>
      </trkpt>
      <trkpt lat="46.705260" lon="0.372060">
        <time>2017-06-24T12:50:01Z</time>
      </trkpt>
      <trkpt lat="46.705570" lon="0.372210">
        <time>2017-06-24T12:50:02Z</time>
      </trkpt>
      <trkpt lat="46.705850" lon="0.372350">
        <time>2017-06-24T12:50:03Z</time>
      </trkpt>
      <trkpt lat="46.706170" lon="0.372510">
        <time>2017-06-24T12:50:04Z</time>
      </trkpt>
      <trkpt lat="46.706450" lon="0.372660">
        <time>2017-06-24T12:50:05Z</time>
      </trkpt>
      <trkpt lat="46.706750" lon="0.372820">
        <time>2017-06-24T12:50:06Z</time>
      </trkpt>
      <trkpt lat="46.707070" lon="0.372990">
        <time>2017-06-24T12:50:07Z</time>
      </trkpt>
      <trkpt lat="46.707350" lon="0.373130">
        <time>2017-06-24T12:50:08Z</time>
      </trkpt>
      <trkpt lat="46.707650" lon="0.373300">
        <time>2017-06-24T12:50:09Z</time>
      </trkpt>
      <trkpt lat="46.707950" lon="0.373460">
        <time>2017-06-24T12:50:10Z</time>
      </trkpt>
      <trkpt lat="46.708250" lon="0.373630">
        <time>2017-06-24T12:50:11Z</time>
      </trkpt>
      <trkpt lat="46.708580" lon="0.373810">
        <time>2017-06-24T12:50:12Z</time>
      </trkpt>
      <trkpt lat="46.708870" lon="0.373970">
        <time>2017-06-24T12:50:13Z</time>
      </trkpt>
      <trkpt lat="46.709160" lon="0.374150">
        <time>2017-06-24T12:50:14Z</time>
      </trkpt>
      <trkpt lat="46.709470" lon="0.374350">
        <time>2017-06-24T12:50:15Z</time>
      </trkpt>
      <trkpt lat="46.709740" lon="0.374530">
        <time>2017-06-24T12:50:16Z</time>
      </trkpt>
      <trkpt lat="46.710040" lon="0.374720">
        <time>2017-06-24T12:50:17Z</time>
      </trkpt>
      <trkpt lat="46.710350" lon="0.374940">
        <time>2017-06-24T12:50:18Z</time>
      </trkpt>
      <trkpt lat="46.710620" lon="0.375130">
        <time>2017-06-24T12:50:19Z</time>
      </trkpt>
      <trkpt lat="46.710920" lon="0.375340">
        <time>2017-06-24T12:50:20Z</time>
      </trkpt>
      <trkpt lat="46.711200" lon="0.375530">
        <time>2017-06-24T12:50:21Z</time>
      </trkpt>
      <trkpt lat="46.711480" lon="0.375740">
        <time>2017-06-24T12:50:22Z</time>
      </trkpt>
      <trkpt lat="46.711780" lon="0.375970">
        <time>2017-06-24T12:50:23Z</time>
      </trkpt>
      <trkpt lat="46.712040" lon="0.376180">
        <time>2017-06-24T12:50:24Z</time>
      </trkpt>
      <trkpt lat="46.712320" lon="0.376410">
        <time>2017-06-24T12:50:25Z</time>
      </trkpt>
      <trkpt lat="46.712600" lon="0.376630">
        <time>2017-06-24T12:50:26Z</time>
      </trkpt>
      <trkpt lat="46.712880" lon="0.376850">
        <time>2017-06-24T12:50:27Z</time>
      </trkpt>
      <trkpt lat="46.713170" lon="0.377080">
        <time>2017-06-24T12:50:28Z</time>
      </trkpt>
      <trkpt lat="46.713400" lon="0.377290">
        <time>2017-06-24T12:50:29Z</time>
      </trkpt>
      <trkpt lat="46.713680" lon="0.377520">
        <time>2017-06-24T12:50:30Z</time>
      </trkpt>
      <trkpt lat="46.713960" lon="0.377750">
        <time>2017-06-24T12:50:31Z</time>
      </trkpt>
      <trkpt lat="46.714210" lon="0.377970">
        <time>2017-06-24T12:50:32Z</time>
      </trkpt>
      <trkpt lat="46.714480" lon="0.378200">
        <time>2017-06-24T12:50:33Z</time>
      </trkpt>
      <trkpt lat="46.714760" lon="0.378450">
        <time>2017-06-24T12:50:34Z</time>
      </trkpt>
      <trkpt lat="46.715010" lon="0.378670">
        <time>2017-06-24T12:50:35Z</time>
      </trkpt>
      <trkpt lat="46.715290" lon="0.378920">
        <time>2017-06-24T12:50:36Z</time>
      </trkpt>
      <trkpt lat="46.715540" lon="0.379150">
        <time>2017-06-24T12:50:37Z</time>
      </trkpt>
      <trkpt lat="46.715810" lon="0.379400">
        <time>2017-06-24T12:50:38Z</time>
      </trkpt>
      <trkpt lat="46.716090" lon="0.379670">
        <time>2017-06-24T12:50:39Z</time>
      </trkpt>
      <trkpt lat="46.716340" lon="0.379910">
        <time>2017-06-24T12:50:40Z</time>
      </trkpt>
      <trkpt lat="46.716620" lon="0.380180">
        <time>2017-06-24T12:50:41Z</time>
      </trkpt>
      <trkpt lat="46.716890" lon="0.380450">
        <time>2017-06-24T12:50:42Z</time>
      </trkpt>
      <trkpt lat="46.717160" lon="0.380720">
        <time>2017-06-24T12:50:43Z</time>
      </trkpt>
      <trkpt lat="46.717440" lon="0.381010">
        <time>2017-06-24T12:50:44Z</time>
      </trkpt>
      <trkpt lat="46.717680" lon="0.381270">
        <time>2017-06-24T12:50:45Z</time>
      </trkpt>
      <trkpt lat="46.717950" lon="0.381550">
        <time>2017-06-24T12:50:46Z</time>
      </trkpt>
      <trkpt lat="46.718230" lon="0.381860">
        <time>2017-06-24T12:50:47Z</time>
      </trkpt>
      <trkpt lat="46.718470" lon="0.382130">
        <time>2017-06-24T12:50:48Z</time>
      </trkpt>
      <trkpt lat="46.718730" lon="0.382420">
        <time>2017-06-24T12:50:49Z</time>
      </trkpt>
      <trkpt lat="46.719010" lon="0.382740">
        <time>2017-06-24T12:50:50Z</time>
      </trkpt>
      <trkpt lat="46.719250" lon="0.383010">
        <time>2017-06-24T12:50:51Z</time>
      </trkpt>
      <trkpt lat="46.719520" lon="0.383330">
        <time>2017-06-24T12:50:52Z</time>
      </trkpt>
      <trkpt lat="46.719760" lon="0.383610">
        <time>2017-06-24T12:50:53Z</time>
      </trkpt>
      <trkpt lat="46.720010" lon="0.383910">
        <time>2017-06-24T12:50:54Z</time>
      </trkpt>
      <trkpt lat="46.720270" lon="0.384230">
        <time>2017-06-24T12:50:55Z</time>
      </trkpt>
      <trkpt lat="46.720510" lon="0.384530">
        <time>2017-06-24T12:50:56Z</time>
      </trkpt>
      <trkpt lat="46.720760" lon="0.384840">
        <time>2017-06-24T12:50:57Z</time>
      </trkpt>
      <trkpt lat="46.721010" lon="0.385150">
        <time>2017-06-24T12:50:58Z</time>
      </trkpt>
      <trkpt lat="46.721250" lon="0.385450">
        <time>2017-06-24T12:50:59Z</time>
      </trkpt>
      <trkpt lat="46.721510" lon="0.385790">
        <time>2017-06-24T12:51:00Z</time>
      </trkpt>
      <trkpt lat="46.721740" lon="0.386090">
        <time>2017-06-24T12:51:01Z</time>
      </trkpt>
      <trkpt lat="46.721980" lon="0.386400">
        <time>2017-06-24T12:51:02Z</time>
      </trkpt>
      <trkpt lat="46.722230" lon="0.386740">
        <time>2017-06-24T12:51:03Z</time>
      </trkpt>
      <trkpt lat="46.722450" lon="0.387030">
        <time>2017-06-24T12:51:04Z</time>
      </trkpt>
      <trkpt lat="46.722680" lon="0.387340">
        <time>2017-06-24T12:51:05Z</time>
      </trkpt>
      <trkpt lat="46.722940" lon="0.387670">
        <time>2017-06-24T12:51:06Z</time>
      </trkpt>
      <trkpt lat="46.723160" lon="0.387970">
        <time>2017-06-24T12:51:07Z</time>
      </trkpt>
      <trkpt lat="46.723410" lon="0.388300">
        <time>2017-06-24T12:51:08Z</time>
      </trkpt>
      <trkpt lat="46.723630" lon="0.388590">
        <time>2017-06-24T12:51:09Z</time>
      </trkpt>
      <trkpt lat="46.723870" lon="0.388890">
        <time>2017-06-24T12:51:10Z</time>
      </trkpt>
      <trkpt lat="46.724120" lon="0.389220">
        <time>2017-06-24T12:51:11Z</time>
      </trkpt>
      <trkpt lat="46.724340" lon="0.389510">
        <time>2017-06-24T12:51:12Z</time>
      </trkpt>
      <trkpt lat="46.724570" lon="0.389810">
        <time>2017-06-24T12:51:13Z</time>
      </trkpt>
      <trkpt lat="46.724800" lon="0.390120">
        <time>2017-06-24T12:51:14Z</time>
      </trkpt>
      <trkpt lat="46.725030" lon="0.390420">
        <time>2017-06-24T12:51:15Z</time>
      </trkpt>
      <trkpt lat="46.725280" lon="0.390740">
        <time>2017-06-24T12:51:16Z</time>
      </trkpt>
      <trkpt lat="46.725500" lon="0.391030">
        <time>2017-06-24T12:51:17Z</time>
      </trkpt>
      <trkpt lat="46.725730" lon="0.391330">
        <time>2017-06-24T12:51:18Z</time>
      </trkpt>
      <trkpt lat="46.725980" lon="0.391660">
        <time>2017-06-24T12:51:19Z</time>
      </trkpt>
      <trkpt lat="46.726200" lon="0.391940">
        <time>2017-06-24T12:51:20Z</time>
      </trkpt>
      <trkpt lat="46.726430" lon="0.392240">
        <time>2017-06-24T12:51:21Z</time>
      </trkpt>
      <trkpt lat="46.726670" lon="0.392560">
        <time>2017-06-24T12:51:22Z</time>
      </trkpt>
      <trkpt lat="46.726890" lon="0.392840">
        <time>2017-06-24T12:51:23Z</time>
      </trkpt>
      <trkpt lat="46.727140" lon="0.393160">
        <time>2017-06-24T12:51:24Z</time>
      </trkpt>
      <trkpt lat="46.727350" lon="0.393450">
        <time>2017-06-24T12:51:25Z</time>
      </trkpt>
      <trkpt lat="46.727590" lon="0.393750">
        <time>2017-06-24T12:51:26Z</time>
      </trkpt>
      <trkpt lat="46.727830" lon="0.394080">
        <time>2017-06-24T12:51:27Z</time>
      </trkpt>
      <trkpt lat="46.728050" lon="0.394360">
        <time>2017-06-24T12:51:28Z</time>
      </trkpt>
      <trkpt lat="46.728290" lon="0.394660">
        <time>2017-06-24T12:51:29Z</time>
      </trkpt>
      <trkpt lat="46.728520" lon="0.394970">
        <time>2017-06-24T12:51:30Z</time>
      </trkpt>
      <trkpt lat="46.728760" lon="0.395270">
        <time>2017-06-24T12:51:31Z</time>
      </trkpt>
      <trkpt lat="46.729000" lon="0.395580">
        <time>2017-06-24T12:51:32Z</time>
      </trkpt>
      <trkpt lat="46.729220" lon="0.395860">
        <time>2017-06-24T12:51:33Z</time>
      </trkpt>
      <trkpt lat="46.729450" lon="0.396160">
        <time>2017-06-24T12:51:34Z</time>
      </trkpt>
      <trkpt lat="46.729690" lon="0.396490">
        <time>2017-06-24T12:51:35Z</time>
      </trkpt>
      <trkpt lat="46.729910" lon="0.396770">
        <time>2017-06-24T12:51:36Z</time>
      </trkpt>
      <trkpt lat="46.730140" lon="0.397080">
        <time>2017-06-24T12:51:37Z</time>
      </trkpt>
      <trkpt lat="46.730370" lon="0.397400">
        <time>2017-06-24T12:51:38Z</time>
      </trkpt>
      <trkpt lat="46.730590" lon="0.397690">
        <time>2017-06-24T12:51:39Z</time>
      </trkpt>
      <trkpt lat="46.730830" lon="0.398020">
        <time>2017-06-24T12:51:40Z</time>
      </trkpt>
      <trkpt lat="46.731040" lon="0.398310">
        <time>2017-06-24T12:51:41Z</time>
      </trkpt>
      <trkpt lat="46.731270" lon="0.398620">
        <time>2017-06-24T12:51:42Z</time>
      </trkpt>
      <trkpt lat="46.731520" lon="0.398950">
        <time>2017-06-24T12:51:43Z</time>
      </trkpt>
      <trkpt lat="46.731730" lon="0.399240">
        <time>2017-06-24T12:51:44Z</time>
      </trkpt>
      <trkpt lat="46.731960" lon="0.399550">
        <time>2017-06-24T12:51:45Z</time>
      </trkpt>
      <trkpt lat="46.732190" lon="0.399870">
        <time>2017-06-24T12:51:46Z</time>
      </trkpt>
      <trkpt lat="46.732410" lon="0.400200">
        <time>2017-06-24T12:51:47Z</time>
      </trkpt>
      <trkpt lat="46.732640" lon="0.400550">
        <time>2017-06-24T12:51:48Z</time>
      </trkpt>
      <trkpt lat="46.732850" lon="0.400860">
        <time>2017-06-24T12:51:49Z</time>
      </trkpt>
      <trkpt lat="46.733070" lon="0.401190">
        <time>2017-06-24T12:51:50Z</time>
      </trkpt>
      <trkpt lat="46.733300" lon="0.401550">
        <time>2017-06-24T12:51:51Z</time>
      </trkpt>
      <trkpt lat="46.733510" lon="0.401870">
        <time>2017-06-24T12:51:52Z</time>
      </trkpt>
      <trkpt lat="46.733720" lon="0.402210">
        <time>2017-06-24T12:51:53Z</time>
      </trkpt>
      <trkpt lat="46.733950" lon="0.402580">
        <time>2017-06-24T12:51:54Z</time>
      </trkpt>
      <trkpt lat="46.734150" lon="0.402910">
        <time>2017-06-24T12:51:55Z</time>
      </trkpt>
      <trkpt lat="46.734380" lon="0.403290">
        <time>2017-06-24T12:51:56Z</time>
      </trkpt>
      <trkpt lat="46.734580" lon="0.403630">
        <time>2017-06-24T12:51:57Z</time>
      </trkpt>
      <trkpt lat="46.734790" lon="0.404000">
        <time>2017-06-24T12:51:58Z</time>
      </trkpt>
      <trkpt lat="46.735010" lon="0.404390">
        <time>2017-06-24T12:51:59Z</time>
      </trkpt>
      <trkpt lat="46.735210" lon="0.404740">
        <time>2017-06-24T12:52:00Z</time>
      </trkpt>
      <trkpt lat="46.735410" lon="0.405110">
        <time>2017-06-24T12:52:01Z</time>
      </trkpt>
      <trkpt lat="46.735610" lon="0.405490">
        <time>2017-06-24T12:52:02Z</time>
      </trkpt>
      <trkpt lat="46.735820" lon="0.405860">
        <time>2017-06-24T12:52:03Z</time>
      </trkpt>
      <trkpt lat="46.736040" lon="0.406260">
        <time>2017-06-24T12:52:04Z</time>
      </trkpt>
      <trkpt lat="46.736230" lon="0.406610">
        <time>2017-06-24T12:52:05Z</time>
      </trkpt>
      <trkpt lat="46.736430" lon="0.406990">
        <time>2017-06-24T12:52:06Z</time>
      </trkpt>
      <trkpt lat="46.736640" lon="0.407390">
        <time>2017-06-24T12:52:07Z</time>
      </trkpt>
      <trkpt lat="46.736820" lon="0.407760">
        <time>2017-06-24T12:52:08Z</time>
      </trkpt>
      <trkpt lat="46.737010" lon="0.408150">
        <time>2017-06-24T12:52:09Z</time>
      </trkpt>
      <trkpt lat="46.737210" lon="0.408580">
        <time>2017-06-24T12:52:10Z</time>
      </trkpt>
      <trkpt lat="46.737380" lon="0.408950">
        <time>2017-06-24T12:52:11Z</time>
      </trkpt>
      <trkpt lat="46.737580" lon="0.409380">
        <time>2017-06-24T12:52:12Z</time>
      </trkpt>
      <trkpt lat="46.737750" lon="0.409750">
        <time>2017-06-24T12:52:13Z</time>
      </trkpt>
      <trkpt lat="46.737930" lon="0.410160">
        <time>2017-06-24T12:52:14Z</time>
      </trkpt>
      <trkpt lat="46.738110" lon="0.410600">
        <time>2017-06-24T12:52:15Z</time>
      </trkpt>
      <trkpt lat="46.738270" lon="0.410990">
        <time>2017-06-24T12:52:16Z</time>
      </trkpt>
      <trkpt lat="46.738430" lon="0.411400">
        <time>2017-06-24T12:52:17Z</time>
      </trkpt>
      <trkpt lat="46.738600" lon="0.411810">
        <time>2017-06-24T12:52:18Z</time>
      </trkpt>
      <trkpt lat="46.738770" lon="0.412230">
        <time>2017-06-24T12:52:19Z</time>
      </trkpt>
      <trkpt lat="46.738950" lon="0.412680">
        <time>2017-06-24T12:52:20Z</time>
      </trkpt>
      <trkpt lat="46.739110" lon="0.413070">
        <time>2017-06-24T12:52:21Z</time>
      </trkpt>
      <trkpt lat="46.739280" lon="0.413500">
        <time>2017-06-24T12:52:22Z</time>
      </trkpt>
      <trkpt lat="46.739460" lon="0.413970">
        <time>2017-06-24T12:52:23Z</time>
      </trkpt>
      <trkpt lat="46.739610" lon="0.414370">
        <time>2017-06-24T12:52:24Z</time>
      </trkpt>
      <trkpt lat="46.739760" lon="0.414810">
        <time>2017-06-24T12:52:25Z</time>
      </trkpt>
      <trkpt lat="46.739920" lon="0.415270">
        <time>2017-06-24T12:52:26Z</time>
      </trkpt>
      <trkpt lat="46.740060" lon="0.415680">
        <time>2017-06-24T12:52:27Z</time>
      </trkpt>
      <trkpt lat="46.740210" lon="0.416150">
        <time>2017-06-24T12:52:28Z</time>
      </trkpt>
      <trkpt lat="46.740330" lon="0.416560">
        <time>2017-06-24T12:52:29Z</time>
      </trkpt>
      <trkpt lat="46.740470" lon="0.416990">
        <time>2017-06-24T12:52:30Z</time>
      </trkpt>
      <trkpt lat="46.740610" lon="0.417450">
        <time>2017-06-24T12:52:31Z</time>
      </trkpt>
      <trkpt lat="46.740740" lon="0.417860">
        <time>2017-06-24T12:52:32Z</time>
      </trkpt>
      <trkpt lat="46.740880" lon="0.418290">
        <time>2017-06-24T12:52:33Z</time>
      </trkpt>
      <trkpt lat="46.741010" lon="0.418720">
        <time>2017-06-24T12:52:34Z</time>
      </trkpt>
      <trkpt lat="46.741150" lon="0.419150">
        <time>2017-06-24T12:52:35Z</time>
      </trkpt>
      <trkpt lat="46.741290" lon="0.419610">
        <time>2017-06-24T12:52:36Z</time>
      </trkpt>
      <trkpt lat="46.741420" lon="0.420010">
        <time>2017-06-24T12:52:37Z</time>
      </trkpt>
      <trkpt lat="46.741560" lon="0.420440">
        <time>2017-06-24T12:52:38Z</time>
      </trkpt>
      <trkpt lat="46.741700" lon="0.420890">
        <time>2017-06-24T12:52:39Z</time>
      </trkpt>
      <trkpt lat="46.741830" lon="0.421290">
        <time>2017-06-24T12:52:40Z</time>
      </trkpt>
      <trkpt lat="46.741980" lon="0.421720">
        <time>2017-06-24T12:52:41Z</time>
      </trkpt>
      <trkpt lat="46.742130" lon="0.422170">
        <time>2017-06-24T12:52:42Z</time>
      </trkpt>
      <trkpt lat="46.742260" lon="0.422560">
        <time>2017-06-24T12:52:43Z</time>
      </trkpt>
      <trkpt lat="46.742410" lon="0.423010">
        <time>2017-06-24T12:52:44Z</time>
      </trkpt>
      <trkpt lat="46.742550" lon="0.423410">
        <time>2017-06-24T12:52:45Z</time>
      </trkpt>
      <trkpt lat="46.742710" lon="0.423830">
        <time>2017-06-24T12:52:46Z</time>
      </trkpt>
      <trkpt lat="46.742870" lon="0.424290">
        <time>2017-06-24T12:52:47Z</time>
      </trkpt>
      <trkpt lat="46.743010" lon="0.424680">
        <time>2017-06-24T12:52:48Z</time>
      </trkpt>
      <trkpt lat="46.743170" lon="0.425110">
        <time>2017-06-24T12:52:49Z</time>
      </trkpt>
      <trkpt lat="46.743320" lon="0.425520">
        <time>2017-06-24T12:52:50Z</time>
      </trkpt>
      <trkpt lat="46.743480" lon="0.425940">
        <time>2017-06-24T12:52:51Z</time>
      </trkpt>
      <trkpt lat="46.743650" lon="0.426370">
        <time>2017-06-24T12:52:52Z</time>
      </trkpt>
      <trkpt lat="46.743800" lon="0.426750">
        <time>2017-06-24T12:52:53Z</time>
      </trkpt>
      <trkpt lat="46.743960" lon="0.427160">
        <time>2017-06-24T12:52:54Z</time>
      </trkpt>
      <trkpt lat="46.744130" lon="0.427600">
        <time>2017-06-24T12:52:55Z</time>
      </trkpt>
      <trkpt lat="46.744290" lon="0.427980">
        <time>2017-06-24T12:52:56Z</time>
      </trkpt>
      <trkpt lat="46.744460" lon="0.428380">
        <time>2017-06-24T12:52:57Z</time>
      </trkpt>
      <trkpt lat="46.744640" lon="0.428810">
        <time>2017-06-24T12:52:58Z</time>
      </trkpt>
      <trkpt lat="46.744800" lon="0.429190">
        <time>2017-06-24T12:52:59Z</time>
      </trkpt>
      <trkpt lat="46.744990" lon="0.429620">
        <time>2017-06-24T12:53:00Z</time>
      </trkpt>
      <trkpt lat="46.745160" lon="0.429990">
        <time>2017-06-24T12:53:01Z</time>
      </trkpt>
      <trkpt lat="46.745350" lon="0.430390">
        <time>2017-06-24T12:53:02Z</time>
      </trkpt>
      <trkpt lat="46.745550" lon="0.430820">
        <time>2017-06-24T12:53:03Z</time>
      </trkpt>
      <trkpt lat="46.745730" lon="0.431200">
        <time>2017-06-24T12:53:04Z</time>
      </trkpt>
      <trkpt lat="46.745920" lon="0.431600">
        <time>2017-06-24T12:53:05Z</time>
      </trkpt>
      <trkpt lat="46.746110" lon="0.432000">
        <time>2017-06-24T12:53:06Z</time>
      </trkpt>
      <trkpt lat="46.746310" lon="0.432400">
        <time>2017-06-24T12:53:07Z</time>
      </trkpt>
      <trkpt lat="46.746520" lon="0.432830">
        <time>2017-06-24T12:53:08Z</time>
      </trkpt>
      <trkpt lat="46.746710" lon="0.433200">
        <time>2017-06-24T12:53:09Z</time>
      </trkpt>
      <trkpt lat="46.746920" lon="0.433600">
        <time>2017-06-24T12:53:10Z</time>
      </trkpt>
      <trkpt lat="46.747130" lon="0.434020">
        <time>2017-06-24T12:53:11Z</time>
      </trkpt>
      <trkpt lat="46.747330" lon="0.434380">
        <time>2017-06-24T12:53:12Z</time>
      </trkpt>
      <trkpt lat="46.747530" lon="0.434770">
        <time>2017-06-24T12:53:13Z</time>
      </trkpt>
      <trkpt lat="46.747750" lon="0.435170">
        <time>2017-06-24T12:53:14Z</time>
      </trkpt>
      <trkpt lat="46.747950" lon="0.435510">
        <time>2017-06-24T12:53:15Z</time>
      </trkpt>
      <trkpt lat="46.748170" lon="0.435910">
        <time>2017-06-24T12:53:16Z</time>
      </trkpt>
      <trkpt lat="46.748360" lon="0.436250">
        <time>2017-06-24T12:53:17Z</time>
      </trkpt>
      <trkpt lat="46.748570" lon="0.436610">
        <time>2017-06-24T12:53:18Z</time>
      </trkpt>
      <trkpt lat="46.748790" lon="0.436980">
        <time>2017-06-24T12:53:19Z</time>
      </trkpt>
      <trkpt lat="46.748980" lon="0.437310">
        <time>2017-06-24T12:53:20Z</time>
      </trkpt>
      <trkpt lat="46.749190" lon="0.437660">
        <time>2017-06-24T12:53:21Z</time>
      </trkpt>
      <trkpt lat="46.749400" lon="0.438000">
        <time>2017-06-24T12:53:22Z</time>
      </trkpt>
      <trkpt lat="46.749610" lon="0.438340">
        <time>2017-06-24T12:53:23Z</time>
      </trkpt>
      <trkpt lat="46.749840" lon="0.438710">
        <time>2017-06-24T12:53:24Z</time>
      </trkpt>
      <trkpt lat="46.750050" lon="0.439030">
        <time>2017-06-24T12:53:25Z</time>
      </trkpt>
      <trkpt lat="46.750270" lon="0.439370">
        <time>2017-06-24T12:53:26Z</time>
      </trkpt>
      <trkpt lat="46.750510" lon="0.439740">
        <time>2017-06-24T12:53:27Z</time>
      </trkpt>
      <trkpt lat="46.750710" lon="0.440060">
        <time>2017-06-24T12:53:28Z</time>
      </trkpt>
      <trkpt lat="46.750940" lon="0.440400">
        <time>2017-06-24T12:53:29Z</time>
      </trkpt>
      <trkpt lat="46.751180" lon="0.440760">
        <time>2017-06-24T12:53:30Z</time>
      </trkpt>
      <trkpt lat="46.751380" lon="0.441090">
        <time>2017-06-24T12:53:31Z</time>
      </trkpt>
      <trkpt lat="46.751620" lon="0.441450">
        <time>2017-06-24T12:53:32Z</time>
      </trkpt>
      <trkpt lat="46.751820" lon="0.441770">
        <time>2017-06-24T12:53:33Z</time>
      </trkpt>
      <trkpt lat="46.752040" lon="0.442130">
        <time>2017-06-24T12:53:34Z</time>
      </trkpt>
      <trkpt lat="46.752280" lon="0.442500">
        <time>2017-06-24T12:53:35Z</time>
      </trkpt>
      <trkpt lat="46.752500" lon="0.442810">
        <time>2017-06-24T12:53:36Z</time>
      </trkpt>
      <trkpt lat="46.752720" lon="0.443150">
        <time>2017-06-24T12:53:37Z</time>
      </trkpt>
      <trkpt lat="46.752940" lon="0.443490">
        <time>2017-06-24T12:53:38Z</time>
      </trkpt>
      <trkpt lat="46.753160" lon="0.443830">
        <time>2017-06-24T12:53:39Z</time>
      </trkpt>
      <trkpt lat="46.753400" lon="0.444190">
        <time>2017-06-24T12:53:40Z</time>
      </trkpt>
      <trkpt lat="46.753610" lon="0.444510">
        <time>2017-06-24T12:53:41Z</time>
      </trkpt>
      <trkpt lat="46.753830" lon="0.444850">
        <time>2017-06-24T12:53:42Z</time>
      </trkpt>
      <trkpt lat="46.754060" lon="0.445210">
        <time>2017-06-24T12:53:43Z</time>
      </trkpt>
      <trkpt lat="46.754270" lon="0.445520">
        <time>2017-06-24T12:53:44Z</time>
      </trkpt>
      <trkpt lat="46.754490" lon="0.445870">
        <time>2017-06-24T12:53:45Z</time>
      </trkpt>
      <trkpt lat="46.754710" lon="0.446250">
        <time>2017-06-24T12:53:46Z</time>
      </trkpt>
      <trkpt lat="46.754910" lon="0.446580">
        <time>2017-06-24T12:53:47Z</time>
      </trkpt>
      <trkpt lat="46.755150" lon="0.446960">
        <time>2017-06-24T12:53:48Z</time>
      </trkpt>
      <trkpt lat="46.755350" lon="0.447290">
        <time>2017-06-24T12:53:49Z</time>
      </trkpt>
      <trkpt lat="46.755580" lon="0.447650">
        <time>2017-06-24T12:53:50Z</time>
      </trkpt>
      <trkpt lat="46.755820" lon="0.448040">
        <time>2017-06-24T12:53:51Z</time>
      </trkpt>
      <trkpt lat="46.756030" lon="0.448380">
        <time>2017-06-24T12:53:52Z</time>
      </trkpt>
      <trkpt lat="46.756250" lon="0.448740">
        <time>2017-06-24T12:53:53Z</time>
      </trkpt>
      <trkpt lat="46.756480" lon="0.449100">
        <time>2017-06-24T12:53:54Z</time>
      </trkpt>
      <trkpt lat="46.756690" lon="0.449470">
        <time>2017-06-24T12:53:55Z</time>
      </trkpt>
      <trkpt lat="46.756920" lon="0.449860">
        <time>2017-06-24T12:53:56Z</time>
      </trkpt>
      <trkpt lat="46.757130" lon="0.450200">
        <time>2017-06-24T12:53:57Z</time>
      </trkpt>
      <trkpt lat="46.757340" lon="0.450570">
        <time>2017-06-24T12:53:58Z</time>
      </trkpt>
      <trkpt lat="46.757560" lon="0.450970">
        <time>2017-06-24T12:53:59Z</time>
      </trkpt>
      <trkpt lat="46.757750" lon="0.451310">
        <time>2017-06-24T12:54:00Z</time>
      </trkpt>
      <trkpt lat="46.757960" lon="0.451690">
        <time>2017-06-24T12:54:01Z</time>
      </trkpt>
      <trkpt lat="46.758180" lon="0.452090">
        <time>2017-06-24T12:54:02Z</time>
      </trkpt>
      <trkpt lat="46.758370" lon="0.452440">
        <time>2017-06-24T12:54:03Z</time>
      </trkpt>
      <trkpt lat="46.758590" lon="0.452840">
        <time>2017-06-24T12:54:04Z</time>
      </trkpt>
      <trkpt lat="46.758780" lon="0.453200">
        <time>2017-06-24T12:54:05Z</time>
      </trkpt>
      <trkpt lat="46.758990" lon="0.453580">
        <time>2017-06-24T12:54:06Z</time>
      </trkpt>
      <trkpt lat="46.759200" lon="0.453990">
        <time>2017-06-24T12:54:07Z</time>
      </trkpt>
      <trkpt lat="46.759390" lon="0.454350">
        <time>2017-06-24T12:54:08Z</time>
      </trkpt>
      <trkpt lat="46.759590" lon="0.454750">
        <time>2017-06-24T12:54:09Z</time>
      </trkpt>
      <trkpt lat="46.759790" lon="0.455150">
        <time>2017-06-24T12:54:10Z</time>
      </trkpt>
      <trkpt lat="46.759990" lon="0.455560">
        <time>2017-06-24T12:54:11Z</time>
      </trkpt>
      <trkpt lat="46.760190" lon="0.455990">
        <time>2017-06-24T12:54:12Z</time>
      </trkpt>
      <trkpt lat="46.760360" lon="0.456380">
        <time>2017-06-24T12:54:13Z</time>
      </trkpt>
      <trkpt lat="46.760540" lon="0.456790">
        <time>2017-06-24T12:54:14Z</time>
      </trkpt>
      <trkpt lat="46.760720" lon="0.457230">
        <time>2017-06-24T12:54:15Z</time>
      </trkpt>
      <trkpt lat="46.760890" lon="0.457620">
        <time>2017-06-24T12:54:16Z</time>
      </trkpt>
      <trkpt lat="46.761070" lon="0.458030">
        <time>2017-06-24T12:54:17Z</time>
      </trkpt>
      <trkpt lat="46.761250" lon="0.458470">
        <time>2017-06-24T12:54:18Z</time>
      </trkpt>
      <trkpt lat="46.761410" lon="0.458850">
        <time>2017-06-24T12:54:19Z</time>
      </trkpt>
      <trkpt lat="46.761600" lon="0.459290">
        <time>2017-06-24T12:54:20Z</time>
      </trkpt>
      <trkpt lat="46.761760" lon="0.459680">
        <time>2017-06-24T12:54:21Z</time>
      </trkpt>
      <trkpt lat="46.761930" lon="0.460080">
        <time>2017-06-24T12:54:22Z</time>
      </trkpt>
      <trkpt lat="46.762100" lon="0.460520">
        <time>2017-06-24T12:54:23Z</time>
      </trkpt>
      <trkpt lat="46.762250" lon="0.460890">
        <time>2017-06-24T12:54:24Z</time>
      </trkpt>
      <trkpt lat="46.762420" lon="0.461290">
        <time>2017-06-24T12:54:25Z</time>
      </trkpt>
      <trkpt lat="46.762580" lon="0.461690">
        <time>2017-06-24T12:54:26Z</time>
      </trkpt>
      <trkpt lat="46.762740" lon="0.462100">
        <time>2017-06-24T12:54:27Z</time>
      </trkpt>
      <trkpt lat="46.762910" lon="0.462520">
        <time>2017-06-24T12:54:28Z</time>
      </trkpt>
      <trkpt lat="46.763060" lon="0.462900">
        <time>2017-06-24T12:54:29Z</time>
      </trkpt>
      <trkpt lat="46.763210" lon="0.463300">
        <time>2017-06-24T12:54:30Z</time>
      </trkpt>
      <trkpt lat="46.763380" lon="0.463730">
        <time>2017-06-24T12:54:31Z</time>
      </trkpt>
      <trkpt lat="46.763520" lon="0.464100">
        <time>2017-06-24T12:54:32Z</time>
      </trkpt>
      <trkpt lat="46.763680" lon="0.464500">
        <time>2017-06-24T12:54:33Z</time>
      </trkpt>
      <trkpt lat="46.763840" lon="0.464930">
        <time>2017-06-24T12:54:34Z</time>
      </trkpt>
      <trkpt lat="46.763990" lon="0.465310">
        <time>2017-06-24T12:54:35Z</time>
      </trkpt>
      <trkpt lat="46.764160" lon="0.465740">
        <time>2017-06-24T12:54:36Z</time>
      </trkpt>
      <trkpt lat="46.764310" lon="0.466120">
        <time>2017-06-24T12:54:37Z</time>
      </trkpt>
      <trkpt lat="46.764470" lon="0.466510">
        <time>2017-06-24T12:54:38Z</time>
      </trkpt>
      <trkpt lat="46.764630" lon="0.466940">
        <time>2017-06-24T12:54:39Z</time>
      </trkpt>
      <trkpt lat="46.764770" lon="0.467310">
        <time>2017-06-24T12:54:40Z</time>
      </trkpt>
      <trkpt lat="46.764930" lon="0.467700">
        <time>2017-06-24T12:54:41Z</time>
      </trkpt>
      <trkpt lat="46.765090" lon="0.468090">
        <time>2017-06-24T12:54:42Z</time>
      </trkpt>
      <trkpt lat="46.765240" lon="0.468490">
        <time>2017-06-24T12:54:43Z</time>
      </trkpt>
      <trkpt lat="46.765400" lon="0.468900">
        <time>2017-06-24T12:54:44Z</time>
      </trkpt>
      <trkpt lat="46.765540" lon="0.469260">
        <time>2017-06-24T12:54:45Z</time>
      </trkpt>
      <trkpt lat="46.765690" lon="0.469640">
        <time>2017-06-24T12:54:46Z</time>
      </trkpt>
      <trkpt lat="46.765850" lon="0.470040">
        <time>2017-06-24T12:54:47Z</time>
      </trkpt>
      <trkpt lat="46.765990" lon="0.470400">
        <time>2017-06-24T12:54:48Z</time>
      </trkpt>
      <trkpt lat="46.766150" lon="0.470780">
        <time>2017-06-24T12:54:49Z</time>
      </trkpt>
      <trkpt lat="46.766320" lon="0.471180">
        <time>2017-06-24T12:54:50Z</time>
      </trkpt>
      <trkpt lat="46.766460" lon="0.471540">
        <time>2017-06-24T12:54:51Z</time>
      </trkpt>
      <trkpt lat="46.766640" lon="0.471960">
        <time>2017-06-24T12:54:52Z</time>
      </trkpt>
      <trkpt lat="46.766790" lon="0.472330">
        <time>2017-06-24T12:54:53Z</time>
      </trkpt>
      <trkpt lat="46.766950" lon="0.472730">
        <time>2017-06-24T12:54:54Z</time>
      </trkpt>
      <trkpt lat="46.767120" lon="0.473160">
        <time>2017-06-24T12:54:55Z</time>
      </trkpt>
      <trkpt lat="46.767270" lon="0.473540">
        <time>2017-06-24T12:54:56Z</time>
      </trkpt>
      <trkpt lat="46.767430" lon="0.473940">
        <time>2017-06-24T12:54:57Z</time>
      </trkpt>
      <trkpt lat="46.767590" lon="0.474350">
        <time>2017-06-24T12:54:58Z</time>
      </trkpt>
      <trkpt lat="46.767750" lon="0.474760">
        <time>2017-06-24T12:54:59Z</time>
      </trkpt>
      <trkpt lat="46.767920" lon="0.475200">
        <time>2017-06-24T12:55:00Z</time>
      </trkpt>
      <trkpt lat="46.768070" lon="0.475580">
        <time>2017-06-24T12:55:01Z</time>
      </trkpt>
      <trkpt lat="46.768240" lon="0.475980">
        <time>2017-06-24T12:55:02Z</time>
      </trkpt>
      <trkpt lat="46.768400" lon="0.476410">
        <time>2017-06-24T12:55:03Z</time>
      </trkpt>
      <trkpt lat="46.768540" lon="0.476790">
        <time>2017-06-24T12:55:04Z</time>
      </trkpt>
      <trkpt lat="46.768710" lon="0.477190">
        <time>2017-06-24T12:55:05Z</time>
      </trkpt>
      <trkpt lat="46.768870" lon="0.477610">
        <time>2017-06-24T12:55:06Z</time>
      </trkpt>
      <trkpt lat="46.769020" lon="0.477980">
        <time>2017-06-24T12:55:07Z</time>
      </trkpt>
      <trkpt lat="46.769190" lon="0.478400">
        <time>2017-06-24T12:55:08Z</time>
      </trkpt>
      <trkpt lat="46.769330" lon="0.478770">
        <time>2017-06-24T12:55:09Z</time>
      </trkpt>
      <trkpt lat="46.769480" lon="0.479170">
        <time>2017-06-24T12:55:10Z</time>
      </trkpt>
      <trkpt lat="46.769640" lon="0.479600">
        <time>2017-06-24T12:55:11Z</time>
      </trkpt>
      <trkpt lat="46.769770" lon="0.479990">
        <time>2017-06-24T12:55:12Z</time>
      </trkpt>
      <trkpt lat="46.769920" lon="0.480390">
        <time>2017-06-24T12:55:13Z</time>
      </trkpt>
      <trkpt lat="46.770070" lon="0.480780">
        <time>2017-06-24T12:55:14Z</time>
      </trkpt>
      <trkpt lat="46.770230" lon="0.481180">
        <time>2017-06-24T12:55:15Z</time>
      </trkpt>
      <trkpt lat="46.770400" lon="0.481600">
        <time>2017-06-24T12:55:16Z</time>
      </trkpt>
      <trkpt lat="46.770550" lon="0.481970">
        <time>2017-06-24T12:55:17Z</time>
      </trkpt>
      <trkpt lat="46.770710" lon="0.482360">
        <time>2017-06-24T12:55:18Z</time>
      </trkpt>
      <trkpt lat="46.770880" lon="0.482780">
        <time>2017-06-24T12:55:19Z</time>
      </trkpt>
      <trkpt lat="46.771030" lon="0.483160">
        <time>2017-06-24T12:55:20Z</time>
      </trkpt>
      <trkpt lat="46.771190" lon="0.483560">
        <time>2017-06-24T12:55:21Z</time>
      </trkpt>
      <trkpt lat="46.771360" lon="0.483990">
        <time>2017-06-24T12:55:22Z</time>
      </trkpt>
      <trkpt lat="46.771520" lon="0.484360">
        <time>2017-06-24T12:55:23Z</time>
      </trkpt>
      <trkpt lat="46.771690" lon="0.484790">
        <time>2017-06-24T12:55:24Z</time>
      </trkpt>
      <trkpt lat="46.771840" lon="0.485160">
        <time>2017-06-24T12:55:25Z</time>
      </trkpt>
      <trkpt lat="46.772010" lon="0.485550">
        <time>2017-06-24T12:55:26Z</time>
      </trkpt>
      <trkpt lat="46.772190" lon="0.485960">
        <time>2017-06-24T12:55:27Z</time>
      </trkpt>
      <trkpt lat="46.772340" lon="0.486310">
        <time>2017-06-24T12:55:28Z</time>
      </trkpt>
      <trkpt lat="46.772510" lon="0.486680">
        <time>2017-06-24T12:55:29Z</time>
      </trkpt>
      <trkpt lat="46.772690" lon="0.487050">
        <time>2017-06-24T12:55:30Z</time>
      </trkpt>
      <trkpt lat="46.772860" lon="0.487420">
        <time>2017-06-24T12:55:31Z</time>
      </trkpt>
      <trkpt lat="46.773040" lon="0.487820">
        <time>2017-06-24T12:55:32Z</time>
      </trkpt>
      <trkpt lat="46.773210" lon="0.488160">
        <time>2017-06-24T12:55:33Z</time>
      </trkpt>
      <trkpt lat="46.773390" lon="0.488530">
        <time>2017-06-24T12:55:34Z</time>
      </trkpt>
      <trkpt lat="46.773590" lon="0.488920">
        <time>2017-06-24T12:55:35Z</time>
      </trkpt>
      <trkpt lat="46.773760" lon="0.489260">
        <time>2017-06-24T12:55:36Z</time>
      </trkpt>
      <trkpt lat="46.773960" lon="0.489630">
        <time>2017-06-24T12:55:37Z</time>
      </trkpt>
      <trkpt lat="46.774160" lon="0.490020">
        <time>2017-06-24T12:55:38Z</time>
      </trkpt>
      <trkpt lat="46.774350" lon="0.490360">
        <time>2017-06-24T12:55:39Z</time>
      </trkpt>
      <trkpt lat="46.774560" lon="0.490750">
        <time>2017-06-24T12:55:40Z</time>
      </trkpt>
      <trkpt lat="46.774750" lon="0.491080">
        <time>2017-06-24T12:55:41Z</time>
      </trkpt>
      <trkpt lat="46.774950" lon="0.491440">
        <time>2017-06-24T12:55:42Z</time>
      </trkpt>
      <trkpt lat="46.775160" lon="0.491810">
        <time>2017-06-24T12:55:43Z</time>
      </trkpt>
      <trkpt lat="46.775350" lon="0.492130">
        <time>2017-06-24T12:55:44Z</time>
      </trkpt>
      <trkpt lat="46.775540" lon="0.492480">
        <time>2017-06-24T12:55:45Z</time>
      </trkpt>
      <trkpt lat="46.775730" lon="0.492840">
        <time>2017-06-24T12:55:46Z</time>
      </trkpt>
      <trkpt lat="46.775920" lon="0.493180">
        <time>2017-06-24T12:55:47Z</time>
      </trkpt>
      <trkpt lat="46.776130" lon="0.493540">
        <time>2017-06-24T12:55:48Z</time>
      </trkpt>
      <trkpt lat="46.776320" lon="0.493860">
        <time>2017-06-24T12:55:49Z</time>
      </trkpt>
      <trkpt lat="46.776520" lon="0.494180">
        <time>2017-06-24T12:55:50Z</time>
      </trkpt>
      <trkpt lat="46.776740" lon="0.494530">
        <time>2017-06-24T12:55:51Z</time>
      </trkpt>
      <trkpt lat="46.776930" lon="0.494830">
        <time>2017-06-24T12:55:52Z</time>
      </trkpt>
      <trkpt lat="46.777140" lon="0.495150">
        <time>2017-06-24T12:55:53Z</time>
      </trkpt>
      <trkpt lat="46.777350" lon="0.495490">
        <time>2017-06-24T12:55:54Z</time>
      </trkpt>
      <trkpt lat="46.777550" lon="0.495780">
        <time>2017-06-24T12:55:55Z</time>
      </trkpt>
      <trkpt lat="46.777780" lon="0.496110">
        <time>2017-06-24T12:55:56Z</time>
      </trkpt>
      <trkpt lat="46.777990" lon="0.496410">
        <time>2017-06-24T12:55:57Z</time>
      </trkpt>
      <trkpt lat="46.778200" lon="0.496710">
        <time>2017-06-24T12:55:58Z</time>
      </trkpt>
      <trkpt lat="46.778430" lon="0.497020">
        <time>2017-06-24T12:55:59Z</time>
      </trkpt>
      <trkpt lat="46.778630" lon="0.497300">
        <time>2017-06-24T12:56:00Z</time>
      </trkpt>
      <trkpt lat="46.778850" lon="0.497590">
        <time>2017-06-24T12:56:01Z</time>
      </trkpt>
      <trkpt lat="46.779070" lon="0.497890">
        <time>2017-06-24T12:56:02Z</time>
      </trkpt>
      <trkpt lat="46.779290" lon="0.498180">
        <time>2017-06-24T12:56:03Z</time>
      </trkpt>
      <trkpt lat="46.779540" lon="0.498500">
        <time>2017-06-24T12:56:04Z</time>
      </trkpt>
      <trkpt lat="46.779740" lon="0.498760">
        <time>2017-06-24T12:56:05Z</time>
      </trkpt>
      <trkpt lat="46.779970" lon="0.499050">
        <time>2017-06-24T12:56:06Z</time>
      </trkpt>
      <trkpt lat="46.780230" lon="0.499360">
        <time>2017-06-24T12:56:07Z</time>
      </trkpt>
      <trkpt lat="46.780460" lon="0.499630">
        <time>2017-06-24T12:56:08Z</time>
      </trkpt>
      <trkpt lat="46.780710" lon="0.499910">
        <time>2017-06-24T12:56:09Z</time>
      </trkpt>
      <trkpt lat="46.780980" lon="0.500210">
        <time>2017-06-24T12:56:10Z</time>
      </trkpt>
      <trkpt lat="46.781220" lon="0.500500">
        <time>2017-06-24T12:56:11Z</time>
      </trkpt>
      <trkpt lat="46.781490" lon="0.500800">
        <time>2017-06-24T12:56:12Z</time>
      </trkpt>
      <trkpt lat="46.781740" lon="0.501070">
        <time>2017-06-24T12:56:13Z</time>
      </trkpt>
      <trkpt lat="46.782000" lon="0.501360">
        <time>2017-06-24T12:56:14Z</time>
      </trkpt>
      <trkpt lat="46.782270" lon="0.501660">
        <time>2017-06-24T12:56:15Z</time>
      </trkpt>
      <trkpt lat="46.782510" lon="0.501930">
        <time>2017-06-24T12:56:16Z</time>
      </trkpt>
      <trkpt lat="46.782760" lon="0.502210">
        <time>2017-06-24T12:56:17Z</time>
      </trkpt>
      <trkpt lat="46.783010" lon="0.502490">
        <time>2017-06-24T12:56:18Z</time>
      </trkpt>
      <trkpt lat="46.783270" lon="0.502760">
        <time>2017-06-24T12:56:19Z</time>
      </trkpt>
      <trkpt lat="46.783540" lon="0.503050">
        <time>2017-06-24T12:56:20Z</time>
      </trkpt>
      <trkpt lat="46.783790" lon="0.503300">
        <time>2017-06-24T12:56:21Z</time>
      </trkpt>
      <trkpt lat="46.784060" lon="0.503550">
        <time>2017-06-24T12:56:22Z</time>
      </trkpt>
      <trkpt lat="46.784340" lon="0.503820">
        <time>2017-06-24T12:56:23Z</time>
      </trkpt>
      <trkpt lat="46.784600" lon="0.504060">
        <time>2017-06-24T12:56:24Z</time>
      </trkpt>
      <trkpt lat="46.784870" lon="0.504310">
        <time>2017-06-24T12:56:25Z</time>
      </trkpt>
      <trkpt lat="46.785170" lon="0.504580">
        <time>2017-06-24T12:56:26Z</time>
      </trkpt>
      <trkpt lat="46.785430" lon="0.504810">
        <time>2017-06-24T12:56:27Z</time>
      </trkpt>
      <trkpt lat="46.785730" lon="0.505070">
        <time>2017-06-24T12:56:28Z</time>
      </trkpt>
      <trkpt lat="46.786000" lon="0.505310">
        <time>2017-06-24T12:56:29Z</time>
      </trkpt>
      <trkpt lat="46.786280" lon="0.505550">
        <time>2017-06-24T12:56:30Z</time>
      </trkpt>
      <trkpt lat="46.786590" lon="0.505800">
        <time>2017-06-24T12:56:31Z</time>
      </trkpt>
      <trkpt lat="46.786860" lon="0.506020">
        <time>2017-06-24T12:56:32Z</time>
      </trkpt>
      <trkpt lat="46.787150" lon="0.506250">
        <time>2017-06-24T12:56:33Z</time>
      </trkpt>
      <trkpt lat="46.787450" lon="0.506480">
        <time>2017-06-24T12:56:34Z</time>
      </trkpt>
      <trkpt lat="46.787740" lon="0.506690">
        <time>2017-06-24T12:56:35Z</time>
      </trkpt>
      <trkpt lat="46.788040" lon="0.506910">
        <time>2017-06-24T12:56:36Z</time>
      </trkpt>
      <trkpt lat="46.788310" lon="0.507110">
        <time>2017-06-24T12:56:37Z</time>
      </trkpt>
      <trkpt lat="46.788590" lon="0.507320">
        <time>2017-06-24T12:56:38Z</time>
      </trkpt>
      <trkpt lat="46.788880" lon="0.507530">
        <time>2017-06-24T12:56:39Z</time>
      </trkpt>
      <trkpt lat="46.789140" lon="0.507720">
        <time>2017-06-24T12:56:40Z</time>
      </trkpt>
      <trkpt lat="46.789410" lon="0.507910">
        <time>2017-06-24T12:56:41Z</time>
      </trkpt>
      <trkpt lat="46.789700" lon="0.508110">
        <time>2017-06-24T12:56:42Z</time>
      </trkpt>
      <trkpt lat="46.789950" lon="0.508280">
        <time>2017-06-24T12:56:43Z</time>
      </trkpt>
      <trkpt lat="46.790250" lon="0.508470">
        <time>2017-06-24T12:56:44Z</time>
      </trkpt>
      <trkpt lat="46.790510" lon="0.508630">
        <time>2017-06-24T12:56:45Z</time>
      </trkpt>
      <trkpt lat="46.790800" lon="0.508810">
        <time>2017-06-24T12:56:46Z</time>
      </trkpt>
      <trkpt lat="46.791120" lon="0.508990">
        <time>2017-06-24T12:56:47Z</time>
      </trkpt>
      <trkpt lat="46.791400" lon="0.509150">
        <time>2017-06-24T12:56:48Z</time>
      </trkpt>
      <trkpt lat="46.791710" lon="0.509330">
        <time>2017-06-24T12:56:49Z</time>
      </trkpt>
      <trkpt lat="46.792020" lon="0.509500">
        <time>2017-06-24T12:56:50Z</time>
      </trkpt>
      <trkpt lat="46.792330" lon="0.509670">
        <time>2017-06-24T12:56:51Z</time>
      </trkpt>
      <trkpt lat="46.792660" lon="0.509850">
        <time>2017-06-24T12:56:52Z</time>
      </trkpt>
      <trkpt lat="46.792960" lon="0.510000">
        <time>2017-06-24T12:56:53Z</time>
      </trkpt>
      <trkpt lat="46.793270" lon="0.510160">
        <time>2017-06-24T12:56:54Z</time>
      </trkpt>
      <trkpt lat="46.793610" lon="0.510330">
        <time>2017-06-24T12:56:55Z</time>
      </trkpt>
      <trkpt lat="46.793910" lon="0.510470">
        <time>2017-06-24T12:56:56Z</time>
      </trkpt>
      <trkpt lat="46.794220" lon="0.510620">
        <time>2017-06-24T12:56:57Z</time>
      </trkpt>
      <trkpt lat="46.794560" lon="0.510770">
        <time>2017-06-24T12:56:58Z</time>
      </trkpt>
      <trkpt lat="46.794850" lon="0.510900">
        <time>2017-06-24T12:56:59Z</time>
      </trkpt>
      <trkpt lat="46.795180" lon="0.511040">
        <time>2017-06-24T12:57:00Z</time>
      </trkpt>
      <trkpt lat="46.795470" lon="0.511160">
        <time>2017-06-24T12:57:01Z</time>
      </trkpt>
      <trkpt lat="46.795780" lon="0.511280">
        <time>2017-06-24T12:57:02Z</time>
      </trkpt>
      <trkpt lat="46.796100" lon="0.511410">
        <time>2017-06-24T12:57:03Z</time>
      </trkpt>
      <trkpt lat="46.796380" lon="0.511520">
        <time>2017-06-24T12:57:04Z</time>
      </trkpt>
      <trkpt lat="46.796690" lon="0.511630">
        <time>2017-06-24T12:57:05Z</time>
      </trkpt>
      <trkpt lat="46.796990" lon="0.511740">
        <time>2017-06-24T12:57:06Z</time>
      </trkpt>
      <trkpt lat="46.797300" lon="0.511850">
        <time>2017-06-24T12:57:07Z</time>
      </trkpt>
      <trkpt lat="46.797630" lon="0.511950">
        <time>2017-06-24T12:57:08Z</time>
      </trkpt>
      <trkpt lat="46.797920" lon="0.512050">
        <time>2017-06-24T12:57:09Z</time>
      </trkpt>
      <trkpt lat="46.798230" lon="0.512140">
        <time>2017-06-24T12:57:10Z</time>
      </trkpt>
      <trkpt lat="46.798550" lon="0.512240">
        <time>2017-06-24T12:57:11Z</time>
      </trkpt>
      <trkpt lat="46.798840" lon="0.512310">
        <time>2017-06-24T12:57:12Z</time>
      </trkpt>
      <trkpt lat="46.799160" lon="0.512400">
        <time>2017-06-24T12:57:13Z</time>
      </trkpt>
      <trkpt lat="46.799490" lon="0.512490">
        <time>2017-06-24T12:57:14Z</time>
      </trkpt>
      <trkpt lat="46.799790" lon="0.512570">
        <time>2017-06-24T12:57:15Z</time>
      </trkpt>
      <trkpt lat="46.800120" lon="0.512650">
        <time>2017-06-24T12:57:16Z</time>
      </trkpt>
      <trkpt lat="46.800420" lon="0.512720">
        <time>2017-06-24T12:57:17Z</time>
      </trkpt>
      <trkpt lat="46.800750" lon="0.512790">
        <time>2017-06-24T12:57:18Z</time>
      </trkpt>
      <trkpt lat="46.801090" lon="0.512870">
        <time>2017-06-24T12:57:19Z</time>
      </trkpt>
      <trkpt lat="46.801390" lon="0.512920">
        <time>2017-06-24T12:57:20Z</time>
      </trkpt>
      <trkpt lat="46.801710" lon="0.512970">
        <time>2017-06-24T12:57:21Z</time>
      </trkpt>
      <trkpt lat="46.802030" lon="0.513030">
        <time>2017-06-24T12:57:22Z</time>
      </trkpt>
      <trkpt lat="46.802350" lon="0.513070">
        <time>2017-06-24T12:57:23Z</time>
      </trkpt>
      <trkpt lat="46.802690" lon="0.513120">
        <time>2017-06-24T12:57:24Z</time>
      </trkpt>
      <trkpt lat="46.802990" lon="0.513170">
        <time>2017-06-24T12:57:25Z</time>
      </trkpt>
      <trkpt lat="46.803310" lon="0.513210">
        <time>2017-06-24T12:57:26Z</time>
      </trkpt>
      <trkpt lat="46.803640" lon="0.513260">
        <time>2017-06-24T12:57:27Z</time>
      </trkpt>
      <trkpt lat="46.803950" lon="0.513290">
        <time>2017-06-24T12:57:28Z</time>
      </trkpt>
      <trkpt lat="46.804260" lon="0.513330">
        <time>2017-06-24T12:57:29Z</time>
      </trkpt>
      <trkpt lat="46.804590" lon="0.513370">
        <time>2017-06-24T12:57:30Z</time>
      </trkpt>
      <trkpt lat="46.804870" lon="0.513400">
        <time>2017-06-24T12:57:31Z</time>
      </trkpt>
      <trkpt lat="46.805200" lon="0.513430">
        <time>2017-06-24T12:57:32Z</time>
      </trkpt>
      <trkpt lat="46.805490" lon="0.513460">
        <time>2017-06-24T12:57:33Z</time>
      </trkpt>
      <trkpt lat="46.805800" lon="0.513470">
        <time>2017-06-24T12:57:34Z</time>
      </trkpt>
      <trkpt lat="46.806130" lon="0.513500">
        <time>2017-06-24T12:57:35Z</time>
      </trkpt>
      <trkpt lat="46.806430" lon="0.513530">
        <time>2017-06-24T12:57:36Z</time>
      </trkpt>
      <trkpt lat="46.806740" lon="0.513560">
        <time>2017-06-24T12:57:37Z</time>
      </trkpt>
      <trkpt lat="46.807050" lon="0.513580">
        <time>2017-06-24T12:57:38Z</time>
      </trkpt>
      <trkpt lat="46.807360" lon="0.513610">
        <time>2017-06-24T12:57:39Z</time>
      </trkpt>
      <trkpt lat="46.807680" lon="0.513640">
        <time>2017-06-24T12:57:40Z</time>
      </trkpt>
      <trkpt lat="46.807970" lon="0.513670">
        <time>2017-06-24T12:57:41Z</time>
      </trkpt>
      <trkpt lat="46.808280" lon="0.513700">
        <time>2017-06-24T12:57:42Z</time>
      </trkpt>
      <trkpt lat="46.808600" lon="0.513730">
        <time>2017-06-24T12:57:43Z</time>
      </trkpt>
      <trkpt lat="46.808880" lon="0.513760">
        <time>2017-06-24T12:57:44Z</time>
      </trkpt>
      <trkpt lat="46.809180" lon="0.513800">
        <time>2017-06-24T12:57:45Z</time>
      </trkpt>
      <trkpt lat="46.809510" lon="0.513850">
        <time>2017-06-24T12:57:46Z</time>
      </trkpt>
      <trkpt lat="46.809790" lon="0.513890">
        <time>2017-06-24T12:57:47Z</time>
      </trkpt>
      <trkpt lat="46.810110" lon="0.513940">
        <time>2017-06-24T12:57:48Z</time>
      </trkpt>
      <trkpt lat="46.810390" lon="0.513980">
        <time>2017-06-24T12:57:49Z</time>
      </trkpt>
      <trkpt lat="46.810700" lon="0.514010">
        <time>2017-06-24T12:57:50Z</time>
      </trkpt>
      <trkpt lat="46.811010" lon="0.514050">
        <time>2017-06-24T12:57:51Z</time>
      </trkpt>
      <trkpt lat="46.811290" lon="0.514080">
        <time>2017-06-24T12:57:52Z</time>
      </trkpt>
      <trkpt lat="46.811600" lon="0.514120">
        <time>2017-06-24T12:57:53Z</time>
      </trkpt>
      <trkpt lat="46.811900" lon="0.514150">
        <time>2017-06-24T12:57:54Z</time>
      </trkpt>
      <trkpt lat="46.812210" lon="0.514190">
        <time>2017-06-24T12:57:55Z</time>
      </trkpt>
      <trkpt lat="46.812540" lon="0.514240">
        <time>2017-06-24T12:57:56Z</time>
      </trkpt>
      <trkpt lat="46.812830" lon="0.514280">
        <time>2017-06-24T12:57:57Z</time>
      </trkpt>
      <trkpt lat="46.813130" lon="0.514340">
        <time>2017-06-24T12:57:58Z</time>
      </trkpt>
      <trkpt lat="46.813440" lon="0.514380">
        <time>2017-06-24T12:57:59Z</time>
      </trkpt>
      <trkpt lat="46.813710" lon="0.514430">
        <time>2017-06-24T12:58:00Z</time>
      </trkpt>
      <trkpt lat="46.813980" lon="0.514490">
        <time>2017-06-24T12:58:01Z</time>
      </trkpt>
      <trkpt lat="46.814260" lon="0.514550">
        <time>2017-06-24T12:58:02Z</time>
      </trkpt>
      <trkpt lat="46.814520" lon="0.514600">
        <time>2017-06-24T12:58:03Z</time>
      </trkpt>
      <trkpt lat="46.814810" lon="0.514670">
        <time>2017-06-24T12:58:04Z</time>
      </trkpt>
      <trkpt lat="46.815060" lon="0.514730">
        <time>2017-06-24T12:58:05Z</time>
      </trkpt>
      <trkpt lat="46.815330" lon="0.514810">
        <time>2017-06-24T12:58:06Z</time>
      </trkpt>
      <trkpt lat="46.815620" lon="0.514890">
        <time>2017-06-24T12:58:07Z</time>
      </trkpt>
      <trkpt lat="46.815870" lon="0.514970">
        <time>2017-06-24T12:58:08Z</time>
      </trkpt>
      <trkpt lat="46.816130" lon="0.515070">
        <time>2017-06-24T12:58:09Z</time>
      </trkpt>
      <trkpt lat="46.816400" lon="0.515160">
        <time>2017-06-24T12:58:10Z</time>
      </trkpt>
      <trkpt lat="46.816670" lon="0.515260">
        <time>2017-06-24T12:58:11Z</time>
      </trkpt>
      <trkpt lat="46.816950" lon="0.515370">
        <time>2017-06-24T12:58:12Z</time>
      </trkpt>
      <trkpt lat="46.817200" lon="0.515470">
        <time>2017-06-24T12:58:13Z</time>
      </trkpt>
      <trkpt lat="46.817470" lon="0.515570">
        <time>2017-06-24T12:58:14Z</time>
      </trkpt>
      <trkpt lat="46.817760" lon="0.515700">
        <time>2017-06-24T12:58:15Z</time>
      </trkpt>
      <trkpt lat="46.818010" lon="0.515820">
        <time>2017-06-24T12:58:16Z</time>
      </trkpt>
      <trkpt lat="46.818280" lon="0.515950">
        <time>2017-06-24T12:58:17Z</time>
      </trkpt>
      <trkpt lat="46.818570" lon="0.516080">
        <time>2017-06-24T12:58:18Z</time>
      </trkpt>
      <trkpt lat="46.818810" lon="0.516200">
        <time>2017-06-24T12:58:19Z</time>
      </trkpt>
      <trkpt lat="46.819090" lon="0.516330">
        <time>2017-06-24T12:58:20Z</time>
      </trkpt>
      <trkpt lat="46.819330" lon="0.516440">
        <time>2017-06-24T12:58:21Z</time>
      </trkpt>
      <trkpt lat="46.819580" lon="0.516570">
        <time>2017-06-24T12:58:22Z</time>
      </trkpt>
      <trkpt lat="46.819860" lon="0.516710">
        <time>2017-06-24T12:58:23Z</time>
      </trkpt>
      <trkpt lat="46.820100" lon="0.516830">
        <time>2017-06-24T12:58:24Z</time>
      </trkpt>
      <trkpt lat="46.820380" lon="0.516960">
        <time>2017-06-24T12:58:25Z</time>
      </trkpt>
      <trkpt lat="46.820650" lon="0.517090">
        <time>2017-06-24T12:58:26Z</time>
      </trkpt>
      <trkpt lat="46.820920" lon="0.517210">
        <time>2017-06-24T12:58:27Z</time>
      </trkpt>
      <trkpt lat="46.821210" lon="0.517360">
        <time>2017-06-24T12:58:28Z</time>
      </trkpt>
      <trkpt lat="46.821460" lon="0.517470">
        <time>2017-06-24T12:58:29Z</time>
      </trkpt>
      <trkpt lat="46.821730" lon="0.517600">
        <time>2017-06-24T12:58:30Z</time>
      </trkpt>
      <trkpt lat="46.822010" lon="0.517740">
        <time>2017-06-24T12:58:31Z</time>
      </trkpt>
      <trkpt lat="46.822260" lon="0.517870">
        <time>2017-06-24T12:58:32Z</time>
      </trkpt>
      <trkpt lat="46.822520" lon="0.518000">
        <time>2017-06-24T12:58:33Z</time>
      </trkpt>
      <trkpt lat="46.822810" lon="0.518140">
        <time>2017-06-24T12:58:34Z</time>
      </trkpt>
      <trkpt lat="46.823050" lon="0.518260">
        <time>2017-06-24T12:58:35Z</time>
      </trkpt>
      <trkpt lat="46.823330" lon="0.518400">
        <time>2017-06-24T12:58:36Z</time>
      </trkpt>
      <trkpt lat="46.823570" lon="0.518520">
        <time>2017-06-24T12:58:37Z</time>
      </trkpt>
      <trkpt lat="46.823830" lon="0.518660">
        <time>2017-06-24T12:58:38Z</time>
      </trkpt>
      <trkpt lat="46.824110" lon="0.518790">
        <time>2017-06-24T12:58:39Z</time>
      </trkpt>
      <trkpt lat="46.824340" lon="0.518900">
        <time>2017-06-24T12:58:40Z</time>
      </trkpt>
      <trkpt lat="46.824590" lon="0.519030">
        <time>2017-06-24T12:58:41Z</time>
      </trkpt>
      <trkpt lat="46.824850" lon="0.519150">
        <time>2017-06-24T12:58:42Z</time>
      </trkpt>
      <trkpt lat="46.825110" lon="0.519290">
        <time>2017-06-24T12:58:43Z</time>
      </trkpt>
      <trkpt lat="46.825390" lon="0.519430">
        <time>2017-06-24T12:58:44Z</time>
      </trkpt>
      <trkpt lat="46.825640" lon="0.519570">
        <time>2017-06-24T12:58:45Z</time>
      </trkpt>
      <trkpt lat="46.825920" lon="0.519720">
        <time>2017-06-24T12:58:46Z</time>
      </trkpt>
      <trkpt lat="46.826220" lon="0.519870">
        <time>2017-06-24T12:58:47Z</time>
      </trkpt>
      <trkpt lat="46.826490" lon="0.520010">
        <time>2017-06-24T12:58:48Z</time>
      </trkpt>
      <trkpt lat="46.826780" lon="0.520150">
        <time>2017-06-24T12:58:49Z</time>
      </trkpt>
      <trkpt lat="46.827090" lon="0.520300">
        <time>2017-06-24T12:58:50Z</time>
      </trkpt>
      <trkpt lat="46.827360" lon="0.520440">
        <time>2017-06-24T12:58:51Z</time>
      </trkpt>
      <trkpt lat="46.827670" lon="0.520600">
        <time>2017-06-24T12:58:52Z</time>
      </trkpt>
      <trkpt lat="46.827950" lon="0.520730">
        <time>2017-06-24T12:58:53Z</time>
      </trkpt>
      <trkpt lat="46.828240" lon="0.520870">
        <time>2017-06-24T12:58:54Z</time>
      </trkpt>
      <trkpt lat="46.828560" lon="0.521020">
        <time>2017-06-24T12:58:55Z</time>
      </trkpt>
      <trkpt lat="46.828840" lon="0.521160">
        <time>2017-06-24T12:58:56Z</time>
      </trkpt>
      <trkpt lat="46.829140" lon="0.521320">
        <time>2017-06-24T12:58:57Z</time>
      </trkpt>
      <trkpt lat="46.829440" lon="0.521470">
        <time>2017-06-24T12:58:58Z</time>
      </trkpt>
      <trkpt lat="46.829740" lon="0.521620">
        <time>2017-06-24T12:58:59Z</time>
      </trkpt>
      <trkpt lat="46.830060" lon="0.521790">
        <time>2017-06-24T12:59:00Z</time>
      </trkpt>
      <trkpt lat="46.830340" lon="0.521920">
        <time>2017-06-24T12:59:01Z</time>
      </trkpt>
      <trkpt lat="46.830640" lon="0.522070">
        <time>2017-06-24T12:59:02Z</time>
      </trkpt>
      <trkpt lat="46.830960" lon="0.522230">
        <time>2017-06-24T12:59:03Z</time>
      </trkpt>
      <trkpt lat="46.831250" lon="0.522370">
        <time>2017-06-24T12:59:04Z</time>
      </trkpt>
      <trkpt lat="46.831550" lon="0.522520">
        <time>2017-06-24T12:59:05Z</time>
      </trkpt>
      <trkpt lat="46.831880" lon="0.522680">
        <time>2017-06-24T12:59:06Z</time>
      </trkpt>
      <trkpt lat="46.832170" lon="0.522810">
        <time>2017-06-24T12:59:07Z</time>
      </trkpt>
      <trkpt lat="46.832500" lon="0.522970">
        <time>2017-06-24T12:59:08Z</time>
      </trkpt>
      <trkpt lat="46.832790" lon="0.523100">
        <time>2017-06-24T12:59:09Z</time>
      </trkpt>
      <trkpt lat="46.833110" lon="0.523240">
        <time>2017-06-24T12:59:10Z</time>
      </trkpt>
      <trkpt lat="46.833440" lon="0.523390">
        <time>2017-06-24T12:59:11Z</time>
      </trkpt>
      <trkpt lat="46.833730" lon="0.523520">
        <time>2017-06-24T12:59:12Z</time>
      </trkpt>
      <trkpt lat="46.834030" lon="0.523640">
        <time>2017-06-24T12:59:13Z</time>
      </trkpt>
      <trkpt lat="46.834340" lon="0.523760">
        <time>2017-06-24T12:59:14Z</time>
      </trkpt>
      <trkpt lat="46.834650" lon="0.523880">
        <time>2017-06-24T12:59:15Z</time>
      </trkpt>
      <trkpt lat="46.834970" lon="0.524010">
        <time>2017-06-24T12:59:16Z</time>
      </trkpt>
      <trkpt lat="46.835260" lon="0.524110">
        <time>2017-06-24T12:59:17Z</time>
      </trkpt>
      <trkpt lat="46.835550" lon="0.524220">
        <time>2017-06-24T12:59:18Z</time>
      </trkpt>
      <trkpt lat="46.835860" lon="0.524320">
        <time>2017-06-24T12:59:19Z</time>
      </trkpt>
      <trkpt lat="46.836130" lon="0.524410">
        <time>2017-06-24T12:59:20Z</time>
      </trkpt>
      <trkpt lat="46.836420" lon="0.524500">
        <time>2017-06-24T12:59:21Z</time>
      </trkpt>
      <trkpt lat="46.836720" lon="0.524600">
        <time>2017-06-24T12:59:22Z</time>
      </trkpt>
      <trkpt lat="46.836990" lon="0.524670">
        <time>2017-06-24T12:59:23Z</time>
      </trkpt>
      <trkpt lat="46.837290" lon="0.524750">
        <time>2017-06-24T12:59:24Z</time>
      </trkpt>
      <trkpt lat="46.837550" lon="0.524820">
        <time>2017-06-24T12:59:25Z</time>
      </trkpt>
      <trkpt lat="46.837840" lon="0.524890">
        <time>2017-06-24T12:59:26Z</time>
      </trkpt>
      <trkpt lat="46.838140" lon="0.524970">
        <time>2017-06-24T12:59:27Z</time>
      </trkpt>
      <trkpt lat="46.838400" lon="0.525030">
        <time>2017-06-24T12:59:28Z</time>
      </trkpt>
      <trkpt lat="46.838680" lon="0.525100">
        <time>2017-06-24T12:59:29Z</time>
      </trkpt>
      <trkpt lat="46.838950" lon="0.525160">
        <time>2017-06-24T12:59:30Z</time>
      </trkpt>
      <trkpt lat="46.839230" lon="0.525220">
        <time>2017-06-24T12:59:31Z</time>
      </trkpt>
      <trkpt lat="46.839530" lon="0.525280">
        <time>2017-06-24T12:59:32Z</time>
      </trkpt>
      <trkpt lat="46.839790" lon="0.525330">
        <time>2017-06-24T12:59:33Z</time>
      </trkpt>
      <trkpt lat="46.840060" lon="0.525390">
        <time>2017-06-24T12:59:34Z</time>
      </trkpt>
      <trkpt lat="46.840360" lon="0.525440">
        <time>2017-06-24T12:59:35Z</time>
      </trkpt>
      <trkpt lat="46.840620" lon="0.525490">
        <time>2017-06-24T12:59:36Z</time>
      </trkpt>
      <trkpt lat="46.840900" lon="0.525540">
        <time>2017-06-24T12:59:37Z</time>
      </trkpt>
      <trkpt lat="46.841210" lon="0.525590">
        <time>2017-06-24T12:59:38Z</time>
      </trkpt>
      <trkpt lat="46.841480" lon="0.525630">
        <time>2017-06-24T12:59:39Z</time>
      </trkpt>
      <trkpt lat="46.841790" lon="0.525680">
        <time>2017-06-24T12:59:40Z</time>
      </trkpt>
      <trkpt lat="46.842060" lon="0.525720">
        <time>2017-06-24T12:59:41Z</time>
      </trkpt>
      <trkpt lat="46.842350" lon="0.525750">
        <time>2017-06-24T12:59:42Z</time>
      </trkpt>
      <trkpt lat="46.842660" lon="0.525790">
        <time>2017-06-24T12:59:43Z</time>
      </trkpt>
      <trkpt lat="46.842930" lon="0.525820">
        <time>2017-06-24T12:59:44Z</time>
      </trkpt>
      <trkpt lat="46.843210" lon="0.525850">
        <time>2017-06-24T12:59:45Z</time>
      </trkpt>
      <trkpt lat="46.843500" lon="0.525890">
        <time>2017-06-24T12:59:46Z</time>
      </trkpt>
      <trkpt lat="46.843780" lon="0.525920">
        <time>2017-06-24T12:59:47Z</time>
      </trkpt>
      <trkpt lat="46.844080" lon="0.525950">
        <time>2017-06-24T12:59:48Z</time>
      </trkpt>
      <trkpt lat="46.844350" lon="0.525980">
        <time>2017-06-24T12:59:49Z</time>
      </trkpt>
      <trkpt lat="46.844640" lon="0.526010">
        <time>2017-06-24T12:59:50Z</time>
      </trkpt>
      <trkpt lat="46.844950" lon="0.526040">
        <time>2017-06-24T12:59:51Z</time>
      </trkpt>
      <trkpt lat="46.845210" lon="0.526060">
        <time>2017-06-24T12:59:52Z</time>
      </trkpt>
      <trkpt lat="46.845500" lon="0.526080">
        <time>2017-06-24T12:59:53Z</time>
      </trkpt>
      <trkpt lat="46.845810" lon="0.526100">
        <time>2017-06-24T12:59:54Z</time>
      </trkpt>
      <trkpt lat="46.846080" lon="0.526120">
        <time>2017-06-24T12:59:55Z</time>
      </trkpt>
      <trkpt lat="46.846390" lon="0.526140">
        <time>2017-06-24T12:59:56Z</time>
      </trkpt>
      <trkpt lat="46.846660" lon="0.526160">
        <time>2017-06-24T12:59:57Z</time>
      </trkpt>
      <trkpt lat="46.846950" lon="0.526170">
        <time>2017-06-24T12:59:58Z</time>
      </trkpt>
      <trkpt lat="46.847270" lon="0.526180">
        <time>2017-06-24T12:59:59Z</time>
      </trkpt>
      <trkpt lat="46.847540" lon="0.526200">
        <time>2017-06-24T13:00:00Z</time>
      </trkpt>
      <trkpt lat="46.847830" lon="0.526210">
        <time>2017-06-24T13:00:01Z</time>
      </trkpt>
      <trkpt lat="46.848130" lon="0.526220">
        <time>2017-06-24T13:00:02Z</time>
      </trkpt>
      <trkpt lat="46.848430" lon="0.526230">
        <time>2017-06-24T13:00:03Z</time>
      </trkpt>
      <trkpt lat="46.848750" lon="0.526240">
        <time>2017-06-24T13:00:04Z</time>
      </trkpt>
      <trkpt lat="46.849030" lon="0.526240">
        <time>2017-06-24T13:00:05Z</time>
      </trkpt>
      <trkpt lat="46.849340" lon="0.526250">
        <time>2017-06-24T13:00:06Z</time>
      </trkpt>
      <trkpt lat="46.849660" lon="0.526260">
        <time>2017-06-24T13:00:07Z</time>
      </trkpt>
      <trkpt lat="46.849950" lon="0.526260">
        <time>2017-06-24T13:00:08Z</time>
      </trkpt>
      <trkpt lat="46.850260" lon="0.526260">
        <time>2017-06-24T13:00:09Z</time>
      </trkpt>
      <trkpt lat="46.850600" lon="0.526260">
        <time>2017-06-24T13:00:10Z</time>
      </trkpt>
      <trkpt lat="46.850880" lon="0.526260">
        <time>2017-06-24T13:00:11Z</time>
      </trkpt>
      <trkpt lat="46.851210" lon="0.526250">
        <time>2017-06-24T13:00:12Z</time>
      </trkpt>
      <trkpt lat="46.851490" lon="0.526240">
        <time>2017-06-24T13:00:13Z</time>
      </trkpt>
      <trkpt lat="46.851800" lon="0.526240">
        <time>2017-06-24T13:00:14Z</time>
      </trkpt>
      <trkpt lat="46.852120" lon="0.526230">
        <time>2017-06-24T13:00:15Z</time>
      </trkpt>
      <trkpt lat="46.852400" lon="0.526220">
        <time>2017-06-24T13:00:16Z</time>
      </trkpt>
      <trkpt lat="46.852700" lon="0.526210">
        <time>2017-06-24T13:00:17Z</time>
      </trkpt>
      <trkpt lat="46.853010" lon="0.526200">
        <time>2017-06-24T13:00:18Z</time>
      </trkpt>
      <trkpt lat="46.853310" lon="0.526190">
        <time>2017-06-24T13:00:19Z</time>
      </trkpt>
      <trkpt lat="46.853630" lon="0.526170">
        <time>2017-06-24T13:00:20Z</time>
      </trkpt>
      <trkpt lat="46.853920" lon="0.526160">
        <time>2017-06-24T13:00:21Z</time>
      </trkpt>
      <trkpt lat="46.854220" lon="0.526140">
        <time>2017-06-24T13:00:22Z</time>
      </trkpt>
      <trkpt lat="46.854550" lon="0.526120">
        <time>2017-06-24T13:00:23Z</time>
      </trkpt>
      <trkpt lat="46.854830" lon="0.526110">
        <time>2017-06-24T13:00:24Z</time>
      </trkpt>
      <trkpt lat="46.855140" lon="0.526080">
        <time>2017-06-24T13:00:25Z</time>
      </trkpt>
      <trkpt lat="46.855460" lon="0.526050">
        <time>2017-06-24T13:00:26Z</time>
      </trkpt>
      <trkpt lat="46.855740" lon="0.526030">
        <time>2017-06-24T13:00:27Z</time>
      </trkpt>
      <trkpt lat="46.856060" lon="0.525990">
        <time>2017-06-24T13:00:28Z</time>
      </trkpt>
      <trkpt lat="46.856340" lon="0.525960">
        <time>2017-06-24T13:00:29Z</time>
      </trkpt>
      <trkpt lat="46.856640" lon="0.525920">
        <time>2017-06-24T13:00:30Z</time>
      </trkpt>
      <trkpt lat="46.856960" lon="0.525890">
        <time>2017-06-24T13:00:31Z</time>
      </trkpt>
      <trkpt lat="46.857240" lon="0.525870">
        <time>2017-06-24T13:00:32Z</time>
      </trkpt>
      <trkpt lat="46.857520" lon="0.525840">
        <time>2017-06-24T13:00:33Z</time>
      </trkpt>
      <trkpt lat="46.857810" lon="0.525800">
        <time>2017-06-24T13:00:34Z</time>
      </trkpt>
      <trkpt lat="46.858090" lon="0.525770">
        <time>2017-06-24T13:00:35Z</time>
      </trkpt>
      <trkpt lat="46.858390" lon="0.525730">
        <time>2017-06-24T13:00:36Z</time>
      </trkpt>
      <trkpt lat="46.858660" lon="0.525690">
        <time>2017-06-24T13:00:37Z</time>
      </trkpt>
      <trkpt lat="46.858940" lon="0.525630">
        <time>2017-06-24T13:00:38Z</time>
      </trkpt>
      <trkpt lat="46.859240" lon="0.525580">
        <time>2017-06-24T13:00:39Z</time>
      </trkpt>
      <trkpt lat="46.859500" lon="0.525530">
        <time>2017-06-24T13:00:40Z</time>
      </trkpt>
      <trkpt lat="46.859780" lon="0.525480">
        <time>2017-06-24T13:00:41Z</time>
      </trkpt>
      <trkpt lat="46.860080" lon="0.525430">
        <time>2017-06-24T13:00:42Z</time>
      </trkpt>
      <trkpt lat="46.860340" lon="0.525380">
        <time>2017-06-24T13:00:43Z</time>
      </trkpt>
      <trkpt lat="46.860630" lon="0.525330">
        <time>2017-06-24T13:00:44Z</time>
      </trkpt>
      <trkpt lat="46.860870" lon="0.525280">
        <time>2017-06-24T13:00:45Z</time>
      </trkpt>
      <trkpt lat="46.861130" lon="0.525230">
        <time>2017-06-24T13:00:46Z</time>
      </trkpt>
      <trkpt lat="46.861410" lon="0.525180">
        <time>2017-06-24T13:00:47Z</time>
      </trkpt>
      <trkpt lat="46.861660" lon="0.525130">
        <time>2017-06-24T13:00:48Z</time>
      </trkpt>
      <trkpt lat="46.861920" lon="0.525080">
        <time>2017-06-24T13:00:49Z</time>
      </trkpt>
      <trkpt lat="46.862190" lon="0.525020">
        <time>2017-06-24T13:00:50Z</time>
      </trkpt>
      <trkpt lat="46.862450" lon="0.524970">
        <time>2017-06-24T13:00:51Z</time>
      </trkpt>
      <trkpt lat="46.862730" lon="0.524900">
        <time>2017-06-24T13:00:52Z</time>
      </trkpt>
      <trkpt lat="46.862970" lon="0.524840">
        <time>2017-06-24T13:00:53Z</time>
      </trkpt>
      <trkpt lat="46.863230" lon="0.524780">
        <time>2017-06-24T13:00:54Z</time>
      </trkpt>
      <trkpt lat="46.863500" lon="0.524710">
        <time>2017-06-24T13:00:55Z</time>
      </trkpt>
      <trkpt lat="46.863740" lon="0.524650">
        <time>2017-06-24T13:00:56Z</time>
      </trkpt>
      <trkpt lat="46.863990" lon="0.524580">
        <time>2017-06-24T13:00:57Z</time>
      </trkpt>
      <trkpt lat="46.864260" lon="0.524500">
        <time>2017-06-24T13:00:58Z</time>
      </trkpt>
      <trkpt lat="46.864500" lon="0.524450">
        <time>2017-06-24T13:00:59Z</time>
      </trkpt>
      <trkpt lat="46.864760" lon="0.524390">
        <time>2017-06-24T13:01:00Z</time>
      </trkpt>
      <trkpt lat="46.864990" lon="0.524320">
        <time>2017-06-24T13:01:01Z</time>
      </trkpt>
      <trkpt lat="46.865240" lon="0.524250">
        <time>2017-06-24T13:01:02Z</time>
      </trkpt>
      <trkpt lat="46.865500" lon="0.524160">
        <time>2017-06-24T13:01:03Z</time>
      </trkpt>
      <trkpt lat="46.865720" lon="0.524090">
        <time>2017-06-24T13:01:04Z</time>
      </trkpt>
      <trkpt lat="46.865960" lon="0.524010">
        <time>2017-06-24T13:01:05Z</time>
      </trkpt>
      <trkpt lat="46.866190" lon="0.523930">
        <time>2017-06-24T13:01:06Z</time>
      </trkpt>
      <trkpt lat="46.866410" lon="0.523850">
        <time>2017-06-24T13:01:07Z</time>
      </trkpt>
      <trkpt lat="46.866660" lon="0.523760">
        <time>2017-06-24T13:01:08Z</time>
      </trkpt>
      <trkpt lat="46.866860" lon="0.523680">
        <time>2017-06-24T13:01:09Z</time>
      </trkpt>
      <trkpt lat="46.867070" lon="0.523590">
        <time>2017-06-24T13:01:10Z</time>
      </trkpt>
      <trkpt lat="46.867300" lon="0.523500">
        <time>2017-06-24T13:01:11Z</time>
      </trkpt>
      <trkpt lat="46.867500" lon="0.523410">
        <time>2017-06-24T13:01:12Z</time>
      </trkpt>
      <trkpt lat="46.867720" lon="0.523310">
        <time>2017-06-24T13:01:13Z</time>
      </trkpt>
      <trkpt lat="46.867950" lon="0.523210">
        <time>2017-06-24T13:01:14Z</time>
      </trkpt>
      <trkpt lat="46.868150" lon="0.523130">
        <time>2017-06-24T13:01:15Z</time>
      </trkpt>
      <trkpt lat="46.868390" lon="0.523020">
        <time>2017-06-24T13:01:16Z</time>
      </trkpt>
      <trkpt lat="46.868590" lon="0.522930">
        <time>2017-06-24T13:01:17Z</time>
      </trkpt>
      <trkpt lat="46.868800" lon="0.522840">
        <time>2017-06-24T13:01:18Z</time>
      </trkpt>
      <trkpt lat="46.869010" lon="0.522740">
        <time>2017-06-24T13:01:19Z</time>
      </trkpt>
      <trkpt lat="46.869180" lon="0.522660">
        <time>2017-06-24T13:01:20Z</time>
      </trkpt>
      <trkpt lat="46.869360" lon="0.522570">
        <time>2017-06-24T13:01:21Z</time>
      </trkpt>
      <trkpt lat="46.869550" lon="0.522480">
        <time>2017-06-24T13:01:22Z</time>
      </trkpt>
      <trkpt lat="46.869740" lon="0.522390">
        <time>2017-06-24T13:01:23Z</time>
      </trkpt>
      <trkpt lat="46.869940" lon="0.522290">
        <time>2017-06-24T13:01:24Z</time>
      </trkpt>
      <trkpt lat="46.870110" lon="0.522200">
        <time>2017-06-24T13:01:25Z</time>
      </trkpt>
      <trkpt lat="46.870290" lon="0.522120">
        <time>2017-06-24T13:01:26Z</time>
      </trkpt>
      <trkpt lat="46.870460" lon="0.522030">
        <time>2017-06-24T13:01:27Z</time>
      </trkpt>
      <trkpt lat="46.870620" lon="0.521950">
        <time>2017-06-24T13:01:28Z</time>
      </trkpt>
      <trkpt lat="46.870780" lon="0.521870">
        <time>2017-06-24T13:01:29Z</time>
      </trkpt>
      <trkpt lat="46.870950" lon="0.521780">
        <time>2017-06-24T13:01:30Z</time>
      </trkpt>
      <trkpt lat="46.871110" lon="0.521700">
        <time>2017-06-24T13:01:31Z</time>
      </trkpt>
      <trkpt lat="46.871270" lon="0.521620">
        <time>2017-06-24T13:01:32Z</time>
      </trkpt>
      <trkpt lat="46.871420" lon="0.521550">
        <time>2017-06-24T13:01:33Z</time>
      </trkpt>
      <trkpt lat="46.871580" lon="0.521470">
        <time>2017-06-24T13:01:34Z</time>
      </trkpt>
      <trkpt lat="46.871740" lon="0.521380">
        <time>2017-06-24T13:01:35Z</time>
      </trkpt>
      <trkpt lat="46.871880" lon="0.521310">
        <time>2017-06-24T13:01:36Z</time>
      </trkpt>
      <trkpt lat="46.872020" lon="0.521230">
        <time>2017-06-24T13:01:37Z</time>
      </trkpt>
      <trkpt lat="46.872170" lon="0.521150">
        <time>2017-06-24T13:01:38Z</time>
      </trkpt>
      <trkpt lat="46.872310" lon="0.521080">
        <time>2017-06-24T13:01:39Z</time>
      </trkpt>
      <trkpt lat="46.872470" lon="0.521000">
        <time>2017-06-24T13:01:40Z</time>
      </trkpt>
      <trkpt lat="46.872600" lon="0.520930">
        <time>2017-06-24T13:01:41Z</time>
      </trkpt>
      <trkpt lat="46.872750" lon="0.520860">
        <time>2017-06-24T13:01:42Z</time>
      </trkpt>
      <trkpt lat="46.872910" lon="0.520780">
        <time>2017-06-24T13:01:43Z</time>
      </trkpt>
      <trkpt lat="46.873040" lon="0.520710">
        <time>2017-06-24T13:01:44Z</time>
      </trkpt>
      <trkpt lat="46.873180" lon="0.520640">
        <time>2017-06-24T13:01:45Z</time>
      </trkpt>
      <trkpt lat="46.873340" lon="0.520550">
        <time>2017-06-24T13:01:46Z</time>
      </trkpt>
      <trkpt lat="46.873480" lon="0.520490">
        <time>2017-06-24T13:01:47Z</time>
      </trkpt>
      <trkpt lat="46.873630" lon="0.520400">
        <time>2017-06-24T13:01:48Z</time>
      </trkpt>
      <trkpt lat="46.873770" lon="0.520330">
        <time>2017-06-24T13:01:49Z</time>
      </trkpt>
      <trkpt lat="46.873920" lon="0.520250">
        <time>2017-06-24T13:01:50Z</time>
      </trkpt>
      <trkpt lat="46.874080" lon="0.520170">
        <time>2017-06-24T13:01:51Z</time>
      </trkpt>
      <trkpt lat="46.874220" lon="0.520110">
        <time>2017-06-24T13:01:52Z</time>
      </trkpt>
      <trkpt lat="46.874360" lon="0.520040">
        <time>2017-06-24T13:01:53Z</time>
      </trkpt>
      <trkpt lat="46.874510" lon="0.519970">
        <time>2017-06-24T13:01:54Z</time>
      </trkpt>
      <trkpt lat="46.874660" lon="0.519890">
        <time>2017-06-24T13:01:55Z</time>
      </trkpt>
      <trkpt lat="46.874820" lon="0.519810">
        <time>2017-06-24T13:01:56Z</time>
      </trkpt>
      <trkpt lat="46.874960" lon="0.519750">
        <time>2017-06-24T13:01:57Z</time>
      </trkpt>
      <trkpt lat="46.875120" lon="0.519670">
        <time>2017-06-24T13:01:58Z</time>
      </trkpt>
      <trkpt lat="46.875280" lon="0.519590">
        <time>2017-06-24T13:01:59Z</time>
      </trkpt>
      <trkpt lat="46.875420" lon="0.519520">
        <time>2017-06-24T13:02:00Z</time>
      </trkpt>
      <trkpt lat="46.875590" lon="0.519450">
        <time>2017-06-24T13:02:01Z</time>
      </trkpt>
      <trkpt lat="46.875750" lon="0.519380">
        <time>2017-06-24T13:02:02Z</time>
      </trkpt>
      <trkpt lat="46.875890" lon="0.519320">
        <time>2017-06-24T13:02:03Z</time>
      </trkpt>
      <trkpt lat="46.876060" lon="0.519250">
        <time>2017-06-24T13:02:04Z</time>
      </trkpt>
      <trkpt lat="46.876210" lon="0.519200">
        <time>2017-06-24T13:02:05Z</time>
      </trkpt>
      <trkpt lat="46.876370" lon="0.519140">
        <time>2017-06-24T13:02:06Z</time>
      </trkpt>
      <trkpt lat="46.876550" lon="0.519070">
        <time>2017-06-24T13:02:07Z</time>
      </trkpt>
      <trkpt lat="46.876700" lon="0.519010">
        <time>2017-06-24T13:02:08Z</time>
      </trkpt>
      <trkpt lat="46.876880" lon="0.518950">
        <time>2017-06-24T13:02:09Z</time>
      </trkpt>
      <trkpt lat="46.877050" lon="0.518890">
        <time>2017-06-24T13:02:10Z</time>
      </trkpt>
      <trkpt lat="46.877230" lon="0.518820">
        <time>2017-06-24T13:02:11Z</time>
      </trkpt>
      <trkpt lat="46.877420" lon="0.518760">
        <time>2017-06-24T13:02:12Z</time>
      </trkpt>
      <trkpt lat="46.877580" lon="0.518710">
        <time>2017-06-24T13:02:13Z</time>
      </trkpt>
      <trkpt lat="46.877750" lon="0.518660">
        <time>2017-06-24T13:02:14Z</time>
      </trkpt>
      <trkpt lat="46.877920" lon="0.518620">
        <time>2017-06-24T13:02:15Z</time>
      </trkpt>
      <trkpt lat="46.878080" lon="0.518580">
        <time>2017-06-24T13:02:16Z</time>
      </trkpt>
      <trkpt lat="46.878250" lon="0.518540">
        <time>2017-06-24T13:02:17Z</time>
      </trkpt>
      <trkpt lat="46.878430" lon="0.518490">
        <time>2017-06-24T13:02:18Z</time>
      </trkpt>
      <trkpt lat="46.878600" lon="0.518450">
        <time>2017-06-24T13:02:19Z</time>
      </trkpt>
      <trkpt lat="46.878790" lon="0.518400">
        <time>2017-06-24T13:02:20Z</time>
      </trkpt>
      <trkpt lat="46.878960" lon="0.518360">
        <time>2017-06-24T13:02:21Z</time>
      </trkpt>
      <trkpt lat="46.879140" lon="0.518320">
        <time>2017-06-24T13:02:22Z</time>
      </trkpt>
      <trkpt lat="46.879330" lon="0.518280">
        <time>2017-06-24T13:02:23Z</time>
      </trkpt>
      <trkpt lat="46.879500" lon="0.518250">
        <time>2017-06-24T13:02:24Z</time>
      </trkpt>
      <trkpt lat="46.879680" lon="0.518210">
        <time>2017-06-24T13:02:25Z</time>
      </trkpt>
      <trkpt lat="46.879870" lon="0.518180">
        <time>2017-06-24T13:02:26Z</time>
      </trkpt>
      <trkpt lat="46.880060" lon="0.518130">
        <time>2017-06-24T13:02:27Z</time>
      </trkpt>
      <trkpt lat="46.880270" lon="0.518090">
        <time>2017-06-24T13:02:28Z</time>
      </trkpt>
      <trkpt lat="46.880470" lon="0.518040">
        <time>2017-06-24T13:02:29Z</time>
      </trkpt>
      <trkpt lat="46.880680" lon="0.518000">
        <time>2017-06-24T13:02:30Z</time>
      </trkpt>
      <trkpt lat="46.880920" lon="0.517960">
        <time>2017-06-24T13:02:31Z</time>
      </trkpt>
      <trkpt lat="46.881130" lon="0.517940">
        <time>2017-06-24T13:02:32Z</time>
      </trkpt>
      <trkpt lat="46.881350" lon="0.517920">
        <time>2017-06-24T13:02:33Z</time>
      </trkpt>
      <trkpt lat="46.881590" lon="0.517910">
        <time>2017-06-24T13:02:34Z</time>
      </trkpt>
      <trkpt lat="46.881810" lon="0.517910">
        <time>2017-06-24T13:02:35Z</time>
      </trkpt>
      <trkpt lat="46.882060" lon="0.517900">
        <time>2017-06-24T13:02:36Z</time>
      </trkpt>
      <trkpt lat="46.882270" lon="0.517890">
        <time>2017-06-24T13:02:37Z</time>
      </trkpt>
      <trkpt lat="46.882500" lon="0.517880">
        <time>2017-06-24T13:02:38Z</time>
      </trkpt>
      <trkpt lat="46.882740" lon="0.517880">
        <time>2017-06-24T13:02:39Z</time>
      </trkpt>
      <trkpt lat="46.882960" lon="0.517880">
        <time>2017-06-24T13:02:40Z</time>
      </trkpt>
      <trkpt lat="46.883190" lon="0.517870">
        <time>2017-06-24T13:02:41Z</time>
      </trkpt>
      <trkpt lat="46.883420" lon="0.517870">
        <time>2017-06-24T13:02:42Z</time>
      </trkpt>
      <trkpt lat="46.883650" lon="0.517870">
        <time>2017-06-24T13:02:43Z</time>
      </trkpt>
      <trkpt lat="46.883880" lon="0.517880">
        <time>2017-06-24T13:02:44Z</time>
      </trkpt>
      <trkpt lat="46.884090" lon="0.517890">
        <time>2017-06-24T13:02:45Z</time>
      </trkpt>
      <trkpt lat="46.884310" lon="0.517900">
        <time>2017-06-24T13:02:46Z</time>
      </trkpt>
      <trkpt lat="46.884530" lon="0.517920">
        <time>2017-06-24T13:02:47Z</time>
      </trkpt>
      <trkpt lat="46.884740" lon="0.517940">
        <time>2017-06-24T13:02:48Z</time>
      </trkpt>
      <trkpt lat="46.884960" lon="0.517960">
        <time>2017-06-24T13:02:49Z</time>
      </trkpt>
      <trkpt lat="46.885190" lon="0.517980">
        <time>2017-06-24T13:02:50Z</time>
      </trkpt>
      <trkpt lat="46.885410" lon="0.518010">
        <time>2017-06-24T13:02:51Z</time>
      </trkpt>
      <trkpt lat="46.885650" lon="0.518040">
        <time>2017-06-24T13:02:52Z</time>
      </trkpt>
      <trkpt lat="46.885860" lon="0.518080">
        <time>2017-06-24T13:02:53Z</time>
      </trkpt>
      <trkpt lat="46.886090" lon="0.518110">
        <time>2017-06-24T13:02:54Z</time>
      </trkpt>
      <trkpt lat="46.886340" lon="0.518150">
        <time>2017-06-24T13:02:55Z</time>
      </trkpt>
      <trkpt lat="46.886560" lon="0.518190">
        <time>2017-06-24T13:02:56Z</time>
      </trkpt>
      <trkpt lat="46.886790" lon="0.518230">
        <time>2017-06-24T13:02:57Z</time>
      </trkpt>
      <trkpt lat="46.887030" lon="0.518270">
        <time>2017-06-24T13:02:58Z</time>
      </trkpt>
      <trkpt lat="46.887260" lon="0.518310">
        <time>2017-06-24T13:02:59Z</time>
      </trkpt>
      <trkpt lat="46.887500" lon="0.518360">
        <time>2017-06-24T13:03:00Z</time>
      </trkpt>
      <trkpt lat="46.887710" lon="0.518400">
        <time>2017-06-24T13:03:01Z</time>
      </trkpt>
      <trkpt lat="46.887930" lon="0.518440">
        <time>2017-06-24T13:03:02Z</time>
      </trkpt>
      <trkpt lat="46.888150" lon="0.518490">
        <time>2017-06-24T13:03:03Z</time>
      </trkpt>
      <trkpt lat="46.888330" lon="0.518530">
        <time>2017-06-24T13:03:04Z</time>
      </trkpt>
      <trkpt lat="46.888510" lon="0.518560">
        <time>2017-06-24T13:03:05Z</time>
      </trkpt>
      <trkpt lat="46.888680" lon="0.518600">
        <time>2017-06-24T13:03:06Z</time>
      </trkpt>
      <trkpt lat="46.888840" lon="0.518630">
        <time>2017-06-24T13:03:07Z</time>
      </trkpt>
      <trkpt lat="46.889010" lon="0.518660">
        <time>2017-06-24T13:03:08Z</time>
      </trkpt>
      <trkpt lat="46.889150" lon="0.518690">
        <time>2017-06-24T13:03:09Z</time>
      </trkpt>
      <trkpt lat="46.889310" lon="0.518720">
        <time>2017-06-24T13:03:10Z</time>
      </trkpt>
      <trkpt lat="46.889480" lon="0.518750">
        <time>2017-06-24T13:03:11Z</time>
      </trkpt>
      <trkpt lat="46.889640" lon="0.518790">
        <time>2017-06-24T13:03:12Z</time>
      </trkpt>
      <trkpt lat="46.889810" lon="0.518830">
        <time>2017-06-24T13:03:13Z</time>
      </trkpt>
      <trkpt lat="46.889980" lon="0.518870">
        <time>2017-06-24T13:03:14Z</time>
      </trkpt>
      <trkpt lat="46.890160" lon="0.518910">
        <time>2017-06-24T13:03:15Z</time>
      </trkpt>
      <trkpt lat="46.890370" lon="0.518950">
        <time>2017-06-24T13:03:16Z</time>
      </trkpt>
      <trkpt lat="46.890540" lon="0.518990">
        <time>2017-06-24T13:03:17Z</time>
      </trkpt>
      <trkpt lat="46.890740" lon="0.519030">
        <time>2017-06-24T13:03:18Z</time>
      </trkpt>
      <trkpt lat="46.890950" lon="0.519080">
        <time>2017-06-24T13:03:19Z</time>
      </trkpt>
      <trkpt lat="46.891130" lon="0.519110">
        <time>2017-06-24T13:03:20Z</time>
      </trkpt>
      <trkpt lat="46.891330" lon="0.519160">
        <time>2017-06-24T13:03:21Z</time>
      </trkpt>
      <trkpt lat="46.891550" lon="0.519200">
        <time>2017-06-24T13:03:22Z</time>
      </trkpt>
      <trkpt lat="46.891740" lon="0.519240">
        <time>2017-06-24T13:03:23Z</time>
      </trkpt>
      <trkpt lat="46.891960" lon="0.519290">
        <time>2017-06-24T13:03:24Z</time>
      </trkpt>
      <trkpt lat="46.892140" lon="0.519320">
        <time>2017-06-24T13:03:25Z</time>
      </trkpt>
      <trkpt lat="46.892340" lon="0.519360">
        <time>2017-06-24T13:03:26Z</time>
      </trkpt>
      <trkpt lat="46.892550" lon="0.519400">
        <time>2017-06-24T13:03:27Z</time>
      </trkpt>
      <trkpt lat="46.892720" lon="0.519440">
        <time>2017-06-24T13:03:28Z</time>
      </trkpt>
      <trkpt lat="46.892910" lon="0.519480">
        <time>2017-06-24T13:03:29Z</time>
      </trkpt>
      <trkpt lat="46.893090" lon="0.519520">
        <time>2017-06-24T13:03:30Z</time>
      </trkpt>
      <trkpt lat="46.893270" lon="0.519560">
        <time>2017-06-24T13:03:31Z</time>
      </trkpt>
      <trkpt lat="46.893460" lon="0.519600">
        <time>2017-06-24T13:03:32Z</time>
      </trkpt>
      <trkpt lat="46.893620" lon="0.519630">
        <time>2017-06-24T13:03:33Z</time>
      </trkpt>
      <trkpt lat="46.893790" lon="0.519670">
        <time>2017-06-24T13:03:34Z</time>
      </trkpt>
      <trkpt lat="46.893960" lon="0.519710">
        <time>2017-06-24T13:03:35Z</time>
      </trkpt>
      <trkpt lat="46.894130" lon="0.519740">
        <time>2017-06-24T13:03:36Z</time>
      </trkpt>
      <trkpt lat="46.894300" lon="0.519780">
        <time>2017-06-24T13:03:37Z</time>
      </trkpt>
      <trkpt lat="46.894480" lon="0.519810">
        <time>2017-06-24T13:03:38Z</time>
      </trkpt>
      <trkpt lat="46.894640" lon="0.519850">
        <time>2017-06-24T13:03:39Z</time>
      </trkpt>
      <trkpt lat="46.894830" lon="0.519890">
        <time>2017-06-24T13:03:40Z</time>
      </trkpt>
      <trkpt lat="46.895000" lon="0.519920">
        <time>2017-06-24T13:03:41Z</time>
      </trkpt>
      <trkpt lat="46.895190" lon="0.519960">
        <time>2017-06-24T13:03:42Z</time>
      </trkpt>
      <trkpt lat="46.895380" lon="0.520010">
        <time>2017-06-24T13:03:43Z</time>
      </trkpt>
      <trkpt lat="46.895550" lon="0.520050">
        <time>2017-06-24T13:03:44Z</time>
      </trkpt>
      <trkpt lat="46.895730" lon="0.520080">
        <time>2017-06-24T13:03:45Z</time>
      </trkpt>
      <trkpt lat="46.895900" lon="0.520120">
        <time>2017-06-24T13:03:46Z</time>
      </trkpt>
      <trkpt lat="46.896080" lon="0.520160">
        <time>2017-06-24T13:03:47Z</time>
      </trkpt>
      <trkpt lat="46.896270" lon="0.520200">
        <time>2017-06-24T13:03:48Z</time>
      </trkpt>
      <trkpt lat="46.896440" lon="0.520230">
        <time>2017-06-24T13:03:49Z</time>
      </trkpt>
      <trkpt lat="46.896620" lon="0.520270">
        <time>2017-06-24T13:03:50Z</time>
      </trkpt>
      <trkpt lat="46.896810" lon="0.520310">
        <time>2017-06-24T13:03:51Z</time>
      </trkpt>
      <trkpt lat="46.896970" lon="0.520350">
        <time>2017-06-24T13:03:52Z</time>
      </trkpt>
      <trkpt lat="46.897140" lon="0.520390">
        <time>2017-06-24T13:03:53Z</time>
      </trkpt>
      <trkpt lat="46.897330" lon="0.520430">
        <time>2017-06-24T13:03:54Z</time>
      </trkpt>
      <trkpt lat="46.897500" lon="0.520460">
        <time>2017-06-24T13:03:55Z</time>
      </trkpt>
      <trkpt lat="46.897690" lon="0.520500">
        <time>2017-06-24T13:03:56Z</time>
      </trkpt>
      <trkpt lat="46.897850" lon="0.520530">
        <time>2017-06-24T13:03:57Z</time>
      </trkpt>
      <trkpt lat="46.898020" lon="0.520560">
        <time>2017-06-24T13:03:58Z</time>
      </trkpt>
      <trkpt lat="46.898200" lon="0.520590">
        <time>2017-06-24T13:03:59Z</time>
      </trkpt>
      <trkpt lat="46.898360" lon="0.520620">
        <time>2017-06-24T13:04:00Z</time>
      </trkpt>
      <trkpt lat="46.898530" lon="0.520660">
        <time>2017-06-24T13:04:01Z</time>
      </trkpt>
      <trkpt lat="46.898710" lon="0.520700">
        <time>2017-06-24T13:04:02Z</time>
      </trkpt>
      <trkpt lat="46.898900" lon="0.520730">
        <time>2017-06-24T13:04:03Z</time>
      </trkpt>
      <trkpt lat="46.899110" lon="0.520770">
        <time>2017-06-24T13:04:04Z</time>
      </trkpt>
      <trkpt lat="46.899290" lon="0.520810">
        <time>2017-06-24T13:04:05Z</time>
      </trkpt>
      <trkpt lat="46.899480" lon="0.520860">
        <time>2017-06-24T13:04:06Z</time>
      </trkpt>
      <trkpt lat="46.899690" lon="0.520910">
        <time>2017-06-24T13:04:07Z</time>
      </trkpt>
      <trkpt lat="46.899860" lon="0.520950">
        <time>2017-06-24T13:04:08Z</time>
      </trkpt>
      <trkpt lat="46.900050" lon="0.521000">
        <time>2017-06-24T13:04:09Z</time>
      </trkpt>
      <trkpt lat="46.900260" lon="0.521050">
        <time>2017-06-24T13:04:10Z</time>
      </trkpt>
      <trkpt lat="46.900440" lon="0.521100">
        <time>2017-06-24T13:04:11Z</time>
      </trkpt>
      <trkpt lat="46.900640" lon="0.521140">
        <time>2017-06-24T13:04:12Z</time>
      </trkpt>
      <trkpt lat="46.900820" lon="0.521180">
        <time>2017-06-24T13:04:13Z</time>
      </trkpt>
      <trkpt lat="46.901010" lon="0.521220">
        <time>2017-06-24T13:04:14Z</time>
      </trkpt>
      <trkpt lat="46.901210" lon="0.521260">
        <time>2017-06-24T13:04:15Z</time>
      </trkpt>
      <trkpt lat="46.901400" lon="0.521300">
        <time>2017-06-24T13:04:16Z</time>
      </trkpt>
      <trkpt lat="46.901590" lon="0.521340">
        <time>2017-06-24T13:04:17Z</time>
      </trkpt>
      <trkpt lat="46.901780" lon="0.521390">
        <time>2017-06-24T13:04:18Z</time>
      </trkpt>
      <trkpt lat="46.901980" lon="0.521440">
        <time>2017-06-24T13:04:19Z</time>
      </trkpt>
      <trkpt lat="46.902190" lon="0.521510">
        <time>2017-06-24T13:04:20Z</time>
      </trkpt>
      <trkpt lat="46.902370" lon="0.521560">
        <time>2017-06-24T13:04:21Z</time>
      </trkpt>
      <trkpt lat="46.902560" lon="0.521610">
        <time>2017-06-24T13:04:22Z</time>
      </trkpt>
      <trkpt lat="46.902760" lon="0.521680">
        <time>2017-06-24T13:04:23Z</time>
      </trkpt>
      <trkpt lat="46.902940" lon="0.521720">
        <time>2017-06-24T13:04:24Z</time>
      </trkpt>
      <trkpt lat="46.903130" lon="0.521780">
        <time>2017-06-24T13:04:25Z</time>
      </trkpt>
      <trkpt lat="46.903330" lon="0.521840">
        <time>2017-06-24T13:04:26Z</time>
      </trkpt>
      <trkpt lat="46.903500" lon="0.521910">
        <time>2017-06-24T13:04:27Z</time>
      </trkpt>
      <trkpt lat="46.903700" lon="0.521990">
        <time>2017-06-24T13:04:28Z</time>
      </trkpt>
      <trkpt lat="46.903850" lon="0.522070">
        <time>2017-06-24T13:04:29Z</time>
      </trkpt>
      <trkpt lat="46.904010" lon="0.522150">
        <time>2017-06-24T13:04:30Z</time>
      </trkpt>
      <trkpt lat="46.904150" lon="0.522240">
        <time>2017-06-24T13:04:31Z</time>
      </trkpt>
      <trkpt lat="46.904260" lon="0.522310">
        <time>2017-06-24T13:04:32Z</time>
      </trkpt>
      <trkpt lat="46.904370" lon="0.522400">
        <time>2017-06-24T13:04:33Z</time>
      </trkpt>
      <trkpt lat="46.904460" lon="0.522480">
        <time>2017-06-24T13:04:34Z</time>
      </trkpt>
      <trkpt lat="46.904530" lon="0.522570">
        <time>2017-06-24T13:04:35Z</time>
      </trkpt>
      <trkpt lat="46.904600" lon="0.522670">
        <time>2017-06-24T13:04:36Z</time>
      </trkpt>
      <trkpt lat="46.904650" lon="0.522750">
        <time>2017-06-24T13:04:37Z</time>
      </trkpt>
      <trkpt lat="46.904700" lon="0.522830">
        <time>2017-06-24T13:04:38Z</time>
      </trkpt>
      <trkpt lat="46.904750" lon="0.522900">
        <time>2017-06-24T13:04:39Z</time>
      </trkpt>
      <trkpt lat="46.904790" lon="0.522960">
        <time>2017-06-24T13:04:40Z</time>
      </trkpt>
      <trkpt lat="46.904830" lon="0.523010">
        <time>2017-06-24T13:04:41Z</time>
      </trkpt>
      <trkpt lat="46.904860" lon="0.523060">
        <time>2017-06-24T13:04:42Z</time>
      </trkpt>
      <trkpt lat="46.904890" lon="0.523110">
        <time>2017-06-24T13:04:43Z</time>
      </trkpt>
      <trkpt lat="46.904930" lon="0.523150">
        <time>2017-06-24T13:04:44Z</time>
      </trkpt>
      <trkpt lat="46.904960" lon="0.523190">
        <time>2017-06-24T13:04:45Z</time>
      </trkpt>
      <trkpt lat="46.904990" lon="0.523230">
        <time>2017-06-24T13:04:46Z</time>
      </trkpt>
      <trkpt lat="46.905020" lon="0.523270">
        <time>2017-06-24T13:04:47Z</time>
      </trkpt>
      <trkpt lat="46.905040" lon="0.523310">
        <time>2017-06-24T13:04:48Z</time>
      </trkpt>
      <trkpt lat="46.905060" lon="0.523340">
        <time>2017-06-24T13:04:49Z</time>
      </trkpt>
      <trkpt lat="46.905080" lon="0.523370">
        <time>2017-06-24T13:04:50Z</time>
      </trkpt>
      <trkpt lat="46.905090" lon="0.523390">
        <time>2017-06-24T13:04:51Z</time>
      </trkpt>
      <trkpt lat="46.905100" lon="0.523400">
        <time>2017-06-24T13:04:52Z</time>
      </trkpt>
      <trkpt lat="46.905100" lon="0.523400">
        <time>2017-06-24T13:04:53Z</time>
      </trkpt>
      <trkpt lat="46.905100" lon="0.523400">
        <time>2017-06-24T13:04:54Z</time>
      </trkpt>
      <trkpt lat="46.905100" lon="0.523400">
        <time>2017-06-24T13:04:55Z</time>
      </trkpt>
      <trkpt lat="46.905100" lon="0.523400">
        <time>2017-06-24T13:04:56Z</time>
      </trkpt>
      <trkpt lat="46.905090" lon="0.523390">
        <time>2017-06-24T13:04:57Z</time>
      </trkpt>
      <trkpt lat="46.905090" lon="0.523390">
        <time>2017-06-24T13:04:58Z</time>
      </trkpt>
      <trkpt lat="46.905090" lon="0.523390">
        <time>2017-06-24T13:04:59Z</time>
      </trkpt>
      <trkpt lat="46.905090" lon="0.523390">
        <time>2017-06-24T13:05:00Z</time>
      </trkpt>
      <trkpt lat="46.905090" lon="0.523390">
        <time>2017-06-24T13:05:01Z</time>
      </trkpt>
      <trkpt lat="46.905090" lon="0.523390">
        <time>2017-06-24T13:05:02Z</time>
      </trkpt>
      <trkpt lat="46.905090" lon="0.523390">
        <time>2017-06-24T13:05:03Z</time>
      </trkpt>
      <trkpt lat="46.905090" lon="0.523390">
        <time>2017-06-24T13:05:04Z</time>
      </trkpt>
      <trkpt lat="46.905090" lon="0.523390">
        <time>2017-06-24T13:05:05Z</time>
      </trkpt>
      <trkpt lat="46.905090" lon="0.523390">
        <time>2017-06-24T13:05:06Z</time>
      </trkpt>
      <trkpt lat="46.905090" lon="0.523390">
        <time>2017-06-24T13:05:07Z</time>
      </trkpt>
      <trkpt lat="46.905090" lon="0.523390">
        <time>2017-06-24T13:05:08Z</time>
      </trkpt>
      <trkpt lat="46.905090" lon="0.523390">
        <time>2017-06-24T13:05:09Z</time>
      </trkpt>
      <trkpt lat="46.905090" lon="0.523390">
        <time>2017-06-24T13:05:10Z</time>
      </trkpt>
      <trkpt lat="46.905090" lon="0.523390">
        <time>2017-06-24T13:05:11Z</time>
      </trkpt>
      <trkpt lat="46.905090" lon="0.523390">
        <time>2017-06-24T13:05:12Z</time>
      </trkpt>
      <trkpt lat="46.905090" lon="0.523390">
        <time>2017-06-24T13:05:13Z</time>
      </trkpt>
      <trkpt lat="46.905090" lon="0.523390">
        <time>2017-06-24T13:05:14Z</time>
      </trkpt>
      <trkpt lat="46.905090" lon="0.523390">
        <time>2017-06-24T13:05:15Z</time>
      </trkpt>
      <trkpt lat="46.905090" lon="0.523390">
        <time>2017-06-24T13:05:16Z</time>
      </trkpt>
      <trkpt lat="46.905090" lon="0.523390">
        <time>2017-06-24T13:05:17Z</time>
      </trkpt>
      <trkpt lat="46.905090" lon="0.523390">
        <time>2017-06-24T13:05:18Z</time>
      </trkpt>
      <trkpt lat="46.905090" lon="0.523390">
        <time>2017-06-24T13:05:19Z</time>
      </trkpt>
      <trkpt lat="46.905090" lon="0.523390">
        <time>2017-06-24T13:05:20Z</time>
      </trkpt>
      <trkpt lat="46.905090" lon="0.523390">
        <time>2017-06-24T13:05:21Z</time>
      </trkpt>
      <trkpt lat="46.905090" lon="0.523390">
        <time>2017-06-24T13:05:22Z</time>
      </trkpt>
      <trkpt lat="46.905090" lon="0.523390">
        <time>2017-06-24T13:05:23Z</time>
      </trkpt>
      <trkpt lat="46.905090" lon="0.523390">
        <time>2017-06-24T13:05:24Z</time>
      </trkpt>
      <trkpt lat="46.905090" lon="0.523390">
        <time>2017-06-24T13:05:25Z</time>
      </trkpt>
      <trkpt lat="46.905090" lon="0.523390">
        <time>2017-06-24T13:05:26Z</time>
      </trkpt>
      <trkpt lat="46.905090" lon="0.523390">
        <time>2017-06-24T13:05:27Z</time>
      </trkpt>
      <trkpt lat="46.905090" lon="0.523390">
        <time>2017-06-24T13:05:28Z</time>
      </trkpt>
      <trkpt lat="46.905090" lon="0.523390">
        <time>2017-06-24T13:05:29Z</time>
      </trkpt>
      <trkpt lat="46.905090" lon="0.523390">
        <time>2017-06-24T13:05:30Z</time>
      </trkpt>
      <trkpt lat="46.905090" lon="0.523390">
        <time>2017-06-24T13:05:31Z</time>
      </trkpt>
      <trkpt lat="46.905090" lon="0.523390">
        <time>2017-06-24T13:05:32Z</time>
      </trkpt>
      <trkpt lat="46.905090" lon="0.523390">
        <time>2017-06-24T13:05:33Z</time>
      </trkpt>
      <trkpt lat="46.905090" lon="0.523390">
        <time>2017-06-24T13:05:34Z</time>
      </trkpt>
      <trkpt lat="46.905090" lon="0.523390">
        <time>2017-06-24T13:05:35Z</time>
      </trkpt>
      <trkpt lat="46.905090" lon="0.523390">
        <time>2017-06-24T13:05:36Z</time>
      </trkpt>
      <trkpt lat="46.905090" lon="0.523390">
        <time>2017-06-24T13:05:37Z</time>
      </trkpt>
      <trkpt lat="46.905090" lon="0.523390">
        <time>2017-06-24T13:05:38Z</time>
      </trkpt>
      <trkpt lat="46.905090" lon="0.523390">
        <time>2017-06-24T13:05:39Z</time>
      </trkpt>
      <trkpt lat="46.905090" lon="0.523390">
        <time>2017-06-24T13:05:40Z</time>
      </trkpt>
      <trkpt lat="46.905090" lon="0.523390">
        <time>2017-06-24T13:05:41Z</time>
      </trkpt>
      <trkpt lat="46.905090" lon="0.523390">
        <time>2017-06-24T13:05:42Z</time>
      </trkpt>
      <trkpt lat="46.905090" lon="0.523390">
        <time>2017-06-24T13:05:43Z</time>
      </trkpt>
      <trkpt lat="46.905090" lon="0.523390">
        <time>2017-06-24T13:05:44Z</time>
      </trkpt>
      <trkpt lat="46.905090" lon="0.523390">
        <time>2017-06-24T13:05:45Z</time>
      </trkpt>
      <trkpt lat="46.905090" lon="0.523390">
        <time>2017-06-24T13:05:46Z</time>
      </trkpt>
      <trkpt lat="46.905090" lon="0.523390">
        <time>2017-06-24T13:05:47Z</time>
      </trkpt>
      <trkpt lat="46.905090" lon="0.523390">
        <time>2017-06-24T13:05:48Z</time>
      </trkpt>
      <trkpt lat="46.905090" lon="0.523390">
        <time>2017-06-24T13:05:49Z</time>
      </trkpt>
      <trkpt lat="46.905090" lon="0.523390">
        <time>2017-06-24T13:05:50Z</time>
      </trkpt>
      <trkpt lat="46.905090" lon="0.523390">
        <time>2017-06-24T13:05:51Z</time>
      </trkpt>
      <trkpt lat="46.905090" lon="0.523390">
        <time>2017-06-24T13:05:52Z</time>
      </trkpt>
      <trkpt lat="46.905090" lon="0.523390">
        <time>2017-06-24T13:05:53Z</time>
      </trkpt>
      <trkpt lat="46.905090" lon="0.523390">
        <time>2017-06-24T13:05:54Z</time>
      </trkpt>
      <trkpt lat="46.905090" lon="0.523390">
        <time>2017-06-24T13:05:55Z</time>
      </trkpt>
      <trkpt lat="46.905090" lon="0.523390">
        <time>2017-06-24T13:05:56Z</time>
      </trkpt>
      <trkpt lat="46.905090" lon="0.523390">
        <time>2017-06-24T13:05:57Z</time>
      </trkpt>
      <trkpt lat="46.905090" lon="0.523390">
        <time>2017-06-24T13:05:58Z</time>
      </trkpt>
      <trkpt lat="46.905090" lon="0.523390">
        <time>2017-06-24T13:05:59Z</time>
      </trkpt>
      <trkpt lat="46.905090" lon="0.523390">
        <time>2017-06-24T13:06:00Z</time>
      </trkpt>
      <trkpt lat="46.905090" lon="0.523390">
        <time>2017-06-24T13:06:01Z</time>
      </trkpt>
      <trkpt lat="46.905090" lon="0.523390">
        <time>2017-06-24T13:06:02Z</time>
      </trkpt>
      <trkpt lat="46.905090" lon="0.523390">
        <time>2017-06-24T13:06:03Z</time>
      </trkpt>
      <trkpt lat="46.905090" lon="0.523390">
        <time>2017-06-24T13:06:04Z</time>
      </trkpt>
      <trkpt lat="46.905090" lon="0.523390">
        <time>2017-06-24T13:06:05Z</time>
      </trkpt>
      <trkpt lat="46.905090" lon="0.523390">
        <time>2017-06-24T13:06:06Z</time>
      </trkpt>
      <trkpt lat="46.905090" lon="0.523390">
        <time>2017-06-24T13:06:07Z</time>
      </trkpt>
      <trkpt lat="46.905090" lon="0.523390">
        <time>2017-06-24T13:06:08Z</time>
      </trkpt>
      <trkpt lat="46.905090" lon="0.523390">
        <time>2017-06-24T13:06:09Z</time>
      </trkpt>
      <trkpt lat="46.905090" lon="0.523390">
        <time>2017-06-24T13:06:10Z</time>
      </trkpt>
      <trkpt lat="46.905090" lon="0.523390">
        <time>2017-06-24T13:06:11Z</time>
      </trkpt>
      <trkpt lat="46.905090" lon="0.523390">
        <time>2017-06-24T13:06:12Z</time>
      </trkpt>
      <trkpt lat="46.905090" lon="0.523390">
        <time>2017-06-24T13:06:13Z</time>
      </trkpt>
      <trkpt lat="46.905090" lon="0.523390">
        <time>2017-06-24T13:06:14Z</time>
      </trkpt>
      <trkpt lat="46.905090" lon="0.523390">
        <time>2017-06-24T13:06:15Z</time>
      </trkpt>
      <trkpt lat="46.905090" lon="0.523390">
        <time>2017-06-24T13:06:16Z</time>
      </trkpt>
      <trkpt lat="46.905090" lon="0.523390">
        <time>2017-06-24T13:06:17Z</time>
      </trkpt>
      <trkpt lat="46.905090" lon="0.523390">
        <time>2017-06-24T13:06:18Z</time>
      </trkpt>
      <trkpt lat="46.905090" lon="0.523390">
        <time>2017-06-24T13:06:19Z</time>
      </trkpt>
      <trkpt lat="46.905090" lon="0.523390">
        <time>2017-06-24T13:06:20Z</time>
      </trkpt>
      <trkpt lat="46.905090" lon="0.523390">
        <time>2017-06-24T13:06:21Z</time>
      </trkpt>
      <trkpt lat="46.905090" lon="0.523390">
        <time>2017-06-24T13:06:22Z</time>
      </trkpt>
      <trkpt lat="46.905090" lon="0.523390">
        <time>2017-06-24T13:06:23Z</time>
      </trkpt>
      <trkpt lat="46.905090" lon="0.523390">
        <time>2017-06-24T13:06:24Z</time>
      </trkpt>
      <trkpt lat="46.905090" lon="0.523390">
        <time>2017-06-24T13:06:25Z</time>
      </trkpt>
      <trkpt lat="46.905090" lon="0.523390">
        <time>2017-06-24T13:06:26Z</time>
      </trkpt>
      <trkpt lat="46.905090" lon="0.523390">
        <time>2017-06-24T13:06:27Z</time>
      </trkpt>
      <trkpt lat="46.905090" lon="0.523390">
        <time>2017-06-24T13:06:28Z</time>
      </trkpt>
      <trkpt lat="46.905090" lon="0.523390">
        <time>2017-06-24T13:06:29Z</time>
      </trkpt>
      <trkpt lat="46.905090" lon="0.523390">
        <time>2017-06-24T13:06:30Z</time>
      </trkpt>
      <trkpt lat="46.905090" lon="0.523390">
        <time>2017-06-24T13:06:31Z</time>
      </trkpt>
      <trkpt lat="46.905090" lon="0.523390">
        <time>2017-06-24T13:06:32Z</time>
      </trkpt>
      <trkpt lat="46.905090" lon="0.523390">
        <time>2017-06-24T13:06:33Z</time>
      </trkpt>
      <trkpt lat="46.905090" lon="0.523390">
        <time>2017-06-24T13:06:34Z</time>
      </trkpt>
      <trkpt lat="46.905090" lon="0.523390">
        <time>2017-06-24T13:06:35Z</time>
      </trkpt>
      <trkpt lat="46.905090" lon="0.523390">
        <time>2017-06-24T13:06:36Z</time>
      </trkpt>
      <trkpt lat="46.905090" lon="0.523390">
        <time>2017-06-24T13:06:37Z</time>
      </trkpt>
      <trkpt lat="46.905090" lon="0.523390">
        <time>2017-06-24T13:06:38Z</time>
      </trkpt>
      <trkpt lat="46.905090" lon="0.523390">
        <time>2017-06-24T13:06:39Z</time>
      </trkpt>
      <trkpt lat="46.905090" lon="0.523390">
        <time>2017-06-24T13:06:40Z</time>
      </trkpt>
      <trkpt lat="46.905090" lon="0.523390">
        <time>2017-06-24T13:06:41Z</time>
      </trkpt>
      <trkpt lat="46.905090" lon="0.523390">
        <time>2017-06-24T13:06:42Z</time>
      </trkpt>
      <trkpt lat="46.905120" lon="0.523360">
        <time>2017-06-24T13:08:32Z</time>
      </trkpt>
      <trkpt lat="46.905120" lon="0.523390">
        <time>2017-06-24T13:08:33Z</time>
      </trkpt>
      <trkpt lat="46.905100" lon="0.523370">
        <time>2017-06-24T13:08:34Z</time>
      </trkpt>
      <trkpt lat="46.905130" lon="0.523320">
        <time>2017-06-24T13:08:35Z</time>
      </trkpt>
      <trkpt lat="46.905110" lon="0.523400">
        <time>2017-06-24T13:08:36Z</time>
      </trkpt>
      <trkpt lat="46.905080" lon="0.523380">
        <time>2017-06-24T13:08:38Z</time>
      </trkpt>
      <trkpt lat="46.905080" lon="0.523380">
        <time>2017-06-24T13:08:39Z</time>
      </trkpt>
      <trkpt lat="46.905080" lon="0.523380">
        <time>2017-06-24T13:08:40Z</time>
      </trkpt>
      <trkpt lat="46.905080" lon="0.523380">
        <time>2017-06-24T13:08:41Z</time>
      </trkpt>
      <trkpt lat="46.905090" lon="0.523380">
        <time>2017-06-24T13:08:42Z</time>
      </trkpt>
      <trkpt lat="46.905100" lon="0.523390">
        <time>2017-06-24T13:08:43Z</time>
      </trkpt>
      <trkpt lat="46.905120" lon="0.523410">
        <time>2017-06-24T13:08:44Z</time>
      </trkpt>
      <trkpt lat="46.905140" lon="0.523430">
        <time>2017-06-24T13:08:45Z</time>
      </trkpt>
      <trkpt lat="46.905170" lon="0.523450">
        <time>2017-06-24T13:08:46Z</time>
      </trkpt>
      <trkpt lat="46.905200" lon="0.523460">
        <time>2017-06-24T13:08:47Z</time>
      </trkpt>
      <trkpt lat="46.905230" lon="0.523460">
        <time>2017-06-24T13:08:48Z</time>
      </trkpt>
      <trkpt lat="46.905260" lon="0.523440">
        <time>2017-06-24T13:08:49Z</time>
      </trkpt>
      <trkpt lat="46.905280" lon="0.523410">
        <time>2017-06-24T13:08:50Z</time>
      </trkpt>
      <trkpt lat="46.905310" lon="0.523370">
        <time>2017-06-24T13:08:51Z</time>
      </trkpt>
      <trkpt lat="46.905330" lon="0.523320">
        <time>2017-06-24T13:08:52Z</time>
      </trkpt>
      <trkpt lat="46.905350" lon="0.523290">
        <time>2017-06-24T13:08:53Z</time>
      </trkpt>
      <trkpt lat="46.905380" lon="0.523270">
        <time>2017-06-24T13:08:54Z</time>
      </trkpt>
      <trkpt lat="46.905400" lon="0.523260">
        <time>2017-06-24T13:08:55Z</time>
      </trkpt>
      <trkpt lat="46.905420" lon="0.523260">
        <time>2017-06-24T13:08:56Z</time>
      </trkpt>
      <trkpt lat="46.905430" lon="0.523260">
        <time>2017-06-24T13:08:57Z</time>
      </trkpt>
      <trkpt lat="46.905430" lon="0.523260">
        <time>2017-06-24T13:08:58Z</time>
      </trkpt>
      <trkpt lat="46.905430" lon="0.523260">
        <time>2017-06-24T13:08:59Z</time>
      </trkpt>
      <trkpt lat="46.905430" lon="0.523260">
        <time>2017-06-24T13:09:00Z</time>
      </trkpt>
      <trkpt lat="46.905430" lon="0.523260">
        <time>2017-06-24T13:09:01Z</time>
      </trkpt>
      <trkpt lat="46.905430" lon="0.523260">
        <time>2017-06-24T13:09:02Z</time>
      </trkpt>
      <trkpt lat="46.905430" lon="0.523260">
        <time>2017-06-24T13:09:03Z</time>
      </trkpt>
      <trkpt lat="46.905430" lon="0.523260">
        <time>2017-06-24T13:09:04Z</time>
      </trkpt>
      <trkpt lat="46.905430" lon="0.523260">
        <time>2017-06-24T13:09:05Z</time>
      </trkpt>
      <trkpt lat="46.905430" lon="0.523260">
        <time>2017-06-24T13:09:06Z</time>
      </trkpt>
      <trkpt lat="46.905430" lon="0.523260">
        <time>2017-06-24T13:09:07Z</time>
      </trkpt>
      <trkpt lat="46.905430" lon="0.523260">
        <time>2017-06-24T13:09:08Z</time>
      </trkpt>
      <trkpt lat="46.905430" lon="0.523260">
        <time>2017-06-24T13:09:09Z</time>
      </trkpt>
      <trkpt lat="46.905430" lon="0.523260">
        <time>2017-06-24T13:09:10Z</time>
      </trkpt>
      <trkpt lat="46.905430" lon="0.523260">
        <time>2017-06-24T13:09:11Z</time>
      </trkpt>
      <trkpt lat="46.905430" lon="0.523260">
        <time>2017-06-24T13:09:12Z</time>
      </trkpt>
      <trkpt lat="46.905430" lon="0.523260">
        <time>2017-06-24T13:09:13Z</time>
      </trkpt>
      <trkpt lat="46.905430" lon="0.523260">
        <time>2017-06-24T13:09:14Z</time>
      </trkpt>
      <trkpt lat="46.905430" lon="0.523260">
        <time>2017-06-24T13:09:15Z</time>
      </trkpt>
      <trkpt lat="46.905430" lon="0.523260">
        <time>2017-06-24T13:09:16Z</time>
      </trkpt>
      <trkpt lat="46.905430" lon="0.523260">
        <time>2017-06-24T13:09:17Z</time>
      </trkpt>
      <trkpt lat="46.905430" lon="0.523260">
        <time>2017-06-24T13:09:18Z</time>
      </trkpt>
      <trkpt lat="46.905430" lon="0.523260">
        <time>2017-06-24T13:09:19Z</time>
      </trkpt>
      <trkpt lat="46.905430" lon="0.523260">
        <time>2017-06-24T13:09:20Z</time>
      </trkpt>
      <trkpt lat="46.905430" lon="0.523260">
        <time>2017-06-24T13:09:21Z</time>
      </trkpt>
      <trkpt lat="46.905430" lon="0.523260">
        <time>2017-06-24T13:09:22Z</time>
      </trkpt>
      <trkpt lat="46.905430" lon="0.523260">
        <time>2017-06-24T13:09:23Z</time>
      </trkpt>
      <trkpt lat="46.905430" lon="0.523260">
        <time>2017-06-24T13:09:24Z</time>
      </trkpt>
      <trkpt lat="46.905430" lon="0.523260">
        <time>2017-06-24T13:09:25Z</time>
      </trkpt>
      <trkpt lat="46.905430" lon="0.523260">
        <time>2017-06-24T13:09:26Z</time>
      </trkpt>
      <trkpt lat="46.905430" lon="0.523260">
        <time>2017-06-24T13:09:27Z</time>
      </trkpt>
      <trkpt lat="46.905430" lon="0.523260">
        <time>2017-06-24T13:09:28Z</time>
      </trkpt>
      <trkpt lat="46.905430" lon="0.523260">
        <time>2017-06-24T13:09:29Z</time>
      </trkpt>
      <trkpt lat="46.905430" lon="0.523260">
        <time>2017-06-24T13:09:30Z</time>
      </trkpt>
      <trkpt lat="46.905430" lon="0.523260">
        <time>2017-06-24T13:09:31Z</time>
      </trkpt>
      <trkpt lat="46.905430" lon="0.523260">
        <time>2017-06-24T13:09:32Z</time>
      </trkpt>
      <trkpt lat="46.905430" lon="0.523260">
        <time>2017-06-24T13:09:33Z</time>
      </trkpt>
      <trkpt lat="46.905430" lon="0.523260">
        <time>2017-06-24T13:09:34Z</time>
      </trkpt>
      <trkpt lat="46.905430" lon="0.523260">
        <time>2017-06-24T13:09:35Z</time>
      </trkpt>
      <trkpt lat="46.905430" lon="0.523260">
        <time>2017-06-24T13:09:36Z</time>
      </trkpt>
      <trkpt lat="46.905430" lon="0.523260">
        <time>2017-06-24T13:09:37Z</time>
      </trkpt>
      <trkpt lat="46.905430" lon="0.523260">
        <time>2017-06-24T13:09:38Z</time>
      </trkpt>
      <trkpt lat="46.905430" lon="0.523260">
        <time>2017-06-24T13:09:39Z</time>
      </trkpt>
      <trkpt lat="46.905430" lon="0.523260">
        <time>2017-06-24T13:09:40Z</time>
      </trkpt>
      <trkpt lat="46.905430" lon="0.523260">
        <time>2017-06-24T13:09:41Z</time>
      </trkpt>
      <trkpt lat="46.905430" lon="0.523260">
        <time>2017-06-24T13:09:42Z</time>
      </trkpt>
      <trkpt lat="46.905430" lon="0.523260">
        <time>2017-06-24T13:09:43Z</time>
      </trkpt>
      <trkpt lat="46.905430" lon="0.523260">
        <time>2017-06-24T13:09:44Z</time>
      </trkpt>
      <trkpt lat="46.905430" lon="0.523260">
        <time>2017-06-24T13:09:45Z</time>
      </trkpt>
      <trkpt lat="46.905430" lon="0.523260">
        <time>2017-06-24T13:09:46Z</time>
      </trkpt>
      <trkpt lat="46.905430" lon="0.523260">
        <time>2017-06-24T13:09:47Z</time>
      </trkpt>
      <trkpt lat="46.905430" lon="0.523260">
        <time>2017-06-24T13:09:48Z</time>
      </trkpt>
      <trkpt lat="46.905430" lon="0.523260">
        <time>2017-06-24T13:09:49Z</time>
      </trkpt>
      <trkpt lat="46.905430" lon="0.523260">
        <time>2017-06-24T13:09:50Z</time>
      </trkpt>
      <trkpt lat="46.905430" lon="0.523260">
        <time>2017-06-24T13:09:51Z</time>
      </trkpt>
      <trkpt lat="46.905430" lon="0.523260">
        <time>2017-06-24T13:09:52Z</time>
      </trkpt>
      <trkpt lat="46.905430" lon="0.523260">
        <time>2017-06-24T13:09:53Z</time>
      </trkpt>
      <trkpt lat="46.905430" lon="0.523260">
        <time>2017-06-24T13:09:54Z</time>
      </trkpt>
      <trkpt lat="46.905430" lon="0.523260">
        <time>2017-06-24T13:09:55Z</time>
      </trkpt>
      <trkpt lat="46.905430" lon="0.523260">
        <time>2017-06-24T13:09:56Z</time>
      </trkpt>
      <trkpt lat="46.905430" lon="0.523260">
        <time>2017-06-24T13:09:57Z</time>
      </trkpt>
      <trkpt lat="46.905430" lon="0.523260">
        <time>2017-06-24T13:09:58Z</time>
      </trkpt>
      <trkpt lat="46.905430" lon="0.523260">
        <time>2017-06-24T13:09:59Z</time>
      </trkpt>
      <trkpt lat="46.905430" lon="0.523260">
        <time>2017-06-24T13:10:00Z</time>
      </trkpt>
      <trkpt lat="46.905430" lon="0.523260">
        <time>2017-06-24T13:10:01Z</time>
      </trkpt>
      <trkpt lat="46.905430" lon="0.523260">
        <time>2017-06-24T13:10:02Z</time>
      </trkpt>
      <trkpt lat="46.905430" lon="0.523260">
        <time>2017-06-24T13:10:03Z</time>
      </trkpt>
      <trkpt lat="46.905430" lon="0.523260">
        <time>2017-06-24T13:10:04Z</time>
      </trkpt>
      <trkpt lat="46.905430" lon="0.523260">
        <time>2017-06-24T13:10:05Z</time>
      </trkpt>
      <trkpt lat="46.905430" lon="0.523260">
        <time>2017-06-24T13:10:06Z</time>
      </trkpt>
      <trkpt lat="46.905430" lon="0.523260">
        <time>2017-06-24T13:10:07Z</time>
      </trkpt>
      <trkpt lat="46.905430" lon="0.523260">
        <time>2017-06-24T13:10:08Z</time>
      </trkpt>
      <trkpt lat="46.905430" lon="0.523260">
        <time>2017-06-24T13:10:09Z</time>
      </trkpt>
      <trkpt lat="46.905430" lon="0.523260">
        <time>2017-06-24T13:10:10Z</time>
      </trkpt>
      <trkpt lat="46.905430" lon="0.523260">
        <time>2017-06-24T13:10:11Z</time>
      </trkpt>
      <trkpt lat="46.905430" lon="0.523260">
        <time>2017-06-24T13:10:12Z</time>
      </trkpt>
      <trkpt lat="46.905430" lon="0.523260">
        <time>2017-06-24T13:10:13Z</time>
      </trkpt>
      <trkpt lat="46.905430" lon="0.523260">
        <time>2017-06-24T13:10:14Z</time>
      </trkpt>
      <trkpt lat="46.905430" lon="0.523260">
        <time>2017-06-24T13:10:15Z</time>
      </trkpt>
      <trkpt lat="46.905430" lon="0.523260">
        <time>2017-06-24T13:10:16Z</time>
      </trkpt>
      <trkpt lat="46.905430" lon="0.523260">
        <time>2017-06-24T13:10:17Z</time>
      </trkpt>
      <trkpt lat="46.905430" lon="0.523260">
        <time>2017-06-24T13:10:18Z</time>
      </trkpt>
      <trkpt lat="46.905430" lon="0.523260">
        <time>2017-06-24T13:10:19Z</time>
      </trkpt>
      <trkpt lat="46.905430" lon="0.523260">
        <time>2017-06-24T13:10:20Z</time>
      </trkpt>
      <trkpt lat="46.905430" lon="0.523260">
        <time>2017-06-24T13:10:21Z</time>
      </trkpt>
      <trkpt lat="46.905430" lon="0.523260">
        <time>2017-06-24T13:10:22Z</time>
      </trkpt>
      <trkpt lat="46.905430" lon="0.523260">
        <time>2017-06-24T13:10:23Z</time>
      </trkpt>
      <trkpt lat="46.905430" lon="0.523260">
        <time>2017-06-24T13:10:24Z</time>
      </trkpt>
      <trkpt lat="46.905430" lon="0.523260">
        <time>2017-06-24T13:10:25Z</time>
      </trkpt>
      <trkpt lat="46.905430" lon="0.523260">
        <time>2017-06-24T13:10:26Z</time>
      </trkpt>
      <trkpt lat="46.905430" lon="0.523260">
        <time>2017-06-24T13:10:27Z</time>
      </trkpt>
      <trkpt lat="46.905430" lon="0.523260">
        <time>2017-06-24T13:10:28Z</time>
      </trkpt>
      <trkpt lat="46.905430" lon="0.523260">
        <time>2017-06-24T13:10:29Z</time>
      </trkpt>
      <trkpt lat="46.905430" lon="0.523260">
        <time>2017-06-24T13:10:30Z</time>
      </trkpt>
      <trkpt lat="46.905430" lon="0.523260">
        <time>2017-06-24T13:10:31Z</time>
      </trkpt>
      <trkpt lat="46.905430" lon="0.523260">
        <time>2017-06-24T13:10:32Z</time>
      </trkpt>
      <trkpt lat="46.905430" lon="0.523260">
        <time>2017-06-24T13:10:33Z</time>
      </trkpt>
      <trkpt lat="46.905430" lon="0.523260">
        <time>2017-06-24T13:10:34Z</time>
      </trkpt>
      <trkpt lat="46.905430" lon="0.523260">
        <time>2017-06-24T13:10:35Z</time>
      </trkpt>
      <trkpt lat="46.905430" lon="0.523260">
        <time>2017-06-24T13:10:36Z</time>
      </trkpt>
      <trkpt lat="46.905430" lon="0.523260">
        <time>2017-06-24T13:10:37Z</time>
      </trkpt>
      <trkpt lat="46.905430" lon="0.523260">
        <time>2017-06-24T13:10:38Z</time>
      </trkpt>
      <trkpt lat="46.905430" lon="0.523260">
        <time>2017-06-24T13:10:39Z</time>
      </trkpt>
      <trkpt lat="46.905430" lon="0.523260">
        <time>2017-06-24T13:10:40Z</time>
      </trkpt>
      <trkpt lat="46.905430" lon="0.523260">
        <time>2017-06-24T13:10:41Z</time>
      </trkpt>
      <trkpt lat="46.905430" lon="0.523260">
        <time>2017-06-24T13:10:42Z</time>
      </trkpt>
      <trkpt lat="46.905430" lon="0.523260">
        <time>2017-06-24T13:10:43Z</time>
      </trkpt>
      <trkpt lat="46.905430" lon="0.523260">
        <time>2017-06-24T13:10:44Z</time>
      </trkpt>
      <trkpt lat="46.905430" lon="0.523260">
        <time>2017-06-24T13:10:45Z</time>
      </trkpt>
      <trkpt lat="46.905430" lon="0.523260">
        <time>2017-06-24T13:10:46Z</time>
      </trkpt>
      <trkpt lat="46.905430" lon="0.523260">
        <time>2017-06-24T13:10:47Z</time>
      </trkpt>
      <trkpt lat="46.905430" lon="0.523260">
        <time>2017-06-24T13:10:48Z</time>
      </trkpt>
      <trkpt lat="46.905430" lon="0.523260">
        <time>2017-06-24T13:10:49Z</time>
      </trkpt>
      <trkpt lat="46.905430" lon="0.523260">
        <time>2017-06-24T13:10:50Z</time>
      </trkpt>
      <trkpt lat="46.905440" lon="0.523270">
        <time>2017-06-24T13:10:51Z</time>
      </trkpt>
      <trkpt lat="46.905450" lon="0.523270">
        <time>2017-06-24T13:10:52Z</time>
      </trkpt>
      <trkpt lat="46.905480" lon="0.523270">
        <time>2017-06-24T13:10:53Z</time>
      </trkpt>
      <trkpt lat="46.905530" lon="0.523260">
        <time>2017-06-24T13:10:54Z</time>
      </trkpt>
      <trkpt lat="46.905570" lon="0.523190">
        <time>2017-06-24T13:10:55Z</time>
      </trkpt>
      <trkpt lat="46.905600" lon="0.523130">
        <time>2017-06-24T13:10:56Z</time>
      </trkpt>
      <trkpt lat="46.905620" lon="0.523090">
        <time>2017-06-24T13:10:57Z</time>
      </trkpt>
      <trkpt lat="46.905640" lon="0.523060">
        <time>2017-06-24T13:10:58Z</time>
      </trkpt>
      <trkpt lat="46.905670" lon="0.523040">
        <time>2017-06-24T13:10:59Z</time>
      </trkpt>
      <trkpt lat="46.905710" lon="0.523030">
        <time>2017-06-24T13:11:00Z</time>
      </trkpt>
      <trkpt lat="46.905740" lon="0.523050">
        <time>2017-06-24T13:11:01Z</time>
      </trkpt>
      <trkpt lat="46.905780" lon="0.523080">
        <time>2017-06-24T13:11:02Z</time>
      </trkpt>
      <trkpt lat="46.905820" lon="0.523130">
        <time>2017-06-24T13:11:03Z</time>
      </trkpt>
      <trkpt lat="46.905840" lon="0.523190">
        <time>2017-06-24T13:11:04Z</time>
      </trkpt>
      <trkpt lat="46.905870" lon="0.523260">
        <time>2017-06-24T13:11:05Z</time>
      </trkpt>
      <trkpt lat="46.905900" lon="0.523340">
        <time>2017-06-24T13:11:06Z</time>
      </trkpt>
      <trkpt lat="46.905920" lon="0.523400">
        <time>2017-06-24T13:11:07Z</time>
      </trkpt>
      <trkpt lat="46.905950" lon="0.523460">
        <time>2017-06-24T13:11:08Z</time>
      </trkpt>
      <trkpt lat="46.905970" lon="0.523520">
        <time>2017-06-24T13:11:09Z</time>
      </trkpt>
      <trkpt lat="46.905990" lon="0.523580">
        <time>2017-06-24T13:11:10Z</time>
      </trkpt>
      <trkpt lat="46.906020" lon="0.523650">
        <time>2017-06-24T13:11:11Z</time>
      </trkpt>
      <trkpt lat="46.906030" lon="0.523690">
        <time>2017-06-24T13:11:12Z</time>
      </trkpt>
      <trkpt lat="46.906040" lon="0.523740">
        <time>2017-06-24T13:11:13Z</time>
      </trkpt>
      <trkpt lat="46.906060" lon="0.523790">
        <time>2017-06-24T13:11:14Z</time>
      </trkpt>
      <trkpt lat="46.906070" lon="0.523840">
        <time>2017-06-24T13:11:15Z</time>
      </trkpt>
      <trkpt lat="46.906090" lon="0.523880">
        <time>2017-06-24T13:11:16Z</time>
      </trkpt>
      <trkpt lat="46.906120" lon="0.523900">
        <time>2017-06-24T13:11:17Z</time>
      </trkpt>
      <trkpt lat="46.906160" lon="0.523920">
        <time>2017-06-24T13:11:18Z</time>
      </trkpt>
      <trkpt lat="46.906200" lon="0.523940">
        <time>2017-06-24T13:11:19Z</time>
      </trkpt>
      <trkpt lat="46.906250" lon="0.523960">
        <time>2017-06-24T13:11:20Z</time>
      </trkpt>
      <trkpt lat="46.906290" lon="0.523980">
        <time>2017-06-24T13:11:21Z</time>
      </trkpt>
      <trkpt lat="46.906340" lon="0.524000">
        <time>2017-06-24T13:11:22Z</time>
      </trkpt>
      <trkpt lat="46.906390" lon="0.524020">
        <time>2017-06-24T13:11:23Z</time>
      </trkpt>
      <trkpt lat="46.906450" lon="0.524040">
        <time>2017-06-24T13:11:24Z</time>
      </trkpt>
      <trkpt lat="46.906490" lon="0.524060">
        <time>2017-06-24T13:11:25Z</time>
      </trkpt>
      <trkpt lat="46.906520" lon="0.524070">
        <time>2017-06-24T13:11:26Z</time>
      </trkpt>
      <trkpt lat="46.906540" lon="0.524080">
        <time>2017-06-24T13:11:27Z</time>
      </trkpt>
      <trkpt lat="46.906550" lon="0.524080">
        <time>2017-06-24T13:11:28Z</time>
      </trkpt>
      <trkpt lat="46.906540" lon="0.524090">
        <time>2017-06-24T13:11:29Z</time>
      </trkpt>
      <trkpt lat="46.906540" lon="0.524090">
        <time>2017-06-24T13:11:30Z</time>
      </trkpt>
      <trkpt lat="46.906540" lon="0.524090">
        <time>2017-06-24T13:11:31Z</time>
      </trkpt>
      <trkpt lat="46.906540" lon="0.524090">
        <time>2017-06-24T13:11:32Z</time>
      </trkpt>
      <trkpt lat="46.906540" lon="0.524090">
        <time>2017-06-24T13:11:33Z</time>
      </trkpt>
      <trkpt lat="46.906540" lon="0.524090">
        <time>2017-06-24T13:11:34Z</time>
      </trkpt>
      <trkpt lat="46.906550" lon="0.524080">
        <time>2017-06-24T13:11:35Z</time>
      </trkpt>
      <trkpt lat="46.906550" lon="0.524080">
        <time>2017-06-24T13:11:36Z</time>
      </trkpt>
      <trkpt lat="46.906570" lon="0.524100">
        <time>2017-06-24T13:11:37Z</time>
      </trkpt>
      <trkpt lat="46.906600" lon="0.524120">
        <time>2017-06-24T13:11:38Z</time>
      </trkpt>
      <trkpt lat="46.906630" lon="0.524130">
        <time>2017-06-24T13:11:39Z</time>
      </trkpt>
      <trkpt lat="46.906680" lon="0.524130">
        <time>2017-06-24T13:11:40Z</time>
      </trkpt>
      <trkpt lat="46.906730" lon="0.524130">
        <time>2017-06-24T13:11:41Z</time>
      </trkpt>
      <trkpt lat="46.906780" lon="0.524110">
        <time>2017-06-24T13:11:42Z</time>
      </trkpt>
      <trkpt lat="46.906830" lon="0.524090">
        <time>2017-06-24T13:11:43Z</time>
      </trkpt>
      <trkpt lat="46.906890" lon="0.524060">
        <time>2017-06-24T13:11:44Z</time>
      </trkpt>
      <trkpt lat="46.906950" lon="0.524030">
        <time>2017-06-24T13:11:45Z</time>
      </trkpt>
      <trkpt lat="46.907030" lon="0.523990">
        <time>2017-06-24T13:11:46Z</time>
      </trkpt>
      <trkpt lat="46.907100" lon="0.523950">
        <time>2017-06-24T13:11:47Z</time>
      </trkpt>
      <trkpt lat="46.907170" lon="0.523920">
        <time>2017-06-24T13:11:48Z</time>
      </trkpt>
      <trkpt lat="46.907240" lon="0.523890">
        <time>2017-06-24T13:11:49Z</time>
      </trkpt>
      <trkpt lat="46.907340" lon="0.523850">
        <time>2017-06-24T13:11:50Z</time>
      </trkpt>
      <trkpt lat="46.907440" lon="0.523820">
        <time>2017-06-24T13:11:51Z</time>
      </trkpt>
      <trkpt lat="46.907520" lon="0.523800">
        <time>2017-06-24T13:11:52Z</time>
      </trkpt>
      <trkpt lat="46.907600" lon="0.523780">
        <time>2017-06-24T13:11:53Z</time>
      </trkpt>
      <trkpt lat="46.907690" lon="0.523790">
        <time>2017-06-24T13:11:54Z</time>
      </trkpt>
      <trkpt lat="46.907760" lon="0.523800">
        <time>2017-06-24T13:11:55Z</time>
      </trkpt>
      <trkpt lat="46.907830" lon="0.523830">
        <time>2017-06-24T13:11:56Z</time>
      </trkpt>
      <trkpt lat="46.907910" lon="0.523860">
        <time>2017-06-24T13:11:57Z</time>
      </trkpt>
      <trkpt lat="46.908000" lon="0.523910">
        <time>2017-06-24T13:11:58Z</time>
      </trkpt>
      <trkpt lat="46.908110" lon="0.523970">
        <time>2017-06-24T13:11:59Z</time>
      </trkpt>
      <trkpt lat="46.908210" lon="0.524020">
        <time>2017-06-24T13:12:00Z</time>
      </trkpt>
      <trkpt lat="46.908320" lon="0.524090">
        <time>2017-06-24T13:12:01Z</time>
      </trkpt>
      <trkpt lat="46.908420" lon="0.524150">
        <time>2017-06-24T13:12:02Z</time>
      </trkpt>
      <trkpt lat="46.908520" lon="0.524210">
        <time>2017-06-24T13:12:03Z</time>
      </trkpt>
      <trkpt lat="46.908630" lon="0.524280">
        <time>2017-06-24T13:12:04Z</time>
      </trkpt>
      <trkpt lat="46.908730" lon="0.524350">
        <time>2017-06-24T13:12:05Z</time>
      </trkpt>
      <trkpt lat="46.908840" lon="0.524420">
        <time>2017-06-24T13:12:06Z</time>
      </trkpt>
      <trkpt lat="46.908960" lon="0.524490">
        <time>2017-06-24T13:12:07Z</time>
      </trkpt>
      <trkpt lat="46.909080" lon="0.524570">
        <time>2017-06-24T13:12:08Z</time>
      </trkpt>
      <trkpt lat="46.909230" lon="0.524670">
        <time>2017-06-24T13:12:09Z</time>
      </trkpt>
      <trkpt lat="46.909420" lon="0.524780">
        <time>2017-06-24T13:12:10Z</time>
      </trkpt>
      <trkpt lat="46.909600" lon="0.524890">
        <time>2017-06-24T13:12:11Z</time>
      </trkpt>
      <trkpt lat="46.909800" lon="0.525020">
        <time>2017-06-24T13:12:12Z</time>
      </trkpt>
      <trkpt lat="46.909980" lon="0.525130">
        <time>2017-06-24T13:12:13Z</time>
      </trkpt>
      <trkpt lat="46.910180" lon="0.525260">
        <time>2017-06-24T13:12:14Z</time>
      </trkpt>
      <trkpt lat="46.910390" lon="0.525400">
        <time>2017-06-24T13:12:15Z</time>
      </trkpt>
      <trkpt lat="46.910590" lon="0.525550">
        <time>2017-06-24T13:12:16Z</time>
      </trkpt>
      <trkpt lat="46.910800" lon="0.525700">
        <time>2017-06-24T13:12:17Z</time>
      </trkpt>
      <trkpt lat="46.911020" lon="0.525860">
        <time>2017-06-24T13:12:18Z</time>
      </trkpt>
      <trkpt lat="46.911250" lon="0.526020">
        <time>2017-06-24T13:12:19Z</time>
      </trkpt>
      <trkpt lat="46.911490" lon="0.526210">
        <time>2017-06-24T13:12:20Z</time>
      </trkpt>
      <trkpt lat="46.911700" lon="0.526380">
        <time>2017-06-24T13:12:21Z</time>
      </trkpt>
      <trkpt lat="46.911930" lon="0.526550">
        <time>2017-06-24T13:12:22Z</time>
      </trkpt>
      <trkpt lat="46.912160" lon="0.526750">
        <time>2017-06-24T13:12:23Z</time>
      </trkpt>
      <trkpt lat="46.912370" lon="0.526910">
        <time>2017-06-24T13:12:24Z</time>
      </trkpt>
      <trkpt lat="46.912590" lon="0.527090">
        <time>2017-06-24T13:12:25Z</time>
      </trkpt>
      <trkpt lat="46.912820" lon="0.527280">
        <time>2017-06-24T13:12:26Z</time>
      </trkpt>
      <trkpt lat="46.913030" lon="0.527450">
        <time>2017-06-24T13:12:27Z</time>
      </trkpt>
      <trkpt lat="46.913270" lon="0.527640">
        <time>2017-06-24T13:12:28Z</time>
      </trkpt>
      <trkpt lat="46.913470" lon="0.527810">
        <time>2017-06-24T13:12:29Z</time>
      </trkpt>
      <trkpt lat="46.913690" lon="0.528000">
        <time>2017-06-24T13:12:30Z</time>
      </trkpt>
      <trkpt lat="46.913910" lon="0.528180">
        <time>2017-06-24T13:12:31Z</time>
      </trkpt>
      <trkpt lat="46.914120" lon="0.528350">
        <time>2017-06-24T13:12:32Z</time>
      </trkpt>
      <trkpt lat="46.914330" lon="0.528520">
        <time>2017-06-24T13:12:33Z</time>
      </trkpt>
      <trkpt lat="46.914540" lon="0.528700">
        <time>2017-06-24T13:12:34Z</time>
      </trkpt>
      <trkpt lat="46.914750" lon="0.528870">
        <time>2017-06-24T13:12:35Z</time>
      </trkpt>
      <trkpt lat="46.914970" lon="0.529050">
        <time>2017-06-24T13:12:36Z</time>
      </trkpt>
      <trkpt lat="46.915170" lon="0.529220">
        <time>2017-06-24T13:12:37Z</time>
      </trkpt>
      <trkpt lat="46.915370" lon="0.529380">
        <time>2017-06-24T13:12:38Z</time>
      </trkpt>
      <trkpt lat="46.915580" lon="0.529560">
        <time>2017-06-24T13:12:39Z</time>
      </trkpt>
      <trkpt lat="46.915760" lon="0.529700">
        <time>2017-06-24T13:12:40Z</time>
      </trkpt>
      <trkpt lat="46.915950" lon="0.529870">
        <time>2017-06-24T13:12:41Z</time>
      </trkpt>
      <trkpt lat="46.916160" lon="0.530030">
        <time>2017-06-24T13:12:42Z</time>
      </trkpt>
      <trkpt lat="46.916340" lon="0.530180">
        <time>2017-06-24T13:12:43Z</time>
      </trkpt>
      <trkpt lat="46.916550" lon="0.530360">
        <time>2017-06-24T13:12:44Z</time>
      </trkpt>
      <trkpt lat="46.916740" lon="0.530510">
        <time>2017-06-24T13:12:45Z</time>
      </trkpt>
      <trkpt lat="46.916940" lon="0.530680">
        <time>2017-06-24T13:12:46Z</time>
      </trkpt>
      <trkpt lat="46.917160" lon="0.530870">
        <time>2017-06-24T13:12:47Z</time>
      </trkpt>
      <trkpt lat="46.917350" lon="0.531030">
        <time>2017-06-24T13:12:48Z</time>
      </trkpt>
      <trkpt lat="46.917550" lon="0.531200">
        <time>2017-06-24T13:12:49Z</time>
      </trkpt>
      <trkpt lat="46.917760" lon="0.531380">
        <time>2017-06-24T13:12:50Z</time>
      </trkpt>
      <trkpt lat="46.917970" lon="0.531550">
        <time>2017-06-24T13:12:51Z</time>
      </trkpt>
      <trkpt lat="46.918190" lon="0.531730">
        <time>2017-06-24T13:12:52Z</time>
      </trkpt>
      <trkpt lat="46.918380" lon="0.531890">
        <time>2017-06-24T13:12:53Z</time>
      </trkpt>
      <trkpt lat="46.918590" lon="0.532050">
        <time>2017-06-24T13:12:54Z</time>
      </trkpt>
      <trkpt lat="46.918810" lon="0.532240">
        <time>2017-06-24T13:12:55Z</time>
      </trkpt>
      <trkpt lat="46.919010" lon="0.532400">
        <time>2017-06-24T13:12:56Z</time>
      </trkpt>
      <trkpt lat="46.919210" lon="0.532570">
        <time>2017-06-24T13:12:57Z</time>
      </trkpt>
      <trkpt lat="46.919420" lon="0.532750">
        <time>2017-06-24T13:12:58Z</time>
      </trkpt>
      <trkpt lat="46.919610" lon="0.532920">
        <time>2017-06-24T13:12:59Z</time>
      </trkpt>
      <trkpt lat="46.919830" lon="0.533100">
        <time>2017-06-24T13:13:00Z</time>
      </trkpt>
      <trkpt lat="46.920030" lon="0.533250">
        <time>2017-06-24T13:13:01Z</time>
      </trkpt>
      <trkpt lat="46.920240" lon="0.533430">
        <time>2017-06-24T13:13:02Z</time>
      </trkpt>
      <trkpt lat="46.920470" lon="0.533620">
        <time>2017-06-24T13:13:03Z</time>
      </trkpt>
      <trkpt lat="46.920660" lon="0.533780">
        <time>2017-06-24T13:13:04Z</time>
      </trkpt>
      <trkpt lat="46.920880" lon="0.533970">
        <time>2017-06-24T13:13:05Z</time>
      </trkpt>
      <trkpt lat="46.921110" lon="0.534150">
        <time>2017-06-24T13:13:06Z</time>
      </trkpt>
      <trkpt lat="46.921330" lon="0.534330">
        <time>2017-06-24T13:13:07Z</time>
      </trkpt>
      <trkpt lat="46.921560" lon="0.534520">
        <time>2017-06-24T13:13:08Z</time>
      </trkpt>
      <trkpt lat="46.921760" lon="0.534690">
        <time>2017-06-24T13:13:09Z</time>
      </trkpt>
      <trkpt lat="46.921980" lon="0.534860">
        <time>2017-06-24T13:13:10Z</time>
      </trkpt>
      <trkpt lat="46.922200" lon="0.535040">
        <time>2017-06-24T13:13:11Z</time>
      </trkpt>
      <trkpt lat="46.922400" lon="0.535210">
        <time>2017-06-24T13:13:12Z</time>
      </trkpt>
      <trkpt lat="46.922610" lon="0.535380">
        <time>2017-06-24T13:13:13Z</time>
      </trkpt>
      <trkpt lat="46.922820" lon="0.535570">
        <time>2017-06-24T13:13:14Z</time>
      </trkpt>
      <trkpt lat="46.923020" lon="0.535730">
        <time>2017-06-24T13:13:15Z</time>
      </trkpt>
      <trkpt lat="46.923240" lon="0.535910">
        <time>2017-06-24T13:13:16Z</time>
      </trkpt>
      <trkpt lat="46.923420" lon="0.536060">
        <time>2017-06-24T13:13:17Z</time>
      </trkpt>
      <trkpt lat="46.923620" lon="0.536220">
        <time>2017-06-24T13:13:18Z</time>
      </trkpt>
      <trkpt lat="46.923840" lon="0.536390">
        <time>2017-06-24T13:13:19Z</time>
      </trkpt>
      <trkpt lat="46.924030" lon="0.536560">
        <time>2017-06-24T13:13:20Z</time>
      </trkpt>
      <trkpt lat="46.924230" lon="0.536730">
        <time>2017-06-24T13:13:21Z</time>
      </trkpt>
      <trkpt lat="46.924440" lon="0.536900">
        <time>2017-06-24T13:13:22Z</time>
      </trkpt>
      <trkpt lat="46.924650" lon="0.537070">
        <time>2017-06-24T13:13:23Z</time>
      </trkpt>
      <trkpt lat="46.924870" lon="0.537250">
        <time>2017-06-24T13:13:24Z</time>
      </trkpt>
      <trkpt lat="46.925060" lon="0.537400">
        <time>2017-06-24T13:13:25Z</time>
      </trkpt>
      <trkpt lat="46.925260" lon="0.537570">
        <time>2017-06-24T13:13:26Z</time>
      </trkpt>
      <trkpt lat="46.925470" lon="0.537750">
        <time>2017-06-24T13:13:27Z</time>
      </trkpt>
      <trkpt lat="46.925670" lon="0.537900">
        <time>2017-06-24T13:13:28Z</time>
      </trkpt>
      <trkpt lat="46.925870" lon="0.538070">
        <time>2017-06-24T13:13:29Z</time>
      </trkpt>
      <trkpt lat="46.926090" lon="0.538240">
        <time>2017-06-24T13:13:30Z</time>
      </trkpt>
      <trkpt lat="46.926280" lon="0.538390">
        <time>2017-06-24T13:13:31Z</time>
      </trkpt>
      <trkpt lat="46.926490" lon="0.538550">
        <time>2017-06-24T13:13:32Z</time>
      </trkpt>
      <trkpt lat="46.926670" lon="0.538690">
        <time>2017-06-24T13:13:33Z</time>
      </trkpt>
      <trkpt lat="46.926860" lon="0.538820">
        <time>2017-06-24T13:13:34Z</time>
      </trkpt>
      <trkpt lat="46.927060" lon="0.538980">
        <time>2017-06-24T13:13:35Z</time>
      </trkpt>
      <trkpt lat="46.927240" lon="0.539110">
        <time>2017-06-24T13:13:36Z</time>
      </trkpt>
      <trkpt lat="46.927430" lon="0.539260">
        <time>2017-06-24T13:13:37Z</time>
      </trkpt>
      <trkpt lat="46.927620" lon="0.539400">
        <time>2017-06-24T13:13:38Z</time>
      </trkpt>
      <trkpt lat="46.927810" lon="0.539550">
        <time>2017-06-24T13:13:39Z</time>
      </trkpt>
      <trkpt lat="46.928020" lon="0.539700">
        <time>2017-06-24T13:13:40Z</time>
      </trkpt>
      <trkpt lat="46.928210" lon="0.539840">
        <time>2017-06-24T13:13:41Z</time>
      </trkpt>
      <trkpt lat="46.928410" lon="0.539970">
        <time>2017-06-24T13:13:42Z</time>
      </trkpt>
      <trkpt lat="46.928630" lon="0.540130">
        <time>2017-06-24T13:13:43Z</time>
      </trkpt>
      <trkpt lat="46.928820" lon="0.540260">
        <time>2017-06-24T13:13:44Z</time>
      </trkpt>
      <trkpt lat="46.929030" lon="0.540400">
        <time>2017-06-24T13:13:45Z</time>
      </trkpt>
      <trkpt lat="46.929250" lon="0.540560">
        <time>2017-06-24T13:13:46Z</time>
      </trkpt>
      <trkpt lat="46.929440" lon="0.540690">
        <time>2017-06-24T13:13:47Z</time>
      </trkpt>
      <trkpt lat="46.929660" lon="0.540840">
        <time>2017-06-24T13:13:48Z</time>
      </trkpt>
      <trkpt lat="46.929840" lon="0.540960">
        <time>2017-06-24T13:13:49Z</time>
      </trkpt>
      <trkpt lat="46.930040" lon="0.541080">
        <time>2017-06-24T13:13:50Z</time>
      </trkpt>
      <trkpt lat="46.930240" lon="0.541210">
        <time>2017-06-24T13:13:51Z</time>
      </trkpt>
      <trkpt lat="46.930430" lon="0.541320">
        <time>2017-06-24T13:13:52Z</time>
      </trkpt>
      <trkpt lat="46.930630" lon="0.541450">
        <time>2017-06-24T13:13:53Z</time>
      </trkpt>
      <trkpt lat="46.930830" lon="0.541570">
        <time>2017-06-24T13:13:54Z</time>
      </trkpt>
      <trkpt lat="46.931040" lon="0.541700">
        <time>2017-06-24T13:13:55Z</time>
      </trkpt>
      <trkpt lat="46.931260" lon="0.541820">
        <time>2017-06-24T13:13:56Z</time>
      </trkpt>
      <trkpt lat="46.931450" lon="0.541940">
        <time>2017-06-24T13:13:57Z</time>
      </trkpt>
      <trkpt lat="46.931660" lon="0.542070">
        <time>2017-06-24T13:13:58Z</time>
      </trkpt>
      <trkpt lat="46.931890" lon="0.542200">
        <time>2017-06-24T13:13:59Z</time>
      </trkpt>
      <trkpt lat="46.932080" lon="0.542300">
        <time>2017-06-24T13:14:00Z</time>
      </trkpt>
      <trkpt lat="46.932280" lon="0.542410">
        <time>2017-06-24T13:14:01Z</time>
      </trkpt>
      <trkpt lat="46.932500" lon="0.542530">
        <time>2017-06-24T13:14:02Z</time>
      </trkpt>
      <trkpt lat="46.932690" lon="0.542630">
        <time>2017-06-24T13:14:03Z</time>
      </trkpt>
      <trkpt lat="46.932910" lon="0.542750">
        <time>2017-06-24T13:14:04Z</time>
      </trkpt>
      <trkpt lat="46.933100" lon="0.542850">
        <time>2017-06-24T13:14:05Z</time>
      </trkpt>
      <trkpt lat="46.933300" lon="0.542950">
        <time>2017-06-24T13:14:06Z</time>
      </trkpt>
      <trkpt lat="46.933530" lon="0.543060">
        <time>2017-06-24T13:14:07Z</time>
      </trkpt>
      <trkpt lat="46.933720" lon="0.543160">
        <time>2017-06-24T13:14:08Z</time>
      </trkpt>
      <trkpt lat="46.933930" lon="0.543270">
        <time>2017-06-24T13:14:09Z</time>
      </trkpt>
      <trkpt lat="46.934140" lon="0.543370">
        <time>2017-06-24T13:14:10Z</time>
      </trkpt>
      <trkpt lat="46.934350" lon="0.543480">
        <time>2017-06-24T13:14:11Z</time>
      </trkpt>
      <trkpt lat="46.934580" lon="0.543590">
        <time>2017-06-24T13:14:12Z</time>
      </trkpt>
      <trkpt lat="46.934780" lon="0.543680">
        <time>2017-06-24T13:14:13Z</time>
      </trkpt>
      <trkpt lat="46.935010" lon="0.543780">
        <time>2017-06-24T13:14:14Z</time>
      </trkpt>
      <trkpt lat="46.935240" lon="0.543880">
        <time>2017-06-24T13:14:15Z</time>
      </trkpt>
      <trkpt lat="46.935460" lon="0.543980">
        <time>2017-06-24T13:14:16Z</time>
      </trkpt>
      <trkpt lat="46.935700" lon="0.544070">
        <time>2017-06-24T13:14:17Z</time>
      </trkpt>
      <trkpt lat="46.935960" lon="0.544170">
        <time>2017-06-24T13:14:18Z</time>
      </trkpt>
      <trkpt lat="46.936190" lon="0.544260">
        <time>2017-06-24T13:14:19Z</time>
      </trkpt>
      <trkpt lat="46.936480" lon="0.544360">
        <time>2017-06-24T13:14:20Z</time>
      </trkpt>
      <trkpt lat="46.936740" lon="0.544450">
        <time>2017-06-24T13:14:21Z</time>
      </trkpt>
      <trkpt lat="46.937030" lon="0.544570">
        <time>2017-06-24T13:14:22Z</time>
      </trkpt>
      <trkpt lat="46.937330" lon="0.544680">
        <time>2017-06-24T13:14:23Z</time>
      </trkpt>
      <trkpt lat="46.937600" lon="0.544770">
        <time>2017-06-24T13:14:24Z</time>
      </trkpt>
      <trkpt lat="46.937870" lon="0.544880">
        <time>2017-06-24T13:14:25Z</time>
      </trkpt>
      <trkpt lat="46.938150" lon="0.544980">
        <time>2017-06-24T13:14:26Z</time>
      </trkpt>
      <trkpt lat="46.938430" lon="0.545070">
        <time>2017-06-24T13:14:27Z</time>
      </trkpt>
      <trkpt lat="46.938740" lon="0.545180">
        <time>2017-06-24T13:14:28Z</time>
      </trkpt>
      <trkpt lat="46.939010" lon="0.545270">
        <time>2017-06-24T13:14:29Z</time>
      </trkpt>
      <trkpt lat="46.939300" lon="0.545370">
        <time>2017-06-24T13:14:30Z</time>
      </trkpt>
      <trkpt lat="46.939610" lon="0.545470">
        <time>2017-06-24T13:14:31Z</time>
      </trkpt>
      <trkpt lat="46.939890" lon="0.545580">
        <time>2017-06-24T13:14:32Z</time>
      </trkpt>
      <trkpt lat="46.940180" lon="0.545680">
        <time>2017-06-24T13:14:33Z</time>
      </trkpt>
      <trkpt lat="46.940480" lon="0.545800">
        <time>2017-06-24T13:14:34Z</time>
      </trkpt>
      <trkpt lat="46.940750" lon="0.545890">
        <time>2017-06-24T13:14:35Z</time>
      </trkpt>
      <trkpt lat="46.941050" lon="0.545990">
        <time>2017-06-24T13:14:36Z</time>
      </trkpt>
      <trkpt lat="46.941320" lon="0.546080">
        <time>2017-06-24T13:14:37Z</time>
      </trkpt>
      <trkpt lat="46.941600" lon="0.546170">
        <time>2017-06-24T13:14:38Z</time>
      </trkpt>
      <trkpt lat="46.941900" lon="0.546260">
        <time>2017-06-24T13:14:39Z</time>
      </trkpt>
      <trkpt lat="46.942180" lon="0.546340">
        <time>2017-06-24T13:14:40Z</time>
      </trkpt>
      <trkpt lat="46.942460" lon="0.546440">
        <time>2017-06-24T13:14:41Z</time>
      </trkpt>
      <trkpt lat="46.942750" lon="0.546540">
        <time>2017-06-24T13:14:42Z</time>
      </trkpt>
      <trkpt lat="46.943040" lon="0.546630">
        <time>2017-06-24T13:14:43Z</time>
      </trkpt>
      <trkpt lat="46.943340" lon="0.546720">
        <time>2017-06-24T13:14:44Z</time>
      </trkpt>
      <trkpt lat="46.943610" lon="0.546810">
        <time>2017-06-24T13:14:45Z</time>
      </trkpt>
      <trkpt lat="46.943900" lon="0.546890">
        <time>2017-06-24T13:14:46Z</time>
      </trkpt>
      <trkpt lat="46.944200" lon="0.546990">
        <time>2017-06-24T13:14:47Z</time>
      </trkpt>
      <trkpt lat="46.944480" lon="0.547080">
        <time>2017-06-24T13:14:48Z</time>
      </trkpt>
      <trkpt lat="46.944770" lon="0.547170">
        <time>2017-06-24T13:14:49Z</time>
      </trkpt>
      <trkpt lat="46.945080" lon="0.547260">
        <time>2017-06-24T13:14:50Z</time>
      </trkpt>
      <trkpt lat="46.945360" lon="0.547350">
        <time>2017-06-24T13:14:51Z</time>
      </trkpt>
      <trkpt lat="46.945680" lon="0.547450">
        <time>2017-06-24T13:14:52Z</time>
      </trkpt>
      <trkpt lat="46.945960" lon="0.547540">
        <time>2017-06-24T13:14:53Z</time>
      </trkpt>
      <trkpt lat="46.946260" lon="0.547630">
        <time>2017-06-24T13:14:54Z</time>
      </trkpt>
      <trkpt lat="46.946590" lon="0.547720">
        <time>2017-06-24T13:14:55Z</time>
      </trkpt>
      <trkpt lat="46.946880" lon="0.547810">
        <time>2017-06-24T13:14:56Z</time>
      </trkpt>
      <trkpt lat="46.947190" lon="0.547890">
        <time>2017-06-24T13:14:57Z</time>
      </trkpt>
      <trkpt lat="46.947500" lon="0.547980">
        <time>2017-06-24T13:14:58Z</time>
      </trkpt>
      <trkpt lat="46.947810" lon="0.548070">
        <time>2017-06-24T13:14:59Z</time>
      </trkpt>
      <trkpt lat="46.948130" lon="0.548170">
        <time>2017-06-24T13:15:00Z</time>
      </trkpt>
      <trkpt lat="46.948410" lon="0.548250">
        <time>2017-06-24T13:15:01Z</time>
      </trkpt>
      <trkpt lat="46.948710" lon="0.548340">
        <time>2017-06-24T13:15:02Z</time>
      </trkpt>
      <trkpt lat="46.949040" lon="0.548430">
        <time>2017-06-24T13:15:03Z</time>
      </trkpt>
      <trkpt lat="46.949330" lon="0.548520">
        <time>2017-06-24T13:15:04Z</time>
      </trkpt>
      <trkpt lat="46.949640" lon="0.548620">
        <time>2017-06-24T13:15:05Z</time>
      </trkpt>
      <trkpt lat="46.949960" lon="0.548700">
        <time>2017-06-24T13:15:06Z</time>
      </trkpt>
      <trkpt lat="46.950250" lon="0.548780">
        <time>2017-06-24T13:15:07Z</time>
      </trkpt>
      <trkpt lat="46.950590" lon="0.548860">
        <time>2017-06-24T13:15:08Z</time>
      </trkpt>
      <trkpt lat="46.950880" lon="0.548920">
        <time>2017-06-24T13:15:09Z</time>
      </trkpt>
      <trkpt lat="46.951190" lon="0.548990">
        <time>2017-06-24T13:15:10Z</time>
      </trkpt>
      <trkpt lat="46.951530" lon="0.549050">
        <time>2017-06-24T13:15:11Z</time>
      </trkpt>
      <trkpt lat="46.951820" lon="0.549100">
        <time>2017-06-24T13:15:12Z</time>
      </trkpt>
      <trkpt lat="46.952140" lon="0.549160">
        <time>2017-06-24T13:15:13Z</time>
      </trkpt>
      <trkpt lat="46.952460" lon="0.549200">
        <time>2017-06-24T13:15:14Z</time>
      </trkpt>
      <trkpt lat="46.952770" lon="0.549230">
        <time>2017-06-24T13:15:15Z</time>
      </trkpt>
      <trkpt lat="46.953100" lon="0.549270">
        <time>2017-06-24T13:15:16Z</time>
      </trkpt>
      <trkpt lat="46.953400" lon="0.549310">
        <time>2017-06-24T13:15:17Z</time>
      </trkpt>
      <trkpt lat="46.953710" lon="0.549330">
        <time>2017-06-24T13:15:18Z</time>
      </trkpt>
      <trkpt lat="46.954030" lon="0.549350">
        <time>2017-06-24T13:15:19Z</time>
      </trkpt>
      <trkpt lat="46.954320" lon="0.549370">
        <time>2017-06-24T13:15:20Z</time>
      </trkpt>
      <trkpt lat="46.954610" lon="0.549380">
        <time>2017-06-24T13:15:21Z</time>
      </trkpt>
      <trkpt lat="46.954930" lon="0.549390">
        <time>2017-06-24T13:15:22Z</time>
      </trkpt>
      <trkpt lat="46.955200" lon="0.549400">
        <time>2017-06-24T13:15:23Z</time>
      </trkpt>
      <trkpt lat="46.955520" lon="0.549400">
        <time>2017-06-24T13:15:24Z</time>
      </trkpt>
      <trkpt lat="46.955790" lon="0.549410">
        <time>2017-06-24T13:15:25Z</time>
      </trkpt>
      <trkpt lat="46.956090" lon="0.549400">
        <time>2017-06-24T13:15:26Z</time>
      </trkpt>
      <trkpt lat="46.956410" lon="0.549400">
        <time>2017-06-24T13:15:27Z</time>
      </trkpt>
      <trkpt lat="46.956700" lon="0.549390">
        <time>2017-06-24T13:15:28Z</time>
      </trkpt>
      <trkpt lat="46.957010" lon="0.549380">
        <time>2017-06-24T13:15:29Z</time>
      </trkpt>
      <trkpt lat="46.957320" lon="0.549360">
        <time>2017-06-24T13:15:30Z</time>
      </trkpt>
      <trkpt lat="46.957640" lon="0.549350">
        <time>2017-06-24T13:15:31Z</time>
      </trkpt>
      <trkpt lat="46.957970" lon="0.549330">
        <time>2017-06-24T13:15:32Z</time>
      </trkpt>
      <trkpt lat="46.958270" lon="0.549310">
        <time>2017-06-24T13:15:33Z</time>
      </trkpt>
      <trkpt lat="46.958590" lon="0.549280">
        <time>2017-06-24T13:15:34Z</time>
      </trkpt>
      <trkpt lat="46.958930" lon="0.549250">
        <time>2017-06-24T13:15:35Z</time>
      </trkpt>
      <trkpt lat="46.959220" lon="0.549220">
        <time>2017-06-24T13:15:36Z</time>
      </trkpt>
      <trkpt lat="46.959530" lon="0.549190">
        <time>2017-06-24T13:15:37Z</time>
      </trkpt>
      <trkpt lat="46.959860" lon="0.549140">
        <time>2017-06-24T13:15:38Z</time>
      </trkpt>
      <trkpt lat="46.960150" lon="0.549100">
        <time>2017-06-24T13:15:39Z</time>
      </trkpt>
      <trkpt lat="46.960470" lon="0.549050">
        <time>2017-06-24T13:15:40Z</time>
      </trkpt>
      <trkpt lat="46.960750" lon="0.549010">
        <time>2017-06-24T13:15:41Z</time>
      </trkpt>
      <trkpt lat="46.961050" lon="0.548970">
        <time>2017-06-24T13:15:42Z</time>
      </trkpt>
      <trkpt lat="46.961370" lon="0.548910">
        <time>2017-06-24T13:15:43Z</time>
      </trkpt>
      <trkpt lat="46.961640" lon="0.548870">
        <time>2017-06-24T13:15:44Z</time>
      </trkpt>
      <trkpt lat="46.961950" lon="0.548820">
        <time>2017-06-24T13:15:45Z</time>
      </trkpt>
      <trkpt lat="46.962250" lon="0.548780">
        <time>2017-06-24T13:15:46Z</time>
      </trkpt>
      <trkpt lat="46.962550" lon="0.548730">
        <time>2017-06-24T13:15:47Z</time>
      </trkpt>
      <trkpt lat="46.962870" lon="0.548680">
        <time>2017-06-24T13:15:48Z</time>
      </trkpt>
      <trkpt lat="46.963160" lon="0.548630">
        <time>2017-06-24T13:15:49Z</time>
      </trkpt>
      <trkpt lat="46.963460" lon="0.548580">
        <time>2017-06-24T13:15:50Z</time>
      </trkpt>
      <trkpt lat="46.963790" lon="0.548530">
        <time>2017-06-24T13:15:51Z</time>
      </trkpt>
      <trkpt lat="46.964080" lon="0.548480">
        <time>2017-06-24T13:15:52Z</time>
      </trkpt>
      <trkpt lat="46.964390" lon="0.548420">
        <time>2017-06-24T13:15:53Z</time>
      </trkpt>
      <trkpt lat="46.964720" lon="0.548360">
        <time>2017-06-24T13:15:54Z</time>
      </trkpt>
      <trkpt lat="46.965010" lon="0.548300">
        <time>2017-06-24T13:15:55Z</time>
      </trkpt>
      <trkpt lat="46.965350" lon="0.548240">
        <time>2017-06-24T13:15:56Z</time>
      </trkpt>
      <trkpt lat="46.965640" lon="0.548180">
        <time>2017-06-24T13:15:57Z</time>
      </trkpt>
      <trkpt lat="46.965960" lon="0.548130">
        <time>2017-06-24T13:15:58Z</time>
      </trkpt>
      <trkpt lat="46.966300" lon="0.548070">
        <time>2017-06-24T13:15:59Z</time>
      </trkpt>
      <trkpt lat="46.966600" lon="0.548000">
        <time>2017-06-24T13:16:00Z</time>
      </trkpt>
      <trkpt lat="46.966930" lon="0.547930">
        <time>2017-06-24T13:16:01Z</time>
      </trkpt>
      <trkpt lat="46.967260" lon="0.547860">
        <time>2017-06-24T13:16:02Z</time>
      </trkpt>
      <trkpt lat="46.967580" lon="0.547800">
        <time>2017-06-24T13:16:03Z</time>
      </trkpt>
      <trkpt lat="46.967920" lon="0.547740">
        <time>2017-06-24T13:16:04Z</time>
      </trkpt>
      <trkpt lat="46.968220" lon="0.547690">
        <time>2017-06-24T13:16:05Z</time>
      </trkpt>
      <trkpt lat="46.968540" lon="0.547630">
        <time>2017-06-24T13:16:06Z</time>
      </trkpt>
      <trkpt lat="46.968890" lon="0.547570">
        <time>2017-06-24T13:16:07Z</time>
      </trkpt>
      <trkpt lat="46.969190" lon="0.547520">
        <time>2017-06-24T13:16:08Z</time>
      </trkpt>
      <trkpt lat="46.969520" lon="0.547460">
        <time>2017-06-24T13:16:09Z</time>
      </trkpt>
      <trkpt lat="46.969860" lon="0.547410">
        <time>2017-06-24T13:16:10Z</time>
      </trkpt>
      <trkpt lat="46.970160" lon="0.547360">
        <time>2017-06-24T13:16:11Z</time>
      </trkpt>
      <trkpt lat="46.970490" lon="0.547300">
        <time>2017-06-24T13:16:12Z</time>
      </trkpt>
      <trkpt lat="46.970780" lon="0.547250">
        <time>2017-06-24T13:16:13Z</time>
      </trkpt>
      <trkpt lat="46.971090" lon="0.547190">
        <time>2017-06-24T13:16:14Z</time>
      </trkpt>
      <trkpt lat="46.971410" lon="0.547130">
        <time>2017-06-24T13:16:15Z</time>
      </trkpt>
      <trkpt lat="46.971690" lon="0.547080">
        <time>2017-06-24T13:16:16Z</time>
      </trkpt>
      <trkpt lat="46.972000" lon="0.547020">
        <time>2017-06-24T13:16:17Z</time>
      </trkpt>
      <trkpt lat="46.972310" lon="0.546970">
        <time>2017-06-24T13:16:18Z</time>
      </trkpt>
      <trkpt lat="46.972610" lon="0.546920">
        <time>2017-06-24T13:16:19Z</time>
      </trkpt>
      <trkpt lat="46.972930" lon="0.546870">
        <time>2017-06-24T13:16:20Z</time>
      </trkpt>
      <trkpt lat="46.973210" lon="0.546830">
        <time>2017-06-24T13:16:21Z</time>
      </trkpt>
      <trkpt lat="46.973510" lon="0.546790">
        <time>2017-06-24T13:16:22Z</time>
      </trkpt>
      <trkpt lat="46.973830" lon="0.546750">
        <time>2017-06-24T13:16:23Z</time>
      </trkpt>
      <trkpt lat="46.974110" lon="0.546720">
        <time>2017-06-24T13:16:24Z</time>
      </trkpt>
      <trkpt lat="46.974420" lon="0.546700">
        <time>2017-06-24T13:16:25Z</time>
      </trkpt>
      <trkpt lat="46.974740" lon="0.546670">
        <time>2017-06-24T13:16:26Z</time>
      </trkpt>
      <trkpt lat="46.975030" lon="0.546650">
        <time>2017-06-24T13:16:27Z</time>
      </trkpt>
      <trkpt lat="46.975350" lon="0.546630">
        <time>2017-06-24T13:16:28Z</time>
      </trkpt>
      <trkpt lat="46.975640" lon="0.546620">
        <time>2017-06-24T13:16:29Z</time>
      </trkpt>
      <trkpt lat="46.975950" lon="0.546600">
        <time>2017-06-24T13:16:30Z</time>
      </trkpt>
      <trkpt lat="46.976280" lon="0.546600">
        <time>2017-06-24T13:16:31Z</time>
      </trkpt>
      <trkpt lat="46.976580" lon="0.546610">
        <time>2017-06-24T13:16:32Z</time>
      </trkpt>
      <trkpt lat="46.976890" lon="0.546650">
        <time>2017-06-24T13:16:33Z</time>
      </trkpt>
      <trkpt lat="46.977200" lon="0.546680">
        <time>2017-06-24T13:16:34Z</time>
      </trkpt>
      <trkpt lat="46.977500" lon="0.546710">
        <time>2017-06-24T13:16:35Z</time>
      </trkpt>
      <trkpt lat="46.977830" lon="0.546740">
        <time>2017-06-24T13:16:36Z</time>
      </trkpt>
      <trkpt lat="46.978110" lon="0.546760">
        <time>2017-06-24T13:16:37Z</time>
      </trkpt>
      <trkpt lat="46.978410" lon="0.546800">
        <time>2017-06-24T13:16:38Z</time>
      </trkpt>
      <trkpt lat="46.978730" lon="0.546840">
        <time>2017-06-24T13:16:39Z</time>
      </trkpt>
      <trkpt lat="46.979020" lon="0.546880">
        <time>2017-06-24T13:16:40Z</time>
      </trkpt>
      <trkpt lat="46.979320" lon="0.546930">
        <time>2017-06-24T13:16:41Z</time>
      </trkpt>
      <trkpt lat="46.979650" lon="0.546990">
        <time>2017-06-24T13:16:42Z</time>
      </trkpt>
      <trkpt lat="46.979940" lon="0.547040">
        <time>2017-06-24T13:16:43Z</time>
      </trkpt>
      <trkpt lat="46.980260" lon="0.547100">
        <time>2017-06-24T13:16:44Z</time>
      </trkpt>
      <trkpt lat="46.980560" lon="0.547150">
        <time>2017-06-24T13:16:45Z</time>
      </trkpt>
      <trkpt lat="46.980870" lon="0.547210">
        <time>2017-06-24T13:16:46Z</time>
      </trkpt>
      <trkpt lat="46.981210" lon="0.547280">
        <time>2017-06-24T13:16:47Z</time>
      </trkpt>
      <trkpt lat="46.981500" lon="0.547340">
        <time>2017-06-24T13:16:48Z</time>
      </trkpt>
      <trkpt lat="46.981820" lon="0.547390">
        <time>2017-06-24T13:16:49Z</time>
      </trkpt>
      <trkpt lat="46.982130" lon="0.547450">
        <time>2017-06-24T13:16:50Z</time>
      </trkpt>
      <trkpt lat="46.982450" lon="0.547510">
        <time>2017-06-24T13:16:51Z</time>
      </trkpt>
      <trkpt lat="46.982770" lon="0.547580">
        <time>2017-06-24T13:16:52Z</time>
      </trkpt>
      <trkpt lat="46.983060" lon="0.547640">
        <time>2017-06-24T13:16:53Z</time>
      </trkpt>
      <trkpt lat="46.983370" lon="0.547700">
        <time>2017-06-24T13:16:54Z</time>
      </trkpt>
      <trkpt lat="46.983700" lon="0.547770">
        <time>2017-06-24T13:16:55Z</time>
      </trkpt>
      <trkpt lat="46.983980" lon="0.547830">
        <time>2017-06-24T13:16:56Z</time>
      </trkpt>
      <trkpt lat="46.984290" lon="0.547890">
        <time>2017-06-24T13:16:57Z</time>
      </trkpt>
      <trkpt lat="46.984620" lon="0.547950">
        <time>2017-06-24T13:16:58Z</time>
      </trkpt>
      <trkpt lat="46.984900" lon="0.548010">
        <time>2017-06-24T13:16:59Z</time>
      </trkpt>
      <trkpt lat="46.985220" lon="0.548080">
        <time>2017-06-24T13:17:00Z</time>
      </trkpt>
      <trkpt lat="46.985500" lon="0.548140">
        <time>2017-06-24T13:17:01Z</time>
      </trkpt>
      <trkpt lat="46.985810" lon="0.548200">
        <time>2017-06-24T13:17:02Z</time>
      </trkpt>
      <trkpt lat="46.986120" lon="0.548270">
        <time>2017-06-24T13:17:03Z</time>
      </trkpt>
      <trkpt lat="46.986400" lon="0.548330">
        <time>2017-06-24T13:17:04Z</time>
      </trkpt>
      <trkpt lat="46.986690" lon="0.548380">
        <time>2017-06-24T13:17:05Z</time>
      </trkpt>
      <trkpt lat="46.986980" lon="0.548440">
        <time>2017-06-24T13:17:06Z</time>
      </trkpt>
      <trkpt lat="46.987270" lon="0.548500">
        <time>2017-06-24T13:17:07Z</time>
      </trkpt>
      <trkpt lat="46.987580" lon="0.548570">
        <time>2017-06-24T13:17:08Z</time>
      </trkpt>
      <trkpt lat="46.987850" lon="0.548640">
        <time>2017-06-24T13:17:09Z</time>
      </trkpt>
      <trkpt lat="46.988140" lon="0.548700">
        <time>2017-06-24T13:17:10Z</time>
      </trkpt>
      <trkpt lat="46.988440" lon="0.548760">
        <time>2017-06-24T13:17:11Z</time>
      </trkpt>
      <trkpt lat="46.988710" lon="0.548810">
        <time>2017-06-24T13:17:12Z</time>
      </trkpt>
      <trkpt lat="46.989010" lon="0.548870">
        <time>2017-06-24T13:17:13Z</time>
      </trkpt>
      <trkpt lat="46.989320" lon="0.548940">
        <time>2017-06-24T13:17:14Z</time>
      </trkpt>
      <trkpt lat="46.989600" lon="0.549000">
        <time>2017-06-24T13:17:15Z</time>
      </trkpt>
      <trkpt lat="46.989910" lon="0.549070">
        <time>2017-06-24T13:17:16Z</time>
      </trkpt>
      <trkpt lat="46.990190" lon="0.549130">
        <time>2017-06-24T13:17:17Z</time>
      </trkpt>
      <trkpt lat="46.990480" lon="0.549200">
        <time>2017-06-24T13:17:18Z</time>
      </trkpt>
      <trkpt lat="46.990800" lon="0.549280">
        <time>2017-06-24T13:17:19Z</time>
      </trkpt>
      <trkpt lat="46.991070" lon="0.549360">
        <time>2017-06-24T13:17:20Z</time>
      </trkpt>
      <trkpt lat="46.991370" lon="0.549440">
        <time>2017-06-24T13:17:21Z</time>
      </trkpt>
      <trkpt lat="46.991660" lon="0.549520">
        <time>2017-06-24T13:17:22Z</time>
      </trkpt>
      <trkpt lat="46.991960" lon="0.549590">
        <time>2017-06-24T13:17:23Z</time>
      </trkpt>
      <trkpt lat="46.992270" lon="0.549680">
        <time>2017-06-24T13:17:24Z</time>
      </trkpt>
      <trkpt lat="46.992550" lon="0.549760">
        <time>2017-06-24T13:17:25Z</time>
      </trkpt>
      <trkpt lat="46.992860" lon="0.549850">
        <time>2017-06-24T13:17:26Z</time>
      </trkpt>
      <trkpt lat="46.993180" lon="0.549950">
        <time>2017-06-24T13:17:27Z</time>
      </trkpt>
      <trkpt lat="46.993460" lon="0.550040">
        <time>2017-06-24T13:17:28Z</time>
      </trkpt>
      <trkpt lat="46.993760" lon="0.550130">
        <time>2017-06-24T13:17:29Z</time>
      </trkpt>
      <trkpt lat="46.994090" lon="0.550240">
        <time>2017-06-24T13:17:30Z</time>
      </trkpt>
      <trkpt lat="46.994370" lon="0.550330">
        <time>2017-06-24T13:17:31Z</time>
      </trkpt>
      <trkpt lat="46.994700" lon="0.550450">
        <time>2017-06-24T13:17:32Z</time>
      </trkpt>
      <trkpt lat="46.994990" lon="0.550560">
        <time>2017-06-24T13:17:33Z</time>
      </trkpt>
      <trkpt lat="46.995290" lon="0.550680">
        <time>2017-06-24T13:17:34Z</time>
      </trkpt>
      <trkpt lat="46.995620" lon="0.550800">
        <time>2017-06-24T13:17:35Z</time>
      </trkpt>
      <trkpt lat="46.995900" lon="0.550910">
        <time>2017-06-24T13:17:36Z</time>
      </trkpt>
      <trkpt lat="46.996200" lon="0.551020">
        <time>2017-06-24T13:17:37Z</time>
      </trkpt>
      <trkpt lat="46.996500" lon="0.551150">
        <time>2017-06-24T13:17:38Z</time>
      </trkpt>
      <trkpt lat="46.996790" lon="0.551260">
        <time>2017-06-24T13:17:39Z</time>
      </trkpt>
      <trkpt lat="46.997110" lon="0.551370">
        <time>2017-06-24T13:17:40Z</time>
      </trkpt>
      <trkpt lat="46.997390" lon="0.551480">
        <time>2017-06-24T13:17:41Z</time>
      </trkpt>
      <trkpt lat="46.997690" lon="0.551600">
        <time>2017-06-24T13:17:42Z</time>
      </trkpt>
      <trkpt lat="46.998000" lon="0.551720">
        <time>2017-06-24T13:17:43Z</time>
      </trkpt>
      <trkpt lat="46.998280" lon="0.551840">
        <time>2017-06-24T13:17:44Z</time>
      </trkpt>
      <trkpt lat="46.998580" lon="0.551960">
        <time>2017-06-24T13:17:45Z</time>
      </trkpt>
      <trkpt lat="46.998900" lon="0.552100">
        <time>2017-06-24T13:17:46Z</time>
      </trkpt>
      <trkpt lat="46.999170" lon="0.552230">
        <time>2017-06-24T13:17:47Z</time>
      </trkpt>
      <trkpt lat="46.999490" lon="0.552360">
        <time>2017-06-24T13:17:48Z</time>
      </trkpt>
      <trkpt lat="46.999760" lon="0.552480">
        <time>2017-06-24T13:17:49Z</time>
      </trkpt>
      <trkpt lat="47.000050" lon="0.552620">
        <time>2017-06-24T13:17:50Z</time>
      </trkpt>
      <trkpt lat="47.000360" lon="0.552760">
        <time>2017-06-24T13:17:51Z</time>
      </trkpt>
      <trkpt lat="47.000630" lon="0.552880">
        <time>2017-06-24T13:17:52Z</time>
      </trkpt>
      <trkpt lat="47.000900" lon="0.553010">
        <time>2017-06-24T13:17:53Z</time>
      </trkpt>
      <trkpt lat="47.001170" lon="0.553150">
        <time>2017-06-24T13:17:54Z</time>
      </trkpt>
      <trkpt lat="47.001440" lon="0.553270">
        <time>2017-06-24T13:17:55Z</time>
      </trkpt>
      <trkpt lat="47.001720" lon="0.553410">
        <time>2017-06-24T13:17:56Z</time>
      </trkpt>
      <trkpt lat="47.001970" lon="0.553530">
        <time>2017-06-24T13:17:57Z</time>
      </trkpt>
      <trkpt lat="47.002220" lon="0.553660">
        <time>2017-06-24T13:17:58Z</time>
      </trkpt>
      <trkpt lat="47.002480" lon="0.553790">
        <time>2017-06-24T13:17:59Z</time>
      </trkpt>
      <trkpt lat="47.002720" lon="0.553910">
        <time>2017-06-24T13:18:00Z</time>
      </trkpt>
      <trkpt lat="47.002980" lon="0.554040">
        <time>2017-06-24T13:18:01Z</time>
      </trkpt>
      <trkpt lat="47.003260" lon="0.554180">
        <time>2017-06-24T13:18:02Z</time>
      </trkpt>
      <trkpt lat="47.003520" lon="0.554320">
        <time>2017-06-24T13:18:03Z</time>
      </trkpt>
      <trkpt lat="47.003820" lon="0.554460">
        <time>2017-06-24T13:18:04Z</time>
      </trkpt>
      <trkpt lat="47.004070" lon="0.554610">
        <time>2017-06-24T13:18:05Z</time>
      </trkpt>
      <trkpt lat="47.004340" lon="0.554750">
        <time>2017-06-24T13:18:06Z</time>
      </trkpt>
      <trkpt lat="47.004630" lon="0.554950">
        <time>2017-06-24T13:18:07Z</time>
      </trkpt>
      <trkpt lat="47.004890" lon="0.555130">
        <time>2017-06-24T13:18:08Z</time>
      </trkpt>
      <trkpt lat="47.005170" lon="0.555300">
        <time>2017-06-24T13:18:09Z</time>
      </trkpt>
      <trkpt lat="47.005470" lon="0.555470">
        <time>2017-06-24T13:18:10Z</time>
      </trkpt>
      <trkpt lat="47.005760" lon="0.555650">
        <time>2017-06-24T13:18:11Z</time>
      </trkpt>
      <trkpt lat="47.006080" lon="0.555820">
        <time>2017-06-24T13:18:12Z</time>
      </trkpt>
      <trkpt lat="47.006350" lon="0.555980">
        <time>2017-06-24T13:18:13Z</time>
      </trkpt>
      <trkpt lat="47.006650" lon="0.556150">
        <time>2017-06-24T13:18:14Z</time>
      </trkpt>
      <trkpt lat="47.006960" lon="0.556340">
        <time>2017-06-24T13:18:15Z</time>
      </trkpt>
      <trkpt lat="47.007240" lon="0.556500">
        <time>2017-06-24T13:18:16Z</time>
      </trkpt>
      <trkpt lat="47.007530" lon="0.556680">
        <time>2017-06-24T13:18:17Z</time>
      </trkpt>
      <trkpt lat="47.007850" lon="0.556870">
        <time>2017-06-24T13:18:18Z</time>
      </trkpt>
      <trkpt lat="47.008120" lon="0.557030">
        <time>2017-06-24T13:18:19Z</time>
      </trkpt>
      <trkpt lat="47.008440" lon="0.557210">
        <time>2017-06-24T13:18:20Z</time>
      </trkpt>
      <trkpt lat="47.008720" lon="0.557370">
        <time>2017-06-24T13:18:21Z</time>
      </trkpt>
      <trkpt lat="47.009020" lon="0.557550">
        <time>2017-06-24T13:18:22Z</time>
      </trkpt>
      <trkpt lat="47.009330" lon="0.557720">
        <time>2017-06-24T13:18:23Z</time>
      </trkpt>
      <trkpt lat="47.009600" lon="0.557880">
        <time>2017-06-24T13:18:24Z</time>
      </trkpt>
      <trkpt lat="47.009890" lon="0.558050">
        <time>2017-06-24T13:18:25Z</time>
      </trkpt>
      <trkpt lat="47.010180" lon="0.558220">
        <time>2017-06-24T13:18:26Z</time>
      </trkpt>
      <trkpt lat="47.010470" lon="0.558380">
        <time>2017-06-24T13:18:27Z</time>
      </trkpt>
      <trkpt lat="47.010780" lon="0.558560">
        <time>2017-06-24T13:18:28Z</time>
      </trkpt>
      <trkpt lat="47.011040" lon="0.558710">
        <time>2017-06-24T13:18:29Z</time>
      </trkpt>
      <trkpt lat="47.011330" lon="0.558870">
        <time>2017-06-24T13:18:30Z</time>
      </trkpt>
      <trkpt lat="47.011630" lon="0.559050">
        <time>2017-06-24T13:18:31Z</time>
      </trkpt>
      <trkpt lat="47.011900" lon="0.559210">
        <time>2017-06-24T13:18:32Z</time>
      </trkpt>
      <trkpt lat="47.012180" lon="0.559380">
        <time>2017-06-24T13:18:33Z</time>
      </trkpt>
      <trkpt lat="47.012480" lon="0.559560">
        <time>2017-06-24T13:18:34Z</time>
      </trkpt>
      <trkpt lat="47.012750" lon="0.559720">
        <time>2017-06-24T13:18:35Z</time>
      </trkpt>
      <trkpt lat="47.013050" lon="0.559890">
        <time>2017-06-24T13:18:36Z</time>
      </trkpt>
      <trkpt lat="47.013310" lon="0.560050">
        <time>2017-06-24T13:18:37Z</time>
      </trkpt>
      <trkpt lat="47.013590" lon="0.560210">
        <time>2017-06-24T13:18:38Z</time>
      </trkpt>
      <trkpt lat="47.013880" lon="0.560380">
        <time>2017-06-24T13:18:39Z</time>
      </trkpt>
      <trkpt lat="47.014140" lon="0.560530">
        <time>2017-06-24T13:18:40Z</time>
      </trkpt>
      <trkpt lat="47.014410" lon="0.560700">
        <time>2017-06-24T13:18:41Z</time>
      </trkpt>
      <trkpt lat="47.014690" lon="0.560860">
        <time>2017-06-24T13:18:42Z</time>
      </trkpt>
      <trkpt lat="47.014970" lon="0.561020">
        <time>2017-06-24T13:18:43Z</time>
      </trkpt>
      <trkpt lat="47.015260" lon="0.561190">
        <time>2017-06-24T13:18:44Z</time>
      </trkpt>
      <trkpt lat="47.015510" lon="0.561340">
        <time>2017-06-24T13:18:45Z</time>
      </trkpt>
      <trkpt lat="47.015790" lon="0.561500">
        <time>2017-06-24T13:18:46Z</time>
      </trkpt>
      <trkpt lat="47.016080" lon="0.561670">
        <time>2017-06-24T13:18:47Z</time>
      </trkpt>
      <trkpt lat="47.016340" lon="0.561820">
        <time>2017-06-24T13:18:48Z</time>
      </trkpt>
      <trkpt lat="47.016610" lon="0.561980">
        <time>2017-06-24T13:18:49Z</time>
      </trkpt>
      <trkpt lat="47.016890" lon="0.562140">
        <time>2017-06-24T13:18:50Z</time>
      </trkpt>
      <trkpt lat="47.017140" lon="0.562300">
        <time>2017-06-24T13:18:51Z</time>
      </trkpt>
      <trkpt lat="47.017420" lon="0.562460">
        <time>2017-06-24T13:18:52Z</time>
      </trkpt>
      <trkpt lat="47.017660" lon="0.562600">
        <time>2017-06-24T13:18:53Z</time>
      </trkpt>
      <trkpt lat="47.017920" lon="0.562750">
        <time>2017-06-24T13:18:54Z</time>
      </trkpt>
      <trkpt lat="47.018200" lon="0.562910">
        <time>2017-06-24T13:18:55Z</time>
      </trkpt>
      <trkpt lat="47.018440" lon="0.563050">
        <time>2017-06-24T13:18:56Z</time>
      </trkpt>
      <trkpt lat="47.018700" lon="0.563210">
        <time>2017-06-24T13:18:57Z</time>
      </trkpt>
      <trkpt lat="47.018960" lon="0.563360">
        <time>2017-06-24T13:18:58Z</time>
      </trkpt>
      <trkpt lat="47.019230" lon="0.563510">
        <time>2017-06-24T13:18:59Z</time>
      </trkpt>
      <trkpt lat="47.019510" lon="0.563680">
        <time>2017-06-24T13:19:00Z</time>
      </trkpt>
      <trkpt lat="47.019760" lon="0.563820">
        <time>2017-06-24T13:19:01Z</time>
      </trkpt>
      <trkpt lat="47.020020" lon="0.563970">
        <time>2017-06-24T13:19:02Z</time>
      </trkpt>
      <trkpt lat="47.020310" lon="0.564140">
        <time>2017-06-24T13:19:03Z</time>
      </trkpt>
      <trkpt lat="47.020560" lon="0.564290">
        <time>2017-06-24T13:19:04Z</time>
      </trkpt>
      <trkpt lat="47.020830" lon="0.564440">
        <time>2017-06-24T13:19:05Z</time>
      </trkpt>
      <trkpt lat="47.021100" lon="0.564600">
        <time>2017-06-24T13:19:06Z</time>
      </trkpt>
      <trkpt lat="47.021350" lon="0.564740">
        <time>2017-06-24T13:19:07Z</time>
      </trkpt>
      <trkpt lat="47.021640" lon="0.564900">
        <time>2017-06-24T13:19:08Z</time>
      </trkpt>
      <trkpt lat="47.021900" lon="0.565040">
        <time>2017-06-24T13:19:09Z</time>
      </trkpt>
      <trkpt lat="47.022170" lon="0.565190">
        <time>2017-06-24T13:19:10Z</time>
      </trkpt>
      <trkpt lat="47.022470" lon="0.565360">
        <time>2017-06-24T13:19:11Z</time>
      </trkpt>
      <trkpt lat="47.022720" lon="0.565510">
        <time>2017-06-24T13:19:12Z</time>
      </trkpt>
      <trkpt lat="47.023000" lon="0.565670">
        <time>2017-06-24T13:19:13Z</time>
      </trkpt>
      <trkpt lat="47.023280" lon="0.565850">
        <time>2017-06-24T13:19:14Z</time>
      </trkpt>
      <trkpt lat="47.023560" lon="0.566020">
        <time>2017-06-24T13:19:15Z</time>
      </trkpt>
      <trkpt lat="47.023850" lon="0.566200">
        <time>2017-06-24T13:19:16Z</time>
      </trkpt>
      <trkpt lat="47.024120" lon="0.566360">
        <time>2017-06-24T13:19:17Z</time>
      </trkpt>
      <trkpt lat="47.024400" lon="0.566520">
        <time>2017-06-24T13:19:18Z</time>
      </trkpt>
      <trkpt lat="47.024690" lon="0.566700">
        <time>2017-06-24T13:19:19Z</time>
      </trkpt>
      <trkpt lat="47.024950" lon="0.566850">
        <time>2017-06-24T13:19:20Z</time>
      </trkpt>
      <trkpt lat="47.025230" lon="0.567020">
        <time>2017-06-24T13:19:21Z</time>
      </trkpt>
      <trkpt lat="47.025520" lon="0.567200">
        <time>2017-06-24T13:19:22Z</time>
      </trkpt>
      <trkpt lat="47.025780" lon="0.567350">
        <time>2017-06-24T13:19:23Z</time>
      </trkpt>
      <trkpt lat="47.026070" lon="0.567530">
        <time>2017-06-24T13:19:24Z</time>
      </trkpt>
      <trkpt lat="47.026330" lon="0.567680">
        <time>2017-06-24T13:19:25Z</time>
      </trkpt>
      <trkpt lat="47.026600" lon="0.567840">
        <time>2017-06-24T13:19:26Z</time>
      </trkpt>
      <trkpt lat="47.026900" lon="0.568010">
        <time>2017-06-24T13:19:27Z</time>
      </trkpt>
      <trkpt lat="47.027150" lon="0.568160">
        <time>2017-06-24T13:19:28Z</time>
      </trkpt>
      <trkpt lat="47.027420" lon="0.568320">
        <time>2017-06-24T13:19:29Z</time>
      </trkpt>
      <trkpt lat="47.027690" lon="0.568480">
        <time>2017-06-24T13:19:30Z</time>
      </trkpt>
      <trkpt lat="47.027970" lon="0.568630">
        <time>2017-06-24T13:19:31Z</time>
      </trkpt>
      <trkpt lat="47.028260" lon="0.568800">
        <time>2017-06-24T13:19:32Z</time>
      </trkpt>
      <trkpt lat="47.028520" lon="0.568950">
        <time>2017-06-24T13:19:33Z</time>
      </trkpt>
      <trkpt lat="47.028800" lon="0.569110">
        <time>2017-06-24T13:19:34Z</time>
      </trkpt>
      <trkpt lat="47.029090" lon="0.569290">
        <time>2017-06-24T13:19:35Z</time>
      </trkpt>
      <trkpt lat="47.029340" lon="0.569440">
        <time>2017-06-24T13:19:36Z</time>
      </trkpt>
      <trkpt lat="47.029620" lon="0.569610">
        <time>2017-06-24T13:19:37Z</time>
      </trkpt>
      <trkpt lat="47.029910" lon="0.569810">
        <time>2017-06-24T13:19:38Z</time>
      </trkpt>
      <trkpt lat="47.030160" lon="0.569980">
        <time>2017-06-24T13:19:39Z</time>
      </trkpt>
      <trkpt lat="47.030450" lon="0.570180">
        <time>2017-06-24T13:19:40Z</time>
      </trkpt>
      <trkpt lat="47.030700" lon="0.570350">
        <time>2017-06-24T13:19:41Z</time>
      </trkpt>
      <trkpt lat="47.030970" lon="0.570550">
        <time>2017-06-24T13:19:42Z</time>
      </trkpt>
      <trkpt lat="47.031250" lon="0.570750">
        <time>2017-06-24T13:19:43Z</time>
      </trkpt>
      <trkpt lat="47.031500" lon="0.570930">
        <time>2017-06-24T13:19:44Z</time>
      </trkpt>
      <trkpt lat="47.031760" lon="0.571140">
        <time>2017-06-24T13:19:45Z</time>
      </trkpt>
      <trkpt lat="47.032020" lon="0.571350">
        <time>2017-06-24T13:19:46Z</time>
      </trkpt>
      <trkpt lat="47.032290" lon="0.571560">
        <time>2017-06-24T13:19:47Z</time>
      </trkpt>
      <trkpt lat="47.032570" lon="0.571780">
        <time>2017-06-24T13:19:48Z</time>
      </trkpt>
      <trkpt lat="47.032820" lon="0.571980">
        <time>2017-06-24T13:19:49Z</time>
      </trkpt>
      <trkpt lat="47.033070" lon="0.572190">
        <time>2017-06-24T13:19:50Z</time>
      </trkpt>
      <trkpt lat="47.033350" lon="0.572410">
        <time>2017-06-24T13:19:51Z</time>
      </trkpt>
      <trkpt lat="47.033590" lon="0.572610">
        <time>2017-06-24T13:19:52Z</time>
      </trkpt>
      <trkpt lat="47.033850" lon="0.572830">
        <time>2017-06-24T13:19:53Z</time>
      </trkpt>
      <trkpt lat="47.034120" lon="0.573060">
        <time>2017-06-24T13:19:54Z</time>
      </trkpt>
      <trkpt lat="47.034370" lon="0.573270">
        <time>2017-06-24T13:19:55Z</time>
      </trkpt>
      <trkpt lat="47.034630" lon="0.573510">
        <time>2017-06-24T13:19:56Z</time>
      </trkpt>
      <trkpt lat="47.034870" lon="0.573720">
        <time>2017-06-24T13:19:57Z</time>
      </trkpt>
      <trkpt lat="47.035120" lon="0.573960">
        <time>2017-06-24T13:19:58Z</time>
      </trkpt>
      <trkpt lat="47.035390" lon="0.574200">
        <time>2017-06-24T13:19:59Z</time>
      </trkpt>
      <trkpt lat="47.035620" lon="0.574420">
        <time>2017-06-24T13:20:00Z</time>
      </trkpt>
      <trkpt lat="47.035870" lon="0.574660">
        <time>2017-06-24T13:20:01Z</time>
      </trkpt>
      <trkpt lat="47.036110" lon="0.574900">
        <time>2017-06-24T13:20:02Z</time>
      </trkpt>
      <trkpt lat="47.036360" lon="0.575150">
        <time>2017-06-24T13:20:03Z</time>
      </trkpt>
      <trkpt lat="47.036610" lon="0.575410">
        <time>2017-06-24T13:20:04Z</time>
      </trkpt>
      <trkpt lat="47.036840" lon="0.575640">
        <time>2017-06-24T13:20:05Z</time>
      </trkpt>
      <trkpt lat="47.037080" lon="0.575890">
        <time>2017-06-24T13:20:06Z</time>
      </trkpt>
      <trkpt lat="47.037340" lon="0.576150">
        <time>2017-06-24T13:20:07Z</time>
      </trkpt>
      <trkpt lat="47.037560" lon="0.576390">
        <time>2017-06-24T13:20:08Z</time>
      </trkpt>
      <trkpt lat="47.037800" lon="0.576640">
        <time>2017-06-24T13:20:09Z</time>
      </trkpt>
      <trkpt lat="47.038060" lon="0.576920">
        <time>2017-06-24T13:20:10Z</time>
      </trkpt>
      <trkpt lat="47.038280" lon="0.577160">
        <time>2017-06-24T13:20:11Z</time>
      </trkpt>
      <trkpt lat="47.038540" lon="0.577440">
        <time>2017-06-24T13:20:12Z</time>
      </trkpt>
      <trkpt lat="47.038760" lon="0.577690">
        <time>2017-06-24T13:20:13Z</time>
      </trkpt>
      <trkpt lat="47.039000" lon="0.577960">
        <time>2017-06-24T13:20:14Z</time>
      </trkpt>
      <trkpt lat="47.039270" lon="0.578250">
        <time>2017-06-24T13:20:15Z</time>
      </trkpt>
      <trkpt lat="47.039500" lon="0.578500">
        <time>2017-06-24T13:20:16Z</time>
      </trkpt>
      <trkpt lat="47.039740" lon="0.578770">
        <time>2017-06-24T13:20:17Z</time>
      </trkpt>
      <trkpt lat="47.039980" lon="0.579040">
        <time>2017-06-24T13:20:18Z</time>
      </trkpt>
      <trkpt lat="47.040230" lon="0.579310">
        <time>2017-06-24T13:20:19Z</time>
      </trkpt>
      <trkpt lat="47.040490" lon="0.579600">
        <time>2017-06-24T13:20:20Z</time>
      </trkpt>
      <trkpt lat="47.040720" lon="0.579840">
        <time>2017-06-24T13:20:21Z</time>
      </trkpt>
      <trkpt lat="47.040960" lon="0.580110">
        <time>2017-06-24T13:20:22Z</time>
      </trkpt>
      <trkpt lat="47.041220" lon="0.580390">
        <time>2017-06-24T13:20:23Z</time>
      </trkpt>
      <trkpt lat="47.041450" lon="0.580640">
        <time>2017-06-24T13:20:24Z</time>
      </trkpt>
      <trkpt lat="47.041700" lon="0.580900">
        <time>2017-06-24T13:20:25Z</time>
      </trkpt>
      <trkpt lat="47.041960" lon="0.581180">
        <time>2017-06-24T13:20:26Z</time>
      </trkpt>
      <trkpt lat="47.042190" lon="0.581420">
        <time>2017-06-24T13:20:27Z</time>
      </trkpt>
      <trkpt lat="47.042460" lon="0.581690">
        <time>2017-06-24T13:20:28Z</time>
      </trkpt>
      <trkpt lat="47.042690" lon="0.581930">
        <time>2017-06-24T13:20:29Z</time>
      </trkpt>
      <trkpt lat="47.042940" lon="0.582180">
        <time>2017-06-24T13:20:30Z</time>
      </trkpt>
      <trkpt lat="47.043210" lon="0.582450">
        <time>2017-06-24T13:20:31Z</time>
      </trkpt>
      <trkpt lat="47.043450" lon="0.582680">
        <time>2017-06-24T13:20:32Z</time>
      </trkpt>
      <trkpt lat="47.043700" lon="0.582920">
        <time>2017-06-24T13:20:33Z</time>
      </trkpt>
      <trkpt lat="47.043960" lon="0.583160">
        <time>2017-06-24T13:20:34Z</time>
      </trkpt>
      <trkpt lat="47.044210" lon="0.583400">
        <time>2017-06-24T13:20:35Z</time>
      </trkpt>
      <trkpt lat="47.044480" lon="0.583650">
        <time>2017-06-24T13:20:36Z</time>
      </trkpt>
      <trkpt lat="47.044720" lon="0.583870">
        <time>2017-06-24T13:20:37Z</time>
      </trkpt>
      <trkpt lat="47.044980" lon="0.584090">
        <time>2017-06-24T13:20:38Z</time>
      </trkpt>
      <trkpt lat="47.045250" lon="0.584320">
        <time>2017-06-24T13:20:39Z</time>
      </trkpt>
      <trkpt lat="47.045500" lon="0.584510">
        <time>2017-06-24T13:20:40Z</time>
      </trkpt>
      <trkpt lat="47.045780" lon="0.584720">
        <time>2017-06-24T13:20:41Z</time>
      </trkpt>
      <trkpt lat="47.046080" lon="0.584940">
        <time>2017-06-24T13:20:42Z</time>
      </trkpt>
      <trkpt lat="47.046330" lon="0.585130">
        <time>2017-06-24T13:20:43Z</time>
      </trkpt>
      <trkpt lat="47.046630" lon="0.585340">
        <time>2017-06-24T13:20:44Z</time>
      </trkpt>
      <trkpt lat="47.046890" lon="0.585530">
        <time>2017-06-24T13:20:45Z</time>
      </trkpt>
      <trkpt lat="47.047180" lon="0.585720">
        <time>2017-06-24T13:20:46Z</time>
      </trkpt>
      <trkpt lat="47.047480" lon="0.585930">
        <time>2017-06-24T13:20:47Z</time>
      </trkpt>
      <trkpt lat="47.047740" lon="0.586110">
        <time>2017-06-24T13:20:48Z</time>
      </trkpt>
      <trkpt lat="47.048030" lon="0.586300">
        <time>2017-06-24T13:20:49Z</time>
      </trkpt>
      <trkpt lat="47.048320" lon="0.586490">
        <time>2017-06-24T13:20:50Z</time>
      </trkpt>
      <trkpt lat="47.048600" lon="0.586680">
        <time>2017-06-24T13:20:51Z</time>
      </trkpt>
      <trkpt lat="47.048900" lon="0.586860">
        <time>2017-06-24T13:20:52Z</time>
      </trkpt>
      <trkpt lat="47.049170" lon="0.587010">
        <time>2017-06-24T13:20:53Z</time>
      </trkpt>
      <trkpt lat="47.049450" lon="0.587160">
        <time>2017-06-24T13:20:54Z</time>
      </trkpt>
      <trkpt lat="47.049750" lon="0.587320">
        <time>2017-06-24T13:20:55Z</time>
      </trkpt>
      <trkpt lat="47.050020" lon="0.587450">
        <time>2017-06-24T13:20:56Z</time>
      </trkpt>
      <trkpt lat="47.050310" lon="0.587600">
        <time>2017-06-24T13:20:57Z</time>
      </trkpt>
      <trkpt lat="47.050620" lon="0.587740">
        <time>2017-06-24T13:20:58Z</time>
      </trkpt>
      <trkpt lat="47.050890" lon="0.587860">
        <time>2017-06-24T13:20:59Z</time>
      </trkpt>
      <trkpt lat="47.051200" lon="0.587990">
        <time>2017-06-24T13:21:00Z</time>
      </trkpt>
      <trkpt lat="47.051480" lon="0.588100">
        <time>2017-06-24T13:21:01Z</time>
      </trkpt>
      <trkpt lat="47.051770" lon="0.588220">
        <time>2017-06-24T13:21:02Z</time>
      </trkpt>
      <trkpt lat="47.052090" lon="0.588340">
        <time>2017-06-24T13:21:03Z</time>
      </trkpt>
      <trkpt lat="47.052370" lon="0.588440">
        <time>2017-06-24T13:21:04Z</time>
      </trkpt>
      <trkpt lat="47.052670" lon="0.588540">
        <time>2017-06-24T13:21:05Z</time>
      </trkpt>
      <trkpt lat="47.052970" lon="0.588640">
        <time>2017-06-24T13:21:06Z</time>
      </trkpt>
      <trkpt lat="47.053270" lon="0.588730">
        <time>2017-06-24T13:21:07Z</time>
      </trkpt>
      <trkpt lat="47.053590" lon="0.588820">
        <time>2017-06-24T13:21:08Z</time>
      </trkpt>
      <trkpt lat="47.053880" lon="0.588910">
        <time>2017-06-24T13:21:09Z</time>
      </trkpt>
      <trkpt lat="47.054170" lon="0.588990">
        <time>2017-06-24T13:21:10Z</time>
      </trkpt>
      <trkpt lat="47.054500" lon="0.589060">
        <time>2017-06-24T13:21:11Z</time>
      </trkpt>
      <trkpt lat="47.054780" lon="0.589130">
        <time>2017-06-24T13:21:12Z</time>
      </trkpt>
      <trkpt lat="47.055080" lon="0.589190">
        <time>2017-06-24T13:21:13Z</time>
      </trkpt>
      <trkpt lat="47.055400" lon="0.589250">
        <time>2017-06-24T13:21:14Z</time>
      </trkpt>
      <trkpt lat="47.055690" lon="0.589290">
        <time>2017-06-24T13:21:15Z</time>
      </trkpt>
      <trkpt lat="47.056020" lon="0.589340">
        <time>2017-06-24T13:21:16Z</time>
      </trkpt>
      <trkpt lat="47.056310" lon="0.589370">
        <time>2017-06-24T13:21:17Z</time>
      </trkpt>
      <trkpt lat="47.056620" lon="0.589410">
        <time>2017-06-24T13:21:18Z</time>
      </trkpt>
      <trkpt lat="47.056950" lon="0.589450">
        <time>2017-06-24T13:21:19Z</time>
      </trkpt>
      <trkpt lat="47.057240" lon="0.589470">
        <time>2017-06-24T13:21:20Z</time>
      </trkpt>
      <trkpt lat="47.057560" lon="0.589490">
        <time>2017-06-24T13:21:21Z</time>
      </trkpt>
      <trkpt lat="47.057870" lon="0.589510">
        <time>2017-06-24T13:21:22Z</time>
      </trkpt>
      <trkpt lat="47.058190" lon="0.589510">
        <time>2017-06-24T13:21:23Z</time>
      </trkpt>
      <trkpt lat="47.058530" lon="0.589520">
        <time>2017-06-24T13:21:24Z</time>
      </trkpt>
      <trkpt lat="47.058830" lon="0.589520">
        <time>2017-06-24T13:21:25Z</time>
      </trkpt>
      <trkpt lat="47.059140" lon="0.589500">
        <time>2017-06-24T13:21:26Z</time>
      </trkpt>
      <trkpt lat="47.059470" lon="0.589490">
        <time>2017-06-24T13:21:27Z</time>
      </trkpt>
      <trkpt lat="47.059760" lon="0.589470">
        <time>2017-06-24T13:21:28Z</time>
      </trkpt>
      <trkpt lat="47.060070" lon="0.589450">
        <time>2017-06-24T13:21:29Z</time>
      </trkpt>
      <trkpt lat="47.060400" lon="0.589420">
        <time>2017-06-24T13:21:30Z</time>
      </trkpt>
      <trkpt lat="47.060690" lon="0.589390">
        <time>2017-06-24T13:21:31Z</time>
      </trkpt>
      <trkpt lat="47.061020" lon="0.589350">
        <time>2017-06-24T13:21:32Z</time>
      </trkpt>
      <trkpt lat="47.061310" lon="0.589310">
        <time>2017-06-24T13:21:33Z</time>
      </trkpt>
      <trkpt lat="47.061630" lon="0.589270">
        <time>2017-06-24T13:21:34Z</time>
      </trkpt>
      <trkpt lat="47.061960" lon="0.589220">
        <time>2017-06-24T13:21:35Z</time>
      </trkpt>
      <trkpt lat="47.062250" lon="0.589170">
        <time>2017-06-24T13:21:36Z</time>
      </trkpt>
      <trkpt lat="47.062560" lon="0.589110">
        <time>2017-06-24T13:21:37Z</time>
      </trkpt>
      <trkpt lat="47.062870" lon="0.589040">
        <time>2017-06-24T13:21:38Z</time>
      </trkpt>
      <trkpt lat="47.063180" lon="0.588980">
        <time>2017-06-24T13:21:39Z</time>
      </trkpt>
      <trkpt lat="47.063510" lon="0.588910">
        <time>2017-06-24T13:21:40Z</time>
      </trkpt>
      <trkpt lat="47.063790" lon="0.588860">
        <time>2017-06-24T13:21:41Z</time>
      </trkpt>
      <trkpt lat="47.064100" lon="0.588800">
        <time>2017-06-24T13:21:42Z</time>
      </trkpt>
      <trkpt lat="47.064420" lon="0.588730">
        <time>2017-06-24T13:21:43Z</time>
      </trkpt>
      <trkpt lat="47.064710" lon="0.588670">
        <time>2017-06-24T13:21:44Z</time>
      </trkpt>
      <trkpt lat="47.065010" lon="0.588610">
        <time>2017-06-24T13:21:45Z</time>
      </trkpt>
      <trkpt lat="47.065340" lon="0.588540">
        <time>2017-06-24T13:21:46Z</time>
      </trkpt>
      <trkpt lat="47.065620" lon="0.588480">
        <time>2017-06-24T13:21:47Z</time>
      </trkpt>
      <trkpt lat="47.065950" lon="0.588420">
        <time>2017-06-24T13:21:48Z</time>
      </trkpt>
      <trkpt lat="47.066240" lon="0.588360">
        <time>2017-06-24T13:21:49Z</time>
      </trkpt>
      <trkpt lat="47.066540" lon="0.588300">
        <time>2017-06-24T13:21:50Z</time>
      </trkpt>
      <trkpt lat="47.066870" lon="0.588230">
        <time>2017-06-24T13:21:51Z</time>
      </trkpt>
      <trkpt lat="47.067170" lon="0.588170">
        <time>2017-06-24T13:21:52Z</time>
      </trkpt>
      <trkpt lat="47.067490" lon="0.588110">
        <time>2017-06-24T13:21:53Z</time>
      </trkpt>
      <trkpt lat="47.067800" lon="0.588050">
        <time>2017-06-24T13:21:54Z</time>
      </trkpt>
      <trkpt lat="47.068110" lon="0.587990">
        <time>2017-06-24T13:21:55Z</time>
      </trkpt>
      <trkpt lat="47.068430" lon="0.587930">
        <time>2017-06-24T13:21:56Z</time>
      </trkpt>
      <trkpt lat="47.068720" lon="0.587870">
        <time>2017-06-24T13:21:57Z</time>
      </trkpt>
      <trkpt lat="47.069020" lon="0.587810">
        <time>2017-06-24T13:21:58Z</time>
      </trkpt>
      <trkpt lat="47.069350" lon="0.587740">
        <time>2017-06-24T13:21:59Z</time>
      </trkpt>
      <trkpt lat="47.069640" lon="0.587680">
        <time>2017-06-24T13:22:00Z</time>
      </trkpt>
      <trkpt lat="47.069950" lon="0.587610">
        <time>2017-06-24T13:22:01Z</time>
      </trkpt>
      <trkpt lat="47.070280" lon="0.587550">
        <time>2017-06-24T13:22:02Z</time>
      </trkpt>
      <trkpt lat="47.070580" lon="0.587480">
        <time>2017-06-24T13:22:03Z</time>
      </trkpt>
      <trkpt lat="47.070910" lon="0.587410">
        <time>2017-06-24T13:22:04Z</time>
      </trkpt>
      <trkpt lat="47.071210" lon="0.587360">
        <time>2017-06-24T13:22:05Z</time>
      </trkpt>
      <trkpt lat="47.071520" lon="0.587290">
        <time>2017-06-24T13:22:06Z</time>
      </trkpt>
      <trkpt lat="47.071860" lon="0.587220">
        <time>2017-06-24T13:22:07Z</time>
      </trkpt>
      <trkpt lat="47.072150" lon="0.587170">
        <time>2017-06-24T13:22:08Z</time>
      </trkpt>
      <trkpt lat="47.072470" lon="0.587110">
        <time>2017-06-24T13:22:09Z</time>
      </trkpt>
      <trkpt lat="47.072780" lon="0.587050">
        <time>2017-06-24T13:22:10Z</time>
      </trkpt>
      <trkpt lat="47.073100" lon="0.587000">
        <time>2017-06-24T13:22:11Z</time>
      </trkpt>
      <trkpt lat="47.073430" lon="0.586940">
        <time>2017-06-24T13:22:12Z</time>
      </trkpt>
      <trkpt lat="47.073730" lon="0.586900">
        <time>2017-06-24T13:22:13Z</time>
      </trkpt>
      <trkpt lat="47.074050" lon="0.586860">
        <time>2017-06-24T13:22:14Z</time>
      </trkpt>
      <trkpt lat="47.074390" lon="0.586810">
        <time>2017-06-24T13:22:15Z</time>
      </trkpt>
      <trkpt lat="47.074680" lon="0.586780">
        <time>2017-06-24T13:22:16Z</time>
      </trkpt>
      <trkpt lat="47.075010" lon="0.586730">
        <time>2017-06-24T13:22:17Z</time>
      </trkpt>
      <trkpt lat="47.075350" lon="0.586680">
        <time>2017-06-24T13:22:18Z</time>
      </trkpt>
      <trkpt lat="47.075660" lon="0.586640">
        <time>2017-06-24T13:22:19Z</time>
      </trkpt>
      <trkpt lat="47.076010" lon="0.586600">
        <time>2017-06-24T13:22:20Z</time>
      </trkpt>
      <trkpt lat="47.076320" lon="0.586570">
        <time>2017-06-24T13:22:21Z</time>
      </trkpt>
      <trkpt lat="47.076650" lon="0.586520">
        <time>2017-06-24T13:22:22Z</time>
      </trkpt>
      <trkpt lat="47.077000" lon="0.586490">
        <time>2017-06-24T13:22:23Z</time>
      </trkpt>
      <trkpt lat="47.077310" lon="0.586450">
        <time>2017-06-24T13:22:24Z</time>
      </trkpt>
      <trkpt lat="47.077640" lon="0.586420">
        <time>2017-06-24T13:22:25Z</time>
      </trkpt>
      <trkpt lat="47.077970" lon="0.586390">
        <time>2017-06-24T13:22:26Z</time>
      </trkpt>
      <trkpt lat="47.078300" lon="0.586370">
        <time>2017-06-24T13:22:27Z</time>
      </trkpt>
      <trkpt lat="47.078650" lon="0.586340">
        <time>2017-06-24T13:22:28Z</time>
      </trkpt>
      <trkpt lat="47.078950" lon="0.586320">
        <time>2017-06-24T13:22:29Z</time>
      </trkpt>
      <trkpt lat="47.079280" lon="0.586300">
        <time>2017-06-24T13:22:30Z</time>
      </trkpt>
      <trkpt lat="47.079630" lon="0.586270">
        <time>2017-06-24T13:22:31Z</time>
      </trkpt>
      <trkpt lat="47.079930" lon="0.586260">
        <time>2017-06-24T13:22:32Z</time>
      </trkpt>
      <trkpt lat="47.080260" lon="0.586230">
        <time>2017-06-24T13:22:33Z</time>
      </trkpt>
      <trkpt lat="47.080610" lon="0.586210">
        <time>2017-06-24T13:22:34Z</time>
      </trkpt>
      <trkpt lat="47.080910" lon="0.586190">
        <time>2017-06-24T13:22:35Z</time>
      </trkpt>
      <trkpt lat="47.081250" lon="0.586170">
        <time>2017-06-24T13:22:36Z</time>
      </trkpt>
      <trkpt lat="47.081550" lon="0.586160">
        <time>2017-06-24T13:22:37Z</time>
      </trkpt>
      <trkpt lat="47.081870" lon="0.586160">
        <time>2017-06-24T13:22:38Z</time>
      </trkpt>
      <trkpt lat="47.082210" lon="0.586160">
        <time>2017-06-24T13:22:39Z</time>
      </trkpt>
      <trkpt lat="47.082510" lon="0.586150">
        <time>2017-06-24T13:22:40Z</time>
      </trkpt>
      <trkpt lat="47.082820" lon="0.586150">
        <time>2017-06-24T13:22:41Z</time>
      </trkpt>
      <trkpt lat="47.083140" lon="0.586150">
        <time>2017-06-24T13:22:42Z</time>
      </trkpt>
      <trkpt lat="47.083450" lon="0.586150">
        <time>2017-06-24T13:22:43Z</time>
      </trkpt>
      <trkpt lat="47.083780" lon="0.586150">
        <time>2017-06-24T13:22:44Z</time>
      </trkpt>
      <trkpt lat="47.084080" lon="0.586140">
        <time>2017-06-24T13:22:45Z</time>
      </trkpt>
      <trkpt lat="47.084390" lon="0.586140">
        <time>2017-06-24T13:22:46Z</time>
      </trkpt>
      <trkpt lat="47.084720" lon="0.586140">
        <time>2017-06-24T13:22:47Z</time>
      </trkpt>
      <trkpt lat="47.085010" lon="0.586150">
        <time>2017-06-24T13:22:48Z</time>
      </trkpt>
      <trkpt lat="47.085320" lon="0.586170">
        <time>2017-06-24T13:22:49Z</time>
      </trkpt>
      <trkpt lat="47.085650" lon="0.586180">
        <time>2017-06-24T13:22:50Z</time>
      </trkpt>
      <trkpt lat="47.085940" lon="0.586200">
        <time>2017-06-24T13:22:51Z</time>
      </trkpt>
      <trkpt lat="47.086270" lon="0.586220">
        <time>2017-06-24T13:22:52Z</time>
      </trkpt>
      <trkpt lat="47.086560" lon="0.586240">
        <time>2017-06-24T13:22:53Z</time>
      </trkpt>
      <trkpt lat="47.086880" lon="0.586250">
        <time>2017-06-24T13:22:54Z</time>
      </trkpt>
      <trkpt lat="47.087220" lon="0.586270">
        <time>2017-06-24T13:22:55Z</time>
      </trkpt>
      <trkpt lat="47.087510" lon="0.586280">
        <time>2017-06-24T13:22:56Z</time>
      </trkpt>
      <trkpt lat="47.087830" lon="0.586300">
        <time>2017-06-24T13:22:57Z</time>
      </trkpt>
      <trkpt lat="47.088140" lon="0.586320">
        <time>2017-06-24T13:22:58Z</time>
      </trkpt>
      <trkpt lat="47.088460" lon="0.586340">
        <time>2017-06-24T13:22:59Z</time>
      </trkpt>
      <trkpt lat="47.088790" lon="0.586370">
        <time>2017-06-24T13:23:00Z</time>
      </trkpt>
      <trkpt lat="47.089080" lon="0.586390">
        <time>2017-06-24T13:23:01Z</time>
      </trkpt>
      <trkpt lat="47.089400" lon="0.586420">
        <time>2017-06-24T13:23:02Z</time>
      </trkpt>
      <trkpt lat="47.089740" lon="0.586450">
        <time>2017-06-24T13:23:03Z</time>
      </trkpt>
      <trkpt lat="47.090040" lon="0.586480">
        <time>2017-06-24T13:23:04Z</time>
      </trkpt>
      <trkpt lat="47.090370" lon="0.586520">
        <time>2017-06-24T13:23:05Z</time>
      </trkpt>
      <trkpt lat="47.090720" lon="0.586560">
        <time>2017-06-24T13:23:06Z</time>
      </trkpt>
      <trkpt lat="47.091040" lon="0.586590">
        <time>2017-06-24T13:23:07Z</time>
      </trkpt>
      <trkpt lat="47.091390" lon="0.586640">
        <time>2017-06-24T13:23:08Z</time>
      </trkpt>
      <trkpt lat="47.091700" lon="0.586690">
        <time>2017-06-24T13:23:09Z</time>
      </trkpt>
      <trkpt lat="47.092040" lon="0.586740">
        <time>2017-06-24T13:23:10Z</time>
      </trkpt>
      <trkpt lat="47.092400" lon="0.586790">
        <time>2017-06-24T13:23:11Z</time>
      </trkpt>
      <trkpt lat="47.092710" lon="0.586840">
        <time>2017-06-24T13:23:12Z</time>
      </trkpt>
      <trkpt lat="47.093040" lon="0.586890">
        <time>2017-06-24T13:23:13Z</time>
      </trkpt>
      <trkpt lat="47.093370" lon="0.586950">
        <time>2017-06-24T13:23:14Z</time>
      </trkpt>
      <trkpt lat="47.093700" lon="0.587000">
        <time>2017-06-24T13:23:15Z</time>
      </trkpt>
      <trkpt lat="47.094050" lon="0.587070">
        <time>2017-06-24T13:23:16Z</time>
      </trkpt>
      <trkpt lat="47.094350" lon="0.587120">
        <time>2017-06-24T13:23:17Z</time>
      </trkpt>
      <trkpt lat="47.094670" lon="0.587190">
        <time>2017-06-24T13:23:18Z</time>
      </trkpt>
      <trkpt lat="47.095010" lon="0.587250">
        <time>2017-06-24T13:23:19Z</time>
      </trkpt>
      <trkpt lat="47.095320" lon="0.587310">
        <time>2017-06-24T13:23:20Z</time>
      </trkpt>
      <trkpt lat="47.095640" lon="0.587360">
        <time>2017-06-24T13:23:21Z</time>
      </trkpt>
      <trkpt lat="47.095980" lon="0.587430">
        <time>2017-06-24T13:23:22Z</time>
      </trkpt>
      <trkpt lat="47.096290" lon="0.587490">
        <time>2017-06-24T13:23:23Z</time>
      </trkpt>
      <trkpt lat="47.096630" lon="0.587560">
        <time>2017-06-24T13:23:24Z</time>
      </trkpt>
      <trkpt lat="47.096930" lon="0.587630">
        <time>2017-06-24T13:23:25Z</time>
      </trkpt>
      <trkpt lat="47.097250" lon="0.587700">
        <time>2017-06-24T13:23:26Z</time>
      </trkpt>
      <trkpt lat="47.097590" lon="0.587780">
        <time>2017-06-24T13:23:27Z</time>
      </trkpt>
      <trkpt lat="47.097890" lon="0.587850">
        <time>2017-06-24T13:23:28Z</time>
      </trkpt>
      <trkpt lat="47.098200" lon="0.587930">
        <time>2017-06-24T13:23:29Z</time>
      </trkpt>
      <trkpt lat="47.098500" lon="0.588010">
        <time>2017-06-24T13:23:30Z</time>
      </trkpt>
      <trkpt lat="47.098800" lon="0.588080">
        <time>2017-06-24T13:23:31Z</time>
      </trkpt>
      <trkpt lat="47.099110" lon="0.588170">
        <time>2017-06-24T13:23:32Z</time>
      </trkpt>
      <trkpt lat="47.099390" lon="0.588240">
        <time>2017-06-24T13:23:33Z</time>
      </trkpt>
      <trkpt lat="47.099690" lon="0.588330">
        <time>2017-06-24T13:23:34Z</time>
      </trkpt>
      <trkpt lat="47.100000" lon="0.588420">
        <time>2017-06-24T13:23:35Z</time>
      </trkpt>
      <trkpt lat="47.100270" lon="0.588500">
        <time>2017-06-24T13:23:36Z</time>
      </trkpt>
      <trkpt lat="47.100570" lon="0.588590">
        <time>2017-06-24T13:23:37Z</time>
      </trkpt>
      <trkpt lat="47.100880" lon="0.588680">
        <time>2017-06-24T13:23:38Z</time>
      </trkpt>
      <trkpt lat="47.101160" lon="0.588770">
        <time>2017-06-24T13:23:39Z</time>
      </trkpt>
      <trkpt lat="47.101480" lon="0.588880">
        <time>2017-06-24T13:23:40Z</time>
      </trkpt>
      <trkpt lat="47.101760" lon="0.588980">
        <time>2017-06-24T13:23:41Z</time>
      </trkpt>
      <trkpt lat="47.102060" lon="0.589090">
        <time>2017-06-24T13:23:42Z</time>
      </trkpt>
      <trkpt lat="47.102380" lon="0.589200">
        <time>2017-06-24T13:23:43Z</time>
      </trkpt>
      <trkpt lat="47.102680" lon="0.589300">
        <time>2017-06-24T13:23:44Z</time>
      </trkpt>
      <trkpt lat="47.102990" lon="0.589400">
        <time>2017-06-24T13:23:45Z</time>
      </trkpt>
      <trkpt lat="47.103300" lon="0.589510">
        <time>2017-06-24T13:23:46Z</time>
      </trkpt>
      <trkpt lat="47.103620" lon="0.589630">
        <time>2017-06-24T13:23:47Z</time>
      </trkpt>
      <trkpt lat="47.103950" lon="0.589760">
        <time>2017-06-24T13:23:48Z</time>
      </trkpt>
      <trkpt lat="47.104250" lon="0.589880">
        <time>2017-06-24T13:23:49Z</time>
      </trkpt>
      <trkpt lat="47.104560" lon="0.590010">
        <time>2017-06-24T13:23:50Z</time>
      </trkpt>
      <trkpt lat="47.104890" lon="0.590160">
        <time>2017-06-24T13:23:51Z</time>
      </trkpt>
      <trkpt lat="47.105180" lon="0.590290">
        <time>2017-06-24T13:23:52Z</time>
      </trkpt>
      <trkpt lat="47.105490" lon="0.590420">
        <time>2017-06-24T13:23:53Z</time>
      </trkpt>
      <trkpt lat="47.105820" lon="0.590570">
        <time>2017-06-24T13:23:54Z</time>
      </trkpt>
      <trkpt lat="47.106110" lon="0.590710">
        <time>2017-06-24T13:23:55Z</time>
      </trkpt>
      <trkpt lat="47.106430" lon="0.590870">
        <time>2017-06-24T13:23:56Z</time>
      </trkpt>
      <trkpt lat="47.106710" lon="0.591020">
        <time>2017-06-24T13:23:57Z</time>
      </trkpt>
      <trkpt lat="47.107010" lon="0.591190">
        <time>2017-06-24T13:23:58Z</time>
      </trkpt>
      <trkpt lat="47.107330" lon="0.591370">
        <time>2017-06-24T13:23:59Z</time>
      </trkpt>
      <trkpt lat="47.107620" lon="0.591530">
        <time>2017-06-24T13:24:00Z</time>
      </trkpt>
      <trkpt lat="47.107920" lon="0.591690">
        <time>2017-06-24T13:24:01Z</time>
      </trkpt>
      <trkpt lat="47.108220" lon="0.591860">
        <time>2017-06-24T13:24:02Z</time>
      </trkpt>
      <trkpt lat="47.108530" lon="0.592030">
        <time>2017-06-24T13:24:03Z</time>
      </trkpt>
      <trkpt lat="47.108860" lon="0.592210">
        <time>2017-06-24T13:24:04Z</time>
      </trkpt>
      <trkpt lat="47.109140" lon="0.592380">
        <time>2017-06-24T13:24:05Z</time>
      </trkpt>
      <trkpt lat="47.109440" lon="0.592570">
        <time>2017-06-24T13:24:06Z</time>
      </trkpt>
      <trkpt lat="47.109760" lon="0.592770">
        <time>2017-06-24T13:24:07Z</time>
      </trkpt>
      <trkpt lat="47.110040" lon="0.592950">
        <time>2017-06-24T13:24:08Z</time>
      </trkpt>
      <trkpt lat="47.110340" lon="0.593150">
        <time>2017-06-24T13:24:09Z</time>
      </trkpt>
      <trkpt lat="47.110660" lon="0.593370">
        <time>2017-06-24T13:24:10Z</time>
      </trkpt>
      <trkpt lat="47.110940" lon="0.593560">
        <time>2017-06-24T13:24:11Z</time>
      </trkpt>
      <trkpt lat="47.111260" lon="0.593770">
        <time>2017-06-24T13:24:12Z</time>
      </trkpt>
      <trkpt lat="47.111540" lon="0.593970">
        <time>2017-06-24T13:24:13Z</time>
      </trkpt>
      <trkpt lat="47.111830" lon="0.594190">
        <time>2017-06-24T13:24:14Z</time>
      </trkpt>
      <trkpt lat="47.112150" lon="0.594420">
        <time>2017-06-24T13:24:15Z</time>
      </trkpt>
      <trkpt lat="47.112420" lon="0.594630">
        <time>2017-06-24T13:24:16Z</time>
      </trkpt>
      <trkpt lat="47.112720" lon="0.594850">
        <time>2017-06-24T13:24:17Z</time>
      </trkpt>
      <trkpt lat="47.113000" lon="0.595080">
        <time>2017-06-24T13:24:18Z</time>
      </trkpt>
      <trkpt lat="47.113280" lon="0.595310">
        <time>2017-06-24T13:24:19Z</time>
      </trkpt>
      <trkpt lat="47.113590" lon="0.595560">
        <time>2017-06-24T13:24:20Z</time>
      </trkpt>
      <trkpt lat="47.113850" lon="0.595780">
        <time>2017-06-24T13:24:21Z</time>
      </trkpt>
      <trkpt lat="47.114130" lon="0.596020">
        <time>2017-06-24T13:24:22Z</time>
      </trkpt>
      <trkpt lat="47.114430" lon="0.596280">
        <time>2017-06-24T13:24:23Z</time>
      </trkpt>
      <trkpt lat="47.114690" lon="0.596510">
        <time>2017-06-24T13:24:24Z</time>
      </trkpt>
      <trkpt lat="47.114970" lon="0.596750">
        <time>2017-06-24T13:24:25Z</time>
      </trkpt>
      <trkpt lat="47.115270" lon="0.597010">
        <time>2017-06-24T13:24:26Z</time>
      </trkpt>
      <trkpt lat="47.115520" lon="0.597240">
        <time>2017-06-24T13:24:27Z</time>
      </trkpt>
      <trkpt lat="47.115810" lon="0.597520">
        <time>2017-06-24T13:24:28Z</time>
      </trkpt>
      <trkpt lat="47.116060" lon="0.597750">
        <time>2017-06-24T13:24:29Z</time>
      </trkpt>
      <trkpt lat="47.116330" lon="0.598000">
        <time>2017-06-24T13:24:30Z</time>
      </trkpt>
      <trkpt lat="47.116610" lon="0.598270">
        <time>2017-06-24T13:24:31Z</time>
      </trkpt>
      <trkpt lat="47.116860" lon="0.598510">
        <time>2017-06-24T13:24:32Z</time>
      </trkpt>
      <trkpt lat="47.117120" lon="0.598770">
        <time>2017-06-24T13:24:33Z</time>
      </trkpt>
      <trkpt lat="47.117380" lon="0.599030">
        <time>2017-06-24T13:24:34Z</time>
      </trkpt>
      <trkpt lat="47.117640" lon="0.599310">
        <time>2017-06-24T13:24:35Z</time>
      </trkpt>
      <trkpt lat="47.117910" lon="0.599590">
        <time>2017-06-24T13:24:36Z</time>
      </trkpt>
      <trkpt lat="47.118150" lon="0.599850">
        <time>2017-06-24T13:24:37Z</time>
      </trkpt>
      <trkpt lat="47.118400" lon="0.600140">
        <time>2017-06-24T13:24:38Z</time>
      </trkpt>
      <trkpt lat="47.118670" lon="0.600430">
        <time>2017-06-24T13:24:39Z</time>
      </trkpt>
      <trkpt lat="47.118910" lon="0.600700">
        <time>2017-06-24T13:24:40Z</time>
      </trkpt>
      <trkpt lat="47.119150" lon="0.600970">
        <time>2017-06-24T13:24:41Z</time>
      </trkpt>
      <trkpt lat="47.119420" lon="0.601280">
        <time>2017-06-24T13:24:42Z</time>
      </trkpt>
      <trkpt lat="47.119650" lon="0.601550">
        <time>2017-06-24T13:24:43Z</time>
      </trkpt>
      <trkpt lat="47.119920" lon="0.601860">
        <time>2017-06-24T13:24:44Z</time>
      </trkpt>
      <trkpt lat="47.120150" lon="0.602130">
        <time>2017-06-24T13:24:45Z</time>
      </trkpt>
      <trkpt lat="47.120390" lon="0.602430">
        <time>2017-06-24T13:24:46Z</time>
      </trkpt>
      <trkpt lat="47.120650" lon="0.602750">
        <time>2017-06-24T13:24:47Z</time>
      </trkpt>
      <trkpt lat="47.120870" lon="0.603050">
        <time>2017-06-24T13:24:48Z</time>
      </trkpt>
      <trkpt lat="47.121110" lon="0.603360">
        <time>2017-06-24T13:24:49Z</time>
      </trkpt>
      <trkpt lat="47.121350" lon="0.603670">
        <time>2017-06-24T13:24:50Z</time>
      </trkpt>
      <trkpt lat="47.121590" lon="0.603980">
        <time>2017-06-24T13:24:51Z</time>
      </trkpt>
      <trkpt lat="47.121840" lon="0.604310">
        <time>2017-06-24T13:24:52Z</time>
      </trkpt>
      <trkpt lat="47.122060" lon="0.604610">
        <time>2017-06-24T13:24:53Z</time>
      </trkpt>
      <trkpt lat="47.122290" lon="0.604920">
        <time>2017-06-24T13:24:54Z</time>
      </trkpt>
      <trkpt lat="47.122540" lon="0.605260">
        <time>2017-06-24T13:24:55Z</time>
      </trkpt>
      <trkpt lat="47.122750" lon="0.605550">
        <time>2017-06-24T13:24:56Z</time>
      </trkpt>
      <trkpt lat="47.122980" lon="0.605860">
        <time>2017-06-24T13:24:57Z</time>
      </trkpt>
      <trkpt lat="47.123230" lon="0.606200">
        <time>2017-06-24T13:24:58Z</time>
      </trkpt>
      <trkpt lat="47.123450" lon="0.606500">
        <time>2017-06-24T13:24:59Z</time>
      </trkpt>
      <trkpt lat="47.123690" lon="0.606840">
        <time>2017-06-24T13:25:00Z</time>
      </trkpt>
      <trkpt lat="47.123900" lon="0.607150">
        <time>2017-06-24T13:25:01Z</time>
      </trkpt>
      <trkpt lat="47.124130" lon="0.607470">
        <time>2017-06-24T13:25:02Z</time>
      </trkpt>
      <trkpt lat="47.124370" lon="0.607820">
        <time>2017-06-24T13:25:03Z</time>
      </trkpt>
      <trkpt lat="47.124590" lon="0.608110">
        <time>2017-06-24T13:25:04Z</time>
      </trkpt>
      <trkpt lat="47.124820" lon="0.608440">
        <time>2017-06-24T13:25:05Z</time>
      </trkpt>
      <trkpt lat="47.125060" lon="0.608760">
        <time>2017-06-24T13:25:06Z</time>
      </trkpt>
      <trkpt lat="47.125300" lon="0.609080">
        <time>2017-06-24T13:25:07Z</time>
      </trkpt>
      <trkpt lat="47.125540" lon="0.609410">
        <time>2017-06-24T13:25:08Z</time>
      </trkpt>
      <trkpt lat="47.125760" lon="0.609710">
        <time>2017-06-24T13:25:09Z</time>
      </trkpt>
      <trkpt lat="47.126000" lon="0.610030">
        <time>2017-06-24T13:25:10Z</time>
      </trkpt>
      <trkpt lat="47.126250" lon="0.610350">
        <time>2017-06-24T13:25:11Z</time>
      </trkpt>
      <trkpt lat="47.126490" lon="0.610630">
        <time>2017-06-24T13:25:12Z</time>
      </trkpt>
      <trkpt lat="47.126730" lon="0.610920">
        <time>2017-06-24T13:25:13Z</time>
      </trkpt>
      <trkpt lat="47.127000" lon="0.611230">
        <time>2017-06-24T13:25:14Z</time>
      </trkpt>
      <trkpt lat="47.127230" lon="0.611500">
        <time>2017-06-24T13:25:15Z</time>
      </trkpt>
      <trkpt lat="47.127510" lon="0.611800">
        <time>2017-06-24T13:25:16Z</time>
      </trkpt>
      <trkpt lat="47.127750" lon="0.612050">
        <time>2017-06-24T13:25:17Z</time>
      </trkpt>
      <trkpt lat="47.128010" lon="0.612320">
        <time>2017-06-24T13:25:18Z</time>
      </trkpt>
      <trkpt lat="47.128300" lon="0.612610">
        <time>2017-06-24T13:25:19Z</time>
      </trkpt>
      <trkpt lat="47.128540" lon="0.612850">
        <time>2017-06-24T13:25:20Z</time>
      </trkpt>
      <trkpt lat="47.128810" lon="0.613120">
        <time>2017-06-24T13:25:21Z</time>
      </trkpt>
      <trkpt lat="47.129090" lon="0.613380">
        <time>2017-06-24T13:25:22Z</time>
      </trkpt>
      <trkpt lat="47.129370" lon="0.613620">
        <time>2017-06-24T13:25:23Z</time>
      </trkpt>
      <trkpt lat="47.129680" lon="0.613880">
        <time>2017-06-24T13:25:24Z</time>
      </trkpt>
      <trkpt lat="47.129940" lon="0.614100">
        <time>2017-06-24T13:25:25Z</time>
      </trkpt>
      <trkpt lat="47.130230" lon="0.614330">
        <time>2017-06-24T13:25:26Z</time>
      </trkpt>
      <trkpt lat="47.130540" lon="0.614560">
        <time>2017-06-24T13:25:27Z</time>
      </trkpt>
      <trkpt lat="47.130810" lon="0.614770">
        <time>2017-06-24T13:25:28Z</time>
      </trkpt>
      <trkpt lat="47.131100" lon="0.614980">
        <time>2017-06-24T13:25:29Z</time>
      </trkpt>
      <trkpt lat="47.131410" lon="0.615190">
        <time>2017-06-24T13:25:30Z</time>
      </trkpt>
      <trkpt lat="47.131680" lon="0.615370">
        <time>2017-06-24T13:25:31Z</time>
      </trkpt>
      <trkpt lat="47.131990" lon="0.615570">
        <time>2017-06-24T13:25:32Z</time>
      </trkpt>
      <trkpt lat="47.132270" lon="0.615740">
        <time>2017-06-24T13:25:33Z</time>
      </trkpt>
      <trkpt lat="47.132570" lon="0.615910">
        <time>2017-06-24T13:25:34Z</time>
      </trkpt>
      <trkpt lat="47.132890" lon="0.616080">
        <time>2017-06-24T13:25:35Z</time>
      </trkpt>
      <trkpt lat="47.133170" lon="0.616240">
        <time>2017-06-24T13:25:36Z</time>
      </trkpt>
      <trkpt lat="47.133460" lon="0.616400">
        <time>2017-06-24T13:25:37Z</time>
      </trkpt>
      <trkpt lat="47.133770" lon="0.616560">
        <time>2017-06-24T13:25:38Z</time>
      </trkpt>
      <trkpt lat="47.134060" lon="0.616720">
        <time>2017-06-24T13:25:39Z</time>
      </trkpt>
      <trkpt lat="47.134370" lon="0.616890">
        <time>2017-06-24T13:25:40Z</time>
      </trkpt>
      <trkpt lat="47.134650" lon="0.617030">
        <time>2017-06-24T13:25:41Z</time>
      </trkpt>
      <trkpt lat="47.134930" lon="0.617170">
        <time>2017-06-24T13:25:42Z</time>
      </trkpt>
      <trkpt lat="47.135240" lon="0.617340">
        <time>2017-06-24T13:25:43Z</time>
      </trkpt>
      <trkpt lat="47.135510" lon="0.617480">
        <time>2017-06-24T13:25:44Z</time>
      </trkpt>
      <trkpt lat="47.135800" lon="0.617630">
        <time>2017-06-24T13:25:45Z</time>
      </trkpt>
      <trkpt lat="47.136110" lon="0.617800">
        <time>2017-06-24T13:25:46Z</time>
      </trkpt>
      <trkpt lat="47.136380" lon="0.617950">
        <time>2017-06-24T13:25:47Z</time>
      </trkpt>
      <trkpt lat="47.136690" lon="0.618120">
        <time>2017-06-24T13:25:48Z</time>
      </trkpt>
      <trkpt lat="47.136970" lon="0.618260">
        <time>2017-06-24T13:25:49Z</time>
      </trkpt>
      <trkpt lat="47.137260" lon="0.618420">
        <time>2017-06-24T13:25:50Z</time>
      </trkpt>
      <trkpt lat="47.137580" lon="0.618590">
        <time>2017-06-24T13:25:51Z</time>
      </trkpt>
      <trkpt lat="47.137850" lon="0.618730">
        <time>2017-06-24T13:25:52Z</time>
      </trkpt>
      <trkpt lat="47.138140" lon="0.618880">
        <time>2017-06-24T13:25:53Z</time>
      </trkpt>
      <trkpt lat="47.138430" lon="0.619030">
        <time>2017-06-24T13:25:54Z</time>
      </trkpt>
      <trkpt lat="47.138720" lon="0.619180">
        <time>2017-06-24T13:25:55Z</time>
      </trkpt>
      <trkpt lat="47.139040" lon="0.619340">
        <time>2017-06-24T13:25:56Z</time>
      </trkpt>
      <trkpt lat="47.139310" lon="0.619490">
        <time>2017-06-24T13:25:57Z</time>
      </trkpt>
      <trkpt lat="47.139610" lon="0.619640">
        <time>2017-06-24T13:25:58Z</time>
      </trkpt>
      <trkpt lat="47.139930" lon="0.619800">
        <time>2017-06-24T13:25:59Z</time>
      </trkpt>
      <trkpt lat="47.140200" lon="0.619940">
        <time>2017-06-24T13:26:00Z</time>
      </trkpt>
      <trkpt lat="47.140500" lon="0.620090">
        <time>2017-06-24T13:26:01Z</time>
      </trkpt>
      <trkpt lat="47.140810" lon="0.620250">
        <time>2017-06-24T13:26:02Z</time>
      </trkpt>
      <trkpt lat="47.141090" lon="0.620380">
        <time>2017-06-24T13:26:03Z</time>
      </trkpt>
      <trkpt lat="47.141410" lon="0.620520">
        <time>2017-06-24T13:26:04Z</time>
      </trkpt>
      <trkpt lat="47.141700" lon="0.620640">
        <time>2017-06-24T13:26:05Z</time>
      </trkpt>
      <trkpt lat="47.142020" lon="0.620750">
        <time>2017-06-24T13:26:06Z</time>
      </trkpt>
      <trkpt lat="47.142350" lon="0.620870">
        <time>2017-06-24T13:26:07Z</time>
      </trkpt>
      <trkpt lat="47.142650" lon="0.620980">
        <time>2017-06-24T13:26:08Z</time>
      </trkpt>
      <trkpt lat="47.142960" lon="0.621090">
        <time>2017-06-24T13:26:09Z</time>
      </trkpt>
      <trkpt lat="47.143270" lon="0.621200">
        <time>2017-06-24T13:26:10Z</time>
      </trkpt>
      <trkpt lat="47.143580" lon="0.621310">
        <time>2017-06-24T13:26:11Z</time>
      </trkpt>
      <trkpt lat="47.143910" lon="0.621430">
        <time>2017-06-24T13:26:12Z</time>
      </trkpt>
      <trkpt lat="47.144200" lon="0.621530">
        <time>2017-06-24T13:26:13Z</time>
      </trkpt>
      <trkpt lat="47.144500" lon="0.621620">
        <time>2017-06-24T13:26:14Z</time>
      </trkpt>
      <trkpt lat="47.144830" lon="0.621720">
        <time>2017-06-24T13:26:15Z</time>
      </trkpt>
      <trkpt lat="47.145120" lon="0.621790">
        <time>2017-06-24T13:26:16Z</time>
      </trkpt>
      <trkpt lat="47.145430" lon="0.621880">
        <time>2017-06-24T13:26:17Z</time>
      </trkpt>
      <trkpt lat="47.145750" lon="0.621980">
        <time>2017-06-24T13:26:18Z</time>
      </trkpt>
      <trkpt lat="47.146040" lon="0.622070">
        <time>2017-06-24T13:26:19Z</time>
      </trkpt>
      <trkpt lat="47.146370" lon="0.622170">
        <time>2017-06-24T13:26:20Z</time>
      </trkpt>
      <trkpt lat="47.146650" lon="0.622250">
        <time>2017-06-24T13:26:21Z</time>
      </trkpt>
      <trkpt lat="47.146960" lon="0.622340">
        <time>2017-06-24T13:26:22Z</time>
      </trkpt>
      <trkpt lat="47.147280" lon="0.622430">
        <time>2017-06-24T13:26:23Z</time>
      </trkpt>
      <trkpt lat="47.147580" lon="0.622510">
        <time>2017-06-24T13:26:24Z</time>
      </trkpt>
      <trkpt lat="47.147880" lon="0.622580">
        <time>2017-06-24T13:26:25Z</time>
      </trkpt>
      <trkpt lat="47.148190" lon="0.622650">
        <time>2017-06-24T13:26:26Z</time>
      </trkpt>
      <trkpt lat="47.148500" lon="0.622730">
        <time>2017-06-24T13:26:27Z</time>
      </trkpt>
      <trkpt lat="47.148830" lon="0.622810">
        <time>2017-06-24T13:26:28Z</time>
      </trkpt>
      <trkpt lat="47.149120" lon="0.622880">
        <time>2017-06-24T13:26:29Z</time>
      </trkpt>
      <trkpt lat="47.149430" lon="0.622950">
        <time>2017-06-24T13:26:30Z</time>
      </trkpt>
      <trkpt lat="47.149760" lon="0.623020">
        <time>2017-06-24T13:26:31Z</time>
      </trkpt>
      <trkpt lat="47.150050" lon="0.623080">
        <time>2017-06-24T13:26:32Z</time>
      </trkpt>
      <trkpt lat="47.150360" lon="0.623160">
        <time>2017-06-24T13:26:33Z</time>
      </trkpt>
      <trkpt lat="47.150690" lon="0.623240">
        <time>2017-06-24T13:26:34Z</time>
      </trkpt>
      <trkpt lat="47.150990" lon="0.623310">
        <time>2017-06-24T13:26:35Z</time>
      </trkpt>
      <trkpt lat="47.151320" lon="0.623400">
        <time>2017-06-24T13:26:36Z</time>
      </trkpt>
      <trkpt lat="47.151610" lon="0.623480">
        <time>2017-06-24T13:26:37Z</time>
      </trkpt>
      <trkpt lat="47.151920" lon="0.623560">
        <time>2017-06-24T13:26:38Z</time>
      </trkpt>
      <trkpt lat="47.152260" lon="0.623650">
        <time>2017-06-24T13:26:39Z</time>
      </trkpt>
      <trkpt lat="47.152550" lon="0.623740">
        <time>2017-06-24T13:26:40Z</time>
      </trkpt>
      <trkpt lat="47.152860" lon="0.623830">
        <time>2017-06-24T13:26:41Z</time>
      </trkpt>
      <trkpt lat="47.153160" lon="0.623920">
        <time>2017-06-24T13:26:42Z</time>
      </trkpt>
      <trkpt lat="47.153460" lon="0.624010">
        <time>2017-06-24T13:26:43Z</time>
      </trkpt>
      <trkpt lat="47.153780" lon="0.624110">
        <time>2017-06-24T13:26:44Z</time>
      </trkpt>
      <trkpt lat="47.154060" lon="0.624190">
        <time>2017-06-24T13:26:45Z</time>
      </trkpt>
      <trkpt lat="47.154370" lon="0.624290">
        <time>2017-06-24T13:26:46Z</time>
      </trkpt>
      <trkpt lat="47.154700" lon="0.624400">
        <time>2017-06-24T13:26:47Z</time>
      </trkpt>
      <trkpt lat="47.154990" lon="0.624500">
        <time>2017-06-24T13:26:48Z</time>
      </trkpt>
      <trkpt lat="47.155300" lon="0.624610">
        <time>2017-06-24T13:26:49Z</time>
      </trkpt>
      <trkpt lat="47.155620" lon="0.624730">
        <time>2017-06-24T13:26:50Z</time>
      </trkpt>
      <trkpt lat="47.155910" lon="0.624850">
        <time>2017-06-24T13:26:51Z</time>
      </trkpt>
      <trkpt lat="47.156240" lon="0.624980">
        <time>2017-06-24T13:26:52Z</time>
      </trkpt>
      <trkpt lat="47.156520" lon="0.625100">
        <time>2017-06-24T13:26:53Z</time>
      </trkpt>
      <trkpt lat="47.156820" lon="0.625220">
        <time>2017-06-24T13:26:54Z</time>
      </trkpt>
      <trkpt lat="47.157140" lon="0.625360">
        <time>2017-06-24T13:26:55Z</time>
      </trkpt>
      <trkpt lat="47.157420" lon="0.625480">
        <time>2017-06-24T13:26:56Z</time>
      </trkpt>
      <trkpt lat="47.157720" lon="0.625610">
        <time>2017-06-24T13:26:57Z</time>
      </trkpt>
      <trkpt lat="47.158020" lon="0.625750">
        <time>2017-06-24T13:26:58Z</time>
      </trkpt>
      <trkpt lat="47.158320" lon="0.625890">
        <time>2017-06-24T13:26:59Z</time>
      </trkpt>
      <trkpt lat="47.158640" lon="0.626040">
        <time>2017-06-24T13:27:00Z</time>
      </trkpt>
      <trkpt lat="47.158920" lon="0.626180">
        <time>2017-06-24T13:27:01Z</time>
      </trkpt>
      <trkpt lat="47.159220" lon="0.626320">
        <time>2017-06-24T13:27:02Z</time>
      </trkpt>
      <trkpt lat="47.159530" lon="0.626490">
        <time>2017-06-24T13:27:03Z</time>
      </trkpt>
      <trkpt lat="47.159810" lon="0.626640">
        <time>2017-06-24T13:27:04Z</time>
      </trkpt>
      <trkpt lat="47.160100" lon="0.626810">
        <time>2017-06-24T13:27:05Z</time>
      </trkpt>
      <trkpt lat="47.160420" lon="0.626990">
        <time>2017-06-24T13:27:06Z</time>
      </trkpt>
      <trkpt lat="47.160700" lon="0.627140">
        <time>2017-06-24T13:27:07Z</time>
      </trkpt>
      <trkpt lat="47.161010" lon="0.627330">
        <time>2017-06-24T13:27:08Z</time>
      </trkpt>
      <trkpt lat="47.161290" lon="0.627490">
        <time>2017-06-24T13:27:09Z</time>
      </trkpt>
      <trkpt lat="47.161590" lon="0.627670">
        <time>2017-06-24T13:27:10Z</time>
      </trkpt>
      <trkpt lat="47.161920" lon="0.627860">
        <time>2017-06-24T13:27:11Z</time>
      </trkpt>
      <trkpt lat="47.162200" lon="0.628040">
        <time>2017-06-24T13:27:12Z</time>
      </trkpt>
      <trkpt lat="47.162500" lon="0.628240">
        <time>2017-06-24T13:27:13Z</time>
      </trkpt>
      <trkpt lat="47.162790" lon="0.628440">
        <time>2017-06-24T13:27:14Z</time>
      </trkpt>
      <trkpt lat="47.163080" lon="0.628640">
        <time>2017-06-24T13:27:15Z</time>
      </trkpt>
      <trkpt lat="47.163390" lon="0.628850">
        <time>2017-06-24T13:27:16Z</time>
      </trkpt>
      <trkpt lat="47.163670" lon="0.629030">
        <time>2017-06-24T13:27:17Z</time>
      </trkpt>
      <trkpt lat="47.163960" lon="0.629240">
        <time>2017-06-24T13:27:18Z</time>
      </trkpt>
      <trkpt lat="47.164260" lon="0.629450">
        <time>2017-06-24T13:27:19Z</time>
      </trkpt>
      <trkpt lat="47.164530" lon="0.629650">
        <time>2017-06-24T13:27:20Z</time>
      </trkpt>
      <trkpt lat="47.164820" lon="0.629850">
        <time>2017-06-24T13:27:21Z</time>
      </trkpt>
      <trkpt lat="47.165110" lon="0.630080">
        <time>2017-06-24T13:27:22Z</time>
      </trkpt>
      <trkpt lat="47.165380" lon="0.630290">
        <time>2017-06-24T13:27:23Z</time>
      </trkpt>
      <trkpt lat="47.165680" lon="0.630520">
        <time>2017-06-24T13:27:24Z</time>
      </trkpt>
      <trkpt lat="47.165930" lon="0.630720">
        <time>2017-06-24T13:27:25Z</time>
      </trkpt>
      <trkpt lat="47.166200" lon="0.630950">
        <time>2017-06-24T13:27:26Z</time>
      </trkpt>
      <trkpt lat="47.166490" lon="0.631180">
        <time>2017-06-24T13:27:27Z</time>
      </trkpt>
      <trkpt lat="47.166740" lon="0.631390">
        <time>2017-06-24T13:27:28Z</time>
      </trkpt>
      <trkpt lat="47.167000" lon="0.631620">
        <time>2017-06-24T13:27:29Z</time>
      </trkpt>
      <trkpt lat="47.167270" lon="0.631850">
        <time>2017-06-24T13:27:30Z</time>
      </trkpt>
      <trkpt lat="47.167540" lon="0.632070">
        <time>2017-06-24T13:27:31Z</time>
      </trkpt>
      <trkpt lat="47.167820" lon="0.632320">
        <time>2017-06-24T13:27:32Z</time>
      </trkpt>
      <trkpt lat="47.168070" lon="0.632530">
        <time>2017-06-24T13:27:33Z</time>
      </trkpt>
      <trkpt lat="47.168330" lon="0.632760">
        <time>2017-06-24T13:27:34Z</time>
      </trkpt>
      <trkpt lat="47.168610" lon="0.633000">
        <time>2017-06-24T13:27:35Z</time>
      </trkpt>
      <trkpt lat="47.168850" lon="0.633210">
        <time>2017-06-24T13:27:36Z</time>
      </trkpt>
      <trkpt lat="47.169120" lon="0.633440">
        <time>2017-06-24T13:27:37Z</time>
      </trkpt>
      <trkpt lat="47.169410" lon="0.633680">
        <time>2017-06-24T13:27:38Z</time>
      </trkpt>
      <trkpt lat="47.169660" lon="0.633890">
        <time>2017-06-24T13:27:39Z</time>
      </trkpt>
      <trkpt lat="47.169940" lon="0.634140">
        <time>2017-06-24T13:27:40Z</time>
      </trkpt>
      <trkpt lat="47.170190" lon="0.634360">
        <time>2017-06-24T13:27:41Z</time>
      </trkpt>
      <trkpt lat="47.170450" lon="0.634590">
        <time>2017-06-24T13:27:42Z</time>
      </trkpt>
      <trkpt lat="47.170730" lon="0.634840">
        <time>2017-06-24T13:27:43Z</time>
      </trkpt>
      <trkpt lat="47.170980" lon="0.635060">
        <time>2017-06-24T13:27:44Z</time>
      </trkpt>
      <trkpt lat="47.171240" lon="0.635300">
        <time>2017-06-24T13:27:45Z</time>
      </trkpt>
      <trkpt lat="47.171500" lon="0.635530">
        <time>2017-06-24T13:27:46Z</time>
      </trkpt>
      <trkpt lat="47.171770" lon="0.635760">
        <time>2017-06-24T13:27:47Z</time>
      </trkpt>
      <trkpt lat="47.172040" lon="0.636020">
        <time>2017-06-24T13:27:48Z</time>
      </trkpt>
      <trkpt lat="47.172290" lon="0.636230">
        <time>2017-06-24T13:27:49Z</time>
      </trkpt>
      <trkpt lat="47.172560" lon="0.636470">
        <time>2017-06-24T13:27:50Z</time>
      </trkpt>
      <trkpt lat="47.172840" lon="0.636710">
        <time>2017-06-24T13:27:51Z</time>
      </trkpt>
      <trkpt lat="47.173090" lon="0.636940">
        <time>2017-06-24T13:27:52Z</time>
      </trkpt>
      <trkpt lat="47.173350" lon="0.637170">
        <time>2017-06-24T13:27:53Z</time>
      </trkpt>
      <trkpt lat="47.173620" lon="0.637410">
        <time>2017-06-24T13:27:54Z</time>
      </trkpt>
      <trkpt lat="47.173860" lon="0.637610">
        <time>2017-06-24T13:27:55Z</time>
      </trkpt>
      <trkpt lat="47.174130" lon="0.637840">
        <time>2017-06-24T13:27:56Z</time>
      </trkpt>
      <trkpt lat="47.174380" lon="0.638050">
        <time>2017-06-24T13:27:57Z</time>
      </trkpt>
      <trkpt lat="47.174640" lon="0.638260">
        <time>2017-06-24T13:27:58Z</time>
      </trkpt>
      <trkpt lat="47.174930" lon="0.638490">
        <time>2017-06-24T13:27:59Z</time>
      </trkpt>
      <trkpt lat="47.175180" lon="0.638690">
        <time>2017-06-24T13:28:00Z</time>
      </trkpt>
      <trkpt lat="47.175460" lon="0.638910">
        <time>2017-06-24T13:28:01Z</time>
      </trkpt>
      <trkpt lat="47.175740" lon="0.639120">
        <time>2017-06-24T13:28:02Z</time>
      </trkpt>
      <trkpt lat="47.176020" lon="0.639340">
        <time>2017-06-24T13:28:03Z</time>
      </trkpt>
      <trkpt lat="47.176330" lon="0.639560">
        <time>2017-06-24T13:28:04Z</time>
      </trkpt>
      <trkpt lat="47.176590" lon="0.639760">
        <time>2017-06-24T13:28:05Z</time>
      </trkpt>
      <trkpt lat="47.176880" lon="0.639980">
        <time>2017-06-24T13:28:06Z</time>
      </trkpt>
      <trkpt lat="47.177190" lon="0.640200">
        <time>2017-06-24T13:28:07Z</time>
      </trkpt>
      <trkpt lat="47.177470" lon="0.640380">
        <time>2017-06-24T13:28:08Z</time>
      </trkpt>
      <trkpt lat="47.177760" lon="0.640590">
        <time>2017-06-24T13:28:09Z</time>
      </trkpt>
      <trkpt lat="47.178070" lon="0.640800">
        <time>2017-06-24T13:28:10Z</time>
      </trkpt>
      <trkpt lat="47.178340" lon="0.640980">
        <time>2017-06-24T13:28:11Z</time>
      </trkpt>
      <trkpt lat="47.178640" lon="0.641180">
        <time>2017-06-24T13:28:12Z</time>
      </trkpt>
      <trkpt lat="47.178910" lon="0.641350">
        <time>2017-06-24T13:28:13Z</time>
      </trkpt>
      <trkpt lat="47.179190" lon="0.641530">
        <time>2017-06-24T13:28:14Z</time>
      </trkpt>
      <trkpt lat="47.179480" lon="0.641710">
        <time>2017-06-24T13:28:15Z</time>
      </trkpt>
      <trkpt lat="47.179730" lon="0.641860">
        <time>2017-06-24T13:28:16Z</time>
      </trkpt>
      <trkpt lat="47.180000" lon="0.642030">
        <time>2017-06-24T13:28:17Z</time>
      </trkpt>
      <trkpt lat="47.180270" lon="0.642180">
        <time>2017-06-24T13:28:18Z</time>
      </trkpt>
      <trkpt lat="47.180540" lon="0.642330">
        <time>2017-06-24T13:28:19Z</time>
      </trkpt>
      <trkpt lat="47.180820" lon="0.642500">
        <time>2017-06-24T13:28:20Z</time>
      </trkpt>
      <trkpt lat="47.181060" lon="0.642640">
        <time>2017-06-24T13:28:21Z</time>
      </trkpt>
      <trkpt lat="47.181330" lon="0.642790">
        <time>2017-06-24T13:28:22Z</time>
      </trkpt>
      <trkpt lat="47.181620" lon="0.642950">
        <time>2017-06-24T13:28:23Z</time>
      </trkpt>
      <trkpt lat="47.181870" lon="0.643090">
        <time>2017-06-24T13:28:24Z</time>
      </trkpt>
      <trkpt lat="47.182140" lon="0.643230">
        <time>2017-06-24T13:28:25Z</time>
      </trkpt>
      <trkpt lat="47.182430" lon="0.643390">
        <time>2017-06-24T13:28:26Z</time>
      </trkpt>
      <trkpt lat="47.182680" lon="0.643530">
        <time>2017-06-24T13:28:27Z</time>
      </trkpt>
      <trkpt lat="47.182970" lon="0.643680">
        <time>2017-06-24T13:28:28Z</time>
      </trkpt>
      <trkpt lat="47.183230" lon="0.643800">
        <time>2017-06-24T13:28:29Z</time>
      </trkpt>
      <trkpt lat="47.183510" lon="0.643940">
        <time>2017-06-24T13:28:30Z</time>
      </trkpt>
      <trkpt lat="47.183800" lon="0.644080">
        <time>2017-06-24T13:28:31Z</time>
      </trkpt>
      <trkpt lat="47.184060" lon="0.644210">
        <time>2017-06-24T13:28:32Z</time>
      </trkpt>
      <trkpt lat="47.184330" lon="0.644350">
        <time>2017-06-24T13:28:33Z</time>
      </trkpt>
      <trkpt lat="47.184610" lon="0.644480">
        <time>2017-06-24T13:28:34Z</time>
      </trkpt>
      <trkpt lat="47.184870" lon="0.644610">
        <time>2017-06-24T13:28:35Z</time>
      </trkpt>
      <trkpt lat="47.185170" lon="0.644750">
        <time>2017-06-24T13:28:36Z</time>
      </trkpt>
      <trkpt lat="47.185430" lon="0.644870">
        <time>2017-06-24T13:28:37Z</time>
      </trkpt>
      <trkpt lat="47.185700" lon="0.645000">
        <time>2017-06-24T13:28:38Z</time>
      </trkpt>
      <trkpt lat="47.186000" lon="0.645140">
        <time>2017-06-24T13:28:39Z</time>
      </trkpt>
      <trkpt lat="47.186260" lon="0.645250">
        <time>2017-06-24T13:28:40Z</time>
      </trkpt>
      <trkpt lat="47.186530" lon="0.645370">
        <time>2017-06-24T13:28:41Z</time>
      </trkpt>
      <trkpt lat="47.186830" lon="0.645510">
        <time>2017-06-24T13:28:42Z</time>
      </trkpt>
      <trkpt lat="47.187090" lon="0.645620">
        <time>2017-06-24T13:28:43Z</time>
      </trkpt>
      <trkpt lat="47.187390" lon="0.645750">
        <time>2017-06-24T13:28:44Z</time>
      </trkpt>
      <trkpt lat="47.187650" lon="0.645870">
        <time>2017-06-24T13:28:45Z</time>
      </trkpt>
      <trkpt lat="47.187930" lon="0.645990">
        <time>2017-06-24T13:28:46Z</time>
      </trkpt>
      <trkpt lat="47.188230" lon="0.646120">
        <time>2017-06-24T13:28:47Z</time>
      </trkpt>
      <trkpt lat="47.188480" lon="0.646230">
        <time>2017-06-24T13:28:48Z</time>
      </trkpt>
      <trkpt lat="47.188760" lon="0.646350">
        <time>2017-06-24T13:28:49Z</time>
      </trkpt>
      <trkpt lat="47.189040" lon="0.646470">
        <time>2017-06-24T13:28:50Z</time>
      </trkpt>
      <trkpt lat="47.189320" lon="0.646590">
        <time>2017-06-24T13:28:51Z</time>
      </trkpt>
      <trkpt lat="47.189620" lon="0.646720">
        <time>2017-06-24T13:28:52Z</time>
      </trkpt>
      <trkpt lat="47.189890" lon="0.646840">
        <time>2017-06-24T13:28:53Z</time>
      </trkpt>
      <trkpt lat="47.190180" lon="0.646960">
        <time>2017-06-24T13:28:54Z</time>
      </trkpt>
      <trkpt lat="47.190480" lon="0.647100">
        <time>2017-06-24T13:28:55Z</time>
      </trkpt>
      <trkpt lat="47.190750" lon="0.647220">
        <time>2017-06-24T13:28:56Z</time>
      </trkpt>
      <trkpt lat="47.191040" lon="0.647340">
        <time>2017-06-24T13:28:57Z</time>
      </trkpt>
      <trkpt lat="47.191350" lon="0.647480">
        <time>2017-06-24T13:28:58Z</time>
      </trkpt>
      <trkpt lat="47.191620" lon="0.647600">
        <time>2017-06-24T13:28:59Z</time>
      </trkpt>
      <trkpt lat="47.191920" lon="0.647730">
        <time>2017-06-24T13:29:00Z</time>
      </trkpt>
      <trkpt lat="47.192200" lon="0.647850">
        <time>2017-06-24T13:29:01Z</time>
      </trkpt>
      <trkpt lat="47.192480" lon="0.647970">
        <time>2017-06-24T13:29:02Z</time>
      </trkpt>
      <trkpt lat="47.192800" lon="0.648100">
        <time>2017-06-24T13:29:03Z</time>
      </trkpt>
      <trkpt lat="47.193070" lon="0.648220">
        <time>2017-06-24T13:29:04Z</time>
      </trkpt>
      <trkpt lat="47.193360" lon="0.648340">
        <time>2017-06-24T13:29:05Z</time>
      </trkpt>
      <trkpt lat="47.193660" lon="0.648470">
        <time>2017-06-24T13:29:06Z</time>
      </trkpt>
      <trkpt lat="47.193960" lon="0.648600">
        <time>2017-06-24T13:29:07Z</time>
      </trkpt>
      <trkpt lat="47.194270" lon="0.648740">
        <time>2017-06-24T13:29:08Z</time>
      </trkpt>
      <trkpt lat="47.194560" lon="0.648870">
        <time>2017-06-24T13:29:09Z</time>
      </trkpt>
      <trkpt lat="47.194860" lon="0.649000">
        <time>2017-06-24T13:29:10Z</time>
      </trkpt>
      <trkpt lat="47.195180" lon="0.649140">
        <time>2017-06-24T13:29:11Z</time>
      </trkpt>
      <trkpt lat="47.195470" lon="0.649270">
        <time>2017-06-24T13:29:12Z</time>
      </trkpt>
      <trkpt lat="47.195780" lon="0.649400">
        <time>2017-06-24T13:29:13Z</time>
      </trkpt>
      <trkpt lat="47.196110" lon="0.649540">
        <time>2017-06-24T13:29:14Z</time>
      </trkpt>
      <trkpt lat="47.196400" lon="0.649660">
        <time>2017-06-24T13:29:15Z</time>
      </trkpt>
      <trkpt lat="47.196730" lon="0.649810">
        <time>2017-06-24T13:29:16Z</time>
      </trkpt>
      <trkpt lat="47.197020" lon="0.649930">
        <time>2017-06-24T13:29:17Z</time>
      </trkpt>
      <trkpt lat="47.197330" lon="0.650070">
        <time>2017-06-24T13:29:18Z</time>
      </trkpt>
      <trkpt lat="47.197660" lon="0.650210">
        <time>2017-06-24T13:29:19Z</time>
      </trkpt>
      <trkpt lat="47.197940" lon="0.650330">
        <time>2017-06-24T13:29:20Z</time>
      </trkpt>
      <trkpt lat="47.198240" lon="0.650470">
        <time>2017-06-24T13:29:21Z</time>
      </trkpt>
      <trkpt lat="47.198540" lon="0.650600">
        <time>2017-06-24T13:29:22Z</time>
      </trkpt>
      <trkpt lat="47.198840" lon="0.650740">
        <time>2017-06-24T13:29:23Z</time>
      </trkpt>
      <trkpt lat="47.199160" lon="0.650880">
        <time>2017-06-24T13:29:24Z</time>
      </trkpt>
      <trkpt lat="47.199440" lon="0.651000">
        <time>2017-06-24T13:29:25Z</time>
      </trkpt>
      <trkpt lat="47.199740" lon="0.651130">
        <time>2017-06-24T13:29:26Z</time>
      </trkpt>
      <trkpt lat="47.200060" lon="0.651260">
        <time>2017-06-24T13:29:27Z</time>
      </trkpt>
      <trkpt lat="47.200330" lon="0.651380">
        <time>2017-06-24T13:29:28Z</time>
      </trkpt>
      <trkpt lat="47.200620" lon="0.651500">
        <time>2017-06-24T13:29:29Z</time>
      </trkpt>
      <trkpt lat="47.200930" lon="0.651640">
        <time>2017-06-24T13:29:30Z</time>
      </trkpt>
      <trkpt lat="47.201200" lon="0.651750">
        <time>2017-06-24T13:29:31Z</time>
      </trkpt>
      <trkpt lat="47.201500" lon="0.651880">
        <time>2017-06-24T13:29:32Z</time>
      </trkpt>
      <trkpt lat="47.201760" lon="0.651990">
        <time>2017-06-24T13:29:33Z</time>
      </trkpt>
      <trkpt lat="47.202040" lon="0.652120">
        <time>2017-06-24T13:29:34Z</time>
      </trkpt>
      <trkpt lat="47.202330" lon="0.652250">
        <time>2017-06-24T13:29:35Z</time>
      </trkpt>
      <trkpt lat="47.202590" lon="0.652360">
        <time>2017-06-24T13:29:36Z</time>
      </trkpt>
      <trkpt lat="47.202870" lon="0.652490">
        <time>2017-06-24T13:29:37Z</time>
      </trkpt>
      <trkpt lat="47.203150" lon="0.652610">
        <time>2017-06-24T13:29:38Z</time>
      </trkpt>
      <trkpt lat="47.203430" lon="0.652730">
        <time>2017-06-24T13:29:39Z</time>
      </trkpt>
      <trkpt lat="47.203730" lon="0.652860">
        <time>2017-06-24T13:29:40Z</time>
      </trkpt>
      <trkpt lat="47.203990" lon="0.652970">
        <time>2017-06-24T13:29:41Z</time>
      </trkpt>
      <trkpt lat="47.204270" lon="0.653090">
        <time>2017-06-24T13:29:42Z</time>
      </trkpt>
      <trkpt lat="47.204580" lon="0.653230">
        <time>2017-06-24T13:29:43Z</time>
      </trkpt>
      <trkpt lat="47.204840" lon="0.653350">
        <time>2017-06-24T13:29:44Z</time>
      </trkpt>
      <trkpt lat="47.205120" lon="0.653470">
        <time>2017-06-24T13:29:45Z</time>
      </trkpt>
      <trkpt lat="47.205420" lon="0.653600">
        <time>2017-06-24T13:29:46Z</time>
      </trkpt>
      <trkpt lat="47.205690" lon="0.653720">
        <time>2017-06-24T13:29:47Z</time>
      </trkpt>
      <trkpt lat="47.206000" lon="0.653850">
        <time>2017-06-24T13:29:48Z</time>
      </trkpt>
      <trkpt lat="47.206270" lon="0.653970">
        <time>2017-06-24T13:29:49Z</time>
      </trkpt>
      <trkpt lat="47.206560" lon="0.654090">
        <time>2017-06-24T13:29:50Z</time>
      </trkpt>
      <trkpt lat="47.206860" lon="0.654230">
        <time>2017-06-24T13:29:51Z</time>
      </trkpt>
      <trkpt lat="47.207130" lon="0.654340">
        <time>2017-06-24T13:29:52Z</time>
      </trkpt>
      <trkpt lat="47.207400" lon="0.654460">
        <time>2017-06-24T13:29:53Z</time>
      </trkpt>
      <trkpt lat="47.207680" lon="0.654580">
        <time>2017-06-24T13:29:54Z</time>
      </trkpt>
      <trkpt lat="47.207960" lon="0.654700">
        <time>2017-06-24T13:29:55Z</time>
      </trkpt>
      <trkpt lat="47.208250" lon="0.654820">
        <time>2017-06-24T13:29:56Z</time>
      </trkpt>
      <trkpt lat="47.208500" lon="0.654920">
        <time>2017-06-24T13:29:57Z</time>
      </trkpt>
      <trkpt lat="47.208770" lon="0.655030">
        <time>2017-06-24T13:29:58Z</time>
      </trkpt>
      <trkpt lat="47.209040" lon="0.655130">
        <time>2017-06-24T13:29:59Z</time>
      </trkpt>
      <trkpt lat="47.209270" lon="0.655220">
        <time>2017-06-24T13:30:00Z</time>
      </trkpt>
      <trkpt lat="47.209520" lon="0.655310">
        <time>2017-06-24T13:30:01Z</time>
      </trkpt>
      <trkpt lat="47.209790" lon="0.655420">
        <time>2017-06-24T13:30:02Z</time>
      </trkpt>
      <trkpt lat="47.210040" lon="0.655510">
        <time>2017-06-24T13:30:03Z</time>
      </trkpt>
      <trkpt lat="47.210310" lon="0.655620">
        <time>2017-06-24T13:30:04Z</time>
      </trkpt>
      <trkpt lat="47.210550" lon="0.655700">
        <time>2017-06-24T13:30:05Z</time>
      </trkpt>
      <trkpt lat="47.210810" lon="0.655790">
        <time>2017-06-24T13:30:06Z</time>
      </trkpt>
      <trkpt lat="47.211080" lon="0.655890">
        <time>2017-06-24T13:30:07Z</time>
      </trkpt>
      <trkpt lat="47.211310" lon="0.655970">
        <time>2017-06-24T13:30:08Z</time>
      </trkpt>
      <trkpt lat="47.211550" lon="0.656050">
        <time>2017-06-24T13:30:09Z</time>
      </trkpt>
      <trkpt lat="47.211790" lon="0.656120">
        <time>2017-06-24T13:30:10Z</time>
      </trkpt>
      <trkpt lat="47.212020" lon="0.656190">
        <time>2017-06-24T13:30:11Z</time>
      </trkpt>
      <trkpt lat="47.212260" lon="0.656270">
        <time>2017-06-24T13:30:12Z</time>
      </trkpt>
      <trkpt lat="47.212470" lon="0.656330">
        <time>2017-06-24T13:30:13Z</time>
      </trkpt>
      <trkpt lat="47.212680" lon="0.656390">
        <time>2017-06-24T13:30:14Z</time>
      </trkpt>
      <trkpt lat="47.212910" lon="0.656460">
        <time>2017-06-24T13:30:15Z</time>
      </trkpt>
      <trkpt lat="47.213100" lon="0.656510">
        <time>2017-06-24T13:30:16Z</time>
      </trkpt>
      <trkpt lat="47.213300" lon="0.656570">
        <time>2017-06-24T13:30:17Z</time>
      </trkpt>
      <trkpt lat="47.213520" lon="0.656640">
        <time>2017-06-24T13:30:18Z</time>
      </trkpt>
      <trkpt lat="47.213690" lon="0.656680">
        <time>2017-06-24T13:30:19Z</time>
      </trkpt>
      <trkpt lat="47.213890" lon="0.656740">
        <time>2017-06-24T13:30:20Z</time>
      </trkpt>
      <trkpt lat="47.214060" lon="0.656780">
        <time>2017-06-24T13:30:21Z</time>
      </trkpt>
      <trkpt lat="47.214250" lon="0.656830">
        <time>2017-06-24T13:30:22Z</time>
      </trkpt>
      <trkpt lat="47.214450" lon="0.656870">
        <time>2017-06-24T13:30:23Z</time>
      </trkpt>
      <trkpt lat="47.214620" lon="0.656920">
        <time>2017-06-24T13:30:24Z</time>
      </trkpt>
      <trkpt lat="47.214790" lon="0.656960">
        <time>2017-06-24T13:30:25Z</time>
      </trkpt>
      <trkpt lat="47.214960" lon="0.657000">
        <time>2017-06-24T13:30:26Z</time>
      </trkpt>
      <trkpt lat="47.215130" lon="0.657040">
        <time>2017-06-24T13:30:27Z</time>
      </trkpt>
      <trkpt lat="47.215300" lon="0.657090">
        <time>2017-06-24T13:30:28Z</time>
      </trkpt>
      <trkpt lat="47.215460" lon="0.657130">
        <time>2017-06-24T13:30:29Z</time>
      </trkpt>
      <trkpt lat="47.215630" lon="0.657170">
        <time>2017-06-24T13:30:30Z</time>
      </trkpt>
      <trkpt lat="47.215800" lon="0.657210">
        <time>2017-06-24T13:30:31Z</time>
      </trkpt>
      <trkpt lat="47.215940" lon="0.657260">
        <time>2017-06-24T13:30:32Z</time>
      </trkpt>
      <trkpt lat="47.216090" lon="0.657310">
        <time>2017-06-24T13:30:33Z</time>
      </trkpt>
      <trkpt lat="47.216250" lon="0.657360">
        <time>2017-06-24T13:30:34Z</time>
      </trkpt>
      <trkpt lat="47.216390" lon="0.657400">
        <time>2017-06-24T13:30:35Z</time>
      </trkpt>
      <trkpt lat="47.216540" lon="0.657450">
        <time>2017-06-24T13:30:36Z</time>
      </trkpt>
      <trkpt lat="47.216670" lon="0.657480">
        <time>2017-06-24T13:30:37Z</time>
      </trkpt>
      <trkpt lat="47.216790" lon="0.657530">
        <time>2017-06-24T13:30:38Z</time>
      </trkpt>
      <trkpt lat="47.216920" lon="0.657570">
        <time>2017-06-24T13:30:39Z</time>
      </trkpt>
      <trkpt lat="47.217030" lon="0.657620">
        <time>2017-06-24T13:30:40Z</time>
      </trkpt>
      <trkpt lat="47.217150" lon="0.657650">
        <time>2017-06-24T13:30:41Z</time>
      </trkpt>
      <trkpt lat="47.217260" lon="0.657690">
        <time>2017-06-24T13:30:42Z</time>
      </trkpt>
      <trkpt lat="47.217370" lon="0.657720">
        <time>2017-06-24T13:30:43Z</time>
      </trkpt>
      <trkpt lat="47.217480" lon="0.657750">
        <time>2017-06-24T13:30:44Z</time>
      </trkpt>
      <trkpt lat="47.217570" lon="0.657780">
        <time>2017-06-24T13:30:45Z</time>
      </trkpt>
      <trkpt lat="47.217660" lon="0.657800">
        <time>2017-06-24T13:30:46Z</time>
      </trkpt>
      <trkpt lat="47.217750" lon="0.657820">
        <time>2017-06-24T13:30:47Z</time>
      </trkpt>
      <trkpt lat="47.217820" lon="0.657840">
        <time>2017-06-24T13:30:48Z</time>
      </trkpt>
      <trkpt lat="47.217900" lon="0.657850">
        <time>2017-06-24T13:30:49Z</time>
      </trkpt>
      <trkpt lat="47.217970" lon="0.657860">
        <time>2017-06-24T13:30:50Z</time>
      </trkpt>
      <trkpt lat="47.218020" lon="0.657870">
        <time>2017-06-24T13:30:51Z</time>
      </trkpt>
      <trkpt lat="47.218080" lon="0.657880">
        <time>2017-06-24T13:30:52Z</time>
      </trkpt>
      <trkpt lat="47.218120" lon="0.657890">
        <time>2017-06-24T13:30:53Z</time>
      </trkpt>
      <trkpt lat="47.218160" lon="0.657890">
        <time>2017-06-24T13:30:54Z</time>
      </trkpt>
      <trkpt lat="47.218190" lon="0.657900">
        <time>2017-06-24T13:30:55Z</time>
      </trkpt>
      <trkpt lat="47.218220" lon="0.657900">
        <time>2017-06-24T13:30:56Z</time>
      </trkpt>
      <trkpt lat="47.218240" lon="0.657910">
        <time>2017-06-24T13:30:57Z</time>
      </trkpt>
      <trkpt lat="47.218260" lon="0.657900">
        <time>2017-06-24T13:30:58Z</time>
      </trkpt>
      <trkpt lat="47.218290" lon="0.657910">
        <time>2017-06-24T13:30:59Z</time>
      </trkpt>
      <trkpt lat="47.218310" lon="0.657910">
        <time>2017-06-24T13:31:00Z</time>
      </trkpt>
      <trkpt lat="47.218320" lon="0.657910">
        <time>2017-06-24T13:31:01Z</time>
      </trkpt>
      <trkpt lat="47.218320" lon="0.657920">
        <time>2017-06-24T13:31:02Z</time>
      </trkpt>
      <trkpt lat="47.218320" lon="0.657920">
        <time>2017-06-24T13:31:03Z</time>
      </trkpt>
      <trkpt lat="47.218320" lon="0.657920">
        <time>2017-06-24T13:31:04Z</time>
      </trkpt>
      <trkpt lat="47.218320" lon="0.657920">
        <time>2017-06-24T13:31:05Z</time>
      </trkpt>
      <trkpt lat="47.218320" lon="0.657920">
        <time>2017-06-24T13:31:06Z</time>
      </trkpt>
      <trkpt lat="47.218320" lon="0.657920">
        <time>2017-06-24T13:31:07Z</time>
      </trkpt>
      <trkpt lat="47.218320" lon="0.657920">
        <time>2017-06-24T13:31:08Z</time>
      </trkpt>
      <trkpt lat="47.218320" lon="0.657920">
        <time>2017-06-24T13:31:09Z</time>
      </trkpt>
      <trkpt lat="47.218320" lon="0.657920">
        <time>2017-06-24T13:31:10Z</time>
      </trkpt>
      <trkpt lat="47.218320" lon="0.657920">
        <time>2017-06-24T13:31:11Z</time>
      </trkpt>
      <trkpt lat="47.218320" lon="0.657920">
        <time>2017-06-24T13:31:12Z</time>
      </trkpt>
      <trkpt lat="47.218320" lon="0.657920">
        <time>2017-06-24T13:31:13Z</time>
      </trkpt>
      <trkpt lat="47.218320" lon="0.657930">
        <time>2017-06-24T13:31:14Z</time>
      </trkpt>
      <trkpt lat="47.218320" lon="0.657920">
        <time>2017-06-24T13:31:15Z</time>
      </trkpt>
      <trkpt lat="47.218320" lon="0.657920">
        <time>2017-06-24T13:31:16Z</time>
      </trkpt>
      <trkpt lat="47.218320" lon="0.657920">
        <time>2017-06-24T13:31:17Z</time>
      </trkpt>
      <trkpt lat="47.218320" lon="0.657920">
        <time>2017-06-24T13:31:18Z</time>
      </trkpt>
      <trkpt lat="47.218320" lon="0.657920">
        <time>2017-06-24T13:31:19Z</time>
      </trkpt>
      <trkpt lat="47.218320" lon="0.657920">
        <time>2017-06-24T13:31:20Z</time>
      </trkpt>
      <trkpt lat="47.218320" lon="0.657920">
        <time>2017-06-24T13:31:21Z</time>
      </trkpt>
      <trkpt lat="47.218320" lon="0.657920">
        <time>2017-06-24T13:31:22Z</time>
      </trkpt>
      <trkpt lat="47.218320" lon="0.657920">
        <time>2017-06-24T13:31:23Z</time>
      </trkpt>
      <trkpt lat="47.218320" lon="0.657920">
        <time>2017-06-24T13:31:24Z</time>
      </trkpt>
      <trkpt lat="47.218320" lon="0.657920">
        <time>2017-06-24T13:31:25Z</time>
      </trkpt>
      <trkpt lat="47.218320" lon="0.657920">
        <time>2017-06-24T13:31:26Z</time>
      </trkpt>
      <trkpt lat="47.218320" lon="0.657920">
        <time>2017-06-24T13:31:27Z</time>
      </trkpt>
      <trkpt lat="47.218320" lon="0.657920">
        <time>2017-06-24T13:31:28Z</time>
      </trkpt>
      <trkpt lat="47.218320" lon="0.657920">
        <time>2017-06-24T13:31:29Z</time>
      </trkpt>
      <trkpt lat="47.218320" lon="0.657920">
        <time>2017-06-24T13:31:30Z</time>
      </trkpt>
      <trkpt lat="47.218320" lon="0.657920">
        <time>2017-06-24T13:31:31Z</time>
      </trkpt>
      <trkpt lat="47.218320" lon="0.657920">
        <time>2017-06-24T13:31:32Z</time>
      </trkpt>
      <trkpt lat="47.218320" lon="0.657920">
        <time>2017-06-24T13:31:33Z</time>
      </trkpt>
      <trkpt lat="47.218320" lon="0.657920">
        <time>2017-06-24T13:31:34Z</time>
      </trkpt>
      <trkpt lat="47.218320" lon="0.657920">
        <time>2017-06-24T13:31:35Z</time>
      </trkpt>
      <trkpt lat="47.218320" lon="0.657920">
        <time>2017-06-24T13:31:36Z</time>
      </trkpt>
      <trkpt lat="47.218320" lon="0.657920">
        <time>2017-06-24T13:31:37Z</time>
      </trkpt>
      <trkpt lat="47.218320" lon="0.657920">
        <time>2017-06-24T13:31:38Z</time>
      </trkpt>
      <trkpt lat="47.218320" lon="0.657920">
        <time>2017-06-24T13:31:39Z</time>
      </trkpt>
      <trkpt lat="47.218320" lon="0.657920">
        <time>2017-06-24T13:31:40Z</time>
      </trkpt>
      <trkpt lat="47.218320" lon="0.657920">
        <time>2017-06-24T13:31:41Z</time>
      </trkpt>
      <trkpt lat="47.218320" lon="0.657920">
        <time>2017-06-24T13:31:42Z</time>
      </trkpt>
      <trkpt lat="47.218320" lon="0.657920">
        <time>2017-06-24T13:31:43Z</time>
      </trkpt>
      <trkpt lat="47.218320" lon="0.657920">
        <time>2017-06-24T13:31:44Z</time>
      </trkpt>
      <trkpt lat="47.218320" lon="0.657920">
        <time>2017-06-24T13:31:45Z</time>
      </trkpt>
      <trkpt lat="47.218320" lon="0.657910">
        <time>2017-06-24T13:31:46Z</time>
      </trkpt>
      <trkpt lat="47.218320" lon="0.657910">
        <time>2017-06-24T13:31:47Z</time>
      </trkpt>
      <trkpt lat="47.218320" lon="0.657910">
        <time>2017-06-24T13:31:48Z</time>
      </trkpt>
      <trkpt lat="47.218320" lon="0.657910">
        <time>2017-06-24T13:31:49Z</time>
      </trkpt>
      <trkpt lat="47.218320" lon="0.657910">
        <time>2017-06-24T13:31:50Z</time>
      </trkpt>
      <trkpt lat="47.218320" lon="0.657910">
        <time>2017-06-24T13:31:51Z</time>
      </trkpt>
      <trkpt lat="47.218320" lon="0.657910">
        <time>2017-06-24T13:31:52Z</time>
      </trkpt>
      <trkpt lat="47.218320" lon="0.657910">
        <time>2017-06-24T13:31:53Z</time>
      </trkpt>
      <trkpt lat="47.218320" lon="0.657900">
        <time>2017-06-24T13:31:54Z</time>
      </trkpt>
      <trkpt lat="47.218320" lon="0.657900">
        <time>2017-06-24T13:31:55Z</time>
      </trkpt>
      <trkpt lat="47.218320" lon="0.657900">
        <time>2017-06-24T13:31:56Z</time>
      </trkpt>
      <trkpt lat="47.218320" lon="0.657900">
        <time>2017-06-24T13:31:57Z</time>
      </trkpt>
      <trkpt lat="47.218330" lon="0.657900">
        <time>2017-06-24T13:31:58Z</time>
      </trkpt>
      <trkpt lat="47.218340" lon="0.657900">
        <time>2017-06-24T13:31:59Z</time>
      </trkpt>
      <trkpt lat="47.218340" lon="0.657910">
        <time>2017-06-24T13:32:00Z</time>
      </trkpt>
      <trkpt lat="47.218350" lon="0.657910">
        <time>2017-06-24T13:32:01Z</time>
      </trkpt>
      <trkpt lat="47.218360" lon="0.657910">
        <time>2017-06-24T13:32:02Z</time>
      </trkpt>
      <trkpt lat="47.218370" lon="0.657910">
        <time>2017-06-24T13:32:03Z</time>
      </trkpt>
      <trkpt lat="47.218370" lon="0.657910">
        <time>2017-06-24T13:32:04Z</time>
      </trkpt>
      <trkpt lat="47.218370" lon="0.657910">
        <time>2017-06-24T13:32:05Z</time>
      </trkpt>
      <trkpt lat="47.218370" lon="0.657910">
        <time>2017-06-24T13:32:06Z</time>
      </trkpt>
      <trkpt lat="47.218370" lon="0.657910">
        <time>2017-06-24T13:32:07Z</time>
      </trkpt>
      <trkpt lat="47.218370" lon="0.657910">
        <time>2017-06-24T13:32:08Z</time>
      </trkpt>
      <trkpt lat="47.218370" lon="0.657910">
        <time>2017-06-24T13:32:09Z</time>
      </trkpt>
      <trkpt lat="47.218370" lon="0.657910">
        <time>2017-06-24T13:32:10Z</time>
      </trkpt>
      <trkpt lat="47.218370" lon="0.657910">
        <time>2017-06-24T13:32:11Z</time>
      </trkpt>
      <trkpt lat="47.218370" lon="0.657910">
        <time>2017-06-24T13:32:12Z</time>
      </trkpt>
      <trkpt lat="47.218370" lon="0.657910">
        <time>2017-06-24T13:32:13Z</time>
      </trkpt>
      <trkpt lat="47.218370" lon="0.657910">
        <time>2017-06-24T13:32:14Z</time>
      </trkpt>
      <trkpt lat="47.218370" lon="0.657910">
        <time>2017-06-24T13:32:15Z</time>
      </trkpt>
      <trkpt lat="47.218370" lon="0.657910">
        <time>2017-06-24T13:32:16Z</time>
      </trkpt>
      <trkpt lat="47.218370" lon="0.657910">
        <time>2017-06-24T13:32:17Z</time>
      </trkpt>
      <trkpt lat="47.218370" lon="0.657910">
        <time>2017-06-24T13:32:18Z</time>
      </trkpt>
      <trkpt lat="47.218370" lon="0.657910">
        <time>2017-06-24T13:32:19Z</time>
      </trkpt>
      <trkpt lat="47.218370" lon="0.657910">
        <time>2017-06-24T13:32:20Z</time>
      </trkpt>
      <trkpt lat="47.218370" lon="0.657910">
        <time>2017-06-24T13:32:21Z</time>
      </trkpt>
      <trkpt lat="47.218370" lon="0.657910">
        <time>2017-06-24T13:32:22Z</time>
      </trkpt>
      <trkpt lat="47.218370" lon="0.657910">
        <time>2017-06-24T13:32:23Z</time>
      </trkpt>
      <trkpt lat="47.218370" lon="0.657910">
        <time>2017-06-24T13:32:24Z</time>
      </trkpt>
      <trkpt lat="47.218370" lon="0.657910">
        <time>2017-06-24T13:32:25Z</time>
      </trkpt>
      <trkpt lat="47.218370" lon="0.657910">
        <time>2017-06-24T13:32:26Z</time>
      </trkpt>
      <trkpt lat="47.218370" lon="0.657910">
        <time>2017-06-24T13:32:27Z</time>
      </trkpt>
      <trkpt lat="47.218370" lon="0.657910">
        <time>2017-06-24T13:32:28Z</time>
      </trkpt>
      <trkpt lat="47.218370" lon="0.657910">
        <time>2017-06-24T13:32:29Z</time>
      </trkpt>
      <trkpt lat="47.218370" lon="0.657910">
        <time>2017-06-24T13:32:30Z</time>
      </trkpt>
      <trkpt lat="47.218370" lon="0.657910">
        <time>2017-06-24T13:32:31Z</time>
      </trkpt>
      <trkpt lat="47.218370" lon="0.657910">
        <time>2017-06-24T13:32:32Z</time>
      </trkpt>
      <trkpt lat="47.218370" lon="0.657910">
        <time>2017-06-24T13:32:33Z</time>
      </trkpt>
      <trkpt lat="47.218380" lon="0.657910">
        <time>2017-06-24T13:32:34Z</time>
      </trkpt>
      <trkpt lat="47.218390" lon="0.657920">
        <time>2017-06-24T13:32:35Z</time>
      </trkpt>
      <trkpt lat="47.218410" lon="0.657920">
        <time>2017-06-24T13:32:36Z</time>
      </trkpt>
      <trkpt lat="47.218410" lon="0.657920">
        <time>2017-06-24T13:32:37Z</time>
      </trkpt>
      <trkpt lat="47.218410" lon="0.657920">
        <time>2017-06-24T13:32:38Z</time>
      </trkpt>
      <trkpt lat="47.218410" lon="0.657920">
        <time>2017-06-24T13:32:39Z</time>
      </trkpt>
      <trkpt lat="47.218410" lon="0.657920">
        <time>2017-06-24T13:32:40Z</time>
      </trkpt>
      <trkpt lat="47.218410" lon="0.657920">
        <time>2017-06-24T13:32:41Z</time>
      </trkpt>
      <trkpt lat="47.218410" lon="0.657920">
        <time>2017-06-24T13:32:42Z</time>
      </trkpt>
      <trkpt lat="47.218410" lon="0.657920">
        <time>2017-06-24T13:32:43Z</time>
      </trkpt>
      <trkpt lat="47.218410" lon="0.657920">
        <time>2017-06-24T13:32:44Z</time>
      </trkpt>
      <trkpt lat="47.218410" lon="0.657920">
        <time>2017-06-24T13:32:45Z</time>
      </trkpt>
      <trkpt lat="47.218410" lon="0.657920">
        <time>2017-06-24T13:32:46Z</time>
      </trkpt>
      <trkpt lat="47.218410" lon="0.657920">
        <time>2017-06-24T13:32:47Z</time>
      </trkpt>
      <trkpt lat="47.218410" lon="0.657920">
        <time>2017-06-24T13:32:48Z</time>
      </trkpt>
      <trkpt lat="47.218410" lon="0.657920">
        <time>2017-06-24T13:32:49Z</time>
      </trkpt>
      <trkpt lat="47.218410" lon="0.657920">
        <time>2017-06-24T13:32:50Z</time>
      </trkpt>
      <trkpt lat="47.218410" lon="0.657920">
        <time>2017-06-24T13:32:51Z</time>
      </trkpt>
      <trkpt lat="47.218410" lon="0.657920">
        <time>2017-06-24T13:32:52Z</time>
      </trkpt>
      <trkpt lat="47.218410" lon="0.657920">
        <time>2017-06-24T13:32:53Z</time>
      </trkpt>
      <trkpt lat="47.218410" lon="0.657920">
        <time>2017-06-24T13:32:54Z</time>
      </trkpt>
      <trkpt lat="47.218410" lon="0.657920">
        <time>2017-06-24T13:32:55Z</time>
      </trkpt>
      <trkpt lat="47.218410" lon="0.657920">
        <time>2017-06-24T13:32:56Z</time>
      </trkpt>
      <trkpt lat="47.218410" lon="0.657920">
        <time>2017-06-24T13:32:57Z</time>
      </trkpt>
      <trkpt lat="47.218410" lon="0.657930">
        <time>2017-06-24T13:32:58Z</time>
      </trkpt>
      <trkpt lat="47.218410" lon="0.657930">
        <time>2017-06-24T13:32:59Z</time>
      </trkpt>
      <trkpt lat="47.218420" lon="0.657930">
        <time>2017-06-24T13:33:00Z</time>
      </trkpt>
      <trkpt lat="47.218420" lon="0.657940">
        <time>2017-06-24T13:33:01Z</time>
      </trkpt>
      <trkpt lat="47.218430" lon="0.657940">
        <time>2017-06-24T13:33:02Z</time>
      </trkpt>
      <trkpt lat="47.218430" lon="0.657940">
        <time>2017-06-24T13:33:03Z</time>
      </trkpt>
      <trkpt lat="47.218430" lon="0.657940">
        <time>2017-06-24T13:33:04Z</time>
      </trkpt>
      <trkpt lat="47.218430" lon="0.657940">
        <time>2017-06-24T13:33:05Z</time>
      </trkpt>
      <trkpt lat="47.218430" lon="0.657940">
        <time>2017-06-24T13:33:06Z</time>
      </trkpt>
      <trkpt lat="47.218430" lon="0.657940">
        <time>2017-06-24T13:33:07Z</time>
      </trkpt>
      <trkpt lat="47.218430" lon="0.657940">
        <time>2017-06-24T13:33:08Z</time>
      </trkpt>
      <trkpt lat="47.218430" lon="0.657940">
        <time>2017-06-24T13:33:09Z</time>
      </trkpt>
      <trkpt lat="47.218430" lon="0.657940">
        <time>2017-06-24T13:33:10Z</time>
      </trkpt>
      <trkpt lat="47.218430" lon="0.657940">
        <time>2017-06-24T13:33:11Z</time>
      </trkpt>
      <trkpt lat="47.218430" lon="0.657940">
        <time>2017-06-24T13:33:12Z</time>
      </trkpt>
      <trkpt lat="47.218430" lon="0.657940">
        <time>2017-06-24T13:33:13Z</time>
      </trkpt>
      <trkpt lat="47.218430" lon="0.657940">
        <time>2017-06-24T13:33:14Z</time>
      </trkpt>
      <trkpt lat="47.218430" lon="0.657940">
        <time>2017-06-24T13:33:15Z</time>
      </trkpt>
      <trkpt lat="47.218430" lon="0.657940">
        <time>2017-06-24T13:33:16Z</time>
      </trkpt>
      <trkpt lat="47.218430" lon="0.657940">
        <time>2017-06-24T13:33:17Z</time>
      </trkpt>
      <trkpt lat="47.218430" lon="0.657940">
        <time>2017-06-24T13:33:18Z</time>
      </trkpt>
      <trkpt lat="47.218430" lon="0.657940">
        <time>2017-06-24T13:33:19Z</time>
      </trkpt>
      <trkpt lat="47.218430" lon="0.657950">
        <time>2017-06-24T13:33:20Z</time>
      </trkpt>
      <trkpt lat="47.218440" lon="0.657960">
        <time>2017-06-24T13:33:21Z</time>
      </trkpt>
      <trkpt lat="47.218440" lon="0.657960">
        <time>2017-06-24T13:33:22Z</time>
      </trkpt>
      <trkpt lat="47.218450" lon="0.657960">
        <time>2017-06-24T13:33:23Z</time>
      </trkpt>
      <trkpt lat="47.218460" lon="0.657960">
        <time>2017-06-24T13:33:24Z</time>
      </trkpt>
      <trkpt lat="47.218470" lon="0.657960">
        <time>2017-06-24T13:33:25Z</time>
      </trkpt>
      <trkpt lat="47.218480" lon="0.657960">
        <time>2017-06-24T13:33:26Z</time>
      </trkpt>
      <trkpt lat="47.218480" lon="0.657960">
        <time>2017-06-24T13:33:27Z</time>
      </trkpt>
      <trkpt lat="47.218480" lon="0.657960">
        <time>2017-06-24T13:33:28Z</time>
      </trkpt>
      <trkpt lat="47.218480" lon="0.657960">
        <time>2017-06-24T13:33:29Z</time>
      </trkpt>
      <trkpt lat="47.218480" lon="0.657960">
        <time>2017-06-24T13:33:30Z</time>
      </trkpt>
      <trkpt lat="47.218480" lon="0.657960">
        <time>2017-06-24T13:33:31Z</time>
      </trkpt>
      <trkpt lat="47.218480" lon="0.657960">
        <time>2017-06-24T13:33:32Z</time>
      </trkpt>
      <trkpt lat="47.218480" lon="0.657960">
        <time>2017-06-24T13:33:33Z</time>
      </trkpt>
      <trkpt lat="47.218480" lon="0.657960">
        <time>2017-06-24T13:33:34Z</time>
      </trkpt>
      <trkpt lat="47.218480" lon="0.657960">
        <time>2017-06-24T13:33:35Z</time>
      </trkpt>
      <trkpt lat="47.218480" lon="0.657960">
        <time>2017-06-24T13:33:36Z</time>
      </trkpt>
      <trkpt lat="47.218480" lon="0.657960">
        <time>2017-06-24T13:33:37Z</time>
      </trkpt>
      <trkpt lat="47.218480" lon="0.657960">
        <time>2017-06-24T13:33:38Z</time>
      </trkpt>
      <trkpt lat="47.218480" lon="0.657960">
        <time>2017-06-24T13:33:39Z</time>
      </trkpt>
      <trkpt lat="47.218480" lon="0.657960">
        <time>2017-06-24T13:33:40Z</time>
      </trkpt>
      <trkpt lat="47.218480" lon="0.657960">
        <time>2017-06-24T13:33:41Z</time>
      </trkpt>
      <trkpt lat="47.218480" lon="0.657960">
        <time>2017-06-24T13:33:42Z</time>
      </trkpt>
      <trkpt lat="47.218480" lon="0.657960">
        <time>2017-06-24T13:33:43Z</time>
      </trkpt>
      <trkpt lat="47.218480" lon="0.657960">
        <time>2017-06-24T13:33:44Z</time>
      </trkpt>
      <trkpt lat="47.218480" lon="0.657960">
        <time>2017-06-24T13:33:45Z</time>
      </trkpt>
      <trkpt lat="47.218480" lon="0.657960">
        <time>2017-06-24T13:33:46Z</time>
      </trkpt>
      <trkpt lat="47.218480" lon="0.657960">
        <time>2017-06-24T13:33:47Z</time>
      </trkpt>
      <trkpt lat="47.218480" lon="0.657960">
        <time>2017-06-24T13:33:48Z</time>
      </trkpt>
      <trkpt lat="47.218480" lon="0.657960">
        <time>2017-06-24T13:33:49Z</time>
      </trkpt>
      <trkpt lat="47.218480" lon="0.657960">
        <time>2017-06-24T13:33:50Z</time>
      </trkpt>
      <trkpt lat="47.218480" lon="0.657960">
        <time>2017-06-24T13:33:51Z</time>
      </trkpt>
      <trkpt lat="47.218480" lon="0.657960">
        <time>2017-06-24T13:33:52Z</time>
      </trkpt>
      <trkpt lat="47.218480" lon="0.657960">
        <time>2017-06-24T13:33:53Z</time>
      </trkpt>
      <trkpt lat="47.218480" lon="0.657960">
        <time>2017-06-24T13:33:54Z</time>
      </trkpt>
      <trkpt lat="47.218480" lon="0.657960">
        <time>2017-06-24T13:33:55Z</time>
      </trkpt>
      <trkpt lat="47.218480" lon="0.657960">
        <time>2017-06-24T13:33:56Z</time>
      </trkpt>
      <trkpt lat="47.218480" lon="0.657960">
        <time>2017-06-24T13:33:57Z</time>
      </trkpt>
      <trkpt lat="47.218480" lon="0.657960">
        <time>2017-06-24T13:33:58Z</time>
      </trkpt>
      <trkpt lat="47.218480" lon="0.657960">
        <time>2017-06-24T13:33:59Z</time>
      </trkpt>
      <trkpt lat="47.218480" lon="0.657960">
        <time>2017-06-24T13:34:00Z</time>
      </trkpt>
      <trkpt lat="47.218480" lon="0.657960">
        <time>2017-06-24T13:34:01Z</time>
      </trkpt>
      <trkpt lat="47.218480" lon="0.657960">
        <time>2017-06-24T13:34:02Z</time>
      </trkpt>
      <trkpt lat="47.218480" lon="0.657960">
        <time>2017-06-24T13:34:03Z</time>
      </trkpt>
      <trkpt lat="47.218480" lon="0.657960">
        <time>2017-06-24T13:34:04Z</time>
      </trkpt>
      <trkpt lat="47.218480" lon="0.657960">
        <time>2017-06-24T13:34:05Z</time>
      </trkpt>
      <trkpt lat="47.218480" lon="0.657960">
        <time>2017-06-24T13:34:06Z</time>
      </trkpt>
      <trkpt lat="47.218480" lon="0.657960">
        <time>2017-06-24T13:34:07Z</time>
      </trkpt>
      <trkpt lat="47.218480" lon="0.657960">
        <time>2017-06-24T13:34:08Z</time>
      </trkpt>
      <trkpt lat="47.218480" lon="0.657960">
        <time>2017-06-24T13:34:09Z</time>
      </trkpt>
      <trkpt lat="47.218480" lon="0.657960">
        <time>2017-06-24T13:34:10Z</time>
      </trkpt>
      <trkpt lat="47.218480" lon="0.657960">
        <time>2017-06-24T13:34:11Z</time>
      </trkpt>
      <trkpt lat="47.218480" lon="0.657960">
        <time>2017-06-24T13:34:12Z</time>
      </trkpt>
      <trkpt lat="47.218480" lon="0.657960">
        <time>2017-06-24T13:34:13Z</time>
      </trkpt>
      <trkpt lat="47.218480" lon="0.657960">
        <time>2017-06-24T13:34:14Z</time>
      </trkpt>
      <trkpt lat="47.218480" lon="0.657960">
        <time>2017-06-24T13:34:15Z</time>
      </trkpt>
      <trkpt lat="47.218480" lon="0.657960">
        <time>2017-06-24T13:34:16Z</time>
      </trkpt>
      <trkpt lat="47.218480" lon="0.657960">
        <time>2017-06-24T13:34:17Z</time>
      </trkpt>
      <trkpt lat="47.218480" lon="0.657960">
        <time>2017-06-24T13:34:18Z</time>
      </trkpt>
      <trkpt lat="47.218480" lon="0.657960">
        <time>2017-06-24T13:34:19Z</time>
      </trkpt>
      <trkpt lat="47.218480" lon="0.657960">
        <time>2017-06-24T13:34:20Z</time>
      </trkpt>
      <trkpt lat="47.218480" lon="0.657960">
        <time>2017-06-24T13:34:21Z</time>
      </trkpt>
      <trkpt lat="47.218480" lon="0.657960">
        <time>2017-06-24T13:34:22Z</time>
      </trkpt>
      <trkpt lat="47.218480" lon="0.657960">
        <time>2017-06-24T13:34:23Z</time>
      </trkpt>
      <trkpt lat="47.218480" lon="0.657960">
        <time>2017-06-24T13:34:24Z</time>
      </trkpt>
      <trkpt lat="47.218480" lon="0.657960">
        <time>2017-06-24T13:34:25Z</time>
      </trkpt>
      <trkpt lat="47.218480" lon="0.657960">
        <time>2017-06-24T13:34:26Z</time>
      </trkpt>
      <trkpt lat="47.218480" lon="0.657960">
        <time>2017-06-24T13:34:27Z</time>
      </trkpt>
      <trkpt lat="47.218480" lon="0.657960">
        <time>2017-06-24T13:34:28Z</time>
      </trkpt>
      <trkpt lat="47.218480" lon="0.657960">
        <time>2017-06-24T13:34:29Z</time>
      </trkpt>
      <trkpt lat="47.218490" lon="0.657960">
        <time>2017-06-24T13:34:30Z</time>
      </trkpt>
      <trkpt lat="47.218500" lon="0.657970">
        <time>2017-06-24T13:34:31Z</time>
      </trkpt>
      <trkpt lat="47.218530" lon="0.657970">
        <time>2017-06-24T13:34:32Z</time>
      </trkpt>
      <trkpt lat="47.218570" lon="0.657980">
        <time>2017-06-24T13:34:33Z</time>
      </trkpt>
      <trkpt lat="47.218660" lon="0.657990">
        <time>2017-06-24T13:34:34Z</time>
      </trkpt>
      <trkpt lat="47.218720" lon="0.658000">
        <time>2017-06-24T13:34:35Z</time>
      </trkpt>
      <trkpt lat="47.218800" lon="0.658010">
        <time>2017-06-24T13:34:36Z</time>
      </trkpt>
      <trkpt lat="47.218880" lon="0.658030">
        <time>2017-06-24T13:34:37Z</time>
      </trkpt>
      <trkpt lat="47.218980" lon="0.658040">
        <time>2017-06-24T13:34:38Z</time>
      </trkpt>
      <trkpt lat="47.219090" lon="0.658040">
        <time>2017-06-24T13:34:39Z</time>
      </trkpt>
      <trkpt lat="47.219190" lon="0.658040">
        <time>2017-06-24T13:34:40Z</time>
      </trkpt>
      <trkpt lat="47.219310" lon="0.658040">
        <time>2017-06-24T13:34:41Z</time>
      </trkpt>
      <trkpt lat="47.219450" lon="0.658040">
        <time>2017-06-24T13:34:42Z</time>
      </trkpt>
      <trkpt lat="47.219600" lon="0.658040">
        <time>2017-06-24T13:34:43Z</time>
      </trkpt>
      <trkpt lat="47.219780" lon="0.658030">
        <time>2017-06-24T13:34:44Z</time>
      </trkpt>
      <trkpt lat="47.219950" lon="0.658030">
        <time>2017-06-24T13:34:45Z</time>
      </trkpt>
      <trkpt lat="47.220120" lon="0.658040">
        <time>2017-06-24T13:34:46Z</time>
      </trkpt>
      <trkpt lat="47.220310" lon="0.658040">
        <time>2017-06-24T13:34:47Z</time>
      </trkpt>
      <trkpt lat="47.220490" lon="0.658060">
        <time>2017-06-24T13:34:48Z</time>
      </trkpt>
      <trkpt lat="47.220690" lon="0.658080">
        <time>2017-06-24T13:34:49Z</time>
      </trkpt>
      <trkpt lat="47.220900" lon="0.658110">
        <time>2017-06-24T13:34:50Z</time>
      </trkpt>
      <trkpt lat="47.221090" lon="0.658130">
        <time>2017-06-24T13:34:51Z</time>
      </trkpt>
      <trkpt lat="47.221300" lon="0.658150">
        <time>2017-06-24T13:34:52Z</time>
      </trkpt>
      <trkpt lat="47.221480" lon="0.658170">
        <time>2017-06-24T13:34:53Z</time>
      </trkpt>
      <trkpt lat="47.221690" lon="0.658190">
        <time>2017-06-24T13:34:54Z</time>
      </trkpt>
      <trkpt lat="47.221920" lon="0.658210">
        <time>2017-06-24T13:34:55Z</time>
      </trkpt>
      <trkpt lat="47.222120" lon="0.658220">
        <time>2017-06-24T13:34:56Z</time>
      </trkpt>
      <trkpt lat="47.222320" lon="0.658240">
        <time>2017-06-24T13:34:57Z</time>
      </trkpt>
      <trkpt lat="47.222530" lon="0.658260">
        <time>2017-06-24T13:34:58Z</time>
      </trkpt>
      <trkpt lat="47.222740" lon="0.658270">
        <time>2017-06-24T13:34:59Z</time>
      </trkpt>
      <trkpt lat="47.222970" lon="0.658300">
        <time>2017-06-24T13:35:00Z</time>
      </trkpt>
      <trkpt lat="47.223190" lon="0.658310">
        <time>2017-06-24T13:35:01Z</time>
      </trkpt>
      <trkpt lat="47.223430" lon="0.658320">
        <time>2017-06-24T13:35:02Z</time>
      </trkpt>
      <trkpt lat="47.223690" lon="0.658350">
        <time>2017-06-24T13:35:03Z</time>
      </trkpt>
      <trkpt lat="47.223930" lon="0.658360">
        <time>2017-06-24T13:35:04Z</time>
      </trkpt>
      <trkpt lat="47.224180" lon="0.658380">
        <time>2017-06-24T13:35:05Z</time>
      </trkpt>
      <trkpt lat="47.224460" lon="0.658400">
        <time>2017-06-24T13:35:06Z</time>
      </trkpt>
      <trkpt lat="47.224700" lon="0.658420">
        <time>2017-06-24T13:35:07Z</time>
      </trkpt>
      <trkpt lat="47.224990" lon="0.658460">
        <time>2017-06-24T13:35:08Z</time>
      </trkpt>
      <trkpt lat="47.225820" lon="0.658510">
        <time>2017-06-24T13:35:11Z</time>
      </trkpt>
      <trkpt lat="47.226080" lon="0.658500">
        <time>2017-06-24T13:35:12Z</time>
      </trkpt>
      <trkpt lat="47.226360" lon="0.658510">
        <time>2017-06-24T13:35:13Z</time>
      </trkpt>
      <trkpt lat="47.226650" lon="0.658520">
        <time>2017-06-24T13:35:14Z</time>
      </trkpt>
      <trkpt lat="47.226940" lon="0.658530">
        <time>2017-06-24T13:35:15Z</time>
      </trkpt>
      <trkpt lat="47.227250" lon="0.658550">
        <time>2017-06-24T13:35:16Z</time>
      </trkpt>
      <trkpt lat="47.227520" lon="0.658570">
        <time>2017-06-24T13:35:17Z</time>
      </trkpt>
      <trkpt lat="47.227800" lon="0.658590">
        <time>2017-06-24T13:35:18Z</time>
      </trkpt>
      <trkpt lat="47.228110" lon="0.658610">
        <time>2017-06-24T13:35:19Z</time>
      </trkpt>
      <trkpt lat="47.228390" lon="0.658630">
        <time>2017-06-24T13:35:20Z</time>
      </trkpt>
      <trkpt lat="47.228690" lon="0.658650">
        <time>2017-06-24T13:35:21Z</time>
      </trkpt>
      <trkpt lat="47.229020" lon="0.658670">
        <time>2017-06-24T13:35:22Z</time>
      </trkpt>
      <trkpt lat="47.229300" lon="0.658680">
        <time>2017-06-24T13:35:23Z</time>
      </trkpt>
      <trkpt lat="47.229620" lon="0.658710">
        <time>2017-06-24T13:35:24Z</time>
      </trkpt>
      <trkpt lat="47.229900" lon="0.658740">
        <time>2017-06-24T13:35:25Z</time>
      </trkpt>
      <trkpt lat="47.230180" lon="0.658750">
        <time>2017-06-24T13:35:26Z</time>
      </trkpt>
      <trkpt lat="47.230490" lon="0.658780">
        <time>2017-06-24T13:35:27Z</time>
      </trkpt>
      <trkpt lat="47.230760" lon="0.658800">
        <time>2017-06-24T13:35:28Z</time>
      </trkpt>
      <trkpt lat="47.231050" lon="0.658830">
        <time>2017-06-24T13:35:29Z</time>
      </trkpt>
      <trkpt lat="47.231340" lon="0.658860">
        <time>2017-06-24T13:35:30Z</time>
      </trkpt>
      <trkpt lat="47.231640" lon="0.658880">
        <time>2017-06-24T13:35:31Z</time>
      </trkpt>
      <trkpt lat="47.231960" lon="0.658910">
        <time>2017-06-24T13:35:32Z</time>
      </trkpt>
      <trkpt lat="47.232240" lon="0.658940">
        <time>2017-06-24T13:35:33Z</time>
      </trkpt>
      <trkpt lat="47.232540" lon="0.658980">
        <time>2017-06-24T13:35:34Z</time>
      </trkpt>
      <trkpt lat="47.232870" lon="0.659020">
        <time>2017-06-24T13:35:35Z</time>
      </trkpt>
      <trkpt lat="47.233150" lon="0.659060">
        <time>2017-06-24T13:35:36Z</time>
      </trkpt>
      <trkpt lat="47.233460" lon="0.659090">
        <time>2017-06-24T13:35:37Z</time>
      </trkpt>
      <trkpt lat="47.233780" lon="0.659140">
        <time>2017-06-24T13:35:38Z</time>
      </trkpt>
      <trkpt lat="47.234060" lon="0.659190">
        <time>2017-06-24T13:35:39Z</time>
      </trkpt>
      <trkpt lat="47.234370" lon="0.659240">
        <time>2017-06-24T13:35:40Z</time>
      </trkpt>
      <trkpt lat="47.234640" lon="0.659290">
        <time>2017-06-24T13:35:41Z</time>
      </trkpt>
      <trkpt lat="47.234930" lon="0.659340">
        <time>2017-06-24T13:35:42Z</time>
      </trkpt>
      <trkpt lat="47.235250" lon="0.659410">
        <time>2017-06-24T13:35:43Z</time>
      </trkpt>
      <trkpt lat="47.235530" lon="0.659460">
        <time>2017-06-24T13:35:44Z</time>
      </trkpt>
      <trkpt lat="47.235830" lon="0.659530">
        <time>2017-06-24T13:35:45Z</time>
      </trkpt>
      <trkpt lat="47.236130" lon="0.659610">
        <time>2017-06-24T13:35:46Z</time>
      </trkpt>
      <trkpt lat="47.236430" lon="0.659680">
        <time>2017-06-24T13:35:47Z</time>
      </trkpt>
      <trkpt lat="47.236750" lon="0.659760">
        <time>2017-06-24T13:35:48Z</time>
      </trkpt>
      <trkpt lat="47.237030" lon="0.659830">
        <time>2017-06-24T13:35:49Z</time>
      </trkpt>
      <trkpt lat="47.237340" lon="0.659920">
        <time>2017-06-24T13:35:50Z</time>
      </trkpt>
      <trkpt lat="47.237670" lon="0.660010">
        <time>2017-06-24T13:35:51Z</time>
      </trkpt>
      <trkpt lat="47.237960" lon="0.660090">
        <time>2017-06-24T13:35:52Z</time>
      </trkpt>
      <trkpt lat="47.238260" lon="0.660190">
        <time>2017-06-24T13:35:53Z</time>
      </trkpt>
      <trkpt lat="47.238590" lon="0.660300">
        <time>2017-06-24T13:35:54Z</time>
      </trkpt>
      <trkpt lat="47.238880" lon="0.660390">
        <time>2017-06-24T13:35:55Z</time>
      </trkpt>
      <trkpt lat="47.239200" lon="0.660510">
        <time>2017-06-24T13:35:56Z</time>
      </trkpt>
      <trkpt lat="47.239490" lon="0.660610">
        <time>2017-06-24T13:35:57Z</time>
      </trkpt>
      <trkpt lat="47.239790" lon="0.660730">
        <time>2017-06-24T13:35:58Z</time>
      </trkpt>
      <trkpt lat="47.240120" lon="0.660840">
        <time>2017-06-24T13:35:59Z</time>
      </trkpt>
      <trkpt lat="47.240410" lon="0.660950">
        <time>2017-06-24T13:36:00Z</time>
      </trkpt>
      <trkpt lat="47.240710" lon="0.661060">
        <time>2017-06-24T13:36:01Z</time>
      </trkpt>
      <trkpt lat="47.241020" lon="0.661170">
        <time>2017-06-24T13:36:02Z</time>
      </trkpt>
      <trkpt lat="47.241330" lon="0.661290">
        <time>2017-06-24T13:36:03Z</time>
      </trkpt>
      <trkpt lat="47.241660" lon="0.661420">
        <time>2017-06-24T13:36:04Z</time>
      </trkpt>
      <trkpt lat="47.241950" lon="0.661540">
        <time>2017-06-24T13:36:05Z</time>
      </trkpt>
      <trkpt lat="47.242270" lon="0.661660">
        <time>2017-06-24T13:36:06Z</time>
      </trkpt>
      <trkpt lat="47.242590" lon="0.661780">
        <time>2017-06-24T13:36:07Z</time>
      </trkpt>
      <trkpt lat="47.242880" lon="0.661900">
        <time>2017-06-24T13:36:08Z</time>
      </trkpt>
      <trkpt lat="47.243190" lon="0.662020">
        <time>2017-06-24T13:36:09Z</time>
      </trkpt>
      <trkpt lat="47.243520" lon="0.662150">
        <time>2017-06-24T13:36:10Z</time>
      </trkpt>
      <trkpt lat="47.243810" lon="0.662270">
        <time>2017-06-24T13:36:11Z</time>
      </trkpt>
      <trkpt lat="47.244130" lon="0.662400">
        <time>2017-06-24T13:36:12Z</time>
      </trkpt>
      <trkpt lat="47.244420" lon="0.662520">
        <time>2017-06-24T13:36:13Z</time>
      </trkpt>
      <trkpt lat="47.244730" lon="0.662630">
        <time>2017-06-24T13:36:14Z</time>
      </trkpt>
      <trkpt lat="47.245050" lon="0.662760">
        <time>2017-06-24T13:36:15Z</time>
      </trkpt>
      <trkpt lat="47.245340" lon="0.662870">
        <time>2017-06-24T13:36:16Z</time>
      </trkpt>
      <trkpt lat="47.245650" lon="0.662990">
        <time>2017-06-24T13:36:17Z</time>
      </trkpt>
      <trkpt lat="47.245970" lon="0.663110">
        <time>2017-06-24T13:36:18Z</time>
      </trkpt>
      <trkpt lat="47.246280" lon="0.663220">
        <time>2017-06-24T13:36:19Z</time>
      </trkpt>
      <trkpt lat="47.246610" lon="0.663330">
        <time>2017-06-24T13:36:20Z</time>
      </trkpt>
      <trkpt lat="47.246910" lon="0.663420">
        <time>2017-06-24T13:36:21Z</time>
      </trkpt>
      <trkpt lat="47.247240" lon="0.663520">
        <time>2017-06-24T13:36:22Z</time>
      </trkpt>
      <trkpt lat="47.247570" lon="0.663630">
        <time>2017-06-24T13:36:23Z</time>
      </trkpt>
      <trkpt lat="47.247860" lon="0.663720">
        <time>2017-06-24T13:36:24Z</time>
      </trkpt>
      <trkpt lat="47.248170" lon="0.663810">
        <time>2017-06-24T13:36:25Z</time>
      </trkpt>
      <trkpt lat="47.248490" lon="0.663910">
        <time>2017-06-24T13:36:26Z</time>
      </trkpt>
      <trkpt lat="47.248780" lon="0.664000">
        <time>2017-06-24T13:36:27Z</time>
      </trkpt>
      <trkpt lat="47.249100" lon="0.664090">
        <time>2017-06-24T13:36:28Z</time>
      </trkpt>
      <trkpt lat="47.249380" lon="0.664180">
        <time>2017-06-24T13:36:29Z</time>
      </trkpt>
      <trkpt lat="47.249680" lon="0.664260">
        <time>2017-06-24T13:36:30Z</time>
      </trkpt>
      <trkpt lat="47.249990" lon="0.664360">
        <time>2017-06-24T13:36:31Z</time>
      </trkpt>
      <trkpt lat="47.250270" lon="0.664440">
        <time>2017-06-24T13:36:32Z</time>
      </trkpt>
      <trkpt lat="47.250570" lon="0.664520">
        <time>2017-06-24T13:36:33Z</time>
      </trkpt>
      <trkpt lat="47.250870" lon="0.664590">
        <time>2017-06-24T13:36:34Z</time>
      </trkpt>
      <trkpt lat="47.251160" lon="0.664660">
        <time>2017-06-24T13:36:35Z</time>
      </trkpt>
      <trkpt lat="47.251470" lon="0.664730">
        <time>2017-06-24T13:36:36Z</time>
      </trkpt>
      <trkpt lat="47.251740" lon="0.664790">
        <time>2017-06-24T13:36:37Z</time>
      </trkpt>
      <trkpt lat="47.252030" lon="0.664850">
        <time>2017-06-24T13:36:38Z</time>
      </trkpt>
      <trkpt lat="47.252330" lon="0.664920">
        <time>2017-06-24T13:36:39Z</time>
      </trkpt>
      <trkpt lat="47.252610" lon="0.664980">
        <time>2017-06-24T13:36:40Z</time>
      </trkpt>
      <trkpt lat="47.252900" lon="0.665030">
        <time>2017-06-24T13:36:41Z</time>
      </trkpt>
      <trkpt lat="47.253210" lon="0.665090">
        <time>2017-06-24T13:36:42Z</time>
      </trkpt>
      <trkpt lat="47.253480" lon="0.665150">
        <time>2017-06-24T13:36:43Z</time>
      </trkpt>
      <trkpt lat="47.253790" lon="0.665210">
        <time>2017-06-24T13:36:44Z</time>
      </trkpt>
      <trkpt lat="47.254060" lon="0.665270">
        <time>2017-06-24T13:36:45Z</time>
      </trkpt>
      <trkpt lat="47.254350" lon="0.665320">
        <time>2017-06-24T13:36:46Z</time>
      </trkpt>
      <trkpt lat="47.254660" lon="0.665390">
        <time>2017-06-24T13:36:47Z</time>
      </trkpt>
      <trkpt lat="47.254930" lon="0.665440">
        <time>2017-06-24T13:36:48Z</time>
      </trkpt>
      <trkpt lat="47.255220" lon="0.665510">
        <time>2017-06-24T13:36:49Z</time>
      </trkpt>
      <trkpt lat="47.255510" lon="0.665570">
        <time>2017-06-24T13:36:50Z</time>
      </trkpt>
      <trkpt lat="47.255800" lon="0.665630">
        <time>2017-06-24T13:36:51Z</time>
      </trkpt>
      <trkpt lat="47.256100" lon="0.665700">
        <time>2017-06-24T13:36:52Z</time>
      </trkpt>
      <trkpt lat="47.256370" lon="0.665760">
        <time>2017-06-24T13:36:53Z</time>
      </trkpt>
      <trkpt lat="47.256660" lon="0.665820">
        <time>2017-06-24T13:36:54Z</time>
      </trkpt>
      <trkpt lat="47.256970" lon="0.665900">
        <time>2017-06-24T13:36:55Z</time>
      </trkpt>
      <trkpt lat="47.257240" lon="0.665960">
        <time>2017-06-24T13:36:56Z</time>
      </trkpt>
      <trkpt lat="47.257530" lon="0.666030">
        <time>2017-06-24T13:36:57Z</time>
      </trkpt>
      <trkpt lat="47.257840" lon="0.666110">
        <time>2017-06-24T13:36:58Z</time>
      </trkpt>
      <trkpt lat="47.258110" lon="0.666180">
        <time>2017-06-24T13:36:59Z</time>
      </trkpt>
      <trkpt lat="47.258420" lon="0.666270">
        <time>2017-06-24T13:37:00Z</time>
      </trkpt>
      <trkpt lat="47.258690" lon="0.666350">
        <time>2017-06-24T13:37:01Z</time>
      </trkpt>
      <trkpt lat="47.258970" lon="0.666440">
        <time>2017-06-24T13:37:02Z</time>
      </trkpt>
      <trkpt lat="47.259280" lon="0.666550">
        <time>2017-06-24T13:37:03Z</time>
      </trkpt>
      <trkpt lat="47.259560" lon="0.666640">
        <time>2017-06-24T13:37:04Z</time>
      </trkpt>
      <trkpt lat="47.259850" lon="0.666730">
        <time>2017-06-24T13:37:05Z</time>
      </trkpt>
      <trkpt lat="47.260140" lon="0.666840">
        <time>2017-06-24T13:37:06Z</time>
      </trkpt>
      <trkpt lat="47.260430" lon="0.666940">
        <time>2017-06-24T13:37:07Z</time>
      </trkpt>
      <trkpt lat="47.260730" lon="0.667060">
        <time>2017-06-24T13:37:08Z</time>
      </trkpt>
      <trkpt lat="47.261010" lon="0.667180">
        <time>2017-06-24T13:37:09Z</time>
      </trkpt>
      <trkpt lat="47.261300" lon="0.667300">
        <time>2017-06-24T13:37:10Z</time>
      </trkpt>
      <trkpt lat="47.261620" lon="0.667430">
        <time>2017-06-24T13:37:11Z</time>
      </trkpt>
      <trkpt lat="47.261900" lon="0.667540">
        <time>2017-06-24T13:37:12Z</time>
      </trkpt>
      <trkpt lat="47.262200" lon="0.667670">
        <time>2017-06-24T13:37:13Z</time>
      </trkpt>
      <trkpt lat="47.262530" lon="0.667810">
        <time>2017-06-24T13:37:14Z</time>
      </trkpt>
      <trkpt lat="47.262820" lon="0.667950">
        <time>2017-06-24T13:37:15Z</time>
      </trkpt>
      <trkpt lat="47.263140" lon="0.668100">
        <time>2017-06-24T13:37:16Z</time>
      </trkpt>
      <trkpt lat="47.263430" lon="0.668240">
        <time>2017-06-24T13:37:17Z</time>
      </trkpt>
      <trkpt lat="47.263730" lon="0.668390">
        <time>2017-06-24T13:37:18Z</time>
      </trkpt>
      <trkpt lat="47.264060" lon="0.668560">
        <time>2017-06-24T13:37:19Z</time>
      </trkpt>
      <trkpt lat="47.264340" lon="0.668700">
        <time>2017-06-24T13:37:20Z</time>
      </trkpt>
      <trkpt lat="47.264640" lon="0.668860">
        <time>2017-06-24T13:37:21Z</time>
      </trkpt>
      <trkpt lat="47.264940" lon="0.669030">
        <time>2017-06-24T13:37:22Z</time>
      </trkpt>
      <trkpt lat="47.265230" lon="0.669190">
        <time>2017-06-24T13:37:23Z</time>
      </trkpt>
      <trkpt lat="47.265550" lon="0.669380">
        <time>2017-06-24T13:37:24Z</time>
      </trkpt>
      <trkpt lat="47.265820" lon="0.669530">
        <time>2017-06-24T13:37:25Z</time>
      </trkpt>
      <trkpt lat="47.266120" lon="0.669720">
        <time>2017-06-24T13:37:26Z</time>
      </trkpt>
      <trkpt lat="47.266430" lon="0.669910">
        <time>2017-06-24T13:37:27Z</time>
      </trkpt>
      <trkpt lat="47.266700" lon="0.670080">
        <time>2017-06-24T13:37:28Z</time>
      </trkpt>
      <trkpt lat="47.266990" lon="0.670270">
        <time>2017-06-24T13:37:29Z</time>
      </trkpt>
      <trkpt lat="47.267300" lon="0.670460">
        <time>2017-06-24T13:37:30Z</time>
      </trkpt>
      <trkpt lat="47.267560" lon="0.670640">
        <time>2017-06-24T13:37:31Z</time>
      </trkpt>
      <trkpt lat="47.267870" lon="0.670850">
        <time>2017-06-24T13:37:32Z</time>
      </trkpt>
      <trkpt lat="47.268140" lon="0.671050">
        <time>2017-06-24T13:37:33Z</time>
      </trkpt>
      <trkpt lat="47.268420" lon="0.671250">
        <time>2017-06-24T13:37:34Z</time>
      </trkpt>
      <trkpt lat="47.268730" lon="0.671470">
        <time>2017-06-24T13:37:35Z</time>
      </trkpt>
      <trkpt lat="47.268990" lon="0.671670">
        <time>2017-06-24T13:37:36Z</time>
      </trkpt>
      <trkpt lat="47.269270" lon="0.671880">
        <time>2017-06-24T13:37:37Z</time>
      </trkpt>
      <trkpt lat="47.269550" lon="0.672090">
        <time>2017-06-24T13:37:38Z</time>
      </trkpt>
      <trkpt lat="47.269840" lon="0.672310">
        <time>2017-06-24T13:37:39Z</time>
      </trkpt>
      <trkpt lat="47.270140" lon="0.672540">
        <time>2017-06-24T13:37:40Z</time>
      </trkpt>
      <trkpt lat="47.270400" lon="0.672750">
        <time>2017-06-24T13:37:41Z</time>
      </trkpt>
      <trkpt lat="47.270680" lon="0.672970">
        <time>2017-06-24T13:37:42Z</time>
      </trkpt>
      <trkpt lat="47.270980" lon="0.673210">
        <time>2017-06-24T13:37:43Z</time>
      </trkpt>
      <trkpt lat="47.271240" lon="0.673420">
        <time>2017-06-24T13:37:44Z</time>
      </trkpt>
      <trkpt lat="47.271520" lon="0.673650">
        <time>2017-06-24T13:37:45Z</time>
      </trkpt>
      <trkpt lat="47.271810" lon="0.673890">
        <time>2017-06-24T13:37:46Z</time>
      </trkpt>
      <trkpt lat="47.272070" lon="0.674100">
        <time>2017-06-24T13:37:47Z</time>
      </trkpt>
      <trkpt lat="47.272370" lon="0.674340">
        <time>2017-06-24T13:37:48Z</time>
      </trkpt>
      <trkpt lat="47.272620" lon="0.674540">
        <time>2017-06-24T13:37:49Z</time>
      </trkpt>
      <trkpt lat="47.272900" lon="0.674750">
        <time>2017-06-24T13:37:50Z</time>
      </trkpt>
      <trkpt lat="47.273200" lon="0.674990">
        <time>2017-06-24T13:37:51Z</time>
      </trkpt>
      <trkpt lat="47.273450" lon="0.675200">
        <time>2017-06-24T13:37:52Z</time>
      </trkpt>
      <trkpt lat="47.273720" lon="0.675420">
        <time>2017-06-24T13:37:53Z</time>
      </trkpt>
      <trkpt lat="47.274000" lon="0.675630">
        <time>2017-06-24T13:37:54Z</time>
      </trkpt>
      <trkpt lat="47.274270" lon="0.675850">
        <time>2017-06-24T13:37:55Z</time>
      </trkpt>
      <trkpt lat="47.274560" lon="0.676070">
        <time>2017-06-24T13:37:56Z</time>
      </trkpt>
      <trkpt lat="47.274820" lon="0.676260">
        <time>2017-06-24T13:37:57Z</time>
      </trkpt>
      <trkpt lat="47.275090" lon="0.676460">
        <time>2017-06-24T13:37:58Z</time>
      </trkpt>
      <trkpt lat="47.275380" lon="0.676670">
        <time>2017-06-24T13:37:59Z</time>
      </trkpt>
      <trkpt lat="47.275640" lon="0.676850">
        <time>2017-06-24T13:38:00Z</time>
      </trkpt>
      <trkpt lat="47.275920" lon="0.677050">
        <time>2017-06-24T13:38:01Z</time>
      </trkpt>
      <trkpt lat="47.276210" lon="0.677260">
        <time>2017-06-24T13:38:02Z</time>
      </trkpt>
      <trkpt lat="47.276470" lon="0.677440">
        <time>2017-06-24T13:38:03Z</time>
      </trkpt>
      <trkpt lat="47.276780" lon="0.677650">
        <time>2017-06-24T13:38:04Z</time>
      </trkpt>
      <trkpt lat="47.277050" lon="0.677830">
        <time>2017-06-24T13:38:05Z</time>
      </trkpt>
      <trkpt lat="47.277340" lon="0.678020">
        <time>2017-06-24T13:38:06Z</time>
      </trkpt>
      <trkpt lat="47.277650" lon="0.678220">
        <time>2017-06-24T13:38:07Z</time>
      </trkpt>
      <trkpt lat="47.277920" lon="0.678380">
        <time>2017-06-24T13:38:08Z</time>
      </trkpt>
      <trkpt lat="47.278210" lon="0.678560">
        <time>2017-06-24T13:38:09Z</time>
      </trkpt>
      <trkpt lat="47.278480" lon="0.678730">
        <time>2017-06-24T13:38:10Z</time>
      </trkpt>
      <trkpt lat="47.278760" lon="0.678890">
        <time>2017-06-24T13:38:11Z</time>
      </trkpt>
      <trkpt lat="47.279060" lon="0.679060">
        <time>2017-06-24T13:38:12Z</time>
      </trkpt>
      <trkpt lat="47.279320" lon="0.679200">
        <time>2017-06-24T13:38:13Z</time>
      </trkpt>
      <trkpt lat="47.279590" lon="0.679350">
        <time>2017-06-24T13:38:14Z</time>
      </trkpt>
      <trkpt lat="47.279870" lon="0.679510">
        <time>2017-06-24T13:38:15Z</time>
      </trkpt>
      <trkpt lat="47.280120" lon="0.679640">
        <time>2017-06-24T13:38:16Z</time>
      </trkpt>
      <trkpt lat="47.280390" lon="0.679790">
        <time>2017-06-24T13:38:17Z</time>
      </trkpt>
      <trkpt lat="47.280670" lon="0.679940">
        <time>2017-06-24T13:38:18Z</time>
      </trkpt>
      <trkpt lat="47.280920" lon="0.680070">
        <time>2017-06-24T13:38:19Z</time>
      </trkpt>
      <trkpt lat="47.281200" lon="0.680210">
        <time>2017-06-24T13:38:20Z</time>
      </trkpt>
      <trkpt lat="47.281440" lon="0.680330">
        <time>2017-06-24T13:38:21Z</time>
      </trkpt>
      <trkpt lat="47.281700" lon="0.680460">
        <time>2017-06-24T13:38:22Z</time>
      </trkpt>
      <trkpt lat="47.281970" lon="0.680600">
        <time>2017-06-24T13:38:23Z</time>
      </trkpt>
      <trkpt lat="47.282220" lon="0.680710">
        <time>2017-06-24T13:38:24Z</time>
      </trkpt>
      <trkpt lat="47.282480" lon="0.680840">
        <time>2017-06-24T13:38:25Z</time>
      </trkpt>
      <trkpt lat="47.282740" lon="0.680960">
        <time>2017-06-24T13:38:26Z</time>
      </trkpt>
      <trkpt lat="47.283000" lon="0.681090">
        <time>2017-06-24T13:38:27Z</time>
      </trkpt>
      <trkpt lat="47.283270" lon="0.681220">
        <time>2017-06-24T13:38:28Z</time>
      </trkpt>
      <trkpt lat="47.283520" lon="0.681340">
        <time>2017-06-24T13:38:29Z</time>
      </trkpt>
      <trkpt lat="47.283770" lon="0.681460">
        <time>2017-06-24T13:38:30Z</time>
      </trkpt>
      <trkpt lat="47.284050" lon="0.681590">
        <time>2017-06-24T13:38:31Z</time>
      </trkpt>
      <trkpt lat="47.284300" lon="0.681700">
        <time>2017-06-24T13:38:32Z</time>
      </trkpt>
      <trkpt lat="47.284560" lon="0.681830">
        <time>2017-06-24T13:38:33Z</time>
      </trkpt>
      <trkpt lat="47.284840" lon="0.681960">
        <time>2017-06-24T13:38:34Z</time>
      </trkpt>
      <trkpt lat="47.285090" lon="0.682070">
        <time>2017-06-24T13:38:35Z</time>
      </trkpt>
      <trkpt lat="47.285370" lon="0.682210">
        <time>2017-06-24T13:38:36Z</time>
      </trkpt>
      <trkpt lat="47.285630" lon="0.682330">
        <time>2017-06-24T13:38:37Z</time>
      </trkpt>
      <trkpt lat="47.285900" lon="0.682460">
        <time>2017-06-24T13:38:38Z</time>
      </trkpt>
      <trkpt lat="47.286190" lon="0.682600">
        <time>2017-06-24T13:38:39Z</time>
      </trkpt>
      <trkpt lat="47.286450" lon="0.682710">
        <time>2017-06-24T13:38:40Z</time>
      </trkpt>
      <trkpt lat="47.286730" lon="0.682850">
        <time>2017-06-24T13:38:41Z</time>
      </trkpt>
      <trkpt lat="47.287010" lon="0.682980">
        <time>2017-06-24T13:38:42Z</time>
      </trkpt>
      <trkpt lat="47.287290" lon="0.683110">
        <time>2017-06-24T13:38:43Z</time>
      </trkpt>
      <trkpt lat="47.287580" lon="0.683250">
        <time>2017-06-24T13:38:44Z</time>
      </trkpt>
      <trkpt lat="47.287840" lon="0.683380">
        <time>2017-06-24T13:38:45Z</time>
      </trkpt>
      <trkpt lat="47.288110" lon="0.683540">
        <time>2017-06-24T13:38:46Z</time>
      </trkpt>
      <trkpt lat="47.288390" lon="0.683700">
        <time>2017-06-24T13:38:47Z</time>
      </trkpt>
      <trkpt lat="47.288630" lon="0.683850">
        <time>2017-06-24T13:38:48Z</time>
      </trkpt>
      <trkpt lat="47.288880" lon="0.684010">
        <time>2017-06-24T13:38:49Z</time>
      </trkpt>
      <trkpt lat="47.289140" lon="0.684200">
        <time>2017-06-24T13:38:50Z</time>
      </trkpt>
      <trkpt lat="47.289370" lon="0.684350">
        <time>2017-06-24T13:38:51Z</time>
      </trkpt>
      <trkpt lat="47.289640" lon="0.684540">
        <time>2017-06-24T13:38:52Z</time>
      </trkpt>
      <trkpt lat="47.289870" lon="0.684710">
        <time>2017-06-24T13:38:53Z</time>
      </trkpt>
      <trkpt lat="47.290110" lon="0.684900">
        <time>2017-06-24T13:38:54Z</time>
      </trkpt>
      <trkpt lat="47.290370" lon="0.685100">
        <time>2017-06-24T13:38:55Z</time>
      </trkpt>
      <trkpt lat="47.290580" lon="0.685280">
        <time>2017-06-24T13:38:56Z</time>
      </trkpt>
      <trkpt lat="47.290810" lon="0.685480">
        <time>2017-06-24T13:38:57Z</time>
      </trkpt>
      <trkpt lat="47.291040" lon="0.685680">
        <time>2017-06-24T13:38:58Z</time>
      </trkpt>
      <trkpt lat="47.291260" lon="0.685890">
        <time>2017-06-24T13:38:59Z</time>
      </trkpt>
      <trkpt lat="47.291490" lon="0.686110">
        <time>2017-06-24T13:39:00Z</time>
      </trkpt>
      <trkpt lat="47.291700" lon="0.686310">
        <time>2017-06-24T13:39:01Z</time>
      </trkpt>
      <trkpt lat="47.291910" lon="0.686520">
        <time>2017-06-24T13:39:02Z</time>
      </trkpt>
      <trkpt lat="47.292140" lon="0.686740">
        <time>2017-06-24T13:39:03Z</time>
      </trkpt>
      <trkpt lat="47.292330" lon="0.686940">
        <time>2017-06-24T13:39:04Z</time>
      </trkpt>
      <trkpt lat="47.292540" lon="0.687150">
        <time>2017-06-24T13:39:05Z</time>
      </trkpt>
      <trkpt lat="47.292760" lon="0.687370">
        <time>2017-06-24T13:39:06Z</time>
      </trkpt>
      <trkpt lat="47.292950" lon="0.687570">
        <time>2017-06-24T13:39:07Z</time>
      </trkpt>
      <trkpt lat="47.293180" lon="0.687800">
        <time>2017-06-24T13:39:08Z</time>
      </trkpt>
      <trkpt lat="47.293370" lon="0.687990">
        <time>2017-06-24T13:39:09Z</time>
      </trkpt>
      <trkpt lat="47.293590" lon="0.688210">
        <time>2017-06-24T13:39:10Z</time>
      </trkpt>
      <trkpt lat="47.293810" lon="0.688430">
        <time>2017-06-24T13:39:11Z</time>
      </trkpt>
      <trkpt lat="47.294010" lon="0.688630">
        <time>2017-06-24T13:39:12Z</time>
      </trkpt>
      <trkpt lat="47.294230" lon="0.688830">
        <time>2017-06-24T13:39:13Z</time>
      </trkpt>
      <trkpt lat="47.294440" lon="0.689030">
        <time>2017-06-24T13:39:14Z</time>
      </trkpt>
      <trkpt lat="47.294660" lon="0.689220">
        <time>2017-06-24T13:39:15Z</time>
      </trkpt>
      <trkpt lat="47.294880" lon="0.689400">
        <time>2017-06-24T13:39:16Z</time>
      </trkpt>
      <trkpt lat="47.295080" lon="0.689570">
        <time>2017-06-24T13:39:17Z</time>
      </trkpt>
      <trkpt lat="47.295290" lon="0.689740">
        <time>2017-06-24T13:39:18Z</time>
      </trkpt>
      <trkpt lat="47.295510" lon="0.689910">
        <time>2017-06-24T13:39:19Z</time>
      </trkpt>
      <trkpt lat="47.295710" lon="0.690050">
        <time>2017-06-24T13:39:20Z</time>
      </trkpt>
      <trkpt lat="47.295910" lon="0.690200">
        <time>2017-06-24T13:39:21Z</time>
      </trkpt>
      <trkpt lat="47.296130" lon="0.690350">
        <time>2017-06-24T13:39:22Z</time>
      </trkpt>
      <trkpt lat="47.296310" lon="0.690470">
        <time>2017-06-24T13:39:23Z</time>
      </trkpt>
      <trkpt lat="47.296530" lon="0.690610">
        <time>2017-06-24T13:39:24Z</time>
      </trkpt>
      <trkpt lat="47.296720" lon="0.690720">
        <time>2017-06-24T13:39:25Z</time>
      </trkpt>
      <trkpt lat="47.296920" lon="0.690840">
        <time>2017-06-24T13:39:26Z</time>
      </trkpt>
      <trkpt lat="47.297130" lon="0.690960">
        <time>2017-06-24T13:39:27Z</time>
      </trkpt>
      <trkpt lat="47.297320" lon="0.691070">
        <time>2017-06-24T13:39:28Z</time>
      </trkpt>
      <trkpt lat="47.297510" lon="0.691170">
        <time>2017-06-24T13:39:29Z</time>
      </trkpt>
      <trkpt lat="47.297710" lon="0.691270">
        <time>2017-06-24T13:39:30Z</time>
      </trkpt>
      <trkpt lat="47.297920" lon="0.691370">
        <time>2017-06-24T13:39:31Z</time>
      </trkpt>
      <trkpt lat="47.298140" lon="0.691480">
        <time>2017-06-24T13:39:32Z</time>
      </trkpt>
      <trkpt lat="47.298350" lon="0.691560">
        <time>2017-06-24T13:39:33Z</time>
      </trkpt>
      <trkpt lat="47.298570" lon="0.691650">
        <time>2017-06-24T13:39:34Z</time>
      </trkpt>
      <trkpt lat="47.298800" lon="0.691740">
        <time>2017-06-24T13:39:35Z</time>
      </trkpt>
      <trkpt lat="47.299000" lon="0.691810">
        <time>2017-06-24T13:39:36Z</time>
      </trkpt>
      <trkpt lat="47.299200" lon="0.691880">
        <time>2017-06-24T13:39:37Z</time>
      </trkpt>
      <trkpt lat="47.299420" lon="0.691960">
        <time>2017-06-24T13:39:38Z</time>
      </trkpt>
      <trkpt lat="47.299600" lon="0.692010">
        <time>2017-06-24T13:39:39Z</time>
      </trkpt>
      <trkpt lat="47.299810" lon="0.692070">
        <time>2017-06-24T13:39:40Z</time>
      </trkpt>
      <trkpt lat="47.300000" lon="0.692120">
        <time>2017-06-24T13:39:41Z</time>
      </trkpt>
      <trkpt lat="47.300190" lon="0.692180">
        <time>2017-06-24T13:39:42Z</time>
      </trkpt>
      <trkpt lat="47.300400" lon="0.692220">
        <time>2017-06-24T13:39:43Z</time>
      </trkpt>
      <trkpt lat="47.300580" lon="0.692260">
        <time>2017-06-24T13:39:44Z</time>
      </trkpt>
      <trkpt lat="47.300780" lon="0.692290">
        <time>2017-06-24T13:39:45Z</time>
      </trkpt>
      <trkpt lat="47.300970" lon="0.692320">
        <time>2017-06-24T13:39:46Z</time>
      </trkpt>
      <trkpt lat="47.301170" lon="0.692360">
        <time>2017-06-24T13:39:47Z</time>
      </trkpt>
      <trkpt lat="47.301380" lon="0.692390">
        <time>2017-06-24T13:39:48Z</time>
      </trkpt>
      <trkpt lat="47.301570" lon="0.692410">
        <time>2017-06-24T13:39:49Z</time>
      </trkpt>
      <trkpt lat="47.301760" lon="0.692420">
        <time>2017-06-24T13:39:50Z</time>
      </trkpt>
      <trkpt lat="47.301980" lon="0.692440">
        <time>2017-06-24T13:39:51Z</time>
      </trkpt>
      <trkpt lat="47.302160" lon="0.692460">
        <time>2017-06-24T13:39:52Z</time>
      </trkpt>
      <trkpt lat="47.302360" lon="0.692470">
        <time>2017-06-24T13:39:53Z</time>
      </trkpt>
      <trkpt lat="47.302560" lon="0.692480">
        <time>2017-06-24T13:39:54Z</time>
      </trkpt>
      <trkpt lat="47.302730" lon="0.692480">
        <time>2017-06-24T13:39:55Z</time>
      </trkpt>
      <trkpt lat="47.302920" lon="0.692480">
        <time>2017-06-24T13:39:56Z</time>
      </trkpt>
      <trkpt lat="47.303090" lon="0.692480">
        <time>2017-06-24T13:39:57Z</time>
      </trkpt>
      <trkpt lat="47.303260" lon="0.692480">
        <time>2017-06-24T13:39:58Z</time>
      </trkpt>
      <trkpt lat="47.303450" lon="0.692480">
        <time>2017-06-24T13:39:59Z</time>
      </trkpt>
      <trkpt lat="47.303620" lon="0.692470">
        <time>2017-06-24T13:40:00Z</time>
      </trkpt>
      <trkpt lat="47.303800" lon="0.692450">
        <time>2017-06-24T13:40:01Z</time>
      </trkpt>
      <trkpt lat="47.303970" lon="0.692430">
        <time>2017-06-24T13:40:02Z</time>
      </trkpt>
      <trkpt lat="47.304150" lon="0.692410">
        <time>2017-06-24T13:40:03Z</time>
      </trkpt>
      <trkpt lat="47.304340" lon="0.692380">
        <time>2017-06-24T13:40:04Z</time>
      </trkpt>
      <trkpt lat="47.304500" lon="0.692360">
        <time>2017-06-24T13:40:05Z</time>
      </trkpt>
      <trkpt lat="47.304670" lon="0.692330">
        <time>2017-06-24T13:40:06Z</time>
      </trkpt>
      <trkpt lat="47.304850" lon="0.692300">
        <time>2017-06-24T13:40:07Z</time>
      </trkpt>
      <trkpt lat="47.305000" lon="0.692280">
        <time>2017-06-24T13:40:08Z</time>
      </trkpt>
      <trkpt lat="47.305180" lon="0.692250">
        <time>2017-06-24T13:40:09Z</time>
      </trkpt>
      <trkpt lat="47.305360" lon="0.692210">
        <time>2017-06-24T13:40:10Z</time>
      </trkpt>
      <trkpt lat="47.305520" lon="0.692170">
        <time>2017-06-24T13:40:11Z</time>
      </trkpt>
      <trkpt lat="47.305700" lon="0.692120">
        <time>2017-06-24T13:40:12Z</time>
      </trkpt>
      <trkpt lat="47.305860" lon="0.692080">
        <time>2017-06-24T13:40:13Z</time>
      </trkpt>
      <trkpt lat="47.306020" lon="0.692030">
        <time>2017-06-24T13:40:14Z</time>
      </trkpt>
      <trkpt lat="47.306210" lon="0.691970">
        <time>2017-06-24T13:40:15Z</time>
      </trkpt>
      <trkpt lat="47.306370" lon="0.691910">
        <time>2017-06-24T13:40:16Z</time>
      </trkpt>
      <trkpt lat="47.306540" lon="0.691850">
        <time>2017-06-24T13:40:17Z</time>
      </trkpt>
      <trkpt lat="47.306720" lon="0.691790">
        <time>2017-06-24T13:40:18Z</time>
      </trkpt>
      <trkpt lat="47.306900" lon="0.691730">
        <time>2017-06-24T13:40:19Z</time>
      </trkpt>
      <trkpt lat="47.307090" lon="0.691660">
        <time>2017-06-24T13:40:20Z</time>
      </trkpt>
      <trkpt lat="47.307250" lon="0.691600">
        <time>2017-06-24T13:40:21Z</time>
      </trkpt>
      <trkpt lat="47.307420" lon="0.691530">
        <time>2017-06-24T13:40:22Z</time>
      </trkpt>
      <trkpt lat="47.307610" lon="0.691450">
        <time>2017-06-24T13:40:23Z</time>
      </trkpt>
      <trkpt lat="47.307770" lon="0.691380">
        <time>2017-06-24T13:40:24Z</time>
      </trkpt>
      <trkpt lat="47.307940" lon="0.691310">
        <time>2017-06-24T13:40:25Z</time>
      </trkpt>
      <trkpt lat="47.308130" lon="0.691240">
        <time>2017-06-24T13:40:26Z</time>
      </trkpt>
      <trkpt lat="47.308300" lon="0.691170">
        <time>2017-06-24T13:40:27Z</time>
      </trkpt>
      <trkpt lat="47.308490" lon="0.691090">
        <time>2017-06-24T13:40:28Z</time>
      </trkpt>
      <trkpt lat="47.308660" lon="0.691020">
        <time>2017-06-24T13:40:29Z</time>
      </trkpt>
      <trkpt lat="47.308830" lon="0.690940">
        <time>2017-06-24T13:40:30Z</time>
      </trkpt>
      <trkpt lat="47.309010" lon="0.690860">
        <time>2017-06-24T13:40:31Z</time>
      </trkpt>
      <trkpt lat="47.309160" lon="0.690800">
        <time>2017-06-24T13:40:32Z</time>
      </trkpt>
      <trkpt lat="47.309320" lon="0.690720">
        <time>2017-06-24T13:40:33Z</time>
      </trkpt>
      <trkpt lat="47.309490" lon="0.690640">
        <time>2017-06-24T13:40:34Z</time>
      </trkpt>
      <trkpt lat="47.309660" lon="0.690560">
        <time>2017-06-24T13:40:35Z</time>
      </trkpt>
      <trkpt lat="47.309850" lon="0.690480">
        <time>2017-06-24T13:40:36Z</time>
      </trkpt>
      <trkpt lat="47.310010" lon="0.690410">
        <time>2017-06-24T13:40:37Z</time>
      </trkpt>
      <trkpt lat="47.310180" lon="0.690340">
        <time>2017-06-24T13:40:38Z</time>
      </trkpt>
      <trkpt lat="47.310360" lon="0.690260">
        <time>2017-06-24T13:40:39Z</time>
      </trkpt>
      <trkpt lat="47.310520" lon="0.690190">
        <time>2017-06-24T13:40:40Z</time>
      </trkpt>
      <trkpt lat="47.310690" lon="0.690120">
        <time>2017-06-24T13:40:41Z</time>
      </trkpt>
      <trkpt lat="47.310870" lon="0.690040">
        <time>2017-06-24T13:40:42Z</time>
      </trkpt>
      <trkpt lat="47.311030" lon="0.689980">
        <time>2017-06-24T13:40:43Z</time>
      </trkpt>
      <trkpt lat="47.311220" lon="0.689910">
        <time>2017-06-24T13:40:44Z</time>
      </trkpt>
      <trkpt lat="47.311380" lon="0.689850">
        <time>2017-06-24T13:40:45Z</time>
      </trkpt>
      <trkpt lat="47.311550" lon="0.689790">
        <time>2017-06-24T13:40:46Z</time>
      </trkpt>
      <trkpt lat="47.311740" lon="0.689730">
        <time>2017-06-24T13:40:47Z</time>
      </trkpt>
      <trkpt lat="47.311910" lon="0.689680">
        <time>2017-06-24T13:40:48Z</time>
      </trkpt>
      <trkpt lat="47.312080" lon="0.689630">
        <time>2017-06-24T13:40:49Z</time>
      </trkpt>
      <trkpt lat="47.312260" lon="0.689570">
        <time>2017-06-24T13:40:50Z</time>
      </trkpt>
      <trkpt lat="47.312450" lon="0.689510">
        <time>2017-06-24T13:40:51Z</time>
      </trkpt>
      <trkpt lat="47.312650" lon="0.689450">
        <time>2017-06-24T13:40:52Z</time>
      </trkpt>
      <trkpt lat="47.312820" lon="0.689410">
        <time>2017-06-24T13:40:53Z</time>
      </trkpt>
      <trkpt lat="47.313000" lon="0.689370">
        <time>2017-06-24T13:40:54Z</time>
      </trkpt>
      <trkpt lat="47.313200" lon="0.689330">
        <time>2017-06-24T13:40:55Z</time>
      </trkpt>
      <trkpt lat="47.313370" lon="0.689290">
        <time>2017-06-24T13:40:56Z</time>
      </trkpt>
      <trkpt lat="47.313550" lon="0.689260">
        <time>2017-06-24T13:40:57Z</time>
      </trkpt>
      <trkpt lat="47.313750" lon="0.689230">
        <time>2017-06-24T13:40:58Z</time>
      </trkpt>
      <trkpt lat="47.313930" lon="0.689200">
        <time>2017-06-24T13:40:59Z</time>
      </trkpt>
      <trkpt lat="47.314130" lon="0.689170">
        <time>2017-06-24T13:41:00Z</time>
      </trkpt>
      <trkpt lat="47.314320" lon="0.689150">
        <time>2017-06-24T13:41:01Z</time>
      </trkpt>
      <trkpt lat="47.314520" lon="0.689140">
        <time>2017-06-24T13:41:02Z</time>
      </trkpt>
      <trkpt lat="47.314730" lon="0.689130">
        <time>2017-06-24T13:41:03Z</time>
      </trkpt>
      <trkpt lat="47.314920" lon="0.689110">
        <time>2017-06-24T13:41:04Z</time>
      </trkpt>
      <trkpt lat="47.315120" lon="0.689100">
        <time>2017-06-24T13:41:05Z</time>
      </trkpt>
      <trkpt lat="47.315320" lon="0.689090">
        <time>2017-06-24T13:41:06Z</time>
      </trkpt>
      <trkpt lat="47.315520" lon="0.689080">
        <time>2017-06-24T13:41:07Z</time>
      </trkpt>
      <trkpt lat="47.315730" lon="0.689080">
        <time>2017-06-24T13:41:08Z</time>
      </trkpt>
      <trkpt lat="47.315920" lon="0.689080">
        <time>2017-06-24T13:41:09Z</time>
      </trkpt>
      <trkpt lat="47.316120" lon="0.689080">
        <time>2017-06-24T13:41:10Z</time>
      </trkpt>
      <trkpt lat="47.316340" lon="0.689100">
        <time>2017-06-24T13:41:11Z</time>
      </trkpt>
      <trkpt lat="47.316530" lon="0.689110">
        <time>2017-06-24T13:41:12Z</time>
      </trkpt>
      <trkpt lat="47.316730" lon="0.689130">
        <time>2017-06-24T13:41:13Z</time>
      </trkpt>
      <trkpt lat="47.316950" lon="0.689150">
        <time>2017-06-24T13:41:14Z</time>
      </trkpt>
      <trkpt lat="47.317140" lon="0.689170">
        <time>2017-06-24T13:41:15Z</time>
      </trkpt>
      <trkpt lat="47.317360" lon="0.689190">
        <time>2017-06-24T13:41:16Z</time>
      </trkpt>
      <trkpt lat="47.317550" lon="0.689220">
        <time>2017-06-24T13:41:17Z</time>
      </trkpt>
      <trkpt lat="47.317760" lon="0.689260">
        <time>2017-06-24T13:41:18Z</time>
      </trkpt>
      <trkpt lat="47.317970" lon="0.689300">
        <time>2017-06-24T13:41:19Z</time>
      </trkpt>
      <trkpt lat="47.318160" lon="0.689340">
        <time>2017-06-24T13:41:20Z</time>
      </trkpt>
      <trkpt lat="47.318380" lon="0.689380">
        <time>2017-06-24T13:41:21Z</time>
      </trkpt>
      <trkpt lat="47.318580" lon="0.689440">
        <time>2017-06-24T13:41:22Z</time>
      </trkpt>
      <trkpt lat="47.318790" lon="0.689490">
        <time>2017-06-24T13:41:23Z</time>
      </trkpt>
      <trkpt lat="47.319020" lon="0.689550">
        <time>2017-06-24T13:41:24Z</time>
      </trkpt>
      <trkpt lat="47.319210" lon="0.689610">
        <time>2017-06-24T13:41:25Z</time>
      </trkpt>
      <trkpt lat="47.319420" lon="0.689670">
        <time>2017-06-24T13:41:26Z</time>
      </trkpt>
      <trkpt lat="47.319630" lon="0.689740">
        <time>2017-06-24T13:41:27Z</time>
      </trkpt>
      <trkpt lat="47.319820" lon="0.689790">
        <time>2017-06-24T13:41:28Z</time>
      </trkpt>
      <trkpt lat="47.320010" lon="0.689850">
        <time>2017-06-24T13:41:29Z</time>
      </trkpt>
      <trkpt lat="47.320220" lon="0.689920">
        <time>2017-06-24T13:41:30Z</time>
      </trkpt>
      <trkpt lat="47.320400" lon="0.689970">
        <time>2017-06-24T13:41:31Z</time>
      </trkpt>
      <trkpt lat="47.320590" lon="0.690030">
        <time>2017-06-24T13:41:32Z</time>
      </trkpt>
      <trkpt lat="47.320750" lon="0.690090">
        <time>2017-06-24T13:41:33Z</time>
      </trkpt>
      <trkpt lat="47.320930" lon="0.690150">
        <time>2017-06-24T13:41:34Z</time>
      </trkpt>
      <trkpt lat="47.321100" lon="0.690220">
        <time>2017-06-24T13:41:35Z</time>
      </trkpt>
      <trkpt lat="47.321270" lon="0.690270">
        <time>2017-06-24T13:41:36Z</time>
      </trkpt>
      <trkpt lat="47.321440" lon="0.690330">
        <time>2017-06-24T13:41:37Z</time>
      </trkpt>
      <trkpt lat="47.321620" lon="0.690390">
        <time>2017-06-24T13:41:38Z</time>
      </trkpt>
      <trkpt lat="47.321800" lon="0.690450">
        <time>2017-06-24T13:41:39Z</time>
      </trkpt>
      <trkpt lat="47.321980" lon="0.690520">
        <time>2017-06-24T13:41:40Z</time>
      </trkpt>
      <trkpt lat="47.322150" lon="0.690570">
        <time>2017-06-24T13:41:41Z</time>
      </trkpt>
      <trkpt lat="47.322330" lon="0.690630">
        <time>2017-06-24T13:41:42Z</time>
      </trkpt>
      <trkpt lat="47.322520" lon="0.690690">
        <time>2017-06-24T13:41:43Z</time>
      </trkpt>
      <trkpt lat="47.322680" lon="0.690750">
        <time>2017-06-24T13:41:44Z</time>
      </trkpt>
      <trkpt lat="47.322860" lon="0.690810">
        <time>2017-06-24T13:41:45Z</time>
      </trkpt>
      <trkpt lat="47.323060" lon="0.690870">
        <time>2017-06-24T13:41:46Z</time>
      </trkpt>
      <trkpt lat="47.323230" lon="0.690940">
        <time>2017-06-24T13:41:47Z</time>
      </trkpt>
      <trkpt lat="47.323430" lon="0.691010">
        <time>2017-06-24T13:41:48Z</time>
      </trkpt>
      <trkpt lat="47.323600" lon="0.691070">
        <time>2017-06-24T13:41:49Z</time>
      </trkpt>
      <trkpt lat="47.323780" lon="0.691140">
        <time>2017-06-24T13:41:50Z</time>
      </trkpt>
      <trkpt lat="47.323970" lon="0.691210">
        <time>2017-06-24T13:41:51Z</time>
      </trkpt>
      <trkpt lat="47.324140" lon="0.691260">
        <time>2017-06-24T13:41:52Z</time>
      </trkpt>
      <trkpt lat="47.324320" lon="0.691320">
        <time>2017-06-24T13:41:53Z</time>
      </trkpt>
      <trkpt lat="47.324490" lon="0.691380">
        <time>2017-06-24T13:41:54Z</time>
      </trkpt>
      <trkpt lat="47.324670" lon="0.691440">
        <time>2017-06-24T13:41:55Z</time>
      </trkpt>
      <trkpt lat="47.324860" lon="0.691500">
        <time>2017-06-24T13:41:56Z</time>
      </trkpt>
      <trkpt lat="47.325020" lon="0.691560">
        <time>2017-06-24T13:41:57Z</time>
      </trkpt>
      <trkpt lat="47.325190" lon="0.691620">
        <time>2017-06-24T13:41:58Z</time>
      </trkpt>
      <trkpt lat="47.325380" lon="0.691680">
        <time>2017-06-24T13:41:59Z</time>
      </trkpt>
      <trkpt lat="47.325530" lon="0.691730">
        <time>2017-06-24T13:42:00Z</time>
      </trkpt>
      <trkpt lat="47.325700" lon="0.691790">
        <time>2017-06-24T13:42:01Z</time>
      </trkpt>
      <trkpt lat="47.325870" lon="0.691850">
        <time>2017-06-24T13:42:02Z</time>
      </trkpt>
      <trkpt lat="47.326020" lon="0.691900">
        <time>2017-06-24T13:42:03Z</time>
      </trkpt>
      <trkpt lat="47.326200" lon="0.691960">
        <time>2017-06-24T13:42:04Z</time>
      </trkpt>
      <trkpt lat="47.326360" lon="0.692010">
        <time>2017-06-24T13:42:05Z</time>
      </trkpt>
      <trkpt lat="47.326520" lon="0.692070">
        <time>2017-06-24T13:42:06Z</time>
      </trkpt>
      <trkpt lat="47.326690" lon="0.692130">
        <time>2017-06-24T13:42:07Z</time>
      </trkpt>
      <trkpt lat="47.326840" lon="0.692180">
        <time>2017-06-24T13:42:08Z</time>
      </trkpt>
      <trkpt lat="47.326990" lon="0.692240">
        <time>2017-06-24T13:42:09Z</time>
      </trkpt>
      <trkpt lat="47.327140" lon="0.692290">
        <time>2017-06-24T13:42:10Z</time>
      </trkpt>
      <trkpt lat="47.327290" lon="0.692350">
        <time>2017-06-24T13:42:11Z</time>
      </trkpt>
      <trkpt lat="47.327460" lon="0.692420">
        <time>2017-06-24T13:42:12Z</time>
      </trkpt>
      <trkpt lat="47.327600" lon="0.692470">
        <time>2017-06-24T13:42:13Z</time>
      </trkpt>
      <trkpt lat="47.327750" lon="0.692520">
        <time>2017-06-24T13:42:14Z</time>
      </trkpt>
      <trkpt lat="47.327920" lon="0.692590">
        <time>2017-06-24T13:42:15Z</time>
      </trkpt>
      <trkpt lat="47.328060" lon="0.692650">
        <time>2017-06-24T13:42:16Z</time>
      </trkpt>
      <trkpt lat="47.328220" lon="0.692720">
        <time>2017-06-24T13:42:17Z</time>
      </trkpt>
      <trkpt lat="47.328390" lon="0.692790">
        <time>2017-06-24T13:42:18Z</time>
      </trkpt>
      <trkpt lat="47.328540" lon="0.692860">
        <time>2017-06-24T13:42:19Z</time>
      </trkpt>
      <trkpt lat="47.328710" lon="0.692930">
        <time>2017-06-24T13:42:20Z</time>
      </trkpt>
      <trkpt lat="47.328870" lon="0.692990">
        <time>2017-06-24T13:42:21Z</time>
      </trkpt>
      <trkpt lat="47.329030" lon="0.693070">
        <time>2017-06-24T13:42:22Z</time>
      </trkpt>
      <trkpt lat="47.329210" lon="0.693140">
        <time>2017-06-24T13:42:23Z</time>
      </trkpt>
      <trkpt lat="47.329370" lon="0.693210">
        <time>2017-06-24T13:42:24Z</time>
      </trkpt>
      <trkpt lat="47.329540" lon="0.693280">
        <time>2017-06-24T13:42:25Z</time>
      </trkpt>
      <trkpt lat="47.329710" lon="0.693360">
        <time>2017-06-24T13:42:26Z</time>
      </trkpt>
      <trkpt lat="47.329890" lon="0.693430">
        <time>2017-06-24T13:42:27Z</time>
      </trkpt>
      <trkpt lat="47.330080" lon="0.693510">
        <time>2017-06-24T13:42:28Z</time>
      </trkpt>
      <trkpt lat="47.330240" lon="0.693580">
        <time>2017-06-24T13:42:29Z</time>
      </trkpt>
      <trkpt lat="47.330420" lon="0.693650">
        <time>2017-06-24T13:42:30Z</time>
      </trkpt>
      <trkpt lat="47.330600" lon="0.693730">
        <time>2017-06-24T13:42:31Z</time>
      </trkpt>
      <trkpt lat="47.330760" lon="0.693800">
        <time>2017-06-24T13:42:32Z</time>
      </trkpt>
      <trkpt lat="47.330940" lon="0.693880">
        <time>2017-06-24T13:42:33Z</time>
      </trkpt>
      <trkpt lat="47.331130" lon="0.693960">
        <time>2017-06-24T13:42:34Z</time>
      </trkpt>
      <trkpt lat="47.331290" lon="0.694030">
        <time>2017-06-24T13:42:35Z</time>
      </trkpt>
      <trkpt lat="47.331470" lon="0.694110">
        <time>2017-06-24T13:42:36Z</time>
      </trkpt>
      <trkpt lat="47.331620" lon="0.694170">
        <time>2017-06-24T13:42:37Z</time>
      </trkpt>
      <trkpt lat="47.331790" lon="0.694240">
        <time>2017-06-24T13:42:38Z</time>
      </trkpt>
      <trkpt lat="47.331970" lon="0.694320">
        <time>2017-06-24T13:42:39Z</time>
      </trkpt>
      <trkpt lat="47.332130" lon="0.694380">
        <time>2017-06-24T13:42:40Z</time>
      </trkpt>
      <trkpt lat="47.332300" lon="0.694450">
        <time>2017-06-24T13:42:41Z</time>
      </trkpt>
      <trkpt lat="47.332480" lon="0.694520">
        <time>2017-06-24T13:42:42Z</time>
      </trkpt>
      <trkpt lat="47.332640" lon="0.694590">
        <time>2017-06-24T13:42:43Z</time>
      </trkpt>
      <trkpt lat="47.332830" lon="0.694670">
        <time>2017-06-24T13:42:44Z</time>
      </trkpt>
      <trkpt lat="47.332990" lon="0.694740">
        <time>2017-06-24T13:42:45Z</time>
      </trkpt>
      <trkpt lat="47.333160" lon="0.694810">
        <time>2017-06-24T13:42:46Z</time>
      </trkpt>
      <trkpt lat="47.333340" lon="0.694890">
        <time>2017-06-24T13:42:47Z</time>
      </trkpt>
      <trkpt lat="47.333510" lon="0.694950">
        <time>2017-06-24T13:42:48Z</time>
      </trkpt>
      <trkpt lat="47.333690" lon="0.695020">
        <time>2017-06-24T13:42:49Z</time>
      </trkpt>
      <trkpt lat="47.333870" lon="0.695100">
        <time>2017-06-24T13:42:50Z</time>
      </trkpt>
      <trkpt lat="47.334020" lon="0.695170">
        <time>2017-06-24T13:42:51Z</time>
      </trkpt>
      <trkpt lat="47.334200" lon="0.695250">
        <time>2017-06-24T13:42:52Z</time>
      </trkpt>
      <trkpt lat="47.334360" lon="0.695320">
        <time>2017-06-24T13:42:53Z</time>
      </trkpt>
      <trkpt lat="47.334520" lon="0.695380">
        <time>2017-06-24T13:42:54Z</time>
      </trkpt>
      <trkpt lat="47.334710" lon="0.695460">
        <time>2017-06-24T13:42:55Z</time>
      </trkpt>
      <trkpt lat="47.334870" lon="0.695530">
        <time>2017-06-24T13:42:56Z</time>
      </trkpt>
      <trkpt lat="47.335050" lon="0.695610">
        <time>2017-06-24T13:42:57Z</time>
      </trkpt>
      <trkpt lat="47.335230" lon="0.695680">
        <time>2017-06-24T13:42:58Z</time>
      </trkpt>
      <trkpt lat="47.335410" lon="0.695760">
        <time>2017-06-24T13:42:59Z</time>
      </trkpt>
      <trkpt lat="47.335600" lon="0.695830">
        <time>2017-06-24T13:43:00Z</time>
      </trkpt>
      <trkpt lat="47.335760" lon="0.695910">
        <time>2017-06-24T13:43:01Z</time>
      </trkpt>
      <trkpt lat="47.335940" lon="0.695980">
        <time>2017-06-24T13:43:02Z</time>
      </trkpt>
      <trkpt lat="47.336120" lon="0.696060">
        <time>2017-06-24T13:43:03Z</time>
      </trkpt>
      <trkpt lat="47.336280" lon="0.696120">
        <time>2017-06-24T13:43:04Z</time>
      </trkpt>
      <trkpt lat="47.336460" lon="0.696200">
        <time>2017-06-24T13:43:05Z</time>
      </trkpt>
      <trkpt lat="47.336650" lon="0.696280">
        <time>2017-06-24T13:43:06Z</time>
      </trkpt>
      <trkpt lat="47.336820" lon="0.696360">
        <time>2017-06-24T13:43:07Z</time>
      </trkpt>
      <trkpt lat="47.337010" lon="0.696430">
        <time>2017-06-24T13:43:08Z</time>
      </trkpt>
      <trkpt lat="47.337170" lon="0.696510">
        <time>2017-06-24T13:43:09Z</time>
      </trkpt>
      <trkpt lat="47.337360" lon="0.696590">
        <time>2017-06-24T13:43:10Z</time>
      </trkpt>
      <trkpt lat="47.337550" lon="0.696680">
        <time>2017-06-24T13:43:11Z</time>
      </trkpt>
      <trkpt lat="47.337720" lon="0.696760">
        <time>2017-06-24T13:43:12Z</time>
      </trkpt>
      <trkpt lat="47.337890" lon="0.696840">
        <time>2017-06-24T13:43:13Z</time>
      </trkpt>
      <trkpt lat="47.338080" lon="0.696930">
        <time>2017-06-24T13:43:14Z</time>
      </trkpt>
      <trkpt lat="47.338270" lon="0.697010">
        <time>2017-06-24T13:43:15Z</time>
      </trkpt>
      <trkpt lat="47.338470" lon="0.697110">
        <time>2017-06-24T13:43:16Z</time>
      </trkpt>
      <trkpt lat="47.338640" lon="0.697200">
        <time>2017-06-24T13:43:17Z</time>
      </trkpt>
      <trkpt lat="47.338830" lon="0.697290">
        <time>2017-06-24T13:43:18Z</time>
      </trkpt>
      <trkpt lat="47.339020" lon="0.697390">
        <time>2017-06-24T13:43:19Z</time>
      </trkpt>
      <trkpt lat="47.339180" lon="0.697470">
        <time>2017-06-24T13:43:20Z</time>
      </trkpt>
      <trkpt lat="47.339360" lon="0.697560">
        <time>2017-06-24T13:43:21Z</time>
      </trkpt>
      <trkpt lat="47.339530" lon="0.697650">
        <time>2017-06-24T13:43:22Z</time>
      </trkpt>
      <trkpt lat="47.339690" lon="0.697740">
        <time>2017-06-24T13:43:23Z</time>
      </trkpt>
      <trkpt lat="47.339870" lon="0.697830">
        <time>2017-06-24T13:43:24Z</time>
      </trkpt>
      <trkpt lat="47.340030" lon="0.697920">
        <time>2017-06-24T13:43:25Z</time>
      </trkpt>
      <trkpt lat="47.340200" lon="0.698010">
        <time>2017-06-24T13:43:26Z</time>
      </trkpt>
      <trkpt lat="47.340390" lon="0.698120">
        <time>2017-06-24T13:43:27Z</time>
      </trkpt>
      <trkpt lat="47.340560" lon="0.698210">
        <time>2017-06-24T13:43:28Z</time>
      </trkpt>
      <trkpt lat="47.340740" lon="0.698310">
        <time>2017-06-24T13:43:29Z</time>
      </trkpt>
      <trkpt lat="47.340920" lon="0.698410">
        <time>2017-06-24T13:43:30Z</time>
      </trkpt>
      <trkpt lat="47.341100" lon="0.698510">
        <time>2017-06-24T13:43:31Z</time>
      </trkpt>
      <trkpt lat="47.341280" lon="0.698620">
        <time>2017-06-24T13:43:32Z</time>
      </trkpt>
      <trkpt lat="47.341440" lon="0.698710">
        <time>2017-06-24T13:43:33Z</time>
      </trkpt>
      <trkpt lat="47.341610" lon="0.698810">
        <time>2017-06-24T13:43:34Z</time>
      </trkpt>
      <trkpt lat="47.341790" lon="0.698920">
        <time>2017-06-24T13:43:35Z</time>
      </trkpt>
      <trkpt lat="47.341950" lon="0.699010">
        <time>2017-06-24T13:43:36Z</time>
      </trkpt>
      <trkpt lat="47.342110" lon="0.699110">
        <time>2017-06-24T13:43:37Z</time>
      </trkpt>
      <trkpt lat="47.342290" lon="0.699220">
        <time>2017-06-24T13:43:38Z</time>
      </trkpt>
      <trkpt lat="47.342450" lon="0.699320">
        <time>2017-06-24T13:43:39Z</time>
      </trkpt>
      <trkpt lat="47.342640" lon="0.699440">
        <time>2017-06-24T13:43:40Z</time>
      </trkpt>
      <trkpt lat="47.342810" lon="0.699550">
        <time>2017-06-24T13:43:41Z</time>
      </trkpt>
      <trkpt lat="47.342990" lon="0.699670">
        <time>2017-06-24T13:43:42Z</time>
      </trkpt>
      <trkpt lat="47.343180" lon="0.699790">
        <time>2017-06-24T13:43:43Z</time>
      </trkpt>
      <trkpt lat="47.343350" lon="0.699880">
        <time>2017-06-24T13:43:44Z</time>
      </trkpt>
      <trkpt lat="47.343510" lon="0.699990">
        <time>2017-06-24T13:43:45Z</time>
      </trkpt>
      <trkpt lat="47.343680" lon="0.700090">
        <time>2017-06-24T13:43:46Z</time>
      </trkpt>
      <trkpt lat="47.343840" lon="0.700190">
        <time>2017-06-24T13:43:47Z</time>
      </trkpt>
      <trkpt lat="47.344020" lon="0.700300">
        <time>2017-06-24T13:43:48Z</time>
      </trkpt>
      <trkpt lat="47.344170" lon="0.700410">
        <time>2017-06-24T13:43:49Z</time>
      </trkpt>
      <trkpt lat="47.344340" lon="0.700520">
        <time>2017-06-24T13:43:50Z</time>
      </trkpt>
      <trkpt lat="47.344520" lon="0.700640">
        <time>2017-06-24T13:43:51Z</time>
      </trkpt>
      <trkpt lat="47.344670" lon="0.700740">
        <time>2017-06-24T13:43:52Z</time>
      </trkpt>
      <trkpt lat="47.344840" lon="0.700850">
        <time>2017-06-24T13:43:53Z</time>
      </trkpt>
      <trkpt lat="47.345010" lon="0.700970">
        <time>2017-06-24T13:43:54Z</time>
      </trkpt>
      <trkpt lat="47.345170" lon="0.701080">
        <time>2017-06-24T13:43:55Z</time>
      </trkpt>
      <trkpt lat="47.345360" lon="0.701200">
        <time>2017-06-24T13:43:56Z</time>
      </trkpt>
      <trkpt lat="47.345520" lon="0.701310">
        <time>2017-06-24T13:43:57Z</time>
      </trkpt>
      <trkpt lat="47.345690" lon="0.701430">
        <time>2017-06-24T13:43:58Z</time>
      </trkpt>
      <trkpt lat="47.345870" lon="0.701540">
        <time>2017-06-24T13:43:59Z</time>
      </trkpt>
      <trkpt lat="47.346030" lon="0.701640">
        <time>2017-06-24T13:44:00Z</time>
      </trkpt>
      <trkpt lat="47.346190" lon="0.701760">
        <time>2017-06-24T13:44:01Z</time>
      </trkpt>
      <trkpt lat="47.346360" lon="0.701870">
        <time>2017-06-24T13:44:02Z</time>
      </trkpt>
      <trkpt lat="47.346530" lon="0.701990">
        <time>2017-06-24T13:44:03Z</time>
      </trkpt>
      <trkpt lat="47.346720" lon="0.702100">
        <time>2017-06-24T13:44:04Z</time>
      </trkpt>
      <trkpt lat="47.346870" lon="0.702210">
        <time>2017-06-24T13:44:05Z</time>
      </trkpt>
      <trkpt lat="47.347040" lon="0.702330">
        <time>2017-06-24T13:44:06Z</time>
      </trkpt>
      <trkpt lat="47.347230" lon="0.702450">
        <time>2017-06-24T13:44:07Z</time>
      </trkpt>
      <trkpt lat="47.347390" lon="0.702560">
        <time>2017-06-24T13:44:08Z</time>
      </trkpt>
      <trkpt lat="47.347560" lon="0.702680">
        <time>2017-06-24T13:44:09Z</time>
      </trkpt>
      <trkpt lat="47.347740" lon="0.702790">
        <time>2017-06-24T13:44:10Z</time>
      </trkpt>
      <trkpt lat="47.347890" lon="0.702900">
        <time>2017-06-24T13:44:11Z</time>
      </trkpt>
      <trkpt lat="47.348060" lon="0.703020">
        <time>2017-06-24T13:44:12Z</time>
      </trkpt>
      <trkpt lat="47.348210" lon="0.703110">
        <time>2017-06-24T13:44:13Z</time>
      </trkpt>
      <trkpt lat="47.348380" lon="0.703220">
        <time>2017-06-24T13:44:14Z</time>
      </trkpt>
      <trkpt lat="47.348550" lon="0.703360">
        <time>2017-06-24T13:44:15Z</time>
      </trkpt>
      <trkpt lat="47.348700" lon="0.703460">
        <time>2017-06-24T13:44:16Z</time>
      </trkpt>
      <trkpt lat="47.348860" lon="0.703560">
        <time>2017-06-24T13:44:17Z</time>
      </trkpt>
      <trkpt lat="47.349030" lon="0.703670">
        <time>2017-06-24T13:44:18Z</time>
      </trkpt>
      <trkpt lat="47.349200" lon="0.703780">
        <time>2017-06-24T13:44:19Z</time>
      </trkpt>
      <trkpt lat="47.349370" lon="0.703910">
        <time>2017-06-24T13:44:20Z</time>
      </trkpt>
      <trkpt lat="47.349530" lon="0.704010">
        <time>2017-06-24T13:44:21Z</time>
      </trkpt>
      <trkpt lat="47.349690" lon="0.704130">
        <time>2017-06-24T13:44:22Z</time>
      </trkpt>
      <trkpt lat="47.349870" lon="0.704250">
        <time>2017-06-24T13:44:23Z</time>
      </trkpt>
      <trkpt lat="47.350030" lon="0.704350">
        <time>2017-06-24T13:44:24Z</time>
      </trkpt>
      <trkpt lat="47.350200" lon="0.704470">
        <time>2017-06-24T13:44:25Z</time>
      </trkpt>
      <trkpt lat="47.350390" lon="0.704600">
        <time>2017-06-24T13:44:26Z</time>
      </trkpt>
      <trkpt lat="47.350560" lon="0.704710">
        <time>2017-06-24T13:44:27Z</time>
      </trkpt>
      <trkpt lat="47.350750" lon="0.704840">
        <time>2017-06-24T13:44:28Z</time>
      </trkpt>
      <trkpt lat="47.350910" lon="0.704950">
        <time>2017-06-24T13:44:29Z</time>
      </trkpt>
      <trkpt lat="47.351090" lon="0.705070">
        <time>2017-06-24T13:44:30Z</time>
      </trkpt>
      <trkpt lat="47.351270" lon="0.705200">
        <time>2017-06-24T13:44:31Z</time>
      </trkpt>
      <trkpt lat="47.351430" lon="0.705310">
        <time>2017-06-24T13:44:32Z</time>
      </trkpt>
      <trkpt lat="47.351610" lon="0.705430">
        <time>2017-06-24T13:44:33Z</time>
      </trkpt>
      <trkpt lat="47.351790" lon="0.705550">
        <time>2017-06-24T13:44:34Z</time>
      </trkpt>
      <trkpt lat="47.351960" lon="0.705680">
        <time>2017-06-24T13:44:35Z</time>
      </trkpt>
      <trkpt lat="47.352150" lon="0.705800">
        <time>2017-06-24T13:44:36Z</time>
      </trkpt>
      <trkpt lat="47.352300" lon="0.705910">
        <time>2017-06-24T13:44:37Z</time>
      </trkpt>
      <trkpt lat="47.352470" lon="0.706010">
        <time>2017-06-24T13:44:38Z</time>
      </trkpt>
      <trkpt lat="47.352640" lon="0.706130">
        <time>2017-06-24T13:44:39Z</time>
      </trkpt>
      <trkpt lat="47.352780" lon="0.706230">
        <time>2017-06-24T13:44:40Z</time>
      </trkpt>
      <trkpt lat="47.352940" lon="0.706330">
        <time>2017-06-24T13:44:41Z</time>
      </trkpt>
      <trkpt lat="47.353110" lon="0.706450">
        <time>2017-06-24T13:44:42Z</time>
      </trkpt>
      <trkpt lat="47.353250" lon="0.706540">
        <time>2017-06-24T13:44:43Z</time>
      </trkpt>
      <trkpt lat="47.353420" lon="0.706640">
        <time>2017-06-24T13:44:44Z</time>
      </trkpt>
      <trkpt lat="47.353560" lon="0.706740">
        <time>2017-06-24T13:44:45Z</time>
      </trkpt>
      <trkpt lat="47.353710" lon="0.706840">
        <time>2017-06-24T13:44:46Z</time>
      </trkpt>
      <trkpt lat="47.353870" lon="0.706950">
        <time>2017-06-24T13:44:47Z</time>
      </trkpt>
      <trkpt lat="47.354020" lon="0.707050">
        <time>2017-06-24T13:44:48Z</time>
      </trkpt>
      <trkpt lat="47.354180" lon="0.707150">
        <time>2017-06-24T13:44:49Z</time>
      </trkpt>
      <trkpt lat="47.354320" lon="0.707250">
        <time>2017-06-24T13:44:50Z</time>
      </trkpt>
      <trkpt lat="47.354470" lon="0.707350">
        <time>2017-06-24T13:44:51Z</time>
      </trkpt>
      <trkpt lat="47.354630" lon="0.707450">
        <time>2017-06-24T13:44:52Z</time>
      </trkpt>
      <trkpt lat="47.354750" lon="0.707540">
        <time>2017-06-24T13:44:53Z</time>
      </trkpt>
      <trkpt lat="47.354900" lon="0.707640">
        <time>2017-06-24T13:44:54Z</time>
      </trkpt>
      <trkpt lat="47.355050" lon="0.707750">
        <time>2017-06-24T13:44:55Z</time>
      </trkpt>
      <trkpt lat="47.355190" lon="0.707840">
        <time>2017-06-24T13:44:56Z</time>
      </trkpt>
      <trkpt lat="47.355330" lon="0.707950">
        <time>2017-06-24T13:44:57Z</time>
      </trkpt>
      <trkpt lat="47.355500" lon="0.708050">
        <time>2017-06-24T13:44:58Z</time>
      </trkpt>
      <trkpt lat="47.355650" lon="0.708160">
        <time>2017-06-24T13:44:59Z</time>
      </trkpt>
      <trkpt lat="47.355820" lon="0.708270">
        <time>2017-06-24T13:45:00Z</time>
      </trkpt>
      <trkpt lat="47.355980" lon="0.708380">
        <time>2017-06-24T13:45:01Z</time>
      </trkpt>
      <trkpt lat="47.356150" lon="0.708480">
        <time>2017-06-24T13:45:02Z</time>
      </trkpt>
      <trkpt lat="47.356330" lon="0.708590">
        <time>2017-06-24T13:45:03Z</time>
      </trkpt>
      <trkpt lat="47.356490" lon="0.708700">
        <time>2017-06-24T13:45:04Z</time>
      </trkpt>
      <trkpt lat="47.356650" lon="0.708810">
        <time>2017-06-24T13:45:05Z</time>
      </trkpt>
      <trkpt lat="47.356820" lon="0.708920">
        <time>2017-06-24T13:45:06Z</time>
      </trkpt>
      <trkpt lat="47.356980" lon="0.709030">
        <time>2017-06-24T13:45:07Z</time>
      </trkpt>
      <trkpt lat="47.357160" lon="0.709140">
        <time>2017-06-24T13:45:08Z</time>
      </trkpt>
      <trkpt lat="47.357310" lon="0.709240">
        <time>2017-06-24T13:45:09Z</time>
      </trkpt>
      <trkpt lat="47.357490" lon="0.709350">
        <time>2017-06-24T13:45:10Z</time>
      </trkpt>
      <trkpt lat="47.357680" lon="0.709470">
        <time>2017-06-24T13:45:11Z</time>
      </trkpt>
      <trkpt lat="47.357850" lon="0.709570">
        <time>2017-06-24T13:45:12Z</time>
      </trkpt>
      <trkpt lat="47.358050" lon="0.709700">
        <time>2017-06-24T13:45:13Z</time>
      </trkpt>
      <trkpt lat="47.358280" lon="0.709840">
        <time>2017-06-24T13:45:14Z</time>
      </trkpt>
      <trkpt lat="47.358470" lon="0.709960">
        <time>2017-06-24T13:45:15Z</time>
      </trkpt>
      <trkpt lat="47.358700" lon="0.710100">
        <time>2017-06-24T13:45:16Z</time>
      </trkpt>
      <trkpt lat="47.358890" lon="0.710230">
        <time>2017-06-24T13:45:17Z</time>
      </trkpt>
      <trkpt lat="47.359110" lon="0.710360">
        <time>2017-06-24T13:45:18Z</time>
      </trkpt>
      <trkpt lat="47.359340" lon="0.710500">
        <time>2017-06-24T13:45:19Z</time>
      </trkpt>
      <trkpt lat="47.359540" lon="0.710620">
        <time>2017-06-24T13:45:20Z</time>
      </trkpt>
      <trkpt lat="47.359760" lon="0.710760">
        <time>2017-06-24T13:45:21Z</time>
      </trkpt>
      <trkpt lat="47.359970" lon="0.710890">
        <time>2017-06-24T13:45:22Z</time>
      </trkpt>
      <trkpt lat="47.360190" lon="0.711030">
        <time>2017-06-24T13:45:23Z</time>
      </trkpt>
      <trkpt lat="47.360410" lon="0.711170">
        <time>2017-06-24T13:45:24Z</time>
      </trkpt>
      <trkpt lat="47.360620" lon="0.711290">
        <time>2017-06-24T13:45:25Z</time>
      </trkpt>
      <trkpt lat="47.360840" lon="0.711430">
        <time>2017-06-24T13:45:26Z</time>
      </trkpt>
      <trkpt lat="47.361080" lon="0.711570">
        <time>2017-06-24T13:45:27Z</time>
      </trkpt>
      <trkpt lat="47.361290" lon="0.711700">
        <time>2017-06-24T13:45:28Z</time>
      </trkpt>
      <trkpt lat="47.361510" lon="0.711840">
        <time>2017-06-24T13:45:29Z</time>
      </trkpt>
      <trkpt lat="47.361750" lon="0.711990">
        <time>2017-06-24T13:45:30Z</time>
      </trkpt>
      <trkpt lat="47.361970" lon="0.712110">
        <time>2017-06-24T13:45:31Z</time>
      </trkpt>
      <trkpt lat="47.362210" lon="0.712250">
        <time>2017-06-24T13:45:32Z</time>
      </trkpt>
      <trkpt lat="47.362420" lon="0.712370">
        <time>2017-06-24T13:45:33Z</time>
      </trkpt>
      <trkpt lat="47.362640" lon="0.712500">
        <time>2017-06-24T13:45:34Z</time>
      </trkpt>
      <trkpt lat="47.362870" lon="0.712620">
        <time>2017-06-24T13:45:35Z</time>
      </trkpt>
      <trkpt lat="47.363060" lon="0.712740">
        <time>2017-06-24T13:45:36Z</time>
      </trkpt>
      <trkpt lat="47.363270" lon="0.712870">
        <time>2017-06-24T13:45:37Z</time>
      </trkpt>
      <trkpt lat="47.363480" lon="0.712980">
        <time>2017-06-24T13:45:38Z</time>
      </trkpt>
      <trkpt lat="47.363690" lon="0.713100">
        <time>2017-06-24T13:45:39Z</time>
      </trkpt>
      <trkpt lat="47.363920" lon="0.713230">
        <time>2017-06-24T13:45:40Z</time>
      </trkpt>
      <trkpt lat="47.364110" lon="0.713330">
        <time>2017-06-24T13:45:41Z</time>
      </trkpt>
      <trkpt lat="47.364330" lon="0.713450">
        <time>2017-06-24T13:45:42Z</time>
      </trkpt>
      <trkpt lat="47.364560" lon="0.713570">
        <time>2017-06-24T13:45:43Z</time>
      </trkpt>
      <trkpt lat="47.364760" lon="0.713670">
        <time>2017-06-24T13:45:44Z</time>
      </trkpt>
      <trkpt lat="47.364980" lon="0.713780">
        <time>2017-06-24T13:45:45Z</time>
      </trkpt>
      <trkpt lat="47.365210" lon="0.713900">
        <time>2017-06-24T13:45:46Z</time>
      </trkpt>
      <trkpt lat="47.365410" lon="0.713990">
        <time>2017-06-24T13:45:47Z</time>
      </trkpt>
      <trkpt lat="47.365650" lon="0.714100">
        <time>2017-06-24T13:45:48Z</time>
      </trkpt>
      <trkpt lat="47.365860" lon="0.714200">
        <time>2017-06-24T13:45:49Z</time>
      </trkpt>
      <trkpt lat="47.366090" lon="0.714310">
        <time>2017-06-24T13:45:50Z</time>
      </trkpt>
      <trkpt lat="47.366350" lon="0.714420">
        <time>2017-06-24T13:45:51Z</time>
      </trkpt>
      <trkpt lat="47.366570" lon="0.714510">
        <time>2017-06-24T13:45:52Z</time>
      </trkpt>
      <trkpt lat="47.366820" lon="0.714610">
        <time>2017-06-24T13:45:53Z</time>
      </trkpt>
      <trkpt lat="47.367060" lon="0.714700">
        <time>2017-06-24T13:45:54Z</time>
      </trkpt>
      <trkpt lat="47.367300" lon="0.714790">
        <time>2017-06-24T13:45:55Z</time>
      </trkpt>
      <trkpt lat="47.367550" lon="0.714880">
        <time>2017-06-24T13:45:56Z</time>
      </trkpt>
      <trkpt lat="47.367780" lon="0.714960">
        <time>2017-06-24T13:45:57Z</time>
      </trkpt>
      <trkpt lat="47.368020" lon="0.715030">
        <time>2017-06-24T13:45:58Z</time>
      </trkpt>
      <trkpt lat="47.368280" lon="0.715110">
        <time>2017-06-24T13:45:59Z</time>
      </trkpt>
      <trkpt lat="47.368500" lon="0.715180">
        <time>2017-06-24T13:46:00Z</time>
      </trkpt>
      <trkpt lat="47.368720" lon="0.715240">
        <time>2017-06-24T13:46:01Z</time>
      </trkpt>
      <trkpt lat="47.368960" lon="0.715310">
        <time>2017-06-24T13:46:02Z</time>
      </trkpt>
      <trkpt lat="47.369160" lon="0.715370">
        <time>2017-06-24T13:46:03Z</time>
      </trkpt>
      <trkpt lat="47.369390" lon="0.715430">
        <time>2017-06-24T13:46:04Z</time>
      </trkpt>
      <trkpt lat="47.369590" lon="0.715470">
        <time>2017-06-24T13:46:05Z</time>
      </trkpt>
      <trkpt lat="47.369800" lon="0.715500">
        <time>2017-06-24T13:46:06Z</time>
      </trkpt>
      <trkpt lat="47.370030" lon="0.715530">
        <time>2017-06-24T13:46:07Z</time>
      </trkpt>
      <trkpt lat="47.370230" lon="0.715550">
        <time>2017-06-24T13:46:08Z</time>
      </trkpt>
      <trkpt lat="47.370450" lon="0.715560">
        <time>2017-06-24T13:46:09Z</time>
      </trkpt>
      <trkpt lat="47.370680" lon="0.715570">
        <time>2017-06-24T13:46:10Z</time>
      </trkpt>
      <trkpt lat="47.370920" lon="0.715580">
        <time>2017-06-24T13:46:11Z</time>
      </trkpt>
      <trkpt lat="47.371180" lon="0.715590">
        <time>2017-06-24T13:46:12Z</time>
      </trkpt>
      <trkpt lat="47.371400" lon="0.715600">
        <time>2017-06-24T13:46:13Z</time>
      </trkpt>
      <trkpt lat="47.371650" lon="0.715600">
        <time>2017-06-24T13:46:14Z</time>
      </trkpt>
      <trkpt lat="47.371910" lon="0.715610">
        <time>2017-06-24T13:46:15Z</time>
      </trkpt>
      <trkpt lat="47.372130" lon="0.715600">
        <time>2017-06-24T13:46:16Z</time>
      </trkpt>
      <trkpt lat="47.372370" lon="0.715590">
        <time>2017-06-24T13:46:17Z</time>
      </trkpt>
      <trkpt lat="47.372620" lon="0.715570">
        <time>2017-06-24T13:46:18Z</time>
      </trkpt>
      <trkpt lat="47.372840" lon="0.715560">
        <time>2017-06-24T13:46:19Z</time>
      </trkpt>
      <trkpt lat="47.373090" lon="0.715530">
        <time>2017-06-24T13:46:20Z</time>
      </trkpt>
      <trkpt lat="47.373310" lon="0.715510">
        <time>2017-06-24T13:46:21Z</time>
      </trkpt>
      <trkpt lat="47.373540" lon="0.715480">
        <time>2017-06-24T13:46:22Z</time>
      </trkpt>
      <trkpt lat="47.373790" lon="0.715450">
        <time>2017-06-24T13:46:23Z</time>
      </trkpt>
      <trkpt lat="47.374010" lon="0.715420">
        <time>2017-06-24T13:46:24Z</time>
      </trkpt>
      <trkpt lat="47.374250" lon="0.715380">
        <time>2017-06-24T13:46:25Z</time>
      </trkpt>
      <trkpt lat="47.374490" lon="0.715340">
        <time>2017-06-24T13:46:26Z</time>
      </trkpt>
      <trkpt lat="47.374730" lon="0.715300">
        <time>2017-06-24T13:46:27Z</time>
      </trkpt>
      <trkpt lat="47.374980" lon="0.715240">
        <time>2017-06-24T13:46:28Z</time>
      </trkpt>
      <trkpt lat="47.375210" lon="0.715180">
        <time>2017-06-24T13:46:29Z</time>
      </trkpt>
      <trkpt lat="47.375440" lon="0.715110">
        <time>2017-06-24T13:46:30Z</time>
      </trkpt>
      <trkpt lat="47.375690" lon="0.715030">
        <time>2017-06-24T13:46:31Z</time>
      </trkpt>
      <trkpt lat="47.375910" lon="0.714950">
        <time>2017-06-24T13:46:32Z</time>
      </trkpt>
      <trkpt lat="47.376140" lon="0.714870">
        <time>2017-06-24T13:46:33Z</time>
      </trkpt>
      <trkpt lat="47.376370" lon="0.714780">
        <time>2017-06-24T13:46:34Z</time>
      </trkpt>
      <trkpt lat="47.376580" lon="0.714700">
        <time>2017-06-24T13:46:35Z</time>
      </trkpt>
      <trkpt lat="47.376830" lon="0.714590">
        <time>2017-06-24T13:46:36Z</time>
      </trkpt>
      <trkpt lat="47.377040" lon="0.714500">
        <time>2017-06-24T13:46:37Z</time>
      </trkpt>
      <trkpt lat="47.377260" lon="0.714390">
        <time>2017-06-24T13:46:38Z</time>
      </trkpt>
      <trkpt lat="47.377510" lon="0.714280">
        <time>2017-06-24T13:46:39Z</time>
      </trkpt>
      <trkpt lat="47.377720" lon="0.714170">
        <time>2017-06-24T13:46:40Z</time>
      </trkpt>
      <trkpt lat="47.377940" lon="0.714060">
        <time>2017-06-24T13:46:41Z</time>
      </trkpt>
      <trkpt lat="47.378150" lon="0.713940">
        <time>2017-06-24T13:46:42Z</time>
      </trkpt>
      <trkpt lat="47.378360" lon="0.713830">
        <time>2017-06-24T13:46:43Z</time>
      </trkpt>
      <trkpt lat="47.378580" lon="0.713710">
        <time>2017-06-24T13:46:44Z</time>
      </trkpt>
      <trkpt lat="47.378770" lon="0.713600">
        <time>2017-06-24T13:46:45Z</time>
      </trkpt>
      <trkpt lat="47.378970" lon="0.713490">
        <time>2017-06-24T13:46:46Z</time>
      </trkpt>
      <trkpt lat="47.379180" lon="0.713360">
        <time>2017-06-24T13:46:47Z</time>
      </trkpt>
      <trkpt lat="47.379370" lon="0.713240">
        <time>2017-06-24T13:46:48Z</time>
      </trkpt>
      <trkpt lat="47.379570" lon="0.713120">
        <time>2017-06-24T13:46:49Z</time>
      </trkpt>
      <trkpt lat="47.379780" lon="0.713000">
        <time>2017-06-24T13:46:50Z</time>
      </trkpt>
      <trkpt lat="47.379960" lon="0.712890">
        <time>2017-06-24T13:46:51Z</time>
      </trkpt>
      <trkpt lat="47.380180" lon="0.712760">
        <time>2017-06-24T13:46:52Z</time>
      </trkpt>
      <trkpt lat="47.380350" lon="0.712660">
        <time>2017-06-24T13:46:53Z</time>
      </trkpt>
      <trkpt lat="47.380560" lon="0.712540">
        <time>2017-06-24T13:46:54Z</time>
      </trkpt>
      <trkpt lat="47.380770" lon="0.712420">
        <time>2017-06-24T13:46:55Z</time>
      </trkpt>
      <trkpt lat="47.380960" lon="0.712310">
        <time>2017-06-24T13:46:56Z</time>
      </trkpt>
      <trkpt lat="47.381160" lon="0.712190">
        <time>2017-06-24T13:46:57Z</time>
      </trkpt>
      <trkpt lat="47.381370" lon="0.712070">
        <time>2017-06-24T13:46:58Z</time>
      </trkpt>
      <trkpt lat="47.381580" lon="0.711950">
        <time>2017-06-24T13:46:59Z</time>
      </trkpt>
      <trkpt lat="47.381800" lon="0.711820">
        <time>2017-06-24T13:47:00Z</time>
      </trkpt>
      <trkpt lat="47.382000" lon="0.711700">
        <time>2017-06-24T13:47:01Z</time>
      </trkpt>
      <trkpt lat="47.382220" lon="0.711580">
        <time>2017-06-24T13:47:02Z</time>
      </trkpt>
      <trkpt lat="47.382440" lon="0.711440">
        <time>2017-06-24T13:47:03Z</time>
      </trkpt>
      <trkpt lat="47.382640" lon="0.711330">
        <time>2017-06-24T13:47:04Z</time>
      </trkpt>
      <trkpt lat="47.382850" lon="0.711210">
        <time>2017-06-24T13:47:05Z</time>
      </trkpt>
      <trkpt lat="47.383070" lon="0.711080">
        <time>2017-06-24T13:47:06Z</time>
      </trkpt>
      <trkpt lat="47.383270" lon="0.710970">
        <time>2017-06-24T13:47:07Z</time>
      </trkpt>
      <trkpt lat="47.383490" lon="0.710840">
        <time>2017-06-24T13:47:08Z</time>
      </trkpt>
      <trkpt lat="47.383690" lon="0.710720">
        <time>2017-06-24T13:47:09Z</time>
      </trkpt>
      <trkpt lat="47.383900" lon="0.710610">
        <time>2017-06-24T13:47:10Z</time>
      </trkpt>
      <trkpt lat="47.384120" lon="0.710470">
        <time>2017-06-24T13:47:11Z</time>
      </trkpt>
      <trkpt lat="47.384320" lon="0.710360">
        <time>2017-06-24T13:47:12Z</time>
      </trkpt>
      <trkpt lat="47.384540" lon="0.710240">
        <time>2017-06-24T13:47:13Z</time>
      </trkpt>
      <trkpt lat="47.384750" lon="0.710110">
        <time>2017-06-24T13:47:14Z</time>
      </trkpt>
      <trkpt lat="47.384960" lon="0.709980">
        <time>2017-06-24T13:47:15Z</time>
      </trkpt>
      <trkpt lat="47.385180" lon="0.709850">
        <time>2017-06-24T13:47:16Z</time>
      </trkpt>
      <trkpt lat="47.385390" lon="0.709740">
        <time>2017-06-24T13:47:17Z</time>
      </trkpt>
      <trkpt lat="47.385600" lon="0.709610">
        <time>2017-06-24T13:47:18Z</time>
      </trkpt>
      <trkpt lat="47.385830" lon="0.709490">
        <time>2017-06-24T13:47:19Z</time>
      </trkpt>
      <trkpt lat="47.386030" lon="0.709370">
        <time>2017-06-24T13:47:20Z</time>
      </trkpt>
      <trkpt lat="47.386240" lon="0.709250">
        <time>2017-06-24T13:47:21Z</time>
      </trkpt>
      <trkpt lat="47.386460" lon="0.709120">
        <time>2017-06-24T13:47:22Z</time>
      </trkpt>
      <trkpt lat="47.386660" lon="0.708990">
        <time>2017-06-24T13:47:23Z</time>
      </trkpt>
      <trkpt lat="47.386890" lon="0.708860">
        <time>2017-06-24T13:47:24Z</time>
      </trkpt>
      <trkpt lat="47.387080" lon="0.708750">
        <time>2017-06-24T13:47:25Z</time>
      </trkpt>
      <trkpt lat="47.387290" lon="0.708620">
        <time>2017-06-24T13:47:26Z</time>
      </trkpt>
      <trkpt lat="47.387520" lon="0.708490">
        <time>2017-06-24T13:47:27Z</time>
      </trkpt>
      <trkpt lat="47.387720" lon="0.708380">
        <time>2017-06-24T13:47:28Z</time>
      </trkpt>
      <trkpt lat="47.387930" lon="0.708260">
        <time>2017-06-24T13:47:29Z</time>
      </trkpt>
      <trkpt lat="47.388120" lon="0.708140">
        <time>2017-06-24T13:47:30Z</time>
      </trkpt>
      <trkpt lat="47.388310" lon="0.708030">
        <time>2017-06-24T13:47:31Z</time>
      </trkpt>
      <trkpt lat="47.388530" lon="0.707910">
        <time>2017-06-24T13:47:32Z</time>
      </trkpt>
      <trkpt lat="47.388710" lon="0.707820">
        <time>2017-06-24T13:47:33Z</time>
      </trkpt>
      <trkpt lat="47.388900" lon="0.707700">
        <time>2017-06-24T13:47:34Z</time>
      </trkpt>
      <trkpt lat="47.389110" lon="0.707570">
        <time>2017-06-24T13:47:35Z</time>
      </trkpt>
      <trkpt lat="47.389290" lon="0.707460">
        <time>2017-06-24T13:47:36Z</time>
      </trkpt>
      <trkpt lat="47.389500" lon="0.707340">
        <time>2017-06-24T13:47:37Z</time>
      </trkpt>
      <trkpt lat="47.389700" lon="0.707220">
        <time>2017-06-24T13:47:38Z</time>
      </trkpt>
      <trkpt lat="47.389880" lon="0.707120">
        <time>2017-06-24T13:47:39Z</time>
      </trkpt>
      <trkpt lat="47.390080" lon="0.707010">
        <time>2017-06-24T13:47:40Z</time>
      </trkpt>
      <trkpt lat="47.390260" lon="0.706910">
        <time>2017-06-24T13:47:41Z</time>
      </trkpt>
      <trkpt lat="47.390450" lon="0.706810">
        <time>2017-06-24T13:47:42Z</time>
      </trkpt>
      <trkpt lat="47.390640" lon="0.706690">
        <time>2017-06-24T13:47:43Z</time>
      </trkpt>
      <trkpt lat="47.390810" lon="0.706590">
        <time>2017-06-24T13:47:44Z</time>
      </trkpt>
      <trkpt lat="47.391000" lon="0.706490">
        <time>2017-06-24T13:47:45Z</time>
      </trkpt>
      <trkpt lat="47.391180" lon="0.706380">
        <time>2017-06-24T13:47:46Z</time>
      </trkpt>
      <trkpt lat="47.391370" lon="0.706280">
        <time>2017-06-24T13:47:47Z</time>
      </trkpt>
      <trkpt lat="47.391580" lon="0.706180">
        <time>2017-06-24T13:47:48Z</time>
      </trkpt>
      <trkpt lat="47.391770" lon="0.706100">
        <time>2017-06-24T13:47:49Z</time>
      </trkpt>
      <trkpt lat="47.391970" lon="0.706020">
        <time>2017-06-24T13:47:50Z</time>
      </trkpt>
      <trkpt lat="47.392200" lon="0.705950">
        <time>2017-06-24T13:47:51Z</time>
      </trkpt>
      <trkpt lat="47.392400" lon="0.705910">
        <time>2017-06-24T13:47:52Z</time>
      </trkpt>
      <trkpt lat="47.392620" lon="0.705890">
        <time>2017-06-24T13:47:53Z</time>
      </trkpt>
      <trkpt lat="47.392860" lon="0.705880">
        <time>2017-06-24T13:47:54Z</time>
      </trkpt>
      <trkpt lat="47.393070" lon="0.705890">
        <time>2017-06-24T13:47:55Z</time>
      </trkpt>
      <trkpt lat="47.393310" lon="0.705910">
        <time>2017-06-24T13:47:56Z</time>
      </trkpt>
      <trkpt lat="47.393520" lon="0.705930">
        <time>2017-06-24T13:47:57Z</time>
      </trkpt>
      <trkpt lat="47.393740" lon="0.705980">
        <time>2017-06-24T13:47:58Z</time>
      </trkpt>
      <trkpt lat="47.393980" lon="0.706050">
        <time>2017-06-24T13:47:59Z</time>
      </trkpt>
      <trkpt lat="47.394180" lon="0.706130">
        <time>2017-06-24T13:48:00Z</time>
      </trkpt>
      <trkpt lat="47.394400" lon="0.706220">
        <time>2017-06-24T13:48:01Z</time>
      </trkpt>
      <trkpt lat="47.394610" lon="0.706330">
        <time>2017-06-24T13:48:02Z</time>
      </trkpt>
      <trkpt lat="47.394810" lon="0.706450">
        <time>2017-06-24T13:48:03Z</time>
      </trkpt>
      <trkpt lat="47.395020" lon="0.706580">
        <time>2017-06-24T13:48:04Z</time>
      </trkpt>
      <trkpt lat="47.395200" lon="0.706700">
        <time>2017-06-24T13:48:05Z</time>
      </trkpt>
      <trkpt lat="47.395380" lon="0.706840">
        <time>2017-06-24T13:48:06Z</time>
      </trkpt>
      <trkpt lat="47.395580" lon="0.706990">
        <time>2017-06-24T13:48:07Z</time>
      </trkpt>
      <trkpt lat="47.395750" lon="0.707130">
        <time>2017-06-24T13:48:08Z</time>
      </trkpt>
      <trkpt lat="47.395930" lon="0.707280">
        <time>2017-06-24T13:48:09Z</time>
      </trkpt>
      <trkpt lat="47.396130" lon="0.707440">
        <time>2017-06-24T13:48:10Z</time>
      </trkpt>
      <trkpt lat="47.396300" lon="0.707590">
        <time>2017-06-24T13:48:11Z</time>
      </trkpt>
      <trkpt lat="47.396520" lon="0.707760">
        <time>2017-06-24T13:48:12Z</time>
      </trkpt>
      <trkpt lat="47.396700" lon="0.707910">
        <time>2017-06-24T13:48:13Z</time>
      </trkpt>
      <trkpt lat="47.396900" lon="0.708070">
        <time>2017-06-24T13:48:14Z</time>
      </trkpt>
      <trkpt lat="47.397110" lon="0.708240">
        <time>2017-06-24T13:48:15Z</time>
      </trkpt>
      <trkpt lat="47.397290" lon="0.708390">
        <time>2017-06-24T13:48:16Z</time>
      </trkpt>
      <trkpt lat="47.397490" lon="0.708550">
        <time>2017-06-24T13:48:17Z</time>
      </trkpt>
      <trkpt lat="47.397680" lon="0.708700">
        <time>2017-06-24T13:48:18Z</time>
      </trkpt>
      <trkpt lat="47.397870" lon="0.708860">
        <time>2017-06-24T13:48:19Z</time>
      </trkpt>
      <trkpt lat="47.398070" lon="0.709040">
        <time>2017-06-24T13:48:20Z</time>
      </trkpt>
      <trkpt lat="47.398250" lon="0.709190">
        <time>2017-06-24T13:48:21Z</time>
      </trkpt>
      <trkpt lat="47.398440" lon="0.709350">
        <time>2017-06-24T13:48:22Z</time>
      </trkpt>
      <trkpt lat="47.398640" lon="0.709500">
        <time>2017-06-24T13:48:23Z</time>
      </trkpt>
      <trkpt lat="47.398810" lon="0.709640">
        <time>2017-06-24T13:48:24Z</time>
      </trkpt>
      <trkpt lat="47.398970" lon="0.709770">
        <time>2017-06-24T13:48:25Z</time>
      </trkpt>
      <trkpt lat="47.399150" lon="0.709920">
        <time>2017-06-24T13:48:26Z</time>
      </trkpt>
      <trkpt lat="47.399310" lon="0.710040">
        <time>2017-06-24T13:48:27Z</time>
      </trkpt>
      <trkpt lat="47.399490" lon="0.710190">
        <time>2017-06-24T13:48:28Z</time>
      </trkpt>
      <trkpt lat="47.399650" lon="0.710320">
        <time>2017-06-24T13:48:29Z</time>
      </trkpt>
      <trkpt lat="47.399820" lon="0.710460">
        <time>2017-06-24T13:48:30Z</time>
      </trkpt>
      <trkpt lat="47.400000" lon="0.710610">
        <time>2017-06-24T13:48:31Z</time>
      </trkpt>
      <trkpt lat="47.400160" lon="0.710750">
        <time>2017-06-24T13:48:32Z</time>
      </trkpt>
      <trkpt lat="47.400330" lon="0.710880">
        <time>2017-06-24T13:48:33Z</time>
      </trkpt>
      <trkpt lat="47.400490" lon="0.711020">
        <time>2017-06-24T13:48:34Z</time>
      </trkpt>
      <trkpt lat="47.400670" lon="0.711160">
        <time>2017-06-24T13:48:35Z</time>
      </trkpt>
      <trkpt lat="47.400850" lon="0.711320">
        <time>2017-06-24T13:48:36Z</time>
      </trkpt>
      <trkpt lat="47.401020" lon="0.711450">
        <time>2017-06-24T13:48:37Z</time>
      </trkpt>
      <trkpt lat="47.401200" lon="0.711590">
        <time>2017-06-24T13:48:38Z</time>
      </trkpt>
      <trkpt lat="47.401390" lon="0.711750">
        <time>2017-06-24T13:48:39Z</time>
      </trkpt>
      <trkpt lat="47.401550" lon="0.711880">
        <time>2017-06-24T13:48:40Z</time>
      </trkpt>
      <trkpt lat="47.401730" lon="0.712030">
        <time>2017-06-24T13:48:41Z</time>
      </trkpt>
      <trkpt lat="47.401930" lon="0.712190">
        <time>2017-06-24T13:48:42Z</time>
      </trkpt>
      <trkpt lat="47.402090" lon="0.712320">
        <time>2017-06-24T13:48:43Z</time>
      </trkpt>
      <trkpt lat="47.402280" lon="0.712480">
        <time>2017-06-24T13:48:44Z</time>
      </trkpt>
      <trkpt lat="47.402450" lon="0.712610">
        <time>2017-06-24T13:48:45Z</time>
      </trkpt>
      <trkpt lat="47.402630" lon="0.712750">
        <time>2017-06-24T13:48:46Z</time>
      </trkpt>
      <trkpt lat="47.402820" lon="0.712910">
        <time>2017-06-24T13:48:47Z</time>
      </trkpt>
      <trkpt lat="47.403000" lon="0.713050">
        <time>2017-06-24T13:48:48Z</time>
      </trkpt>
      <trkpt lat="47.403180" lon="0.713190">
        <time>2017-06-24T13:48:49Z</time>
      </trkpt>
      <trkpt lat="47.403370" lon="0.713340">
        <time>2017-06-24T13:48:50Z</time>
      </trkpt>
      <trkpt lat="47.403550" lon="0.713480">
        <time>2017-06-24T13:48:51Z</time>
      </trkpt>
      <trkpt lat="47.403740" lon="0.713640">
        <time>2017-06-24T13:48:52Z</time>
      </trkpt>
      <trkpt lat="47.403910" lon="0.713770">
        <time>2017-06-24T13:48:53Z</time>
      </trkpt>
      <trkpt lat="47.404090" lon="0.713910">
        <time>2017-06-24T13:48:54Z</time>
      </trkpt>
      <trkpt lat="47.404270" lon="0.714070">
        <time>2017-06-24T13:48:55Z</time>
      </trkpt>
      <trkpt lat="47.404440" lon="0.714200">
        <time>2017-06-24T13:48:56Z</time>
      </trkpt>
      <trkpt lat="47.404610" lon="0.714340">
        <time>2017-06-24T13:48:57Z</time>
      </trkpt>
      <trkpt lat="47.404800" lon="0.714500">
        <time>2017-06-24T13:48:58Z</time>
      </trkpt>
      <trkpt lat="47.404970" lon="0.714650">
        <time>2017-06-24T13:48:59Z</time>
      </trkpt>
      <trkpt lat="47.405150" lon="0.714830">
        <time>2017-06-24T13:49:00Z</time>
      </trkpt>
      <trkpt lat="47.405320" lon="0.715000">
        <time>2017-06-24T13:49:01Z</time>
      </trkpt>
      <trkpt lat="47.405490" lon="0.715190">
        <time>2017-06-24T13:49:02Z</time>
      </trkpt>
      <trkpt lat="47.405670" lon="0.715430">
        <time>2017-06-24T13:49:03Z</time>
      </trkpt>
      <trkpt lat="47.405830" lon="0.715650">
        <time>2017-06-24T13:49:04Z</time>
      </trkpt>
      <trkpt lat="47.406000" lon="0.715890">
        <time>2017-06-24T13:49:05Z</time>
      </trkpt>
      <trkpt lat="47.406160" lon="0.716160">
        <time>2017-06-24T13:49:06Z</time>
      </trkpt>
      <trkpt lat="47.406320" lon="0.716430">
        <time>2017-06-24T13:49:07Z</time>
      </trkpt>
      <trkpt lat="47.406490" lon="0.716750">
        <time>2017-06-24T13:49:08Z</time>
      </trkpt>
      <trkpt lat="47.406620" lon="0.717050">
        <time>2017-06-24T13:49:09Z</time>
      </trkpt>
      <trkpt lat="47.406760" lon="0.717380">
        <time>2017-06-24T13:49:10Z</time>
      </trkpt>
      <trkpt lat="47.406900" lon="0.717740">
        <time>2017-06-24T13:49:11Z</time>
      </trkpt>
      <trkpt lat="47.407010" lon="0.718060">
        <time>2017-06-24T13:49:12Z</time>
      </trkpt>
      <trkpt lat="47.407120" lon="0.718410">
        <time>2017-06-24T13:49:13Z</time>
      </trkpt>
      <trkpt lat="47.407220" lon="0.718790">
        <time>2017-06-24T13:49:14Z</time>
      </trkpt>
      <trkpt lat="47.407310" lon="0.719110">
        <time>2017-06-24T13:49:15Z</time>
      </trkpt>
      <trkpt lat="47.407410" lon="0.719460">
        <time>2017-06-24T13:49:16Z</time>
      </trkpt>
      <trkpt lat="47.407490" lon="0.719750">
        <time>2017-06-24T13:49:17Z</time>
      </trkpt>
      <trkpt lat="47.407580" lon="0.720060">
        <time>2017-06-24T13:49:18Z</time>
      </trkpt>
      <trkpt lat="47.407670" lon="0.720380">
        <time>2017-06-24T13:49:19Z</time>
      </trkpt>
      <trkpt lat="47.407750" lon="0.720650">
        <time>2017-06-24T13:49:20Z</time>
      </trkpt>
      <trkpt lat="47.407830" lon="0.720930">
        <time>2017-06-24T13:49:21Z</time>
      </trkpt>
      <trkpt lat="47.407910" lon="0.721220">
        <time>2017-06-24T13:49:22Z</time>
      </trkpt>
      <trkpt lat="47.408000" lon="0.721520">
        <time>2017-06-24T13:49:23Z</time>
      </trkpt>
      <trkpt lat="47.408110" lon="0.721850">
        <time>2017-06-24T13:49:24Z</time>
      </trkpt>
      <trkpt lat="47.408200" lon="0.722130">
        <time>2017-06-24T13:49:25Z</time>
      </trkpt>
      <trkpt lat="47.408300" lon="0.722440">
        <time>2017-06-24T13:49:26Z</time>
      </trkpt>
      <trkpt lat="47.408410" lon="0.722740">
        <time>2017-06-24T13:49:27Z</time>
      </trkpt>
      <trkpt lat="47.408510" lon="0.723010">
        <time>2017-06-24T13:49:28Z</time>
      </trkpt>
      <trkpt lat="47.408610" lon="0.723300">
        <time>2017-06-24T13:49:29Z</time>
      </trkpt>
      <trkpt lat="47.408720" lon="0.723590">
        <time>2017-06-24T13:49:30Z</time>
      </trkpt>
      <trkpt lat="47.408840" lon="0.723850">
        <time>2017-06-24T13:49:31Z</time>
      </trkpt>
      <trkpt lat="47.408970" lon="0.724150">
        <time>2017-06-24T13:49:32Z</time>
      </trkpt>
      <trkpt lat="47.409100" lon="0.724410">
        <time>2017-06-24T13:49:33Z</time>
      </trkpt>
      <trkpt lat="47.409230" lon="0.724670">
        <time>2017-06-24T13:49:34Z</time>
      </trkpt>
      <trkpt lat="47.409380" lon="0.724950">
        <time>2017-06-24T13:49:35Z</time>
      </trkpt>
      <trkpt lat="47.409510" lon="0.725190">
        <time>2017-06-24T13:49:36Z</time>
      </trkpt>
      <trkpt lat="47.409660" lon="0.725450">
        <time>2017-06-24T13:49:37Z</time>
      </trkpt>
      <trkpt lat="47.409820" lon="0.725690">
        <time>2017-06-24T13:49:38Z</time>
      </trkpt>
      <trkpt lat="47.409970" lon="0.725930">
        <time>2017-06-24T13:49:39Z</time>
      </trkpt>
      <trkpt lat="47.410140" lon="0.726180">
        <time>2017-06-24T13:49:40Z</time>
      </trkpt>
      <trkpt lat="47.410290" lon="0.726390">
        <time>2017-06-24T13:49:41Z</time>
      </trkpt>
      <trkpt lat="47.410460" lon="0.726590">
        <time>2017-06-24T13:49:42Z</time>
      </trkpt>
      <trkpt lat="47.410630" lon="0.726810">
        <time>2017-06-24T13:49:43Z</time>
      </trkpt>
      <trkpt lat="47.410800" lon="0.727010">
        <time>2017-06-24T13:49:44Z</time>
      </trkpt>
      <trkpt lat="47.410970" lon="0.727210">
        <time>2017-06-24T13:49:45Z</time>
      </trkpt>
      <trkpt lat="47.411170" lon="0.727420">
        <time>2017-06-24T13:49:46Z</time>
      </trkpt>
      <trkpt lat="47.411340" lon="0.727600">
        <time>2017-06-24T13:49:47Z</time>
      </trkpt>
      <trkpt lat="47.411540" lon="0.727790">
        <time>2017-06-24T13:49:48Z</time>
      </trkpt>
      <trkpt lat="47.411730" lon="0.727980">
        <time>2017-06-24T13:49:49Z</time>
      </trkpt>
      <trkpt lat="47.411940" lon="0.728160">
        <time>2017-06-24T13:49:50Z</time>
      </trkpt>
      <trkpt lat="47.412170" lon="0.728350">
        <time>2017-06-24T13:49:51Z</time>
      </trkpt>
      <trkpt lat="47.412380" lon="0.728500">
        <time>2017-06-24T13:49:52Z</time>
      </trkpt>
      <trkpt lat="47.412610" lon="0.728670">
        <time>2017-06-24T13:49:53Z</time>
      </trkpt>
      <trkpt lat="47.412850" lon="0.728820">
        <time>2017-06-24T13:49:54Z</time>
      </trkpt>
      <trkpt lat="47.413090" lon="0.728960">
        <time>2017-06-24T13:49:55Z</time>
      </trkpt>
      <trkpt lat="47.413350" lon="0.729120">
        <time>2017-06-24T13:49:56Z</time>
      </trkpt>
      <trkpt lat="47.413580" lon="0.729230">
        <time>2017-06-24T13:49:57Z</time>
      </trkpt>
      <trkpt lat="47.413830" lon="0.729340">
        <time>2017-06-24T13:49:58Z</time>
      </trkpt>
      <trkpt lat="47.414090" lon="0.729450">
        <time>2017-06-24T13:49:59Z</time>
      </trkpt>
      <trkpt lat="47.414330" lon="0.729550">
        <time>2017-06-24T13:50:00Z</time>
      </trkpt>
      <trkpt lat="47.414580" lon="0.729640">
        <time>2017-06-24T13:50:01Z</time>
      </trkpt>
      <trkpt lat="47.414840" lon="0.729740">
        <time>2017-06-24T13:50:02Z</time>
      </trkpt>
      <trkpt lat="47.415070" lon="0.729820">
        <time>2017-06-24T13:50:03Z</time>
      </trkpt>
      <trkpt lat="47.415340" lon="0.729920">
        <time>2017-06-24T13:50:04Z</time>
      </trkpt>
      <trkpt lat="47.415580" lon="0.730010">
        <time>2017-06-24T13:50:05Z</time>
      </trkpt>
      <trkpt lat="47.415830" lon="0.730100">
        <time>2017-06-24T13:50:06Z</time>
      </trkpt>
      <trkpt lat="47.416100" lon="0.730190">
        <time>2017-06-24T13:50:07Z</time>
      </trkpt>
      <trkpt lat="47.416340" lon="0.730270">
        <time>2017-06-24T13:50:08Z</time>
      </trkpt>
      <trkpt lat="47.416610" lon="0.730360">
        <time>2017-06-24T13:50:09Z</time>
      </trkpt>
      <trkpt lat="47.416870" lon="0.730450">
        <time>2017-06-24T13:50:10Z</time>
      </trkpt>
      <trkpt lat="47.417130" lon="0.730550">
        <time>2017-06-24T13:50:11Z</time>
      </trkpt>
      <trkpt lat="47.417410" lon="0.730650">
        <time>2017-06-24T13:50:12Z</time>
      </trkpt>
      <trkpt lat="47.417660" lon="0.730740">
        <time>2017-06-24T13:50:13Z</time>
      </trkpt>
      <trkpt lat="47.417920" lon="0.730830">
        <time>2017-06-24T13:50:14Z</time>
      </trkpt>
      <trkpt lat="47.418200" lon="0.730940">
        <time>2017-06-24T13:50:15Z</time>
      </trkpt>
      <trkpt lat="47.418450" lon="0.731030">
        <time>2017-06-24T13:50:16Z</time>
      </trkpt>
      <trkpt lat="47.418730" lon="0.731120">
        <time>2017-06-24T13:50:17Z</time>
      </trkpt>
      <trkpt lat="47.419020" lon="0.731230">
        <time>2017-06-24T13:50:18Z</time>
      </trkpt>
      <trkpt lat="47.419280" lon="0.731320">
        <time>2017-06-24T13:50:19Z</time>
      </trkpt>
      <trkpt lat="47.419580" lon="0.731430">
        <time>2017-06-24T13:50:20Z</time>
      </trkpt>
      <trkpt lat="47.419850" lon="0.731530">
        <time>2017-06-24T13:50:21Z</time>
      </trkpt>
      <trkpt lat="47.420140" lon="0.731630">
        <time>2017-06-24T13:50:22Z</time>
      </trkpt>
      <trkpt lat="47.420460" lon="0.731740">
        <time>2017-06-24T13:50:23Z</time>
      </trkpt>
      <trkpt lat="47.420740" lon="0.731840">
        <time>2017-06-24T13:50:24Z</time>
      </trkpt>
      <trkpt lat="47.421040" lon="0.731950">
        <time>2017-06-24T13:50:25Z</time>
      </trkpt>
      <trkpt lat="47.421350" lon="0.732060">
        <time>2017-06-24T13:50:26Z</time>
      </trkpt>
      <trkpt lat="47.421650" lon="0.732170">
        <time>2017-06-24T13:50:27Z</time>
      </trkpt>
      <trkpt lat="47.421970" lon="0.732280">
        <time>2017-06-24T13:50:28Z</time>
      </trkpt>
      <trkpt lat="47.422240" lon="0.732380">
        <time>2017-06-24T13:50:29Z</time>
      </trkpt>
      <trkpt lat="47.422530" lon="0.732470">
        <time>2017-06-24T13:50:30Z</time>
      </trkpt>
      <trkpt lat="47.422840" lon="0.732590">
        <time>2017-06-24T13:50:31Z</time>
      </trkpt>
      <trkpt lat="47.423110" lon="0.732690">
        <time>2017-06-24T13:50:32Z</time>
      </trkpt>
      <trkpt lat="47.423400" lon="0.732790">
        <time>2017-06-24T13:50:33Z</time>
      </trkpt>
      <trkpt lat="47.423700" lon="0.732900">
        <time>2017-06-24T13:50:34Z</time>
      </trkpt>
      <trkpt lat="47.423970" lon="0.732990">
        <time>2017-06-24T13:50:35Z</time>
      </trkpt>
      <trkpt lat="47.424270" lon="0.733100">
        <time>2017-06-24T13:50:36Z</time>
      </trkpt>
      <trkpt lat="47.424530" lon="0.733200">
        <time>2017-06-24T13:50:37Z</time>
      </trkpt>
      <trkpt lat="47.424810" lon="0.733300">
        <time>2017-06-24T13:50:38Z</time>
      </trkpt>
      <trkpt lat="47.425110" lon="0.733400">
        <time>2017-06-24T13:50:39Z</time>
      </trkpt>
      <trkpt lat="47.425370" lon="0.733500">
        <time>2017-06-24T13:50:40Z</time>
      </trkpt>
      <trkpt lat="47.425660" lon="0.733600">
        <time>2017-06-24T13:50:41Z</time>
      </trkpt>
      <trkpt lat="47.425950" lon="0.733700">
        <time>2017-06-24T13:50:42Z</time>
      </trkpt>
      <trkpt lat="47.426230" lon="0.733800">
        <time>2017-06-24T13:50:43Z</time>
      </trkpt>
      <trkpt lat="47.426530" lon="0.733900">
        <time>2017-06-24T13:50:44Z</time>
      </trkpt>
      <trkpt lat="47.426800" lon="0.733990">
        <time>2017-06-24T13:50:45Z</time>
      </trkpt>
      <trkpt lat="47.427080" lon="0.734080">
        <time>2017-06-24T13:50:46Z</time>
      </trkpt>
      <trkpt lat="47.427370" lon="0.734190">
        <time>2017-06-24T13:50:47Z</time>
      </trkpt>
      <trkpt lat="47.427630" lon="0.734270">
        <time>2017-06-24T13:50:48Z</time>
      </trkpt>
      <trkpt lat="47.427900" lon="0.734360">
        <time>2017-06-24T13:50:49Z</time>
      </trkpt>
      <trkpt lat="47.428180" lon="0.734450">
        <time>2017-06-24T13:50:50Z</time>
      </trkpt>
      <trkpt lat="47.428430" lon="0.734530">
        <time>2017-06-24T13:50:51Z</time>
      </trkpt>
      <trkpt lat="47.428720" lon="0.734630">
        <time>2017-06-24T13:50:52Z</time>
      </trkpt>
      <trkpt lat="47.428980" lon="0.734710">
        <time>2017-06-24T13:50:53Z</time>
      </trkpt>
      <trkpt lat="47.429250" lon="0.734800">
        <time>2017-06-24T13:50:54Z</time>
      </trkpt>
      <trkpt lat="47.429550" lon="0.734890">
        <time>2017-06-24T13:50:55Z</time>
      </trkpt>
      <trkpt lat="47.429820" lon="0.734980">
        <time>2017-06-24T13:50:56Z</time>
      </trkpt>
      <trkpt lat="47.430120" lon="0.735060">
        <time>2017-06-24T13:50:57Z</time>
      </trkpt>
      <trkpt lat="47.430410" lon="0.735140">
        <time>2017-06-24T13:50:58Z</time>
      </trkpt>
      <trkpt lat="47.430710" lon="0.735220">
        <time>2017-06-24T13:50:59Z</time>
      </trkpt>
      <trkpt lat="47.431030" lon="0.735310">
        <time>2017-06-24T13:51:00Z</time>
      </trkpt>
      <trkpt lat="47.431320" lon="0.735390">
        <time>2017-06-24T13:51:01Z</time>
      </trkpt>
      <trkpt lat="47.431630" lon="0.735470">
        <time>2017-06-24T13:51:02Z</time>
      </trkpt>
      <trkpt lat="47.431960" lon="0.735560">
        <time>2017-06-24T13:51:03Z</time>
      </trkpt>
      <trkpt lat="47.432250" lon="0.735650">
        <time>2017-06-24T13:51:04Z</time>
      </trkpt>
      <trkpt lat="47.432550" lon="0.735750">
        <time>2017-06-24T13:51:05Z</time>
      </trkpt>
      <trkpt lat="47.432870" lon="0.735860">
        <time>2017-06-24T13:51:06Z</time>
      </trkpt>
      <trkpt lat="47.433160" lon="0.735950">
        <time>2017-06-24T13:51:07Z</time>
      </trkpt>
      <trkpt lat="47.433480" lon="0.736050">
        <time>2017-06-24T13:51:08Z</time>
      </trkpt>
      <trkpt lat="47.433760" lon="0.736130">
        <time>2017-06-24T13:51:09Z</time>
      </trkpt>
      <trkpt lat="47.434060" lon="0.736210">
        <time>2017-06-24T13:51:10Z</time>
      </trkpt>
      <trkpt lat="47.434380" lon="0.736300">
        <time>2017-06-24T13:51:11Z</time>
      </trkpt>
      <trkpt lat="47.434660" lon="0.736380">
        <time>2017-06-24T13:51:12Z</time>
      </trkpt>
      <trkpt lat="47.434960" lon="0.736460">
        <time>2017-06-24T13:51:13Z</time>
      </trkpt>
      <trkpt lat="47.435260" lon="0.736540">
        <time>2017-06-24T13:51:14Z</time>
      </trkpt>
      <trkpt lat="47.435560" lon="0.736620">
        <time>2017-06-24T13:51:15Z</time>
      </trkpt>
      <trkpt lat="47.435880" lon="0.736700">
        <time>2017-06-24T13:51:16Z</time>
      </trkpt>
      <trkpt lat="47.436160" lon="0.736770">
        <time>2017-06-24T13:51:17Z</time>
      </trkpt>
      <trkpt lat="47.436450" lon="0.736850">
        <time>2017-06-24T13:51:18Z</time>
      </trkpt>
      <trkpt lat="47.436760" lon="0.736920">
        <time>2017-06-24T13:51:19Z</time>
      </trkpt>
      <trkpt lat="47.437030" lon="0.736990">
        <time>2017-06-24T13:51:20Z</time>
      </trkpt>
      <trkpt lat="47.437310" lon="0.737060">
        <time>2017-06-24T13:51:21Z</time>
      </trkpt>
      <trkpt lat="47.437610" lon="0.737130">
        <time>2017-06-24T13:51:22Z</time>
      </trkpt>
      <trkpt lat="47.437880" lon="0.737190">
        <time>2017-06-24T13:51:23Z</time>
      </trkpt>
      <trkpt lat="47.438190" lon="0.737270">
        <time>2017-06-24T13:51:24Z</time>
      </trkpt>
      <trkpt lat="47.438470" lon="0.737340">
        <time>2017-06-24T13:51:25Z</time>
      </trkpt>
      <trkpt lat="47.438770" lon="0.737410">
        <time>2017-06-24T13:51:26Z</time>
      </trkpt>
      <trkpt lat="47.439090" lon="0.737490">
        <time>2017-06-24T13:51:27Z</time>
      </trkpt>
      <trkpt lat="47.439380" lon="0.737550">
        <time>2017-06-24T13:51:28Z</time>
      </trkpt>
      <trkpt lat="47.439680" lon="0.737620">
        <time>2017-06-24T13:51:29Z</time>
      </trkpt>
      <trkpt lat="47.439980" lon="0.737690">
        <time>2017-06-24T13:51:30Z</time>
      </trkpt>
      <trkpt lat="47.440280" lon="0.737760">
        <time>2017-06-24T13:51:31Z</time>
      </trkpt>
      <trkpt lat="47.440600" lon="0.737830">
        <time>2017-06-24T13:51:32Z</time>
      </trkpt>
      <trkpt lat="47.440880" lon="0.737890">
        <time>2017-06-24T13:51:33Z</time>
      </trkpt>
      <trkpt lat="47.441170" lon="0.737950">
        <time>2017-06-24T13:51:34Z</time>
      </trkpt>
      <trkpt lat="47.441480" lon="0.738020">
        <time>2017-06-24T13:51:35Z</time>
      </trkpt>
      <trkpt lat="47.441750" lon="0.738090">
        <time>2017-06-24T13:51:36Z</time>
      </trkpt>
      <trkpt lat="47.442040" lon="0.738170">
        <time>2017-06-24T13:51:37Z</time>
      </trkpt>
      <trkpt lat="47.442350" lon="0.738270">
        <time>2017-06-24T13:51:38Z</time>
      </trkpt>
      <trkpt lat="47.442620" lon="0.738370">
        <time>2017-06-24T13:51:39Z</time>
      </trkpt>
      <trkpt lat="47.442920" lon="0.738470">
        <time>2017-06-24T13:51:40Z</time>
      </trkpt>
      <trkpt lat="47.443200" lon="0.738580">
        <time>2017-06-24T13:51:41Z</time>
      </trkpt>
      <trkpt lat="47.443480" lon="0.738690">
        <time>2017-06-24T13:51:42Z</time>
      </trkpt>
      <trkpt lat="47.443790" lon="0.738830">
        <time>2017-06-24T13:51:43Z</time>
      </trkpt>
      <trkpt lat="47.444050" lon="0.738960">
        <time>2017-06-24T13:51:44Z</time>
      </trkpt>
      <trkpt lat="47.444320" lon="0.739100">
        <time>2017-06-24T13:51:45Z</time>
      </trkpt>
      <trkpt lat="47.444600" lon="0.739260">
        <time>2017-06-24T13:51:46Z</time>
      </trkpt>
      <trkpt lat="47.444860" lon="0.739410">
        <time>2017-06-24T13:51:47Z</time>
      </trkpt>
      <trkpt lat="47.445140" lon="0.739590">
        <time>2017-06-24T13:51:48Z</time>
      </trkpt>
      <trkpt lat="47.445380" lon="0.739760">
        <time>2017-06-24T13:51:49Z</time>
      </trkpt>
      <trkpt lat="47.445640" lon="0.739950">
        <time>2017-06-24T13:51:50Z</time>
      </trkpt>
      <trkpt lat="47.445910" lon="0.740150">
        <time>2017-06-24T13:51:51Z</time>
      </trkpt>
      <trkpt lat="47.446140" lon="0.740340">
        <time>2017-06-24T13:51:52Z</time>
      </trkpt>
      <trkpt lat="47.446380" lon="0.740530">
        <time>2017-06-24T13:51:53Z</time>
      </trkpt>
      <trkpt lat="47.446630" lon="0.740760">
        <time>2017-06-24T13:51:54Z</time>
      </trkpt>
      <trkpt lat="47.446850" lon="0.740980">
        <time>2017-06-24T13:51:55Z</time>
      </trkpt>
      <trkpt lat="47.447090" lon="0.741220">
        <time>2017-06-24T13:51:56Z</time>
      </trkpt>
      <trkpt lat="47.447300" lon="0.741440">
        <time>2017-06-24T13:51:57Z</time>
      </trkpt>
      <trkpt lat="47.447530" lon="0.741680">
        <time>2017-06-24T13:51:58Z</time>
      </trkpt>
      <trkpt lat="47.447760" lon="0.741940">
        <time>2017-06-24T13:51:59Z</time>
      </trkpt>
      <trkpt lat="47.447970" lon="0.742180">
        <time>2017-06-24T13:52:00Z</time>
      </trkpt>
      <trkpt lat="47.448200" lon="0.742440">
        <time>2017-06-24T13:52:01Z</time>
      </trkpt>
      <trkpt lat="47.448410" lon="0.742700">
        <time>2017-06-24T13:52:02Z</time>
      </trkpt>
      <trkpt lat="47.448620" lon="0.742980">
        <time>2017-06-24T13:52:03Z</time>
      </trkpt>
      <trkpt lat="47.448840" lon="0.743290">
        <time>2017-06-24T13:52:04Z</time>
      </trkpt>
      <trkpt lat="47.449030" lon="0.743570">
        <time>2017-06-24T13:52:05Z</time>
      </trkpt>
      <trkpt lat="47.449230" lon="0.743880">
        <time>2017-06-24T13:52:06Z</time>
      </trkpt>
      <trkpt lat="47.449430" lon="0.744220">
        <time>2017-06-24T13:52:07Z</time>
      </trkpt>
      <trkpt lat="47.449610" lon="0.744530">
        <time>2017-06-24T13:52:08Z</time>
      </trkpt>
      <trkpt lat="47.449800" lon="0.744860">
        <time>2017-06-24T13:52:09Z</time>
      </trkpt>
      <trkpt lat="47.450000" lon="0.745230">
        <time>2017-06-24T13:52:10Z</time>
      </trkpt>
      <trkpt lat="47.450180" lon="0.745560">
        <time>2017-06-24T13:52:11Z</time>
      </trkpt>
      <trkpt lat="47.450370" lon="0.745930">
        <time>2017-06-24T13:52:12Z</time>
      </trkpt>
      <trkpt lat="47.450550" lon="0.746260">
        <time>2017-06-24T13:52:13Z</time>
      </trkpt>
      <trkpt lat="47.450740" lon="0.746620">
        <time>2017-06-24T13:52:14Z</time>
      </trkpt>
      <trkpt lat="47.450930" lon="0.746990">
        <time>2017-06-24T13:52:15Z</time>
      </trkpt>
      <trkpt lat="47.451110" lon="0.747330">
        <time>2017-06-24T13:52:16Z</time>
      </trkpt>
      <trkpt lat="47.451310" lon="0.747690">
        <time>2017-06-24T13:52:17Z</time>
      </trkpt>
      <trkpt lat="47.451510" lon="0.748050">
        <time>2017-06-24T13:52:18Z</time>
      </trkpt>
      <trkpt lat="47.451710" lon="0.748420">
        <time>2017-06-24T13:52:19Z</time>
      </trkpt>
      <trkpt lat="47.451930" lon="0.748800">
        <time>2017-06-24T13:52:20Z</time>
      </trkpt>
      <trkpt lat="47.452120" lon="0.749150">
        <time>2017-06-24T13:52:21Z</time>
      </trkpt>
      <trkpt lat="47.452320" lon="0.749500">
        <time>2017-06-24T13:52:22Z</time>
      </trkpt>
      <trkpt lat="47.452550" lon="0.749880">
        <time>2017-06-24T13:52:23Z</time>
      </trkpt>
      <trkpt lat="47.452740" lon="0.750200">
        <time>2017-06-24T13:52:24Z</time>
      </trkpt>
      <trkpt lat="47.452950" lon="0.750550">
        <time>2017-06-24T13:52:25Z</time>
      </trkpt>
      <trkpt lat="47.453180" lon="0.750920">
        <time>2017-06-24T13:52:26Z</time>
      </trkpt>
      <trkpt lat="47.453390" lon="0.751230">
        <time>2017-06-24T13:52:27Z</time>
      </trkpt>
      <trkpt lat="47.453620" lon="0.751580">
        <time>2017-06-24T13:52:28Z</time>
      </trkpt>
      <trkpt lat="47.453820" lon="0.751890">
        <time>2017-06-24T13:52:29Z</time>
      </trkpt>
      <trkpt lat="47.454040" lon="0.752210">
        <time>2017-06-24T13:52:30Z</time>
      </trkpt>
      <trkpt lat="47.454280" lon="0.752560">
        <time>2017-06-24T13:52:31Z</time>
      </trkpt>
      <trkpt lat="47.454490" lon="0.752860">
        <time>2017-06-24T13:52:32Z</time>
      </trkpt>
      <trkpt lat="47.454710" lon="0.753170">
        <time>2017-06-24T13:52:33Z</time>
      </trkpt>
      <trkpt lat="47.454940" lon="0.753470">
        <time>2017-06-24T13:52:34Z</time>
      </trkpt>
      <trkpt lat="47.455170" lon="0.753760">
        <time>2017-06-24T13:52:35Z</time>
      </trkpt>
      <trkpt lat="47.455410" lon="0.754070">
        <time>2017-06-24T13:52:36Z</time>
      </trkpt>
      <trkpt lat="47.455630" lon="0.754340">
        <time>2017-06-24T13:52:37Z</time>
      </trkpt>
      <trkpt lat="47.455860" lon="0.754620">
        <time>2017-06-24T13:52:38Z</time>
      </trkpt>
      <trkpt lat="47.456110" lon="0.754920">
        <time>2017-06-24T13:52:39Z</time>
      </trkpt>
      <trkpt lat="47.456330" lon="0.755180">
        <time>2017-06-24T13:52:40Z</time>
      </trkpt>
      <trkpt lat="47.456570" lon="0.755450">
        <time>2017-06-24T13:52:41Z</time>
      </trkpt>
      <trkpt lat="47.456830" lon="0.755750">
        <time>2017-06-24T13:52:42Z</time>
      </trkpt>
      <trkpt lat="47.457060" lon="0.756000">
        <time>2017-06-24T13:52:43Z</time>
      </trkpt>
      <trkpt lat="47.457330" lon="0.756280">
        <time>2017-06-24T13:52:44Z</time>
      </trkpt>
      <trkpt lat="47.457560" lon="0.756540">
        <time>2017-06-24T13:52:45Z</time>
      </trkpt>
      <trkpt lat="47.457810" lon="0.756800">
        <time>2017-06-24T13:52:46Z</time>
      </trkpt>
      <trkpt lat="47.458090" lon="0.757090">
        <time>2017-06-24T13:52:47Z</time>
      </trkpt>
      <trkpt lat="47.458320" lon="0.757330">
        <time>2017-06-24T13:52:48Z</time>
      </trkpt>
      <trkpt lat="47.458570" lon="0.757580">
        <time>2017-06-24T13:52:49Z</time>
      </trkpt>
      <trkpt lat="47.458820" lon="0.757840">
        <time>2017-06-24T13:52:50Z</time>
      </trkpt>
      <trkpt lat="47.459070" lon="0.758090">
        <time>2017-06-24T13:52:51Z</time>
      </trkpt>
      <trkpt lat="47.459330" lon="0.758350">
        <time>2017-06-24T13:52:52Z</time>
      </trkpt>
      <trkpt lat="47.459570" lon="0.758580">
        <time>2017-06-24T13:52:53Z</time>
      </trkpt>
      <trkpt lat="47.459810" lon="0.758810">
        <time>2017-06-24T13:52:54Z</time>
      </trkpt>
      <trkpt lat="47.460080" lon="0.759060">
        <time>2017-06-24T13:52:55Z</time>
      </trkpt>
      <trkpt lat="47.460310" lon="0.759270">
        <time>2017-06-24T13:52:56Z</time>
      </trkpt>
      <trkpt lat="47.460550" lon="0.759500">
        <time>2017-06-24T13:52:57Z</time>
      </trkpt>
      <trkpt lat="47.460820" lon="0.759750">
        <time>2017-06-24T13:52:58Z</time>
      </trkpt>
      <trkpt lat="47.461060" lon="0.759970">
        <time>2017-06-24T13:52:59Z</time>
      </trkpt>
      <trkpt lat="47.461320" lon="0.760210">
        <time>2017-06-24T13:53:00Z</time>
      </trkpt>
      <trkpt lat="47.461560" lon="0.760430">
        <time>2017-06-24T13:53:01Z</time>
      </trkpt>
      <trkpt lat="47.461810" lon="0.760660">
        <time>2017-06-24T13:53:02Z</time>
      </trkpt>
      <trkpt lat="47.462070" lon="0.760900">
        <time>2017-06-24T13:53:03Z</time>
      </trkpt>
      <trkpt lat="47.462310" lon="0.761120">
        <time>2017-06-24T13:53:04Z</time>
      </trkpt>
      <trkpt lat="47.462560" lon="0.761350">
        <time>2017-06-24T13:53:05Z</time>
      </trkpt>
      <trkpt lat="47.462820" lon="0.761580">
        <time>2017-06-24T13:53:06Z</time>
      </trkpt>
      <trkpt lat="47.463070" lon="0.761820">
        <time>2017-06-24T13:53:07Z</time>
      </trkpt>
      <trkpt lat="47.463340" lon="0.762070">
        <time>2017-06-24T13:53:08Z</time>
      </trkpt>
      <trkpt lat="47.463580" lon="0.762290">
        <time>2017-06-24T13:53:09Z</time>
      </trkpt>
      <trkpt lat="47.463820" lon="0.762530">
        <time>2017-06-24T13:53:10Z</time>
      </trkpt>
      <trkpt lat="47.464090" lon="0.762780">
        <time>2017-06-24T13:53:11Z</time>
      </trkpt>
      <trkpt lat="47.464320" lon="0.763000">
        <time>2017-06-24T13:53:12Z</time>
      </trkpt>
      <trkpt lat="47.464560" lon="0.763230">
        <time>2017-06-24T13:53:13Z</time>
      </trkpt>
      <trkpt lat="47.464820" lon="0.763490">
        <time>2017-06-24T13:53:14Z</time>
      </trkpt>
      <trkpt lat="47.465050" lon="0.763710">
        <time>2017-06-24T13:53:15Z</time>
      </trkpt>
      <trkpt lat="47.465320" lon="0.763980">
        <time>2017-06-24T13:53:16Z</time>
      </trkpt>
      <trkpt lat="47.465550" lon="0.764210">
        <time>2017-06-24T13:53:17Z</time>
      </trkpt>
      <trkpt lat="47.465790" lon="0.764470">
        <time>2017-06-24T13:53:18Z</time>
      </trkpt>
      <trkpt lat="47.466050" lon="0.764730">
        <time>2017-06-24T13:53:19Z</time>
      </trkpt>
      <trkpt lat="47.466260" lon="0.764970">
        <time>2017-06-24T13:53:20Z</time>
      </trkpt>
      <trkpt lat="47.466500" lon="0.765220">
        <time>2017-06-24T13:53:21Z</time>
      </trkpt>
      <trkpt lat="47.466720" lon="0.765470">
        <time>2017-06-24T13:53:22Z</time>
      </trkpt>
      <trkpt lat="47.466930" lon="0.765720">
        <time>2017-06-24T13:53:23Z</time>
      </trkpt>
      <trkpt lat="47.467170" lon="0.765990">
        <time>2017-06-24T13:53:24Z</time>
      </trkpt>
      <trkpt lat="47.467380" lon="0.766230">
        <time>2017-06-24T13:53:25Z</time>
      </trkpt>
      <trkpt lat="47.467600" lon="0.766490">
        <time>2017-06-24T13:53:26Z</time>
      </trkpt>
      <trkpt lat="47.467830" lon="0.766760">
        <time>2017-06-24T13:53:27Z</time>
      </trkpt>
      <trkpt lat="47.468040" lon="0.767020">
        <time>2017-06-24T13:53:28Z</time>
      </trkpt>
      <trkpt lat="47.468270" lon="0.767290">
        <time>2017-06-24T13:53:29Z</time>
      </trkpt>
      <trkpt lat="47.468500" lon="0.767580">
        <time>2017-06-24T13:53:30Z</time>
      </trkpt>
      <trkpt lat="47.468710" lon="0.767830">
        <time>2017-06-24T13:53:31Z</time>
      </trkpt>
      <trkpt lat="47.468960" lon="0.768120">
        <time>2017-06-24T13:53:32Z</time>
      </trkpt>
      <trkpt lat="47.469170" lon="0.768380">
        <time>2017-06-24T13:53:33Z</time>
      </trkpt>
      <trkpt lat="47.469390" lon="0.768660">
        <time>2017-06-24T13:53:34Z</time>
      </trkpt>
      <trkpt lat="47.469630" lon="0.768970">
        <time>2017-06-24T13:53:35Z</time>
      </trkpt>
      <trkpt lat="47.469830" lon="0.769240">
        <time>2017-06-24T13:53:36Z</time>
      </trkpt>
      <trkpt lat="47.470060" lon="0.769530">
        <time>2017-06-24T13:53:37Z</time>
      </trkpt>
      <trkpt lat="47.470280" lon="0.769830">
        <time>2017-06-24T13:53:38Z</time>
      </trkpt>
      <trkpt lat="47.470500" lon="0.770130">
        <time>2017-06-24T13:53:39Z</time>
      </trkpt>
      <trkpt lat="47.470730" lon="0.770460">
        <time>2017-06-24T13:53:40Z</time>
      </trkpt>
      <trkpt lat="47.470940" lon="0.770750">
        <time>2017-06-24T13:53:41Z</time>
      </trkpt>
      <trkpt lat="47.471160" lon="0.771060">
        <time>2017-06-24T13:53:42Z</time>
      </trkpt>
      <trkpt lat="47.471390" lon="0.771400">
        <time>2017-06-24T13:53:43Z</time>
      </trkpt>
      <trkpt lat="47.471600" lon="0.771700">
        <time>2017-06-24T13:53:44Z</time>
      </trkpt>
      <trkpt lat="47.471810" lon="0.772020">
        <time>2017-06-24T13:53:45Z</time>
      </trkpt>
      <trkpt lat="47.472050" lon="0.772380">
        <time>2017-06-24T13:53:46Z</time>
      </trkpt>
      <trkpt lat="47.472260" lon="0.772700">
        <time>2017-06-24T13:53:47Z</time>
      </trkpt>
      <trkpt lat="47.472490" lon="0.773070">
        <time>2017-06-24T13:53:48Z</time>
      </trkpt>
      <trkpt lat="47.472690" lon="0.773390">
        <time>2017-06-24T13:53:49Z</time>
      </trkpt>
      <trkpt lat="47.472910" lon="0.773740">
        <time>2017-06-24T13:53:50Z</time>
      </trkpt>
      <trkpt lat="47.473130" lon="0.774120">
        <time>2017-06-24T13:53:51Z</time>
      </trkpt>
      <trkpt lat="47.473320" lon="0.774450">
        <time>2017-06-24T13:53:52Z</time>
      </trkpt>
      <trkpt lat="47.473530" lon="0.774790">
        <time>2017-06-24T13:53:53Z</time>
      </trkpt>
      <trkpt lat="47.473740" lon="0.775150">
        <time>2017-06-24T13:53:54Z</time>
      </trkpt>
      <trkpt lat="47.473950" lon="0.775500">
        <time>2017-06-24T13:53:55Z</time>
      </trkpt>
      <trkpt lat="47.474170" lon="0.775880">
        <time>2017-06-24T13:53:56Z</time>
      </trkpt>
      <trkpt lat="47.474360" lon="0.776210">
        <time>2017-06-24T13:53:57Z</time>
      </trkpt>
      <trkpt lat="47.474560" lon="0.776550">
        <time>2017-06-24T13:53:58Z</time>
      </trkpt>
      <trkpt lat="47.474770" lon="0.776920">
        <time>2017-06-24T13:53:59Z</time>
      </trkpt>
      <trkpt lat="47.474960" lon="0.777240">
        <time>2017-06-24T13:54:00Z</time>
      </trkpt>
      <trkpt lat="47.475150" lon="0.777590">
        <time>2017-06-24T13:54:01Z</time>
      </trkpt>
      <trkpt lat="47.475350" lon="0.777960">
        <time>2017-06-24T13:54:02Z</time>
      </trkpt>
      <trkpt lat="47.475520" lon="0.778280">
        <time>2017-06-24T13:54:03Z</time>
      </trkpt>
      <trkpt lat="47.475720" lon="0.778650">
        <time>2017-06-24T13:54:04Z</time>
      </trkpt>
      <trkpt lat="47.475900" lon="0.778970">
        <time>2017-06-24T13:54:05Z</time>
      </trkpt>
      <trkpt lat="47.476080" lon="0.779320">
        <time>2017-06-24T13:54:06Z</time>
      </trkpt>
      <trkpt lat="47.476290" lon="0.779690">
        <time>2017-06-24T13:54:07Z</time>
      </trkpt>
      <trkpt lat="47.476470" lon="0.780030">
        <time>2017-06-24T13:54:08Z</time>
      </trkpt>
      <trkpt lat="47.476670" lon="0.780380">
        <time>2017-06-24T13:54:09Z</time>
      </trkpt>
      <trkpt lat="47.476860" lon="0.780750">
        <time>2017-06-24T13:54:10Z</time>
      </trkpt>
      <trkpt lat="47.477040" lon="0.781110">
        <time>2017-06-24T13:54:11Z</time>
      </trkpt>
      <trkpt lat="47.477240" lon="0.781490">
        <time>2017-06-24T13:54:12Z</time>
      </trkpt>
      <trkpt lat="47.477410" lon="0.781820">
        <time>2017-06-24T13:54:13Z</time>
      </trkpt>
      <trkpt lat="47.477590" lon="0.782180">
        <time>2017-06-24T13:54:14Z</time>
      </trkpt>
      <trkpt lat="47.477780" lon="0.782570">
        <time>2017-06-24T13:54:15Z</time>
      </trkpt>
      <trkpt lat="47.477930" lon="0.782910">
        <time>2017-06-24T13:54:16Z</time>
      </trkpt>
      <trkpt lat="47.478110" lon="0.783290">
        <time>2017-06-24T13:54:17Z</time>
      </trkpt>
      <trkpt lat="47.478280" lon="0.783680">
        <time>2017-06-24T13:54:18Z</time>
      </trkpt>
      <trkpt lat="47.478440" lon="0.784020">
        <time>2017-06-24T13:54:19Z</time>
      </trkpt>
      <trkpt lat="47.478620" lon="0.784410">
        <time>2017-06-24T13:54:20Z</time>
      </trkpt>
      <trkpt lat="47.478770" lon="0.784750">
        <time>2017-06-24T13:54:21Z</time>
      </trkpt>
      <trkpt lat="47.478940" lon="0.785110">
        <time>2017-06-24T13:54:22Z</time>
      </trkpt>
      <trkpt lat="47.479110" lon="0.785490">
        <time>2017-06-24T13:54:23Z</time>
      </trkpt>
      <trkpt lat="47.479270" lon="0.785840">
        <time>2017-06-24T13:54:24Z</time>
      </trkpt>
      <trkpt lat="47.479430" lon="0.786200">
        <time>2017-06-24T13:54:25Z</time>
      </trkpt>
      <trkpt lat="47.479600" lon="0.786560">
        <time>2017-06-24T13:54:26Z</time>
      </trkpt>
      <trkpt lat="47.479760" lon="0.786920">
        <time>2017-06-24T13:54:27Z</time>
      </trkpt>
      <trkpt lat="47.479930" lon="0.787300">
        <time>2017-06-24T13:54:28Z</time>
      </trkpt>
      <trkpt lat="47.480080" lon="0.787640">
        <time>2017-06-24T13:54:29Z</time>
      </trkpt>
      <trkpt lat="47.480240" lon="0.788010">
        <time>2017-06-24T13:54:30Z</time>
      </trkpt>
      <trkpt lat="47.480400" lon="0.788390">
        <time>2017-06-24T13:54:31Z</time>
      </trkpt>
      <trkpt lat="47.480550" lon="0.788730">
        <time>2017-06-24T13:54:32Z</time>
      </trkpt>
      <trkpt lat="47.480700" lon="0.789100">
        <time>2017-06-24T13:54:33Z</time>
      </trkpt>
      <trkpt lat="47.480860" lon="0.789480">
        <time>2017-06-24T13:54:34Z</time>
      </trkpt>
      <trkpt lat="47.481000" lon="0.789820">
        <time>2017-06-24T13:54:35Z</time>
      </trkpt>
      <trkpt lat="47.481160" lon="0.790200">
        <time>2017-06-24T13:54:36Z</time>
      </trkpt>
      <trkpt lat="47.481290" lon="0.790540">
        <time>2017-06-24T13:54:37Z</time>
      </trkpt>
      <trkpt lat="47.481440" lon="0.790900">
        <time>2017-06-24T13:54:38Z</time>
      </trkpt>
      <trkpt lat="47.481600" lon="0.791280">
        <time>2017-06-24T13:54:39Z</time>
      </trkpt>
      <trkpt lat="47.481730" lon="0.791610">
        <time>2017-06-24T13:54:40Z</time>
      </trkpt>
      <trkpt lat="47.481870" lon="0.791970">
        <time>2017-06-24T13:54:41Z</time>
      </trkpt>
      <trkpt lat="47.482010" lon="0.792330">
        <time>2017-06-24T13:54:42Z</time>
      </trkpt>
      <trkpt lat="47.482160" lon="0.792700">
        <time>2017-06-24T13:54:43Z</time>
      </trkpt>
      <trkpt lat="47.482310" lon="0.793080">
        <time>2017-06-24T13:54:44Z</time>
      </trkpt>
      <trkpt lat="47.482440" lon="0.793420">
        <time>2017-06-24T13:54:45Z</time>
      </trkpt>
      <trkpt lat="47.482580" lon="0.793790">
        <time>2017-06-24T13:54:46Z</time>
      </trkpt>
      <trkpt lat="47.482730" lon="0.794190">
        <time>2017-06-24T13:54:47Z</time>
      </trkpt>
      <trkpt lat="47.482860" lon="0.794550">
        <time>2017-06-24T13:54:48Z</time>
      </trkpt>
      <trkpt lat="47.483000" lon="0.794930">
        <time>2017-06-24T13:54:49Z</time>
      </trkpt>
      <trkpt lat="47.483150" lon="0.795340">
        <time>2017-06-24T13:54:50Z</time>
      </trkpt>
      <trkpt lat="47.483280" lon="0.795710">
        <time>2017-06-24T13:54:51Z</time>
      </trkpt>
      <trkpt lat="47.483430" lon="0.796130">
        <time>2017-06-24T13:54:52Z</time>
      </trkpt>
      <trkpt lat="47.483560" lon="0.796500">
        <time>2017-06-24T13:54:53Z</time>
      </trkpt>
      <trkpt lat="47.483700" lon="0.796900">
        <time>2017-06-24T13:54:54Z</time>
      </trkpt>
      <trkpt lat="47.483850" lon="0.797330">
        <time>2017-06-24T13:54:55Z</time>
      </trkpt>
      <trkpt lat="47.483980" lon="0.797700">
        <time>2017-06-24T13:54:56Z</time>
      </trkpt>
      <trkpt lat="47.484120" lon="0.798110">
        <time>2017-06-24T13:54:57Z</time>
      </trkpt>
      <trkpt lat="47.484250" lon="0.798510">
        <time>2017-06-24T13:54:58Z</time>
      </trkpt>
      <trkpt lat="47.484390" lon="0.798900">
        <time>2017-06-24T13:54:59Z</time>
      </trkpt>
      <trkpt lat="47.484520" lon="0.799330">
        <time>2017-06-24T13:55:00Z</time>
      </trkpt>
      <trkpt lat="47.484650" lon="0.799700">
        <time>2017-06-24T13:55:01Z</time>
      </trkpt>
      <trkpt lat="47.484770" lon="0.800100">
        <time>2017-06-24T13:55:02Z</time>
      </trkpt>
      <trkpt lat="47.484910" lon="0.800530">
        <time>2017-06-24T13:55:03Z</time>
      </trkpt>
      <trkpt lat="47.485020" lon="0.800900">
        <time>2017-06-24T13:55:04Z</time>
      </trkpt>
      <trkpt lat="47.485150" lon="0.801300">
        <time>2017-06-24T13:55:05Z</time>
      </trkpt>
      <trkpt lat="47.485280" lon="0.801720">
        <time>2017-06-24T13:55:06Z</time>
      </trkpt>
      <trkpt lat="47.485390" lon="0.802090">
        <time>2017-06-24T13:55:07Z</time>
      </trkpt>
      <trkpt lat="47.485530" lon="0.802520">
        <time>2017-06-24T13:55:08Z</time>
      </trkpt>
      <trkpt lat="47.485640" lon="0.802890">
        <time>2017-06-24T13:55:09Z</time>
      </trkpt>
      <trkpt lat="47.485760" lon="0.803290">
        <time>2017-06-24T13:55:10Z</time>
      </trkpt>
      <trkpt lat="47.485890" lon="0.803730">
        <time>2017-06-24T13:55:11Z</time>
      </trkpt>
      <trkpt lat="47.486000" lon="0.804110">
        <time>2017-06-24T13:55:12Z</time>
      </trkpt>
      <trkpt lat="47.486120" lon="0.804510">
        <time>2017-06-24T13:55:13Z</time>
      </trkpt>
      <trkpt lat="47.486230" lon="0.804920">
        <time>2017-06-24T13:55:14Z</time>
      </trkpt>
      <trkpt lat="47.486350" lon="0.805330">
        <time>2017-06-24T13:55:15Z</time>
      </trkpt>
      <trkpt lat="47.486470" lon="0.805760">
        <time>2017-06-24T13:55:16Z</time>
      </trkpt>
      <trkpt lat="47.486580" lon="0.806140">
        <time>2017-06-24T13:55:17Z</time>
      </trkpt>
      <trkpt lat="47.486690" lon="0.806540">
        <time>2017-06-24T13:55:18Z</time>
      </trkpt>
      <trkpt lat="47.486800" lon="0.806980">
        <time>2017-06-24T13:55:19Z</time>
      </trkpt>
      <trkpt lat="47.486910" lon="0.807350">
        <time>2017-06-24T13:55:20Z</time>
      </trkpt>
      <trkpt lat="47.487020" lon="0.807760">
        <time>2017-06-24T13:55:21Z</time>
      </trkpt>
      <trkpt lat="47.487130" lon="0.808180">
        <time>2017-06-24T13:55:22Z</time>
      </trkpt>
      <trkpt lat="47.487220" lon="0.808550">
        <time>2017-06-24T13:55:23Z</time>
      </trkpt>
      <trkpt lat="47.487330" lon="0.808960">
        <time>2017-06-24T13:55:24Z</time>
      </trkpt>
      <trkpt lat="47.487420" lon="0.809310">
        <time>2017-06-24T13:55:25Z</time>
      </trkpt>
      <trkpt lat="47.487520" lon="0.809670">
        <time>2017-06-24T13:55:26Z</time>
      </trkpt>
      <trkpt lat="47.487630" lon="0.810040">
        <time>2017-06-24T13:55:27Z</time>
      </trkpt>
      <trkpt lat="47.487710" lon="0.810350">
        <time>2017-06-24T13:55:28Z</time>
      </trkpt>
      <trkpt lat="47.487800" lon="0.810700">
        <time>2017-06-24T13:55:29Z</time>
      </trkpt>
      <trkpt lat="47.487900" lon="0.811020">
        <time>2017-06-24T13:55:30Z</time>
      </trkpt>
      <trkpt lat="47.487990" lon="0.811360">
        <time>2017-06-24T13:55:31Z</time>
      </trkpt>
      <trkpt lat="47.488080" lon="0.811720">
        <time>2017-06-24T13:55:32Z</time>
      </trkpt>
      <trkpt lat="47.488160" lon="0.812030">
        <time>2017-06-24T13:55:33Z</time>
      </trkpt>
      <trkpt lat="47.488250" lon="0.812350">
        <time>2017-06-24T13:55:34Z</time>
      </trkpt>
      <trkpt lat="47.488340" lon="0.812680">
        <time>2017-06-24T13:55:35Z</time>
      </trkpt>
      <trkpt lat="47.488410" lon="0.812980">
        <time>2017-06-24T13:55:36Z</time>
      </trkpt>
      <trkpt lat="47.488490" lon="0.813290">
        <time>2017-06-24T13:55:37Z</time>
      </trkpt>
      <trkpt lat="47.488570" lon="0.813610">
        <time>2017-06-24T13:55:38Z</time>
      </trkpt>
      <trkpt lat="47.488640" lon="0.813880">
        <time>2017-06-24T13:55:39Z</time>
      </trkpt>
      <trkpt lat="47.488720" lon="0.814190">
        <time>2017-06-24T13:55:40Z</time>
      </trkpt>
      <trkpt lat="47.488780" lon="0.814440">
        <time>2017-06-24T13:55:41Z</time>
      </trkpt>
      <trkpt lat="47.488850" lon="0.814700">
        <time>2017-06-24T13:55:42Z</time>
      </trkpt>
      <trkpt lat="47.488920" lon="0.814960">
        <time>2017-06-24T13:55:43Z</time>
      </trkpt>
      <trkpt lat="47.488980" lon="0.815190">
        <time>2017-06-24T13:55:44Z</time>
      </trkpt>
      <trkpt lat="47.489040" lon="0.815410">
        <time>2017-06-24T13:55:45Z</time>
      </trkpt>
      <trkpt lat="47.489090" lon="0.815640">
        <time>2017-06-24T13:55:46Z</time>
      </trkpt>
      <trkpt lat="47.489150" lon="0.815860">
        <time>2017-06-24T13:55:47Z</time>
      </trkpt>
      <trkpt lat="47.489200" lon="0.816100">
        <time>2017-06-24T13:55:48Z</time>
      </trkpt>
      <trkpt lat="47.489250" lon="0.816300">
        <time>2017-06-24T13:55:49Z</time>
      </trkpt>
      <trkpt lat="47.489300" lon="0.816500">
        <time>2017-06-24T13:55:50Z</time>
      </trkpt>
      <trkpt lat="47.489360" lon="0.816720">
        <time>2017-06-24T13:55:51Z</time>
      </trkpt>
      <trkpt lat="47.489400" lon="0.816910">
        <time>2017-06-24T13:55:52Z</time>
      </trkpt>
      <trkpt lat="47.489440" lon="0.817090">
        <time>2017-06-24T13:55:53Z</time>
      </trkpt>
      <trkpt lat="47.489490" lon="0.817290">
        <time>2017-06-24T13:55:54Z</time>
      </trkpt>
      <trkpt lat="47.489530" lon="0.817440">
        <time>2017-06-24T13:55:55Z</time>
      </trkpt>
      <trkpt lat="47.489580" lon="0.817620">
        <time>2017-06-24T13:55:56Z</time>
      </trkpt>
      <trkpt lat="47.489610" lon="0.817770">
        <time>2017-06-24T13:55:57Z</time>
      </trkpt>
      <trkpt lat="47.489650" lon="0.817920">
        <time>2017-06-24T13:55:58Z</time>
      </trkpt>
      <trkpt lat="47.489700" lon="0.818070">
        <time>2017-06-24T13:55:59Z</time>
      </trkpt>
      <trkpt lat="47.489730" lon="0.818200">
        <time>2017-06-24T13:56:00Z</time>
      </trkpt>
      <trkpt lat="47.489770" lon="0.818340">
        <time>2017-06-24T13:56:01Z</time>
      </trkpt>
      <trkpt lat="47.489800" lon="0.818460">
        <time>2017-06-24T13:56:02Z</time>
      </trkpt>
      <trkpt lat="47.489820" lon="0.818580">
        <time>2017-06-24T13:56:03Z</time>
      </trkpt>
      <trkpt lat="47.489850" lon="0.818690">
        <time>2017-06-24T13:56:04Z</time>
      </trkpt>
      <trkpt lat="47.489870" lon="0.818780">
        <time>2017-06-24T13:56:05Z</time>
      </trkpt>
      <trkpt lat="47.489890" lon="0.818860">
        <time>2017-06-24T13:56:06Z</time>
      </trkpt>
      <trkpt lat="47.489910" lon="0.818940">
        <time>2017-06-24T13:56:07Z</time>
      </trkpt>
      <trkpt lat="47.489930" lon="0.819000">
        <time>2017-06-24T13:56:08Z</time>
      </trkpt>
      <trkpt lat="47.489940" lon="0.819050">
        <time>2017-06-24T13:56:09Z</time>
      </trkpt>
      <trkpt lat="47.489950" lon="0.819080">
        <time>2017-06-24T13:56:10Z</time>
      </trkpt>
      <trkpt lat="47.489960" lon="0.819110">
        <time>2017-06-24T13:56:11Z</time>
      </trkpt>
      <trkpt lat="47.489970" lon="0.819150">
        <time>2017-06-24T13:56:12Z</time>
      </trkpt>
      <trkpt lat="47.489980" lon="0.819190">
        <time>2017-06-24T13:56:13Z</time>
      </trkpt>
      <trkpt lat="47.489990" lon="0.819210">
        <time>2017-06-24T13:56:14Z</time>
      </trkpt>
      <trkpt lat="47.490000" lon="0.819230">
        <time>2017-06-24T13:56:15Z</time>
      </trkpt>
      <trkpt lat="47.490000" lon="0.819240">
        <time>2017-06-24T13:56:16Z</time>
      </trkpt>
      <trkpt lat="47.490000" lon="0.819250">
        <time>2017-06-24T13:56:17Z</time>
      </trkpt>
      <trkpt lat="47.490000" lon="0.819260">
        <time>2017-06-24T13:56:18Z</time>
      </trkpt>
      <trkpt lat="47.490000" lon="0.819270">
        <time>2017-06-24T13:56:19Z</time>
      </trkpt>
      <trkpt lat="47.490000" lon="0.819270">
        <time>2017-06-24T13:56:20Z</time>
      </trkpt>
      <trkpt lat="47.490000" lon="0.819270">
        <time>2017-06-24T13:56:21Z</time>
      </trkpt>
      <trkpt lat="47.490000" lon="0.819270">
        <time>2017-06-24T13:56:22Z</time>
      </trkpt>
      <trkpt lat="47.490000" lon="0.819270">
        <time>2017-06-24T13:56:23Z</time>
      </trkpt>
      <trkpt lat="47.490000" lon="0.819290">
        <time>2017-06-24T13:56:24Z</time>
      </trkpt>
      <trkpt lat="47.490010" lon="0.819300">
        <time>2017-06-24T13:56:25Z</time>
      </trkpt>
      <trkpt lat="47.490010" lon="0.819320">
        <time>2017-06-24T13:56:26Z</time>
      </trkpt>
      <trkpt lat="47.490020" lon="0.819340">
        <time>2017-06-24T13:56:27Z</time>
      </trkpt>
      <trkpt lat="47.490020" lon="0.819360">
        <time>2017-06-24T13:56:28Z</time>
      </trkpt>
      <trkpt lat="47.490030" lon="0.819380">
        <time>2017-06-24T13:56:29Z</time>
      </trkpt>
      <trkpt lat="47.490030" lon="0.819390">
        <time>2017-06-24T13:56:30Z</time>
      </trkpt>
      <trkpt lat="47.490040" lon="0.819390">
        <time>2017-06-24T13:56:31Z</time>
      </trkpt>
      <trkpt lat="47.490040" lon="0.819390">
        <time>2017-06-24T13:56:32Z</time>
      </trkpt>
      <trkpt lat="47.490040" lon="0.819390">
        <time>2017-06-24T13:56:33Z</time>
      </trkpt>
      <trkpt lat="47.490030" lon="0.819390">
        <time>2017-06-24T13:56:34Z</time>
      </trkpt>
      <trkpt lat="47.490030" lon="0.819390">
        <time>2017-06-24T13:56:35Z</time>
      </trkpt>
      <trkpt lat="47.490030" lon="0.819400">
        <time>2017-06-24T13:56:36Z</time>
      </trkpt>
      <trkpt lat="47.490040" lon="0.819420">
        <time>2017-06-24T13:56:37Z</time>
      </trkpt>
      <trkpt lat="47.490040" lon="0.819440">
        <time>2017-06-24T13:56:38Z</time>
      </trkpt>
      <trkpt lat="47.490040" lon="0.819460">
        <time>2017-06-24T13:56:39Z</time>
      </trkpt>
      <trkpt lat="47.490050" lon="0.819480">
        <time>2017-06-24T13:56:40Z</time>
      </trkpt>
      <trkpt lat="47.490050" lon="0.819500">
        <time>2017-06-24T13:56:41Z</time>
      </trkpt>
      <trkpt lat="47.490050" lon="0.819510">
        <time>2017-06-24T13:56:42Z</time>
      </trkpt>
      <trkpt lat="47.490050" lon="0.819510">
        <time>2017-06-24T13:56:43Z</time>
      </trkpt>
      <trkpt lat="47.490050" lon="0.819510">
        <time>2017-06-24T13:56:44Z</time>
      </trkpt>
      <trkpt lat="47.490050" lon="0.819510">
        <time>2017-06-24T13:56:45Z</time>
      </trkpt>
      <trkpt lat="47.490050" lon="0.819510">
        <time>2017-06-24T13:56:46Z</time>
      </trkpt>
      <trkpt lat="47.490050" lon="0.819510">
        <time>2017-06-24T13:56:47Z</time>
      </trkpt>
      <trkpt lat="47.490050" lon="0.819510">
        <time>2017-06-24T13:56:48Z</time>
      </trkpt>
      <trkpt lat="47.490050" lon="0.819510">
        <time>2017-06-24T13:56:49Z</time>
      </trkpt>
      <trkpt lat="47.490050" lon="0.819510">
        <time>2017-06-24T13:56:50Z</time>
      </trkpt>
      <trkpt lat="47.490050" lon="0.819510">
        <time>2017-06-24T13:56:51Z</time>
      </trkpt>
      <trkpt lat="47.490050" lon="0.819510">
        <time>2017-06-24T13:56:52Z</time>
      </trkpt>
      <trkpt lat="47.490050" lon="0.819510">
        <time>2017-06-24T13:56:53Z</time>
      </trkpt>
      <trkpt lat="47.490050" lon="0.819510">
        <time>2017-06-24T13:56:54Z</time>
      </trkpt>
      <trkpt lat="47.490050" lon="0.819510">
        <time>2017-06-24T13:56:55Z</time>
      </trkpt>
      <trkpt lat="47.490050" lon="0.819510">
        <time>2017-06-24T13:56:56Z</time>
      </trkpt>
      <trkpt lat="47.490050" lon="0.819510">
        <time>2017-06-24T13:56:57Z</time>
      </trkpt>
      <trkpt lat="47.490050" lon="0.819510">
        <time>2017-06-24T13:56:58Z</time>
      </trkpt>
      <trkpt lat="47.490050" lon="0.819510">
        <time>2017-06-24T13:56:59Z</time>
      </trkpt>
      <trkpt lat="47.490050" lon="0.819510">
        <time>2017-06-24T13:57:00Z</time>
      </trkpt>
      <trkpt lat="47.490060" lon="0.819530">
        <time>2017-06-24T13:57:01Z</time>
      </trkpt>
      <trkpt lat="47.490070" lon="0.819560">
        <time>2017-06-24T13:57:02Z</time>
      </trkpt>
      <trkpt lat="47.490080" lon="0.819600">
        <time>2017-06-24T13:57:03Z</time>
      </trkpt>
      <trkpt lat="47.490130" lon="0.819740">
        <time>2017-06-24T13:57:04Z</time>
      </trkpt>
      <trkpt lat="47.490160" lon="0.819840">
        <time>2017-06-24T13:57:05Z</time>
      </trkpt>
      <trkpt lat="47.490190" lon="0.819960">
        <time>2017-06-24T13:57:06Z</time>
      </trkpt>
      <trkpt lat="47.490220" lon="0.820090">
        <time>2017-06-24T13:57:07Z</time>
      </trkpt>
      <trkpt lat="47.490240" lon="0.820220">
        <time>2017-06-24T13:57:08Z</time>
      </trkpt>
      <trkpt lat="47.490260" lon="0.820340">
        <time>2017-06-24T13:57:09Z</time>
      </trkpt>
      <trkpt lat="47.490270" lon="0.820470">
        <time>2017-06-24T13:57:10Z</time>
      </trkpt>
      <trkpt lat="47.490300" lon="0.820620">
        <time>2017-06-24T13:57:11Z</time>
      </trkpt>
      <trkpt lat="47.490330" lon="0.820740">
        <time>2017-06-24T13:57:12Z</time>
      </trkpt>
      <trkpt lat="47.490350" lon="0.820850">
        <time>2017-06-24T13:57:13Z</time>
      </trkpt>
      <trkpt lat="47.490360" lon="0.820970">
        <time>2017-06-24T13:57:14Z</time>
      </trkpt>
      <trkpt lat="47.490360" lon="0.821060">
        <time>2017-06-24T13:57:15Z</time>
      </trkpt>
      <trkpt lat="47.490350" lon="0.821160">
        <time>2017-06-24T13:57:16Z</time>
      </trkpt>
      <trkpt lat="47.490320" lon="0.821230">
        <time>2017-06-24T13:57:17Z</time>
      </trkpt>
      <trkpt lat="47.490300" lon="0.821310">
        <time>2017-06-24T13:57:18Z</time>
      </trkpt>
      <trkpt lat="47.490300" lon="0.821390">
        <time>2017-06-24T13:57:19Z</time>
      </trkpt>
      <trkpt lat="47.490310" lon="0.821450">
        <time>2017-06-24T13:57:20Z</time>
      </trkpt>
      <trkpt lat="47.490320" lon="0.821510">
        <time>2017-06-24T13:57:21Z</time>
      </trkpt>
      <trkpt lat="47.490320" lon="0.821560">
        <time>2017-06-24T13:57:22Z</time>
      </trkpt>
      <trkpt lat="47.490330" lon="0.821580">
        <time>2017-06-24T13:57:23Z</time>
      </trkpt>
      <trkpt lat="47.490340" lon="0.821590">
        <time>2017-06-24T13:57:24Z</time>
      </trkpt>
      <trkpt lat="47.490340" lon="0.821600">
        <time>2017-06-24T13:57:25Z</time>
      </trkpt>
      <trkpt lat="47.490340" lon="0.821600">
        <time>2017-06-24T13:57:26Z</time>
      </trkpt>
      <trkpt lat="47.490340" lon="0.821600">
        <time>2017-06-24T13:57:27Z</time>
      </trkpt>
      <trkpt lat="47.490340" lon="0.821600">
        <time>2017-06-24T13:57:28Z</time>
      </trkpt>
      <trkpt lat="47.490340" lon="0.821600">
        <time>2017-06-24T13:57:29Z</time>
      </trkpt>
      <trkpt lat="47.490340" lon="0.821600">
        <time>2017-06-24T13:57:30Z</time>
      </trkpt>
      <trkpt lat="47.490340" lon="0.821600">
        <time>2017-06-24T13:57:31Z</time>
      </trkpt>
      <trkpt lat="47.490340" lon="0.821600">
        <time>2017-06-24T13:57:32Z</time>
      </trkpt>
      <trkpt lat="47.490340" lon="0.821600">
        <time>2017-06-24T13:57:33Z</time>
      </trkpt>
      <trkpt lat="47.490340" lon="0.821600">
        <time>2017-06-24T13:57:34Z</time>
      </trkpt>
      <trkpt lat="47.490340" lon="0.821600">
        <time>2017-06-24T13:57:35Z</time>
      </trkpt>
      <trkpt lat="47.490340" lon="0.821600">
        <time>2017-06-24T13:57:36Z</time>
      </trkpt>
      <trkpt lat="47.490340" lon="0.821600">
        <time>2017-06-24T13:57:37Z</time>
      </trkpt>
      <trkpt lat="47.490340" lon="0.821600">
        <time>2017-06-24T13:57:38Z</time>
      </trkpt>
      <trkpt lat="47.490340" lon="0.821600">
        <time>2017-06-24T13:57:39Z</time>
      </trkpt>
      <trkpt lat="47.490340" lon="0.821600">
        <time>2017-06-24T13:57:40Z</time>
      </trkpt>
      <trkpt lat="47.490340" lon="0.821600">
        <time>2017-06-24T13:57:41Z</time>
      </trkpt>
      <trkpt lat="47.490340" lon="0.821600">
        <time>2017-06-24T13:57:42Z</time>
      </trkpt>
      <trkpt lat="47.490340" lon="0.821600">
        <time>2017-06-24T13:57:43Z</time>
      </trkpt>
      <trkpt lat="47.490340" lon="0.821600">
        <time>2017-06-24T13:57:44Z</time>
      </trkpt>
      <trkpt lat="47.490340" lon="0.821600">
        <time>2017-06-24T13:57:45Z</time>
      </trkpt>
      <trkpt lat="47.490340" lon="0.821600">
        <time>2017-06-24T13:57:46Z</time>
      </trkpt>
      <trkpt lat="47.490340" lon="0.821600">
        <time>2017-06-24T13:57:47Z</time>
      </trkpt>
      <trkpt lat="47.490340" lon="0.821600">
        <time>2017-06-24T13:57:48Z</time>
      </trkpt>
      <trkpt lat="47.490340" lon="0.821600">
        <time>2017-06-24T13:57:49Z</time>
      </trkpt>
      <trkpt lat="47.490340" lon="0.821600">
        <time>2017-06-24T13:57:50Z</time>
      </trkpt>
      <trkpt lat="47.490340" lon="0.821600">
        <time>2017-06-24T13:57:51Z</time>
      </trkpt>
      <trkpt lat="47.490340" lon="0.821600">
        <time>2017-06-24T13:57:52Z</time>
      </trkpt>
      <trkpt lat="47.490340" lon="0.821600">
        <time>2017-06-24T13:57:53Z</time>
      </trkpt>
      <trkpt lat="47.490340" lon="0.821600">
        <time>2017-06-24T13:57:54Z</time>
      </trkpt>
      <trkpt lat="47.490340" lon="0.821600">
        <time>2017-06-24T13:57:55Z</time>
      </trkpt>
      <trkpt lat="47.490340" lon="0.821600">
        <time>2017-06-24T13:57:56Z</time>
      </trkpt>
      <trkpt lat="47.490340" lon="0.821600">
        <time>2017-06-24T13:57:57Z</time>
      </trkpt>
      <trkpt lat="47.490340" lon="0.821600">
        <time>2017-06-24T13:57:58Z</time>
      </trkpt>
      <trkpt lat="47.490340" lon="0.821600">
        <time>2017-06-24T13:57:59Z</time>
      </trkpt>
      <trkpt lat="47.490340" lon="0.821600">
        <time>2017-06-24T13:58:00Z</time>
      </trkpt>
      <trkpt lat="47.490340" lon="0.821600">
        <time>2017-06-24T13:58:01Z</time>
      </trkpt>
      <trkpt lat="47.490340" lon="0.821600">
        <time>2017-06-24T13:58:02Z</time>
      </trkpt>
      <trkpt lat="47.490340" lon="0.821600">
        <time>2017-06-24T13:58:03Z</time>
      </trkpt>
      <trkpt lat="47.490340" lon="0.821600">
        <time>2017-06-24T13:58:04Z</time>
      </trkpt>
      <trkpt lat="47.490340" lon="0.821600">
        <time>2017-06-24T13:58:05Z</time>
      </trkpt>
      <trkpt lat="47.490340" lon="0.821600">
        <time>2017-06-24T13:58:06Z</time>
      </trkpt>
      <trkpt lat="47.490340" lon="0.821600">
        <time>2017-06-24T13:58:07Z</time>
      </trkpt>
      <trkpt lat="47.490340" lon="0.821600">
        <time>2017-06-24T13:58:08Z</time>
      </trkpt>
      <trkpt lat="47.490340" lon="0.821600">
        <time>2017-06-24T13:58:09Z</time>
      </trkpt>
      <trkpt lat="47.490340" lon="0.821600">
        <time>2017-06-24T13:58:10Z</time>
      </trkpt>
      <trkpt lat="47.490340" lon="0.821600">
        <time>2017-06-24T13:58:11Z</time>
      </trkpt>
      <trkpt lat="47.490340" lon="0.821600">
        <time>2017-06-24T13:58:12Z</time>
      </trkpt>
      <trkpt lat="47.490340" lon="0.821600">
        <time>2017-06-24T13:58:13Z</time>
      </trkpt>
      <trkpt lat="47.490340" lon="0.821600">
        <time>2017-06-24T13:58:14Z</time>
      </trkpt>
      <trkpt lat="47.490340" lon="0.821600">
        <time>2017-06-24T13:58:15Z</time>
      </trkpt>
      <trkpt lat="47.490340" lon="0.821600">
        <time>2017-06-24T13:58:16Z</time>
      </trkpt>
      <trkpt lat="47.490340" lon="0.821600">
        <time>2017-06-24T13:58:17Z</time>
      </trkpt>
      <trkpt lat="47.490340" lon="0.821600">
        <time>2017-06-24T13:58:18Z</time>
      </trkpt>
      <trkpt lat="47.490340" lon="0.821600">
        <time>2017-06-24T13:58:19Z</time>
      </trkpt>
      <trkpt lat="47.490340" lon="0.821600">
        <time>2017-06-24T13:58:20Z</time>
      </trkpt>
      <trkpt lat="47.490340" lon="0.821600">
        <time>2017-06-24T13:58:21Z</time>
      </trkpt>
      <trkpt lat="47.490340" lon="0.821600">
        <time>2017-06-24T13:58:22Z</time>
      </trkpt>
      <trkpt lat="47.490340" lon="0.821600">
        <time>2017-06-24T13:58:23Z</time>
      </trkpt>
      <trkpt lat="47.490340" lon="0.821600">
        <time>2017-06-24T13:58:24Z</time>
      </trkpt>
      <trkpt lat="47.490340" lon="0.821600">
        <time>2017-06-24T13:58:25Z</time>
      </trkpt>
      <trkpt lat="47.490340" lon="0.821600">
        <time>2017-06-24T13:58:26Z</time>
      </trkpt>
      <trkpt lat="47.490340" lon="0.821600">
        <time>2017-06-24T13:58:27Z</time>
      </trkpt>
      <trkpt lat="47.490340" lon="0.821600">
        <time>2017-06-24T13:58:28Z</time>
      </trkpt>
      <trkpt lat="47.490340" lon="0.821600">
        <time>2017-06-24T13:58:29Z</time>
      </trkpt>
      <trkpt lat="47.490340" lon="0.821600">
        <time>2017-06-24T13:58:30Z</time>
      </trkpt>
      <trkpt lat="47.490340" lon="0.821600">
        <time>2017-06-24T13:58:31Z</time>
      </trkpt>
      <trkpt lat="47.490340" lon="0.821600">
        <time>2017-06-24T13:58:32Z</time>
      </trkpt>
      <trkpt lat="47.490340" lon="0.821600">
        <time>2017-06-24T13:58:33Z</time>
      </trkpt>
      <trkpt lat="47.490340" lon="0.821600">
        <time>2017-06-24T13:58:34Z</time>
      </trkpt>
      <trkpt lat="47.490340" lon="0.821600">
        <time>2017-06-24T13:58:35Z</time>
      </trkpt>
      <trkpt lat="47.490340" lon="0.821600">
        <time>2017-06-24T13:58:36Z</time>
      </trkpt>
      <trkpt lat="47.490340" lon="0.821600">
        <time>2017-06-24T13:58:37Z</time>
      </trkpt>
      <trkpt lat="47.490340" lon="0.821600">
        <time>2017-06-24T13:58:38Z</time>
      </trkpt>
      <trkpt lat="47.490340" lon="0.821600">
        <time>2017-06-24T13:58:39Z</time>
      </trkpt>
      <trkpt lat="47.490340" lon="0.821600">
        <time>2017-06-24T13:58:40Z</time>
      </trkpt>
      <trkpt lat="47.490340" lon="0.821600">
        <time>2017-06-24T13:58:41Z</time>
      </trkpt>
      <trkpt lat="47.490340" lon="0.821600">
        <time>2017-06-24T13:58:42Z</time>
      </trkpt>
      <trkpt lat="47.490340" lon="0.821600">
        <time>2017-06-24T13:58:43Z</time>
      </trkpt>
      <trkpt lat="47.490340" lon="0.821600">
        <time>2017-06-24T13:58:44Z</time>
      </trkpt>
      <trkpt lat="47.490340" lon="0.821600">
        <time>2017-06-24T13:58:45Z</time>
      </trkpt>
      <trkpt lat="47.490340" lon="0.821600">
        <time>2017-06-24T13:58:46Z</time>
      </trkpt>
      <trkpt lat="47.490340" lon="0.821600">
        <time>2017-06-24T13:58:47Z</time>
      </trkpt>
      <trkpt lat="47.490340" lon="0.821600">
        <time>2017-06-24T13:58:48Z</time>
      </trkpt>
      <trkpt lat="47.490340" lon="0.821600">
        <time>2017-06-24T13:58:49Z</time>
      </trkpt>
      <trkpt lat="47.490340" lon="0.821600">
        <time>2017-06-24T13:58:50Z</time>
      </trkpt>
      <trkpt lat="47.490340" lon="0.821600">
        <time>2017-06-24T13:58:51Z</time>
      </trkpt>
      <trkpt lat="47.490340" lon="0.821600">
        <time>2017-06-24T13:58:52Z</time>
      </trkpt>
      <trkpt lat="47.490340" lon="0.821600">
        <time>2017-06-24T13:58:53Z</time>
      </trkpt>
      <trkpt lat="47.490340" lon="0.821600">
        <time>2017-06-24T13:58:54Z</time>
      </trkpt>
      <trkpt lat="47.490340" lon="0.821600">
        <time>2017-06-24T13:58:55Z</time>
      </trkpt>
      <trkpt lat="47.490340" lon="0.821600">
        <time>2017-06-24T13:58:56Z</time>
      </trkpt>
      <trkpt lat="47.490340" lon="0.821600">
        <time>2017-06-24T13:58:57Z</time>
      </trkpt>
      <trkpt lat="47.490340" lon="0.821600">
        <time>2017-06-24T13:58:58Z</time>
      </trkpt>
      <trkpt lat="47.490340" lon="0.821600">
        <time>2017-06-24T13:58:59Z</time>
      </trkpt>
      <trkpt lat="47.490340" lon="0.821600">
        <time>2017-06-24T13:59:00Z</time>
      </trkpt>
      <trkpt lat="47.490340" lon="0.821600">
        <time>2017-06-24T13:59:01Z</time>
      </trkpt>
      <trkpt lat="47.490340" lon="0.821600">
        <time>2017-06-24T13:59:02Z</time>
      </trkpt>
      <trkpt lat="47.490340" lon="0.821600">
        <time>2017-06-24T13:59:03Z</time>
      </trkpt>
      <trkpt lat="47.490340" lon="0.821600">
        <time>2017-06-24T13:59:04Z</time>
      </trkpt>
      <trkpt lat="47.490340" lon="0.821600">
        <time>2017-06-24T13:59:05Z</time>
      </trkpt>
      <trkpt lat="47.490340" lon="0.821600">
        <time>2017-06-24T13:59:06Z</time>
      </trkpt>
      <trkpt lat="47.490340" lon="0.821600">
        <time>2017-06-24T13:59:07Z</time>
      </trkpt>
      <trkpt lat="47.490340" lon="0.821600">
        <time>2017-06-24T13:59:08Z</time>
      </trkpt>
      <trkpt lat="47.490340" lon="0.821600">
        <time>2017-06-24T13:59:09Z</time>
      </trkpt>
      <trkpt lat="47.490340" lon="0.821600">
        <time>2017-06-24T13:59:10Z</time>
      </trkpt>
      <trkpt lat="47.490340" lon="0.821600">
        <time>2017-06-24T13:59:11Z</time>
      </trkpt>
      <trkpt lat="47.490340" lon="0.821600">
        <time>2017-06-24T13:59:12Z</time>
      </trkpt>
      <trkpt lat="47.490340" lon="0.821600">
        <time>2017-06-24T13:59:13Z</time>
      </trkpt>
      <trkpt lat="47.490340" lon="0.821600">
        <time>2017-06-24T13:59:14Z</time>
      </trkpt>
      <trkpt lat="47.490340" lon="0.821600">
        <time>2017-06-24T13:59:15Z</time>
      </trkpt>
      <trkpt lat="47.490340" lon="0.821600">
        <time>2017-06-24T13:59:16Z</time>
      </trkpt>
      <trkpt lat="47.490340" lon="0.821600">
        <time>2017-06-24T13:59:17Z</time>
      </trkpt>
      <trkpt lat="47.490340" lon="0.821600">
        <time>2017-06-24T13:59:18Z</time>
      </trkpt>
      <trkpt lat="47.490340" lon="0.821600">
        <time>2017-06-24T13:59:19Z</time>
      </trkpt>
      <trkpt lat="47.490340" lon="0.821600">
        <time>2017-06-24T13:59:20Z</time>
      </trkpt>
      <trkpt lat="47.490340" lon="0.821600">
        <time>2017-06-24T13:59:21Z</time>
      </trkpt>
      <trkpt lat="47.490340" lon="0.821600">
        <time>2017-06-24T13:59:22Z</time>
      </trkpt>
      <trkpt lat="47.490340" lon="0.821600">
        <time>2017-06-24T13:59:23Z</time>
      </trkpt>
      <trkpt lat="47.490340" lon="0.821600">
        <time>2017-06-24T13:59:24Z</time>
      </trkpt>
      <trkpt lat="47.490340" lon="0.821600">
        <time>2017-06-24T13:59:25Z</time>
      </trkpt>
      <trkpt lat="47.490340" lon="0.821600">
        <time>2017-06-24T13:59:26Z</time>
      </trkpt>
      <trkpt lat="47.490340" lon="0.821600">
        <time>2017-06-24T13:59:27Z</time>
      </trkpt>
      <trkpt lat="47.490340" lon="0.821600">
        <time>2017-06-24T13:59:28Z</time>
      </trkpt>
      <trkpt lat="47.490340" lon="0.821600">
        <time>2017-06-24T13:59:29Z</time>
      </trkpt>
      <trkpt lat="47.490340" lon="0.821600">
        <time>2017-06-24T13:59:30Z</time>
      </trkpt>
      <trkpt lat="47.490340" lon="0.821600">
        <time>2017-06-24T13:59:31Z</time>
      </trkpt>
      <trkpt lat="47.490340" lon="0.821600">
        <time>2017-06-24T13:59:32Z</time>
      </trkpt>
      <trkpt lat="47.490340" lon="0.821600">
        <time>2017-06-24T13:59:33Z</time>
      </trkpt>
      <trkpt lat="47.490340" lon="0.821600">
        <time>2017-06-24T13:59:34Z</time>
      </trkpt>
      <trkpt lat="47.490340" lon="0.821600">
        <time>2017-06-24T13:59:35Z</time>
      </trkpt>
      <trkpt lat="47.490340" lon="0.821600">
        <time>2017-06-24T13:59:36Z</time>
      </trkpt>
      <trkpt lat="47.490340" lon="0.821600">
        <time>2017-06-24T13:59:37Z</time>
      </trkpt>
      <trkpt lat="47.490340" lon="0.821600">
        <time>2017-06-24T13:59:38Z</time>
      </trkpt>
      <trkpt lat="47.490340" lon="0.821600">
        <time>2017-06-24T13:59:39Z</time>
      </trkpt>
      <trkpt lat="47.490340" lon="0.821600">
        <time>2017-06-24T13:59:40Z</time>
      </trkpt>
      <trkpt lat="47.490340" lon="0.821600">
        <time>2017-06-24T13:59:41Z</time>
      </trkpt>
      <trkpt lat="47.490340" lon="0.821600">
        <time>2017-06-24T13:59:42Z</time>
      </trkpt>
      <trkpt lat="47.490340" lon="0.821600">
        <time>2017-06-24T13:59:43Z</time>
      </trkpt>
      <trkpt lat="47.490340" lon="0.821600">
        <time>2017-06-24T13:59:44Z</time>
      </trkpt>
      <trkpt lat="47.490340" lon="0.821600">
        <time>2017-06-24T13:59:45Z</time>
      </trkpt>
      <trkpt lat="47.490340" lon="0.821600">
        <time>2017-06-24T13:59:46Z</time>
      </trkpt>
      <trkpt lat="47.490340" lon="0.821600">
        <time>2017-06-24T13:59:47Z</time>
      </trkpt>
      <trkpt lat="47.490340" lon="0.821600">
        <time>2017-06-24T13:59:48Z</time>
      </trkpt>
      <trkpt lat="47.490340" lon="0.821600">
        <time>2017-06-24T13:59:49Z</time>
      </trkpt>
      <trkpt lat="47.490340" lon="0.821600">
        <time>2017-06-24T13:59:50Z</time>
      </trkpt>
      <trkpt lat="47.490340" lon="0.821600">
        <time>2017-06-24T13:59:51Z</time>
      </trkpt>
      <trkpt lat="47.490340" lon="0.821600">
        <time>2017-06-24T13:59:52Z</time>
      </trkpt>
      <trkpt lat="47.490340" lon="0.821600">
        <time>2017-06-24T13:59:53Z</time>
      </trkpt>
      <trkpt lat="47.490340" lon="0.821600">
        <time>2017-06-24T13:59:54Z</time>
      </trkpt>
      <trkpt lat="47.490340" lon="0.821600">
        <time>2017-06-24T13:59:55Z</time>
      </trkpt>
      <trkpt lat="47.490340" lon="0.821600">
        <time>2017-06-24T13:59:56Z</time>
      </trkpt>
      <trkpt lat="47.490340" lon="0.821600">
        <time>2017-06-24T13:59:57Z</time>
      </trkpt>
      <trkpt lat="47.490340" lon="0.821600">
        <time>2017-06-24T13:59:58Z</time>
      </trkpt>
      <trkpt lat="47.490340" lon="0.821600">
        <time>2017-06-24T13:59:59Z</time>
      </trkpt>
      <trkpt lat="47.490340" lon="0.821600">
        <time>2017-06-24T14:00:00Z</time>
      </trkpt>
      <trkpt lat="47.490340" lon="0.821600">
        <time>2017-06-24T14:00:01Z</time>
      </trkpt>
      <trkpt lat="47.490340" lon="0.821600">
        <time>2017-06-24T14:00:02Z</time>
      </trkpt>
      <trkpt lat="47.490340" lon="0.821600">
        <time>2017-06-24T14:00:03Z</time>
      </trkpt>
      <trkpt lat="47.490340" lon="0.821600">
        <time>2017-06-24T14:00:04Z</time>
      </trkpt>
      <trkpt lat="47.490340" lon="0.821600">
        <time>2017-06-24T14:00:05Z</time>
      </trkpt>
      <trkpt lat="47.490340" lon="0.821600">
        <time>2017-06-24T14:00:06Z</time>
      </trkpt>
      <trkpt lat="47.490340" lon="0.821600">
        <time>2017-06-24T14:00:07Z</time>
      </trkpt>
      <trkpt lat="47.490340" lon="0.821600">
        <time>2017-06-24T14:00:08Z</time>
      </trkpt>
      <trkpt lat="47.490340" lon="0.821600">
        <time>2017-06-24T14:00:09Z</time>
      </trkpt>
      <trkpt lat="47.490340" lon="0.821600">
        <time>2017-06-24T14:00:10Z</time>
      </trkpt>
      <trkpt lat="47.490340" lon="0.821600">
        <time>2017-06-24T14:00:11Z</time>
      </trkpt>
      <trkpt lat="47.490340" lon="0.821600">
        <time>2017-06-24T14:00:12Z</time>
      </trkpt>
      <trkpt lat="47.490340" lon="0.821600">
        <time>2017-06-24T14:00:13Z</time>
      </trkpt>
      <trkpt lat="47.490340" lon="0.821600">
        <time>2017-06-24T14:00:14Z</time>
      </trkpt>
      <trkpt lat="47.490340" lon="0.821600">
        <time>2017-06-24T14:00:15Z</time>
      </trkpt>
      <trkpt lat="47.490340" lon="0.821600">
        <time>2017-06-24T14:00:16Z</time>
      </trkpt>
      <trkpt lat="47.490340" lon="0.821600">
        <time>2017-06-24T14:00:17Z</time>
      </trkpt>
      <trkpt lat="47.490340" lon="0.821600">
        <time>2017-06-24T14:00:18Z</time>
      </trkpt>
      <trkpt lat="47.490340" lon="0.821600">
        <time>2017-06-24T14:00:19Z</time>
      </trkpt>
      <trkpt lat="47.490340" lon="0.821600">
        <time>2017-06-24T14:00:20Z</time>
      </trkpt>
      <trkpt lat="47.490340" lon="0.821600">
        <time>2017-06-24T14:00:21Z</time>
      </trkpt>
      <trkpt lat="47.490340" lon="0.821600">
        <time>2017-06-24T14:00:22Z</time>
      </trkpt>
      <trkpt lat="47.490340" lon="0.821600">
        <time>2017-06-24T14:00:23Z</time>
      </trkpt>
      <trkpt lat="47.490340" lon="0.821600">
        <time>2017-06-24T14:00:24Z</time>
      </trkpt>
      <trkpt lat="47.490340" lon="0.821600">
        <time>2017-06-24T14:00:25Z</time>
      </trkpt>
      <trkpt lat="47.490340" lon="0.821600">
        <time>2017-06-24T14:00:26Z</time>
      </trkpt>
      <trkpt lat="47.490340" lon="0.821600">
        <time>2017-06-24T14:00:27Z</time>
      </trkpt>
      <trkpt lat="47.490340" lon="0.821600">
        <time>2017-06-24T14:00:28Z</time>
      </trkpt>
      <trkpt lat="47.490340" lon="0.821600">
        <time>2017-06-24T14:00:29Z</time>
      </trkpt>
      <trkpt lat="47.490340" lon="0.821600">
        <time>2017-06-24T14:00:30Z</time>
      </trkpt>
      <trkpt lat="47.490340" lon="0.821600">
        <time>2017-06-24T14:00:31Z</time>
      </trkpt>
      <trkpt lat="47.490340" lon="0.821600">
        <time>2017-06-24T14:00:32Z</time>
      </trkpt>
      <trkpt lat="47.490340" lon="0.821600">
        <time>2017-06-24T14:00:33Z</time>
      </trkpt>
      <trkpt lat="47.490340" lon="0.821600">
        <time>2017-06-24T14:00:34Z</time>
      </trkpt>
      <trkpt lat="47.490340" lon="0.821600">
        <time>2017-06-24T14:00:35Z</time>
      </trkpt>
      <trkpt lat="47.490340" lon="0.821600">
        <time>2017-06-24T14:00:36Z</time>
      </trkpt>
      <trkpt lat="47.490340" lon="0.821600">
        <time>2017-06-24T14:00:37Z</time>
      </trkpt>
      <trkpt lat="47.490340" lon="0.821600">
        <time>2017-06-24T14:00:38Z</time>
      </trkpt>
      <trkpt lat="47.490340" lon="0.821600">
        <time>2017-06-24T14:00:39Z</time>
      </trkpt>
      <trkpt lat="47.490340" lon="0.821600">
        <time>2017-06-24T14:00:40Z</time>
      </trkpt>
      <trkpt lat="47.490340" lon="0.821600">
        <time>2017-06-24T14:00:41Z</time>
      </trkpt>
      <trkpt lat="47.490340" lon="0.821600">
        <time>2017-06-24T14:00:42Z</time>
      </trkpt>
      <trkpt lat="47.490340" lon="0.821600">
        <time>2017-06-24T14:00:43Z</time>
      </trkpt>
      <trkpt lat="47.490340" lon="0.821600">
        <time>2017-06-24T14:00:44Z</time>
      </trkpt>
      <trkpt lat="47.490340" lon="0.821600">
        <time>2017-06-24T14:00:45Z</time>
      </trkpt>
      <trkpt lat="47.490340" lon="0.821600">
        <time>2017-06-24T14:00:46Z</time>
      </trkpt>
      <trkpt lat="47.490340" lon="0.821600">
        <time>2017-06-24T14:00:47Z</time>
      </trkpt>
      <trkpt lat="47.490340" lon="0.821600">
        <time>2017-06-24T14:00:48Z</time>
      </trkpt>
      <trkpt lat="47.490340" lon="0.821600">
        <time>2017-06-24T14:00:49Z</time>
      </trkpt>
      <trkpt lat="47.490340" lon="0.821600">
        <time>2017-06-24T14:00:50Z</time>
      </trkpt>
      <trkpt lat="47.490340" lon="0.821600">
        <time>2017-06-24T14:00:51Z</time>
      </trkpt>
      <trkpt lat="47.490340" lon="0.821600">
        <time>2017-06-24T14:00:52Z</time>
      </trkpt>
      <trkpt lat="47.490340" lon="0.821600">
        <time>2017-06-24T14:00:53Z</time>
      </trkpt>
      <trkpt lat="47.490340" lon="0.821600">
        <time>2017-06-24T14:00:54Z</time>
      </trkpt>
      <trkpt lat="47.490340" lon="0.821600">
        <time>2017-06-24T14:00:55Z</time>
      </trkpt>
      <trkpt lat="47.490340" lon="0.821600">
        <time>2017-06-24T14:00:56Z</time>
      </trkpt>
      <trkpt lat="47.490340" lon="0.821600">
        <time>2017-06-24T14:00:57Z</time>
      </trkpt>
      <trkpt lat="47.490340" lon="0.821600">
        <time>2017-06-24T14:00:58Z</time>
      </trkpt>
      <trkpt lat="47.490340" lon="0.821600">
        <time>2017-06-24T14:00:59Z</time>
      </trkpt>
      <trkpt lat="47.490340" lon="0.821600">
        <time>2017-06-24T14:01:00Z</time>
      </trkpt>
      <trkpt lat="47.490340" lon="0.821600">
        <time>2017-06-24T14:01:01Z</time>
      </trkpt>
      <trkpt lat="47.490340" lon="0.821600">
        <time>2017-06-24T14:01:02Z</time>
      </trkpt>
      <trkpt lat="47.490340" lon="0.821600">
        <time>2017-06-24T14:01:03Z</time>
      </trkpt>
      <trkpt lat="47.490340" lon="0.821600">
        <time>2017-06-24T14:01:04Z</time>
      </trkpt>
      <trkpt lat="47.490340" lon="0.821600">
        <time>2017-06-24T14:01:05Z</time>
      </trkpt>
      <trkpt lat="47.490340" lon="0.821600">
        <time>2017-06-24T14:01:06Z</time>
      </trkpt>
      <trkpt lat="47.490340" lon="0.821600">
        <time>2017-06-24T14:01:07Z</time>
      </trkpt>
      <trkpt lat="47.490340" lon="0.821600">
        <time>2017-06-24T14:01:08Z</time>
      </trkpt>
      <trkpt lat="47.490340" lon="0.821600">
        <time>2017-06-24T14:01:09Z</time>
      </trkpt>
      <trkpt lat="47.490340" lon="0.821600">
        <time>2017-06-24T14:01:10Z</time>
      </trkpt>
      <trkpt lat="47.490340" lon="0.821600">
        <time>2017-06-24T14:01:11Z</time>
      </trkpt>
      <trkpt lat="47.490340" lon="0.821600">
        <time>2017-06-24T14:01:12Z</time>
      </trkpt>
      <trkpt lat="47.490340" lon="0.821600">
        <time>2017-06-24T14:01:13Z</time>
      </trkpt>
      <trkpt lat="47.490340" lon="0.821600">
        <time>2017-06-24T14:01:14Z</time>
      </trkpt>
      <trkpt lat="47.490340" lon="0.821600">
        <time>2017-06-24T14:01:15Z</time>
      </trkpt>
      <trkpt lat="47.490340" lon="0.821600">
        <time>2017-06-24T14:01:16Z</time>
      </trkpt>
      <trkpt lat="47.490340" lon="0.821600">
        <time>2017-06-24T14:01:17Z</time>
      </trkpt>
      <trkpt lat="47.490340" lon="0.821600">
        <time>2017-06-24T14:01:18Z</time>
      </trkpt>
      <trkpt lat="47.490340" lon="0.821600">
        <time>2017-06-24T14:01:19Z</time>
      </trkpt>
      <trkpt lat="47.490340" lon="0.821600">
        <time>2017-06-24T14:01:20Z</time>
      </trkpt>
      <trkpt lat="47.490340" lon="0.821600">
        <time>2017-06-24T14:01:21Z</time>
      </trkpt>
      <trkpt lat="47.490340" lon="0.821600">
        <time>2017-06-24T14:01:22Z</time>
      </trkpt>
      <trkpt lat="47.490340" lon="0.821600">
        <time>2017-06-24T14:01:23Z</time>
      </trkpt>
      <trkpt lat="47.490340" lon="0.821600">
        <time>2017-06-24T14:01:24Z</time>
      </trkpt>
      <trkpt lat="47.490340" lon="0.821600">
        <time>2017-06-24T14:01:25Z</time>
      </trkpt>
      <trkpt lat="47.490340" lon="0.821600">
        <time>2017-06-24T14:01:26Z</time>
      </trkpt>
      <trkpt lat="47.490340" lon="0.821600">
        <time>2017-06-24T14:01:27Z</time>
      </trkpt>
      <trkpt lat="47.490340" lon="0.821600">
        <time>2017-06-24T14:01:28Z</time>
      </trkpt>
      <trkpt lat="47.490340" lon="0.821600">
        <time>2017-06-24T14:01:29Z</time>
      </trkpt>
      <trkpt lat="47.490340" lon="0.821600">
        <time>2017-06-24T14:01:30Z</time>
      </trkpt>
      <trkpt lat="47.490340" lon="0.821600">
        <time>2017-06-24T14:01:31Z</time>
      </trkpt>
      <trkpt lat="47.490340" lon="0.821600">
        <time>2017-06-24T14:01:32Z</time>
      </trkpt>
      <trkpt lat="47.490340" lon="0.821600">
        <time>2017-06-24T14:01:33Z</time>
      </trkpt>
      <trkpt lat="47.490340" lon="0.821600">
        <time>2017-06-24T14:01:34Z</time>
      </trkpt>
      <trkpt lat="47.490340" lon="0.821600">
        <time>2017-06-24T14:01:35Z</time>
      </trkpt>
      <trkpt lat="47.490340" lon="0.821600">
        <time>2017-06-24T14:01:36Z</time>
      </trkpt>
      <trkpt lat="47.490340" lon="0.821600">
        <time>2017-06-24T14:01:37Z</time>
      </trkpt>
      <trkpt lat="47.490340" lon="0.821600">
        <time>2017-06-24T14:01:38Z</time>
      </trkpt>
      <trkpt lat="47.490340" lon="0.821600">
        <time>2017-06-24T14:01:39Z</time>
      </trkpt>
      <trkpt lat="47.490340" lon="0.821600">
        <time>2017-06-24T14:01:40Z</time>
      </trkpt>
      <trkpt lat="47.490340" lon="0.821600">
        <time>2017-06-24T14:01:41Z</time>
      </trkpt>
      <trkpt lat="47.490340" lon="0.821600">
        <time>2017-06-24T14:01:42Z</time>
      </trkpt>
      <trkpt lat="47.490340" lon="0.821600">
        <time>2017-06-24T14:01:43Z</time>
      </trkpt>
      <trkpt lat="47.490340" lon="0.821600">
        <time>2017-06-24T14:01:44Z</time>
      </trkpt>
      <trkpt lat="47.490340" lon="0.821600">
        <time>2017-06-24T14:01:45Z</time>
      </trkpt>
      <trkpt lat="47.490340" lon="0.821600">
        <time>2017-06-24T14:01:46Z</time>
      </trkpt>
      <trkpt lat="47.490340" lon="0.821600">
        <time>2017-06-24T14:01:47Z</time>
      </trkpt>
      <trkpt lat="47.490340" lon="0.821600">
        <time>2017-06-24T14:01:48Z</time>
      </trkpt>
      <trkpt lat="47.490340" lon="0.821600">
        <time>2017-06-24T14:01:49Z</time>
      </trkpt>
      <trkpt lat="47.490340" lon="0.821600">
        <time>2017-06-24T14:01:50Z</time>
      </trkpt>
      <trkpt lat="47.490340" lon="0.821600">
        <time>2017-06-24T14:01:51Z</time>
      </trkpt>
      <trkpt lat="47.490340" lon="0.821600">
        <time>2017-06-24T14:01:52Z</time>
      </trkpt>
      <trkpt lat="47.490340" lon="0.821600">
        <time>2017-06-24T14:01:53Z</time>
      </trkpt>
      <trkpt lat="47.490340" lon="0.821600">
        <time>2017-06-24T14:01:54Z</time>
      </trkpt>
      <trkpt lat="47.490340" lon="0.821600">
        <time>2017-06-24T14:01:55Z</time>
      </trkpt>
      <trkpt lat="47.490340" lon="0.821600">
        <time>2017-06-24T14:01:56Z</time>
      </trkpt>
      <trkpt lat="47.490340" lon="0.821600">
        <time>2017-06-24T14:01:57Z</time>
      </trkpt>
      <trkpt lat="47.490340" lon="0.821600">
        <time>2017-06-24T14:01:58Z</time>
      </trkpt>
      <trkpt lat="47.490340" lon="0.821600">
        <time>2017-06-24T14:01:59Z</time>
      </trkpt>
      <trkpt lat="47.490340" lon="0.821600">
        <time>2017-06-24T14:02:00Z</time>
      </trkpt>
      <trkpt lat="47.490340" lon="0.821600">
        <time>2017-06-24T14:02:01Z</time>
      </trkpt>
      <trkpt lat="47.490340" lon="0.821600">
        <time>2017-06-24T14:02:02Z</time>
      </trkpt>
      <trkpt lat="47.490340" lon="0.821600">
        <time>2017-06-24T14:02:03Z</time>
      </trkpt>
      <trkpt lat="47.490340" lon="0.821600">
        <time>2017-06-24T14:02:04Z</time>
      </trkpt>
      <trkpt lat="47.490340" lon="0.821600">
        <time>2017-06-24T14:02:05Z</time>
      </trkpt>
      <trkpt lat="47.490340" lon="0.821600">
        <time>2017-06-24T14:02:06Z</time>
      </trkpt>
      <trkpt lat="47.490340" lon="0.821600">
        <time>2017-06-24T14:02:07Z</time>
      </trkpt>
      <trkpt lat="47.490340" lon="0.821600">
        <time>2017-06-24T14:02:08Z</time>
      </trkpt>
      <trkpt lat="47.490340" lon="0.821600">
        <time>2017-06-24T14:02:09Z</time>
      </trkpt>
      <trkpt lat="47.490340" lon="0.821600">
        <time>2017-06-24T14:02:10Z</time>
      </trkpt>
      <trkpt lat="47.490340" lon="0.821600">
        <time>2017-06-24T14:02:11Z</time>
      </trkpt>
      <trkpt lat="47.490340" lon="0.821600">
        <time>2017-06-24T14:02:12Z</time>
      </trkpt>
      <trkpt lat="47.490340" lon="0.821600">
        <time>2017-06-24T14:02:13Z</time>
      </trkpt>
      <trkpt lat="47.490340" lon="0.821600">
        <time>2017-06-24T14:02:14Z</time>
      </trkpt>
      <trkpt lat="47.490340" lon="0.821600">
        <time>2017-06-24T14:02:15Z</time>
      </trkpt>
      <trkpt lat="47.490340" lon="0.821600">
        <time>2017-06-24T14:02:16Z</time>
      </trkpt>
      <trkpt lat="47.490340" lon="0.821600">
        <time>2017-06-24T14:02:17Z</time>
      </trkpt>
      <trkpt lat="47.490340" lon="0.821600">
        <time>2017-06-24T14:02:18Z</time>
      </trkpt>
      <trkpt lat="47.490340" lon="0.821600">
        <time>2017-06-24T14:02:19Z</time>
      </trkpt>
      <trkpt lat="47.490340" lon="0.821600">
        <time>2017-06-24T14:02:20Z</time>
      </trkpt>
      <trkpt lat="47.490340" lon="0.821600">
        <time>2017-06-24T14:02:21Z</time>
      </trkpt>
      <trkpt lat="47.490340" lon="0.821600">
        <time>2017-06-24T14:02:22Z</time>
      </trkpt>
      <trkpt lat="47.490340" lon="0.821600">
        <time>2017-06-24T14:02:23Z</time>
      </trkpt>
      <trkpt lat="47.490340" lon="0.821600">
        <time>2017-06-24T14:02:24Z</time>
      </trkpt>
      <trkpt lat="47.490340" lon="0.821600">
        <time>2017-06-24T14:02:25Z</time>
      </trkpt>
      <trkpt lat="47.490340" lon="0.821600">
        <time>2017-06-24T14:02:26Z</time>
      </trkpt>
      <trkpt lat="47.490340" lon="0.821600">
        <time>2017-06-24T14:02:27Z</time>
      </trkpt>
      <trkpt lat="47.490340" lon="0.821600">
        <time>2017-06-24T14:02:28Z</time>
      </trkpt>
      <trkpt lat="47.490340" lon="0.821600">
        <time>2017-06-24T14:02:29Z</time>
      </trkpt>
      <trkpt lat="47.490340" lon="0.821600">
        <time>2017-06-24T14:02:30Z</time>
      </trkpt>
      <trkpt lat="47.490340" lon="0.821600">
        <time>2017-06-24T14:02:31Z</time>
      </trkpt>
      <trkpt lat="47.490340" lon="0.821600">
        <time>2017-06-24T14:02:32Z</time>
      </trkpt>
      <trkpt lat="47.490340" lon="0.821600">
        <time>2017-06-24T14:02:33Z</time>
      </trkpt>
      <trkpt lat="47.490340" lon="0.821600">
        <time>2017-06-24T14:02:34Z</time>
      </trkpt>
      <trkpt lat="47.490340" lon="0.821600">
        <time>2017-06-24T14:02:35Z</time>
      </trkpt>
      <trkpt lat="47.490340" lon="0.821600">
        <time>2017-06-24T14:02:36Z</time>
      </trkpt>
      <trkpt lat="47.490340" lon="0.821600">
        <time>2017-06-24T14:02:37Z</time>
      </trkpt>
      <trkpt lat="47.490340" lon="0.821600">
        <time>2017-06-24T14:02:38Z</time>
      </trkpt>
      <trkpt lat="47.490340" lon="0.821600">
        <time>2017-06-24T14:02:39Z</time>
      </trkpt>
      <trkpt lat="47.490340" lon="0.821600">
        <time>2017-06-24T14:02:40Z</time>
      </trkpt>
      <trkpt lat="47.490340" lon="0.821600">
        <time>2017-06-24T14:02:41Z</time>
      </trkpt>
      <trkpt lat="47.490340" lon="0.821600">
        <time>2017-06-24T14:02:42Z</time>
      </trkpt>
      <trkpt lat="47.490340" lon="0.821600">
        <time>2017-06-24T14:02:43Z</time>
      </trkpt>
      <trkpt lat="47.490340" lon="0.821600">
        <time>2017-06-24T14:02:44Z</time>
      </trkpt>
      <trkpt lat="47.490340" lon="0.821600">
        <time>2017-06-24T14:02:45Z</time>
      </trkpt>
      <trkpt lat="47.490340" lon="0.821600">
        <time>2017-06-24T14:02:46Z</time>
      </trkpt>
      <trkpt lat="47.490340" lon="0.821600">
        <time>2017-06-24T14:02:47Z</time>
      </trkpt>
      <trkpt lat="47.490340" lon="0.821600">
        <time>2017-06-24T14:02:48Z</time>
      </trkpt>
      <trkpt lat="47.490340" lon="0.821600">
        <time>2017-06-24T14:02:49Z</time>
      </trkpt>
      <trkpt lat="47.490340" lon="0.821600">
        <time>2017-06-24T14:02:50Z</time>
      </trkpt>
      <trkpt lat="47.490340" lon="0.821600">
        <time>2017-06-24T14:02:51Z</time>
      </trkpt>
      <trkpt lat="47.490340" lon="0.821600">
        <time>2017-06-24T14:02:52Z</time>
      </trkpt>
      <trkpt lat="47.490340" lon="0.821600">
        <time>2017-06-24T14:02:53Z</time>
      </trkpt>
      <trkpt lat="47.490340" lon="0.821600">
        <time>2017-06-24T14:02:54Z</time>
      </trkpt>
      <trkpt lat="47.490340" lon="0.821600">
        <time>2017-06-24T14:02:55Z</time>
      </trkpt>
      <trkpt lat="47.490340" lon="0.821600">
        <time>2017-06-24T14:02:56Z</time>
      </trkpt>
      <trkpt lat="47.490340" lon="0.821600">
        <time>2017-06-24T14:02:57Z</time>
      </trkpt>
      <trkpt lat="47.490340" lon="0.821600">
        <time>2017-06-24T14:02:58Z</time>
      </trkpt>
      <trkpt lat="47.490340" lon="0.821600">
        <time>2017-06-24T14:02:59Z</time>
      </trkpt>
      <trkpt lat="47.490340" lon="0.821600">
        <time>2017-06-24T14:03:00Z</time>
      </trkpt>
      <trkpt lat="47.490340" lon="0.821600">
        <time>2017-06-24T14:03:01Z</time>
      </trkpt>
      <trkpt lat="47.490340" lon="0.821600">
        <time>2017-06-24T14:03:02Z</time>
      </trkpt>
      <trkpt lat="47.490340" lon="0.821600">
        <time>2017-06-24T14:03:03Z</time>
      </trkpt>
      <trkpt lat="47.490340" lon="0.821600">
        <time>2017-06-24T14:03:04Z</time>
      </trkpt>
      <trkpt lat="47.490340" lon="0.821600">
        <time>2017-06-24T14:03:05Z</time>
      </trkpt>
      <trkpt lat="47.490340" lon="0.821600">
        <time>2017-06-24T14:03:06Z</time>
      </trkpt>
      <trkpt lat="47.490340" lon="0.821600">
        <time>2017-06-24T14:03:07Z</time>
      </trkpt>
      <trkpt lat="47.490340" lon="0.821600">
        <time>2017-06-24T14:03:08Z</time>
      </trkpt>
      <trkpt lat="47.490340" lon="0.821600">
        <time>2017-06-24T14:03:09Z</time>
      </trkpt>
      <trkpt lat="47.490340" lon="0.821600">
        <time>2017-06-24T14:03:10Z</time>
      </trkpt>
      <trkpt lat="47.490340" lon="0.821600">
        <time>2017-06-24T14:03:11Z</time>
      </trkpt>
      <trkpt lat="47.490340" lon="0.821600">
        <time>2017-06-24T14:03:12Z</time>
      </trkpt>
      <trkpt lat="47.490340" lon="0.821600">
        <time>2017-06-24T14:03:13Z</time>
      </trkpt>
      <trkpt lat="47.490340" lon="0.821600">
        <time>2017-06-24T14:03:14Z</time>
      </trkpt>
      <trkpt lat="47.490340" lon="0.821600">
        <time>2017-06-24T14:03:15Z</time>
      </trkpt>
      <trkpt lat="47.490340" lon="0.821600">
        <time>2017-06-24T14:03:16Z</time>
      </trkpt>
      <trkpt lat="47.490340" lon="0.821600">
        <time>2017-06-24T14:03:17Z</time>
      </trkpt>
      <trkpt lat="47.490340" lon="0.821600">
        <time>2017-06-24T14:03:18Z</time>
      </trkpt>
      <trkpt lat="47.490340" lon="0.821600">
        <time>2017-06-24T14:03:19Z</time>
      </trkpt>
      <trkpt lat="47.490340" lon="0.821600">
        <time>2017-06-24T14:03:20Z</time>
      </trkpt>
      <trkpt lat="47.490340" lon="0.821600">
        <time>2017-06-24T14:03:21Z</time>
      </trkpt>
      <trkpt lat="47.490340" lon="0.821600">
        <time>2017-06-24T14:03:22Z</time>
      </trkpt>
      <trkpt lat="47.490340" lon="0.821600">
        <time>2017-06-24T14:03:23Z</time>
      </trkpt>
      <trkpt lat="47.490340" lon="0.821600">
        <time>2017-06-24T14:03:24Z</time>
      </trkpt>
      <trkpt lat="47.490340" lon="0.821600">
        <time>2017-06-24T14:03:25Z</time>
      </trkpt>
      <trkpt lat="47.490340" lon="0.821600">
        <time>2017-06-24T14:03:26Z</time>
      </trkpt>
      <trkpt lat="47.490340" lon="0.821600">
        <time>2017-06-24T14:03:27Z</time>
      </trkpt>
      <trkpt lat="47.490340" lon="0.821600">
        <time>2017-06-24T14:03:28Z</time>
      </trkpt>
      <trkpt lat="47.490340" lon="0.821600">
        <time>2017-06-24T14:03:29Z</time>
      </trkpt>
      <trkpt lat="47.490340" lon="0.821600">
        <time>2017-06-24T14:03:30Z</time>
      </trkpt>
      <trkpt lat="47.490340" lon="0.821600">
        <time>2017-06-24T14:03:31Z</time>
      </trkpt>
      <trkpt lat="47.490340" lon="0.821600">
        <time>2017-06-24T14:03:32Z</time>
      </trkpt>
      <trkpt lat="47.490340" lon="0.821600">
        <time>2017-06-24T14:03:33Z</time>
      </trkpt>
      <trkpt lat="47.490340" lon="0.821600">
        <time>2017-06-24T14:03:34Z</time>
      </trkpt>
      <trkpt lat="47.490340" lon="0.821600">
        <time>2017-06-24T14:03:35Z</time>
      </trkpt>
      <trkpt lat="47.490340" lon="0.821600">
        <time>2017-06-24T14:03:36Z</time>
      </trkpt>
      <trkpt lat="47.490340" lon="0.821600">
        <time>2017-06-24T14:03:37Z</time>
      </trkpt>
      <trkpt lat="47.490340" lon="0.821600">
        <time>2017-06-24T14:03:38Z</time>
      </trkpt>
      <trkpt lat="47.490340" lon="0.821600">
        <time>2017-06-24T14:03:39Z</time>
      </trkpt>
      <trkpt lat="47.490340" lon="0.821600">
        <time>2017-06-24T14:03:40Z</time>
      </trkpt>
      <trkpt lat="47.490340" lon="0.821600">
        <time>2017-06-24T14:03:41Z</time>
      </trkpt>
      <trkpt lat="47.490340" lon="0.821600">
        <time>2017-06-24T14:03:42Z</time>
      </trkpt>
      <trkpt lat="47.490340" lon="0.821600">
        <time>2017-06-24T14:03:43Z</time>
      </trkpt>
      <trkpt lat="47.490340" lon="0.821600">
        <time>2017-06-24T14:03:44Z</time>
      </trkpt>
      <trkpt lat="47.490340" lon="0.821600">
        <time>2017-06-24T14:03:45Z</time>
      </trkpt>
      <trkpt lat="47.490340" lon="0.821600">
        <time>2017-06-24T14:03:46Z</time>
      </trkpt>
      <trkpt lat="47.490340" lon="0.821600">
        <time>2017-06-24T14:03:47Z</time>
      </trkpt>
      <trkpt lat="47.490340" lon="0.821600">
        <time>2017-06-24T14:03:48Z</time>
      </trkpt>
      <trkpt lat="47.490340" lon="0.821600">
        <time>2017-06-24T14:03:49Z</time>
      </trkpt>
      <trkpt lat="47.490340" lon="0.821600">
        <time>2017-06-24T14:03:50Z</time>
      </trkpt>
      <trkpt lat="47.490340" lon="0.821600">
        <time>2017-06-24T14:03:51Z</time>
      </trkpt>
      <trkpt lat="47.490340" lon="0.821600">
        <time>2017-06-24T14:03:52Z</time>
      </trkpt>
      <trkpt lat="47.490340" lon="0.821600">
        <time>2017-06-24T14:03:53Z</time>
      </trkpt>
      <trkpt lat="47.490340" lon="0.821600">
        <time>2017-06-24T14:03:54Z</time>
      </trkpt>
      <trkpt lat="47.490340" lon="0.821600">
        <time>2017-06-24T14:03:55Z</time>
      </trkpt>
      <trkpt lat="47.490340" lon="0.821600">
        <time>2017-06-24T14:03:56Z</time>
      </trkpt>
      <trkpt lat="47.490340" lon="0.821600">
        <time>2017-06-24T14:03:57Z</time>
      </trkpt>
      <trkpt lat="47.490340" lon="0.821600">
        <time>2017-06-24T14:03:58Z</time>
      </trkpt>
      <trkpt lat="47.490340" lon="0.821600">
        <time>2017-06-24T14:03:59Z</time>
      </trkpt>
      <trkpt lat="47.490340" lon="0.821600">
        <time>2017-06-24T14:04:00Z</time>
      </trkpt>
      <trkpt lat="47.490340" lon="0.821600">
        <time>2017-06-24T14:04:01Z</time>
      </trkpt>
      <trkpt lat="47.490340" lon="0.821600">
        <time>2017-06-24T14:04:02Z</time>
      </trkpt>
      <trkpt lat="47.490340" lon="0.821600">
        <time>2017-06-24T14:04:03Z</time>
      </trkpt>
      <trkpt lat="47.490340" lon="0.821600">
        <time>2017-06-24T14:04:04Z</time>
      </trkpt>
      <trkpt lat="47.490340" lon="0.821600">
        <time>2017-06-24T14:04:05Z</time>
      </trkpt>
      <trkpt lat="47.490340" lon="0.821600">
        <time>2017-06-24T14:04:06Z</time>
      </trkpt>
      <trkpt lat="47.490340" lon="0.821600">
        <time>2017-06-24T14:04:07Z</time>
      </trkpt>
      <trkpt lat="47.490340" lon="0.821600">
        <time>2017-06-24T14:04:08Z</time>
      </trkpt>
      <trkpt lat="47.490340" lon="0.821600">
        <time>2017-06-24T14:04:09Z</time>
      </trkpt>
      <trkpt lat="47.490340" lon="0.821600">
        <time>2017-06-24T14:04:10Z</time>
      </trkpt>
      <trkpt lat="47.490340" lon="0.821600">
        <time>2017-06-24T14:04:11Z</time>
      </trkpt>
      <trkpt lat="47.490340" lon="0.821600">
        <time>2017-06-24T14:04:12Z</time>
      </trkpt>
      <trkpt lat="47.490340" lon="0.821600">
        <time>2017-06-24T14:04:13Z</time>
      </trkpt>
      <trkpt lat="47.490340" lon="0.821600">
        <time>2017-06-24T14:04:14Z</time>
      </trkpt>
      <trkpt lat="47.490340" lon="0.821600">
        <time>2017-06-24T14:04:15Z</time>
      </trkpt>
      <trkpt lat="47.490340" lon="0.821600">
        <time>2017-06-24T14:04:16Z</time>
      </trkpt>
      <trkpt lat="47.490340" lon="0.821600">
        <time>2017-06-24T14:04:17Z</time>
      </trkpt>
      <trkpt lat="47.490340" lon="0.821600">
        <time>2017-06-24T14:04:18Z</time>
      </trkpt>
      <trkpt lat="47.490340" lon="0.821600">
        <time>2017-06-24T14:04:19Z</time>
      </trkpt>
      <trkpt lat="47.490340" lon="0.821600">
        <time>2017-06-24T14:04:20Z</time>
      </trkpt>
      <trkpt lat="47.490340" lon="0.821600">
        <time>2017-06-24T14:04:21Z</time>
      </trkpt>
      <trkpt lat="47.490340" lon="0.821600">
        <time>2017-06-24T14:04:22Z</time>
      </trkpt>
      <trkpt lat="47.490340" lon="0.821600">
        <time>2017-06-24T14:04:23Z</time>
      </trkpt>
      <trkpt lat="47.490340" lon="0.821600">
        <time>2017-06-24T14:04:24Z</time>
      </trkpt>
      <trkpt lat="47.490340" lon="0.821600">
        <time>2017-06-24T14:04:25Z</time>
      </trkpt>
      <trkpt lat="47.490340" lon="0.821600">
        <time>2017-06-24T14:04:26Z</time>
      </trkpt>
      <trkpt lat="47.490340" lon="0.821600">
        <time>2017-06-24T14:04:27Z</time>
      </trkpt>
      <trkpt lat="47.490340" lon="0.821600">
        <time>2017-06-24T14:04:28Z</time>
      </trkpt>
      <trkpt lat="47.490340" lon="0.821600">
        <time>2017-06-24T14:04:29Z</time>
      </trkpt>
      <trkpt lat="47.490340" lon="0.821600">
        <time>2017-06-24T14:04:30Z</time>
      </trkpt>
      <trkpt lat="47.490340" lon="0.821600">
        <time>2017-06-24T14:04:31Z</time>
      </trkpt>
      <trkpt lat="47.490340" lon="0.821600">
        <time>2017-06-24T14:04:32Z</time>
      </trkpt>
      <trkpt lat="47.490340" lon="0.821600">
        <time>2017-06-24T14:04:33Z</time>
      </trkpt>
      <trkpt lat="47.490340" lon="0.821600">
        <time>2017-06-24T14:04:34Z</time>
      </trkpt>
      <trkpt lat="47.490340" lon="0.821600">
        <time>2017-06-24T14:04:35Z</time>
      </trkpt>
      <trkpt lat="47.490340" lon="0.821600">
        <time>2017-06-24T14:04:36Z</time>
      </trkpt>
      <trkpt lat="47.490340" lon="0.821600">
        <time>2017-06-24T14:04:37Z</time>
      </trkpt>
      <trkpt lat="47.490340" lon="0.821600">
        <time>2017-06-24T14:04:38Z</time>
      </trkpt>
      <trkpt lat="47.490340" lon="0.821600">
        <time>2017-06-24T14:04:39Z</time>
      </trkpt>
      <trkpt lat="47.490340" lon="0.821600">
        <time>2017-06-24T14:04:40Z</time>
      </trkpt>
      <trkpt lat="47.490340" lon="0.821600">
        <time>2017-06-24T14:04:41Z</time>
      </trkpt>
      <trkpt lat="47.490340" lon="0.821600">
        <time>2017-06-24T14:04:42Z</time>
      </trkpt>
      <trkpt lat="47.490340" lon="0.821600">
        <time>2017-06-24T14:04:43Z</time>
      </trkpt>
      <trkpt lat="47.490340" lon="0.821600">
        <time>2017-06-24T14:04:44Z</time>
      </trkpt>
      <trkpt lat="47.490340" lon="0.821600">
        <time>2017-06-24T14:04:45Z</time>
      </trkpt>
      <trkpt lat="47.490340" lon="0.821600">
        <time>2017-06-24T14:04:46Z</time>
      </trkpt>
      <trkpt lat="47.490340" lon="0.821600">
        <time>2017-06-24T14:04:47Z</time>
      </trkpt>
      <trkpt lat="47.490340" lon="0.821600">
        <time>2017-06-24T14:04:48Z</time>
      </trkpt>
      <trkpt lat="47.490340" lon="0.821600">
        <time>2017-06-24T14:04:49Z</time>
      </trkpt>
      <trkpt lat="47.490340" lon="0.821600">
        <time>2017-06-24T14:04:50Z</time>
      </trkpt>
      <trkpt lat="47.490340" lon="0.821600">
        <time>2017-06-24T14:04:51Z</time>
      </trkpt>
      <trkpt lat="47.490340" lon="0.821600">
        <time>2017-06-24T14:04:52Z</time>
      </trkpt>
      <trkpt lat="47.490340" lon="0.821600">
        <time>2017-06-24T14:04:53Z</time>
      </trkpt>
      <trkpt lat="47.490340" lon="0.821600">
        <time>2017-06-24T14:04:54Z</time>
      </trkpt>
      <trkpt lat="47.490340" lon="0.821600">
        <time>2017-06-24T14:04:55Z</time>
      </trkpt>
      <trkpt lat="47.490340" lon="0.821600">
        <time>2017-06-24T14:04:56Z</time>
      </trkpt>
      <trkpt lat="47.490340" lon="0.821600">
        <time>2017-06-24T14:04:57Z</time>
      </trkpt>
      <trkpt lat="47.490340" lon="0.821600">
        <time>2017-06-24T14:04:58Z</time>
      </trkpt>
      <trkpt lat="47.490340" lon="0.821600">
        <time>2017-06-24T14:04:59Z</time>
      </trkpt>
      <trkpt lat="47.490340" lon="0.821600">
        <time>2017-06-24T14:05:00Z</time>
      </trkpt>
      <trkpt lat="47.490340" lon="0.821600">
        <time>2017-06-24T14:05:01Z</time>
      </trkpt>
      <trkpt lat="47.490340" lon="0.821600">
        <time>2017-06-24T14:05:02Z</time>
      </trkpt>
      <trkpt lat="47.490340" lon="0.821600">
        <time>2017-06-24T14:05:03Z</time>
      </trkpt>
      <trkpt lat="47.490340" lon="0.821600">
        <time>2017-06-24T14:05:04Z</time>
      </trkpt>
      <trkpt lat="47.490340" lon="0.821600">
        <time>2017-06-24T14:05:05Z</time>
      </trkpt>
      <trkpt lat="47.490340" lon="0.821600">
        <time>2017-06-24T14:05:06Z</time>
      </trkpt>
      <trkpt lat="47.490340" lon="0.821600">
        <time>2017-06-24T14:05:07Z</time>
      </trkpt>
      <trkpt lat="47.490340" lon="0.821600">
        <time>2017-06-24T14:05:08Z</time>
      </trkpt>
      <trkpt lat="47.490340" lon="0.821600">
        <time>2017-06-24T14:05:09Z</time>
      </trkpt>
      <trkpt lat="47.490340" lon="0.821600">
        <time>2017-06-24T14:05:10Z</time>
      </trkpt>
      <trkpt lat="47.490340" lon="0.821600">
        <time>2017-06-24T14:05:11Z</time>
      </trkpt>
      <trkpt lat="47.490340" lon="0.821600">
        <time>2017-06-24T14:05:12Z</time>
      </trkpt>
      <trkpt lat="47.490340" lon="0.821600">
        <time>2017-06-24T14:05:13Z</time>
      </trkpt>
      <trkpt lat="47.490340" lon="0.821600">
        <time>2017-06-24T14:05:14Z</time>
      </trkpt>
      <trkpt lat="47.490340" lon="0.821600">
        <time>2017-06-24T14:05:15Z</time>
      </trkpt>
      <trkpt lat="47.490340" lon="0.821600">
        <time>2017-06-24T14:05:16Z</time>
      </trkpt>
      <trkpt lat="47.490340" lon="0.821600">
        <time>2017-06-24T14:05:17Z</time>
      </trkpt>
      <trkpt lat="47.490340" lon="0.821600">
        <time>2017-06-24T14:05:18Z</time>
      </trkpt>
      <trkpt lat="47.490340" lon="0.821600">
        <time>2017-06-24T14:05:19Z</time>
      </trkpt>
      <trkpt lat="47.490340" lon="0.821600">
        <time>2017-06-24T14:05:20Z</time>
      </trkpt>
      <trkpt lat="47.490340" lon="0.821600">
        <time>2017-06-24T14:05:21Z</time>
      </trkpt>
      <trkpt lat="47.490340" lon="0.821600">
        <time>2017-06-24T14:05:22Z</time>
      </trkpt>
      <trkpt lat="47.490340" lon="0.821600">
        <time>2017-06-24T14:05:23Z</time>
      </trkpt>
      <trkpt lat="47.490340" lon="0.821600">
        <time>2017-06-24T14:05:24Z</time>
      </trkpt>
      <trkpt lat="47.490340" lon="0.821600">
        <time>2017-06-24T14:05:25Z</time>
      </trkpt>
      <trkpt lat="47.490340" lon="0.821600">
        <time>2017-06-24T14:05:26Z</time>
      </trkpt>
      <trkpt lat="47.490340" lon="0.821600">
        <time>2017-06-24T14:05:27Z</time>
      </trkpt>
      <trkpt lat="47.490340" lon="0.821600">
        <time>2017-06-24T14:05:28Z</time>
      </trkpt>
      <trkpt lat="47.490340" lon="0.821600">
        <time>2017-06-24T14:05:29Z</time>
      </trkpt>
      <trkpt lat="47.490340" lon="0.821600">
        <time>2017-06-24T14:05:30Z</time>
      </trkpt>
      <trkpt lat="47.490340" lon="0.821600">
        <time>2017-06-24T14:05:31Z</time>
      </trkpt>
      <trkpt lat="47.490340" lon="0.821600">
        <time>2017-06-24T14:05:32Z</time>
      </trkpt>
      <trkpt lat="47.490340" lon="0.821600">
        <time>2017-06-24T14:05:33Z</time>
      </trkpt>
      <trkpt lat="47.490340" lon="0.821600">
        <time>2017-06-24T14:05:34Z</time>
      </trkpt>
      <trkpt lat="47.490340" lon="0.821600">
        <time>2017-06-24T14:05:35Z</time>
      </trkpt>
      <trkpt lat="47.490340" lon="0.821600">
        <time>2017-06-24T14:05:36Z</time>
      </trkpt>
      <trkpt lat="47.490340" lon="0.821600">
        <time>2017-06-24T14:05:37Z</time>
      </trkpt>
      <trkpt lat="47.490340" lon="0.821600">
        <time>2017-06-24T14:05:38Z</time>
      </trkpt>
      <trkpt lat="47.490340" lon="0.821600">
        <time>2017-06-24T14:05:39Z</time>
      </trkpt>
      <trkpt lat="47.490340" lon="0.821600">
        <time>2017-06-24T14:05:40Z</time>
      </trkpt>
      <trkpt lat="47.490340" lon="0.821600">
        <time>2017-06-24T14:05:41Z</time>
      </trkpt>
      <trkpt lat="47.490340" lon="0.821600">
        <time>2017-06-24T14:05:42Z</time>
      </trkpt>
      <trkpt lat="47.490340" lon="0.821600">
        <time>2017-06-24T14:05:43Z</time>
      </trkpt>
      <trkpt lat="47.490340" lon="0.821600">
        <time>2017-06-24T14:05:44Z</time>
      </trkpt>
      <trkpt lat="47.490340" lon="0.821600">
        <time>2017-06-24T14:05:45Z</time>
      </trkpt>
      <trkpt lat="47.490340" lon="0.821600">
        <time>2017-06-24T14:05:46Z</time>
      </trkpt>
      <trkpt lat="47.490340" lon="0.821600">
        <time>2017-06-24T14:05:47Z</time>
      </trkpt>
      <trkpt lat="47.490340" lon="0.821600">
        <time>2017-06-24T14:05:48Z</time>
      </trkpt>
      <trkpt lat="47.490340" lon="0.821600">
        <time>2017-06-24T14:05:49Z</time>
      </trkpt>
      <trkpt lat="47.490340" lon="0.821600">
        <time>2017-06-24T14:05:50Z</time>
      </trkpt>
      <trkpt lat="47.490340" lon="0.821600">
        <time>2017-06-24T14:05:51Z</time>
      </trkpt>
      <trkpt lat="47.490340" lon="0.821600">
        <time>2017-06-24T14:05:52Z</time>
      </trkpt>
      <trkpt lat="47.490340" lon="0.821600">
        <time>2017-06-24T14:05:53Z</time>
      </trkpt>
      <trkpt lat="47.490340" lon="0.821600">
        <time>2017-06-24T14:05:54Z</time>
      </trkpt>
      <trkpt lat="47.490340" lon="0.821600">
        <time>2017-06-24T14:05:55Z</time>
      </trkpt>
      <trkpt lat="47.490340" lon="0.821600">
        <time>2017-06-24T14:05:56Z</time>
      </trkpt>
      <trkpt lat="47.490340" lon="0.821600">
        <time>2017-06-24T14:05:57Z</time>
      </trkpt>
      <trkpt lat="47.490340" lon="0.821600">
        <time>2017-06-24T14:05:58Z</time>
      </trkpt>
      <trkpt lat="47.490340" lon="0.821600">
        <time>2017-06-24T14:05:59Z</time>
      </trkpt>
      <trkpt lat="47.490340" lon="0.821600">
        <time>2017-06-24T14:06:00Z</time>
      </trkpt>
      <trkpt lat="47.490340" lon="0.821600">
        <time>2017-06-24T14:06:01Z</time>
      </trkpt>
      <trkpt lat="47.490340" lon="0.821600">
        <time>2017-06-24T14:06:02Z</time>
      </trkpt>
      <trkpt lat="47.490340" lon="0.821600">
        <time>2017-06-24T14:06:03Z</time>
      </trkpt>
      <trkpt lat="47.490340" lon="0.821600">
        <time>2017-06-24T14:06:04Z</time>
      </trkpt>
      <trkpt lat="47.490340" lon="0.821600">
        <time>2017-06-24T14:06:05Z</time>
      </trkpt>
      <trkpt lat="47.490340" lon="0.821600">
        <time>2017-06-24T14:06:06Z</time>
      </trkpt>
      <trkpt lat="47.490340" lon="0.821600">
        <time>2017-06-24T14:06:07Z</time>
      </trkpt>
      <trkpt lat="47.490340" lon="0.821600">
        <time>2017-06-24T14:06:08Z</time>
      </trkpt>
      <trkpt lat="47.490340" lon="0.821600">
        <time>2017-06-24T14:06:09Z</time>
      </trkpt>
      <trkpt lat="47.490340" lon="0.821600">
        <time>2017-06-24T14:06:10Z</time>
      </trkpt>
      <trkpt lat="47.490340" lon="0.821600">
        <time>2017-06-24T14:06:11Z</time>
      </trkpt>
      <trkpt lat="47.490340" lon="0.821600">
        <time>2017-06-24T14:06:12Z</time>
      </trkpt>
      <trkpt lat="47.490340" lon="0.821600">
        <time>2017-06-24T14:06:13Z</time>
      </trkpt>
      <trkpt lat="47.490340" lon="0.821600">
        <time>2017-06-24T14:06:14Z</time>
      </trkpt>
      <trkpt lat="47.490340" lon="0.821600">
        <time>2017-06-24T14:06:15Z</time>
      </trkpt>
      <trkpt lat="47.490340" lon="0.821600">
        <time>2017-06-24T14:06:16Z</time>
      </trkpt>
      <trkpt lat="47.490340" lon="0.821600">
        <time>2017-06-24T14:06:17Z</time>
      </trkpt>
      <trkpt lat="47.490340" lon="0.821600">
        <time>2017-06-24T14:06:18Z</time>
      </trkpt>
      <trkpt lat="47.490340" lon="0.821600">
        <time>2017-06-24T14:06:19Z</time>
      </trkpt>
      <trkpt lat="47.490340" lon="0.821600">
        <time>2017-06-24T14:06:20Z</time>
      </trkpt>
      <trkpt lat="47.490340" lon="0.821600">
        <time>2017-06-24T14:06:21Z</time>
      </trkpt>
      <trkpt lat="47.490340" lon="0.821600">
        <time>2017-06-24T14:06:22Z</time>
      </trkpt>
      <trkpt lat="47.490340" lon="0.821600">
        <time>2017-06-24T14:06:23Z</time>
      </trkpt>
      <trkpt lat="47.490340" lon="0.821600">
        <time>2017-06-24T14:06:24Z</time>
      </trkpt>
      <trkpt lat="47.490340" lon="0.821600">
        <time>2017-06-24T14:06:25Z</time>
      </trkpt>
      <trkpt lat="47.490340" lon="0.821600">
        <time>2017-06-24T14:06:26Z</time>
      </trkpt>
      <trkpt lat="47.490340" lon="0.821600">
        <time>2017-06-24T14:06:27Z</time>
      </trkpt>
      <trkpt lat="47.490340" lon="0.821600">
        <time>2017-06-24T14:06:28Z</time>
      </trkpt>
      <trkpt lat="47.490340" lon="0.821600">
        <time>2017-06-24T14:06:29Z</time>
      </trkpt>
      <trkpt lat="47.490340" lon="0.821600">
        <time>2017-06-24T14:06:30Z</time>
      </trkpt>
      <trkpt lat="47.490340" lon="0.821600">
        <time>2017-06-24T14:06:31Z</time>
      </trkpt>
      <trkpt lat="47.490340" lon="0.821600">
        <time>2017-06-24T14:06:32Z</time>
      </trkpt>
      <trkpt lat="47.490340" lon="0.821600">
        <time>2017-06-24T14:06:33Z</time>
      </trkpt>
      <trkpt lat="47.490340" lon="0.821600">
        <time>2017-06-24T14:06:34Z</time>
      </trkpt>
      <trkpt lat="47.490340" lon="0.821600">
        <time>2017-06-24T14:06:35Z</time>
      </trkpt>
      <trkpt lat="47.490340" lon="0.821600">
        <time>2017-06-24T14:06:36Z</time>
      </trkpt>
      <trkpt lat="47.490340" lon="0.821600">
        <time>2017-06-24T14:06:37Z</time>
      </trkpt>
      <trkpt lat="47.490340" lon="0.821600">
        <time>2017-06-24T14:06:38Z</time>
      </trkpt>
      <trkpt lat="47.490340" lon="0.821600">
        <time>2017-06-24T14:06:39Z</time>
      </trkpt>
      <trkpt lat="47.490340" lon="0.821600">
        <time>2017-06-24T14:06:40Z</time>
      </trkpt>
      <trkpt lat="47.490340" lon="0.821600">
        <time>2017-06-24T14:06:41Z</time>
      </trkpt>
      <trkpt lat="47.490340" lon="0.821600">
        <time>2017-06-24T14:06:42Z</time>
      </trkpt>
      <trkpt lat="47.490340" lon="0.821600">
        <time>2017-06-24T14:06:43Z</time>
      </trkpt>
      <trkpt lat="47.490340" lon="0.821600">
        <time>2017-06-24T14:06:44Z</time>
      </trkpt>
      <trkpt lat="47.490340" lon="0.821600">
        <time>2017-06-24T14:06:45Z</time>
      </trkpt>
      <trkpt lat="47.490340" lon="0.821600">
        <time>2017-06-24T14:06:46Z</time>
      </trkpt>
      <trkpt lat="47.490340" lon="0.821600">
        <time>2017-06-24T14:06:47Z</time>
      </trkpt>
      <trkpt lat="47.490340" lon="0.821600">
        <time>2017-06-24T14:06:48Z</time>
      </trkpt>
      <trkpt lat="47.490340" lon="0.821600">
        <time>2017-06-24T14:06:49Z</time>
      </trkpt>
      <trkpt lat="47.490340" lon="0.821600">
        <time>2017-06-24T14:06:50Z</time>
      </trkpt>
      <trkpt lat="47.490340" lon="0.821600">
        <time>2017-06-24T14:06:51Z</time>
      </trkpt>
      <trkpt lat="47.490340" lon="0.821600">
        <time>2017-06-24T14:06:52Z</time>
      </trkpt>
      <trkpt lat="47.490340" lon="0.821600">
        <time>2017-06-24T14:06:53Z</time>
      </trkpt>
      <trkpt lat="47.490340" lon="0.821600">
        <time>2017-06-24T14:06:54Z</time>
      </trkpt>
      <trkpt lat="47.490340" lon="0.821600">
        <time>2017-06-24T14:06:55Z</time>
      </trkpt>
      <trkpt lat="47.490340" lon="0.821600">
        <time>2017-06-24T14:06:56Z</time>
      </trkpt>
      <trkpt lat="47.490340" lon="0.821600">
        <time>2017-06-24T14:06:57Z</time>
      </trkpt>
      <trkpt lat="47.490340" lon="0.821600">
        <time>2017-06-24T14:06:58Z</time>
      </trkpt>
      <trkpt lat="47.490340" lon="0.821600">
        <time>2017-06-24T14:06:59Z</time>
      </trkpt>
      <trkpt lat="47.490340" lon="0.821600">
        <time>2017-06-24T14:07:00Z</time>
      </trkpt>
      <trkpt lat="47.490340" lon="0.821600">
        <time>2017-06-24T14:07:01Z</time>
      </trkpt>
      <trkpt lat="47.490340" lon="0.821600">
        <time>2017-06-24T14:07:02Z</time>
      </trkpt>
      <trkpt lat="47.490340" lon="0.821600">
        <time>2017-06-24T14:07:03Z</time>
      </trkpt>
      <trkpt lat="47.490340" lon="0.821600">
        <time>2017-06-24T14:07:04Z</time>
      </trkpt>
      <trkpt lat="47.490340" lon="0.821600">
        <time>2017-06-24T14:07:05Z</time>
      </trkpt>
      <trkpt lat="47.490340" lon="0.821600">
        <time>2017-06-24T14:07:06Z</time>
      </trkpt>
      <trkpt lat="47.490340" lon="0.821600">
        <time>2017-06-24T14:07:07Z</time>
      </trkpt>
      <trkpt lat="47.490340" lon="0.821600">
        <time>2017-06-24T14:07:08Z</time>
      </trkpt>
      <trkpt lat="47.490340" lon="0.821600">
        <time>2017-06-24T14:07:09Z</time>
      </trkpt>
      <trkpt lat="47.490340" lon="0.821600">
        <time>2017-06-24T14:07:10Z</time>
      </trkpt>
      <trkpt lat="47.490340" lon="0.821600">
        <time>2017-06-24T14:07:11Z</time>
      </trkpt>
      <trkpt lat="47.490340" lon="0.821600">
        <time>2017-06-24T14:07:12Z</time>
      </trkpt>
      <trkpt lat="47.490340" lon="0.821600">
        <time>2017-06-24T14:07:13Z</time>
      </trkpt>
      <trkpt lat="47.490340" lon="0.821600">
        <time>2017-06-24T14:07:14Z</time>
      </trkpt>
      <trkpt lat="47.490340" lon="0.821600">
        <time>2017-06-24T14:07:15Z</time>
      </trkpt>
      <trkpt lat="47.490340" lon="0.821600">
        <time>2017-06-24T14:07:16Z</time>
      </trkpt>
      <trkpt lat="47.490340" lon="0.821600">
        <time>2017-06-24T14:07:17Z</time>
      </trkpt>
      <trkpt lat="47.490340" lon="0.821600">
        <time>2017-06-24T14:07:18Z</time>
      </trkpt>
      <trkpt lat="47.490340" lon="0.821600">
        <time>2017-06-24T14:07:19Z</time>
      </trkpt>
      <trkpt lat="47.490340" lon="0.821600">
        <time>2017-06-24T14:07:20Z</time>
      </trkpt>
      <trkpt lat="47.490340" lon="0.821600">
        <time>2017-06-24T14:07:21Z</time>
      </trkpt>
      <trkpt lat="47.490340" lon="0.821600">
        <time>2017-06-24T14:07:22Z</time>
      </trkpt>
      <trkpt lat="47.490340" lon="0.821600">
        <time>2017-06-24T14:07:23Z</time>
      </trkpt>
      <trkpt lat="47.490340" lon="0.821600">
        <time>2017-06-24T14:07:24Z</time>
      </trkpt>
      <trkpt lat="47.490340" lon="0.821600">
        <time>2017-06-24T14:07:25Z</time>
      </trkpt>
      <trkpt lat="47.490340" lon="0.821600">
        <time>2017-06-24T14:07:26Z</time>
      </trkpt>
      <trkpt lat="47.490340" lon="0.821600">
        <time>2017-06-24T14:07:27Z</time>
      </trkpt>
      <trkpt lat="47.490340" lon="0.821600">
        <time>2017-06-24T14:07:28Z</time>
      </trkpt>
      <trkpt lat="47.490340" lon="0.821600">
        <time>2017-06-24T14:07:29Z</time>
      </trkpt>
      <trkpt lat="47.490340" lon="0.821600">
        <time>2017-06-24T14:07:30Z</time>
      </trkpt>
      <trkpt lat="47.490340" lon="0.821600">
        <time>2017-06-24T14:07:31Z</time>
      </trkpt>
      <trkpt lat="47.490340" lon="0.821600">
        <time>2017-06-24T14:07:32Z</time>
      </trkpt>
      <trkpt lat="47.490340" lon="0.821600">
        <time>2017-06-24T14:07:33Z</time>
      </trkpt>
      <trkpt lat="47.490340" lon="0.821600">
        <time>2017-06-24T14:07:34Z</time>
      </trkpt>
      <trkpt lat="47.490340" lon="0.821600">
        <time>2017-06-24T14:07:35Z</time>
      </trkpt>
      <trkpt lat="47.490340" lon="0.821600">
        <time>2017-06-24T14:07:36Z</time>
      </trkpt>
      <trkpt lat="47.490340" lon="0.821600">
        <time>2017-06-24T14:07:37Z</time>
      </trkpt>
      <trkpt lat="47.490340" lon="0.821600">
        <time>2017-06-24T14:07:38Z</time>
      </trkpt>
      <trkpt lat="47.490340" lon="0.821600">
        <time>2017-06-24T14:07:39Z</time>
      </trkpt>
      <trkpt lat="47.490340" lon="0.821600">
        <time>2017-06-24T14:07:40Z</time>
      </trkpt>
      <trkpt lat="47.490340" lon="0.821600">
        <time>2017-06-24T14:07:41Z</time>
      </trkpt>
      <trkpt lat="47.490340" lon="0.821600">
        <time>2017-06-24T14:07:42Z</time>
      </trkpt>
      <trkpt lat="47.490340" lon="0.821600">
        <time>2017-06-24T14:07:43Z</time>
      </trkpt>
      <trkpt lat="47.490340" lon="0.821600">
        <time>2017-06-24T14:07:44Z</time>
      </trkpt>
      <trkpt lat="47.490340" lon="0.821600">
        <time>2017-06-24T14:07:45Z</time>
      </trkpt>
      <trkpt lat="47.490350" lon="0.821600">
        <time>2017-06-24T14:07:46Z</time>
      </trkpt>
      <trkpt lat="47.490360" lon="0.821600">
        <time>2017-06-24T14:07:47Z</time>
      </trkpt>
      <trkpt lat="47.490360" lon="0.821600">
        <time>2017-06-24T14:07:48Z</time>
      </trkpt>
      <trkpt lat="47.490360" lon="0.821600">
        <time>2017-06-24T14:07:49Z</time>
      </trkpt>
      <trkpt lat="47.490360" lon="0.821600">
        <time>2017-06-24T14:07:50Z</time>
      </trkpt>
      <trkpt lat="47.490360" lon="0.821600">
        <time>2017-06-24T14:07:51Z</time>
      </trkpt>
      <trkpt lat="47.490360" lon="0.821600">
        <time>2017-06-24T14:07:52Z</time>
      </trkpt>
      <trkpt lat="47.490360" lon="0.821600">
        <time>2017-06-24T14:07:53Z</time>
      </trkpt>
      <trkpt lat="47.490360" lon="0.821600">
        <time>2017-06-24T14:07:54Z</time>
      </trkpt>
      <trkpt lat="47.490360" lon="0.821600">
        <time>2017-06-24T14:07:55Z</time>
      </trkpt>
      <trkpt lat="47.490360" lon="0.821600">
        <time>2017-06-24T14:07:56Z</time>
      </trkpt>
      <trkpt lat="47.490360" lon="0.821600">
        <time>2017-06-24T14:07:57Z</time>
      </trkpt>
      <trkpt lat="47.490360" lon="0.821600">
        <time>2017-06-24T14:07:58Z</time>
      </trkpt>
      <trkpt lat="47.490360" lon="0.821600">
        <time>2017-06-24T14:07:59Z</time>
      </trkpt>
      <trkpt lat="47.490360" lon="0.821600">
        <time>2017-06-24T14:08:00Z</time>
      </trkpt>
      <trkpt lat="47.490360" lon="0.821600">
        <time>2017-06-24T14:08:01Z</time>
      </trkpt>
      <trkpt lat="47.490360" lon="0.821600">
        <time>2017-06-24T14:08:02Z</time>
      </trkpt>
      <trkpt lat="47.490360" lon="0.821600">
        <time>2017-06-24T14:08:03Z</time>
      </trkpt>
      <trkpt lat="47.490360" lon="0.821600">
        <time>2017-06-24T14:08:04Z</time>
      </trkpt>
      <trkpt lat="47.490360" lon="0.821600">
        <time>2017-06-24T14:08:05Z</time>
      </trkpt>
      <trkpt lat="47.490360" lon="0.821600">
        <time>2017-06-24T14:08:06Z</time>
      </trkpt>
      <trkpt lat="47.490360" lon="0.821600">
        <time>2017-06-24T14:08:07Z</time>
      </trkpt>
      <trkpt lat="47.490360" lon="0.821600">
        <time>2017-06-24T14:08:08Z</time>
      </trkpt>
      <trkpt lat="47.490360" lon="0.821600">
        <time>2017-06-24T14:08:09Z</time>
      </trkpt>
      <trkpt lat="47.490360" lon="0.821600">
        <time>2017-06-24T14:08:10Z</time>
      </trkpt>
      <trkpt lat="47.490360" lon="0.821600">
        <time>2017-06-24T14:08:11Z</time>
      </trkpt>
      <trkpt lat="47.490360" lon="0.821600">
        <time>2017-06-24T14:08:12Z</time>
      </trkpt>
      <trkpt lat="47.490360" lon="0.821600">
        <time>2017-06-24T14:08:13Z</time>
      </trkpt>
      <trkpt lat="47.490360" lon="0.821600">
        <time>2017-06-24T14:08:14Z</time>
      </trkpt>
      <trkpt lat="47.490360" lon="0.821600">
        <time>2017-06-24T14:08:15Z</time>
      </trkpt>
      <trkpt lat="47.490360" lon="0.821600">
        <time>2017-06-24T14:08:16Z</time>
      </trkpt>
      <trkpt lat="47.490360" lon="0.821600">
        <time>2017-06-24T14:08:17Z</time>
      </trkpt>
      <trkpt lat="47.490360" lon="0.821600">
        <time>2017-06-24T14:08:18Z</time>
      </trkpt>
      <trkpt lat="47.490360" lon="0.821600">
        <time>2017-06-24T14:08:19Z</time>
      </trkpt>
      <trkpt lat="47.490360" lon="0.821600">
        <time>2017-06-24T14:08:20Z</time>
      </trkpt>
      <trkpt lat="47.490360" lon="0.821600">
        <time>2017-06-24T14:08:21Z</time>
      </trkpt>
      <trkpt lat="47.490360" lon="0.821600">
        <time>2017-06-24T14:08:22Z</time>
      </trkpt>
      <trkpt lat="47.490360" lon="0.821600">
        <time>2017-06-24T14:08:23Z</time>
      </trkpt>
      <trkpt lat="47.490360" lon="0.821600">
        <time>2017-06-24T14:08:24Z</time>
      </trkpt>
      <trkpt lat="47.490360" lon="0.821600">
        <time>2017-06-24T14:08:25Z</time>
      </trkpt>
      <trkpt lat="47.490370" lon="0.821610">
        <time>2017-06-24T14:08:26Z</time>
      </trkpt>
      <trkpt lat="47.490380" lon="0.821630">
        <time>2017-06-24T14:08:27Z</time>
      </trkpt>
      <trkpt lat="47.490410" lon="0.821670">
        <time>2017-06-24T14:08:28Z</time>
      </trkpt>
      <trkpt lat="47.490430" lon="0.821700">
        <time>2017-06-24T14:08:29Z</time>
      </trkpt>
      <trkpt lat="47.490460" lon="0.821730">
        <time>2017-06-24T14:08:30Z</time>
      </trkpt>
      <trkpt lat="47.490520" lon="0.821780">
        <time>2017-06-24T14:08:31Z</time>
      </trkpt>
      <trkpt lat="47.490560" lon="0.821830">
        <time>2017-06-24T14:08:32Z</time>
      </trkpt>
      <trkpt lat="47.490600" lon="0.821880">
        <time>2017-06-24T14:08:33Z</time>
      </trkpt>
      <trkpt lat="47.490640" lon="0.821950">
        <time>2017-06-24T14:08:34Z</time>
      </trkpt>
      <trkpt lat="47.490680" lon="0.822040">
        <time>2017-06-24T14:08:35Z</time>
      </trkpt>
      <trkpt lat="47.490730" lon="0.822170">
        <time>2017-06-24T14:08:36Z</time>
      </trkpt>
      <trkpt lat="47.490780" lon="0.822300">
        <time>2017-06-24T14:08:37Z</time>
      </trkpt>
      <trkpt lat="47.490830" lon="0.822450">
        <time>2017-06-24T14:08:38Z</time>
      </trkpt>
      <trkpt lat="47.490890" lon="0.822610">
        <time>2017-06-24T14:08:39Z</time>
      </trkpt>
      <trkpt lat="47.490950" lon="0.822790">
        <time>2017-06-24T14:08:40Z</time>
      </trkpt>
      <trkpt lat="47.491010" lon="0.823010">
        <time>2017-06-24T14:08:41Z</time>
      </trkpt>
      <trkpt lat="47.491090" lon="0.823270">
        <time>2017-06-24T14:08:42Z</time>
      </trkpt>
      <trkpt lat="47.491170" lon="0.823520">
        <time>2017-06-24T14:08:43Z</time>
      </trkpt>
      <trkpt lat="47.491250" lon="0.823820">
        <time>2017-06-24T14:08:44Z</time>
      </trkpt>
      <trkpt lat="47.491320" lon="0.824070">
        <time>2017-06-24T14:08:45Z</time>
      </trkpt>
      <trkpt lat="47.491400" lon="0.824340">
        <time>2017-06-24T14:08:46Z</time>
      </trkpt>
      <trkpt lat="47.491470" lon="0.824630">
        <time>2017-06-24T14:08:47Z</time>
      </trkpt>
      <trkpt lat="47.491530" lon="0.824900">
        <time>2017-06-24T14:08:48Z</time>
      </trkpt>
      <trkpt lat="47.491610" lon="0.825190">
        <time>2017-06-24T14:08:49Z</time>
      </trkpt>
      <trkpt lat="47.491680" lon="0.825510">
        <time>2017-06-24T14:08:50Z</time>
      </trkpt>
      <trkpt lat="47.491770" lon="0.825840">
        <time>2017-06-24T14:08:51Z</time>
      </trkpt>
      <trkpt lat="47.491880" lon="0.826210">
        <time>2017-06-24T14:08:52Z</time>
      </trkpt>
      <trkpt lat="47.491970" lon="0.826540">
        <time>2017-06-24T14:08:53Z</time>
      </trkpt>
      <trkpt lat="47.492060" lon="0.826880">
        <time>2017-06-24T14:08:54Z</time>
      </trkpt>
      <trkpt lat="47.492150" lon="0.827240">
        <time>2017-06-24T14:08:55Z</time>
      </trkpt>
      <trkpt lat="47.492230" lon="0.827540">
        <time>2017-06-24T14:08:56Z</time>
      </trkpt>
      <trkpt lat="47.492310" lon="0.827860">
        <time>2017-06-24T14:08:57Z</time>
      </trkpt>
      <trkpt lat="47.492400" lon="0.828190">
        <time>2017-06-24T14:08:58Z</time>
      </trkpt>
      <trkpt lat="47.492480" lon="0.828500">
        <time>2017-06-24T14:08:59Z</time>
      </trkpt>
      <trkpt lat="47.492570" lon="0.828880">
        <time>2017-06-24T14:09:00Z</time>
      </trkpt>
      <trkpt lat="47.492670" lon="0.829210">
        <time>2017-06-24T14:09:01Z</time>
      </trkpt>
      <trkpt lat="47.492760" lon="0.829580">
        <time>2017-06-24T14:09:02Z</time>
      </trkpt>
      <trkpt lat="47.492870" lon="0.829980">
        <time>2017-06-24T14:09:03Z</time>
      </trkpt>
      <trkpt lat="47.492960" lon="0.830350">
        <time>2017-06-24T14:09:04Z</time>
      </trkpt>
      <trkpt lat="47.493070" lon="0.830750">
        <time>2017-06-24T14:09:05Z</time>
      </trkpt>
      <trkpt lat="47.493170" lon="0.831160">
        <time>2017-06-24T14:09:06Z</time>
      </trkpt>
      <trkpt lat="47.493280" lon="0.831570">
        <time>2017-06-24T14:09:07Z</time>
      </trkpt>
      <trkpt lat="47.493390" lon="0.832010">
        <time>2017-06-24T14:09:08Z</time>
      </trkpt>
      <trkpt lat="47.493500" lon="0.832410">
        <time>2017-06-24T14:09:09Z</time>
      </trkpt>
      <trkpt lat="47.493610" lon="0.832840">
        <time>2017-06-24T14:09:10Z</time>
      </trkpt>
      <trkpt lat="47.493730" lon="0.833290">
        <time>2017-06-24T14:09:11Z</time>
      </trkpt>
      <trkpt lat="47.493840" lon="0.833710">
        <time>2017-06-24T14:09:12Z</time>
      </trkpt>
      <trkpt lat="47.493960" lon="0.834150">
        <time>2017-06-24T14:09:13Z</time>
      </trkpt>
      <trkpt lat="47.494080" lon="0.834610">
        <time>2017-06-24T14:09:14Z</time>
      </trkpt>
      <trkpt lat="47.494190" lon="0.835010">
        <time>2017-06-24T14:09:15Z</time>
      </trkpt>
      <trkpt lat="47.494320" lon="0.835480">
        <time>2017-06-24T14:09:16Z</time>
      </trkpt>
      <trkpt lat="47.494430" lon="0.835880">
        <time>2017-06-24T14:09:17Z</time>
      </trkpt>
      <trkpt lat="47.494540" lon="0.836310">
        <time>2017-06-24T14:09:18Z</time>
      </trkpt>
      <trkpt lat="47.494660" lon="0.836770">
        <time>2017-06-24T14:09:19Z</time>
      </trkpt>
      <trkpt lat="47.494770" lon="0.837180">
        <time>2017-06-24T14:09:20Z</time>
      </trkpt>
      <trkpt lat="47.494890" lon="0.837620">
        <time>2017-06-24T14:09:21Z</time>
      </trkpt>
      <trkpt lat="47.495010" lon="0.838060">
        <time>2017-06-24T14:09:22Z</time>
      </trkpt>
      <trkpt lat="47.495130" lon="0.838500">
        <time>2017-06-24T14:09:23Z</time>
      </trkpt>
      <trkpt lat="47.495260" lon="0.838980">
        <time>2017-06-24T14:09:24Z</time>
      </trkpt>
      <trkpt lat="47.495370" lon="0.839390">
        <time>2017-06-24T14:09:25Z</time>
      </trkpt>
      <trkpt lat="47.495490" lon="0.839840">
        <time>2017-06-24T14:09:26Z</time>
      </trkpt>
      <trkpt lat="47.495620" lon="0.840310">
        <time>2017-06-24T14:09:27Z</time>
      </trkpt>
      <trkpt lat="47.495730" lon="0.840710">
        <time>2017-06-24T14:09:28Z</time>
      </trkpt>
      <trkpt lat="47.495850" lon="0.841150">
        <time>2017-06-24T14:09:29Z</time>
      </trkpt>
      <trkpt lat="47.495990" lon="0.841610">
        <time>2017-06-24T14:09:30Z</time>
      </trkpt>
      <trkpt lat="47.496110" lon="0.842030">
        <time>2017-06-24T14:09:31Z</time>
      </trkpt>
      <trkpt lat="47.496250" lon="0.842510">
        <time>2017-06-24T14:09:32Z</time>
      </trkpt>
      <trkpt lat="47.496370" lon="0.842930">
        <time>2017-06-24T14:09:33Z</time>
      </trkpt>
      <trkpt lat="47.496500" lon="0.843390">
        <time>2017-06-24T14:09:34Z</time>
      </trkpt>
      <trkpt lat="47.496650" lon="0.843880">
        <time>2017-06-24T14:09:35Z</time>
      </trkpt>
      <trkpt lat="47.496780" lon="0.844290">
        <time>2017-06-24T14:09:36Z</time>
      </trkpt>
      <trkpt lat="47.496910" lon="0.844750">
        <time>2017-06-24T14:09:37Z</time>
      </trkpt>
      <trkpt lat="47.497050" lon="0.845200">
        <time>2017-06-24T14:09:38Z</time>
      </trkpt>
      <trkpt lat="47.497200" lon="0.845650">
        <time>2017-06-24T14:09:39Z</time>
      </trkpt>
      <trkpt lat="47.497360" lon="0.846130">
        <time>2017-06-24T14:09:40Z</time>
      </trkpt>
      <trkpt lat="47.497490" lon="0.846550">
        <time>2017-06-24T14:09:41Z</time>
      </trkpt>
      <trkpt lat="47.497640" lon="0.847000">
        <time>2017-06-24T14:09:42Z</time>
      </trkpt>
      <trkpt lat="47.497790" lon="0.847470">
        <time>2017-06-24T14:09:43Z</time>
      </trkpt>
      <trkpt lat="47.497930" lon="0.847890">
        <time>2017-06-24T14:09:44Z</time>
      </trkpt>
      <trkpt lat="47.498070" lon="0.848330">
        <time>2017-06-24T14:09:45Z</time>
      </trkpt>
      <trkpt lat="47.498230" lon="0.848810">
        <time>2017-06-24T14:09:46Z</time>
      </trkpt>
      <trkpt lat="47.498380" lon="0.849230">
        <time>2017-06-24T14:09:47Z</time>
      </trkpt>
      <trkpt lat="47.498540" lon="0.849700">
        <time>2017-06-24T14:09:48Z</time>
      </trkpt>
      <trkpt lat="47.498690" lon="0.850110">
        <time>2017-06-24T14:09:49Z</time>
      </trkpt>
      <trkpt lat="47.498850" lon="0.850560">
        <time>2017-06-24T14:09:50Z</time>
      </trkpt>
      <trkpt lat="47.499010" lon="0.851030">
        <time>2017-06-24T14:09:51Z</time>
      </trkpt>
      <trkpt lat="47.499160" lon="0.851450">
        <time>2017-06-24T14:09:52Z</time>
      </trkpt>
      <trkpt lat="47.499320" lon="0.851900">
        <time>2017-06-24T14:09:53Z</time>
      </trkpt>
      <trkpt lat="47.499480" lon="0.852350">
        <time>2017-06-24T14:09:54Z</time>
      </trkpt>
      <trkpt lat="47.499640" lon="0.852800">
        <time>2017-06-24T14:09:55Z</time>
      </trkpt>
      <trkpt lat="47.499820" lon="0.853290">
        <time>2017-06-24T14:09:56Z</time>
      </trkpt>
      <trkpt lat="47.499980" lon="0.853710">
        <time>2017-06-24T14:09:57Z</time>
      </trkpt>
      <trkpt lat="47.500140" lon="0.854170">
        <time>2017-06-24T14:09:58Z</time>
      </trkpt>
      <trkpt lat="47.500330" lon="0.854640">
        <time>2017-06-24T14:09:59Z</time>
      </trkpt>
      <trkpt lat="47.500480" lon="0.855080">
        <time>2017-06-24T14:10:00Z</time>
      </trkpt>
      <trkpt lat="47.500650" lon="0.855540">
        <time>2017-06-24T14:10:01Z</time>
      </trkpt>
      <trkpt lat="47.500820" lon="0.856010">
        <time>2017-06-24T14:10:02Z</time>
      </trkpt>
      <trkpt lat="47.500960" lon="0.856440">
        <time>2017-06-24T14:10:03Z</time>
      </trkpt>
      <trkpt lat="47.501120" lon="0.856930">
        <time>2017-06-24T14:10:04Z</time>
      </trkpt>
      <trkpt lat="47.501260" lon="0.857360">
        <time>2017-06-24T14:10:05Z</time>
      </trkpt>
      <trkpt lat="47.501400" lon="0.857810">
        <time>2017-06-24T14:10:06Z</time>
      </trkpt>
      <trkpt lat="47.501550" lon="0.858290">
        <time>2017-06-24T14:10:07Z</time>
      </trkpt>
      <trkpt lat="47.501680" lon="0.858720">
        <time>2017-06-24T14:10:08Z</time>
      </trkpt>
      <trkpt lat="47.501810" lon="0.859180">
        <time>2017-06-24T14:10:09Z</time>
      </trkpt>
      <trkpt lat="47.501940" lon="0.859630">
        <time>2017-06-24T14:10:10Z</time>
      </trkpt>
      <trkpt lat="47.502070" lon="0.860080">
        <time>2017-06-24T14:10:11Z</time>
      </trkpt>
      <trkpt lat="47.502210" lon="0.860550">
        <time>2017-06-24T14:10:12Z</time>
      </trkpt>
      <trkpt lat="47.502330" lon="0.860960">
        <time>2017-06-24T14:10:13Z</time>
      </trkpt>
      <trkpt lat="47.502460" lon="0.861410">
        <time>2017-06-24T14:10:14Z</time>
      </trkpt>
      <trkpt lat="47.502600" lon="0.861890">
        <time>2017-06-24T14:10:15Z</time>
      </trkpt>
      <trkpt lat="47.502720" lon="0.862320">
        <time>2017-06-24T14:10:16Z</time>
      </trkpt>
      <trkpt lat="47.502850" lon="0.862770">
        <time>2017-06-24T14:10:17Z</time>
      </trkpt>
      <trkpt lat="47.502980" lon="0.863240">
        <time>2017-06-24T14:10:18Z</time>
      </trkpt>
      <trkpt lat="47.503090" lon="0.863660">
        <time>2017-06-24T14:10:19Z</time>
      </trkpt>
      <trkpt lat="47.503230" lon="0.864140">
        <time>2017-06-24T14:10:20Z</time>
      </trkpt>
      <trkpt lat="47.503340" lon="0.864560">
        <time>2017-06-24T14:10:21Z</time>
      </trkpt>
      <trkpt lat="47.503470" lon="0.865010">
        <time>2017-06-24T14:10:22Z</time>
      </trkpt>
      <trkpt lat="47.503590" lon="0.865490">
        <time>2017-06-24T14:10:23Z</time>
      </trkpt>
      <trkpt lat="47.503700" lon="0.865910">
        <time>2017-06-24T14:10:24Z</time>
      </trkpt>
      <trkpt lat="47.503820" lon="0.866370">
        <time>2017-06-24T14:10:25Z</time>
      </trkpt>
      <trkpt lat="47.503930" lon="0.866830">
        <time>2017-06-24T14:10:26Z</time>
      </trkpt>
      <trkpt lat="47.504050" lon="0.867290">
        <time>2017-06-24T14:10:27Z</time>
      </trkpt>
      <trkpt lat="47.504170" lon="0.867780">
        <time>2017-06-24T14:10:28Z</time>
      </trkpt>
      <trkpt lat="47.504280" lon="0.868220">
        <time>2017-06-24T14:10:29Z</time>
      </trkpt>
      <trkpt lat="47.504390" lon="0.868690">
        <time>2017-06-24T14:10:30Z</time>
      </trkpt>
      <trkpt lat="47.504510" lon="0.869190">
        <time>2017-06-24T14:10:31Z</time>
      </trkpt>
      <trkpt lat="47.504620" lon="0.869630">
        <time>2017-06-24T14:10:32Z</time>
      </trkpt>
      <trkpt lat="47.504730" lon="0.870110">
        <time>2017-06-24T14:10:33Z</time>
      </trkpt>
      <trkpt lat="47.504850" lon="0.870610">
        <time>2017-06-24T14:10:34Z</time>
      </trkpt>
      <trkpt lat="47.504960" lon="0.871060">
        <time>2017-06-24T14:10:35Z</time>
      </trkpt>
      <trkpt lat="47.505080" lon="0.871570">
        <time>2017-06-24T14:10:36Z</time>
      </trkpt>
      <trkpt lat="47.505180" lon="0.872020">
        <time>2017-06-24T14:10:37Z</time>
      </trkpt>
      <trkpt lat="47.505280" lon="0.872500">
        <time>2017-06-24T14:10:38Z</time>
      </trkpt>
      <trkpt lat="47.505390" lon="0.873010">
        <time>2017-06-24T14:10:39Z</time>
      </trkpt>
      <trkpt lat="47.505490" lon="0.873460">
        <time>2017-06-24T14:10:40Z</time>
      </trkpt>
      <trkpt lat="47.505580" lon="0.873940">
        <time>2017-06-24T14:10:41Z</time>
      </trkpt>
      <trkpt lat="47.505680" lon="0.874420">
        <time>2017-06-24T14:10:42Z</time>
      </trkpt>
      <trkpt lat="47.505780" lon="0.874900">
        <time>2017-06-24T14:10:43Z</time>
      </trkpt>
      <trkpt lat="47.505890" lon="0.875420">
        <time>2017-06-24T14:10:44Z</time>
      </trkpt>
      <trkpt lat="47.505990" lon="0.875870">
        <time>2017-06-24T14:10:45Z</time>
      </trkpt>
      <trkpt lat="47.506090" lon="0.876350">
        <time>2017-06-24T14:10:46Z</time>
      </trkpt>
      <trkpt lat="47.506190" lon="0.876870">
        <time>2017-06-24T14:10:47Z</time>
      </trkpt>
      <trkpt lat="47.506280" lon="0.877330">
        <time>2017-06-24T14:10:48Z</time>
      </trkpt>
      <trkpt lat="47.506370" lon="0.877820">
        <time>2017-06-24T14:10:49Z</time>
      </trkpt>
      <trkpt lat="47.506470" lon="0.878330">
        <time>2017-06-24T14:10:50Z</time>
      </trkpt>
      <trkpt lat="47.506550" lon="0.878790">
        <time>2017-06-24T14:10:51Z</time>
      </trkpt>
      <trkpt lat="47.506640" lon="0.879310">
        <time>2017-06-24T14:10:52Z</time>
      </trkpt>
      <trkpt lat="47.506720" lon="0.879760">
        <time>2017-06-24T14:10:53Z</time>
      </trkpt>
      <trkpt lat="47.506800" lon="0.880260">
        <time>2017-06-24T14:10:54Z</time>
      </trkpt>
      <trkpt lat="47.506900" lon="0.880780">
        <time>2017-06-24T14:10:55Z</time>
      </trkpt>
      <trkpt lat="47.506980" lon="0.881240">
        <time>2017-06-24T14:10:56Z</time>
      </trkpt>
      <trkpt lat="47.507070" lon="0.881730">
        <time>2017-06-24T14:10:57Z</time>
      </trkpt>
      <trkpt lat="47.507150" lon="0.882220">
        <time>2017-06-24T14:10:58Z</time>
      </trkpt>
      <trkpt lat="47.507220" lon="0.882700">
        <time>2017-06-24T14:10:59Z</time>
      </trkpt>
      <trkpt lat="47.507300" lon="0.883220">
        <time>2017-06-24T14:11:00Z</time>
      </trkpt>
      <trkpt lat="47.507380" lon="0.883670">
        <time>2017-06-24T14:11:01Z</time>
      </trkpt>
      <trkpt lat="47.507470" lon="0.884150">
        <time>2017-06-24T14:11:02Z</time>
      </trkpt>
      <trkpt lat="47.507560" lon="0.884650">
        <time>2017-06-24T14:11:03Z</time>
      </trkpt>
      <trkpt lat="47.507650" lon="0.885090">
        <time>2017-06-24T14:11:04Z</time>
      </trkpt>
      <trkpt lat="47.507740" lon="0.885560">
        <time>2017-06-24T14:11:05Z</time>
      </trkpt>
      <trkpt lat="47.507840" lon="0.886060">
        <time>2017-06-24T14:11:06Z</time>
      </trkpt>
      <trkpt lat="47.507930" lon="0.886490">
        <time>2017-06-24T14:11:07Z</time>
      </trkpt>
      <trkpt lat="47.508030" lon="0.886980">
        <time>2017-06-24T14:11:08Z</time>
      </trkpt>
      <trkpt lat="47.508120" lon="0.887410">
        <time>2017-06-24T14:11:09Z</time>
      </trkpt>
      <trkpt lat="47.508220" lon="0.887860">
        <time>2017-06-24T14:11:10Z</time>
      </trkpt>
      <trkpt lat="47.508340" lon="0.888340">
        <time>2017-06-24T14:11:11Z</time>
      </trkpt>
      <trkpt lat="47.508440" lon="0.888750">
        <time>2017-06-24T14:11:12Z</time>
      </trkpt>
      <trkpt lat="47.508560" lon="0.889200">
        <time>2017-06-24T14:11:13Z</time>
      </trkpt>
      <trkpt lat="47.508680" lon="0.889650">
        <time>2017-06-24T14:11:14Z</time>
      </trkpt>
      <trkpt lat="47.508790" lon="0.890100">
        <time>2017-06-24T14:11:15Z</time>
      </trkpt>
      <trkpt lat="47.508920" lon="0.890570">
        <time>2017-06-24T14:11:16Z</time>
      </trkpt>
      <trkpt lat="47.509030" lon="0.891000">
        <time>2017-06-24T14:11:17Z</time>
      </trkpt>
      <trkpt lat="47.509160" lon="0.891450">
        <time>2017-06-24T14:11:18Z</time>
      </trkpt>
      <trkpt lat="47.509280" lon="0.891920">
        <time>2017-06-24T14:11:19Z</time>
      </trkpt>
      <trkpt lat="47.509390" lon="0.892330">
        <time>2017-06-24T14:11:20Z</time>
      </trkpt>
      <trkpt lat="47.509520" lon="0.892770">
        <time>2017-06-24T14:11:21Z</time>
      </trkpt>
      <trkpt lat="47.509650" lon="0.893240">
        <time>2017-06-24T14:11:22Z</time>
      </trkpt>
      <trkpt lat="47.509770" lon="0.893650">
        <time>2017-06-24T14:11:23Z</time>
      </trkpt>
      <trkpt lat="47.509920" lon="0.894120">
        <time>2017-06-24T14:11:24Z</time>
      </trkpt>
      <trkpt lat="47.510040" lon="0.894530">
        <time>2017-06-24T14:11:25Z</time>
      </trkpt>
      <trkpt lat="47.510180" lon="0.894970">
        <time>2017-06-24T14:11:26Z</time>
      </trkpt>
      <trkpt lat="47.510330" lon="0.895440">
        <time>2017-06-24T14:11:27Z</time>
      </trkpt>
      <trkpt lat="47.510460" lon="0.895850">
        <time>2017-06-24T14:11:28Z</time>
      </trkpt>
      <trkpt lat="47.510610" lon="0.896290">
        <time>2017-06-24T14:11:29Z</time>
      </trkpt>
      <trkpt lat="47.510750" lon="0.896730">
        <time>2017-06-24T14:11:30Z</time>
      </trkpt>
      <trkpt lat="47.510890" lon="0.897160">
        <time>2017-06-24T14:11:31Z</time>
      </trkpt>
      <trkpt lat="47.511040" lon="0.897620">
        <time>2017-06-24T14:11:32Z</time>
      </trkpt>
      <trkpt lat="47.511170" lon="0.898010">
        <time>2017-06-24T14:11:33Z</time>
      </trkpt>
      <trkpt lat="47.511320" lon="0.898430">
        <time>2017-06-24T14:11:34Z</time>
      </trkpt>
      <trkpt lat="47.511480" lon="0.898880">
        <time>2017-06-24T14:11:35Z</time>
      </trkpt>
      <trkpt lat="47.511620" lon="0.899260">
        <time>2017-06-24T14:11:36Z</time>
      </trkpt>
      <trkpt lat="47.511770" lon="0.899670">
        <time>2017-06-24T14:11:37Z</time>
      </trkpt>
      <trkpt lat="47.511940" lon="0.900110">
        <time>2017-06-24T14:11:38Z</time>
      </trkpt>
      <trkpt lat="47.512090" lon="0.900500">
        <time>2017-06-24T14:11:39Z</time>
      </trkpt>
      <trkpt lat="47.512260" lon="0.900940">
        <time>2017-06-24T14:11:40Z</time>
      </trkpt>
      <trkpt lat="47.512410" lon="0.901330">
        <time>2017-06-24T14:11:41Z</time>
      </trkpt>
      <trkpt lat="47.512580" lon="0.901740">
        <time>2017-06-24T14:11:42Z</time>
      </trkpt>
      <trkpt lat="47.512760" lon="0.902180">
        <time>2017-06-24T14:11:43Z</time>
      </trkpt>
      <trkpt lat="47.512910" lon="0.902570">
        <time>2017-06-24T14:11:44Z</time>
      </trkpt>
      <trkpt lat="47.513080" lon="0.902980">
        <time>2017-06-24T14:11:45Z</time>
      </trkpt>
      <trkpt lat="47.513250" lon="0.903390">
        <time>2017-06-24T14:11:46Z</time>
      </trkpt>
      <trkpt lat="47.513410" lon="0.903790">
        <time>2017-06-24T14:11:47Z</time>
      </trkpt>
      <trkpt lat="47.513580" lon="0.904230">
        <time>2017-06-24T14:11:48Z</time>
      </trkpt>
      <trkpt lat="47.513740" lon="0.904610">
        <time>2017-06-24T14:11:49Z</time>
      </trkpt>
      <trkpt lat="47.513910" lon="0.905010">
        <time>2017-06-24T14:11:50Z</time>
      </trkpt>
      <trkpt lat="47.514090" lon="0.905440">
        <time>2017-06-24T14:11:51Z</time>
      </trkpt>
      <trkpt lat="47.514240" lon="0.905820">
        <time>2017-06-24T14:11:52Z</time>
      </trkpt>
      <trkpt lat="47.514400" lon="0.906220">
        <time>2017-06-24T14:11:53Z</time>
      </trkpt>
      <trkpt lat="47.514580" lon="0.906650">
        <time>2017-06-24T14:11:54Z</time>
      </trkpt>
      <trkpt lat="47.514740" lon="0.907030">
        <time>2017-06-24T14:11:55Z</time>
      </trkpt>
      <trkpt lat="47.514920" lon="0.907450">
        <time>2017-06-24T14:11:56Z</time>
      </trkpt>
      <trkpt lat="47.515070" lon="0.907830">
        <time>2017-06-24T14:11:57Z</time>
      </trkpt>
      <trkpt lat="47.515230" lon="0.908230">
        <time>2017-06-24T14:11:58Z</time>
      </trkpt>
      <trkpt lat="47.515400" lon="0.908650">
        <time>2017-06-24T14:11:59Z</time>
      </trkpt>
      <trkpt lat="47.515550" lon="0.909030">
        <time>2017-06-24T14:12:00Z</time>
      </trkpt>
      <trkpt lat="47.515710" lon="0.909420">
        <time>2017-06-24T14:12:01Z</time>
      </trkpt>
      <trkpt lat="47.515880" lon="0.909810">
        <time>2017-06-24T14:12:02Z</time>
      </trkpt>
      <trkpt lat="47.516040" lon="0.910210">
        <time>2017-06-24T14:12:03Z</time>
      </trkpt>
      <trkpt lat="47.516210" lon="0.910640">
        <time>2017-06-24T14:12:04Z</time>
      </trkpt>
      <trkpt lat="47.516370" lon="0.911010">
        <time>2017-06-24T14:12:05Z</time>
      </trkpt>
      <trkpt lat="47.516530" lon="0.911410">
        <time>2017-06-24T14:12:06Z</time>
      </trkpt>
      <trkpt lat="47.516700" lon="0.911820">
        <time>2017-06-24T14:12:07Z</time>
      </trkpt>
      <trkpt lat="47.516840" lon="0.912190">
        <time>2017-06-24T14:12:08Z</time>
      </trkpt>
      <trkpt lat="47.517010" lon="0.912580">
        <time>2017-06-24T14:12:09Z</time>
      </trkpt>
      <trkpt lat="47.517170" lon="0.912990">
        <time>2017-06-24T14:12:10Z</time>
      </trkpt>
      <trkpt lat="47.517330" lon="0.913360">
        <time>2017-06-24T14:12:11Z</time>
      </trkpt>
      <trkpt lat="47.517490" lon="0.913770">
        <time>2017-06-24T14:12:12Z</time>
      </trkpt>
      <trkpt lat="47.517650" lon="0.914140">
        <time>2017-06-24T14:12:13Z</time>
      </trkpt>
      <trkpt lat="47.517820" lon="0.914530">
        <time>2017-06-24T14:12:14Z</time>
      </trkpt>
      <trkpt lat="47.518000" lon="0.914960">
        <time>2017-06-24T14:12:15Z</time>
      </trkpt>
      <trkpt lat="47.518150" lon="0.915330">
        <time>2017-06-24T14:12:16Z</time>
      </trkpt>
      <trkpt lat="47.518320" lon="0.915730">
        <time>2017-06-24T14:12:17Z</time>
      </trkpt>
      <trkpt lat="47.518480" lon="0.916130">
        <time>2017-06-24T14:12:18Z</time>
      </trkpt>
      <trkpt lat="47.518640" lon="0.916540">
        <time>2017-06-24T14:12:19Z</time>
      </trkpt>
      <trkpt lat="47.518820" lon="0.916980">
        <time>2017-06-24T14:12:20Z</time>
      </trkpt>
      <trkpt lat="47.518970" lon="0.917360">
        <time>2017-06-24T14:12:21Z</time>
      </trkpt>
      <trkpt lat="47.519120" lon="0.917770">
        <time>2017-06-24T14:12:22Z</time>
      </trkpt>
      <trkpt lat="47.519290" lon="0.918200">
        <time>2017-06-24T14:12:23Z</time>
      </trkpt>
      <trkpt lat="47.519440" lon="0.918580">
        <time>2017-06-24T14:12:24Z</time>
      </trkpt>
      <trkpt lat="47.519590" lon="0.918990">
        <time>2017-06-24T14:12:25Z</time>
      </trkpt>
      <trkpt lat="47.519760" lon="0.919430">
        <time>2017-06-24T14:12:26Z</time>
      </trkpt>
      <trkpt lat="47.519910" lon="0.919820">
        <time>2017-06-24T14:12:27Z</time>
      </trkpt>
      <trkpt lat="47.520070" lon="0.920270">
        <time>2017-06-24T14:12:28Z</time>
      </trkpt>
      <trkpt lat="47.520210" lon="0.920660">
        <time>2017-06-24T14:12:29Z</time>
      </trkpt>
      <trkpt lat="47.520360" lon="0.921080">
        <time>2017-06-24T14:12:30Z</time>
      </trkpt>
      <trkpt lat="47.520520" lon="0.921530">
        <time>2017-06-24T14:12:31Z</time>
      </trkpt>
      <trkpt lat="47.520660" lon="0.921940">
        <time>2017-06-24T14:12:32Z</time>
      </trkpt>
      <trkpt lat="47.520820" lon="0.922380">
        <time>2017-06-24T14:12:33Z</time>
      </trkpt>
      <trkpt lat="47.520970" lon="0.922820">
        <time>2017-06-24T14:12:34Z</time>
      </trkpt>
      <trkpt lat="47.521120" lon="0.923270">
        <time>2017-06-24T14:12:35Z</time>
      </trkpt>
      <trkpt lat="47.521290" lon="0.923740">
        <time>2017-06-24T14:12:36Z</time>
      </trkpt>
      <trkpt lat="47.521430" lon="0.924160">
        <time>2017-06-24T14:12:37Z</time>
      </trkpt>
      <trkpt lat="47.521580" lon="0.924590">
        <time>2017-06-24T14:12:38Z</time>
      </trkpt>
      <trkpt lat="47.521730" lon="0.925060">
        <time>2017-06-24T14:12:39Z</time>
      </trkpt>
      <trkpt lat="47.521860" lon="0.925480">
        <time>2017-06-24T14:12:40Z</time>
      </trkpt>
      <trkpt lat="47.522000" lon="0.925940">
        <time>2017-06-24T14:12:41Z</time>
      </trkpt>
      <trkpt lat="47.522140" lon="0.926420">
        <time>2017-06-24T14:12:42Z</time>
      </trkpt>
      <trkpt lat="47.522270" lon="0.926840">
        <time>2017-06-24T14:12:43Z</time>
      </trkpt>
      <trkpt lat="47.522400" lon="0.927320">
        <time>2017-06-24T14:12:44Z</time>
      </trkpt>
      <trkpt lat="47.522530" lon="0.927740">
        <time>2017-06-24T14:12:45Z</time>
      </trkpt>
      <trkpt lat="47.522650" lon="0.928200">
        <time>2017-06-24T14:12:46Z</time>
      </trkpt>
      <trkpt lat="47.522780" lon="0.928680">
        <time>2017-06-24T14:12:47Z</time>
      </trkpt>
      <trkpt lat="47.522910" lon="0.929110">
        <time>2017-06-24T14:12:48Z</time>
      </trkpt>
      <trkpt lat="47.523030" lon="0.929560">
        <time>2017-06-24T14:12:49Z</time>
      </trkpt>
      <trkpt lat="47.523150" lon="0.930030">
        <time>2017-06-24T14:12:50Z</time>
      </trkpt>
      <trkpt lat="47.523260" lon="0.930480">
        <time>2017-06-24T14:12:51Z</time>
      </trkpt>
      <trkpt lat="47.523390" lon="0.930970">
        <time>2017-06-24T14:12:52Z</time>
      </trkpt>
      <trkpt lat="47.523500" lon="0.931410">
        <time>2017-06-24T14:12:53Z</time>
      </trkpt>
      <trkpt lat="47.523610" lon="0.931870">
        <time>2017-06-24T14:12:54Z</time>
      </trkpt>
      <trkpt lat="47.523730" lon="0.932360">
        <time>2017-06-24T14:12:55Z</time>
      </trkpt>
      <trkpt lat="47.523830" lon="0.932780">
        <time>2017-06-24T14:12:56Z</time>
      </trkpt>
      <trkpt lat="47.523950" lon="0.933230">
        <time>2017-06-24T14:12:57Z</time>
      </trkpt>
      <trkpt lat="47.524070" lon="0.933700">
        <time>2017-06-24T14:12:58Z</time>
      </trkpt>
      <trkpt lat="47.524180" lon="0.934120">
        <time>2017-06-24T14:12:59Z</time>
      </trkpt>
      <trkpt lat="47.524310" lon="0.934590">
        <time>2017-06-24T14:13:00Z</time>
      </trkpt>
      <trkpt lat="47.524420" lon="0.935000">
        <time>2017-06-24T14:13:01Z</time>
      </trkpt>
      <trkpt lat="47.524540" lon="0.935440">
        <time>2017-06-24T14:13:02Z</time>
      </trkpt>
      <trkpt lat="47.524670" lon="0.935900">
        <time>2017-06-24T14:13:03Z</time>
      </trkpt>
      <trkpt lat="47.524780" lon="0.936310">
        <time>2017-06-24T14:13:04Z</time>
      </trkpt>
      <trkpt lat="47.524910" lon="0.936750">
        <time>2017-06-24T14:13:05Z</time>
      </trkpt>
      <trkpt lat="47.525030" lon="0.937190">
        <time>2017-06-24T14:13:06Z</time>
      </trkpt>
      <trkpt lat="47.525160" lon="0.937620">
        <time>2017-06-24T14:13:07Z</time>
      </trkpt>
      <trkpt lat="47.525300" lon="0.938080">
        <time>2017-06-24T14:13:08Z</time>
      </trkpt>
      <trkpt lat="47.525420" lon="0.938480">
        <time>2017-06-24T14:13:09Z</time>
      </trkpt>
      <trkpt lat="47.525560" lon="0.938920">
        <time>2017-06-24T14:13:10Z</time>
      </trkpt>
      <trkpt lat="47.525710" lon="0.939380">
        <time>2017-06-24T14:13:11Z</time>
      </trkpt>
      <trkpt lat="47.525840" lon="0.939790">
        <time>2017-06-24T14:13:12Z</time>
      </trkpt>
      <trkpt lat="47.525980" lon="0.940220">
        <time>2017-06-24T14:13:13Z</time>
      </trkpt>
      <trkpt lat="47.526130" lon="0.940680">
        <time>2017-06-24T14:13:14Z</time>
      </trkpt>
      <trkpt lat="47.526270" lon="0.941080">
        <time>2017-06-24T14:13:15Z</time>
      </trkpt>
      <trkpt lat="47.526420" lon="0.941540">
        <time>2017-06-24T14:13:16Z</time>
      </trkpt>
      <trkpt lat="47.526560" lon="0.941940">
        <time>2017-06-24T14:13:17Z</time>
      </trkpt>
      <trkpt lat="47.526720" lon="0.942350">
        <time>2017-06-24T14:13:18Z</time>
      </trkpt>
      <trkpt lat="47.526870" lon="0.942790">
        <time>2017-06-24T14:13:19Z</time>
      </trkpt>
      <trkpt lat="47.527020" lon="0.943180">
        <time>2017-06-24T14:13:20Z</time>
      </trkpt>
      <trkpt lat="47.527170" lon="0.943590">
        <time>2017-06-24T14:13:21Z</time>
      </trkpt>
      <trkpt lat="47.527320" lon="0.943990">
        <time>2017-06-24T14:13:22Z</time>
      </trkpt>
      <trkpt lat="47.527470" lon="0.944380">
        <time>2017-06-24T14:13:23Z</time>
      </trkpt>
      <trkpt lat="47.527630" lon="0.944800">
        <time>2017-06-24T14:13:24Z</time>
      </trkpt>
      <trkpt lat="47.527760" lon="0.945170">
        <time>2017-06-24T14:13:25Z</time>
      </trkpt>
      <trkpt lat="47.527920" lon="0.945550">
        <time>2017-06-24T14:13:26Z</time>
      </trkpt>
      <trkpt lat="47.528080" lon="0.945960">
        <time>2017-06-24T14:13:27Z</time>
      </trkpt>
      <trkpt lat="47.528230" lon="0.946310">
        <time>2017-06-24T14:13:28Z</time>
      </trkpt>
      <trkpt lat="47.528380" lon="0.946690">
        <time>2017-06-24T14:13:29Z</time>
      </trkpt>
      <trkpt lat="47.528550" lon="0.947100">
        <time>2017-06-24T14:13:30Z</time>
      </trkpt>
      <trkpt lat="47.528700" lon="0.947460">
        <time>2017-06-24T14:13:31Z</time>
      </trkpt>
      <trkpt lat="47.528870" lon="0.947860">
        <time>2017-06-24T14:13:32Z</time>
      </trkpt>
      <trkpt lat="47.529020" lon="0.948210">
        <time>2017-06-24T14:13:33Z</time>
      </trkpt>
      <trkpt lat="47.529190" lon="0.948600">
        <time>2017-06-24T14:13:34Z</time>
      </trkpt>
      <trkpt lat="47.529360" lon="0.949000">
        <time>2017-06-24T14:13:35Z</time>
      </trkpt>
      <trkpt lat="47.529520" lon="0.949360">
        <time>2017-06-24T14:13:36Z</time>
      </trkpt>
      <trkpt lat="47.529700" lon="0.949740">
        <time>2017-06-24T14:13:37Z</time>
      </trkpt>
      <trkpt lat="47.529880" lon="0.950120">
        <time>2017-06-24T14:13:38Z</time>
      </trkpt>
      <trkpt lat="47.530060" lon="0.950500">
        <time>2017-06-24T14:13:39Z</time>
      </trkpt>
      <trkpt lat="47.530240" lon="0.950910">
        <time>2017-06-24T14:13:40Z</time>
      </trkpt>
      <trkpt lat="47.530410" lon="0.951260">
        <time>2017-06-24T14:13:41Z</time>
      </trkpt>
      <trkpt lat="47.530590" lon="0.951640">
        <time>2017-06-24T14:13:42Z</time>
      </trkpt>
      <trkpt lat="47.530780" lon="0.952050">
        <time>2017-06-24T14:13:43Z</time>
      </trkpt>
      <trkpt lat="47.530950" lon="0.952400">
        <time>2017-06-24T14:13:44Z</time>
      </trkpt>
      <trkpt lat="47.531130" lon="0.952790">
        <time>2017-06-24T14:13:45Z</time>
      </trkpt>
      <trkpt lat="47.531330" lon="0.953190">
        <time>2017-06-24T14:13:46Z</time>
      </trkpt>
      <trkpt lat="47.531490" lon="0.953550">
        <time>2017-06-24T14:13:47Z</time>
      </trkpt>
      <trkpt lat="47.531680" lon="0.953950">
        <time>2017-06-24T14:13:48Z</time>
      </trkpt>
      <trkpt lat="47.531850" lon="0.954320">
        <time>2017-06-24T14:13:49Z</time>
      </trkpt>
      <trkpt lat="47.532030" lon="0.954700">
        <time>2017-06-24T14:13:50Z</time>
      </trkpt>
      <trkpt lat="47.532220" lon="0.955110">
        <time>2017-06-24T14:13:51Z</time>
      </trkpt>
      <trkpt lat="47.532380" lon="0.955470">
        <time>2017-06-24T14:13:52Z</time>
      </trkpt>
      <trkpt lat="47.532560" lon="0.955840">
        <time>2017-06-24T14:13:53Z</time>
      </trkpt>
      <trkpt lat="47.532740" lon="0.956210">
        <time>2017-06-24T14:13:54Z</time>
      </trkpt>
      <trkpt lat="47.532910" lon="0.956590">
        <time>2017-06-24T14:13:55Z</time>
      </trkpt>
      <trkpt lat="47.533100" lon="0.956990">
        <time>2017-06-24T14:13:56Z</time>
      </trkpt>
      <trkpt lat="47.533260" lon="0.957340">
        <time>2017-06-24T14:13:57Z</time>
      </trkpt>
      <trkpt lat="47.533430" lon="0.957700">
        <time>2017-06-24T14:13:58Z</time>
      </trkpt>
      <trkpt lat="47.533620" lon="0.958100">
        <time>2017-06-24T14:13:59Z</time>
      </trkpt>
      <trkpt lat="47.533780" lon="0.958440">
        <time>2017-06-24T14:14:00Z</time>
      </trkpt>
      <trkpt lat="47.533950" lon="0.958800">
        <time>2017-06-24T14:14:01Z</time>
      </trkpt>
      <trkpt lat="47.534130" lon="0.959190">
        <time>2017-06-24T14:14:02Z</time>
      </trkpt>
      <trkpt lat="47.534300" lon="0.959530">
        <time>2017-06-24T14:14:03Z</time>
      </trkpt>
      <trkpt lat="47.534480" lon="0.959910">
        <time>2017-06-24T14:14:04Z</time>
      </trkpt>
      <trkpt lat="47.534630" lon="0.960250">
        <time>2017-06-24T14:14:05Z</time>
      </trkpt>
      <trkpt lat="47.534810" lon="0.960620">
        <time>2017-06-24T14:14:06Z</time>
      </trkpt>
      <trkpt lat="47.534990" lon="0.961010">
        <time>2017-06-24T14:14:07Z</time>
      </trkpt>
      <trkpt lat="47.535160" lon="0.961360">
        <time>2017-06-24T14:14:08Z</time>
      </trkpt>
      <trkpt lat="47.535330" lon="0.961740">
        <time>2017-06-24T14:14:09Z</time>
      </trkpt>
      <trkpt lat="47.535500" lon="0.962110">
        <time>2017-06-24T14:14:10Z</time>
      </trkpt>
      <trkpt lat="47.535680" lon="0.962490">
        <time>2017-06-24T14:14:11Z</time>
      </trkpt>
      <trkpt lat="47.535870" lon="0.962900">
        <time>2017-06-24T14:14:12Z</time>
      </trkpt>
      <trkpt lat="47.536040" lon="0.963250">
        <time>2017-06-24T14:14:13Z</time>
      </trkpt>
      <trkpt lat="47.536220" lon="0.963640">
        <time>2017-06-24T14:14:14Z</time>
      </trkpt>
      <trkpt lat="47.536410" lon="0.964050">
        <time>2017-06-24T14:14:15Z</time>
      </trkpt>
      <trkpt lat="47.536590" lon="0.964420">
        <time>2017-06-24T14:14:16Z</time>
      </trkpt>
      <trkpt lat="47.536780" lon="0.964800">
        <time>2017-06-24T14:14:17Z</time>
      </trkpt>
      <trkpt lat="47.536980" lon="0.965220">
        <time>2017-06-24T14:14:18Z</time>
      </trkpt>
      <trkpt lat="47.537160" lon="0.965590">
        <time>2017-06-24T14:14:19Z</time>
      </trkpt>
      <trkpt lat="47.537380" lon="0.966000">
        <time>2017-06-24T14:14:20Z</time>
      </trkpt>
      <trkpt lat="47.537560" lon="0.966380">
        <time>2017-06-24T14:14:21Z</time>
      </trkpt>
      <trkpt lat="47.537750" lon="0.966770">
        <time>2017-06-24T14:14:22Z</time>
      </trkpt>
      <trkpt lat="47.537950" lon="0.967200">
        <time>2017-06-24T14:14:23Z</time>
      </trkpt>
      <trkpt lat="47.538130" lon="0.967580">
        <time>2017-06-24T14:14:24Z</time>
      </trkpt>
      <trkpt lat="47.538320" lon="0.967990">
        <time>2017-06-24T14:14:25Z</time>
      </trkpt>
      <trkpt lat="47.538510" lon="0.968390">
        <time>2017-06-24T14:14:26Z</time>
      </trkpt>
      <trkpt lat="47.538700" lon="0.968790">
        <time>2017-06-24T14:14:27Z</time>
      </trkpt>
      <trkpt lat="47.538900" lon="0.969220">
        <time>2017-06-24T14:14:28Z</time>
      </trkpt>
      <trkpt lat="47.539080" lon="0.969590">
        <time>2017-06-24T14:14:29Z</time>
      </trkpt>
      <trkpt lat="47.539260" lon="0.969990">
        <time>2017-06-24T14:14:30Z</time>
      </trkpt>
      <trkpt lat="47.539460" lon="0.970410">
        <time>2017-06-24T14:14:31Z</time>
      </trkpt>
      <trkpt lat="47.539640" lon="0.970780">
        <time>2017-06-24T14:14:32Z</time>
      </trkpt>
      <trkpt lat="47.539820" lon="0.971170">
        <time>2017-06-24T14:14:33Z</time>
      </trkpt>
      <trkpt lat="47.540010" lon="0.971590">
        <time>2017-06-24T14:14:34Z</time>
      </trkpt>
      <trkpt lat="47.540180" lon="0.971960">
        <time>2017-06-24T14:14:35Z</time>
      </trkpt>
      <trkpt lat="47.540380" lon="0.972390">
        <time>2017-06-24T14:14:36Z</time>
      </trkpt>
      <trkpt lat="47.540550" lon="0.972770">
        <time>2017-06-24T14:14:37Z</time>
      </trkpt>
      <trkpt lat="47.540740" lon="0.973180">
        <time>2017-06-24T14:14:38Z</time>
      </trkpt>
      <trkpt lat="47.540930" lon="0.973600">
        <time>2017-06-24T14:14:39Z</time>
      </trkpt>
      <trkpt lat="47.541110" lon="0.973980">
        <time>2017-06-24T14:14:40Z</time>
      </trkpt>
      <trkpt lat="47.541290" lon="0.974380">
        <time>2017-06-24T14:14:41Z</time>
      </trkpt>
      <trkpt lat="47.541480" lon="0.974760">
        <time>2017-06-24T14:14:42Z</time>
      </trkpt>
      <trkpt lat="47.541670" lon="0.975160">
        <time>2017-06-24T14:14:43Z</time>
      </trkpt>
      <trkpt lat="47.541860" lon="0.975570">
        <time>2017-06-24T14:14:44Z</time>
      </trkpt>
      <trkpt lat="47.542030" lon="0.975940">
        <time>2017-06-24T14:14:45Z</time>
      </trkpt>
      <trkpt lat="47.542210" lon="0.976320">
        <time>2017-06-24T14:14:46Z</time>
      </trkpt>
      <trkpt lat="47.542410" lon="0.976740">
        <time>2017-06-24T14:14:47Z</time>
      </trkpt>
      <trkpt lat="47.542580" lon="0.977110">
        <time>2017-06-24T14:14:48Z</time>
      </trkpt>
      <trkpt lat="47.542750" lon="0.977510">
        <time>2017-06-24T14:14:49Z</time>
      </trkpt>
      <trkpt lat="47.542940" lon="0.977940">
        <time>2017-06-24T14:14:50Z</time>
      </trkpt>
      <trkpt lat="47.543090" lon="0.978310">
        <time>2017-06-24T14:14:51Z</time>
      </trkpt>
      <trkpt lat="47.543270" lon="0.978730">
        <time>2017-06-24T14:14:52Z</time>
      </trkpt>
      <trkpt lat="47.543420" lon="0.979100">
        <time>2017-06-24T14:14:53Z</time>
      </trkpt>
      <trkpt lat="47.543590" lon="0.979500">
        <time>2017-06-24T14:14:54Z</time>
      </trkpt>
      <trkpt lat="47.543770" lon="0.979930">
        <time>2017-06-24T14:14:55Z</time>
      </trkpt>
      <trkpt lat="47.543930" lon="0.980300">
        <time>2017-06-24T14:14:56Z</time>
      </trkpt>
      <trkpt lat="47.544090" lon="0.980710">
        <time>2017-06-24T14:14:57Z</time>
      </trkpt>
      <trkpt lat="47.544260" lon="0.981120">
        <time>2017-06-24T14:14:58Z</time>
      </trkpt>
      <trkpt lat="47.544420" lon="0.981520">
        <time>2017-06-24T14:14:59Z</time>
      </trkpt>
      <trkpt lat="47.544580" lon="0.981950">
        <time>2017-06-24T14:15:00Z</time>
      </trkpt>
      <trkpt lat="47.544730" lon="0.982330">
        <time>2017-06-24T14:15:01Z</time>
      </trkpt>
      <trkpt lat="47.544890" lon="0.982740">
        <time>2017-06-24T14:15:02Z</time>
      </trkpt>
      <trkpt lat="47.545050" lon="0.983170">
        <time>2017-06-24T14:15:03Z</time>
      </trkpt>
      <trkpt lat="47.545180" lon="0.983550">
        <time>2017-06-24T14:15:04Z</time>
      </trkpt>
      <trkpt lat="47.545320" lon="0.983970">
        <time>2017-06-24T14:15:05Z</time>
      </trkpt>
      <trkpt lat="47.545480" lon="0.984400">
        <time>2017-06-24T14:15:06Z</time>
      </trkpt>
      <trkpt lat="47.545620" lon="0.984790">
        <time>2017-06-24T14:15:07Z</time>
      </trkpt>
      <trkpt lat="47.545780" lon="0.985240">
        <time>2017-06-24T14:15:08Z</time>
      </trkpt>
      <trkpt lat="47.545920" lon="0.985640">
        <time>2017-06-24T14:15:09Z</time>
      </trkpt>
      <trkpt lat="47.546060" lon="0.986070">
        <time>2017-06-24T14:15:10Z</time>
      </trkpt>
      <trkpt lat="47.546220" lon="0.986530">
        <time>2017-06-24T14:15:11Z</time>
      </trkpt>
      <trkpt lat="47.546350" lon="0.986940">
        <time>2017-06-24T14:15:12Z</time>
      </trkpt>
      <trkpt lat="47.546490" lon="0.987380">
        <time>2017-06-24T14:15:13Z</time>
      </trkpt>
      <trkpt lat="47.546630" lon="0.987820">
        <time>2017-06-24T14:15:14Z</time>
      </trkpt>
      <trkpt lat="47.546770" lon="0.988260">
        <time>2017-06-24T14:15:15Z</time>
      </trkpt>
      <trkpt lat="47.546930" lon="0.988720">
        <time>2017-06-24T14:15:16Z</time>
      </trkpt>
      <trkpt lat="47.547060" lon="0.989130">
        <time>2017-06-24T14:15:17Z</time>
      </trkpt>
      <trkpt lat="47.547200" lon="0.989560">
        <time>2017-06-24T14:15:18Z</time>
      </trkpt>
      <trkpt lat="47.547360" lon="0.990020">
        <time>2017-06-24T14:15:19Z</time>
      </trkpt>
      <trkpt lat="47.547500" lon="0.990430">
        <time>2017-06-24T14:15:20Z</time>
      </trkpt>
      <trkpt lat="47.547640" lon="0.990860">
        <time>2017-06-24T14:15:21Z</time>
      </trkpt>
      <trkpt lat="47.547790" lon="0.991320">
        <time>2017-06-24T14:15:22Z</time>
      </trkpt>
      <trkpt lat="47.547920" lon="0.991730">
        <time>2017-06-24T14:15:23Z</time>
      </trkpt>
      <trkpt lat="47.548070" lon="0.992200">
        <time>2017-06-24T14:15:24Z</time>
      </trkpt>
      <trkpt lat="47.548200" lon="0.992610">
        <time>2017-06-24T14:15:25Z</time>
      </trkpt>
      <trkpt lat="47.548350" lon="0.993060">
        <time>2017-06-24T14:15:26Z</time>
      </trkpt>
      <trkpt lat="47.548500" lon="0.993530">
        <time>2017-06-24T14:15:27Z</time>
      </trkpt>
      <trkpt lat="47.548630" lon="0.993940">
        <time>2017-06-24T14:15:28Z</time>
      </trkpt>
      <trkpt lat="47.548770" lon="0.994380">
        <time>2017-06-24T14:15:29Z</time>
      </trkpt>
      <trkpt lat="47.548920" lon="0.994820">
        <time>2017-06-24T14:15:30Z</time>
      </trkpt>
      <trkpt lat="47.549070" lon="0.995270">
        <time>2017-06-24T14:15:31Z</time>
      </trkpt>
      <trkpt lat="47.549230" lon="0.995750">
        <time>2017-06-24T14:15:32Z</time>
      </trkpt>
      <trkpt lat="47.549370" lon="0.996170">
        <time>2017-06-24T14:15:33Z</time>
      </trkpt>
      <trkpt lat="47.549520" lon="0.996620">
        <time>2017-06-24T14:15:34Z</time>
      </trkpt>
      <trkpt lat="47.549690" lon="0.997100">
        <time>2017-06-24T14:15:35Z</time>
      </trkpt>
      <trkpt lat="47.549830" lon="0.997520">
        <time>2017-06-24T14:15:36Z</time>
      </trkpt>
      <trkpt lat="47.549990" lon="0.997970">
        <time>2017-06-24T14:15:37Z</time>
      </trkpt>
      <trkpt lat="47.550150" lon="0.998460">
        <time>2017-06-24T14:15:38Z</time>
      </trkpt>
      <trkpt lat="47.550290" lon="0.998890">
        <time>2017-06-24T14:15:39Z</time>
      </trkpt>
      <trkpt lat="47.550440" lon="0.999380">
        <time>2017-06-24T14:15:40Z</time>
      </trkpt>
      <trkpt lat="47.550580" lon="0.999800">
        <time>2017-06-24T14:15:41Z</time>
      </trkpt>
      <trkpt lat="47.550730" lon="1.000250">
        <time>2017-06-24T14:15:42Z</time>
      </trkpt>
      <trkpt lat="47.550890" lon="1.000730">
        <time>2017-06-24T14:15:43Z</time>
      </trkpt>
      <trkpt lat="47.551030" lon="1.001150">
        <time>2017-06-24T14:15:44Z</time>
      </trkpt>
      <trkpt lat="47.551170" lon="1.001600">
        <time>2017-06-24T14:15:45Z</time>
      </trkpt>
      <trkpt lat="47.551320" lon="1.002040">
        <time>2017-06-24T14:15:46Z</time>
      </trkpt>
      <trkpt lat="47.551460" lon="1.002480">
        <time>2017-06-24T14:15:47Z</time>
      </trkpt>
      <trkpt lat="47.551620" lon="1.002960">
        <time>2017-06-24T14:15:48Z</time>
      </trkpt>
      <trkpt lat="47.551750" lon="1.003380">
        <time>2017-06-24T14:15:49Z</time>
      </trkpt>
      <trkpt lat="47.551900" lon="1.003830">
        <time>2017-06-24T14:15:50Z</time>
      </trkpt>
      <trkpt lat="47.552050" lon="1.004300">
        <time>2017-06-24T14:15:51Z</time>
      </trkpt>
      <trkpt lat="47.552190" lon="1.004720">
        <time>2017-06-24T14:15:52Z</time>
      </trkpt>
      <trkpt lat="47.552340" lon="1.005160">
        <time>2017-06-24T14:15:53Z</time>
      </trkpt>
      <trkpt lat="47.552500" lon="1.005640">
        <time>2017-06-24T14:15:54Z</time>
      </trkpt>
      <trkpt lat="47.552630" lon="1.006060">
        <time>2017-06-24T14:15:55Z</time>
      </trkpt>
      <trkpt lat="47.552780" lon="1.006540">
        <time>2017-06-24T14:15:56Z</time>
      </trkpt>
      <trkpt lat="47.552920" lon="1.006960">
        <time>2017-06-24T14:15:57Z</time>
      </trkpt>
      <trkpt lat="47.553060" lon="1.007420">
        <time>2017-06-24T14:15:58Z</time>
      </trkpt>
      <trkpt lat="47.553210" lon="1.007900">
        <time>2017-06-24T14:15:59Z</time>
      </trkpt>
      <trkpt lat="47.553350" lon="1.008310">
        <time>2017-06-24T14:16:00Z</time>
      </trkpt>
      <trkpt lat="47.553500" lon="1.008750">
        <time>2017-06-24T14:16:01Z</time>
      </trkpt>
      <trkpt lat="47.553640" lon="1.009210">
        <time>2017-06-24T14:16:02Z</time>
      </trkpt>
      <trkpt lat="47.553790" lon="1.009670">
        <time>2017-06-24T14:16:03Z</time>
      </trkpt>
      <trkpt lat="47.553950" lon="1.010150">
        <time>2017-06-24T14:16:04Z</time>
      </trkpt>
      <trkpt lat="47.554080" lon="1.010580">
        <time>2017-06-24T14:16:05Z</time>
      </trkpt>
      <trkpt lat="47.554230" lon="1.011030">
        <time>2017-06-24T14:16:06Z</time>
      </trkpt>
      <trkpt lat="47.554390" lon="1.011520">
        <time>2017-06-24T14:16:07Z</time>
      </trkpt>
      <trkpt lat="47.554530" lon="1.011950">
        <time>2017-06-24T14:16:08Z</time>
      </trkpt>
      <trkpt lat="47.554670" lon="1.012400">
        <time>2017-06-24T14:16:09Z</time>
      </trkpt>
      <trkpt lat="47.554830" lon="1.012870">
        <time>2017-06-24T14:16:10Z</time>
      </trkpt>
      <trkpt lat="47.554970" lon="1.013290">
        <time>2017-06-24T14:16:11Z</time>
      </trkpt>
      <trkpt lat="47.555130" lon="1.013770">
        <time>2017-06-24T14:16:12Z</time>
      </trkpt>
      <trkpt lat="47.555260" lon="1.014180">
        <time>2017-06-24T14:16:13Z</time>
      </trkpt>
      <trkpt lat="47.555410" lon="1.014620">
        <time>2017-06-24T14:16:14Z</time>
      </trkpt>
      <trkpt lat="47.555560" lon="1.015100">
        <time>2017-06-24T14:16:15Z</time>
      </trkpt>
      <trkpt lat="47.555690" lon="1.015510">
        <time>2017-06-24T14:16:16Z</time>
      </trkpt>
      <trkpt lat="47.555840" lon="1.015950">
        <time>2017-06-24T14:16:17Z</time>
      </trkpt>
      <trkpt lat="47.555980" lon="1.016380">
        <time>2017-06-24T14:16:18Z</time>
      </trkpt>
      <trkpt lat="47.556110" lon="1.016820">
        <time>2017-06-24T14:16:19Z</time>
      </trkpt>
      <trkpt lat="47.556270" lon="1.017290">
        <time>2017-06-24T14:16:20Z</time>
      </trkpt>
      <trkpt lat="47.556410" lon="1.017700">
        <time>2017-06-24T14:16:21Z</time>
      </trkpt>
      <trkpt lat="47.556550" lon="1.018130">
        <time>2017-06-24T14:16:22Z</time>
      </trkpt>
      <trkpt lat="47.556700" lon="1.018580">
        <time>2017-06-24T14:16:23Z</time>
      </trkpt>
      <trkpt lat="47.556830" lon="1.018990">
        <time>2017-06-24T14:16:24Z</time>
      </trkpt>
      <trkpt lat="47.556970" lon="1.019420">
        <time>2017-06-24T14:16:25Z</time>
      </trkpt>
      <trkpt lat="47.557120" lon="1.019880">
        <time>2017-06-24T14:16:26Z</time>
      </trkpt>
      <trkpt lat="47.557250" lon="1.020290">
        <time>2017-06-24T14:16:27Z</time>
      </trkpt>
      <trkpt lat="47.557400" lon="1.020750">
        <time>2017-06-24T14:16:28Z</time>
      </trkpt>
      <trkpt lat="47.557530" lon="1.021160">
        <time>2017-06-24T14:16:29Z</time>
      </trkpt>
      <trkpt lat="47.557690" lon="1.021600">
        <time>2017-06-24T14:16:30Z</time>
      </trkpt>
      <trkpt lat="47.557850" lon="1.022060">
        <time>2017-06-24T14:16:31Z</time>
      </trkpt>
      <trkpt lat="47.558000" lon="1.022470">
        <time>2017-06-24T14:16:32Z</time>
      </trkpt>
      <trkpt lat="47.558160" lon="1.022920">
        <time>2017-06-24T14:16:33Z</time>
      </trkpt>
      <trkpt lat="47.558310" lon="1.023370">
        <time>2017-06-24T14:16:34Z</time>
      </trkpt>
      <trkpt lat="47.558470" lon="1.023820">
        <time>2017-06-24T14:16:35Z</time>
      </trkpt>
      <trkpt lat="47.558640" lon="1.024300">
        <time>2017-06-24T14:16:36Z</time>
      </trkpt>
      <trkpt lat="47.558780" lon="1.024720">
        <time>2017-06-24T14:16:37Z</time>
      </trkpt>
      <trkpt lat="47.558940" lon="1.025160">
        <time>2017-06-24T14:16:38Z</time>
      </trkpt>
      <trkpt lat="47.559110" lon="1.025620">
        <time>2017-06-24T14:16:39Z</time>
      </trkpt>
      <trkpt lat="47.559260" lon="1.026030">
        <time>2017-06-24T14:16:40Z</time>
      </trkpt>
      <trkpt lat="47.559420" lon="1.026470">
        <time>2017-06-24T14:16:41Z</time>
      </trkpt>
      <trkpt lat="47.559590" lon="1.026940">
        <time>2017-06-24T14:16:42Z</time>
      </trkpt>
      <trkpt lat="47.559740" lon="1.027350">
        <time>2017-06-24T14:16:43Z</time>
      </trkpt>
      <trkpt lat="47.559920" lon="1.027830">
        <time>2017-06-24T14:16:44Z</time>
      </trkpt>
      <trkpt lat="47.560070" lon="1.028250">
        <time>2017-06-24T14:16:45Z</time>
      </trkpt>
      <trkpt lat="47.560220" lon="1.028700">
        <time>2017-06-24T14:16:46Z</time>
      </trkpt>
      <trkpt lat="47.560390" lon="1.029180">
        <time>2017-06-24T14:16:47Z</time>
      </trkpt>
      <trkpt lat="47.560540" lon="1.029600">
        <time>2017-06-24T14:16:48Z</time>
      </trkpt>
      <trkpt lat="47.560700" lon="1.030040">
        <time>2017-06-24T14:16:49Z</time>
      </trkpt>
      <trkpt lat="47.560860" lon="1.030470">
        <time>2017-06-24T14:16:50Z</time>
      </trkpt>
      <trkpt lat="47.561030" lon="1.030910">
        <time>2017-06-24T14:16:51Z</time>
      </trkpt>
      <trkpt lat="47.561220" lon="1.031370">
        <time>2017-06-24T14:16:52Z</time>
      </trkpt>
      <trkpt lat="47.561380" lon="1.031770">
        <time>2017-06-24T14:16:53Z</time>
      </trkpt>
      <trkpt lat="47.561560" lon="1.032210">
        <time>2017-06-24T14:16:54Z</time>
      </trkpt>
      <trkpt lat="47.561730" lon="1.032670">
        <time>2017-06-24T14:16:55Z</time>
      </trkpt>
      <trkpt lat="47.561900" lon="1.033060">
        <time>2017-06-24T14:16:56Z</time>
      </trkpt>
      <trkpt lat="47.562070" lon="1.033480">
        <time>2017-06-24T14:16:57Z</time>
      </trkpt>
      <trkpt lat="47.562260" lon="1.033930">
        <time>2017-06-24T14:16:58Z</time>
      </trkpt>
      <trkpt lat="47.562430" lon="1.034310">
        <time>2017-06-24T14:16:59Z</time>
      </trkpt>
      <trkpt lat="47.562620" lon="1.034760">
        <time>2017-06-24T14:17:00Z</time>
      </trkpt>
      <trkpt lat="47.562780" lon="1.035150">
        <time>2017-06-24T14:17:01Z</time>
      </trkpt>
      <trkpt lat="47.562970" lon="1.035570">
        <time>2017-06-24T14:17:02Z</time>
      </trkpt>
      <trkpt lat="47.563160" lon="1.036010">
        <time>2017-06-24T14:17:03Z</time>
      </trkpt>
      <trkpt lat="47.563330" lon="1.036400">
        <time>2017-06-24T14:17:04Z</time>
      </trkpt>
      <trkpt lat="47.563510" lon="1.036800">
        <time>2017-06-24T14:17:05Z</time>
      </trkpt>
      <trkpt lat="47.563700" lon="1.037210">
        <time>2017-06-24T14:17:06Z</time>
      </trkpt>
      <trkpt lat="47.563880" lon="1.037600">
        <time>2017-06-24T14:17:07Z</time>
      </trkpt>
      <trkpt lat="47.564080" lon="1.038030">
        <time>2017-06-24T14:17:08Z</time>
      </trkpt>
      <trkpt lat="47.564250" lon="1.038420">
        <time>2017-06-24T14:17:09Z</time>
      </trkpt>
      <trkpt lat="47.564440" lon="1.038820">
        <time>2017-06-24T14:17:10Z</time>
      </trkpt>
      <trkpt lat="47.564640" lon="1.039250">
        <time>2017-06-24T14:17:11Z</time>
      </trkpt>
      <trkpt lat="47.564810" lon="1.039620">
        <time>2017-06-24T14:17:12Z</time>
      </trkpt>
      <trkpt lat="47.565000" lon="1.040020">
        <time>2017-06-24T14:17:13Z</time>
      </trkpt>
      <trkpt lat="47.565200" lon="1.040430">
        <time>2017-06-24T14:17:14Z</time>
      </trkpt>
      <trkpt lat="47.565380" lon="1.040800">
        <time>2017-06-24T14:17:15Z</time>
      </trkpt>
      <trkpt lat="47.565580" lon="1.041210">
        <time>2017-06-24T14:17:16Z</time>
      </trkpt>
      <trkpt lat="47.565760" lon="1.041570">
        <time>2017-06-24T14:17:17Z</time>
      </trkpt>
      <trkpt lat="47.565950" lon="1.041950">
        <time>2017-06-24T14:17:18Z</time>
      </trkpt>
      <trkpt lat="47.566150" lon="1.042360">
        <time>2017-06-24T14:17:19Z</time>
      </trkpt>
      <trkpt lat="47.566330" lon="1.042710">
        <time>2017-06-24T14:17:20Z</time>
      </trkpt>
      <trkpt lat="47.566520" lon="1.043090">
        <time>2017-06-24T14:17:21Z</time>
      </trkpt>
      <trkpt lat="47.566710" lon="1.043450">
        <time>2017-06-24T14:17:22Z</time>
      </trkpt>
      <trkpt lat="47.566900" lon="1.043830">
        <time>2017-06-24T14:17:23Z</time>
      </trkpt>
      <trkpt lat="47.567110" lon="1.044220">
        <time>2017-06-24T14:17:24Z</time>
      </trkpt>
      <trkpt lat="47.567280" lon="1.044570">
        <time>2017-06-24T14:17:25Z</time>
      </trkpt>
      <trkpt lat="47.567480" lon="1.044940">
        <time>2017-06-24T14:17:26Z</time>
      </trkpt>
      <trkpt lat="47.567690" lon="1.045320">
        <time>2017-06-24T14:17:27Z</time>
      </trkpt>
      <trkpt lat="47.567880" lon="1.045660">
        <time>2017-06-24T14:17:28Z</time>
      </trkpt>
      <trkpt lat="47.568080" lon="1.046020">
        <time>2017-06-24T14:17:29Z</time>
      </trkpt>
      <trkpt lat="47.568290" lon="1.046410">
        <time>2017-06-24T14:17:30Z</time>
      </trkpt>
      <trkpt lat="47.568480" lon="1.046750">
        <time>2017-06-24T14:17:31Z</time>
      </trkpt>
      <trkpt lat="47.568700" lon="1.047140">
        <time>2017-06-24T14:17:32Z</time>
      </trkpt>
      <trkpt lat="47.568880" lon="1.047470">
        <time>2017-06-24T14:17:33Z</time>
      </trkpt>
      <trkpt lat="47.569080" lon="1.047850">
        <time>2017-06-24T14:17:34Z</time>
      </trkpt>
      <trkpt lat="47.569300" lon="1.048230">
        <time>2017-06-24T14:17:35Z</time>
      </trkpt>
      <trkpt lat="47.569500" lon="1.048560">
        <time>2017-06-24T14:17:36Z</time>
      </trkpt>
      <trkpt lat="47.569700" lon="1.048910">
        <time>2017-06-24T14:17:37Z</time>
      </trkpt>
      <trkpt lat="47.569910" lon="1.049250">
        <time>2017-06-24T14:17:38Z</time>
      </trkpt>
      <trkpt lat="47.570120" lon="1.049610">
        <time>2017-06-24T14:17:39Z</time>
      </trkpt>
      <trkpt lat="47.570340" lon="1.049980">
        <time>2017-06-24T14:17:40Z</time>
      </trkpt>
      <trkpt lat="47.570540" lon="1.050320">
        <time>2017-06-24T14:17:41Z</time>
      </trkpt>
      <trkpt lat="47.570750" lon="1.050670">
        <time>2017-06-24T14:17:42Z</time>
      </trkpt>
      <trkpt lat="47.570980" lon="1.051040">
        <time>2017-06-24T14:17:43Z</time>
      </trkpt>
      <trkpt lat="47.571180" lon="1.051370">
        <time>2017-06-24T14:17:44Z</time>
      </trkpt>
      <trkpt lat="47.571400" lon="1.051720">
        <time>2017-06-24T14:17:45Z</time>
      </trkpt>
      <trkpt lat="47.571630" lon="1.052090">
        <time>2017-06-24T14:17:46Z</time>
      </trkpt>
      <trkpt lat="47.571840" lon="1.052420">
        <time>2017-06-24T14:17:47Z</time>
      </trkpt>
      <trkpt lat="47.572070" lon="1.052780">
        <time>2017-06-24T14:17:48Z</time>
      </trkpt>
      <trkpt lat="47.572270" lon="1.053110">
        <time>2017-06-24T14:17:49Z</time>
      </trkpt>
      <trkpt lat="47.572490" lon="1.053460">
        <time>2017-06-24T14:17:50Z</time>
      </trkpt>
      <trkpt lat="47.572730" lon="1.053830">
        <time>2017-06-24T14:17:51Z</time>
      </trkpt>
      <trkpt lat="47.572940" lon="1.054150">
        <time>2017-06-24T14:17:52Z</time>
      </trkpt>
      <trkpt lat="47.573170" lon="1.054510">
        <time>2017-06-24T14:17:53Z</time>
      </trkpt>
      <trkpt lat="47.573390" lon="1.054860">
        <time>2017-06-24T14:17:54Z</time>
      </trkpt>
      <trkpt lat="47.573620" lon="1.055210">
        <time>2017-06-24T14:17:55Z</time>
      </trkpt>
      <trkpt lat="47.573860" lon="1.055600">
        <time>2017-06-24T14:17:56Z</time>
      </trkpt>
      <trkpt lat="47.574060" lon="1.055920">
        <time>2017-06-24T14:17:57Z</time>
      </trkpt>
      <trkpt lat="47.574280" lon="1.056280">
        <time>2017-06-24T14:17:58Z</time>
      </trkpt>
      <trkpt lat="47.574520" lon="1.056650">
        <time>2017-06-24T14:17:59Z</time>
      </trkpt>
      <trkpt lat="47.574730" lon="1.056970">
        <time>2017-06-24T14:18:00Z</time>
      </trkpt>
      <trkpt lat="47.574950" lon="1.057330">
        <time>2017-06-24T14:18:01Z</time>
      </trkpt>
      <trkpt lat="47.575190" lon="1.057700">
        <time>2017-06-24T14:18:02Z</time>
      </trkpt>
      <trkpt lat="47.575390" lon="1.058020">
        <time>2017-06-24T14:18:03Z</time>
      </trkpt>
      <trkpt lat="47.575620" lon="1.058390">
        <time>2017-06-24T14:18:04Z</time>
      </trkpt>
      <trkpt lat="47.575820" lon="1.058720">
        <time>2017-06-24T14:18:05Z</time>
      </trkpt>
      <trkpt lat="47.576040" lon="1.059060">
        <time>2017-06-24T14:18:06Z</time>
      </trkpt>
      <trkpt lat="47.576260" lon="1.059440">
        <time>2017-06-24T14:18:07Z</time>
      </trkpt>
      <trkpt lat="47.576470" lon="1.059760">
        <time>2017-06-24T14:18:08Z</time>
      </trkpt>
      <trkpt lat="47.576680" lon="1.060110">
        <time>2017-06-24T14:18:09Z</time>
      </trkpt>
      <trkpt lat="47.576900" lon="1.060470">
        <time>2017-06-24T14:18:10Z</time>
      </trkpt>
      <trkpt lat="47.577110" lon="1.060820">
        <time>2017-06-24T14:18:11Z</time>
      </trkpt>
      <trkpt lat="47.577330" lon="1.061200">
        <time>2017-06-24T14:18:12Z</time>
      </trkpt>
      <trkpt lat="47.577520" lon="1.061530">
        <time>2017-06-24T14:18:13Z</time>
      </trkpt>
      <trkpt lat="47.577730" lon="1.061890">
        <time>2017-06-24T14:18:14Z</time>
      </trkpt>
      <trkpt lat="47.577950" lon="1.062260">
        <time>2017-06-24T14:18:15Z</time>
      </trkpt>
      <trkpt lat="47.578140" lon="1.062590">
        <time>2017-06-24T14:18:16Z</time>
      </trkpt>
      <trkpt lat="47.578350" lon="1.062950">
        <time>2017-06-24T14:18:17Z</time>
      </trkpt>
      <trkpt lat="47.578560" lon="1.063340">
        <time>2017-06-24T14:18:18Z</time>
      </trkpt>
      <trkpt lat="47.578750" lon="1.063680">
        <time>2017-06-24T14:18:19Z</time>
      </trkpt>
      <trkpt lat="47.578970" lon="1.064070">
        <time>2017-06-24T14:18:20Z</time>
      </trkpt>
      <trkpt lat="47.579150" lon="1.064410">
        <time>2017-06-24T14:18:21Z</time>
      </trkpt>
      <trkpt lat="47.579360" lon="1.064780">
        <time>2017-06-24T14:18:22Z</time>
      </trkpt>
      <trkpt lat="47.579570" lon="1.065170">
        <time>2017-06-24T14:18:23Z</time>
      </trkpt>
      <trkpt lat="47.579750" lon="1.065520">
        <time>2017-06-24T14:18:24Z</time>
      </trkpt>
      <trkpt lat="47.579950" lon="1.065880">
        <time>2017-06-24T14:18:25Z</time>
      </trkpt>
      <trkpt lat="47.580140" lon="1.066250">
        <time>2017-06-24T14:18:26Z</time>
      </trkpt>
      <trkpt lat="47.580330" lon="1.066600">
        <time>2017-06-24T14:18:27Z</time>
      </trkpt>
      <trkpt lat="47.580540" lon="1.066990">
        <time>2017-06-24T14:18:28Z</time>
      </trkpt>
      <trkpt lat="47.580720" lon="1.067330">
        <time>2017-06-24T14:18:29Z</time>
      </trkpt>
      <trkpt lat="47.580910" lon="1.067690">
        <time>2017-06-24T14:18:30Z</time>
      </trkpt>
      <trkpt lat="47.581120" lon="1.068080">
        <time>2017-06-24T14:18:31Z</time>
      </trkpt>
      <trkpt lat="47.581300" lon="1.068430">
        <time>2017-06-24T14:18:32Z</time>
      </trkpt>
      <trkpt lat="47.581500" lon="1.068800">
        <time>2017-06-24T14:18:33Z</time>
      </trkpt>
      <trkpt lat="47.581700" lon="1.069200">
        <time>2017-06-24T14:18:34Z</time>
      </trkpt>
      <trkpt lat="47.581870" lon="1.069550">
        <time>2017-06-24T14:18:35Z</time>
      </trkpt>
      <trkpt lat="47.582060" lon="1.069940">
        <time>2017-06-24T14:18:36Z</time>
      </trkpt>
      <trkpt lat="47.582240" lon="1.070280">
        <time>2017-06-24T14:18:37Z</time>
      </trkpt>
      <trkpt lat="47.582420" lon="1.070660">
        <time>2017-06-24T14:18:38Z</time>
      </trkpt>
      <trkpt lat="47.582610" lon="1.071060">
        <time>2017-06-24T14:18:39Z</time>
      </trkpt>
      <trkpt lat="47.582770" lon="1.071410">
        <time>2017-06-24T14:18:40Z</time>
      </trkpt>
      <trkpt lat="47.582950" lon="1.071790">
        <time>2017-06-24T14:18:41Z</time>
      </trkpt>
      <trkpt lat="47.583120" lon="1.072170">
        <time>2017-06-24T14:18:42Z</time>
      </trkpt>
      <trkpt lat="47.583290" lon="1.072550">
        <time>2017-06-24T14:18:43Z</time>
      </trkpt>
      <trkpt lat="47.583470" lon="1.072950">
        <time>2017-06-24T14:18:44Z</time>
      </trkpt>
      <trkpt lat="47.583620" lon="1.073300">
        <time>2017-06-24T14:18:45Z</time>
      </trkpt>
      <trkpt lat="47.583790" lon="1.073680">
        <time>2017-06-24T14:18:46Z</time>
      </trkpt>
      <trkpt lat="47.583970" lon="1.074080">
        <time>2017-06-24T14:18:47Z</time>
      </trkpt>
      <trkpt lat="47.584130" lon="1.074440">
        <time>2017-06-24T14:18:48Z</time>
      </trkpt>
      <trkpt lat="47.584300" lon="1.074820">
        <time>2017-06-24T14:18:49Z</time>
      </trkpt>
      <trkpt lat="47.584480" lon="1.075230">
        <time>2017-06-24T14:18:50Z</time>
      </trkpt>
      <trkpt lat="47.584650" lon="1.075590">
        <time>2017-06-24T14:18:51Z</time>
      </trkpt>
      <trkpt lat="47.584840" lon="1.076000">
        <time>2017-06-24T14:18:52Z</time>
      </trkpt>
      <trkpt lat="47.584990" lon="1.076350">
        <time>2017-06-24T14:18:53Z</time>
      </trkpt>
      <trkpt lat="47.585160" lon="1.076740">
        <time>2017-06-24T14:18:54Z</time>
      </trkpt>
      <trkpt lat="47.585350" lon="1.077140">
        <time>2017-06-24T14:18:55Z</time>
      </trkpt>
      <trkpt lat="47.585510" lon="1.077490">
        <time>2017-06-24T14:18:56Z</time>
      </trkpt>
      <trkpt lat="47.585680" lon="1.077880">
        <time>2017-06-24T14:18:57Z</time>
      </trkpt>
      <trkpt lat="47.585850" lon="1.078260">
        <time>2017-06-24T14:18:58Z</time>
      </trkpt>
      <trkpt lat="47.586020" lon="1.078640">
        <time>2017-06-24T14:18:59Z</time>
      </trkpt>
      <trkpt lat="47.586200" lon="1.079050">
        <time>2017-06-24T14:19:00Z</time>
      </trkpt>
      <trkpt lat="47.586360" lon="1.079400">
        <time>2017-06-24T14:19:01Z</time>
      </trkpt>
      <trkpt lat="47.586540" lon="1.079770">
        <time>2017-06-24T14:19:02Z</time>
      </trkpt>
      <trkpt lat="47.586720" lon="1.080170">
        <time>2017-06-24T14:19:03Z</time>
      </trkpt>
      <trkpt lat="47.586880" lon="1.080530">
        <time>2017-06-24T14:19:04Z</time>
      </trkpt>
      <trkpt lat="47.587050" lon="1.080910">
        <time>2017-06-24T14:19:05Z</time>
      </trkpt>
      <trkpt lat="47.587230" lon="1.081310">
        <time>2017-06-24T14:19:06Z</time>
      </trkpt>
      <trkpt lat="47.587410" lon="1.081670">
        <time>2017-06-24T14:19:07Z</time>
      </trkpt>
      <trkpt lat="47.587600" lon="1.082080">
        <time>2017-06-24T14:19:08Z</time>
      </trkpt>
      <trkpt lat="47.587770" lon="1.082450">
        <time>2017-06-24T14:19:09Z</time>
      </trkpt>
      <trkpt lat="47.587950" lon="1.082830">
        <time>2017-06-24T14:19:10Z</time>
      </trkpt>
      <trkpt lat="47.588140" lon="1.083230">
        <time>2017-06-24T14:19:11Z</time>
      </trkpt>
      <trkpt lat="47.588310" lon="1.083580">
        <time>2017-06-24T14:19:12Z</time>
      </trkpt>
      <trkpt lat="47.588500" lon="1.083960">
        <time>2017-06-24T14:19:13Z</time>
      </trkpt>
      <trkpt lat="47.588690" lon="1.084340">
        <time>2017-06-24T14:19:14Z</time>
      </trkpt>
      <trkpt lat="47.588870" lon="1.084710">
        <time>2017-06-24T14:19:15Z</time>
      </trkpt>
      <trkpt lat="47.589070" lon="1.085110">
        <time>2017-06-24T14:19:16Z</time>
      </trkpt>
      <trkpt lat="47.589250" lon="1.085460">
        <time>2017-06-24T14:19:17Z</time>
      </trkpt>
      <trkpt lat="47.589430" lon="1.085830">
        <time>2017-06-24T14:19:18Z</time>
      </trkpt>
      <trkpt lat="47.589640" lon="1.086220">
        <time>2017-06-24T14:19:19Z</time>
      </trkpt>
      <trkpt lat="47.589820" lon="1.086550">
        <time>2017-06-24T14:19:20Z</time>
      </trkpt>
      <trkpt lat="47.590010" lon="1.086920">
        <time>2017-06-24T14:19:21Z</time>
      </trkpt>
      <trkpt lat="47.590220" lon="1.087310">
        <time>2017-06-24T14:19:22Z</time>
      </trkpt>
      <trkpt lat="47.590400" lon="1.087650">
        <time>2017-06-24T14:19:23Z</time>
      </trkpt>
      <trkpt lat="47.590610" lon="1.088040">
        <time>2017-06-24T14:19:24Z</time>
      </trkpt>
      <trkpt lat="47.590800" lon="1.088390">
        <time>2017-06-24T14:19:25Z</time>
      </trkpt>
      <trkpt lat="47.591000" lon="1.088750">
        <time>2017-06-24T14:19:26Z</time>
      </trkpt>
      <trkpt lat="47.591210" lon="1.089140">
        <time>2017-06-24T14:19:27Z</time>
      </trkpt>
      <trkpt lat="47.591390" lon="1.089480">
        <time>2017-06-24T14:19:28Z</time>
      </trkpt>
      <trkpt lat="47.591590" lon="1.089850">
        <time>2017-06-24T14:19:29Z</time>
      </trkpt>
      <trkpt lat="47.591790" lon="1.090210">
        <time>2017-06-24T14:19:30Z</time>
      </trkpt>
      <trkpt lat="47.591990" lon="1.090570">
        <time>2017-06-24T14:19:31Z</time>
      </trkpt>
      <trkpt lat="47.592200" lon="1.090940">
        <time>2017-06-24T14:19:32Z</time>
      </trkpt>
      <trkpt lat="47.592390" lon="1.091280">
        <time>2017-06-24T14:19:33Z</time>
      </trkpt>
      <trkpt lat="47.592590" lon="1.091640">
        <time>2017-06-24T14:19:34Z</time>
      </trkpt>
      <trkpt lat="47.592800" lon="1.092020">
        <time>2017-06-24T14:19:35Z</time>
      </trkpt>
      <trkpt lat="47.592990" lon="1.092350">
        <time>2017-06-24T14:19:36Z</time>
      </trkpt>
      <trkpt lat="47.593180" lon="1.092710">
        <time>2017-06-24T14:19:37Z</time>
      </trkpt>
      <trkpt lat="47.593390" lon="1.093080">
        <time>2017-06-24T14:19:38Z</time>
      </trkpt>
      <trkpt lat="47.593580" lon="1.093420">
        <time>2017-06-24T14:19:39Z</time>
      </trkpt>
      <trkpt lat="47.593780" lon="1.093800">
        <time>2017-06-24T14:19:40Z</time>
      </trkpt>
      <trkpt lat="47.593960" lon="1.094130">
        <time>2017-06-24T14:19:41Z</time>
      </trkpt>
      <trkpt lat="47.594160" lon="1.094480">
        <time>2017-06-24T14:19:42Z</time>
      </trkpt>
      <trkpt lat="47.594370" lon="1.094860">
        <time>2017-06-24T14:19:43Z</time>
      </trkpt>
      <trkpt lat="47.594550" lon="1.095190">
        <time>2017-06-24T14:19:44Z</time>
      </trkpt>
      <trkpt lat="47.594740" lon="1.095540">
        <time>2017-06-24T14:19:45Z</time>
      </trkpt>
      <trkpt lat="47.594930" lon="1.095900">
        <time>2017-06-24T14:19:46Z</time>
      </trkpt>
      <trkpt lat="47.595120" lon="1.096260">
        <time>2017-06-24T14:19:47Z</time>
      </trkpt>
      <trkpt lat="47.595320" lon="1.096640">
        <time>2017-06-24T14:19:48Z</time>
      </trkpt>
      <trkpt lat="47.595500" lon="1.096980">
        <time>2017-06-24T14:19:49Z</time>
      </trkpt>
      <trkpt lat="47.595690" lon="1.097350">
        <time>2017-06-24T14:19:50Z</time>
      </trkpt>
      <trkpt lat="47.595890" lon="1.097750">
        <time>2017-06-24T14:19:51Z</time>
      </trkpt>
      <trkpt lat="47.596080" lon="1.098100">
        <time>2017-06-24T14:19:52Z</time>
      </trkpt>
      <trkpt lat="47.596270" lon="1.098480">
        <time>2017-06-24T14:19:53Z</time>
      </trkpt>
      <trkpt lat="47.596480" lon="1.098880">
        <time>2017-06-24T14:19:54Z</time>
      </trkpt>
      <trkpt lat="47.596650" lon="1.099230">
        <time>2017-06-24T14:19:55Z</time>
      </trkpt>
      <trkpt lat="47.596840" lon="1.099640">
        <time>2017-06-24T14:19:56Z</time>
      </trkpt>
      <trkpt lat="47.597020" lon="1.099990">
        <time>2017-06-24T14:19:57Z</time>
      </trkpt>
      <trkpt lat="47.597200" lon="1.100370">
        <time>2017-06-24T14:19:58Z</time>
      </trkpt>
      <trkpt lat="47.597400" lon="1.100770">
        <time>2017-06-24T14:19:59Z</time>
      </trkpt>
      <trkpt lat="47.597570" lon="1.101130">
        <time>2017-06-24T14:20:00Z</time>
      </trkpt>
      <trkpt lat="47.597750" lon="1.101500">
        <time>2017-06-24T14:20:01Z</time>
      </trkpt>
      <trkpt lat="47.597930" lon="1.101890">
        <time>2017-06-24T14:20:02Z</time>
      </trkpt>
      <trkpt lat="47.598110" lon="1.102270">
        <time>2017-06-24T14:20:03Z</time>
      </trkpt>
      <trkpt lat="47.598300" lon="1.102670">
        <time>2017-06-24T14:20:04Z</time>
      </trkpt>
      <trkpt lat="47.598480" lon="1.103020">
        <time>2017-06-24T14:20:05Z</time>
      </trkpt>
      <trkpt lat="47.598660" lon="1.103390">
        <time>2017-06-24T14:20:06Z</time>
      </trkpt>
      <trkpt lat="47.598870" lon="1.103800">
        <time>2017-06-24T14:20:07Z</time>
      </trkpt>
      <trkpt lat="47.599050" lon="1.104160">
        <time>2017-06-24T14:20:08Z</time>
      </trkpt>
      <trkpt lat="47.599240" lon="1.104560">
        <time>2017-06-24T14:20:09Z</time>
      </trkpt>
      <trkpt lat="47.599440" lon="1.104980">
        <time>2017-06-24T14:20:10Z</time>
      </trkpt>
      <trkpt lat="47.599610" lon="1.105360">
        <time>2017-06-24T14:20:11Z</time>
      </trkpt>
      <trkpt lat="47.599810" lon="1.105780">
        <time>2017-06-24T14:20:12Z</time>
      </trkpt>
      <trkpt lat="47.599980" lon="1.106170">
        <time>2017-06-24T14:20:13Z</time>
      </trkpt>
      <trkpt lat="47.600160" lon="1.106560">
        <time>2017-06-24T14:20:14Z</time>
      </trkpt>
      <trkpt lat="47.600360" lon="1.107000">
        <time>2017-06-24T14:20:15Z</time>
      </trkpt>
      <trkpt lat="47.600530" lon="1.107390">
        <time>2017-06-24T14:20:16Z</time>
      </trkpt>
      <trkpt lat="47.600710" lon="1.107800">
        <time>2017-06-24T14:20:17Z</time>
      </trkpt>
      <trkpt lat="47.600890" lon="1.108220">
        <time>2017-06-24T14:20:18Z</time>
      </trkpt>
      <trkpt lat="47.601070" lon="1.108650">
        <time>2017-06-24T14:20:19Z</time>
      </trkpt>
      <trkpt lat="47.601270" lon="1.109100">
        <time>2017-06-24T14:20:20Z</time>
      </trkpt>
      <trkpt lat="47.601440" lon="1.109500">
        <time>2017-06-24T14:20:21Z</time>
      </trkpt>
      <trkpt lat="47.601620" lon="1.109930">
        <time>2017-06-24T14:20:22Z</time>
      </trkpt>
      <trkpt lat="47.601810" lon="1.110390">
        <time>2017-06-24T14:20:23Z</time>
      </trkpt>
      <trkpt lat="47.601980" lon="1.110790">
        <time>2017-06-24T14:20:24Z</time>
      </trkpt>
      <trkpt lat="47.602160" lon="1.111230">
        <time>2017-06-24T14:20:25Z</time>
      </trkpt>
      <trkpt lat="47.602350" lon="1.111690">
        <time>2017-06-24T14:20:26Z</time>
      </trkpt>
      <trkpt lat="47.602510" lon="1.112090">
        <time>2017-06-24T14:20:27Z</time>
      </trkpt>
      <trkpt lat="47.602690" lon="1.112560">
        <time>2017-06-24T14:20:28Z</time>
      </trkpt>
      <trkpt lat="47.602840" lon="1.112970">
        <time>2017-06-24T14:20:29Z</time>
      </trkpt>
      <trkpt lat="47.603010" lon="1.113400">
        <time>2017-06-24T14:20:30Z</time>
      </trkpt>
      <trkpt lat="47.603190" lon="1.113860">
        <time>2017-06-24T14:20:31Z</time>
      </trkpt>
      <trkpt lat="47.603350" lon="1.114260">
        <time>2017-06-24T14:20:32Z</time>
      </trkpt>
      <trkpt lat="47.603520" lon="1.114680">
        <time>2017-06-24T14:20:33Z</time>
      </trkpt>
      <trkpt lat="47.603700" lon="1.115120">
        <time>2017-06-24T14:20:34Z</time>
      </trkpt>
      <trkpt lat="47.603870" lon="1.115550">
        <time>2017-06-24T14:20:35Z</time>
      </trkpt>
      <trkpt lat="47.604060" lon="1.116020">
        <time>2017-06-24T14:20:36Z</time>
      </trkpt>
      <trkpt lat="47.604220" lon="1.116430">
        <time>2017-06-24T14:20:37Z</time>
      </trkpt>
      <trkpt lat="47.604390" lon="1.116870">
        <time>2017-06-24T14:20:38Z</time>
      </trkpt>
      <trkpt lat="47.604570" lon="1.117340">
        <time>2017-06-24T14:20:39Z</time>
      </trkpt>
      <trkpt lat="47.604730" lon="1.117760">
        <time>2017-06-24T14:20:40Z</time>
      </trkpt>
      <trkpt lat="47.604890" lon="1.118200">
        <time>2017-06-24T14:20:41Z</time>
      </trkpt>
      <trkpt lat="47.605060" lon="1.118680">
        <time>2017-06-24T14:20:42Z</time>
      </trkpt>
      <trkpt lat="47.605220" lon="1.119100">
        <time>2017-06-24T14:20:43Z</time>
      </trkpt>
      <trkpt lat="47.605390" lon="1.119580">
        <time>2017-06-24T14:20:44Z</time>
      </trkpt>
      <trkpt lat="47.605540" lon="1.120010">
        <time>2017-06-24T14:20:45Z</time>
      </trkpt>
      <trkpt lat="47.605700" lon="1.120480">
        <time>2017-06-24T14:20:46Z</time>
      </trkpt>
      <trkpt lat="47.605870" lon="1.120970">
        <time>2017-06-24T14:20:47Z</time>
      </trkpt>
      <trkpt lat="47.606010" lon="1.121400">
        <time>2017-06-24T14:20:48Z</time>
      </trkpt>
      <trkpt lat="47.606180" lon="1.121860">
        <time>2017-06-24T14:20:49Z</time>
      </trkpt>
      <trkpt lat="47.606330" lon="1.122310">
        <time>2017-06-24T14:20:50Z</time>
      </trkpt>
      <trkpt lat="47.606480" lon="1.122750">
        <time>2017-06-24T14:20:51Z</time>
      </trkpt>
      <trkpt lat="47.606640" lon="1.123220">
        <time>2017-06-24T14:20:52Z</time>
      </trkpt>
      <trkpt lat="47.606790" lon="1.123640">
        <time>2017-06-24T14:20:53Z</time>
      </trkpt>
      <trkpt lat="47.606950" lon="1.124090">
        <time>2017-06-24T14:20:54Z</time>
      </trkpt>
      <trkpt lat="47.607110" lon="1.124570">
        <time>2017-06-24T14:20:55Z</time>
      </trkpt>
      <trkpt lat="47.607260" lon="1.125000">
        <time>2017-06-24T14:20:56Z</time>
      </trkpt>
      <trkpt lat="47.607410" lon="1.125460">
        <time>2017-06-24T14:20:57Z</time>
      </trkpt>
      <trkpt lat="47.607570" lon="1.125950">
        <time>2017-06-24T14:20:58Z</time>
      </trkpt>
      <trkpt lat="47.607710" lon="1.126380">
        <time>2017-06-24T14:20:59Z</time>
      </trkpt>
      <trkpt lat="47.607870" lon="1.126880">
        <time>2017-06-24T14:21:00Z</time>
      </trkpt>
      <trkpt lat="47.608010" lon="1.127320">
        <time>2017-06-24T14:21:01Z</time>
      </trkpt>
      <trkpt lat="47.608150" lon="1.127790">
        <time>2017-06-24T14:21:02Z</time>
      </trkpt>
      <trkpt lat="47.608300" lon="1.128290">
        <time>2017-06-24T14:21:03Z</time>
      </trkpt>
      <trkpt lat="47.608440" lon="1.128740">
        <time>2017-06-24T14:21:04Z</time>
      </trkpt>
      <trkpt lat="47.608580" lon="1.129210">
        <time>2017-06-24T14:21:05Z</time>
      </trkpt>
      <trkpt lat="47.608720" lon="1.129690">
        <time>2017-06-24T14:21:06Z</time>
      </trkpt>
      <trkpt lat="47.608850" lon="1.130150">
        <time>2017-06-24T14:21:07Z</time>
      </trkpt>
      <trkpt lat="47.609000" lon="1.130640">
        <time>2017-06-24T14:21:08Z</time>
      </trkpt>
      <trkpt lat="47.609120" lon="1.131070">
        <time>2017-06-24T14:21:09Z</time>
      </trkpt>
      <trkpt lat="47.609250" lon="1.131530">
        <time>2017-06-24T14:21:10Z</time>
      </trkpt>
      <trkpt lat="47.609390" lon="1.132010">
        <time>2017-06-24T14:21:11Z</time>
      </trkpt>
      <trkpt lat="47.609500" lon="1.132440">
        <time>2017-06-24T14:21:12Z</time>
      </trkpt>
      <trkpt lat="47.609630" lon="1.132910">
        <time>2017-06-24T14:21:13Z</time>
      </trkpt>
      <trkpt lat="47.609760" lon="1.133390">
        <time>2017-06-24T14:21:14Z</time>
      </trkpt>
      <trkpt lat="47.609880" lon="1.133820">
        <time>2017-06-24T14:21:15Z</time>
      </trkpt>
      <trkpt lat="47.610010" lon="1.134300">
        <time>2017-06-24T14:21:16Z</time>
      </trkpt>
      <trkpt lat="47.610120" lon="1.134730">
        <time>2017-06-24T14:21:17Z</time>
      </trkpt>
      <trkpt lat="47.610250" lon="1.135190">
        <time>2017-06-24T14:21:18Z</time>
      </trkpt>
      <trkpt lat="47.610370" lon="1.135670">
        <time>2017-06-24T14:21:19Z</time>
      </trkpt>
      <trkpt lat="47.610490" lon="1.136100">
        <time>2017-06-24T14:21:20Z</time>
      </trkpt>
      <trkpt lat="47.610610" lon="1.136560">
        <time>2017-06-24T14:21:21Z</time>
      </trkpt>
      <trkpt lat="47.610730" lon="1.137030">
        <time>2017-06-24T14:21:22Z</time>
      </trkpt>
      <trkpt lat="47.610850" lon="1.137490">
        <time>2017-06-24T14:21:23Z</time>
      </trkpt>
      <trkpt lat="47.610970" lon="1.137990">
        <time>2017-06-24T14:21:24Z</time>
      </trkpt>
      <trkpt lat="47.611080" lon="1.138430">
        <time>2017-06-24T14:21:25Z</time>
      </trkpt>
      <trkpt lat="47.611200" lon="1.138890">
        <time>2017-06-24T14:21:26Z</time>
      </trkpt>
      <trkpt lat="47.611330" lon="1.139390">
        <time>2017-06-24T14:21:27Z</time>
      </trkpt>
      <trkpt lat="47.611430" lon="1.139830">
        <time>2017-06-24T14:21:28Z</time>
      </trkpt>
      <trkpt lat="47.611540" lon="1.140290">
        <time>2017-06-24T14:21:29Z</time>
      </trkpt>
      <trkpt lat="47.611660" lon="1.140790">
        <time>2017-06-24T14:21:30Z</time>
      </trkpt>
      <trkpt lat="47.611770" lon="1.141230">
        <time>2017-06-24T14:21:31Z</time>
      </trkpt>
      <trkpt lat="47.611880" lon="1.141730">
        <time>2017-06-24T14:21:32Z</time>
      </trkpt>
      <trkpt lat="47.611990" lon="1.142170">
        <time>2017-06-24T14:21:33Z</time>
      </trkpt>
      <trkpt lat="47.612100" lon="1.142640">
        <time>2017-06-24T14:21:34Z</time>
      </trkpt>
      <trkpt lat="47.612210" lon="1.143140">
        <time>2017-06-24T14:21:35Z</time>
      </trkpt>
      <trkpt lat="47.612310" lon="1.143590">
        <time>2017-06-24T14:21:36Z</time>
      </trkpt>
      <trkpt lat="47.612420" lon="1.144060">
        <time>2017-06-24T14:21:37Z</time>
      </trkpt>
      <trkpt lat="47.612530" lon="1.144540">
        <time>2017-06-24T14:21:38Z</time>
      </trkpt>
      <trkpt lat="47.612630" lon="1.145010">
        <time>2017-06-24T14:21:39Z</time>
      </trkpt>
      <trkpt lat="47.612740" lon="1.145520">
        <time>2017-06-24T14:21:40Z</time>
      </trkpt>
      <trkpt lat="47.612840" lon="1.145970">
        <time>2017-06-24T14:21:41Z</time>
      </trkpt>
      <trkpt lat="47.612940" lon="1.146450">
        <time>2017-06-24T14:21:42Z</time>
      </trkpt>
      <trkpt lat="47.613050" lon="1.146950">
        <time>2017-06-24T14:21:43Z</time>
      </trkpt>
      <trkpt lat="47.613140" lon="1.147410">
        <time>2017-06-24T14:21:44Z</time>
      </trkpt>
      <trkpt lat="47.613240" lon="1.147890">
        <time>2017-06-24T14:21:45Z</time>
      </trkpt>
      <trkpt lat="47.613340" lon="1.148410">
        <time>2017-06-24T14:21:46Z</time>
      </trkpt>
      <trkpt lat="47.613430" lon="1.148870">
        <time>2017-06-24T14:21:47Z</time>
      </trkpt>
      <trkpt lat="47.613540" lon="1.149400">
        <time>2017-06-24T14:21:48Z</time>
      </trkpt>
      <trkpt lat="47.613630" lon="1.149850">
        <time>2017-06-24T14:21:49Z</time>
      </trkpt>
      <trkpt lat="47.613730" lon="1.150350">
        <time>2017-06-24T14:21:50Z</time>
      </trkpt>
      <trkpt lat="47.613820" lon="1.150860">
        <time>2017-06-24T14:21:51Z</time>
      </trkpt>
      <trkpt lat="47.613910" lon="1.151320">
        <time>2017-06-24T14:21:52Z</time>
      </trkpt>
      <trkpt lat="47.614000" lon="1.151810">
        <time>2017-06-24T14:21:53Z</time>
      </trkpt>
      <trkpt lat="47.614080" lon="1.152290">
        <time>2017-06-24T14:21:54Z</time>
      </trkpt>
      <trkpt lat="47.614170" lon="1.152780">
        <time>2017-06-24T14:21:55Z</time>
      </trkpt>
      <trkpt lat="47.614260" lon="1.153290">
        <time>2017-06-24T14:21:56Z</time>
      </trkpt>
      <trkpt lat="47.614340" lon="1.153740">
        <time>2017-06-24T14:21:57Z</time>
      </trkpt>
      <trkpt lat="47.614430" lon="1.154230">
        <time>2017-06-24T14:21:58Z</time>
      </trkpt>
      <trkpt lat="47.614510" lon="1.154740">
        <time>2017-06-24T14:21:59Z</time>
      </trkpt>
      <trkpt lat="47.614590" lon="1.155200">
        <time>2017-06-24T14:22:00Z</time>
      </trkpt>
      <trkpt lat="47.614680" lon="1.155680">
        <time>2017-06-24T14:22:01Z</time>
      </trkpt>
      <trkpt lat="47.614760" lon="1.156200">
        <time>2017-06-24T14:22:02Z</time>
      </trkpt>
      <trkpt lat="47.614840" lon="1.156660">
        <time>2017-06-24T14:22:03Z</time>
      </trkpt>
      <trkpt lat="47.614920" lon="1.157180">
        <time>2017-06-24T14:22:04Z</time>
      </trkpt>
      <trkpt lat="47.614990" lon="1.157640">
        <time>2017-06-24T14:22:05Z</time>
      </trkpt>
      <trkpt lat="47.615070" lon="1.158130">
        <time>2017-06-24T14:22:06Z</time>
      </trkpt>
      <trkpt lat="47.615140" lon="1.158660">
        <time>2017-06-24T14:22:07Z</time>
      </trkpt>
      <trkpt lat="47.615210" lon="1.159130">
        <time>2017-06-24T14:22:08Z</time>
      </trkpt>
      <trkpt lat="47.615290" lon="1.159620">
        <time>2017-06-24T14:22:09Z</time>
      </trkpt>
      <trkpt lat="47.615360" lon="1.160120">
        <time>2017-06-24T14:22:10Z</time>
      </trkpt>
      <trkpt lat="47.615430" lon="1.160610">
        <time>2017-06-24T14:22:11Z</time>
      </trkpt>
      <trkpt lat="47.615500" lon="1.161130">
        <time>2017-06-24T14:22:12Z</time>
      </trkpt>
      <trkpt lat="47.615570" lon="1.161590">
        <time>2017-06-24T14:22:13Z</time>
      </trkpt>
      <trkpt lat="47.615630" lon="1.162070">
        <time>2017-06-24T14:22:14Z</time>
      </trkpt>
      <trkpt lat="47.615700" lon="1.162590">
        <time>2017-06-24T14:22:15Z</time>
      </trkpt>
      <trkpt lat="47.615750" lon="1.163040">
        <time>2017-06-24T14:22:16Z</time>
      </trkpt>
      <trkpt lat="47.615820" lon="1.163520">
        <time>2017-06-24T14:22:17Z</time>
      </trkpt>
      <trkpt lat="47.615880" lon="1.164030">
        <time>2017-06-24T14:22:18Z</time>
      </trkpt>
      <trkpt lat="47.615940" lon="1.164470">
        <time>2017-06-24T14:22:19Z</time>
      </trkpt>
      <trkpt lat="47.616000" lon="1.164980">
        <time>2017-06-24T14:22:20Z</time>
      </trkpt>
      <trkpt lat="47.616040" lon="1.165430">
        <time>2017-06-24T14:22:21Z</time>
      </trkpt>
      <trkpt lat="47.616100" lon="1.165900">
        <time>2017-06-24T14:22:22Z</time>
      </trkpt>
      <trkpt lat="47.616150" lon="1.166410">
        <time>2017-06-24T14:22:23Z</time>
      </trkpt>
      <trkpt lat="47.616200" lon="1.166850">
        <time>2017-06-24T14:22:24Z</time>
      </trkpt>
      <trkpt lat="47.616250" lon="1.167330">
        <time>2017-06-24T14:22:25Z</time>
      </trkpt>
      <trkpt lat="47.616300" lon="1.167800">
        <time>2017-06-24T14:22:26Z</time>
      </trkpt>
      <trkpt lat="47.616350" lon="1.168280">
        <time>2017-06-24T14:22:27Z</time>
      </trkpt>
      <trkpt lat="47.616390" lon="1.168790">
        <time>2017-06-24T14:22:28Z</time>
      </trkpt>
      <trkpt lat="47.616430" lon="1.169240">
        <time>2017-06-24T14:22:29Z</time>
      </trkpt>
      <trkpt lat="47.616470" lon="1.169720">
        <time>2017-06-24T14:22:30Z</time>
      </trkpt>
      <trkpt lat="47.616510" lon="1.170240">
        <time>2017-06-24T14:22:31Z</time>
      </trkpt>
      <trkpt lat="47.616550" lon="1.170690">
        <time>2017-06-24T14:22:32Z</time>
      </trkpt>
      <trkpt lat="47.616590" lon="1.171180">
        <time>2017-06-24T14:22:33Z</time>
      </trkpt>
      <trkpt lat="47.616630" lon="1.171690">
        <time>2017-06-24T14:22:34Z</time>
      </trkpt>
      <trkpt lat="47.616670" lon="1.172150">
        <time>2017-06-24T14:22:35Z</time>
      </trkpt>
      <trkpt lat="47.616700" lon="1.172660">
        <time>2017-06-24T14:22:36Z</time>
      </trkpt>
      <trkpt lat="47.616730" lon="1.173110">
        <time>2017-06-24T14:22:37Z</time>
      </trkpt>
      <trkpt lat="47.616760" lon="1.173590">
        <time>2017-06-24T14:22:38Z</time>
      </trkpt>
      <trkpt lat="47.616800" lon="1.174100">
        <time>2017-06-24T14:22:39Z</time>
      </trkpt>
      <trkpt lat="47.616820" lon="1.174550">
        <time>2017-06-24T14:22:40Z</time>
      </trkpt>
      <trkpt lat="47.616840" lon="1.175020">
        <time>2017-06-24T14:22:41Z</time>
      </trkpt>
      <trkpt lat="47.616860" lon="1.175500">
        <time>2017-06-24T14:22:42Z</time>
      </trkpt>
      <trkpt lat="47.616870" lon="1.175990">
        <time>2017-06-24T14:22:43Z</time>
      </trkpt>
      <trkpt lat="47.616870" lon="1.176510">
        <time>2017-06-24T14:22:44Z</time>
      </trkpt>
      <trkpt lat="47.616890" lon="1.176960">
        <time>2017-06-24T14:22:45Z</time>
      </trkpt>
      <trkpt lat="47.616900" lon="1.177440">
        <time>2017-06-24T14:22:46Z</time>
      </trkpt>
      <trkpt lat="47.616910" lon="1.177950">
        <time>2017-06-24T14:22:47Z</time>
      </trkpt>
      <trkpt lat="47.616930" lon="1.178400">
        <time>2017-06-24T14:22:48Z</time>
      </trkpt>
      <trkpt lat="47.616940" lon="1.178870">
        <time>2017-06-24T14:22:49Z</time>
      </trkpt>
      <trkpt lat="47.616950" lon="1.179360">
        <time>2017-06-24T14:22:50Z</time>
      </trkpt>
      <trkpt lat="47.616960" lon="1.179800">
        <time>2017-06-24T14:22:51Z</time>
      </trkpt>
      <trkpt lat="47.616960" lon="1.180290">
        <time>2017-06-24T14:22:52Z</time>
      </trkpt>
      <trkpt lat="47.616970" lon="1.180730">
        <time>2017-06-24T14:22:53Z</time>
      </trkpt>
      <trkpt lat="47.616970" lon="1.181190">
        <time>2017-06-24T14:22:54Z</time>
      </trkpt>
      <trkpt lat="47.616970" lon="1.181700">
        <time>2017-06-24T14:22:55Z</time>
      </trkpt>
      <trkpt lat="47.616970" lon="1.182150">
        <time>2017-06-24T14:22:56Z</time>
      </trkpt>
      <trkpt lat="47.616970" lon="1.182630">
        <time>2017-06-24T14:22:57Z</time>
      </trkpt>
      <trkpt lat="47.616960" lon="1.183120">
        <time>2017-06-24T14:22:58Z</time>
      </trkpt>
      <trkpt lat="47.616960" lon="1.183610">
        <time>2017-06-24T14:22:59Z</time>
      </trkpt>
      <trkpt lat="47.616950" lon="1.184130">
        <time>2017-06-24T14:23:00Z</time>
      </trkpt>
      <trkpt lat="47.616940" lon="1.184570">
        <time>2017-06-24T14:23:01Z</time>
      </trkpt>
      <trkpt lat="47.616920" lon="1.185060">
        <time>2017-06-24T14:23:02Z</time>
      </trkpt>
      <trkpt lat="47.616900" lon="1.185560">
        <time>2017-06-24T14:23:03Z</time>
      </trkpt>
      <trkpt lat="47.616880" lon="1.186000">
        <time>2017-06-24T14:23:04Z</time>
      </trkpt>
      <trkpt lat="47.616860" lon="1.186470">
        <time>2017-06-24T14:23:05Z</time>
      </trkpt>
      <trkpt lat="47.616820" lon="1.186970">
        <time>2017-06-24T14:23:06Z</time>
      </trkpt>
      <trkpt lat="47.616790" lon="1.187410">
        <time>2017-06-24T14:23:07Z</time>
      </trkpt>
      <trkpt lat="47.616760" lon="1.187890">
        <time>2017-06-24T14:23:08Z</time>
      </trkpt>
      <trkpt lat="47.616740" lon="1.188330">
        <time>2017-06-24T14:23:09Z</time>
      </trkpt>
      <trkpt lat="47.616710" lon="1.188790">
        <time>2017-06-24T14:23:10Z</time>
      </trkpt>
      <trkpt lat="47.616690" lon="1.189280">
        <time>2017-06-24T14:23:11Z</time>
      </trkpt>
      <trkpt lat="47.616660" lon="1.189710">
        <time>2017-06-24T14:23:12Z</time>
      </trkpt>
      <trkpt lat="47.616630" lon="1.190170">
        <time>2017-06-24T14:23:13Z</time>
      </trkpt>
      <trkpt lat="47.616600" lon="1.190630">
        <time>2017-06-24T14:23:14Z</time>
      </trkpt>
      <trkpt lat="47.616570" lon="1.191090">
        <time>2017-06-24T14:23:15Z</time>
      </trkpt>
      <trkpt lat="47.616540" lon="1.191580">
        <time>2017-06-24T14:23:16Z</time>
      </trkpt>
      <trkpt lat="47.616510" lon="1.192010">
        <time>2017-06-24T14:23:17Z</time>
      </trkpt>
      <trkpt lat="47.616480" lon="1.192470">
        <time>2017-06-24T14:23:18Z</time>
      </trkpt>
      <trkpt lat="47.616450" lon="1.192980">
        <time>2017-06-24T14:23:19Z</time>
      </trkpt>
      <trkpt lat="47.616420" lon="1.193420">
        <time>2017-06-24T14:23:20Z</time>
      </trkpt>
      <trkpt lat="47.616390" lon="1.193890">
        <time>2017-06-24T14:23:21Z</time>
      </trkpt>
      <trkpt lat="47.616360" lon="1.194390">
        <time>2017-06-24T14:23:22Z</time>
      </trkpt>
      <trkpt lat="47.616330" lon="1.194830">
        <time>2017-06-24T14:23:23Z</time>
      </trkpt>
      <trkpt lat="47.616310" lon="1.195320">
        <time>2017-06-24T14:23:24Z</time>
      </trkpt>
      <trkpt lat="47.616290" lon="1.195760">
        <time>2017-06-24T14:23:25Z</time>
      </trkpt>
      <trkpt lat="47.616260" lon="1.196220">
        <time>2017-06-24T14:23:26Z</time>
      </trkpt>
      <trkpt lat="47.616240" lon="1.196710">
        <time>2017-06-24T14:23:27Z</time>
      </trkpt>
      <trkpt lat="47.616220" lon="1.197140">
        <time>2017-06-24T14:23:28Z</time>
      </trkpt>
      <trkpt lat="47.616200" lon="1.197600">
        <time>2017-06-24T14:23:29Z</time>
      </trkpt>
      <trkpt lat="47.616190" lon="1.198050">
        <time>2017-06-24T14:23:30Z</time>
      </trkpt>
      <trkpt lat="47.616170" lon="1.198500">
        <time>2017-06-24T14:23:31Z</time>
      </trkpt>
      <trkpt lat="47.616160" lon="1.198980">
        <time>2017-06-24T14:23:32Z</time>
      </trkpt>
      <trkpt lat="47.616150" lon="1.199400">
        <time>2017-06-24T14:23:33Z</time>
      </trkpt>
      <trkpt lat="47.616140" lon="1.199850">
        <time>2017-06-24T14:23:34Z</time>
      </trkpt>
      <trkpt lat="47.616130" lon="1.200320">
        <time>2017-06-24T14:23:35Z</time>
      </trkpt>
      <trkpt lat="47.616130" lon="1.200740">
        <time>2017-06-24T14:23:36Z</time>
      </trkpt>
      <trkpt lat="47.616120" lon="1.201180">
        <time>2017-06-24T14:23:37Z</time>
      </trkpt>
      <trkpt lat="47.616120" lon="1.201650">
        <time>2017-06-24T14:23:38Z</time>
      </trkpt>
      <trkpt lat="47.616120" lon="1.202060">
        <time>2017-06-24T14:23:39Z</time>
      </trkpt>
      <trkpt lat="47.616130" lon="1.202540">
        <time>2017-06-24T14:23:40Z</time>
      </trkpt>
      <trkpt lat="47.616130" lon="1.202960">
        <time>2017-06-24T14:23:41Z</time>
      </trkpt>
      <trkpt lat="47.616150" lon="1.203400">
        <time>2017-06-24T14:23:42Z</time>
      </trkpt>
      <trkpt lat="47.616160" lon="1.203880">
        <time>2017-06-24T14:23:43Z</time>
      </trkpt>
      <trkpt lat="47.616170" lon="1.204300">
        <time>2017-06-24T14:23:44Z</time>
      </trkpt>
      <trkpt lat="47.616190" lon="1.204750">
        <time>2017-06-24T14:23:45Z</time>
      </trkpt>
      <trkpt lat="47.616200" lon="1.205210">
        <time>2017-06-24T14:23:46Z</time>
      </trkpt>
      <trkpt lat="47.616220" lon="1.205680">
        <time>2017-06-24T14:23:47Z</time>
      </trkpt>
      <trkpt lat="47.616240" lon="1.206180">
        <time>2017-06-24T14:23:48Z</time>
      </trkpt>
      <trkpt lat="47.616260" lon="1.206610">
        <time>2017-06-24T14:23:49Z</time>
      </trkpt>
      <trkpt lat="47.616290" lon="1.207080">
        <time>2017-06-24T14:23:50Z</time>
      </trkpt>
      <trkpt lat="47.616320" lon="1.207570">
        <time>2017-06-24T14:23:51Z</time>
      </trkpt>
      <trkpt lat="47.616350" lon="1.208000">
        <time>2017-06-24T14:23:52Z</time>
      </trkpt>
      <trkpt lat="47.616380" lon="1.208470">
        <time>2017-06-24T14:23:53Z</time>
      </trkpt>
      <trkpt lat="47.616420" lon="1.208960">
        <time>2017-06-24T14:23:54Z</time>
      </trkpt>
      <trkpt lat="47.616450" lon="1.209390">
        <time>2017-06-24T14:23:55Z</time>
      </trkpt>
      <trkpt lat="47.616490" lon="1.209880">
        <time>2017-06-24T14:23:56Z</time>
      </trkpt>
      <trkpt lat="47.616530" lon="1.210310">
        <time>2017-06-24T14:23:57Z</time>
      </trkpt>
      <trkpt lat="47.616570" lon="1.210770">
        <time>2017-06-24T14:23:58Z</time>
      </trkpt>
      <trkpt lat="47.616620" lon="1.211250">
        <time>2017-06-24T14:23:59Z</time>
      </trkpt>
      <trkpt lat="47.616670" lon="1.211660">
        <time>2017-06-24T14:24:00Z</time>
      </trkpt>
      <trkpt lat="47.616710" lon="1.212090">
        <time>2017-06-24T14:24:01Z</time>
      </trkpt>
      <trkpt lat="47.616760" lon="1.212510">
        <time>2017-06-24T14:24:02Z</time>
      </trkpt>
      <trkpt lat="47.616810" lon="1.212920">
        <time>2017-06-24T14:24:03Z</time>
      </trkpt>
      <trkpt lat="47.616860" lon="1.213350">
        <time>2017-06-24T14:24:04Z</time>
      </trkpt>
      <trkpt lat="47.616900" lon="1.213720">
        <time>2017-06-24T14:24:05Z</time>
      </trkpt>
      <trkpt lat="47.616960" lon="1.214110">
        <time>2017-06-24T14:24:06Z</time>
      </trkpt>
      <trkpt lat="47.617010" lon="1.214530">
        <time>2017-06-24T14:24:07Z</time>
      </trkpt>
      <trkpt lat="47.617060" lon="1.214890">
        <time>2017-06-24T14:24:08Z</time>
      </trkpt>
      <trkpt lat="47.617130" lon="1.215310">
        <time>2017-06-24T14:24:09Z</time>
      </trkpt>
      <trkpt lat="47.617210" lon="1.215770">
        <time>2017-06-24T14:24:10Z</time>
      </trkpt>
      <trkpt lat="47.617280" lon="1.216190">
        <time>2017-06-24T14:24:11Z</time>
      </trkpt>
      <trkpt lat="47.617360" lon="1.216680">
        <time>2017-06-24T14:24:12Z</time>
      </trkpt>
      <trkpt lat="47.617430" lon="1.217120">
        <time>2017-06-24T14:24:13Z</time>
      </trkpt>
      <trkpt lat="47.617510" lon="1.217600">
        <time>2017-06-24T14:24:14Z</time>
      </trkpt>
      <trkpt lat="47.617590" lon="1.218110">
        <time>2017-06-24T14:24:15Z</time>
      </trkpt>
      <trkpt lat="47.617660" lon="1.218570">
        <time>2017-06-24T14:24:16Z</time>
      </trkpt>
      <trkpt lat="47.617750" lon="1.219060">
        <time>2017-06-24T14:24:17Z</time>
      </trkpt>
      <trkpt lat="47.617840" lon="1.219540">
        <time>2017-06-24T14:24:18Z</time>
      </trkpt>
      <trkpt lat="47.617940" lon="1.220030">
        <time>2017-06-24T14:24:19Z</time>
      </trkpt>
      <trkpt lat="47.618030" lon="1.220550">
        <time>2017-06-24T14:24:20Z</time>
      </trkpt>
      <trkpt lat="47.618120" lon="1.221000">
        <time>2017-06-24T14:24:21Z</time>
      </trkpt>
      <trkpt lat="47.618210" lon="1.221490">
        <time>2017-06-24T14:24:22Z</time>
      </trkpt>
      <trkpt lat="47.618300" lon="1.222010">
        <time>2017-06-24T14:24:23Z</time>
      </trkpt>
      <trkpt lat="47.618370" lon="1.222460">
        <time>2017-06-24T14:24:24Z</time>
      </trkpt>
      <trkpt lat="47.618450" lon="1.222930">
        <time>2017-06-24T14:24:25Z</time>
      </trkpt>
      <trkpt lat="47.618530" lon="1.223440">
        <time>2017-06-24T14:24:26Z</time>
      </trkpt>
      <trkpt lat="47.618600" lon="1.223890">
        <time>2017-06-24T14:24:27Z</time>
      </trkpt>
      <trkpt lat="47.618670" lon="1.224400">
        <time>2017-06-24T14:24:28Z</time>
      </trkpt>
      <trkpt lat="47.618730" lon="1.224850">
        <time>2017-06-24T14:24:29Z</time>
      </trkpt>
      <trkpt lat="47.618790" lon="1.225320">
        <time>2017-06-24T14:24:30Z</time>
      </trkpt>
      <trkpt lat="47.618860" lon="1.225820">
        <time>2017-06-24T14:24:31Z</time>
      </trkpt>
      <trkpt lat="47.618910" lon="1.226270">
        <time>2017-06-24T14:24:32Z</time>
      </trkpt>
      <trkpt lat="47.618960" lon="1.226750">
        <time>2017-06-24T14:24:33Z</time>
      </trkpt>
      <trkpt lat="47.619020" lon="1.227220">
        <time>2017-06-24T14:24:34Z</time>
      </trkpt>
      <trkpt lat="47.619060" lon="1.227690">
        <time>2017-06-24T14:24:35Z</time>
      </trkpt>
      <trkpt lat="47.619120" lon="1.228190">
        <time>2017-06-24T14:24:36Z</time>
      </trkpt>
      <trkpt lat="47.619150" lon="1.228610">
        <time>2017-06-24T14:24:37Z</time>
      </trkpt>
      <trkpt lat="47.619190" lon="1.229080">
        <time>2017-06-24T14:24:38Z</time>
      </trkpt>
      <trkpt lat="47.619230" lon="1.229570">
        <time>2017-06-24T14:24:39Z</time>
      </trkpt>
      <trkpt lat="47.619250" lon="1.230010">
        <time>2017-06-24T14:24:40Z</time>
      </trkpt>
      <trkpt lat="47.619290" lon="1.230470">
        <time>2017-06-24T14:24:41Z</time>
      </trkpt>
      <trkpt lat="47.619320" lon="1.230970">
        <time>2017-06-24T14:24:42Z</time>
      </trkpt>
      <trkpt lat="47.619350" lon="1.231410">
        <time>2017-06-24T14:24:43Z</time>
      </trkpt>
      <trkpt lat="47.619380" lon="1.231910">
        <time>2017-06-24T14:24:44Z</time>
      </trkpt>
      <trkpt lat="47.619410" lon="1.232350">
        <time>2017-06-24T14:24:45Z</time>
      </trkpt>
      <trkpt lat="47.619440" lon="1.232820">
        <time>2017-06-24T14:24:46Z</time>
      </trkpt>
      <trkpt lat="47.619460" lon="1.233320">
        <time>2017-06-24T14:24:47Z</time>
      </trkpt>
      <trkpt lat="47.619480" lon="1.233760">
        <time>2017-06-24T14:24:48Z</time>
      </trkpt>
      <trkpt lat="47.619500" lon="1.234240">
        <time>2017-06-24T14:24:49Z</time>
      </trkpt>
      <trkpt lat="47.619520" lon="1.234700">
        <time>2017-06-24T14:24:50Z</time>
      </trkpt>
      <trkpt lat="47.619530" lon="1.235180">
        <time>2017-06-24T14:24:51Z</time>
      </trkpt>
      <trkpt lat="47.619550" lon="1.235690">
        <time>2017-06-24T14:24:52Z</time>
      </trkpt>
      <trkpt lat="47.619550" lon="1.236130">
        <time>2017-06-24T14:24:53Z</time>
      </trkpt>
      <trkpt lat="47.619560" lon="1.236590">
        <time>2017-06-24T14:24:54Z</time>
      </trkpt>
      <trkpt lat="47.619570" lon="1.237080">
        <time>2017-06-24T14:24:55Z</time>
      </trkpt>
      <trkpt lat="47.619570" lon="1.237520">
        <time>2017-06-24T14:24:56Z</time>
      </trkpt>
      <trkpt lat="47.619570" lon="1.237990">
        <time>2017-06-24T14:24:57Z</time>
      </trkpt>
      <trkpt lat="47.619570" lon="1.238490">
        <time>2017-06-24T14:24:58Z</time>
      </trkpt>
      <trkpt lat="47.619570" lon="1.238930">
        <time>2017-06-24T14:24:59Z</time>
      </trkpt>
      <trkpt lat="47.619560" lon="1.239420">
        <time>2017-06-24T14:25:00Z</time>
      </trkpt>
      <trkpt lat="47.619550" lon="1.239860">
        <time>2017-06-24T14:25:01Z</time>
      </trkpt>
      <trkpt lat="47.619540" lon="1.240330">
        <time>2017-06-24T14:25:02Z</time>
      </trkpt>
      <trkpt lat="47.619520" lon="1.240840">
        <time>2017-06-24T14:25:03Z</time>
      </trkpt>
      <trkpt lat="47.619510" lon="1.241280">
        <time>2017-06-24T14:25:04Z</time>
      </trkpt>
      <trkpt lat="47.619500" lon="1.241750">
        <time>2017-06-24T14:25:05Z</time>
      </trkpt>
      <trkpt lat="47.619480" lon="1.242220">
        <time>2017-06-24T14:25:06Z</time>
      </trkpt>
      <trkpt lat="47.619460" lon="1.242690">
        <time>2017-06-24T14:25:07Z</time>
      </trkpt>
      <trkpt lat="47.619440" lon="1.243190">
        <time>2017-06-24T14:25:08Z</time>
      </trkpt>
      <trkpt lat="47.619420" lon="1.243640">
        <time>2017-06-24T14:25:09Z</time>
      </trkpt>
      <trkpt lat="47.619390" lon="1.244110">
        <time>2017-06-24T14:25:10Z</time>
      </trkpt>
      <trkpt lat="47.619370" lon="1.244600">
        <time>2017-06-24T14:25:11Z</time>
      </trkpt>
      <trkpt lat="47.619350" lon="1.245020">
        <time>2017-06-24T14:25:12Z</time>
      </trkpt>
      <trkpt lat="47.619320" lon="1.245450">
        <time>2017-06-24T14:25:13Z</time>
      </trkpt>
      <trkpt lat="47.619290" lon="1.245910">
        <time>2017-06-24T14:25:14Z</time>
      </trkpt>
      <trkpt lat="47.619260" lon="1.246300">
        <time>2017-06-24T14:25:15Z</time>
      </trkpt>
      <trkpt lat="47.619230" lon="1.246740">
        <time>2017-06-24T14:25:16Z</time>
      </trkpt>
      <trkpt lat="47.619210" lon="1.247140">
        <time>2017-06-24T14:25:17Z</time>
      </trkpt>
      <trkpt lat="47.619190" lon="1.247560">
        <time>2017-06-24T14:25:18Z</time>
      </trkpt>
      <trkpt lat="47.619170" lon="1.248030">
        <time>2017-06-24T14:25:19Z</time>
      </trkpt>
      <trkpt lat="47.619150" lon="1.248450">
        <time>2017-06-24T14:25:20Z</time>
      </trkpt>
      <trkpt lat="47.619130" lon="1.248890">
        <time>2017-06-24T14:25:21Z</time>
      </trkpt>
      <trkpt lat="47.619110" lon="1.249330">
        <time>2017-06-24T14:25:22Z</time>
      </trkpt>
      <trkpt lat="47.619090" lon="1.249770">
        <time>2017-06-24T14:25:23Z</time>
      </trkpt>
      <trkpt lat="47.619060" lon="1.250250">
        <time>2017-06-24T14:25:24Z</time>
      </trkpt>
      <trkpt lat="47.619020" lon="1.250680">
        <time>2017-06-24T14:25:25Z</time>
      </trkpt>
      <trkpt lat="47.618990" lon="1.251130">
        <time>2017-06-24T14:25:26Z</time>
      </trkpt>
      <trkpt lat="47.618940" lon="1.251620">
        <time>2017-06-24T14:25:27Z</time>
      </trkpt>
      <trkpt lat="47.618910" lon="1.252050">
        <time>2017-06-24T14:25:28Z</time>
      </trkpt>
      <trkpt lat="47.618860" lon="1.252520">
        <time>2017-06-24T14:25:29Z</time>
      </trkpt>
      <trkpt lat="47.618820" lon="1.253020">
        <time>2017-06-24T14:25:30Z</time>
      </trkpt>
      <trkpt lat="47.618790" lon="1.253460">
        <time>2017-06-24T14:25:31Z</time>
      </trkpt>
      <trkpt lat="47.618750" lon="1.253960">
        <time>2017-06-24T14:25:32Z</time>
      </trkpt>
      <trkpt lat="47.618710" lon="1.254410">
        <time>2017-06-24T14:25:33Z</time>
      </trkpt>
      <trkpt lat="47.618680" lon="1.254880">
        <time>2017-06-24T14:25:34Z</time>
      </trkpt>
      <trkpt lat="47.618640" lon="1.255390">
        <time>2017-06-24T14:25:35Z</time>
      </trkpt>
      <trkpt lat="47.618610" lon="1.255830">
        <time>2017-06-24T14:25:36Z</time>
      </trkpt>
      <trkpt lat="47.618580" lon="1.256310">
        <time>2017-06-24T14:25:37Z</time>
      </trkpt>
      <trkpt lat="47.618550" lon="1.256780">
        <time>2017-06-24T14:25:38Z</time>
      </trkpt>
      <trkpt lat="47.618510" lon="1.257250">
        <time>2017-06-24T14:25:39Z</time>
      </trkpt>
      <trkpt lat="47.618470" lon="1.257760">
        <time>2017-06-24T14:25:40Z</time>
      </trkpt>
      <trkpt lat="47.618430" lon="1.258200">
        <time>2017-06-24T14:25:41Z</time>
      </trkpt>
      <trkpt lat="47.618400" lon="1.258670">
        <time>2017-06-24T14:25:42Z</time>
      </trkpt>
      <trkpt lat="47.618360" lon="1.259160">
        <time>2017-06-24T14:25:43Z</time>
      </trkpt>
      <trkpt lat="47.618330" lon="1.259610">
        <time>2017-06-24T14:25:44Z</time>
      </trkpt>
      <trkpt lat="47.618290" lon="1.260080">
        <time>2017-06-24T14:25:45Z</time>
      </trkpt>
      <trkpt lat="47.618260" lon="1.260590">
        <time>2017-06-24T14:25:46Z</time>
      </trkpt>
      <trkpt lat="47.618220" lon="1.261030">
        <time>2017-06-24T14:25:47Z</time>
      </trkpt>
      <trkpt lat="47.618190" lon="1.261530">
        <time>2017-06-24T14:25:48Z</time>
      </trkpt>
      <trkpt lat="47.618160" lon="1.261970">
        <time>2017-06-24T14:25:49Z</time>
      </trkpt>
      <trkpt lat="47.618130" lon="1.262440">
        <time>2017-06-24T14:25:50Z</time>
      </trkpt>
      <trkpt lat="47.618090" lon="1.262940">
        <time>2017-06-24T14:25:51Z</time>
      </trkpt>
      <trkpt lat="47.618060" lon="1.263380">
        <time>2017-06-24T14:25:52Z</time>
      </trkpt>
      <trkpt lat="47.618020" lon="1.263840">
        <time>2017-06-24T14:25:53Z</time>
      </trkpt>
      <trkpt lat="47.617980" lon="1.264310">
        <time>2017-06-24T14:25:54Z</time>
      </trkpt>
      <trkpt lat="47.617950" lon="1.264780">
        <time>2017-06-24T14:25:55Z</time>
      </trkpt>
      <trkpt lat="47.617910" lon="1.265280">
        <time>2017-06-24T14:25:56Z</time>
      </trkpt>
      <trkpt lat="47.617880" lon="1.265720">
        <time>2017-06-24T14:25:57Z</time>
      </trkpt>
      <trkpt lat="47.617850" lon="1.266200">
        <time>2017-06-24T14:25:58Z</time>
      </trkpt>
      <trkpt lat="47.617810" lon="1.266710">
        <time>2017-06-24T14:25:59Z</time>
      </trkpt>
      <trkpt lat="47.617780" lon="1.267150">
        <time>2017-06-24T14:26:00Z</time>
      </trkpt>
      <trkpt lat="47.617740" lon="1.267630">
        <time>2017-06-24T14:26:01Z</time>
      </trkpt>
      <trkpt lat="47.617700" lon="1.268130">
        <time>2017-06-24T14:26:02Z</time>
      </trkpt>
      <trkpt lat="47.617670" lon="1.268570">
        <time>2017-06-24T14:26:03Z</time>
      </trkpt>
      <trkpt lat="47.617630" lon="1.269070">
        <time>2017-06-24T14:26:04Z</time>
      </trkpt>
      <trkpt lat="47.617580" lon="1.269510">
        <time>2017-06-24T14:26:05Z</time>
      </trkpt>
      <trkpt lat="47.617550" lon="1.269990">
        <time>2017-06-24T14:26:06Z</time>
      </trkpt>
      <trkpt lat="47.617520" lon="1.270490">
        <time>2017-06-24T14:26:07Z</time>
      </trkpt>
      <trkpt lat="47.617490" lon="1.270940">
        <time>2017-06-24T14:26:08Z</time>
      </trkpt>
      <trkpt lat="47.617450" lon="1.271410">
        <time>2017-06-24T14:26:09Z</time>
      </trkpt>
      <trkpt lat="47.617420" lon="1.271890">
        <time>2017-06-24T14:26:10Z</time>
      </trkpt>
      <trkpt lat="47.617390" lon="1.272360">
        <time>2017-06-24T14:26:11Z</time>
      </trkpt>
      <trkpt lat="47.617360" lon="1.272860">
        <time>2017-06-24T14:26:12Z</time>
      </trkpt>
      <trkpt lat="47.617330" lon="1.273310">
        <time>2017-06-24T14:26:13Z</time>
      </trkpt>
      <trkpt lat="47.617290" lon="1.273770">
        <time>2017-06-24T14:26:14Z</time>
      </trkpt>
      <trkpt lat="47.617260" lon="1.274270">
        <time>2017-06-24T14:26:15Z</time>
      </trkpt>
      <trkpt lat="47.617230" lon="1.274710">
        <time>2017-06-24T14:26:16Z</time>
      </trkpt>
      <trkpt lat="47.617190" lon="1.275170">
        <time>2017-06-24T14:26:17Z</time>
      </trkpt>
      <trkpt lat="47.617150" lon="1.275660">
        <time>2017-06-24T14:26:18Z</time>
      </trkpt>
      <trkpt lat="47.617120" lon="1.276100">
        <time>2017-06-24T14:26:19Z</time>
      </trkpt>
      <trkpt lat="47.617090" lon="1.276600">
        <time>2017-06-24T14:26:20Z</time>
      </trkpt>
      <trkpt lat="47.617060" lon="1.277040">
        <time>2017-06-24T14:26:21Z</time>
      </trkpt>
      <trkpt lat="47.617020" lon="1.277500">
        <time>2017-06-24T14:26:22Z</time>
      </trkpt>
      <trkpt lat="47.616990" lon="1.277990">
        <time>2017-06-24T14:26:23Z</time>
      </trkpt>
      <trkpt lat="47.616950" lon="1.278430">
        <time>2017-06-24T14:26:24Z</time>
      </trkpt>
      <trkpt lat="47.616900" lon="1.278890">
        <time>2017-06-24T14:26:25Z</time>
      </trkpt>
      <trkpt lat="47.616870" lon="1.279340">
        <time>2017-06-24T14:26:26Z</time>
      </trkpt>
      <trkpt lat="47.616840" lon="1.279800">
        <time>2017-06-24T14:26:27Z</time>
      </trkpt>
      <trkpt lat="47.616800" lon="1.280300">
        <time>2017-06-24T14:26:28Z</time>
      </trkpt>
      <trkpt lat="47.616770" lon="1.280740">
        <time>2017-06-24T14:26:29Z</time>
      </trkpt>
      <trkpt lat="47.616740" lon="1.281210">
        <time>2017-06-24T14:26:30Z</time>
      </trkpt>
      <trkpt lat="47.616700" lon="1.281710">
        <time>2017-06-24T14:26:31Z</time>
      </trkpt>
      <trkpt lat="47.616670" lon="1.282150">
        <time>2017-06-24T14:26:32Z</time>
      </trkpt>
      <trkpt lat="47.616640" lon="1.282610">
        <time>2017-06-24T14:26:33Z</time>
      </trkpt>
      <trkpt lat="47.616610" lon="1.283110">
        <time>2017-06-24T14:26:34Z</time>
      </trkpt>
      <trkpt lat="47.616580" lon="1.283540">
        <time>2017-06-24T14:26:35Z</time>
      </trkpt>
      <trkpt lat="47.616550" lon="1.284040">
        <time>2017-06-24T14:26:36Z</time>
      </trkpt>
      <trkpt lat="47.616520" lon="1.284470">
        <time>2017-06-24T14:26:37Z</time>
      </trkpt>
      <trkpt lat="47.616490" lon="1.284940">
        <time>2017-06-24T14:26:38Z</time>
      </trkpt>
      <trkpt lat="47.616460" lon="1.285430">
        <time>2017-06-24T14:26:39Z</time>
      </trkpt>
      <trkpt lat="47.616430" lon="1.285860">
        <time>2017-06-24T14:26:40Z</time>
      </trkpt>
      <trkpt lat="47.616400" lon="1.286330">
        <time>2017-06-24T14:26:41Z</time>
      </trkpt>
      <trkpt lat="47.616370" lon="1.286790">
        <time>2017-06-24T14:26:42Z</time>
      </trkpt>
      <trkpt lat="47.616350" lon="1.287250">
        <time>2017-06-24T14:26:43Z</time>
      </trkpt>
      <trkpt lat="47.616320" lon="1.287750">
        <time>2017-06-24T14:26:44Z</time>
      </trkpt>
      <trkpt lat="47.616300" lon="1.288200">
        <time>2017-06-24T14:26:45Z</time>
      </trkpt>
      <trkpt lat="47.616280" lon="1.288680">
        <time>2017-06-24T14:26:46Z</time>
      </trkpt>
      <trkpt lat="47.616260" lon="1.289200">
        <time>2017-06-24T14:26:47Z</time>
      </trkpt>
      <trkpt lat="47.616240" lon="1.289660">
        <time>2017-06-24T14:26:48Z</time>
      </trkpt>
      <trkpt lat="47.616220" lon="1.290160">
        <time>2017-06-24T14:26:49Z</time>
      </trkpt>
      <trkpt lat="47.616200" lon="1.290700">
        <time>2017-06-24T14:26:50Z</time>
      </trkpt>
      <trkpt lat="47.616180" lon="1.291160">
        <time>2017-06-24T14:26:51Z</time>
      </trkpt>
      <trkpt lat="47.616160" lon="1.291690">
        <time>2017-06-24T14:26:52Z</time>
      </trkpt>
      <trkpt lat="47.616130" lon="1.292160">
        <time>2017-06-24T14:26:53Z</time>
      </trkpt>
      <trkpt lat="47.616110" lon="1.292660">
        <time>2017-06-24T14:26:54Z</time>
      </trkpt>
      <trkpt lat="47.616080" lon="1.293190">
        <time>2017-06-24T14:26:55Z</time>
      </trkpt>
      <trkpt lat="47.616070" lon="1.293670">
        <time>2017-06-24T14:26:56Z</time>
      </trkpt>
      <trkpt lat="47.616050" lon="1.294170">
        <time>2017-06-24T14:26:57Z</time>
      </trkpt>
      <trkpt lat="47.616030" lon="1.294670">
        <time>2017-06-24T14:26:58Z</time>
      </trkpt>
      <trkpt lat="47.616020" lon="1.295180">
        <time>2017-06-24T14:26:59Z</time>
      </trkpt>
      <trkpt lat="47.616000" lon="1.295720">
        <time>2017-06-24T14:27:00Z</time>
      </trkpt>
      <trkpt lat="47.615990" lon="1.296180">
        <time>2017-06-24T14:27:01Z</time>
      </trkpt>
      <trkpt lat="47.615980" lon="1.296680">
        <time>2017-06-24T14:27:02Z</time>
      </trkpt>
      <trkpt lat="47.615970" lon="1.297210">
        <time>2017-06-24T14:27:03Z</time>
      </trkpt>
      <trkpt lat="47.615960" lon="1.297670">
        <time>2017-06-24T14:27:04Z</time>
      </trkpt>
      <trkpt lat="47.615960" lon="1.298160">
        <time>2017-06-24T14:27:05Z</time>
      </trkpt>
      <trkpt lat="47.615950" lon="1.298680">
        <time>2017-06-24T14:27:06Z</time>
      </trkpt>
      <trkpt lat="47.615950" lon="1.299140">
        <time>2017-06-24T14:27:07Z</time>
      </trkpt>
      <trkpt lat="47.615940" lon="1.299660">
        <time>2017-06-24T14:27:08Z</time>
      </trkpt>
      <trkpt lat="47.615940" lon="1.300100">
        <time>2017-06-24T14:27:09Z</time>
      </trkpt>
      <trkpt lat="47.615940" lon="1.300580">
        <time>2017-06-24T14:27:10Z</time>
      </trkpt>
      <trkpt lat="47.615930" lon="1.301090">
        <time>2017-06-24T14:27:11Z</time>
      </trkpt>
      <trkpt lat="47.615940" lon="1.301540">
        <time>2017-06-24T14:27:12Z</time>
      </trkpt>
      <trkpt lat="47.615940" lon="1.302020">
        <time>2017-06-24T14:27:13Z</time>
      </trkpt>
      <trkpt lat="47.615950" lon="1.302490">
        <time>2017-06-24T14:27:14Z</time>
      </trkpt>
      <trkpt lat="47.615960" lon="1.302970">
        <time>2017-06-24T14:27:15Z</time>
      </trkpt>
      <trkpt lat="47.615960" lon="1.303480">
        <time>2017-06-24T14:27:16Z</time>
      </trkpt>
      <trkpt lat="47.615970" lon="1.303940">
        <time>2017-06-24T14:27:17Z</time>
      </trkpt>
      <trkpt lat="47.615980" lon="1.304420">
        <time>2017-06-24T14:27:18Z</time>
      </trkpt>
      <trkpt lat="47.615990" lon="1.304920">
        <time>2017-06-24T14:27:19Z</time>
      </trkpt>
      <trkpt lat="47.616000" lon="1.305370">
        <time>2017-06-24T14:27:20Z</time>
      </trkpt>
      <trkpt lat="47.616000" lon="1.305850">
        <time>2017-06-24T14:27:21Z</time>
      </trkpt>
      <trkpt lat="47.616010" lon="1.306360">
        <time>2017-06-24T14:27:22Z</time>
      </trkpt>
      <trkpt lat="47.616020" lon="1.306800">
        <time>2017-06-24T14:27:23Z</time>
      </trkpt>
      <trkpt lat="47.616040" lon="1.307310">
        <time>2017-06-24T14:27:24Z</time>
      </trkpt>
      <trkpt lat="47.616060" lon="1.307760">
        <time>2017-06-24T14:27:25Z</time>
      </trkpt>
      <trkpt lat="47.616070" lon="1.308240">
        <time>2017-06-24T14:27:26Z</time>
      </trkpt>
      <trkpt lat="47.616100" lon="1.308750">
        <time>2017-06-24T14:27:27Z</time>
      </trkpt>
      <trkpt lat="47.616120" lon="1.309190">
        <time>2017-06-24T14:27:28Z</time>
      </trkpt>
      <trkpt lat="47.616150" lon="1.309670">
        <time>2017-06-24T14:27:29Z</time>
      </trkpt>
      <trkpt lat="47.616170" lon="1.310150">
        <time>2017-06-24T14:27:30Z</time>
      </trkpt>
      <trkpt lat="47.616190" lon="1.310620">
        <time>2017-06-24T14:27:31Z</time>
      </trkpt>
      <trkpt lat="47.616220" lon="1.311130">
        <time>2017-06-24T14:27:32Z</time>
      </trkpt>
      <trkpt lat="47.616250" lon="1.311580">
        <time>2017-06-24T14:27:33Z</time>
      </trkpt>
      <trkpt lat="47.616280" lon="1.312050">
        <time>2017-06-24T14:27:34Z</time>
      </trkpt>
      <trkpt lat="47.616310" lon="1.312550">
        <time>2017-06-24T14:27:35Z</time>
      </trkpt>
      <trkpt lat="47.616340" lon="1.313000">
        <time>2017-06-24T14:27:36Z</time>
      </trkpt>
      <trkpt lat="47.616380" lon="1.313460">
        <time>2017-06-24T14:27:37Z</time>
      </trkpt>
      <trkpt lat="47.616420" lon="1.313960">
        <time>2017-06-24T14:27:38Z</time>
      </trkpt>
      <trkpt lat="47.616450" lon="1.314400">
        <time>2017-06-24T14:27:39Z</time>
      </trkpt>
      <trkpt lat="47.616490" lon="1.314890">
        <time>2017-06-24T14:27:40Z</time>
      </trkpt>
      <trkpt lat="47.616530" lon="1.315310">
        <time>2017-06-24T14:27:41Z</time>
      </trkpt>
      <trkpt lat="47.616570" lon="1.315770">
        <time>2017-06-24T14:27:42Z</time>
      </trkpt>
      <trkpt lat="47.616610" lon="1.316260">
        <time>2017-06-24T14:27:43Z</time>
      </trkpt>
      <trkpt lat="47.616650" lon="1.316700">
        <time>2017-06-24T14:27:44Z</time>
      </trkpt>
      <trkpt lat="47.616690" lon="1.317160">
        <time>2017-06-24T14:27:45Z</time>
      </trkpt>
      <trkpt lat="47.616730" lon="1.317620">
        <time>2017-06-24T14:27:46Z</time>
      </trkpt>
      <trkpt lat="47.616770" lon="1.318080">
        <time>2017-06-24T14:27:47Z</time>
      </trkpt>
      <trkpt lat="47.616820" lon="1.318570">
        <time>2017-06-24T14:27:48Z</time>
      </trkpt>
      <trkpt lat="47.616860" lon="1.318990">
        <time>2017-06-24T14:27:49Z</time>
      </trkpt>
      <trkpt lat="47.616910" lon="1.319450">
        <time>2017-06-24T14:27:50Z</time>
      </trkpt>
      <trkpt lat="47.616960" lon="1.319940">
        <time>2017-06-24T14:27:51Z</time>
      </trkpt>
      <trkpt lat="47.617010" lon="1.320370">
        <time>2017-06-24T14:27:52Z</time>
      </trkpt>
      <trkpt lat="47.617070" lon="1.320830">
        <time>2017-06-24T14:27:53Z</time>
      </trkpt>
      <trkpt lat="47.617130" lon="1.321320">
        <time>2017-06-24T14:27:54Z</time>
      </trkpt>
      <trkpt lat="47.617180" lon="1.321760">
        <time>2017-06-24T14:27:55Z</time>
      </trkpt>
      <trkpt lat="47.617250" lon="1.322250">
        <time>2017-06-24T14:27:56Z</time>
      </trkpt>
      <trkpt lat="47.617300" lon="1.322690">
        <time>2017-06-24T14:27:57Z</time>
      </trkpt>
      <trkpt lat="47.617360" lon="1.323160">
        <time>2017-06-24T14:27:58Z</time>
      </trkpt>
      <trkpt lat="47.617420" lon="1.323660">
        <time>2017-06-24T14:27:59Z</time>
      </trkpt>
      <trkpt lat="47.617480" lon="1.324090">
        <time>2017-06-24T14:28:00Z</time>
      </trkpt>
      <trkpt lat="47.617540" lon="1.324550">
        <time>2017-06-24T14:28:01Z</time>
      </trkpt>
      <trkpt lat="47.617610" lon="1.325020">
        <time>2017-06-24T14:28:02Z</time>
      </trkpt>
      <trkpt lat="47.617680" lon="1.325480">
        <time>2017-06-24T14:28:03Z</time>
      </trkpt>
      <trkpt lat="47.617750" lon="1.325970">
        <time>2017-06-24T14:28:04Z</time>
      </trkpt>
      <trkpt lat="47.617820" lon="1.326400">
        <time>2017-06-24T14:28:05Z</time>
      </trkpt>
      <trkpt lat="47.617890" lon="1.326860">
        <time>2017-06-24T14:28:06Z</time>
      </trkpt>
      <trkpt lat="47.617970" lon="1.327350">
        <time>2017-06-24T14:28:07Z</time>
      </trkpt>
      <trkpt lat="47.618040" lon="1.327780">
        <time>2017-06-24T14:28:08Z</time>
      </trkpt>
      <trkpt lat="47.618110" lon="1.328240">
        <time>2017-06-24T14:28:09Z</time>
      </trkpt>
      <trkpt lat="47.618190" lon="1.328730">
        <time>2017-06-24T14:28:10Z</time>
      </trkpt>
      <trkpt lat="47.618250" lon="1.329160">
        <time>2017-06-24T14:28:11Z</time>
      </trkpt>
      <trkpt lat="47.618340" lon="1.329640">
        <time>2017-06-24T14:28:12Z</time>
      </trkpt>
      <trkpt lat="47.618410" lon="1.330070">
        <time>2017-06-24T14:28:13Z</time>
      </trkpt>
      <trkpt lat="47.618500" lon="1.330530">
        <time>2017-06-24T14:28:14Z</time>
      </trkpt>
      <trkpt lat="47.618600" lon="1.331010">
        <time>2017-06-24T14:28:15Z</time>
      </trkpt>
      <trkpt lat="47.618690" lon="1.331430">
        <time>2017-06-24T14:28:16Z</time>
      </trkpt>
      <trkpt lat="47.618790" lon="1.331880">
        <time>2017-06-24T14:28:17Z</time>
      </trkpt>
      <trkpt lat="47.618890" lon="1.332330">
        <time>2017-06-24T14:28:18Z</time>
      </trkpt>
      <trkpt lat="47.618990" lon="1.332780">
        <time>2017-06-24T14:28:19Z</time>
      </trkpt>
      <trkpt lat="47.619110" lon="1.333260">
        <time>2017-06-24T14:28:20Z</time>
      </trkpt>
      <trkpt lat="47.619210" lon="1.333680">
        <time>2017-06-24T14:28:21Z</time>
      </trkpt>
      <trkpt lat="47.619340" lon="1.334120">
        <time>2017-06-24T14:28:22Z</time>
      </trkpt>
      <trkpt lat="47.619460" lon="1.334600">
        <time>2017-06-24T14:28:23Z</time>
      </trkpt>
      <trkpt lat="47.619580" lon="1.335010">
        <time>2017-06-24T14:28:24Z</time>
      </trkpt>
      <trkpt lat="47.619710" lon="1.335450">
        <time>2017-06-24T14:28:25Z</time>
      </trkpt>
      <trkpt lat="47.619850" lon="1.335920">
        <time>2017-06-24T14:28:26Z</time>
      </trkpt>
      <trkpt lat="47.619980" lon="1.336330">
        <time>2017-06-24T14:28:27Z</time>
      </trkpt>
      <trkpt lat="47.620130" lon="1.336780">
        <time>2017-06-24T14:28:28Z</time>
      </trkpt>
      <trkpt lat="47.620270" lon="1.337190">
        <time>2017-06-24T14:28:29Z</time>
      </trkpt>
      <trkpt lat="47.620420" lon="1.337620">
        <time>2017-06-24T14:28:30Z</time>
      </trkpt>
      <trkpt lat="47.620580" lon="1.338080">
        <time>2017-06-24T14:28:31Z</time>
      </trkpt>
      <trkpt lat="47.620720" lon="1.338480">
        <time>2017-06-24T14:28:32Z</time>
      </trkpt>
      <trkpt lat="47.620880" lon="1.338910">
        <time>2017-06-24T14:28:33Z</time>
      </trkpt>
      <trkpt lat="47.621040" lon="1.339330">
        <time>2017-06-24T14:28:34Z</time>
      </trkpt>
      <trkpt lat="47.621210" lon="1.339760">
        <time>2017-06-24T14:28:35Z</time>
      </trkpt>
      <trkpt lat="47.621390" lon="1.340200">
        <time>2017-06-24T14:28:36Z</time>
      </trkpt>
      <trkpt lat="47.621550" lon="1.340580">
        <time>2017-06-24T14:28:37Z</time>
      </trkpt>
      <trkpt lat="47.621720" lon="1.340990">
        <time>2017-06-24T14:28:38Z</time>
      </trkpt>
      <trkpt lat="47.621910" lon="1.341410">
        <time>2017-06-24T14:28:39Z</time>
      </trkpt>
      <trkpt lat="47.622070" lon="1.341770">
        <time>2017-06-24T14:28:40Z</time>
      </trkpt>
      <trkpt lat="47.622250" lon="1.342150">
        <time>2017-06-24T14:28:41Z</time>
      </trkpt>
      <trkpt lat="47.622440" lon="1.342560">
        <time>2017-06-24T14:28:42Z</time>
      </trkpt>
      <trkpt lat="47.622610" lon="1.342910">
        <time>2017-06-24T14:28:43Z</time>
      </trkpt>
      <trkpt lat="47.622810" lon="1.343300">
        <time>2017-06-24T14:28:44Z</time>
      </trkpt>
      <trkpt lat="47.622990" lon="1.343660">
        <time>2017-06-24T14:28:45Z</time>
      </trkpt>
      <trkpt lat="47.623190" lon="1.344040">
        <time>2017-06-24T14:28:46Z</time>
      </trkpt>
      <trkpt lat="47.623400" lon="1.344430">
        <time>2017-06-24T14:28:47Z</time>
      </trkpt>
      <trkpt lat="47.623590" lon="1.344780">
        <time>2017-06-24T14:28:48Z</time>
      </trkpt>
      <trkpt lat="47.623800" lon="1.345150">
        <time>2017-06-24T14:28:49Z</time>
      </trkpt>
      <trkpt lat="47.624000" lon="1.345510">
        <time>2017-06-24T14:28:50Z</time>
      </trkpt>
      <trkpt lat="47.624220" lon="1.345860">
        <time>2017-06-24T14:28:51Z</time>
      </trkpt>
      <trkpt lat="47.624440" lon="1.346240">
        <time>2017-06-24T14:28:52Z</time>
      </trkpt>
      <trkpt lat="47.624650" lon="1.346570">
        <time>2017-06-24T14:28:53Z</time>
      </trkpt>
      <trkpt lat="47.624870" lon="1.346920">
        <time>2017-06-24T14:28:54Z</time>
      </trkpt>
      <trkpt lat="47.625110" lon="1.347290">
        <time>2017-06-24T14:28:55Z</time>
      </trkpt>
      <trkpt lat="47.625320" lon="1.347600">
        <time>2017-06-24T14:28:56Z</time>
      </trkpt>
      <trkpt lat="47.625540" lon="1.347940">
        <time>2017-06-24T14:28:57Z</time>
      </trkpt>
      <trkpt lat="47.625780" lon="1.348290">
        <time>2017-06-24T14:28:58Z</time>
      </trkpt>
      <trkpt lat="47.626000" lon="1.348590">
        <time>2017-06-24T14:28:59Z</time>
      </trkpt>
      <trkpt lat="47.626250" lon="1.348930">
        <time>2017-06-24T14:29:00Z</time>
      </trkpt>
      <trkpt lat="47.626470" lon="1.349220">
        <time>2017-06-24T14:29:01Z</time>
      </trkpt>
      <trkpt lat="47.626710" lon="1.349530">
        <time>2017-06-24T14:29:02Z</time>
      </trkpt>
      <trkpt lat="47.626960" lon="1.349860">
        <time>2017-06-24T14:29:03Z</time>
      </trkpt>
      <trkpt lat="47.627190" lon="1.350150">
        <time>2017-06-24T14:29:04Z</time>
      </trkpt>
      <trkpt lat="47.627440" lon="1.350440">
        <time>2017-06-24T14:29:05Z</time>
      </trkpt>
      <trkpt lat="47.627680" lon="1.350730">
        <time>2017-06-24T14:29:06Z</time>
      </trkpt>
      <trkpt lat="47.627930" lon="1.351020">
        <time>2017-06-24T14:29:07Z</time>
      </trkpt>
      <trkpt lat="47.628190" lon="1.351320">
        <time>2017-06-24T14:29:08Z</time>
      </trkpt>
      <trkpt lat="47.628420" lon="1.351580">
        <time>2017-06-24T14:29:09Z</time>
      </trkpt>
      <trkpt lat="47.628670" lon="1.351850">
        <time>2017-06-24T14:29:10Z</time>
      </trkpt>
      <trkpt lat="47.628940" lon="1.352130">
        <time>2017-06-24T14:29:11Z</time>
      </trkpt>
      <trkpt lat="47.629180" lon="1.352380">
        <time>2017-06-24T14:29:12Z</time>
      </trkpt>
      <trkpt lat="47.629440" lon="1.352640">
        <time>2017-06-24T14:29:13Z</time>
      </trkpt>
      <trkpt lat="47.629710" lon="1.352910">
        <time>2017-06-24T14:29:14Z</time>
      </trkpt>
      <trkpt lat="47.629960" lon="1.353140">
        <time>2017-06-24T14:29:15Z</time>
      </trkpt>
      <trkpt lat="47.630250" lon="1.353410">
        <time>2017-06-24T14:29:16Z</time>
      </trkpt>
      <trkpt lat="47.630500" lon="1.353640">
        <time>2017-06-24T14:29:17Z</time>
      </trkpt>
      <trkpt lat="47.630770" lon="1.353870">
        <time>2017-06-24T14:29:18Z</time>
      </trkpt>
      <trkpt lat="47.631050" lon="1.354120">
        <time>2017-06-24T14:29:19Z</time>
      </trkpt>
      <trkpt lat="47.631310" lon="1.354330">
        <time>2017-06-24T14:29:20Z</time>
      </trkpt>
      <trkpt lat="47.631580" lon="1.354550">
        <time>2017-06-24T14:29:21Z</time>
      </trkpt>
      <trkpt lat="47.631850" lon="1.354770">
        <time>2017-06-24T14:29:22Z</time>
      </trkpt>
      <trkpt lat="47.632140" lon="1.354980">
        <time>2017-06-24T14:29:23Z</time>
      </trkpt>
      <trkpt lat="47.632440" lon="1.355200">
        <time>2017-06-24T14:29:24Z</time>
      </trkpt>
      <trkpt lat="47.632720" lon="1.355390">
        <time>2017-06-24T14:29:25Z</time>
      </trkpt>
      <trkpt lat="47.633010" lon="1.355600">
        <time>2017-06-24T14:29:26Z</time>
      </trkpt>
      <trkpt lat="47.633310" lon="1.355830">
        <time>2017-06-24T14:29:27Z</time>
      </trkpt>
      <trkpt lat="47.633580" lon="1.356020">
        <time>2017-06-24T14:29:28Z</time>
      </trkpt>
      <trkpt lat="47.633870" lon="1.356230">
        <time>2017-06-24T14:29:29Z</time>
      </trkpt>
      <trkpt lat="47.634170" lon="1.356460">
        <time>2017-06-24T14:29:30Z</time>
      </trkpt>
      <trkpt lat="47.634440" lon="1.356660">
        <time>2017-06-24T14:29:31Z</time>
      </trkpt>
      <trkpt lat="47.634730" lon="1.356880">
        <time>2017-06-24T14:29:32Z</time>
      </trkpt>
      <trkpt lat="47.635000" lon="1.357090">
        <time>2017-06-24T14:29:33Z</time>
      </trkpt>
      <trkpt lat="47.635280" lon="1.357310">
        <time>2017-06-24T14:29:34Z</time>
      </trkpt>
      <trkpt lat="47.635570" lon="1.357540">
        <time>2017-06-24T14:29:35Z</time>
      </trkpt>
      <trkpt lat="47.635830" lon="1.357730">
        <time>2017-06-24T14:29:36Z</time>
      </trkpt>
      <trkpt lat="47.636110" lon="1.357940">
        <time>2017-06-24T14:29:37Z</time>
      </trkpt>
      <trkpt lat="47.636390" lon="1.358150">
        <time>2017-06-24T14:29:38Z</time>
      </trkpt>
      <trkpt lat="47.636680" lon="1.358360">
        <time>2017-06-24T14:29:39Z</time>
      </trkpt>
      <trkpt lat="47.636980" lon="1.358590">
        <time>2017-06-24T14:29:40Z</time>
      </trkpt>
      <trkpt lat="47.637250" lon="1.358790">
        <time>2017-06-24T14:29:41Z</time>
      </trkpt>
      <trkpt lat="47.637530" lon="1.359010">
        <time>2017-06-24T14:29:42Z</time>
      </trkpt>
      <trkpt lat="47.637830" lon="1.359250">
        <time>2017-06-24T14:29:43Z</time>
      </trkpt>
      <trkpt lat="47.638100" lon="1.359470">
        <time>2017-06-24T14:29:44Z</time>
      </trkpt>
      <trkpt lat="47.638380" lon="1.359700">
        <time>2017-06-24T14:29:45Z</time>
      </trkpt>
      <trkpt lat="47.638670" lon="1.359950">
        <time>2017-06-24T14:29:46Z</time>
      </trkpt>
      <trkpt lat="47.638940" lon="1.360170">
        <time>2017-06-24T14:29:47Z</time>
      </trkpt>
      <trkpt lat="47.639230" lon="1.360430">
        <time>2017-06-24T14:29:48Z</time>
      </trkpt>
      <trkpt lat="47.639490" lon="1.360650">
        <time>2017-06-24T14:29:49Z</time>
      </trkpt>
      <trkpt lat="47.639760" lon="1.360890">
        <time>2017-06-24T14:29:50Z</time>
      </trkpt>
      <trkpt lat="47.640050" lon="1.361150">
        <time>2017-06-24T14:29:51Z</time>
      </trkpt>
      <trkpt lat="47.640310" lon="1.361380">
        <time>2017-06-24T14:29:52Z</time>
      </trkpt>
      <trkpt lat="47.640580" lon="1.361630">
        <time>2017-06-24T14:29:53Z</time>
      </trkpt>
      <trkpt lat="47.640850" lon="1.361870">
        <time>2017-06-24T14:29:54Z</time>
      </trkpt>
      <trkpt lat="47.641120" lon="1.362120">
        <time>2017-06-24T14:29:55Z</time>
      </trkpt>
      <trkpt lat="47.641410" lon="1.362390">
        <time>2017-06-24T14:29:56Z</time>
      </trkpt>
      <trkpt lat="47.641650" lon="1.362630">
        <time>2017-06-24T14:29:57Z</time>
      </trkpt>
      <trkpt lat="47.641920" lon="1.362900">
        <time>2017-06-24T14:29:58Z</time>
      </trkpt>
      <trkpt lat="47.642200" lon="1.363180">
        <time>2017-06-24T14:29:59Z</time>
      </trkpt>
      <trkpt lat="47.642450" lon="1.363430">
        <time>2017-06-24T14:30:00Z</time>
      </trkpt>
      <trkpt lat="47.642720" lon="1.363690">
        <time>2017-06-24T14:30:01Z</time>
      </trkpt>
      <trkpt lat="47.643000" lon="1.363980">
        <time>2017-06-24T14:30:02Z</time>
      </trkpt>
      <trkpt lat="47.643240" lon="1.364240">
        <time>2017-06-24T14:30:03Z</time>
      </trkpt>
      <trkpt lat="47.643520" lon="1.364530">
        <time>2017-06-24T14:30:04Z</time>
      </trkpt>
      <trkpt lat="47.643760" lon="1.364790">
        <time>2017-06-24T14:30:05Z</time>
      </trkpt>
      <trkpt lat="47.644020" lon="1.365060">
        <time>2017-06-24T14:30:06Z</time>
      </trkpt>
      <trkpt lat="47.644290" lon="1.365360">
        <time>2017-06-24T14:30:07Z</time>
      </trkpt>
      <trkpt lat="47.644530" lon="1.365620">
        <time>2017-06-24T14:30:08Z</time>
      </trkpt>
      <trkpt lat="47.644780" lon="1.365910">
        <time>2017-06-24T14:30:09Z</time>
      </trkpt>
      <trkpt lat="47.645030" lon="1.366190">
        <time>2017-06-24T14:30:10Z</time>
      </trkpt>
      <trkpt lat="47.645280" lon="1.366480">
        <time>2017-06-24T14:30:11Z</time>
      </trkpt>
      <trkpt lat="47.645550" lon="1.366790">
        <time>2017-06-24T14:30:12Z</time>
      </trkpt>
      <trkpt lat="47.645780" lon="1.367060">
        <time>2017-06-24T14:30:13Z</time>
      </trkpt>
      <trkpt lat="47.646030" lon="1.367350">
        <time>2017-06-24T14:30:14Z</time>
      </trkpt>
      <trkpt lat="47.646290" lon="1.367660">
        <time>2017-06-24T14:30:15Z</time>
      </trkpt>
      <trkpt lat="47.646520" lon="1.367940">
        <time>2017-06-24T14:30:16Z</time>
      </trkpt>
      <trkpt lat="47.646760" lon="1.368240">
        <time>2017-06-24T14:30:17Z</time>
      </trkpt>
      <trkpt lat="47.647020" lon="1.368550">
        <time>2017-06-24T14:30:18Z</time>
      </trkpt>
      <trkpt lat="47.647240" lon="1.368830">
        <time>2017-06-24T14:30:19Z</time>
      </trkpt>
      <trkpt lat="47.647490" lon="1.369150">
        <time>2017-06-24T14:30:20Z</time>
      </trkpt>
      <trkpt lat="47.647710" lon="1.369440">
        <time>2017-06-24T14:30:21Z</time>
      </trkpt>
      <trkpt lat="47.647950" lon="1.369760">
        <time>2017-06-24T14:30:22Z</time>
      </trkpt>
      <trkpt lat="47.648210" lon="1.370090">
        <time>2017-06-24T14:30:23Z</time>
      </trkpt>
      <trkpt lat="47.648430" lon="1.370390">
        <time>2017-06-24T14:30:24Z</time>
      </trkpt>
      <trkpt lat="47.648680" lon="1.370710">
        <time>2017-06-24T14:30:25Z</time>
      </trkpt>
      <trkpt lat="47.648920" lon="1.371030">
        <time>2017-06-24T14:30:26Z</time>
      </trkpt>
      <trkpt lat="47.649160" lon="1.371350">
        <time>2017-06-24T14:30:27Z</time>
      </trkpt>
      <trkpt lat="47.649420" lon="1.371690">
        <time>2017-06-24T14:30:28Z</time>
      </trkpt>
      <trkpt lat="47.649650" lon="1.371990">
        <time>2017-06-24T14:30:29Z</time>
      </trkpt>
      <trkpt lat="47.649890" lon="1.372310">
        <time>2017-06-24T14:30:30Z</time>
      </trkpt>
      <trkpt lat="47.650160" lon="1.372660">
        <time>2017-06-24T14:30:31Z</time>
      </trkpt>
      <trkpt lat="47.650390" lon="1.372960">
        <time>2017-06-24T14:30:32Z</time>
      </trkpt>
      <trkpt lat="47.650630" lon="1.373280">
        <time>2017-06-24T14:30:33Z</time>
      </trkpt>
      <trkpt lat="47.650890" lon="1.373620">
        <time>2017-06-24T14:30:34Z</time>
      </trkpt>
      <trkpt lat="47.651120" lon="1.373910">
        <time>2017-06-24T14:30:35Z</time>
      </trkpt>
      <trkpt lat="47.651380" lon="1.374260">
        <time>2017-06-24T14:30:36Z</time>
      </trkpt>
      <trkpt lat="47.651600" lon="1.374550">
        <time>2017-06-24T14:30:37Z</time>
      </trkpt>
      <trkpt lat="47.651840" lon="1.374870">
        <time>2017-06-24T14:30:38Z</time>
      </trkpt>
      <trkpt lat="47.652100" lon="1.375200">
        <time>2017-06-24T14:30:39Z</time>
      </trkpt>
      <trkpt lat="47.652330" lon="1.375490">
        <time>2017-06-24T14:30:40Z</time>
      </trkpt>
      <trkpt lat="47.652570" lon="1.375800">
        <time>2017-06-24T14:30:41Z</time>
      </trkpt>
      <trkpt lat="47.652810" lon="1.376100">
        <time>2017-06-24T14:30:42Z</time>
      </trkpt>
      <trkpt lat="47.653050" lon="1.376400">
        <time>2017-06-24T14:30:43Z</time>
      </trkpt>
      <trkpt lat="47.653310" lon="1.376720">
        <time>2017-06-24T14:30:44Z</time>
      </trkpt>
      <trkpt lat="47.653540" lon="1.376990">
        <time>2017-06-24T14:30:45Z</time>
      </trkpt>
      <trkpt lat="47.653790" lon="1.377280">
        <time>2017-06-24T14:30:46Z</time>
      </trkpt>
      <trkpt lat="47.654060" lon="1.377590">
        <time>2017-06-24T14:30:47Z</time>
      </trkpt>
      <trkpt lat="47.654300" lon="1.377860">
        <time>2017-06-24T14:30:48Z</time>
      </trkpt>
      <trkpt lat="47.654560" lon="1.378160">
        <time>2017-06-24T14:30:49Z</time>
      </trkpt>
      <trkpt lat="47.654830" lon="1.378460">
        <time>2017-06-24T14:30:50Z</time>
      </trkpt>
      <trkpt lat="47.655070" lon="1.378730">
        <time>2017-06-24T14:30:51Z</time>
      </trkpt>
      <trkpt lat="47.655350" lon="1.379030">
        <time>2017-06-24T14:30:52Z</time>
      </trkpt>
      <trkpt lat="47.655600" lon="1.379300">
        <time>2017-06-24T14:30:53Z</time>
      </trkpt>
      <trkpt lat="47.655870" lon="1.379580">
        <time>2017-06-24T14:30:54Z</time>
      </trkpt>
      <trkpt lat="47.656160" lon="1.379880">
        <time>2017-06-24T14:30:55Z</time>
      </trkpt>
      <trkpt lat="47.656410" lon="1.380140">
        <time>2017-06-24T14:30:56Z</time>
      </trkpt>
      <trkpt lat="47.656670" lon="1.380410">
        <time>2017-06-24T14:30:57Z</time>
      </trkpt>
      <trkpt lat="47.656940" lon="1.380690">
        <time>2017-06-24T14:30:58Z</time>
      </trkpt>
      <trkpt lat="47.657210" lon="1.380960">
        <time>2017-06-24T14:30:59Z</time>
      </trkpt>
      <trkpt lat="47.657500" lon="1.381250">
        <time>2017-06-24T14:31:00Z</time>
      </trkpt>
      <trkpt lat="47.657750" lon="1.381500">
        <time>2017-06-24T14:31:01Z</time>
      </trkpt>
      <trkpt lat="47.658030" lon="1.381770">
        <time>2017-06-24T14:31:02Z</time>
      </trkpt>
      <trkpt lat="47.658330" lon="1.382040">
        <time>2017-06-24T14:31:03Z</time>
      </trkpt>
      <trkpt lat="47.658590" lon="1.382290">
        <time>2017-06-24T14:31:04Z</time>
      </trkpt>
      <trkpt lat="47.658870" lon="1.382540">
        <time>2017-06-24T14:31:05Z</time>
      </trkpt>
      <trkpt lat="47.659170" lon="1.382810">
        <time>2017-06-24T14:31:06Z</time>
      </trkpt>
      <trkpt lat="47.659430" lon="1.383050">
        <time>2017-06-24T14:31:07Z</time>
      </trkpt>
      <trkpt lat="47.659730" lon="1.383320">
        <time>2017-06-24T14:31:08Z</time>
      </trkpt>
      <trkpt lat="47.659990" lon="1.383560">
        <time>2017-06-24T14:31:09Z</time>
      </trkpt>
      <trkpt lat="47.660270" lon="1.383800">
        <time>2017-06-24T14:31:10Z</time>
      </trkpt>
      <trkpt lat="47.660570" lon="1.384070">
        <time>2017-06-24T14:31:11Z</time>
      </trkpt>
      <trkpt lat="47.660840" lon="1.384300">
        <time>2017-06-24T14:31:12Z</time>
      </trkpt>
      <trkpt lat="47.661110" lon="1.384550">
        <time>2017-06-24T14:31:13Z</time>
      </trkpt>
      <trkpt lat="47.661380" lon="1.384800">
        <time>2017-06-24T14:31:14Z</time>
      </trkpt>
      <trkpt lat="47.661650" lon="1.385040">
        <time>2017-06-24T14:31:15Z</time>
      </trkpt>
      <trkpt lat="47.661930" lon="1.385290">
        <time>2017-06-24T14:31:16Z</time>
      </trkpt>
      <trkpt lat="47.662190" lon="1.385520">
        <time>2017-06-24T14:31:17Z</time>
      </trkpt>
      <trkpt lat="47.662460" lon="1.385750">
        <time>2017-06-24T14:31:18Z</time>
      </trkpt>
      <trkpt lat="47.662740" lon="1.386010">
        <time>2017-06-24T14:31:19Z</time>
      </trkpt>
      <trkpt lat="47.663000" lon="1.386240">
        <time>2017-06-24T14:31:20Z</time>
      </trkpt>
      <trkpt lat="47.663270" lon="1.386480">
        <time>2017-06-24T14:31:21Z</time>
      </trkpt>
      <trkpt lat="47.663560" lon="1.386740">
        <time>2017-06-24T14:31:22Z</time>
      </trkpt>
      <trkpt lat="47.663820" lon="1.386980">
        <time>2017-06-24T14:31:23Z</time>
      </trkpt>
      <trkpt lat="47.664120" lon="1.387240">
        <time>2017-06-24T14:31:24Z</time>
      </trkpt>
      <trkpt lat="47.664370" lon="1.387470">
        <time>2017-06-24T14:31:25Z</time>
      </trkpt>
      <trkpt lat="47.664650" lon="1.387720">
        <time>2017-06-24T14:31:26Z</time>
      </trkpt>
      <trkpt lat="47.664940" lon="1.387980">
        <time>2017-06-24T14:31:27Z</time>
      </trkpt>
      <trkpt lat="47.665200" lon="1.388220">
        <time>2017-06-24T14:31:28Z</time>
      </trkpt>
      <trkpt lat="47.665480" lon="1.388470">
        <time>2017-06-24T14:31:29Z</time>
      </trkpt>
      <trkpt lat="47.665750" lon="1.388710">
        <time>2017-06-24T14:31:30Z</time>
      </trkpt>
      <trkpt lat="47.666030" lon="1.388960">
        <time>2017-06-24T14:31:31Z</time>
      </trkpt>
      <trkpt lat="47.666310" lon="1.389240">
        <time>2017-06-24T14:31:32Z</time>
      </trkpt>
      <trkpt lat="47.666570" lon="1.389480">
        <time>2017-06-24T14:31:33Z</time>
      </trkpt>
      <trkpt lat="47.666830" lon="1.389740">
        <time>2017-06-24T14:31:34Z</time>
      </trkpt>
      <trkpt lat="47.667110" lon="1.390010">
        <time>2017-06-24T14:31:35Z</time>
      </trkpt>
      <trkpt lat="47.667360" lon="1.390260">
        <time>2017-06-24T14:31:36Z</time>
      </trkpt>
      <trkpt lat="47.667630" lon="1.390520">
        <time>2017-06-24T14:31:37Z</time>
      </trkpt>
      <trkpt lat="47.667910" lon="1.390810">
        <time>2017-06-24T14:31:38Z</time>
      </trkpt>
      <trkpt lat="47.668160" lon="1.391060">
        <time>2017-06-24T14:31:39Z</time>
      </trkpt>
      <trkpt lat="47.668440" lon="1.391340">
        <time>2017-06-24T14:31:40Z</time>
      </trkpt>
      <trkpt lat="47.668690" lon="1.391600">
        <time>2017-06-24T14:31:41Z</time>
      </trkpt>
      <trkpt lat="47.668950" lon="1.391890">
        <time>2017-06-24T14:31:42Z</time>
      </trkpt>
      <trkpt lat="47.669230" lon="1.392180">
        <time>2017-06-24T14:31:43Z</time>
      </trkpt>
      <trkpt lat="47.669470" lon="1.392460">
        <time>2017-06-24T14:31:44Z</time>
      </trkpt>
      <trkpt lat="47.669730" lon="1.392750">
        <time>2017-06-24T14:31:45Z</time>
      </trkpt>
      <trkpt lat="47.669990" lon="1.393040">
        <time>2017-06-24T14:31:46Z</time>
      </trkpt>
      <trkpt lat="47.670250" lon="1.393340">
        <time>2017-06-24T14:31:47Z</time>
      </trkpt>
      <trkpt lat="47.670520" lon="1.393650">
        <time>2017-06-24T14:31:48Z</time>
      </trkpt>
      <trkpt lat="47.670760" lon="1.393930">
        <time>2017-06-24T14:31:49Z</time>
      </trkpt>
      <trkpt lat="47.671010" lon="1.394230">
        <time>2017-06-24T14:31:50Z</time>
      </trkpt>
      <trkpt lat="47.671280" lon="1.394550">
        <time>2017-06-24T14:31:51Z</time>
      </trkpt>
      <trkpt lat="47.671510" lon="1.394820">
        <time>2017-06-24T14:31:52Z</time>
      </trkpt>
      <trkpt lat="47.671770" lon="1.395130">
        <time>2017-06-24T14:31:53Z</time>
      </trkpt>
      <trkpt lat="47.672030" lon="1.395460">
        <time>2017-06-24T14:31:54Z</time>
      </trkpt>
      <trkpt lat="47.672260" lon="1.395740">
        <time>2017-06-24T14:31:55Z</time>
      </trkpt>
      <trkpt lat="47.672520" lon="1.396070">
        <time>2017-06-24T14:31:56Z</time>
      </trkpt>
      <trkpt lat="47.672750" lon="1.396370">
        <time>2017-06-24T14:31:57Z</time>
      </trkpt>
      <trkpt lat="47.673000" lon="1.396690">
        <time>2017-06-24T14:31:58Z</time>
      </trkpt>
      <trkpt lat="47.673260" lon="1.397030">
        <time>2017-06-24T14:31:59Z</time>
      </trkpt>
      <trkpt lat="47.673490" lon="1.397330">
        <time>2017-06-24T14:32:00Z</time>
      </trkpt>
      <trkpt lat="47.673730" lon="1.397660">
        <time>2017-06-24T14:32:01Z</time>
      </trkpt>
      <trkpt lat="47.673970" lon="1.397990">
        <time>2017-06-24T14:32:02Z</time>
      </trkpt>
      <trkpt lat="47.674200" lon="1.398330">
        <time>2017-06-24T14:32:03Z</time>
      </trkpt>
      <trkpt lat="47.674460" lon="1.398690">
        <time>2017-06-24T14:32:04Z</time>
      </trkpt>
      <trkpt lat="47.674680" lon="1.399010">
        <time>2017-06-24T14:32:05Z</time>
      </trkpt>
      <trkpt lat="47.674920" lon="1.399350">
        <time>2017-06-24T14:32:06Z</time>
      </trkpt>
      <trkpt lat="47.675170" lon="1.399720">
        <time>2017-06-24T14:32:07Z</time>
      </trkpt>
      <trkpt lat="47.675390" lon="1.400040">
        <time>2017-06-24T14:32:08Z</time>
      </trkpt>
      <trkpt lat="47.675630" lon="1.400380">
        <time>2017-06-24T14:32:09Z</time>
      </trkpt>
      <trkpt lat="47.675870" lon="1.400750">
        <time>2017-06-24T14:32:10Z</time>
      </trkpt>
      <trkpt lat="47.676080" lon="1.401070">
        <time>2017-06-24T14:32:11Z</time>
      </trkpt>
      <trkpt lat="47.676320" lon="1.401420">
        <time>2017-06-24T14:32:12Z</time>
      </trkpt>
      <trkpt lat="47.676530" lon="1.401750">
        <time>2017-06-24T14:32:13Z</time>
      </trkpt>
      <trkpt lat="47.676740" lon="1.402090">
        <time>2017-06-24T14:32:14Z</time>
      </trkpt>
      <trkpt lat="47.676970" lon="1.402460">
        <time>2017-06-24T14:32:15Z</time>
      </trkpt>
      <trkpt lat="47.677180" lon="1.402780">
        <time>2017-06-24T14:32:16Z</time>
      </trkpt>
      <trkpt lat="47.677390" lon="1.403140">
        <time>2017-06-24T14:32:17Z</time>
      </trkpt>
      <trkpt lat="47.677600" lon="1.403490">
        <time>2017-06-24T14:32:18Z</time>
      </trkpt>
      <trkpt lat="47.677810" lon="1.403850">
        <time>2017-06-24T14:32:19Z</time>
      </trkpt>
      <trkpt lat="47.678040" lon="1.404220">
        <time>2017-06-24T14:32:20Z</time>
      </trkpt>
      <trkpt lat="47.678230" lon="1.404570">
        <time>2017-06-24T14:32:21Z</time>
      </trkpt>
      <trkpt lat="47.678440" lon="1.404940">
        <time>2017-06-24T14:32:22Z</time>
      </trkpt>
      <trkpt lat="47.678670" lon="1.405330">
        <time>2017-06-24T14:32:23Z</time>
      </trkpt>
      <trkpt lat="47.678870" lon="1.405680">
        <time>2017-06-24T14:32:24Z</time>
      </trkpt>
      <trkpt lat="47.679080" lon="1.406030">
        <time>2017-06-24T14:32:25Z</time>
      </trkpt>
      <trkpt lat="47.679300" lon="1.406410">
        <time>2017-06-24T14:32:26Z</time>
      </trkpt>
      <trkpt lat="47.679500" lon="1.406750">
        <time>2017-06-24T14:32:27Z</time>
      </trkpt>
      <trkpt lat="47.679710" lon="1.407140">
        <time>2017-06-24T14:32:28Z</time>
      </trkpt>
      <trkpt lat="47.679890" lon="1.407480">
        <time>2017-06-24T14:32:29Z</time>
      </trkpt>
      <trkpt lat="47.680090" lon="1.407850">
        <time>2017-06-24T14:32:30Z</time>
      </trkpt>
      <trkpt lat="47.680290" lon="1.408250">
        <time>2017-06-24T14:32:31Z</time>
      </trkpt>
      <trkpt lat="47.680470" lon="1.408610">
        <time>2017-06-24T14:32:32Z</time>
      </trkpt>
      <trkpt lat="47.680660" lon="1.409000">
        <time>2017-06-24T14:32:33Z</time>
      </trkpt>
      <trkpt lat="47.680860" lon="1.409380">
        <time>2017-06-24T14:32:34Z</time>
      </trkpt>
      <trkpt lat="47.681050" lon="1.409770">
        <time>2017-06-24T14:32:35Z</time>
      </trkpt>
      <trkpt lat="47.681250" lon="1.410190">
        <time>2017-06-24T14:32:36Z</time>
      </trkpt>
      <trkpt lat="47.681420" lon="1.410560">
        <time>2017-06-24T14:32:37Z</time>
      </trkpt>
      <trkpt lat="47.681610" lon="1.410950">
        <time>2017-06-24T14:32:38Z</time>
      </trkpt>
      <trkpt lat="47.681800" lon="1.411370">
        <time>2017-06-24T14:32:39Z</time>
      </trkpt>
      <trkpt lat="47.681970" lon="1.411740">
        <time>2017-06-24T14:32:40Z</time>
      </trkpt>
      <trkpt lat="47.682160" lon="1.412140">
        <time>2017-06-24T14:32:41Z</time>
      </trkpt>
      <trkpt lat="47.682340" lon="1.412560">
        <time>2017-06-24T14:32:42Z</time>
      </trkpt>
      <trkpt lat="47.682510" lon="1.412940">
        <time>2017-06-24T14:32:43Z</time>
      </trkpt>
      <trkpt lat="47.682700" lon="1.413360">
        <time>2017-06-24T14:32:44Z</time>
      </trkpt>
      <trkpt lat="47.682860" lon="1.413730">
        <time>2017-06-24T14:32:45Z</time>
      </trkpt>
      <trkpt lat="47.683030" lon="1.414140">
        <time>2017-06-24T14:32:46Z</time>
      </trkpt>
      <trkpt lat="47.683210" lon="1.414560">
        <time>2017-06-24T14:32:47Z</time>
      </trkpt>
      <trkpt lat="47.683370" lon="1.414920">
        <time>2017-06-24T14:32:48Z</time>
      </trkpt>
      <trkpt lat="47.683550" lon="1.415310">
        <time>2017-06-24T14:32:49Z</time>
      </trkpt>
      <trkpt lat="47.683720" lon="1.415710">
        <time>2017-06-24T14:32:50Z</time>
      </trkpt>
      <trkpt lat="47.683900" lon="1.416100">
        <time>2017-06-24T14:32:51Z</time>
      </trkpt>
      <trkpt lat="47.684080" lon="1.416520">
        <time>2017-06-24T14:32:52Z</time>
      </trkpt>
      <trkpt lat="47.684230" lon="1.416910">
        <time>2017-06-24T14:32:53Z</time>
      </trkpt>
      <trkpt lat="47.684390" lon="1.417310">
        <time>2017-06-24T14:32:54Z</time>
      </trkpt>
      <trkpt lat="47.684570" lon="1.417750">
        <time>2017-06-24T14:32:55Z</time>
      </trkpt>
      <trkpt lat="47.684730" lon="1.418120">
        <time>2017-06-24T14:32:56Z</time>
      </trkpt>
      <trkpt lat="47.684890" lon="1.418500">
        <time>2017-06-24T14:32:57Z</time>
      </trkpt>
      <trkpt lat="47.685070" lon="1.418920">
        <time>2017-06-24T14:32:58Z</time>
      </trkpt>
      <trkpt lat="47.685240" lon="1.419280">
        <time>2017-06-24T14:32:59Z</time>
      </trkpt>
      <trkpt lat="47.685420" lon="1.419700">
        <time>2017-06-24T14:33:00Z</time>
      </trkpt>
      <trkpt lat="47.685580" lon="1.420060">
        <time>2017-06-24T14:33:01Z</time>
      </trkpt>
      <trkpt lat="47.685760" lon="1.420460">
        <time>2017-06-24T14:33:02Z</time>
      </trkpt>
      <trkpt lat="47.685940" lon="1.420880">
        <time>2017-06-24T14:33:03Z</time>
      </trkpt>
      <trkpt lat="47.686110" lon="1.421260">
        <time>2017-06-24T14:33:04Z</time>
      </trkpt>
      <trkpt lat="47.686280" lon="1.421650">
        <time>2017-06-24T14:33:05Z</time>
      </trkpt>
      <trkpt lat="47.686460" lon="1.422060">
        <time>2017-06-24T14:33:06Z</time>
      </trkpt>
      <trkpt lat="47.686630" lon="1.422460">
        <time>2017-06-24T14:33:07Z</time>
      </trkpt>
      <trkpt lat="47.686820" lon="1.422890">
        <time>2017-06-24T14:33:08Z</time>
      </trkpt>
      <trkpt lat="47.686990" lon="1.423270">
        <time>2017-06-24T14:33:09Z</time>
      </trkpt>
      <trkpt lat="47.687170" lon="1.423680">
        <time>2017-06-24T14:33:10Z</time>
      </trkpt>
      <trkpt lat="47.687360" lon="1.424110">
        <time>2017-06-24T14:33:11Z</time>
      </trkpt>
      <trkpt lat="47.687520" lon="1.424480">
        <time>2017-06-24T14:33:12Z</time>
      </trkpt>
      <trkpt lat="47.687700" lon="1.424870">
        <time>2017-06-24T14:33:13Z</time>
      </trkpt>
      <trkpt lat="47.687890" lon="1.425300">
        <time>2017-06-24T14:33:14Z</time>
      </trkpt>
      <trkpt lat="47.688060" lon="1.425680">
        <time>2017-06-24T14:33:15Z</time>
      </trkpt>
      <trkpt lat="47.688240" lon="1.426110">
        <time>2017-06-24T14:33:16Z</time>
      </trkpt>
      <trkpt lat="47.688410" lon="1.426490">
        <time>2017-06-24T14:33:17Z</time>
      </trkpt>
      <trkpt lat="47.688590" lon="1.426890">
        <time>2017-06-24T14:33:18Z</time>
      </trkpt>
      <trkpt lat="47.688790" lon="1.427310">
        <time>2017-06-24T14:33:19Z</time>
      </trkpt>
      <trkpt lat="47.688970" lon="1.427680">
        <time>2017-06-24T14:33:20Z</time>
      </trkpt>
      <trkpt lat="47.689160" lon="1.428070">
        <time>2017-06-24T14:33:21Z</time>
      </trkpt>
      <trkpt lat="47.689340" lon="1.428460">
        <time>2017-06-24T14:33:22Z</time>
      </trkpt>
      <trkpt lat="47.689530" lon="1.428840">
        <time>2017-06-24T14:33:23Z</time>
      </trkpt>
      <trkpt lat="47.689740" lon="1.429250">
        <time>2017-06-24T14:33:24Z</time>
      </trkpt>
      <trkpt lat="47.689910" lon="1.429590">
        <time>2017-06-24T14:33:25Z</time>
      </trkpt>
      <trkpt lat="47.690100" lon="1.429970">
        <time>2017-06-24T14:33:26Z</time>
      </trkpt>
      <trkpt lat="47.690310" lon="1.430370">
        <time>2017-06-24T14:33:27Z</time>
      </trkpt>
      <trkpt lat="47.690490" lon="1.430720">
        <time>2017-06-24T14:33:28Z</time>
      </trkpt>
      <trkpt lat="47.690680" lon="1.431080">
        <time>2017-06-24T14:33:29Z</time>
      </trkpt>
      <trkpt lat="47.690890" lon="1.431470">
        <time>2017-06-24T14:33:30Z</time>
      </trkpt>
      <trkpt lat="47.691080" lon="1.431810">
        <time>2017-06-24T14:33:31Z</time>
      </trkpt>
      <trkpt lat="47.691290" lon="1.432200">
        <time>2017-06-24T14:33:32Z</time>
      </trkpt>
      <trkpt lat="47.691480" lon="1.432540">
        <time>2017-06-24T14:33:33Z</time>
      </trkpt>
      <trkpt lat="47.691680" lon="1.432900">
        <time>2017-06-24T14:33:34Z</time>
      </trkpt>
      <trkpt lat="47.691900" lon="1.433280">
        <time>2017-06-24T14:33:35Z</time>
      </trkpt>
      <trkpt lat="47.692090" lon="1.433620">
        <time>2017-06-24T14:33:36Z</time>
      </trkpt>
      <trkpt lat="47.692290" lon="1.433980">
        <time>2017-06-24T14:33:37Z</time>
      </trkpt>
      <trkpt lat="47.692500" lon="1.434330">
        <time>2017-06-24T14:33:38Z</time>
      </trkpt>
      <trkpt lat="47.692700" lon="1.434680">
        <time>2017-06-24T14:33:39Z</time>
      </trkpt>
      <trkpt lat="47.692930" lon="1.435050">
        <time>2017-06-24T14:33:40Z</time>
      </trkpt>
      <trkpt lat="47.693130" lon="1.435370">
        <time>2017-06-24T14:33:41Z</time>
      </trkpt>
      <trkpt lat="47.693340" lon="1.435710">
        <time>2017-06-24T14:33:42Z</time>
      </trkpt>
      <trkpt lat="47.693570" lon="1.436080">
        <time>2017-06-24T14:33:43Z</time>
      </trkpt>
      <trkpt lat="47.693780" lon="1.436400">
        <time>2017-06-24T14:33:44Z</time>
      </trkpt>
      <trkpt lat="47.694000" lon="1.436750">
        <time>2017-06-24T14:33:45Z</time>
      </trkpt>
      <trkpt lat="47.694230" lon="1.437110">
        <time>2017-06-24T14:33:46Z</time>
      </trkpt>
      <trkpt lat="47.694430" lon="1.437420">
        <time>2017-06-24T14:33:47Z</time>
      </trkpt>
      <trkpt lat="47.694660" lon="1.437770">
        <time>2017-06-24T14:33:48Z</time>
      </trkpt>
      <trkpt lat="47.694860" lon="1.438070">
        <time>2017-06-24T14:33:49Z</time>
      </trkpt>
      <trkpt lat="47.695080" lon="1.438400">
        <time>2017-06-24T14:33:50Z</time>
      </trkpt>
      <trkpt lat="47.695310" lon="1.438730">
        <time>2017-06-24T14:33:51Z</time>
      </trkpt>
      <trkpt lat="47.695510" lon="1.439020">
        <time>2017-06-24T14:33:52Z</time>
      </trkpt>
      <trkpt lat="47.695730" lon="1.439330">
        <time>2017-06-24T14:33:53Z</time>
      </trkpt>
      <trkpt lat="47.695950" lon="1.439640">
        <time>2017-06-24T14:33:54Z</time>
      </trkpt>
      <trkpt lat="47.696170" lon="1.439940">
        <time>2017-06-24T14:33:55Z</time>
      </trkpt>
      <trkpt lat="47.696390" lon="1.440260">
        <time>2017-06-24T14:33:56Z</time>
      </trkpt>
      <trkpt lat="47.696600" lon="1.440540">
        <time>2017-06-24T14:33:57Z</time>
      </trkpt>
      <trkpt lat="47.696810" lon="1.440840">
        <time>2017-06-24T14:33:58Z</time>
      </trkpt>
      <trkpt lat="47.697050" lon="1.441160">
        <time>2017-06-24T14:33:59Z</time>
      </trkpt>
      <trkpt lat="47.697260" lon="1.441450">
        <time>2017-06-24T14:34:00Z</time>
      </trkpt>
      <trkpt lat="47.697490" lon="1.441750">
        <time>2017-06-24T14:34:01Z</time>
      </trkpt>
      <trkpt lat="47.697730" lon="1.442090">
        <time>2017-06-24T14:34:02Z</time>
      </trkpt>
      <trkpt lat="47.697950" lon="1.442390">
        <time>2017-06-24T14:34:03Z</time>
      </trkpt>
      <trkpt lat="47.698200" lon="1.442730">
        <time>2017-06-24T14:34:04Z</time>
      </trkpt>
      <trkpt lat="47.698400" lon="1.443030">
        <time>2017-06-24T14:34:05Z</time>
      </trkpt>
      <trkpt lat="47.698630" lon="1.443350">
        <time>2017-06-24T14:34:06Z</time>
      </trkpt>
      <trkpt lat="47.698880" lon="1.443700">
        <time>2017-06-24T14:34:07Z</time>
      </trkpt>
      <trkpt lat="47.699090" lon="1.444010">
        <time>2017-06-24T14:34:08Z</time>
      </trkpt>
      <trkpt lat="47.699310" lon="1.444340">
        <time>2017-06-24T14:34:09Z</time>
      </trkpt>
      <trkpt lat="47.699550" lon="1.444670">
        <time>2017-06-24T14:34:10Z</time>
      </trkpt>
      <trkpt lat="47.699780" lon="1.445000">
        <time>2017-06-24T14:34:11Z</time>
      </trkpt>
      <trkpt lat="47.700030" lon="1.445350">
        <time>2017-06-24T14:34:12Z</time>
      </trkpt>
      <trkpt lat="47.700240" lon="1.445650">
        <time>2017-06-24T14:34:13Z</time>
      </trkpt>
      <trkpt lat="47.700470" lon="1.445960">
        <time>2017-06-24T14:34:14Z</time>
      </trkpt>
      <trkpt lat="47.700720" lon="1.446310">
        <time>2017-06-24T14:34:15Z</time>
      </trkpt>
      <trkpt lat="47.700940" lon="1.446610">
        <time>2017-06-24T14:34:16Z</time>
      </trkpt>
      <trkpt lat="47.701160" lon="1.446930">
        <time>2017-06-24T14:34:17Z</time>
      </trkpt>
      <trkpt lat="47.701410" lon="1.447280">
        <time>2017-06-24T14:34:18Z</time>
      </trkpt>
      <trkpt lat="47.701620" lon="1.447570">
        <time>2017-06-24T14:34:19Z</time>
      </trkpt>
      <trkpt lat="47.701870" lon="1.447910">
        <time>2017-06-24T14:34:20Z</time>
      </trkpt>
      <trkpt lat="47.702080" lon="1.448210">
        <time>2017-06-24T14:34:21Z</time>
      </trkpt>
      <trkpt lat="47.702310" lon="1.448530">
        <time>2017-06-24T14:34:22Z</time>
      </trkpt>
      <trkpt lat="47.702550" lon="1.448870">
        <time>2017-06-24T14:34:23Z</time>
      </trkpt>
      <trkpt lat="47.702760" lon="1.449180">
        <time>2017-06-24T14:34:24Z</time>
      </trkpt>
      <trkpt lat="47.702980" lon="1.449500">
        <time>2017-06-24T14:34:25Z</time>
      </trkpt>
      <trkpt lat="47.703200" lon="1.449830">
        <time>2017-06-24T14:34:26Z</time>
      </trkpt>
      <trkpt lat="47.703410" lon="1.450160">
        <time>2017-06-24T14:34:27Z</time>
      </trkpt>
      <trkpt lat="47.703630" lon="1.450500">
        <time>2017-06-24T14:34:28Z</time>
      </trkpt>
      <trkpt lat="47.703830" lon="1.450800">
        <time>2017-06-24T14:34:29Z</time>
      </trkpt>
      <trkpt lat="47.704040" lon="1.451120">
        <time>2017-06-24T14:34:30Z</time>
      </trkpt>
      <trkpt lat="47.704260" lon="1.451480">
        <time>2017-06-24T14:34:31Z</time>
      </trkpt>
      <trkpt lat="47.704450" lon="1.451780">
        <time>2017-06-24T14:34:32Z</time>
      </trkpt>
      <trkpt lat="47.704650" lon="1.452110">
        <time>2017-06-24T14:34:33Z</time>
      </trkpt>
      <trkpt lat="47.704860" lon="1.452470">
        <time>2017-06-24T14:34:34Z</time>
      </trkpt>
      <trkpt lat="47.705050" lon="1.452780">
        <time>2017-06-24T14:34:35Z</time>
      </trkpt>
      <trkpt lat="47.705250" lon="1.453140">
        <time>2017-06-24T14:34:36Z</time>
      </trkpt>
      <trkpt lat="47.705440" lon="1.453450">
        <time>2017-06-24T14:34:37Z</time>
      </trkpt>
      <trkpt lat="47.705630" lon="1.453790">
        <time>2017-06-24T14:34:38Z</time>
      </trkpt>
      <trkpt lat="47.705830" lon="1.454140">
        <time>2017-06-24T14:34:39Z</time>
      </trkpt>
      <trkpt lat="47.706000" lon="1.454450">
        <time>2017-06-24T14:34:40Z</time>
      </trkpt>
      <trkpt lat="47.706190" lon="1.454790">
        <time>2017-06-24T14:34:41Z</time>
      </trkpt>
      <trkpt lat="47.706370" lon="1.455130">
        <time>2017-06-24T14:34:42Z</time>
      </trkpt>
      <trkpt lat="47.706550" lon="1.455480">
        <time>2017-06-24T14:34:43Z</time>
      </trkpt>
      <trkpt lat="47.706740" lon="1.455850">
        <time>2017-06-24T14:34:44Z</time>
      </trkpt>
      <trkpt lat="47.706910" lon="1.456180">
        <time>2017-06-24T14:34:45Z</time>
      </trkpt>
      <trkpt lat="47.707090" lon="1.456530">
        <time>2017-06-24T14:34:46Z</time>
      </trkpt>
      <trkpt lat="47.707290" lon="1.456910">
        <time>2017-06-24T14:34:47Z</time>
      </trkpt>
      <trkpt lat="47.707460" lon="1.457250">
        <time>2017-06-24T14:34:48Z</time>
      </trkpt>
      <trkpt lat="47.707640" lon="1.457610">
        <time>2017-06-24T14:34:49Z</time>
      </trkpt>
      <trkpt lat="47.707820" lon="1.458010">
        <time>2017-06-24T14:34:50Z</time>
      </trkpt>
      <trkpt lat="47.707990" lon="1.458360">
        <time>2017-06-24T14:34:51Z</time>
      </trkpt>
      <trkpt lat="47.708180" lon="1.458770">
        <time>2017-06-24T14:34:52Z</time>
      </trkpt>
      <trkpt lat="47.708350" lon="1.459130">
        <time>2017-06-24T14:34:53Z</time>
      </trkpt>
      <trkpt lat="47.708530" lon="1.459510">
        <time>2017-06-24T14:34:54Z</time>
      </trkpt>
      <trkpt lat="47.708720" lon="1.459930">
        <time>2017-06-24T14:34:55Z</time>
      </trkpt>
      <trkpt lat="47.708880" lon="1.460290">
        <time>2017-06-24T14:34:56Z</time>
      </trkpt>
      <trkpt lat="47.709050" lon="1.460680">
        <time>2017-06-24T14:34:57Z</time>
      </trkpt>
      <trkpt lat="47.709230" lon="1.461080">
        <time>2017-06-24T14:34:58Z</time>
      </trkpt>
      <trkpt lat="47.709390" lon="1.461470">
        <time>2017-06-24T14:34:59Z</time>
      </trkpt>
      <trkpt lat="47.709580" lon="1.461890">
        <time>2017-06-24T14:35:00Z</time>
      </trkpt>
      <trkpt lat="47.709740" lon="1.462260">
        <time>2017-06-24T14:35:01Z</time>
      </trkpt>
      <trkpt lat="47.709910" lon="1.462660">
        <time>2017-06-24T14:35:02Z</time>
      </trkpt>
      <trkpt lat="47.710090" lon="1.463100">
        <time>2017-06-24T14:35:03Z</time>
      </trkpt>
      <trkpt lat="47.710240" lon="1.463480">
        <time>2017-06-24T14:35:04Z</time>
      </trkpt>
      <trkpt lat="47.710400" lon="1.463890">
        <time>2017-06-24T14:35:05Z</time>
      </trkpt>
      <trkpt lat="47.710570" lon="1.464350">
        <time>2017-06-24T14:35:06Z</time>
      </trkpt>
      <trkpt lat="47.710720" lon="1.464740">
        <time>2017-06-24T14:35:07Z</time>
      </trkpt>
      <trkpt lat="47.710880" lon="1.465200">
        <time>2017-06-24T14:35:08Z</time>
      </trkpt>
      <trkpt lat="47.711010" lon="1.465600">
        <time>2017-06-24T14:35:09Z</time>
      </trkpt>
      <trkpt lat="47.711160" lon="1.466040">
        <time>2017-06-24T14:35:10Z</time>
      </trkpt>
      <trkpt lat="47.711310" lon="1.466500">
        <time>2017-06-24T14:35:11Z</time>
      </trkpt>
      <trkpt lat="47.711440" lon="1.466910">
        <time>2017-06-24T14:35:12Z</time>
      </trkpt>
      <trkpt lat="47.711590" lon="1.467350">
        <time>2017-06-24T14:35:13Z</time>
      </trkpt>
      <trkpt lat="47.711730" lon="1.467780">
        <time>2017-06-24T14:35:14Z</time>
      </trkpt>
      <trkpt lat="47.711880" lon="1.468210">
        <time>2017-06-24T14:35:15Z</time>
      </trkpt>
      <trkpt lat="47.712030" lon="1.468680">
        <time>2017-06-24T14:35:16Z</time>
      </trkpt>
      <trkpt lat="47.712170" lon="1.469080">
        <time>2017-06-24T14:35:17Z</time>
      </trkpt>
      <trkpt lat="47.712310" lon="1.469510">
        <time>2017-06-24T14:35:18Z</time>
      </trkpt>
      <trkpt lat="47.712470" lon="1.469970">
        <time>2017-06-24T14:35:19Z</time>
      </trkpt>
      <trkpt lat="47.712600" lon="1.470380">
        <time>2017-06-24T14:35:20Z</time>
      </trkpt>
      <trkpt lat="47.712750" lon="1.470810">
        <time>2017-06-24T14:35:21Z</time>
      </trkpt>
      <trkpt lat="47.712910" lon="1.471280">
        <time>2017-06-24T14:35:22Z</time>
      </trkpt>
      <trkpt lat="47.713050" lon="1.471690">
        <time>2017-06-24T14:35:23Z</time>
      </trkpt>
      <trkpt lat="47.713210" lon="1.472150">
        <time>2017-06-24T14:35:24Z</time>
      </trkpt>
      <trkpt lat="47.713350" lon="1.472570">
        <time>2017-06-24T14:35:25Z</time>
      </trkpt>
      <trkpt lat="47.713500" lon="1.473010">
        <time>2017-06-24T14:35:26Z</time>
      </trkpt>
      <trkpt lat="47.713650" lon="1.473480">
        <time>2017-06-24T14:35:27Z</time>
      </trkpt>
      <trkpt lat="47.713790" lon="1.473890">
        <time>2017-06-24T14:35:28Z</time>
      </trkpt>
      <trkpt lat="47.713940" lon="1.474330">
        <time>2017-06-24T14:35:29Z</time>
      </trkpt>
      <trkpt lat="47.714090" lon="1.474770">
        <time>2017-06-24T14:35:30Z</time>
      </trkpt>
      <trkpt lat="47.714240" lon="1.475210">
        <time>2017-06-24T14:35:31Z</time>
      </trkpt>
      <trkpt lat="47.714410" lon="1.475680">
        <time>2017-06-24T14:35:32Z</time>
      </trkpt>
      <trkpt lat="47.714550" lon="1.476090">
        <time>2017-06-24T14:35:33Z</time>
      </trkpt>
      <trkpt lat="47.714710" lon="1.476540">
        <time>2017-06-24T14:35:34Z</time>
      </trkpt>
      <trkpt lat="47.714890" lon="1.477010">
        <time>2017-06-24T14:35:35Z</time>
      </trkpt>
      <trkpt lat="47.715040" lon="1.477430">
        <time>2017-06-24T14:35:36Z</time>
      </trkpt>
      <trkpt lat="47.715210" lon="1.477870">
        <time>2017-06-24T14:35:37Z</time>
      </trkpt>
      <trkpt lat="47.715390" lon="1.478330">
        <time>2017-06-24T14:35:38Z</time>
      </trkpt>
      <trkpt lat="47.715540" lon="1.478740">
        <time>2017-06-24T14:35:39Z</time>
      </trkpt>
      <trkpt lat="47.715730" lon="1.479190">
        <time>2017-06-24T14:35:40Z</time>
      </trkpt>
      <trkpt lat="47.715890" lon="1.479590">
        <time>2017-06-24T14:35:41Z</time>
      </trkpt>
      <trkpt lat="47.716060" lon="1.480010">
        <time>2017-06-24T14:35:42Z</time>
      </trkpt>
      <trkpt lat="47.716240" lon="1.480450">
        <time>2017-06-24T14:35:43Z</time>
      </trkpt>
      <trkpt lat="47.716400" lon="1.480820">
        <time>2017-06-24T14:35:44Z</time>
      </trkpt>
      <trkpt lat="47.716570" lon="1.481230">
        <time>2017-06-24T14:35:45Z</time>
      </trkpt>
      <trkpt lat="47.716750" lon="1.481640">
        <time>2017-06-24T14:35:46Z</time>
      </trkpt>
      <trkpt lat="47.716930" lon="1.482050">
        <time>2017-06-24T14:35:47Z</time>
      </trkpt>
      <trkpt lat="47.717120" lon="1.482480">
        <time>2017-06-24T14:35:48Z</time>
      </trkpt>
      <trkpt lat="47.717290" lon="1.482850">
        <time>2017-06-24T14:35:49Z</time>
      </trkpt>
      <trkpt lat="47.717470" lon="1.483260">
        <time>2017-06-24T14:35:50Z</time>
      </trkpt>
      <trkpt lat="47.717660" lon="1.483680">
        <time>2017-06-24T14:35:51Z</time>
      </trkpt>
      <trkpt lat="47.717830" lon="1.484060">
        <time>2017-06-24T14:35:52Z</time>
      </trkpt>
      <trkpt lat="47.718020" lon="1.484450">
        <time>2017-06-24T14:35:53Z</time>
      </trkpt>
      <trkpt lat="47.718220" lon="1.484860">
        <time>2017-06-24T14:35:54Z</time>
      </trkpt>
      <trkpt lat="47.718390" lon="1.485220">
        <time>2017-06-24T14:35:55Z</time>
      </trkpt>
      <trkpt lat="47.718580" lon="1.485620">
        <time>2017-06-24T14:35:56Z</time>
      </trkpt>
      <trkpt lat="47.718750" lon="1.485970">
        <time>2017-06-24T14:35:57Z</time>
      </trkpt>
      <trkpt lat="47.718940" lon="1.486350">
        <time>2017-06-24T14:35:58Z</time>
      </trkpt>
      <trkpt lat="47.719140" lon="1.486750">
        <time>2017-06-24T14:35:59Z</time>
      </trkpt>
      <trkpt lat="47.719330" lon="1.487100">
        <time>2017-06-24T14:36:00Z</time>
      </trkpt>
      <trkpt lat="47.719520" lon="1.487480">
        <time>2017-06-24T14:36:01Z</time>
      </trkpt>
      <trkpt lat="47.719720" lon="1.487860">
        <time>2017-06-24T14:36:02Z</time>
      </trkpt>
      <trkpt lat="47.719930" lon="1.488240">
        <time>2017-06-24T14:36:03Z</time>
      </trkpt>
      <trkpt lat="47.720140" lon="1.488650">
        <time>2017-06-24T14:36:04Z</time>
      </trkpt>
      <trkpt lat="47.720340" lon="1.489000">
        <time>2017-06-24T14:36:05Z</time>
      </trkpt>
      <trkpt lat="47.720540" lon="1.489370">
        <time>2017-06-24T14:36:06Z</time>
      </trkpt>
      <trkpt lat="47.720770" lon="1.489770">
        <time>2017-06-24T14:36:07Z</time>
      </trkpt>
      <trkpt lat="47.720970" lon="1.490120">
        <time>2017-06-24T14:36:08Z</time>
      </trkpt>
      <trkpt lat="47.721190" lon="1.490490">
        <time>2017-06-24T14:36:09Z</time>
      </trkpt>
      <trkpt lat="47.721420" lon="1.490880">
        <time>2017-06-24T14:36:10Z</time>
      </trkpt>
      <trkpt lat="47.721630" lon="1.491230">
        <time>2017-06-24T14:36:11Z</time>
      </trkpt>
      <trkpt lat="47.721860" lon="1.491610">
        <time>2017-06-24T14:36:12Z</time>
      </trkpt>
      <trkpt lat="47.722070" lon="1.491950">
        <time>2017-06-24T14:36:13Z</time>
      </trkpt>
      <trkpt lat="47.722290" lon="1.492320">
        <time>2017-06-24T14:36:14Z</time>
      </trkpt>
      <trkpt lat="47.722520" lon="1.492700">
        <time>2017-06-24T14:36:15Z</time>
      </trkpt>
      <trkpt lat="47.722730" lon="1.493030">
        <time>2017-06-24T14:36:16Z</time>
      </trkpt>
      <trkpt lat="47.722950" lon="1.493390">
        <time>2017-06-24T14:36:17Z</time>
      </trkpt>
      <trkpt lat="47.723180" lon="1.493750">
        <time>2017-06-24T14:36:18Z</time>
      </trkpt>
      <trkpt lat="47.723400" lon="1.494100">
        <time>2017-06-24T14:36:19Z</time>
      </trkpt>
      <trkpt lat="47.723640" lon="1.494480">
        <time>2017-06-24T14:36:20Z</time>
      </trkpt>
      <trkpt lat="47.723850" lon="1.494820">
        <time>2017-06-24T14:36:21Z</time>
      </trkpt>
      <trkpt lat="47.724070" lon="1.495170">
        <time>2017-06-24T14:36:22Z</time>
      </trkpt>
      <trkpt lat="47.724310" lon="1.495540">
        <time>2017-06-24T14:36:23Z</time>
      </trkpt>
      <trkpt lat="47.724520" lon="1.495870">
        <time>2017-06-24T14:36:24Z</time>
      </trkpt>
      <trkpt lat="47.724750" lon="1.496210">
        <time>2017-06-24T14:36:25Z</time>
      </trkpt>
      <trkpt lat="47.724990" lon="1.496590">
        <time>2017-06-24T14:36:26Z</time>
      </trkpt>
      <trkpt lat="47.725190" lon="1.496910">
        <time>2017-06-24T14:36:27Z</time>
      </trkpt>
      <trkpt lat="47.725430" lon="1.497280">
        <time>2017-06-24T14:36:28Z</time>
      </trkpt>
      <trkpt lat="47.725630" lon="1.497610">
        <time>2017-06-24T14:36:29Z</time>
      </trkpt>
      <trkpt lat="47.725850" lon="1.497950">
        <time>2017-06-24T14:36:30Z</time>
      </trkpt>
      <trkpt lat="47.726080" lon="1.498320">
        <time>2017-06-24T14:36:31Z</time>
      </trkpt>
      <trkpt lat="47.726290" lon="1.498640">
        <time>2017-06-24T14:36:32Z</time>
      </trkpt>
      <trkpt lat="47.726500" lon="1.498980">
        <time>2017-06-24T14:36:33Z</time>
      </trkpt>
      <trkpt lat="47.726710" lon="1.499330">
        <time>2017-06-24T14:36:34Z</time>
      </trkpt>
      <trkpt lat="47.726930" lon="1.499680">
        <time>2017-06-24T14:36:35Z</time>
      </trkpt>
      <trkpt lat="47.727160" lon="1.500040">
        <time>2017-06-24T14:36:36Z</time>
      </trkpt>
      <trkpt lat="47.727360" lon="1.500360">
        <time>2017-06-24T14:36:37Z</time>
      </trkpt>
      <trkpt lat="47.727580" lon="1.500710">
        <time>2017-06-24T14:36:38Z</time>
      </trkpt>
      <trkpt lat="47.727810" lon="1.501090">
        <time>2017-06-24T14:36:39Z</time>
      </trkpt>
      <trkpt lat="47.728000" lon="1.501430">
        <time>2017-06-24T14:36:40Z</time>
      </trkpt>
      <trkpt lat="47.728220" lon="1.501790">
        <time>2017-06-24T14:36:41Z</time>
      </trkpt>
      <trkpt lat="47.728440" lon="1.502170">
        <time>2017-06-24T14:36:42Z</time>
      </trkpt>
      <trkpt lat="47.728640" lon="1.502510">
        <time>2017-06-24T14:36:43Z</time>
      </trkpt>
      <trkpt lat="47.728870" lon="1.502900">
        <time>2017-06-24T14:36:44Z</time>
      </trkpt>
      <trkpt lat="47.729060" lon="1.503240">
        <time>2017-06-24T14:36:45Z</time>
      </trkpt>
      <trkpt lat="47.729270" lon="1.503620">
        <time>2017-06-24T14:36:46Z</time>
      </trkpt>
      <trkpt lat="47.729490" lon="1.504020">
        <time>2017-06-24T14:36:47Z</time>
      </trkpt>
      <trkpt lat="47.729680" lon="1.504380">
        <time>2017-06-24T14:36:48Z</time>
      </trkpt>
      <trkpt lat="47.729880" lon="1.504760">
        <time>2017-06-24T14:36:49Z</time>
      </trkpt>
      <trkpt lat="47.730090" lon="1.505160">
        <time>2017-06-24T14:36:50Z</time>
      </trkpt>
      <trkpt lat="47.730290" lon="1.505560">
        <time>2017-06-24T14:36:51Z</time>
      </trkpt>
      <trkpt lat="47.730510" lon="1.505970">
        <time>2017-06-24T14:36:52Z</time>
      </trkpt>
      <trkpt lat="47.730690" lon="1.506340">
        <time>2017-06-24T14:36:53Z</time>
      </trkpt>
      <trkpt lat="47.730900" lon="1.506750">
        <time>2017-06-24T14:36:54Z</time>
      </trkpt>
      <trkpt lat="47.731110" lon="1.507160">
        <time>2017-06-24T14:36:55Z</time>
      </trkpt>
      <trkpt lat="47.731290" lon="1.507540">
        <time>2017-06-24T14:36:56Z</time>
      </trkpt>
      <trkpt lat="47.731490" lon="1.507940">
        <time>2017-06-24T14:36:57Z</time>
      </trkpt>
      <trkpt lat="47.731700" lon="1.508380">
        <time>2017-06-24T14:36:58Z</time>
      </trkpt>
      <trkpt lat="47.731890" lon="1.508760">
        <time>2017-06-24T14:36:59Z</time>
      </trkpt>
      <trkpt lat="47.732100" lon="1.509200">
        <time>2017-06-24T14:37:00Z</time>
      </trkpt>
      <trkpt lat="47.732280" lon="1.509580">
        <time>2017-06-24T14:37:01Z</time>
      </trkpt>
      <trkpt lat="47.732470" lon="1.510000">
        <time>2017-06-24T14:37:02Z</time>
      </trkpt>
      <trkpt lat="47.732680" lon="1.510440">
        <time>2017-06-24T14:37:03Z</time>
      </trkpt>
      <trkpt lat="47.732850" lon="1.510820">
        <time>2017-06-24T14:37:04Z</time>
      </trkpt>
      <trkpt lat="47.733040" lon="1.511230">
        <time>2017-06-24T14:37:05Z</time>
      </trkpt>
      <trkpt lat="47.733230" lon="1.511640">
        <time>2017-06-24T14:37:06Z</time>
      </trkpt>
      <trkpt lat="47.733420" lon="1.512050">
        <time>2017-06-24T14:37:07Z</time>
      </trkpt>
      <trkpt lat="47.733620" lon="1.512490">
        <time>2017-06-24T14:37:08Z</time>
      </trkpt>
      <trkpt lat="47.733790" lon="1.512870">
        <time>2017-06-24T14:37:09Z</time>
      </trkpt>
      <trkpt lat="47.733970" lon="1.513280">
        <time>2017-06-24T14:37:10Z</time>
      </trkpt>
      <trkpt lat="47.734170" lon="1.513720">
        <time>2017-06-24T14:37:11Z</time>
      </trkpt>
      <trkpt lat="47.734340" lon="1.514100">
        <time>2017-06-24T14:37:12Z</time>
      </trkpt>
      <trkpt lat="47.734520" lon="1.514510">
        <time>2017-06-24T14:37:13Z</time>
      </trkpt>
      <trkpt lat="47.734710" lon="1.514950">
        <time>2017-06-24T14:37:14Z</time>
      </trkpt>
      <trkpt lat="47.734870" lon="1.515330">
        <time>2017-06-24T14:37:15Z</time>
      </trkpt>
      <trkpt lat="47.735060" lon="1.515770">
        <time>2017-06-24T14:37:16Z</time>
      </trkpt>
      <trkpt lat="47.735230" lon="1.516140">
        <time>2017-06-24T14:37:17Z</time>
      </trkpt>
      <trkpt lat="47.735390" lon="1.516540">
        <time>2017-06-24T14:37:18Z</time>
      </trkpt>
      <trkpt lat="47.735570" lon="1.516970">
        <time>2017-06-24T14:37:19Z</time>
      </trkpt>
      <trkpt lat="47.735750" lon="1.517350">
        <time>2017-06-24T14:37:20Z</time>
      </trkpt>
      <trkpt lat="47.735920" lon="1.517760">
        <time>2017-06-24T14:37:21Z</time>
      </trkpt>
      <trkpt lat="47.736100" lon="1.518170">
        <time>2017-06-24T14:37:22Z</time>
      </trkpt>
      <trkpt lat="47.736280" lon="1.518570">
        <time>2017-06-24T14:37:23Z</time>
      </trkpt>
      <trkpt lat="47.736470" lon="1.519010">
        <time>2017-06-24T14:37:24Z</time>
      </trkpt>
      <trkpt lat="47.736640" lon="1.519380">
        <time>2017-06-24T14:37:25Z</time>
      </trkpt>
      <trkpt lat="47.736810" lon="1.519780">
        <time>2017-06-24T14:37:26Z</time>
      </trkpt>
      <trkpt lat="47.737000" lon="1.520210">
        <time>2017-06-24T14:37:27Z</time>
      </trkpt>
      <trkpt lat="47.737170" lon="1.520580">
        <time>2017-06-24T14:37:28Z</time>
      </trkpt>
      <trkpt lat="47.737350" lon="1.520970">
        <time>2017-06-24T14:37:29Z</time>
      </trkpt>
      <trkpt lat="47.737540" lon="1.521390">
        <time>2017-06-24T14:37:30Z</time>
      </trkpt>
      <trkpt lat="47.737710" lon="1.521750">
        <time>2017-06-24T14:37:31Z</time>
      </trkpt>
      <trkpt lat="47.737910" lon="1.522160">
        <time>2017-06-24T14:37:32Z</time>
      </trkpt>
      <trkpt lat="47.738070" lon="1.522510">
        <time>2017-06-24T14:37:33Z</time>
      </trkpt>
      <trkpt lat="47.738250" lon="1.522890">
        <time>2017-06-24T14:37:34Z</time>
      </trkpt>
      <trkpt lat="47.738440" lon="1.523300">
        <time>2017-06-24T14:37:35Z</time>
      </trkpt>
      <trkpt lat="47.738620" lon="1.523660">
        <time>2017-06-24T14:37:36Z</time>
      </trkpt>
      <trkpt lat="47.738800" lon="1.524040">
        <time>2017-06-24T14:37:37Z</time>
      </trkpt>
      <trkpt lat="47.738990" lon="1.524410">
        <time>2017-06-24T14:37:38Z</time>
      </trkpt>
      <trkpt lat="47.739180" lon="1.524780">
        <time>2017-06-24T14:37:39Z</time>
      </trkpt>
      <trkpt lat="47.739380" lon="1.525180">
        <time>2017-06-24T14:37:40Z</time>
      </trkpt>
      <trkpt lat="47.739550" lon="1.525530">
        <time>2017-06-24T14:37:41Z</time>
      </trkpt>
      <trkpt lat="47.739750" lon="1.525900">
        <time>2017-06-24T14:37:42Z</time>
      </trkpt>
      <trkpt lat="47.739960" lon="1.526310">
        <time>2017-06-24T14:37:43Z</time>
      </trkpt>
      <trkpt lat="47.740140" lon="1.526660">
        <time>2017-06-24T14:37:44Z</time>
      </trkpt>
      <trkpt lat="47.740340" lon="1.527030">
        <time>2017-06-24T14:37:45Z</time>
      </trkpt>
      <trkpt lat="47.740550" lon="1.527430">
        <time>2017-06-24T14:37:46Z</time>
      </trkpt>
      <trkpt lat="47.740730" lon="1.527780">
        <time>2017-06-24T14:37:47Z</time>
      </trkpt>
      <trkpt lat="47.740940" lon="1.528160">
        <time>2017-06-24T14:37:48Z</time>
      </trkpt>
      <trkpt lat="47.741130" lon="1.528500">
        <time>2017-06-24T14:37:49Z</time>
      </trkpt>
      <trkpt lat="47.741330" lon="1.528860">
        <time>2017-06-24T14:37:50Z</time>
      </trkpt>
      <trkpt lat="47.741540" lon="1.529240">
        <time>2017-06-24T14:37:51Z</time>
      </trkpt>
      <trkpt lat="47.741730" lon="1.529570">
        <time>2017-06-24T14:37:52Z</time>
      </trkpt>
      <trkpt lat="47.741930" lon="1.529930">
        <time>2017-06-24T14:37:53Z</time>
      </trkpt>
      <trkpt lat="47.742140" lon="1.530280">
        <time>2017-06-24T14:37:54Z</time>
      </trkpt>
      <trkpt lat="47.742340" lon="1.530630">
        <time>2017-06-24T14:37:55Z</time>
      </trkpt>
      <trkpt lat="47.742570" lon="1.531010">
        <time>2017-06-24T14:37:56Z</time>
      </trkpt>
      <trkpt lat="47.742760" lon="1.531340">
        <time>2017-06-24T14:37:57Z</time>
      </trkpt>
      <trkpt lat="47.742970" lon="1.531700">
        <time>2017-06-24T14:37:58Z</time>
      </trkpt>
      <trkpt lat="47.743200" lon="1.532080">
        <time>2017-06-24T14:37:59Z</time>
      </trkpt>
      <trkpt lat="47.743400" lon="1.532410">
        <time>2017-06-24T14:38:00Z</time>
      </trkpt>
      <trkpt lat="47.743610" lon="1.532760">
        <time>2017-06-24T14:38:01Z</time>
      </trkpt>
      <trkpt lat="47.743840" lon="1.533140">
        <time>2017-06-24T14:38:02Z</time>
      </trkpt>
      <trkpt lat="47.744040" lon="1.533480">
        <time>2017-06-24T14:38:03Z</time>
      </trkpt>
      <trkpt lat="47.744270" lon="1.533840">
        <time>2017-06-24T14:38:04Z</time>
      </trkpt>
      <trkpt lat="47.744470" lon="1.534160">
        <time>2017-06-24T14:38:05Z</time>
      </trkpt>
      <trkpt lat="47.744690" lon="1.534500">
        <time>2017-06-24T14:38:06Z</time>
      </trkpt>
      <trkpt lat="47.744920" lon="1.534860">
        <time>2017-06-24T14:38:07Z</time>
      </trkpt>
      <trkpt lat="47.745130" lon="1.535170">
        <time>2017-06-24T14:38:08Z</time>
      </trkpt>
      <trkpt lat="47.745350" lon="1.535510">
        <time>2017-06-24T14:38:09Z</time>
      </trkpt>
      <trkpt lat="47.745580" lon="1.535860">
        <time>2017-06-24T14:38:10Z</time>
      </trkpt>
      <trkpt lat="47.745800" lon="1.536200">
        <time>2017-06-24T14:38:11Z</time>
      </trkpt>
      <trkpt lat="47.746050" lon="1.536560">
        <time>2017-06-24T14:38:12Z</time>
      </trkpt>
      <trkpt lat="47.746260" lon="1.536880">
        <time>2017-06-24T14:38:13Z</time>
      </trkpt>
      <trkpt lat="47.746490" lon="1.537220">
        <time>2017-06-24T14:38:14Z</time>
      </trkpt>
      <trkpt lat="47.746740" lon="1.537580">
        <time>2017-06-24T14:38:15Z</time>
      </trkpt>
      <trkpt lat="47.746950" lon="1.537890">
        <time>2017-06-24T14:38:16Z</time>
      </trkpt>
      <trkpt lat="47.747180" lon="1.538210">
        <time>2017-06-24T14:38:17Z</time>
      </trkpt>
      <trkpt lat="47.747420" lon="1.538560">
        <time>2017-06-24T14:38:18Z</time>
      </trkpt>
      <trkpt lat="47.747630" lon="1.538860">
        <time>2017-06-24T14:38:19Z</time>
      </trkpt>
      <trkpt lat="47.747870" lon="1.539200">
        <time>2017-06-24T14:38:20Z</time>
      </trkpt>
      <trkpt lat="47.748090" lon="1.539500">
        <time>2017-06-24T14:38:21Z</time>
      </trkpt>
      <trkpt lat="47.748320" lon="1.539810">
        <time>2017-06-24T14:38:22Z</time>
      </trkpt>
      <trkpt lat="47.748570" lon="1.540130">
        <time>2017-06-24T14:38:23Z</time>
      </trkpt>
      <trkpt lat="47.748780" lon="1.540410">
        <time>2017-06-24T14:38:24Z</time>
      </trkpt>
      <trkpt lat="47.749000" lon="1.540700">
        <time>2017-06-24T14:38:25Z</time>
      </trkpt>
      <trkpt lat="47.749220" lon="1.540980">
        <time>2017-06-24T14:38:26Z</time>
      </trkpt>
      <trkpt lat="47.749430" lon="1.541270">
        <time>2017-06-24T14:38:27Z</time>
      </trkpt>
      <trkpt lat="47.749660" lon="1.541560">
        <time>2017-06-24T14:38:28Z</time>
      </trkpt>
      <trkpt lat="47.749860" lon="1.541820">
        <time>2017-06-24T14:38:29Z</time>
      </trkpt>
      <trkpt lat="47.750080" lon="1.542100">
        <time>2017-06-24T14:38:30Z</time>
      </trkpt>
      <trkpt lat="47.750320" lon="1.542400">
        <time>2017-06-24T14:38:31Z</time>
      </trkpt>
      <trkpt lat="47.750530" lon="1.542660">
        <time>2017-06-24T14:38:32Z</time>
      </trkpt>
      <trkpt lat="47.750750" lon="1.542940">
        <time>2017-06-24T14:38:33Z</time>
      </trkpt>
      <trkpt lat="47.750990" lon="1.543250">
        <time>2017-06-24T14:38:34Z</time>
      </trkpt>
      <trkpt lat="47.751210" lon="1.543540">
        <time>2017-06-24T14:38:35Z</time>
      </trkpt>
      <trkpt lat="47.751440" lon="1.543860">
        <time>2017-06-24T14:38:36Z</time>
      </trkpt>
      <trkpt lat="47.751660" lon="1.544130">
        <time>2017-06-24T14:38:37Z</time>
      </trkpt>
      <trkpt lat="47.751880" lon="1.544420">
        <time>2017-06-24T14:38:38Z</time>
      </trkpt>
      <trkpt lat="47.752130" lon="1.544740">
        <time>2017-06-24T14:38:39Z</time>
      </trkpt>
      <trkpt lat="47.752340" lon="1.545010">
        <time>2017-06-24T14:38:40Z</time>
      </trkpt>
      <trkpt lat="47.752570" lon="1.545300">
        <time>2017-06-24T14:38:41Z</time>
      </trkpt>
      <trkpt lat="47.752800" lon="1.545590">
        <time>2017-06-24T14:38:42Z</time>
      </trkpt>
      <trkpt lat="47.753040" lon="1.545890">
        <time>2017-06-24T14:38:43Z</time>
      </trkpt>
      <trkpt lat="47.753290" lon="1.546220">
        <time>2017-06-24T14:38:44Z</time>
      </trkpt>
      <trkpt lat="47.753520" lon="1.546500">
        <time>2017-06-24T14:38:45Z</time>
      </trkpt>
      <trkpt lat="47.753760" lon="1.546810">
        <time>2017-06-24T14:38:46Z</time>
      </trkpt>
      <trkpt lat="47.754020" lon="1.547130">
        <time>2017-06-24T14:38:47Z</time>
      </trkpt>
      <trkpt lat="47.754250" lon="1.547430">
        <time>2017-06-24T14:38:48Z</time>
      </trkpt>
      <trkpt lat="47.754490" lon="1.547750">
        <time>2017-06-24T14:38:49Z</time>
      </trkpt>
      <trkpt lat="47.754750" lon="1.548080">
        <time>2017-06-24T14:38:50Z</time>
      </trkpt>
      <trkpt lat="47.754980" lon="1.548380">
        <time>2017-06-24T14:38:51Z</time>
      </trkpt>
      <trkpt lat="47.755240" lon="1.548700">
        <time>2017-06-24T14:38:52Z</time>
      </trkpt>
      <trkpt lat="47.755470" lon="1.548990">
        <time>2017-06-24T14:38:53Z</time>
      </trkpt>
      <trkpt lat="47.755710" lon="1.549300">
        <time>2017-06-24T14:38:54Z</time>
      </trkpt>
      <trkpt lat="47.755950" lon="1.549630">
        <time>2017-06-24T14:38:55Z</time>
      </trkpt>
      <trkpt lat="47.756160" lon="1.549910">
        <time>2017-06-24T14:38:56Z</time>
      </trkpt>
      <trkpt lat="47.756380" lon="1.550200">
        <time>2017-06-24T14:38:57Z</time>
      </trkpt>
      <trkpt lat="47.756600" lon="1.550500">
        <time>2017-06-24T14:38:58Z</time>
      </trkpt>
      <trkpt lat="47.756820" lon="1.550790">
        <time>2017-06-24T14:38:59Z</time>
      </trkpt>
      <trkpt lat="47.757050" lon="1.551110">
        <time>2017-06-24T14:39:00Z</time>
      </trkpt>
      <trkpt lat="47.757250" lon="1.551390">
        <time>2017-06-24T14:39:01Z</time>
      </trkpt>
      <trkpt lat="47.757470" lon="1.551680">
        <time>2017-06-24T14:39:02Z</time>
      </trkpt>
      <trkpt lat="47.757700" lon="1.552000">
        <time>2017-06-24T14:39:03Z</time>
      </trkpt>
      <trkpt lat="47.757900" lon="1.552280">
        <time>2017-06-24T14:39:04Z</time>
      </trkpt>
      <trkpt lat="47.758130" lon="1.552590">
        <time>2017-06-24T14:39:05Z</time>
      </trkpt>
      <trkpt lat="47.758360" lon="1.552920">
        <time>2017-06-24T14:39:06Z</time>
      </trkpt>
      <trkpt lat="47.758570" lon="1.553220">
        <time>2017-06-24T14:39:07Z</time>
      </trkpt>
      <trkpt lat="47.758810" lon="1.553560">
        <time>2017-06-24T14:39:08Z</time>
      </trkpt>
      <trkpt lat="47.759020" lon="1.553860">
        <time>2017-06-24T14:39:09Z</time>
      </trkpt>
      <trkpt lat="47.759240" lon="1.554180">
        <time>2017-06-24T14:39:10Z</time>
      </trkpt>
      <trkpt lat="47.759470" lon="1.554520">
        <time>2017-06-24T14:39:11Z</time>
      </trkpt>
      <trkpt lat="47.759680" lon="1.554810">
        <time>2017-06-24T14:39:12Z</time>
      </trkpt>
      <trkpt lat="47.759890" lon="1.555130">
        <time>2017-06-24T14:39:13Z</time>
      </trkpt>
      <trkpt lat="47.760100" lon="1.555450">
        <time>2017-06-24T14:39:14Z</time>
      </trkpt>
      <trkpt lat="47.760320" lon="1.555770">
        <time>2017-06-24T14:39:15Z</time>
      </trkpt>
      <trkpt lat="47.760550" lon="1.556100">
        <time>2017-06-24T14:39:16Z</time>
      </trkpt>
      <trkpt lat="47.760750" lon="1.556400">
        <time>2017-06-24T14:39:17Z</time>
      </trkpt>
      <trkpt lat="47.760970" lon="1.556720">
        <time>2017-06-24T14:39:18Z</time>
      </trkpt>
      <trkpt lat="47.761190" lon="1.557060">
        <time>2017-06-24T14:39:19Z</time>
      </trkpt>
      <trkpt lat="47.761390" lon="1.557370">
        <time>2017-06-24T14:39:20Z</time>
      </trkpt>
      <trkpt lat="47.761600" lon="1.557700">
        <time>2017-06-24T14:39:21Z</time>
      </trkpt>
      <trkpt lat="47.761820" lon="1.558060">
        <time>2017-06-24T14:39:22Z</time>
      </trkpt>
      <trkpt lat="47.762020" lon="1.558370">
        <time>2017-06-24T14:39:23Z</time>
      </trkpt>
      <trkpt lat="47.762250" lon="1.558730">
        <time>2017-06-24T14:39:24Z</time>
      </trkpt>
      <trkpt lat="47.762440" lon="1.559040">
        <time>2017-06-24T14:39:25Z</time>
      </trkpt>
      <trkpt lat="47.762650" lon="1.559390">
        <time>2017-06-24T14:39:26Z</time>
      </trkpt>
      <trkpt lat="47.762870" lon="1.559750">
        <time>2017-06-24T14:39:27Z</time>
      </trkpt>
      <trkpt lat="47.763070" lon="1.560080">
        <time>2017-06-24T14:39:28Z</time>
      </trkpt>
      <trkpt lat="47.763280" lon="1.560430">
        <time>2017-06-24T14:39:29Z</time>
      </trkpt>
      <trkpt lat="47.763490" lon="1.560780">
        <time>2017-06-24T14:39:30Z</time>
      </trkpt>
      <trkpt lat="47.763700" lon="1.561130">
        <time>2017-06-24T14:39:31Z</time>
      </trkpt>
      <trkpt lat="47.763920" lon="1.561510">
        <time>2017-06-24T14:39:32Z</time>
      </trkpt>
      <trkpt lat="47.764120" lon="1.561840">
        <time>2017-06-24T14:39:33Z</time>
      </trkpt>
      <trkpt lat="47.764320" lon="1.562200">
        <time>2017-06-24T14:39:34Z</time>
      </trkpt>
      <trkpt lat="47.764540" lon="1.562590">
        <time>2017-06-24T14:39:35Z</time>
      </trkpt>
      <trkpt lat="47.764730" lon="1.562930">
        <time>2017-06-24T14:39:36Z</time>
      </trkpt>
      <trkpt lat="47.764940" lon="1.563290">
        <time>2017-06-24T14:39:37Z</time>
      </trkpt>
      <trkpt lat="47.765160" lon="1.563690">
        <time>2017-06-24T14:39:38Z</time>
      </trkpt>
      <trkpt lat="47.765360" lon="1.564040">
        <time>2017-06-24T14:39:39Z</time>
      </trkpt>
      <trkpt lat="47.765590" lon="1.564440">
        <time>2017-06-24T14:39:40Z</time>
      </trkpt>
      <trkpt lat="47.765790" lon="1.564790">
        <time>2017-06-24T14:39:41Z</time>
      </trkpt>
      <trkpt lat="47.766000" lon="1.565180">
        <time>2017-06-24T14:39:42Z</time>
      </trkpt>
      <trkpt lat="47.766220" lon="1.565590">
        <time>2017-06-24T14:39:43Z</time>
      </trkpt>
      <trkpt lat="47.766420" lon="1.565960">
        <time>2017-06-24T14:39:44Z</time>
      </trkpt>
      <trkpt lat="47.766620" lon="1.566340">
        <time>2017-06-24T14:39:45Z</time>
      </trkpt>
      <trkpt lat="47.766830" lon="1.566740">
        <time>2017-06-24T14:39:46Z</time>
      </trkpt>
      <trkpt lat="47.767040" lon="1.567130">
        <time>2017-06-24T14:39:47Z</time>
      </trkpt>
      <trkpt lat="47.767260" lon="1.567550">
        <time>2017-06-24T14:39:48Z</time>
      </trkpt>
      <trkpt lat="47.767450" lon="1.567920">
        <time>2017-06-24T14:39:49Z</time>
      </trkpt>
      <trkpt lat="47.767650" lon="1.568310">
        <time>2017-06-24T14:39:50Z</time>
      </trkpt>
      <trkpt lat="47.767850" lon="1.568710">
        <time>2017-06-24T14:39:51Z</time>
      </trkpt>
      <trkpt lat="47.768020" lon="1.569050">
        <time>2017-06-24T14:39:52Z</time>
      </trkpt>
      <trkpt lat="47.768210" lon="1.569420">
        <time>2017-06-24T14:39:53Z</time>
      </trkpt>
      <trkpt lat="47.768410" lon="1.569810">
        <time>2017-06-24T14:39:54Z</time>
      </trkpt>
      <trkpt lat="47.768580" lon="1.570160">
        <time>2017-06-24T14:39:55Z</time>
      </trkpt>
      <trkpt lat="47.768780" lon="1.570570">
        <time>2017-06-24T14:39:56Z</time>
      </trkpt>
      <trkpt lat="47.768960" lon="1.570920">
        <time>2017-06-24T14:39:57Z</time>
      </trkpt>
      <trkpt lat="47.769150" lon="1.571310">
        <time>2017-06-24T14:39:58Z</time>
      </trkpt>
      <trkpt lat="47.769360" lon="1.571730">
        <time>2017-06-24T14:39:59Z</time>
      </trkpt>
      <trkpt lat="47.769540" lon="1.572100">
        <time>2017-06-24T14:40:00Z</time>
      </trkpt>
      <trkpt lat="47.769740" lon="1.572490">
        <time>2017-06-24T14:40:01Z</time>
      </trkpt>
      <trkpt lat="47.769930" lon="1.572890">
        <time>2017-06-24T14:40:02Z</time>
      </trkpt>
      <trkpt lat="47.770130" lon="1.573290">
        <time>2017-06-24T14:40:03Z</time>
      </trkpt>
      <trkpt lat="47.770340" lon="1.573720">
        <time>2017-06-24T14:40:04Z</time>
      </trkpt>
      <trkpt lat="47.770520" lon="1.574090">
        <time>2017-06-24T14:40:05Z</time>
      </trkpt>
      <trkpt lat="47.770710" lon="1.574490">
        <time>2017-06-24T14:40:06Z</time>
      </trkpt>
      <trkpt lat="47.770920" lon="1.574910">
        <time>2017-06-24T14:40:07Z</time>
      </trkpt>
      <trkpt lat="47.771100" lon="1.575280">
        <time>2017-06-24T14:40:08Z</time>
      </trkpt>
      <trkpt lat="47.771290" lon="1.575670">
        <time>2017-06-24T14:40:09Z</time>
      </trkpt>
      <trkpt lat="47.771490" lon="1.576080">
        <time>2017-06-24T14:40:10Z</time>
      </trkpt>
      <trkpt lat="47.771660" lon="1.576440">
        <time>2017-06-24T14:40:11Z</time>
      </trkpt>
      <trkpt lat="47.771860" lon="1.576840">
        <time>2017-06-24T14:40:12Z</time>
      </trkpt>
      <trkpt lat="47.772040" lon="1.577180">
        <time>2017-06-24T14:40:13Z</time>
      </trkpt>
      <trkpt lat="47.772220" lon="1.577560">
        <time>2017-06-24T14:40:14Z</time>
      </trkpt>
      <trkpt lat="47.772420" lon="1.577960">
        <time>2017-06-24T14:40:15Z</time>
      </trkpt>
      <trkpt lat="47.772600" lon="1.578320">
        <time>2017-06-24T14:40:16Z</time>
      </trkpt>
      <trkpt lat="47.772790" lon="1.578710">
        <time>2017-06-24T14:40:17Z</time>
      </trkpt>
      <trkpt lat="47.772980" lon="1.579090">
        <time>2017-06-24T14:40:18Z</time>
      </trkpt>
      <trkpt lat="47.773170" lon="1.579490">
        <time>2017-06-24T14:40:19Z</time>
      </trkpt>
      <trkpt lat="47.773380" lon="1.579900">
        <time>2017-06-24T14:40:20Z</time>
      </trkpt>
      <trkpt lat="47.773570" lon="1.580260">
        <time>2017-06-24T14:40:21Z</time>
      </trkpt>
      <trkpt lat="47.773770" lon="1.580650">
        <time>2017-06-24T14:40:22Z</time>
      </trkpt>
      <trkpt lat="47.773980" lon="1.581060">
        <time>2017-06-24T14:40:23Z</time>
      </trkpt>
      <trkpt lat="47.774170" lon="1.581410">
        <time>2017-06-24T14:40:24Z</time>
      </trkpt>
      <trkpt lat="47.774380" lon="1.581790">
        <time>2017-06-24T14:40:25Z</time>
      </trkpt>
      <trkpt lat="47.774590" lon="1.582190">
        <time>2017-06-24T14:40:26Z</time>
      </trkpt>
      <trkpt lat="47.774780" lon="1.582540">
        <time>2017-06-24T14:40:27Z</time>
      </trkpt>
      <trkpt lat="47.775000" lon="1.582930">
        <time>2017-06-24T14:40:28Z</time>
      </trkpt>
      <trkpt lat="47.775190" lon="1.583260">
        <time>2017-06-24T14:40:29Z</time>
      </trkpt>
      <trkpt lat="47.775400" lon="1.583630">
        <time>2017-06-24T14:40:30Z</time>
      </trkpt>
      <trkpt lat="47.775620" lon="1.584020">
        <time>2017-06-24T14:40:31Z</time>
      </trkpt>
      <trkpt lat="47.775810" lon="1.584370">
        <time>2017-06-24T14:40:32Z</time>
      </trkpt>
      <trkpt lat="47.776020" lon="1.584730">
        <time>2017-06-24T14:40:33Z</time>
      </trkpt>
      <trkpt lat="47.776230" lon="1.585090">
        <time>2017-06-24T14:40:34Z</time>
      </trkpt>
      <trkpt lat="47.776440" lon="1.585450">
        <time>2017-06-24T14:40:35Z</time>
      </trkpt>
      <trkpt lat="47.776670" lon="1.585840">
        <time>2017-06-24T14:40:36Z</time>
      </trkpt>
      <trkpt lat="47.776870" lon="1.586170">
        <time>2017-06-24T14:40:37Z</time>
      </trkpt>
      <trkpt lat="47.777080" lon="1.586550">
        <time>2017-06-24T14:40:38Z</time>
      </trkpt>
      <trkpt lat="47.777290" lon="1.586930">
        <time>2017-06-24T14:40:39Z</time>
      </trkpt>
      <trkpt lat="47.777490" lon="1.587270">
        <time>2017-06-24T14:40:40Z</time>
      </trkpt>
      <trkpt lat="47.777710" lon="1.587630">
        <time>2017-06-24T14:40:41Z</time>
      </trkpt>
      <trkpt lat="47.777940" lon="1.588010">
        <time>2017-06-24T14:40:42Z</time>
      </trkpt>
      <trkpt lat="47.778150" lon="1.588340">
        <time>2017-06-24T14:40:43Z</time>
      </trkpt>
      <trkpt lat="47.778380" lon="1.588700">
        <time>2017-06-24T14:40:44Z</time>
      </trkpt>
      <trkpt lat="47.778590" lon="1.589030">
        <time>2017-06-24T14:40:45Z</time>
      </trkpt>
      <trkpt lat="47.778810" lon="1.589370">
        <time>2017-06-24T14:40:46Z</time>
      </trkpt>
      <trkpt lat="47.779050" lon="1.589720">
        <time>2017-06-24T14:40:47Z</time>
      </trkpt>
      <trkpt lat="47.779250" lon="1.590030">
        <time>2017-06-24T14:40:48Z</time>
      </trkpt>
      <trkpt lat="47.779480" lon="1.590360">
        <time>2017-06-24T14:40:49Z</time>
      </trkpt>
      <trkpt lat="47.779690" lon="1.590690">
        <time>2017-06-24T14:40:50Z</time>
      </trkpt>
      <trkpt lat="47.779910" lon="1.591010">
        <time>2017-06-24T14:40:51Z</time>
      </trkpt>
      <trkpt lat="47.780140" lon="1.591350">
        <time>2017-06-24T14:40:52Z</time>
      </trkpt>
      <trkpt lat="47.780350" lon="1.591660">
        <time>2017-06-24T14:40:53Z</time>
      </trkpt>
      <trkpt lat="47.780580" lon="1.591990">
        <time>2017-06-24T14:40:54Z</time>
      </trkpt>
      <trkpt lat="47.780820" lon="1.592340">
        <time>2017-06-24T14:40:55Z</time>
      </trkpt>
      <trkpt lat="47.781040" lon="1.592650">
        <time>2017-06-24T14:40:56Z</time>
      </trkpt>
      <trkpt lat="47.781270" lon="1.592970">
        <time>2017-06-24T14:40:57Z</time>
      </trkpt>
      <trkpt lat="47.781520" lon="1.593320">
        <time>2017-06-24T14:40:58Z</time>
      </trkpt>
      <trkpt lat="47.781740" lon="1.593630">
        <time>2017-06-24T14:40:59Z</time>
      </trkpt>
      <trkpt lat="47.781990" lon="1.593960">
        <time>2017-06-24T14:41:00Z</time>
      </trkpt>
      <trkpt lat="47.782220" lon="1.594260">
        <time>2017-06-24T14:41:01Z</time>
      </trkpt>
      <trkpt lat="47.782450" lon="1.594580">
        <time>2017-06-24T14:41:02Z</time>
      </trkpt>
      <trkpt lat="47.782700" lon="1.594910">
        <time>2017-06-24T14:41:03Z</time>
      </trkpt>
      <trkpt lat="47.782920" lon="1.595210">
        <time>2017-06-24T14:41:04Z</time>
      </trkpt>
      <trkpt lat="47.783150" lon="1.595520">
        <time>2017-06-24T14:41:05Z</time>
      </trkpt>
      <trkpt lat="47.783390" lon="1.595820">
        <time>2017-06-24T14:41:06Z</time>
      </trkpt>
      <trkpt lat="47.783620" lon="1.596130">
        <time>2017-06-24T14:41:07Z</time>
      </trkpt>
      <trkpt lat="47.783880" lon="1.596460">
        <time>2017-06-24T14:41:08Z</time>
      </trkpt>
      <trkpt lat="47.784110" lon="1.596750">
        <time>2017-06-24T14:41:09Z</time>
      </trkpt>
      <trkpt lat="47.784360" lon="1.597060">
        <time>2017-06-24T14:41:10Z</time>
      </trkpt>
      <trkpt lat="47.784630" lon="1.597380">
        <time>2017-06-24T14:41:11Z</time>
      </trkpt>
      <trkpt lat="47.784860" lon="1.597670">
        <time>2017-06-24T14:41:12Z</time>
      </trkpt>
      <trkpt lat="47.785100" lon="1.597970">
        <time>2017-06-24T14:41:13Z</time>
      </trkpt>
      <trkpt lat="47.785370" lon="1.598290">
        <time>2017-06-24T14:41:14Z</time>
      </trkpt>
      <trkpt lat="47.785590" lon="1.598560">
        <time>2017-06-24T14:41:15Z</time>
      </trkpt>
      <trkpt lat="47.785850" lon="1.598870">
        <time>2017-06-24T14:41:16Z</time>
      </trkpt>
      <trkpt lat="47.786090" lon="1.599140">
        <time>2017-06-24T14:41:17Z</time>
      </trkpt>
      <trkpt lat="47.786330" lon="1.599420">
        <time>2017-06-24T14:41:18Z</time>
      </trkpt>
      <trkpt lat="47.786600" lon="1.599720">
        <time>2017-06-24T14:41:19Z</time>
      </trkpt>
      <trkpt lat="47.786830" lon="1.599990">
        <time>2017-06-24T14:41:20Z</time>
      </trkpt>
      <trkpt lat="47.787080" lon="1.600270">
        <time>2017-06-24T14:41:21Z</time>
      </trkpt>
      <trkpt lat="47.787330" lon="1.600560">
        <time>2017-06-24T14:41:22Z</time>
      </trkpt>
      <trkpt lat="47.787580" lon="1.600840">
        <time>2017-06-24T14:41:23Z</time>
      </trkpt>
      <trkpt lat="47.787840" lon="1.601130">
        <time>2017-06-24T14:41:24Z</time>
      </trkpt>
      <trkpt lat="47.788070" lon="1.601380">
        <time>2017-06-24T14:41:25Z</time>
      </trkpt>
      <trkpt lat="47.788320" lon="1.601660">
        <time>2017-06-24T14:41:26Z</time>
      </trkpt>
      <trkpt lat="47.788580" lon="1.601940">
        <time>2017-06-24T14:41:27Z</time>
      </trkpt>
      <trkpt lat="47.788810" lon="1.602180">
        <time>2017-06-24T14:41:28Z</time>
      </trkpt>
      <trkpt lat="47.789040" lon="1.602440">
        <time>2017-06-24T14:41:29Z</time>
      </trkpt>
      <trkpt lat="47.789310" lon="1.602710">
        <time>2017-06-24T14:41:30Z</time>
      </trkpt>
      <trkpt lat="47.789540" lon="1.602960">
        <time>2017-06-24T14:41:31Z</time>
      </trkpt>
      <trkpt lat="47.789800" lon="1.603230">
        <time>2017-06-24T14:41:32Z</time>
      </trkpt>
      <trkpt lat="47.790030" lon="1.603460">
        <time>2017-06-24T14:41:33Z</time>
      </trkpt>
      <trkpt lat="47.790270" lon="1.603720">
        <time>2017-06-24T14:41:34Z</time>
      </trkpt>
      <trkpt lat="47.790530" lon="1.604000">
        <time>2017-06-24T14:41:35Z</time>
      </trkpt>
      <trkpt lat="47.790750" lon="1.604240">
        <time>2017-06-24T14:41:36Z</time>
      </trkpt>
      <trkpt lat="47.790990" lon="1.604500">
        <time>2017-06-24T14:41:37Z</time>
      </trkpt>
      <trkpt lat="47.791240" lon="1.604760">
        <time>2017-06-24T14:41:38Z</time>
      </trkpt>
      <trkpt lat="47.791480" lon="1.605020">
        <time>2017-06-24T14:41:39Z</time>
      </trkpt>
      <trkpt lat="47.791750" lon="1.605290">
        <time>2017-06-24T14:41:40Z</time>
      </trkpt>
      <trkpt lat="47.791980" lon="1.605530">
        <time>2017-06-24T14:41:41Z</time>
      </trkpt>
      <trkpt lat="47.792220" lon="1.605790">
        <time>2017-06-24T14:41:42Z</time>
      </trkpt>
      <trkpt lat="47.792490" lon="1.606070">
        <time>2017-06-24T14:41:43Z</time>
      </trkpt>
      <trkpt lat="47.792720" lon="1.606320">
        <time>2017-06-24T14:41:44Z</time>
      </trkpt>
      <trkpt lat="47.792970" lon="1.606580">
        <time>2017-06-24T14:41:45Z</time>
      </trkpt>
      <trkpt lat="47.793250" lon="1.606870">
        <time>2017-06-24T14:41:46Z</time>
      </trkpt>
      <trkpt lat="47.793490" lon="1.607120">
        <time>2017-06-24T14:41:47Z</time>
      </trkpt>
      <trkpt lat="47.793760" lon="1.607420">
        <time>2017-06-24T14:41:48Z</time>
      </trkpt>
      <trkpt lat="47.794000" lon="1.607670">
        <time>2017-06-24T14:41:49Z</time>
      </trkpt>
      <trkpt lat="47.794270" lon="1.607950">
        <time>2017-06-24T14:41:50Z</time>
      </trkpt>
      <trkpt lat="47.794540" lon="1.608240">
        <time>2017-06-24T14:41:51Z</time>
      </trkpt>
      <trkpt lat="47.794790" lon="1.608500">
        <time>2017-06-24T14:41:52Z</time>
      </trkpt>
      <trkpt lat="47.795050" lon="1.608770">
        <time>2017-06-24T14:41:53Z</time>
      </trkpt>
      <trkpt lat="47.795310" lon="1.609050">
        <time>2017-06-24T14:41:54Z</time>
      </trkpt>
      <trkpt lat="47.795570" lon="1.609330">
        <time>2017-06-24T14:41:55Z</time>
      </trkpt>
      <trkpt lat="47.795850" lon="1.609630">
        <time>2017-06-24T14:41:56Z</time>
      </trkpt>
      <trkpt lat="47.796100" lon="1.609890">
        <time>2017-06-24T14:41:57Z</time>
      </trkpt>
      <trkpt lat="47.796360" lon="1.610170">
        <time>2017-06-24T14:41:58Z</time>
      </trkpt>
      <trkpt lat="47.796640" lon="1.610460">
        <time>2017-06-24T14:41:59Z</time>
      </trkpt>
      <trkpt lat="47.796880" lon="1.610720">
        <time>2017-06-24T14:42:00Z</time>
      </trkpt>
      <trkpt lat="47.797140" lon="1.611000">
        <time>2017-06-24T14:42:01Z</time>
      </trkpt>
      <trkpt lat="47.797420" lon="1.611290">
        <time>2017-06-24T14:42:02Z</time>
      </trkpt>
      <trkpt lat="47.797660" lon="1.611540">
        <time>2017-06-24T14:42:03Z</time>
      </trkpt>
      <trkpt lat="47.797940" lon="1.611830">
        <time>2017-06-24T14:42:04Z</time>
      </trkpt>
      <trkpt lat="47.798180" lon="1.612090">
        <time>2017-06-24T14:42:05Z</time>
      </trkpt>
      <trkpt lat="47.798450" lon="1.612360">
        <time>2017-06-24T14:42:06Z</time>
      </trkpt>
      <trkpt lat="47.798730" lon="1.612660">
        <time>2017-06-24T14:42:07Z</time>
      </trkpt>
      <trkpt lat="47.798970" lon="1.612930">
        <time>2017-06-24T14:42:08Z</time>
      </trkpt>
      <trkpt lat="47.799240" lon="1.613210">
        <time>2017-06-24T14:42:09Z</time>
      </trkpt>
      <trkpt lat="47.799510" lon="1.613490">
        <time>2017-06-24T14:42:10Z</time>
      </trkpt>
      <trkpt lat="47.799780" lon="1.613770">
        <time>2017-06-24T14:42:11Z</time>
      </trkpt>
      <trkpt lat="47.800070" lon="1.614080">
        <time>2017-06-24T14:42:12Z</time>
      </trkpt>
      <trkpt lat="47.800320" lon="1.614350">
        <time>2017-06-24T14:42:13Z</time>
      </trkpt>
      <trkpt lat="47.800600" lon="1.614640">
        <time>2017-06-24T14:42:14Z</time>
      </trkpt>
      <trkpt lat="47.800880" lon="1.614950">
        <time>2017-06-24T14:42:15Z</time>
      </trkpt>
      <trkpt lat="47.801150" lon="1.615220">
        <time>2017-06-24T14:42:16Z</time>
      </trkpt>
      <trkpt lat="47.801430" lon="1.615500">
        <time>2017-06-24T14:42:17Z</time>
      </trkpt>
      <trkpt lat="47.801730" lon="1.615800">
        <time>2017-06-24T14:42:18Z</time>
      </trkpt>
      <trkpt lat="47.801990" lon="1.616060">
        <time>2017-06-24T14:42:19Z</time>
      </trkpt>
      <trkpt lat="47.802280" lon="1.616370">
        <time>2017-06-24T14:42:20Z</time>
      </trkpt>
      <trkpt lat="47.802540" lon="1.616640">
        <time>2017-06-24T14:42:21Z</time>
      </trkpt>
      <trkpt lat="47.802810" lon="1.616930">
        <time>2017-06-24T14:42:22Z</time>
      </trkpt>
      <trkpt lat="47.803100" lon="1.617240">
        <time>2017-06-24T14:42:23Z</time>
      </trkpt>
      <trkpt lat="47.803360" lon="1.617500">
        <time>2017-06-24T14:42:24Z</time>
      </trkpt>
      <trkpt lat="47.803630" lon="1.617790">
        <time>2017-06-24T14:42:25Z</time>
      </trkpt>
      <trkpt lat="47.803900" lon="1.618080">
        <time>2017-06-24T14:42:26Z</time>
      </trkpt>
      <trkpt lat="47.804180" lon="1.618370">
        <time>2017-06-24T14:42:27Z</time>
      </trkpt>
      <trkpt lat="47.804470" lon="1.618680">
        <time>2017-06-24T14:42:28Z</time>
      </trkpt>
      <trkpt lat="47.804730" lon="1.618950">
        <time>2017-06-24T14:42:29Z</time>
      </trkpt>
      <trkpt lat="47.804990" lon="1.619230">
        <time>2017-06-24T14:42:30Z</time>
      </trkpt>
      <trkpt lat="47.805280" lon="1.619540">
        <time>2017-06-24T14:42:31Z</time>
      </trkpt>
      <trkpt lat="47.805530" lon="1.619810">
        <time>2017-06-24T14:42:32Z</time>
      </trkpt>
      <trkpt lat="47.805800" lon="1.620090">
        <time>2017-06-24T14:42:33Z</time>
      </trkpt>
      <trkpt lat="47.806080" lon="1.620390">
        <time>2017-06-24T14:42:34Z</time>
      </trkpt>
      <trkpt lat="47.806330" lon="1.620660">
        <time>2017-06-24T14:42:35Z</time>
      </trkpt>
      <trkpt lat="47.806600" lon="1.620970">
        <time>2017-06-24T14:42:36Z</time>
      </trkpt>
      <trkpt lat="47.806840" lon="1.621240">
        <time>2017-06-24T14:42:37Z</time>
      </trkpt>
      <trkpt lat="47.807100" lon="1.621530">
        <time>2017-06-24T14:42:38Z</time>
      </trkpt>
      <trkpt lat="47.807370" lon="1.621840">
        <time>2017-06-24T14:42:39Z</time>
      </trkpt>
      <trkpt lat="47.807600" lon="1.622110">
        <time>2017-06-24T14:42:40Z</time>
      </trkpt>
      <trkpt lat="47.807850" lon="1.622400">
        <time>2017-06-24T14:42:41Z</time>
      </trkpt>
      <trkpt lat="47.808090" lon="1.622690">
        <time>2017-06-24T14:42:42Z</time>
      </trkpt>
      <trkpt lat="47.808340" lon="1.622990">
        <time>2017-06-24T14:42:43Z</time>
      </trkpt>
      <trkpt lat="47.808600" lon="1.623300">
        <time>2017-06-24T14:42:44Z</time>
      </trkpt>
      <trkpt lat="47.808830" lon="1.623580">
        <time>2017-06-24T14:42:45Z</time>
      </trkpt>
      <trkpt lat="47.809080" lon="1.623880">
        <time>2017-06-24T14:42:46Z</time>
      </trkpt>
      <trkpt lat="47.809330" lon="1.624200">
        <time>2017-06-24T14:42:47Z</time>
      </trkpt>
      <trkpt lat="47.809560" lon="1.624480">
        <time>2017-06-24T14:42:48Z</time>
      </trkpt>
      <trkpt lat="47.809790" lon="1.624790">
        <time>2017-06-24T14:42:49Z</time>
      </trkpt>
      <trkpt lat="47.810050" lon="1.625110">
        <time>2017-06-24T14:42:50Z</time>
      </trkpt>
      <trkpt lat="47.810270" lon="1.625400">
        <time>2017-06-24T14:42:51Z</time>
      </trkpt>
      <trkpt lat="47.810520" lon="1.625730">
        <time>2017-06-24T14:42:52Z</time>
      </trkpt>
      <trkpt lat="47.810750" lon="1.626020">
        <time>2017-06-24T14:42:53Z</time>
      </trkpt>
      <trkpt lat="47.810980" lon="1.626330">
        <time>2017-06-24T14:42:54Z</time>
      </trkpt>
      <trkpt lat="47.811230" lon="1.626670">
        <time>2017-06-24T14:42:55Z</time>
      </trkpt>
      <trkpt lat="47.811440" lon="1.626970">
        <time>2017-06-24T14:42:56Z</time>
      </trkpt>
      <trkpt lat="47.811670" lon="1.627290">
        <time>2017-06-24T14:42:57Z</time>
      </trkpt>
      <trkpt lat="47.811900" lon="1.627610">
        <time>2017-06-24T14:42:58Z</time>
      </trkpt>
      <trkpt lat="47.812120" lon="1.627940">
        <time>2017-06-24T14:42:59Z</time>
      </trkpt>
      <trkpt lat="47.812370" lon="1.628290">
        <time>2017-06-24T14:43:00Z</time>
      </trkpt>
      <trkpt lat="47.812580" lon="1.628590">
        <time>2017-06-24T14:43:01Z</time>
      </trkpt>
      <trkpt lat="47.812800" lon="1.628920">
        <time>2017-06-24T14:43:02Z</time>
      </trkpt>
      <trkpt lat="47.813050" lon="1.629280">
        <time>2017-06-24T14:43:03Z</time>
      </trkpt>
      <trkpt lat="47.813260" lon="1.629590">
        <time>2017-06-24T14:43:04Z</time>
      </trkpt>
      <trkpt lat="47.813490" lon="1.629930">
        <time>2017-06-24T14:43:05Z</time>
      </trkpt>
      <trkpt lat="47.813730" lon="1.630290">
        <time>2017-06-24T14:43:06Z</time>
      </trkpt>
      <trkpt lat="47.813930" lon="1.630610">
        <time>2017-06-24T14:43:07Z</time>
      </trkpt>
      <trkpt lat="47.814170" lon="1.630970">
        <time>2017-06-24T14:43:08Z</time>
      </trkpt>
      <trkpt lat="47.814380" lon="1.631290">
        <time>2017-06-24T14:43:09Z</time>
      </trkpt>
      <trkpt lat="47.814600" lon="1.631640">
        <time>2017-06-24T14:43:10Z</time>
      </trkpt>
      <trkpt lat="47.814830" lon="1.632000">
        <time>2017-06-24T14:43:11Z</time>
      </trkpt>
      <trkpt lat="47.815030" lon="1.632320">
        <time>2017-06-24T14:43:12Z</time>
      </trkpt>
      <trkpt lat="47.815240" lon="1.632660">
        <time>2017-06-24T14:43:13Z</time>
      </trkpt>
      <trkpt lat="47.815450" lon="1.633000">
        <time>2017-06-24T14:43:14Z</time>
      </trkpt>
      <trkpt lat="47.815650" lon="1.633340">
        <time>2017-06-24T14:43:15Z</time>
      </trkpt>
      <trkpt lat="47.815870" lon="1.633710">
        <time>2017-06-24T14:43:16Z</time>
      </trkpt>
      <trkpt lat="47.816060" lon="1.634030">
        <time>2017-06-24T14:43:17Z</time>
      </trkpt>
      <trkpt lat="47.816260" lon="1.634370">
        <time>2017-06-24T14:43:18Z</time>
      </trkpt>
      <trkpt lat="47.816480" lon="1.634750">
        <time>2017-06-24T14:43:19Z</time>
      </trkpt>
      <trkpt lat="47.816670" lon="1.635070">
        <time>2017-06-24T14:43:20Z</time>
      </trkpt>
      <trkpt lat="47.816870" lon="1.635420">
        <time>2017-06-24T14:43:21Z</time>
      </trkpt>
      <trkpt lat="47.817090" lon="1.635800">
        <time>2017-06-24T14:43:22Z</time>
      </trkpt>
      <trkpt lat="47.817280" lon="1.636140">
        <time>2017-06-24T14:43:23Z</time>
      </trkpt>
      <trkpt lat="47.817490" lon="1.636530">
        <time>2017-06-24T14:43:24Z</time>
      </trkpt>
      <trkpt lat="47.817680" lon="1.636870">
        <time>2017-06-24T14:43:25Z</time>
      </trkpt>
      <trkpt lat="47.817880" lon="1.637240">
        <time>2017-06-24T14:43:26Z</time>
      </trkpt>
      <trkpt lat="47.818090" lon="1.637630">
        <time>2017-06-24T14:43:27Z</time>
      </trkpt>
      <trkpt lat="47.818280" lon="1.637990">
        <time>2017-06-24T14:43:28Z</time>
      </trkpt>
      <trkpt lat="47.818480" lon="1.638360">
        <time>2017-06-24T14:43:29Z</time>
      </trkpt>
      <trkpt lat="47.818670" lon="1.638740">
        <time>2017-06-24T14:43:30Z</time>
      </trkpt>
      <trkpt lat="47.818870" lon="1.639120">
        <time>2017-06-24T14:43:31Z</time>
      </trkpt>
      <trkpt lat="47.819070" lon="1.639530">
        <time>2017-06-24T14:43:32Z</time>
      </trkpt>
      <trkpt lat="47.819260" lon="1.639890">
        <time>2017-06-24T14:43:33Z</time>
      </trkpt>
      <trkpt lat="47.819450" lon="1.640280">
        <time>2017-06-24T14:43:34Z</time>
      </trkpt>
      <trkpt lat="47.819650" lon="1.640690">
        <time>2017-06-24T14:43:35Z</time>
      </trkpt>
      <trkpt lat="47.819840" lon="1.641060">
        <time>2017-06-24T14:43:36Z</time>
      </trkpt>
      <trkpt lat="47.820030" lon="1.641440">
        <time>2017-06-24T14:43:37Z</time>
      </trkpt>
      <trkpt lat="47.820240" lon="1.641850">
        <time>2017-06-24T14:43:38Z</time>
      </trkpt>
      <trkpt lat="47.820420" lon="1.642220">
        <time>2017-06-24T14:43:39Z</time>
      </trkpt>
      <trkpt lat="47.820630" lon="1.642630">
        <time>2017-06-24T14:43:40Z</time>
      </trkpt>
      <trkpt lat="47.820820" lon="1.643000">
        <time>2017-06-24T14:43:41Z</time>
      </trkpt>
      <trkpt lat="47.821010" lon="1.643390">
        <time>2017-06-24T14:43:42Z</time>
      </trkpt>
      <trkpt lat="47.821220" lon="1.643800">
        <time>2017-06-24T14:43:43Z</time>
      </trkpt>
      <trkpt lat="47.821410" lon="1.644170">
        <time>2017-06-24T14:43:44Z</time>
      </trkpt>
      <trkpt lat="47.821610" lon="1.644570">
        <time>2017-06-24T14:43:45Z</time>
      </trkpt>
      <trkpt lat="47.821800" lon="1.644960">
        <time>2017-06-24T14:43:46Z</time>
      </trkpt>
      <trkpt lat="47.822010" lon="1.645350">
        <time>2017-06-24T14:43:47Z</time>
      </trkpt>
      <trkpt lat="47.822220" lon="1.645770">
        <time>2017-06-24T14:43:48Z</time>
      </trkpt>
      <trkpt lat="47.822400" lon="1.646150">
        <time>2017-06-24T14:43:49Z</time>
      </trkpt>
      <trkpt lat="47.822600" lon="1.646540">
        <time>2017-06-24T14:43:50Z</time>
      </trkpt>
      <trkpt lat="47.822810" lon="1.646970">
        <time>2017-06-24T14:43:51Z</time>
      </trkpt>
      <trkpt lat="47.822990" lon="1.647340">
        <time>2017-06-24T14:43:52Z</time>
      </trkpt>
      <trkpt lat="47.823180" lon="1.647730">
        <time>2017-06-24T14:43:53Z</time>
      </trkpt>
      <trkpt lat="47.823390" lon="1.648140">
        <time>2017-06-24T14:43:54Z</time>
      </trkpt>
      <trkpt lat="47.823580" lon="1.648520">
        <time>2017-06-24T14:43:55Z</time>
      </trkpt>
      <trkpt lat="47.823790" lon="1.648940">
        <time>2017-06-24T14:43:56Z</time>
      </trkpt>
      <trkpt lat="47.823970" lon="1.649320">
        <time>2017-06-24T14:43:57Z</time>
      </trkpt>
      <trkpt lat="47.824160" lon="1.649720">
        <time>2017-06-24T14:43:58Z</time>
      </trkpt>
      <trkpt lat="47.824370" lon="1.650150">
        <time>2017-06-24T14:43:59Z</time>
      </trkpt>
      <trkpt lat="47.824550" lon="1.650520">
        <time>2017-06-24T14:44:00Z</time>
      </trkpt>
      <trkpt lat="47.824750" lon="1.650910">
        <time>2017-06-24T14:44:01Z</time>
      </trkpt>
      <trkpt lat="47.824940" lon="1.651290">
        <time>2017-06-24T14:44:02Z</time>
      </trkpt>
      <trkpt lat="47.825130" lon="1.651680">
        <time>2017-06-24T14:44:03Z</time>
      </trkpt>
      <trkpt lat="47.825340" lon="1.652100">
        <time>2017-06-24T14:44:04Z</time>
      </trkpt>
      <trkpt lat="47.825530" lon="1.652460">
        <time>2017-06-24T14:44:05Z</time>
      </trkpt>
      <trkpt lat="47.825720" lon="1.652850">
        <time>2017-06-24T14:44:06Z</time>
      </trkpt>
      <trkpt lat="47.825930" lon="1.653260">
        <time>2017-06-24T14:44:07Z</time>
      </trkpt>
      <trkpt lat="47.826110" lon="1.653630">
        <time>2017-06-24T14:44:08Z</time>
      </trkpt>
      <trkpt lat="47.826310" lon="1.654010">
        <time>2017-06-24T14:44:09Z</time>
      </trkpt>
      <trkpt lat="47.826520" lon="1.654400">
        <time>2017-06-24T14:44:10Z</time>
      </trkpt>
      <trkpt lat="47.826710" lon="1.654750">
        <time>2017-06-24T14:44:11Z</time>
      </trkpt>
      <trkpt lat="47.826940" lon="1.655140">
        <time>2017-06-24T14:44:12Z</time>
      </trkpt>
      <trkpt lat="47.827130" lon="1.655490">
        <time>2017-06-24T14:44:13Z</time>
      </trkpt>
      <trkpt lat="47.827350" lon="1.655860">
        <time>2017-06-24T14:44:14Z</time>
      </trkpt>
      <trkpt lat="47.827570" lon="1.656260">
        <time>2017-06-24T14:44:15Z</time>
      </trkpt>
      <trkpt lat="47.827770" lon="1.656600">
        <time>2017-06-24T14:44:16Z</time>
      </trkpt>
      <trkpt lat="47.827980" lon="1.656980">
        <time>2017-06-24T14:44:17Z</time>
      </trkpt>
      <trkpt lat="47.828200" lon="1.657350">
        <time>2017-06-24T14:44:18Z</time>
      </trkpt>
      <trkpt lat="47.828410" lon="1.657720">
        <time>2017-06-24T14:44:19Z</time>
      </trkpt>
      <trkpt lat="47.828650" lon="1.658110">
        <time>2017-06-24T14:44:20Z</time>
      </trkpt>
      <trkpt lat="47.828850" lon="1.658460">
        <time>2017-06-24T14:44:21Z</time>
      </trkpt>
      <trkpt lat="47.829070" lon="1.658820">
        <time>2017-06-24T14:44:22Z</time>
      </trkpt>
      <trkpt lat="47.829300" lon="1.659200">
        <time>2017-06-24T14:44:23Z</time>
      </trkpt>
      <trkpt lat="47.829510" lon="1.659540">
        <time>2017-06-24T14:44:24Z</time>
      </trkpt>
      <trkpt lat="47.829730" lon="1.659900">
        <time>2017-06-24T14:44:25Z</time>
      </trkpt>
      <trkpt lat="47.829970" lon="1.660280">
        <time>2017-06-24T14:44:26Z</time>
      </trkpt>
      <trkpt lat="47.830180" lon="1.660600">
        <time>2017-06-24T14:44:27Z</time>
      </trkpt>
      <trkpt lat="47.830410" lon="1.660960">
        <time>2017-06-24T14:44:28Z</time>
      </trkpt>
      <trkpt lat="47.830620" lon="1.661290">
        <time>2017-06-24T14:44:29Z</time>
      </trkpt>
      <trkpt lat="47.830830" lon="1.661630">
        <time>2017-06-24T14:44:30Z</time>
      </trkpt>
      <trkpt lat="47.831070" lon="1.661990">
        <time>2017-06-24T14:44:31Z</time>
      </trkpt>
      <trkpt lat="47.831290" lon="1.662310">
        <time>2017-06-24T14:44:32Z</time>
      </trkpt>
      <trkpt lat="47.831510" lon="1.662640">
        <time>2017-06-24T14:44:33Z</time>
      </trkpt>
      <trkpt lat="47.831750" lon="1.662970">
        <time>2017-06-24T14:44:34Z</time>
      </trkpt>
      <trkpt lat="47.831980" lon="1.663310">
        <time>2017-06-24T14:44:35Z</time>
      </trkpt>
      <trkpt lat="47.832220" lon="1.663660">
        <time>2017-06-24T14:44:36Z</time>
      </trkpt>
      <trkpt lat="47.832430" lon="1.663970">
        <time>2017-06-24T14:44:37Z</time>
      </trkpt>
      <trkpt lat="47.832650" lon="1.664300">
        <time>2017-06-24T14:44:38Z</time>
      </trkpt>
      <trkpt lat="47.832900" lon="1.664650">
        <time>2017-06-24T14:44:39Z</time>
      </trkpt>
      <trkpt lat="47.833110" lon="1.664940">
        <time>2017-06-24T14:44:40Z</time>
      </trkpt>
      <trkpt lat="47.833340" lon="1.665250">
        <time>2017-06-24T14:44:41Z</time>
      </trkpt>
      <trkpt lat="47.833590" lon="1.665580">
        <time>2017-06-24T14:44:42Z</time>
      </trkpt>
      <trkpt lat="47.833800" lon="1.665860">
        <time>2017-06-24T14:44:43Z</time>
      </trkpt>
      <trkpt lat="47.834040" lon="1.666180">
        <time>2017-06-24T14:44:44Z</time>
      </trkpt>
      <trkpt lat="47.834250" lon="1.666460">
        <time>2017-06-24T14:44:45Z</time>
      </trkpt>
      <trkpt lat="47.834480" lon="1.666760">
        <time>2017-06-24T14:44:46Z</time>
      </trkpt>
      <trkpt lat="47.834710" lon="1.667060">
        <time>2017-06-24T14:44:47Z</time>
      </trkpt>
      <trkpt lat="47.834920" lon="1.667340">
        <time>2017-06-24T14:44:48Z</time>
      </trkpt>
      <trkpt lat="47.835150" lon="1.667630">
        <time>2017-06-24T14:44:49Z</time>
      </trkpt>
      <trkpt lat="47.835380" lon="1.667920">
        <time>2017-06-24T14:44:50Z</time>
      </trkpt>
      <trkpt lat="47.835610" lon="1.668210">
        <time>2017-06-24T14:44:51Z</time>
      </trkpt>
      <trkpt lat="47.835860" lon="1.668520">
        <time>2017-06-24T14:44:52Z</time>
      </trkpt>
      <trkpt lat="47.836080" lon="1.668800">
        <time>2017-06-24T14:44:53Z</time>
      </trkpt>
      <trkpt lat="47.836320" lon="1.669100">
        <time>2017-06-24T14:44:54Z</time>
      </trkpt>
      <trkpt lat="47.836570" lon="1.669420">
        <time>2017-06-24T14:44:55Z</time>
      </trkpt>
      <trkpt lat="47.836800" lon="1.669700">
        <time>2017-06-24T14:44:56Z</time>
      </trkpt>
      <trkpt lat="47.837040" lon="1.670010">
        <time>2017-06-24T14:44:57Z</time>
      </trkpt>
      <trkpt lat="47.837300" lon="1.670340">
        <time>2017-06-24T14:44:58Z</time>
      </trkpt>
      <trkpt lat="47.837530" lon="1.670620">
        <time>2017-06-24T14:44:59Z</time>
      </trkpt>
      <trkpt lat="47.837800" lon="1.670940">
        <time>2017-06-24T14:45:00Z</time>
      </trkpt>
      <trkpt lat="47.838030" lon="1.671230">
        <time>2017-06-24T14:45:01Z</time>
      </trkpt>
      <trkpt lat="47.838280" lon="1.671530">
        <time>2017-06-24T14:45:02Z</time>
      </trkpt>
      <trkpt lat="47.838540" lon="1.671860">
        <time>2017-06-24T14:45:03Z</time>
      </trkpt>
      <trkpt lat="47.838770" lon="1.672150">
        <time>2017-06-24T14:45:04Z</time>
      </trkpt>
      <trkpt lat="47.839030" lon="1.672470">
        <time>2017-06-24T14:45:05Z</time>
      </trkpt>
      <trkpt lat="47.839270" lon="1.672780">
        <time>2017-06-24T14:45:06Z</time>
      </trkpt>
      <trkpt lat="47.839520" lon="1.673090">
        <time>2017-06-24T14:45:07Z</time>
      </trkpt>
      <trkpt lat="47.839780" lon="1.673420">
        <time>2017-06-24T14:45:08Z</time>
      </trkpt>
      <trkpt lat="47.840010" lon="1.673710">
        <time>2017-06-24T14:45:09Z</time>
      </trkpt>
      <trkpt lat="47.840250" lon="1.674000">
        <time>2017-06-24T14:45:10Z</time>
      </trkpt>
      <trkpt lat="47.840510" lon="1.674320">
        <time>2017-06-24T14:45:11Z</time>
      </trkpt>
      <trkpt lat="47.840730" lon="1.674590">
        <time>2017-06-24T14:45:12Z</time>
      </trkpt>
      <trkpt lat="47.840960" lon="1.674890">
        <time>2017-06-24T14:45:13Z</time>
      </trkpt>
      <trkpt lat="47.841210" lon="1.675200">
        <time>2017-06-24T14:45:14Z</time>
      </trkpt>
      <trkpt lat="47.841430" lon="1.675480">
        <time>2017-06-24T14:45:15Z</time>
      </trkpt>
      <trkpt lat="47.841680" lon="1.675790">
        <time>2017-06-24T14:45:16Z</time>
      </trkpt>
      <trkpt lat="47.841910" lon="1.676070">
        <time>2017-06-24T14:45:17Z</time>
      </trkpt>
      <trkpt lat="47.842150" lon="1.676380">
        <time>2017-06-24T14:45:18Z</time>
      </trkpt>
      <trkpt lat="47.842400" lon="1.676710">
        <time>2017-06-24T14:45:19Z</time>
      </trkpt>
      <trkpt lat="47.842620" lon="1.676990">
        <time>2017-06-24T14:45:20Z</time>
      </trkpt>
      <trkpt lat="47.842870" lon="1.677290">
        <time>2017-06-24T14:45:21Z</time>
      </trkpt>
      <trkpt lat="47.843110" lon="1.677600">
        <time>2017-06-24T14:45:22Z</time>
      </trkpt>
      <trkpt lat="47.843360" lon="1.677900">
        <time>2017-06-24T14:45:23Z</time>
      </trkpt>
      <trkpt lat="47.843620" lon="1.678240">
        <time>2017-06-24T14:45:24Z</time>
      </trkpt>
      <trkpt lat="47.843850" lon="1.678540">
        <time>2017-06-24T14:45:25Z</time>
      </trkpt>
      <trkpt lat="47.844100" lon="1.678850">
        <time>2017-06-24T14:45:26Z</time>
      </trkpt>
      <trkpt lat="47.844360" lon="1.679190">
        <time>2017-06-24T14:45:27Z</time>
      </trkpt>
      <trkpt lat="47.844590" lon="1.679490">
        <time>2017-06-24T14:45:28Z</time>
      </trkpt>
      <trkpt lat="47.844830" lon="1.679810">
        <time>2017-06-24T14:45:29Z</time>
      </trkpt>
      <trkpt lat="47.845080" lon="1.680150">
        <time>2017-06-24T14:45:30Z</time>
      </trkpt>
      <trkpt lat="47.845310" lon="1.680460">
        <time>2017-06-24T14:45:31Z</time>
      </trkpt>
      <trkpt lat="47.845560" lon="1.680800">
        <time>2017-06-24T14:45:32Z</time>
      </trkpt>
      <trkpt lat="47.845790" lon="1.681090">
        <time>2017-06-24T14:45:33Z</time>
      </trkpt>
      <trkpt lat="47.846020" lon="1.681430">
        <time>2017-06-24T14:45:34Z</time>
      </trkpt>
      <trkpt lat="47.846270" lon="1.681780">
        <time>2017-06-24T14:45:35Z</time>
      </trkpt>
      <trkpt lat="47.846490" lon="1.682090">
        <time>2017-06-24T14:45:36Z</time>
      </trkpt>
      <trkpt lat="47.846720" lon="1.682420">
        <time>2017-06-24T14:45:37Z</time>
      </trkpt>
      <trkpt lat="47.846950" lon="1.682750">
        <time>2017-06-24T14:45:38Z</time>
      </trkpt>
      <trkpt lat="47.847170" lon="1.683090">
        <time>2017-06-24T14:45:39Z</time>
      </trkpt>
      <trkpt lat="47.847410" lon="1.683440">
        <time>2017-06-24T14:45:40Z</time>
      </trkpt>
      <trkpt lat="47.847620" lon="1.683750">
        <time>2017-06-24T14:45:41Z</time>
      </trkpt>
      <trkpt lat="47.847840" lon="1.684090">
        <time>2017-06-24T14:45:42Z</time>
      </trkpt>
      <trkpt lat="47.848080" lon="1.684450">
        <time>2017-06-24T14:45:43Z</time>
      </trkpt>
      <trkpt lat="47.848280" lon="1.684760">
        <time>2017-06-24T14:45:44Z</time>
      </trkpt>
      <trkpt lat="47.848500" lon="1.685110">
        <time>2017-06-24T14:45:45Z</time>
      </trkpt>
      <trkpt lat="47.848730" lon="1.685470">
        <time>2017-06-24T14:45:46Z</time>
      </trkpt>
      <trkpt lat="47.848930" lon="1.685800">
        <time>2017-06-24T14:45:47Z</time>
      </trkpt>
      <trkpt lat="47.849160" lon="1.686170">
        <time>2017-06-24T14:45:48Z</time>
      </trkpt>
      <trkpt lat="47.849360" lon="1.686490">
        <time>2017-06-24T14:45:49Z</time>
      </trkpt>
      <trkpt lat="47.849570" lon="1.686850">
        <time>2017-06-24T14:45:50Z</time>
      </trkpt>
      <trkpt lat="47.849790" lon="1.687220">
        <time>2017-06-24T14:45:51Z</time>
      </trkpt>
      <trkpt lat="47.849990" lon="1.687550">
        <time>2017-06-24T14:45:52Z</time>
      </trkpt>
      <trkpt lat="47.850200" lon="1.687910">
        <time>2017-06-24T14:45:53Z</time>
      </trkpt>
      <trkpt lat="47.850410" lon="1.688270">
        <time>2017-06-24T14:45:54Z</time>
      </trkpt>
      <trkpt lat="47.850610" lon="1.688640">
        <time>2017-06-24T14:45:55Z</time>
      </trkpt>
      <trkpt lat="47.850830" lon="1.689020">
        <time>2017-06-24T14:45:56Z</time>
      </trkpt>
      <trkpt lat="47.851020" lon="1.689370">
        <time>2017-06-24T14:45:57Z</time>
      </trkpt>
      <trkpt lat="47.851220" lon="1.689740">
        <time>2017-06-24T14:45:58Z</time>
      </trkpt>
      <trkpt lat="47.851440" lon="1.690130">
        <time>2017-06-24T14:45:59Z</time>
      </trkpt>
      <trkpt lat="47.851640" lon="1.690480">
        <time>2017-06-24T14:46:00Z</time>
      </trkpt>
      <trkpt lat="47.851840" lon="1.690850">
        <time>2017-06-24T14:46:01Z</time>
      </trkpt>
      <trkpt lat="47.852060" lon="1.691240">
        <time>2017-06-24T14:46:02Z</time>
      </trkpt>
      <trkpt lat="47.852250" lon="1.691590">
        <time>2017-06-24T14:46:03Z</time>
      </trkpt>
      <trkpt lat="47.852460" lon="1.692000">
        <time>2017-06-24T14:46:04Z</time>
      </trkpt>
      <trkpt lat="47.852650" lon="1.692360">
        <time>2017-06-24T14:46:05Z</time>
      </trkpt>
      <trkpt lat="47.852850" lon="1.692750">
        <time>2017-06-24T14:46:06Z</time>
      </trkpt>
      <trkpt lat="47.853070" lon="1.693170">
        <time>2017-06-24T14:46:07Z</time>
      </trkpt>
      <trkpt lat="47.853250" lon="1.693540">
        <time>2017-06-24T14:46:08Z</time>
      </trkpt>
      <trkpt lat="47.853440" lon="1.693950">
        <time>2017-06-24T14:46:09Z</time>
      </trkpt>
      <trkpt lat="47.853640" lon="1.694340">
        <time>2017-06-24T14:46:10Z</time>
      </trkpt>
      <trkpt lat="47.853840" lon="1.694740">
        <time>2017-06-24T14:46:11Z</time>
      </trkpt>
      <trkpt lat="47.854040" lon="1.695170">
        <time>2017-06-24T14:46:12Z</time>
      </trkpt>
      <trkpt lat="47.854230" lon="1.695560">
        <time>2017-06-24T14:46:13Z</time>
      </trkpt>
      <trkpt lat="47.854420" lon="1.695960">
        <time>2017-06-24T14:46:14Z</time>
      </trkpt>
      <trkpt lat="47.854620" lon="1.696400">
        <time>2017-06-24T14:46:15Z</time>
      </trkpt>
      <trkpt lat="47.854790" lon="1.696780">
        <time>2017-06-24T14:46:16Z</time>
      </trkpt>
      <trkpt lat="47.854980" lon="1.697180">
        <time>2017-06-24T14:46:17Z</time>
      </trkpt>
      <trkpt lat="47.855170" lon="1.697610">
        <time>2017-06-24T14:46:18Z</time>
      </trkpt>
      <trkpt lat="47.855340" lon="1.697990">
        <time>2017-06-24T14:46:19Z</time>
      </trkpt>
      <trkpt lat="47.855540" lon="1.698420">
        <time>2017-06-24T14:46:20Z</time>
      </trkpt>
      <trkpt lat="47.855700" lon="1.698780">
        <time>2017-06-24T14:46:21Z</time>
      </trkpt>
      <trkpt lat="47.855880" lon="1.699170">
        <time>2017-06-24T14:46:22Z</time>
      </trkpt>
      <trkpt lat="47.856070" lon="1.699590">
        <time>2017-06-24T14:46:23Z</time>
      </trkpt>
      <trkpt lat="47.856230" lon="1.699960">
        <time>2017-06-24T14:46:24Z</time>
      </trkpt>
      <trkpt lat="47.856410" lon="1.700350">
        <time>2017-06-24T14:46:25Z</time>
      </trkpt>
      <trkpt lat="47.856590" lon="1.700750">
        <time>2017-06-24T14:46:26Z</time>
      </trkpt>
      <trkpt lat="47.856770" lon="1.701140">
        <time>2017-06-24T14:46:27Z</time>
      </trkpt>
      <trkpt lat="47.856960" lon="1.701550">
        <time>2017-06-24T14:46:28Z</time>
      </trkpt>
      <trkpt lat="47.857130" lon="1.701930">
        <time>2017-06-24T14:46:29Z</time>
      </trkpt>
      <trkpt lat="47.857310" lon="1.702320">
        <time>2017-06-24T14:46:30Z</time>
      </trkpt>
      <trkpt lat="47.857490" lon="1.702740">
        <time>2017-06-24T14:46:31Z</time>
      </trkpt>
      <trkpt lat="47.857660" lon="1.703100">
        <time>2017-06-24T14:46:32Z</time>
      </trkpt>
      <trkpt lat="47.857840" lon="1.703490">
        <time>2017-06-24T14:46:33Z</time>
      </trkpt>
      <trkpt lat="47.858030" lon="1.703910">
        <time>2017-06-24T14:46:34Z</time>
      </trkpt>
      <trkpt lat="47.858200" lon="1.704270">
        <time>2017-06-24T14:46:35Z</time>
      </trkpt>
      <trkpt lat="47.858390" lon="1.704690">
        <time>2017-06-24T14:46:36Z</time>
      </trkpt>
      <trkpt lat="47.858560" lon="1.705060">
        <time>2017-06-24T14:46:37Z</time>
      </trkpt>
      <trkpt lat="47.858740" lon="1.705450">
        <time>2017-06-24T14:46:38Z</time>
      </trkpt>
      <trkpt lat="47.858930" lon="1.705870">
        <time>2017-06-24T14:46:39Z</time>
      </trkpt>
      <trkpt lat="47.859100" lon="1.706240">
        <time>2017-06-24T14:46:40Z</time>
      </trkpt>
      <trkpt lat="47.859280" lon="1.706630">
        <time>2017-06-24T14:46:41Z</time>
      </trkpt>
      <trkpt lat="47.859460" lon="1.707020">
        <time>2017-06-24T14:46:42Z</time>
      </trkpt>
      <trkpt lat="47.859650" lon="1.707410">
        <time>2017-06-24T14:46:43Z</time>
      </trkpt>
      <trkpt lat="47.859850" lon="1.707830">
        <time>2017-06-24T14:46:44Z</time>
      </trkpt>
      <trkpt lat="47.860030" lon="1.708190">
        <time>2017-06-24T14:46:45Z</time>
      </trkpt>
      <trkpt lat="47.860230" lon="1.708570">
        <time>2017-06-24T14:46:46Z</time>
      </trkpt>
      <trkpt lat="47.860430" lon="1.708980">
        <time>2017-06-24T14:46:47Z</time>
      </trkpt>
      <trkpt lat="47.860610" lon="1.709340">
        <time>2017-06-24T14:46:48Z</time>
      </trkpt>
      <trkpt lat="47.860810" lon="1.709720">
        <time>2017-06-24T14:46:49Z</time>
      </trkpt>
      <trkpt lat="47.861010" lon="1.710130">
        <time>2017-06-24T14:46:50Z</time>
      </trkpt>
      <trkpt lat="47.861200" lon="1.710500">
        <time>2017-06-24T14:46:51Z</time>
      </trkpt>
      <trkpt lat="47.861410" lon="1.710910">
        <time>2017-06-24T14:46:52Z</time>
      </trkpt>
      <trkpt lat="47.861600" lon="1.711270">
        <time>2017-06-24T14:46:53Z</time>
      </trkpt>
      <trkpt lat="47.861790" lon="1.711650">
        <time>2017-06-24T14:46:54Z</time>
      </trkpt>
      <trkpt lat="47.862010" lon="1.712050">
        <time>2017-06-24T14:46:55Z</time>
      </trkpt>
      <trkpt lat="47.862200" lon="1.712410">
        <time>2017-06-24T14:46:56Z</time>
      </trkpt>
      <trkpt lat="47.862410" lon="1.712790">
        <time>2017-06-24T14:46:57Z</time>
      </trkpt>
      <trkpt lat="47.862610" lon="1.713160">
        <time>2017-06-24T14:46:58Z</time>
      </trkpt>
      <trkpt lat="47.862820" lon="1.713540">
        <time>2017-06-24T14:46:59Z</time>
      </trkpt>
      <trkpt lat="47.863040" lon="1.713940">
        <time>2017-06-24T14:47:00Z</time>
      </trkpt>
      <trkpt lat="47.863240" lon="1.714300">
        <time>2017-06-24T14:47:01Z</time>
      </trkpt>
      <trkpt lat="47.863450" lon="1.714680">
        <time>2017-06-24T14:47:02Z</time>
      </trkpt>
      <trkpt lat="47.863680" lon="1.715080">
        <time>2017-06-24T14:47:03Z</time>
      </trkpt>
      <trkpt lat="47.863880" lon="1.715440">
        <time>2017-06-24T14:47:04Z</time>
      </trkpt>
      <trkpt lat="47.864100" lon="1.715810">
        <time>2017-06-24T14:47:05Z</time>
      </trkpt>
      <trkpt lat="47.864330" lon="1.716220">
        <time>2017-06-24T14:47:06Z</time>
      </trkpt>
      <trkpt lat="47.864530" lon="1.716560">
        <time>2017-06-24T14:47:07Z</time>
      </trkpt>
      <trkpt lat="47.864760" lon="1.716960">
        <time>2017-06-24T14:47:08Z</time>
      </trkpt>
      <trkpt lat="47.864960" lon="1.717310">
        <time>2017-06-24T14:47:09Z</time>
      </trkpt>
      <trkpt lat="47.865190" lon="1.717680">
        <time>2017-06-24T14:47:10Z</time>
      </trkpt>
      <trkpt lat="47.865420" lon="1.718060">
        <time>2017-06-24T14:47:11Z</time>
      </trkpt>
      <trkpt lat="47.865630" lon="1.718400">
        <time>2017-06-24T14:47:12Z</time>
      </trkpt>
      <trkpt lat="47.865850" lon="1.718760">
        <time>2017-06-24T14:47:13Z</time>
      </trkpt>
      <trkpt lat="47.866080" lon="1.719120">
        <time>2017-06-24T14:47:14Z</time>
      </trkpt>
      <trkpt lat="47.866300" lon="1.719470">
        <time>2017-06-24T14:47:15Z</time>
      </trkpt>
      <trkpt lat="47.866530" lon="1.719850">
        <time>2017-06-24T14:47:16Z</time>
      </trkpt>
      <trkpt lat="47.866730" lon="1.720170">
        <time>2017-06-24T14:47:17Z</time>
      </trkpt>
      <trkpt lat="47.866950" lon="1.720500">
        <time>2017-06-24T14:47:18Z</time>
      </trkpt>
      <trkpt lat="47.867170" lon="1.720850">
        <time>2017-06-24T14:47:19Z</time>
      </trkpt>
      <trkpt lat="47.867360" lon="1.721140">
        <time>2017-06-24T14:47:20Z</time>
      </trkpt>
      <trkpt lat="47.867560" lon="1.721440">
        <time>2017-06-24T14:47:21Z</time>
      </trkpt>
      <trkpt lat="47.867760" lon="1.721750">
        <time>2017-06-24T14:47:22Z</time>
      </trkpt>
      <trkpt lat="47.867940" lon="1.722010">
        <time>2017-06-24T14:47:23Z</time>
      </trkpt>
      <trkpt lat="47.868130" lon="1.722300">
        <time>2017-06-24T14:47:24Z</time>
      </trkpt>
      <trkpt lat="47.868280" lon="1.722560">
        <time>2017-06-24T14:47:25Z</time>
      </trkpt>
      <trkpt lat="47.868440" lon="1.722820">
        <time>2017-06-24T14:47:26Z</time>
      </trkpt>
      <trkpt lat="47.868610" lon="1.723080">
        <time>2017-06-24T14:47:27Z</time>
      </trkpt>
      <trkpt lat="47.868750" lon="1.723300">
        <time>2017-06-24T14:47:28Z</time>
      </trkpt>
      <trkpt lat="47.868890" lon="1.723510">
        <time>2017-06-24T14:47:29Z</time>
      </trkpt>
      <trkpt lat="47.869020" lon="1.723720">
        <time>2017-06-24T14:47:30Z</time>
      </trkpt>
      <trkpt lat="47.869150" lon="1.723930">
        <time>2017-06-24T14:47:31Z</time>
      </trkpt>
      <trkpt lat="47.869280" lon="1.724140">
        <time>2017-06-24T14:47:32Z</time>
      </trkpt>
      <trkpt lat="47.869380" lon="1.724320">
        <time>2017-06-24T14:47:33Z</time>
      </trkpt>
      <trkpt lat="47.869460" lon="1.724510">
        <time>2017-06-24T14:47:34Z</time>
      </trkpt>
      <trkpt lat="47.869540" lon="1.724700">
        <time>2017-06-24T14:47:35Z</time>
      </trkpt>
      <trkpt lat="47.869600" lon="1.724860">
        <time>2017-06-24T14:47:36Z</time>
      </trkpt>
      <trkpt lat="47.869660" lon="1.724990">
        <time>2017-06-24T14:47:37Z</time>
      </trkpt>
      <trkpt lat="47.869720" lon="1.725120">
        <time>2017-06-24T14:47:38Z</time>
      </trkpt>
      <trkpt lat="47.869780" lon="1.725220">
        <time>2017-06-24T14:47:39Z</time>
      </trkpt>
      <trkpt lat="47.869820" lon="1.725330">
        <time>2017-06-24T14:47:40Z</time>
      </trkpt>
      <trkpt lat="47.869840" lon="1.725430">
        <time>2017-06-24T14:47:41Z</time>
      </trkpt>
      <trkpt lat="47.869840" lon="1.725540">
        <time>2017-06-24T14:47:42Z</time>
      </trkpt>
      <trkpt lat="47.869830" lon="1.725650">
        <time>2017-06-24T14:47:43Z</time>
      </trkpt>
      <trkpt lat="47.869840" lon="1.725750">
        <time>2017-06-24T14:47:44Z</time>
      </trkpt>
      <trkpt lat="47.869860" lon="1.725850">
        <time>2017-06-24T14:47:45Z</time>
      </trkpt>
      <trkpt lat="47.869900" lon="1.725920">
        <time>2017-06-24T14:47:46Z</time>
      </trkpt>
      <trkpt lat="47.869940" lon="1.725980">
        <time>2017-06-24T14:47:47Z</time>
      </trkpt>
      <trkpt lat="47.869980" lon="1.726040">
        <time>2017-06-24T14:47:48Z</time>
      </trkpt>
      <trkpt lat="47.870020" lon="1.726100">
        <time>2017-06-24T14:47:49Z</time>
      </trkpt>
      <trkpt lat="47.870060" lon="1.726150">
        <time>2017-06-24T14:47:50Z</time>
      </trkpt>
      <trkpt lat="47.870100" lon="1.726210">
        <time>2017-06-24T14:47:51Z</time>
      </trkpt>
      <trkpt lat="47.870130" lon="1.726260">
        <time>2017-06-24T14:47:52Z</time>
      </trkpt>
      <trkpt lat="47.870150" lon="1.726320">
        <time>2017-06-24T14:47:53Z</time>
      </trkpt>
      <trkpt lat="47.870160" lon="1.726390">
        <time>2017-06-24T14:47:54Z</time>
      </trkpt>
      <trkpt lat="47.870170" lon="1.726450">
        <time>2017-06-24T14:47:55Z</time>
      </trkpt>
      <trkpt lat="47.870190" lon="1.726500">
        <time>2017-06-24T14:47:56Z</time>
      </trkpt>
      <trkpt lat="47.870200" lon="1.726520">
        <time>2017-06-24T14:47:57Z</time>
      </trkpt>
      <trkpt lat="47.870220" lon="1.726530">
        <time>2017-06-24T14:47:58Z</time>
      </trkpt>
      <trkpt lat="47.870240" lon="1.726540">
        <time>2017-06-24T14:47:59Z</time>
      </trkpt>
      <trkpt lat="47.870250" lon="1.726520">
        <time>2017-06-24T14:48:00Z</time>
      </trkpt>
      <trkpt lat="47.870250" lon="1.726510">
        <time>2017-06-24T14:48:01Z</time>
      </trkpt>
      <trkpt lat="47.870250" lon="1.726490">
        <time>2017-06-24T14:48:02Z</time>
      </trkpt>
      <trkpt lat="47.870250" lon="1.726500">
        <time>2017-06-24T14:48:03Z</time>
      </trkpt>
      <trkpt lat="47.870250" lon="1.726500">
        <time>2017-06-24T14:48:04Z</time>
      </trkpt>
      <trkpt lat="47.870250" lon="1.726500">
        <time>2017-06-24T14:48:05Z</time>
      </trkpt>
      <trkpt lat="47.870250" lon="1.726500">
        <time>2017-06-24T14:48:06Z</time>
      </trkpt>
      <trkpt lat="47.870250" lon="1.726500">
        <time>2017-06-24T14:48:07Z</time>
      </trkpt>
      <trkpt lat="47.870250" lon="1.726500">
        <time>2017-06-24T14:48:08Z</time>
      </trkpt>
      <trkpt lat="47.870250" lon="1.726500">
        <time>2017-06-24T14:48:09Z</time>
      </trkpt>
      <trkpt lat="47.870250" lon="1.726500">
        <time>2017-06-24T14:48:10Z</time>
      </trkpt>
      <trkpt lat="47.870250" lon="1.726500">
        <time>2017-06-24T14:48:11Z</time>
      </trkpt>
      <trkpt lat="47.870250" lon="1.726500">
        <time>2017-06-24T14:48:12Z</time>
      </trkpt>
      <trkpt lat="47.870250" lon="1.726500">
        <time>2017-06-24T14:48:13Z</time>
      </trkpt>
      <trkpt lat="47.870250" lon="1.726500">
        <time>2017-06-24T14:48:14Z</time>
      </trkpt>
      <trkpt lat="47.870250" lon="1.726500">
        <time>2017-06-24T14:48:15Z</time>
      </trkpt>
      <trkpt lat="47.870250" lon="1.726500">
        <time>2017-06-24T14:48:16Z</time>
      </trkpt>
      <trkpt lat="47.870250" lon="1.726500">
        <time>2017-06-24T14:48:17Z</time>
      </trkpt>
      <trkpt lat="47.870250" lon="1.726500">
        <time>2017-06-24T14:48:18Z</time>
      </trkpt>
      <trkpt lat="47.870250" lon="1.726500">
        <time>2017-06-24T14:48:19Z</time>
      </trkpt>
      <trkpt lat="47.870250" lon="1.726500">
        <time>2017-06-24T14:48:20Z</time>
      </trkpt>
      <trkpt lat="47.870250" lon="1.726500">
        <time>2017-06-24T14:48:21Z</time>
      </trkpt>
      <trkpt lat="47.870250" lon="1.726500">
        <time>2017-06-24T14:48:22Z</time>
      </trkpt>
      <trkpt lat="47.870250" lon="1.726500">
        <time>2017-06-24T14:48:23Z</time>
      </trkpt>
      <trkpt lat="47.870250" lon="1.726500">
        <time>2017-06-24T14:48:24Z</time>
      </trkpt>
      <trkpt lat="47.870250" lon="1.726500">
        <time>2017-06-24T14:48:25Z</time>
      </trkpt>
      <trkpt lat="47.870250" lon="1.726500">
        <time>2017-06-24T14:48:26Z</time>
      </trkpt>
      <trkpt lat="47.870250" lon="1.726500">
        <time>2017-06-24T14:48:27Z</time>
      </trkpt>
      <trkpt lat="47.870250" lon="1.726500">
        <time>2017-06-24T14:48:28Z</time>
      </trkpt>
      <trkpt lat="47.870250" lon="1.726500">
        <time>2017-06-24T14:48:29Z</time>
      </trkpt>
      <trkpt lat="47.870250" lon="1.726500">
        <time>2017-06-24T14:48:30Z</time>
      </trkpt>
      <trkpt lat="47.870250" lon="1.726500">
        <time>2017-06-24T14:48:31Z</time>
      </trkpt>
      <trkpt lat="47.870250" lon="1.726500">
        <time>2017-06-24T14:48:32Z</time>
      </trkpt>
      <trkpt lat="47.870250" lon="1.726500">
        <time>2017-06-24T14:48:33Z</time>
      </trkpt>
      <trkpt lat="47.870250" lon="1.726500">
        <time>2017-06-24T14:48:34Z</time>
      </trkpt>
      <trkpt lat="47.870250" lon="1.726500">
        <time>2017-06-24T14:48:35Z</time>
      </trkpt>
      <trkpt lat="47.870250" lon="1.726500">
        <time>2017-06-24T14:48:36Z</time>
      </trkpt>
      <trkpt lat="47.870250" lon="1.726500">
        <time>2017-06-24T14:48:37Z</time>
      </trkpt>
      <trkpt lat="47.870250" lon="1.726500">
        <time>2017-06-24T14:48:38Z</time>
      </trkpt>
      <trkpt lat="47.870250" lon="1.726500">
        <time>2017-06-24T14:48:39Z</time>
      </trkpt>
      <trkpt lat="47.870250" lon="1.726500">
        <time>2017-06-24T14:48:40Z</time>
      </trkpt>
      <trkpt lat="47.870250" lon="1.726500">
        <time>2017-06-24T14:48:41Z</time>
      </trkpt>
      <trkpt lat="47.870250" lon="1.726500">
        <time>2017-06-24T14:48:42Z</time>
      </trkpt>
      <trkpt lat="47.870250" lon="1.726500">
        <time>2017-06-24T14:48:43Z</time>
      </trkpt>
      <trkpt lat="47.870250" lon="1.726500">
        <time>2017-06-24T14:48:44Z</time>
      </trkpt>
      <trkpt lat="47.870250" lon="1.726500">
        <time>2017-06-24T14:48:45Z</time>
      </trkpt>
      <trkpt lat="47.870250" lon="1.726500">
        <time>2017-06-24T14:48:46Z</time>
      </trkpt>
      <trkpt lat="47.870250" lon="1.726500">
        <time>2017-06-24T14:48:47Z</time>
      </trkpt>
      <trkpt lat="47.870250" lon="1.726500">
        <time>2017-06-24T14:48:48Z</time>
      </trkpt>
      <trkpt lat="47.870250" lon="1.726500">
        <time>2017-06-24T14:48:49Z</time>
      </trkpt>
      <trkpt lat="47.870250" lon="1.726500">
        <time>2017-06-24T14:48:50Z</time>
      </trkpt>
      <trkpt lat="47.870250" lon="1.726500">
        <time>2017-06-24T14:48:51Z</time>
      </trkpt>
      <trkpt lat="47.870250" lon="1.726500">
        <time>2017-06-24T14:48:52Z</time>
      </trkpt>
      <trkpt lat="47.870250" lon="1.726500">
        <time>2017-06-24T14:48:53Z</time>
      </trkpt>
      <trkpt lat="47.870250" lon="1.726500">
        <time>2017-06-24T14:48:54Z</time>
      </trkpt>
      <trkpt lat="47.870250" lon="1.726500">
        <time>2017-06-24T14:48:55Z</time>
      </trkpt>
      <trkpt lat="47.870250" lon="1.726500">
        <time>2017-06-24T14:48:56Z</time>
      </trkpt>
      <trkpt lat="47.870250" lon="1.726500">
        <time>2017-06-24T14:48:57Z</time>
      </trkpt>
      <trkpt lat="47.870250" lon="1.726500">
        <time>2017-06-24T14:48:58Z</time>
      </trkpt>
      <trkpt lat="47.870250" lon="1.726500">
        <time>2017-06-24T14:48:59Z</time>
      </trkpt>
      <trkpt lat="47.870250" lon="1.726500">
        <time>2017-06-24T14:49:00Z</time>
      </trkpt>
      <trkpt lat="47.870250" lon="1.726500">
        <time>2017-06-24T14:49:01Z</time>
      </trkpt>
      <trkpt lat="47.870250" lon="1.726500">
        <time>2017-06-24T14:49:02Z</time>
      </trkpt>
      <trkpt lat="47.870250" lon="1.726500">
        <time>2017-06-24T14:49:03Z</time>
      </trkpt>
      <trkpt lat="47.870250" lon="1.726500">
        <time>2017-06-24T14:49:04Z</time>
      </trkpt>
      <trkpt lat="47.870250" lon="1.726500">
        <time>2017-06-24T14:49:05Z</time>
      </trkpt>
      <trkpt lat="47.870250" lon="1.726500">
        <time>2017-06-24T14:49:06Z</time>
      </trkpt>
      <trkpt lat="47.870250" lon="1.726500">
        <time>2017-06-24T14:49:07Z</time>
      </trkpt>
      <trkpt lat="47.870250" lon="1.726500">
        <time>2017-06-24T14:49:08Z</time>
      </trkpt>
      <trkpt lat="47.870250" lon="1.726500">
        <time>2017-06-24T14:49:09Z</time>
      </trkpt>
      <trkpt lat="47.870250" lon="1.726500">
        <time>2017-06-24T14:49:10Z</time>
      </trkpt>
      <trkpt lat="47.870250" lon="1.726500">
        <time>2017-06-24T14:49:11Z</time>
      </trkpt>
      <trkpt lat="47.870250" lon="1.726500">
        <time>2017-06-24T14:49:12Z</time>
      </trkpt>
      <trkpt lat="47.870250" lon="1.726500">
        <time>2017-06-24T14:49:13Z</time>
      </trkpt>
      <trkpt lat="47.870250" lon="1.726500">
        <time>2017-06-24T14:49:14Z</time>
      </trkpt>
      <trkpt lat="47.870250" lon="1.726500">
        <time>2017-06-24T14:49:15Z</time>
      </trkpt>
      <trkpt lat="47.870250" lon="1.726500">
        <time>2017-06-24T14:49:16Z</time>
      </trkpt>
      <trkpt lat="47.870250" lon="1.726500">
        <time>2017-06-24T14:49:17Z</time>
      </trkpt>
      <trkpt lat="47.870250" lon="1.726500">
        <time>2017-06-24T14:49:18Z</time>
      </trkpt>
      <trkpt lat="47.870250" lon="1.726500">
        <time>2017-06-24T14:49:19Z</time>
      </trkpt>
      <trkpt lat="47.870250" lon="1.726500">
        <time>2017-06-24T14:49:20Z</time>
      </trkpt>
      <trkpt lat="47.870250" lon="1.726500">
        <time>2017-06-24T14:49:21Z</time>
      </trkpt>
      <trkpt lat="47.870250" lon="1.726500">
        <time>2017-06-24T14:49:22Z</time>
      </trkpt>
      <trkpt lat="47.870250" lon="1.726500">
        <time>2017-06-24T14:49:23Z</time>
      </trkpt>
      <trkpt lat="47.870250" lon="1.726500">
        <time>2017-06-24T14:49:24Z</time>
      </trkpt>
      <trkpt lat="47.870250" lon="1.726500">
        <time>2017-06-24T14:49:25Z</time>
      </trkpt>
      <trkpt lat="47.870250" lon="1.726500">
        <time>2017-06-24T14:49:26Z</time>
      </trkpt>
      <trkpt lat="47.870250" lon="1.726500">
        <time>2017-06-24T14:49:27Z</time>
      </trkpt>
      <trkpt lat="47.870250" lon="1.726500">
        <time>2017-06-24T14:49:28Z</time>
      </trkpt>
      <trkpt lat="47.870250" lon="1.726500">
        <time>2017-06-24T14:49:29Z</time>
      </trkpt>
      <trkpt lat="47.870250" lon="1.726500">
        <time>2017-06-24T14:49:30Z</time>
      </trkpt>
      <trkpt lat="47.870250" lon="1.726500">
        <time>2017-06-24T14:49:31Z</time>
      </trkpt>
      <trkpt lat="47.870250" lon="1.726500">
        <time>2017-06-24T14:49:32Z</time>
      </trkpt>
      <trkpt lat="47.870250" lon="1.726500">
        <time>2017-06-24T14:49:33Z</time>
      </trkpt>
      <trkpt lat="47.870250" lon="1.726500">
        <time>2017-06-24T14:49:34Z</time>
      </trkpt>
      <trkpt lat="47.870250" lon="1.726500">
        <time>2017-06-24T14:49:35Z</time>
      </trkpt>
      <trkpt lat="47.870250" lon="1.726500">
        <time>2017-06-24T14:49:36Z</time>
      </trkpt>
      <trkpt lat="47.870250" lon="1.726500">
        <time>2017-06-24T14:49:37Z</time>
      </trkpt>
      <trkpt lat="47.870250" lon="1.726500">
        <time>2017-06-24T14:49:38Z</time>
      </trkpt>
      <trkpt lat="47.870250" lon="1.726500">
        <time>2017-06-24T14:49:39Z</time>
      </trkpt>
      <trkpt lat="47.870250" lon="1.726500">
        <time>2017-06-24T14:49:40Z</time>
      </trkpt>
      <trkpt lat="47.870250" lon="1.726500">
        <time>2017-06-24T14:49:41Z</time>
      </trkpt>
      <trkpt lat="47.870250" lon="1.726500">
        <time>2017-06-24T14:49:42Z</time>
      </trkpt>
      <trkpt lat="47.870250" lon="1.726500">
        <time>2017-06-24T14:49:43Z</time>
      </trkpt>
      <trkpt lat="47.870250" lon="1.726500">
        <time>2017-06-24T14:49:44Z</time>
      </trkpt>
      <trkpt lat="47.870250" lon="1.726500">
        <time>2017-06-24T14:49:45Z</time>
      </trkpt>
      <trkpt lat="47.870250" lon="1.726500">
        <time>2017-06-24T14:49:46Z</time>
      </trkpt>
      <trkpt lat="47.870250" lon="1.726500">
        <time>2017-06-24T14:49:47Z</time>
      </trkpt>
      <trkpt lat="47.870250" lon="1.726500">
        <time>2017-06-24T14:49:48Z</time>
      </trkpt>
      <trkpt lat="47.870250" lon="1.726500">
        <time>2017-06-24T14:49:49Z</time>
      </trkpt>
      <trkpt lat="47.870250" lon="1.726500">
        <time>2017-06-24T14:49:50Z</time>
      </trkpt>
      <trkpt lat="47.870250" lon="1.726500">
        <time>2017-06-24T14:49:51Z</time>
      </trkpt>
      <trkpt lat="47.870250" lon="1.726500">
        <time>2017-06-24T14:49:52Z</time>
      </trkpt>
      <trkpt lat="47.870250" lon="1.726500">
        <time>2017-06-24T14:49:53Z</time>
      </trkpt>
      <trkpt lat="47.870250" lon="1.726500">
        <time>2017-06-24T14:49:54Z</time>
      </trkpt>
      <trkpt lat="47.870250" lon="1.726500">
        <time>2017-06-24T14:49:55Z</time>
      </trkpt>
      <trkpt lat="47.870250" lon="1.726500">
        <time>2017-06-24T14:49:56Z</time>
      </trkpt>
      <trkpt lat="47.870250" lon="1.726500">
        <time>2017-06-24T14:49:57Z</time>
      </trkpt>
      <trkpt lat="47.870250" lon="1.726500">
        <time>2017-06-24T14:49:58Z</time>
      </trkpt>
      <trkpt lat="47.870250" lon="1.726500">
        <time>2017-06-24T14:49:59Z</time>
      </trkpt>
      <trkpt lat="47.870250" lon="1.726500">
        <time>2017-06-24T14:50:00Z</time>
      </trkpt>
      <trkpt lat="47.870250" lon="1.726500">
        <time>2017-06-24T14:50:01Z</time>
      </trkpt>
      <trkpt lat="47.870250" lon="1.726500">
        <time>2017-06-24T14:50:02Z</time>
      </trkpt>
      <trkpt lat="47.870250" lon="1.726500">
        <time>2017-06-24T14:50:03Z</time>
      </trkpt>
      <trkpt lat="47.870250" lon="1.726500">
        <time>2017-06-24T14:50:04Z</time>
      </trkpt>
      <trkpt lat="47.870250" lon="1.726500">
        <time>2017-06-24T14:50:05Z</time>
      </trkpt>
      <trkpt lat="47.870250" lon="1.726500">
        <time>2017-06-24T14:50:06Z</time>
      </trkpt>
      <trkpt lat="47.870250" lon="1.726500">
        <time>2017-06-24T14:50:07Z</time>
      </trkpt>
      <trkpt lat="47.870250" lon="1.726500">
        <time>2017-06-24T14:50:08Z</time>
      </trkpt>
      <trkpt lat="47.870250" lon="1.726500">
        <time>2017-06-24T14:50:09Z</time>
      </trkpt>
      <trkpt lat="47.870250" lon="1.726500">
        <time>2017-06-24T14:50:10Z</time>
      </trkpt>
      <trkpt lat="47.870250" lon="1.726500">
        <time>2017-06-24T14:50:11Z</time>
      </trkpt>
      <trkpt lat="47.870250" lon="1.726500">
        <time>2017-06-24T14:50:12Z</time>
      </trkpt>
      <trkpt lat="47.870250" lon="1.726500">
        <time>2017-06-24T14:50:13Z</time>
      </trkpt>
      <trkpt lat="47.870250" lon="1.726500">
        <time>2017-06-24T14:50:14Z</time>
      </trkpt>
      <trkpt lat="47.870250" lon="1.726500">
        <time>2017-06-24T14:50:15Z</time>
      </trkpt>
      <trkpt lat="47.870250" lon="1.726500">
        <time>2017-06-24T14:50:16Z</time>
      </trkpt>
      <trkpt lat="47.870250" lon="1.726500">
        <time>2017-06-24T14:50:17Z</time>
      </trkpt>
      <trkpt lat="47.870250" lon="1.726500">
        <time>2017-06-24T14:50:18Z</time>
      </trkpt>
      <trkpt lat="47.870250" lon="1.726500">
        <time>2017-06-24T14:50:19Z</time>
      </trkpt>
      <trkpt lat="47.870250" lon="1.726500">
        <time>2017-06-24T14:50:20Z</time>
      </trkpt>
      <trkpt lat="47.870250" lon="1.726500">
        <time>2017-06-24T14:50:21Z</time>
      </trkpt>
      <trkpt lat="47.870250" lon="1.726500">
        <time>2017-06-24T14:50:22Z</time>
      </trkpt>
      <trkpt lat="47.870250" lon="1.726500">
        <time>2017-06-24T14:50:23Z</time>
      </trkpt>
      <trkpt lat="47.870250" lon="1.726500">
        <time>2017-06-24T14:50:24Z</time>
      </trkpt>
      <trkpt lat="47.870250" lon="1.726500">
        <time>2017-06-24T14:50:25Z</time>
      </trkpt>
      <trkpt lat="47.870250" lon="1.726500">
        <time>2017-06-24T14:50:26Z</time>
      </trkpt>
      <trkpt lat="47.870250" lon="1.726500">
        <time>2017-06-24T14:50:27Z</time>
      </trkpt>
      <trkpt lat="47.870250" lon="1.726500">
        <time>2017-06-24T14:50:28Z</time>
      </trkpt>
      <trkpt lat="47.870250" lon="1.726500">
        <time>2017-06-24T14:50:29Z</time>
      </trkpt>
      <trkpt lat="47.870250" lon="1.726500">
        <time>2017-06-24T14:50:30Z</time>
      </trkpt>
      <trkpt lat="47.870250" lon="1.726500">
        <time>2017-06-24T14:50:31Z</time>
      </trkpt>
      <trkpt lat="47.870250" lon="1.726500">
        <time>2017-06-24T14:50:32Z</time>
      </trkpt>
      <trkpt lat="47.870250" lon="1.726500">
        <time>2017-06-24T14:50:33Z</time>
      </trkpt>
      <trkpt lat="47.870250" lon="1.726500">
        <time>2017-06-24T14:50:34Z</time>
      </trkpt>
      <trkpt lat="47.870250" lon="1.726500">
        <time>2017-06-24T14:50:35Z</time>
      </trkpt>
      <trkpt lat="47.870250" lon="1.726500">
        <time>2017-06-24T14:50:36Z</time>
      </trkpt>
      <trkpt lat="47.870250" lon="1.726500">
        <time>2017-06-24T14:50:37Z</time>
      </trkpt>
      <trkpt lat="47.870250" lon="1.726500">
        <time>2017-06-24T14:50:38Z</time>
      </trkpt>
      <trkpt lat="47.870250" lon="1.726500">
        <time>2017-06-24T14:50:39Z</time>
      </trkpt>
      <trkpt lat="47.870250" lon="1.726500">
        <time>2017-06-24T14:50:40Z</time>
      </trkpt>
      <trkpt lat="47.870250" lon="1.726500">
        <time>2017-06-24T14:50:41Z</time>
      </trkpt>
      <trkpt lat="47.870250" lon="1.726500">
        <time>2017-06-24T14:50:42Z</time>
      </trkpt>
      <trkpt lat="47.870250" lon="1.726500">
        <time>2017-06-24T14:50:43Z</time>
      </trkpt>
      <trkpt lat="47.870250" lon="1.726500">
        <time>2017-06-24T14:50:44Z</time>
      </trkpt>
      <trkpt lat="47.870250" lon="1.726500">
        <time>2017-06-24T14:50:45Z</time>
      </trkpt>
      <trkpt lat="47.870250" lon="1.726500">
        <time>2017-06-24T14:50:46Z</time>
      </trkpt>
      <trkpt lat="47.870250" lon="1.726500">
        <time>2017-06-24T14:50:47Z</time>
      </trkpt>
      <trkpt lat="47.870250" lon="1.726500">
        <time>2017-06-24T14:50:48Z</time>
      </trkpt>
      <trkpt lat="47.870250" lon="1.726500">
        <time>2017-06-24T14:50:49Z</time>
      </trkpt>
      <trkpt lat="47.870250" lon="1.726500">
        <time>2017-06-24T14:50:50Z</time>
      </trkpt>
      <trkpt lat="47.870250" lon="1.726500">
        <time>2017-06-24T14:50:51Z</time>
      </trkpt>
      <trkpt lat="47.870250" lon="1.726500">
        <time>2017-06-24T14:50:52Z</time>
      </trkpt>
      <trkpt lat="47.870250" lon="1.726500">
        <time>2017-06-24T14:50:53Z</time>
      </trkpt>
      <trkpt lat="47.870250" lon="1.726500">
        <time>2017-06-24T14:50:54Z</time>
      </trkpt>
      <trkpt lat="47.870250" lon="1.726500">
        <time>2017-06-24T14:50:55Z</time>
      </trkpt>
      <trkpt lat="47.870250" lon="1.726500">
        <time>2017-06-24T14:50:56Z</time>
      </trkpt>
      <trkpt lat="47.870250" lon="1.726500">
        <time>2017-06-24T14:50:57Z</time>
      </trkpt>
      <trkpt lat="47.870250" lon="1.726500">
        <time>2017-06-24T14:50:58Z</time>
      </trkpt>
      <trkpt lat="47.870250" lon="1.726500">
        <time>2017-06-24T14:50:59Z</time>
      </trkpt>
      <trkpt lat="47.870250" lon="1.726500">
        <time>2017-06-24T14:51:00Z</time>
      </trkpt>
      <trkpt lat="47.870250" lon="1.726500">
        <time>2017-06-24T14:51:01Z</time>
      </trkpt>
      <trkpt lat="47.870250" lon="1.726500">
        <time>2017-06-24T14:51:02Z</time>
      </trkpt>
      <trkpt lat="47.870250" lon="1.726500">
        <time>2017-06-24T14:51:03Z</time>
      </trkpt>
      <trkpt lat="47.870250" lon="1.726500">
        <time>2017-06-24T14:51:04Z</time>
      </trkpt>
      <trkpt lat="47.870250" lon="1.726500">
        <time>2017-06-24T14:51:05Z</time>
      </trkpt>
      <trkpt lat="47.870250" lon="1.726500">
        <time>2017-06-24T14:51:06Z</time>
      </trkpt>
      <trkpt lat="47.870250" lon="1.726500">
        <time>2017-06-24T14:51:07Z</time>
      </trkpt>
      <trkpt lat="47.870250" lon="1.726500">
        <time>2017-06-24T14:51:08Z</time>
      </trkpt>
      <trkpt lat="47.870250" lon="1.726500">
        <time>2017-06-24T14:51:09Z</time>
      </trkpt>
      <trkpt lat="47.870250" lon="1.726500">
        <time>2017-06-24T14:51:10Z</time>
      </trkpt>
      <trkpt lat="47.870250" lon="1.726500">
        <time>2017-06-24T14:51:11Z</time>
      </trkpt>
      <trkpt lat="47.870250" lon="1.726500">
        <time>2017-06-24T14:51:12Z</time>
      </trkpt>
      <trkpt lat="47.870250" lon="1.726500">
        <time>2017-06-24T14:51:13Z</time>
      </trkpt>
      <trkpt lat="47.870250" lon="1.726500">
        <time>2017-06-24T14:51:14Z</time>
      </trkpt>
      <trkpt lat="47.870250" lon="1.726500">
        <time>2017-06-24T14:51:15Z</time>
      </trkpt>
      <trkpt lat="47.870250" lon="1.726500">
        <time>2017-06-24T14:51:16Z</time>
      </trkpt>
      <trkpt lat="47.870250" lon="1.726500">
        <time>2017-06-24T14:51:17Z</time>
      </trkpt>
      <trkpt lat="47.870250" lon="1.726500">
        <time>2017-06-24T14:51:18Z</time>
      </trkpt>
      <trkpt lat="47.870250" lon="1.726500">
        <time>2017-06-24T14:51:19Z</time>
      </trkpt>
      <trkpt lat="47.870250" lon="1.726500">
        <time>2017-06-24T14:51:20Z</time>
      </trkpt>
      <trkpt lat="47.870250" lon="1.726500">
        <time>2017-06-24T14:51:21Z</time>
      </trkpt>
      <trkpt lat="47.870250" lon="1.726500">
        <time>2017-06-24T14:51:22Z</time>
      </trkpt>
      <trkpt lat="47.870250" lon="1.726500">
        <time>2017-06-24T14:51:23Z</time>
      </trkpt>
      <trkpt lat="47.870250" lon="1.726500">
        <time>2017-06-24T14:51:24Z</time>
      </trkpt>
      <trkpt lat="47.870250" lon="1.726500">
        <time>2017-06-24T14:51:25Z</time>
      </trkpt>
      <trkpt lat="47.870250" lon="1.726500">
        <time>2017-06-24T14:51:26Z</time>
      </trkpt>
      <trkpt lat="47.870250" lon="1.726500">
        <time>2017-06-24T14:51:27Z</time>
      </trkpt>
      <trkpt lat="47.870250" lon="1.726500">
        <time>2017-06-24T14:51:28Z</time>
      </trkpt>
      <trkpt lat="47.870250" lon="1.726500">
        <time>2017-06-24T14:51:29Z</time>
      </trkpt>
      <trkpt lat="47.870250" lon="1.726500">
        <time>2017-06-24T14:51:30Z</time>
      </trkpt>
      <trkpt lat="47.870250" lon="1.726500">
        <time>2017-06-24T14:51:31Z</time>
      </trkpt>
      <trkpt lat="47.870250" lon="1.726500">
        <time>2017-06-24T14:51:32Z</time>
      </trkpt>
      <trkpt lat="47.870250" lon="1.726500">
        <time>2017-06-24T14:51:33Z</time>
      </trkpt>
      <trkpt lat="47.870250" lon="1.726500">
        <time>2017-06-24T14:51:34Z</time>
      </trkpt>
      <trkpt lat="47.870250" lon="1.726500">
        <time>2017-06-24T14:51:35Z</time>
      </trkpt>
      <trkpt lat="47.870250" lon="1.726500">
        <time>2017-06-24T14:51:36Z</time>
      </trkpt>
      <trkpt lat="47.870250" lon="1.726500">
        <time>2017-06-24T14:51:37Z</time>
      </trkpt>
      <trkpt lat="47.870250" lon="1.726500">
        <time>2017-06-24T14:51:38Z</time>
      </trkpt>
      <trkpt lat="47.870250" lon="1.726500">
        <time>2017-06-24T14:51:39Z</time>
      </trkpt>
      <trkpt lat="47.870250" lon="1.726500">
        <time>2017-06-24T14:51:40Z</time>
      </trkpt>
      <trkpt lat="47.870250" lon="1.726500">
        <time>2017-06-24T14:51:41Z</time>
      </trkpt>
      <trkpt lat="47.870250" lon="1.726500">
        <time>2017-06-24T14:51:42Z</time>
      </trkpt>
      <trkpt lat="47.870250" lon="1.726500">
        <time>2017-06-24T14:51:43Z</time>
      </trkpt>
      <trkpt lat="47.870250" lon="1.726500">
        <time>2017-06-24T14:51:44Z</time>
      </trkpt>
      <trkpt lat="47.870250" lon="1.726500">
        <time>2017-06-24T14:51:45Z</time>
      </trkpt>
      <trkpt lat="47.870250" lon="1.726500">
        <time>2017-06-24T14:51:46Z</time>
      </trkpt>
      <trkpt lat="47.870250" lon="1.726500">
        <time>2017-06-24T14:51:47Z</time>
      </trkpt>
      <trkpt lat="47.870250" lon="1.726500">
        <time>2017-06-24T14:51:48Z</time>
      </trkpt>
      <trkpt lat="47.870250" lon="1.726500">
        <time>2017-06-24T14:51:49Z</time>
      </trkpt>
      <trkpt lat="47.870250" lon="1.726500">
        <time>2017-06-24T14:51:50Z</time>
      </trkpt>
      <trkpt lat="47.870250" lon="1.726500">
        <time>2017-06-24T14:51:51Z</time>
      </trkpt>
      <trkpt lat="47.870250" lon="1.726500">
        <time>2017-06-24T14:51:52Z</time>
      </trkpt>
      <trkpt lat="47.870250" lon="1.726500">
        <time>2017-06-24T14:51:53Z</time>
      </trkpt>
      <trkpt lat="47.870250" lon="1.726500">
        <time>2017-06-24T14:51:54Z</time>
      </trkpt>
      <trkpt lat="47.870250" lon="1.726500">
        <time>2017-06-24T14:51:55Z</time>
      </trkpt>
      <trkpt lat="47.870250" lon="1.726500">
        <time>2017-06-24T14:51:56Z</time>
      </trkpt>
      <trkpt lat="47.870250" lon="1.726500">
        <time>2017-06-24T14:51:57Z</time>
      </trkpt>
      <trkpt lat="47.870250" lon="1.726500">
        <time>2017-06-24T14:51:58Z</time>
      </trkpt>
      <trkpt lat="47.870250" lon="1.726500">
        <time>2017-06-24T14:51:59Z</time>
      </trkpt>
      <trkpt lat="47.870250" lon="1.726500">
        <time>2017-06-24T14:52:00Z</time>
      </trkpt>
      <trkpt lat="47.870250" lon="1.726500">
        <time>2017-06-24T14:52:01Z</time>
      </trkpt>
      <trkpt lat="47.870250" lon="1.726500">
        <time>2017-06-24T14:52:02Z</time>
      </trkpt>
      <trkpt lat="47.870250" lon="1.726500">
        <time>2017-06-24T14:52:03Z</time>
      </trkpt>
      <trkpt lat="47.870250" lon="1.726500">
        <time>2017-06-24T14:52:04Z</time>
      </trkpt>
      <trkpt lat="47.870250" lon="1.726500">
        <time>2017-06-24T14:52:05Z</time>
      </trkpt>
      <trkpt lat="47.870250" lon="1.726500">
        <time>2017-06-24T14:52:06Z</time>
      </trkpt>
      <trkpt lat="47.870250" lon="1.726500">
        <time>2017-06-24T14:52:07Z</time>
      </trkpt>
      <trkpt lat="47.870250" lon="1.726500">
        <time>2017-06-24T14:52:08Z</time>
      </trkpt>
      <trkpt lat="47.870250" lon="1.726500">
        <time>2017-06-24T14:52:09Z</time>
      </trkpt>
      <trkpt lat="47.870250" lon="1.726500">
        <time>2017-06-24T14:52:10Z</time>
      </trkpt>
      <trkpt lat="47.870250" lon="1.726500">
        <time>2017-06-24T14:52:11Z</time>
      </trkpt>
      <trkpt lat="47.870250" lon="1.726500">
        <time>2017-06-24T14:52:12Z</time>
      </trkpt>
      <trkpt lat="47.870250" lon="1.726500">
        <time>2017-06-24T14:52:13Z</time>
      </trkpt>
      <trkpt lat="47.870250" lon="1.726500">
        <time>2017-06-24T14:52:14Z</time>
      </trkpt>
      <trkpt lat="47.870250" lon="1.726500">
        <time>2017-06-24T14:52:15Z</time>
      </trkpt>
      <trkpt lat="47.870250" lon="1.726500">
        <time>2017-06-24T14:52:16Z</time>
      </trkpt>
      <trkpt lat="47.870250" lon="1.726500">
        <time>2017-06-24T14:52:17Z</time>
      </trkpt>
      <trkpt lat="47.870250" lon="1.726500">
        <time>2017-06-24T14:52:18Z</time>
      </trkpt>
      <trkpt lat="47.870250" lon="1.726500">
        <time>2017-06-24T14:52:19Z</time>
      </trkpt>
      <trkpt lat="47.870250" lon="1.726500">
        <time>2017-06-24T14:52:20Z</time>
      </trkpt>
      <trkpt lat="47.870250" lon="1.726500">
        <time>2017-06-24T14:52:21Z</time>
      </trkpt>
      <trkpt lat="47.870250" lon="1.726500">
        <time>2017-06-24T14:52:22Z</time>
      </trkpt>
      <trkpt lat="47.870250" lon="1.726500">
        <time>2017-06-24T14:52:23Z</time>
      </trkpt>
      <trkpt lat="47.870250" lon="1.726500">
        <time>2017-06-24T14:52:24Z</time>
      </trkpt>
      <trkpt lat="47.870250" lon="1.726500">
        <time>2017-06-24T14:52:25Z</time>
      </trkpt>
      <trkpt lat="47.870250" lon="1.726500">
        <time>2017-06-24T14:52:26Z</time>
      </trkpt>
      <trkpt lat="47.870250" lon="1.726500">
        <time>2017-06-24T14:52:27Z</time>
      </trkpt>
      <trkpt lat="47.870250" lon="1.726500">
        <time>2017-06-24T14:52:28Z</time>
      </trkpt>
      <trkpt lat="47.870250" lon="1.726500">
        <time>2017-06-24T14:52:29Z</time>
      </trkpt>
      <trkpt lat="47.870250" lon="1.726500">
        <time>2017-06-24T14:52:30Z</time>
      </trkpt>
      <trkpt lat="47.870250" lon="1.726500">
        <time>2017-06-24T14:52:31Z</time>
      </trkpt>
      <trkpt lat="47.870250" lon="1.726500">
        <time>2017-06-24T14:52:32Z</time>
      </trkpt>
      <trkpt lat="47.870250" lon="1.726500">
        <time>2017-06-24T14:52:33Z</time>
      </trkpt>
      <trkpt lat="47.870250" lon="1.726500">
        <time>2017-06-24T14:52:34Z</time>
      </trkpt>
      <trkpt lat="47.870250" lon="1.726500">
        <time>2017-06-24T14:52:35Z</time>
      </trkpt>
      <trkpt lat="47.870250" lon="1.726500">
        <time>2017-06-24T14:52:36Z</time>
      </trkpt>
      <trkpt lat="47.870250" lon="1.726500">
        <time>2017-06-24T14:52:37Z</time>
      </trkpt>
      <trkpt lat="47.870250" lon="1.726500">
        <time>2017-06-24T14:52:38Z</time>
      </trkpt>
      <trkpt lat="47.870250" lon="1.726500">
        <time>2017-06-24T14:52:39Z</time>
      </trkpt>
      <trkpt lat="47.870250" lon="1.726500">
        <time>2017-06-24T14:52:40Z</time>
      </trkpt>
      <trkpt lat="47.870250" lon="1.726500">
        <time>2017-06-24T14:52:41Z</time>
      </trkpt>
      <trkpt lat="47.870250" lon="1.726500">
        <time>2017-06-24T14:52:42Z</time>
      </trkpt>
      <trkpt lat="47.870250" lon="1.726500">
        <time>2017-06-24T14:52:43Z</time>
      </trkpt>
      <trkpt lat="47.870250" lon="1.726500">
        <time>2017-06-24T14:52:44Z</time>
      </trkpt>
      <trkpt lat="47.870250" lon="1.726500">
        <time>2017-06-24T14:52:45Z</time>
      </trkpt>
      <trkpt lat="47.870250" lon="1.726500">
        <time>2017-06-24T14:52:46Z</time>
      </trkpt>
      <trkpt lat="47.870250" lon="1.726500">
        <time>2017-06-24T14:52:47Z</time>
      </trkpt>
      <trkpt lat="47.870250" lon="1.726500">
        <time>2017-06-24T14:52:48Z</time>
      </trkpt>
      <trkpt lat="47.870250" lon="1.726500">
        <time>2017-06-24T14:52:49Z</time>
      </trkpt>
      <trkpt lat="47.870250" lon="1.726500">
        <time>2017-06-24T14:52:50Z</time>
      </trkpt>
      <trkpt lat="47.870250" lon="1.726500">
        <time>2017-06-24T14:52:51Z</time>
      </trkpt>
      <trkpt lat="47.870250" lon="1.726500">
        <time>2017-06-24T14:52:52Z</time>
      </trkpt>
      <trkpt lat="47.870250" lon="1.726500">
        <time>2017-06-24T14:52:53Z</time>
      </trkpt>
      <trkpt lat="47.870250" lon="1.726500">
        <time>2017-06-24T14:52:54Z</time>
      </trkpt>
      <trkpt lat="47.870250" lon="1.726500">
        <time>2017-06-24T14:52:55Z</time>
      </trkpt>
      <trkpt lat="47.870250" lon="1.726500">
        <time>2017-06-24T14:52:56Z</time>
      </trkpt>
      <trkpt lat="47.870250" lon="1.726500">
        <time>2017-06-24T14:52:57Z</time>
      </trkpt>
      <trkpt lat="47.870250" lon="1.726500">
        <time>2017-06-24T14:52:58Z</time>
      </trkpt>
      <trkpt lat="47.870250" lon="1.726500">
        <time>2017-06-24T14:52:59Z</time>
      </trkpt>
      <trkpt lat="47.870250" lon="1.726500">
        <time>2017-06-24T14:53:00Z</time>
      </trkpt>
      <trkpt lat="47.870250" lon="1.726500">
        <time>2017-06-24T14:53:01Z</time>
      </trkpt>
      <trkpt lat="47.870250" lon="1.726500">
        <time>2017-06-24T14:53:02Z</time>
      </trkpt>
      <trkpt lat="47.870250" lon="1.726500">
        <time>2017-06-24T14:53:03Z</time>
      </trkpt>
      <trkpt lat="47.870250" lon="1.726500">
        <time>2017-06-24T14:53:04Z</time>
      </trkpt>
      <trkpt lat="47.870250" lon="1.726500">
        <time>2017-06-24T14:53:05Z</time>
      </trkpt>
      <trkpt lat="47.870260" lon="1.726490">
        <time>2017-06-24T14:53:06Z</time>
      </trkpt>
      <trkpt lat="47.870290" lon="1.726490">
        <time>2017-06-24T14:53:07Z</time>
      </trkpt>
      <trkpt lat="47.870330" lon="1.726490">
        <time>2017-06-24T14:53:08Z</time>
      </trkpt>
      <trkpt lat="47.870370" lon="1.726500">
        <time>2017-06-24T14:53:09Z</time>
      </trkpt>
      <trkpt lat="47.870440" lon="1.726490">
        <time>2017-06-24T14:53:10Z</time>
      </trkpt>
      <trkpt lat="47.870500" lon="1.726470">
        <time>2017-06-24T14:53:11Z</time>
      </trkpt>
      <trkpt lat="47.870540" lon="1.726450">
        <time>2017-06-24T14:53:12Z</time>
      </trkpt>
      <trkpt lat="47.870580" lon="1.726450">
        <time>2017-06-24T14:53:13Z</time>
      </trkpt>
      <trkpt lat="47.870630" lon="1.726470">
        <time>2017-06-24T14:53:14Z</time>
      </trkpt>
      <trkpt lat="47.870680" lon="1.726520">
        <time>2017-06-24T14:53:15Z</time>
      </trkpt>
      <trkpt lat="47.870770" lon="1.726610">
        <time>2017-06-24T14:53:16Z</time>
      </trkpt>
      <trkpt lat="47.870840" lon="1.726690">
        <time>2017-06-24T14:53:17Z</time>
      </trkpt>
      <trkpt lat="47.870910" lon="1.726770">
        <time>2017-06-24T14:53:18Z</time>
      </trkpt>
      <trkpt lat="47.871000" lon="1.726850">
        <time>2017-06-24T14:53:19Z</time>
      </trkpt>
      <trkpt lat="47.871080" lon="1.726920">
        <time>2017-06-24T14:53:20Z</time>
      </trkpt>
      <trkpt lat="47.871190" lon="1.727010">
        <time>2017-06-24T14:53:21Z</time>
      </trkpt>
      <trkpt lat="47.871310" lon="1.727110">
        <time>2017-06-24T14:53:22Z</time>
      </trkpt>
      <trkpt lat="47.871440" lon="1.727250">
        <time>2017-06-24T14:53:23Z</time>
      </trkpt>
      <trkpt lat="47.871600" lon="1.727420">
        <time>2017-06-24T14:53:24Z</time>
      </trkpt>
      <trkpt lat="47.871730" lon="1.727590">
        <time>2017-06-24T14:53:25Z</time>
      </trkpt>
      <trkpt lat="47.871870" lon="1.727770">
        <time>2017-06-24T14:53:26Z</time>
      </trkpt>
      <trkpt lat="47.872030" lon="1.727990">
        <time>2017-06-24T14:53:27Z</time>
      </trkpt>
      <trkpt lat="47.872170" lon="1.728180">
        <time>2017-06-24T14:53:28Z</time>
      </trkpt>
      <trkpt lat="47.872330" lon="1.728420">
        <time>2017-06-24T14:53:29Z</time>
      </trkpt>
      <trkpt lat="47.872520" lon="1.728670">
        <time>2017-06-24T14:53:30Z</time>
      </trkpt>
      <trkpt lat="47.872680" lon="1.728900">
        <time>2017-06-24T14:53:31Z</time>
      </trkpt>
      <trkpt lat="47.872860" lon="1.729150">
        <time>2017-06-24T14:53:32Z</time>
      </trkpt>
      <trkpt lat="47.873020" lon="1.729360">
        <time>2017-06-24T14:53:33Z</time>
      </trkpt>
      <trkpt lat="47.873200" lon="1.729610">
        <time>2017-06-24T14:53:34Z</time>
      </trkpt>
      <trkpt lat="47.873390" lon="1.729880">
        <time>2017-06-24T14:53:35Z</time>
      </trkpt>
      <trkpt lat="47.873560" lon="1.730120">
        <time>2017-06-24T14:53:36Z</time>
      </trkpt>
      <trkpt lat="47.873750" lon="1.730390">
        <time>2017-06-24T14:53:37Z</time>
      </trkpt>
      <trkpt lat="47.873950" lon="1.730670">
        <time>2017-06-24T14:53:38Z</time>
      </trkpt>
      <trkpt lat="47.874150" lon="1.730960">
        <time>2017-06-24T14:53:39Z</time>
      </trkpt>
      <trkpt lat="47.874370" lon="1.731270">
        <time>2017-06-24T14:53:40Z</time>
      </trkpt>
      <trkpt lat="47.874570" lon="1.731560">
        <time>2017-06-24T14:53:41Z</time>
      </trkpt>
      <trkpt lat="47.874790" lon="1.731870">
        <time>2017-06-24T14:53:42Z</time>
      </trkpt>
      <trkpt lat="47.875020" lon="1.732200">
        <time>2017-06-24T14:53:43Z</time>
      </trkpt>
      <trkpt lat="47.875230" lon="1.732510">
        <time>2017-06-24T14:53:44Z</time>
      </trkpt>
      <trkpt lat="47.875450" lon="1.732830">
        <time>2017-06-24T14:53:45Z</time>
      </trkpt>
      <trkpt lat="47.875690" lon="1.733170">
        <time>2017-06-24T14:53:46Z</time>
      </trkpt>
      <trkpt lat="47.875880" lon="1.733450">
        <time>2017-06-24T14:53:47Z</time>
      </trkpt>
      <trkpt lat="47.876110" lon="1.733780">
        <time>2017-06-24T14:53:48Z</time>
      </trkpt>
      <trkpt lat="47.876320" lon="1.734070">
        <time>2017-06-24T14:53:49Z</time>
      </trkpt>
      <trkpt lat="47.876530" lon="1.734370">
        <time>2017-06-24T14:53:50Z</time>
      </trkpt>
      <trkpt lat="47.876760" lon="1.734710">
        <time>2017-06-24T14:53:51Z</time>
      </trkpt>
      <trkpt lat="47.876970" lon="1.735000">
        <time>2017-06-24T14:53:52Z</time>
      </trkpt>
      <trkpt lat="47.877190" lon="1.735310">
        <time>2017-06-24T14:53:53Z</time>
      </trkpt>
      <trkpt lat="47.877410" lon="1.735630">
        <time>2017-06-24T14:53:54Z</time>
      </trkpt>
      <trkpt lat="47.877630" lon="1.735950">
        <time>2017-06-24T14:53:55Z</time>
      </trkpt>
      <trkpt lat="47.877870" lon="1.736290">
        <time>2017-06-24T14:53:56Z</time>
      </trkpt>
      <trkpt lat="47.878070" lon="1.736590">
        <time>2017-06-24T14:53:57Z</time>
      </trkpt>
      <trkpt lat="47.878300" lon="1.736920">
        <time>2017-06-24T14:53:58Z</time>
      </trkpt>
      <trkpt lat="47.878540" lon="1.737260">
        <time>2017-06-24T14:53:59Z</time>
      </trkpt>
      <trkpt lat="47.878750" lon="1.737560">
        <time>2017-06-24T14:54:00Z</time>
      </trkpt>
      <trkpt lat="47.878970" lon="1.737880">
        <time>2017-06-24T14:54:01Z</time>
      </trkpt>
      <trkpt lat="47.879210" lon="1.738230">
        <time>2017-06-24T14:54:02Z</time>
      </trkpt>
      <trkpt lat="47.879430" lon="1.738540">
        <time>2017-06-24T14:54:03Z</time>
      </trkpt>
      <trkpt lat="47.879670" lon="1.738890">
        <time>2017-06-24T14:54:04Z</time>
      </trkpt>
      <trkpt lat="47.879880" lon="1.739200">
        <time>2017-06-24T14:54:05Z</time>
      </trkpt>
      <trkpt lat="47.880110" lon="1.739540">
        <time>2017-06-24T14:54:06Z</time>
      </trkpt>
      <trkpt lat="47.880350" lon="1.739900">
        <time>2017-06-24T14:54:07Z</time>
      </trkpt>
      <trkpt lat="47.880560" lon="1.740230">
        <time>2017-06-24T14:54:08Z</time>
      </trkpt>
      <trkpt lat="47.880790" lon="1.740570">
        <time>2017-06-24T14:54:09Z</time>
      </trkpt>
      <trkpt lat="47.881010" lon="1.740920">
        <time>2017-06-24T14:54:10Z</time>
      </trkpt>
      <trkpt lat="47.881230" lon="1.741270">
        <time>2017-06-24T14:54:11Z</time>
      </trkpt>
      <trkpt lat="47.881470" lon="1.741640">
        <time>2017-06-24T14:54:12Z</time>
      </trkpt>
      <trkpt lat="47.881680" lon="1.741980">
        <time>2017-06-24T14:54:13Z</time>
      </trkpt>
      <trkpt lat="47.881900" lon="1.742330">
        <time>2017-06-24T14:54:14Z</time>
      </trkpt>
      <trkpt lat="47.882140" lon="1.742720">
        <time>2017-06-24T14:54:15Z</time>
      </trkpt>
      <trkpt lat="47.882340" lon="1.743060">
        <time>2017-06-24T14:54:16Z</time>
      </trkpt>
      <trkpt lat="47.882560" lon="1.743420">
        <time>2017-06-24T14:54:17Z</time>
      </trkpt>
      <trkpt lat="47.882790" lon="1.743810">
        <time>2017-06-24T14:54:18Z</time>
      </trkpt>
      <trkpt lat="47.883000" lon="1.744160">
        <time>2017-06-24T14:54:19Z</time>
      </trkpt>
      <trkpt lat="47.883230" lon="1.744550">
        <time>2017-06-24T14:54:20Z</time>
      </trkpt>
      <trkpt lat="47.883430" lon="1.744900">
        <time>2017-06-24T14:54:21Z</time>
      </trkpt>
      <trkpt lat="47.883640" lon="1.745270">
        <time>2017-06-24T14:54:22Z</time>
      </trkpt>
      <trkpt lat="47.883860" lon="1.745680">
        <time>2017-06-24T14:54:23Z</time>
      </trkpt>
      <trkpt lat="47.884060" lon="1.746030">
        <time>2017-06-24T14:54:24Z</time>
      </trkpt>
      <trkpt lat="47.884270" lon="1.746410">
        <time>2017-06-24T14:54:25Z</time>
      </trkpt>
      <trkpt lat="47.884470" lon="1.746790">
        <time>2017-06-24T14:54:26Z</time>
      </trkpt>
      <trkpt lat="47.884680" lon="1.747180">
        <time>2017-06-24T14:54:27Z</time>
      </trkpt>
      <trkpt lat="47.884900" lon="1.747580">
        <time>2017-06-24T14:54:28Z</time>
      </trkpt>
      <trkpt lat="47.885090" lon="1.747940">
        <time>2017-06-24T14:54:29Z</time>
      </trkpt>
      <trkpt lat="47.885290" lon="1.748330">
        <time>2017-06-24T14:54:30Z</time>
      </trkpt>
      <trkpt lat="47.885510" lon="1.748750">
        <time>2017-06-24T14:54:31Z</time>
      </trkpt>
      <trkpt lat="47.885690" lon="1.749110">
        <time>2017-06-24T14:54:32Z</time>
      </trkpt>
      <trkpt lat="47.885890" lon="1.749500">
        <time>2017-06-24T14:54:33Z</time>
      </trkpt>
      <trkpt lat="47.886090" lon="1.749910">
        <time>2017-06-24T14:54:34Z</time>
      </trkpt>
      <trkpt lat="47.886270" lon="1.750270">
        <time>2017-06-24T14:54:35Z</time>
      </trkpt>
      <trkpt lat="47.886470" lon="1.750680">
        <time>2017-06-24T14:54:36Z</time>
      </trkpt>
      <trkpt lat="47.886650" lon="1.751050">
        <time>2017-06-24T14:54:37Z</time>
      </trkpt>
      <trkpt lat="47.886840" lon="1.751450">
        <time>2017-06-24T14:54:38Z</time>
      </trkpt>
      <trkpt lat="47.887030" lon="1.751860">
        <time>2017-06-24T14:54:39Z</time>
      </trkpt>
      <trkpt lat="47.887200" lon="1.752220">
        <time>2017-06-24T14:54:40Z</time>
      </trkpt>
      <trkpt lat="47.887380" lon="1.752600">
        <time>2017-06-24T14:54:41Z</time>
      </trkpt>
      <trkpt lat="47.887560" lon="1.752990">
        <time>2017-06-24T14:54:42Z</time>
      </trkpt>
      <trkpt lat="47.887730" lon="1.753370">
        <time>2017-06-24T14:54:43Z</time>
      </trkpt>
      <trkpt lat="47.887920" lon="1.753770">
        <time>2017-06-24T14:54:44Z</time>
      </trkpt>
      <trkpt lat="47.888070" lon="1.754110">
        <time>2017-06-24T14:54:45Z</time>
      </trkpt>
      <trkpt lat="47.888230" lon="1.754480">
        <time>2017-06-24T14:54:46Z</time>
      </trkpt>
      <trkpt lat="47.888410" lon="1.754880">
        <time>2017-06-24T14:54:47Z</time>
      </trkpt>
      <trkpt lat="47.888570" lon="1.755220">
        <time>2017-06-24T14:54:48Z</time>
      </trkpt>
      <trkpt lat="47.888740" lon="1.755590">
        <time>2017-06-24T14:54:49Z</time>
      </trkpt>
      <trkpt lat="47.888910" lon="1.755990">
        <time>2017-06-24T14:54:50Z</time>
      </trkpt>
      <trkpt lat="47.889050" lon="1.756330">
        <time>2017-06-24T14:54:51Z</time>
      </trkpt>
      <trkpt lat="47.889220" lon="1.756740">
        <time>2017-06-24T14:54:52Z</time>
      </trkpt>
      <trkpt lat="47.889370" lon="1.757100">
        <time>2017-06-24T14:54:53Z</time>
      </trkpt>
      <trkpt lat="47.889530" lon="1.757500">
        <time>2017-06-24T14:54:54Z</time>
      </trkpt>
      <trkpt lat="47.889700" lon="1.757920">
        <time>2017-06-24T14:54:55Z</time>
      </trkpt>
      <trkpt lat="47.889840" lon="1.758310">
        <time>2017-06-24T14:54:56Z</time>
      </trkpt>
      <trkpt lat="47.890000" lon="1.758710">
        <time>2017-06-24T14:54:57Z</time>
      </trkpt>
      <trkpt lat="47.890160" lon="1.759120">
        <time>2017-06-24T14:54:58Z</time>
      </trkpt>
      <trkpt lat="47.890310" lon="1.759530">
        <time>2017-06-24T14:54:59Z</time>
      </trkpt>
      <trkpt lat="47.890470" lon="1.759970">
        <time>2017-06-24T14:55:00Z</time>
      </trkpt>
      <trkpt lat="47.890620" lon="1.760360">
        <time>2017-06-24T14:55:01Z</time>
      </trkpt>
      <trkpt lat="47.890780" lon="1.760780">
        <time>2017-06-24T14:55:02Z</time>
      </trkpt>
      <trkpt lat="47.890940" lon="1.761240">
        <time>2017-06-24T14:55:03Z</time>
      </trkpt>
      <trkpt lat="47.891070" lon="1.761650">
        <time>2017-06-24T14:55:04Z</time>
      </trkpt>
      <trkpt lat="47.891220" lon="1.762080">
        <time>2017-06-24T14:55:05Z</time>
      </trkpt>
      <trkpt lat="47.891370" lon="1.762540">
        <time>2017-06-24T14:55:06Z</time>
      </trkpt>
      <trkpt lat="47.891510" lon="1.762950">
        <time>2017-06-24T14:55:07Z</time>
      </trkpt>
      <trkpt lat="47.891660" lon="1.763410">
        <time>2017-06-24T14:55:08Z</time>
      </trkpt>
      <trkpt lat="47.891800" lon="1.763800">
        <time>2017-06-24T14:55:09Z</time>
      </trkpt>
      <trkpt lat="47.891940" lon="1.764230">
        <time>2017-06-24T14:55:10Z</time>
      </trkpt>
      <trkpt lat="47.892080" lon="1.764660">
        <time>2017-06-24T14:55:11Z</time>
      </trkpt>
      <trkpt lat="47.892200" lon="1.765020">
        <time>2017-06-24T14:55:12Z</time>
      </trkpt>
      <trkpt lat="47.892310" lon="1.765390">
        <time>2017-06-24T14:55:13Z</time>
      </trkpt>
      <trkpt lat="47.892420" lon="1.765770">
        <time>2017-06-24T14:55:14Z</time>
      </trkpt>
      <trkpt lat="47.892540" lon="1.766140">
        <time>2017-06-24T14:55:15Z</time>
      </trkpt>
      <trkpt lat="47.892670" lon="1.766550">
        <time>2017-06-24T14:55:16Z</time>
      </trkpt>
      <trkpt lat="47.892780" lon="1.766920">
        <time>2017-06-24T14:55:17Z</time>
      </trkpt>
      <trkpt lat="47.892900" lon="1.767330">
        <time>2017-06-24T14:55:18Z</time>
      </trkpt>
      <trkpt lat="47.893030" lon="1.767760">
        <time>2017-06-24T14:55:19Z</time>
      </trkpt>
      <trkpt lat="47.893150" lon="1.768150">
        <time>2017-06-24T14:55:20Z</time>
      </trkpt>
      <trkpt lat="47.893270" lon="1.768570">
        <time>2017-06-24T14:55:21Z</time>
      </trkpt>
      <trkpt lat="47.893400" lon="1.769030">
        <time>2017-06-24T14:55:22Z</time>
      </trkpt>
      <trkpt lat="47.893520" lon="1.769430">
        <time>2017-06-24T14:55:23Z</time>
      </trkpt>
      <trkpt lat="47.893640" lon="1.769890">
        <time>2017-06-24T14:55:24Z</time>
      </trkpt>
      <trkpt lat="47.893750" lon="1.770290">
        <time>2017-06-24T14:55:25Z</time>
      </trkpt>
      <trkpt lat="47.893870" lon="1.770720">
        <time>2017-06-24T14:55:26Z</time>
      </trkpt>
      <trkpt lat="47.893990" lon="1.771180">
        <time>2017-06-24T14:55:27Z</time>
      </trkpt>
      <trkpt lat="47.894100" lon="1.771590">
        <time>2017-06-24T14:55:28Z</time>
      </trkpt>
      <trkpt lat="47.894220" lon="1.772040">
        <time>2017-06-24T14:55:29Z</time>
      </trkpt>
      <trkpt lat="47.894330" lon="1.772480">
        <time>2017-06-24T14:55:30Z</time>
      </trkpt>
      <trkpt lat="47.894450" lon="1.772930">
        <time>2017-06-24T14:55:31Z</time>
      </trkpt>
      <trkpt lat="47.894560" lon="1.773410">
        <time>2017-06-24T14:55:32Z</time>
      </trkpt>
      <trkpt lat="47.894660" lon="1.773830">
        <time>2017-06-24T14:55:33Z</time>
      </trkpt>
      <trkpt lat="47.894770" lon="1.774280">
        <time>2017-06-24T14:55:34Z</time>
      </trkpt>
      <trkpt lat="47.894890" lon="1.774760">
        <time>2017-06-24T14:55:35Z</time>
      </trkpt>
      <trkpt lat="47.894990" lon="1.775180">
        <time>2017-06-24T14:55:36Z</time>
      </trkpt>
      <trkpt lat="47.895090" lon="1.775640">
        <time>2017-06-24T14:55:37Z</time>
      </trkpt>
      <trkpt lat="47.895200" lon="1.776120">
        <time>2017-06-24T14:55:38Z</time>
      </trkpt>
      <trkpt lat="47.895280" lon="1.776550">
        <time>2017-06-24T14:55:39Z</time>
      </trkpt>
      <trkpt lat="47.895390" lon="1.777040">
        <time>2017-06-24T14:55:40Z</time>
      </trkpt>
      <trkpt lat="47.895480" lon="1.777470">
        <time>2017-06-24T14:55:41Z</time>
      </trkpt>
      <trkpt lat="47.895580" lon="1.777930">
        <time>2017-06-24T14:55:42Z</time>
      </trkpt>
      <trkpt lat="47.895680" lon="1.778420">
        <time>2017-06-24T14:55:43Z</time>
      </trkpt>
      <trkpt lat="47.895760" lon="1.778850">
        <time>2017-06-24T14:55:44Z</time>
      </trkpt>
      <trkpt lat="47.895860" lon="1.779310">
        <time>2017-06-24T14:55:45Z</time>
      </trkpt>
      <trkpt lat="47.895950" lon="1.779770">
        <time>2017-06-24T14:55:46Z</time>
      </trkpt>
      <trkpt lat="47.896040" lon="1.780250">
        <time>2017-06-24T14:55:47Z</time>
      </trkpt>
      <trkpt lat="47.896140" lon="1.780750">
        <time>2017-06-24T14:55:48Z</time>
      </trkpt>
      <trkpt lat="47.896210" lon="1.781190">
        <time>2017-06-24T14:55:49Z</time>
      </trkpt>
      <trkpt lat="47.896300" lon="1.781670">
        <time>2017-06-24T14:55:50Z</time>
      </trkpt>
      <trkpt lat="47.896380" lon="1.782170">
        <time>2017-06-24T14:55:51Z</time>
      </trkpt>
      <trkpt lat="47.896460" lon="1.782610">
        <time>2017-06-24T14:55:52Z</time>
      </trkpt>
      <trkpt lat="47.896540" lon="1.783090">
        <time>2017-06-24T14:55:53Z</time>
      </trkpt>
      <trkpt lat="47.896630" lon="1.783600">
        <time>2017-06-24T14:55:54Z</time>
      </trkpt>
      <trkpt lat="47.896690" lon="1.784040">
        <time>2017-06-24T14:55:55Z</time>
      </trkpt>
      <trkpt lat="47.896770" lon="1.784550">
        <time>2017-06-24T14:55:56Z</time>
      </trkpt>
      <trkpt lat="47.896840" lon="1.785000">
        <time>2017-06-24T14:55:57Z</time>
      </trkpt>
      <trkpt lat="47.896900" lon="1.785470">
        <time>2017-06-24T14:55:58Z</time>
      </trkpt>
      <trkpt lat="47.896980" lon="1.785980">
        <time>2017-06-24T14:55:59Z</time>
      </trkpt>
      <trkpt lat="47.897040" lon="1.786420">
        <time>2017-06-24T14:56:00Z</time>
      </trkpt>
      <trkpt lat="47.897110" lon="1.786900">
        <time>2017-06-24T14:56:01Z</time>
      </trkpt>
      <trkpt lat="47.897170" lon="1.787390">
        <time>2017-06-24T14:56:02Z</time>
      </trkpt>
      <trkpt lat="47.897230" lon="1.787870">
        <time>2017-06-24T14:56:03Z</time>
      </trkpt>
      <trkpt lat="47.897300" lon="1.788390">
        <time>2017-06-24T14:56:04Z</time>
      </trkpt>
      <trkpt lat="47.897360" lon="1.788840">
        <time>2017-06-24T14:56:05Z</time>
      </trkpt>
      <trkpt lat="47.897420" lon="1.789330">
        <time>2017-06-24T14:56:06Z</time>
      </trkpt>
      <trkpt lat="47.897490" lon="1.789850">
        <time>2017-06-24T14:56:07Z</time>
      </trkpt>
      <trkpt lat="47.897550" lon="1.790310">
        <time>2017-06-24T14:56:08Z</time>
      </trkpt>
      <trkpt lat="47.897600" lon="1.790810">
        <time>2017-06-24T14:56:09Z</time>
      </trkpt>
      <trkpt lat="47.897670" lon="1.791330">
        <time>2017-06-24T14:56:10Z</time>
      </trkpt>
      <trkpt lat="47.897730" lon="1.791800">
        <time>2017-06-24T14:56:11Z</time>
      </trkpt>
      <trkpt lat="47.897800" lon="1.792320">
        <time>2017-06-24T14:56:12Z</time>
      </trkpt>
      <trkpt lat="47.897860" lon="1.792780">
        <time>2017-06-24T14:56:13Z</time>
      </trkpt>
      <trkpt lat="47.897910" lon="1.793280">
        <time>2017-06-24T14:56:14Z</time>
      </trkpt>
      <trkpt lat="47.897980" lon="1.793800">
        <time>2017-06-24T14:56:15Z</time>
      </trkpt>
      <trkpt lat="47.898040" lon="1.794260">
        <time>2017-06-24T14:56:16Z</time>
      </trkpt>
      <trkpt lat="47.898100" lon="1.794760">
        <time>2017-06-24T14:56:17Z</time>
      </trkpt>
      <trkpt lat="47.898160" lon="1.795240">
        <time>2017-06-24T14:56:18Z</time>
      </trkpt>
      <trkpt lat="47.898230" lon="1.795730">
        <time>2017-06-24T14:56:19Z</time>
      </trkpt>
      <trkpt lat="47.898300" lon="1.796250">
        <time>2017-06-24T14:56:20Z</time>
      </trkpt>
      <trkpt lat="47.898360" lon="1.796710">
        <time>2017-06-24T14:56:21Z</time>
      </trkpt>
      <trkpt lat="47.898420" lon="1.797190">
        <time>2017-06-24T14:56:22Z</time>
      </trkpt>
      <trkpt lat="47.898480" lon="1.797710">
        <time>2017-06-24T14:56:23Z</time>
      </trkpt>
      <trkpt lat="47.898540" lon="1.798160">
        <time>2017-06-24T14:56:24Z</time>
      </trkpt>
      <trkpt lat="47.898600" lon="1.798640">
        <time>2017-06-24T14:56:25Z</time>
      </trkpt>
      <trkpt lat="47.898670" lon="1.799150">
        <time>2017-06-24T14:56:26Z</time>
      </trkpt>
      <trkpt lat="47.898730" lon="1.799590">
        <time>2017-06-24T14:56:27Z</time>
      </trkpt>
      <trkpt lat="47.898790" lon="1.800100">
        <time>2017-06-24T14:56:28Z</time>
      </trkpt>
      <trkpt lat="47.898840" lon="1.800540">
        <time>2017-06-24T14:56:29Z</time>
      </trkpt>
      <trkpt lat="47.898900" lon="1.801020">
        <time>2017-06-24T14:56:30Z</time>
      </trkpt>
      <trkpt lat="47.898960" lon="1.801520">
        <time>2017-06-24T14:56:31Z</time>
      </trkpt>
      <trkpt lat="47.899020" lon="1.801950">
        <time>2017-06-24T14:56:32Z</time>
      </trkpt>
      <trkpt lat="47.899080" lon="1.802420">
        <time>2017-06-24T14:56:33Z</time>
      </trkpt>
      <trkpt lat="47.899140" lon="1.802890">
        <time>2017-06-24T14:56:34Z</time>
      </trkpt>
      <trkpt lat="47.899200" lon="1.803360">
        <time>2017-06-24T14:56:35Z</time>
      </trkpt>
      <trkpt lat="47.899250" lon="1.803860">
        <time>2017-06-24T14:56:36Z</time>
      </trkpt>
      <trkpt lat="47.899300" lon="1.804290">
        <time>2017-06-24T14:56:37Z</time>
      </trkpt>
      <trkpt lat="47.899370" lon="1.804760">
        <time>2017-06-24T14:56:38Z</time>
      </trkpt>
      <trkpt lat="47.899440" lon="1.805250">
        <time>2017-06-24T14:56:39Z</time>
      </trkpt>
      <trkpt lat="47.899500" lon="1.805690">
        <time>2017-06-24T14:56:40Z</time>
      </trkpt>
      <trkpt lat="47.899560" lon="1.806160">
        <time>2017-06-24T14:56:41Z</time>
      </trkpt>
      <trkpt lat="47.899630" lon="1.806660">
        <time>2017-06-24T14:56:42Z</time>
      </trkpt>
      <trkpt lat="47.899680" lon="1.807100">
        <time>2017-06-24T14:56:43Z</time>
      </trkpt>
      <trkpt lat="47.899750" lon="1.807600">
        <time>2017-06-24T14:56:44Z</time>
      </trkpt>
      <trkpt lat="47.899810" lon="1.808030">
        <time>2017-06-24T14:56:45Z</time>
      </trkpt>
      <trkpt lat="47.899860" lon="1.808510">
        <time>2017-06-24T14:56:46Z</time>
      </trkpt>
      <trkpt lat="47.899920" lon="1.809020">
        <time>2017-06-24T14:56:47Z</time>
      </trkpt>
      <trkpt lat="47.899980" lon="1.809470">
        <time>2017-06-24T14:56:48Z</time>
      </trkpt>
      <trkpt lat="47.900030" lon="1.809940">
        <time>2017-06-24T14:56:49Z</time>
      </trkpt>
      <trkpt lat="47.900080" lon="1.810420">
        <time>2017-06-24T14:56:50Z</time>
      </trkpt>
      <trkpt lat="47.900130" lon="1.810900">
        <time>2017-06-24T14:56:51Z</time>
      </trkpt>
      <trkpt lat="47.900180" lon="1.811410">
        <time>2017-06-24T14:56:52Z</time>
      </trkpt>
      <trkpt lat="47.900220" lon="1.811860">
        <time>2017-06-24T14:56:53Z</time>
      </trkpt>
      <trkpt lat="47.900270" lon="1.812340">
        <time>2017-06-24T14:56:54Z</time>
      </trkpt>
      <trkpt lat="47.900310" lon="1.812860">
        <time>2017-06-24T14:56:55Z</time>
      </trkpt>
      <trkpt lat="47.900340" lon="1.813310">
        <time>2017-06-24T14:56:56Z</time>
      </trkpt>
      <trkpt lat="47.900380" lon="1.813790">
        <time>2017-06-24T14:56:57Z</time>
      </trkpt>
      <trkpt lat="47.900420" lon="1.814310">
        <time>2017-06-24T14:56:58Z</time>
      </trkpt>
      <trkpt lat="47.900450" lon="1.814760">
        <time>2017-06-24T14:56:59Z</time>
      </trkpt>
      <trkpt lat="47.900480" lon="1.815280">
        <time>2017-06-24T14:57:00Z</time>
      </trkpt>
      <trkpt lat="47.900500" lon="1.815740">
        <time>2017-06-24T14:57:01Z</time>
      </trkpt>
      <trkpt lat="47.900520" lon="1.816230">
        <time>2017-06-24T14:57:02Z</time>
      </trkpt>
      <trkpt lat="47.900550" lon="1.816750">
        <time>2017-06-24T14:57:03Z</time>
      </trkpt>
      <trkpt lat="47.900560" lon="1.817210">
        <time>2017-06-24T14:57:04Z</time>
      </trkpt>
      <trkpt lat="47.900580" lon="1.817700">
        <time>2017-06-24T14:57:05Z</time>
      </trkpt>
      <trkpt lat="47.900590" lon="1.818180">
        <time>2017-06-24T14:57:06Z</time>
      </trkpt>
      <trkpt lat="47.900600" lon="1.818670">
        <time>2017-06-24T14:57:07Z</time>
      </trkpt>
      <trkpt lat="47.900600" lon="1.819190">
        <time>2017-06-24T14:57:08Z</time>
      </trkpt>
      <trkpt lat="47.900600" lon="1.819640">
        <time>2017-06-24T14:57:09Z</time>
      </trkpt>
      <trkpt lat="47.900610" lon="1.820120">
        <time>2017-06-24T14:57:10Z</time>
      </trkpt>
      <trkpt lat="47.900610" lon="1.820620">
        <time>2017-06-24T14:57:11Z</time>
      </trkpt>
      <trkpt lat="47.900600" lon="1.821060">
        <time>2017-06-24T14:57:12Z</time>
      </trkpt>
      <trkpt lat="47.900600" lon="1.821530">
        <time>2017-06-24T14:57:13Z</time>
      </trkpt>
      <trkpt lat="47.900590" lon="1.822040">
        <time>2017-06-24T14:57:14Z</time>
      </trkpt>
      <trkpt lat="47.900580" lon="1.822470">
        <time>2017-06-24T14:57:15Z</time>
      </trkpt>
      <trkpt lat="47.900560" lon="1.822980">
        <time>2017-06-24T14:57:16Z</time>
      </trkpt>
      <trkpt lat="47.900540" lon="1.823410">
        <time>2017-06-24T14:57:17Z</time>
      </trkpt>
      <trkpt lat="47.900530" lon="1.823880">
        <time>2017-06-24T14:57:18Z</time>
      </trkpt>
      <trkpt lat="47.900500" lon="1.824380">
        <time>2017-06-24T14:57:19Z</time>
      </trkpt>
      <trkpt lat="47.900480" lon="1.824820">
        <time>2017-06-24T14:57:20Z</time>
      </trkpt>
      <trkpt lat="47.900460" lon="1.825290">
        <time>2017-06-24T14:57:21Z</time>
      </trkpt>
      <trkpt lat="47.900430" lon="1.825760">
        <time>2017-06-24T14:57:22Z</time>
      </trkpt>
      <trkpt lat="47.900390" lon="1.826230">
        <time>2017-06-24T14:57:23Z</time>
      </trkpt>
      <trkpt lat="47.900360" lon="1.826730">
        <time>2017-06-24T14:57:24Z</time>
      </trkpt>
      <trkpt lat="47.900320" lon="1.827160">
        <time>2017-06-24T14:57:25Z</time>
      </trkpt>
      <trkpt lat="47.900290" lon="1.827630">
        <time>2017-06-24T14:57:26Z</time>
      </trkpt>
      <trkpt lat="47.900240" lon="1.828120">
        <time>2017-06-24T14:57:27Z</time>
      </trkpt>
      <trkpt lat="47.900200" lon="1.828550">
        <time>2017-06-24T14:57:28Z</time>
      </trkpt>
      <trkpt lat="47.900160" lon="1.829020">
        <time>2017-06-24T14:57:29Z</time>
      </trkpt>
      <trkpt lat="47.900110" lon="1.829510">
        <time>2017-06-24T14:57:30Z</time>
      </trkpt>
      <trkpt lat="47.900070" lon="1.829940">
        <time>2017-06-24T14:57:31Z</time>
      </trkpt>
      <trkpt lat="47.900020" lon="1.830440">
        <time>2017-06-24T14:57:32Z</time>
      </trkpt>
      <trkpt lat="47.899970" lon="1.830870">
        <time>2017-06-24T14:57:33Z</time>
      </trkpt>
      <trkpt lat="47.899920" lon="1.831320">
        <time>2017-06-24T14:57:34Z</time>
      </trkpt>
      <trkpt lat="47.899860" lon="1.831800">
        <time>2017-06-24T14:57:35Z</time>
      </trkpt>
      <trkpt lat="47.899810" lon="1.832240">
        <time>2017-06-24T14:57:36Z</time>
      </trkpt>
      <trkpt lat="47.899750" lon="1.832690">
        <time>2017-06-24T14:57:37Z</time>
      </trkpt>
      <trkpt lat="47.899700" lon="1.833140">
        <time>2017-06-24T14:57:38Z</time>
      </trkpt>
      <trkpt lat="47.899640" lon="1.833590">
        <time>2017-06-24T14:57:39Z</time>
      </trkpt>
      <trkpt lat="47.899590" lon="1.834070">
        <time>2017-06-24T14:57:40Z</time>
      </trkpt>
      <trkpt lat="47.899550" lon="1.834490">
        <time>2017-06-24T14:57:41Z</time>
      </trkpt>
      <trkpt lat="47.899520" lon="1.834940">
        <time>2017-06-24T14:57:42Z</time>
      </trkpt>
      <trkpt lat="47.899490" lon="1.835430">
        <time>2017-06-24T14:57:43Z</time>
      </trkpt>
      <trkpt lat="47.899470" lon="1.835850">
        <time>2017-06-24T14:57:44Z</time>
      </trkpt>
      <trkpt lat="47.899470" lon="1.836300">
        <time>2017-06-24T14:57:45Z</time>
      </trkpt>
      <trkpt lat="47.899480" lon="1.836780">
        <time>2017-06-24T14:57:46Z</time>
      </trkpt>
      <trkpt lat="47.899490" lon="1.837200">
        <time>2017-06-24T14:57:47Z</time>
      </trkpt>
      <trkpt lat="47.899530" lon="1.837680">
        <time>2017-06-24T14:57:48Z</time>
      </trkpt>
      <trkpt lat="47.899560" lon="1.838090">
        <time>2017-06-24T14:57:49Z</time>
      </trkpt>
      <trkpt lat="47.899600" lon="1.838530">
        <time>2017-06-24T14:57:50Z</time>
      </trkpt>
      <trkpt lat="47.899660" lon="1.838990">
        <time>2017-06-24T14:57:51Z</time>
      </trkpt>
      <trkpt lat="47.899720" lon="1.839400">
        <time>2017-06-24T14:57:52Z</time>
      </trkpt>
      <trkpt lat="47.899800" lon="1.839820">
        <time>2017-06-24T14:57:53Z</time>
      </trkpt>
      <trkpt lat="47.899880" lon="1.840240">
        <time>2017-06-24T14:57:54Z</time>
      </trkpt>
      <trkpt lat="47.899970" lon="1.840670">
        <time>2017-06-24T14:57:55Z</time>
      </trkpt>
      <trkpt lat="47.900080" lon="1.841110">
        <time>2017-06-24T14:57:56Z</time>
      </trkpt>
      <trkpt lat="47.900190" lon="1.841500">
        <time>2017-06-24T14:57:57Z</time>
      </trkpt>
      <trkpt lat="47.900310" lon="1.841920">
        <time>2017-06-24T14:57:58Z</time>
      </trkpt>
      <trkpt lat="47.900460" lon="1.842350">
        <time>2017-06-24T14:57:59Z</time>
      </trkpt>
      <trkpt lat="47.900590" lon="1.842720">
        <time>2017-06-24T14:58:00Z</time>
      </trkpt>
      <trkpt lat="47.900740" lon="1.843120">
        <time>2017-06-24T14:58:01Z</time>
      </trkpt>
      <trkpt lat="47.900900" lon="1.843530">
        <time>2017-06-24T14:58:02Z</time>
      </trkpt>
      <trkpt lat="47.901060" lon="1.843880">
        <time>2017-06-24T14:58:03Z</time>
      </trkpt>
      <trkpt lat="47.901240" lon="1.844260">
        <time>2017-06-24T14:58:04Z</time>
      </trkpt>
      <trkpt lat="47.901420" lon="1.844600">
        <time>2017-06-24T14:58:05Z</time>
      </trkpt>
      <trkpt lat="47.901600" lon="1.844950">
        <time>2017-06-24T14:58:06Z</time>
      </trkpt>
      <trkpt lat="47.901810" lon="1.845300">
        <time>2017-06-24T14:58:07Z</time>
      </trkpt>
      <trkpt lat="47.902000" lon="1.845600">
        <time>2017-06-24T14:58:08Z</time>
      </trkpt>
      <trkpt lat="47.902210" lon="1.845920">
        <time>2017-06-24T14:58:09Z</time>
      </trkpt>
      <trkpt lat="47.902430" lon="1.846220">
        <time>2017-06-24T14:58:10Z</time>
      </trkpt>
      <trkpt lat="47.902650" lon="1.846510">
        <time>2017-06-24T14:58:11Z</time>
      </trkpt>
      <trkpt lat="47.902890" lon="1.846810">
        <time>2017-06-24T14:58:12Z</time>
      </trkpt>
      <trkpt lat="47.903100" lon="1.847060">
        <time>2017-06-24T14:58:13Z</time>
      </trkpt>
      <trkpt lat="47.903340" lon="1.847310">
        <time>2017-06-24T14:58:14Z</time>
      </trkpt>
      <trkpt lat="47.903610" lon="1.847560">
        <time>2017-06-24T14:58:15Z</time>
      </trkpt>
      <trkpt lat="47.903860" lon="1.847770">
        <time>2017-06-24T14:58:16Z</time>
      </trkpt>
      <trkpt lat="47.904110" lon="1.847980">
        <time>2017-06-24T14:58:17Z</time>
      </trkpt>
      <trkpt lat="47.904400" lon="1.848200">
        <time>2017-06-24T14:58:18Z</time>
      </trkpt>
      <trkpt lat="47.904650" lon="1.848380">
        <time>2017-06-24T14:58:19Z</time>
      </trkpt>
      <trkpt lat="47.904940" lon="1.848580">
        <time>2017-06-24T14:58:20Z</time>
      </trkpt>
      <trkpt lat="47.905200" lon="1.848740">
        <time>2017-06-24T14:58:21Z</time>
      </trkpt>
      <trkpt lat="47.905480" lon="1.848900">
        <time>2017-06-24T14:58:22Z</time>
      </trkpt>
      <trkpt lat="47.905790" lon="1.849060">
        <time>2017-06-24T14:58:23Z</time>
      </trkpt>
      <trkpt lat="47.906060" lon="1.849180">
        <time>2017-06-24T14:58:24Z</time>
      </trkpt>
      <trkpt lat="47.906350" lon="1.849290">
        <time>2017-06-24T14:58:25Z</time>
      </trkpt>
      <trkpt lat="47.906630" lon="1.849390">
        <time>2017-06-24T14:58:26Z</time>
      </trkpt>
      <trkpt lat="47.906920" lon="1.849480">
        <time>2017-06-24T14:58:27Z</time>
      </trkpt>
      <trkpt lat="47.907220" lon="1.849550">
        <time>2017-06-24T14:58:28Z</time>
      </trkpt>
      <trkpt lat="47.907480" lon="1.849610">
        <time>2017-06-24T14:58:29Z</time>
      </trkpt>
      <trkpt lat="47.907760" lon="1.849660">
        <time>2017-06-24T14:58:30Z</time>
      </trkpt>
      <trkpt lat="47.908060" lon="1.849700">
        <time>2017-06-24T14:58:31Z</time>
      </trkpt>
      <trkpt lat="47.908330" lon="1.849720">
        <time>2017-06-24T14:58:32Z</time>
      </trkpt>
      <trkpt lat="47.908620" lon="1.849720">
        <time>2017-06-24T14:58:33Z</time>
      </trkpt>
      <trkpt lat="47.908920" lon="1.849710">
        <time>2017-06-24T14:58:34Z</time>
      </trkpt>
      <trkpt lat="47.909190" lon="1.849700">
        <time>2017-06-24T14:58:35Z</time>
      </trkpt>
      <trkpt lat="47.909490" lon="1.849680">
        <time>2017-06-24T14:58:36Z</time>
      </trkpt>
      <trkpt lat="47.909760" lon="1.849650">
        <time>2017-06-24T14:58:37Z</time>
      </trkpt>
      <trkpt lat="47.910040" lon="1.849630">
        <time>2017-06-24T14:58:38Z</time>
      </trkpt>
      <trkpt lat="47.910340" lon="1.849600">
        <time>2017-06-24T14:58:39Z</time>
      </trkpt>
      <trkpt lat="47.910600" lon="1.849570">
        <time>2017-06-24T14:58:40Z</time>
      </trkpt>
      <trkpt lat="47.910880" lon="1.849540">
        <time>2017-06-24T14:58:41Z</time>
      </trkpt>
      <trkpt lat="47.911150" lon="1.849510">
        <time>2017-06-24T14:58:42Z</time>
      </trkpt>
      <trkpt lat="47.911430" lon="1.849470">
        <time>2017-06-24T14:58:43Z</time>
      </trkpt>
      <trkpt lat="47.911730" lon="1.849430">
        <time>2017-06-24T14:58:44Z</time>
      </trkpt>
      <trkpt lat="47.911980" lon="1.849390">
        <time>2017-06-24T14:58:45Z</time>
      </trkpt>
      <trkpt lat="47.912250" lon="1.849350">
        <time>2017-06-24T14:58:46Z</time>
      </trkpt>
      <trkpt lat="47.912550" lon="1.849310">
        <time>2017-06-24T14:58:47Z</time>
      </trkpt>
      <trkpt lat="47.912820" lon="1.849280">
        <time>2017-06-24T14:58:48Z</time>
      </trkpt>
      <trkpt lat="47.913100" lon="1.849240">
        <time>2017-06-24T14:58:49Z</time>
      </trkpt>
      <trkpt lat="47.913410" lon="1.849200">
        <time>2017-06-24T14:58:50Z</time>
      </trkpt>
      <trkpt lat="47.913670" lon="1.849170">
        <time>2017-06-24T14:58:51Z</time>
      </trkpt>
      <trkpt lat="47.913980" lon="1.849130">
        <time>2017-06-24T14:58:52Z</time>
      </trkpt>
      <trkpt lat="47.914240" lon="1.849100">
        <time>2017-06-24T14:58:53Z</time>
      </trkpt>
      <trkpt lat="47.914530" lon="1.849070">
        <time>2017-06-24T14:58:54Z</time>
      </trkpt>
      <trkpt lat="47.914840" lon="1.849030">
        <time>2017-06-24T14:58:55Z</time>
      </trkpt>
      <trkpt lat="47.915110" lon="1.849000">
        <time>2017-06-24T14:58:56Z</time>
      </trkpt>
      <trkpt lat="47.915400" lon="1.848970">
        <time>2017-06-24T14:58:57Z</time>
      </trkpt>
      <trkpt lat="47.915690" lon="1.848940">
        <time>2017-06-24T14:58:58Z</time>
      </trkpt>
      <trkpt lat="47.915980" lon="1.848910">
        <time>2017-06-24T14:58:59Z</time>
      </trkpt>
      <trkpt lat="47.916290" lon="1.848890">
        <time>2017-06-24T14:59:00Z</time>
      </trkpt>
      <trkpt lat="47.916560" lon="1.848870">
        <time>2017-06-24T14:59:01Z</time>
      </trkpt>
      <trkpt lat="47.916850" lon="1.848850">
        <time>2017-06-24T14:59:02Z</time>
      </trkpt>
      <trkpt lat="47.917160" lon="1.848830">
        <time>2017-06-24T14:59:03Z</time>
      </trkpt>
      <trkpt lat="47.917430" lon="1.848820">
        <time>2017-06-24T14:59:04Z</time>
      </trkpt>
      <trkpt lat="47.917720" lon="1.848800">
        <time>2017-06-24T14:59:05Z</time>
      </trkpt>
      <trkpt lat="47.918030" lon="1.848790">
        <time>2017-06-24T14:59:06Z</time>
      </trkpt>
      <trkpt lat="47.918300" lon="1.848780">
        <time>2017-06-24T14:59:07Z</time>
      </trkpt>
      <trkpt lat="47.918610" lon="1.848770">
        <time>2017-06-24T14:59:08Z</time>
      </trkpt>
      <trkpt lat="47.918890" lon="1.848760">
        <time>2017-06-24T14:59:09Z</time>
      </trkpt>
      <trkpt lat="47.919190" lon="1.848760">
        <time>2017-06-24T14:59:10Z</time>
      </trkpt>
      <trkpt lat="47.919500" lon="1.848760">
        <time>2017-06-24T14:59:11Z</time>
      </trkpt>
      <trkpt lat="47.919780" lon="1.848770">
        <time>2017-06-24T14:59:12Z</time>
      </trkpt>
      <trkpt lat="47.920070" lon="1.848770">
        <time>2017-06-24T14:59:13Z</time>
      </trkpt>
      <trkpt lat="47.920360" lon="1.848780">
        <time>2017-06-24T14:59:14Z</time>
      </trkpt>
      <trkpt lat="47.920660" lon="1.848790">
        <time>2017-06-24T14:59:15Z</time>
      </trkpt>
      <trkpt lat="47.920980" lon="1.848820">
        <time>2017-06-24T14:59:16Z</time>
      </trkpt>
      <trkpt lat="47.921260" lon="1.848840">
        <time>2017-06-24T14:59:17Z</time>
      </trkpt>
      <trkpt lat="47.921560" lon="1.848870">
        <time>2017-06-24T14:59:18Z</time>
      </trkpt>
      <trkpt lat="47.921870" lon="1.848890">
        <time>2017-06-24T14:59:19Z</time>
      </trkpt>
      <trkpt lat="47.922150" lon="1.848910">
        <time>2017-06-24T14:59:20Z</time>
      </trkpt>
      <trkpt lat="47.922450" lon="1.848940">
        <time>2017-06-24T14:59:21Z</time>
      </trkpt>
      <trkpt lat="47.922770" lon="1.848970">
        <time>2017-06-24T14:59:22Z</time>
      </trkpt>
      <trkpt lat="47.923050" lon="1.848990">
        <time>2017-06-24T14:59:23Z</time>
      </trkpt>
      <trkpt lat="47.923360" lon="1.849020">
        <time>2017-06-24T14:59:24Z</time>
      </trkpt>
      <trkpt lat="47.923640" lon="1.849040">
        <time>2017-06-24T14:59:25Z</time>
      </trkpt>
      <trkpt lat="47.923930" lon="1.849070">
        <time>2017-06-24T14:59:26Z</time>
      </trkpt>
      <trkpt lat="47.924230" lon="1.849100">
        <time>2017-06-24T14:59:27Z</time>
      </trkpt>
      <trkpt lat="47.924500" lon="1.849130">
        <time>2017-06-24T14:59:28Z</time>
      </trkpt>
      <trkpt lat="47.924780" lon="1.849160">
        <time>2017-06-24T14:59:29Z</time>
      </trkpt>
      <trkpt lat="47.925060" lon="1.849190">
        <time>2017-06-24T14:59:30Z</time>
      </trkpt>
      <trkpt lat="47.925340" lon="1.849220">
        <time>2017-06-24T14:59:31Z</time>
      </trkpt>
      <trkpt lat="47.925640" lon="1.849250">
        <time>2017-06-24T14:59:32Z</time>
      </trkpt>
      <trkpt lat="47.925900" lon="1.849280">
        <time>2017-06-24T14:59:33Z</time>
      </trkpt>
      <trkpt lat="47.926170" lon="1.849310">
        <time>2017-06-24T14:59:34Z</time>
      </trkpt>
      <trkpt lat="47.926470" lon="1.849330">
        <time>2017-06-24T14:59:35Z</time>
      </trkpt>
      <trkpt lat="47.926720" lon="1.849360">
        <time>2017-06-24T14:59:36Z</time>
      </trkpt>
      <trkpt lat="47.927000" lon="1.849380">
        <time>2017-06-24T14:59:37Z</time>
      </trkpt>
      <trkpt lat="47.927300" lon="1.849390">
        <time>2017-06-24T14:59:38Z</time>
      </trkpt>
      <trkpt lat="47.927550" lon="1.849410">
        <time>2017-06-24T14:59:39Z</time>
      </trkpt>
      <trkpt lat="47.927840" lon="1.849430">
        <time>2017-06-24T14:59:40Z</time>
      </trkpt>
      <trkpt lat="47.928100" lon="1.849450">
        <time>2017-06-24T14:59:41Z</time>
      </trkpt>
      <trkpt lat="47.928370" lon="1.849460">
        <time>2017-06-24T14:59:42Z</time>
      </trkpt>
      <trkpt lat="47.928660" lon="1.849480">
        <time>2017-06-24T14:59:43Z</time>
      </trkpt>
      <trkpt lat="47.928920" lon="1.849490">
        <time>2017-06-24T14:59:44Z</time>
      </trkpt>
      <trkpt lat="47.929200" lon="1.849500">
        <time>2017-06-24T14:59:45Z</time>
      </trkpt>
      <trkpt lat="47.929470" lon="1.849500">
        <time>2017-06-24T14:59:46Z</time>
      </trkpt>
      <trkpt lat="47.929760" lon="1.849520">
        <time>2017-06-24T14:59:47Z</time>
      </trkpt>
      <trkpt lat="47.930050" lon="1.849520">
        <time>2017-06-24T14:59:48Z</time>
      </trkpt>
      <trkpt lat="47.930320" lon="1.849520">
        <time>2017-06-24T14:59:49Z</time>
      </trkpt>
      <trkpt lat="47.930600" lon="1.849520">
        <time>2017-06-24T14:59:50Z</time>
      </trkpt>
      <trkpt lat="47.930910" lon="1.849510">
        <time>2017-06-24T14:59:51Z</time>
      </trkpt>
      <trkpt lat="47.931180" lon="1.849510">
        <time>2017-06-24T14:59:52Z</time>
      </trkpt>
      <trkpt lat="47.931470" lon="1.849500">
        <time>2017-06-24T14:59:53Z</time>
      </trkpt>
      <trkpt lat="47.931770" lon="1.849490">
        <time>2017-06-24T14:59:54Z</time>
      </trkpt>
      <trkpt lat="47.932040" lon="1.849480">
        <time>2017-06-24T14:59:55Z</time>
      </trkpt>
      <trkpt lat="47.932350" lon="1.849470">
        <time>2017-06-24T14:59:56Z</time>
      </trkpt>
      <trkpt lat="47.932620" lon="1.849450">
        <time>2017-06-24T14:59:57Z</time>
      </trkpt>
      <trkpt lat="47.932900" lon="1.849430">
        <time>2017-06-24T14:59:58Z</time>
      </trkpt>
      <trkpt lat="47.933210" lon="1.849410">
        <time>2017-06-24T14:59:59Z</time>
      </trkpt>
      <trkpt lat="47.933480" lon="1.849390">
        <time>2017-06-24T15:00:00Z</time>
      </trkpt>
      <trkpt lat="47.933760" lon="1.849350">
        <time>2017-06-24T15:00:01Z</time>
      </trkpt>
      <trkpt lat="47.934040" lon="1.849320">
        <time>2017-06-24T15:00:02Z</time>
      </trkpt>
      <trkpt lat="47.934320" lon="1.849280">
        <time>2017-06-24T15:00:03Z</time>
      </trkpt>
      <trkpt lat="47.934620" lon="1.849240">
        <time>2017-06-24T15:00:04Z</time>
      </trkpt>
      <trkpt lat="47.934880" lon="1.849200">
        <time>2017-06-24T15:00:05Z</time>
      </trkpt>
      <trkpt lat="47.935150" lon="1.849180">
        <time>2017-06-24T15:00:06Z</time>
      </trkpt>
      <trkpt lat="47.935460" lon="1.849140">
        <time>2017-06-24T15:00:07Z</time>
      </trkpt>
      <trkpt lat="47.935730" lon="1.849110">
        <time>2017-06-24T15:00:08Z</time>
      </trkpt>
      <trkpt lat="47.936010" lon="1.849060">
        <time>2017-06-24T15:00:09Z</time>
      </trkpt>
      <trkpt lat="47.936320" lon="1.849020">
        <time>2017-06-24T15:00:10Z</time>
      </trkpt>
      <trkpt lat="47.936590" lon="1.848990">
        <time>2017-06-24T15:00:11Z</time>
      </trkpt>
      <trkpt lat="47.936900" lon="1.848940">
        <time>2017-06-24T15:00:12Z</time>
      </trkpt>
      <trkpt lat="47.937180" lon="1.848900">
        <time>2017-06-24T15:00:13Z</time>
      </trkpt>
      <trkpt lat="47.937470" lon="1.848880">
        <time>2017-06-24T15:00:14Z</time>
      </trkpt>
      <trkpt lat="47.937780" lon="1.848840">
        <time>2017-06-24T15:00:15Z</time>
      </trkpt>
      <trkpt lat="47.938050" lon="1.848800">
        <time>2017-06-24T15:00:16Z</time>
      </trkpt>
      <trkpt lat="47.938350" lon="1.848760">
        <time>2017-06-24T15:00:17Z</time>
      </trkpt>
      <trkpt lat="47.938640" lon="1.848730">
        <time>2017-06-24T15:00:18Z</time>
      </trkpt>
      <trkpt lat="47.938940" lon="1.848700">
        <time>2017-06-24T15:00:19Z</time>
      </trkpt>
      <trkpt lat="47.939250" lon="1.848660">
        <time>2017-06-24T15:00:20Z</time>
      </trkpt>
      <trkpt lat="47.939530" lon="1.848640">
        <time>2017-06-24T15:00:21Z</time>
      </trkpt>
      <trkpt lat="47.939820" lon="1.848610">
        <time>2017-06-24T15:00:22Z</time>
      </trkpt>
      <trkpt lat="47.940140" lon="1.848570">
        <time>2017-06-24T15:00:23Z</time>
      </trkpt>
      <trkpt lat="47.940410" lon="1.848540">
        <time>2017-06-24T15:00:24Z</time>
      </trkpt>
      <trkpt lat="47.940710" lon="1.848510">
        <time>2017-06-24T15:00:25Z</time>
      </trkpt>
      <trkpt lat="47.941030" lon="1.848490">
        <time>2017-06-24T15:00:26Z</time>
      </trkpt>
      <trkpt lat="47.941310" lon="1.848470">
        <time>2017-06-24T15:00:27Z</time>
      </trkpt>
      <trkpt lat="47.941630" lon="1.848450">
        <time>2017-06-24T15:00:28Z</time>
      </trkpt>
      <trkpt lat="47.941910" lon="1.848430">
        <time>2017-06-24T15:00:29Z</time>
      </trkpt>
      <trkpt lat="47.942200" lon="1.848420">
        <time>2017-06-24T15:00:30Z</time>
      </trkpt>
      <trkpt lat="47.942520" lon="1.848400">
        <time>2017-06-24T15:00:31Z</time>
      </trkpt>
      <trkpt lat="47.942800" lon="1.848390">
        <time>2017-06-24T15:00:32Z</time>
      </trkpt>
      <trkpt lat="47.943090" lon="1.848400">
        <time>2017-06-24T15:00:33Z</time>
      </trkpt>
      <trkpt lat="47.943380" lon="1.848390">
        <time>2017-06-24T15:00:34Z</time>
      </trkpt>
      <trkpt lat="47.943660" lon="1.848390">
        <time>2017-06-24T15:00:35Z</time>
      </trkpt>
      <trkpt lat="47.943970" lon="1.848400">
        <time>2017-06-24T15:00:36Z</time>
      </trkpt>
      <trkpt lat="47.944230" lon="1.848400">
        <time>2017-06-24T15:00:37Z</time>
      </trkpt>
      <trkpt lat="47.944510" lon="1.848410">
        <time>2017-06-24T15:00:38Z</time>
      </trkpt>
      <trkpt lat="47.944810" lon="1.848430">
        <time>2017-06-24T15:00:39Z</time>
      </trkpt>
      <trkpt lat="47.945070" lon="1.848450">
        <time>2017-06-24T15:00:40Z</time>
      </trkpt>
      <trkpt lat="47.945350" lon="1.848470">
        <time>2017-06-24T15:00:41Z</time>
      </trkpt>
      <trkpt lat="47.945650" lon="1.848490">
        <time>2017-06-24T15:00:42Z</time>
      </trkpt>
      <trkpt lat="47.945920" lon="1.848510">
        <time>2017-06-24T15:00:43Z</time>
      </trkpt>
      <trkpt lat="47.946230" lon="1.848530">
        <time>2017-06-24T15:00:44Z</time>
      </trkpt>
      <trkpt lat="47.946490" lon="1.848560">
        <time>2017-06-24T15:00:45Z</time>
      </trkpt>
      <trkpt lat="47.946770" lon="1.848600">
        <time>2017-06-24T15:00:46Z</time>
      </trkpt>
      <trkpt lat="47.947060" lon="1.848630">
        <time>2017-06-24T15:00:47Z</time>
      </trkpt>
      <trkpt lat="47.947310" lon="1.848660">
        <time>2017-06-24T15:00:48Z</time>
      </trkpt>
      <trkpt lat="47.947580" lon="1.848690">
        <time>2017-06-24T15:00:49Z</time>
      </trkpt>
      <trkpt lat="47.947860" lon="1.848730">
        <time>2017-06-24T15:00:50Z</time>
      </trkpt>
      <trkpt lat="47.948130" lon="1.848770">
        <time>2017-06-24T15:00:51Z</time>
      </trkpt>
      <trkpt lat="47.948420" lon="1.848820">
        <time>2017-06-24T15:00:52Z</time>
      </trkpt>
      <trkpt lat="47.948670" lon="1.848860">
        <time>2017-06-24T15:00:53Z</time>
      </trkpt>
      <trkpt lat="47.948950" lon="1.848920">
        <time>2017-06-24T15:00:54Z</time>
      </trkpt>
      <trkpt lat="47.949240" lon="1.848970">
        <time>2017-06-24T15:00:55Z</time>
      </trkpt>
      <trkpt lat="47.949500" lon="1.849020">
        <time>2017-06-24T15:00:56Z</time>
      </trkpt>
      <trkpt lat="47.949770" lon="1.849090">
        <time>2017-06-24T15:00:57Z</time>
      </trkpt>
      <trkpt lat="47.950060" lon="1.849150">
        <time>2017-06-24T15:00:58Z</time>
      </trkpt>
      <trkpt lat="47.950320" lon="1.849210">
        <time>2017-06-24T15:00:59Z</time>
      </trkpt>
      <trkpt lat="47.950610" lon="1.849280">
        <time>2017-06-24T15:01:00Z</time>
      </trkpt>
      <trkpt lat="47.950870" lon="1.849330">
        <time>2017-06-24T15:01:01Z</time>
      </trkpt>
      <trkpt lat="47.951140" lon="1.849400">
        <time>2017-06-24T15:01:02Z</time>
      </trkpt>
      <trkpt lat="47.951440" lon="1.849480">
        <time>2017-06-24T15:01:03Z</time>
      </trkpt>
      <trkpt lat="47.951690" lon="1.849550">
        <time>2017-06-24T15:01:04Z</time>
      </trkpt>
      <trkpt lat="47.951960" lon="1.849620">
        <time>2017-06-24T15:01:05Z</time>
      </trkpt>
      <trkpt lat="47.952230" lon="1.849710">
        <time>2017-06-24T15:01:06Z</time>
      </trkpt>
      <trkpt lat="47.952500" lon="1.849790">
        <time>2017-06-24T15:01:07Z</time>
      </trkpt>
      <trkpt lat="47.952790" lon="1.849890">
        <time>2017-06-24T15:01:08Z</time>
      </trkpt>
      <trkpt lat="47.953040" lon="1.849960">
        <time>2017-06-24T15:01:09Z</time>
      </trkpt>
      <trkpt lat="47.953310" lon="1.850060">
        <time>2017-06-24T15:01:10Z</time>
      </trkpt>
      <trkpt lat="47.953590" lon="1.850150">
        <time>2017-06-24T15:01:11Z</time>
      </trkpt>
      <trkpt lat="47.953830" lon="1.850230">
        <time>2017-06-24T15:01:12Z</time>
      </trkpt>
      <trkpt lat="47.954100" lon="1.850330">
        <time>2017-06-24T15:01:13Z</time>
      </trkpt>
      <trkpt lat="47.954390" lon="1.850430">
        <time>2017-06-24T15:01:14Z</time>
      </trkpt>
      <trkpt lat="47.954640" lon="1.850530">
        <time>2017-06-24T15:01:15Z</time>
      </trkpt>
      <trkpt lat="47.954920" lon="1.850640">
        <time>2017-06-24T15:01:16Z</time>
      </trkpt>
      <trkpt lat="47.955170" lon="1.850740">
        <time>2017-06-24T15:01:17Z</time>
      </trkpt>
      <trkpt lat="47.955440" lon="1.850850">
        <time>2017-06-24T15:01:18Z</time>
      </trkpt>
      <trkpt lat="47.955730" lon="1.850970">
        <time>2017-06-24T15:01:19Z</time>
      </trkpt>
      <trkpt lat="47.955970" lon="1.851080">
        <time>2017-06-24T15:01:20Z</time>
      </trkpt>
      <trkpt lat="47.956240" lon="1.851200">
        <time>2017-06-24T15:01:21Z</time>
      </trkpt>
      <trkpt lat="47.956510" lon="1.851340">
        <time>2017-06-24T15:01:22Z</time>
      </trkpt>
      <trkpt lat="47.956780" lon="1.851490">
        <time>2017-06-24T15:01:23Z</time>
      </trkpt>
      <trkpt lat="47.957070" lon="1.851640">
        <time>2017-06-24T15:01:24Z</time>
      </trkpt>
      <trkpt lat="47.957310" lon="1.851760">
        <time>2017-06-24T15:01:25Z</time>
      </trkpt>
      <trkpt lat="47.957570" lon="1.851900">
        <time>2017-06-24T15:01:26Z</time>
      </trkpt>
      <trkpt lat="47.957850" lon="1.852030">
        <time>2017-06-24T15:01:27Z</time>
      </trkpt>
      <trkpt lat="47.958090" lon="1.852160">
        <time>2017-06-24T15:01:28Z</time>
      </trkpt>
      <trkpt lat="47.958350" lon="1.852290">
        <time>2017-06-24T15:01:29Z</time>
      </trkpt>
      <trkpt lat="47.958630" lon="1.852440">
        <time>2017-06-24T15:01:30Z</time>
      </trkpt>
      <trkpt lat="47.958870" lon="1.852570">
        <time>2017-06-24T15:01:31Z</time>
      </trkpt>
      <trkpt lat="47.959140" lon="1.852710">
        <time>2017-06-24T15:01:32Z</time>
      </trkpt>
      <trkpt lat="47.959390" lon="1.852840">
        <time>2017-06-24T15:01:33Z</time>
      </trkpt>
      <trkpt lat="47.959640" lon="1.852990">
        <time>2017-06-24T15:01:34Z</time>
      </trkpt>
      <trkpt lat="47.959920" lon="1.853140">
        <time>2017-06-24T15:01:35Z</time>
      </trkpt>
      <trkpt lat="47.960160" lon="1.853270">
        <time>2017-06-24T15:01:36Z</time>
      </trkpt>
      <trkpt lat="47.960410" lon="1.853410">
        <time>2017-06-24T15:01:37Z</time>
      </trkpt>
      <trkpt lat="47.960670" lon="1.853560">
        <time>2017-06-24T15:01:38Z</time>
      </trkpt>
      <trkpt lat="47.960920" lon="1.853700">
        <time>2017-06-24T15:01:39Z</time>
      </trkpt>
      <trkpt lat="47.961190" lon="1.853850">
        <time>2017-06-24T15:01:40Z</time>
      </trkpt>
      <trkpt lat="47.961430" lon="1.853980">
        <time>2017-06-24T15:01:41Z</time>
      </trkpt>
      <trkpt lat="47.961690" lon="1.854120">
        <time>2017-06-24T15:01:42Z</time>
      </trkpt>
      <trkpt lat="47.961960" lon="1.854280">
        <time>2017-06-24T15:01:43Z</time>
      </trkpt>
      <trkpt lat="47.962200" lon="1.854420">
        <time>2017-06-24T15:01:44Z</time>
      </trkpt>
      <trkpt lat="47.962460" lon="1.854550">
        <time>2017-06-24T15:01:45Z</time>
      </trkpt>
      <trkpt lat="47.962730" lon="1.854710">
        <time>2017-06-24T15:01:46Z</time>
      </trkpt>
      <trkpt lat="47.962970" lon="1.854840">
        <time>2017-06-24T15:01:47Z</time>
      </trkpt>
      <trkpt lat="47.963240" lon="1.854990">
        <time>2017-06-24T15:01:48Z</time>
      </trkpt>
      <trkpt lat="47.963480" lon="1.855130">
        <time>2017-06-24T15:01:49Z</time>
      </trkpt>
      <trkpt lat="47.963730" lon="1.855260">
        <time>2017-06-24T15:01:50Z</time>
      </trkpt>
      <trkpt lat="47.964010" lon="1.855410">
        <time>2017-06-24T15:01:51Z</time>
      </trkpt>
      <trkpt lat="47.964260" lon="1.855530">
        <time>2017-06-24T15:01:52Z</time>
      </trkpt>
      <trkpt lat="47.964520" lon="1.855660">
        <time>2017-06-24T15:01:53Z</time>
      </trkpt>
      <trkpt lat="47.964780" lon="1.855790">
        <time>2017-06-24T15:01:54Z</time>
      </trkpt>
      <trkpt lat="47.965040" lon="1.855930">
        <time>2017-06-24T15:01:55Z</time>
      </trkpt>
      <trkpt lat="47.965320" lon="1.856060">
        <time>2017-06-24T15:01:56Z</time>
      </trkpt>
      <trkpt lat="47.965570" lon="1.856180">
        <time>2017-06-24T15:01:57Z</time>
      </trkpt>
      <trkpt lat="47.965850" lon="1.856310">
        <time>2017-06-24T15:01:58Z</time>
      </trkpt>
      <trkpt lat="47.966140" lon="1.856440">
        <time>2017-06-24T15:01:59Z</time>
      </trkpt>
      <trkpt lat="47.966390" lon="1.856560">
        <time>2017-06-24T15:02:00Z</time>
      </trkpt>
      <trkpt lat="47.966670" lon="1.856680">
        <time>2017-06-24T15:02:01Z</time>
      </trkpt>
      <trkpt lat="47.966970" lon="1.856800">
        <time>2017-06-24T15:02:02Z</time>
      </trkpt>
      <trkpt lat="47.967230" lon="1.856910">
        <time>2017-06-24T15:02:03Z</time>
      </trkpt>
      <trkpt lat="47.967530" lon="1.857040">
        <time>2017-06-24T15:02:04Z</time>
      </trkpt>
      <trkpt lat="47.967790" lon="1.857140">
        <time>2017-06-24T15:02:05Z</time>
      </trkpt>
      <trkpt lat="47.968070" lon="1.857250">
        <time>2017-06-24T15:02:06Z</time>
      </trkpt>
      <trkpt lat="47.968380" lon="1.857370">
        <time>2017-06-24T15:02:07Z</time>
      </trkpt>
      <trkpt lat="47.968640" lon="1.857460">
        <time>2017-06-24T15:02:08Z</time>
      </trkpt>
      <trkpt lat="47.968930" lon="1.857570">
        <time>2017-06-24T15:02:09Z</time>
      </trkpt>
      <trkpt lat="47.969210" lon="1.857660">
        <time>2017-06-24T15:02:10Z</time>
      </trkpt>
      <trkpt lat="47.969480" lon="1.857750">
        <time>2017-06-24T15:02:11Z</time>
      </trkpt>
      <trkpt lat="47.969780" lon="1.857850">
        <time>2017-06-24T15:02:12Z</time>
      </trkpt>
      <trkpt lat="47.970030" lon="1.857930">
        <time>2017-06-24T15:02:13Z</time>
      </trkpt>
      <trkpt lat="47.970310" lon="1.858020">
        <time>2017-06-24T15:02:14Z</time>
      </trkpt>
      <trkpt lat="47.970600" lon="1.858110">
        <time>2017-06-24T15:02:15Z</time>
      </trkpt>
      <trkpt lat="47.970850" lon="1.858180">
        <time>2017-06-24T15:02:16Z</time>
      </trkpt>
      <trkpt lat="47.971120" lon="1.858250">
        <time>2017-06-24T15:02:17Z</time>
      </trkpt>
      <trkpt lat="47.971410" lon="1.858330">
        <time>2017-06-24T15:02:18Z</time>
      </trkpt>
      <trkpt lat="47.971660" lon="1.858380">
        <time>2017-06-24T15:02:19Z</time>
      </trkpt>
      <trkpt lat="47.971940" lon="1.858450">
        <time>2017-06-24T15:02:20Z</time>
      </trkpt>
      <trkpt lat="47.972190" lon="1.858510">
        <time>2017-06-24T15:02:21Z</time>
      </trkpt>
      <trkpt lat="47.972460" lon="1.858570">
        <time>2017-06-24T15:02:22Z</time>
      </trkpt>
      <trkpt lat="47.972750" lon="1.858640">
        <time>2017-06-24T15:02:23Z</time>
      </trkpt>
      <trkpt lat="47.973000" lon="1.858700">
        <time>2017-06-24T15:02:24Z</time>
      </trkpt>
      <trkpt lat="47.973270" lon="1.858750">
        <time>2017-06-24T15:02:25Z</time>
      </trkpt>
      <trkpt lat="47.973540" lon="1.858800">
        <time>2017-06-24T15:02:26Z</time>
      </trkpt>
      <trkpt lat="47.973820" lon="1.858840">
        <time>2017-06-24T15:02:27Z</time>
      </trkpt>
      <trkpt lat="47.974110" lon="1.858880">
        <time>2017-06-24T15:02:28Z</time>
      </trkpt>
      <trkpt lat="47.974370" lon="1.858920">
        <time>2017-06-24T15:02:29Z</time>
      </trkpt>
      <trkpt lat="47.974650" lon="1.858960">
        <time>2017-06-24T15:02:30Z</time>
      </trkpt>
      <trkpt lat="47.974960" lon="1.859000">
        <time>2017-06-24T15:02:31Z</time>
      </trkpt>
      <trkpt lat="47.975220" lon="1.859020">
        <time>2017-06-24T15:02:32Z</time>
      </trkpt>
      <trkpt lat="47.975510" lon="1.859050">
        <time>2017-06-24T15:02:33Z</time>
      </trkpt>
      <trkpt lat="47.975820" lon="1.859090">
        <time>2017-06-24T15:02:34Z</time>
      </trkpt>
      <trkpt lat="47.976090" lon="1.859110">
        <time>2017-06-24T15:02:35Z</time>
      </trkpt>
      <trkpt lat="47.976390" lon="1.859140">
        <time>2017-06-24T15:02:36Z</time>
      </trkpt>
      <trkpt lat="47.976670" lon="1.859160">
        <time>2017-06-24T15:02:37Z</time>
      </trkpt>
      <trkpt lat="47.976960" lon="1.859190">
        <time>2017-06-24T15:02:38Z</time>
      </trkpt>
      <trkpt lat="47.977270" lon="1.859220">
        <time>2017-06-24T15:02:39Z</time>
      </trkpt>
      <trkpt lat="47.977540" lon="1.859230">
        <time>2017-06-24T15:02:40Z</time>
      </trkpt>
      <trkpt lat="47.977820" lon="1.859240">
        <time>2017-06-24T15:02:41Z</time>
      </trkpt>
      <trkpt lat="47.978100" lon="1.859240">
        <time>2017-06-24T15:02:42Z</time>
      </trkpt>
      <trkpt lat="47.978380" lon="1.859240">
        <time>2017-06-24T15:02:43Z</time>
      </trkpt>
      <trkpt lat="47.978690" lon="1.859260">
        <time>2017-06-24T15:02:44Z</time>
      </trkpt>
      <trkpt lat="47.978950" lon="1.859260">
        <time>2017-06-24T15:02:45Z</time>
      </trkpt>
      <trkpt lat="47.979230" lon="1.859250">
        <time>2017-06-24T15:02:46Z</time>
      </trkpt>
      <trkpt lat="47.979540" lon="1.859240">
        <time>2017-06-24T15:02:47Z</time>
      </trkpt>
      <trkpt lat="47.979800" lon="1.859230">
        <time>2017-06-24T15:02:48Z</time>
      </trkpt>
      <trkpt lat="47.980080" lon="1.859220">
        <time>2017-06-24T15:02:49Z</time>
      </trkpt>
      <trkpt lat="47.980380" lon="1.859190">
        <time>2017-06-24T15:02:50Z</time>
      </trkpt>
      <trkpt lat="47.980630" lon="1.859170">
        <time>2017-06-24T15:02:51Z</time>
      </trkpt>
      <trkpt lat="47.980930" lon="1.859140">
        <time>2017-06-24T15:02:52Z</time>
      </trkpt>
      <trkpt lat="47.981190" lon="1.859120">
        <time>2017-06-24T15:02:53Z</time>
      </trkpt>
      <trkpt lat="47.981470" lon="1.859090">
        <time>2017-06-24T15:02:54Z</time>
      </trkpt>
      <trkpt lat="47.981760" lon="1.859060">
        <time>2017-06-24T15:02:55Z</time>
      </trkpt>
      <trkpt lat="47.982010" lon="1.859030">
        <time>2017-06-24T15:02:56Z</time>
      </trkpt>
      <trkpt lat="47.982280" lon="1.858990">
        <time>2017-06-24T15:02:57Z</time>
      </trkpt>
      <trkpt lat="47.982540" lon="1.858960">
        <time>2017-06-24T15:02:58Z</time>
      </trkpt>
      <trkpt lat="47.982800" lon="1.858920">
        <time>2017-06-24T15:02:59Z</time>
      </trkpt>
      <trkpt lat="47.983080" lon="1.858880">
        <time>2017-06-24T15:03:00Z</time>
      </trkpt>
      <trkpt lat="47.983330" lon="1.858850">
        <time>2017-06-24T15:03:01Z</time>
      </trkpt>
      <trkpt lat="47.983590" lon="1.858810">
        <time>2017-06-24T15:03:02Z</time>
      </trkpt>
      <trkpt lat="47.983870" lon="1.858760">
        <time>2017-06-24T15:03:03Z</time>
      </trkpt>
      <trkpt lat="47.984110" lon="1.858700">
        <time>2017-06-24T15:03:04Z</time>
      </trkpt>
      <trkpt lat="47.984360" lon="1.858650">
        <time>2017-06-24T15:03:05Z</time>
      </trkpt>
      <trkpt lat="47.984640" lon="1.858590">
        <time>2017-06-24T15:03:06Z</time>
      </trkpt>
      <trkpt lat="47.984880" lon="1.858540">
        <time>2017-06-24T15:03:07Z</time>
      </trkpt>
      <trkpt lat="47.985170" lon="1.858480">
        <time>2017-06-24T15:03:08Z</time>
      </trkpt>
      <trkpt lat="47.985420" lon="1.858410">
        <time>2017-06-24T15:03:09Z</time>
      </trkpt>
      <trkpt lat="47.985690" lon="1.858350">
        <time>2017-06-24T15:03:10Z</time>
      </trkpt>
      <trkpt lat="47.985980" lon="1.858270">
        <time>2017-06-24T15:03:11Z</time>
      </trkpt>
      <trkpt lat="47.986240" lon="1.858210">
        <time>2017-06-24T15:03:12Z</time>
      </trkpt>
      <trkpt lat="47.986510" lon="1.858120">
        <time>2017-06-24T15:03:13Z</time>
      </trkpt>
      <trkpt lat="47.986790" lon="1.858040">
        <time>2017-06-24T15:03:14Z</time>
      </trkpt>
      <trkpt lat="47.987070" lon="1.857960">
        <time>2017-06-24T15:03:15Z</time>
      </trkpt>
      <trkpt lat="47.987370" lon="1.857860">
        <time>2017-06-24T15:03:16Z</time>
      </trkpt>
      <trkpt lat="47.987640" lon="1.857770">
        <time>2017-06-24T15:03:17Z</time>
      </trkpt>
      <trkpt lat="47.987950" lon="1.857660">
        <time>2017-06-24T15:03:18Z</time>
      </trkpt>
      <trkpt lat="47.988260" lon="1.857540">
        <time>2017-06-24T15:03:19Z</time>
      </trkpt>
      <trkpt lat="47.988550" lon="1.857440">
        <time>2017-06-24T15:03:20Z</time>
      </trkpt>
      <trkpt lat="47.988850" lon="1.857320">
        <time>2017-06-24T15:03:21Z</time>
      </trkpt>
      <trkpt lat="47.989170" lon="1.857200">
        <time>2017-06-24T15:03:22Z</time>
      </trkpt>
      <trkpt lat="47.989450" lon="1.857090">
        <time>2017-06-24T15:03:23Z</time>
      </trkpt>
      <trkpt lat="47.989770" lon="1.856980">
        <time>2017-06-24T15:03:24Z</time>
      </trkpt>
      <trkpt lat="47.990050" lon="1.856870">
        <time>2017-06-24T15:03:25Z</time>
      </trkpt>
      <trkpt lat="47.990350" lon="1.856760">
        <time>2017-06-24T15:03:26Z</time>
      </trkpt>
      <trkpt lat="47.990670" lon="1.856630">
        <time>2017-06-24T15:03:27Z</time>
      </trkpt>
      <trkpt lat="47.990950" lon="1.856510">
        <time>2017-06-24T15:03:28Z</time>
      </trkpt>
      <trkpt lat="47.991250" lon="1.856380">
        <time>2017-06-24T15:03:29Z</time>
      </trkpt>
      <trkpt lat="47.991530" lon="1.856240">
        <time>2017-06-24T15:03:30Z</time>
      </trkpt>
      <trkpt lat="47.991820" lon="1.856100">
        <time>2017-06-24T15:03:31Z</time>
      </trkpt>
      <trkpt lat="47.992120" lon="1.855940">
        <time>2017-06-24T15:03:32Z</time>
      </trkpt>
      <trkpt lat="47.992390" lon="1.855810">
        <time>2017-06-24T15:03:33Z</time>
      </trkpt>
      <trkpt lat="47.992670" lon="1.855660">
        <time>2017-06-24T15:03:34Z</time>
      </trkpt>
      <trkpt lat="47.992970" lon="1.855510">
        <time>2017-06-24T15:03:35Z</time>
      </trkpt>
      <trkpt lat="47.993240" lon="1.855360">
        <time>2017-06-24T15:03:36Z</time>
      </trkpt>
      <trkpt lat="47.993510" lon="1.855210">
        <time>2017-06-24T15:03:37Z</time>
      </trkpt>
      <trkpt lat="47.993810" lon="1.855050">
        <time>2017-06-24T15:03:38Z</time>
      </trkpt>
      <trkpt lat="47.994070" lon="1.854910">
        <time>2017-06-24T15:03:39Z</time>
      </trkpt>
      <trkpt lat="47.994370" lon="1.854740">
        <time>2017-06-24T15:03:40Z</time>
      </trkpt>
      <trkpt lat="47.994630" lon="1.854590">
        <time>2017-06-24T15:03:41Z</time>
      </trkpt>
      <trkpt lat="47.994910" lon="1.854430">
        <time>2017-06-24T15:03:42Z</time>
      </trkpt>
      <trkpt lat="47.995210" lon="1.854250">
        <time>2017-06-24T15:03:43Z</time>
      </trkpt>
      <trkpt lat="47.995470" lon="1.854100">
        <time>2017-06-24T15:03:44Z</time>
      </trkpt>
      <trkpt lat="47.995750" lon="1.853940">
        <time>2017-06-24T15:03:45Z</time>
      </trkpt>
      <trkpt lat="47.996030" lon="1.853780">
        <time>2017-06-24T15:03:46Z</time>
      </trkpt>
      <trkpt lat="47.996320" lon="1.853610">
        <time>2017-06-24T15:03:47Z</time>
      </trkpt>
      <trkpt lat="47.996620" lon="1.853430">
        <time>2017-06-24T15:03:48Z</time>
      </trkpt>
      <trkpt lat="47.996890" lon="1.853280">
        <time>2017-06-24T15:03:49Z</time>
      </trkpt>
      <trkpt lat="47.997180" lon="1.853120">
        <time>2017-06-24T15:03:50Z</time>
      </trkpt>
      <trkpt lat="47.997480" lon="1.852950">
        <time>2017-06-24T15:03:51Z</time>
      </trkpt>
      <trkpt lat="47.997740" lon="1.852790">
        <time>2017-06-24T15:03:52Z</time>
      </trkpt>
      <trkpt lat="47.998030" lon="1.852630">
        <time>2017-06-24T15:03:53Z</time>
      </trkpt>
      <trkpt lat="47.998330" lon="1.852460">
        <time>2017-06-24T15:03:54Z</time>
      </trkpt>
      <trkpt lat="47.998600" lon="1.852300">
        <time>2017-06-24T15:03:55Z</time>
      </trkpt>
      <trkpt lat="47.998910" lon="1.852110">
        <time>2017-06-24T15:03:56Z</time>
      </trkpt>
      <trkpt lat="47.999170" lon="1.851950">
        <time>2017-06-24T15:03:57Z</time>
      </trkpt>
      <trkpt lat="47.999460" lon="1.851780">
        <time>2017-06-24T15:03:58Z</time>
      </trkpt>
      <trkpt lat="47.999770" lon="1.851600">
        <time>2017-06-24T15:03:59Z</time>
      </trkpt>
      <trkpt lat="48.000040" lon="1.851440">
        <time>2017-06-24T15:04:00Z</time>
      </trkpt>
      <trkpt lat="48.000330" lon="1.851270">
        <time>2017-06-24T15:04:01Z</time>
      </trkpt>
      <trkpt lat="48.000620" lon="1.851100">
        <time>2017-06-24T15:04:02Z</time>
      </trkpt>
      <trkpt lat="48.000910" lon="1.850940">
        <time>2017-06-24T15:04:03Z</time>
      </trkpt>
      <trkpt lat="48.001220" lon="1.850760">
        <time>2017-06-24T15:04:04Z</time>
      </trkpt>
      <trkpt lat="48.001490" lon="1.850600">
        <time>2017-06-24T15:04:05Z</time>
      </trkpt>
      <trkpt lat="48.001780" lon="1.850440">
        <time>2017-06-24T15:04:06Z</time>
      </trkpt>
      <trkpt lat="48.002100" lon="1.850260">
        <time>2017-06-24T15:04:07Z</time>
      </trkpt>
      <trkpt lat="48.002370" lon="1.850100">
        <time>2017-06-24T15:04:08Z</time>
      </trkpt>
      <trkpt lat="48.002660" lon="1.849940">
        <time>2017-06-24T15:04:09Z</time>
      </trkpt>
      <trkpt lat="48.002970" lon="1.849760">
        <time>2017-06-24T15:04:10Z</time>
      </trkpt>
      <trkpt lat="48.003240" lon="1.849600">
        <time>2017-06-24T15:04:11Z</time>
      </trkpt>
      <trkpt lat="48.003560" lon="1.849420">
        <time>2017-06-24T15:04:12Z</time>
      </trkpt>
      <trkpt lat="48.003830" lon="1.849260">
        <time>2017-06-24T15:04:13Z</time>
      </trkpt>
      <trkpt lat="48.004120" lon="1.849090">
        <time>2017-06-24T15:04:14Z</time>
      </trkpt>
      <trkpt lat="48.004440" lon="1.848900">
        <time>2017-06-24T15:04:15Z</time>
      </trkpt>
      <trkpt lat="48.004720" lon="1.848740">
        <time>2017-06-24T15:04:16Z</time>
      </trkpt>
      <trkpt lat="48.005020" lon="1.848570">
        <time>2017-06-24T15:04:17Z</time>
      </trkpt>
      <trkpt lat="48.005320" lon="1.848410">
        <time>2017-06-24T15:04:18Z</time>
      </trkpt>
      <trkpt lat="48.005630" lon="1.848250">
        <time>2017-06-24T15:04:19Z</time>
      </trkpt>
      <trkpt lat="48.005950" lon="1.848090">
        <time>2017-06-24T15:04:20Z</time>
      </trkpt>
      <trkpt lat="48.006240" lon="1.847940">
        <time>2017-06-24T15:04:21Z</time>
      </trkpt>
      <trkpt lat="48.006560" lon="1.847790">
        <time>2017-06-24T15:04:22Z</time>
      </trkpt>
      <trkpt lat="48.006880" lon="1.847620">
        <time>2017-06-24T15:04:23Z</time>
      </trkpt>
      <trkpt lat="48.007170" lon="1.847480">
        <time>2017-06-24T15:04:24Z</time>
      </trkpt>
      <trkpt lat="48.007480" lon="1.847320">
        <time>2017-06-24T15:04:25Z</time>
      </trkpt>
      <trkpt lat="48.007810" lon="1.847160">
        <time>2017-06-24T15:04:26Z</time>
      </trkpt>
      <trkpt lat="48.008100" lon="1.847020">
        <time>2017-06-24T15:04:27Z</time>
      </trkpt>
      <trkpt lat="48.008420" lon="1.846860">
        <time>2017-06-24T15:04:28Z</time>
      </trkpt>
      <trkpt lat="48.008700" lon="1.846720">
        <time>2017-06-24T15:04:29Z</time>
      </trkpt>
      <trkpt lat="48.009000" lon="1.846580">
        <time>2017-06-24T15:04:30Z</time>
      </trkpt>
      <trkpt lat="48.009320" lon="1.846430">
        <time>2017-06-24T15:04:31Z</time>
      </trkpt>
      <trkpt lat="48.009600" lon="1.846300">
        <time>2017-06-24T15:04:32Z</time>
      </trkpt>
      <trkpt lat="48.009900" lon="1.846160">
        <time>2017-06-24T15:04:33Z</time>
      </trkpt>
      <trkpt lat="48.010200" lon="1.846030">
        <time>2017-06-24T15:04:34Z</time>
      </trkpt>
      <trkpt lat="48.010500" lon="1.845890">
        <time>2017-06-24T15:04:35Z</time>
      </trkpt>
      <trkpt lat="48.010810" lon="1.845750">
        <time>2017-06-24T15:04:36Z</time>
      </trkpt>
      <trkpt lat="48.011090" lon="1.845620">
        <time>2017-06-24T15:04:37Z</time>
      </trkpt>
      <trkpt lat="48.011390" lon="1.845490">
        <time>2017-06-24T15:04:38Z</time>
      </trkpt>
      <trkpt lat="48.011710" lon="1.845350">
        <time>2017-06-24T15:04:39Z</time>
      </trkpt>
      <trkpt lat="48.011990" lon="1.845240">
        <time>2017-06-24T15:04:40Z</time>
      </trkpt>
      <trkpt lat="48.012290" lon="1.845120">
        <time>2017-06-24T15:04:41Z</time>
      </trkpt>
      <trkpt lat="48.012610" lon="1.844980">
        <time>2017-06-24T15:04:42Z</time>
      </trkpt>
      <trkpt lat="48.012900" lon="1.844860">
        <time>2017-06-24T15:04:43Z</time>
      </trkpt>
      <trkpt lat="48.013220" lon="1.844740">
        <time>2017-06-24T15:04:44Z</time>
      </trkpt>
      <trkpt lat="48.013510" lon="1.844620">
        <time>2017-06-24T15:04:45Z</time>
      </trkpt>
      <trkpt lat="48.013820" lon="1.844510">
        <time>2017-06-24T15:04:46Z</time>
      </trkpt>
      <trkpt lat="48.014140" lon="1.844380">
        <time>2017-06-24T15:04:47Z</time>
      </trkpt>
      <trkpt lat="48.014430" lon="1.844270">
        <time>2017-06-24T15:04:48Z</time>
      </trkpt>
      <trkpt lat="48.014750" lon="1.844160">
        <time>2017-06-24T15:04:49Z</time>
      </trkpt>
      <trkpt lat="48.015060" lon="1.844050">
        <time>2017-06-24T15:04:50Z</time>
      </trkpt>
      <trkpt lat="48.015370" lon="1.843940">
        <time>2017-06-24T15:04:51Z</time>
      </trkpt>
      <trkpt lat="48.015700" lon="1.843820">
        <time>2017-06-24T15:04:52Z</time>
      </trkpt>
      <trkpt lat="48.015990" lon="1.843720">
        <time>2017-06-24T15:04:53Z</time>
      </trkpt>
      <trkpt lat="48.016300" lon="1.843620">
        <time>2017-06-24T15:04:54Z</time>
      </trkpt>
      <trkpt lat="48.016630" lon="1.843510">
        <time>2017-06-24T15:04:55Z</time>
      </trkpt>
      <trkpt lat="48.016920" lon="1.843410">
        <time>2017-06-24T15:04:56Z</time>
      </trkpt>
      <trkpt lat="48.017230" lon="1.843300">
        <time>2017-06-24T15:04:57Z</time>
      </trkpt>
      <trkpt lat="48.017560" lon="1.843190">
        <time>2017-06-24T15:04:58Z</time>
      </trkpt>
      <trkpt lat="48.017850" lon="1.843100">
        <time>2017-06-24T15:04:59Z</time>
      </trkpt>
      <trkpt lat="48.018180" lon="1.843000">
        <time>2017-06-24T15:05:00Z</time>
      </trkpt>
      <trkpt lat="48.018470" lon="1.842920">
        <time>2017-06-24T15:05:01Z</time>
      </trkpt>
      <trkpt lat="48.018780" lon="1.842830">
        <time>2017-06-24T15:05:02Z</time>
      </trkpt>
      <trkpt lat="48.019100" lon="1.842740">
        <time>2017-06-24T15:05:03Z</time>
      </trkpt>
      <trkpt lat="48.019390" lon="1.842650">
        <time>2017-06-24T15:05:04Z</time>
      </trkpt>
      <trkpt lat="48.019700" lon="1.842560">
        <time>2017-06-24T15:05:05Z</time>
      </trkpt>
      <trkpt lat="48.020000" lon="1.842470">
        <time>2017-06-24T15:05:06Z</time>
      </trkpt>
      <trkpt lat="48.020310" lon="1.842390">
        <time>2017-06-24T15:05:07Z</time>
      </trkpt>
      <trkpt lat="48.020640" lon="1.842300">
        <time>2017-06-24T15:05:08Z</time>
      </trkpt>
      <trkpt lat="48.020930" lon="1.842220">
        <time>2017-06-24T15:05:09Z</time>
      </trkpt>
      <trkpt lat="48.021240" lon="1.842140">
        <time>2017-06-24T15:05:10Z</time>
      </trkpt>
      <trkpt lat="48.021560" lon="1.842050">
        <time>2017-06-24T15:05:11Z</time>
      </trkpt>
      <trkpt lat="48.021850" lon="1.841980">
        <time>2017-06-24T15:05:12Z</time>
      </trkpt>
      <trkpt lat="48.022150" lon="1.841900">
        <time>2017-06-24T15:05:13Z</time>
      </trkpt>
      <trkpt lat="48.022480" lon="1.841830">
        <time>2017-06-24T15:05:14Z</time>
      </trkpt>
      <trkpt lat="48.022770" lon="1.841770">
        <time>2017-06-24T15:05:15Z</time>
      </trkpt>
      <trkpt lat="48.023100" lon="1.841710">
        <time>2017-06-24T15:05:16Z</time>
      </trkpt>
      <trkpt lat="48.023390" lon="1.841660">
        <time>2017-06-24T15:05:17Z</time>
      </trkpt>
      <trkpt lat="48.023710" lon="1.841590">
        <time>2017-06-24T15:05:18Z</time>
      </trkpt>
      <trkpt lat="48.024040" lon="1.841510">
        <time>2017-06-24T15:05:19Z</time>
      </trkpt>
      <trkpt lat="48.024330" lon="1.841450">
        <time>2017-06-24T15:05:20Z</time>
      </trkpt>
      <trkpt lat="48.024640" lon="1.841390">
        <time>2017-06-24T15:05:21Z</time>
      </trkpt>
      <trkpt lat="48.024950" lon="1.841320">
        <time>2017-06-24T15:05:22Z</time>
      </trkpt>
      <trkpt lat="48.025260" lon="1.841260">
        <time>2017-06-24T15:05:23Z</time>
      </trkpt>
      <trkpt lat="48.025590" lon="1.841200">
        <time>2017-06-24T15:05:24Z</time>
      </trkpt>
      <trkpt lat="48.025890" lon="1.841150">
        <time>2017-06-24T15:05:25Z</time>
      </trkpt>
      <trkpt lat="48.026200" lon="1.841090">
        <time>2017-06-24T15:05:26Z</time>
      </trkpt>
      <trkpt lat="48.026530" lon="1.841030">
        <time>2017-06-24T15:05:27Z</time>
      </trkpt>
      <trkpt lat="48.026820" lon="1.840980">
        <time>2017-06-24T15:05:28Z</time>
      </trkpt>
      <trkpt lat="48.027130" lon="1.840930">
        <time>2017-06-24T15:05:29Z</time>
      </trkpt>
      <trkpt lat="48.027470" lon="1.840890">
        <time>2017-06-24T15:05:30Z</time>
      </trkpt>
      <trkpt lat="48.027760" lon="1.840850">
        <time>2017-06-24T15:05:31Z</time>
      </trkpt>
      <trkpt lat="48.028100" lon="1.840810">
        <time>2017-06-24T15:05:32Z</time>
      </trkpt>
      <trkpt lat="48.028380" lon="1.840770">
        <time>2017-06-24T15:05:33Z</time>
      </trkpt>
      <trkpt lat="48.028690" lon="1.840730">
        <time>2017-06-24T15:05:34Z</time>
      </trkpt>
      <trkpt lat="48.029020" lon="1.840680">
        <time>2017-06-24T15:05:35Z</time>
      </trkpt>
      <trkpt lat="48.029310" lon="1.840640">
        <time>2017-06-24T15:05:36Z</time>
      </trkpt>
      <trkpt lat="48.029610" lon="1.840610">
        <time>2017-06-24T15:05:37Z</time>
      </trkpt>
      <trkpt lat="48.029920" lon="1.840590">
        <time>2017-06-24T15:05:38Z</time>
      </trkpt>
      <trkpt lat="48.030230" lon="1.840550">
        <time>2017-06-24T15:05:39Z</time>
      </trkpt>
      <trkpt lat="48.030560" lon="1.840520">
        <time>2017-06-24T15:05:40Z</time>
      </trkpt>
      <trkpt lat="48.030850" lon="1.840500">
        <time>2017-06-24T15:05:41Z</time>
      </trkpt>
      <trkpt lat="48.031160" lon="1.840480">
        <time>2017-06-24T15:05:42Z</time>
      </trkpt>
      <trkpt lat="48.031490" lon="1.840450">
        <time>2017-06-24T15:05:43Z</time>
      </trkpt>
      <trkpt lat="48.031770" lon="1.840430">
        <time>2017-06-24T15:05:44Z</time>
      </trkpt>
      <trkpt lat="48.032070" lon="1.840410">
        <time>2017-06-24T15:05:45Z</time>
      </trkpt>
      <trkpt lat="48.032390" lon="1.840380">
        <time>2017-06-24T15:05:46Z</time>
      </trkpt>
      <trkpt lat="48.032680" lon="1.840360">
        <time>2017-06-24T15:05:47Z</time>
      </trkpt>
      <trkpt lat="48.033000" lon="1.840340">
        <time>2017-06-24T15:05:48Z</time>
      </trkpt>
      <trkpt lat="48.033280" lon="1.840320">
        <time>2017-06-24T15:05:49Z</time>
      </trkpt>
      <trkpt lat="48.033570" lon="1.840310">
        <time>2017-06-24T15:05:50Z</time>
      </trkpt>
      <trkpt lat="48.033880" lon="1.840300">
        <time>2017-06-24T15:05:51Z</time>
      </trkpt>
      <trkpt lat="48.034130" lon="1.840280">
        <time>2017-06-24T15:05:52Z</time>
      </trkpt>
      <trkpt lat="48.034390" lon="1.840280">
        <time>2017-06-24T15:05:53Z</time>
      </trkpt>
      <trkpt lat="48.034640" lon="1.840270">
        <time>2017-06-24T15:05:54Z</time>
      </trkpt>
      <trkpt lat="48.034900" lon="1.840280">
        <time>2017-06-24T15:05:55Z</time>
      </trkpt>
      <trkpt lat="48.035170" lon="1.840290">
        <time>2017-06-24T15:05:56Z</time>
      </trkpt>
      <trkpt lat="48.035400" lon="1.840290">
        <time>2017-06-24T15:05:57Z</time>
      </trkpt>
      <trkpt lat="48.035650" lon="1.840300">
        <time>2017-06-24T15:05:58Z</time>
      </trkpt>
      <trkpt lat="48.035920" lon="1.840310">
        <time>2017-06-24T15:05:59Z</time>
      </trkpt>
      <trkpt lat="48.036150" lon="1.840320">
        <time>2017-06-24T15:06:00Z</time>
      </trkpt>
      <trkpt lat="48.036410" lon="1.840340">
        <time>2017-06-24T15:06:01Z</time>
      </trkpt>
      <trkpt lat="48.036670" lon="1.840370">
        <time>2017-06-24T15:06:02Z</time>
      </trkpt>
      <trkpt lat="48.036900" lon="1.840400">
        <time>2017-06-24T15:06:03Z</time>
      </trkpt>
      <trkpt lat="48.037160" lon="1.840440">
        <time>2017-06-24T15:06:04Z</time>
      </trkpt>
      <trkpt lat="48.037390" lon="1.840500">
        <time>2017-06-24T15:06:05Z</time>
      </trkpt>
      <trkpt lat="48.037630" lon="1.840570">
        <time>2017-06-24T15:06:06Z</time>
      </trkpt>
      <trkpt lat="48.037890" lon="1.840660">
        <time>2017-06-24T15:06:07Z</time>
      </trkpt>
      <trkpt lat="48.038120" lon="1.840750">
        <time>2017-06-24T15:06:08Z</time>
      </trkpt>
      <trkpt lat="48.038360" lon="1.840860">
        <time>2017-06-24T15:06:09Z</time>
      </trkpt>
      <trkpt lat="48.038600" lon="1.840980">
        <time>2017-06-24T15:06:10Z</time>
      </trkpt>
      <trkpt lat="48.038850" lon="1.841120">
        <time>2017-06-24T15:06:11Z</time>
      </trkpt>
      <trkpt lat="48.039100" lon="1.841290">
        <time>2017-06-24T15:06:12Z</time>
      </trkpt>
      <trkpt lat="48.039320" lon="1.841460">
        <time>2017-06-24T15:06:13Z</time>
      </trkpt>
      <trkpt lat="48.039550" lon="1.841680">
        <time>2017-06-24T15:06:14Z</time>
      </trkpt>
      <trkpt lat="48.039800" lon="1.841910">
        <time>2017-06-24T15:06:15Z</time>
      </trkpt>
      <trkpt lat="48.040010" lon="1.842140">
        <time>2017-06-24T15:06:16Z</time>
      </trkpt>
      <trkpt lat="48.040240" lon="1.842390">
        <time>2017-06-24T15:06:17Z</time>
      </trkpt>
      <trkpt lat="48.040470" lon="1.842690">
        <time>2017-06-24T15:06:18Z</time>
      </trkpt>
      <trkpt lat="48.040660" lon="1.842970">
        <time>2017-06-24T15:06:19Z</time>
      </trkpt>
      <trkpt lat="48.040870" lon="1.843310">
        <time>2017-06-24T15:06:20Z</time>
      </trkpt>
      <trkpt lat="48.041050" lon="1.843620">
        <time>2017-06-24T15:06:21Z</time>
      </trkpt>
      <trkpt lat="48.041220" lon="1.843970">
        <time>2017-06-24T15:06:22Z</time>
      </trkpt>
      <trkpt lat="48.041400" lon="1.844370">
        <time>2017-06-24T15:06:23Z</time>
      </trkpt>
      <trkpt lat="48.041540" lon="1.844720">
        <time>2017-06-24T15:06:24Z</time>
      </trkpt>
      <trkpt lat="48.041690" lon="1.845110">
        <time>2017-06-24T15:06:25Z</time>
      </trkpt>
      <trkpt lat="48.041830" lon="1.845510">
        <time>2017-06-24T15:06:26Z</time>
      </trkpt>
      <trkpt lat="48.041960" lon="1.845920">
        <time>2017-06-24T15:06:27Z</time>
      </trkpt>
      <trkpt lat="48.042100" lon="1.846360">
        <time>2017-06-24T15:06:28Z</time>
      </trkpt>
      <trkpt lat="48.042230" lon="1.846740">
        <time>2017-06-24T15:06:29Z</time>
      </trkpt>
      <trkpt lat="48.042380" lon="1.847140">
        <time>2017-06-24T15:06:30Z</time>
      </trkpt>
      <trkpt lat="48.042560" lon="1.847550">
        <time>2017-06-24T15:06:31Z</time>
      </trkpt>
      <trkpt lat="48.042730" lon="1.847900">
        <time>2017-06-24T15:06:32Z</time>
      </trkpt>
      <trkpt lat="48.042910" lon="1.848260">
        <time>2017-06-24T15:06:33Z</time>
      </trkpt>
      <trkpt lat="48.043110" lon="1.848640">
        <time>2017-06-24T15:06:34Z</time>
      </trkpt>
      <trkpt lat="48.043280" lon="1.848990">
        <time>2017-06-24T15:06:35Z</time>
      </trkpt>
      <trkpt lat="48.043470" lon="1.849390">
        <time>2017-06-24T15:06:36Z</time>
      </trkpt>
      <trkpt lat="48.043640" lon="1.849730">
        <time>2017-06-24T15:06:37Z</time>
      </trkpt>
      <trkpt lat="48.043800" lon="1.850120">
        <time>2017-06-24T15:06:38Z</time>
      </trkpt>
      <trkpt lat="48.043970" lon="1.850540">
        <time>2017-06-24T15:06:39Z</time>
      </trkpt>
      <trkpt lat="48.044110" lon="1.850910">
        <time>2017-06-24T15:06:40Z</time>
      </trkpt>
      <trkpt lat="48.044250" lon="1.851320">
        <time>2017-06-24T15:06:41Z</time>
      </trkpt>
      <trkpt lat="48.044370" lon="1.851730">
        <time>2017-06-24T15:06:42Z</time>
      </trkpt>
      <trkpt lat="48.044490" lon="1.852150">
        <time>2017-06-24T15:06:43Z</time>
      </trkpt>
      <trkpt lat="48.044610" lon="1.852600">
        <time>2017-06-24T15:06:44Z</time>
      </trkpt>
      <trkpt lat="48.044700" lon="1.853000">
        <time>2017-06-24T15:06:45Z</time>
      </trkpt>
      <trkpt lat="48.044780" lon="1.853440">
        <time>2017-06-24T15:06:46Z</time>
      </trkpt>
      <trkpt lat="48.044870" lon="1.853910">
        <time>2017-06-24T15:06:47Z</time>
      </trkpt>
      <trkpt lat="48.044940" lon="1.854340">
        <time>2017-06-24T15:06:48Z</time>
      </trkpt>
      <trkpt lat="48.044990" lon="1.854800">
        <time>2017-06-24T15:06:49Z</time>
      </trkpt>
      <trkpt lat="48.045040" lon="1.855300">
        <time>2017-06-24T15:06:50Z</time>
      </trkpt>
      <trkpt lat="48.045080" lon="1.855740">
        <time>2017-06-24T15:06:51Z</time>
      </trkpt>
      <trkpt lat="48.045110" lon="1.856250">
        <time>2017-06-24T15:06:52Z</time>
      </trkpt>
      <trkpt lat="48.045120" lon="1.856710">
        <time>2017-06-24T15:06:53Z</time>
      </trkpt>
      <trkpt lat="48.045120" lon="1.857200">
        <time>2017-06-24T15:06:54Z</time>
      </trkpt>
      <trkpt lat="48.045110" lon="1.857710">
        <time>2017-06-24T15:06:55Z</time>
      </trkpt>
      <trkpt lat="48.045090" lon="1.858170">
        <time>2017-06-24T15:06:56Z</time>
      </trkpt>
      <trkpt lat="48.045070" lon="1.858650">
        <time>2017-06-24T15:06:57Z</time>
      </trkpt>
      <trkpt lat="48.045050" lon="1.859140">
        <time>2017-06-24T15:06:58Z</time>
      </trkpt>
      <trkpt lat="48.045020" lon="1.859630">
        <time>2017-06-24T15:06:59Z</time>
      </trkpt>
      <trkpt lat="48.045000" lon="1.860160">
        <time>2017-06-24T15:07:00Z</time>
      </trkpt>
      <trkpt lat="48.044980" lon="1.860630">
        <time>2017-06-24T15:07:01Z</time>
      </trkpt>
      <trkpt lat="48.044970" lon="1.861130">
        <time>2017-06-24T15:07:02Z</time>
      </trkpt>
      <trkpt lat="48.044940" lon="1.861660">
        <time>2017-06-24T15:07:03Z</time>
      </trkpt>
      <trkpt lat="48.044920" lon="1.862130">
        <time>2017-06-24T15:07:04Z</time>
      </trkpt>
      <trkpt lat="48.044900" lon="1.862640">
        <time>2017-06-24T15:07:05Z</time>
      </trkpt>
      <trkpt lat="48.044880" lon="1.863170">
        <time>2017-06-24T15:07:06Z</time>
      </trkpt>
      <trkpt lat="48.044860" lon="1.863650">
        <time>2017-06-24T15:07:07Z</time>
      </trkpt>
      <trkpt lat="48.044830" lon="1.864170">
        <time>2017-06-24T15:07:08Z</time>
      </trkpt>
      <trkpt lat="48.044810" lon="1.864640">
        <time>2017-06-24T15:07:09Z</time>
      </trkpt>
      <trkpt lat="48.044790" lon="1.865140">
        <time>2017-06-24T15:07:10Z</time>
      </trkpt>
      <trkpt lat="48.044760" lon="1.865680">
        <time>2017-06-24T15:07:11Z</time>
      </trkpt>
      <trkpt lat="48.044740" lon="1.866150">
        <time>2017-06-24T15:07:12Z</time>
      </trkpt>
      <trkpt lat="48.044720" lon="1.866660">
        <time>2017-06-24T15:07:13Z</time>
      </trkpt>
      <trkpt lat="48.044690" lon="1.867160">
        <time>2017-06-24T15:07:14Z</time>
      </trkpt>
      <trkpt lat="48.044660" lon="1.867670">
        <time>2017-06-24T15:07:15Z</time>
      </trkpt>
      <trkpt lat="48.044640" lon="1.868210">
        <time>2017-06-24T15:07:16Z</time>
      </trkpt>
      <trkpt lat="48.044630" lon="1.868680">
        <time>2017-06-24T15:07:17Z</time>
      </trkpt>
      <trkpt lat="48.044600" lon="1.869200">
        <time>2017-06-24T15:07:18Z</time>
      </trkpt>
      <trkpt lat="48.044580" lon="1.869730">
        <time>2017-06-24T15:07:19Z</time>
      </trkpt>
      <trkpt lat="48.044560" lon="1.870200">
        <time>2017-06-24T15:07:20Z</time>
      </trkpt>
      <trkpt lat="48.044550" lon="1.870700">
        <time>2017-06-24T15:07:21Z</time>
      </trkpt>
      <trkpt lat="48.044550" lon="1.871220">
        <time>2017-06-24T15:07:22Z</time>
      </trkpt>
      <trkpt lat="48.044560" lon="1.871680">
        <time>2017-06-24T15:07:23Z</time>
      </trkpt>
      <trkpt lat="48.044580" lon="1.872200">
        <time>2017-06-24T15:07:24Z</time>
      </trkpt>
      <trkpt lat="48.044600" lon="1.872660">
        <time>2017-06-24T15:07:25Z</time>
      </trkpt>
      <trkpt lat="48.044630" lon="1.873150">
        <time>2017-06-24T15:07:26Z</time>
      </trkpt>
      <trkpt lat="48.044660" lon="1.873660">
        <time>2017-06-24T15:07:27Z</time>
      </trkpt>
      <trkpt lat="48.044700" lon="1.874110">
        <time>2017-06-24T15:07:28Z</time>
      </trkpt>
      <trkpt lat="48.044740" lon="1.874590">
        <time>2017-06-24T15:07:29Z</time>
      </trkpt>
      <trkpt lat="48.044780" lon="1.875070">
        <time>2017-06-24T15:07:30Z</time>
      </trkpt>
      <trkpt lat="48.044820" lon="1.875540">
        <time>2017-06-24T15:07:31Z</time>
      </trkpt>
      <trkpt lat="48.044860" lon="1.876040">
        <time>2017-06-24T15:07:32Z</time>
      </trkpt>
      <trkpt lat="48.044890" lon="1.876480">
        <time>2017-06-24T15:07:33Z</time>
      </trkpt>
      <trkpt lat="48.044930" lon="1.876960">
        <time>2017-06-24T15:07:34Z</time>
      </trkpt>
      <trkpt lat="48.044960" lon="1.877460">
        <time>2017-06-24T15:07:35Z</time>
      </trkpt>
      <trkpt lat="48.045000" lon="1.877910">
        <time>2017-06-24T15:07:36Z</time>
      </trkpt>
      <trkpt lat="48.045050" lon="1.878390">
        <time>2017-06-24T15:07:37Z</time>
      </trkpt>
      <trkpt lat="48.045090" lon="1.878890">
        <time>2017-06-24T15:07:38Z</time>
      </trkpt>
      <trkpt lat="48.045120" lon="1.879340">
        <time>2017-06-24T15:07:39Z</time>
      </trkpt>
      <trkpt lat="48.045170" lon="1.879860">
        <time>2017-06-24T15:07:40Z</time>
      </trkpt>
      <trkpt lat="48.045210" lon="1.880300">
        <time>2017-06-24T15:07:41Z</time>
      </trkpt>
      <trkpt lat="48.045250" lon="1.880790">
        <time>2017-06-24T15:07:42Z</time>
      </trkpt>
      <trkpt lat="48.045300" lon="1.881310">
        <time>2017-06-24T15:07:43Z</time>
      </trkpt>
      <trkpt lat="48.045350" lon="1.881770">
        <time>2017-06-24T15:07:44Z</time>
      </trkpt>
      <trkpt lat="48.045400" lon="1.882260">
        <time>2017-06-24T15:07:45Z</time>
      </trkpt>
      <trkpt lat="48.045450" lon="1.882750">
        <time>2017-06-24T15:07:46Z</time>
      </trkpt>
      <trkpt lat="48.045510" lon="1.883240">
        <time>2017-06-24T15:07:47Z</time>
      </trkpt>
      <trkpt lat="48.045560" lon="1.883760">
        <time>2017-06-24T15:07:48Z</time>
      </trkpt>
      <trkpt lat="48.045610" lon="1.884210">
        <time>2017-06-24T15:07:49Z</time>
      </trkpt>
      <trkpt lat="48.045660" lon="1.884710">
        <time>2017-06-24T15:07:50Z</time>
      </trkpt>
      <trkpt lat="48.045710" lon="1.885230">
        <time>2017-06-24T15:07:51Z</time>
      </trkpt>
      <trkpt lat="48.045760" lon="1.885700">
        <time>2017-06-24T15:07:52Z</time>
      </trkpt>
      <trkpt lat="48.045810" lon="1.886190">
        <time>2017-06-24T15:07:53Z</time>
      </trkpt>
      <trkpt lat="48.045870" lon="1.886720">
        <time>2017-06-24T15:07:54Z</time>
      </trkpt>
      <trkpt lat="48.045920" lon="1.887180">
        <time>2017-06-24T15:07:55Z</time>
      </trkpt>
      <trkpt lat="48.045980" lon="1.887720">
        <time>2017-06-24T15:07:56Z</time>
      </trkpt>
      <trkpt lat="48.046030" lon="1.888180">
        <time>2017-06-24T15:07:57Z</time>
      </trkpt>
      <trkpt lat="48.046070" lon="1.888670">
        <time>2017-06-24T15:07:58Z</time>
      </trkpt>
      <trkpt lat="48.046130" lon="1.889190">
        <time>2017-06-24T15:07:59Z</time>
      </trkpt>
      <trkpt lat="48.046180" lon="1.889650">
        <time>2017-06-24T15:08:00Z</time>
      </trkpt>
      <trkpt lat="48.046230" lon="1.890140">
        <time>2017-06-24T15:08:01Z</time>
      </trkpt>
      <trkpt lat="48.046280" lon="1.890640">
        <time>2017-06-24T15:08:02Z</time>
      </trkpt>
      <trkpt lat="48.046340" lon="1.891140">
        <time>2017-06-24T15:08:03Z</time>
      </trkpt>
      <trkpt lat="48.046400" lon="1.891660">
        <time>2017-06-24T15:08:04Z</time>
      </trkpt>
      <trkpt lat="48.046450" lon="1.892120">
        <time>2017-06-24T15:08:05Z</time>
      </trkpt>
      <trkpt lat="48.046500" lon="1.892620">
        <time>2017-06-24T15:08:06Z</time>
      </trkpt>
      <trkpt lat="48.046560" lon="1.893140">
        <time>2017-06-24T15:08:07Z</time>
      </trkpt>
      <trkpt lat="48.046610" lon="1.893610">
        <time>2017-06-24T15:08:08Z</time>
      </trkpt>
      <trkpt lat="48.046660" lon="1.894100">
        <time>2017-06-24T15:08:09Z</time>
      </trkpt>
      <trkpt lat="48.046710" lon="1.894620">
        <time>2017-06-24T15:08:10Z</time>
      </trkpt>
      <trkpt lat="48.046750" lon="1.895080">
        <time>2017-06-24T15:08:11Z</time>
      </trkpt>
      <trkpt lat="48.046810" lon="1.895600">
        <time>2017-06-24T15:08:12Z</time>
      </trkpt>
      <trkpt lat="48.046850" lon="1.896060">
        <time>2017-06-24T15:08:13Z</time>
      </trkpt>
      <trkpt lat="48.046910" lon="1.896550">
        <time>2017-06-24T15:08:14Z</time>
      </trkpt>
      <trkpt lat="48.046960" lon="1.897070">
        <time>2017-06-24T15:08:15Z</time>
      </trkpt>
      <trkpt lat="48.047010" lon="1.897520">
        <time>2017-06-24T15:08:16Z</time>
      </trkpt>
      <trkpt lat="48.047060" lon="1.898000">
        <time>2017-06-24T15:08:17Z</time>
      </trkpt>
      <trkpt lat="48.047110" lon="1.898490">
        <time>2017-06-24T15:08:18Z</time>
      </trkpt>
      <trkpt lat="48.047160" lon="1.898970">
        <time>2017-06-24T15:08:19Z</time>
      </trkpt>
      <trkpt lat="48.047210" lon="1.899480">
        <time>2017-06-24T15:08:20Z</time>
      </trkpt>
      <trkpt lat="48.047260" lon="1.899930">
        <time>2017-06-24T15:08:21Z</time>
      </trkpt>
      <trkpt lat="48.047300" lon="1.900410">
        <time>2017-06-24T15:08:22Z</time>
      </trkpt>
      <trkpt lat="48.047360" lon="1.900920">
        <time>2017-06-24T15:08:23Z</time>
      </trkpt>
      <trkpt lat="48.047400" lon="1.901350">
        <time>2017-06-24T15:08:24Z</time>
      </trkpt>
      <trkpt lat="48.047450" lon="1.901810">
        <time>2017-06-24T15:08:25Z</time>
      </trkpt>
      <trkpt lat="48.047500" lon="1.902310">
        <time>2017-06-24T15:08:26Z</time>
      </trkpt>
      <trkpt lat="48.047550" lon="1.902740">
        <time>2017-06-24T15:08:27Z</time>
      </trkpt>
      <trkpt lat="48.047590" lon="1.903230">
        <time>2017-06-24T15:08:28Z</time>
      </trkpt>
      <trkpt lat="48.047640" lon="1.903660">
        <time>2017-06-24T15:08:29Z</time>
      </trkpt>
      <trkpt lat="48.047690" lon="1.904130">
        <time>2017-06-24T15:08:30Z</time>
      </trkpt>
      <trkpt lat="48.047740" lon="1.904620">
        <time>2017-06-24T15:08:31Z</time>
      </trkpt>
      <trkpt lat="48.047790" lon="1.905050">
        <time>2017-06-24T15:08:32Z</time>
      </trkpt>
      <trkpt lat="48.047830" lon="1.905510">
        <time>2017-06-24T15:08:33Z</time>
      </trkpt>
      <trkpt lat="48.047880" lon="1.905970">
        <time>2017-06-24T15:08:34Z</time>
      </trkpt>
      <trkpt lat="48.047920" lon="1.906430">
        <time>2017-06-24T15:08:35Z</time>
      </trkpt>
      <trkpt lat="48.047970" lon="1.906920">
        <time>2017-06-24T15:08:36Z</time>
      </trkpt>
      <trkpt lat="48.048010" lon="1.907350">
        <time>2017-06-24T15:08:37Z</time>
      </trkpt>
      <trkpt lat="48.048060" lon="1.907810">
        <time>2017-06-24T15:08:38Z</time>
      </trkpt>
      <trkpt lat="48.048110" lon="1.908300">
        <time>2017-06-24T15:08:39Z</time>
      </trkpt>
      <trkpt lat="48.048150" lon="1.908740">
        <time>2017-06-24T15:08:40Z</time>
      </trkpt>
      <trkpt lat="48.048200" lon="1.909210">
        <time>2017-06-24T15:08:41Z</time>
      </trkpt>
      <trkpt lat="48.048250" lon="1.909710">
        <time>2017-06-24T15:08:42Z</time>
      </trkpt>
      <trkpt lat="48.048300" lon="1.910150">
        <time>2017-06-24T15:08:43Z</time>
      </trkpt>
      <trkpt lat="48.048350" lon="1.910660">
        <time>2017-06-24T15:08:44Z</time>
      </trkpt>
      <trkpt lat="48.048400" lon="1.911110">
        <time>2017-06-24T15:08:45Z</time>
      </trkpt>
      <trkpt lat="48.048440" lon="1.911600">
        <time>2017-06-24T15:08:46Z</time>
      </trkpt>
      <trkpt lat="48.048500" lon="1.912130">
        <time>2017-06-24T15:08:47Z</time>
      </trkpt>
      <trkpt lat="48.048550" lon="1.912590">
        <time>2017-06-24T15:08:48Z</time>
      </trkpt>
      <trkpt lat="48.048600" lon="1.913090">
        <time>2017-06-24T15:08:49Z</time>
      </trkpt>
      <trkpt lat="48.048650" lon="1.913590">
        <time>2017-06-24T15:08:50Z</time>
      </trkpt>
      <trkpt lat="48.048700" lon="1.914090">
        <time>2017-06-24T15:08:51Z</time>
      </trkpt>
      <trkpt lat="48.048760" lon="1.914610">
        <time>2017-06-24T15:08:52Z</time>
      </trkpt>
      <trkpt lat="48.048800" lon="1.915060">
        <time>2017-06-24T15:08:53Z</time>
      </trkpt>
      <trkpt lat="48.048850" lon="1.915550">
        <time>2017-06-24T15:08:54Z</time>
      </trkpt>
      <trkpt lat="48.048900" lon="1.916070">
        <time>2017-06-24T15:08:55Z</time>
      </trkpt>
      <trkpt lat="48.048940" lon="1.916510">
        <time>2017-06-24T15:08:56Z</time>
      </trkpt>
      <trkpt lat="48.048990" lon="1.916990">
        <time>2017-06-24T15:08:57Z</time>
      </trkpt>
      <trkpt lat="48.049040" lon="1.917490">
        <time>2017-06-24T15:08:58Z</time>
      </trkpt>
      <trkpt lat="48.049090" lon="1.917930">
        <time>2017-06-24T15:08:59Z</time>
      </trkpt>
      <trkpt lat="48.049140" lon="1.918430">
        <time>2017-06-24T15:09:00Z</time>
      </trkpt>
      <trkpt lat="48.049190" lon="1.918870">
        <time>2017-06-24T15:09:01Z</time>
      </trkpt>
      <trkpt lat="48.049230" lon="1.919340">
        <time>2017-06-24T15:09:02Z</time>
      </trkpt>
      <trkpt lat="48.049280" lon="1.919830">
        <time>2017-06-24T15:09:03Z</time>
      </trkpt>
      <trkpt lat="48.049330" lon="1.920270">
        <time>2017-06-24T15:09:04Z</time>
      </trkpt>
      <trkpt lat="48.049370" lon="1.920740">
        <time>2017-06-24T15:09:05Z</time>
      </trkpt>
      <trkpt lat="48.049430" lon="1.921200">
        <time>2017-06-24T15:09:06Z</time>
      </trkpt>
      <trkpt lat="48.049480" lon="1.921660">
        <time>2017-06-24T15:09:07Z</time>
      </trkpt>
      <trkpt lat="48.049550" lon="1.922160">
        <time>2017-06-24T15:09:08Z</time>
      </trkpt>
      <trkpt lat="48.049610" lon="1.922590">
        <time>2017-06-24T15:09:09Z</time>
      </trkpt>
      <trkpt lat="48.049680" lon="1.923060">
        <time>2017-06-24T15:09:10Z</time>
      </trkpt>
      <trkpt lat="48.049760" lon="1.923550">
        <time>2017-06-24T15:09:11Z</time>
      </trkpt>
      <trkpt lat="48.049840" lon="1.923990">
        <time>2017-06-24T15:09:12Z</time>
      </trkpt>
      <trkpt lat="48.049930" lon="1.924450">
        <time>2017-06-24T15:09:13Z</time>
      </trkpt>
      <trkpt lat="48.050020" lon="1.924950">
        <time>2017-06-24T15:09:14Z</time>
      </trkpt>
      <trkpt lat="48.050110" lon="1.925390">
        <time>2017-06-24T15:09:15Z</time>
      </trkpt>
      <trkpt lat="48.050210" lon="1.925890">
        <time>2017-06-24T15:09:16Z</time>
      </trkpt>
      <trkpt lat="48.050310" lon="1.926320">
        <time>2017-06-24T15:09:17Z</time>
      </trkpt>
      <trkpt lat="48.050420" lon="1.926780">
        <time>2017-06-24T15:09:18Z</time>
      </trkpt>
      <trkpt lat="48.050540" lon="1.927270">
        <time>2017-06-24T15:09:19Z</time>
      </trkpt>
      <trkpt lat="48.050650" lon="1.927700">
        <time>2017-06-24T15:09:20Z</time>
      </trkpt>
      <trkpt lat="48.050770" lon="1.928150">
        <time>2017-06-24T15:09:21Z</time>
      </trkpt>
      <trkpt lat="48.050900" lon="1.928600">
        <time>2017-06-24T15:09:22Z</time>
      </trkpt>
      <trkpt lat="48.051030" lon="1.929050">
        <time>2017-06-24T15:09:23Z</time>
      </trkpt>
      <trkpt lat="48.051160" lon="1.929530">
        <time>2017-06-24T15:09:24Z</time>
      </trkpt>
      <trkpt lat="48.051290" lon="1.929950">
        <time>2017-06-24T15:09:25Z</time>
      </trkpt>
      <trkpt lat="48.051430" lon="1.930400">
        <time>2017-06-24T15:09:26Z</time>
      </trkpt>
      <trkpt lat="48.051590" lon="1.930870">
        <time>2017-06-24T15:09:27Z</time>
      </trkpt>
      <trkpt lat="48.051730" lon="1.931280">
        <time>2017-06-24T15:09:28Z</time>
      </trkpt>
      <trkpt lat="48.051880" lon="1.931720">
        <time>2017-06-24T15:09:29Z</time>
      </trkpt>
      <trkpt lat="48.052050" lon="1.932180">
        <time>2017-06-24T15:09:30Z</time>
      </trkpt>
      <trkpt lat="48.052200" lon="1.932590">
        <time>2017-06-24T15:09:31Z</time>
      </trkpt>
      <trkpt lat="48.052380" lon="1.933050">
        <time>2017-06-24T15:09:32Z</time>
      </trkpt>
      <trkpt lat="48.052550" lon="1.933440">
        <time>2017-06-24T15:09:33Z</time>
      </trkpt>
      <trkpt lat="48.052730" lon="1.933860">
        <time>2017-06-24T15:09:34Z</time>
      </trkpt>
      <trkpt lat="48.052920" lon="1.934310">
        <time>2017-06-24T15:09:35Z</time>
      </trkpt>
      <trkpt lat="48.053100" lon="1.934700">
        <time>2017-06-24T15:09:36Z</time>
      </trkpt>
      <trkpt lat="48.053290" lon="1.935130">
        <time>2017-06-24T15:09:37Z</time>
      </trkpt>
      <trkpt lat="48.053490" lon="1.935540">
        <time>2017-06-24T15:09:38Z</time>
      </trkpt>
      <trkpt lat="48.053690" lon="1.935960">
        <time>2017-06-24T15:09:39Z</time>
      </trkpt>
      <trkpt lat="48.053900" lon="1.936390">
        <time>2017-06-24T15:09:40Z</time>
      </trkpt>
      <trkpt lat="48.054100" lon="1.936770">
        <time>2017-06-24T15:09:41Z</time>
      </trkpt>
      <trkpt lat="48.054310" lon="1.937170">
        <time>2017-06-24T15:09:42Z</time>
      </trkpt>
      <trkpt lat="48.054530" lon="1.937600">
        <time>2017-06-24T15:09:43Z</time>
      </trkpt>
      <trkpt lat="48.054730" lon="1.937970">
        <time>2017-06-24T15:09:44Z</time>
      </trkpt>
      <trkpt lat="48.054940" lon="1.938360">
        <time>2017-06-24T15:09:45Z</time>
      </trkpt>
      <trkpt lat="48.055170" lon="1.938760">
        <time>2017-06-24T15:09:46Z</time>
      </trkpt>
      <trkpt lat="48.055370" lon="1.939110">
        <time>2017-06-24T15:09:47Z</time>
      </trkpt>
      <trkpt lat="48.055610" lon="1.939510">
        <time>2017-06-24T15:09:48Z</time>
      </trkpt>
      <trkpt lat="48.055810" lon="1.939870">
        <time>2017-06-24T15:09:49Z</time>
      </trkpt>
      <trkpt lat="48.056020" lon="1.940240">
        <time>2017-06-24T15:09:50Z</time>
      </trkpt>
      <trkpt lat="48.056250" lon="1.940630">
        <time>2017-06-24T15:09:51Z</time>
      </trkpt>
      <trkpt lat="48.056450" lon="1.940980">
        <time>2017-06-24T15:09:52Z</time>
      </trkpt>
      <trkpt lat="48.056670" lon="1.941350">
        <time>2017-06-24T15:09:53Z</time>
      </trkpt>
      <trkpt lat="48.056880" lon="1.941730">
        <time>2017-06-24T15:09:54Z</time>
      </trkpt>
      <trkpt lat="48.057090" lon="1.942100">
        <time>2017-06-24T15:09:55Z</time>
      </trkpt>
      <trkpt lat="48.057320" lon="1.942500">
        <time>2017-06-24T15:09:56Z</time>
      </trkpt>
      <trkpt lat="48.057520" lon="1.942840">
        <time>2017-06-24T15:09:57Z</time>
      </trkpt>
      <trkpt lat="48.057730" lon="1.943210">
        <time>2017-06-24T15:09:58Z</time>
      </trkpt>
      <trkpt lat="48.057960" lon="1.943600">
        <time>2017-06-24T15:09:59Z</time>
      </trkpt>
      <trkpt lat="48.058160" lon="1.943940">
        <time>2017-06-24T15:10:00Z</time>
      </trkpt>
      <trkpt lat="48.058370" lon="1.944310">
        <time>2017-06-24T15:10:01Z</time>
      </trkpt>
      <trkpt lat="48.058590" lon="1.944700">
        <time>2017-06-24T15:10:02Z</time>
      </trkpt>
      <trkpt lat="48.058790" lon="1.945030">
        <time>2017-06-24T15:10:03Z</time>
      </trkpt>
      <trkpt lat="48.059010" lon="1.945420">
        <time>2017-06-24T15:10:04Z</time>
      </trkpt>
      <trkpt lat="48.059200" lon="1.945760">
        <time>2017-06-24T15:10:05Z</time>
      </trkpt>
      <trkpt lat="48.059410" lon="1.946120">
        <time>2017-06-24T15:10:06Z</time>
      </trkpt>
      <trkpt lat="48.059630" lon="1.946500">
        <time>2017-06-24T15:10:07Z</time>
      </trkpt>
      <trkpt lat="48.059820" lon="1.946840">
        <time>2017-06-24T15:10:08Z</time>
      </trkpt>
      <trkpt lat="48.060030" lon="1.947190">
        <time>2017-06-24T15:10:09Z</time>
      </trkpt>
      <trkpt lat="48.060240" lon="1.947550">
        <time>2017-06-24T15:10:10Z</time>
      </trkpt>
      <trkpt lat="48.060450" lon="1.947900">
        <time>2017-06-24T15:10:11Z</time>
      </trkpt>
      <trkpt lat="48.060670" lon="1.948280">
        <time>2017-06-24T15:10:12Z</time>
      </trkpt>
      <trkpt lat="48.060870" lon="1.948620">
        <time>2017-06-24T15:10:13Z</time>
      </trkpt>
      <trkpt lat="48.061080" lon="1.948990">
        <time>2017-06-24T15:10:14Z</time>
      </trkpt>
      <trkpt lat="48.061300" lon="1.949380">
        <time>2017-06-24T15:10:15Z</time>
      </trkpt>
      <trkpt lat="48.061500" lon="1.949730">
        <time>2017-06-24T15:10:16Z</time>
      </trkpt>
      <trkpt lat="48.061710" lon="1.950100">
        <time>2017-06-24T15:10:17Z</time>
      </trkpt>
      <trkpt lat="48.061940" lon="1.950490">
        <time>2017-06-24T15:10:18Z</time>
      </trkpt>
      <trkpt lat="48.062150" lon="1.950840">
        <time>2017-06-24T15:10:19Z</time>
      </trkpt>
      <trkpt lat="48.062380" lon="1.951240">
        <time>2017-06-24T15:10:20Z</time>
      </trkpt>
      <trkpt lat="48.062600" lon="1.951590">
        <time>2017-06-24T15:10:21Z</time>
      </trkpt>
      <trkpt lat="48.062820" lon="1.951960">
        <time>2017-06-24T15:10:22Z</time>
      </trkpt>
      <trkpt lat="48.063050" lon="1.952360">
        <time>2017-06-24T15:10:23Z</time>
      </trkpt>
      <trkpt lat="48.063260" lon="1.952710">
        <time>2017-06-24T15:10:24Z</time>
      </trkpt>
      <trkpt lat="48.063480" lon="1.953100">
        <time>2017-06-24T15:10:25Z</time>
      </trkpt>
      <trkpt lat="48.063700" lon="1.953470">
        <time>2017-06-24T15:10:26Z</time>
      </trkpt>
      <trkpt lat="48.063910" lon="1.953850">
        <time>2017-06-24T15:10:27Z</time>
      </trkpt>
      <trkpt lat="48.064140" lon="1.954250">
        <time>2017-06-24T15:10:28Z</time>
      </trkpt>
      <trkpt lat="48.064330" lon="1.954600">
        <time>2017-06-24T15:10:29Z</time>
      </trkpt>
      <trkpt lat="48.064540" lon="1.954970">
        <time>2017-06-24T15:10:30Z</time>
      </trkpt>
      <trkpt lat="48.064760" lon="1.955360">
        <time>2017-06-24T15:10:31Z</time>
      </trkpt>
      <trkpt lat="48.064960" lon="1.955710">
        <time>2017-06-24T15:10:32Z</time>
      </trkpt>
      <trkpt lat="48.065170" lon="1.956070">
        <time>2017-06-24T15:10:33Z</time>
      </trkpt>
      <trkpt lat="48.065390" lon="1.956460">
        <time>2017-06-24T15:10:34Z</time>
      </trkpt>
      <trkpt lat="48.065590" lon="1.956790">
        <time>2017-06-24T15:10:35Z</time>
      </trkpt>
      <trkpt lat="48.065800" lon="1.957180">
        <time>2017-06-24T15:10:36Z</time>
      </trkpt>
      <trkpt lat="48.066000" lon="1.957510">
        <time>2017-06-24T15:10:37Z</time>
      </trkpt>
      <trkpt lat="48.066200" lon="1.957870">
        <time>2017-06-24T15:10:38Z</time>
      </trkpt>
      <trkpt lat="48.066420" lon="1.958260">
        <time>2017-06-24T15:10:39Z</time>
      </trkpt>
      <trkpt lat="48.066620" lon="1.958600">
        <time>2017-06-24T15:10:40Z</time>
      </trkpt>
      <trkpt lat="48.066830" lon="1.958960">
        <time>2017-06-24T15:10:41Z</time>
      </trkpt>
      <trkpt lat="48.067040" lon="1.959320">
        <time>2017-06-24T15:10:42Z</time>
      </trkpt>
      <trkpt lat="48.067250" lon="1.959690">
        <time>2017-06-24T15:10:43Z</time>
      </trkpt>
      <trkpt lat="48.067470" lon="1.960070">
        <time>2017-06-24T15:10:44Z</time>
      </trkpt>
      <trkpt lat="48.067660" lon="1.960410">
        <time>2017-06-24T15:10:45Z</time>
      </trkpt>
      <trkpt lat="48.067870" lon="1.960780">
        <time>2017-06-24T15:10:46Z</time>
      </trkpt>
      <trkpt lat="48.068100" lon="1.961170">
        <time>2017-06-24T15:10:47Z</time>
      </trkpt>
      <trkpt lat="48.068290" lon="1.961520">
        <time>2017-06-24T15:10:48Z</time>
      </trkpt>
      <trkpt lat="48.068510" lon="1.961890">
        <time>2017-06-24T15:10:49Z</time>
      </trkpt>
      <trkpt lat="48.068730" lon="1.962270">
        <time>2017-06-24T15:10:50Z</time>
      </trkpt>
      <trkpt lat="48.068930" lon="1.962610">
        <time>2017-06-24T15:10:51Z</time>
      </trkpt>
      <trkpt lat="48.069160" lon="1.963000">
        <time>2017-06-24T15:10:52Z</time>
      </trkpt>
      <trkpt lat="48.069360" lon="1.963340">
        <time>2017-06-24T15:10:53Z</time>
      </trkpt>
      <trkpt lat="48.069570" lon="1.963710">
        <time>2017-06-24T15:10:54Z</time>
      </trkpt>
      <trkpt lat="48.069790" lon="1.964110">
        <time>2017-06-24T15:10:55Z</time>
      </trkpt>
      <trkpt lat="48.069990" lon="1.964450">
        <time>2017-06-24T15:10:56Z</time>
      </trkpt>
      <trkpt lat="48.070200" lon="1.964820">
        <time>2017-06-24T15:10:57Z</time>
      </trkpt>
      <trkpt lat="48.070410" lon="1.965190">
        <time>2017-06-24T15:10:58Z</time>
      </trkpt>
      <trkpt lat="48.070620" lon="1.965550">
        <time>2017-06-24T15:10:59Z</time>
      </trkpt>
      <trkpt lat="48.070840" lon="1.965930">
        <time>2017-06-24T15:11:00Z</time>
      </trkpt>
      <trkpt lat="48.071030" lon="1.966280">
        <time>2017-06-24T15:11:01Z</time>
      </trkpt>
      <trkpt lat="48.071240" lon="1.966640">
        <time>2017-06-24T15:11:02Z</time>
      </trkpt>
      <trkpt lat="48.071460" lon="1.967030">
        <time>2017-06-24T15:11:03Z</time>
      </trkpt>
      <trkpt lat="48.071660" lon="1.967370">
        <time>2017-06-24T15:11:04Z</time>
      </trkpt>
      <trkpt lat="48.071860" lon="1.967730">
        <time>2017-06-24T15:11:05Z</time>
      </trkpt>
      <trkpt lat="48.072080" lon="1.968120">
        <time>2017-06-24T15:11:06Z</time>
      </trkpt>
      <trkpt lat="48.072260" lon="1.968460">
        <time>2017-06-24T15:11:07Z</time>
      </trkpt>
      <trkpt lat="48.072470" lon="1.968840">
        <time>2017-06-24T15:11:08Z</time>
      </trkpt>
      <trkpt lat="48.072660" lon="1.969180">
        <time>2017-06-24T15:11:09Z</time>
      </trkpt>
      <trkpt lat="48.072850" lon="1.969540">
        <time>2017-06-24T15:11:10Z</time>
      </trkpt>
      <trkpt lat="48.073060" lon="1.969920">
        <time>2017-06-24T15:11:11Z</time>
      </trkpt>
      <trkpt lat="48.073240" lon="1.970240">
        <time>2017-06-24T15:11:12Z</time>
      </trkpt>
      <trkpt lat="48.073430" lon="1.970600">
        <time>2017-06-24T15:11:13Z</time>
      </trkpt>
      <trkpt lat="48.073620" lon="1.970950">
        <time>2017-06-24T15:11:14Z</time>
      </trkpt>
      <trkpt lat="48.073810" lon="1.971310">
        <time>2017-06-24T15:11:15Z</time>
      </trkpt>
      <trkpt lat="48.074000" lon="1.971680">
        <time>2017-06-24T15:11:16Z</time>
      </trkpt>
      <trkpt lat="48.074180" lon="1.972010">
        <time>2017-06-24T15:11:17Z</time>
      </trkpt>
      <trkpt lat="48.074360" lon="1.972360">
        <time>2017-06-24T15:11:18Z</time>
      </trkpt>
      <trkpt lat="48.074550" lon="1.972740">
        <time>2017-06-24T15:11:19Z</time>
      </trkpt>
      <trkpt lat="48.074720" lon="1.973070">
        <time>2017-06-24T15:11:20Z</time>
      </trkpt>
      <trkpt lat="48.074900" lon="1.973420">
        <time>2017-06-24T15:11:21Z</time>
      </trkpt>
      <trkpt lat="48.075080" lon="1.973790">
        <time>2017-06-24T15:11:22Z</time>
      </trkpt>
      <trkpt lat="48.075240" lon="1.974120">
        <time>2017-06-24T15:11:23Z</time>
      </trkpt>
      <trkpt lat="48.075430" lon="1.974500">
        <time>2017-06-24T15:11:24Z</time>
      </trkpt>
      <trkpt lat="48.075590" lon="1.974820">
        <time>2017-06-24T15:11:25Z</time>
      </trkpt>
      <trkpt lat="48.075770" lon="1.975170">
        <time>2017-06-24T15:11:26Z</time>
      </trkpt>
      <trkpt lat="48.075950" lon="1.975550">
        <time>2017-06-24T15:11:27Z</time>
      </trkpt>
      <trkpt lat="48.076110" lon="1.975880">
        <time>2017-06-24T15:11:28Z</time>
      </trkpt>
      <trkpt lat="48.076270" lon="1.976230">
        <time>2017-06-24T15:11:29Z</time>
      </trkpt>
      <trkpt lat="48.076440" lon="1.976590">
        <time>2017-06-24T15:11:30Z</time>
      </trkpt>
      <trkpt lat="48.076610" lon="1.976950">
        <time>2017-06-24T15:11:31Z</time>
      </trkpt>
      <trkpt lat="48.076780" lon="1.977330">
        <time>2017-06-24T15:11:32Z</time>
      </trkpt>
      <trkpt lat="48.076930" lon="1.977680">
        <time>2017-06-24T15:11:33Z</time>
      </trkpt>
      <trkpt lat="48.077100" lon="1.978040">
        <time>2017-06-24T15:11:34Z</time>
      </trkpt>
      <trkpt lat="48.077290" lon="1.978440">
        <time>2017-06-24T15:11:35Z</time>
      </trkpt>
      <trkpt lat="48.077450" lon="1.978780">
        <time>2017-06-24T15:11:36Z</time>
      </trkpt>
      <trkpt lat="48.077620" lon="1.979150">
        <time>2017-06-24T15:11:37Z</time>
      </trkpt>
      <trkpt lat="48.077800" lon="1.979550">
        <time>2017-06-24T15:11:38Z</time>
      </trkpt>
      <trkpt lat="48.077960" lon="1.979900">
        <time>2017-06-24T15:11:39Z</time>
      </trkpt>
      <trkpt lat="48.078140" lon="1.980310">
        <time>2017-06-24T15:11:40Z</time>
      </trkpt>
      <trkpt lat="48.078300" lon="1.980670">
        <time>2017-06-24T15:11:41Z</time>
      </trkpt>
      <trkpt lat="48.078470" lon="1.981070">
        <time>2017-06-24T15:11:42Z</time>
      </trkpt>
      <trkpt lat="48.078650" lon="1.981490">
        <time>2017-06-24T15:11:43Z</time>
      </trkpt>
      <trkpt lat="48.078810" lon="1.981860">
        <time>2017-06-24T15:11:44Z</time>
      </trkpt>
      <trkpt lat="48.078980" lon="1.982270">
        <time>2017-06-24T15:11:45Z</time>
      </trkpt>
      <trkpt lat="48.079150" lon="1.982680">
        <time>2017-06-24T15:11:46Z</time>
      </trkpt>
      <trkpt lat="48.079330" lon="1.983080">
        <time>2017-06-24T15:11:47Z</time>
      </trkpt>
      <trkpt lat="48.079510" lon="1.983520">
        <time>2017-06-24T15:11:48Z</time>
      </trkpt>
      <trkpt lat="48.079670" lon="1.983910">
        <time>2017-06-24T15:11:49Z</time>
      </trkpt>
      <trkpt lat="48.079840" lon="1.984330">
        <time>2017-06-24T15:11:50Z</time>
      </trkpt>
      <trkpt lat="48.080030" lon="1.984770">
        <time>2017-06-24T15:11:51Z</time>
      </trkpt>
      <trkpt lat="48.080190" lon="1.985150">
        <time>2017-06-24T15:11:52Z</time>
      </trkpt>
      <trkpt lat="48.080360" lon="1.985550">
        <time>2017-06-24T15:11:53Z</time>
      </trkpt>
      <trkpt lat="48.080550" lon="1.985980">
        <time>2017-06-24T15:11:54Z</time>
      </trkpt>
      <trkpt lat="48.080700" lon="1.986370">
        <time>2017-06-24T15:11:55Z</time>
      </trkpt>
      <trkpt lat="48.080890" lon="1.986800">
        <time>2017-06-24T15:11:56Z</time>
      </trkpt>
      <trkpt lat="48.081040" lon="1.987180">
        <time>2017-06-24T15:11:57Z</time>
      </trkpt>
      <trkpt lat="48.081210" lon="1.987580">
        <time>2017-06-24T15:11:58Z</time>
      </trkpt>
      <trkpt lat="48.081390" lon="1.988010">
        <time>2017-06-24T15:11:59Z</time>
      </trkpt>
      <trkpt lat="48.081550" lon="1.988390">
        <time>2017-06-24T15:12:00Z</time>
      </trkpt>
      <trkpt lat="48.081730" lon="1.988800">
        <time>2017-06-24T15:12:01Z</time>
      </trkpt>
      <trkpt lat="48.081900" lon="1.989210">
        <time>2017-06-24T15:12:02Z</time>
      </trkpt>
      <trkpt lat="48.082080" lon="1.989620">
        <time>2017-06-24T15:12:03Z</time>
      </trkpt>
      <trkpt lat="48.082270" lon="1.990060">
        <time>2017-06-24T15:12:04Z</time>
      </trkpt>
      <trkpt lat="48.082430" lon="1.990450">
        <time>2017-06-24T15:12:05Z</time>
      </trkpt>
      <trkpt lat="48.082600" lon="1.990860">
        <time>2017-06-24T15:12:06Z</time>
      </trkpt>
      <trkpt lat="48.082790" lon="1.991300">
        <time>2017-06-24T15:12:07Z</time>
      </trkpt>
      <trkpt lat="48.082950" lon="1.991690">
        <time>2017-06-24T15:12:08Z</time>
      </trkpt>
      <trkpt lat="48.083130" lon="1.992100">
        <time>2017-06-24T15:12:09Z</time>
      </trkpt>
      <trkpt lat="48.083310" lon="1.992550">
        <time>2017-06-24T15:12:10Z</time>
      </trkpt>
      <trkpt lat="48.083480" lon="1.992940">
        <time>2017-06-24T15:12:11Z</time>
      </trkpt>
      <trkpt lat="48.083670" lon="1.993390">
        <time>2017-06-24T15:12:12Z</time>
      </trkpt>
      <trkpt lat="48.083830" lon="1.993790">
        <time>2017-06-24T15:12:13Z</time>
      </trkpt>
      <trkpt lat="48.084010" lon="1.994220">
        <time>2017-06-24T15:12:14Z</time>
      </trkpt>
      <trkpt lat="48.084200" lon="1.994670">
        <time>2017-06-24T15:12:15Z</time>
      </trkpt>
      <trkpt lat="48.084370" lon="1.995060">
        <time>2017-06-24T15:12:16Z</time>
      </trkpt>
      <trkpt lat="48.084550" lon="1.995490">
        <time>2017-06-24T15:12:17Z</time>
      </trkpt>
      <trkpt lat="48.084730" lon="1.995920">
        <time>2017-06-24T15:12:18Z</time>
      </trkpt>
      <trkpt lat="48.084910" lon="1.996330">
        <time>2017-06-24T15:12:19Z</time>
      </trkpt>
      <trkpt lat="48.085100" lon="1.996780">
        <time>2017-06-24T15:12:20Z</time>
      </trkpt>
      <trkpt lat="48.085270" lon="1.997170">
        <time>2017-06-24T15:12:21Z</time>
      </trkpt>
      <trkpt lat="48.085440" lon="1.997590">
        <time>2017-06-24T15:12:22Z</time>
      </trkpt>
      <trkpt lat="48.085630" lon="1.998040">
        <time>2017-06-24T15:12:23Z</time>
      </trkpt>
      <trkpt lat="48.085800" lon="1.998440">
        <time>2017-06-24T15:12:24Z</time>
      </trkpt>
      <trkpt lat="48.085970" lon="1.998860">
        <time>2017-06-24T15:12:25Z</time>
      </trkpt>
      <trkpt lat="48.086160" lon="1.999300">
        <time>2017-06-24T15:12:26Z</time>
      </trkpt>
      <trkpt lat="48.086330" lon="1.999690">
        <time>2017-06-24T15:12:27Z</time>
      </trkpt>
      <trkpt lat="48.086510" lon="2.000130">
        <time>2017-06-24T15:12:28Z</time>
      </trkpt>
      <trkpt lat="48.086680" lon="2.000510">
        <time>2017-06-24T15:12:29Z</time>
      </trkpt>
      <trkpt lat="48.086850" lon="2.000930">
        <time>2017-06-24T15:12:30Z</time>
      </trkpt>
      <trkpt lat="48.087030" lon="2.001370">
        <time>2017-06-24T15:12:31Z</time>
      </trkpt>
      <trkpt lat="48.087200" lon="2.001750">
        <time>2017-06-24T15:12:32Z</time>
      </trkpt>
      <trkpt lat="48.087370" lon="2.002160">
        <time>2017-06-24T15:12:33Z</time>
      </trkpt>
      <trkpt lat="48.087550" lon="2.002580">
        <time>2017-06-24T15:12:34Z</time>
      </trkpt>
      <trkpt lat="48.087720" lon="2.002990">
        <time>2017-06-24T15:12:35Z</time>
      </trkpt>
      <trkpt lat="48.087910" lon="2.003440">
        <time>2017-06-24T15:12:36Z</time>
      </trkpt>
      <trkpt lat="48.088070" lon="2.003830">
        <time>2017-06-24T15:12:37Z</time>
      </trkpt>
      <trkpt lat="48.088250" lon="2.004250">
        <time>2017-06-24T15:12:38Z</time>
      </trkpt>
      <trkpt lat="48.088430" lon="2.004710">
        <time>2017-06-24T15:12:39Z</time>
      </trkpt>
      <trkpt lat="48.088600" lon="2.005100">
        <time>2017-06-24T15:12:40Z</time>
      </trkpt>
      <trkpt lat="48.088780" lon="2.005520">
        <time>2017-06-24T15:12:41Z</time>
      </trkpt>
      <trkpt lat="48.088970" lon="2.005970">
        <time>2017-06-24T15:12:42Z</time>
      </trkpt>
      <trkpt lat="48.089140" lon="2.006360">
        <time>2017-06-24T15:12:43Z</time>
      </trkpt>
      <trkpt lat="48.089330" lon="2.006810">
        <time>2017-06-24T15:12:44Z</time>
      </trkpt>
      <trkpt lat="48.089490" lon="2.007200">
        <time>2017-06-24T15:12:45Z</time>
      </trkpt>
      <trkpt lat="48.089670" lon="2.007620">
        <time>2017-06-24T15:12:46Z</time>
      </trkpt>
      <trkpt lat="48.089860" lon="2.008070">
        <time>2017-06-24T15:12:47Z</time>
      </trkpt>
      <trkpt lat="48.090030" lon="2.008460">
        <time>2017-06-24T15:12:48Z</time>
      </trkpt>
      <trkpt lat="48.090200" lon="2.008870">
        <time>2017-06-24T15:12:49Z</time>
      </trkpt>
      <trkpt lat="48.090370" lon="2.009280">
        <time>2017-06-24T15:12:50Z</time>
      </trkpt>
      <trkpt lat="48.090540" lon="2.009690">
        <time>2017-06-24T15:12:51Z</time>
      </trkpt>
      <trkpt lat="48.090730" lon="2.010130">
        <time>2017-06-24T15:12:52Z</time>
      </trkpt>
      <trkpt lat="48.090890" lon="2.010510">
        <time>2017-06-24T15:12:53Z</time>
      </trkpt>
      <trkpt lat="48.091060" lon="2.010930">
        <time>2017-06-24T15:12:54Z</time>
      </trkpt>
      <trkpt lat="48.091240" lon="2.011360">
        <time>2017-06-24T15:12:55Z</time>
      </trkpt>
      <trkpt lat="48.091400" lon="2.011750">
        <time>2017-06-24T15:12:56Z</time>
      </trkpt>
      <trkpt lat="48.091580" lon="2.012150">
        <time>2017-06-24T15:12:57Z</time>
      </trkpt>
      <trkpt lat="48.091760" lon="2.012580">
        <time>2017-06-24T15:12:58Z</time>
      </trkpt>
      <trkpt lat="48.091920" lon="2.012960">
        <time>2017-06-24T15:12:59Z</time>
      </trkpt>
      <trkpt lat="48.092100" lon="2.013380">
        <time>2017-06-24T15:13:00Z</time>
      </trkpt>
      <trkpt lat="48.092250" lon="2.013760">
        <time>2017-06-24T15:13:01Z</time>
      </trkpt>
      <trkpt lat="48.092420" lon="2.014160">
        <time>2017-06-24T15:13:02Z</time>
      </trkpt>
      <trkpt lat="48.092600" lon="2.014580">
        <time>2017-06-24T15:13:03Z</time>
      </trkpt>
      <trkpt lat="48.092750" lon="2.014960">
        <time>2017-06-24T15:13:04Z</time>
      </trkpt>
      <trkpt lat="48.092920" lon="2.015350">
        <time>2017-06-24T15:13:05Z</time>
      </trkpt>
      <trkpt lat="48.093090" lon="2.015750">
        <time>2017-06-24T15:13:06Z</time>
      </trkpt>
      <trkpt lat="48.093250" lon="2.016150">
        <time>2017-06-24T15:13:07Z</time>
      </trkpt>
      <trkpt lat="48.093430" lon="2.016570">
        <time>2017-06-24T15:13:08Z</time>
      </trkpt>
      <trkpt lat="48.093590" lon="2.016940">
        <time>2017-06-24T15:13:09Z</time>
      </trkpt>
      <trkpt lat="48.093760" lon="2.017330">
        <time>2017-06-24T15:13:10Z</time>
      </trkpt>
      <trkpt lat="48.093940" lon="2.017760">
        <time>2017-06-24T15:13:11Z</time>
      </trkpt>
      <trkpt lat="48.094090" lon="2.018130">
        <time>2017-06-24T15:13:12Z</time>
      </trkpt>
      <trkpt lat="48.094260" lon="2.018530">
        <time>2017-06-24T15:13:13Z</time>
      </trkpt>
      <trkpt lat="48.094440" lon="2.018950">
        <time>2017-06-24T15:13:14Z</time>
      </trkpt>
      <trkpt lat="48.094600" lon="2.019330">
        <time>2017-06-24T15:13:15Z</time>
      </trkpt>
      <trkpt lat="48.094780" lon="2.019750">
        <time>2017-06-24T15:13:16Z</time>
      </trkpt>
      <trkpt lat="48.094930" lon="2.020140">
        <time>2017-06-24T15:13:17Z</time>
      </trkpt>
      <trkpt lat="48.095100" lon="2.020530">
        <time>2017-06-24T15:13:18Z</time>
      </trkpt>
      <trkpt lat="48.095270" lon="2.020950">
        <time>2017-06-24T15:13:19Z</time>
      </trkpt>
      <trkpt lat="48.095430" lon="2.021320">
        <time>2017-06-24T15:13:20Z</time>
      </trkpt>
      <trkpt lat="48.095600" lon="2.021720">
        <time>2017-06-24T15:13:21Z</time>
      </trkpt>
      <trkpt lat="48.095760" lon="2.022120">
        <time>2017-06-24T15:13:22Z</time>
      </trkpt>
      <trkpt lat="48.095930" lon="2.022530">
        <time>2017-06-24T15:13:23Z</time>
      </trkpt>
      <trkpt lat="48.096100" lon="2.022970">
        <time>2017-06-24T15:13:24Z</time>
      </trkpt>
      <trkpt lat="48.096250" lon="2.023350">
        <time>2017-06-24T15:13:25Z</time>
      </trkpt>
      <trkpt lat="48.096400" lon="2.023770">
        <time>2017-06-24T15:13:26Z</time>
      </trkpt>
      <trkpt lat="48.096560" lon="2.024210">
        <time>2017-06-24T15:13:27Z</time>
      </trkpt>
      <trkpt lat="48.096700" lon="2.024600">
        <time>2017-06-24T15:13:28Z</time>
      </trkpt>
      <trkpt lat="48.096840" lon="2.025030">
        <time>2017-06-24T15:13:29Z</time>
      </trkpt>
      <trkpt lat="48.096980" lon="2.025480">
        <time>2017-06-24T15:13:30Z</time>
      </trkpt>
      <trkpt lat="48.097100" lon="2.025880">
        <time>2017-06-24T15:13:31Z</time>
      </trkpt>
      <trkpt lat="48.097240" lon="2.026340">
        <time>2017-06-24T15:13:32Z</time>
      </trkpt>
      <trkpt lat="48.097360" lon="2.026750">
        <time>2017-06-24T15:13:33Z</time>
      </trkpt>
      <trkpt lat="48.097480" lon="2.027190">
        <time>2017-06-24T15:13:34Z</time>
      </trkpt>
      <trkpt lat="48.097600" lon="2.027640">
        <time>2017-06-24T15:13:35Z</time>
      </trkpt>
      <trkpt lat="48.097700" lon="2.028040">
        <time>2017-06-24T15:13:36Z</time>
      </trkpt>
      <trkpt lat="48.097800" lon="2.028460">
        <time>2017-06-24T15:13:37Z</time>
      </trkpt>
      <trkpt lat="48.097900" lon="2.028870">
        <time>2017-06-24T15:13:38Z</time>
      </trkpt>
      <trkpt lat="48.098000" lon="2.029280">
        <time>2017-06-24T15:13:39Z</time>
      </trkpt>
      <trkpt lat="48.098100" lon="2.029730">
        <time>2017-06-24T15:13:40Z</time>
      </trkpt>
      <trkpt lat="48.098190" lon="2.030110">
        <time>2017-06-24T15:13:41Z</time>
      </trkpt>
      <trkpt lat="48.098270" lon="2.030530">
        <time>2017-06-24T15:13:42Z</time>
      </trkpt>
      <trkpt lat="48.098360" lon="2.030970">
        <time>2017-06-24T15:13:43Z</time>
      </trkpt>
      <trkpt lat="48.098420" lon="2.031370">
        <time>2017-06-24T15:13:44Z</time>
      </trkpt>
      <trkpt lat="48.098500" lon="2.031800">
        <time>2017-06-24T15:13:45Z</time>
      </trkpt>
      <trkpt lat="48.098570" lon="2.032260">
        <time>2017-06-24T15:13:46Z</time>
      </trkpt>
      <trkpt lat="48.098640" lon="2.032680">
        <time>2017-06-24T15:13:47Z</time>
      </trkpt>
      <trkpt lat="48.098710" lon="2.033170">
        <time>2017-06-24T15:13:48Z</time>
      </trkpt>
      <trkpt lat="48.098780" lon="2.033600">
        <time>2017-06-24T15:13:49Z</time>
      </trkpt>
      <trkpt lat="48.098840" lon="2.034060">
        <time>2017-06-24T15:13:50Z</time>
      </trkpt>
      <trkpt lat="48.098900" lon="2.034560">
        <time>2017-06-24T15:13:51Z</time>
      </trkpt>
      <trkpt lat="48.098950" lon="2.035000">
        <time>2017-06-24T15:13:52Z</time>
      </trkpt>
      <trkpt lat="48.098990" lon="2.035480">
        <time>2017-06-24T15:13:53Z</time>
      </trkpt>
      <trkpt lat="48.099040" lon="2.035960">
        <time>2017-06-24T15:13:54Z</time>
      </trkpt>
      <trkpt lat="48.099080" lon="2.036440">
        <time>2017-06-24T15:13:55Z</time>
      </trkpt>
      <trkpt lat="48.099120" lon="2.036970">
        <time>2017-06-24T15:13:56Z</time>
      </trkpt>
      <trkpt lat="48.099150" lon="2.037420">
        <time>2017-06-24T15:13:57Z</time>
      </trkpt>
      <trkpt lat="48.099180" lon="2.037910">
        <time>2017-06-24T15:13:58Z</time>
      </trkpt>
      <trkpt lat="48.099210" lon="2.038440">
        <time>2017-06-24T15:13:59Z</time>
      </trkpt>
      <trkpt lat="48.099220" lon="2.038900">
        <time>2017-06-24T15:14:00Z</time>
      </trkpt>
      <trkpt lat="48.099240" lon="2.039400">
        <time>2017-06-24T15:14:01Z</time>
      </trkpt>
      <trkpt lat="48.099250" lon="2.039920">
        <time>2017-06-24T15:14:02Z</time>
      </trkpt>
      <trkpt lat="48.099260" lon="2.040390">
        <time>2017-06-24T15:14:03Z</time>
      </trkpt>
      <trkpt lat="48.099260" lon="2.040910">
        <time>2017-06-24T15:14:04Z</time>
      </trkpt>
      <trkpt lat="48.099260" lon="2.041370">
        <time>2017-06-24T15:14:05Z</time>
      </trkpt>
      <trkpt lat="48.099250" lon="2.041860">
        <time>2017-06-24T15:14:06Z</time>
      </trkpt>
      <trkpt lat="48.099250" lon="2.042380">
        <time>2017-06-24T15:14:07Z</time>
      </trkpt>
      <trkpt lat="48.099240" lon="2.042840">
        <time>2017-06-24T15:14:08Z</time>
      </trkpt>
      <trkpt lat="48.099240" lon="2.043340">
        <time>2017-06-24T15:14:09Z</time>
      </trkpt>
      <trkpt lat="48.099230" lon="2.043840">
        <time>2017-06-24T15:14:10Z</time>
      </trkpt>
      <trkpt lat="48.099220" lon="2.044340">
        <time>2017-06-24T15:14:11Z</time>
      </trkpt>
      <trkpt lat="48.099220" lon="2.044880">
        <time>2017-06-24T15:14:12Z</time>
      </trkpt>
      <trkpt lat="48.099210" lon="2.045340">
        <time>2017-06-24T15:14:13Z</time>
      </trkpt>
      <trkpt lat="48.099200" lon="2.045850">
        <time>2017-06-24T15:14:14Z</time>
      </trkpt>
      <trkpt lat="48.099200" lon="2.046390">
        <time>2017-06-24T15:14:15Z</time>
      </trkpt>
      <trkpt lat="48.099190" lon="2.046860">
        <time>2017-06-24T15:14:16Z</time>
      </trkpt>
      <trkpt lat="48.099180" lon="2.047370">
        <time>2017-06-24T15:14:17Z</time>
      </trkpt>
      <trkpt lat="48.099180" lon="2.047920">
        <time>2017-06-24T15:14:18Z</time>
      </trkpt>
      <trkpt lat="48.099180" lon="2.048400">
        <time>2017-06-24T15:14:19Z</time>
      </trkpt>
      <trkpt lat="48.099170" lon="2.048940">
        <time>2017-06-24T15:14:20Z</time>
      </trkpt>
      <trkpt lat="48.099170" lon="2.049420">
        <time>2017-06-24T15:14:21Z</time>
      </trkpt>
      <trkpt lat="48.099160" lon="2.049920">
        <time>2017-06-24T15:14:22Z</time>
      </trkpt>
      <trkpt lat="48.099150" lon="2.050450">
        <time>2017-06-24T15:14:23Z</time>
      </trkpt>
      <trkpt lat="48.099150" lon="2.050920">
        <time>2017-06-24T15:14:24Z</time>
      </trkpt>
      <trkpt lat="48.099140" lon="2.051420">
        <time>2017-06-24T15:14:25Z</time>
      </trkpt>
      <trkpt lat="48.099130" lon="2.051920">
        <time>2017-06-24T15:14:26Z</time>
      </trkpt>
      <trkpt lat="48.099130" lon="2.052420">
        <time>2017-06-24T15:14:27Z</time>
      </trkpt>
      <trkpt lat="48.099120" lon="2.052940">
        <time>2017-06-24T15:14:28Z</time>
      </trkpt>
      <trkpt lat="48.099120" lon="2.053410">
        <time>2017-06-24T15:14:29Z</time>
      </trkpt>
      <trkpt lat="48.099110" lon="2.053910">
        <time>2017-06-24T15:14:30Z</time>
      </trkpt>
      <trkpt lat="48.099100" lon="2.054430">
        <time>2017-06-24T15:14:31Z</time>
      </trkpt>
      <trkpt lat="48.099090" lon="2.054900">
        <time>2017-06-24T15:14:32Z</time>
      </trkpt>
      <trkpt lat="48.099080" lon="2.055400">
        <time>2017-06-24T15:14:33Z</time>
      </trkpt>
      <trkpt lat="48.099080" lon="2.055930">
        <time>2017-06-24T15:14:34Z</time>
      </trkpt>
      <trkpt lat="48.099070" lon="2.056390">
        <time>2017-06-24T15:14:35Z</time>
      </trkpt>
      <trkpt lat="48.099060" lon="2.056920">
        <time>2017-06-24T15:14:36Z</time>
      </trkpt>
      <trkpt lat="48.099030" lon="2.057380">
        <time>2017-06-24T15:14:37Z</time>
      </trkpt>
      <trkpt lat="48.099000" lon="2.057880">
        <time>2017-06-24T15:14:38Z</time>
      </trkpt>
      <trkpt lat="48.098970" lon="2.058400">
        <time>2017-06-24T15:14:39Z</time>
      </trkpt>
      <trkpt lat="48.098930" lon="2.058870">
        <time>2017-06-24T15:14:40Z</time>
      </trkpt>
      <trkpt lat="48.098890" lon="2.059370">
        <time>2017-06-24T15:14:41Z</time>
      </trkpt>
      <trkpt lat="48.098830" lon="2.059860">
        <time>2017-06-24T15:14:42Z</time>
      </trkpt>
      <trkpt lat="48.098780" lon="2.060360">
        <time>2017-06-24T15:14:43Z</time>
      </trkpt>
      <trkpt lat="48.098710" lon="2.060890">
        <time>2017-06-24T15:14:44Z</time>
      </trkpt>
      <trkpt lat="48.098650" lon="2.061350">
        <time>2017-06-24T15:14:45Z</time>
      </trkpt>
      <trkpt lat="48.098570" lon="2.061850">
        <time>2017-06-24T15:14:46Z</time>
      </trkpt>
      <trkpt lat="48.098480" lon="2.062370">
        <time>2017-06-24T15:14:47Z</time>
      </trkpt>
      <trkpt lat="48.098400" lon="2.062810">
        <time>2017-06-24T15:14:48Z</time>
      </trkpt>
      <trkpt lat="48.098310" lon="2.063300">
        <time>2017-06-24T15:14:49Z</time>
      </trkpt>
      <trkpt lat="48.098200" lon="2.063810">
        <time>2017-06-24T15:14:50Z</time>
      </trkpt>
      <trkpt lat="48.098090" lon="2.064270">
        <time>2017-06-24T15:14:51Z</time>
      </trkpt>
      <trkpt lat="48.097970" lon="2.064770">
        <time>2017-06-24T15:14:52Z</time>
      </trkpt>
      <trkpt lat="48.097860" lon="2.065220">
        <time>2017-06-24T15:14:53Z</time>
      </trkpt>
      <trkpt lat="48.097730" lon="2.065700">
        <time>2017-06-24T15:14:54Z</time>
      </trkpt>
      <trkpt lat="48.097590" lon="2.066210">
        <time>2017-06-24T15:14:55Z</time>
      </trkpt>
      <trkpt lat="48.097460" lon="2.066660">
        <time>2017-06-24T15:14:56Z</time>
      </trkpt>
      <trkpt lat="48.097310" lon="2.067130">
        <time>2017-06-24T15:14:57Z</time>
      </trkpt>
      <trkpt lat="48.097160" lon="2.067600">
        <time>2017-06-24T15:14:58Z</time>
      </trkpt>
      <trkpt lat="48.097010" lon="2.068080">
        <time>2017-06-24T15:14:59Z</time>
      </trkpt>
      <trkpt lat="48.096850" lon="2.068590">
        <time>2017-06-24T15:15:00Z</time>
      </trkpt>
      <trkpt lat="48.096710" lon="2.069030">
        <time>2017-06-24T15:15:01Z</time>
      </trkpt>
      <trkpt lat="48.096560" lon="2.069510">
        <time>2017-06-24T15:15:02Z</time>
      </trkpt>
      <trkpt lat="48.096410" lon="2.070010">
        <time>2017-06-24T15:15:03Z</time>
      </trkpt>
      <trkpt lat="48.096270" lon="2.070460">
        <time>2017-06-24T15:15:04Z</time>
      </trkpt>
      <trkpt lat="48.096130" lon="2.070930">
        <time>2017-06-24T15:15:05Z</time>
      </trkpt>
      <trkpt lat="48.095970" lon="2.071430">
        <time>2017-06-24T15:15:06Z</time>
      </trkpt>
      <trkpt lat="48.095830" lon="2.071870">
        <time>2017-06-24T15:15:07Z</time>
      </trkpt>
      <trkpt lat="48.095680" lon="2.072380">
        <time>2017-06-24T15:15:08Z</time>
      </trkpt>
      <trkpt lat="48.095530" lon="2.072810">
        <time>2017-06-24T15:15:09Z</time>
      </trkpt>
      <trkpt lat="48.095390" lon="2.073290">
        <time>2017-06-24T15:15:10Z</time>
      </trkpt>
      <trkpt lat="48.095230" lon="2.073790">
        <time>2017-06-24T15:15:11Z</time>
      </trkpt>
      <trkpt lat="48.095100" lon="2.074240">
        <time>2017-06-24T15:15:12Z</time>
      </trkpt>
      <trkpt lat="48.094950" lon="2.074710">
        <time>2017-06-24T15:15:13Z</time>
      </trkpt>
      <trkpt lat="48.094800" lon="2.075190">
        <time>2017-06-24T15:15:14Z</time>
      </trkpt>
      <trkpt lat="48.094650" lon="2.075670">
        <time>2017-06-24T15:15:15Z</time>
      </trkpt>
      <trkpt lat="48.094500" lon="2.076180">
        <time>2017-06-24T15:15:16Z</time>
      </trkpt>
      <trkpt lat="48.094380" lon="2.076630">
        <time>2017-06-24T15:15:17Z</time>
      </trkpt>
      <trkpt lat="48.094250" lon="2.077110">
        <time>2017-06-24T15:15:18Z</time>
      </trkpt>
      <trkpt lat="48.094120" lon="2.077630">
        <time>2017-06-24T15:15:19Z</time>
      </trkpt>
      <trkpt lat="48.094010" lon="2.078080">
        <time>2017-06-24T15:15:20Z</time>
      </trkpt>
      <trkpt lat="48.093900" lon="2.078570">
        <time>2017-06-24T15:15:21Z</time>
      </trkpt>
      <trkpt lat="48.093780" lon="2.079090">
        <time>2017-06-24T15:15:22Z</time>
      </trkpt>
      <trkpt lat="48.093680" lon="2.079540">
        <time>2017-06-24T15:15:23Z</time>
      </trkpt>
      <trkpt lat="48.093580" lon="2.080060">
        <time>2017-06-24T15:15:24Z</time>
      </trkpt>
      <trkpt lat="48.093490" lon="2.080510">
        <time>2017-06-24T15:15:25Z</time>
      </trkpt>
      <trkpt lat="48.093410" lon="2.081000">
        <time>2017-06-24T15:15:26Z</time>
      </trkpt>
      <trkpt lat="48.093320" lon="2.081520">
        <time>2017-06-24T15:15:27Z</time>
      </trkpt>
      <trkpt lat="48.093240" lon="2.081970">
        <time>2017-06-24T15:15:28Z</time>
      </trkpt>
      <trkpt lat="48.093160" lon="2.082450">
        <time>2017-06-24T15:15:29Z</time>
      </trkpt>
      <trkpt lat="48.093090" lon="2.082940">
        <time>2017-06-24T15:15:30Z</time>
      </trkpt>
      <trkpt lat="48.093020" lon="2.083420">
        <time>2017-06-24T15:15:31Z</time>
      </trkpt>
      <trkpt lat="48.092960" lon="2.083940">
        <time>2017-06-24T15:15:32Z</time>
      </trkpt>
      <trkpt lat="48.092900" lon="2.084400">
        <time>2017-06-24T15:15:33Z</time>
      </trkpt>
      <trkpt lat="48.092840" lon="2.084900">
        <time>2017-06-24T15:15:34Z</time>
      </trkpt>
      <trkpt lat="48.092790" lon="2.085430">
        <time>2017-06-24T15:15:35Z</time>
      </trkpt>
      <trkpt lat="48.092750" lon="2.085910">
        <time>2017-06-24T15:15:36Z</time>
      </trkpt>
      <trkpt lat="48.092710" lon="2.086410">
        <time>2017-06-24T15:15:37Z</time>
      </trkpt>
      <trkpt lat="48.092670" lon="2.086950">
        <time>2017-06-24T15:15:38Z</time>
      </trkpt>
      <trkpt lat="48.092650" lon="2.087430">
        <time>2017-06-24T15:15:39Z</time>
      </trkpt>
      <trkpt lat="48.092620" lon="2.087970">
        <time>2017-06-24T15:15:40Z</time>
      </trkpt>
      <trkpt lat="48.092600" lon="2.088450">
        <time>2017-06-24T15:15:41Z</time>
      </trkpt>
      <trkpt lat="48.092590" lon="2.088970">
        <time>2017-06-24T15:15:42Z</time>
      </trkpt>
      <trkpt lat="48.092580" lon="2.089520">
        <time>2017-06-24T15:15:43Z</time>
      </trkpt>
      <trkpt lat="48.092580" lon="2.090000">
        <time>2017-06-24T15:15:44Z</time>
      </trkpt>
      <trkpt lat="48.092580" lon="2.090510">
        <time>2017-06-24T15:15:45Z</time>
      </trkpt>
      <trkpt lat="48.092590" lon="2.091020">
        <time>2017-06-24T15:15:46Z</time>
      </trkpt>
      <trkpt lat="48.092590" lon="2.091530">
        <time>2017-06-24T15:15:47Z</time>
      </trkpt>
      <trkpt lat="48.092610" lon="2.092070">
        <time>2017-06-24T15:15:48Z</time>
      </trkpt>
      <trkpt lat="48.092620" lon="2.092540">
        <time>2017-06-24T15:15:49Z</time>
      </trkpt>
      <trkpt lat="48.092650" lon="2.093050">
        <time>2017-06-24T15:15:50Z</time>
      </trkpt>
      <trkpt lat="48.092680" lon="2.093590">
        <time>2017-06-24T15:15:51Z</time>
      </trkpt>
      <trkpt lat="48.092710" lon="2.094070">
        <time>2017-06-24T15:15:52Z</time>
      </trkpt>
      <trkpt lat="48.092750" lon="2.094570">
        <time>2017-06-24T15:15:53Z</time>
      </trkpt>
      <trkpt lat="48.092790" lon="2.095100">
        <time>2017-06-24T15:15:54Z</time>
      </trkpt>
      <trkpt lat="48.092840" lon="2.095570">
        <time>2017-06-24T15:15:55Z</time>
      </trkpt>
      <trkpt lat="48.092890" lon="2.096090">
        <time>2017-06-24T15:15:56Z</time>
      </trkpt>
      <trkpt lat="48.092940" lon="2.096560">
        <time>2017-06-24T15:15:57Z</time>
      </trkpt>
      <trkpt lat="48.093000" lon="2.097050">
        <time>2017-06-24T15:15:58Z</time>
      </trkpt>
      <trkpt lat="48.093070" lon="2.097580">
        <time>2017-06-24T15:15:59Z</time>
      </trkpt>
      <trkpt lat="48.093130" lon="2.098030">
        <time>2017-06-24T15:16:00Z</time>
      </trkpt>
      <trkpt lat="48.093200" lon="2.098520">
        <time>2017-06-24T15:16:01Z</time>
      </trkpt>
      <trkpt lat="48.093280" lon="2.099010">
        <time>2017-06-24T15:16:02Z</time>
      </trkpt>
      <trkpt lat="48.093370" lon="2.099500">
        <time>2017-06-24T15:16:03Z</time>
      </trkpt>
      <trkpt lat="48.093460" lon="2.100020">
        <time>2017-06-24T15:16:04Z</time>
      </trkpt>
      <trkpt lat="48.093540" lon="2.100470">
        <time>2017-06-24T15:16:05Z</time>
      </trkpt>
      <trkpt lat="48.093640" lon="2.100950">
        <time>2017-06-24T15:16:06Z</time>
      </trkpt>
      <trkpt lat="48.093740" lon="2.101460">
        <time>2017-06-24T15:16:07Z</time>
      </trkpt>
      <trkpt lat="48.093840" lon="2.101910">
        <time>2017-06-24T15:16:08Z</time>
      </trkpt>
      <trkpt lat="48.093950" lon="2.102380">
        <time>2017-06-24T15:16:09Z</time>
      </trkpt>
      <trkpt lat="48.094070" lon="2.102890">
        <time>2017-06-24T15:16:10Z</time>
      </trkpt>
      <trkpt lat="48.094180" lon="2.103330">
        <time>2017-06-24T15:16:11Z</time>
      </trkpt>
      <trkpt lat="48.094310" lon="2.103820">
        <time>2017-06-24T15:16:12Z</time>
      </trkpt>
      <trkpt lat="48.094430" lon="2.104260">
        <time>2017-06-24T15:16:13Z</time>
      </trkpt>
      <trkpt lat="48.094560" lon="2.104720">
        <time>2017-06-24T15:16:14Z</time>
      </trkpt>
      <trkpt lat="48.094700" lon="2.105200">
        <time>2017-06-24T15:16:15Z</time>
      </trkpt>
      <trkpt lat="48.094830" lon="2.105630">
        <time>2017-06-24T15:16:16Z</time>
      </trkpt>
      <trkpt lat="48.094970" lon="2.106080">
        <time>2017-06-24T15:16:17Z</time>
      </trkpt>
      <trkpt lat="48.095120" lon="2.106530">
        <time>2017-06-24T15:16:18Z</time>
      </trkpt>
      <trkpt lat="48.095270" lon="2.106970">
        <time>2017-06-24T15:16:19Z</time>
      </trkpt>
      <trkpt lat="48.095420" lon="2.107450">
        <time>2017-06-24T15:16:20Z</time>
      </trkpt>
      <trkpt lat="48.095560" lon="2.107860">
        <time>2017-06-24T15:16:21Z</time>
      </trkpt>
      <trkpt lat="48.095720" lon="2.108300">
        <time>2017-06-24T15:16:22Z</time>
      </trkpt>
      <trkpt lat="48.095870" lon="2.108780">
        <time>2017-06-24T15:16:23Z</time>
      </trkpt>
      <trkpt lat="48.096010" lon="2.109190">
        <time>2017-06-24T15:16:24Z</time>
      </trkpt>
      <trkpt lat="48.096160" lon="2.109640">
        <time>2017-06-24T15:16:25Z</time>
      </trkpt>
      <trkpt lat="48.096320" lon="2.110120">
        <time>2017-06-24T15:16:26Z</time>
      </trkpt>
      <trkpt lat="48.096460" lon="2.110540">
        <time>2017-06-24T15:16:27Z</time>
      </trkpt>
      <trkpt lat="48.096620" lon="2.111010">
        <time>2017-06-24T15:16:28Z</time>
      </trkpt>
      <trkpt lat="48.096770" lon="2.111430">
        <time>2017-06-24T15:16:29Z</time>
      </trkpt>
      <trkpt lat="48.096920" lon="2.111880">
        <time>2017-06-24T15:16:30Z</time>
      </trkpt>
      <trkpt lat="48.097100" lon="2.112350">
        <time>2017-06-24T15:16:31Z</time>
      </trkpt>
      <trkpt lat="48.097260" lon="2.112760">
        <time>2017-06-24T15:16:32Z</time>
      </trkpt>
      <trkpt lat="48.097430" lon="2.113200">
        <time>2017-06-24T15:16:33Z</time>
      </trkpt>
      <trkpt lat="48.097610" lon="2.113630">
        <time>2017-06-24T15:16:34Z</time>
      </trkpt>
      <trkpt lat="48.097790" lon="2.114060">
        <time>2017-06-24T15:16:35Z</time>
      </trkpt>
      <trkpt lat="48.097990" lon="2.114520">
        <time>2017-06-24T15:16:36Z</time>
      </trkpt>
      <trkpt lat="48.098170" lon="2.114920">
        <time>2017-06-24T15:16:37Z</time>
      </trkpt>
      <trkpt lat="48.098360" lon="2.115340">
        <time>2017-06-24T15:16:38Z</time>
      </trkpt>
      <trkpt lat="48.098580" lon="2.115780">
        <time>2017-06-24T15:16:39Z</time>
      </trkpt>
      <trkpt lat="48.098770" lon="2.116180">
        <time>2017-06-24T15:16:40Z</time>
      </trkpt>
      <trkpt lat="48.098980" lon="2.116590">
        <time>2017-06-24T15:16:41Z</time>
      </trkpt>
      <trkpt lat="48.099200" lon="2.117030">
        <time>2017-06-24T15:16:42Z</time>
      </trkpt>
      <trkpt lat="48.099410" lon="2.117400">
        <time>2017-06-24T15:16:43Z</time>
      </trkpt>
      <trkpt lat="48.099640" lon="2.117830">
        <time>2017-06-24T15:16:44Z</time>
      </trkpt>
      <trkpt lat="48.099840" lon="2.118190">
        <time>2017-06-24T15:16:45Z</time>
      </trkpt>
      <trkpt lat="48.100070" lon="2.118570">
        <time>2017-06-24T15:16:46Z</time>
      </trkpt>
      <trkpt lat="48.100320" lon="2.118970">
        <time>2017-06-24T15:16:47Z</time>
      </trkpt>
      <trkpt lat="48.100540" lon="2.119320">
        <time>2017-06-24T15:16:48Z</time>
      </trkpt>
      <trkpt lat="48.100770" lon="2.119690">
        <time>2017-06-24T15:16:49Z</time>
      </trkpt>
      <trkpt lat="48.101010" lon="2.120060">
        <time>2017-06-24T15:16:50Z</time>
      </trkpt>
      <trkpt lat="48.101250" lon="2.120410">
        <time>2017-06-24T15:16:51Z</time>
      </trkpt>
      <trkpt lat="48.101510" lon="2.120790">
        <time>2017-06-24T15:16:52Z</time>
      </trkpt>
      <trkpt lat="48.101740" lon="2.121110">
        <time>2017-06-24T15:16:53Z</time>
      </trkpt>
      <trkpt lat="48.101990" lon="2.121440">
        <time>2017-06-24T15:16:54Z</time>
      </trkpt>
      <trkpt lat="48.102260" lon="2.121790">
        <time>2017-06-24T15:16:55Z</time>
      </trkpt>
      <trkpt lat="48.102490" lon="2.122100">
        <time>2017-06-24T15:16:56Z</time>
      </trkpt>
      <trkpt lat="48.102740" lon="2.122420">
        <time>2017-06-24T15:16:57Z</time>
      </trkpt>
      <trkpt lat="48.103000" lon="2.122770">
        <time>2017-06-24T15:16:58Z</time>
      </trkpt>
      <trkpt lat="48.103240" lon="2.123070">
        <time>2017-06-24T15:16:59Z</time>
      </trkpt>
      <trkpt lat="48.103510" lon="2.123410">
        <time>2017-06-24T15:17:00Z</time>
      </trkpt>
      <trkpt lat="48.103750" lon="2.123710">
        <time>2017-06-24T15:17:01Z</time>
      </trkpt>
      <trkpt lat="48.104000" lon="2.124030">
        <time>2017-06-24T15:17:02Z</time>
      </trkpt>
      <trkpt lat="48.104270" lon="2.124370">
        <time>2017-06-24T15:17:03Z</time>
      </trkpt>
      <trkpt lat="48.104510" lon="2.124670">
        <time>2017-06-24T15:17:04Z</time>
      </trkpt>
      <trkpt lat="48.104760" lon="2.124990">
        <time>2017-06-24T15:17:05Z</time>
      </trkpt>
      <trkpt lat="48.105010" lon="2.125310">
        <time>2017-06-24T15:17:06Z</time>
      </trkpt>
      <trkpt lat="48.105260" lon="2.125630">
        <time>2017-06-24T15:17:07Z</time>
      </trkpt>
      <trkpt lat="48.105520" lon="2.125980">
        <time>2017-06-24T15:17:08Z</time>
      </trkpt>
      <trkpt lat="48.105760" lon="2.126280">
        <time>2017-06-24T15:17:09Z</time>
      </trkpt>
      <trkpt lat="48.106010" lon="2.126590">
        <time>2017-06-24T15:17:10Z</time>
      </trkpt>
      <trkpt lat="48.106270" lon="2.126930">
        <time>2017-06-24T15:17:11Z</time>
      </trkpt>
      <trkpt lat="48.106500" lon="2.127230">
        <time>2017-06-24T15:17:12Z</time>
      </trkpt>
      <trkpt lat="48.106750" lon="2.127550">
        <time>2017-06-24T15:17:13Z</time>
      </trkpt>
      <trkpt lat="48.107010" lon="2.127890">
        <time>2017-06-24T15:17:14Z</time>
      </trkpt>
      <trkpt lat="48.107240" lon="2.128180">
        <time>2017-06-24T15:17:15Z</time>
      </trkpt>
      <trkpt lat="48.107500" lon="2.128520">
        <time>2017-06-24T15:17:16Z</time>
      </trkpt>
      <trkpt lat="48.107720" lon="2.128820">
        <time>2017-06-24T15:17:17Z</time>
      </trkpt>
      <trkpt lat="48.107960" lon="2.129140">
        <time>2017-06-24T15:17:18Z</time>
      </trkpt>
      <trkpt lat="48.108210" lon="2.129490">
        <time>2017-06-24T15:17:19Z</time>
      </trkpt>
      <trkpt lat="48.108420" lon="2.129800">
        <time>2017-06-24T15:17:20Z</time>
      </trkpt>
      <trkpt lat="48.108640" lon="2.130140">
        <time>2017-06-24T15:17:21Z</time>
      </trkpt>
      <trkpt lat="48.108870" lon="2.130480">
        <time>2017-06-24T15:17:22Z</time>
      </trkpt>
      <trkpt lat="48.109080" lon="2.130820">
        <time>2017-06-24T15:17:23Z</time>
      </trkpt>
      <trkpt lat="48.109320" lon="2.131190">
        <time>2017-06-24T15:17:24Z</time>
      </trkpt>
      <trkpt lat="48.109510" lon="2.131530">
        <time>2017-06-24T15:17:25Z</time>
      </trkpt>
      <trkpt lat="48.109730" lon="2.131880">
        <time>2017-06-24T15:17:26Z</time>
      </trkpt>
      <trkpt lat="48.109950" lon="2.132280">
        <time>2017-06-24T15:17:27Z</time>
      </trkpt>
      <trkpt lat="48.110150" lon="2.132630">
        <time>2017-06-24T15:17:28Z</time>
      </trkpt>
      <trkpt lat="48.110350" lon="2.133000">
        <time>2017-06-24T15:17:29Z</time>
      </trkpt>
      <trkpt lat="48.110580" lon="2.133410">
        <time>2017-06-24T15:17:30Z</time>
      </trkpt>
      <trkpt lat="48.110760" lon="2.133780">
        <time>2017-06-24T15:17:31Z</time>
      </trkpt>
      <trkpt lat="48.110970" lon="2.134200">
        <time>2017-06-24T15:17:32Z</time>
      </trkpt>
      <trkpt lat="48.111150" lon="2.134580">
        <time>2017-06-24T15:17:33Z</time>
      </trkpt>
      <trkpt lat="48.111340" lon="2.134990">
        <time>2017-06-24T15:17:34Z</time>
      </trkpt>
      <trkpt lat="48.111540" lon="2.135420">
        <time>2017-06-24T15:17:35Z</time>
      </trkpt>
      <trkpt lat="48.111720" lon="2.135810">
        <time>2017-06-24T15:17:36Z</time>
      </trkpt>
      <trkpt lat="48.111900" lon="2.136230">
        <time>2017-06-24T15:17:37Z</time>
      </trkpt>
      <trkpt lat="48.112080" lon="2.136650">
        <time>2017-06-24T15:17:38Z</time>
      </trkpt>
      <trkpt lat="48.112250" lon="2.137080">
        <time>2017-06-24T15:17:39Z</time>
      </trkpt>
      <trkpt lat="48.112430" lon="2.137550">
        <time>2017-06-24T15:17:40Z</time>
      </trkpt>
      <trkpt lat="48.112590" lon="2.137960">
        <time>2017-06-24T15:17:41Z</time>
      </trkpt>
      <trkpt lat="48.112750" lon="2.138410">
        <time>2017-06-24T15:17:42Z</time>
      </trkpt>
      <trkpt lat="48.112920" lon="2.138880">
        <time>2017-06-24T15:17:43Z</time>
      </trkpt>
      <trkpt lat="48.113070" lon="2.139300">
        <time>2017-06-24T15:17:44Z</time>
      </trkpt>
      <trkpt lat="48.113220" lon="2.139750">
        <time>2017-06-24T15:17:45Z</time>
      </trkpt>
      <trkpt lat="48.113380" lon="2.140240">
        <time>2017-06-24T15:17:46Z</time>
      </trkpt>
      <trkpt lat="48.113520" lon="2.140670">
        <time>2017-06-24T15:17:47Z</time>
      </trkpt>
      <trkpt lat="48.113670" lon="2.141170">
        <time>2017-06-24T15:17:48Z</time>
      </trkpt>
      <trkpt lat="48.113790" lon="2.141620">
        <time>2017-06-24T15:17:49Z</time>
      </trkpt>
      <trkpt lat="48.113920" lon="2.142100">
        <time>2017-06-24T15:17:50Z</time>
      </trkpt>
      <trkpt lat="48.114060" lon="2.142610">
        <time>2017-06-24T15:17:51Z</time>
      </trkpt>
      <trkpt lat="48.114170" lon="2.143060">
        <time>2017-06-24T15:17:52Z</time>
      </trkpt>
      <trkpt lat="48.114290" lon="2.143550">
        <time>2017-06-24T15:17:53Z</time>
      </trkpt>
      <trkpt lat="48.114400" lon="2.144040">
        <time>2017-06-24T15:17:54Z</time>
      </trkpt>
      <trkpt lat="48.114510" lon="2.144530">
        <time>2017-06-24T15:17:55Z</time>
      </trkpt>
      <trkpt lat="48.114620" lon="2.145050">
        <time>2017-06-24T15:17:56Z</time>
      </trkpt>
      <trkpt lat="48.114720" lon="2.145500">
        <time>2017-06-24T15:17:57Z</time>
      </trkpt>
      <trkpt lat="48.114810" lon="2.145990">
        <time>2017-06-24T15:17:58Z</time>
      </trkpt>
      <trkpt lat="48.114900" lon="2.146510">
        <time>2017-06-24T15:17:59Z</time>
      </trkpt>
      <trkpt lat="48.114980" lon="2.146970">
        <time>2017-06-24T15:18:00Z</time>
      </trkpt>
      <trkpt lat="48.115060" lon="2.147470">
        <time>2017-06-24T15:18:01Z</time>
      </trkpt>
      <trkpt lat="48.115140" lon="2.148000">
        <time>2017-06-24T15:18:02Z</time>
      </trkpt>
      <trkpt lat="48.115200" lon="2.148460">
        <time>2017-06-24T15:18:03Z</time>
      </trkpt>
      <trkpt lat="48.115270" lon="2.148990">
        <time>2017-06-24T15:18:04Z</time>
      </trkpt>
      <trkpt lat="48.115330" lon="2.149450">
        <time>2017-06-24T15:18:05Z</time>
      </trkpt>
      <trkpt lat="48.115390" lon="2.149950">
        <time>2017-06-24T15:18:06Z</time>
      </trkpt>
      <trkpt lat="48.115440" lon="2.150470">
        <time>2017-06-24T15:18:07Z</time>
      </trkpt>
      <trkpt lat="48.115490" lon="2.150930">
        <time>2017-06-24T15:18:08Z</time>
      </trkpt>
      <trkpt lat="48.115550" lon="2.151420">
        <time>2017-06-24T15:18:09Z</time>
      </trkpt>
      <trkpt lat="48.115600" lon="2.151910">
        <time>2017-06-24T15:18:10Z</time>
      </trkpt>
      <trkpt lat="48.115650" lon="2.152400">
        <time>2017-06-24T15:18:11Z</time>
      </trkpt>
      <trkpt lat="48.115710" lon="2.152920">
        <time>2017-06-24T15:18:12Z</time>
      </trkpt>
      <trkpt lat="48.115770" lon="2.153390">
        <time>2017-06-24T15:18:13Z</time>
      </trkpt>
      <trkpt lat="48.115820" lon="2.153870">
        <time>2017-06-24T15:18:14Z</time>
      </trkpt>
      <trkpt lat="48.115880" lon="2.154390">
        <time>2017-06-24T15:18:15Z</time>
      </trkpt>
      <trkpt lat="48.115930" lon="2.154840">
        <time>2017-06-24T15:18:16Z</time>
      </trkpt>
      <trkpt lat="48.115980" lon="2.155330">
        <time>2017-06-24T15:18:17Z</time>
      </trkpt>
      <trkpt lat="48.116040" lon="2.155850">
        <time>2017-06-24T15:18:18Z</time>
      </trkpt>
      <trkpt lat="48.116090" lon="2.156310">
        <time>2017-06-24T15:18:19Z</time>
      </trkpt>
      <trkpt lat="48.116150" lon="2.156830">
        <time>2017-06-24T15:18:20Z</time>
      </trkpt>
      <trkpt lat="48.116200" lon="2.157280">
        <time>2017-06-24T15:18:21Z</time>
      </trkpt>
      <trkpt lat="48.116260" lon="2.157770">
        <time>2017-06-24T15:18:22Z</time>
      </trkpt>
      <trkpt lat="48.116320" lon="2.158290">
        <time>2017-06-24T15:18:23Z</time>
      </trkpt>
      <trkpt lat="48.116380" lon="2.158750">
        <time>2017-06-24T15:18:24Z</time>
      </trkpt>
      <trkpt lat="48.116430" lon="2.159240">
        <time>2017-06-24T15:18:25Z</time>
      </trkpt>
      <trkpt lat="48.116490" lon="2.159730">
        <time>2017-06-24T15:18:26Z</time>
      </trkpt>
      <trkpt lat="48.116540" lon="2.160220">
        <time>2017-06-24T15:18:27Z</time>
      </trkpt>
      <trkpt lat="48.116600" lon="2.160750">
        <time>2017-06-24T15:18:28Z</time>
      </trkpt>
      <trkpt lat="48.116660" lon="2.161220">
        <time>2017-06-24T15:18:29Z</time>
      </trkpt>
      <trkpt lat="48.116710" lon="2.161710">
        <time>2017-06-24T15:18:30Z</time>
      </trkpt>
      <trkpt lat="48.116770" lon="2.162240">
        <time>2017-06-24T15:18:31Z</time>
      </trkpt>
      <trkpt lat="48.116820" lon="2.162710">
        <time>2017-06-24T15:18:32Z</time>
      </trkpt>
      <trkpt lat="48.116880" lon="2.163200">
        <time>2017-06-24T15:18:33Z</time>
      </trkpt>
      <trkpt lat="48.116940" lon="2.163730">
        <time>2017-06-24T15:18:34Z</time>
      </trkpt>
      <trkpt lat="48.116990" lon="2.164190">
        <time>2017-06-24T15:18:35Z</time>
      </trkpt>
      <trkpt lat="48.117050" lon="2.164710">
        <time>2017-06-24T15:18:36Z</time>
      </trkpt>
      <trkpt lat="48.117100" lon="2.165180">
        <time>2017-06-24T15:18:37Z</time>
      </trkpt>
      <trkpt lat="48.117150" lon="2.165680">
        <time>2017-06-24T15:18:38Z</time>
      </trkpt>
      <trkpt lat="48.117190" lon="2.166210">
        <time>2017-06-24T15:18:39Z</time>
      </trkpt>
      <trkpt lat="48.117230" lon="2.166680">
        <time>2017-06-24T15:18:40Z</time>
      </trkpt>
      <trkpt lat="48.117270" lon="2.167180">
        <time>2017-06-24T15:18:41Z</time>
      </trkpt>
      <trkpt lat="48.117300" lon="2.167690">
        <time>2017-06-24T15:18:42Z</time>
      </trkpt>
      <trkpt lat="48.117330" lon="2.168190">
        <time>2017-06-24T15:18:43Z</time>
      </trkpt>
      <trkpt lat="48.117370" lon="2.168740">
        <time>2017-06-24T15:18:44Z</time>
      </trkpt>
      <trkpt lat="48.117390" lon="2.169210">
        <time>2017-06-24T15:18:45Z</time>
      </trkpt>
      <trkpt lat="48.117410" lon="2.169720">
        <time>2017-06-24T15:18:46Z</time>
      </trkpt>
      <trkpt lat="48.117430" lon="2.170250">
        <time>2017-06-24T15:18:47Z</time>
      </trkpt>
      <trkpt lat="48.117450" lon="2.170720">
        <time>2017-06-24T15:18:48Z</time>
      </trkpt>
      <trkpt lat="48.117460" lon="2.171230">
        <time>2017-06-24T15:18:49Z</time>
      </trkpt>
      <trkpt lat="48.117480" lon="2.171760">
        <time>2017-06-24T15:18:50Z</time>
      </trkpt>
      <trkpt lat="48.117480" lon="2.172230">
        <time>2017-06-24T15:18:51Z</time>
      </trkpt>
      <trkpt lat="48.117480" lon="2.172770">
        <time>2017-06-24T15:18:52Z</time>
      </trkpt>
      <trkpt lat="48.117480" lon="2.173250">
        <time>2017-06-24T15:18:53Z</time>
      </trkpt>
      <trkpt lat="48.117480" lon="2.173770">
        <time>2017-06-24T15:18:54Z</time>
      </trkpt>
      <trkpt lat="48.117470" lon="2.174320">
        <time>2017-06-24T15:18:55Z</time>
      </trkpt>
      <trkpt lat="48.117460" lon="2.174800">
        <time>2017-06-24T15:18:56Z</time>
      </trkpt>
      <trkpt lat="48.117440" lon="2.175320">
        <time>2017-06-24T15:18:57Z</time>
      </trkpt>
      <trkpt lat="48.117430" lon="2.175830">
        <time>2017-06-24T15:18:58Z</time>
      </trkpt>
      <trkpt lat="48.117410" lon="2.176340">
        <time>2017-06-24T15:18:59Z</time>
      </trkpt>
      <trkpt lat="48.117390" lon="2.176880">
        <time>2017-06-24T15:19:00Z</time>
      </trkpt>
      <trkpt lat="48.117370" lon="2.177360">
        <time>2017-06-24T15:19:01Z</time>
      </trkpt>
      <trkpt lat="48.117350" lon="2.177860">
        <time>2017-06-24T15:19:02Z</time>
      </trkpt>
      <trkpt lat="48.117310" lon="2.178400">
        <time>2017-06-24T15:19:03Z</time>
      </trkpt>
      <trkpt lat="48.117280" lon="2.178870">
        <time>2017-06-24T15:19:04Z</time>
      </trkpt>
      <trkpt lat="48.117240" lon="2.179380">
        <time>2017-06-24T15:19:05Z</time>
      </trkpt>
      <trkpt lat="48.117200" lon="2.179910">
        <time>2017-06-24T15:19:06Z</time>
      </trkpt>
      <trkpt lat="48.117150" lon="2.180380">
        <time>2017-06-24T15:19:07Z</time>
      </trkpt>
      <trkpt lat="48.117100" lon="2.180910">
        <time>2017-06-24T15:19:08Z</time>
      </trkpt>
      <trkpt lat="48.117050" lon="2.181370">
        <time>2017-06-24T15:19:09Z</time>
      </trkpt>
      <trkpt lat="48.117000" lon="2.181880">
        <time>2017-06-24T15:19:10Z</time>
      </trkpt>
      <trkpt lat="48.116940" lon="2.182410">
        <time>2017-06-24T15:19:11Z</time>
      </trkpt>
      <trkpt lat="48.116890" lon="2.182880">
        <time>2017-06-24T15:19:12Z</time>
      </trkpt>
      <trkpt lat="48.116820" lon="2.183390">
        <time>2017-06-24T15:19:13Z</time>
      </trkpt>
      <trkpt lat="48.116760" lon="2.183890">
        <time>2017-06-24T15:19:14Z</time>
      </trkpt>
      <trkpt lat="48.116680" lon="2.184390">
        <time>2017-06-24T15:19:15Z</time>
      </trkpt>
      <trkpt lat="48.116600" lon="2.184910">
        <time>2017-06-24T15:19:16Z</time>
      </trkpt>
      <trkpt lat="48.116520" lon="2.185370">
        <time>2017-06-24T15:19:17Z</time>
      </trkpt>
      <trkpt lat="48.116440" lon="2.185850">
        <time>2017-06-24T15:19:18Z</time>
      </trkpt>
      <trkpt lat="48.116360" lon="2.186370">
        <time>2017-06-24T15:19:19Z</time>
      </trkpt>
      <trkpt lat="48.116280" lon="2.186820">
        <time>2017-06-24T15:19:20Z</time>
      </trkpt>
      <trkpt lat="48.116200" lon="2.187310">
        <time>2017-06-24T15:19:21Z</time>
      </trkpt>
      <trkpt lat="48.116120" lon="2.187830">
        <time>2017-06-24T15:19:22Z</time>
      </trkpt>
      <trkpt lat="48.116040" lon="2.188290">
        <time>2017-06-24T15:19:23Z</time>
      </trkpt>
      <trkpt lat="48.115950" lon="2.188800">
        <time>2017-06-24T15:19:24Z</time>
      </trkpt>
      <trkpt lat="48.115880" lon="2.189260">
        <time>2017-06-24T15:19:25Z</time>
      </trkpt>
      <trkpt lat="48.115790" lon="2.189750">
        <time>2017-06-24T15:19:26Z</time>
      </trkpt>
      <trkpt lat="48.115710" lon="2.190280">
        <time>2017-06-24T15:19:27Z</time>
      </trkpt>
      <trkpt lat="48.115640" lon="2.190740">
        <time>2017-06-24T15:19:28Z</time>
      </trkpt>
      <trkpt lat="48.115560" lon="2.191230">
        <time>2017-06-24T15:19:29Z</time>
      </trkpt>
      <trkpt lat="48.115490" lon="2.191720">
        <time>2017-06-24T15:19:30Z</time>
      </trkpt>
      <trkpt lat="48.115410" lon="2.192220">
        <time>2017-06-24T15:19:31Z</time>
      </trkpt>
      <trkpt lat="48.115320" lon="2.192740">
        <time>2017-06-24T15:19:32Z</time>
      </trkpt>
      <trkpt lat="48.115240" lon="2.193200">
        <time>2017-06-24T15:19:33Z</time>
      </trkpt>
      <trkpt lat="48.115160" lon="2.193700">
        <time>2017-06-24T15:19:34Z</time>
      </trkpt>
      <trkpt lat="48.115070" lon="2.194220">
        <time>2017-06-24T15:19:35Z</time>
      </trkpt>
      <trkpt lat="48.114990" lon="2.194670">
        <time>2017-06-24T15:19:36Z</time>
      </trkpt>
      <trkpt lat="48.114910" lon="2.195160">
        <time>2017-06-24T15:19:37Z</time>
      </trkpt>
      <trkpt lat="48.114820" lon="2.195680">
        <time>2017-06-24T15:19:38Z</time>
      </trkpt>
      <trkpt lat="48.114740" lon="2.196130">
        <time>2017-06-24T15:19:39Z</time>
      </trkpt>
      <trkpt lat="48.114650" lon="2.196640">
        <time>2017-06-24T15:19:40Z</time>
      </trkpt>
      <trkpt lat="48.114570" lon="2.197100">
        <time>2017-06-24T15:19:41Z</time>
      </trkpt>
      <trkpt lat="48.114490" lon="2.197600">
        <time>2017-06-24T15:19:42Z</time>
      </trkpt>
      <trkpt lat="48.114390" lon="2.198130">
        <time>2017-06-24T15:19:43Z</time>
      </trkpt>
      <trkpt lat="48.114320" lon="2.198610">
        <time>2017-06-24T15:19:44Z</time>
      </trkpt>
      <trkpt lat="48.114230" lon="2.199100">
        <time>2017-06-24T15:19:45Z</time>
      </trkpt>
      <trkpt lat="48.114140" lon="2.199600">
        <time>2017-06-24T15:19:46Z</time>
      </trkpt>
      <trkpt lat="48.114060" lon="2.200100">
        <time>2017-06-24T15:19:47Z</time>
      </trkpt>
      <trkpt lat="48.113970" lon="2.200630">
        <time>2017-06-24T15:19:48Z</time>
      </trkpt>
      <trkpt lat="48.113900" lon="2.201080">
        <time>2017-06-24T15:19:49Z</time>
      </trkpt>
      <trkpt lat="48.113820" lon="2.201580">
        <time>2017-06-24T15:19:50Z</time>
      </trkpt>
      <trkpt lat="48.113730" lon="2.202100">
        <time>2017-06-24T15:19:51Z</time>
      </trkpt>
      <trkpt lat="48.113650" lon="2.202550">
        <time>2017-06-24T15:19:52Z</time>
      </trkpt>
      <trkpt lat="48.113560" lon="2.203050">
        <time>2017-06-24T15:19:53Z</time>
      </trkpt>
      <trkpt lat="48.113470" lon="2.203570">
        <time>2017-06-24T15:19:54Z</time>
      </trkpt>
      <trkpt lat="48.113390" lon="2.204030">
        <time>2017-06-24T15:19:55Z</time>
      </trkpt>
      <trkpt lat="48.113300" lon="2.204550">
        <time>2017-06-24T15:19:56Z</time>
      </trkpt>
      <trkpt lat="48.113230" lon="2.205000">
        <time>2017-06-24T15:19:57Z</time>
      </trkpt>
      <trkpt lat="48.113150" lon="2.205490">
        <time>2017-06-24T15:19:58Z</time>
      </trkpt>
      <trkpt lat="48.113060" lon="2.206010">
        <time>2017-06-24T15:19:59Z</time>
      </trkpt>
      <trkpt lat="48.112990" lon="2.206460">
        <time>2017-06-24T15:20:00Z</time>
      </trkpt>
      <trkpt lat="48.112920" lon="2.206950">
        <time>2017-06-24T15:20:01Z</time>
      </trkpt>
      <trkpt lat="48.112850" lon="2.207440">
        <time>2017-06-24T15:20:02Z</time>
      </trkpt>
      <trkpt lat="48.112770" lon="2.207930">
        <time>2017-06-24T15:20:03Z</time>
      </trkpt>
      <trkpt lat="48.112700" lon="2.208460">
        <time>2017-06-24T15:20:04Z</time>
      </trkpt>
      <trkpt lat="48.112640" lon="2.208920">
        <time>2017-06-24T15:20:05Z</time>
      </trkpt>
      <trkpt lat="48.112580" lon="2.209410">
        <time>2017-06-24T15:20:06Z</time>
      </trkpt>
      <trkpt lat="48.112510" lon="2.209940">
        <time>2017-06-24T15:20:07Z</time>
      </trkpt>
      <trkpt lat="48.112460" lon="2.210410">
        <time>2017-06-24T15:20:08Z</time>
      </trkpt>
      <trkpt lat="48.112400" lon="2.210900">
        <time>2017-06-24T15:20:09Z</time>
      </trkpt>
      <trkpt lat="48.112350" lon="2.211430">
        <time>2017-06-24T15:20:10Z</time>
      </trkpt>
      <trkpt lat="48.112300" lon="2.211890">
        <time>2017-06-24T15:20:11Z</time>
      </trkpt>
      <trkpt lat="48.112250" lon="2.212430">
        <time>2017-06-24T15:20:12Z</time>
      </trkpt>
      <trkpt lat="48.112200" lon="2.212890">
        <time>2017-06-24T15:20:13Z</time>
      </trkpt>
      <trkpt lat="48.112160" lon="2.213390">
        <time>2017-06-24T15:20:14Z</time>
      </trkpt>
      <trkpt lat="48.112110" lon="2.213920">
        <time>2017-06-24T15:20:15Z</time>
      </trkpt>
      <trkpt lat="48.112070" lon="2.214380">
        <time>2017-06-24T15:20:16Z</time>
      </trkpt>
      <trkpt lat="48.112030" lon="2.214880">
        <time>2017-06-24T15:20:17Z</time>
      </trkpt>
      <trkpt lat="48.111990" lon="2.215380">
        <time>2017-06-24T15:20:18Z</time>
      </trkpt>
      <trkpt lat="48.111960" lon="2.215880">
        <time>2017-06-24T15:20:19Z</time>
      </trkpt>
      <trkpt lat="48.111930" lon="2.216410">
        <time>2017-06-24T15:20:20Z</time>
      </trkpt>
      <trkpt lat="48.111890" lon="2.216880">
        <time>2017-06-24T15:20:21Z</time>
      </trkpt>
      <trkpt lat="48.111870" lon="2.217400">
        <time>2017-06-24T15:20:22Z</time>
      </trkpt>
      <trkpt lat="48.111840" lon="2.217940">
        <time>2017-06-24T15:20:23Z</time>
      </trkpt>
      <trkpt lat="48.111820" lon="2.218420">
        <time>2017-06-24T15:20:24Z</time>
      </trkpt>
      <trkpt lat="48.111790" lon="2.218930">
        <time>2017-06-24T15:20:25Z</time>
      </trkpt>
      <trkpt lat="48.111770" lon="2.219480">
        <time>2017-06-24T15:20:26Z</time>
      </trkpt>
      <trkpt lat="48.111750" lon="2.219960">
        <time>2017-06-24T15:20:27Z</time>
      </trkpt>
      <trkpt lat="48.111740" lon="2.220510">
        <time>2017-06-24T15:20:28Z</time>
      </trkpt>
      <trkpt lat="48.111730" lon="2.220980">
        <time>2017-06-24T15:20:29Z</time>
      </trkpt>
      <trkpt lat="48.111720" lon="2.221500">
        <time>2017-06-24T15:20:30Z</time>
      </trkpt>
      <trkpt lat="48.111710" lon="2.222050">
        <time>2017-06-24T15:20:31Z</time>
      </trkpt>
      <trkpt lat="48.111700" lon="2.222530">
        <time>2017-06-24T15:20:32Z</time>
      </trkpt>
      <trkpt lat="48.111700" lon="2.223040">
        <time>2017-06-24T15:20:33Z</time>
      </trkpt>
      <trkpt lat="48.111700" lon="2.223560">
        <time>2017-06-24T15:20:34Z</time>
      </trkpt>
      <trkpt lat="48.111700" lon="2.224070">
        <time>2017-06-24T15:20:35Z</time>
      </trkpt>
      <trkpt lat="48.111700" lon="2.224620">
        <time>2017-06-24T15:20:36Z</time>
      </trkpt>
      <trkpt lat="48.111700" lon="2.225100">
        <time>2017-06-24T15:20:37Z</time>
      </trkpt>
      <trkpt lat="48.111710" lon="2.225620">
        <time>2017-06-24T15:20:38Z</time>
      </trkpt>
      <trkpt lat="48.111720" lon="2.226160">
        <time>2017-06-24T15:20:39Z</time>
      </trkpt>
      <trkpt lat="48.111730" lon="2.226640">
        <time>2017-06-24T15:20:40Z</time>
      </trkpt>
      <trkpt lat="48.111740" lon="2.227150">
        <time>2017-06-24T15:20:41Z</time>
      </trkpt>
      <trkpt lat="48.111750" lon="2.227690">
        <time>2017-06-24T15:20:42Z</time>
      </trkpt>
      <trkpt lat="48.111760" lon="2.228170">
        <time>2017-06-24T15:20:43Z</time>
      </trkpt>
      <trkpt lat="48.111780" lon="2.228710">
        <time>2017-06-24T15:20:44Z</time>
      </trkpt>
      <trkpt lat="48.111810" lon="2.229190">
        <time>2017-06-24T15:20:45Z</time>
      </trkpt>
      <trkpt lat="48.111830" lon="2.229700">
        <time>2017-06-24T15:20:46Z</time>
      </trkpt>
      <trkpt lat="48.111850" lon="2.230240">
        <time>2017-06-24T15:20:47Z</time>
      </trkpt>
      <trkpt lat="48.111880" lon="2.230720">
        <time>2017-06-24T15:20:48Z</time>
      </trkpt>
      <trkpt lat="48.111900" lon="2.231230">
        <time>2017-06-24T15:20:49Z</time>
      </trkpt>
      <trkpt lat="48.111920" lon="2.231740">
        <time>2017-06-24T15:20:50Z</time>
      </trkpt>
      <trkpt lat="48.111950" lon="2.232250">
        <time>2017-06-24T15:20:51Z</time>
      </trkpt>
      <trkpt lat="48.111970" lon="2.232800">
        <time>2017-06-24T15:20:52Z</time>
      </trkpt>
      <trkpt lat="48.112000" lon="2.233270">
        <time>2017-06-24T15:20:53Z</time>
      </trkpt>
      <trkpt lat="48.112020" lon="2.233780">
        <time>2017-06-24T15:20:54Z</time>
      </trkpt>
      <trkpt lat="48.112040" lon="2.234320">
        <time>2017-06-24T15:20:55Z</time>
      </trkpt>
      <trkpt lat="48.112070" lon="2.234790">
        <time>2017-06-24T15:20:56Z</time>
      </trkpt>
      <trkpt lat="48.112090" lon="2.235280">
        <time>2017-06-24T15:20:57Z</time>
      </trkpt>
      <trkpt lat="48.112110" lon="2.235810">
        <time>2017-06-24T15:20:58Z</time>
      </trkpt>
      <trkpt lat="48.112130" lon="2.236280">
        <time>2017-06-24T15:20:59Z</time>
      </trkpt>
      <trkpt lat="48.112150" lon="2.236810">
        <time>2017-06-24T15:21:00Z</time>
      </trkpt>
      <trkpt lat="48.112170" lon="2.237280">
        <time>2017-06-24T15:21:01Z</time>
      </trkpt>
      <trkpt lat="48.112200" lon="2.237770">
        <time>2017-06-24T15:21:02Z</time>
      </trkpt>
      <trkpt lat="48.112230" lon="2.238300">
        <time>2017-06-24T15:21:03Z</time>
      </trkpt>
      <trkpt lat="48.112250" lon="2.238760">
        <time>2017-06-24T15:21:04Z</time>
      </trkpt>
      <trkpt lat="48.112280" lon="2.239260">
        <time>2017-06-24T15:21:05Z</time>
      </trkpt>
      <trkpt lat="48.112300" lon="2.239760">
        <time>2017-06-24T15:21:06Z</time>
      </trkpt>
      <trkpt lat="48.112330" lon="2.240260">
        <time>2017-06-24T15:21:07Z</time>
      </trkpt>
      <trkpt lat="48.112350" lon="2.240790">
        <time>2017-06-24T15:21:08Z</time>
      </trkpt>
      <trkpt lat="48.112380" lon="2.241260">
        <time>2017-06-24T15:21:09Z</time>
      </trkpt>
      <trkpt lat="48.112400" lon="2.241760">
        <time>2017-06-24T15:21:10Z</time>
      </trkpt>
      <trkpt lat="48.112420" lon="2.242300">
        <time>2017-06-24T15:21:11Z</time>
      </trkpt>
      <trkpt lat="48.112440" lon="2.242770">
        <time>2017-06-24T15:21:12Z</time>
      </trkpt>
      <trkpt lat="48.112470" lon="2.243270">
        <time>2017-06-24T15:21:13Z</time>
      </trkpt>
      <trkpt lat="48.112490" lon="2.243800">
        <time>2017-06-24T15:21:14Z</time>
      </trkpt>
      <trkpt lat="48.112510" lon="2.244280">
        <time>2017-06-24T15:21:15Z</time>
      </trkpt>
      <trkpt lat="48.112540" lon="2.244810">
        <time>2017-06-24T15:21:16Z</time>
      </trkpt>
      <trkpt lat="48.112560" lon="2.245280">
        <time>2017-06-24T15:21:17Z</time>
      </trkpt>
      <trkpt lat="48.112580" lon="2.245760">
        <time>2017-06-24T15:21:18Z</time>
      </trkpt>
      <trkpt lat="48.112610" lon="2.246290">
        <time>2017-06-24T15:21:19Z</time>
      </trkpt>
      <trkpt lat="48.112620" lon="2.246760">
        <time>2017-06-24T15:21:20Z</time>
      </trkpt>
      <trkpt lat="48.112640" lon="2.247260">
        <time>2017-06-24T15:21:21Z</time>
      </trkpt>
      <trkpt lat="48.112670" lon="2.247760">
        <time>2017-06-24T15:21:22Z</time>
      </trkpt>
      <trkpt lat="48.112690" lon="2.248250">
        <time>2017-06-24T15:21:23Z</time>
      </trkpt>
      <trkpt lat="48.112710" lon="2.248780">
        <time>2017-06-24T15:21:24Z</time>
      </trkpt>
      <trkpt lat="48.112730" lon="2.249240">
        <time>2017-06-24T15:21:25Z</time>
      </trkpt>
      <trkpt lat="48.112760" lon="2.249740">
        <time>2017-06-24T15:21:26Z</time>
      </trkpt>
      <trkpt lat="48.112780" lon="2.250270">
        <time>2017-06-24T15:21:27Z</time>
      </trkpt>
      <trkpt lat="48.112800" lon="2.250740">
        <time>2017-06-24T15:21:28Z</time>
      </trkpt>
      <trkpt lat="48.112820" lon="2.251240">
        <time>2017-06-24T15:21:29Z</time>
      </trkpt>
      <trkpt lat="48.112850" lon="2.251770">
        <time>2017-06-24T15:21:30Z</time>
      </trkpt>
      <trkpt lat="48.112880" lon="2.252230">
        <time>2017-06-24T15:21:31Z</time>
      </trkpt>
      <trkpt lat="48.112900" lon="2.252770">
        <time>2017-06-24T15:21:32Z</time>
      </trkpt>
      <trkpt lat="48.112930" lon="2.253240">
        <time>2017-06-24T15:21:33Z</time>
      </trkpt>
      <trkpt lat="48.112940" lon="2.253740">
        <time>2017-06-24T15:21:34Z</time>
      </trkpt>
      <trkpt lat="48.112970" lon="2.254270">
        <time>2017-06-24T15:21:35Z</time>
      </trkpt>
      <trkpt lat="48.112990" lon="2.254740">
        <time>2017-06-24T15:21:36Z</time>
      </trkpt>
      <trkpt lat="48.113020" lon="2.255240">
        <time>2017-06-24T15:21:37Z</time>
      </trkpt>
      <trkpt lat="48.113040" lon="2.255750">
        <time>2017-06-24T15:21:38Z</time>
      </trkpt>
      <trkpt lat="48.113060" lon="2.256260">
        <time>2017-06-24T15:21:39Z</time>
      </trkpt>
      <trkpt lat="48.113080" lon="2.256790">
        <time>2017-06-24T15:21:40Z</time>
      </trkpt>
      <trkpt lat="48.113100" lon="2.257270">
        <time>2017-06-24T15:21:41Z</time>
      </trkpt>
      <trkpt lat="48.113110" lon="2.257790">
        <time>2017-06-24T15:21:42Z</time>
      </trkpt>
      <trkpt lat="48.113130" lon="2.258340">
        <time>2017-06-24T15:21:43Z</time>
      </trkpt>
      <trkpt lat="48.113140" lon="2.258820">
        <time>2017-06-24T15:21:44Z</time>
      </trkpt>
      <trkpt lat="48.113160" lon="2.259330">
        <time>2017-06-24T15:21:45Z</time>
      </trkpt>
      <trkpt lat="48.113170" lon="2.259880">
        <time>2017-06-24T15:21:46Z</time>
      </trkpt>
      <trkpt lat="48.113180" lon="2.260360">
        <time>2017-06-24T15:21:47Z</time>
      </trkpt>
      <trkpt lat="48.113190" lon="2.260900">
        <time>2017-06-24T15:21:48Z</time>
      </trkpt>
      <trkpt lat="48.113200" lon="2.261370">
        <time>2017-06-24T15:21:49Z</time>
      </trkpt>
      <trkpt lat="48.113200" lon="2.261870">
        <time>2017-06-24T15:21:50Z</time>
      </trkpt>
      <trkpt lat="48.113200" lon="2.262390">
        <time>2017-06-24T15:21:51Z</time>
      </trkpt>
      <trkpt lat="48.113200" lon="2.262840">
        <time>2017-06-24T15:21:52Z</time>
      </trkpt>
      <trkpt lat="48.113200" lon="2.263330">
        <time>2017-06-24T15:21:53Z</time>
      </trkpt>
      <trkpt lat="48.113210" lon="2.263810">
        <time>2017-06-24T15:21:54Z</time>
      </trkpt>
      <trkpt lat="48.113210" lon="2.264300">
        <time>2017-06-24T15:21:55Z</time>
      </trkpt>
      <trkpt lat="48.113200" lon="2.264800">
        <time>2017-06-24T15:21:56Z</time>
      </trkpt>
      <trkpt lat="48.113190" lon="2.265250">
        <time>2017-06-24T15:21:57Z</time>
      </trkpt>
      <trkpt lat="48.113180" lon="2.265730">
        <time>2017-06-24T15:21:58Z</time>
      </trkpt>
      <trkpt lat="48.113180" lon="2.266230">
        <time>2017-06-24T15:21:59Z</time>
      </trkpt>
      <trkpt lat="48.113170" lon="2.266680">
        <time>2017-06-24T15:22:00Z</time>
      </trkpt>
      <trkpt lat="48.113160" lon="2.267160">
        <time>2017-06-24T15:22:01Z</time>
      </trkpt>
      <trkpt lat="48.113160" lon="2.267660">
        <time>2017-06-24T15:22:02Z</time>
      </trkpt>
      <trkpt lat="48.113140" lon="2.268100">
        <time>2017-06-24T15:22:03Z</time>
      </trkpt>
      <trkpt lat="48.113130" lon="2.268610">
        <time>2017-06-24T15:22:04Z</time>
      </trkpt>
      <trkpt lat="48.113130" lon="2.269060">
        <time>2017-06-24T15:22:05Z</time>
      </trkpt>
      <trkpt lat="48.113120" lon="2.269540">
        <time>2017-06-24T15:22:06Z</time>
      </trkpt>
      <trkpt lat="48.113100" lon="2.270050">
        <time>2017-06-24T15:22:07Z</time>
      </trkpt>
      <trkpt lat="48.113090" lon="2.270500">
        <time>2017-06-24T15:22:08Z</time>
      </trkpt>
      <trkpt lat="48.113080" lon="2.270990">
        <time>2017-06-24T15:22:09Z</time>
      </trkpt>
      <trkpt lat="48.113060" lon="2.271470">
        <time>2017-06-24T15:22:10Z</time>
      </trkpt>
      <trkpt lat="48.113040" lon="2.271960">
        <time>2017-06-24T15:22:11Z</time>
      </trkpt>
      <trkpt lat="48.113020" lon="2.272470">
        <time>2017-06-24T15:22:12Z</time>
      </trkpt>
      <trkpt lat="48.113000" lon="2.272920">
        <time>2017-06-24T15:22:13Z</time>
      </trkpt>
      <trkpt lat="48.112980" lon="2.273400">
        <time>2017-06-24T15:22:14Z</time>
      </trkpt>
      <trkpt lat="48.112960" lon="2.273910">
        <time>2017-06-24T15:22:15Z</time>
      </trkpt>
      <trkpt lat="48.112940" lon="2.274370">
        <time>2017-06-24T15:22:16Z</time>
      </trkpt>
      <trkpt lat="48.112910" lon="2.274860">
        <time>2017-06-24T15:22:17Z</time>
      </trkpt>
      <trkpt lat="48.112890" lon="2.275370">
        <time>2017-06-24T15:22:18Z</time>
      </trkpt>
      <trkpt lat="48.112860" lon="2.275830">
        <time>2017-06-24T15:22:19Z</time>
      </trkpt>
      <trkpt lat="48.112830" lon="2.276340">
        <time>2017-06-24T15:22:20Z</time>
      </trkpt>
      <trkpt lat="48.112800" lon="2.276780">
        <time>2017-06-24T15:22:21Z</time>
      </trkpt>
      <trkpt lat="48.112760" lon="2.277260">
        <time>2017-06-24T15:22:22Z</time>
      </trkpt>
      <trkpt lat="48.112730" lon="2.277770">
        <time>2017-06-24T15:22:23Z</time>
      </trkpt>
      <trkpt lat="48.112700" lon="2.278210">
        <time>2017-06-24T15:22:24Z</time>
      </trkpt>
      <trkpt lat="48.112660" lon="2.278690">
        <time>2017-06-24T15:22:25Z</time>
      </trkpt>
      <trkpt lat="48.112630" lon="2.279160">
        <time>2017-06-24T15:22:26Z</time>
      </trkpt>
      <trkpt lat="48.112590" lon="2.279630">
        <time>2017-06-24T15:22:27Z</time>
      </trkpt>
      <trkpt lat="48.112550" lon="2.280130">
        <time>2017-06-24T15:22:28Z</time>
      </trkpt>
      <trkpt lat="48.112510" lon="2.280570">
        <time>2017-06-24T15:22:29Z</time>
      </trkpt>
      <trkpt lat="48.112470" lon="2.281040">
        <time>2017-06-24T15:22:30Z</time>
      </trkpt>
      <trkpt lat="48.112430" lon="2.281550">
        <time>2017-06-24T15:22:31Z</time>
      </trkpt>
      <trkpt lat="48.112390" lon="2.281990">
        <time>2017-06-24T15:22:32Z</time>
      </trkpt>
      <trkpt lat="48.112340" lon="2.282470">
        <time>2017-06-24T15:22:33Z</time>
      </trkpt>
      <trkpt lat="48.112290" lon="2.282970">
        <time>2017-06-24T15:22:34Z</time>
      </trkpt>
      <trkpt lat="48.112250" lon="2.283420">
        <time>2017-06-24T15:22:35Z</time>
      </trkpt>
      <trkpt lat="48.112200" lon="2.283940">
        <time>2017-06-24T15:22:36Z</time>
      </trkpt>
      <trkpt lat="48.112150" lon="2.284390">
        <time>2017-06-24T15:22:37Z</time>
      </trkpt>
      <trkpt lat="48.112110" lon="2.284870">
        <time>2017-06-24T15:22:38Z</time>
      </trkpt>
      <trkpt lat="48.112060" lon="2.285370">
        <time>2017-06-24T15:22:39Z</time>
      </trkpt>
      <trkpt lat="48.112020" lon="2.285820">
        <time>2017-06-24T15:22:40Z</time>
      </trkpt>
      <trkpt lat="48.111970" lon="2.286290">
        <time>2017-06-24T15:22:41Z</time>
      </trkpt>
      <trkpt lat="48.111930" lon="2.286770">
        <time>2017-06-24T15:22:42Z</time>
      </trkpt>
      <trkpt lat="48.111880" lon="2.287250">
        <time>2017-06-24T15:22:43Z</time>
      </trkpt>
      <trkpt lat="48.111830" lon="2.287770">
        <time>2017-06-24T15:22:44Z</time>
      </trkpt>
      <trkpt lat="48.111780" lon="2.288210">
        <time>2017-06-24T15:22:45Z</time>
      </trkpt>
      <trkpt lat="48.111740" lon="2.288690">
        <time>2017-06-24T15:22:46Z</time>
      </trkpt>
      <trkpt lat="48.111690" lon="2.289200">
        <time>2017-06-24T15:22:47Z</time>
      </trkpt>
      <trkpt lat="48.111640" lon="2.289650">
        <time>2017-06-24T15:22:48Z</time>
      </trkpt>
      <trkpt lat="48.111590" lon="2.290130">
        <time>2017-06-24T15:22:49Z</time>
      </trkpt>
      <trkpt lat="48.111540" lon="2.290640">
        <time>2017-06-24T15:22:50Z</time>
      </trkpt>
      <trkpt lat="48.111500" lon="2.291090">
        <time>2017-06-24T15:22:51Z</time>
      </trkpt>
      <trkpt lat="48.111450" lon="2.291610">
        <time>2017-06-24T15:22:52Z</time>
      </trkpt>
      <trkpt lat="48.111400" lon="2.292070">
        <time>2017-06-24T15:22:53Z</time>
      </trkpt>
      <trkpt lat="48.111360" lon="2.292550">
        <time>2017-06-24T15:22:54Z</time>
      </trkpt>
      <trkpt lat="48.111310" lon="2.293070">
        <time>2017-06-24T15:22:55Z</time>
      </trkpt>
      <trkpt lat="48.111260" lon="2.293530">
        <time>2017-06-24T15:22:56Z</time>
      </trkpt>
      <trkpt lat="48.111210" lon="2.294020">
        <time>2017-06-24T15:22:57Z</time>
      </trkpt>
      <trkpt lat="48.111160" lon="2.294520">
        <time>2017-06-24T15:22:58Z</time>
      </trkpt>
      <trkpt lat="48.111120" lon="2.295020">
        <time>2017-06-24T15:22:59Z</time>
      </trkpt>
      <trkpt lat="48.111060" lon="2.295550">
        <time>2017-06-24T15:23:00Z</time>
      </trkpt>
      <trkpt lat="48.111020" lon="2.296010">
        <time>2017-06-24T15:23:01Z</time>
      </trkpt>
      <trkpt lat="48.110970" lon="2.296510">
        <time>2017-06-24T15:23:02Z</time>
      </trkpt>
      <trkpt lat="48.110920" lon="2.297040">
        <time>2017-06-24T15:23:03Z</time>
      </trkpt>
      <trkpt lat="48.110880" lon="2.297500">
        <time>2017-06-24T15:23:04Z</time>
      </trkpt>
      <trkpt lat="48.110830" lon="2.298000">
        <time>2017-06-24T15:23:05Z</time>
      </trkpt>
      <trkpt lat="48.110780" lon="2.298530">
        <time>2017-06-24T15:23:06Z</time>
      </trkpt>
      <trkpt lat="48.110730" lon="2.299000">
        <time>2017-06-24T15:23:07Z</time>
      </trkpt>
      <trkpt lat="48.110680" lon="2.299520">
        <time>2017-06-24T15:23:08Z</time>
      </trkpt>
      <trkpt lat="48.110630" lon="2.299980">
        <time>2017-06-24T15:23:09Z</time>
      </trkpt>
      <trkpt lat="48.110580" lon="2.300460">
        <time>2017-06-24T15:23:10Z</time>
      </trkpt>
      <trkpt lat="48.110520" lon="2.300980">
        <time>2017-06-24T15:23:11Z</time>
      </trkpt>
      <trkpt lat="48.110460" lon="2.301430">
        <time>2017-06-24T15:23:12Z</time>
      </trkpt>
      <trkpt lat="48.110400" lon="2.301920">
        <time>2017-06-24T15:23:13Z</time>
      </trkpt>
      <trkpt lat="48.110340" lon="2.302400">
        <time>2017-06-24T15:23:14Z</time>
      </trkpt>
      <trkpt lat="48.110280" lon="2.302890">
        <time>2017-06-24T15:23:15Z</time>
      </trkpt>
      <trkpt lat="48.110200" lon="2.303400">
        <time>2017-06-24T15:23:16Z</time>
      </trkpt>
      <trkpt lat="48.110140" lon="2.303870">
        <time>2017-06-24T15:23:17Z</time>
      </trkpt>
      <trkpt lat="48.110070" lon="2.304350">
        <time>2017-06-24T15:23:18Z</time>
      </trkpt>
      <trkpt lat="48.110000" lon="2.304870">
        <time>2017-06-24T15:23:19Z</time>
      </trkpt>
      <trkpt lat="48.109930" lon="2.305330">
        <time>2017-06-24T15:23:20Z</time>
      </trkpt>
      <trkpt lat="48.109860" lon="2.305820">
        <time>2017-06-24T15:23:21Z</time>
      </trkpt>
      <trkpt lat="48.109770" lon="2.306350">
        <time>2017-06-24T15:23:22Z</time>
      </trkpt>
      <trkpt lat="48.109700" lon="2.306810">
        <time>2017-06-24T15:23:23Z</time>
      </trkpt>
      <trkpt lat="48.109610" lon="2.307340">
        <time>2017-06-24T15:23:24Z</time>
      </trkpt>
      <trkpt lat="48.109520" lon="2.307800">
        <time>2017-06-24T15:23:25Z</time>
      </trkpt>
      <trkpt lat="48.109430" lon="2.308300">
        <time>2017-06-24T15:23:26Z</time>
      </trkpt>
      <trkpt lat="48.109330" lon="2.308840">
        <time>2017-06-24T15:23:27Z</time>
      </trkpt>
      <trkpt lat="48.109240" lon="2.309310">
        <time>2017-06-24T15:23:28Z</time>
      </trkpt>
      <trkpt lat="48.109150" lon="2.309810">
        <time>2017-06-24T15:23:29Z</time>
      </trkpt>
      <trkpt lat="48.109040" lon="2.310310">
        <time>2017-06-24T15:23:30Z</time>
      </trkpt>
      <trkpt lat="48.108950" lon="2.310820">
        <time>2017-06-24T15:23:31Z</time>
      </trkpt>
      <trkpt lat="48.108830" lon="2.311350">
        <time>2017-06-24T15:23:32Z</time>
      </trkpt>
      <trkpt lat="48.108740" lon="2.311820">
        <time>2017-06-24T15:23:33Z</time>
      </trkpt>
      <trkpt lat="48.108620" lon="2.312320">
        <time>2017-06-24T15:23:34Z</time>
      </trkpt>
      <trkpt lat="48.108510" lon="2.312840">
        <time>2017-06-24T15:23:35Z</time>
      </trkpt>
      <trkpt lat="48.108400" lon="2.313300">
        <time>2017-06-24T15:23:36Z</time>
      </trkpt>
      <trkpt lat="48.108290" lon="2.313800">
        <time>2017-06-24T15:23:37Z</time>
      </trkpt>
      <trkpt lat="48.108160" lon="2.314320">
        <time>2017-06-24T15:23:38Z</time>
      </trkpt>
      <trkpt lat="48.108050" lon="2.314780">
        <time>2017-06-24T15:23:39Z</time>
      </trkpt>
      <trkpt lat="48.107920" lon="2.315300">
        <time>2017-06-24T15:23:40Z</time>
      </trkpt>
      <trkpt lat="48.107810" lon="2.315750">
        <time>2017-06-24T15:23:41Z</time>
      </trkpt>
      <trkpt lat="48.107690" lon="2.316230">
        <time>2017-06-24T15:23:42Z</time>
      </trkpt>
      <trkpt lat="48.107560" lon="2.316740">
        <time>2017-06-24T15:23:43Z</time>
      </trkpt>
      <trkpt lat="48.107430" lon="2.317190">
        <time>2017-06-24T15:23:44Z</time>
      </trkpt>
      <trkpt lat="48.107300" lon="2.317670">
        <time>2017-06-24T15:23:45Z</time>
      </trkpt>
      <trkpt lat="48.107170" lon="2.318150">
        <time>2017-06-24T15:23:46Z</time>
      </trkpt>
      <trkpt lat="48.107040" lon="2.318630">
        <time>2017-06-24T15:23:47Z</time>
      </trkpt>
      <trkpt lat="48.106900" lon="2.319130">
        <time>2017-06-24T15:23:48Z</time>
      </trkpt>
      <trkpt lat="48.106770" lon="2.319580">
        <time>2017-06-24T15:23:49Z</time>
      </trkpt>
      <trkpt lat="48.106630" lon="2.320050">
        <time>2017-06-24T15:23:50Z</time>
      </trkpt>
      <trkpt lat="48.106480" lon="2.320550">
        <time>2017-06-24T15:23:51Z</time>
      </trkpt>
      <trkpt lat="48.106350" lon="2.320990">
        <time>2017-06-24T15:23:52Z</time>
      </trkpt>
      <trkpt lat="48.106200" lon="2.321460">
        <time>2017-06-24T15:23:53Z</time>
      </trkpt>
      <trkpt lat="48.106040" lon="2.321970">
        <time>2017-06-24T15:23:54Z</time>
      </trkpt>
      <trkpt lat="48.105900" lon="2.322400">
        <time>2017-06-24T15:23:55Z</time>
      </trkpt>
      <trkpt lat="48.105740" lon="2.322900">
        <time>2017-06-24T15:23:56Z</time>
      </trkpt>
      <trkpt lat="48.105590" lon="2.323330">
        <time>2017-06-24T15:23:57Z</time>
      </trkpt>
      <trkpt lat="48.105440" lon="2.323790">
        <time>2017-06-24T15:23:58Z</time>
      </trkpt>
      <trkpt lat="48.105260" lon="2.324280">
        <time>2017-06-24T15:23:59Z</time>
      </trkpt>
      <trkpt lat="48.105110" lon="2.324710">
        <time>2017-06-24T15:24:00Z</time>
      </trkpt>
      <trkpt lat="48.104960" lon="2.325170">
        <time>2017-06-24T15:24:01Z</time>
      </trkpt>
      <trkpt lat="48.104800" lon="2.325630">
        <time>2017-06-24T15:24:02Z</time>
      </trkpt>
      <trkpt lat="48.104640" lon="2.326090">
        <time>2017-06-24T15:24:03Z</time>
      </trkpt>
      <trkpt lat="48.104470" lon="2.326590">
        <time>2017-06-24T15:24:04Z</time>
      </trkpt>
      <trkpt lat="48.104320" lon="2.327010">
        <time>2017-06-24T15:24:05Z</time>
      </trkpt>
      <trkpt lat="48.104160" lon="2.327470">
        <time>2017-06-24T15:24:06Z</time>
      </trkpt>
      <trkpt lat="48.104000" lon="2.327950">
        <time>2017-06-24T15:24:07Z</time>
      </trkpt>
      <trkpt lat="48.103850" lon="2.328370">
        <time>2017-06-24T15:24:08Z</time>
      </trkpt>
      <trkpt lat="48.103700" lon="2.328820">
        <time>2017-06-24T15:24:09Z</time>
      </trkpt>
      <trkpt lat="48.103540" lon="2.329300">
        <time>2017-06-24T15:24:10Z</time>
      </trkpt>
      <trkpt lat="48.103400" lon="2.329720">
        <time>2017-06-24T15:24:11Z</time>
      </trkpt>
      <trkpt lat="48.103240" lon="2.330200">
        <time>2017-06-24T15:24:12Z</time>
      </trkpt>
      <trkpt lat="48.103100" lon="2.330630">
        <time>2017-06-24T15:24:13Z</time>
      </trkpt>
      <trkpt lat="48.102960" lon="2.331080">
        <time>2017-06-24T15:24:14Z</time>
      </trkpt>
      <trkpt lat="48.102820" lon="2.331570">
        <time>2017-06-24T15:24:15Z</time>
      </trkpt>
      <trkpt lat="48.102690" lon="2.332000">
        <time>2017-06-24T15:24:16Z</time>
      </trkpt>
      <trkpt lat="48.102570" lon="2.332460">
        <time>2017-06-24T15:24:17Z</time>
      </trkpt>
      <trkpt lat="48.102440" lon="2.332920">
        <time>2017-06-24T15:24:18Z</time>
      </trkpt>
      <trkpt lat="48.102330" lon="2.333370">
        <time>2017-06-24T15:24:19Z</time>
      </trkpt>
      <trkpt lat="48.102210" lon="2.333850">
        <time>2017-06-24T15:24:20Z</time>
      </trkpt>
      <trkpt lat="48.102100" lon="2.334280">
        <time>2017-06-24T15:24:21Z</time>
      </trkpt>
      <trkpt lat="48.102000" lon="2.334730">
        <time>2017-06-24T15:24:22Z</time>
      </trkpt>
      <trkpt lat="48.101890" lon="2.335200">
        <time>2017-06-24T15:24:23Z</time>
      </trkpt>
      <trkpt lat="48.101800" lon="2.335630">
        <time>2017-06-24T15:24:24Z</time>
      </trkpt>
      <trkpt lat="48.101710" lon="2.336080">
        <time>2017-06-24T15:24:25Z</time>
      </trkpt>
      <trkpt lat="48.101610" lon="2.336560">
        <time>2017-06-24T15:24:26Z</time>
      </trkpt>
      <trkpt lat="48.101540" lon="2.336980">
        <time>2017-06-24T15:24:27Z</time>
      </trkpt>
      <trkpt lat="48.101450" lon="2.337460">
        <time>2017-06-24T15:24:28Z</time>
      </trkpt>
      <trkpt lat="48.101370" lon="2.337890">
        <time>2017-06-24T15:24:29Z</time>
      </trkpt>
      <trkpt lat="48.101300" lon="2.338340">
        <time>2017-06-24T15:24:30Z</time>
      </trkpt>
      <trkpt lat="48.101220" lon="2.338830">
        <time>2017-06-24T15:24:31Z</time>
      </trkpt>
      <trkpt lat="48.101160" lon="2.339250">
        <time>2017-06-24T15:24:32Z</time>
      </trkpt>
      <trkpt lat="48.101100" lon="2.339710">
        <time>2017-06-24T15:24:33Z</time>
      </trkpt>
      <trkpt lat="48.101030" lon="2.340170">
        <time>2017-06-24T15:24:34Z</time>
      </trkpt>
      <trkpt lat="48.100960" lon="2.340620">
        <time>2017-06-24T15:24:35Z</time>
      </trkpt>
      <trkpt lat="48.100890" lon="2.341100">
        <time>2017-06-24T15:24:36Z</time>
      </trkpt>
      <trkpt lat="48.100830" lon="2.341530">
        <time>2017-06-24T15:24:37Z</time>
      </trkpt>
      <trkpt lat="48.100760" lon="2.341990">
        <time>2017-06-24T15:24:38Z</time>
      </trkpt>
      <trkpt lat="48.100690" lon="2.342480">
        <time>2017-06-24T15:24:39Z</time>
      </trkpt>
      <trkpt lat="48.100630" lon="2.342910">
        <time>2017-06-24T15:24:40Z</time>
      </trkpt>
      <trkpt lat="48.100560" lon="2.343380">
        <time>2017-06-24T15:24:41Z</time>
      </trkpt>
      <trkpt lat="48.100480" lon="2.343880">
        <time>2017-06-24T15:24:42Z</time>
      </trkpt>
      <trkpt lat="48.100420" lon="2.344320">
        <time>2017-06-24T15:24:43Z</time>
      </trkpt>
      <trkpt lat="48.100350" lon="2.344820">
        <time>2017-06-24T15:24:44Z</time>
      </trkpt>
      <trkpt lat="48.100280" lon="2.345260">
        <time>2017-06-24T15:24:45Z</time>
      </trkpt>
      <trkpt lat="48.100210" lon="2.345730">
        <time>2017-06-24T15:24:46Z</time>
      </trkpt>
      <trkpt lat="48.100140" lon="2.346230">
        <time>2017-06-24T15:24:47Z</time>
      </trkpt>
      <trkpt lat="48.100080" lon="2.346660">
        <time>2017-06-24T15:24:48Z</time>
      </trkpt>
      <trkpt lat="48.100010" lon="2.347130">
        <time>2017-06-24T15:24:49Z</time>
      </trkpt>
      <trkpt lat="48.099940" lon="2.347590">
        <time>2017-06-24T15:24:50Z</time>
      </trkpt>
      <trkpt lat="48.099870" lon="2.348060">
        <time>2017-06-24T15:24:51Z</time>
      </trkpt>
      <trkpt lat="48.099800" lon="2.348550">
        <time>2017-06-24T15:24:52Z</time>
      </trkpt>
      <trkpt lat="48.099730" lon="2.348970">
        <time>2017-06-24T15:24:53Z</time>
      </trkpt>
      <trkpt lat="48.099670" lon="2.349430">
        <time>2017-06-24T15:24:54Z</time>
      </trkpt>
      <trkpt lat="48.099590" lon="2.349920">
        <time>2017-06-24T15:24:55Z</time>
      </trkpt>
      <trkpt lat="48.099530" lon="2.350360">
        <time>2017-06-24T15:24:56Z</time>
      </trkpt>
      <trkpt lat="48.099460" lon="2.350820">
        <time>2017-06-24T15:24:57Z</time>
      </trkpt>
      <trkpt lat="48.099390" lon="2.351310">
        <time>2017-06-24T15:24:58Z</time>
      </trkpt>
      <trkpt lat="48.099320" lon="2.351750">
        <time>2017-06-24T15:24:59Z</time>
      </trkpt>
      <trkpt lat="48.099240" lon="2.352250">
        <time>2017-06-24T15:25:00Z</time>
      </trkpt>
      <trkpt lat="48.099180" lon="2.352690">
        <time>2017-06-24T15:25:01Z</time>
      </trkpt>
      <trkpt lat="48.099110" lon="2.353170">
        <time>2017-06-24T15:25:02Z</time>
      </trkpt>
      <trkpt lat="48.099040" lon="2.353680">
        <time>2017-06-24T15:25:03Z</time>
      </trkpt>
      <trkpt lat="48.098970" lon="2.354120">
        <time>2017-06-24T15:25:04Z</time>
      </trkpt>
      <trkpt lat="48.098900" lon="2.354620">
        <time>2017-06-24T15:25:05Z</time>
      </trkpt>
      <trkpt lat="48.098830" lon="2.355100">
        <time>2017-06-24T15:25:06Z</time>
      </trkpt>
      <trkpt lat="48.098750" lon="2.355590">
        <time>2017-06-24T15:25:07Z</time>
      </trkpt>
      <trkpt lat="48.098670" lon="2.356120">
        <time>2017-06-24T15:25:08Z</time>
      </trkpt>
      <trkpt lat="48.098600" lon="2.356580">
        <time>2017-06-24T15:25:09Z</time>
      </trkpt>
      <trkpt lat="48.098530" lon="2.357070">
        <time>2017-06-24T15:25:10Z</time>
      </trkpt>
      <trkpt lat="48.098460" lon="2.357590">
        <time>2017-06-24T15:25:11Z</time>
      </trkpt>
      <trkpt lat="48.098390" lon="2.358050">
        <time>2017-06-24T15:25:12Z</time>
      </trkpt>
      <trkpt lat="48.098320" lon="2.358540">
        <time>2017-06-24T15:25:13Z</time>
      </trkpt>
      <trkpt lat="48.098240" lon="2.359050">
        <time>2017-06-24T15:25:14Z</time>
      </trkpt>
      <trkpt lat="48.098170" lon="2.359510">
        <time>2017-06-24T15:25:15Z</time>
      </trkpt>
      <trkpt lat="48.098100" lon="2.360020">
        <time>2017-06-24T15:25:16Z</time>
      </trkpt>
      <trkpt lat="48.098030" lon="2.360480">
        <time>2017-06-24T15:25:17Z</time>
      </trkpt>
      <trkpt lat="48.097960" lon="2.360960">
        <time>2017-06-24T15:25:18Z</time>
      </trkpt>
      <trkpt lat="48.097890" lon="2.361460">
        <time>2017-06-24T15:25:19Z</time>
      </trkpt>
      <trkpt lat="48.097830" lon="2.361900">
        <time>2017-06-24T15:25:20Z</time>
      </trkpt>
      <trkpt lat="48.097770" lon="2.362380">
        <time>2017-06-24T15:25:21Z</time>
      </trkpt>
      <trkpt lat="48.097710" lon="2.362850">
        <time>2017-06-24T15:25:22Z</time>
      </trkpt>
      <trkpt lat="48.097640" lon="2.363330">
        <time>2017-06-24T15:25:23Z</time>
      </trkpt>
      <trkpt lat="48.097560" lon="2.363840">
        <time>2017-06-24T15:25:24Z</time>
      </trkpt>
      <trkpt lat="48.097500" lon="2.364290">
        <time>2017-06-24T15:25:25Z</time>
      </trkpt>
      <trkpt lat="48.097430" lon="2.364790">
        <time>2017-06-24T15:25:26Z</time>
      </trkpt>
      <trkpt lat="48.097360" lon="2.365310">
        <time>2017-06-24T15:25:27Z</time>
      </trkpt>
      <trkpt lat="48.097300" lon="2.365770">
        <time>2017-06-24T15:25:28Z</time>
      </trkpt>
      <trkpt lat="48.097230" lon="2.366270">
        <time>2017-06-24T15:25:29Z</time>
      </trkpt>
      <trkpt lat="48.097170" lon="2.366800">
        <time>2017-06-24T15:25:30Z</time>
      </trkpt>
      <trkpt lat="48.097110" lon="2.367270">
        <time>2017-06-24T15:25:31Z</time>
      </trkpt>
      <trkpt lat="48.097050" lon="2.367790">
        <time>2017-06-24T15:25:32Z</time>
      </trkpt>
      <trkpt lat="48.096990" lon="2.368250">
        <time>2017-06-24T15:25:33Z</time>
      </trkpt>
      <trkpt lat="48.096930" lon="2.368750">
        <time>2017-06-24T15:25:34Z</time>
      </trkpt>
      <trkpt lat="48.096870" lon="2.369260">
        <time>2017-06-24T15:25:35Z</time>
      </trkpt>
      <trkpt lat="48.096820" lon="2.369720">
        <time>2017-06-24T15:25:36Z</time>
      </trkpt>
      <trkpt lat="48.096770" lon="2.370190">
        <time>2017-06-24T15:25:37Z</time>
      </trkpt>
      <trkpt lat="48.096720" lon="2.370680">
        <time>2017-06-24T15:25:38Z</time>
      </trkpt>
      <trkpt lat="48.096660" lon="2.371160">
        <time>2017-06-24T15:25:39Z</time>
      </trkpt>
      <trkpt lat="48.096600" lon="2.371660">
        <time>2017-06-24T15:25:40Z</time>
      </trkpt>
      <trkpt lat="48.096550" lon="2.372110">
        <time>2017-06-24T15:25:41Z</time>
      </trkpt>
      <trkpt lat="48.096500" lon="2.372580">
        <time>2017-06-24T15:25:42Z</time>
      </trkpt>
      <trkpt lat="48.096450" lon="2.373090">
        <time>2017-06-24T15:25:43Z</time>
      </trkpt>
      <trkpt lat="48.096410" lon="2.373540">
        <time>2017-06-24T15:25:44Z</time>
      </trkpt>
      <trkpt lat="48.096360" lon="2.374020">
        <time>2017-06-24T15:25:45Z</time>
      </trkpt>
      <trkpt lat="48.096310" lon="2.374530">
        <time>2017-06-24T15:25:46Z</time>
      </trkpt>
      <trkpt lat="48.096270" lon="2.374970">
        <time>2017-06-24T15:25:47Z</time>
      </trkpt>
      <trkpt lat="48.096230" lon="2.375480">
        <time>2017-06-24T15:25:48Z</time>
      </trkpt>
      <trkpt lat="48.096200" lon="2.375940">
        <time>2017-06-24T15:25:49Z</time>
      </trkpt>
      <trkpt lat="48.096160" lon="2.376420">
        <time>2017-06-24T15:25:50Z</time>
      </trkpt>
      <trkpt lat="48.096130" lon="2.376940">
        <time>2017-06-24T15:25:51Z</time>
      </trkpt>
      <trkpt lat="48.096100" lon="2.377390">
        <time>2017-06-24T15:25:52Z</time>
      </trkpt>
      <trkpt lat="48.096060" lon="2.377870">
        <time>2017-06-24T15:25:53Z</time>
      </trkpt>
      <trkpt lat="48.096030" lon="2.378350">
        <time>2017-06-24T15:25:54Z</time>
      </trkpt>
      <trkpt lat="48.096000" lon="2.378830">
        <time>2017-06-24T15:25:55Z</time>
      </trkpt>
      <trkpt lat="48.095970" lon="2.379340">
        <time>2017-06-24T15:25:56Z</time>
      </trkpt>
      <trkpt lat="48.095940" lon="2.379790">
        <time>2017-06-24T15:25:57Z</time>
      </trkpt>
      <trkpt lat="48.095910" lon="2.380280">
        <time>2017-06-24T15:25:58Z</time>
      </trkpt>
      <trkpt lat="48.095870" lon="2.380790">
        <time>2017-06-24T15:25:59Z</time>
      </trkpt>
      <trkpt lat="48.095850" lon="2.381250">
        <time>2017-06-24T15:26:00Z</time>
      </trkpt>
      <trkpt lat="48.095820" lon="2.381730">
        <time>2017-06-24T15:26:01Z</time>
      </trkpt>
      <trkpt lat="48.095790" lon="2.382230">
        <time>2017-06-24T15:26:02Z</time>
      </trkpt>
      <trkpt lat="48.095770" lon="2.382680">
        <time>2017-06-24T15:26:03Z</time>
      </trkpt>
      <trkpt lat="48.095760" lon="2.383170">
        <time>2017-06-24T15:26:04Z</time>
      </trkpt>
      <trkpt lat="48.095740" lon="2.383620">
        <time>2017-06-24T15:26:05Z</time>
      </trkpt>
      <trkpt lat="48.095720" lon="2.384090">
        <time>2017-06-24T15:26:06Z</time>
      </trkpt>
      <trkpt lat="48.095700" lon="2.384580">
        <time>2017-06-24T15:26:07Z</time>
      </trkpt>
      <trkpt lat="48.095690" lon="2.385030">
        <time>2017-06-24T15:26:08Z</time>
      </trkpt>
      <trkpt lat="48.095680" lon="2.385490">
        <time>2017-06-24T15:26:09Z</time>
      </trkpt>
      <trkpt lat="48.095660" lon="2.385980">
        <time>2017-06-24T15:26:10Z</time>
      </trkpt>
      <trkpt lat="48.095650" lon="2.386460">
        <time>2017-06-24T15:26:11Z</time>
      </trkpt>
      <trkpt lat="48.095630" lon="2.386990">
        <time>2017-06-24T15:26:12Z</time>
      </trkpt>
      <trkpt lat="48.095620" lon="2.387460">
        <time>2017-06-24T15:26:13Z</time>
      </trkpt>
      <trkpt lat="48.095620" lon="2.387970">
        <time>2017-06-24T15:26:14Z</time>
      </trkpt>
      <trkpt lat="48.095620" lon="2.388520">
        <time>2017-06-24T15:26:15Z</time>
      </trkpt>
      <trkpt lat="48.095620" lon="2.389000">
        <time>2017-06-24T15:26:16Z</time>
      </trkpt>
      <trkpt lat="48.095620" lon="2.389520">
        <time>2017-06-24T15:26:17Z</time>
      </trkpt>
      <trkpt lat="48.095620" lon="2.390070">
        <time>2017-06-24T15:26:18Z</time>
      </trkpt>
      <trkpt lat="48.095620" lon="2.390550">
        <time>2017-06-24T15:26:19Z</time>
      </trkpt>
      <trkpt lat="48.095610" lon="2.391100">
        <time>2017-06-24T15:26:20Z</time>
      </trkpt>
      <trkpt lat="48.095600" lon="2.391580">
        <time>2017-06-24T15:26:21Z</time>
      </trkpt>
      <trkpt lat="48.095600" lon="2.392100">
        <time>2017-06-24T15:26:22Z</time>
      </trkpt>
      <trkpt lat="48.095590" lon="2.392640">
        <time>2017-06-24T15:26:23Z</time>
      </trkpt>
      <trkpt lat="48.095590" lon="2.393120">
        <time>2017-06-24T15:26:24Z</time>
      </trkpt>
      <trkpt lat="48.095590" lon="2.393630">
        <time>2017-06-24T15:26:25Z</time>
      </trkpt>
      <trkpt lat="48.095600" lon="2.394130">
        <time>2017-06-24T15:26:26Z</time>
      </trkpt>
      <trkpt lat="48.095600" lon="2.394640">
        <time>2017-06-24T15:26:27Z</time>
      </trkpt>
      <trkpt lat="48.095610" lon="2.395180">
        <time>2017-06-24T15:26:28Z</time>
      </trkpt>
      <trkpt lat="48.095620" lon="2.395660">
        <time>2017-06-24T15:26:29Z</time>
      </trkpt>
      <trkpt lat="48.095630" lon="2.396170">
        <time>2017-06-24T15:26:30Z</time>
      </trkpt>
      <trkpt lat="48.095630" lon="2.396710">
        <time>2017-06-24T15:26:31Z</time>
      </trkpt>
      <trkpt lat="48.095630" lon="2.397200">
        <time>2017-06-24T15:26:32Z</time>
      </trkpt>
      <trkpt lat="48.095640" lon="2.397700">
        <time>2017-06-24T15:26:33Z</time>
      </trkpt>
      <trkpt lat="48.095640" lon="2.398240">
        <time>2017-06-24T15:26:34Z</time>
      </trkpt>
      <trkpt lat="48.095650" lon="2.398710">
        <time>2017-06-24T15:26:35Z</time>
      </trkpt>
      <trkpt lat="48.095650" lon="2.399240">
        <time>2017-06-24T15:26:36Z</time>
      </trkpt>
      <trkpt lat="48.095660" lon="2.399710">
        <time>2017-06-24T15:26:37Z</time>
      </trkpt>
      <trkpt lat="48.095660" lon="2.400220">
        <time>2017-06-24T15:26:38Z</time>
      </trkpt>
      <trkpt lat="48.095670" lon="2.400760">
        <time>2017-06-24T15:26:39Z</time>
      </trkpt>
      <trkpt lat="48.095670" lon="2.401240">
        <time>2017-06-24T15:26:40Z</time>
      </trkpt>
      <trkpt lat="48.095680" lon="2.401750">
        <time>2017-06-24T15:26:41Z</time>
      </trkpt>
      <trkpt lat="48.095680" lon="2.402250">
        <time>2017-06-24T15:26:42Z</time>
      </trkpt>
      <trkpt lat="48.095690" lon="2.402750">
        <time>2017-06-24T15:26:43Z</time>
      </trkpt>
      <trkpt lat="48.095690" lon="2.403290">
        <time>2017-06-24T15:26:44Z</time>
      </trkpt>
      <trkpt lat="48.095700" lon="2.403760">
        <time>2017-06-24T15:26:45Z</time>
      </trkpt>
      <trkpt lat="48.095700" lon="2.404260">
        <time>2017-06-24T15:26:46Z</time>
      </trkpt>
      <trkpt lat="48.095690" lon="2.404800">
        <time>2017-06-24T15:26:47Z</time>
      </trkpt>
      <trkpt lat="48.095680" lon="2.405270">
        <time>2017-06-24T15:26:48Z</time>
      </trkpt>
      <trkpt lat="48.095660" lon="2.405770">
        <time>2017-06-24T15:26:49Z</time>
      </trkpt>
      <trkpt lat="48.095640" lon="2.406300">
        <time>2017-06-24T15:26:50Z</time>
      </trkpt>
      <trkpt lat="48.095620" lon="2.406780">
        <time>2017-06-24T15:26:51Z</time>
      </trkpt>
      <trkpt lat="48.095580" lon="2.407320">
        <time>2017-06-24T15:26:52Z</time>
      </trkpt>
      <trkpt lat="48.095550" lon="2.407790">
        <time>2017-06-24T15:26:53Z</time>
      </trkpt>
      <trkpt lat="48.095510" lon="2.408310">
        <time>2017-06-24T15:26:54Z</time>
      </trkpt>
      <trkpt lat="48.095460" lon="2.408850">
        <time>2017-06-24T15:26:55Z</time>
      </trkpt>
      <trkpt lat="48.095420" lon="2.409320">
        <time>2017-06-24T15:26:56Z</time>
      </trkpt>
      <trkpt lat="48.095360" lon="2.409810">
        <time>2017-06-24T15:26:57Z</time>
      </trkpt>
      <trkpt lat="48.095300" lon="2.410310">
        <time>2017-06-24T15:26:58Z</time>
      </trkpt>
      <trkpt lat="48.095250" lon="2.410800">
        <time>2017-06-24T15:26:59Z</time>
      </trkpt>
      <trkpt lat="48.095170" lon="2.411330">
        <time>2017-06-24T15:27:00Z</time>
      </trkpt>
      <trkpt lat="48.095110" lon="2.411780">
        <time>2017-06-24T15:27:01Z</time>
      </trkpt>
      <trkpt lat="48.095030" lon="2.412260">
        <time>2017-06-24T15:27:02Z</time>
      </trkpt>
      <trkpt lat="48.094950" lon="2.412770">
        <time>2017-06-24T15:27:03Z</time>
      </trkpt>
      <trkpt lat="48.094870" lon="2.413220">
        <time>2017-06-24T15:27:04Z</time>
      </trkpt>
      <trkpt lat="48.094780" lon="2.413690">
        <time>2017-06-24T15:27:05Z</time>
      </trkpt>
      <trkpt lat="48.094690" lon="2.414200">
        <time>2017-06-24T15:27:06Z</time>
      </trkpt>
      <trkpt lat="48.094600" lon="2.414640">
        <time>2017-06-24T15:27:07Z</time>
      </trkpt>
      <trkpt lat="48.094490" lon="2.415140">
        <time>2017-06-24T15:27:08Z</time>
      </trkpt>
      <trkpt lat="48.094390" lon="2.415570">
        <time>2017-06-24T15:27:09Z</time>
      </trkpt>
      <trkpt lat="48.094280" lon="2.416040">
        <time>2017-06-24T15:27:10Z</time>
      </trkpt>
      <trkpt lat="48.094150" lon="2.416540">
        <time>2017-06-24T15:27:11Z</time>
      </trkpt>
      <trkpt lat="48.094040" lon="2.416980">
        <time>2017-06-24T15:27:12Z</time>
      </trkpt>
      <trkpt lat="48.093910" lon="2.417450">
        <time>2017-06-24T15:27:13Z</time>
      </trkpt>
      <trkpt lat="48.093780" lon="2.417920">
        <time>2017-06-24T15:27:14Z</time>
      </trkpt>
      <trkpt lat="48.093650" lon="2.418380">
        <time>2017-06-24T15:27:15Z</time>
      </trkpt>
      <trkpt lat="48.093500" lon="2.418870">
        <time>2017-06-24T15:27:16Z</time>
      </trkpt>
      <trkpt lat="48.093370" lon="2.419300">
        <time>2017-06-24T15:27:17Z</time>
      </trkpt>
      <trkpt lat="48.093220" lon="2.419750">
        <time>2017-06-24T15:27:18Z</time>
      </trkpt>
      <trkpt lat="48.093060" lon="2.420220">
        <time>2017-06-24T15:27:19Z</time>
      </trkpt>
      <trkpt lat="48.092920" lon="2.420640">
        <time>2017-06-24T15:27:20Z</time>
      </trkpt>
      <trkpt lat="48.092760" lon="2.421070">
        <time>2017-06-24T15:27:21Z</time>
      </trkpt>
      <trkpt lat="48.092590" lon="2.421540">
        <time>2017-06-24T15:27:22Z</time>
      </trkpt>
      <trkpt lat="48.092440" lon="2.421930">
        <time>2017-06-24T15:27:23Z</time>
      </trkpt>
      <trkpt lat="48.092260" lon="2.422390">
        <time>2017-06-24T15:27:24Z</time>
      </trkpt>
      <trkpt lat="48.092100" lon="2.422780">
        <time>2017-06-24T15:27:25Z</time>
      </trkpt>
      <trkpt lat="48.091930" lon="2.423190">
        <time>2017-06-24T15:27:26Z</time>
      </trkpt>
      <trkpt lat="48.091730" lon="2.423630">
        <time>2017-06-24T15:27:27Z</time>
      </trkpt>
      <trkpt lat="48.091560" lon="2.424010">
        <time>2017-06-24T15:27:28Z</time>
      </trkpt>
      <trkpt lat="48.091380" lon="2.424410">
        <time>2017-06-24T15:27:29Z</time>
      </trkpt>
      <trkpt lat="48.091190" lon="2.424800">
        <time>2017-06-24T15:27:30Z</time>
      </trkpt>
      <trkpt lat="48.091000" lon="2.425200">
        <time>2017-06-24T15:27:31Z</time>
      </trkpt>
      <trkpt lat="48.090790" lon="2.425610">
        <time>2017-06-24T15:27:32Z</time>
      </trkpt>
      <trkpt lat="48.090600" lon="2.425970">
        <time>2017-06-24T15:27:33Z</time>
      </trkpt>
      <trkpt lat="48.090410" lon="2.426360">
        <time>2017-06-24T15:27:34Z</time>
      </trkpt>
      <trkpt lat="48.090200" lon="2.426780">
        <time>2017-06-24T15:27:35Z</time>
      </trkpt>
      <trkpt lat="48.090010" lon="2.427150">
        <time>2017-06-24T15:27:36Z</time>
      </trkpt>
      <trkpt lat="48.089820" lon="2.427540">
        <time>2017-06-24T15:27:37Z</time>
      </trkpt>
      <trkpt lat="48.089610" lon="2.427960">
        <time>2017-06-24T15:27:38Z</time>
      </trkpt>
      <trkpt lat="48.089430" lon="2.428340">
        <time>2017-06-24T15:27:39Z</time>
      </trkpt>
      <trkpt lat="48.089220" lon="2.428760">
        <time>2017-06-24T15:27:40Z</time>
      </trkpt>
      <trkpt lat="48.089030" lon="2.429120">
        <time>2017-06-24T15:27:41Z</time>
      </trkpt>
      <trkpt lat="48.088840" lon="2.429510">
        <time>2017-06-24T15:27:42Z</time>
      </trkpt>
      <trkpt lat="48.088630" lon="2.429920">
        <time>2017-06-24T15:27:43Z</time>
      </trkpt>
      <trkpt lat="48.088450" lon="2.430290">
        <time>2017-06-24T15:27:44Z</time>
      </trkpt>
      <trkpt lat="48.088250" lon="2.430680">
        <time>2017-06-24T15:27:45Z</time>
      </trkpt>
      <trkpt lat="48.088060" lon="2.431070">
        <time>2017-06-24T15:27:46Z</time>
      </trkpt>
      <trkpt lat="48.087870" lon="2.431460">
        <time>2017-06-24T15:27:47Z</time>
      </trkpt>
      <trkpt lat="48.087670" lon="2.431870">
        <time>2017-06-24T15:27:48Z</time>
      </trkpt>
      <trkpt lat="48.087490" lon="2.432230">
        <time>2017-06-24T15:27:49Z</time>
      </trkpt>
      <trkpt lat="48.087300" lon="2.432630">
        <time>2017-06-24T15:27:50Z</time>
      </trkpt>
      <trkpt lat="48.087110" lon="2.433060">
        <time>2017-06-24T15:27:51Z</time>
      </trkpt>
      <trkpt lat="48.086950" lon="2.433430">
        <time>2017-06-24T15:27:52Z</time>
      </trkpt>
      <trkpt lat="48.086770" lon="2.433840">
        <time>2017-06-24T15:27:53Z</time>
      </trkpt>
      <trkpt lat="48.086590" lon="2.434280">
        <time>2017-06-24T15:27:54Z</time>
      </trkpt>
      <trkpt lat="48.086430" lon="2.434660">
        <time>2017-06-24T15:27:55Z</time>
      </trkpt>
      <trkpt lat="48.086250" lon="2.435100">
        <time>2017-06-24T15:27:56Z</time>
      </trkpt>
      <trkpt lat="48.086100" lon="2.435490">
        <time>2017-06-24T15:27:57Z</time>
      </trkpt>
      <trkpt lat="48.085950" lon="2.435910">
        <time>2017-06-24T15:27:58Z</time>
      </trkpt>
      <trkpt lat="48.085780" lon="2.436360">
        <time>2017-06-24T15:27:59Z</time>
      </trkpt>
      <trkpt lat="48.085640" lon="2.436750">
        <time>2017-06-24T15:28:00Z</time>
      </trkpt>
      <trkpt lat="48.085500" lon="2.437190">
        <time>2017-06-24T15:28:01Z</time>
      </trkpt>
      <trkpt lat="48.085350" lon="2.437630">
        <time>2017-06-24T15:28:02Z</time>
      </trkpt>
      <trkpt lat="48.085220" lon="2.438080">
        <time>2017-06-24T15:28:03Z</time>
      </trkpt>
      <trkpt lat="48.085070" lon="2.438560">
        <time>2017-06-24T15:28:04Z</time>
      </trkpt>
      <trkpt lat="48.084950" lon="2.438990">
        <time>2017-06-24T15:28:05Z</time>
      </trkpt>
      <trkpt lat="48.084820" lon="2.439450">
        <time>2017-06-24T15:28:06Z</time>
      </trkpt>
      <trkpt lat="48.084690" lon="2.439940">
        <time>2017-06-24T15:28:07Z</time>
      </trkpt>
      <trkpt lat="48.084560" lon="2.440380">
        <time>2017-06-24T15:28:08Z</time>
      </trkpt>
      <trkpt lat="48.084440" lon="2.440850">
        <time>2017-06-24T15:28:09Z</time>
      </trkpt>
      <trkpt lat="48.084330" lon="2.441360">
        <time>2017-06-24T15:28:10Z</time>
      </trkpt>
      <trkpt lat="48.084230" lon="2.441810">
        <time>2017-06-24T15:28:11Z</time>
      </trkpt>
      <trkpt lat="48.084110" lon="2.442320">
        <time>2017-06-24T15:28:12Z</time>
      </trkpt>
      <trkpt lat="48.084010" lon="2.442790">
        <time>2017-06-24T15:28:13Z</time>
      </trkpt>
      <trkpt lat="48.083920" lon="2.443280">
        <time>2017-06-24T15:28:14Z</time>
      </trkpt>
      <trkpt lat="48.083820" lon="2.443800">
        <time>2017-06-24T15:28:15Z</time>
      </trkpt>
      <trkpt lat="48.083740" lon="2.444270">
        <time>2017-06-24T15:28:16Z</time>
      </trkpt>
      <trkpt lat="48.083650" lon="2.444770">
        <time>2017-06-24T15:28:17Z</time>
      </trkpt>
      <trkpt lat="48.083580" lon="2.445270">
        <time>2017-06-24T15:28:18Z</time>
      </trkpt>
      <trkpt lat="48.083510" lon="2.445770">
        <time>2017-06-24T15:28:19Z</time>
      </trkpt>
      <trkpt lat="48.083440" lon="2.446300">
        <time>2017-06-24T15:28:20Z</time>
      </trkpt>
      <trkpt lat="48.083370" lon="2.446770">
        <time>2017-06-24T15:28:21Z</time>
      </trkpt>
      <trkpt lat="48.083310" lon="2.447280">
        <time>2017-06-24T15:28:22Z</time>
      </trkpt>
      <trkpt lat="48.083260" lon="2.447820">
        <time>2017-06-24T15:28:23Z</time>
      </trkpt>
      <trkpt lat="48.083200" lon="2.448280">
        <time>2017-06-24T15:28:24Z</time>
      </trkpt>
      <trkpt lat="48.083150" lon="2.448780">
        <time>2017-06-24T15:28:25Z</time>
      </trkpt>
      <trkpt lat="48.083110" lon="2.449320">
        <time>2017-06-24T15:28:26Z</time>
      </trkpt>
      <trkpt lat="48.083080" lon="2.449800">
        <time>2017-06-24T15:28:27Z</time>
      </trkpt>
      <trkpt lat="48.083050" lon="2.450340">
        <time>2017-06-24T15:28:28Z</time>
      </trkpt>
      <trkpt lat="48.083040" lon="2.450800">
        <time>2017-06-24T15:28:29Z</time>
      </trkpt>
      <trkpt lat="48.083020" lon="2.451300">
        <time>2017-06-24T15:28:30Z</time>
      </trkpt>
      <trkpt lat="48.083010" lon="2.451840">
        <time>2017-06-24T15:28:31Z</time>
      </trkpt>
      <trkpt lat="48.083000" lon="2.452310">
        <time>2017-06-24T15:28:32Z</time>
      </trkpt>
      <trkpt lat="48.082990" lon="2.452810">
        <time>2017-06-24T15:28:33Z</time>
      </trkpt>
      <trkpt lat="48.082990" lon="2.453310">
        <time>2017-06-24T15:28:34Z</time>
      </trkpt>
      <trkpt lat="48.082980" lon="2.453810">
        <time>2017-06-24T15:28:35Z</time>
      </trkpt>
      <trkpt lat="48.082980" lon="2.454330">
        <time>2017-06-24T15:28:36Z</time>
      </trkpt>
      <trkpt lat="48.082980" lon="2.454800">
        <time>2017-06-24T15:28:37Z</time>
      </trkpt>
      <trkpt lat="48.082970" lon="2.455290">
        <time>2017-06-24T15:28:38Z</time>
      </trkpt>
      <trkpt lat="48.082960" lon="2.455820">
        <time>2017-06-24T15:28:39Z</time>
      </trkpt>
      <trkpt lat="48.082960" lon="2.456280">
        <time>2017-06-24T15:28:40Z</time>
      </trkpt>
      <trkpt lat="48.082950" lon="2.456770">
        <time>2017-06-24T15:28:41Z</time>
      </trkpt>
      <trkpt lat="48.082940" lon="2.457290">
        <time>2017-06-24T15:28:42Z</time>
      </trkpt>
      <trkpt lat="48.082940" lon="2.457750">
        <time>2017-06-24T15:28:43Z</time>
      </trkpt>
      <trkpt lat="48.082930" lon="2.458250">
        <time>2017-06-24T15:28:44Z</time>
      </trkpt>
      <trkpt lat="48.082920" lon="2.458670">
        <time>2017-06-24T15:28:45Z</time>
      </trkpt>
      <trkpt lat="48.082900" lon="2.459130">
        <time>2017-06-24T15:28:46Z</time>
      </trkpt>
      <trkpt lat="48.082900" lon="2.459600">
        <time>2017-06-24T15:28:47Z</time>
      </trkpt>
      <trkpt lat="48.082890" lon="2.459990">
        <time>2017-06-24T15:28:48Z</time>
      </trkpt>
      <trkpt lat="48.082870" lon="2.460400">
        <time>2017-06-24T15:28:49Z</time>
      </trkpt>
      <trkpt lat="48.082860" lon="2.460800">
        <time>2017-06-24T15:28:50Z</time>
      </trkpt>
      <trkpt lat="48.082850" lon="2.461180">
        <time>2017-06-24T15:28:51Z</time>
      </trkpt>
      <trkpt lat="48.082830" lon="2.461570">
        <time>2017-06-24T15:28:52Z</time>
      </trkpt>
      <trkpt lat="48.082820" lon="2.461910">
        <time>2017-06-24T15:28:53Z</time>
      </trkpt>
      <trkpt lat="48.082810" lon="2.462240">
        <time>2017-06-24T15:28:54Z</time>
      </trkpt>
      <trkpt lat="48.082800" lon="2.462580">
        <time>2017-06-24T15:28:55Z</time>
      </trkpt>
      <trkpt lat="48.082790" lon="2.462860">
        <time>2017-06-24T15:28:56Z</time>
      </trkpt>
      <trkpt lat="48.082780" lon="2.463130">
        <time>2017-06-24T15:28:57Z</time>
      </trkpt>
      <trkpt lat="48.082770" lon="2.463410">
        <time>2017-06-24T15:28:58Z</time>
      </trkpt>
      <trkpt lat="48.082750" lon="2.463640">
        <time>2017-06-24T15:28:59Z</time>
      </trkpt>
      <trkpt lat="48.082710" lon="2.463900">
        <time>2017-06-24T15:29:00Z</time>
      </trkpt>
      <trkpt lat="48.082640" lon="2.464120">
        <time>2017-06-24T15:29:01Z</time>
      </trkpt>
      <trkpt lat="48.082550" lon="2.464340">
        <time>2017-06-24T15:29:02Z</time>
      </trkpt>
      <trkpt lat="48.082430" lon="2.464550">
        <time>2017-06-24T15:29:03Z</time>
      </trkpt>
      <trkpt lat="48.082300" lon="2.464710">
        <time>2017-06-24T15:29:04Z</time>
      </trkpt>
      <trkpt lat="48.082160" lon="2.464860">
        <time>2017-06-24T15:29:05Z</time>
      </trkpt>
      <trkpt lat="48.082030" lon="2.465020">
        <time>2017-06-24T15:29:06Z</time>
      </trkpt>
      <trkpt lat="48.081910" lon="2.465180">
        <time>2017-06-24T15:29:07Z</time>
      </trkpt>
      <trkpt lat="48.081810" lon="2.465380">
        <time>2017-06-24T15:29:08Z</time>
      </trkpt>
      <trkpt lat="48.081750" lon="2.465570">
        <time>2017-06-24T15:29:09Z</time>
      </trkpt>
      <trkpt lat="48.081730" lon="2.465770">
        <time>2017-06-24T15:29:10Z</time>
      </trkpt>
      <trkpt lat="48.081760" lon="2.465990">
        <time>2017-06-24T15:29:11Z</time>
      </trkpt>
      <trkpt lat="48.081820" lon="2.466180">
        <time>2017-06-24T15:29:12Z</time>
      </trkpt>
      <trkpt lat="48.081920" lon="2.466360">
        <time>2017-06-24T15:29:13Z</time>
      </trkpt>
      <trkpt lat="48.082060" lon="2.466520">
        <time>2017-06-24T15:29:14Z</time>
      </trkpt>
      <trkpt lat="48.082200" lon="2.466650">
        <time>2017-06-24T15:29:15Z</time>
      </trkpt>
      <trkpt lat="48.082380" lon="2.466780">
        <time>2017-06-24T15:29:16Z</time>
      </trkpt>
      <trkpt lat="48.082540" lon="2.466910">
        <time>2017-06-24T15:29:17Z</time>
      </trkpt>
      <trkpt lat="48.082710" lon="2.467040">
        <time>2017-06-24T15:29:18Z</time>
      </trkpt>
      <trkpt lat="48.082890" lon="2.467180">
        <time>2017-06-24T15:29:19Z</time>
      </trkpt>
      <trkpt lat="48.083050" lon="2.467290">
        <time>2017-06-24T15:29:20Z</time>
      </trkpt>
      <trkpt lat="48.083200" lon="2.467420">
        <time>2017-06-24T15:29:21Z</time>
      </trkpt>
      <trkpt lat="48.083340" lon="2.467530">
        <time>2017-06-24T15:29:22Z</time>
      </trkpt>
      <trkpt lat="48.083490" lon="2.467650">
        <time>2017-06-24T15:29:23Z</time>
      </trkpt>
      <trkpt lat="48.083640" lon="2.467770">
        <time>2017-06-24T15:29:24Z</time>
      </trkpt>
      <trkpt lat="48.083770" lon="2.467860">
        <time>2017-06-24T15:29:25Z</time>
      </trkpt>
      <trkpt lat="48.083900" lon="2.467970">
        <time>2017-06-24T15:29:26Z</time>
      </trkpt>
      <trkpt lat="48.084020" lon="2.468070">
        <time>2017-06-24T15:29:27Z</time>
      </trkpt>
      <trkpt lat="48.084120" lon="2.468150">
        <time>2017-06-24T15:29:28Z</time>
      </trkpt>
      <trkpt lat="48.084220" lon="2.468230">
        <time>2017-06-24T15:29:29Z</time>
      </trkpt>
      <trkpt lat="48.084300" lon="2.468320">
        <time>2017-06-24T15:29:30Z</time>
      </trkpt>
      <trkpt lat="48.084370" lon="2.468390">
        <time>2017-06-24T15:29:31Z</time>
      </trkpt>
      <trkpt lat="48.084420" lon="2.468490">
        <time>2017-06-24T15:29:32Z</time>
      </trkpt>
      <trkpt lat="48.084450" lon="2.468600">
        <time>2017-06-24T15:29:33Z</time>
      </trkpt>
      <trkpt lat="48.084450" lon="2.468720">
        <time>2017-06-24T15:29:34Z</time>
      </trkpt>
      <trkpt lat="48.084410" lon="2.468860">
        <time>2017-06-24T15:29:35Z</time>
      </trkpt>
      <trkpt lat="48.084340" lon="2.468960">
        <time>2017-06-24T15:29:36Z</time>
      </trkpt>
      <trkpt lat="48.084250" lon="2.469070">
        <time>2017-06-24T15:29:37Z</time>
      </trkpt>
      <trkpt lat="48.084160" lon="2.469180">
        <time>2017-06-24T15:29:38Z</time>
      </trkpt>
      <trkpt lat="48.084080" lon="2.469270">
        <time>2017-06-24T15:29:39Z</time>
      </trkpt>
      <trkpt lat="48.083990" lon="2.469340">
        <time>2017-06-24T15:29:40Z</time>
      </trkpt>
      <trkpt lat="48.083910" lon="2.469360">
        <time>2017-06-24T15:29:41Z</time>
      </trkpt>
      <trkpt lat="48.083840" lon="2.469410">
        <time>2017-06-24T15:29:42Z</time>
      </trkpt>
      <trkpt lat="48.083790" lon="2.469490">
        <time>2017-06-24T15:29:43Z</time>
      </trkpt>
      <trkpt lat="48.083770" lon="2.469590">
        <time>2017-06-24T15:29:44Z</time>
      </trkpt>
      <trkpt lat="48.083790" lon="2.469700">
        <time>2017-06-24T15:29:45Z</time>
      </trkpt>
      <trkpt lat="48.083840" lon="2.469800">
        <time>2017-06-24T15:29:46Z</time>
      </trkpt>
      <trkpt lat="48.083900" lon="2.469870">
        <time>2017-06-24T15:29:47Z</time>
      </trkpt>
      <trkpt lat="48.083960" lon="2.469970">
        <time>2017-06-24T15:29:48Z</time>
      </trkpt>
      <trkpt lat="48.084000" lon="2.470080">
        <time>2017-06-24T15:29:49Z</time>
      </trkpt>
      <trkpt lat="48.084010" lon="2.470200">
        <time>2017-06-24T15:29:50Z</time>
      </trkpt>
      <trkpt lat="48.083990" lon="2.470320">
        <time>2017-06-24T15:29:51Z</time>
      </trkpt>
      <trkpt lat="48.083970" lon="2.470420">
        <time>2017-06-24T15:29:52Z</time>
      </trkpt>
      <trkpt lat="48.083960" lon="2.470520">
        <time>2017-06-24T15:29:53Z</time>
      </trkpt>
      <trkpt lat="48.083970" lon="2.470620">
        <time>2017-06-24T15:29:54Z</time>
      </trkpt>
      <trkpt lat="48.083990" lon="2.470710">
        <time>2017-06-24T15:29:55Z</time>
      </trkpt>
      <trkpt lat="48.084020" lon="2.470810">
        <time>2017-06-24T15:29:56Z</time>
      </trkpt>
      <trkpt lat="48.084050" lon="2.470880">
        <time>2017-06-24T15:29:57Z</time>
      </trkpt>
      <trkpt lat="48.084070" lon="2.470940">
        <time>2017-06-24T15:29:58Z</time>
      </trkpt>
      <trkpt lat="48.084090" lon="2.471000">
        <time>2017-06-24T15:29:59Z</time>
      </trkpt>
      <trkpt lat="48.084100" lon="2.471050">
        <time>2017-06-24T15:30:00Z</time>
      </trkpt>
      <trkpt lat="48.084110" lon="2.471100">
        <time>2017-06-24T15:30:01Z</time>
      </trkpt>
      <trkpt lat="48.084120" lon="2.471160">
        <time>2017-06-24T15:30:02Z</time>
      </trkpt>
      <trkpt lat="48.084120" lon="2.471200">
        <time>2017-06-24T15:30:03Z</time>
      </trkpt>
      <trkpt lat="48.084130" lon="2.471240">
        <time>2017-06-24T15:30:04Z</time>
      </trkpt>
      <trkpt lat="48.084130" lon="2.471270">
        <time>2017-06-24T15:30:05Z</time>
      </trkpt>
      <trkpt lat="48.084130" lon="2.471280">
        <time>2017-06-24T15:30:06Z</time>
      </trkpt>
      <trkpt lat="48.084130" lon="2.471270">
        <time>2017-06-24T15:30:07Z</time>
      </trkpt>
      <trkpt lat="48.084130" lon="2.471270">
        <time>2017-06-24T15:30:08Z</time>
      </trkpt>
      <trkpt lat="48.084130" lon="2.471270">
        <time>2017-06-24T15:30:09Z</time>
      </trkpt>
      <trkpt lat="48.084130" lon="2.471280">
        <time>2017-06-24T15:30:10Z</time>
      </trkpt>
      <trkpt lat="48.084130" lon="2.471280">
        <time>2017-06-24T15:30:11Z</time>
      </trkpt>
      <trkpt lat="48.084130" lon="2.471280">
        <time>2017-06-24T15:30:12Z</time>
      </trkpt>
      <trkpt lat="48.084130" lon="2.471280">
        <time>2017-06-24T15:30:13Z</time>
      </trkpt>
      <trkpt lat="48.084130" lon="2.471280">
        <time>2017-06-24T15:30:14Z</time>
      </trkpt>
      <trkpt lat="48.084130" lon="2.471280">
        <time>2017-06-24T15:30:15Z</time>
      </trkpt>
      <trkpt lat="48.084130" lon="2.471280">
        <time>2017-06-24T15:30:16Z</time>
      </trkpt>
      <trkpt lat="48.084130" lon="2.471280">
        <time>2017-06-24T15:30:17Z</time>
      </trkpt>
      <trkpt lat="48.084130" lon="2.471280">
        <time>2017-06-24T15:30:18Z</time>
      </trkpt>
      <trkpt lat="48.084130" lon="2.471280">
        <time>2017-06-24T15:30:19Z</time>
      </trkpt>
      <trkpt lat="48.084130" lon="2.471280">
        <time>2017-06-24T15:30:20Z</time>
      </trkpt>
      <trkpt lat="48.084130" lon="2.471280">
        <time>2017-06-24T15:30:21Z</time>
      </trkpt>
      <trkpt lat="48.084130" lon="2.471280">
        <time>2017-06-24T15:30:22Z</time>
      </trkpt>
      <trkpt lat="48.084130" lon="2.471280">
        <time>2017-06-24T15:30:23Z</time>
      </trkpt>
      <trkpt lat="48.084130" lon="2.471280">
        <time>2017-06-24T15:30:24Z</time>
      </trkpt>
      <trkpt lat="48.084130" lon="2.471280">
        <time>2017-06-24T15:30:25Z</time>
      </trkpt>
      <trkpt lat="48.084130" lon="2.471280">
        <time>2017-06-24T15:30:26Z</time>
      </trkpt>
      <trkpt lat="48.084130" lon="2.471280">
        <time>2017-06-24T15:30:27Z</time>
      </trkpt>
      <trkpt lat="48.084130" lon="2.471280">
        <time>2017-06-24T15:30:28Z</time>
      </trkpt>
      <trkpt lat="48.084130" lon="2.471280">
        <time>2017-06-24T15:30:29Z</time>
      </trkpt>
      <trkpt lat="48.084130" lon="2.471280">
        <time>2017-06-24T15:30:30Z</time>
      </trkpt>
      <trkpt lat="48.084130" lon="2.471280">
        <time>2017-06-24T15:30:31Z</time>
      </trkpt>
      <trkpt lat="48.084130" lon="2.471280">
        <time>2017-06-24T15:30:32Z</time>
      </trkpt>
      <trkpt lat="48.084130" lon="2.471280">
        <time>2017-06-24T15:30:33Z</time>
      </trkpt>
      <trkpt lat="48.084130" lon="2.471280">
        <time>2017-06-24T15:30:34Z</time>
      </trkpt>
      <trkpt lat="48.084130" lon="2.471280">
        <time>2017-06-24T15:30:35Z</time>
      </trkpt>
      <trkpt lat="48.084130" lon="2.471280">
        <time>2017-06-24T15:30:36Z</time>
      </trkpt>
      <trkpt lat="48.084130" lon="2.471280">
        <time>2017-06-24T15:30:37Z</time>
      </trkpt>
      <trkpt lat="48.084130" lon="2.471280">
        <time>2017-06-24T15:30:38Z</time>
      </trkpt>
      <trkpt lat="48.084130" lon="2.471280">
        <time>2017-06-24T15:30:39Z</time>
      </trkpt>
      <trkpt lat="48.084130" lon="2.471280">
        <time>2017-06-24T15:30:40Z</time>
      </trkpt>
      <trkpt lat="48.084130" lon="2.471280">
        <time>2017-06-24T15:30:41Z</time>
      </trkpt>
      <trkpt lat="48.084130" lon="2.471280">
        <time>2017-06-24T15:30:42Z</time>
      </trkpt>
      <trkpt lat="48.084130" lon="2.471280">
        <time>2017-06-24T15:30:43Z</time>
      </trkpt>
      <trkpt lat="48.084130" lon="2.471280">
        <time>2017-06-24T15:30:44Z</time>
      </trkpt>
      <trkpt lat="48.084130" lon="2.471280">
        <time>2017-06-24T15:30:45Z</time>
      </trkpt>
      <trkpt lat="48.084130" lon="2.471280">
        <time>2017-06-24T15:30:46Z</time>
      </trkpt>
      <trkpt lat="48.084130" lon="2.471280">
        <time>2017-06-24T15:30:47Z</time>
      </trkpt>
      <trkpt lat="48.084130" lon="2.471280">
        <time>2017-06-24T15:30:48Z</time>
      </trkpt>
      <trkpt lat="48.084130" lon="2.471280">
        <time>2017-06-24T15:30:49Z</time>
      </trkpt>
      <trkpt lat="48.084130" lon="2.471280">
        <time>2017-06-24T15:30:50Z</time>
      </trkpt>
      <trkpt lat="48.084130" lon="2.471280">
        <time>2017-06-24T15:30:51Z</time>
      </trkpt>
      <trkpt lat="48.084130" lon="2.471280">
        <time>2017-06-24T15:30:52Z</time>
      </trkpt>
      <trkpt lat="48.084130" lon="2.471280">
        <time>2017-06-24T15:30:53Z</time>
      </trkpt>
      <trkpt lat="48.084130" lon="2.471280">
        <time>2017-06-24T15:30:54Z</time>
      </trkpt>
      <trkpt lat="48.084130" lon="2.471280">
        <time>2017-06-24T15:30:55Z</time>
      </trkpt>
      <trkpt lat="48.084130" lon="2.471280">
        <time>2017-06-24T15:30:56Z</time>
      </trkpt>
      <trkpt lat="48.084130" lon="2.471280">
        <time>2017-06-24T15:30:57Z</time>
      </trkpt>
      <trkpt lat="48.084130" lon="2.471280">
        <time>2017-06-24T15:30:58Z</time>
      </trkpt>
      <trkpt lat="48.084130" lon="2.471280">
        <time>2017-06-24T15:30:59Z</time>
      </trkpt>
      <trkpt lat="48.084130" lon="2.471280">
        <time>2017-06-24T15:31:00Z</time>
      </trkpt>
      <trkpt lat="48.084130" lon="2.471280">
        <time>2017-06-24T15:31:01Z</time>
      </trkpt>
      <trkpt lat="48.084130" lon="2.471280">
        <time>2017-06-24T15:31:02Z</time>
      </trkpt>
      <trkpt lat="48.084130" lon="2.471280">
        <time>2017-06-24T15:31:03Z</time>
      </trkpt>
      <trkpt lat="48.084130" lon="2.471280">
        <time>2017-06-24T15:31:04Z</time>
      </trkpt>
      <trkpt lat="48.084130" lon="2.471280">
        <time>2017-06-24T15:31:05Z</time>
      </trkpt>
      <trkpt lat="48.084130" lon="2.471280">
        <time>2017-06-24T15:31:06Z</time>
      </trkpt>
      <trkpt lat="48.084130" lon="2.471280">
        <time>2017-06-24T15:31:07Z</time>
      </trkpt>
      <trkpt lat="48.084130" lon="2.471280">
        <time>2017-06-24T15:31:08Z</time>
      </trkpt>
      <trkpt lat="48.084130" lon="2.471280">
        <time>2017-06-24T15:31:09Z</time>
      </trkpt>
      <trkpt lat="48.084130" lon="2.471280">
        <time>2017-06-24T15:31:10Z</time>
      </trkpt>
      <trkpt lat="48.084130" lon="2.471280">
        <time>2017-06-24T15:31:11Z</time>
      </trkpt>
      <trkpt lat="48.084130" lon="2.471280">
        <time>2017-06-24T15:31:12Z</time>
      </trkpt>
      <trkpt lat="48.084130" lon="2.471280">
        <time>2017-06-24T15:31:13Z</time>
      </trkpt>
      <trkpt lat="48.084130" lon="2.471280">
        <time>2017-06-24T15:31:14Z</time>
      </trkpt>
      <trkpt lat="48.084130" lon="2.471280">
        <time>2017-06-24T15:31:15Z</time>
      </trkpt>
      <trkpt lat="48.084130" lon="2.471280">
        <time>2017-06-24T15:31:16Z</time>
      </trkpt>
      <trkpt lat="48.084130" lon="2.471280">
        <time>2017-06-24T15:31:17Z</time>
      </trkpt>
      <trkpt lat="48.084130" lon="2.471280">
        <time>2017-06-24T15:31:18Z</time>
      </trkpt>
      <trkpt lat="48.084130" lon="2.471280">
        <time>2017-06-24T15:31:19Z</time>
      </trkpt>
      <trkpt lat="48.084130" lon="2.471280">
        <time>2017-06-24T15:31:20Z</time>
      </trkpt>
      <trkpt lat="48.084130" lon="2.471280">
        <time>2017-06-24T15:31:21Z</time>
      </trkpt>
      <trkpt lat="48.084130" lon="2.471280">
        <time>2017-06-24T15:31:22Z</time>
      </trkpt>
      <trkpt lat="48.084130" lon="2.471280">
        <time>2017-06-24T15:31:23Z</time>
      </trkpt>
      <trkpt lat="48.084130" lon="2.471280">
        <time>2017-06-24T15:31:24Z</time>
      </trkpt>
      <trkpt lat="48.084130" lon="2.471280">
        <time>2017-06-24T15:31:25Z</time>
      </trkpt>
      <trkpt lat="48.084130" lon="2.471280">
        <time>2017-06-24T15:31:26Z</time>
      </trkpt>
      <trkpt lat="48.084130" lon="2.471280">
        <time>2017-06-24T15:31:27Z</time>
      </trkpt>
      <trkpt lat="48.084130" lon="2.471280">
        <time>2017-06-24T15:31:28Z</time>
      </trkpt>
      <trkpt lat="48.084130" lon="2.471280">
        <time>2017-06-24T15:31:29Z</time>
      </trkpt>
      <trkpt lat="48.084130" lon="2.471280">
        <time>2017-06-24T15:31:30Z</time>
      </trkpt>
      <trkpt lat="48.084130" lon="2.471280">
        <time>2017-06-24T15:31:31Z</time>
      </trkpt>
      <trkpt lat="48.084130" lon="2.471280">
        <time>2017-06-24T15:31:32Z</time>
      </trkpt>
      <trkpt lat="48.084130" lon="2.471280">
        <time>2017-06-24T15:31:33Z</time>
      </trkpt>
      <trkpt lat="48.084130" lon="2.471280">
        <time>2017-06-24T15:31:34Z</time>
      </trkpt>
      <trkpt lat="48.084130" lon="2.471280">
        <time>2017-06-24T15:31:35Z</time>
      </trkpt>
      <trkpt lat="48.084130" lon="2.471280">
        <time>2017-06-24T15:31:36Z</time>
      </trkpt>
      <trkpt lat="48.084130" lon="2.471280">
        <time>2017-06-24T15:31:37Z</time>
      </trkpt>
      <trkpt lat="48.084130" lon="2.471280">
        <time>2017-06-24T15:31:38Z</time>
      </trkpt>
      <trkpt lat="48.084130" lon="2.471280">
        <time>2017-06-24T15:31:39Z</time>
      </trkpt>
      <trkpt lat="48.084130" lon="2.471280">
        <time>2017-06-24T15:31:40Z</time>
      </trkpt>
      <trkpt lat="48.084130" lon="2.471280">
        <time>2017-06-24T15:31:41Z</time>
      </trkpt>
      <trkpt lat="48.084120" lon="2.471420">
        <time>2017-06-24T15:34:20Z</time>
      </trkpt>
      <trkpt lat="48.084140" lon="2.471470">
        <time>2017-06-24T15:34:21Z</time>
      </trkpt>
      <trkpt lat="48.084150" lon="2.471400">
        <time>2017-06-24T15:34:22Z</time>
      </trkpt>
      <trkpt lat="48.084120" lon="2.471410">
        <time>2017-06-24T15:34:23Z</time>
      </trkpt>
      <trkpt lat="48.084120" lon="2.471380">
        <time>2017-06-24T15:34:24Z</time>
      </trkpt>
      <trkpt lat="48.084150" lon="2.471280">
        <time>2017-06-24T15:34:26Z</time>
      </trkpt>
      <trkpt lat="48.084150" lon="2.471280">
        <time>2017-06-24T15:34:27Z</time>
      </trkpt>
      <trkpt lat="48.084150" lon="2.471280">
        <time>2017-06-24T15:34:28Z</time>
      </trkpt>
      <trkpt lat="48.084150" lon="2.471280">
        <time>2017-06-24T15:34:29Z</time>
      </trkpt>
      <trkpt lat="48.084150" lon="2.471280">
        <time>2017-06-24T15:34:30Z</time>
      </trkpt>
      <trkpt lat="48.084150" lon="2.471280">
        <time>2017-06-24T15:34:31Z</time>
      </trkpt>
      <trkpt lat="48.084150" lon="2.471280">
        <time>2017-06-24T15:34:32Z</time>
      </trkpt>
      <trkpt lat="48.084150" lon="2.471280">
        <time>2017-06-24T15:34:33Z</time>
      </trkpt>
      <trkpt lat="48.084150" lon="2.471280">
        <time>2017-06-24T15:34:34Z</time>
      </trkpt>
      <trkpt lat="48.084150" lon="2.471280">
        <time>2017-06-24T15:34:35Z</time>
      </trkpt>
      <trkpt lat="48.084150" lon="2.471280">
        <time>2017-06-24T15:34:36Z</time>
      </trkpt>
      <trkpt lat="48.084150" lon="2.471280">
        <time>2017-06-24T15:34:37Z</time>
      </trkpt>
      <trkpt lat="48.084150" lon="2.471280">
        <time>2017-06-24T15:34:38Z</time>
      </trkpt>
      <trkpt lat="48.084150" lon="2.471280">
        <time>2017-06-24T15:34:39Z</time>
      </trkpt>
      <trkpt lat="48.084150" lon="2.471280">
        <time>2017-06-24T15:34:40Z</time>
      </trkpt>
      <trkpt lat="48.084150" lon="2.471290">
        <time>2017-06-24T15:34:41Z</time>
      </trkpt>
      <trkpt lat="48.084150" lon="2.471300">
        <time>2017-06-24T15:34:42Z</time>
      </trkpt>
      <trkpt lat="48.084180" lon="2.471350">
        <time>2017-06-24T15:34:43Z</time>
      </trkpt>
      <trkpt lat="48.084220" lon="2.471390">
        <time>2017-06-24T15:34:44Z</time>
      </trkpt>
      <trkpt lat="48.084290" lon="2.471410">
        <time>2017-06-24T15:34:45Z</time>
      </trkpt>
      <trkpt lat="48.084350" lon="2.471400">
        <time>2017-06-24T15:34:46Z</time>
      </trkpt>
      <trkpt lat="48.084390" lon="2.471380">
        <time>2017-06-24T15:34:47Z</time>
      </trkpt>
      <trkpt lat="48.084430" lon="2.471350">
        <time>2017-06-24T15:34:48Z</time>
      </trkpt>
      <trkpt lat="48.084480" lon="2.471330">
        <time>2017-06-24T15:34:49Z</time>
      </trkpt>
      <trkpt lat="48.084540" lon="2.471300">
        <time>2017-06-24T15:34:50Z</time>
      </trkpt>
      <trkpt lat="48.084580" lon="2.471280">
        <time>2017-06-24T15:34:51Z</time>
      </trkpt>
      <trkpt lat="48.084630" lon="2.471250">
        <time>2017-06-24T15:34:52Z</time>
      </trkpt>
      <trkpt lat="48.084650" lon="2.471210">
        <time>2017-06-24T15:34:53Z</time>
      </trkpt>
      <trkpt lat="48.084660" lon="2.471140">
        <time>2017-06-24T15:34:54Z</time>
      </trkpt>
      <trkpt lat="48.084650" lon="2.471060">
        <time>2017-06-24T15:34:55Z</time>
      </trkpt>
      <trkpt lat="48.084640" lon="2.470960">
        <time>2017-06-24T15:34:56Z</time>
      </trkpt>
      <trkpt lat="48.084620" lon="2.470870">
        <time>2017-06-24T15:34:57Z</time>
      </trkpt>
      <trkpt lat="48.084590" lon="2.470780">
        <time>2017-06-24T15:34:58Z</time>
      </trkpt>
      <trkpt lat="48.084550" lon="2.470710">
        <time>2017-06-24T15:34:59Z</time>
      </trkpt>
      <trkpt lat="48.084520" lon="2.470650">
        <time>2017-06-24T15:35:00Z</time>
      </trkpt>
      <trkpt lat="48.084490" lon="2.470600">
        <time>2017-06-24T15:35:01Z</time>
      </trkpt>
      <trkpt lat="48.084470" lon="2.470570">
        <time>2017-06-24T15:35:02Z</time>
      </trkpt>
      <trkpt lat="48.084470" lon="2.470560">
        <time>2017-06-24T15:35:03Z</time>
      </trkpt>
      <trkpt lat="48.084470" lon="2.470570">
        <time>2017-06-24T15:35:04Z</time>
      </trkpt>
      <trkpt lat="48.084470" lon="2.470570">
        <time>2017-06-24T15:35:05Z</time>
      </trkpt>
      <trkpt lat="48.084470" lon="2.470570">
        <time>2017-06-24T15:35:06Z</time>
      </trkpt>
      <trkpt lat="48.084470" lon="2.470570">
        <time>2017-06-24T15:35:07Z</time>
      </trkpt>
      <trkpt lat="48.084470" lon="2.470570">
        <time>2017-06-24T15:35:08Z</time>
      </trkpt>
      <trkpt lat="48.084470" lon="2.470570">
        <time>2017-06-24T15:35:09Z</time>
      </trkpt>
      <trkpt lat="48.084470" lon="2.470570">
        <time>2017-06-24T15:35:10Z</time>
      </trkpt>
      <trkpt lat="48.084470" lon="2.470570">
        <time>2017-06-24T15:35:11Z</time>
      </trkpt>
      <trkpt lat="48.084470" lon="2.470570">
        <time>2017-06-24T15:35:12Z</time>
      </trkpt>
      <trkpt lat="48.084470" lon="2.470570">
        <time>2017-06-24T15:35:13Z</time>
      </trkpt>
      <trkpt lat="48.084470" lon="2.470570">
        <time>2017-06-24T15:35:14Z</time>
      </trkpt>
      <trkpt lat="48.084470" lon="2.470570">
        <time>2017-06-24T15:35:15Z</time>
      </trkpt>
      <trkpt lat="48.084470" lon="2.470570">
        <time>2017-06-24T15:35:16Z</time>
      </trkpt>
      <trkpt lat="48.084470" lon="2.470570">
        <time>2017-06-24T15:35:17Z</time>
      </trkpt>
      <trkpt lat="48.084470" lon="2.470570">
        <time>2017-06-24T15:35:18Z</time>
      </trkpt>
      <trkpt lat="48.084470" lon="2.470570">
        <time>2017-06-24T15:35:19Z</time>
      </trkpt>
      <trkpt lat="48.084470" lon="2.470570">
        <time>2017-06-24T15:35:20Z</time>
      </trkpt>
      <trkpt lat="48.084470" lon="2.470570">
        <time>2017-06-24T15:35:21Z</time>
      </trkpt>
      <trkpt lat="48.084470" lon="2.470570">
        <time>2017-06-24T15:35:22Z</time>
      </trkpt>
      <trkpt lat="48.084470" lon="2.470570">
        <time>2017-06-24T15:35:23Z</time>
      </trkpt>
      <trkpt lat="48.084470" lon="2.470570">
        <time>2017-06-24T15:35:24Z</time>
      </trkpt>
      <trkpt lat="48.084470" lon="2.470570">
        <time>2017-06-24T15:35:25Z</time>
      </trkpt>
      <trkpt lat="48.084470" lon="2.470570">
        <time>2017-06-24T15:35:26Z</time>
      </trkpt>
      <trkpt lat="48.084470" lon="2.470570">
        <time>2017-06-24T15:35:27Z</time>
      </trkpt>
      <trkpt lat="48.084470" lon="2.470570">
        <time>2017-06-24T15:35:28Z</time>
      </trkpt>
      <trkpt lat="48.084470" lon="2.470570">
        <time>2017-06-24T15:35:29Z</time>
      </trkpt>
      <trkpt lat="48.084470" lon="2.470570">
        <time>2017-06-24T15:35:30Z</time>
      </trkpt>
      <trkpt lat="48.084470" lon="2.470570">
        <time>2017-06-24T15:35:31Z</time>
      </trkpt>
      <trkpt lat="48.084470" lon="2.470570">
        <time>2017-06-24T15:35:32Z</time>
      </trkpt>
      <trkpt lat="48.084470" lon="2.470570">
        <time>2017-06-24T15:35:33Z</time>
      </trkpt>
      <trkpt lat="48.084470" lon="2.470570">
        <time>2017-06-24T15:35:34Z</time>
      </trkpt>
      <trkpt lat="48.084470" lon="2.470570">
        <time>2017-06-24T15:35:35Z</time>
      </trkpt>
      <trkpt lat="48.084470" lon="2.470570">
        <time>2017-06-24T15:35:36Z</time>
      </trkpt>
      <trkpt lat="48.084470" lon="2.470570">
        <time>2017-06-24T15:35:37Z</time>
      </trkpt>
      <trkpt lat="48.084470" lon="2.470570">
        <time>2017-06-24T15:35:38Z</time>
      </trkpt>
      <trkpt lat="48.084470" lon="2.470570">
        <time>2017-06-24T15:35:39Z</time>
      </trkpt>
      <trkpt lat="48.084470" lon="2.470570">
        <time>2017-06-24T15:35:40Z</time>
      </trkpt>
      <trkpt lat="48.084470" lon="2.470570">
        <time>2017-06-24T15:35:41Z</time>
      </trkpt>
      <trkpt lat="48.084470" lon="2.470570">
        <time>2017-06-24T15:35:42Z</time>
      </trkpt>
      <trkpt lat="48.084470" lon="2.470570">
        <time>2017-06-24T15:35:43Z</time>
      </trkpt>
      <trkpt lat="48.084470" lon="2.470570">
        <time>2017-06-24T15:35:44Z</time>
      </trkpt>
      <trkpt lat="48.084470" lon="2.470570">
        <time>2017-06-24T15:35:45Z</time>
      </trkpt>
      <trkpt lat="48.084470" lon="2.470570">
        <time>2017-06-24T15:35:46Z</time>
      </trkpt>
      <trkpt lat="48.084470" lon="2.470570">
        <time>2017-06-24T15:35:47Z</time>
      </trkpt>
      <trkpt lat="48.084470" lon="2.470570">
        <time>2017-06-24T15:35:48Z</time>
      </trkpt>
      <trkpt lat="48.084470" lon="2.470570">
        <time>2017-06-24T15:35:49Z</time>
      </trkpt>
      <trkpt lat="48.084470" lon="2.470570">
        <time>2017-06-24T15:35:50Z</time>
      </trkpt>
      <trkpt lat="48.084470" lon="2.470570">
        <time>2017-06-24T15:35:51Z</time>
      </trkpt>
      <trkpt lat="48.084470" lon="2.470570">
        <time>2017-06-24T15:35:52Z</time>
      </trkpt>
      <trkpt lat="48.084470" lon="2.470570">
        <time>2017-06-24T15:35:53Z</time>
      </trkpt>
      <trkpt lat="48.084470" lon="2.470570">
        <time>2017-06-24T15:35:54Z</time>
      </trkpt>
      <trkpt lat="48.084470" lon="2.470570">
        <time>2017-06-24T15:35:55Z</time>
      </trkpt>
      <trkpt lat="48.084470" lon="2.470570">
        <time>2017-06-24T15:35:56Z</time>
      </trkpt>
      <trkpt lat="48.084470" lon="2.470570">
        <time>2017-06-24T15:35:57Z</time>
      </trkpt>
      <trkpt lat="48.084470" lon="2.470570">
        <time>2017-06-24T15:35:58Z</time>
      </trkpt>
      <trkpt lat="48.084470" lon="2.470570">
        <time>2017-06-24T15:35:59Z</time>
      </trkpt>
      <trkpt lat="48.084470" lon="2.470570">
        <time>2017-06-24T15:36:00Z</time>
      </trkpt>
      <trkpt lat="48.084470" lon="2.470570">
        <time>2017-06-24T15:36:01Z</time>
      </trkpt>
      <trkpt lat="48.084470" lon="2.470570">
        <time>2017-06-24T15:36:02Z</time>
      </trkpt>
      <trkpt lat="48.084470" lon="2.470570">
        <time>2017-06-24T15:36:03Z</time>
      </trkpt>
      <trkpt lat="48.084470" lon="2.470570">
        <time>2017-06-24T15:36:04Z</time>
      </trkpt>
      <trkpt lat="48.084470" lon="2.470570">
        <time>2017-06-24T15:36:05Z</time>
      </trkpt>
      <trkpt lat="48.084470" lon="2.470570">
        <time>2017-06-24T15:36:06Z</time>
      </trkpt>
      <trkpt lat="48.084470" lon="2.470570">
        <time>2017-06-24T15:36:07Z</time>
      </trkpt>
      <trkpt lat="48.084470" lon="2.470570">
        <time>2017-06-24T15:36:08Z</time>
      </trkpt>
      <trkpt lat="48.084470" lon="2.470570">
        <time>2017-06-24T15:36:09Z</time>
      </trkpt>
      <trkpt lat="48.084470" lon="2.470570">
        <time>2017-06-24T15:36:10Z</time>
      </trkpt>
      <trkpt lat="48.084470" lon="2.470570">
        <time>2017-06-24T15:36:11Z</time>
      </trkpt>
      <trkpt lat="48.084470" lon="2.470570">
        <time>2017-06-24T15:36:12Z</time>
      </trkpt>
      <trkpt lat="48.084470" lon="2.470570">
        <time>2017-06-24T15:36:13Z</time>
      </trkpt>
      <trkpt lat="48.084470" lon="2.470570">
        <time>2017-06-24T15:36:14Z</time>
      </trkpt>
      <trkpt lat="48.084470" lon="2.470570">
        <time>2017-06-24T15:36:15Z</time>
      </trkpt>
      <trkpt lat="48.084470" lon="2.470570">
        <time>2017-06-24T15:36:16Z</time>
      </trkpt>
      <trkpt lat="48.084470" lon="2.470570">
        <time>2017-06-24T15:36:17Z</time>
      </trkpt>
      <trkpt lat="48.084470" lon="2.470570">
        <time>2017-06-24T15:36:18Z</time>
      </trkpt>
      <trkpt lat="48.084470" lon="2.470570">
        <time>2017-06-24T15:36:19Z</time>
      </trkpt>
      <trkpt lat="48.084470" lon="2.470570">
        <time>2017-06-24T15:36:20Z</time>
      </trkpt>
      <trkpt lat="48.084470" lon="2.470570">
        <time>2017-06-24T15:36:21Z</time>
      </trkpt>
      <trkpt lat="48.084470" lon="2.470570">
        <time>2017-06-24T15:36:22Z</time>
      </trkpt>
      <trkpt lat="48.084470" lon="2.470570">
        <time>2017-06-24T15:36:23Z</time>
      </trkpt>
      <trkpt lat="48.084470" lon="2.470570">
        <time>2017-06-24T15:36:24Z</time>
      </trkpt>
      <trkpt lat="48.084470" lon="2.470570">
        <time>2017-06-24T15:36:25Z</time>
      </trkpt>
      <trkpt lat="48.084470" lon="2.470570">
        <time>2017-06-24T15:36:26Z</time>
      </trkpt>
      <trkpt lat="48.084470" lon="2.470570">
        <time>2017-06-24T15:36:27Z</time>
      </trkpt>
      <trkpt lat="48.084470" lon="2.470570">
        <time>2017-06-24T15:36:28Z</time>
      </trkpt>
      <trkpt lat="48.084470" lon="2.470570">
        <time>2017-06-24T15:36:29Z</time>
      </trkpt>
      <trkpt lat="48.084470" lon="2.470570">
        <time>2017-06-24T15:36:30Z</time>
      </trkpt>
      <trkpt lat="48.084470" lon="2.470570">
        <time>2017-06-24T15:36:31Z</time>
      </trkpt>
      <trkpt lat="48.084470" lon="2.470570">
        <time>2017-06-24T15:36:32Z</time>
      </trkpt>
      <trkpt lat="48.084470" lon="2.470570">
        <time>2017-06-24T15:36:33Z</time>
      </trkpt>
      <trkpt lat="48.084470" lon="2.470570">
        <time>2017-06-24T15:36:34Z</time>
      </trkpt>
      <trkpt lat="48.084470" lon="2.470570">
        <time>2017-06-24T15:36:35Z</time>
      </trkpt>
      <trkpt lat="48.084470" lon="2.470570">
        <time>2017-06-24T15:36:36Z</time>
      </trkpt>
      <trkpt lat="48.084470" lon="2.470570">
        <time>2017-06-24T15:36:37Z</time>
      </trkpt>
      <trkpt lat="48.084470" lon="2.470570">
        <time>2017-06-24T15:36:38Z</time>
      </trkpt>
      <trkpt lat="48.084470" lon="2.470570">
        <time>2017-06-24T15:36:39Z</time>
      </trkpt>
      <trkpt lat="48.084470" lon="2.470570">
        <time>2017-06-24T15:36:40Z</time>
      </trkpt>
      <trkpt lat="48.084470" lon="2.470570">
        <time>2017-06-24T15:36:41Z</time>
      </trkpt>
      <trkpt lat="48.084470" lon="2.470570">
        <time>2017-06-24T15:36:42Z</time>
      </trkpt>
      <trkpt lat="48.084470" lon="2.470570">
        <time>2017-06-24T15:36:43Z</time>
      </trkpt>
      <trkpt lat="48.084470" lon="2.470570">
        <time>2017-06-24T15:36:44Z</time>
      </trkpt>
      <trkpt lat="48.084470" lon="2.470570">
        <time>2017-06-24T15:36:45Z</time>
      </trkpt>
      <trkpt lat="48.084470" lon="2.470570">
        <time>2017-06-24T15:36:46Z</time>
      </trkpt>
      <trkpt lat="48.084470" lon="2.470570">
        <time>2017-06-24T15:36:47Z</time>
      </trkpt>
      <trkpt lat="48.084470" lon="2.470570">
        <time>2017-06-24T15:36:48Z</time>
      </trkpt>
      <trkpt lat="48.084470" lon="2.470570">
        <time>2017-06-24T15:36:49Z</time>
      </trkpt>
      <trkpt lat="48.084470" lon="2.470570">
        <time>2017-06-24T15:36:50Z</time>
      </trkpt>
      <trkpt lat="48.084470" lon="2.470570">
        <time>2017-06-24T15:36:51Z</time>
      </trkpt>
      <trkpt lat="48.084470" lon="2.470570">
        <time>2017-06-24T15:36:52Z</time>
      </trkpt>
      <trkpt lat="48.084470" lon="2.470570">
        <time>2017-06-24T15:36:53Z</time>
      </trkpt>
      <trkpt lat="48.084470" lon="2.470570">
        <time>2017-06-24T15:36:54Z</time>
      </trkpt>
      <trkpt lat="48.084470" lon="2.470570">
        <time>2017-06-24T15:36:55Z</time>
      </trkpt>
      <trkpt lat="48.084470" lon="2.470570">
        <time>2017-06-24T15:36:56Z</time>
      </trkpt>
      <trkpt lat="48.084470" lon="2.470570">
        <time>2017-06-24T15:36:57Z</time>
      </trkpt>
      <trkpt lat="48.084470" lon="2.470570">
        <time>2017-06-24T15:36:58Z</time>
      </trkpt>
      <trkpt lat="48.084470" lon="2.470570">
        <time>2017-06-24T15:36:59Z</time>
      </trkpt>
      <trkpt lat="48.084470" lon="2.470570">
        <time>2017-06-24T15:37:00Z</time>
      </trkpt>
      <trkpt lat="48.084470" lon="2.470570">
        <time>2017-06-24T15:37:01Z</time>
      </trkpt>
      <trkpt lat="48.084470" lon="2.470570">
        <time>2017-06-24T15:37:02Z</time>
      </trkpt>
      <trkpt lat="48.084470" lon="2.470570">
        <time>2017-06-24T15:37:03Z</time>
      </trkpt>
      <trkpt lat="48.084470" lon="2.470570">
        <time>2017-06-24T15:37:04Z</time>
      </trkpt>
      <trkpt lat="48.084470" lon="2.470570">
        <time>2017-06-24T15:37:05Z</time>
      </trkpt>
      <trkpt lat="48.084470" lon="2.470570">
        <time>2017-06-24T15:37:06Z</time>
      </trkpt>
      <trkpt lat="48.084470" lon="2.470570">
        <time>2017-06-24T15:37:07Z</time>
      </trkpt>
      <trkpt lat="48.084470" lon="2.470570">
        <time>2017-06-24T15:37:08Z</time>
      </trkpt>
      <trkpt lat="48.084470" lon="2.470570">
        <time>2017-06-24T15:37:09Z</time>
      </trkpt>
      <trkpt lat="48.084470" lon="2.470570">
        <time>2017-06-24T15:37:10Z</time>
      </trkpt>
      <trkpt lat="48.084470" lon="2.470570">
        <time>2017-06-24T15:37:11Z</time>
      </trkpt>
      <trkpt lat="48.084470" lon="2.470570">
        <time>2017-06-24T15:37:12Z</time>
      </trkpt>
      <trkpt lat="48.084470" lon="2.470570">
        <time>2017-06-24T15:37:13Z</time>
      </trkpt>
      <trkpt lat="48.084470" lon="2.470570">
        <time>2017-06-24T15:37:14Z</time>
      </trkpt>
      <trkpt lat="48.084470" lon="2.470570">
        <time>2017-06-24T15:37:15Z</time>
      </trkpt>
      <trkpt lat="48.084470" lon="2.470570">
        <time>2017-06-24T15:37:16Z</time>
      </trkpt>
      <trkpt lat="48.084470" lon="2.470570">
        <time>2017-06-24T15:37:17Z</time>
      </trkpt>
      <trkpt lat="48.084470" lon="2.470570">
        <time>2017-06-24T15:37:18Z</time>
      </trkpt>
      <trkpt lat="48.084470" lon="2.470570">
        <time>2017-06-24T15:37:19Z</time>
      </trkpt>
      <trkpt lat="48.084470" lon="2.470570">
        <time>2017-06-24T15:38:07Z</time>
      </trkpt>
      <trkpt lat="48.084470" lon="2.470570">
        <time>2017-06-24T15:38:08Z</time>
      </trkpt>
      <trkpt lat="48.084470" lon="2.470570">
        <time>2017-06-24T15:38:09Z</time>
      </trkpt>
      <trkpt lat="48.084470" lon="2.470570">
        <time>2017-06-24T15:38:10Z</time>
      </trkpt>
      <trkpt lat="48.095580" lon="2.568760">
        <time>2017-06-24T15:45:34Z</time>
      </trkpt>
      <trkpt lat="48.095570" lon="2.569220">
        <time>2017-06-24T15:45:35Z</time>
      </trkpt>
      <trkpt lat="48.095560" lon="2.569630">
        <time>2017-06-24T15:45:36Z</time>
      </trkpt>
      <trkpt lat="48.095540" lon="2.570070">
        <time>2017-06-24T15:45:37Z</time>
      </trkpt>
      <trkpt lat="48.095520" lon="2.570500">
        <time>2017-06-24T15:45:38Z</time>
      </trkpt>
      <trkpt lat="48.095490" lon="2.570940">
        <time>2017-06-24T15:45:39Z</time>
      </trkpt>
      <trkpt lat="48.095460" lon="2.571420">
        <time>2017-06-24T15:45:40Z</time>
      </trkpt>
      <trkpt lat="48.095420" lon="2.571860">
        <time>2017-06-24T15:45:41Z</time>
      </trkpt>
      <trkpt lat="48.095380" lon="2.572330">
        <time>2017-06-24T15:45:42Z</time>
      </trkpt>
      <trkpt lat="48.095330" lon="2.572840">
        <time>2017-06-24T15:45:43Z</time>
      </trkpt>
      <trkpt lat="48.095290" lon="2.573300">
        <time>2017-06-24T15:45:44Z</time>
      </trkpt>
      <trkpt lat="48.095230" lon="2.573780">
        <time>2017-06-24T15:45:45Z</time>
      </trkpt>
      <trkpt lat="48.095170" lon="2.574300">
        <time>2017-06-24T15:45:46Z</time>
      </trkpt>
      <trkpt lat="48.095110" lon="2.574750">
        <time>2017-06-24T15:45:47Z</time>
      </trkpt>
      <trkpt lat="48.095030" lon="2.575250">
        <time>2017-06-24T15:45:48Z</time>
      </trkpt>
      <trkpt lat="48.094950" lon="2.575690">
        <time>2017-06-24T15:45:49Z</time>
      </trkpt>
      <trkpt lat="48.094870" lon="2.576160">
        <time>2017-06-24T15:45:50Z</time>
      </trkpt>
      <trkpt lat="48.094770" lon="2.576660">
        <time>2017-06-24T15:45:51Z</time>
      </trkpt>
      <trkpt lat="48.094670" lon="2.577100">
        <time>2017-06-24T15:45:52Z</time>
      </trkpt>
      <trkpt lat="48.094560" lon="2.577560">
        <time>2017-06-24T15:45:53Z</time>
      </trkpt>
      <trkpt lat="48.094440" lon="2.578020">
        <time>2017-06-24T15:45:54Z</time>
      </trkpt>
      <trkpt lat="48.094320" lon="2.578480">
        <time>2017-06-24T15:45:55Z</time>
      </trkpt>
      <trkpt lat="48.094190" lon="2.578960">
        <time>2017-06-24T15:45:56Z</time>
      </trkpt>
      <trkpt lat="48.094070" lon="2.579380">
        <time>2017-06-24T15:45:57Z</time>
      </trkpt>
      <trkpt lat="48.093950" lon="2.579820">
        <time>2017-06-24T15:45:58Z</time>
      </trkpt>
      <trkpt lat="48.093810" lon="2.580300">
        <time>2017-06-24T15:45:59Z</time>
      </trkpt>
      <trkpt lat="48.093680" lon="2.580710">
        <time>2017-06-24T15:46:00Z</time>
      </trkpt>
      <trkpt lat="48.093530" lon="2.581150">
        <time>2017-06-24T15:46:01Z</time>
      </trkpt>
      <trkpt lat="48.093380" lon="2.581620">
        <time>2017-06-24T15:46:02Z</time>
      </trkpt>
      <trkpt lat="48.093230" lon="2.582020">
        <time>2017-06-24T15:46:03Z</time>
      </trkpt>
      <trkpt lat="48.093070" lon="2.582480">
        <time>2017-06-24T15:46:04Z</time>
      </trkpt>
      <trkpt lat="48.092920" lon="2.582870">
        <time>2017-06-24T15:46:05Z</time>
      </trkpt>
      <trkpt lat="48.092750" lon="2.583280">
        <time>2017-06-24T15:46:06Z</time>
      </trkpt>
      <trkpt lat="48.092570" lon="2.583720">
        <time>2017-06-24T15:46:07Z</time>
      </trkpt>
      <trkpt lat="48.092410" lon="2.584090">
        <time>2017-06-24T15:46:08Z</time>
      </trkpt>
      <trkpt lat="48.092240" lon="2.584490">
        <time>2017-06-24T15:46:09Z</time>
      </trkpt>
      <trkpt lat="48.092070" lon="2.584880">
        <time>2017-06-24T15:46:10Z</time>
      </trkpt>
      <trkpt lat="48.091900" lon="2.585270">
        <time>2017-06-24T15:46:11Z</time>
      </trkpt>
      <trkpt lat="48.091710" lon="2.585690">
        <time>2017-06-24T15:46:12Z</time>
      </trkpt>
      <trkpt lat="48.091550" lon="2.586070">
        <time>2017-06-24T15:46:13Z</time>
      </trkpt>
      <trkpt lat="48.091380" lon="2.586460">
        <time>2017-06-24T15:46:14Z</time>
      </trkpt>
      <trkpt lat="48.091190" lon="2.586890">
        <time>2017-06-24T15:46:15Z</time>
      </trkpt>
      <trkpt lat="48.091030" lon="2.587250">
        <time>2017-06-24T15:46:16Z</time>
      </trkpt>
      <trkpt lat="48.090860" lon="2.587630">
        <time>2017-06-24T15:46:17Z</time>
      </trkpt>
      <trkpt lat="48.090680" lon="2.588040">
        <time>2017-06-24T15:46:18Z</time>
      </trkpt>
      <trkpt lat="48.090520" lon="2.588390">
        <time>2017-06-24T15:46:19Z</time>
      </trkpt>
      <trkpt lat="48.090340" lon="2.588810">
        <time>2017-06-24T15:46:20Z</time>
      </trkpt>
      <trkpt lat="48.090180" lon="2.589170">
        <time>2017-06-24T15:46:21Z</time>
      </trkpt>
      <trkpt lat="48.090000" lon="2.589570">
        <time>2017-06-24T15:46:22Z</time>
      </trkpt>
      <trkpt lat="48.089810" lon="2.590000">
        <time>2017-06-24T15:46:23Z</time>
      </trkpt>
      <trkpt lat="48.089650" lon="2.590380">
        <time>2017-06-24T15:46:24Z</time>
      </trkpt>
      <trkpt lat="48.089470" lon="2.590790">
        <time>2017-06-24T15:46:25Z</time>
      </trkpt>
      <trkpt lat="48.089300" lon="2.591190">
        <time>2017-06-24T15:46:26Z</time>
      </trkpt>
      <trkpt lat="48.089120" lon="2.591600">
        <time>2017-06-24T15:46:27Z</time>
      </trkpt>
      <trkpt lat="48.088930" lon="2.592030">
        <time>2017-06-24T15:46:28Z</time>
      </trkpt>
      <trkpt lat="48.088760" lon="2.592410">
        <time>2017-06-24T15:46:29Z</time>
      </trkpt>
      <trkpt lat="48.088580" lon="2.592820">
        <time>2017-06-24T15:46:30Z</time>
      </trkpt>
      <trkpt lat="48.088380" lon="2.593260">
        <time>2017-06-24T15:46:31Z</time>
      </trkpt>
      <trkpt lat="48.088210" lon="2.593650">
        <time>2017-06-24T15:46:32Z</time>
      </trkpt>
      <trkpt lat="48.088030" lon="2.594050">
        <time>2017-06-24T15:46:33Z</time>
      </trkpt>
      <trkpt lat="48.087830" lon="2.594490">
        <time>2017-06-24T15:46:34Z</time>
      </trkpt>
      <trkpt lat="48.087670" lon="2.594870">
        <time>2017-06-24T15:46:35Z</time>
      </trkpt>
      <trkpt lat="48.087480" lon="2.595300">
        <time>2017-06-24T15:46:36Z</time>
      </trkpt>
      <trkpt lat="48.087310" lon="2.595670">
        <time>2017-06-24T15:46:37Z</time>
      </trkpt>
      <trkpt lat="48.087130" lon="2.596070">
        <time>2017-06-24T15:46:38Z</time>
      </trkpt>
      <trkpt lat="48.086950" lon="2.596500">
        <time>2017-06-24T15:46:39Z</time>
      </trkpt>
      <trkpt lat="48.086790" lon="2.596870">
        <time>2017-06-24T15:46:40Z</time>
      </trkpt>
      <trkpt lat="48.086610" lon="2.597270">
        <time>2017-06-24T15:46:41Z</time>
      </trkpt>
      <trkpt lat="48.086430" lon="2.597660">
        <time>2017-06-24T15:46:42Z</time>
      </trkpt>
      <trkpt lat="48.086260" lon="2.598060">
        <time>2017-06-24T15:46:43Z</time>
      </trkpt>
      <trkpt lat="48.086070" lon="2.598480">
        <time>2017-06-24T15:46:44Z</time>
      </trkpt>
      <trkpt lat="48.085900" lon="2.598850">
        <time>2017-06-24T15:46:45Z</time>
      </trkpt>
      <trkpt lat="48.085730" lon="2.599250">
        <time>2017-06-24T15:46:46Z</time>
      </trkpt>
      <trkpt lat="48.085550" lon="2.599670">
        <time>2017-06-24T15:46:47Z</time>
      </trkpt>
      <trkpt lat="48.085380" lon="2.600040">
        <time>2017-06-24T15:46:48Z</time>
      </trkpt>
      <trkpt lat="48.085210" lon="2.600440">
        <time>2017-06-24T15:46:49Z</time>
      </trkpt>
      <trkpt lat="48.085030" lon="2.600850">
        <time>2017-06-24T15:46:50Z</time>
      </trkpt>
      <trkpt lat="48.084870" lon="2.601210">
        <time>2017-06-24T15:46:51Z</time>
      </trkpt>
      <trkpt lat="48.084690" lon="2.601620">
        <time>2017-06-24T15:46:52Z</time>
      </trkpt>
      <trkpt lat="48.084520" lon="2.601990">
        <time>2017-06-24T15:46:53Z</time>
      </trkpt>
      <trkpt lat="48.084350" lon="2.602380">
        <time>2017-06-24T15:46:54Z</time>
      </trkpt>
      <trkpt lat="48.084160" lon="2.602810">
        <time>2017-06-24T15:46:55Z</time>
      </trkpt>
      <trkpt lat="48.083990" lon="2.603190">
        <time>2017-06-24T15:46:56Z</time>
      </trkpt>
      <trkpt lat="48.083810" lon="2.603600">
        <time>2017-06-24T15:46:57Z</time>
      </trkpt>
      <trkpt lat="48.083630" lon="2.604010">
        <time>2017-06-24T15:46:58Z</time>
      </trkpt>
      <trkpt lat="48.083450" lon="2.604410">
        <time>2017-06-24T15:46:59Z</time>
      </trkpt>
      <trkpt lat="48.083270" lon="2.604850">
        <time>2017-06-24T15:47:00Z</time>
      </trkpt>
      <trkpt lat="48.083100" lon="2.605220">
        <time>2017-06-24T15:47:01Z</time>
      </trkpt>
      <trkpt lat="48.082930" lon="2.605640">
        <time>2017-06-24T15:47:02Z</time>
      </trkpt>
      <trkpt lat="48.082750" lon="2.606080">
        <time>2017-06-24T15:47:03Z</time>
      </trkpt>
      <trkpt lat="48.082590" lon="2.606470">
        <time>2017-06-24T15:47:04Z</time>
      </trkpt>
      <trkpt lat="48.082430" lon="2.606890">
        <time>2017-06-24T15:47:05Z</time>
      </trkpt>
      <trkpt lat="48.082260" lon="2.607330">
        <time>2017-06-24T15:47:06Z</time>
      </trkpt>
      <trkpt lat="48.082110" lon="2.607720">
        <time>2017-06-24T15:47:07Z</time>
      </trkpt>
      <trkpt lat="48.081950" lon="2.608180">
        <time>2017-06-24T15:47:08Z</time>
      </trkpt>
      <trkpt lat="48.081810" lon="2.608570">
        <time>2017-06-24T15:47:09Z</time>
      </trkpt>
      <trkpt lat="48.081660" lon="2.608990">
        <time>2017-06-24T15:47:10Z</time>
      </trkpt>
      <trkpt lat="48.081500" lon="2.609430">
        <time>2017-06-24T15:47:11Z</time>
      </trkpt>
      <trkpt lat="48.081360" lon="2.609830">
        <time>2017-06-24T15:47:12Z</time>
      </trkpt>
      <trkpt lat="48.081220" lon="2.610260">
        <time>2017-06-24T15:47:13Z</time>
      </trkpt>
      <trkpt lat="48.081080" lon="2.610680">
        <time>2017-06-24T15:47:14Z</time>
      </trkpt>
      <trkpt lat="48.080940" lon="2.611110">
        <time>2017-06-24T15:47:15Z</time>
      </trkpt>
      <trkpt lat="48.080800" lon="2.611560">
        <time>2017-06-24T15:47:16Z</time>
      </trkpt>
      <trkpt lat="48.080680" lon="2.611960">
        <time>2017-06-24T15:47:17Z</time>
      </trkpt>
      <trkpt lat="48.080550" lon="2.612380">
        <time>2017-06-24T15:47:18Z</time>
      </trkpt>
      <trkpt lat="48.080420" lon="2.612830">
        <time>2017-06-24T15:47:19Z</time>
      </trkpt>
      <trkpt lat="48.080300" lon="2.613240">
        <time>2017-06-24T15:47:20Z</time>
      </trkpt>
      <trkpt lat="48.080190" lon="2.613660">
        <time>2017-06-24T15:47:21Z</time>
      </trkpt>
      <trkpt lat="48.080070" lon="2.614120">
        <time>2017-06-24T15:47:22Z</time>
      </trkpt>
      <trkpt lat="48.079960" lon="2.614510">
        <time>2017-06-24T15:47:23Z</time>
      </trkpt>
      <trkpt lat="48.079850" lon="2.614970">
        <time>2017-06-24T15:47:24Z</time>
      </trkpt>
      <trkpt lat="48.079750" lon="2.615370">
        <time>2017-06-24T15:47:25Z</time>
      </trkpt>
      <trkpt lat="48.079640" lon="2.615790">
        <time>2017-06-24T15:47:26Z</time>
      </trkpt>
      <trkpt lat="48.079540" lon="2.616250">
        <time>2017-06-24T15:47:27Z</time>
      </trkpt>
      <trkpt lat="48.079450" lon="2.616650">
        <time>2017-06-24T15:47:28Z</time>
      </trkpt>
      <trkpt lat="48.079350" lon="2.617090">
        <time>2017-06-24T15:47:29Z</time>
      </trkpt>
      <trkpt lat="48.079260" lon="2.617530">
        <time>2017-06-24T15:47:30Z</time>
      </trkpt>
      <trkpt lat="48.079170" lon="2.617980">
        <time>2017-06-24T15:47:31Z</time>
      </trkpt>
      <trkpt lat="48.079070" lon="2.618470">
        <time>2017-06-24T15:47:32Z</time>
      </trkpt>
      <trkpt lat="48.078980" lon="2.618920">
        <time>2017-06-24T15:47:33Z</time>
      </trkpt>
      <trkpt lat="48.078890" lon="2.619390">
        <time>2017-06-24T15:47:34Z</time>
      </trkpt>
      <trkpt lat="48.078790" lon="2.619890">
        <time>2017-06-24T15:47:35Z</time>
      </trkpt>
      <trkpt lat="48.078700" lon="2.620340">
        <time>2017-06-24T15:47:36Z</time>
      </trkpt>
      <trkpt lat="48.078610" lon="2.620830">
        <time>2017-06-24T15:47:37Z</time>
      </trkpt>
      <trkpt lat="48.078520" lon="2.621340">
        <time>2017-06-24T15:47:38Z</time>
      </trkpt>
      <trkpt lat="48.078430" lon="2.621790">
        <time>2017-06-24T15:47:39Z</time>
      </trkpt>
      <trkpt lat="48.078340" lon="2.622310">
        <time>2017-06-24T15:47:40Z</time>
      </trkpt>
      <trkpt lat="48.078250" lon="2.622770">
        <time>2017-06-24T15:47:41Z</time>
      </trkpt>
      <trkpt lat="48.078160" lon="2.623250">
        <time>2017-06-24T15:47:42Z</time>
      </trkpt>
      <trkpt lat="48.078060" lon="2.623770">
        <time>2017-06-24T15:47:43Z</time>
      </trkpt>
      <trkpt lat="48.077960" lon="2.624220">
        <time>2017-06-24T15:47:44Z</time>
      </trkpt>
      <trkpt lat="48.077860" lon="2.624700">
        <time>2017-06-24T15:47:45Z</time>
      </trkpt>
      <trkpt lat="48.077750" lon="2.625180">
        <time>2017-06-24T15:47:46Z</time>
      </trkpt>
      <trkpt lat="48.077640" lon="2.625660">
        <time>2017-06-24T15:47:47Z</time>
      </trkpt>
      <trkpt lat="48.077520" lon="2.626160">
        <time>2017-06-24T15:47:48Z</time>
      </trkpt>
      <trkpt lat="48.077410" lon="2.626610">
        <time>2017-06-24T15:47:49Z</time>
      </trkpt>
      <trkpt lat="48.077290" lon="2.627080">
        <time>2017-06-24T15:47:50Z</time>
      </trkpt>
      <trkpt lat="48.077160" lon="2.627580">
        <time>2017-06-24T15:47:51Z</time>
      </trkpt>
      <trkpt lat="48.077040" lon="2.628020">
        <time>2017-06-24T15:47:52Z</time>
      </trkpt>
      <trkpt lat="48.076920" lon="2.628480">
        <time>2017-06-24T15:47:53Z</time>
      </trkpt>
      <trkpt lat="48.076780" lon="2.628980">
        <time>2017-06-24T15:47:54Z</time>
      </trkpt>
      <trkpt lat="48.076650" lon="2.629410">
        <time>2017-06-24T15:47:55Z</time>
      </trkpt>
      <trkpt lat="48.076500" lon="2.629910">
        <time>2017-06-24T15:47:56Z</time>
      </trkpt>
      <trkpt lat="48.076370" lon="2.630330">
        <time>2017-06-24T15:47:57Z</time>
      </trkpt>
      <trkpt lat="48.076230" lon="2.630790">
        <time>2017-06-24T15:47:58Z</time>
      </trkpt>
      <trkpt lat="48.076070" lon="2.631270">
        <time>2017-06-24T15:47:59Z</time>
      </trkpt>
      <trkpt lat="48.075940" lon="2.631690">
        <time>2017-06-24T15:48:00Z</time>
      </trkpt>
      <trkpt lat="48.075790" lon="2.632130">
        <time>2017-06-24T15:48:01Z</time>
      </trkpt>
      <trkpt lat="48.075640" lon="2.632580">
        <time>2017-06-24T15:48:02Z</time>
      </trkpt>
      <trkpt lat="48.075480" lon="2.633020">
        <time>2017-06-24T15:48:03Z</time>
      </trkpt>
      <trkpt lat="48.075310" lon="2.633490">
        <time>2017-06-24T15:48:04Z</time>
      </trkpt>
      <trkpt lat="48.075160" lon="2.633900">
        <time>2017-06-24T15:48:05Z</time>
      </trkpt>
      <trkpt lat="48.075000" lon="2.634340">
        <time>2017-06-24T15:48:06Z</time>
      </trkpt>
      <trkpt lat="48.074820" lon="2.634810">
        <time>2017-06-24T15:48:07Z</time>
      </trkpt>
      <trkpt lat="48.074660" lon="2.635220">
        <time>2017-06-24T15:48:08Z</time>
      </trkpt>
      <trkpt lat="48.074490" lon="2.635640">
        <time>2017-06-24T15:48:09Z</time>
      </trkpt>
      <trkpt lat="48.074300" lon="2.636100">
        <time>2017-06-24T15:48:10Z</time>
      </trkpt>
      <trkpt lat="48.074140" lon="2.636490">
        <time>2017-06-24T15:48:11Z</time>
      </trkpt>
      <trkpt lat="48.073950" lon="2.636940">
        <time>2017-06-24T15:48:12Z</time>
      </trkpt>
      <trkpt lat="48.073780" lon="2.637330">
        <time>2017-06-24T15:48:13Z</time>
      </trkpt>
      <trkpt lat="48.073590" lon="2.637750">
        <time>2017-06-24T15:48:14Z</time>
      </trkpt>
      <trkpt lat="48.073390" lon="2.638190">
        <time>2017-06-24T15:48:15Z</time>
      </trkpt>
      <trkpt lat="48.073210" lon="2.638570">
        <time>2017-06-24T15:48:16Z</time>
      </trkpt>
      <trkpt lat="48.073020" lon="2.638980">
        <time>2017-06-24T15:48:17Z</time>
      </trkpt>
      <trkpt lat="48.072820" lon="2.639400">
        <time>2017-06-24T15:48:18Z</time>
      </trkpt>
      <trkpt lat="48.072630" lon="2.639820">
        <time>2017-06-24T15:48:19Z</time>
      </trkpt>
      <trkpt lat="48.072420" lon="2.640260">
        <time>2017-06-24T15:48:20Z</time>
      </trkpt>
      <trkpt lat="48.072240" lon="2.640650">
        <time>2017-06-24T15:48:21Z</time>
      </trkpt>
      <trkpt lat="48.072050" lon="2.641070">
        <time>2017-06-24T15:48:22Z</time>
      </trkpt>
      <trkpt lat="48.071840" lon="2.641510">
        <time>2017-06-24T15:48:23Z</time>
      </trkpt>
      <trkpt lat="48.071660" lon="2.641900">
        <time>2017-06-24T15:48:24Z</time>
      </trkpt>
      <trkpt lat="48.071460" lon="2.642300">
        <time>2017-06-24T15:48:25Z</time>
      </trkpt>
      <trkpt lat="48.071250" lon="2.642750">
        <time>2017-06-24T15:48:26Z</time>
      </trkpt>
      <trkpt lat="48.071070" lon="2.643140">
        <time>2017-06-24T15:48:27Z</time>
      </trkpt>
      <trkpt lat="48.070860" lon="2.643580">
        <time>2017-06-24T15:48:28Z</time>
      </trkpt>
      <trkpt lat="48.070680" lon="2.643980">
        <time>2017-06-24T15:48:29Z</time>
      </trkpt>
      <trkpt lat="48.070480" lon="2.644400">
        <time>2017-06-24T15:48:30Z</time>
      </trkpt>
      <trkpt lat="48.070280" lon="2.644850">
        <time>2017-06-24T15:48:31Z</time>
      </trkpt>
      <trkpt lat="48.070100" lon="2.645250">
        <time>2017-06-24T15:48:32Z</time>
      </trkpt>
      <trkpt lat="48.069910" lon="2.645670">
        <time>2017-06-24T15:48:33Z</time>
      </trkpt>
      <trkpt lat="48.069720" lon="2.646090">
        <time>2017-06-24T15:48:34Z</time>
      </trkpt>
      <trkpt lat="48.069530" lon="2.646520">
        <time>2017-06-24T15:48:35Z</time>
      </trkpt>
      <trkpt lat="48.069330" lon="2.646980">
        <time>2017-06-24T15:48:36Z</time>
      </trkpt>
      <trkpt lat="48.069160" lon="2.647380">
        <time>2017-06-24T15:48:37Z</time>
      </trkpt>
      <trkpt lat="48.068980" lon="2.647810">
        <time>2017-06-24T15:48:38Z</time>
      </trkpt>
      <trkpt lat="48.068800" lon="2.648270">
        <time>2017-06-24T15:48:39Z</time>
      </trkpt>
      <trkpt lat="48.068640" lon="2.648680">
        <time>2017-06-24T15:48:40Z</time>
      </trkpt>
      <trkpt lat="48.068470" lon="2.649120">
        <time>2017-06-24T15:48:41Z</time>
      </trkpt>
      <trkpt lat="48.068290" lon="2.649590">
        <time>2017-06-24T15:48:42Z</time>
      </trkpt>
      <trkpt lat="48.068140" lon="2.650000">
        <time>2017-06-24T15:48:43Z</time>
      </trkpt>
      <trkpt lat="48.067970" lon="2.650470">
        <time>2017-06-24T15:48:44Z</time>
      </trkpt>
      <trkpt lat="48.067830" lon="2.650880">
        <time>2017-06-24T15:48:45Z</time>
      </trkpt>
      <trkpt lat="48.067670" lon="2.651320">
        <time>2017-06-24T15:48:46Z</time>
      </trkpt>
      <trkpt lat="48.067500" lon="2.651800">
        <time>2017-06-24T15:48:47Z</time>
      </trkpt>
      <trkpt lat="48.067370" lon="2.652220">
        <time>2017-06-24T15:48:48Z</time>
      </trkpt>
      <trkpt lat="48.067220" lon="2.652670">
        <time>2017-06-24T15:48:49Z</time>
      </trkpt>
      <trkpt lat="48.067080" lon="2.653110">
        <time>2017-06-24T15:48:50Z</time>
      </trkpt>
      <trkpt lat="48.066940" lon="2.653570">
        <time>2017-06-24T15:48:51Z</time>
      </trkpt>
      <trkpt lat="48.066790" lon="2.654060">
        <time>2017-06-24T15:48:52Z</time>
      </trkpt>
      <trkpt lat="48.066660" lon="2.654490">
        <time>2017-06-24T15:48:53Z</time>
      </trkpt>
      <trkpt lat="48.066530" lon="2.654950">
        <time>2017-06-24T15:48:54Z</time>
      </trkpt>
      <trkpt lat="48.066400" lon="2.655450">
        <time>2017-06-24T15:48:55Z</time>
      </trkpt>
      <trkpt lat="48.066280" lon="2.655880">
        <time>2017-06-24T15:48:56Z</time>
      </trkpt>
      <trkpt lat="48.066150" lon="2.656350">
        <time>2017-06-24T15:48:57Z</time>
      </trkpt>
      <trkpt lat="48.066030" lon="2.656840">
        <time>2017-06-24T15:48:58Z</time>
      </trkpt>
      <trkpt lat="48.065920" lon="2.657280">
        <time>2017-06-24T15:48:59Z</time>
      </trkpt>
      <trkpt lat="48.065790" lon="2.657780">
        <time>2017-06-24T15:49:00Z</time>
      </trkpt>
      <trkpt lat="48.065690" lon="2.658220">
        <time>2017-06-24T15:49:01Z</time>
      </trkpt>
      <trkpt lat="48.065580" lon="2.658690">
        <time>2017-06-24T15:49:02Z</time>
      </trkpt>
      <trkpt lat="48.065470" lon="2.659190">
        <time>2017-06-24T15:49:03Z</time>
      </trkpt>
      <trkpt lat="48.065360" lon="2.659630">
        <time>2017-06-24T15:49:04Z</time>
      </trkpt>
      <trkpt lat="48.065260" lon="2.660090">
        <time>2017-06-24T15:49:05Z</time>
      </trkpt>
      <trkpt lat="48.065150" lon="2.660550">
        <time>2017-06-24T15:49:06Z</time>
      </trkpt>
      <trkpt lat="48.065030" lon="2.661020">
        <time>2017-06-24T15:49:07Z</time>
      </trkpt>
      <trkpt lat="48.064920" lon="2.661500">
        <time>2017-06-24T15:49:08Z</time>
      </trkpt>
      <trkpt lat="48.064820" lon="2.661930">
        <time>2017-06-24T15:49:09Z</time>
      </trkpt>
      <trkpt lat="48.064720" lon="2.662380">
        <time>2017-06-24T15:49:10Z</time>
      </trkpt>
      <trkpt lat="48.064610" lon="2.662860">
        <time>2017-06-24T15:49:11Z</time>
      </trkpt>
      <trkpt lat="48.064510" lon="2.663280">
        <time>2017-06-24T15:49:12Z</time>
      </trkpt>
      <trkpt lat="48.064400" lon="2.663730">
        <time>2017-06-24T15:49:13Z</time>
      </trkpt>
      <trkpt lat="48.064290" lon="2.664200">
        <time>2017-06-24T15:49:14Z</time>
      </trkpt>
      <trkpt lat="48.064200" lon="2.664620">
        <time>2017-06-24T15:49:15Z</time>
      </trkpt>
      <trkpt lat="48.064090" lon="2.665090">
        <time>2017-06-24T15:49:16Z</time>
      </trkpt>
      <trkpt lat="48.063990" lon="2.665520">
        <time>2017-06-24T15:49:17Z</time>
      </trkpt>
      <trkpt lat="48.063880" lon="2.665970">
        <time>2017-06-24T15:49:18Z</time>
      </trkpt>
      <trkpt lat="48.063770" lon="2.666450">
        <time>2017-06-24T15:49:19Z</time>
      </trkpt>
      <trkpt lat="48.063670" lon="2.666880">
        <time>2017-06-24T15:49:20Z</time>
      </trkpt>
      <trkpt lat="48.063560" lon="2.667340">
        <time>2017-06-24T15:49:21Z</time>
      </trkpt>
      <trkpt lat="48.063460" lon="2.667790">
        <time>2017-06-24T15:49:22Z</time>
      </trkpt>
      <trkpt lat="48.063350" lon="2.668250">
        <time>2017-06-24T15:49:23Z</time>
      </trkpt>
      <trkpt lat="48.063240" lon="2.668740">
        <time>2017-06-24T15:49:24Z</time>
      </trkpt>
      <trkpt lat="48.063140" lon="2.669160">
        <time>2017-06-24T15:49:25Z</time>
      </trkpt>
      <trkpt lat="48.063030" lon="2.669620">
        <time>2017-06-24T15:49:26Z</time>
      </trkpt>
      <trkpt lat="48.062920" lon="2.670110">
        <time>2017-06-24T15:49:27Z</time>
      </trkpt>
      <trkpt lat="48.062820" lon="2.670540">
        <time>2017-06-24T15:49:28Z</time>
      </trkpt>
      <trkpt lat="48.062710" lon="2.671010">
        <time>2017-06-24T15:49:29Z</time>
      </trkpt>
      <trkpt lat="48.062600" lon="2.671500">
        <time>2017-06-24T15:49:30Z</time>
      </trkpt>
      <trkpt lat="48.062490" lon="2.671940">
        <time>2017-06-24T15:49:31Z</time>
      </trkpt>
      <trkpt lat="48.062380" lon="2.672440">
        <time>2017-06-24T15:49:32Z</time>
      </trkpt>
      <trkpt lat="48.062280" lon="2.672870">
        <time>2017-06-24T15:49:33Z</time>
      </trkpt>
      <trkpt lat="48.062160" lon="2.673350">
        <time>2017-06-24T15:49:34Z</time>
      </trkpt>
      <trkpt lat="48.062040" lon="2.673850">
        <time>2017-06-24T15:49:35Z</time>
      </trkpt>
      <trkpt lat="48.061940" lon="2.674290">
        <time>2017-06-24T15:49:36Z</time>
      </trkpt>
      <trkpt lat="48.061820" lon="2.674760">
        <time>2017-06-24T15:49:37Z</time>
      </trkpt>
      <trkpt lat="48.061710" lon="2.675230">
        <time>2017-06-24T15:49:38Z</time>
      </trkpt>
      <trkpt lat="48.061600" lon="2.675700">
        <time>2017-06-24T15:49:39Z</time>
      </trkpt>
      <trkpt lat="48.061480" lon="2.676210">
        <time>2017-06-24T15:49:40Z</time>
      </trkpt>
      <trkpt lat="48.061380" lon="2.676650">
        <time>2017-06-24T15:49:41Z</time>
      </trkpt>
      <trkpt lat="48.061270" lon="2.677130">
        <time>2017-06-24T15:49:42Z</time>
      </trkpt>
      <trkpt lat="48.061150" lon="2.677630">
        <time>2017-06-24T15:49:43Z</time>
      </trkpt>
      <trkpt lat="48.061050" lon="2.678070">
        <time>2017-06-24T15:49:44Z</time>
      </trkpt>
      <trkpt lat="48.060940" lon="2.678540">
        <time>2017-06-24T15:49:45Z</time>
      </trkpt>
      <trkpt lat="48.060820" lon="2.679030">
        <time>2017-06-24T15:49:46Z</time>
      </trkpt>
      <trkpt lat="48.060700" lon="2.679470">
        <time>2017-06-24T15:49:47Z</time>
      </trkpt>
      <trkpt lat="48.060570" lon="2.679950">
        <time>2017-06-24T15:49:48Z</time>
      </trkpt>
      <trkpt lat="48.060450" lon="2.680380">
        <time>2017-06-24T15:49:49Z</time>
      </trkpt>
      <trkpt lat="48.060320" lon="2.680830">
        <time>2017-06-24T15:49:50Z</time>
      </trkpt>
      <trkpt lat="48.060180" lon="2.681310">
        <time>2017-06-24T15:49:51Z</time>
      </trkpt>
      <trkpt lat="48.060060" lon="2.681720">
        <time>2017-06-24T15:49:52Z</time>
      </trkpt>
      <trkpt lat="48.059920" lon="2.682160">
        <time>2017-06-24T15:49:53Z</time>
      </trkpt>
      <trkpt lat="48.059790" lon="2.682600">
        <time>2017-06-24T15:49:54Z</time>
      </trkpt>
      <trkpt lat="48.059650" lon="2.683040">
        <time>2017-06-24T15:49:55Z</time>
      </trkpt>
      <trkpt lat="48.059500" lon="2.683510">
        <time>2017-06-24T15:49:56Z</time>
      </trkpt>
      <trkpt lat="48.059360" lon="2.683920">
        <time>2017-06-24T15:49:57Z</time>
      </trkpt>
      <trkpt lat="48.059210" lon="2.684360">
        <time>2017-06-24T15:49:58Z</time>
      </trkpt>
      <trkpt lat="48.059060" lon="2.684820">
        <time>2017-06-24T15:49:59Z</time>
      </trkpt>
      <trkpt lat="48.058910" lon="2.685220">
        <time>2017-06-24T15:50:00Z</time>
      </trkpt>
      <trkpt lat="48.058760" lon="2.685650">
        <time>2017-06-24T15:50:01Z</time>
      </trkpt>
      <trkpt lat="48.058590" lon="2.686100">
        <time>2017-06-24T15:50:02Z</time>
      </trkpt>
      <trkpt lat="48.058440" lon="2.686490">
        <time>2017-06-24T15:50:03Z</time>
      </trkpt>
      <trkpt lat="48.058260" lon="2.686950">
        <time>2017-06-24T15:50:04Z</time>
      </trkpt>
      <trkpt lat="48.058100" lon="2.687340">
        <time>2017-06-24T15:50:05Z</time>
      </trkpt>
      <trkpt lat="48.057930" lon="2.687760">
        <time>2017-06-24T15:50:06Z</time>
      </trkpt>
      <trkpt lat="48.057750" lon="2.688200">
        <time>2017-06-24T15:50:07Z</time>
      </trkpt>
      <trkpt lat="48.057590" lon="2.688590">
        <time>2017-06-24T15:50:08Z</time>
      </trkpt>
      <trkpt lat="48.057410" lon="2.689010">
        <time>2017-06-24T15:50:09Z</time>
      </trkpt>
      <trkpt lat="48.057220" lon="2.689420">
        <time>2017-06-24T15:50:10Z</time>
      </trkpt>
      <trkpt lat="48.057040" lon="2.689830">
        <time>2017-06-24T15:50:11Z</time>
      </trkpt>
      <trkpt lat="48.056840" lon="2.690260">
        <time>2017-06-24T15:50:12Z</time>
      </trkpt>
      <trkpt lat="48.056660" lon="2.690640">
        <time>2017-06-24T15:50:13Z</time>
      </trkpt>
      <trkpt lat="48.056480" lon="2.691040">
        <time>2017-06-24T15:50:14Z</time>
      </trkpt>
      <trkpt lat="48.056280" lon="2.691470">
        <time>2017-06-24T15:50:15Z</time>
      </trkpt>
      <trkpt lat="48.056100" lon="2.691840">
        <time>2017-06-24T15:50:16Z</time>
      </trkpt>
      <trkpt lat="48.055910" lon="2.692240">
        <time>2017-06-24T15:50:17Z</time>
      </trkpt>
      <trkpt lat="48.055720" lon="2.692660">
        <time>2017-06-24T15:50:18Z</time>
      </trkpt>
      <trkpt lat="48.055540" lon="2.693030">
        <time>2017-06-24T15:50:19Z</time>
      </trkpt>
      <trkpt lat="48.055340" lon="2.693450">
        <time>2017-06-24T15:50:20Z</time>
      </trkpt>
      <trkpt lat="48.055170" lon="2.693820">
        <time>2017-06-24T15:50:21Z</time>
      </trkpt>
      <trkpt lat="48.054980" lon="2.694230">
        <time>2017-06-24T15:50:22Z</time>
      </trkpt>
      <trkpt lat="48.054780" lon="2.694650">
        <time>2017-06-24T15:50:23Z</time>
      </trkpt>
      <trkpt lat="48.054610" lon="2.695030">
        <time>2017-06-24T15:50:24Z</time>
      </trkpt>
      <trkpt lat="48.054430" lon="2.695440">
        <time>2017-06-24T15:50:25Z</time>
      </trkpt>
      <trkpt lat="48.054250" lon="2.695850">
        <time>2017-06-24T15:50:26Z</time>
      </trkpt>
      <trkpt lat="48.054090" lon="2.696270">
        <time>2017-06-24T15:50:27Z</time>
      </trkpt>
      <trkpt lat="48.053930" lon="2.696730">
        <time>2017-06-24T15:50:28Z</time>
      </trkpt>
      <trkpt lat="48.053790" lon="2.697140">
        <time>2017-06-24T15:50:29Z</time>
      </trkpt>
      <trkpt lat="48.053640" lon="2.697580">
        <time>2017-06-24T15:50:30Z</time>
      </trkpt>
      <trkpt lat="48.053490" lon="2.698050">
        <time>2017-06-24T15:50:31Z</time>
      </trkpt>
      <trkpt lat="48.053370" lon="2.698480">
        <time>2017-06-24T15:50:32Z</time>
      </trkpt>
      <trkpt lat="48.053250" lon="2.698940">
        <time>2017-06-24T15:50:33Z</time>
      </trkpt>
      <trkpt lat="48.053120" lon="2.699420">
        <time>2017-06-24T15:50:34Z</time>
      </trkpt>
      <trkpt lat="48.053030" lon="2.699860">
        <time>2017-06-24T15:50:35Z</time>
      </trkpt>
      <trkpt lat="48.052920" lon="2.700360">
        <time>2017-06-24T15:50:36Z</time>
      </trkpt>
      <trkpt lat="48.052840" lon="2.700810">
        <time>2017-06-24T15:50:37Z</time>
      </trkpt>
      <trkpt lat="48.052750" lon="2.701290">
        <time>2017-06-24T15:50:38Z</time>
      </trkpt>
      <trkpt lat="48.052670" lon="2.701800">
        <time>2017-06-24T15:50:39Z</time>
      </trkpt>
      <trkpt lat="48.052610" lon="2.702240">
        <time>2017-06-24T15:50:40Z</time>
      </trkpt>
      <trkpt lat="48.052550" lon="2.702730">
        <time>2017-06-24T15:50:41Z</time>
      </trkpt>
      <trkpt lat="48.052500" lon="2.703210">
        <time>2017-06-24T15:50:42Z</time>
      </trkpt>
      <trkpt lat="48.052450" lon="2.703700">
        <time>2017-06-24T15:50:43Z</time>
      </trkpt>
      <trkpt lat="48.052410" lon="2.704210">
        <time>2017-06-24T15:50:44Z</time>
      </trkpt>
      <trkpt lat="48.052380" lon="2.704660">
        <time>2017-06-24T15:50:45Z</time>
      </trkpt>
      <trkpt lat="48.052360" lon="2.705150">
        <time>2017-06-24T15:50:46Z</time>
      </trkpt>
      <trkpt lat="48.052350" lon="2.705670">
        <time>2017-06-24T15:50:47Z</time>
      </trkpt>
      <trkpt lat="48.052340" lon="2.706130">
        <time>2017-06-24T15:50:48Z</time>
      </trkpt>
      <trkpt lat="48.052340" lon="2.706620">
        <time>2017-06-24T15:50:49Z</time>
      </trkpt>
      <trkpt lat="48.052360" lon="2.707140">
        <time>2017-06-24T15:50:50Z</time>
      </trkpt>
      <trkpt lat="48.052380" lon="2.707590">
        <time>2017-06-24T15:50:51Z</time>
      </trkpt>
      <trkpt lat="48.052410" lon="2.708110">
        <time>2017-06-24T15:50:52Z</time>
      </trkpt>
      <trkpt lat="48.052450" lon="2.708560">
        <time>2017-06-24T15:50:53Z</time>
      </trkpt>
      <trkpt lat="48.052490" lon="2.709050">
        <time>2017-06-24T15:50:54Z</time>
      </trkpt>
      <trkpt lat="48.052540" lon="2.709570">
        <time>2017-06-24T15:50:55Z</time>
      </trkpt>
      <trkpt lat="48.052600" lon="2.710020">
        <time>2017-06-24T15:50:56Z</time>
      </trkpt>
      <trkpt lat="48.052660" lon="2.710490">
        <time>2017-06-24T15:50:57Z</time>
      </trkpt>
      <trkpt lat="48.052740" lon="2.710970">
        <time>2017-06-24T15:50:58Z</time>
      </trkpt>
      <trkpt lat="48.052830" lon="2.711440">
        <time>2017-06-24T15:50:59Z</time>
      </trkpt>
      <trkpt lat="48.052920" lon="2.711940">
        <time>2017-06-24T15:51:00Z</time>
      </trkpt>
      <trkpt lat="48.053010" lon="2.712380">
        <time>2017-06-24T15:51:01Z</time>
      </trkpt>
      <trkpt lat="48.053120" lon="2.712850">
        <time>2017-06-24T15:51:02Z</time>
      </trkpt>
      <trkpt lat="48.053230" lon="2.713330">
        <time>2017-06-24T15:51:03Z</time>
      </trkpt>
      <trkpt lat="48.053350" lon="2.713760">
        <time>2017-06-24T15:51:04Z</time>
      </trkpt>
      <trkpt lat="48.053480" lon="2.714210">
        <time>2017-06-24T15:51:05Z</time>
      </trkpt>
      <trkpt lat="48.053620" lon="2.714690">
        <time>2017-06-24T15:51:06Z</time>
      </trkpt>
      <trkpt lat="48.053740" lon="2.715110">
        <time>2017-06-24T15:51:07Z</time>
      </trkpt>
      <trkpt lat="48.053880" lon="2.715590">
        <time>2017-06-24T15:51:08Z</time>
      </trkpt>
      <trkpt lat="48.054000" lon="2.716010">
        <time>2017-06-24T15:51:09Z</time>
      </trkpt>
      <trkpt lat="48.054130" lon="2.716460">
        <time>2017-06-24T15:51:10Z</time>
      </trkpt>
      <trkpt lat="48.054260" lon="2.716950">
        <time>2017-06-24T15:51:11Z</time>
      </trkpt>
      <trkpt lat="48.054380" lon="2.717370">
        <time>2017-06-24T15:51:12Z</time>
      </trkpt>
      <trkpt lat="48.054510" lon="2.717810">
        <time>2017-06-24T15:51:13Z</time>
      </trkpt>
      <trkpt lat="48.054640" lon="2.718260">
        <time>2017-06-24T15:51:14Z</time>
      </trkpt>
      <trkpt lat="48.054770" lon="2.718710">
        <time>2017-06-24T15:51:15Z</time>
      </trkpt>
      <trkpt lat="48.054900" lon="2.719190">
        <time>2017-06-24T15:51:16Z</time>
      </trkpt>
      <trkpt lat="48.055020" lon="2.719600">
        <time>2017-06-24T15:51:17Z</time>
      </trkpt>
      <trkpt lat="48.055140" lon="2.720050">
        <time>2017-06-24T15:51:18Z</time>
      </trkpt>
      <trkpt lat="48.055270" lon="2.720530">
        <time>2017-06-24T15:51:19Z</time>
      </trkpt>
      <trkpt lat="48.055380" lon="2.720950">
        <time>2017-06-24T15:51:20Z</time>
      </trkpt>
      <trkpt lat="48.055480" lon="2.721410">
        <time>2017-06-24T15:51:21Z</time>
      </trkpt>
      <trkpt lat="48.055590" lon="2.721900">
        <time>2017-06-24T15:51:22Z</time>
      </trkpt>
      <trkpt lat="48.055690" lon="2.722330">
        <time>2017-06-24T15:51:23Z</time>
      </trkpt>
      <trkpt lat="48.055800" lon="2.722810">
        <time>2017-06-24T15:51:24Z</time>
      </trkpt>
      <trkpt lat="48.055890" lon="2.723250">
        <time>2017-06-24T15:51:25Z</time>
      </trkpt>
      <trkpt lat="48.055990" lon="2.723710">
        <time>2017-06-24T15:51:26Z</time>
      </trkpt>
      <trkpt lat="48.056080" lon="2.724200">
        <time>2017-06-24T15:51:27Z</time>
      </trkpt>
      <trkpt lat="48.056170" lon="2.724630">
        <time>2017-06-24T15:51:28Z</time>
      </trkpt>
      <trkpt lat="48.056250" lon="2.725090">
        <time>2017-06-24T15:51:29Z</time>
      </trkpt>
      <trkpt lat="48.056340" lon="2.725560">
        <time>2017-06-24T15:51:30Z</time>
      </trkpt>
      <trkpt lat="48.056420" lon="2.726020">
        <time>2017-06-24T15:51:31Z</time>
      </trkpt>
      <trkpt lat="48.056500" lon="2.726510">
        <time>2017-06-24T15:51:32Z</time>
      </trkpt>
      <trkpt lat="48.056580" lon="2.726950">
        <time>2017-06-24T15:51:33Z</time>
      </trkpt>
      <trkpt lat="48.056670" lon="2.727400">
        <time>2017-06-24T15:51:34Z</time>
      </trkpt>
      <trkpt lat="48.056750" lon="2.727890">
        <time>2017-06-24T15:51:35Z</time>
      </trkpt>
      <trkpt lat="48.056830" lon="2.728320">
        <time>2017-06-24T15:51:36Z</time>
      </trkpt>
      <trkpt lat="48.056910" lon="2.728770">
        <time>2017-06-24T15:51:37Z</time>
      </trkpt>
      <trkpt lat="48.056990" lon="2.729280">
        <time>2017-06-24T15:51:38Z</time>
      </trkpt>
      <trkpt lat="48.057060" lon="2.729710">
        <time>2017-06-24T15:51:39Z</time>
      </trkpt>
      <trkpt lat="48.057150" lon="2.730200">
        <time>2017-06-24T15:51:40Z</time>
      </trkpt>
      <trkpt lat="48.057230" lon="2.730640">
        <time>2017-06-24T15:51:41Z</time>
      </trkpt>
      <trkpt lat="48.057320" lon="2.731110">
        <time>2017-06-24T15:51:42Z</time>
      </trkpt>
      <trkpt lat="48.057400" lon="2.731610">
        <time>2017-06-24T15:51:43Z</time>
      </trkpt>
      <trkpt lat="48.057480" lon="2.732050">
        <time>2017-06-24T15:51:44Z</time>
      </trkpt>
      <trkpt lat="48.057560" lon="2.732520">
        <time>2017-06-24T15:51:45Z</time>
      </trkpt>
      <trkpt lat="48.057650" lon="2.732990">
        <time>2017-06-24T15:51:46Z</time>
      </trkpt>
      <trkpt lat="48.057730" lon="2.733450">
        <time>2017-06-24T15:51:47Z</time>
      </trkpt>
      <trkpt lat="48.057820" lon="2.733950">
        <time>2017-06-24T15:51:48Z</time>
      </trkpt>
      <trkpt lat="48.057900" lon="2.734380">
        <time>2017-06-24T15:51:49Z</time>
      </trkpt>
      <trkpt lat="48.057990" lon="2.734850">
        <time>2017-06-24T15:51:50Z</time>
      </trkpt>
      <trkpt lat="48.058070" lon="2.735340">
        <time>2017-06-24T15:51:51Z</time>
      </trkpt>
      <trkpt lat="48.058150" lon="2.735770">
        <time>2017-06-24T15:51:52Z</time>
      </trkpt>
      <trkpt lat="48.058230" lon="2.736250">
        <time>2017-06-24T15:51:53Z</time>
      </trkpt>
      <trkpt lat="48.058320" lon="2.736750">
        <time>2017-06-24T15:51:54Z</time>
      </trkpt>
      <trkpt lat="48.058400" lon="2.737190">
        <time>2017-06-24T15:51:55Z</time>
      </trkpt>
      <trkpt lat="48.058490" lon="2.737700">
        <time>2017-06-24T15:51:56Z</time>
      </trkpt>
      <trkpt lat="48.058570" lon="2.738140">
        <time>2017-06-24T15:51:57Z</time>
      </trkpt>
      <trkpt lat="48.058640" lon="2.738620">
        <time>2017-06-24T15:51:58Z</time>
      </trkpt>
      <trkpt lat="48.058730" lon="2.739130">
        <time>2017-06-24T15:51:59Z</time>
      </trkpt>
      <trkpt lat="48.058820" lon="2.739570">
        <time>2017-06-24T15:52:00Z</time>
      </trkpt>
      <trkpt lat="48.058900" lon="2.740050">
        <time>2017-06-24T15:52:01Z</time>
      </trkpt>
      <trkpt lat="48.058980" lon="2.740530">
        <time>2017-06-24T15:52:02Z</time>
      </trkpt>
      <trkpt lat="48.059070" lon="2.741010">
        <time>2017-06-24T15:52:03Z</time>
      </trkpt>
      <trkpt lat="48.059160" lon="2.741530">
        <time>2017-06-24T15:52:04Z</time>
      </trkpt>
      <trkpt lat="48.059240" lon="2.741970">
        <time>2017-06-24T15:52:05Z</time>
      </trkpt>
      <trkpt lat="48.059330" lon="2.742460">
        <time>2017-06-24T15:52:06Z</time>
      </trkpt>
      <trkpt lat="48.059420" lon="2.742980">
        <time>2017-06-24T15:52:07Z</time>
      </trkpt>
      <trkpt lat="48.059490" lon="2.743440">
        <time>2017-06-24T15:52:08Z</time>
      </trkpt>
      <trkpt lat="48.059570" lon="2.743930">
        <time>2017-06-24T15:52:09Z</time>
      </trkpt>
      <trkpt lat="48.059650" lon="2.744450">
        <time>2017-06-24T15:52:10Z</time>
      </trkpt>
      <trkpt lat="48.059720" lon="2.744920">
        <time>2017-06-24T15:52:11Z</time>
      </trkpt>
      <trkpt lat="48.059790" lon="2.745450">
        <time>2017-06-24T15:52:12Z</time>
      </trkpt>
      <trkpt lat="48.059850" lon="2.745920">
        <time>2017-06-24T15:52:13Z</time>
      </trkpt>
      <trkpt lat="48.059910" lon="2.746420">
        <time>2017-06-24T15:52:14Z</time>
      </trkpt>
      <trkpt lat="48.059970" lon="2.746940">
        <time>2017-06-24T15:52:15Z</time>
      </trkpt>
      <trkpt lat="48.060030" lon="2.747420">
        <time>2017-06-24T15:52:16Z</time>
      </trkpt>
      <trkpt lat="48.060080" lon="2.747910">
        <time>2017-06-24T15:52:17Z</time>
      </trkpt>
      <trkpt lat="48.060130" lon="2.748410">
        <time>2017-06-24T15:52:18Z</time>
      </trkpt>
      <trkpt lat="48.060180" lon="2.748910">
        <time>2017-06-24T15:52:19Z</time>
      </trkpt>
      <trkpt lat="48.060230" lon="2.749430">
        <time>2017-06-24T15:52:20Z</time>
      </trkpt>
      <trkpt lat="48.060270" lon="2.749900">
        <time>2017-06-24T15:52:21Z</time>
      </trkpt>
      <trkpt lat="48.060310" lon="2.750390">
        <time>2017-06-24T15:52:22Z</time>
      </trkpt>
      <trkpt lat="48.060360" lon="2.750920">
        <time>2017-06-24T15:52:23Z</time>
      </trkpt>
      <trkpt lat="48.060410" lon="2.751370">
        <time>2017-06-24T15:52:24Z</time>
      </trkpt>
      <trkpt lat="48.060450" lon="2.751870">
        <time>2017-06-24T15:52:25Z</time>
      </trkpt>
      <trkpt lat="48.060500" lon="2.752390">
        <time>2017-06-24T15:52:26Z</time>
      </trkpt>
      <trkpt lat="48.060540" lon="2.752850">
        <time>2017-06-24T15:52:27Z</time>
      </trkpt>
      <trkpt lat="48.060590" lon="2.753360">
        <time>2017-06-24T15:52:28Z</time>
      </trkpt>
      <trkpt lat="48.060630" lon="2.753820">
        <time>2017-06-24T15:52:29Z</time>
      </trkpt>
      <trkpt lat="48.060670" lon="2.754310">
        <time>2017-06-24T15:52:30Z</time>
      </trkpt>
      <trkpt lat="48.060720" lon="2.754820">
        <time>2017-06-24T15:52:31Z</time>
      </trkpt>
      <trkpt lat="48.060760" lon="2.755270">
        <time>2017-06-24T15:52:32Z</time>
      </trkpt>
      <trkpt lat="48.060800" lon="2.755760">
        <time>2017-06-24T15:52:33Z</time>
      </trkpt>
      <trkpt lat="48.060850" lon="2.756240">
        <time>2017-06-24T15:52:34Z</time>
      </trkpt>
      <trkpt lat="48.060890" lon="2.756720">
        <time>2017-06-24T15:52:35Z</time>
      </trkpt>
      <trkpt lat="48.060940" lon="2.757240">
        <time>2017-06-24T15:52:36Z</time>
      </trkpt>
      <trkpt lat="48.060980" lon="2.757690">
        <time>2017-06-24T15:52:37Z</time>
      </trkpt>
      <trkpt lat="48.061030" lon="2.758180">
        <time>2017-06-24T15:52:38Z</time>
      </trkpt>
      <trkpt lat="48.061080" lon="2.758690">
        <time>2017-06-24T15:52:39Z</time>
      </trkpt>
      <trkpt lat="48.061120" lon="2.759150">
        <time>2017-06-24T15:52:40Z</time>
      </trkpt>
      <trkpt lat="48.061170" lon="2.759630">
        <time>2017-06-24T15:52:41Z</time>
      </trkpt>
      <trkpt lat="48.061220" lon="2.760150">
        <time>2017-06-24T15:52:42Z</time>
      </trkpt>
      <trkpt lat="48.061260" lon="2.760610">
        <time>2017-06-24T15:52:43Z</time>
      </trkpt>
      <trkpt lat="48.061310" lon="2.761130">
        <time>2017-06-24T15:52:44Z</time>
      </trkpt>
      <trkpt lat="48.061350" lon="2.761580">
        <time>2017-06-24T15:52:45Z</time>
      </trkpt>
      <trkpt lat="48.061390" lon="2.762070">
        <time>2017-06-24T15:52:46Z</time>
      </trkpt>
      <trkpt lat="48.061440" lon="2.762600">
        <time>2017-06-24T15:52:47Z</time>
      </trkpt>
      <trkpt lat="48.061480" lon="2.763050">
        <time>2017-06-24T15:52:48Z</time>
      </trkpt>
      <trkpt lat="48.061530" lon="2.763540">
        <time>2017-06-24T15:52:49Z</time>
      </trkpt>
      <trkpt lat="48.061580" lon="2.764030">
        <time>2017-06-24T15:52:50Z</time>
      </trkpt>
      <trkpt lat="48.061630" lon="2.764510">
        <time>2017-06-24T15:52:51Z</time>
      </trkpt>
      <trkpt lat="48.061700" lon="2.765020">
        <time>2017-06-24T15:52:52Z</time>
      </trkpt>
      <trkpt lat="48.061760" lon="2.765460">
        <time>2017-06-24T15:52:53Z</time>
      </trkpt>
      <trkpt lat="48.061820" lon="2.765940">
        <time>2017-06-24T15:52:54Z</time>
      </trkpt>
      <trkpt lat="48.061890" lon="2.766440">
        <time>2017-06-24T15:52:55Z</time>
      </trkpt>
      <trkpt lat="48.061950" lon="2.766880">
        <time>2017-06-24T15:52:56Z</time>
      </trkpt>
      <trkpt lat="48.062010" lon="2.767350">
        <time>2017-06-24T15:52:57Z</time>
      </trkpt>
      <trkpt lat="48.062080" lon="2.767850">
        <time>2017-06-24T15:52:58Z</time>
      </trkpt>
      <trkpt lat="48.062140" lon="2.768290">
        <time>2017-06-24T15:52:59Z</time>
      </trkpt>
      <trkpt lat="48.062210" lon="2.768790">
        <time>2017-06-24T15:53:00Z</time>
      </trkpt>
      <trkpt lat="48.062280" lon="2.769230">
        <time>2017-06-24T15:53:01Z</time>
      </trkpt>
      <trkpt lat="48.062340" lon="2.769710">
        <time>2017-06-24T15:53:02Z</time>
      </trkpt>
      <trkpt lat="48.062410" lon="2.770200">
        <time>2017-06-24T15:53:03Z</time>
      </trkpt>
      <trkpt lat="48.062470" lon="2.770640">
        <time>2017-06-24T15:53:04Z</time>
      </trkpt>
      <trkpt lat="48.062540" lon="2.771110">
        <time>2017-06-24T15:53:05Z</time>
      </trkpt>
      <trkpt lat="48.062600" lon="2.771580">
        <time>2017-06-24T15:53:06Z</time>
      </trkpt>
      <trkpt lat="48.062670" lon="2.772030">
        <time>2017-06-24T15:53:07Z</time>
      </trkpt>
      <trkpt lat="48.062740" lon="2.772520">
        <time>2017-06-24T15:53:08Z</time>
      </trkpt>
      <trkpt lat="48.062800" lon="2.772950">
        <time>2017-06-24T15:53:09Z</time>
      </trkpt>
      <trkpt lat="48.062860" lon="2.773400">
        <time>2017-06-24T15:53:10Z</time>
      </trkpt>
      <trkpt lat="48.062930" lon="2.773890">
        <time>2017-06-24T15:53:11Z</time>
      </trkpt>
      <trkpt lat="48.062980" lon="2.774310">
        <time>2017-06-24T15:53:12Z</time>
      </trkpt>
      <trkpt lat="48.063050" lon="2.774760">
        <time>2017-06-24T15:53:13Z</time>
      </trkpt>
      <trkpt lat="48.063110" lon="2.775240">
        <time>2017-06-24T15:53:14Z</time>
      </trkpt>
      <trkpt lat="48.063170" lon="2.775660">
        <time>2017-06-24T15:53:15Z</time>
      </trkpt>
      <trkpt lat="48.063240" lon="2.776150">
        <time>2017-06-24T15:53:16Z</time>
      </trkpt>
      <trkpt lat="48.063300" lon="2.776570">
        <time>2017-06-24T15:53:17Z</time>
      </trkpt>
      <trkpt lat="48.063360" lon="2.777030">
        <time>2017-06-24T15:53:18Z</time>
      </trkpt>
      <trkpt lat="48.063420" lon="2.777510">
        <time>2017-06-24T15:53:19Z</time>
      </trkpt>
      <trkpt lat="48.063480" lon="2.777940">
        <time>2017-06-24T15:53:20Z</time>
      </trkpt>
      <trkpt lat="48.063540" lon="2.778390">
        <time>2017-06-24T15:53:21Z</time>
      </trkpt>
      <trkpt lat="48.063610" lon="2.778850">
        <time>2017-06-24T15:53:22Z</time>
      </trkpt>
      <trkpt lat="48.063670" lon="2.779300">
        <time>2017-06-24T15:53:23Z</time>
      </trkpt>
      <trkpt lat="48.063740" lon="2.779780">
        <time>2017-06-24T15:53:24Z</time>
      </trkpt>
      <trkpt lat="48.063800" lon="2.780210">
        <time>2017-06-24T15:53:25Z</time>
      </trkpt>
      <trkpt lat="48.063860" lon="2.780670">
        <time>2017-06-24T15:53:26Z</time>
      </trkpt>
      <trkpt lat="48.063930" lon="2.781160">
        <time>2017-06-24T15:53:27Z</time>
      </trkpt>
      <trkpt lat="48.063990" lon="2.781590">
        <time>2017-06-24T15:53:28Z</time>
      </trkpt>
      <trkpt lat="48.064050" lon="2.782050">
        <time>2017-06-24T15:53:29Z</time>
      </trkpt>
      <trkpt lat="48.064120" lon="2.782530">
        <time>2017-06-24T15:53:30Z</time>
      </trkpt>
      <trkpt lat="48.064180" lon="2.782960">
        <time>2017-06-24T15:53:31Z</time>
      </trkpt>
      <trkpt lat="48.064250" lon="2.783450">
        <time>2017-06-24T15:53:32Z</time>
      </trkpt>
      <trkpt lat="48.064310" lon="2.783880">
        <time>2017-06-24T15:53:33Z</time>
      </trkpt>
      <trkpt lat="48.064370" lon="2.784330">
        <time>2017-06-24T15:53:34Z</time>
      </trkpt>
      <trkpt lat="48.064440" lon="2.784820">
        <time>2017-06-24T15:53:35Z</time>
      </trkpt>
      <trkpt lat="48.064490" lon="2.785250">
        <time>2017-06-24T15:53:36Z</time>
      </trkpt>
      <trkpt lat="48.064550" lon="2.785710">
        <time>2017-06-24T15:53:37Z</time>
      </trkpt>
      <trkpt lat="48.064620" lon="2.786170">
        <time>2017-06-24T15:53:38Z</time>
      </trkpt>
      <trkpt lat="48.064690" lon="2.786640">
        <time>2017-06-24T15:53:39Z</time>
      </trkpt>
      <trkpt lat="48.064760" lon="2.787130">
        <time>2017-06-24T15:53:40Z</time>
      </trkpt>
      <trkpt lat="48.064820" lon="2.787570">
        <time>2017-06-24T15:53:41Z</time>
      </trkpt>
      <trkpt lat="48.064880" lon="2.788040">
        <time>2017-06-24T15:53:42Z</time>
      </trkpt>
      <trkpt lat="48.064950" lon="2.788540">
        <time>2017-06-24T15:53:43Z</time>
      </trkpt>
      <trkpt lat="48.065010" lon="2.788980">
        <time>2017-06-24T15:53:44Z</time>
      </trkpt>
      <trkpt lat="48.065080" lon="2.789440">
        <time>2017-06-24T15:53:45Z</time>
      </trkpt>
      <trkpt lat="48.065140" lon="2.789950">
        <time>2017-06-24T15:53:46Z</time>
      </trkpt>
      <trkpt lat="48.065200" lon="2.790390">
        <time>2017-06-24T15:53:47Z</time>
      </trkpt>
      <trkpt lat="48.065270" lon="2.790890">
        <time>2017-06-24T15:53:48Z</time>
      </trkpt>
      <trkpt lat="48.065330" lon="2.791340">
        <time>2017-06-24T15:53:49Z</time>
      </trkpt>
      <trkpt lat="48.065410" lon="2.791810">
        <time>2017-06-24T15:53:50Z</time>
      </trkpt>
      <trkpt lat="48.065480" lon="2.792320">
        <time>2017-06-24T15:53:51Z</time>
      </trkpt>
      <trkpt lat="48.065530" lon="2.792770">
        <time>2017-06-24T15:53:52Z</time>
      </trkpt>
      <trkpt lat="48.065590" lon="2.793250">
        <time>2017-06-24T15:53:53Z</time>
      </trkpt>
      <trkpt lat="48.065630" lon="2.793740">
        <time>2017-06-24T15:53:54Z</time>
      </trkpt>
      <trkpt lat="48.065680" lon="2.794220">
        <time>2017-06-24T15:53:55Z</time>
      </trkpt>
      <trkpt lat="48.065720" lon="2.794740">
        <time>2017-06-24T15:53:56Z</time>
      </trkpt>
      <trkpt lat="48.065760" lon="2.795190">
        <time>2017-06-24T15:53:57Z</time>
      </trkpt>
      <trkpt lat="48.065790" lon="2.795670">
        <time>2017-06-24T15:53:58Z</time>
      </trkpt>
      <trkpt lat="48.065820" lon="2.796180">
        <time>2017-06-24T15:53:59Z</time>
      </trkpt>
      <trkpt lat="48.065830" lon="2.796630">
        <time>2017-06-24T15:54:00Z</time>
      </trkpt>
      <trkpt lat="48.065850" lon="2.797110">
        <time>2017-06-24T15:54:01Z</time>
      </trkpt>
      <trkpt lat="48.065860" lon="2.797630">
        <time>2017-06-24T15:54:02Z</time>
      </trkpt>
      <trkpt lat="48.065860" lon="2.798080">
        <time>2017-06-24T15:54:03Z</time>
      </trkpt>
      <trkpt lat="48.065870" lon="2.798590">
        <time>2017-06-24T15:54:04Z</time>
      </trkpt>
      <trkpt lat="48.065860" lon="2.799040">
        <time>2017-06-24T15:54:05Z</time>
      </trkpt>
      <trkpt lat="48.065860" lon="2.799510">
        <time>2017-06-24T15:54:06Z</time>
      </trkpt>
      <trkpt lat="48.065850" lon="2.800020">
        <time>2017-06-24T15:54:07Z</time>
      </trkpt>
      <trkpt lat="48.065830" lon="2.800460">
        <time>2017-06-24T15:54:08Z</time>
      </trkpt>
      <trkpt lat="48.065800" lon="2.800940">
        <time>2017-06-24T15:54:09Z</time>
      </trkpt>
      <trkpt lat="48.065770" lon="2.801430">
        <time>2017-06-24T15:54:10Z</time>
      </trkpt>
      <trkpt lat="48.065740" lon="2.801910">
        <time>2017-06-24T15:54:11Z</time>
      </trkpt>
      <trkpt lat="48.065710" lon="2.802410">
        <time>2017-06-24T15:54:12Z</time>
      </trkpt>
      <trkpt lat="48.065670" lon="2.802850">
        <time>2017-06-24T15:54:13Z</time>
      </trkpt>
      <trkpt lat="48.065630" lon="2.803320">
        <time>2017-06-24T15:54:14Z</time>
      </trkpt>
      <trkpt lat="48.065580" lon="2.803810">
        <time>2017-06-24T15:54:15Z</time>
      </trkpt>
      <trkpt lat="48.065540" lon="2.804240">
        <time>2017-06-24T15:54:16Z</time>
      </trkpt>
      <trkpt lat="48.065480" lon="2.804710">
        <time>2017-06-24T15:54:17Z</time>
      </trkpt>
      <trkpt lat="48.065420" lon="2.805210">
        <time>2017-06-24T15:54:18Z</time>
      </trkpt>
      <trkpt lat="48.065370" lon="2.805650">
        <time>2017-06-24T15:54:19Z</time>
      </trkpt>
      <trkpt lat="48.065300" lon="2.806140">
        <time>2017-06-24T15:54:20Z</time>
      </trkpt>
      <trkpt lat="48.065240" lon="2.806580">
        <time>2017-06-24T15:54:21Z</time>
      </trkpt>
      <trkpt lat="48.065160" lon="2.807050">
        <time>2017-06-24T15:54:22Z</time>
      </trkpt>
      <trkpt lat="48.065080" lon="2.807540">
        <time>2017-06-24T15:54:23Z</time>
      </trkpt>
      <trkpt lat="48.065000" lon="2.807980">
        <time>2017-06-24T15:54:24Z</time>
      </trkpt>
      <trkpt lat="48.064910" lon="2.808440">
        <time>2017-06-24T15:54:25Z</time>
      </trkpt>
      <trkpt lat="48.064820" lon="2.808900">
        <time>2017-06-24T15:54:26Z</time>
      </trkpt>
      <trkpt lat="48.064730" lon="2.809360">
        <time>2017-06-24T15:54:27Z</time>
      </trkpt>
      <trkpt lat="48.064620" lon="2.809860">
        <time>2017-06-24T15:54:28Z</time>
      </trkpt>
      <trkpt lat="48.064520" lon="2.810290">
        <time>2017-06-24T15:54:29Z</time>
      </trkpt>
      <trkpt lat="48.064420" lon="2.810750">
        <time>2017-06-24T15:54:30Z</time>
      </trkpt>
      <trkpt lat="48.064300" lon="2.811240">
        <time>2017-06-24T15:54:31Z</time>
      </trkpt>
      <trkpt lat="48.064190" lon="2.811660">
        <time>2017-06-24T15:54:32Z</time>
      </trkpt>
      <trkpt lat="48.064080" lon="2.812110">
        <time>2017-06-24T15:54:33Z</time>
      </trkpt>
      <trkpt lat="48.063940" lon="2.812590">
        <time>2017-06-24T15:54:34Z</time>
      </trkpt>
      <trkpt lat="48.063810" lon="2.813000">
        <time>2017-06-24T15:54:35Z</time>
      </trkpt>
      <trkpt lat="48.063670" lon="2.813470">
        <time>2017-06-24T15:54:36Z</time>
      </trkpt>
      <trkpt lat="48.063550" lon="2.813880">
        <time>2017-06-24T15:54:37Z</time>
      </trkpt>
      <trkpt lat="48.063420" lon="2.814320">
        <time>2017-06-24T15:54:38Z</time>
      </trkpt>
      <trkpt lat="48.063270" lon="2.814780">
        <time>2017-06-24T15:54:39Z</time>
      </trkpt>
      <trkpt lat="48.063140" lon="2.815180">
        <time>2017-06-24T15:54:40Z</time>
      </trkpt>
      <trkpt lat="48.062980" lon="2.815600">
        <time>2017-06-24T15:54:41Z</time>
      </trkpt>
      <trkpt lat="48.062830" lon="2.816020">
        <time>2017-06-24T15:54:42Z</time>
      </trkpt>
      <trkpt lat="48.062670" lon="2.816430">
        <time>2017-06-24T15:54:43Z</time>
      </trkpt>
      <trkpt lat="48.062500" lon="2.816870">
        <time>2017-06-24T15:54:44Z</time>
      </trkpt>
      <trkpt lat="48.062350" lon="2.817250">
        <time>2017-06-24T15:54:45Z</time>
      </trkpt>
      <trkpt lat="48.062180" lon="2.817650">
        <time>2017-06-24T15:54:46Z</time>
      </trkpt>
      <trkpt lat="48.062000" lon="2.818090">
        <time>2017-06-24T15:54:47Z</time>
      </trkpt>
      <trkpt lat="48.061840" lon="2.818470">
        <time>2017-06-24T15:54:48Z</time>
      </trkpt>
      <trkpt lat="48.061660" lon="2.818860">
        <time>2017-06-24T15:54:49Z</time>
      </trkpt>
      <trkpt lat="48.061470" lon="2.819280">
        <time>2017-06-24T15:54:50Z</time>
      </trkpt>
      <trkpt lat="48.061300" lon="2.819650">
        <time>2017-06-24T15:54:51Z</time>
      </trkpt>
      <trkpt lat="48.061100" lon="2.820060">
        <time>2017-06-24T15:54:52Z</time>
      </trkpt>
      <trkpt lat="48.060920" lon="2.820420">
        <time>2017-06-24T15:54:53Z</time>
      </trkpt>
      <trkpt lat="48.060720" lon="2.820800">
        <time>2017-06-24T15:54:54Z</time>
      </trkpt>
      <trkpt lat="48.060510" lon="2.821200">
        <time>2017-06-24T15:54:55Z</time>
      </trkpt>
      <trkpt lat="48.060320" lon="2.821550">
        <time>2017-06-24T15:54:56Z</time>
      </trkpt>
      <trkpt lat="48.060110" lon="2.821920">
        <time>2017-06-24T15:54:57Z</time>
      </trkpt>
      <trkpt lat="48.059900" lon="2.822290">
        <time>2017-06-24T15:54:58Z</time>
      </trkpt>
      <trkpt lat="48.059700" lon="2.822670">
        <time>2017-06-24T15:54:59Z</time>
      </trkpt>
      <trkpt lat="48.059480" lon="2.823080">
        <time>2017-06-24T15:55:00Z</time>
      </trkpt>
      <trkpt lat="48.059290" lon="2.823430">
        <time>2017-06-24T15:55:01Z</time>
      </trkpt>
      <trkpt lat="48.059090" lon="2.823810">
        <time>2017-06-24T15:55:02Z</time>
      </trkpt>
      <trkpt lat="48.058870" lon="2.824220">
        <time>2017-06-24T15:55:03Z</time>
      </trkpt>
      <trkpt lat="48.058670" lon="2.824570">
        <time>2017-06-24T15:55:04Z</time>
      </trkpt>
      <trkpt lat="48.058470" lon="2.824940">
        <time>2017-06-24T15:55:05Z</time>
      </trkpt>
      <trkpt lat="48.058250" lon="2.825340">
        <time>2017-06-24T15:55:06Z</time>
      </trkpt>
      <trkpt lat="48.058060" lon="2.825700">
        <time>2017-06-24T15:55:07Z</time>
      </trkpt>
      <trkpt lat="48.057850" lon="2.826100">
        <time>2017-06-24T15:55:08Z</time>
      </trkpt>
      <trkpt lat="48.057670" lon="2.826450">
        <time>2017-06-24T15:55:09Z</time>
      </trkpt>
      <trkpt lat="48.057480" lon="2.826840">
        <time>2017-06-24T15:55:10Z</time>
      </trkpt>
      <trkpt lat="48.057280" lon="2.827240">
        <time>2017-06-24T15:55:11Z</time>
      </trkpt>
      <trkpt lat="48.057110" lon="2.827590">
        <time>2017-06-24T15:55:12Z</time>
      </trkpt>
      <trkpt lat="48.056940" lon="2.827970">
        <time>2017-06-24T15:55:13Z</time>
      </trkpt>
      <trkpt lat="48.056760" lon="2.828340">
        <time>2017-06-24T15:55:14Z</time>
      </trkpt>
      <trkpt lat="48.056590" lon="2.828730">
        <time>2017-06-24T15:55:15Z</time>
      </trkpt>
      <trkpt lat="48.056410" lon="2.829140">
        <time>2017-06-24T15:55:16Z</time>
      </trkpt>
      <trkpt lat="48.056260" lon="2.829510">
        <time>2017-06-24T15:55:17Z</time>
      </trkpt>
      <trkpt lat="48.056090" lon="2.829900">
        <time>2017-06-24T15:55:18Z</time>
      </trkpt>
      <trkpt lat="48.055920" lon="2.830320">
        <time>2017-06-24T15:55:19Z</time>
      </trkpt>
      <trkpt lat="48.055770" lon="2.830700">
        <time>2017-06-24T15:55:20Z</time>
      </trkpt>
      <trkpt lat="48.055610" lon="2.831110">
        <time>2017-06-24T15:55:21Z</time>
      </trkpt>
      <trkpt lat="48.055440" lon="2.831550">
        <time>2017-06-24T15:55:22Z</time>
      </trkpt>
      <trkpt lat="48.055300" lon="2.831940">
        <time>2017-06-24T15:55:23Z</time>
      </trkpt>
      <trkpt lat="48.055140" lon="2.832390">
        <time>2017-06-24T15:55:24Z</time>
      </trkpt>
      <trkpt lat="48.055000" lon="2.832790">
        <time>2017-06-24T15:55:25Z</time>
      </trkpt>
      <trkpt lat="48.054850" lon="2.833220">
        <time>2017-06-24T15:55:26Z</time>
      </trkpt>
      <trkpt lat="48.054700" lon="2.833680">
        <time>2017-06-24T15:55:27Z</time>
      </trkpt>
      <trkpt lat="48.054570" lon="2.834100">
        <time>2017-06-24T15:55:28Z</time>
      </trkpt>
      <trkpt lat="48.054430" lon="2.834540">
        <time>2017-06-24T15:55:29Z</time>
      </trkpt>
      <trkpt lat="48.054290" lon="2.834990">
        <time>2017-06-24T15:55:30Z</time>
      </trkpt>
      <trkpt lat="48.054160" lon="2.835440">
        <time>2017-06-24T15:55:31Z</time>
      </trkpt>
      <trkpt lat="48.054030" lon="2.835920">
        <time>2017-06-24T15:55:32Z</time>
      </trkpt>
      <trkpt lat="48.053910" lon="2.836340">
        <time>2017-06-24T15:55:33Z</time>
      </trkpt>
      <trkpt lat="48.053790" lon="2.836790">
        <time>2017-06-24T15:55:34Z</time>
      </trkpt>
      <trkpt lat="48.053660" lon="2.837280">
        <time>2017-06-24T15:55:35Z</time>
      </trkpt>
      <trkpt lat="48.053550" lon="2.837700">
        <time>2017-06-24T15:55:36Z</time>
      </trkpt>
      <trkpt lat="48.053440" lon="2.838150">
        <time>2017-06-24T15:55:37Z</time>
      </trkpt>
      <trkpt lat="48.053320" lon="2.838630">
        <time>2017-06-24T15:55:38Z</time>
      </trkpt>
      <trkpt lat="48.053230" lon="2.839050">
        <time>2017-06-24T15:55:39Z</time>
      </trkpt>
      <trkpt lat="48.053120" lon="2.839530">
        <time>2017-06-24T15:55:40Z</time>
      </trkpt>
      <trkpt lat="48.053030" lon="2.839950">
        <time>2017-06-24T15:55:41Z</time>
      </trkpt>
      <trkpt lat="48.052930" lon="2.840400">
        <time>2017-06-24T15:55:42Z</time>
      </trkpt>
      <trkpt lat="48.052840" lon="2.840880">
        <time>2017-06-24T15:55:43Z</time>
      </trkpt>
      <trkpt lat="48.052760" lon="2.841300">
        <time>2017-06-24T15:55:44Z</time>
      </trkpt>
      <trkpt lat="48.052520" lon="2.842640">
        <time>2017-06-24T15:55:47Z</time>
      </trkpt>
      <trkpt lat="48.052460" lon="2.843130">
        <time>2017-06-24T15:55:48Z</time>
      </trkpt>
      <trkpt lat="48.052400" lon="2.843540">
        <time>2017-06-24T15:55:49Z</time>
      </trkpt>
      <trkpt lat="48.052330" lon="2.844000">
        <time>2017-06-24T15:55:50Z</time>
      </trkpt>
      <trkpt lat="48.052260" lon="2.844490">
        <time>2017-06-24T15:55:51Z</time>
      </trkpt>
      <trkpt lat="48.052210" lon="2.844920">
        <time>2017-06-24T15:55:52Z</time>
      </trkpt>
      <trkpt lat="48.052150" lon="2.845390">
        <time>2017-06-24T15:55:53Z</time>
      </trkpt>
      <trkpt lat="48.052090" lon="2.845880">
        <time>2017-06-24T15:55:54Z</time>
      </trkpt>
      <trkpt lat="48.052030" lon="2.846310">
        <time>2017-06-24T15:55:55Z</time>
      </trkpt>
      <trkpt lat="48.051970" lon="2.846810">
        <time>2017-06-24T15:55:56Z</time>
      </trkpt>
      <trkpt lat="48.051910" lon="2.847240">
        <time>2017-06-24T15:55:57Z</time>
      </trkpt>
      <trkpt lat="48.051850" lon="2.847710">
        <time>2017-06-24T15:55:58Z</time>
      </trkpt>
      <trkpt lat="48.051790" lon="2.848200">
        <time>2017-06-24T15:55:59Z</time>
      </trkpt>
      <trkpt lat="48.051720" lon="2.848630">
        <time>2017-06-24T15:56:00Z</time>
      </trkpt>
      <trkpt lat="48.051660" lon="2.849090">
        <time>2017-06-24T15:56:01Z</time>
      </trkpt>
      <trkpt lat="48.051480" lon="2.850520">
        <time>2017-06-24T15:56:04Z</time>
      </trkpt>
      <trkpt lat="48.051440" lon="2.850950">
        <time>2017-06-24T15:56:05Z</time>
      </trkpt>
      <trkpt lat="48.051390" lon="2.851420">
        <time>2017-06-24T15:56:06Z</time>
      </trkpt>
      <trkpt lat="48.051340" lon="2.851920">
        <time>2017-06-24T15:56:07Z</time>
      </trkpt>
      <trkpt lat="48.051290" lon="2.852360">
        <time>2017-06-24T15:56:08Z</time>
      </trkpt>
      <trkpt lat="48.051230" lon="2.852820">
        <time>2017-06-24T15:56:09Z</time>
      </trkpt>
      <trkpt lat="48.051170" lon="2.853310">
        <time>2017-06-24T15:56:10Z</time>
      </trkpt>
      <trkpt lat="48.051120" lon="2.853740">
        <time>2017-06-24T15:56:11Z</time>
      </trkpt>
      <trkpt lat="48.051060" lon="2.854230">
        <time>2017-06-24T15:56:12Z</time>
      </trkpt>
      <trkpt lat="48.051000" lon="2.854660">
        <time>2017-06-24T15:56:13Z</time>
      </trkpt>
      <trkpt lat="48.050950" lon="2.855120">
        <time>2017-06-24T15:56:14Z</time>
      </trkpt>
      <trkpt lat="48.050900" lon="2.855620">
        <time>2017-06-24T15:56:15Z</time>
      </trkpt>
      <trkpt lat="48.050850" lon="2.856050">
        <time>2017-06-24T15:56:16Z</time>
      </trkpt>
      <trkpt lat="48.050790" lon="2.856520">
        <time>2017-06-24T15:56:17Z</time>
      </trkpt>
      <trkpt lat="48.050730" lon="2.857000">
        <time>2017-06-24T15:56:18Z</time>
      </trkpt>
      <trkpt lat="48.050670" lon="2.857460">
        <time>2017-06-24T15:56:19Z</time>
      </trkpt>
      <trkpt lat="48.050610" lon="2.857960">
        <time>2017-06-24T15:56:20Z</time>
      </trkpt>
      <trkpt lat="48.050550" lon="2.858410">
        <time>2017-06-24T15:56:21Z</time>
      </trkpt>
      <trkpt lat="48.050490" lon="2.858870">
        <time>2017-06-24T15:56:22Z</time>
      </trkpt>
      <trkpt lat="48.050430" lon="2.859380">
        <time>2017-06-24T15:56:23Z</time>
      </trkpt>
      <trkpt lat="48.050370" lon="2.859820">
        <time>2017-06-24T15:56:24Z</time>
      </trkpt>
      <trkpt lat="48.050320" lon="2.860300">
        <time>2017-06-24T15:56:25Z</time>
      </trkpt>
      <trkpt lat="48.050260" lon="2.860810">
        <time>2017-06-24T15:56:26Z</time>
      </trkpt>
      <trkpt lat="48.050200" lon="2.861250">
        <time>2017-06-24T15:56:27Z</time>
      </trkpt>
      <trkpt lat="48.050130" lon="2.861770">
        <time>2017-06-24T15:56:28Z</time>
      </trkpt>
      <trkpt lat="48.050080" lon="2.862230">
        <time>2017-06-24T15:56:29Z</time>
      </trkpt>
      <trkpt lat="48.050020" lon="2.862720">
        <time>2017-06-24T15:56:30Z</time>
      </trkpt>
      <trkpt lat="48.049960" lon="2.863260">
        <time>2017-06-24T15:56:31Z</time>
      </trkpt>
      <trkpt lat="48.049900" lon="2.863730">
        <time>2017-06-24T15:56:32Z</time>
      </trkpt>
      <trkpt lat="48.049840" lon="2.864230">
        <time>2017-06-24T15:56:33Z</time>
      </trkpt>
      <trkpt lat="48.049780" lon="2.864730">
        <time>2017-06-24T15:56:34Z</time>
      </trkpt>
      <trkpt lat="48.049710" lon="2.865230">
        <time>2017-06-24T15:56:35Z</time>
      </trkpt>
      <trkpt lat="48.049650" lon="2.865760">
        <time>2017-06-24T15:56:36Z</time>
      </trkpt>
      <trkpt lat="48.049580" lon="2.866230">
        <time>2017-06-24T15:56:37Z</time>
      </trkpt>
      <trkpt lat="48.049520" lon="2.866730">
        <time>2017-06-24T15:56:38Z</time>
      </trkpt>
      <trkpt lat="48.049440" lon="2.867260">
        <time>2017-06-24T15:56:39Z</time>
      </trkpt>
      <trkpt lat="48.049370" lon="2.867720">
        <time>2017-06-24T15:56:40Z</time>
      </trkpt>
      <trkpt lat="48.049300" lon="2.868210">
        <time>2017-06-24T15:56:41Z</time>
      </trkpt>
      <trkpt lat="48.049220" lon="2.868740">
        <time>2017-06-24T15:56:42Z</time>
      </trkpt>
      <trkpt lat="48.049140" lon="2.869200">
        <time>2017-06-24T15:56:43Z</time>
      </trkpt>
      <trkpt lat="48.049060" lon="2.869710">
        <time>2017-06-24T15:56:44Z</time>
      </trkpt>
      <trkpt lat="48.048980" lon="2.870170">
        <time>2017-06-24T15:56:45Z</time>
      </trkpt>
      <trkpt lat="48.048900" lon="2.870650">
        <time>2017-06-24T15:56:46Z</time>
      </trkpt>
      <trkpt lat="48.048810" lon="2.871160">
        <time>2017-06-24T15:56:47Z</time>
      </trkpt>
      <trkpt lat="48.048740" lon="2.871610">
        <time>2017-06-24T15:56:48Z</time>
      </trkpt>
      <trkpt lat="48.048650" lon="2.872080">
        <time>2017-06-24T15:56:49Z</time>
      </trkpt>
      <trkpt lat="48.048570" lon="2.872560">
        <time>2017-06-24T15:56:50Z</time>
      </trkpt>
      <trkpt lat="48.048480" lon="2.873040">
        <time>2017-06-24T15:56:51Z</time>
      </trkpt>
      <trkpt lat="48.048380" lon="2.873540">
        <time>2017-06-24T15:56:52Z</time>
      </trkpt>
      <trkpt lat="48.048290" lon="2.873980">
        <time>2017-06-24T15:56:53Z</time>
      </trkpt>
      <trkpt lat="48.048200" lon="2.874440">
        <time>2017-06-24T15:56:54Z</time>
      </trkpt>
      <trkpt lat="48.048110" lon="2.874940">
        <time>2017-06-24T15:56:55Z</time>
      </trkpt>
      <trkpt lat="48.048020" lon="2.875370">
        <time>2017-06-24T15:56:56Z</time>
      </trkpt>
      <trkpt lat="48.047930" lon="2.875830">
        <time>2017-06-24T15:56:57Z</time>
      </trkpt>
      <trkpt lat="48.047830" lon="2.876310">
        <time>2017-06-24T15:56:58Z</time>
      </trkpt>
      <trkpt lat="48.047740" lon="2.876730">
        <time>2017-06-24T15:56:59Z</time>
      </trkpt>
      <trkpt lat="48.047640" lon="2.877200">
        <time>2017-06-24T15:57:00Z</time>
      </trkpt>
      <trkpt lat="48.047550" lon="2.877610">
        <time>2017-06-24T15:57:01Z</time>
      </trkpt>
      <trkpt lat="48.047460" lon="2.878050">
        <time>2017-06-24T15:57:02Z</time>
      </trkpt>
      <trkpt lat="48.047360" lon="2.878520">
        <time>2017-06-24T15:57:03Z</time>
      </trkpt>
      <trkpt lat="48.047260" lon="2.878930">
        <time>2017-06-24T15:57:04Z</time>
      </trkpt>
      <trkpt lat="48.047160" lon="2.879370">
        <time>2017-06-24T15:57:05Z</time>
      </trkpt>
      <trkpt lat="48.047050" lon="2.879810">
        <time>2017-06-24T15:57:06Z</time>
      </trkpt>
      <trkpt lat="48.046950" lon="2.880250">
        <time>2017-06-24T15:57:07Z</time>
      </trkpt>
      <trkpt lat="48.046840" lon="2.880710">
        <time>2017-06-24T15:57:08Z</time>
      </trkpt>
      <trkpt lat="48.046740" lon="2.881120">
        <time>2017-06-24T15:57:09Z</time>
      </trkpt>
      <trkpt lat="48.046640" lon="2.881540">
        <time>2017-06-24T15:57:10Z</time>
      </trkpt>
      <trkpt lat="48.046520" lon="2.881990">
        <time>2017-06-24T15:57:11Z</time>
      </trkpt>
      <trkpt lat="48.046420" lon="2.882380">
        <time>2017-06-24T15:57:12Z</time>
      </trkpt>
      <trkpt lat="48.046320" lon="2.882790">
        <time>2017-06-24T15:57:13Z</time>
      </trkpt>
      <trkpt lat="48.046200" lon="2.883230">
        <time>2017-06-24T15:57:14Z</time>
      </trkpt>
      <trkpt lat="48.046100" lon="2.883620">
        <time>2017-06-24T15:57:15Z</time>
      </trkpt>
      <trkpt lat="48.045990" lon="2.884070">
        <time>2017-06-24T15:57:16Z</time>
      </trkpt>
      <trkpt lat="48.045890" lon="2.884460">
        <time>2017-06-24T15:57:17Z</time>
      </trkpt>
      <trkpt lat="48.045780" lon="2.884870">
        <time>2017-06-24T15:57:18Z</time>
      </trkpt>
      <trkpt lat="48.045660" lon="2.885320">
        <time>2017-06-24T15:57:19Z</time>
      </trkpt>
      <trkpt lat="48.045550" lon="2.885710">
        <time>2017-06-24T15:57:20Z</time>
      </trkpt>
      <trkpt lat="48.045440" lon="2.886140">
        <time>2017-06-24T15:57:21Z</time>
      </trkpt>
      <trkpt lat="48.045320" lon="2.886570">
        <time>2017-06-24T15:57:22Z</time>
      </trkpt>
      <trkpt lat="48.045200" lon="2.887000">
        <time>2017-06-24T15:57:23Z</time>
      </trkpt>
      <trkpt lat="48.045080" lon="2.887470">
        <time>2017-06-24T15:57:24Z</time>
      </trkpt>
      <trkpt lat="48.044980" lon="2.887880">
        <time>2017-06-24T15:57:25Z</time>
      </trkpt>
      <trkpt lat="48.044870" lon="2.888330">
        <time>2017-06-24T15:57:26Z</time>
      </trkpt>
      <trkpt lat="48.044770" lon="2.888800">
        <time>2017-06-24T15:57:27Z</time>
      </trkpt>
      <trkpt lat="48.044680" lon="2.889220">
        <time>2017-06-24T15:57:28Z</time>
      </trkpt>
      <trkpt lat="48.044590" lon="2.889680">
        <time>2017-06-24T15:57:29Z</time>
      </trkpt>
      <trkpt lat="48.044510" lon="2.890180">
        <time>2017-06-24T15:57:30Z</time>
      </trkpt>
      <trkpt lat="48.044440" lon="2.890620">
        <time>2017-06-24T15:57:31Z</time>
      </trkpt>
      <trkpt lat="48.044370" lon="2.891120">
        <time>2017-06-24T15:57:32Z</time>
      </trkpt>
      <trkpt lat="48.044310" lon="2.891560">
        <time>2017-06-24T15:57:33Z</time>
      </trkpt>
      <trkpt lat="48.044250" lon="2.892030">
        <time>2017-06-24T15:57:34Z</time>
      </trkpt>
      <trkpt lat="48.044200" lon="2.892530">
        <time>2017-06-24T15:57:35Z</time>
      </trkpt>
      <trkpt lat="48.044160" lon="2.892970">
        <time>2017-06-24T15:57:36Z</time>
      </trkpt>
      <trkpt lat="48.044120" lon="2.893430">
        <time>2017-06-24T15:57:37Z</time>
      </trkpt>
      <trkpt lat="48.044090" lon="2.893890">
        <time>2017-06-24T15:57:38Z</time>
      </trkpt>
      <trkpt lat="48.044060" lon="2.894340">
        <time>2017-06-24T15:57:39Z</time>
      </trkpt>
      <trkpt lat="48.044040" lon="2.894820">
        <time>2017-06-24T15:57:40Z</time>
      </trkpt>
      <trkpt lat="48.044030" lon="2.895250">
        <time>2017-06-24T15:57:41Z</time>
      </trkpt>
      <trkpt lat="48.044020" lon="2.895700">
        <time>2017-06-24T15:57:42Z</time>
      </trkpt>
      <trkpt lat="48.044020" lon="2.896170">
        <time>2017-06-24T15:57:43Z</time>
      </trkpt>
      <trkpt lat="48.044030" lon="2.896580">
        <time>2017-06-24T15:57:44Z</time>
      </trkpt>
      <trkpt lat="48.044040" lon="2.897020">
        <time>2017-06-24T15:57:45Z</time>
      </trkpt>
      <trkpt lat="48.044060" lon="2.897490">
        <time>2017-06-24T15:57:46Z</time>
      </trkpt>
      <trkpt lat="48.044070" lon="2.897910">
        <time>2017-06-24T15:57:47Z</time>
      </trkpt>
      <trkpt lat="48.044090" lon="2.898380">
        <time>2017-06-24T15:57:48Z</time>
      </trkpt>
      <trkpt lat="48.044120" lon="2.898810">
        <time>2017-06-24T15:57:49Z</time>
      </trkpt>
      <trkpt lat="48.044140" lon="2.899270">
        <time>2017-06-24T15:57:50Z</time>
      </trkpt>
      <trkpt lat="48.044160" lon="2.899760">
        <time>2017-06-24T15:57:51Z</time>
      </trkpt>
      <trkpt lat="48.044180" lon="2.900180">
        <time>2017-06-24T15:57:52Z</time>
      </trkpt>
      <trkpt lat="48.044210" lon="2.900640">
        <time>2017-06-24T15:57:53Z</time>
      </trkpt>
      <trkpt lat="48.044230" lon="2.901090">
        <time>2017-06-24T15:57:54Z</time>
      </trkpt>
      <trkpt lat="48.044250" lon="2.901550">
        <time>2017-06-24T15:57:55Z</time>
      </trkpt>
      <trkpt lat="48.044270" lon="2.902040">
        <time>2017-06-24T15:57:56Z</time>
      </trkpt>
      <trkpt lat="48.044290" lon="2.902450">
        <time>2017-06-24T15:57:57Z</time>
      </trkpt>
      <trkpt lat="48.044320" lon="2.902900">
        <time>2017-06-24T15:57:58Z</time>
      </trkpt>
      <trkpt lat="48.044340" lon="2.903380">
        <time>2017-06-24T15:57:59Z</time>
      </trkpt>
      <trkpt lat="48.044360" lon="2.903800">
        <time>2017-06-24T15:58:00Z</time>
      </trkpt>
      <trkpt lat="48.044380" lon="2.904250">
        <time>2017-06-24T15:58:01Z</time>
      </trkpt>
      <trkpt lat="48.044410" lon="2.904720">
        <time>2017-06-24T15:58:02Z</time>
      </trkpt>
      <trkpt lat="48.044430" lon="2.905140">
        <time>2017-06-24T15:58:03Z</time>
      </trkpt>
      <trkpt lat="48.044450" lon="2.905610">
        <time>2017-06-24T15:58:04Z</time>
      </trkpt>
      <trkpt lat="48.044470" lon="2.906040">
        <time>2017-06-24T15:58:05Z</time>
      </trkpt>
      <trkpt lat="48.044490" lon="2.906490">
        <time>2017-06-24T15:58:06Z</time>
      </trkpt>
      <trkpt lat="48.044510" lon="2.906970">
        <time>2017-06-24T15:58:07Z</time>
      </trkpt>
      <trkpt lat="48.044530" lon="2.907400">
        <time>2017-06-24T15:58:08Z</time>
      </trkpt>
      <trkpt lat="48.044560" lon="2.907850">
        <time>2017-06-24T15:58:09Z</time>
      </trkpt>
      <trkpt lat="48.044570" lon="2.908300">
        <time>2017-06-24T15:58:10Z</time>
      </trkpt>
      <trkpt lat="48.044590" lon="2.908750">
        <time>2017-06-24T15:58:11Z</time>
      </trkpt>
      <trkpt lat="48.044620" lon="2.909240">
        <time>2017-06-24T15:58:12Z</time>
      </trkpt>
      <trkpt lat="48.044640" lon="2.909670">
        <time>2017-06-24T15:58:13Z</time>
      </trkpt>
      <trkpt lat="48.044660" lon="2.910130">
        <time>2017-06-24T15:58:14Z</time>
      </trkpt>
      <trkpt lat="48.044680" lon="2.910610">
        <time>2017-06-24T15:58:15Z</time>
      </trkpt>
      <trkpt lat="48.044700" lon="2.911050">
        <time>2017-06-24T15:58:16Z</time>
      </trkpt>
      <trkpt lat="48.044720" lon="2.911510">
        <time>2017-06-24T15:58:17Z</time>
      </trkpt>
      <trkpt lat="48.044740" lon="2.912010">
        <time>2017-06-24T15:58:18Z</time>
      </trkpt>
      <trkpt lat="48.044740" lon="2.912460">
        <time>2017-06-24T15:58:19Z</time>
      </trkpt>
      <trkpt lat="48.044750" lon="2.912960">
        <time>2017-06-24T15:58:20Z</time>
      </trkpt>
      <trkpt lat="48.044750" lon="2.913400">
        <time>2017-06-24T15:58:21Z</time>
      </trkpt>
      <trkpt lat="48.044750" lon="2.913870">
        <time>2017-06-24T15:58:22Z</time>
      </trkpt>
      <trkpt lat="48.044750" lon="2.914380">
        <time>2017-06-24T15:58:23Z</time>
      </trkpt>
      <trkpt lat="48.044730" lon="2.914810">
        <time>2017-06-24T15:58:24Z</time>
      </trkpt>
      <trkpt lat="48.044720" lon="2.915300">
        <time>2017-06-24T15:58:25Z</time>
      </trkpt>
      <trkpt lat="48.044700" lon="2.915790">
        <time>2017-06-24T15:58:26Z</time>
      </trkpt>
      <trkpt lat="48.044680" lon="2.916260">
        <time>2017-06-24T15:58:27Z</time>
      </trkpt>
      <trkpt lat="48.044650" lon="2.916780">
        <time>2017-06-24T15:58:28Z</time>
      </trkpt>
      <trkpt lat="48.044610" lon="2.917240">
        <time>2017-06-24T15:58:29Z</time>
      </trkpt>
      <trkpt lat="48.044570" lon="2.917730">
        <time>2017-06-24T15:58:30Z</time>
      </trkpt>
      <trkpt lat="48.044530" lon="2.918250">
        <time>2017-06-24T15:58:31Z</time>
      </trkpt>
      <trkpt lat="48.044490" lon="2.918700">
        <time>2017-06-24T15:58:32Z</time>
      </trkpt>
      <trkpt lat="48.044440" lon="2.919200">
        <time>2017-06-24T15:58:33Z</time>
      </trkpt>
      <trkpt lat="48.044370" lon="2.919720">
        <time>2017-06-24T15:58:34Z</time>
      </trkpt>
      <trkpt lat="48.044320" lon="2.920190">
        <time>2017-06-24T15:58:35Z</time>
      </trkpt>
      <trkpt lat="48.044240" lon="2.920710">
        <time>2017-06-24T15:58:36Z</time>
      </trkpt>
      <trkpt lat="48.044180" lon="2.921170">
        <time>2017-06-24T15:58:37Z</time>
      </trkpt>
      <trkpt lat="48.044100" lon="2.921660">
        <time>2017-06-24T15:58:38Z</time>
      </trkpt>
      <trkpt lat="48.044020" lon="2.922190">
        <time>2017-06-24T15:58:39Z</time>
      </trkpt>
      <trkpt lat="48.043940" lon="2.922650">
        <time>2017-06-24T15:58:40Z</time>
      </trkpt>
      <trkpt lat="48.043860" lon="2.923140">
        <time>2017-06-24T15:58:41Z</time>
      </trkpt>
      <trkpt lat="48.043760" lon="2.923620">
        <time>2017-06-24T15:58:42Z</time>
      </trkpt>
      <trkpt lat="48.043660" lon="2.924100">
        <time>2017-06-24T15:58:43Z</time>
      </trkpt>
      <trkpt lat="48.043560" lon="2.924620">
        <time>2017-06-24T15:58:44Z</time>
      </trkpt>
      <trkpt lat="48.043470" lon="2.925070">
        <time>2017-06-24T15:58:45Z</time>
      </trkpt>
      <trkpt lat="48.043380" lon="2.925550">
        <time>2017-06-24T15:58:46Z</time>
      </trkpt>
      <trkpt lat="48.043280" lon="2.926070">
        <time>2017-06-24T15:58:47Z</time>
      </trkpt>
      <trkpt lat="48.043200" lon="2.926520">
        <time>2017-06-24T15:58:48Z</time>
      </trkpt>
      <trkpt lat="48.043110" lon="2.927010">
        <time>2017-06-24T15:58:49Z</time>
      </trkpt>
      <trkpt lat="48.043010" lon="2.927530">
        <time>2017-06-24T15:58:50Z</time>
      </trkpt>
      <trkpt lat="48.042930" lon="2.927990">
        <time>2017-06-24T15:58:51Z</time>
      </trkpt>
      <trkpt lat="48.042820" lon="2.928510">
        <time>2017-06-24T15:58:52Z</time>
      </trkpt>
      <trkpt lat="48.042740" lon="2.928970">
        <time>2017-06-24T15:58:53Z</time>
      </trkpt>
      <trkpt lat="48.042650" lon="2.929450">
        <time>2017-06-24T15:58:54Z</time>
      </trkpt>
      <trkpt lat="48.042550" lon="2.929980">
        <time>2017-06-24T15:58:55Z</time>
      </trkpt>
      <trkpt lat="48.042460" lon="2.930440">
        <time>2017-06-24T15:58:56Z</time>
      </trkpt>
      <trkpt lat="48.042360" lon="2.930930">
        <time>2017-06-24T15:58:57Z</time>
      </trkpt>
      <trkpt lat="48.042270" lon="2.931430">
        <time>2017-06-24T15:58:58Z</time>
      </trkpt>
      <trkpt lat="48.042170" lon="2.931920">
        <time>2017-06-24T15:58:59Z</time>
      </trkpt>
      <trkpt lat="48.042080" lon="2.932440">
        <time>2017-06-24T15:59:00Z</time>
      </trkpt>
      <trkpt lat="48.041990" lon="2.932900">
        <time>2017-06-24T15:59:01Z</time>
      </trkpt>
      <trkpt lat="48.041890" lon="2.933390">
        <time>2017-06-24T15:59:02Z</time>
      </trkpt>
      <trkpt lat="48.041790" lon="2.933910">
        <time>2017-06-24T15:59:03Z</time>
      </trkpt>
      <trkpt lat="48.041710" lon="2.934370">
        <time>2017-06-24T15:59:04Z</time>
      </trkpt>
      <trkpt lat="48.041640" lon="2.934870">
        <time>2017-06-24T15:59:05Z</time>
      </trkpt>
      <trkpt lat="48.041560" lon="2.935390">
        <time>2017-06-24T15:59:06Z</time>
      </trkpt>
      <trkpt lat="48.041510" lon="2.935830">
        <time>2017-06-24T15:59:07Z</time>
      </trkpt>
      <trkpt lat="48.041460" lon="2.936370">
        <time>2017-06-24T15:59:08Z</time>
      </trkpt>
      <trkpt lat="48.041420" lon="2.936830">
        <time>2017-06-24T15:59:09Z</time>
      </trkpt>
      <trkpt lat="48.041380" lon="2.937340">
        <time>2017-06-24T15:59:10Z</time>
      </trkpt>
      <trkpt lat="48.041340" lon="2.937870">
        <time>2017-06-24T15:59:11Z</time>
      </trkpt>
      <trkpt lat="48.041310" lon="2.938340">
        <time>2017-06-24T15:59:12Z</time>
      </trkpt>
      <trkpt lat="48.041270" lon="2.938840">
        <time>2017-06-24T15:59:13Z</time>
      </trkpt>
      <trkpt lat="48.041240" lon="2.939340">
        <time>2017-06-24T15:59:14Z</time>
      </trkpt>
      <trkpt lat="48.041200" lon="2.939840">
        <time>2017-06-24T15:59:15Z</time>
      </trkpt>
      <trkpt lat="48.041170" lon="2.940370">
        <time>2017-06-24T15:59:16Z</time>
      </trkpt>
      <trkpt lat="48.041130" lon="2.940840">
        <time>2017-06-24T15:59:17Z</time>
      </trkpt>
      <trkpt lat="48.041100" lon="2.941340">
        <time>2017-06-24T15:59:18Z</time>
      </trkpt>
      <trkpt lat="48.041050" lon="2.941870">
        <time>2017-06-24T15:59:19Z</time>
      </trkpt>
      <trkpt lat="48.041010" lon="2.942350">
        <time>2017-06-24T15:59:20Z</time>
      </trkpt>
      <trkpt lat="48.040950" lon="2.942850">
        <time>2017-06-24T15:59:21Z</time>
      </trkpt>
      <trkpt lat="48.040870" lon="2.943380">
        <time>2017-06-24T15:59:22Z</time>
      </trkpt>
      <trkpt lat="48.040790" lon="2.943840">
        <time>2017-06-24T15:59:23Z</time>
      </trkpt>
      <trkpt lat="48.040700" lon="2.944360">
        <time>2017-06-24T15:59:24Z</time>
      </trkpt>
      <trkpt lat="48.040610" lon="2.944810">
        <time>2017-06-24T15:59:25Z</time>
      </trkpt>
      <trkpt lat="48.040510" lon="2.945290">
        <time>2017-06-24T15:59:26Z</time>
      </trkpt>
      <trkpt lat="48.040390" lon="2.945790">
        <time>2017-06-24T15:59:27Z</time>
      </trkpt>
      <trkpt lat="48.040280" lon="2.946230">
        <time>2017-06-24T15:59:28Z</time>
      </trkpt>
      <trkpt lat="48.040150" lon="2.946690">
        <time>2017-06-24T15:59:29Z</time>
      </trkpt>
      <trkpt lat="48.040020" lon="2.947150">
        <time>2017-06-24T15:59:30Z</time>
      </trkpt>
      <trkpt lat="48.039880" lon="2.947600">
        <time>2017-06-24T15:59:31Z</time>
      </trkpt>
      <trkpt lat="48.039740" lon="2.948060">
        <time>2017-06-24T15:59:32Z</time>
      </trkpt>
      <trkpt lat="48.039600" lon="2.948460">
        <time>2017-06-24T15:59:33Z</time>
      </trkpt>
      <trkpt lat="48.039450" lon="2.948880">
        <time>2017-06-24T15:59:34Z</time>
      </trkpt>
      <trkpt lat="48.039270" lon="2.949320">
        <time>2017-06-24T15:59:35Z</time>
      </trkpt>
      <trkpt lat="48.039120" lon="2.949690">
        <time>2017-06-24T15:59:36Z</time>
      </trkpt>
      <trkpt lat="48.038950" lon="2.950090">
        <time>2017-06-24T15:59:37Z</time>
      </trkpt>
      <trkpt lat="48.038760" lon="2.950490">
        <time>2017-06-24T15:59:38Z</time>
      </trkpt>
      <trkpt lat="48.038590" lon="2.950850">
        <time>2017-06-24T15:59:39Z</time>
      </trkpt>
      <trkpt lat="48.038390" lon="2.951250">
        <time>2017-06-24T15:59:40Z</time>
      </trkpt>
      <trkpt lat="48.038210" lon="2.951590">
        <time>2017-06-24T15:59:41Z</time>
      </trkpt>
      <trkpt lat="48.038020" lon="2.951970">
        <time>2017-06-24T15:59:42Z</time>
      </trkpt>
      <trkpt lat="48.037810" lon="2.952370">
        <time>2017-06-24T15:59:43Z</time>
      </trkpt>
      <trkpt lat="48.037620" lon="2.952720">
        <time>2017-06-24T15:59:44Z</time>
      </trkpt>
      <trkpt lat="48.037400" lon="2.953090">
        <time>2017-06-24T15:59:45Z</time>
      </trkpt>
      <trkpt lat="48.037180" lon="2.953470">
        <time>2017-06-24T15:59:46Z</time>
      </trkpt>
      <trkpt lat="48.036970" lon="2.953860">
        <time>2017-06-24T15:59:47Z</time>
      </trkpt>
      <trkpt lat="48.036750" lon="2.954280">
        <time>2017-06-24T15:59:48Z</time>
      </trkpt>
      <trkpt lat="48.036560" lon="2.954650">
        <time>2017-06-24T15:59:49Z</time>
      </trkpt>
      <trkpt lat="48.036360" lon="2.955040">
        <time>2017-06-24T15:59:50Z</time>
      </trkpt>
      <trkpt lat="48.036170" lon="2.955460">
        <time>2017-06-24T15:59:51Z</time>
      </trkpt>
      <trkpt lat="48.035990" lon="2.955840">
        <time>2017-06-24T15:59:52Z</time>
      </trkpt>
      <trkpt lat="48.035820" lon="2.956230">
        <time>2017-06-24T15:59:53Z</time>
      </trkpt>
      <trkpt lat="48.035640" lon="2.956660">
        <time>2017-06-24T15:59:54Z</time>
      </trkpt>
      <trkpt lat="48.035490" lon="2.957050">
        <time>2017-06-24T15:59:55Z</time>
      </trkpt>
      <trkpt lat="48.035320" lon="2.957490">
        <time>2017-06-24T15:59:56Z</time>
      </trkpt>
      <trkpt lat="48.035170" lon="2.957890">
        <time>2017-06-24T15:59:57Z</time>
      </trkpt>
      <trkpt lat="48.035020" lon="2.958310">
        <time>2017-06-24T15:59:58Z</time>
      </trkpt>
      <trkpt lat="48.034870" lon="2.958770">
        <time>2017-06-24T15:59:59Z</time>
      </trkpt>
      <trkpt lat="48.034730" lon="2.959180">
        <time>2017-06-24T16:00:00Z</time>
      </trkpt>
      <trkpt lat="48.034600" lon="2.959630">
        <time>2017-06-24T16:00:01Z</time>
      </trkpt>
      <trkpt lat="48.034460" lon="2.960080">
        <time>2017-06-24T16:00:02Z</time>
      </trkpt>
      <trkpt lat="48.034330" lon="2.960540">
        <time>2017-06-24T16:00:03Z</time>
      </trkpt>
      <trkpt lat="48.034200" lon="2.961040">
        <time>2017-06-24T16:00:04Z</time>
      </trkpt>
      <trkpt lat="48.034100" lon="2.961470">
        <time>2017-06-24T16:00:05Z</time>
      </trkpt>
      <trkpt lat="48.033990" lon="2.961930">
        <time>2017-06-24T16:00:06Z</time>
      </trkpt>
      <trkpt lat="48.033880" lon="2.962430">
        <time>2017-06-24T16:00:07Z</time>
      </trkpt>
      <trkpt lat="48.033780" lon="2.962880">
        <time>2017-06-24T16:00:08Z</time>
      </trkpt>
      <trkpt lat="48.033690" lon="2.963350">
        <time>2017-06-24T16:00:09Z</time>
      </trkpt>
      <trkpt lat="48.033590" lon="2.963860">
        <time>2017-06-24T16:00:10Z</time>
      </trkpt>
      <trkpt lat="48.033520" lon="2.964310">
        <time>2017-06-24T16:00:11Z</time>
      </trkpt>
      <trkpt lat="48.033440" lon="2.964820">
        <time>2017-06-24T16:00:12Z</time>
      </trkpt>
      <trkpt lat="48.033380" lon="2.965270">
        <time>2017-06-24T16:00:13Z</time>
      </trkpt>
      <trkpt lat="48.033320" lon="2.965750">
        <time>2017-06-24T16:00:14Z</time>
      </trkpt>
      <trkpt lat="48.033260" lon="2.966260">
        <time>2017-06-24T16:00:15Z</time>
      </trkpt>
      <trkpt lat="48.033210" lon="2.966710">
        <time>2017-06-24T16:00:16Z</time>
      </trkpt>
      <trkpt lat="48.033160" lon="2.967200">
        <time>2017-06-24T16:00:17Z</time>
      </trkpt>
      <trkpt lat="48.033130" lon="2.967690">
        <time>2017-06-24T16:00:18Z</time>
      </trkpt>
      <trkpt lat="48.033090" lon="2.968180">
        <time>2017-06-24T16:00:19Z</time>
      </trkpt>
      <trkpt lat="48.033060" lon="2.968700">
        <time>2017-06-24T16:00:20Z</time>
      </trkpt>
      <trkpt lat="48.033040" lon="2.969150">
        <time>2017-06-24T16:00:21Z</time>
      </trkpt>
      <trkpt lat="48.033020" lon="2.969650">
        <time>2017-06-24T16:00:22Z</time>
      </trkpt>
      <trkpt lat="48.033010" lon="2.970170">
        <time>2017-06-24T16:00:23Z</time>
      </trkpt>
      <trkpt lat="48.033010" lon="2.970630">
        <time>2017-06-24T16:00:24Z</time>
      </trkpt>
      <trkpt lat="48.033010" lon="2.971130">
        <time>2017-06-24T16:00:25Z</time>
      </trkpt>
      <trkpt lat="48.033030" lon="2.971650">
        <time>2017-06-24T16:00:26Z</time>
      </trkpt>
      <trkpt lat="48.033040" lon="2.972110">
        <time>2017-06-24T16:00:27Z</time>
      </trkpt>
      <trkpt lat="48.033060" lon="2.972630">
        <time>2017-06-24T16:00:28Z</time>
      </trkpt>
      <trkpt lat="48.033080" lon="2.973090">
        <time>2017-06-24T16:00:29Z</time>
      </trkpt>
      <trkpt lat="48.033100" lon="2.973580">
        <time>2017-06-24T16:00:30Z</time>
      </trkpt>
      <trkpt lat="48.033120" lon="2.974090">
        <time>2017-06-24T16:00:31Z</time>
      </trkpt>
      <trkpt lat="48.033150" lon="2.974530">
        <time>2017-06-24T16:00:32Z</time>
      </trkpt>
      <trkpt lat="48.033160" lon="2.975020">
        <time>2017-06-24T16:00:33Z</time>
      </trkpt>
      <trkpt lat="48.033180" lon="2.975500">
        <time>2017-06-24T16:00:34Z</time>
      </trkpt>
      <trkpt lat="48.033200" lon="2.975980">
        <time>2017-06-24T16:00:35Z</time>
      </trkpt>
      <trkpt lat="48.033220" lon="2.976490">
        <time>2017-06-24T16:00:36Z</time>
      </trkpt>
      <trkpt lat="48.033250" lon="2.976950">
        <time>2017-06-24T16:00:37Z</time>
      </trkpt>
      <trkpt lat="48.033270" lon="2.977440">
        <time>2017-06-24T16:00:38Z</time>
      </trkpt>
      <trkpt lat="48.033290" lon="2.977950">
        <time>2017-06-24T16:00:39Z</time>
      </trkpt>
      <trkpt lat="48.033320" lon="2.978410">
        <time>2017-06-24T16:00:40Z</time>
      </trkpt>
      <trkpt lat="48.033340" lon="2.978910">
        <time>2017-06-24T16:00:41Z</time>
      </trkpt>
      <trkpt lat="48.033360" lon="2.979430">
        <time>2017-06-24T16:00:42Z</time>
      </trkpt>
      <trkpt lat="48.033380" lon="2.979900">
        <time>2017-06-24T16:00:43Z</time>
      </trkpt>
      <trkpt lat="48.033400" lon="2.980420">
        <time>2017-06-24T16:00:44Z</time>
      </trkpt>
      <trkpt lat="48.033420" lon="2.980870">
        <time>2017-06-24T16:00:45Z</time>
      </trkpt>
      <trkpt lat="48.033440" lon="2.981360">
        <time>2017-06-24T16:00:46Z</time>
      </trkpt>
      <trkpt lat="48.033450" lon="2.981870">
        <time>2017-06-24T16:00:47Z</time>
      </trkpt>
      <trkpt lat="48.033470" lon="2.982330">
        <time>2017-06-24T16:00:48Z</time>
      </trkpt>
      <trkpt lat="48.033480" lon="2.982790">
        <time>2017-06-24T16:00:49Z</time>
      </trkpt>
      <trkpt lat="48.033490" lon="2.983270">
        <time>2017-06-24T16:00:50Z</time>
      </trkpt>
      <trkpt lat="48.033500" lon="2.983730">
        <time>2017-06-24T16:00:51Z</time>
      </trkpt>
      <trkpt lat="48.033520" lon="2.984220">
        <time>2017-06-24T16:00:52Z</time>
      </trkpt>
      <trkpt lat="48.033540" lon="2.984650">
        <time>2017-06-24T16:00:53Z</time>
      </trkpt>
      <trkpt lat="48.033560" lon="2.985110">
        <time>2017-06-24T16:00:54Z</time>
      </trkpt>
      <trkpt lat="48.033580" lon="2.985590">
        <time>2017-06-24T16:00:55Z</time>
      </trkpt>
      <trkpt lat="48.033600" lon="2.986020">
        <time>2017-06-24T16:00:56Z</time>
      </trkpt>
      <trkpt lat="48.033620" lon="2.986480">
        <time>2017-06-24T16:00:57Z</time>
      </trkpt>
      <trkpt lat="48.033630" lon="2.986980">
        <time>2017-06-24T16:00:58Z</time>
      </trkpt>
      <trkpt lat="48.033650" lon="2.987420">
        <time>2017-06-24T16:00:59Z</time>
      </trkpt>
      <trkpt lat="48.033670" lon="2.987910">
        <time>2017-06-24T16:01:00Z</time>
      </trkpt>
      <trkpt lat="48.033680" lon="2.988350">
        <time>2017-06-24T16:01:01Z</time>
      </trkpt>
      <trkpt lat="48.033700" lon="2.988820">
        <time>2017-06-24T16:01:02Z</time>
      </trkpt>
      <trkpt lat="48.033720" lon="2.989330">
        <time>2017-06-24T16:01:03Z</time>
      </trkpt>
      <trkpt lat="48.033740" lon="2.989780">
        <time>2017-06-24T16:01:04Z</time>
      </trkpt>
      <trkpt lat="48.033760" lon="2.990250">
        <time>2017-06-24T16:01:05Z</time>
      </trkpt>
      <trkpt lat="48.033780" lon="2.990720">
        <time>2017-06-24T16:01:06Z</time>
      </trkpt>
      <trkpt lat="48.033800" lon="2.991200">
        <time>2017-06-24T16:01:07Z</time>
      </trkpt>
      <trkpt lat="48.033810" lon="2.991690">
        <time>2017-06-24T16:01:08Z</time>
      </trkpt>
      <trkpt lat="48.033840" lon="2.992130">
        <time>2017-06-24T16:01:09Z</time>
      </trkpt>
      <trkpt lat="48.033860" lon="2.992590">
        <time>2017-06-24T16:01:10Z</time>
      </trkpt>
      <trkpt lat="48.033890" lon="2.993080">
        <time>2017-06-24T16:01:11Z</time>
      </trkpt>
      <trkpt lat="48.033920" lon="2.993500">
        <time>2017-06-24T16:01:12Z</time>
      </trkpt>
      <trkpt lat="48.033950" lon="2.993950">
        <time>2017-06-24T16:01:13Z</time>
      </trkpt>
      <trkpt lat="48.033990" lon="2.994430">
        <time>2017-06-24T16:01:14Z</time>
      </trkpt>
      <trkpt lat="48.034030" lon="2.994850">
        <time>2017-06-24T16:01:15Z</time>
      </trkpt>
      <trkpt lat="48.034070" lon="2.995320">
        <time>2017-06-24T16:01:16Z</time>
      </trkpt>
      <trkpt lat="48.034100" lon="2.995740">
        <time>2017-06-24T16:01:17Z</time>
      </trkpt>
      <trkpt lat="48.034140" lon="2.996180">
        <time>2017-06-24T16:01:18Z</time>
      </trkpt>
      <trkpt lat="48.034190" lon="2.996650">
        <time>2017-06-24T16:01:19Z</time>
      </trkpt>
      <trkpt lat="48.034230" lon="2.997070">
        <time>2017-06-24T16:01:20Z</time>
      </trkpt>
      <trkpt lat="48.034280" lon="2.997510">
        <time>2017-06-24T16:01:21Z</time>
      </trkpt>
      <trkpt lat="48.034320" lon="2.997940">
        <time>2017-06-24T16:01:22Z</time>
      </trkpt>
      <trkpt lat="48.034370" lon="2.998370">
        <time>2017-06-24T16:01:23Z</time>
      </trkpt>
      <trkpt lat="48.034420" lon="2.998830">
        <time>2017-06-24T16:01:24Z</time>
      </trkpt>
      <trkpt lat="48.034470" lon="2.999220">
        <time>2017-06-24T16:01:25Z</time>
      </trkpt>
      <trkpt lat="48.034520" lon="2.999640">
        <time>2017-06-24T16:01:26Z</time>
      </trkpt>
      <trkpt lat="48.034570" lon="3.000090">
        <time>2017-06-24T16:01:27Z</time>
      </trkpt>
      <trkpt lat="48.034610" lon="3.000480">
        <time>2017-06-24T16:01:28Z</time>
      </trkpt>
      <trkpt lat="48.034660" lon="3.000910">
        <time>2017-06-24T16:01:29Z</time>
      </trkpt>
      <trkpt lat="48.034710" lon="3.001360">
        <time>2017-06-24T16:01:30Z</time>
      </trkpt>
      <trkpt lat="48.034750" lon="3.001760">
        <time>2017-06-24T16:01:31Z</time>
      </trkpt>
      <trkpt lat="48.034800" lon="3.002220">
        <time>2017-06-24T16:01:32Z</time>
      </trkpt>
      <trkpt lat="48.034850" lon="3.002630">
        <time>2017-06-24T16:01:33Z</time>
      </trkpt>
      <trkpt lat="48.034900" lon="3.003060">
        <time>2017-06-24T16:01:34Z</time>
      </trkpt>
      <trkpt lat="48.034950" lon="3.003530">
        <time>2017-06-24T16:01:35Z</time>
      </trkpt>
      <trkpt lat="48.035000" lon="3.003950">
        <time>2017-06-24T16:01:36Z</time>
      </trkpt>
      <trkpt lat="48.035050" lon="3.004380">
        <time>2017-06-24T16:01:37Z</time>
      </trkpt>
      <trkpt lat="48.035100" lon="3.004820">
        <time>2017-06-24T16:01:38Z</time>
      </trkpt>
      <trkpt lat="48.035140" lon="3.005260">
        <time>2017-06-24T16:01:39Z</time>
      </trkpt>
      <trkpt lat="48.035200" lon="3.005740">
        <time>2017-06-24T16:01:40Z</time>
      </trkpt>
      <trkpt lat="48.035240" lon="3.006150">
        <time>2017-06-24T16:01:41Z</time>
      </trkpt>
      <trkpt lat="48.035290" lon="3.006600">
        <time>2017-06-24T16:01:42Z</time>
      </trkpt>
      <trkpt lat="48.035340" lon="3.007060">
        <time>2017-06-24T16:01:43Z</time>
      </trkpt>
      <trkpt lat="48.035390" lon="3.007480">
        <time>2017-06-24T16:01:44Z</time>
      </trkpt>
      <trkpt lat="48.035440" lon="3.007920">
        <time>2017-06-24T16:01:45Z</time>
      </trkpt>
      <trkpt lat="48.035490" lon="3.008380">
        <time>2017-06-24T16:01:46Z</time>
      </trkpt>
      <trkpt lat="48.035530" lon="3.008800">
        <time>2017-06-24T16:01:47Z</time>
      </trkpt>
      <trkpt lat="48.035580" lon="3.009270">
        <time>2017-06-24T16:01:48Z</time>
      </trkpt>
      <trkpt lat="48.035630" lon="3.009690">
        <time>2017-06-24T16:01:49Z</time>
      </trkpt>
      <trkpt lat="48.035680" lon="3.010140">
        <time>2017-06-24T16:01:50Z</time>
      </trkpt>
      <trkpt lat="48.035740" lon="3.010630">
        <time>2017-06-24T16:01:51Z</time>
      </trkpt>
      <trkpt lat="48.035780" lon="3.011060">
        <time>2017-06-24T16:01:52Z</time>
      </trkpt>
      <trkpt lat="48.035840" lon="3.011520">
        <time>2017-06-24T16:01:53Z</time>
      </trkpt>
      <trkpt lat="48.035890" lon="3.011990">
        <time>2017-06-24T16:01:54Z</time>
      </trkpt>
      <trkpt lat="48.035950" lon="3.012460">
        <time>2017-06-24T16:01:55Z</time>
      </trkpt>
      <trkpt lat="48.036010" lon="3.012960">
        <time>2017-06-24T16:01:56Z</time>
      </trkpt>
      <trkpt lat="48.036060" lon="3.013400">
        <time>2017-06-24T16:01:57Z</time>
      </trkpt>
      <trkpt lat="48.036120" lon="3.013870">
        <time>2017-06-24T16:01:58Z</time>
      </trkpt>
      <trkpt lat="48.036190" lon="3.014350">
        <time>2017-06-24T16:01:59Z</time>
      </trkpt>
      <trkpt lat="48.036250" lon="3.014770">
        <time>2017-06-24T16:02:00Z</time>
      </trkpt>
      <trkpt lat="48.036320" lon="3.015220">
        <time>2017-06-24T16:02:01Z</time>
      </trkpt>
      <trkpt lat="48.036390" lon="3.015690">
        <time>2017-06-24T16:02:02Z</time>
      </trkpt>
      <trkpt lat="48.036460" lon="3.016110">
        <time>2017-06-24T16:02:03Z</time>
      </trkpt>
      <trkpt lat="48.036530" lon="3.016600">
        <time>2017-06-24T16:02:04Z</time>
      </trkpt>
      <trkpt lat="48.036600" lon="3.017020">
        <time>2017-06-24T16:02:05Z</time>
      </trkpt>
      <trkpt lat="48.036680" lon="3.017480">
        <time>2017-06-24T16:02:06Z</time>
      </trkpt>
      <trkpt lat="48.036770" lon="3.017960">
        <time>2017-06-24T16:02:07Z</time>
      </trkpt>
      <trkpt lat="48.036850" lon="3.018390">
        <time>2017-06-24T16:02:08Z</time>
      </trkpt>
      <trkpt lat="48.036940" lon="3.018850">
        <time>2017-06-24T16:02:09Z</time>
      </trkpt>
      <trkpt lat="48.037020" lon="3.019300">
        <time>2017-06-24T16:02:10Z</time>
      </trkpt>
      <trkpt lat="48.037110" lon="3.019750">
        <time>2017-06-24T16:02:11Z</time>
      </trkpt>
      <trkpt lat="48.037210" lon="3.020230">
        <time>2017-06-24T16:02:12Z</time>
      </trkpt>
      <trkpt lat="48.037290" lon="3.020660">
        <time>2017-06-24T16:02:13Z</time>
      </trkpt>
      <trkpt lat="48.037390" lon="3.021100">
        <time>2017-06-24T16:02:14Z</time>
      </trkpt>
      <trkpt lat="48.037490" lon="3.021570">
        <time>2017-06-24T16:02:15Z</time>
      </trkpt>
      <trkpt lat="48.037580" lon="3.021980">
        <time>2017-06-24T16:02:16Z</time>
      </trkpt>
      <trkpt lat="48.037680" lon="3.022420">
        <time>2017-06-24T16:02:17Z</time>
      </trkpt>
      <trkpt lat="48.037780" lon="3.022880">
        <time>2017-06-24T16:02:18Z</time>
      </trkpt>
      <trkpt lat="48.037870" lon="3.023280">
        <time>2017-06-24T16:02:19Z</time>
      </trkpt>
      <trkpt lat="48.037980" lon="3.023730">
        <time>2017-06-24T16:02:20Z</time>
      </trkpt>
      <trkpt lat="48.038080" lon="3.024140">
        <time>2017-06-24T16:02:21Z</time>
      </trkpt>
      <trkpt lat="48.038180" lon="3.024570">
        <time>2017-06-24T16:02:22Z</time>
      </trkpt>
      <trkpt lat="48.038290" lon="3.025030">
        <time>2017-06-24T16:02:23Z</time>
      </trkpt>
      <trkpt lat="48.038390" lon="3.025450">
        <time>2017-06-24T16:02:24Z</time>
      </trkpt>
      <trkpt lat="48.038490" lon="3.025890">
        <time>2017-06-24T16:02:25Z</time>
      </trkpt>
      <trkpt lat="48.038600" lon="3.026330">
        <time>2017-06-24T16:02:26Z</time>
      </trkpt>
      <trkpt lat="48.038690" lon="3.026770">
        <time>2017-06-24T16:02:27Z</time>
      </trkpt>
      <trkpt lat="48.038800" lon="3.027240">
        <time>2017-06-24T16:02:28Z</time>
      </trkpt>
      <trkpt lat="48.038900" lon="3.027650">
        <time>2017-06-24T16:02:29Z</time>
      </trkpt>
      <trkpt lat="48.038990" lon="3.028090">
        <time>2017-06-24T16:02:30Z</time>
      </trkpt>
      <trkpt lat="48.039110" lon="3.028560">
        <time>2017-06-24T16:02:31Z</time>
      </trkpt>
      <trkpt lat="48.039210" lon="3.028960">
        <time>2017-06-24T16:02:32Z</time>
      </trkpt>
      <trkpt lat="48.039330" lon="3.029380">
        <time>2017-06-24T16:02:33Z</time>
      </trkpt>
      <trkpt lat="48.039460" lon="3.029830">
        <time>2017-06-24T16:02:34Z</time>
      </trkpt>
      <trkpt lat="48.039580" lon="3.030220">
        <time>2017-06-24T16:02:35Z</time>
      </trkpt>
      <trkpt lat="48.039710" lon="3.030670">
        <time>2017-06-24T16:02:36Z</time>
      </trkpt>
      <trkpt lat="48.039820" lon="3.031060">
        <time>2017-06-24T16:02:37Z</time>
      </trkpt>
      <trkpt lat="48.039940" lon="3.031480">
        <time>2017-06-24T16:02:38Z</time>
      </trkpt>
      <trkpt lat="48.040080" lon="3.031910">
        <time>2017-06-24T16:02:39Z</time>
      </trkpt>
      <trkpt lat="48.040200" lon="3.032290">
        <time>2017-06-24T16:02:40Z</time>
      </trkpt>
      <trkpt lat="48.040340" lon="3.032690">
        <time>2017-06-24T16:02:41Z</time>
      </trkpt>
      <trkpt lat="48.040480" lon="3.033080">
        <time>2017-06-24T16:02:42Z</time>
      </trkpt>
      <trkpt lat="48.040630" lon="3.033460">
        <time>2017-06-24T16:02:43Z</time>
      </trkpt>
      <trkpt lat="48.040800" lon="3.033860">
        <time>2017-06-24T16:02:44Z</time>
      </trkpt>
      <trkpt lat="48.040960" lon="3.034210">
        <time>2017-06-24T16:02:45Z</time>
      </trkpt>
      <trkpt lat="48.041120" lon="3.034580">
        <time>2017-06-24T16:02:46Z</time>
      </trkpt>
      <trkpt lat="48.041310" lon="3.034960">
        <time>2017-06-24T16:02:47Z</time>
      </trkpt>
      <trkpt lat="48.041490" lon="3.035280">
        <time>2017-06-24T16:02:48Z</time>
      </trkpt>
      <trkpt lat="48.041680" lon="3.035630">
        <time>2017-06-24T16:02:49Z</time>
      </trkpt>
      <trkpt lat="48.041890" lon="3.035980">
        <time>2017-06-24T16:02:50Z</time>
      </trkpt>
      <trkpt lat="48.042070" lon="3.036300">
        <time>2017-06-24T16:02:51Z</time>
      </trkpt>
      <trkpt lat="48.042280" lon="3.036650">
        <time>2017-06-24T16:02:52Z</time>
      </trkpt>
      <trkpt lat="48.042480" lon="3.036950">
        <time>2017-06-24T16:02:53Z</time>
      </trkpt>
      <trkpt lat="48.042680" lon="3.037270">
        <time>2017-06-24T16:02:54Z</time>
      </trkpt>
      <trkpt lat="48.042890" lon="3.037620">
        <time>2017-06-24T16:02:55Z</time>
      </trkpt>
      <trkpt lat="48.043060" lon="3.037940">
        <time>2017-06-24T16:02:56Z</time>
      </trkpt>
      <trkpt lat="48.043250" lon="3.038280">
        <time>2017-06-24T16:02:57Z</time>
      </trkpt>
      <trkpt lat="48.043420" lon="3.038640">
        <time>2017-06-24T16:02:58Z</time>
      </trkpt>
      <trkpt lat="48.043590" lon="3.039000">
        <time>2017-06-24T16:02:59Z</time>
      </trkpt>
      <trkpt lat="48.043750" lon="3.039400">
        <time>2017-06-24T16:03:00Z</time>
      </trkpt>
      <trkpt lat="48.043890" lon="3.039760">
        <time>2017-06-24T16:03:01Z</time>
      </trkpt>
      <trkpt lat="48.044020" lon="3.040150">
        <time>2017-06-24T16:03:02Z</time>
      </trkpt>
      <trkpt lat="48.044150" lon="3.040580">
        <time>2017-06-24T16:03:03Z</time>
      </trkpt>
      <trkpt lat="48.044260" lon="3.040960">
        <time>2017-06-24T16:03:04Z</time>
      </trkpt>
      <trkpt lat="48.044350" lon="3.041370">
        <time>2017-06-24T16:03:05Z</time>
      </trkpt>
      <trkpt lat="48.044450" lon="3.041810">
        <time>2017-06-24T16:03:06Z</time>
      </trkpt>
      <trkpt lat="48.044520" lon="3.042200">
        <time>2017-06-24T16:03:07Z</time>
      </trkpt>
      <trkpt lat="48.044590" lon="3.042650">
        <time>2017-06-24T16:03:08Z</time>
      </trkpt>
      <trkpt lat="48.044640" lon="3.043050">
        <time>2017-06-24T16:03:09Z</time>
      </trkpt>
      <trkpt lat="48.044690" lon="3.043470">
        <time>2017-06-24T16:03:10Z</time>
      </trkpt>
      <trkpt lat="48.044730" lon="3.043930">
        <time>2017-06-24T16:03:11Z</time>
      </trkpt>
      <trkpt lat="48.044760" lon="3.044340">
        <time>2017-06-24T16:03:12Z</time>
      </trkpt>
      <trkpt lat="48.044800" lon="3.044770">
        <time>2017-06-24T16:03:13Z</time>
      </trkpt>
      <trkpt lat="48.044840" lon="3.045220">
        <time>2017-06-24T16:03:14Z</time>
      </trkpt>
      <trkpt lat="48.044880" lon="3.045670">
        <time>2017-06-24T16:03:15Z</time>
      </trkpt>
      <trkpt lat="48.044920" lon="3.046150">
        <time>2017-06-24T16:03:16Z</time>
      </trkpt>
      <trkpt lat="48.044950" lon="3.046570">
        <time>2017-06-24T16:03:17Z</time>
      </trkpt>
      <trkpt lat="48.044990" lon="3.047030">
        <time>2017-06-24T16:03:18Z</time>
      </trkpt>
      <trkpt lat="48.045030" lon="3.047520">
        <time>2017-06-24T16:03:19Z</time>
      </trkpt>
      <trkpt lat="48.045060" lon="3.047960">
        <time>2017-06-24T16:03:20Z</time>
      </trkpt>
      <trkpt lat="48.045100" lon="3.048430">
        <time>2017-06-24T16:03:21Z</time>
      </trkpt>
      <trkpt lat="48.045150" lon="3.048910">
        <time>2017-06-24T16:03:22Z</time>
      </trkpt>
      <trkpt lat="48.045180" lon="3.049340">
        <time>2017-06-24T16:03:23Z</time>
      </trkpt>
      <trkpt lat="48.045220" lon="3.049810">
        <time>2017-06-24T16:03:24Z</time>
      </trkpt>
      <trkpt lat="48.045250" lon="3.050230">
        <time>2017-06-24T16:03:25Z</time>
      </trkpt>
      <trkpt lat="48.045280" lon="3.050680">
        <time>2017-06-24T16:03:26Z</time>
      </trkpt>
      <trkpt lat="48.045320" lon="3.051150">
        <time>2017-06-24T16:03:27Z</time>
      </trkpt>
      <trkpt lat="48.045360" lon="3.051570">
        <time>2017-06-24T16:03:28Z</time>
      </trkpt>
      <trkpt lat="48.045400" lon="3.052020">
        <time>2017-06-24T16:03:29Z</time>
      </trkpt>
      <trkpt lat="48.045440" lon="3.052460">
        <time>2017-06-24T16:03:30Z</time>
      </trkpt>
      <trkpt lat="48.045480" lon="3.052910">
        <time>2017-06-24T16:03:31Z</time>
      </trkpt>
      <trkpt lat="48.045520" lon="3.053380">
        <time>2017-06-24T16:03:32Z</time>
      </trkpt>
      <trkpt lat="48.045550" lon="3.053800">
        <time>2017-06-24T16:03:33Z</time>
      </trkpt>
      <trkpt lat="48.045580" lon="3.054250">
        <time>2017-06-24T16:03:34Z</time>
      </trkpt>
      <trkpt lat="48.045620" lon="3.054730">
        <time>2017-06-24T16:03:35Z</time>
      </trkpt>
      <trkpt lat="48.045660" lon="3.055150">
        <time>2017-06-24T16:03:36Z</time>
      </trkpt>
      <trkpt lat="48.045690" lon="3.055610">
        <time>2017-06-24T16:03:37Z</time>
      </trkpt>
      <trkpt lat="48.045740" lon="3.056090">
        <time>2017-06-24T16:03:38Z</time>
      </trkpt>
      <trkpt lat="48.045770" lon="3.056510">
        <time>2017-06-24T16:03:39Z</time>
      </trkpt>
      <trkpt lat="48.045810" lon="3.056990">
        <time>2017-06-24T16:03:40Z</time>
      </trkpt>
      <trkpt lat="48.045850" lon="3.057400">
        <time>2017-06-24T16:03:41Z</time>
      </trkpt>
      <trkpt lat="48.045890" lon="3.057850">
        <time>2017-06-24T16:03:42Z</time>
      </trkpt>
      <trkpt lat="48.045920" lon="3.058320">
        <time>2017-06-24T16:03:43Z</time>
      </trkpt>
      <trkpt lat="48.045960" lon="3.058730">
        <time>2017-06-24T16:03:44Z</time>
      </trkpt>
      <trkpt lat="48.046000" lon="3.059170">
        <time>2017-06-24T16:03:45Z</time>
      </trkpt>
      <trkpt lat="48.046030" lon="3.059610">
        <time>2017-06-24T16:03:46Z</time>
      </trkpt>
      <trkpt lat="48.046070" lon="3.060040">
        <time>2017-06-24T16:03:47Z</time>
      </trkpt>
      <trkpt lat="48.046100" lon="3.060500">
        <time>2017-06-24T16:03:48Z</time>
      </trkpt>
      <trkpt lat="48.046140" lon="3.060900">
        <time>2017-06-24T16:03:49Z</time>
      </trkpt>
      <trkpt lat="48.046180" lon="3.061350">
        <time>2017-06-24T16:03:50Z</time>
      </trkpt>
      <trkpt lat="48.046230" lon="3.061820">
        <time>2017-06-24T16:03:51Z</time>
      </trkpt>
      <trkpt lat="48.046280" lon="3.062230">
        <time>2017-06-24T16:03:52Z</time>
      </trkpt>
      <trkpt lat="48.046340" lon="3.062680">
        <time>2017-06-24T16:03:53Z</time>
      </trkpt>
      <trkpt lat="48.046420" lon="3.063140">
        <time>2017-06-24T16:03:54Z</time>
      </trkpt>
      <trkpt lat="48.046490" lon="3.063550">
        <time>2017-06-24T16:03:55Z</time>
      </trkpt>
      <trkpt lat="48.046590" lon="3.064000">
        <time>2017-06-24T16:03:56Z</time>
      </trkpt>
      <trkpt lat="48.046690" lon="3.064400">
        <time>2017-06-24T16:03:57Z</time>
      </trkpt>
      <trkpt lat="48.046800" lon="3.064810">
        <time>2017-06-24T16:03:58Z</time>
      </trkpt>
      <trkpt lat="48.046940" lon="3.065250">
        <time>2017-06-24T16:03:59Z</time>
      </trkpt>
      <trkpt lat="48.047060" lon="3.065630">
        <time>2017-06-24T16:04:00Z</time>
      </trkpt>
      <trkpt lat="48.047200" lon="3.066030">
        <time>2017-06-24T16:04:01Z</time>
      </trkpt>
      <trkpt lat="48.047350" lon="3.066410">
        <time>2017-06-24T16:04:02Z</time>
      </trkpt>
      <trkpt lat="48.047500" lon="3.066800">
        <time>2017-06-24T16:04:03Z</time>
      </trkpt>
      <trkpt lat="48.047670" lon="3.067210">
        <time>2017-06-24T16:04:04Z</time>
      </trkpt>
      <trkpt lat="48.047820" lon="3.067560">
        <time>2017-06-24T16:04:05Z</time>
      </trkpt>
      <trkpt lat="48.047980" lon="3.067950">
        <time>2017-06-24T16:04:06Z</time>
      </trkpt>
      <trkpt lat="48.048150" lon="3.068370">
        <time>2017-06-24T16:04:07Z</time>
      </trkpt>
      <trkpt lat="48.048300" lon="3.068740">
        <time>2017-06-24T16:04:08Z</time>
      </trkpt>
      <trkpt lat="48.048460" lon="3.069130">
        <time>2017-06-24T16:04:09Z</time>
      </trkpt>
      <trkpt lat="48.048620" lon="3.069540">
        <time>2017-06-24T16:04:10Z</time>
      </trkpt>
      <trkpt lat="48.048770" lon="3.069910">
        <time>2017-06-24T16:04:11Z</time>
      </trkpt>
      <trkpt lat="48.048930" lon="3.070340">
        <time>2017-06-24T16:04:12Z</time>
      </trkpt>
      <trkpt lat="48.049070" lon="3.070720">
        <time>2017-06-24T16:04:13Z</time>
      </trkpt>
      <trkpt lat="48.049220" lon="3.071130">
        <time>2017-06-24T16:04:14Z</time>
      </trkpt>
      <trkpt lat="48.049380" lon="3.071560">
        <time>2017-06-24T16:04:15Z</time>
      </trkpt>
      <trkpt lat="48.049520" lon="3.071930">
        <time>2017-06-24T16:04:16Z</time>
      </trkpt>
      <trkpt lat="48.049670" lon="3.072330">
        <time>2017-06-24T16:04:17Z</time>
      </trkpt>
      <trkpt lat="48.049830" lon="3.072720">
        <time>2017-06-24T16:04:18Z</time>
      </trkpt>
      <trkpt lat="48.049980" lon="3.073120">
        <time>2017-06-24T16:04:19Z</time>
      </trkpt>
      <trkpt lat="48.050140" lon="3.073550">
        <time>2017-06-24T16:04:20Z</time>
      </trkpt>
      <trkpt lat="48.050280" lon="3.073910">
        <time>2017-06-24T16:04:21Z</time>
      </trkpt>
      <trkpt lat="48.050430" lon="3.074300">
        <time>2017-06-24T16:04:22Z</time>
      </trkpt>
      <trkpt lat="48.050590" lon="3.074720">
        <time>2017-06-24T16:04:23Z</time>
      </trkpt>
      <trkpt lat="48.050720" lon="3.075090">
        <time>2017-06-24T16:04:24Z</time>
      </trkpt>
      <trkpt lat="48.050840" lon="3.075480">
        <time>2017-06-24T16:04:25Z</time>
      </trkpt>
      <trkpt lat="48.050970" lon="3.075890">
        <time>2017-06-24T16:04:26Z</time>
      </trkpt>
      <trkpt lat="48.051080" lon="3.076250">
        <time>2017-06-24T16:04:27Z</time>
      </trkpt>
      <trkpt lat="48.051200" lon="3.076650">
        <time>2017-06-24T16:04:28Z</time>
      </trkpt>
      <trkpt lat="48.051300" lon="3.076990">
        <time>2017-06-24T16:04:29Z</time>
      </trkpt>
      <trkpt lat="48.051390" lon="3.077360">
        <time>2017-06-24T16:04:30Z</time>
      </trkpt>
      <trkpt lat="48.051500" lon="3.077740">
        <time>2017-06-24T16:04:31Z</time>
      </trkpt>
      <trkpt lat="48.051590" lon="3.078070">
        <time>2017-06-24T16:04:32Z</time>
      </trkpt>
      <trkpt lat="48.051680" lon="3.078430">
        <time>2017-06-24T16:04:33Z</time>
      </trkpt>
      <trkpt lat="48.051770" lon="3.078770">
        <time>2017-06-24T16:04:34Z</time>
      </trkpt>
      <trkpt lat="48.051860" lon="3.079110">
        <time>2017-06-24T16:04:35Z</time>
      </trkpt>
      <trkpt lat="48.051950" lon="3.079460">
        <time>2017-06-24T16:04:36Z</time>
      </trkpt>
      <trkpt lat="48.052030" lon="3.079780">
        <time>2017-06-24T16:04:37Z</time>
      </trkpt>
      <trkpt lat="48.052110" lon="3.080110">
        <time>2017-06-24T16:04:38Z</time>
      </trkpt>
      <trkpt lat="48.052200" lon="3.080460">
        <time>2017-06-24T16:04:39Z</time>
      </trkpt>
      <trkpt lat="48.052270" lon="3.080750">
        <time>2017-06-24T16:04:40Z</time>
      </trkpt>
      <trkpt lat="48.052350" lon="3.081060">
        <time>2017-06-24T16:04:41Z</time>
      </trkpt>
      <trkpt lat="48.052430" lon="3.081370">
        <time>2017-06-24T16:04:42Z</time>
      </trkpt>
      <trkpt lat="48.052480" lon="3.081650">
        <time>2017-06-24T16:04:43Z</time>
      </trkpt>
      <trkpt lat="48.052530" lon="3.081940">
        <time>2017-06-24T16:04:44Z</time>
      </trkpt>
      <trkpt lat="48.052560" lon="3.082200">
        <time>2017-06-24T16:04:45Z</time>
      </trkpt>
      <trkpt lat="48.052550" lon="3.082490">
        <time>2017-06-24T16:04:46Z</time>
      </trkpt>
      <trkpt lat="48.052530" lon="3.082760">
        <time>2017-06-24T16:04:47Z</time>
      </trkpt>
      <trkpt lat="48.052500" lon="3.083000">
        <time>2017-06-24T16:04:48Z</time>
      </trkpt>
      <trkpt lat="48.052490" lon="3.083240">
        <time>2017-06-24T16:04:49Z</time>
      </trkpt>
      <trkpt lat="48.052500" lon="3.083480">
        <time>2017-06-24T16:04:50Z</time>
      </trkpt>
      <trkpt lat="48.052540" lon="3.083700">
        <time>2017-06-24T16:04:51Z</time>
      </trkpt>
      <trkpt lat="48.052610" lon="3.083930">
        <time>2017-06-24T16:04:52Z</time>
      </trkpt>
      <trkpt lat="48.052690" lon="3.084090">
        <time>2017-06-24T16:04:53Z</time>
      </trkpt>
      <trkpt lat="48.052790" lon="3.084240">
        <time>2017-06-24T16:04:54Z</time>
      </trkpt>
      <trkpt lat="48.052940" lon="3.084360">
        <time>2017-06-24T16:04:55Z</time>
      </trkpt>
      <trkpt lat="48.053090" lon="3.084460">
        <time>2017-06-24T16:04:56Z</time>
      </trkpt>
      <trkpt lat="48.053250" lon="3.084580">
        <time>2017-06-24T16:04:57Z</time>
      </trkpt>
      <trkpt lat="48.053430" lon="3.084700">
        <time>2017-06-24T16:04:58Z</time>
      </trkpt>
      <trkpt lat="48.053600" lon="3.084800">
        <time>2017-06-24T16:04:59Z</time>
      </trkpt>
      <trkpt lat="48.053780" lon="3.084940">
        <time>2017-06-24T16:05:00Z</time>
      </trkpt>
      <trkpt lat="48.053920" lon="3.085100">
        <time>2017-06-24T16:05:01Z</time>
      </trkpt>
      <trkpt lat="48.054050" lon="3.085300">
        <time>2017-06-24T16:05:02Z</time>
      </trkpt>
      <trkpt lat="48.054160" lon="3.085540">
        <time>2017-06-24T16:05:03Z</time>
      </trkpt>
      <trkpt lat="48.054260" lon="3.085750">
        <time>2017-06-24T16:05:04Z</time>
      </trkpt>
      <trkpt lat="48.054350" lon="3.085970">
        <time>2017-06-24T16:05:05Z</time>
      </trkpt>
      <trkpt lat="48.054440" lon="3.086180">
        <time>2017-06-24T16:05:06Z</time>
      </trkpt>
      <trkpt lat="48.054540" lon="3.086360">
        <time>2017-06-24T16:05:07Z</time>
      </trkpt>
      <trkpt lat="48.054650" lon="3.086530">
        <time>2017-06-24T16:05:08Z</time>
      </trkpt>
      <trkpt lat="48.054740" lon="3.086680">
        <time>2017-06-24T16:05:09Z</time>
      </trkpt>
      <trkpt lat="48.054840" lon="3.086810">
        <time>2017-06-24T16:05:10Z</time>
      </trkpt>
      <trkpt lat="48.054930" lon="3.086940">
        <time>2017-06-24T16:05:11Z</time>
      </trkpt>
      <trkpt lat="48.055010" lon="3.087050">
        <time>2017-06-24T16:05:12Z</time>
      </trkpt>
      <trkpt lat="48.055080" lon="3.087160">
        <time>2017-06-24T16:05:13Z</time>
      </trkpt>
      <trkpt lat="48.055160" lon="3.087260">
        <time>2017-06-24T16:05:14Z</time>
      </trkpt>
      <trkpt lat="48.055230" lon="3.087340">
        <time>2017-06-24T16:05:15Z</time>
      </trkpt>
      <trkpt lat="48.055290" lon="3.087430">
        <time>2017-06-24T16:05:16Z</time>
      </trkpt>
      <trkpt lat="48.055350" lon="3.087510">
        <time>2017-06-24T16:05:17Z</time>
      </trkpt>
      <trkpt lat="48.055400" lon="3.087580">
        <time>2017-06-24T16:05:18Z</time>
      </trkpt>
      <trkpt lat="48.055460" lon="3.087660">
        <time>2017-06-24T16:05:19Z</time>
      </trkpt>
      <trkpt lat="48.055510" lon="3.087710">
        <time>2017-06-24T16:05:20Z</time>
      </trkpt>
      <trkpt lat="48.055550" lon="3.087770">
        <time>2017-06-24T16:05:21Z</time>
      </trkpt>
      <trkpt lat="48.055600" lon="3.087820">
        <time>2017-06-24T16:05:22Z</time>
      </trkpt>
      <trkpt lat="48.055640" lon="3.087860">
        <time>2017-06-24T16:05:23Z</time>
      </trkpt>
      <trkpt lat="48.055680" lon="3.087900">
        <time>2017-06-24T16:05:24Z</time>
      </trkpt>
      <trkpt lat="48.055700" lon="3.087920">
        <time>2017-06-24T16:05:25Z</time>
      </trkpt>
      <trkpt lat="48.055720" lon="3.087960">
        <time>2017-06-24T16:05:26Z</time>
      </trkpt>
      <trkpt lat="48.055730" lon="3.088010">
        <time>2017-06-24T16:05:27Z</time>
      </trkpt>
      <trkpt lat="48.055750" lon="3.088050">
        <time>2017-06-24T16:05:28Z</time>
      </trkpt>
      <trkpt lat="48.055770" lon="3.088080">
        <time>2017-06-24T16:05:29Z</time>
      </trkpt>
      <trkpt lat="48.055800" lon="3.088120">
        <time>2017-06-24T16:05:30Z</time>
      </trkpt>
      <trkpt lat="48.055830" lon="3.088140">
        <time>2017-06-24T16:05:31Z</time>
      </trkpt>
      <trkpt lat="48.055850" lon="3.088160">
        <time>2017-06-24T16:05:32Z</time>
      </trkpt>
      <trkpt lat="48.055870" lon="3.088190">
        <time>2017-06-24T16:05:33Z</time>
      </trkpt>
      <trkpt lat="48.055870" lon="3.088210">
        <time>2017-06-24T16:05:34Z</time>
      </trkpt>
      <trkpt lat="48.055870" lon="3.088220">
        <time>2017-06-24T16:05:35Z</time>
      </trkpt>
      <trkpt lat="48.055870" lon="3.088220">
        <time>2017-06-24T16:05:36Z</time>
      </trkpt>
      <trkpt lat="48.055870" lon="3.088220">
        <time>2017-06-24T16:05:37Z</time>
      </trkpt>
      <trkpt lat="48.055870" lon="3.088220">
        <time>2017-06-24T16:05:38Z</time>
      </trkpt>
      <trkpt lat="48.055870" lon="3.088220">
        <time>2017-06-24T16:05:39Z</time>
      </trkpt>
      <trkpt lat="48.055870" lon="3.088220">
        <time>2017-06-24T16:05:40Z</time>
      </trkpt>
      <trkpt lat="48.055870" lon="3.088220">
        <time>2017-06-24T16:05:41Z</time>
      </trkpt>
      <trkpt lat="48.055870" lon="3.088220">
        <time>2017-06-24T16:05:42Z</time>
      </trkpt>
      <trkpt lat="48.055870" lon="3.088220">
        <time>2017-06-24T16:05:43Z</time>
      </trkpt>
      <trkpt lat="48.055870" lon="3.088220">
        <time>2017-06-24T16:05:44Z</time>
      </trkpt>
      <trkpt lat="48.055870" lon="3.088220">
        <time>2017-06-24T16:05:45Z</time>
      </trkpt>
      <trkpt lat="48.055870" lon="3.088220">
        <time>2017-06-24T16:05:46Z</time>
      </trkpt>
      <trkpt lat="48.055870" lon="3.088220">
        <time>2017-06-24T16:05:47Z</time>
      </trkpt>
      <trkpt lat="48.055870" lon="3.088220">
        <time>2017-06-24T16:05:48Z</time>
      </trkpt>
      <trkpt lat="48.055870" lon="3.088220">
        <time>2017-06-24T16:05:49Z</time>
      </trkpt>
      <trkpt lat="48.055870" lon="3.088220">
        <time>2017-06-24T16:05:50Z</time>
      </trkpt>
      <trkpt lat="48.055870" lon="3.088220">
        <time>2017-06-24T16:05:51Z</time>
      </trkpt>
      <trkpt lat="48.055870" lon="3.088220">
        <time>2017-06-24T16:05:52Z</time>
      </trkpt>
      <trkpt lat="48.055870" lon="3.088220">
        <time>2017-06-24T16:05:53Z</time>
      </trkpt>
      <trkpt lat="48.055870" lon="3.088220">
        <time>2017-06-24T16:05:54Z</time>
      </trkpt>
      <trkpt lat="48.055870" lon="3.088220">
        <time>2017-06-24T16:05:55Z</time>
      </trkpt>
      <trkpt lat="48.055870" lon="3.088220">
        <time>2017-06-24T16:05:56Z</time>
      </trkpt>
      <trkpt lat="48.055870" lon="3.088220">
        <time>2017-06-24T16:05:57Z</time>
      </trkpt>
      <trkpt lat="48.055870" lon="3.088220">
        <time>2017-06-24T16:05:58Z</time>
      </trkpt>
      <trkpt lat="48.055870" lon="3.088220">
        <time>2017-06-24T16:05:59Z</time>
      </trkpt>
      <trkpt lat="48.055870" lon="3.088220">
        <time>2017-06-24T16:06:00Z</time>
      </trkpt>
      <trkpt lat="48.055870" lon="3.088220">
        <time>2017-06-24T16:06:01Z</time>
      </trkpt>
      <trkpt lat="48.055870" lon="3.088220">
        <time>2017-06-24T16:06:02Z</time>
      </trkpt>
      <trkpt lat="48.055870" lon="3.088220">
        <time>2017-06-24T16:06:03Z</time>
      </trkpt>
      <trkpt lat="48.055870" lon="3.088220">
        <time>2017-06-24T16:06:04Z</time>
      </trkpt>
      <trkpt lat="48.055870" lon="3.088220">
        <time>2017-06-24T16:06:05Z</time>
      </trkpt>
      <trkpt lat="48.055870" lon="3.088220">
        <time>2017-06-24T16:06:06Z</time>
      </trkpt>
      <trkpt lat="48.055870" lon="3.088220">
        <time>2017-06-24T16:06:07Z</time>
      </trkpt>
      <trkpt lat="48.055870" lon="3.088220">
        <time>2017-06-24T16:06:08Z</time>
      </trkpt>
      <trkpt lat="48.055870" lon="3.088220">
        <time>2017-06-24T16:06:09Z</time>
      </trkpt>
      <trkpt lat="48.055880" lon="3.088220">
        <time>2017-06-24T16:06:10Z</time>
      </trkpt>
      <trkpt lat="48.055880" lon="3.088240">
        <time>2017-06-24T16:06:11Z</time>
      </trkpt>
      <trkpt lat="48.055900" lon="3.088260">
        <time>2017-06-24T16:06:12Z</time>
      </trkpt>
      <trkpt lat="48.055930" lon="3.088310">
        <time>2017-06-24T16:06:13Z</time>
      </trkpt>
      <trkpt lat="48.056010" lon="3.088410">
        <time>2017-06-24T16:06:14Z</time>
      </trkpt>
      <trkpt lat="48.056070" lon="3.088500">
        <time>2017-06-24T16:06:15Z</time>
      </trkpt>
      <trkpt lat="48.056120" lon="3.088590">
        <time>2017-06-24T16:06:16Z</time>
      </trkpt>
      <trkpt lat="48.056180" lon="3.088700">
        <time>2017-06-24T16:06:17Z</time>
      </trkpt>
      <trkpt lat="48.056230" lon="3.088790">
        <time>2017-06-24T16:06:18Z</time>
      </trkpt>
      <trkpt lat="48.056280" lon="3.088860">
        <time>2017-06-24T16:06:19Z</time>
      </trkpt>
      <trkpt lat="48.056310" lon="3.088900">
        <time>2017-06-24T16:06:20Z</time>
      </trkpt>
      <trkpt lat="48.056320" lon="3.088910">
        <time>2017-06-24T16:06:21Z</time>
      </trkpt>
      <trkpt lat="48.056320" lon="3.088910">
        <time>2017-06-24T16:06:22Z</time>
      </trkpt>
      <trkpt lat="48.056320" lon="3.088910">
        <time>2017-06-24T16:06:23Z</time>
      </trkpt>
      <trkpt lat="48.056330" lon="3.088900">
        <time>2017-06-24T16:06:24Z</time>
      </trkpt>
      <trkpt lat="48.056330" lon="3.088900">
        <time>2017-06-24T16:06:25Z</time>
      </trkpt>
      <trkpt lat="48.056330" lon="3.088900">
        <time>2017-06-24T16:06:26Z</time>
      </trkpt>
      <trkpt lat="48.056330" lon="3.088900">
        <time>2017-06-24T16:06:27Z</time>
      </trkpt>
      <trkpt lat="48.056330" lon="3.088900">
        <time>2017-06-24T16:06:28Z</time>
      </trkpt>
      <trkpt lat="48.056330" lon="3.088900">
        <time>2017-06-24T16:06:29Z</time>
      </trkpt>
      <trkpt lat="48.056330" lon="3.088900">
        <time>2017-06-24T16:06:30Z</time>
      </trkpt>
      <trkpt lat="48.056330" lon="3.088900">
        <time>2017-06-24T16:06:31Z</time>
      </trkpt>
      <trkpt lat="48.056330" lon="3.088900">
        <time>2017-06-24T16:06:32Z</time>
      </trkpt>
      <trkpt lat="48.056330" lon="3.088900">
        <time>2017-06-24T16:06:33Z</time>
      </trkpt>
      <trkpt lat="48.056330" lon="3.088900">
        <time>2017-06-24T16:06:34Z</time>
      </trkpt>
      <trkpt lat="48.056330" lon="3.088900">
        <time>2017-06-24T16:06:35Z</time>
      </trkpt>
      <trkpt lat="48.056330" lon="3.088900">
        <time>2017-06-24T16:06:36Z</time>
      </trkpt>
      <trkpt lat="48.056330" lon="3.088900">
        <time>2017-06-24T16:06:37Z</time>
      </trkpt>
      <trkpt lat="48.056330" lon="3.088900">
        <time>2017-06-24T16:06:38Z</time>
      </trkpt>
      <trkpt lat="48.056330" lon="3.088900">
        <time>2017-06-24T16:06:39Z</time>
      </trkpt>
      <trkpt lat="48.056330" lon="3.088900">
        <time>2017-06-24T16:06:40Z</time>
      </trkpt>
      <trkpt lat="48.056330" lon="3.088900">
        <time>2017-06-24T16:06:41Z</time>
      </trkpt>
      <trkpt lat="48.056330" lon="3.088900">
        <time>2017-06-24T16:06:42Z</time>
      </trkpt>
      <trkpt lat="48.056330" lon="3.088900">
        <time>2017-06-24T16:06:43Z</time>
      </trkpt>
      <trkpt lat="48.056330" lon="3.088900">
        <time>2017-06-24T16:06:44Z</time>
      </trkpt>
      <trkpt lat="48.056330" lon="3.088900">
        <time>2017-06-24T16:06:45Z</time>
      </trkpt>
      <trkpt lat="48.056330" lon="3.088900">
        <time>2017-06-24T16:06:46Z</time>
      </trkpt>
      <trkpt lat="48.056330" lon="3.088900">
        <time>2017-06-24T16:06:47Z</time>
      </trkpt>
      <trkpt lat="48.056330" lon="3.088900">
        <time>2017-06-24T16:06:48Z</time>
      </trkpt>
      <trkpt lat="48.056330" lon="3.088900">
        <time>2017-06-24T16:06:49Z</time>
      </trkpt>
      <trkpt lat="48.056330" lon="3.088900">
        <time>2017-06-24T16:06:50Z</time>
      </trkpt>
      <trkpt lat="48.056330" lon="3.088900">
        <time>2017-06-24T16:06:51Z</time>
      </trkpt>
      <trkpt lat="48.056330" lon="3.088900">
        <time>2017-06-24T16:06:52Z</time>
      </trkpt>
      <trkpt lat="48.056330" lon="3.088900">
        <time>2017-06-24T16:06:53Z</time>
      </trkpt>
      <trkpt lat="48.056330" lon="3.088900">
        <time>2017-06-24T16:06:54Z</time>
      </trkpt>
      <trkpt lat="48.056330" lon="3.088900">
        <time>2017-06-24T16:06:55Z</time>
      </trkpt>
      <trkpt lat="48.056330" lon="3.088900">
        <time>2017-06-24T16:06:56Z</time>
      </trkpt>
      <trkpt lat="48.056330" lon="3.088900">
        <time>2017-06-24T16:06:57Z</time>
      </trkpt>
      <trkpt lat="48.056330" lon="3.088900">
        <time>2017-06-24T16:06:58Z</time>
      </trkpt>
      <trkpt lat="48.056330" lon="3.088900">
        <time>2017-06-24T16:06:59Z</time>
      </trkpt>
      <trkpt lat="48.056330" lon="3.088900">
        <time>2017-06-24T16:07:00Z</time>
      </trkpt>
      <trkpt lat="48.056330" lon="3.088900">
        <time>2017-06-24T16:07:01Z</time>
      </trkpt>
      <trkpt lat="48.056330" lon="3.088900">
        <time>2017-06-24T16:07:02Z</time>
      </trkpt>
      <trkpt lat="48.056330" lon="3.088900">
        <time>2017-06-24T16:07:03Z</time>
      </trkpt>
      <trkpt lat="48.056330" lon="3.088900">
        <time>2017-06-24T16:07:04Z</time>
      </trkpt>
      <trkpt lat="48.056330" lon="3.088900">
        <time>2017-06-24T16:07:05Z</time>
      </trkpt>
      <trkpt lat="48.056330" lon="3.088900">
        <time>2017-06-24T16:07:06Z</time>
      </trkpt>
      <trkpt lat="48.056330" lon="3.088900">
        <time>2017-06-24T16:07:07Z</time>
      </trkpt>
      <trkpt lat="48.056330" lon="3.088900">
        <time>2017-06-24T16:07:08Z</time>
      </trkpt>
      <trkpt lat="48.056330" lon="3.088900">
        <time>2017-06-24T16:07:09Z</time>
      </trkpt>
      <trkpt lat="48.056330" lon="3.088900">
        <time>2017-06-24T16:07:10Z</time>
      </trkpt>
      <trkpt lat="48.056330" lon="3.088900">
        <time>2017-06-24T16:07:11Z</time>
      </trkpt>
      <trkpt lat="48.056330" lon="3.088900">
        <time>2017-06-24T16:07:12Z</time>
      </trkpt>
      <trkpt lat="48.056330" lon="3.088900">
        <time>2017-06-24T16:07:13Z</time>
      </trkpt>
      <trkpt lat="48.056330" lon="3.088900">
        <time>2017-06-24T16:07:14Z</time>
      </trkpt>
      <trkpt lat="48.056340" lon="3.088890">
        <time>2017-06-24T16:07:15Z</time>
      </trkpt>
      <trkpt lat="48.056340" lon="3.088890">
        <time>2017-06-24T16:07:16Z</time>
      </trkpt>
      <trkpt lat="48.056330" lon="3.088890">
        <time>2017-06-24T16:07:17Z</time>
      </trkpt>
      <trkpt lat="48.056330" lon="3.088890">
        <time>2017-06-24T16:07:18Z</time>
      </trkpt>
      <trkpt lat="48.056330" lon="3.088890">
        <time>2017-06-24T16:07:19Z</time>
      </trkpt>
      <trkpt lat="48.056330" lon="3.088890">
        <time>2017-06-24T16:07:20Z</time>
      </trkpt>
      <trkpt lat="48.056330" lon="3.088890">
        <time>2017-06-24T16:07:21Z</time>
      </trkpt>
      <trkpt lat="48.056330" lon="3.088890">
        <time>2017-06-24T16:07:22Z</time>
      </trkpt>
      <trkpt lat="48.056330" lon="3.088890">
        <time>2017-06-24T16:07:23Z</time>
      </trkpt>
      <trkpt lat="48.056330" lon="3.088890">
        <time>2017-06-24T16:07:24Z</time>
      </trkpt>
      <trkpt lat="48.056330" lon="3.088890">
        <time>2017-06-24T16:07:25Z</time>
      </trkpt>
      <trkpt lat="48.056330" lon="3.088890">
        <time>2017-06-24T16:07:26Z</time>
      </trkpt>
      <trkpt lat="48.056330" lon="3.088890">
        <time>2017-06-24T16:07:27Z</time>
      </trkpt>
      <trkpt lat="48.056330" lon="3.088890">
        <time>2017-06-24T16:07:28Z</time>
      </trkpt>
      <trkpt lat="48.056330" lon="3.088890">
        <time>2017-06-24T16:07:29Z</time>
      </trkpt>
      <trkpt lat="48.056330" lon="3.088890">
        <time>2017-06-24T16:07:30Z</time>
      </trkpt>
      <trkpt lat="48.056330" lon="3.088890">
        <time>2017-06-24T16:07:31Z</time>
      </trkpt>
      <trkpt lat="48.056330" lon="3.088890">
        <time>2017-06-24T16:07:32Z</time>
      </trkpt>
      <trkpt lat="48.056330" lon="3.088890">
        <time>2017-06-24T16:07:33Z</time>
      </trkpt>
      <trkpt lat="48.056330" lon="3.088890">
        <time>2017-06-24T16:07:34Z</time>
      </trkpt>
      <trkpt lat="48.056330" lon="3.088890">
        <time>2017-06-24T16:07:35Z</time>
      </trkpt>
      <trkpt lat="48.056330" lon="3.088890">
        <time>2017-06-24T16:07:36Z</time>
      </trkpt>
      <trkpt lat="48.056330" lon="3.088890">
        <time>2017-06-24T16:07:37Z</time>
      </trkpt>
      <trkpt lat="48.056340" lon="3.088900">
        <time>2017-06-24T16:07:38Z</time>
      </trkpt>
      <trkpt lat="48.056330" lon="3.088900">
        <time>2017-06-24T16:07:39Z</time>
      </trkpt>
      <trkpt lat="48.056330" lon="3.088900">
        <time>2017-06-24T16:07:40Z</time>
      </trkpt>
      <trkpt lat="48.056340" lon="3.088900">
        <time>2017-06-24T16:07:41Z</time>
      </trkpt>
      <trkpt lat="48.056350" lon="3.088900">
        <time>2017-06-24T16:07:42Z</time>
      </trkpt>
      <trkpt lat="48.056360" lon="3.088910">
        <time>2017-06-24T16:07:43Z</time>
      </trkpt>
      <trkpt lat="48.056380" lon="3.088920">
        <time>2017-06-24T16:07:44Z</time>
      </trkpt>
      <trkpt lat="48.056400" lon="3.088920">
        <time>2017-06-24T16:07:45Z</time>
      </trkpt>
      <trkpt lat="48.056420" lon="3.088920">
        <time>2017-06-24T16:07:46Z</time>
      </trkpt>
      <trkpt lat="48.056430" lon="3.088920">
        <time>2017-06-24T16:07:47Z</time>
      </trkpt>
      <trkpt lat="48.056430" lon="3.088920">
        <time>2017-06-24T16:07:48Z</time>
      </trkpt>
      <trkpt lat="48.056430" lon="3.088920">
        <time>2017-06-24T16:07:49Z</time>
      </trkpt>
      <trkpt lat="48.056430" lon="3.088920">
        <time>2017-06-24T16:07:50Z</time>
      </trkpt>
      <trkpt lat="48.056430" lon="3.088920">
        <time>2017-06-24T16:07:51Z</time>
      </trkpt>
      <trkpt lat="48.056430" lon="3.088920">
        <time>2017-06-24T16:07:52Z</time>
      </trkpt>
      <trkpt lat="48.056430" lon="3.088920">
        <time>2017-06-24T16:07:53Z</time>
      </trkpt>
      <trkpt lat="48.056430" lon="3.088920">
        <time>2017-06-24T16:07:54Z</time>
      </trkpt>
      <trkpt lat="48.056430" lon="3.088920">
        <time>2017-06-24T16:07:55Z</time>
      </trkpt>
      <trkpt lat="48.056430" lon="3.088920">
        <time>2017-06-24T16:07:56Z</time>
      </trkpt>
      <trkpt lat="48.056430" lon="3.088920">
        <time>2017-06-24T16:07:57Z</time>
      </trkpt>
      <trkpt lat="48.056430" lon="3.088920">
        <time>2017-06-24T16:07:58Z</time>
      </trkpt>
      <trkpt lat="48.056430" lon="3.088920">
        <time>2017-06-24T16:07:59Z</time>
      </trkpt>
      <trkpt lat="48.056430" lon="3.088920">
        <time>2017-06-24T16:08:00Z</time>
      </trkpt>
      <trkpt lat="48.056430" lon="3.088920">
        <time>2017-06-24T16:08:01Z</time>
      </trkpt>
      <trkpt lat="48.056430" lon="3.088920">
        <time>2017-06-24T16:08:02Z</time>
      </trkpt>
      <trkpt lat="48.056430" lon="3.088920">
        <time>2017-06-24T16:08:03Z</time>
      </trkpt>
      <trkpt lat="48.056430" lon="3.088920">
        <time>2017-06-24T16:08:04Z</time>
      </trkpt>
      <trkpt lat="48.056430" lon="3.088920">
        <time>2017-06-24T16:08:05Z</time>
      </trkpt>
      <trkpt lat="48.056440" lon="3.088910">
        <time>2017-06-24T16:08:06Z</time>
      </trkpt>
      <trkpt lat="48.056460" lon="3.088910">
        <time>2017-06-24T16:08:07Z</time>
      </trkpt>
      <trkpt lat="48.056480" lon="3.088910">
        <time>2017-06-24T16:08:08Z</time>
      </trkpt>
      <trkpt lat="48.056570" lon="3.088890">
        <time>2017-06-24T16:08:09Z</time>
      </trkpt>
      <trkpt lat="48.056610" lon="3.088900">
        <time>2017-06-24T16:08:10Z</time>
      </trkpt>
      <trkpt lat="48.056660" lon="3.088910">
        <time>2017-06-24T16:08:11Z</time>
      </trkpt>
      <trkpt lat="48.056720" lon="3.088950">
        <time>2017-06-24T16:08:12Z</time>
      </trkpt>
      <trkpt lat="48.056780" lon="3.089000">
        <time>2017-06-24T16:08:13Z</time>
      </trkpt>
      <trkpt lat="48.056850" lon="3.089080">
        <time>2017-06-24T16:08:14Z</time>
      </trkpt>
      <trkpt lat="48.056920" lon="3.089160">
        <time>2017-06-24T16:08:15Z</time>
      </trkpt>
      <trkpt lat="48.056970" lon="3.089240">
        <time>2017-06-24T16:08:16Z</time>
      </trkpt>
      <trkpt lat="48.057020" lon="3.089320">
        <time>2017-06-24T16:08:17Z</time>
      </trkpt>
      <trkpt lat="48.057040" lon="3.089380">
        <time>2017-06-24T16:08:18Z</time>
      </trkpt>
      <trkpt lat="48.057060" lon="3.089410">
        <time>2017-06-24T16:08:19Z</time>
      </trkpt>
      <trkpt lat="48.057070" lon="3.089440">
        <time>2017-06-24T16:08:20Z</time>
      </trkpt>
      <trkpt lat="48.057070" lon="3.089470">
        <time>2017-06-24T16:08:21Z</time>
      </trkpt>
      <trkpt lat="48.057080" lon="3.089530">
        <time>2017-06-24T16:08:22Z</time>
      </trkpt>
      <trkpt lat="48.057090" lon="3.089610">
        <time>2017-06-24T16:08:23Z</time>
      </trkpt>
      <trkpt lat="48.057100" lon="3.089700">
        <time>2017-06-24T16:08:24Z</time>
      </trkpt>
      <trkpt lat="48.057140" lon="3.089790">
        <time>2017-06-24T16:08:25Z</time>
      </trkpt>
      <trkpt lat="48.057190" lon="3.089850">
        <time>2017-06-24T16:08:26Z</time>
      </trkpt>
      <trkpt lat="48.057250" lon="3.089890">
        <time>2017-06-24T16:08:27Z</time>
      </trkpt>
      <trkpt lat="48.057340" lon="3.089910">
        <time>2017-06-24T16:08:28Z</time>
      </trkpt>
      <trkpt lat="48.057430" lon="3.089920">
        <time>2017-06-24T16:08:29Z</time>
      </trkpt>
      <trkpt lat="48.057530" lon="3.089950">
        <time>2017-06-24T16:08:30Z</time>
      </trkpt>
      <trkpt lat="48.057640" lon="3.090020">
        <time>2017-06-24T16:08:31Z</time>
      </trkpt>
      <trkpt lat="48.057740" lon="3.090120">
        <time>2017-06-24T16:08:32Z</time>
      </trkpt>
      <trkpt lat="48.057850" lon="3.090230">
        <time>2017-06-24T16:08:33Z</time>
      </trkpt>
      <trkpt lat="48.057960" lon="3.090360">
        <time>2017-06-24T16:08:34Z</time>
      </trkpt>
      <trkpt lat="48.058050" lon="3.090480">
        <time>2017-06-24T16:08:35Z</time>
      </trkpt>
      <trkpt lat="48.058160" lon="3.090590">
        <time>2017-06-24T16:08:36Z</time>
      </trkpt>
      <trkpt lat="48.058250" lon="3.090700">
        <time>2017-06-24T16:08:37Z</time>
      </trkpt>
      <trkpt lat="48.058350" lon="3.090820">
        <time>2017-06-24T16:08:38Z</time>
      </trkpt>
      <trkpt lat="48.058480" lon="3.090960">
        <time>2017-06-24T16:08:39Z</time>
      </trkpt>
      <trkpt lat="48.058590" lon="3.091100">
        <time>2017-06-24T16:08:40Z</time>
      </trkpt>
      <trkpt lat="48.058720" lon="3.091230">
        <time>2017-06-24T16:08:41Z</time>
      </trkpt>
      <trkpt lat="48.058840" lon="3.091370">
        <time>2017-06-24T16:08:42Z</time>
      </trkpt>
      <trkpt lat="48.058950" lon="3.091500">
        <time>2017-06-24T16:08:43Z</time>
      </trkpt>
      <trkpt lat="48.059070" lon="3.091640">
        <time>2017-06-24T16:08:44Z</time>
      </trkpt>
      <trkpt lat="48.059180" lon="3.091780">
        <time>2017-06-24T16:08:45Z</time>
      </trkpt>
      <trkpt lat="48.059300" lon="3.091910">
        <time>2017-06-24T16:08:46Z</time>
      </trkpt>
      <trkpt lat="48.059410" lon="3.092050">
        <time>2017-06-24T16:08:47Z</time>
      </trkpt>
      <trkpt lat="48.059530" lon="3.092180">
        <time>2017-06-24T16:08:48Z</time>
      </trkpt>
      <trkpt lat="48.059650" lon="3.092320">
        <time>2017-06-24T16:08:49Z</time>
      </trkpt>
      <trkpt lat="48.059780" lon="3.092480">
        <time>2017-06-24T16:08:50Z</time>
      </trkpt>
      <trkpt lat="48.059910" lon="3.092630">
        <time>2017-06-24T16:08:51Z</time>
      </trkpt>
      <trkpt lat="48.060030" lon="3.092780">
        <time>2017-06-24T16:08:52Z</time>
      </trkpt>
      <trkpt lat="48.060140" lon="3.092900">
        <time>2017-06-24T16:08:53Z</time>
      </trkpt>
      <trkpt lat="48.060250" lon="3.093030">
        <time>2017-06-24T16:08:54Z</time>
      </trkpt>
      <trkpt lat="48.060380" lon="3.093180">
        <time>2017-06-24T16:08:55Z</time>
      </trkpt>
      <trkpt lat="48.060480" lon="3.093310">
        <time>2017-06-24T16:08:56Z</time>
      </trkpt>
      <trkpt lat="48.060590" lon="3.093440">
        <time>2017-06-24T16:08:57Z</time>
      </trkpt>
      <trkpt lat="48.060700" lon="3.093580">
        <time>2017-06-24T16:08:58Z</time>
      </trkpt>
      <trkpt lat="48.060780" lon="3.093700">
        <time>2017-06-24T16:08:59Z</time>
      </trkpt>
      <trkpt lat="48.060880" lon="3.093830">
        <time>2017-06-24T16:09:00Z</time>
      </trkpt>
      <trkpt lat="48.060940" lon="3.093930">
        <time>2017-06-24T16:09:01Z</time>
      </trkpt>
      <trkpt lat="48.061000" lon="3.094030">
        <time>2017-06-24T16:09:02Z</time>
      </trkpt>
      <trkpt lat="48.061050" lon="3.094140">
        <time>2017-06-24T16:09:03Z</time>
      </trkpt>
      <trkpt lat="48.061070" lon="3.094240">
        <time>2017-06-24T16:09:04Z</time>
      </trkpt>
      <trkpt lat="48.061080" lon="3.094350">
        <time>2017-06-24T16:09:05Z</time>
      </trkpt>
      <trkpt lat="48.061070" lon="3.094460">
        <time>2017-06-24T16:09:06Z</time>
      </trkpt>
      <trkpt lat="48.061040" lon="3.094550">
        <time>2017-06-24T16:09:07Z</time>
      </trkpt>
      <trkpt lat="48.060980" lon="3.094640">
        <time>2017-06-24T16:09:08Z</time>
      </trkpt>
      <trkpt lat="48.060900" lon="3.094680">
        <time>2017-06-24T16:09:09Z</time>
      </trkpt>
      <trkpt lat="48.060810" lon="3.094700">
        <time>2017-06-24T16:09:10Z</time>
      </trkpt>
      <trkpt lat="48.060720" lon="3.094700">
        <time>2017-06-24T16:09:11Z</time>
      </trkpt>
      <trkpt lat="48.060630" lon="3.094690">
        <time>2017-06-24T16:09:12Z</time>
      </trkpt>
      <trkpt lat="48.060530" lon="3.094700">
        <time>2017-06-24T16:09:13Z</time>
      </trkpt>
      <trkpt lat="48.060430" lon="3.094720">
        <time>2017-06-24T16:09:14Z</time>
      </trkpt>
      <trkpt lat="48.060350" lon="3.094740">
        <time>2017-06-24T16:09:15Z</time>
      </trkpt>
      <trkpt lat="48.060260" lon="3.094790">
        <time>2017-06-24T16:09:16Z</time>
      </trkpt>
      <trkpt lat="48.060190" lon="3.094830">
        <time>2017-06-24T16:09:17Z</time>
      </trkpt>
      <trkpt lat="48.060110" lon="3.094870">
        <time>2017-06-24T16:09:18Z</time>
      </trkpt>
      <trkpt lat="48.060030" lon="3.094910">
        <time>2017-06-24T16:09:19Z</time>
      </trkpt>
      <trkpt lat="48.059970" lon="3.094940">
        <time>2017-06-24T16:09:20Z</time>
      </trkpt>
      <trkpt lat="48.059910" lon="3.094980">
        <time>2017-06-24T16:09:21Z</time>
      </trkpt>
      <trkpt lat="48.059860" lon="3.095000">
        <time>2017-06-24T16:09:22Z</time>
      </trkpt>
      <trkpt lat="48.059820" lon="3.095030">
        <time>2017-06-24T16:09:23Z</time>
      </trkpt>
      <trkpt lat="48.059790" lon="3.095050">
        <time>2017-06-24T16:09:24Z</time>
      </trkpt>
      <trkpt lat="48.059780" lon="3.095060">
        <time>2017-06-24T16:09:25Z</time>
      </trkpt>
      <trkpt lat="48.059770" lon="3.095070">
        <time>2017-06-24T16:09:26Z</time>
      </trkpt>
      <trkpt lat="48.059770" lon="3.095070">
        <time>2017-06-24T16:09:27Z</time>
      </trkpt>
      <trkpt lat="48.059770" lon="3.095070">
        <time>2017-06-24T16:09:28Z</time>
      </trkpt>
      <trkpt lat="48.059770" lon="3.095070">
        <time>2017-06-24T16:09:29Z</time>
      </trkpt>
      <trkpt lat="48.059770" lon="3.095070">
        <time>2017-06-24T16:09:30Z</time>
      </trkpt>
      <trkpt lat="48.059770" lon="3.095070">
        <time>2017-06-24T16:09:31Z</time>
      </trkpt>
      <trkpt lat="48.059770" lon="3.095070">
        <time>2017-06-24T16:09:32Z</time>
      </trkpt>
      <trkpt lat="48.059770" lon="3.095070">
        <time>2017-06-24T16:09:33Z</time>
      </trkpt>
      <trkpt lat="48.059770" lon="3.095070">
        <time>2017-06-24T16:09:34Z</time>
      </trkpt>
      <trkpt lat="48.059770" lon="3.095070">
        <time>2017-06-24T16:09:35Z</time>
      </trkpt>
      <trkpt lat="48.059770" lon="3.095070">
        <time>2017-06-24T16:09:36Z</time>
      </trkpt>
      <trkpt lat="48.059770" lon="3.095070">
        <time>2017-06-24T16:09:37Z</time>
      </trkpt>
      <trkpt lat="48.059770" lon="3.095070">
        <time>2017-06-24T16:09:38Z</time>
      </trkpt>
      <trkpt lat="48.059770" lon="3.095070">
        <time>2017-06-24T16:09:39Z</time>
      </trkpt>
      <trkpt lat="48.059760" lon="3.095070">
        <time>2017-06-24T16:09:40Z</time>
      </trkpt>
      <trkpt lat="48.059750" lon="3.095070">
        <time>2017-06-24T16:09:41Z</time>
      </trkpt>
      <trkpt lat="48.059750" lon="3.095070">
        <time>2017-06-24T16:09:42Z</time>
      </trkpt>
      <trkpt lat="48.059730" lon="3.095100">
        <time>2017-06-24T16:09:43Z</time>
      </trkpt>
      <trkpt lat="48.059690" lon="3.095130">
        <time>2017-06-24T16:09:44Z</time>
      </trkpt>
      <trkpt lat="48.059630" lon="3.095170">
        <time>2017-06-24T16:09:45Z</time>
      </trkpt>
      <trkpt lat="48.059550" lon="3.095230">
        <time>2017-06-24T16:09:46Z</time>
      </trkpt>
      <trkpt lat="48.059470" lon="3.095290">
        <time>2017-06-24T16:09:47Z</time>
      </trkpt>
      <trkpt lat="48.059370" lon="3.095380">
        <time>2017-06-24T16:09:48Z</time>
      </trkpt>
      <trkpt lat="48.059290" lon="3.095460">
        <time>2017-06-24T16:09:49Z</time>
      </trkpt>
      <trkpt lat="48.059180" lon="3.095570">
        <time>2017-06-24T16:09:50Z</time>
      </trkpt>
      <trkpt lat="48.059050" lon="3.095690">
        <time>2017-06-24T16:09:51Z</time>
      </trkpt>
      <trkpt lat="48.058920" lon="3.095800">
        <time>2017-06-24T16:09:52Z</time>
      </trkpt>
      <trkpt lat="48.058770" lon="3.095930">
        <time>2017-06-24T16:09:53Z</time>
      </trkpt>
      <trkpt lat="48.058630" lon="3.096050">
        <time>2017-06-24T16:09:54Z</time>
      </trkpt>
      <trkpt lat="48.058480" lon="3.096170">
        <time>2017-06-24T16:09:55Z</time>
      </trkpt>
      <trkpt lat="48.058320" lon="3.096300">
        <time>2017-06-24T16:09:56Z</time>
      </trkpt>
      <trkpt lat="48.058170" lon="3.096420">
        <time>2017-06-24T16:09:57Z</time>
      </trkpt>
      <trkpt lat="48.058000" lon="3.096550">
        <time>2017-06-24T16:09:58Z</time>
      </trkpt>
      <trkpt lat="48.057820" lon="3.096680">
        <time>2017-06-24T16:09:59Z</time>
      </trkpt>
      <trkpt lat="48.057670" lon="3.096800">
        <time>2017-06-24T16:10:00Z</time>
      </trkpt>
      <trkpt lat="48.057520" lon="3.096910">
        <time>2017-06-24T16:10:01Z</time>
      </trkpt>
      <trkpt lat="48.057350" lon="3.097000">
        <time>2017-06-24T16:10:02Z</time>
      </trkpt>
      <trkpt lat="48.057200" lon="3.097040">
        <time>2017-06-24T16:10:03Z</time>
      </trkpt>
      <trkpt lat="48.057040" lon="3.097050">
        <time>2017-06-24T16:10:04Z</time>
      </trkpt>
      <trkpt lat="48.056890" lon="3.097020">
        <time>2017-06-24T16:10:05Z</time>
      </trkpt>
      <trkpt lat="48.056740" lon="3.096950">
        <time>2017-06-24T16:10:06Z</time>
      </trkpt>
      <trkpt lat="48.056580" lon="3.096840">
        <time>2017-06-24T16:10:07Z</time>
      </trkpt>
      <trkpt lat="48.056440" lon="3.096720">
        <time>2017-06-24T16:10:08Z</time>
      </trkpt>
      <trkpt lat="48.056290" lon="3.096590">
        <time>2017-06-24T16:10:09Z</time>
      </trkpt>
      <trkpt lat="48.056150" lon="3.096470">
        <time>2017-06-24T16:10:10Z</time>
      </trkpt>
      <trkpt lat="48.056010" lon="3.096350">
        <time>2017-06-24T16:10:11Z</time>
      </trkpt>
      <trkpt lat="48.055870" lon="3.096240">
        <time>2017-06-24T16:10:12Z</time>
      </trkpt>
      <trkpt lat="48.055760" lon="3.096120">
        <time>2017-06-24T16:10:13Z</time>
      </trkpt>
      <trkpt lat="48.055650" lon="3.096000">
        <time>2017-06-24T16:10:14Z</time>
      </trkpt>
      <trkpt lat="48.055540" lon="3.095830">
        <time>2017-06-24T16:10:15Z</time>
      </trkpt>
      <trkpt lat="48.055480" lon="3.095670">
        <time>2017-06-24T16:10:16Z</time>
      </trkpt>
      <trkpt lat="48.055430" lon="3.095490">
        <time>2017-06-24T16:10:17Z</time>
      </trkpt>
      <trkpt lat="48.055420" lon="3.095280">
        <time>2017-06-24T16:10:18Z</time>
      </trkpt>
      <trkpt lat="48.055440" lon="3.095090">
        <time>2017-06-24T16:10:19Z</time>
      </trkpt>
      <trkpt lat="48.055490" lon="3.094890">
        <time>2017-06-24T16:10:20Z</time>
      </trkpt>
      <trkpt lat="48.055570" lon="3.094740">
        <time>2017-06-24T16:10:21Z</time>
      </trkpt>
      <trkpt lat="48.055660" lon="3.094620">
        <time>2017-06-24T16:10:22Z</time>
      </trkpt>
      <trkpt lat="48.055790" lon="3.094540">
        <time>2017-06-24T16:10:23Z</time>
      </trkpt>
      <trkpt lat="48.055910" lon="3.094500">
        <time>2017-06-24T16:10:24Z</time>
      </trkpt>
      <trkpt lat="48.056050" lon="3.094510">
        <time>2017-06-24T16:10:25Z</time>
      </trkpt>
      <trkpt lat="48.056170" lon="3.094550">
        <time>2017-06-24T16:10:26Z</time>
      </trkpt>
      <trkpt lat="48.056290" lon="3.094640">
        <time>2017-06-24T16:10:27Z</time>
      </trkpt>
      <trkpt lat="48.056400" lon="3.094760">
        <time>2017-06-24T16:10:28Z</time>
      </trkpt>
      <trkpt lat="48.056460" lon="3.094900">
        <time>2017-06-24T16:10:29Z</time>
      </trkpt>
      <trkpt lat="48.056510" lon="3.095100">
        <time>2017-06-24T16:10:30Z</time>
      </trkpt>
      <trkpt lat="48.056540" lon="3.095320">
        <time>2017-06-24T16:10:31Z</time>
      </trkpt>
      <trkpt lat="48.056530" lon="3.095520">
        <time>2017-06-24T16:10:32Z</time>
      </trkpt>
      <trkpt lat="48.056480" lon="3.095740">
        <time>2017-06-24T16:10:33Z</time>
      </trkpt>
      <trkpt lat="48.056380" lon="3.095960">
        <time>2017-06-24T16:10:34Z</time>
      </trkpt>
      <trkpt lat="48.056280" lon="3.096160">
        <time>2017-06-24T16:10:35Z</time>
      </trkpt>
      <trkpt lat="48.056150" lon="3.096390">
        <time>2017-06-24T16:10:36Z</time>
      </trkpt>
      <trkpt lat="48.056020" lon="3.096600">
        <time>2017-06-24T16:10:37Z</time>
      </trkpt>
      <trkpt lat="48.055870" lon="3.096850">
        <time>2017-06-24T16:10:38Z</time>
      </trkpt>
      <trkpt lat="48.055700" lon="3.097150">
        <time>2017-06-24T16:10:39Z</time>
      </trkpt>
      <trkpt lat="48.055550" lon="3.097420">
        <time>2017-06-24T16:10:40Z</time>
      </trkpt>
      <trkpt lat="48.055390" lon="3.097700">
        <time>2017-06-24T16:10:41Z</time>
      </trkpt>
      <trkpt lat="48.055220" lon="3.097990">
        <time>2017-06-24T16:10:42Z</time>
      </trkpt>
      <trkpt lat="48.055060" lon="3.098280">
        <time>2017-06-24T16:10:43Z</time>
      </trkpt>
      <trkpt lat="48.054870" lon="3.098610">
        <time>2017-06-24T16:10:44Z</time>
      </trkpt>
      <trkpt lat="48.054710" lon="3.098900">
        <time>2017-06-24T16:10:45Z</time>
      </trkpt>
      <trkpt lat="48.054540" lon="3.099230">
        <time>2017-06-24T16:10:46Z</time>
      </trkpt>
      <trkpt lat="48.054360" lon="3.099560">
        <time>2017-06-24T16:10:47Z</time>
      </trkpt>
      <trkpt lat="48.054190" lon="3.099870">
        <time>2017-06-24T16:10:48Z</time>
      </trkpt>
      <trkpt lat="48.054010" lon="3.100200">
        <time>2017-06-24T16:10:49Z</time>
      </trkpt>
      <trkpt lat="48.053820" lon="3.100570">
        <time>2017-06-24T16:10:50Z</time>
      </trkpt>
      <trkpt lat="48.053650" lon="3.100900">
        <time>2017-06-24T16:10:51Z</time>
      </trkpt>
      <trkpt lat="48.053460" lon="3.101280">
        <time>2017-06-24T16:10:52Z</time>
      </trkpt>
      <trkpt lat="48.053290" lon="3.101610">
        <time>2017-06-24T16:10:53Z</time>
      </trkpt>
      <trkpt lat="48.053120" lon="3.101940">
        <time>2017-06-24T16:10:54Z</time>
      </trkpt>
      <trkpt lat="48.052950" lon="3.102290">
        <time>2017-06-24T16:10:55Z</time>
      </trkpt>
      <trkpt lat="48.052800" lon="3.102580">
        <time>2017-06-24T16:10:56Z</time>
      </trkpt>
      <trkpt lat="48.052640" lon="3.102890">
        <time>2017-06-24T16:10:57Z</time>
      </trkpt>
      <trkpt lat="48.052490" lon="3.103190">
        <time>2017-06-24T16:10:58Z</time>
      </trkpt>
      <trkpt lat="48.052340" lon="3.103500">
        <time>2017-06-24T16:10:59Z</time>
      </trkpt>
      <trkpt lat="48.052170" lon="3.103830">
        <time>2017-06-24T16:11:00Z</time>
      </trkpt>
      <trkpt lat="48.052010" lon="3.104140">
        <time>2017-06-24T16:11:01Z</time>
      </trkpt>
      <trkpt lat="48.051840" lon="3.104480">
        <time>2017-06-24T16:11:02Z</time>
      </trkpt>
      <trkpt lat="48.051660" lon="3.104840">
        <time>2017-06-24T16:11:03Z</time>
      </trkpt>
      <trkpt lat="48.051500" lon="3.105160">
        <time>2017-06-24T16:11:04Z</time>
      </trkpt>
      <trkpt lat="48.051320" lon="3.105510">
        <time>2017-06-24T16:11:05Z</time>
      </trkpt>
      <trkpt lat="48.051130" lon="3.105880">
        <time>2017-06-24T16:11:06Z</time>
      </trkpt>
      <trkpt lat="48.050960" lon="3.106210">
        <time>2017-06-24T16:11:07Z</time>
      </trkpt>
      <trkpt lat="48.050770" lon="3.106580">
        <time>2017-06-24T16:11:08Z</time>
      </trkpt>
      <trkpt lat="48.050600" lon="3.106910">
        <time>2017-06-24T16:11:09Z</time>
      </trkpt>
      <trkpt lat="48.050430" lon="3.107250">
        <time>2017-06-24T16:11:10Z</time>
      </trkpt>
      <trkpt lat="48.050240" lon="3.107610">
        <time>2017-06-24T16:11:11Z</time>
      </trkpt>
      <trkpt lat="48.050080" lon="3.107910">
        <time>2017-06-24T16:11:12Z</time>
      </trkpt>
      <trkpt lat="48.049920" lon="3.108210">
        <time>2017-06-24T16:11:13Z</time>
      </trkpt>
      <trkpt lat="48.049750" lon="3.108500">
        <time>2017-06-24T16:11:14Z</time>
      </trkpt>
      <trkpt lat="48.049590" lon="3.108790">
        <time>2017-06-24T16:11:15Z</time>
      </trkpt>
      <trkpt lat="48.049420" lon="3.109090">
        <time>2017-06-24T16:11:16Z</time>
      </trkpt>
      <trkpt lat="48.049270" lon="3.109350">
        <time>2017-06-24T16:11:17Z</time>
      </trkpt>
      <trkpt lat="48.049120" lon="3.109600">
        <time>2017-06-24T16:11:18Z</time>
      </trkpt>
      <trkpt lat="48.048970" lon="3.109850">
        <time>2017-06-24T16:11:19Z</time>
      </trkpt>
      <trkpt lat="48.048830" lon="3.110050">
        <time>2017-06-24T16:11:20Z</time>
      </trkpt>
      <trkpt lat="48.048660" lon="3.110240">
        <time>2017-06-24T16:11:21Z</time>
      </trkpt>
      <trkpt lat="48.048460" lon="3.110420">
        <time>2017-06-24T16:11:22Z</time>
      </trkpt>
      <trkpt lat="48.048280" lon="3.110560">
        <time>2017-06-24T16:11:23Z</time>
      </trkpt>
      <trkpt lat="48.048050" lon="3.110690">
        <time>2017-06-24T16:11:24Z</time>
      </trkpt>
      <trkpt lat="48.047850" lon="3.110780">
        <time>2017-06-24T16:11:25Z</time>
      </trkpt>
      <trkpt lat="48.047640" lon="3.110870">
        <time>2017-06-24T16:11:26Z</time>
      </trkpt>
      <trkpt lat="48.047440" lon="3.110960">
        <time>2017-06-24T16:11:27Z</time>
      </trkpt>
      <trkpt lat="48.047270" lon="3.111070">
        <time>2017-06-24T16:11:28Z</time>
      </trkpt>
      <trkpt lat="48.047100" lon="3.111220">
        <time>2017-06-24T16:11:29Z</time>
      </trkpt>
      <trkpt lat="48.046940" lon="3.111400">
        <time>2017-06-24T16:11:30Z</time>
      </trkpt>
      <trkpt lat="48.046820" lon="3.111620">
        <time>2017-06-24T16:11:31Z</time>
      </trkpt>
      <trkpt lat="48.046720" lon="3.111870">
        <time>2017-06-24T16:11:32Z</time>
      </trkpt>
      <trkpt lat="48.046660" lon="3.112110">
        <time>2017-06-24T16:11:33Z</time>
      </trkpt>
      <trkpt lat="48.046620" lon="3.112380">
        <time>2017-06-24T16:11:34Z</time>
      </trkpt>
      <trkpt lat="48.046620" lon="3.112680">
        <time>2017-06-24T16:11:35Z</time>
      </trkpt>
      <trkpt lat="48.046650" lon="3.112940">
        <time>2017-06-24T16:11:36Z</time>
      </trkpt>
      <trkpt lat="48.046710" lon="3.113200">
        <time>2017-06-24T16:11:37Z</time>
      </trkpt>
      <trkpt lat="48.046790" lon="3.113440">
        <time>2017-06-24T16:11:38Z</time>
      </trkpt>
      <trkpt lat="48.046890" lon="3.113640">
        <time>2017-06-24T16:11:39Z</time>
      </trkpt>
      <trkpt lat="48.047020" lon="3.113820">
        <time>2017-06-24T16:11:40Z</time>
      </trkpt>
      <trkpt lat="48.047150" lon="3.113960">
        <time>2017-06-24T16:11:41Z</time>
      </trkpt>
      <trkpt lat="48.047310" lon="3.114070">
        <time>2017-06-24T16:11:42Z</time>
      </trkpt>
      <trkpt lat="48.047500" lon="3.114150">
        <time>2017-06-24T16:11:43Z</time>
      </trkpt>
      <trkpt lat="48.047670" lon="3.114190">
        <time>2017-06-24T16:11:44Z</time>
      </trkpt>
      <trkpt lat="48.047860" lon="3.114180">
        <time>2017-06-24T16:11:45Z</time>
      </trkpt>
      <trkpt lat="48.048050" lon="3.114120">
        <time>2017-06-24T16:11:46Z</time>
      </trkpt>
      <trkpt lat="48.048230" lon="3.114000">
        <time>2017-06-24T16:11:47Z</time>
      </trkpt>
      <trkpt lat="48.048420" lon="3.113830">
        <time>2017-06-24T16:11:48Z</time>
      </trkpt>
      <trkpt lat="48.048550" lon="3.113650">
        <time>2017-06-24T16:11:49Z</time>
      </trkpt>
      <trkpt lat="48.048680" lon="3.113400">
        <time>2017-06-24T16:11:50Z</time>
      </trkpt>
      <trkpt lat="48.048780" lon="3.113110">
        <time>2017-06-24T16:11:51Z</time>
      </trkpt>
      <trkpt lat="48.048850" lon="3.112830">
        <time>2017-06-24T16:11:52Z</time>
      </trkpt>
      <trkpt lat="48.048920" lon="3.112510">
        <time>2017-06-24T16:11:53Z</time>
      </trkpt>
      <trkpt lat="48.049010" lon="3.112190">
        <time>2017-06-24T16:11:54Z</time>
      </trkpt>
      <trkpt lat="48.049110" lon="3.111920">
        <time>2017-06-24T16:11:55Z</time>
      </trkpt>
      <trkpt lat="48.049250" lon="3.111650">
        <time>2017-06-24T16:11:56Z</time>
      </trkpt>
      <trkpt lat="48.049390" lon="3.111430">
        <time>2017-06-24T16:11:57Z</time>
      </trkpt>
      <trkpt lat="48.049570" lon="3.111230">
        <time>2017-06-24T16:11:58Z</time>
      </trkpt>
      <trkpt lat="48.049770" lon="3.111050">
        <time>2017-06-24T16:11:59Z</time>
      </trkpt>
      <trkpt lat="48.049960" lon="3.110900">
        <time>2017-06-24T16:12:00Z</time>
      </trkpt>
      <trkpt lat="48.050150" lon="3.110740">
        <time>2017-06-24T16:12:01Z</time>
      </trkpt>
      <trkpt lat="48.050360" lon="3.110580">
        <time>2017-06-24T16:12:02Z</time>
      </trkpt>
      <trkpt lat="48.050580" lon="3.110410">
        <time>2017-06-24T16:12:03Z</time>
      </trkpt>
      <trkpt lat="48.050810" lon="3.110250">
        <time>2017-06-24T16:12:04Z</time>
      </trkpt>
      <trkpt lat="48.051020" lon="3.110110">
        <time>2017-06-24T16:12:05Z</time>
      </trkpt>
      <trkpt lat="48.051240" lon="3.109970">
        <time>2017-06-24T16:12:06Z</time>
      </trkpt>
      <trkpt lat="48.051480" lon="3.109810">
        <time>2017-06-24T16:12:07Z</time>
      </trkpt>
      <trkpt lat="48.051690" lon="3.109680">
        <time>2017-06-24T16:12:08Z</time>
      </trkpt>
      <trkpt lat="48.051920" lon="3.109520">
        <time>2017-06-24T16:12:09Z</time>
      </trkpt>
      <trkpt lat="48.052150" lon="3.109370">
        <time>2017-06-24T16:12:10Z</time>
      </trkpt>
      <trkpt lat="48.052360" lon="3.109220">
        <time>2017-06-24T16:12:11Z</time>
      </trkpt>
      <trkpt lat="48.052590" lon="3.109080">
        <time>2017-06-24T16:12:12Z</time>
      </trkpt>
      <trkpt lat="48.052790" lon="3.108950">
        <time>2017-06-24T16:12:13Z</time>
      </trkpt>
      <trkpt lat="48.053020" lon="3.108810">
        <time>2017-06-24T16:12:14Z</time>
      </trkpt>
      <trkpt lat="48.053270" lon="3.108680">
        <time>2017-06-24T16:12:15Z</time>
      </trkpt>
      <trkpt lat="48.053490" lon="3.108570">
        <time>2017-06-24T16:12:16Z</time>
      </trkpt>
      <trkpt lat="48.053740" lon="3.108460">
        <time>2017-06-24T16:12:17Z</time>
      </trkpt>
      <trkpt lat="48.053990" lon="3.108360">
        <time>2017-06-24T16:12:18Z</time>
      </trkpt>
      <trkpt lat="48.054250" lon="3.108250">
        <time>2017-06-24T16:12:19Z</time>
      </trkpt>
      <trkpt lat="48.054540" lon="3.108160">
        <time>2017-06-24T16:12:20Z</time>
      </trkpt>
      <trkpt lat="48.054800" lon="3.108080">
        <time>2017-06-24T16:12:21Z</time>
      </trkpt>
      <trkpt lat="48.055080" lon="3.107990">
        <time>2017-06-24T16:12:22Z</time>
      </trkpt>
      <trkpt lat="48.055390" lon="3.107920">
        <time>2017-06-24T16:12:23Z</time>
      </trkpt>
      <trkpt lat="48.055660" lon="3.107860">
        <time>2017-06-24T16:12:24Z</time>
      </trkpt>
      <trkpt lat="48.055950" lon="3.107790">
        <time>2017-06-24T16:12:25Z</time>
      </trkpt>
      <trkpt lat="48.056250" lon="3.107740">
        <time>2017-06-24T16:12:26Z</time>
      </trkpt>
      <trkpt lat="48.056530" lon="3.107700">
        <time>2017-06-24T16:12:27Z</time>
      </trkpt>
      <trkpt lat="48.056840" lon="3.107660">
        <time>2017-06-24T16:12:28Z</time>
      </trkpt>
      <trkpt lat="48.057120" lon="3.107630">
        <time>2017-06-24T16:12:29Z</time>
      </trkpt>
      <trkpt lat="48.057420" lon="3.107600">
        <time>2017-06-24T16:12:30Z</time>
      </trkpt>
      <trkpt lat="48.057740" lon="3.107580">
        <time>2017-06-24T16:12:31Z</time>
      </trkpt>
      <trkpt lat="48.058030" lon="3.107580">
        <time>2017-06-24T16:12:32Z</time>
      </trkpt>
      <trkpt lat="48.058340" lon="3.107580">
        <time>2017-06-24T16:12:33Z</time>
      </trkpt>
      <trkpt lat="48.058650" lon="3.107590">
        <time>2017-06-24T16:12:34Z</time>
      </trkpt>
      <trkpt lat="48.058960" lon="3.107610">
        <time>2017-06-24T16:12:35Z</time>
      </trkpt>
      <trkpt lat="48.059300" lon="3.107640">
        <time>2017-06-24T16:12:36Z</time>
      </trkpt>
      <trkpt lat="48.059590" lon="3.107670">
        <time>2017-06-24T16:12:37Z</time>
      </trkpt>
      <trkpt lat="48.059900" lon="3.107720">
        <time>2017-06-24T16:12:38Z</time>
      </trkpt>
      <trkpt lat="48.060240" lon="3.107780">
        <time>2017-06-24T16:12:39Z</time>
      </trkpt>
      <trkpt lat="48.060530" lon="3.107840">
        <time>2017-06-24T16:12:40Z</time>
      </trkpt>
      <trkpt lat="48.060850" lon="3.107900">
        <time>2017-06-24T16:12:41Z</time>
      </trkpt>
      <trkpt lat="48.061190" lon="3.107990">
        <time>2017-06-24T16:12:42Z</time>
      </trkpt>
      <trkpt lat="48.061480" lon="3.108070">
        <time>2017-06-24T16:12:43Z</time>
      </trkpt>
      <trkpt lat="48.061810" lon="3.108180">
        <time>2017-06-24T16:12:44Z</time>
      </trkpt>
      <trkpt lat="48.062110" lon="3.108280">
        <time>2017-06-24T16:12:45Z</time>
      </trkpt>
      <trkpt lat="48.062420" lon="3.108400">
        <time>2017-06-24T16:12:46Z</time>
      </trkpt>
      <trkpt lat="48.062750" lon="3.108530">
        <time>2017-06-24T16:12:47Z</time>
      </trkpt>
      <trkpt lat="48.063030" lon="3.108650">
        <time>2017-06-24T16:12:48Z</time>
      </trkpt>
      <trkpt lat="48.063330" lon="3.108780">
        <time>2017-06-24T16:12:49Z</time>
      </trkpt>
      <trkpt lat="48.063630" lon="3.108930">
        <time>2017-06-24T16:12:50Z</time>
      </trkpt>
      <trkpt lat="48.063930" lon="3.109090">
        <time>2017-06-24T16:12:51Z</time>
      </trkpt>
      <trkpt lat="48.064250" lon="3.109270">
        <time>2017-06-24T16:12:52Z</time>
      </trkpt>
      <trkpt lat="48.064530" lon="3.109440">
        <time>2017-06-24T16:12:53Z</time>
      </trkpt>
      <trkpt lat="48.064830" lon="3.109620">
        <time>2017-06-24T16:12:54Z</time>
      </trkpt>
      <trkpt lat="48.065140" lon="3.109810">
        <time>2017-06-24T16:12:55Z</time>
      </trkpt>
      <trkpt lat="48.065420" lon="3.110000">
        <time>2017-06-24T16:12:56Z</time>
      </trkpt>
      <trkpt lat="48.065720" lon="3.110200">
        <time>2017-06-24T16:12:57Z</time>
      </trkpt>
      <trkpt lat="48.066030" lon="3.110430">
        <time>2017-06-24T16:12:58Z</time>
      </trkpt>
      <trkpt lat="48.066290" lon="3.110630">
        <time>2017-06-24T16:12:59Z</time>
      </trkpt>
      <trkpt lat="48.066590" lon="3.110880">
        <time>2017-06-24T16:13:00Z</time>
      </trkpt>
      <trkpt lat="48.066850" lon="3.111090">
        <time>2017-06-24T16:13:01Z</time>
      </trkpt>
      <trkpt lat="48.067120" lon="3.111340">
        <time>2017-06-24T16:13:02Z</time>
      </trkpt>
      <trkpt lat="48.067410" lon="3.111610">
        <time>2017-06-24T16:13:03Z</time>
      </trkpt>
      <trkpt lat="48.067650" lon="3.111870">
        <time>2017-06-24T16:13:04Z</time>
      </trkpt>
      <trkpt lat="48.067910" lon="3.112150">
        <time>2017-06-24T16:13:05Z</time>
      </trkpt>
      <trkpt lat="48.068160" lon="3.112440">
        <time>2017-06-24T16:13:06Z</time>
      </trkpt>
      <trkpt lat="48.068420" lon="3.112730">
        <time>2017-06-24T16:13:07Z</time>
      </trkpt>
      <trkpt lat="48.068690" lon="3.113040">
        <time>2017-06-24T16:13:08Z</time>
      </trkpt>
      <trkpt lat="48.068920" lon="3.113320">
        <time>2017-06-24T16:13:09Z</time>
      </trkpt>
      <trkpt lat="48.069170" lon="3.113620">
        <time>2017-06-24T16:13:10Z</time>
      </trkpt>
      <trkpt lat="48.069420" lon="3.113940">
        <time>2017-06-24T16:13:11Z</time>
      </trkpt>
      <trkpt lat="48.069630" lon="3.114230">
        <time>2017-06-24T16:13:12Z</time>
      </trkpt>
      <trkpt lat="48.069870" lon="3.114550">
        <time>2017-06-24T16:13:13Z</time>
      </trkpt>
      <trkpt lat="48.070120" lon="3.114890">
        <time>2017-06-24T16:13:14Z</time>
      </trkpt>
      <trkpt lat="48.070340" lon="3.115190">
        <time>2017-06-24T16:13:15Z</time>
      </trkpt>
      <trkpt lat="48.070580" lon="3.115540">
        <time>2017-06-24T16:13:16Z</time>
      </trkpt>
      <trkpt lat="48.070800" lon="3.115850">
        <time>2017-06-24T16:13:17Z</time>
      </trkpt>
      <trkpt lat="48.071030" lon="3.116180">
        <time>2017-06-24T16:13:18Z</time>
      </trkpt>
      <trkpt lat="48.071280" lon="3.116530">
        <time>2017-06-24T16:13:19Z</time>
      </trkpt>
      <trkpt lat="48.071500" lon="3.116840">
        <time>2017-06-24T16:13:20Z</time>
      </trkpt>
      <trkpt lat="48.071730" lon="3.117180">
        <time>2017-06-24T16:13:21Z</time>
      </trkpt>
      <trkpt lat="48.071970" lon="3.117510">
        <time>2017-06-24T16:13:22Z</time>
      </trkpt>
      <trkpt lat="48.072200" lon="3.117840">
        <time>2017-06-24T16:13:23Z</time>
      </trkpt>
      <trkpt lat="48.072450" lon="3.118190">
        <time>2017-06-24T16:13:24Z</time>
      </trkpt>
      <trkpt lat="48.072670" lon="3.118490">
        <time>2017-06-24T16:13:25Z</time>
      </trkpt>
      <trkpt lat="48.072900" lon="3.118810">
        <time>2017-06-24T16:13:26Z</time>
      </trkpt>
      <trkpt lat="48.073160" lon="3.119150">
        <time>2017-06-24T16:13:27Z</time>
      </trkpt>
      <trkpt lat="48.073380" lon="3.119450">
        <time>2017-06-24T16:13:28Z</time>
      </trkpt>
      <trkpt lat="48.073620" lon="3.119760">
        <time>2017-06-24T16:13:29Z</time>
      </trkpt>
      <trkpt lat="48.073880" lon="3.120090">
        <time>2017-06-24T16:13:30Z</time>
      </trkpt>
      <trkpt lat="48.074100" lon="3.120380">
        <time>2017-06-24T16:13:31Z</time>
      </trkpt>
      <trkpt lat="48.074360" lon="3.120700">
        <time>2017-06-24T16:13:32Z</time>
      </trkpt>
      <trkpt lat="48.074590" lon="3.120980">
        <time>2017-06-24T16:13:33Z</time>
      </trkpt>
      <trkpt lat="48.074830" lon="3.121290">
        <time>2017-06-24T16:13:34Z</time>
      </trkpt>
      <trkpt lat="48.075090" lon="3.121600">
        <time>2017-06-24T16:13:35Z</time>
      </trkpt>
      <trkpt lat="48.075320" lon="3.121870">
        <time>2017-06-24T16:13:36Z</time>
      </trkpt>
      <trkpt lat="48.075570" lon="3.122160">
        <time>2017-06-24T16:13:37Z</time>
      </trkpt>
      <trkpt lat="48.075820" lon="3.122450">
        <time>2017-06-24T16:13:38Z</time>
      </trkpt>
      <trkpt lat="48.076070" lon="3.122730">
        <time>2017-06-24T16:13:39Z</time>
      </trkpt>
      <trkpt lat="48.076330" lon="3.123030">
        <time>2017-06-24T16:13:40Z</time>
      </trkpt>
      <trkpt lat="48.076570" lon="3.123290">
        <time>2017-06-24T16:13:41Z</time>
      </trkpt>
      <trkpt lat="48.076820" lon="3.123570">
        <time>2017-06-24T16:13:42Z</time>
      </trkpt>
      <trkpt lat="48.077080" lon="3.123870">
        <time>2017-06-24T16:13:43Z</time>
      </trkpt>
      <trkpt lat="48.077320" lon="3.124120">
        <time>2017-06-24T16:13:44Z</time>
      </trkpt>
      <trkpt lat="48.077570" lon="3.124390">
        <time>2017-06-24T16:13:45Z</time>
      </trkpt>
      <trkpt lat="48.077840" lon="3.124680">
        <time>2017-06-24T16:13:46Z</time>
      </trkpt>
      <trkpt lat="48.078070" lon="3.124930">
        <time>2017-06-24T16:13:47Z</time>
      </trkpt>
      <trkpt lat="48.078340" lon="3.125210">
        <time>2017-06-24T16:13:48Z</time>
      </trkpt>
      <trkpt lat="48.078580" lon="3.125450">
        <time>2017-06-24T16:13:49Z</time>
      </trkpt>
      <trkpt lat="48.078840" lon="3.125710">
        <time>2017-06-24T16:13:50Z</time>
      </trkpt>
      <trkpt lat="48.079110" lon="3.125980">
        <time>2017-06-24T16:13:51Z</time>
      </trkpt>
      <trkpt lat="48.079350" lon="3.126210">
        <time>2017-06-24T16:13:52Z</time>
      </trkpt>
      <trkpt lat="48.079610" lon="3.126460">
        <time>2017-06-24T16:13:53Z</time>
      </trkpt>
      <trkpt lat="48.079860" lon="3.126700">
        <time>2017-06-24T16:13:54Z</time>
      </trkpt>
      <trkpt lat="48.080120" lon="3.126960">
        <time>2017-06-24T16:13:55Z</time>
      </trkpt>
      <trkpt lat="48.080400" lon="3.127220">
        <time>2017-06-24T16:13:56Z</time>
      </trkpt>
      <trkpt lat="48.080640" lon="3.127450">
        <time>2017-06-24T16:13:57Z</time>
      </trkpt>
      <trkpt lat="48.080910" lon="3.127700">
        <time>2017-06-24T16:13:58Z</time>
      </trkpt>
      <trkpt lat="48.081200" lon="3.127960">
        <time>2017-06-24T16:13:59Z</time>
      </trkpt>
      <trkpt lat="48.081460" lon="3.128180">
        <time>2017-06-24T16:14:00Z</time>
      </trkpt>
      <trkpt lat="48.081740" lon="3.128420">
        <time>2017-06-24T16:14:01Z</time>
      </trkpt>
      <trkpt lat="48.082030" lon="3.128680">
        <time>2017-06-24T16:14:02Z</time>
      </trkpt>
      <trkpt lat="48.082290" lon="3.128900">
        <time>2017-06-24T16:14:03Z</time>
      </trkpt>
      <trkpt lat="48.082580" lon="3.129150">
        <time>2017-06-24T16:14:04Z</time>
      </trkpt>
      <trkpt lat="48.082840" lon="3.129370">
        <time>2017-06-24T16:14:05Z</time>
      </trkpt>
      <trkpt lat="48.083120" lon="3.129600">
        <time>2017-06-24T16:14:06Z</time>
      </trkpt>
      <trkpt lat="48.083420" lon="3.129840">
        <time>2017-06-24T16:14:07Z</time>
      </trkpt>
      <trkpt lat="48.083690" lon="3.130060">
        <time>2017-06-24T16:14:08Z</time>
      </trkpt>
      <trkpt lat="48.083970" lon="3.130280">
        <time>2017-06-24T16:14:09Z</time>
      </trkpt>
      <trkpt lat="48.084260" lon="3.130510">
        <time>2017-06-24T16:14:10Z</time>
      </trkpt>
      <trkpt lat="48.084560" lon="3.130730">
        <time>2017-06-24T16:14:11Z</time>
      </trkpt>
      <trkpt lat="48.084870" lon="3.130970">
        <time>2017-06-24T16:14:12Z</time>
      </trkpt>
      <trkpt lat="48.085140" lon="3.131180">
        <time>2017-06-24T16:14:13Z</time>
      </trkpt>
      <trkpt lat="48.085440" lon="3.131400">
        <time>2017-06-24T16:14:14Z</time>
      </trkpt>
      <trkpt lat="48.085760" lon="3.131640">
        <time>2017-06-24T16:14:15Z</time>
      </trkpt>
      <trkpt lat="48.086040" lon="3.131840">
        <time>2017-06-24T16:14:16Z</time>
      </trkpt>
      <trkpt lat="48.086340" lon="3.132060">
        <time>2017-06-24T16:14:17Z</time>
      </trkpt>
      <trkpt lat="48.086660" lon="3.132300">
        <time>2017-06-24T16:14:18Z</time>
      </trkpt>
      <trkpt lat="48.086930" lon="3.132510">
        <time>2017-06-24T16:14:19Z</time>
      </trkpt>
      <trkpt lat="48.087230" lon="3.132740">
        <time>2017-06-24T16:14:20Z</time>
      </trkpt>
      <trkpt lat="48.087490" lon="3.132950">
        <time>2017-06-24T16:14:21Z</time>
      </trkpt>
      <trkpt lat="48.087770" lon="3.133170">
        <time>2017-06-24T16:14:22Z</time>
      </trkpt>
      <trkpt lat="48.088070" lon="3.133410">
        <time>2017-06-24T16:14:23Z</time>
      </trkpt>
      <trkpt lat="48.088330" lon="3.133620">
        <time>2017-06-24T16:14:24Z</time>
      </trkpt>
      <trkpt lat="48.088600" lon="3.133850">
        <time>2017-06-24T16:14:25Z</time>
      </trkpt>
      <trkpt lat="48.088880" lon="3.134070">
        <time>2017-06-24T16:14:26Z</time>
      </trkpt>
      <trkpt lat="48.089160" lon="3.134290">
        <time>2017-06-24T16:14:27Z</time>
      </trkpt>
      <trkpt lat="48.089460" lon="3.134520">
        <time>2017-06-24T16:14:28Z</time>
      </trkpt>
      <trkpt lat="48.089720" lon="3.134720">
        <time>2017-06-24T16:14:29Z</time>
      </trkpt>
      <trkpt lat="48.090000" lon="3.134940">
        <time>2017-06-24T16:14:30Z</time>
      </trkpt>
      <trkpt lat="48.090320" lon="3.135170">
        <time>2017-06-24T16:14:31Z</time>
      </trkpt>
      <trkpt lat="48.090590" lon="3.135370">
        <time>2017-06-24T16:14:32Z</time>
      </trkpt>
      <trkpt lat="48.090880" lon="3.135580">
        <time>2017-06-24T16:14:33Z</time>
      </trkpt>
      <trkpt lat="48.091190" lon="3.135800">
        <time>2017-06-24T16:14:34Z</time>
      </trkpt>
      <trkpt lat="48.091470" lon="3.135990">
        <time>2017-06-24T16:14:35Z</time>
      </trkpt>
      <trkpt lat="48.091790" lon="3.136200">
        <time>2017-06-24T16:14:36Z</time>
      </trkpt>
      <trkpt lat="48.092070" lon="3.136380">
        <time>2017-06-24T16:14:37Z</time>
      </trkpt>
      <trkpt lat="48.092370" lon="3.136560">
        <time>2017-06-24T16:14:38Z</time>
      </trkpt>
      <trkpt lat="48.092690" lon="3.136750">
        <time>2017-06-24T16:14:39Z</time>
      </trkpt>
      <trkpt lat="48.092970" lon="3.136900">
        <time>2017-06-24T16:14:40Z</time>
      </trkpt>
      <trkpt lat="48.093270" lon="3.137050">
        <time>2017-06-24T16:14:41Z</time>
      </trkpt>
      <trkpt lat="48.093580" lon="3.137200">
        <time>2017-06-24T16:14:42Z</time>
      </trkpt>
      <trkpt lat="48.093880" lon="3.137330">
        <time>2017-06-24T16:14:43Z</time>
      </trkpt>
      <trkpt lat="48.094200" lon="3.137470">
        <time>2017-06-24T16:14:44Z</time>
      </trkpt>
      <trkpt lat="48.094490" lon="3.137580">
        <time>2017-06-24T16:14:45Z</time>
      </trkpt>
      <trkpt lat="48.094790" lon="3.137680">
        <time>2017-06-24T16:14:46Z</time>
      </trkpt>
      <trkpt lat="48.095120" lon="3.137790">
        <time>2017-06-24T16:14:47Z</time>
      </trkpt>
      <trkpt lat="48.095400" lon="3.137880">
        <time>2017-06-24T16:14:48Z</time>
      </trkpt>
      <trkpt lat="48.095710" lon="3.137970">
        <time>2017-06-24T16:14:49Z</time>
      </trkpt>
      <trkpt lat="48.096050" lon="3.138050">
        <time>2017-06-24T16:14:50Z</time>
      </trkpt>
      <trkpt lat="48.096340" lon="3.138120">
        <time>2017-06-24T16:14:51Z</time>
      </trkpt>
      <trkpt lat="48.096680" lon="3.138180">
        <time>2017-06-24T16:14:52Z</time>
      </trkpt>
      <trkpt lat="48.096980" lon="3.138220">
        <time>2017-06-24T16:14:53Z</time>
      </trkpt>
      <trkpt lat="48.097300" lon="3.138260">
        <time>2017-06-24T16:14:54Z</time>
      </trkpt>
      <trkpt lat="48.097640" lon="3.138310">
        <time>2017-06-24T16:14:55Z</time>
      </trkpt>
      <trkpt lat="48.097940" lon="3.138330">
        <time>2017-06-24T16:14:56Z</time>
      </trkpt>
      <trkpt lat="48.098260" lon="3.138340">
        <time>2017-06-24T16:14:57Z</time>
      </trkpt>
      <trkpt lat="48.098580" lon="3.138350">
        <time>2017-06-24T16:14:58Z</time>
      </trkpt>
      <trkpt lat="48.098890" lon="3.138330">
        <time>2017-06-24T16:14:59Z</time>
      </trkpt>
      <trkpt lat="48.099230" lon="3.138310">
        <time>2017-06-24T16:15:00Z</time>
      </trkpt>
      <trkpt lat="48.099530" lon="3.138280">
        <time>2017-06-24T16:15:01Z</time>
      </trkpt>
      <trkpt lat="48.099840" lon="3.138240">
        <time>2017-06-24T16:15:02Z</time>
      </trkpt>
      <trkpt lat="48.100170" lon="3.138190">
        <time>2017-06-24T16:15:03Z</time>
      </trkpt>
      <trkpt lat="48.100460" lon="3.138140">
        <time>2017-06-24T16:15:04Z</time>
      </trkpt>
      <trkpt lat="48.100760" lon="3.138080">
        <time>2017-06-24T16:15:05Z</time>
      </trkpt>
      <trkpt lat="48.101090" lon="3.138010">
        <time>2017-06-24T16:15:06Z</time>
      </trkpt>
      <trkpt lat="48.101380" lon="3.137930">
        <time>2017-06-24T16:15:07Z</time>
      </trkpt>
      <trkpt lat="48.101700" lon="3.137840">
        <time>2017-06-24T16:15:08Z</time>
      </trkpt>
      <trkpt lat="48.101990" lon="3.137750">
        <time>2017-06-24T16:15:09Z</time>
      </trkpt>
      <trkpt lat="48.102300" lon="3.137650">
        <time>2017-06-24T16:15:10Z</time>
      </trkpt>
      <trkpt lat="48.102620" lon="3.137540">
        <time>2017-06-24T16:15:11Z</time>
      </trkpt>
      <trkpt lat="48.102900" lon="3.137430">
        <time>2017-06-24T16:15:12Z</time>
      </trkpt>
      <trkpt lat="48.103190" lon="3.137310">
        <time>2017-06-24T16:15:13Z</time>
      </trkpt>
      <trkpt lat="48.103490" lon="3.137180">
        <time>2017-06-24T16:15:14Z</time>
      </trkpt>
      <trkpt lat="48.103790" lon="3.137060">
        <time>2017-06-24T16:15:15Z</time>
      </trkpt>
      <trkpt lat="48.104110" lon="3.136910">
        <time>2017-06-24T16:15:16Z</time>
      </trkpt>
      <trkpt lat="48.104400" lon="3.136780">
        <time>2017-06-24T16:15:17Z</time>
      </trkpt>
      <trkpt lat="48.104690" lon="3.136620">
        <time>2017-06-24T16:15:18Z</time>
      </trkpt>
      <trkpt lat="48.105010" lon="3.136450">
        <time>2017-06-24T16:15:19Z</time>
      </trkpt>
      <trkpt lat="48.105300" lon="3.136300">
        <time>2017-06-24T16:15:20Z</time>
      </trkpt>
      <trkpt lat="48.105600" lon="3.136130">
        <time>2017-06-24T16:15:21Z</time>
      </trkpt>
      <trkpt lat="48.105920" lon="3.135950">
        <time>2017-06-24T16:15:22Z</time>
      </trkpt>
      <trkpt lat="48.106200" lon="3.135800">
        <time>2017-06-24T16:15:23Z</time>
      </trkpt>
      <trkpt lat="48.106530" lon="3.135630">
        <time>2017-06-24T16:15:24Z</time>
      </trkpt>
      <trkpt lat="48.106810" lon="3.135490">
        <time>2017-06-24T16:15:25Z</time>
      </trkpt>
      <trkpt lat="48.107120" lon="3.135340">
        <time>2017-06-24T16:15:26Z</time>
      </trkpt>
      <trkpt lat="48.107440" lon="3.135200">
        <time>2017-06-24T16:15:27Z</time>
      </trkpt>
      <trkpt lat="48.107730" lon="3.135080">
        <time>2017-06-24T16:15:28Z</time>
      </trkpt>
      <trkpt lat="48.108040" lon="3.134960">
        <time>2017-06-24T16:15:29Z</time>
      </trkpt>
      <trkpt lat="48.108350" lon="3.134850">
        <time>2017-06-24T16:15:30Z</time>
      </trkpt>
      <trkpt lat="48.108660" lon="3.134750">
        <time>2017-06-24T16:15:31Z</time>
      </trkpt>
      <trkpt lat="48.109000" lon="3.134660">
        <time>2017-06-24T16:15:32Z</time>
      </trkpt>
      <trkpt lat="48.109290" lon="3.134590">
        <time>2017-06-24T16:15:33Z</time>
      </trkpt>
      <trkpt lat="48.109600" lon="3.134520">
        <time>2017-06-24T16:15:34Z</time>
      </trkpt>
      <trkpt lat="48.109940" lon="3.134460">
        <time>2017-06-24T16:15:35Z</time>
      </trkpt>
      <trkpt lat="48.110250" lon="3.134410">
        <time>2017-06-24T16:15:36Z</time>
      </trkpt>
      <trkpt lat="48.110570" lon="3.134370">
        <time>2017-06-24T16:15:37Z</time>
      </trkpt>
      <trkpt lat="48.110910" lon="3.134340">
        <time>2017-06-24T16:15:38Z</time>
      </trkpt>
      <trkpt lat="48.111210" lon="3.134310">
        <time>2017-06-24T16:15:39Z</time>
      </trkpt>
      <trkpt lat="48.111550" lon="3.134290">
        <time>2017-06-24T16:15:40Z</time>
      </trkpt>
      <trkpt lat="48.111860" lon="3.134300">
        <time>2017-06-24T16:15:41Z</time>
      </trkpt>
      <trkpt lat="48.112180" lon="3.134320">
        <time>2017-06-24T16:15:42Z</time>
      </trkpt>
      <trkpt lat="48.112520" lon="3.134330">
        <time>2017-06-24T16:15:43Z</time>
      </trkpt>
      <trkpt lat="48.112810" lon="3.134360">
        <time>2017-06-24T16:15:44Z</time>
      </trkpt>
      <trkpt lat="48.113130" lon="3.134390">
        <time>2017-06-24T16:15:45Z</time>
      </trkpt>
      <trkpt lat="48.113450" lon="3.134430">
        <time>2017-06-24T16:15:46Z</time>
      </trkpt>
      <trkpt lat="48.113770" lon="3.134490">
        <time>2017-06-24T16:15:47Z</time>
      </trkpt>
      <trkpt lat="48.114110" lon="3.134560">
        <time>2017-06-24T16:15:48Z</time>
      </trkpt>
      <trkpt lat="48.114400" lon="3.134630">
        <time>2017-06-24T16:15:49Z</time>
      </trkpt>
      <trkpt lat="48.114720" lon="3.134710">
        <time>2017-06-24T16:15:50Z</time>
      </trkpt>
      <trkpt lat="48.115060" lon="3.134810">
        <time>2017-06-24T16:15:51Z</time>
      </trkpt>
      <trkpt lat="48.115360" lon="3.134900">
        <time>2017-06-24T16:15:52Z</time>
      </trkpt>
      <trkpt lat="48.115670" lon="3.135010">
        <time>2017-06-24T16:15:53Z</time>
      </trkpt>
      <trkpt lat="48.116010" lon="3.135140">
        <time>2017-06-24T16:15:54Z</time>
      </trkpt>
      <trkpt lat="48.116300" lon="3.135270">
        <time>2017-06-24T16:15:55Z</time>
      </trkpt>
      <trkpt lat="48.116630" lon="3.135410">
        <time>2017-06-24T16:15:56Z</time>
      </trkpt>
      <trkpt lat="48.116920" lon="3.135560">
        <time>2017-06-24T16:15:57Z</time>
      </trkpt>
      <trkpt lat="48.117220" lon="3.135720">
        <time>2017-06-24T16:15:58Z</time>
      </trkpt>
      <trkpt lat="48.117550" lon="3.135890">
        <time>2017-06-24T16:15:59Z</time>
      </trkpt>
      <trkpt lat="48.117820" lon="3.136050">
        <time>2017-06-24T16:16:00Z</time>
      </trkpt>
      <trkpt lat="48.118120" lon="3.136240">
        <time>2017-06-24T16:16:01Z</time>
      </trkpt>
      <trkpt lat="48.118410" lon="3.136430">
        <time>2017-06-24T16:16:02Z</time>
      </trkpt>
      <trkpt lat="48.118690" lon="3.136630">
        <time>2017-06-24T16:16:03Z</time>
      </trkpt>
      <trkpt lat="48.119000" lon="3.136850">
        <time>2017-06-24T16:16:04Z</time>
      </trkpt>
      <trkpt lat="48.119260" lon="3.137050">
        <time>2017-06-24T16:16:05Z</time>
      </trkpt>
      <trkpt lat="48.119540" lon="3.137270">
        <time>2017-06-24T16:16:06Z</time>
      </trkpt>
      <trkpt lat="48.119840" lon="3.137510">
        <time>2017-06-24T16:16:07Z</time>
      </trkpt>
      <trkpt lat="48.120090" lon="3.137740">
        <time>2017-06-24T16:16:08Z</time>
      </trkpt>
      <trkpt lat="48.120360" lon="3.137990">
        <time>2017-06-24T16:16:09Z</time>
      </trkpt>
      <trkpt lat="48.120650" lon="3.138260">
        <time>2017-06-24T16:16:10Z</time>
      </trkpt>
      <trkpt lat="48.120890" lon="3.138510">
        <time>2017-06-24T16:16:11Z</time>
      </trkpt>
      <trkpt lat="48.121170" lon="3.138800">
        <time>2017-06-24T16:16:12Z</time>
      </trkpt>
      <trkpt lat="48.121410" lon="3.139070">
        <time>2017-06-24T16:16:13Z</time>
      </trkpt>
      <trkpt lat="48.121670" lon="3.139360">
        <time>2017-06-24T16:16:14Z</time>
      </trkpt>
      <trkpt lat="48.121940" lon="3.139670">
        <time>2017-06-24T16:16:15Z</time>
      </trkpt>
      <trkpt lat="48.122170" lon="3.139960">
        <time>2017-06-24T16:16:16Z</time>
      </trkpt>
      <trkpt lat="48.122420" lon="3.140270">
        <time>2017-06-24T16:16:17Z</time>
      </trkpt>
      <trkpt lat="48.122660" lon="3.140580">
        <time>2017-06-24T16:16:18Z</time>
      </trkpt>
      <trkpt lat="48.122900" lon="3.140890">
        <time>2017-06-24T16:16:19Z</time>
      </trkpt>
      <trkpt lat="48.123160" lon="3.141220">
        <time>2017-06-24T16:16:20Z</time>
      </trkpt>
      <trkpt lat="48.123390" lon="3.141510">
        <time>2017-06-24T16:16:21Z</time>
      </trkpt>
      <trkpt lat="48.123630" lon="3.141820">
        <time>2017-06-24T16:16:22Z</time>
      </trkpt>
      <trkpt lat="48.123880" lon="3.142140">
        <time>2017-06-24T16:16:23Z</time>
      </trkpt>
      <trkpt lat="48.124110" lon="3.142430">
        <time>2017-06-24T16:16:24Z</time>
      </trkpt>
      <trkpt lat="48.124350" lon="3.142730">
        <time>2017-06-24T16:16:25Z</time>
      </trkpt>
      <trkpt lat="48.124620" lon="3.143050">
        <time>2017-06-24T16:16:26Z</time>
      </trkpt>
      <trkpt lat="48.124850" lon="3.143320">
        <time>2017-06-24T16:16:27Z</time>
      </trkpt>
      <trkpt lat="48.125120" lon="3.143620">
        <time>2017-06-24T16:16:28Z</time>
      </trkpt>
      <trkpt lat="48.125350" lon="3.143890">
        <time>2017-06-24T16:16:29Z</time>
      </trkpt>
      <trkpt lat="48.125600" lon="3.144170">
        <time>2017-06-24T16:16:30Z</time>
      </trkpt>
      <trkpt lat="48.125870" lon="3.144470">
        <time>2017-06-24T16:16:31Z</time>
      </trkpt>
      <trkpt lat="48.126100" lon="3.144720">
        <time>2017-06-24T16:16:32Z</time>
      </trkpt>
      <trkpt lat="48.126350" lon="3.144990">
        <time>2017-06-24T16:16:33Z</time>
      </trkpt>
      <trkpt lat="48.126610" lon="3.145250">
        <time>2017-06-24T16:16:34Z</time>
      </trkpt>
      <trkpt lat="48.126860" lon="3.145520">
        <time>2017-06-24T16:16:35Z</time>
      </trkpt>
      <trkpt lat="48.127140" lon="3.145790">
        <time>2017-06-24T16:16:36Z</time>
      </trkpt>
      <trkpt lat="48.127380" lon="3.146030">
        <time>2017-06-24T16:16:37Z</time>
      </trkpt>
      <trkpt lat="48.127630" lon="3.146290">
        <time>2017-06-24T16:16:38Z</time>
      </trkpt>
      <trkpt lat="48.127910" lon="3.146550">
        <time>2017-06-24T16:16:39Z</time>
      </trkpt>
      <trkpt lat="48.128150" lon="3.146770">
        <time>2017-06-24T16:16:40Z</time>
      </trkpt>
      <trkpt lat="48.128410" lon="3.147010">
        <time>2017-06-24T16:16:41Z</time>
      </trkpt>
      <trkpt lat="48.128690" lon="3.147260">
        <time>2017-06-24T16:16:42Z</time>
      </trkpt>
      <trkpt lat="48.128950" lon="3.147480">
        <time>2017-06-24T16:16:43Z</time>
      </trkpt>
      <trkpt lat="48.129230" lon="3.147730">
        <time>2017-06-24T16:16:44Z</time>
      </trkpt>
      <trkpt lat="48.129490" lon="3.147940">
        <time>2017-06-24T16:16:45Z</time>
      </trkpt>
      <trkpt lat="48.129760" lon="3.148170">
        <time>2017-06-24T16:16:46Z</time>
      </trkpt>
      <trkpt lat="48.130050" lon="3.148420">
        <time>2017-06-24T16:16:47Z</time>
      </trkpt>
      <trkpt lat="48.130310" lon="3.148640">
        <time>2017-06-24T16:16:48Z</time>
      </trkpt>
      <trkpt lat="48.130580" lon="3.148880">
        <time>2017-06-24T16:16:49Z</time>
      </trkpt>
      <trkpt lat="48.130860" lon="3.149110">
        <time>2017-06-24T16:16:50Z</time>
      </trkpt>
      <trkpt lat="48.131130" lon="3.149350">
        <time>2017-06-24T16:16:51Z</time>
      </trkpt>
      <trkpt lat="48.131430" lon="3.149610">
        <time>2017-06-24T16:16:52Z</time>
      </trkpt>
      <trkpt lat="48.131680" lon="3.149840">
        <time>2017-06-24T16:16:53Z</time>
      </trkpt>
      <trkpt lat="48.131960" lon="3.150090">
        <time>2017-06-24T16:16:54Z</time>
      </trkpt>
      <trkpt lat="48.132260" lon="3.150360">
        <time>2017-06-24T16:16:55Z</time>
      </trkpt>
      <trkpt lat="48.132520" lon="3.150600">
        <time>2017-06-24T16:16:56Z</time>
      </trkpt>
      <trkpt lat="48.132800" lon="3.150860">
        <time>2017-06-24T16:16:57Z</time>
      </trkpt>
      <trkpt lat="48.133090" lon="3.151130">
        <time>2017-06-24T16:16:58Z</time>
      </trkpt>
      <trkpt lat="48.133350" lon="3.151370">
        <time>2017-06-24T16:16:59Z</time>
      </trkpt>
      <trkpt lat="48.133640" lon="3.151640">
        <time>2017-06-24T16:17:00Z</time>
      </trkpt>
      <trkpt lat="48.133890" lon="3.151880">
        <time>2017-06-24T16:17:01Z</time>
      </trkpt>
      <trkpt lat="48.134170" lon="3.152130">
        <time>2017-06-24T16:17:02Z</time>
      </trkpt>
      <trkpt lat="48.134460" lon="3.152390">
        <time>2017-06-24T16:17:03Z</time>
      </trkpt>
      <trkpt lat="48.134710" lon="3.152630">
        <time>2017-06-24T16:17:04Z</time>
      </trkpt>
      <trkpt lat="48.134990" lon="3.152890">
        <time>2017-06-24T16:17:05Z</time>
      </trkpt>
      <trkpt lat="48.135250" lon="3.153140">
        <time>2017-06-24T16:17:06Z</time>
      </trkpt>
      <trkpt lat="48.135520" lon="3.153390">
        <time>2017-06-24T16:17:07Z</time>
      </trkpt>
      <trkpt lat="48.135800" lon="3.153650">
        <time>2017-06-24T16:17:08Z</time>
      </trkpt>
      <trkpt lat="48.136040" lon="3.153880">
        <time>2017-06-24T16:17:09Z</time>
      </trkpt>
      <trkpt lat="48.136310" lon="3.154120">
        <time>2017-06-24T16:17:10Z</time>
      </trkpt>
      <trkpt lat="48.136580" lon="3.154380">
        <time>2017-06-24T16:17:11Z</time>
      </trkpt>
      <trkpt lat="48.136820" lon="3.154600">
        <time>2017-06-24T16:17:12Z</time>
      </trkpt>
      <trkpt lat="48.137070" lon="3.154840">
        <time>2017-06-24T16:17:13Z</time>
      </trkpt>
      <trkpt lat="48.137340" lon="3.155090">
        <time>2017-06-24T16:17:14Z</time>
      </trkpt>
      <trkpt lat="48.137580" lon="3.155310">
        <time>2017-06-24T16:17:15Z</time>
      </trkpt>
      <trkpt lat="48.137850" lon="3.155560">
        <time>2017-06-24T16:17:16Z</time>
      </trkpt>
      <trkpt lat="48.138090" lon="3.155780">
        <time>2017-06-24T16:17:17Z</time>
      </trkpt>
      <trkpt lat="48.138350" lon="3.156010">
        <time>2017-06-24T16:17:18Z</time>
      </trkpt>
      <trkpt lat="48.138610" lon="3.156250">
        <time>2017-06-24T16:17:19Z</time>
      </trkpt>
      <trkpt lat="48.138850" lon="3.156470">
        <time>2017-06-24T16:17:20Z</time>
      </trkpt>
      <trkpt lat="48.139110" lon="3.156710">
        <time>2017-06-24T16:17:21Z</time>
      </trkpt>
      <trkpt lat="48.139360" lon="3.156940">
        <time>2017-06-24T16:17:22Z</time>
      </trkpt>
      <trkpt lat="48.139620" lon="3.157180">
        <time>2017-06-24T16:17:23Z</time>
      </trkpt>
      <trkpt lat="48.139900" lon="3.157420">
        <time>2017-06-24T16:17:24Z</time>
      </trkpt>
      <trkpt lat="48.140150" lon="3.157640">
        <time>2017-06-24T16:17:25Z</time>
      </trkpt>
      <trkpt lat="48.140410" lon="3.157870">
        <time>2017-06-24T16:17:26Z</time>
      </trkpt>
      <trkpt lat="48.140680" lon="3.158110">
        <time>2017-06-24T16:17:27Z</time>
      </trkpt>
      <trkpt lat="48.140930" lon="3.158330">
        <time>2017-06-24T16:17:28Z</time>
      </trkpt>
      <trkpt lat="48.141190" lon="3.158550">
        <time>2017-06-24T16:17:29Z</time>
      </trkpt>
      <trkpt lat="48.141480" lon="3.158800">
        <time>2017-06-24T16:17:30Z</time>
      </trkpt>
      <trkpt lat="48.141730" lon="3.159020">
        <time>2017-06-24T16:17:31Z</time>
      </trkpt>
      <trkpt lat="48.142010" lon="3.159270">
        <time>2017-06-24T16:17:32Z</time>
      </trkpt>
      <trkpt lat="48.142260" lon="3.159490">
        <time>2017-06-24T16:17:33Z</time>
      </trkpt>
      <trkpt lat="48.142530" lon="3.159730">
        <time>2017-06-24T16:17:34Z</time>
      </trkpt>
      <trkpt lat="48.142820" lon="3.159980">
        <time>2017-06-24T16:17:35Z</time>
      </trkpt>
      <trkpt lat="48.143070" lon="3.160200">
        <time>2017-06-24T16:17:36Z</time>
      </trkpt>
      <trkpt lat="48.143340" lon="3.160430">
        <time>2017-06-24T16:17:37Z</time>
      </trkpt>
      <trkpt lat="48.143610" lon="3.160660">
        <time>2017-06-24T16:17:38Z</time>
      </trkpt>
      <trkpt lat="48.143870" lon="3.160900">
        <time>2017-06-24T16:17:39Z</time>
      </trkpt>
      <trkpt lat="48.144150" lon="3.161160">
        <time>2017-06-24T16:17:40Z</time>
      </trkpt>
      <trkpt lat="48.144380" lon="3.161370">
        <time>2017-06-24T16:17:41Z</time>
      </trkpt>
      <trkpt lat="48.144630" lon="3.161620">
        <time>2017-06-24T16:17:42Z</time>
      </trkpt>
      <trkpt lat="48.144890" lon="3.161860">
        <time>2017-06-24T16:17:43Z</time>
      </trkpt>
      <trkpt lat="48.145110" lon="3.162080">
        <time>2017-06-24T16:17:44Z</time>
      </trkpt>
      <trkpt lat="48.145360" lon="3.162310">
        <time>2017-06-24T16:17:45Z</time>
      </trkpt>
      <trkpt lat="48.145610" lon="3.162560">
        <time>2017-06-24T16:17:46Z</time>
      </trkpt>
      <trkpt lat="48.145820" lon="3.162780">
        <time>2017-06-24T16:17:47Z</time>
      </trkpt>
      <trkpt lat="48.146060" lon="3.163030">
        <time>2017-06-24T16:17:48Z</time>
      </trkpt>
      <trkpt lat="48.146280" lon="3.163250">
        <time>2017-06-24T16:17:49Z</time>
      </trkpt>
      <trkpt lat="48.146510" lon="3.163490">
        <time>2017-06-24T16:17:50Z</time>
      </trkpt>
      <trkpt lat="48.146750" lon="3.163750">
        <time>2017-06-24T16:17:51Z</time>
      </trkpt>
      <trkpt lat="48.146970" lon="3.163990">
        <time>2017-06-24T16:17:52Z</time>
      </trkpt>
      <trkpt lat="48.147220" lon="3.164260">
        <time>2017-06-24T16:17:53Z</time>
      </trkpt>
      <trkpt lat="48.147470" lon="3.164530">
        <time>2017-06-24T16:17:54Z</time>
      </trkpt>
      <trkpt lat="48.147720" lon="3.164800">
        <time>2017-06-24T16:17:55Z</time>
      </trkpt>
      <trkpt lat="48.147990" lon="3.165080">
        <time>2017-06-24T16:17:56Z</time>
      </trkpt>
      <trkpt lat="48.148230" lon="3.165340">
        <time>2017-06-24T16:17:57Z</time>
      </trkpt>
      <trkpt lat="48.148490" lon="3.165610">
        <time>2017-06-24T16:17:58Z</time>
      </trkpt>
      <trkpt lat="48.148750" lon="3.165900">
        <time>2017-06-24T16:17:59Z</time>
      </trkpt>
      <trkpt lat="48.149000" lon="3.166150">
        <time>2017-06-24T16:18:00Z</time>
      </trkpt>
      <trkpt lat="48.149250" lon="3.166410">
        <time>2017-06-24T16:18:01Z</time>
      </trkpt>
      <trkpt lat="48.149520" lon="3.166700">
        <time>2017-06-24T16:18:02Z</time>
      </trkpt>
      <trkpt lat="48.149760" lon="3.166950">
        <time>2017-06-24T16:18:03Z</time>
      </trkpt>
      <trkpt lat="48.150030" lon="3.167230">
        <time>2017-06-24T16:18:04Z</time>
      </trkpt>
      <trkpt lat="48.150280" lon="3.167480">
        <time>2017-06-24T16:18:05Z</time>
      </trkpt>
      <trkpt lat="48.150530" lon="3.167750">
        <time>2017-06-24T16:18:06Z</time>
      </trkpt>
      <trkpt lat="48.150800" lon="3.168030">
        <time>2017-06-24T16:18:07Z</time>
      </trkpt>
      <trkpt lat="48.151050" lon="3.168280">
        <time>2017-06-24T16:18:08Z</time>
      </trkpt>
      <trkpt lat="48.151310" lon="3.168530">
        <time>2017-06-24T16:18:09Z</time>
      </trkpt>
      <trkpt lat="48.151570" lon="3.168780">
        <time>2017-06-24T16:18:10Z</time>
      </trkpt>
      <trkpt lat="48.151840" lon="3.169030">
        <time>2017-06-24T16:18:11Z</time>
      </trkpt>
      <trkpt lat="48.152120" lon="3.169290">
        <time>2017-06-24T16:18:12Z</time>
      </trkpt>
      <trkpt lat="48.152360" lon="3.169510">
        <time>2017-06-24T16:18:13Z</time>
      </trkpt>
      <trkpt lat="48.152630" lon="3.169740">
        <time>2017-06-24T16:18:14Z</time>
      </trkpt>
      <trkpt lat="48.152920" lon="3.169980">
        <time>2017-06-24T16:18:15Z</time>
      </trkpt>
      <trkpt lat="48.153160" lon="3.170200">
        <time>2017-06-24T16:18:16Z</time>
      </trkpt>
      <trkpt lat="48.153430" lon="3.170420">
        <time>2017-06-24T16:18:17Z</time>
      </trkpt>
      <trkpt lat="48.153710" lon="3.170660">
        <time>2017-06-24T16:18:18Z</time>
      </trkpt>
      <trkpt lat="48.153960" lon="3.170860">
        <time>2017-06-24T16:18:19Z</time>
      </trkpt>
      <trkpt lat="48.154250" lon="3.171090">
        <time>2017-06-24T16:18:20Z</time>
      </trkpt>
      <trkpt lat="48.154500" lon="3.171290">
        <time>2017-06-24T16:18:21Z</time>
      </trkpt>
      <trkpt lat="48.154780" lon="3.171490">
        <time>2017-06-24T16:18:22Z</time>
      </trkpt>
      <trkpt lat="48.155070" lon="3.171710">
        <time>2017-06-24T16:18:23Z</time>
      </trkpt>
      <trkpt lat="48.155320" lon="3.171890">
        <time>2017-06-24T16:18:24Z</time>
      </trkpt>
      <trkpt lat="48.155600" lon="3.172080">
        <time>2017-06-24T16:18:25Z</time>
      </trkpt>
      <trkpt lat="48.155870" lon="3.172260">
        <time>2017-06-24T16:18:26Z</time>
      </trkpt>
      <trkpt lat="48.156140" lon="3.172450">
        <time>2017-06-24T16:18:27Z</time>
      </trkpt>
      <trkpt lat="48.156430" lon="3.172640">
        <time>2017-06-24T16:18:28Z</time>
      </trkpt>
      <trkpt lat="48.156690" lon="3.172810">
        <time>2017-06-24T16:18:29Z</time>
      </trkpt>
      <trkpt lat="48.156970" lon="3.172990">
        <time>2017-06-24T16:18:30Z</time>
      </trkpt>
      <trkpt lat="48.157270" lon="3.173180">
        <time>2017-06-24T16:18:31Z</time>
      </trkpt>
      <trkpt lat="48.157530" lon="3.173340">
        <time>2017-06-24T16:18:32Z</time>
      </trkpt>
      <trkpt lat="48.157820" lon="3.173510">
        <time>2017-06-24T16:18:33Z</time>
      </trkpt>
      <trkpt lat="48.158130" lon="3.173680">
        <time>2017-06-24T16:18:34Z</time>
      </trkpt>
      <trkpt lat="48.158400" lon="3.173830">
        <time>2017-06-24T16:18:35Z</time>
      </trkpt>
      <trkpt lat="48.158710" lon="3.174000">
        <time>2017-06-24T16:18:36Z</time>
      </trkpt>
      <trkpt lat="48.158980" lon="3.174140">
        <time>2017-06-24T16:18:37Z</time>
      </trkpt>
      <trkpt lat="48.159270" lon="3.174290">
        <time>2017-06-24T16:18:38Z</time>
      </trkpt>
      <trkpt lat="48.159570" lon="3.174440">
        <time>2017-06-24T16:18:39Z</time>
      </trkpt>
      <trkpt lat="48.159840" lon="3.174570">
        <time>2017-06-24T16:18:40Z</time>
      </trkpt>
      <trkpt lat="48.160120" lon="3.174710">
        <time>2017-06-24T16:18:41Z</time>
      </trkpt>
      <trkpt lat="48.160410" lon="3.174840">
        <time>2017-06-24T16:18:42Z</time>
      </trkpt>
      <trkpt lat="48.160690" lon="3.174970">
        <time>2017-06-24T16:18:43Z</time>
      </trkpt>
      <trkpt lat="48.161000" lon="3.175100">
        <time>2017-06-24T16:18:44Z</time>
      </trkpt>
      <trkpt lat="48.161260" lon="3.175210">
        <time>2017-06-24T16:18:45Z</time>
      </trkpt>
      <trkpt lat="48.161530" lon="3.175320">
        <time>2017-06-24T16:18:46Z</time>
      </trkpt>
      <trkpt lat="48.161800" lon="3.175440">
        <time>2017-06-24T16:18:47Z</time>
      </trkpt>
      <trkpt lat="48.162040" lon="3.175530">
        <time>2017-06-24T16:18:48Z</time>
      </trkpt>
      <trkpt lat="48.162280" lon="3.175630">
        <time>2017-06-24T16:18:49Z</time>
      </trkpt>
      <trkpt lat="48.162530" lon="3.175730">
        <time>2017-06-24T16:18:50Z</time>
      </trkpt>
      <trkpt lat="48.162740" lon="3.175810">
        <time>2017-06-24T16:18:51Z</time>
      </trkpt>
      <trkpt lat="48.162980" lon="3.175890">
        <time>2017-06-24T16:18:52Z</time>
      </trkpt>
      <trkpt lat="48.163180" lon="3.175970">
        <time>2017-06-24T16:18:53Z</time>
      </trkpt>
      <trkpt lat="48.163400" lon="3.176050">
        <time>2017-06-24T16:18:54Z</time>
      </trkpt>
      <trkpt lat="48.163620" lon="3.176130">
        <time>2017-06-24T16:18:55Z</time>
      </trkpt>
      <trkpt lat="48.163820" lon="3.176200">
        <time>2017-06-24T16:18:56Z</time>
      </trkpt>
      <trkpt lat="48.164020" lon="3.176290">
        <time>2017-06-24T16:18:57Z</time>
      </trkpt>
      <trkpt lat="48.164230" lon="3.176380">
        <time>2017-06-24T16:18:58Z</time>
      </trkpt>
      <trkpt lat="48.164430" lon="3.176470">
        <time>2017-06-24T16:18:59Z</time>
      </trkpt>
      <trkpt lat="48.164640" lon="3.176580">
        <time>2017-06-24T16:19:00Z</time>
      </trkpt>
      <trkpt lat="48.164810" lon="3.176680">
        <time>2017-06-24T16:19:01Z</time>
      </trkpt>
      <trkpt lat="48.164980" lon="3.176800">
        <time>2017-06-24T16:19:02Z</time>
      </trkpt>
      <trkpt lat="48.165160" lon="3.176930">
        <time>2017-06-24T16:19:03Z</time>
      </trkpt>
      <trkpt lat="48.165310" lon="3.177040">
        <time>2017-06-24T16:19:04Z</time>
      </trkpt>
      <trkpt lat="48.165460" lon="3.177160">
        <time>2017-06-24T16:19:05Z</time>
      </trkpt>
      <trkpt lat="48.165610" lon="3.177270">
        <time>2017-06-24T16:19:06Z</time>
      </trkpt>
      <trkpt lat="48.165730" lon="3.177350">
        <time>2017-06-24T16:19:07Z</time>
      </trkpt>
      <trkpt lat="48.165850" lon="3.177430">
        <time>2017-06-24T16:19:08Z</time>
      </trkpt>
      <trkpt lat="48.165950" lon="3.177510">
        <time>2017-06-24T16:19:09Z</time>
      </trkpt>
      <trkpt lat="48.166030" lon="3.177610">
        <time>2017-06-24T16:19:10Z</time>
      </trkpt>
      <trkpt lat="48.166090" lon="3.177730">
        <time>2017-06-24T16:19:11Z</time>
      </trkpt>
      <trkpt lat="48.166130" lon="3.177870">
        <time>2017-06-24T16:19:12Z</time>
      </trkpt>
      <trkpt lat="48.166180" lon="3.178010">
        <time>2017-06-24T16:19:13Z</time>
      </trkpt>
      <trkpt lat="48.166240" lon="3.178120">
        <time>2017-06-24T16:19:14Z</time>
      </trkpt>
      <trkpt lat="48.166320" lon="3.178170">
        <time>2017-06-24T16:19:15Z</time>
      </trkpt>
      <trkpt lat="48.166410" lon="3.178180">
        <time>2017-06-24T16:19:16Z</time>
      </trkpt>
      <trkpt lat="48.166490" lon="3.178140">
        <time>2017-06-24T16:19:17Z</time>
      </trkpt>
      <trkpt lat="48.166560" lon="3.178060">
        <time>2017-06-24T16:19:18Z</time>
      </trkpt>
      <trkpt lat="48.166610" lon="3.177950">
        <time>2017-06-24T16:19:19Z</time>
      </trkpt>
      <trkpt lat="48.166630" lon="3.177830">
        <time>2017-06-24T16:19:20Z</time>
      </trkpt>
      <trkpt lat="48.166610" lon="3.177700">
        <time>2017-06-24T16:19:21Z</time>
      </trkpt>
      <trkpt lat="48.166560" lon="3.177560">
        <time>2017-06-24T16:19:22Z</time>
      </trkpt>
      <trkpt lat="48.166480" lon="3.177460">
        <time>2017-06-24T16:19:23Z</time>
      </trkpt>
      <trkpt lat="48.166380" lon="3.177320">
        <time>2017-06-24T16:19:24Z</time>
      </trkpt>
      <trkpt lat="48.166310" lon="3.177180">
        <time>2017-06-24T16:19:25Z</time>
      </trkpt>
      <trkpt lat="48.166250" lon="3.176990">
        <time>2017-06-24T16:19:26Z</time>
      </trkpt>
      <trkpt lat="48.166200" lon="3.176760">
        <time>2017-06-24T16:19:27Z</time>
      </trkpt>
      <trkpt lat="48.166160" lon="3.176550">
        <time>2017-06-24T16:19:28Z</time>
      </trkpt>
      <trkpt lat="48.166110" lon="3.176340">
        <time>2017-06-24T16:19:29Z</time>
      </trkpt>
      <trkpt lat="48.166070" lon="3.176140">
        <time>2017-06-24T16:19:30Z</time>
      </trkpt>
      <trkpt lat="48.166040" lon="3.175960">
        <time>2017-06-24T16:19:31Z</time>
      </trkpt>
      <trkpt lat="48.166020" lon="3.175790">
        <time>2017-06-24T16:19:32Z</time>
      </trkpt>
      <trkpt lat="48.166030" lon="3.175650">
        <time>2017-06-24T16:19:33Z</time>
      </trkpt>
      <trkpt lat="48.166060" lon="3.175500">
        <time>2017-06-24T16:19:34Z</time>
      </trkpt>
      <trkpt lat="48.166090" lon="3.175340">
        <time>2017-06-24T16:19:35Z</time>
      </trkpt>
      <trkpt lat="48.166100" lon="3.175190">
        <time>2017-06-24T16:19:36Z</time>
      </trkpt>
      <trkpt lat="48.166080" lon="3.175060">
        <time>2017-06-24T16:19:37Z</time>
      </trkpt>
      <trkpt lat="48.166020" lon="3.174950">
        <time>2017-06-24T16:19:38Z</time>
      </trkpt>
      <trkpt lat="48.165940" lon="3.174880">
        <time>2017-06-24T16:19:39Z</time>
      </trkpt>
      <trkpt lat="48.165830" lon="3.174840">
        <time>2017-06-24T16:19:40Z</time>
      </trkpt>
      <trkpt lat="48.165730" lon="3.174800">
        <time>2017-06-24T16:19:41Z</time>
      </trkpt>
      <trkpt lat="48.165630" lon="3.174730">
        <time>2017-06-24T16:19:42Z</time>
      </trkpt>
      <trkpt lat="48.165550" lon="3.174600">
        <time>2017-06-24T16:19:43Z</time>
      </trkpt>
      <trkpt lat="48.165490" lon="3.174440">
        <time>2017-06-24T16:19:44Z</time>
      </trkpt>
      <trkpt lat="48.165440" lon="3.174250">
        <time>2017-06-24T16:19:45Z</time>
      </trkpt>
      <trkpt lat="48.165410" lon="3.174050">
        <time>2017-06-24T16:19:46Z</time>
      </trkpt>
      <trkpt lat="48.165380" lon="3.173850">
        <time>2017-06-24T16:19:47Z</time>
      </trkpt>
      <trkpt lat="48.165380" lon="3.173650">
        <time>2017-06-24T16:19:48Z</time>
      </trkpt>
      <trkpt lat="48.165380" lon="3.173480">
        <time>2017-06-24T16:19:49Z</time>
      </trkpt>
      <trkpt lat="48.165400" lon="3.173320">
        <time>2017-06-24T16:19:50Z</time>
      </trkpt>
      <trkpt lat="48.165420" lon="3.173150">
        <time>2017-06-24T16:19:51Z</time>
      </trkpt>
      <trkpt lat="48.165450" lon="3.173020">
        <time>2017-06-24T16:19:52Z</time>
      </trkpt>
      <trkpt lat="48.165490" lon="3.172910">
        <time>2017-06-24T16:19:53Z</time>
      </trkpt>
      <trkpt lat="48.165520" lon="3.172780">
        <time>2017-06-24T16:19:54Z</time>
      </trkpt>
      <trkpt lat="48.165540" lon="3.172680">
        <time>2017-06-24T16:19:55Z</time>
      </trkpt>
      <trkpt lat="48.165530" lon="3.172560">
        <time>2017-06-24T16:19:56Z</time>
      </trkpt>
      <trkpt lat="48.165540" lon="3.172450">
        <time>2017-06-24T16:19:57Z</time>
      </trkpt>
      <trkpt lat="48.165550" lon="3.172340">
        <time>2017-06-24T16:19:58Z</time>
      </trkpt>
      <trkpt lat="48.165560" lon="3.172230">
        <time>2017-06-24T16:19:59Z</time>
      </trkpt>
      <trkpt lat="48.165560" lon="3.172130">
        <time>2017-06-24T16:20:00Z</time>
      </trkpt>
      <trkpt lat="48.165570" lon="3.172030">
        <time>2017-06-24T16:20:01Z</time>
      </trkpt>
      <trkpt lat="48.165570" lon="3.171950">
        <time>2017-06-24T16:20:02Z</time>
      </trkpt>
      <trkpt lat="48.165560" lon="3.171900">
        <time>2017-06-24T16:20:03Z</time>
      </trkpt>
      <trkpt lat="48.165550" lon="3.171850">
        <time>2017-06-24T16:20:04Z</time>
      </trkpt>
      <trkpt lat="48.165540" lon="3.171820">
        <time>2017-06-24T16:20:05Z</time>
      </trkpt>
      <trkpt lat="48.165520" lon="3.171820">
        <time>2017-06-24T16:20:06Z</time>
      </trkpt>
      <trkpt lat="48.165510" lon="3.171790">
        <time>2017-06-24T16:20:07Z</time>
      </trkpt>
      <trkpt lat="48.165500" lon="3.171800">
        <time>2017-06-24T16:20:08Z</time>
      </trkpt>
      <trkpt lat="48.165480" lon="3.171810">
        <time>2017-06-24T16:20:09Z</time>
      </trkpt>
      <trkpt lat="48.165470" lon="3.171830">
        <time>2017-06-24T16:20:10Z</time>
      </trkpt>
      <trkpt lat="48.165440" lon="3.171850">
        <time>2017-06-24T16:20:11Z</time>
      </trkpt>
      <trkpt lat="48.165420" lon="3.171860">
        <time>2017-06-24T16:20:12Z</time>
      </trkpt>
      <trkpt lat="48.165400" lon="3.171850">
        <time>2017-06-24T16:20:13Z</time>
      </trkpt>
      <trkpt lat="48.165390" lon="3.171820">
        <time>2017-06-24T16:20:14Z</time>
      </trkpt>
      <trkpt lat="48.165380" lon="3.171800">
        <time>2017-06-24T16:20:15Z</time>
      </trkpt>
      <trkpt lat="48.165370" lon="3.171770">
        <time>2017-06-24T16:20:16Z</time>
      </trkpt>
      <trkpt lat="48.165370" lon="3.171740">
        <time>2017-06-24T16:20:17Z</time>
      </trkpt>
      <trkpt lat="48.165380" lon="3.171730">
        <time>2017-06-24T16:20:18Z</time>
      </trkpt>
      <trkpt lat="48.165380" lon="3.171730">
        <time>2017-06-24T16:20:19Z</time>
      </trkpt>
      <trkpt lat="48.165380" lon="3.171740">
        <time>2017-06-24T16:20:20Z</time>
      </trkpt>
      <trkpt lat="48.165380" lon="3.171750">
        <time>2017-06-24T16:20:21Z</time>
      </trkpt>
      <trkpt lat="48.165380" lon="3.171760">
        <time>2017-06-24T16:20:22Z</time>
      </trkpt>
      <trkpt lat="48.165390" lon="3.171760">
        <time>2017-06-24T16:20:23Z</time>
      </trkpt>
      <trkpt lat="48.165400" lon="3.171770">
        <time>2017-06-24T16:20:24Z</time>
      </trkpt>
      <trkpt lat="48.165400" lon="3.171780">
        <time>2017-06-24T16:20:25Z</time>
      </trkpt>
      <trkpt lat="48.165400" lon="3.171780">
        <time>2017-06-24T16:20:26Z</time>
      </trkpt>
      <trkpt lat="48.165400" lon="3.171780">
        <time>2017-06-24T16:20:27Z</time>
      </trkpt>
      <trkpt lat="48.165400" lon="3.171780">
        <time>2017-06-24T16:20:28Z</time>
      </trkpt>
      <trkpt lat="48.165400" lon="3.171780">
        <time>2017-06-24T16:20:29Z</time>
      </trkpt>
      <trkpt lat="48.165390" lon="3.171780">
        <time>2017-06-24T16:20:30Z</time>
      </trkpt>
      <trkpt lat="48.165390" lon="3.171780">
        <time>2017-06-24T16:20:31Z</time>
      </trkpt>
      <trkpt lat="48.165390" lon="3.171780">
        <time>2017-06-24T16:20:32Z</time>
      </trkpt>
      <trkpt lat="48.165390" lon="3.171780">
        <time>2017-06-24T16:20:33Z</time>
      </trkpt>
      <trkpt lat="48.165390" lon="3.171780">
        <time>2017-06-24T16:20:34Z</time>
      </trkpt>
      <trkpt lat="48.165390" lon="3.171780">
        <time>2017-06-24T16:20:35Z</time>
      </trkpt>
      <trkpt lat="48.165390" lon="3.171780">
        <time>2017-06-24T16:20:36Z</time>
      </trkpt>
      <trkpt lat="48.165390" lon="3.171780">
        <time>2017-06-24T16:20:37Z</time>
      </trkpt>
      <trkpt lat="48.165390" lon="3.171780">
        <time>2017-06-24T16:20:38Z</time>
      </trkpt>
      <trkpt lat="48.165390" lon="3.171780">
        <time>2017-06-24T16:20:39Z</time>
      </trkpt>
      <trkpt lat="48.165390" lon="3.171780">
        <time>2017-06-24T16:20:40Z</time>
      </trkpt>
      <trkpt lat="48.165390" lon="3.171780">
        <time>2017-06-24T16:20:41Z</time>
      </trkpt>
      <trkpt lat="48.165390" lon="3.171780">
        <time>2017-06-24T16:20:42Z</time>
      </trkpt>
      <trkpt lat="48.165390" lon="3.171780">
        <time>2017-06-24T16:20:43Z</time>
      </trkpt>
      <trkpt lat="48.165390" lon="3.171780">
        <time>2017-06-24T16:20:44Z</time>
      </trkpt>
      <trkpt lat="48.165390" lon="3.171780">
        <time>2017-06-24T16:20:45Z</time>
      </trkpt>
      <trkpt lat="48.165390" lon="3.171780">
        <time>2017-06-24T16:20:46Z</time>
      </trkpt>
      <trkpt lat="48.165390" lon="3.171780">
        <time>2017-06-24T16:20:47Z</time>
      </trkpt>
      <trkpt lat="48.165390" lon="3.171780">
        <time>2017-06-24T16:20:48Z</time>
      </trkpt>
      <trkpt lat="48.165390" lon="3.171780">
        <time>2017-06-24T16:20:49Z</time>
      </trkpt>
      <trkpt lat="48.165390" lon="3.171780">
        <time>2017-06-24T16:20:50Z</time>
      </trkpt>
      <trkpt lat="48.165390" lon="3.171780">
        <time>2017-06-24T16:20:51Z</time>
      </trkpt>
      <trkpt lat="48.165390" lon="3.171780">
        <time>2017-06-24T16:20:52Z</time>
      </trkpt>
      <trkpt lat="48.165390" lon="3.171780">
        <time>2017-06-24T16:20:53Z</time>
      </trkpt>
      <trkpt lat="48.165390" lon="3.171780">
        <time>2017-06-24T16:20:54Z</time>
      </trkpt>
      <trkpt lat="48.165390" lon="3.171780">
        <time>2017-06-24T16:20:55Z</time>
      </trkpt>
      <trkpt lat="48.165390" lon="3.171780">
        <time>2017-06-24T16:20:56Z</time>
      </trkpt>
      <trkpt lat="48.165390" lon="3.171780">
        <time>2017-06-24T16:20:57Z</time>
      </trkpt>
      <trkpt lat="48.165390" lon="3.171780">
        <time>2017-06-24T16:20:58Z</time>
      </trkpt>
      <trkpt lat="48.165390" lon="3.171780">
        <time>2017-06-24T16:20:59Z</time>
      </trkpt>
      <trkpt lat="48.165390" lon="3.171780">
        <time>2017-06-24T16:21:00Z</time>
      </trkpt>
      <trkpt lat="48.165390" lon="3.171780">
        <time>2017-06-24T16:21:01Z</time>
      </trkpt>
      <trkpt lat="48.165390" lon="3.171780">
        <time>2017-06-24T16:21:02Z</time>
      </trkpt>
      <trkpt lat="48.165390" lon="3.171780">
        <time>2017-06-24T16:21:03Z</time>
      </trkpt>
      <trkpt lat="48.165390" lon="3.171780">
        <time>2017-06-24T16:21:04Z</time>
      </trkpt>
      <trkpt lat="48.165390" lon="3.171780">
        <time>2017-06-24T16:21:05Z</time>
      </trkpt>
      <trkpt lat="48.165390" lon="3.171780">
        <time>2017-06-24T16:21:06Z</time>
      </trkpt>
      <trkpt lat="48.165390" lon="3.171780">
        <time>2017-06-24T16:21:07Z</time>
      </trkpt>
      <trkpt lat="48.165390" lon="3.171780">
        <time>2017-06-24T16:21:08Z</time>
      </trkpt>
      <trkpt lat="48.165390" lon="3.171780">
        <time>2017-06-24T16:21:09Z</time>
      </trkpt>
      <trkpt lat="48.165390" lon="3.171780">
        <time>2017-06-24T16:21:10Z</time>
      </trkpt>
      <trkpt lat="48.165390" lon="3.171780">
        <time>2017-06-24T16:21:11Z</time>
      </trkpt>
      <trkpt lat="48.165390" lon="3.171780">
        <time>2017-06-24T16:21:12Z</time>
      </trkpt>
      <trkpt lat="48.165390" lon="3.171780">
        <time>2017-06-24T16:21:13Z</time>
      </trkpt>
      <trkpt lat="48.165390" lon="3.171780">
        <time>2017-06-24T16:21:14Z</time>
      </trkpt>
      <trkpt lat="48.165390" lon="3.171780">
        <time>2017-06-24T16:21:15Z</time>
      </trkpt>
      <trkpt lat="48.165390" lon="3.171780">
        <time>2017-06-24T16:21:16Z</time>
      </trkpt>
      <trkpt lat="48.165390" lon="3.171780">
        <time>2017-06-24T16:21:17Z</time>
      </trkpt>
      <trkpt lat="48.165390" lon="3.171780">
        <time>2017-06-24T16:21:18Z</time>
      </trkpt>
      <trkpt lat="48.165390" lon="3.171780">
        <time>2017-06-24T16:21:19Z</time>
      </trkpt>
      <trkpt lat="48.165390" lon="3.171780">
        <time>2017-06-24T16:21:20Z</time>
      </trkpt>
      <trkpt lat="48.165390" lon="3.171780">
        <time>2017-06-24T16:21:21Z</time>
      </trkpt>
      <trkpt lat="48.165390" lon="3.171780">
        <time>2017-06-24T16:21:22Z</time>
      </trkpt>
      <trkpt lat="48.165390" lon="3.171780">
        <time>2017-06-24T16:21:23Z</time>
      </trkpt>
      <trkpt lat="48.165390" lon="3.171780">
        <time>2017-06-24T16:21:24Z</time>
      </trkpt>
      <trkpt lat="48.165390" lon="3.171780">
        <time>2017-06-24T16:21:25Z</time>
      </trkpt>
      <trkpt lat="48.165390" lon="3.171780">
        <time>2017-06-24T16:21:26Z</time>
      </trkpt>
      <trkpt lat="48.165390" lon="3.171780">
        <time>2017-06-24T16:21:27Z</time>
      </trkpt>
      <trkpt lat="48.165390" lon="3.171780">
        <time>2017-06-24T16:21:28Z</time>
      </trkpt>
      <trkpt lat="48.165390" lon="3.171780">
        <time>2017-06-24T16:21:29Z</time>
      </trkpt>
      <trkpt lat="48.165390" lon="3.171780">
        <time>2017-06-24T16:21:30Z</time>
      </trkpt>
      <trkpt lat="48.165390" lon="3.171780">
        <time>2017-06-24T16:21:31Z</time>
      </trkpt>
      <trkpt lat="48.165390" lon="3.171780">
        <time>2017-06-24T16:21:32Z</time>
      </trkpt>
      <trkpt lat="48.165390" lon="3.171780">
        <time>2017-06-24T16:21:33Z</time>
      </trkpt>
      <trkpt lat="48.165390" lon="3.171780">
        <time>2017-06-24T16:21:34Z</time>
      </trkpt>
      <trkpt lat="48.165390" lon="3.171780">
        <time>2017-06-24T16:21:35Z</time>
      </trkpt>
      <trkpt lat="48.165390" lon="3.171780">
        <time>2017-06-24T16:21:36Z</time>
      </trkpt>
      <trkpt lat="48.165390" lon="3.171780">
        <time>2017-06-24T16:21:37Z</time>
      </trkpt>
      <trkpt lat="48.165390" lon="3.171780">
        <time>2017-06-24T16:21:38Z</time>
      </trkpt>
      <trkpt lat="48.165390" lon="3.171780">
        <time>2017-06-24T16:21:39Z</time>
      </trkpt>
      <trkpt lat="48.165390" lon="3.171780">
        <time>2017-06-24T16:21:40Z</time>
      </trkpt>
      <trkpt lat="48.165390" lon="3.171780">
        <time>2017-06-24T16:21:41Z</time>
      </trkpt>
      <trkpt lat="48.165390" lon="3.171780">
        <time>2017-06-24T16:21:42Z</time>
      </trkpt>
      <trkpt lat="48.165390" lon="3.171780">
        <time>2017-06-24T16:21:43Z</time>
      </trkpt>
      <trkpt lat="48.165390" lon="3.171780">
        <time>2017-06-24T16:21:44Z</time>
      </trkpt>
      <trkpt lat="48.165390" lon="3.171780">
        <time>2017-06-24T16:21:45Z</time>
      </trkpt>
      <trkpt lat="48.165390" lon="3.171780">
        <time>2017-06-24T16:21:46Z</time>
      </trkpt>
      <trkpt lat="48.165390" lon="3.171780">
        <time>2017-06-24T16:21:47Z</time>
      </trkpt>
      <trkpt lat="48.165390" lon="3.171780">
        <time>2017-06-24T16:21:48Z</time>
      </trkpt>
      <trkpt lat="48.165390" lon="3.171780">
        <time>2017-06-24T16:21:49Z</time>
      </trkpt>
      <trkpt lat="48.165390" lon="3.171780">
        <time>2017-06-24T16:21:50Z</time>
      </trkpt>
      <trkpt lat="48.165390" lon="3.171780">
        <time>2017-06-24T16:21:51Z</time>
      </trkpt>
      <trkpt lat="48.165390" lon="3.171780">
        <time>2017-06-24T16:21:52Z</time>
      </trkpt>
      <trkpt lat="48.165370" lon="3.171730">
        <time>2017-06-24T16:27:53Z</time>
      </trkpt>
      <trkpt lat="48.165350" lon="3.171810">
        <time>2017-06-24T16:27:54Z</time>
      </trkpt>
      <trkpt lat="48.165390" lon="3.171820">
        <time>2017-06-24T16:27:56Z</time>
      </trkpt>
      <trkpt lat="48.165390" lon="3.171820">
        <time>2017-06-24T16:27:57Z</time>
      </trkpt>
      <trkpt lat="48.165390" lon="3.171820">
        <time>2017-06-24T16:27:58Z</time>
      </trkpt>
      <trkpt lat="48.165390" lon="3.171820">
        <time>2017-06-24T16:27:59Z</time>
      </trkpt>
      <trkpt lat="48.165390" lon="3.171820">
        <time>2017-06-24T16:28:00Z</time>
      </trkpt>
      <trkpt lat="48.165390" lon="3.171820">
        <time>2017-06-24T16:28:01Z</time>
      </trkpt>
      <trkpt lat="48.165390" lon="3.171820">
        <time>2017-06-24T16:28:02Z</time>
      </trkpt>
      <trkpt lat="48.165390" lon="3.171820">
        <time>2017-06-24T16:28:03Z</time>
      </trkpt>
      <trkpt lat="48.165390" lon="3.171820">
        <time>2017-06-24T16:28:04Z</time>
      </trkpt>
      <trkpt lat="48.165390" lon="3.171820">
        <time>2017-06-24T16:28:05Z</time>
      </trkpt>
      <trkpt lat="48.165390" lon="3.171820">
        <time>2017-06-24T16:28:06Z</time>
      </trkpt>
      <trkpt lat="48.165390" lon="3.171820">
        <time>2017-06-24T16:28:07Z</time>
      </trkpt>
      <trkpt lat="48.165390" lon="3.171820">
        <time>2017-06-24T16:28:08Z</time>
      </trkpt>
      <trkpt lat="48.165390" lon="3.171820">
        <time>2017-06-24T16:28:09Z</time>
      </trkpt>
      <trkpt lat="48.165390" lon="3.171820">
        <time>2017-06-24T16:28:10Z</time>
      </trkpt>
      <trkpt lat="48.165390" lon="3.171820">
        <time>2017-06-24T16:28:11Z</time>
      </trkpt>
      <trkpt lat="48.165390" lon="3.171820">
        <time>2017-06-24T16:28:12Z</time>
      </trkpt>
      <trkpt lat="48.165390" lon="3.171820">
        <time>2017-06-24T16:28:13Z</time>
      </trkpt>
      <trkpt lat="48.165390" lon="3.171820">
        <time>2017-06-24T16:28:14Z</time>
      </trkpt>
      <trkpt lat="48.165390" lon="3.171820">
        <time>2017-06-24T16:28:15Z</time>
      </trkpt>
      <trkpt lat="48.165390" lon="3.171820">
        <time>2017-06-24T16:28:16Z</time>
      </trkpt>
      <trkpt lat="48.165390" lon="3.171820">
        <time>2017-06-24T16:28:17Z</time>
      </trkpt>
      <trkpt lat="48.165390" lon="3.171820">
        <time>2017-06-24T16:28:18Z</time>
      </trkpt>
      <trkpt lat="48.165390" lon="3.171820">
        <time>2017-06-24T16:28:19Z</time>
      </trkpt>
      <trkpt lat="48.165390" lon="3.171820">
        <time>2017-06-24T16:28:20Z</time>
      </trkpt>
      <trkpt lat="48.165390" lon="3.171820">
        <time>2017-06-24T16:28:21Z</time>
      </trkpt>
      <trkpt lat="48.165390" lon="3.171820">
        <time>2017-06-24T16:28:22Z</time>
      </trkpt>
      <trkpt lat="48.165390" lon="3.171820">
        <time>2017-06-24T16:28:23Z</time>
      </trkpt>
      <trkpt lat="48.165390" lon="3.171820">
        <time>2017-06-24T16:28:24Z</time>
      </trkpt>
      <trkpt lat="48.165390" lon="3.171820">
        <time>2017-06-24T16:28:25Z</time>
      </trkpt>
      <trkpt lat="48.165390" lon="3.171820">
        <time>2017-06-24T16:28:26Z</time>
      </trkpt>
      <trkpt lat="48.165390" lon="3.171820">
        <time>2017-06-24T16:28:27Z</time>
      </trkpt>
      <trkpt lat="48.165390" lon="3.171820">
        <time>2017-06-24T16:28:28Z</time>
      </trkpt>
      <trkpt lat="48.165390" lon="3.171820">
        <time>2017-06-24T16:28:29Z</time>
      </trkpt>
      <trkpt lat="48.165390" lon="3.171820">
        <time>2017-06-24T16:28:30Z</time>
      </trkpt>
      <trkpt lat="48.165390" lon="3.171820">
        <time>2017-06-24T16:28:31Z</time>
      </trkpt>
      <trkpt lat="48.165390" lon="3.171820">
        <time>2017-06-24T16:28:32Z</time>
      </trkpt>
      <trkpt lat="48.165390" lon="3.171820">
        <time>2017-06-24T16:28:33Z</time>
      </trkpt>
      <trkpt lat="48.165390" lon="3.171820">
        <time>2017-06-24T16:28:34Z</time>
      </trkpt>
      <trkpt lat="48.165390" lon="3.171820">
        <time>2017-06-24T16:28:35Z</time>
      </trkpt>
      <trkpt lat="48.165390" lon="3.171820">
        <time>2017-06-24T16:28:36Z</time>
      </trkpt>
      <trkpt lat="48.165390" lon="3.171820">
        <time>2017-06-24T16:28:37Z</time>
      </trkpt>
      <trkpt lat="48.165390" lon="3.171820">
        <time>2017-06-24T16:28:38Z</time>
      </trkpt>
      <trkpt lat="48.165390" lon="3.171820">
        <time>2017-06-24T16:28:39Z</time>
      </trkpt>
      <trkpt lat="48.165390" lon="3.171820">
        <time>2017-06-24T16:28:40Z</time>
      </trkpt>
      <trkpt lat="48.165390" lon="3.171820">
        <time>2017-06-24T16:28:41Z</time>
      </trkpt>
      <trkpt lat="48.165390" lon="3.171820">
        <time>2017-06-24T16:28:42Z</time>
      </trkpt>
      <trkpt lat="48.165390" lon="3.171820">
        <time>2017-06-24T16:28:43Z</time>
      </trkpt>
      <trkpt lat="48.165390" lon="3.171820">
        <time>2017-06-24T16:28:44Z</time>
      </trkpt>
      <trkpt lat="48.165390" lon="3.171820">
        <time>2017-06-24T16:28:45Z</time>
      </trkpt>
      <trkpt lat="48.165390" lon="3.171820">
        <time>2017-06-24T16:28:46Z</time>
      </trkpt>
      <trkpt lat="48.165390" lon="3.171820">
        <time>2017-06-24T16:28:47Z</time>
      </trkpt>
      <trkpt lat="48.165390" lon="3.171820">
        <time>2017-06-24T16:28:48Z</time>
      </trkpt>
      <trkpt lat="48.165390" lon="3.171820">
        <time>2017-06-24T16:28:49Z</time>
      </trkpt>
      <trkpt lat="48.165390" lon="3.171820">
        <time>2017-06-24T16:28:50Z</time>
      </trkpt>
      <trkpt lat="48.165390" lon="3.171820">
        <time>2017-06-24T16:28:51Z</time>
      </trkpt>
      <trkpt lat="48.165390" lon="3.171820">
        <time>2017-06-24T16:28:52Z</time>
      </trkpt>
      <trkpt lat="48.165390" lon="3.171820">
        <time>2017-06-24T16:28:53Z</time>
      </trkpt>
      <trkpt lat="48.165390" lon="3.171820">
        <time>2017-06-24T16:28:54Z</time>
      </trkpt>
      <trkpt lat="48.165390" lon="3.171820">
        <time>2017-06-24T16:28:55Z</time>
      </trkpt>
      <trkpt lat="48.165390" lon="3.171820">
        <time>2017-06-24T16:28:56Z</time>
      </trkpt>
      <trkpt lat="48.165390" lon="3.171820">
        <time>2017-06-24T16:28:57Z</time>
      </trkpt>
      <trkpt lat="48.165390" lon="3.171820">
        <time>2017-06-24T16:28:58Z</time>
      </trkpt>
      <trkpt lat="48.165390" lon="3.171820">
        <time>2017-06-24T16:28:59Z</time>
      </trkpt>
      <trkpt lat="48.165390" lon="3.171820">
        <time>2017-06-24T16:29:00Z</time>
      </trkpt>
      <trkpt lat="48.165390" lon="3.171820">
        <time>2017-06-24T16:29:01Z</time>
      </trkpt>
      <trkpt lat="48.165390" lon="3.171820">
        <time>2017-06-24T16:29:02Z</time>
      </trkpt>
      <trkpt lat="48.165390" lon="3.171820">
        <time>2017-06-24T16:29:03Z</time>
      </trkpt>
      <trkpt lat="48.165390" lon="3.171820">
        <time>2017-06-24T16:29:04Z</time>
      </trkpt>
      <trkpt lat="48.165390" lon="3.171820">
        <time>2017-06-24T16:29:05Z</time>
      </trkpt>
      <trkpt lat="48.165390" lon="3.171820">
        <time>2017-06-24T16:29:06Z</time>
      </trkpt>
      <trkpt lat="48.165390" lon="3.171820">
        <time>2017-06-24T16:29:07Z</time>
      </trkpt>
      <trkpt lat="48.165390" lon="3.171820">
        <time>2017-06-24T16:29:08Z</time>
      </trkpt>
      <trkpt lat="48.165390" lon="3.171820">
        <time>2017-06-24T16:29:09Z</time>
      </trkpt>
      <trkpt lat="48.165390" lon="3.171820">
        <time>2017-06-24T16:29:10Z</time>
      </trkpt>
      <trkpt lat="48.165390" lon="3.171820">
        <time>2017-06-24T16:29:11Z</time>
      </trkpt>
      <trkpt lat="48.165390" lon="3.171820">
        <time>2017-06-24T16:29:12Z</time>
      </trkpt>
      <trkpt lat="48.165390" lon="3.171820">
        <time>2017-06-24T16:29:13Z</time>
      </trkpt>
      <trkpt lat="48.165390" lon="3.171820">
        <time>2017-06-24T16:29:14Z</time>
      </trkpt>
      <trkpt lat="48.165390" lon="3.171820">
        <time>2017-06-24T16:29:15Z</time>
      </trkpt>
      <trkpt lat="48.165390" lon="3.171820">
        <time>2017-06-24T16:29:16Z</time>
      </trkpt>
      <trkpt lat="48.165390" lon="3.171820">
        <time>2017-06-24T16:29:17Z</time>
      </trkpt>
      <trkpt lat="48.165390" lon="3.171820">
        <time>2017-06-24T16:29:18Z</time>
      </trkpt>
      <trkpt lat="48.165390" lon="3.171820">
        <time>2017-06-24T16:29:19Z</time>
      </trkpt>
      <trkpt lat="48.165390" lon="3.171820">
        <time>2017-06-24T16:29:20Z</time>
      </trkpt>
      <trkpt lat="48.165390" lon="3.171820">
        <time>2017-06-24T16:29:21Z</time>
      </trkpt>
      <trkpt lat="48.165390" lon="3.171820">
        <time>2017-06-24T16:29:22Z</time>
      </trkpt>
      <trkpt lat="48.165390" lon="3.171820">
        <time>2017-06-24T16:29:23Z</time>
      </trkpt>
      <trkpt lat="48.165390" lon="3.171820">
        <time>2017-06-24T16:29:24Z</time>
      </trkpt>
      <trkpt lat="48.165390" lon="3.171820">
        <time>2017-06-24T16:29:25Z</time>
      </trkpt>
      <trkpt lat="48.165390" lon="3.171820">
        <time>2017-06-24T16:29:26Z</time>
      </trkpt>
      <trkpt lat="48.165390" lon="3.171820">
        <time>2017-06-24T16:29:27Z</time>
      </trkpt>
      <trkpt lat="48.165390" lon="3.171820">
        <time>2017-06-24T16:29:28Z</time>
      </trkpt>
      <trkpt lat="48.165390" lon="3.171820">
        <time>2017-06-24T16:29:29Z</time>
      </trkpt>
      <trkpt lat="48.165390" lon="3.171820">
        <time>2017-06-24T16:29:30Z</time>
      </trkpt>
      <trkpt lat="48.165390" lon="3.171820">
        <time>2017-06-24T16:29:31Z</time>
      </trkpt>
      <trkpt lat="48.165390" lon="3.171820">
        <time>2017-06-24T16:29:32Z</time>
      </trkpt>
      <trkpt lat="48.165390" lon="3.171820">
        <time>2017-06-24T16:29:33Z</time>
      </trkpt>
      <trkpt lat="48.165390" lon="3.171820">
        <time>2017-06-24T16:29:34Z</time>
      </trkpt>
      <trkpt lat="48.165390" lon="3.171820">
        <time>2017-06-24T16:29:35Z</time>
      </trkpt>
      <trkpt lat="48.165390" lon="3.171820">
        <time>2017-06-24T16:29:36Z</time>
      </trkpt>
      <trkpt lat="48.165390" lon="3.171820">
        <time>2017-06-24T16:29:37Z</time>
      </trkpt>
      <trkpt lat="48.165390" lon="3.171820">
        <time>2017-06-24T16:29:38Z</time>
      </trkpt>
      <trkpt lat="48.165390" lon="3.171820">
        <time>2017-06-24T16:29:39Z</time>
      </trkpt>
      <trkpt lat="48.165390" lon="3.171820">
        <time>2017-06-24T16:29:40Z</time>
      </trkpt>
      <trkpt lat="48.165390" lon="3.171820">
        <time>2017-06-24T16:29:41Z</time>
      </trkpt>
      <trkpt lat="48.165390" lon="3.171820">
        <time>2017-06-24T16:29:42Z</time>
      </trkpt>
      <trkpt lat="48.165390" lon="3.171820">
        <time>2017-06-24T16:29:43Z</time>
      </trkpt>
      <trkpt lat="48.165390" lon="3.171820">
        <time>2017-06-24T16:29:44Z</time>
      </trkpt>
      <trkpt lat="48.165390" lon="3.171820">
        <time>2017-06-24T16:29:45Z</time>
      </trkpt>
      <trkpt lat="48.165390" lon="3.171820">
        <time>2017-06-24T16:29:46Z</time>
      </trkpt>
      <trkpt lat="48.165390" lon="3.171820">
        <time>2017-06-24T16:29:47Z</time>
      </trkpt>
      <trkpt lat="48.165390" lon="3.171820">
        <time>2017-06-24T16:29:48Z</time>
      </trkpt>
      <trkpt lat="48.165390" lon="3.171820">
        <time>2017-06-24T16:29:49Z</time>
      </trkpt>
      <trkpt lat="48.165390" lon="3.171820">
        <time>2017-06-24T16:29:50Z</time>
      </trkpt>
      <trkpt lat="48.165390" lon="3.171820">
        <time>2017-06-24T16:29:51Z</time>
      </trkpt>
      <trkpt lat="48.165390" lon="3.171820">
        <time>2017-06-24T16:29:52Z</time>
      </trkpt>
      <trkpt lat="48.165390" lon="3.171820">
        <time>2017-06-24T16:29:53Z</time>
      </trkpt>
      <trkpt lat="48.165390" lon="3.171820">
        <time>2017-06-24T16:29:54Z</time>
      </trkpt>
      <trkpt lat="48.165390" lon="3.171820">
        <time>2017-06-24T16:29:55Z</time>
      </trkpt>
      <trkpt lat="48.165390" lon="3.171820">
        <time>2017-06-24T16:29:56Z</time>
      </trkpt>
      <trkpt lat="48.165390" lon="3.171820">
        <time>2017-06-24T16:29:57Z</time>
      </trkpt>
      <trkpt lat="48.165390" lon="3.171820">
        <time>2017-06-24T16:29:58Z</time>
      </trkpt>
      <trkpt lat="48.165390" lon="3.171820">
        <time>2017-06-24T16:29:59Z</time>
      </trkpt>
      <trkpt lat="48.165390" lon="3.171820">
        <time>2017-06-24T16:30:00Z</time>
      </trkpt>
      <trkpt lat="48.165390" lon="3.171820">
        <time>2017-06-24T16:30:01Z</time>
      </trkpt>
      <trkpt lat="48.165390" lon="3.171820">
        <time>2017-06-24T16:30:02Z</time>
      </trkpt>
      <trkpt lat="48.165390" lon="3.171820">
        <time>2017-06-24T16:30:03Z</time>
      </trkpt>
      <trkpt lat="48.165390" lon="3.171820">
        <time>2017-06-24T16:30:04Z</time>
      </trkpt>
      <trkpt lat="48.165390" lon="3.171820">
        <time>2017-06-24T16:30:05Z</time>
      </trkpt>
      <trkpt lat="48.165390" lon="3.171820">
        <time>2017-06-24T16:30:06Z</time>
      </trkpt>
      <trkpt lat="48.165390" lon="3.171820">
        <time>2017-06-24T16:30:07Z</time>
      </trkpt>
      <trkpt lat="48.165390" lon="3.171820">
        <time>2017-06-24T16:30:08Z</time>
      </trkpt>
      <trkpt lat="48.165390" lon="3.171820">
        <time>2017-06-24T16:30:09Z</time>
      </trkpt>
      <trkpt lat="48.165390" lon="3.171820">
        <time>2017-06-24T16:30:10Z</time>
      </trkpt>
      <trkpt lat="48.165390" lon="3.171820">
        <time>2017-06-24T16:30:11Z</time>
      </trkpt>
      <trkpt lat="48.165390" lon="3.171820">
        <time>2017-06-24T16:30:12Z</time>
      </trkpt>
      <trkpt lat="48.165390" lon="3.171820">
        <time>2017-06-24T16:30:13Z</time>
      </trkpt>
      <trkpt lat="48.165390" lon="3.171820">
        <time>2017-06-24T16:30:14Z</time>
      </trkpt>
      <trkpt lat="48.165390" lon="3.171820">
        <time>2017-06-24T16:30:15Z</time>
      </trkpt>
      <trkpt lat="48.165390" lon="3.171820">
        <time>2017-06-24T16:30:16Z</time>
      </trkpt>
      <trkpt lat="48.165390" lon="3.171820">
        <time>2017-06-24T16:30:17Z</time>
      </trkpt>
      <trkpt lat="48.165390" lon="3.171820">
        <time>2017-06-24T16:30:18Z</time>
      </trkpt>
      <trkpt lat="48.165390" lon="3.171820">
        <time>2017-06-24T16:30:19Z</time>
      </trkpt>
      <trkpt lat="48.165390" lon="3.171820">
        <time>2017-06-24T16:30:20Z</time>
      </trkpt>
      <trkpt lat="48.165390" lon="3.171820">
        <time>2017-06-24T16:30:21Z</time>
      </trkpt>
      <trkpt lat="48.165390" lon="3.171820">
        <time>2017-06-24T16:30:22Z</time>
      </trkpt>
      <trkpt lat="48.165390" lon="3.171820">
        <time>2017-06-24T16:30:23Z</time>
      </trkpt>
      <trkpt lat="48.165390" lon="3.171820">
        <time>2017-06-24T16:30:24Z</time>
      </trkpt>
      <trkpt lat="48.165390" lon="3.171820">
        <time>2017-06-24T16:30:25Z</time>
      </trkpt>
      <trkpt lat="48.165390" lon="3.171820">
        <time>2017-06-24T16:30:26Z</time>
      </trkpt>
      <trkpt lat="48.165390" lon="3.171820">
        <time>2017-06-24T16:30:27Z</time>
      </trkpt>
      <trkpt lat="48.165390" lon="3.171820">
        <time>2017-06-24T16:30:28Z</time>
      </trkpt>
      <trkpt lat="48.165390" lon="3.171820">
        <time>2017-06-24T16:30:29Z</time>
      </trkpt>
      <trkpt lat="48.165390" lon="3.171820">
        <time>2017-06-24T16:30:30Z</time>
      </trkpt>
      <trkpt lat="48.165390" lon="3.171820">
        <time>2017-06-24T16:30:31Z</time>
      </trkpt>
      <trkpt lat="48.165390" lon="3.171820">
        <time>2017-06-24T16:30:32Z</time>
      </trkpt>
      <trkpt lat="48.165390" lon="3.171820">
        <time>2017-06-24T16:30:33Z</time>
      </trkpt>
      <trkpt lat="48.165390" lon="3.171820">
        <time>2017-06-24T16:30:34Z</time>
      </trkpt>
      <trkpt lat="48.165390" lon="3.171820">
        <time>2017-06-24T16:30:35Z</time>
      </trkpt>
      <trkpt lat="48.165390" lon="3.171820">
        <time>2017-06-24T16:30:36Z</time>
      </trkpt>
      <trkpt lat="48.165390" lon="3.171820">
        <time>2017-06-24T16:30:37Z</time>
      </trkpt>
      <trkpt lat="48.165390" lon="3.171820">
        <time>2017-06-24T16:30:38Z</time>
      </trkpt>
      <trkpt lat="48.165390" lon="3.171820">
        <time>2017-06-24T16:30:39Z</time>
      </trkpt>
      <trkpt lat="48.165390" lon="3.171820">
        <time>2017-06-24T16:30:40Z</time>
      </trkpt>
      <trkpt lat="48.165390" lon="3.171820">
        <time>2017-06-24T16:30:41Z</time>
      </trkpt>
      <trkpt lat="48.165390" lon="3.171820">
        <time>2017-06-24T16:30:42Z</time>
      </trkpt>
      <trkpt lat="48.165390" lon="3.171820">
        <time>2017-06-24T16:30:43Z</time>
      </trkpt>
      <trkpt lat="48.165390" lon="3.171820">
        <time>2017-06-24T16:30:44Z</time>
      </trkpt>
      <trkpt lat="48.165390" lon="3.171820">
        <time>2017-06-24T16:30:45Z</time>
      </trkpt>
      <trkpt lat="48.165390" lon="3.171820">
        <time>2017-06-24T16:30:46Z</time>
      </trkpt>
      <trkpt lat="48.165390" lon="3.171820">
        <time>2017-06-24T16:30:47Z</time>
      </trkpt>
      <trkpt lat="48.165390" lon="3.171820">
        <time>2017-06-24T16:30:48Z</time>
      </trkpt>
      <trkpt lat="48.165390" lon="3.171820">
        <time>2017-06-24T16:30:49Z</time>
      </trkpt>
      <trkpt lat="48.165390" lon="3.171820">
        <time>2017-06-24T16:30:50Z</time>
      </trkpt>
      <trkpt lat="48.165390" lon="3.171820">
        <time>2017-06-24T16:30:51Z</time>
      </trkpt>
      <trkpt lat="48.165390" lon="3.171820">
        <time>2017-06-24T16:30:52Z</time>
      </trkpt>
      <trkpt lat="48.165390" lon="3.171820">
        <time>2017-06-24T16:30:53Z</time>
      </trkpt>
      <trkpt lat="48.165390" lon="3.171820">
        <time>2017-06-24T16:30:54Z</time>
      </trkpt>
      <trkpt lat="48.165390" lon="3.171820">
        <time>2017-06-24T16:30:55Z</time>
      </trkpt>
      <trkpt lat="48.165390" lon="3.171820">
        <time>2017-06-24T16:30:56Z</time>
      </trkpt>
      <trkpt lat="48.165390" lon="3.171820">
        <time>2017-06-24T16:30:57Z</time>
      </trkpt>
      <trkpt lat="48.165390" lon="3.171820">
        <time>2017-06-24T16:30:58Z</time>
      </trkpt>
      <trkpt lat="48.165390" lon="3.171820">
        <time>2017-06-24T16:30:59Z</time>
      </trkpt>
      <trkpt lat="48.165390" lon="3.171820">
        <time>2017-06-24T16:31:00Z</time>
      </trkpt>
      <trkpt lat="48.165390" lon="3.171820">
        <time>2017-06-24T16:31:01Z</time>
      </trkpt>
      <trkpt lat="48.165390" lon="3.171820">
        <time>2017-06-24T16:31:02Z</time>
      </trkpt>
      <trkpt lat="48.165390" lon="3.171820">
        <time>2017-06-24T16:31:03Z</time>
      </trkpt>
      <trkpt lat="48.165390" lon="3.171820">
        <time>2017-06-24T16:31:04Z</time>
      </trkpt>
      <trkpt lat="48.165390" lon="3.171820">
        <time>2017-06-24T16:31:05Z</time>
      </trkpt>
      <trkpt lat="48.165390" lon="3.171820">
        <time>2017-06-24T16:31:06Z</time>
      </trkpt>
      <trkpt lat="48.165390" lon="3.171820">
        <time>2017-06-24T16:31:07Z</time>
      </trkpt>
      <trkpt lat="48.165390" lon="3.171820">
        <time>2017-06-24T16:31:08Z</time>
      </trkpt>
      <trkpt lat="48.165390" lon="3.171820">
        <time>2017-06-24T16:31:09Z</time>
      </trkpt>
      <trkpt lat="48.165390" lon="3.171820">
        <time>2017-06-24T16:31:10Z</time>
      </trkpt>
      <trkpt lat="48.165390" lon="3.171820">
        <time>2017-06-24T16:31:11Z</time>
      </trkpt>
      <trkpt lat="48.165390" lon="3.171820">
        <time>2017-06-24T16:31:12Z</time>
      </trkpt>
      <trkpt lat="48.165390" lon="3.171820">
        <time>2017-06-24T16:31:13Z</time>
      </trkpt>
      <trkpt lat="48.165390" lon="3.171820">
        <time>2017-06-24T16:31:14Z</time>
      </trkpt>
      <trkpt lat="48.165390" lon="3.171820">
        <time>2017-06-24T16:31:15Z</time>
      </trkpt>
      <trkpt lat="48.165390" lon="3.171820">
        <time>2017-06-24T16:31:16Z</time>
      </trkpt>
      <trkpt lat="48.165390" lon="3.171820">
        <time>2017-06-24T16:31:17Z</time>
      </trkpt>
      <trkpt lat="48.165390" lon="3.171820">
        <time>2017-06-24T16:31:18Z</time>
      </trkpt>
      <trkpt lat="48.165390" lon="3.171820">
        <time>2017-06-24T16:31:19Z</time>
      </trkpt>
      <trkpt lat="48.165390" lon="3.171820">
        <time>2017-06-24T16:31:20Z</time>
      </trkpt>
      <trkpt lat="48.165390" lon="3.171820">
        <time>2017-06-24T16:31:21Z</time>
      </trkpt>
      <trkpt lat="48.165390" lon="3.171820">
        <time>2017-06-24T16:31:22Z</time>
      </trkpt>
      <trkpt lat="48.165390" lon="3.171820">
        <time>2017-06-24T16:31:23Z</time>
      </trkpt>
      <trkpt lat="48.165390" lon="3.171820">
        <time>2017-06-24T16:31:24Z</time>
      </trkpt>
      <trkpt lat="48.165390" lon="3.171820">
        <time>2017-06-24T16:31:25Z</time>
      </trkpt>
      <trkpt lat="48.165390" lon="3.171820">
        <time>2017-06-24T16:31:26Z</time>
      </trkpt>
      <trkpt lat="48.165390" lon="3.171820">
        <time>2017-06-24T16:31:27Z</time>
      </trkpt>
      <trkpt lat="48.165390" lon="3.171820">
        <time>2017-06-24T16:31:28Z</time>
      </trkpt>
      <trkpt lat="48.165390" lon="3.171820">
        <time>2017-06-24T16:31:29Z</time>
      </trkpt>
      <trkpt lat="48.165390" lon="3.171820">
        <time>2017-06-24T16:31:30Z</time>
      </trkpt>
      <trkpt lat="48.165390" lon="3.171820">
        <time>2017-06-24T16:31:31Z</time>
      </trkpt>
      <trkpt lat="48.165390" lon="3.171820">
        <time>2017-06-24T16:31:32Z</time>
      </trkpt>
      <trkpt lat="48.165390" lon="3.171820">
        <time>2017-06-24T16:31:33Z</time>
      </trkpt>
      <trkpt lat="48.165390" lon="3.171820">
        <time>2017-06-24T16:31:34Z</time>
      </trkpt>
      <trkpt lat="48.165390" lon="3.171820">
        <time>2017-06-24T16:31:35Z</time>
      </trkpt>
      <trkpt lat="48.165390" lon="3.171820">
        <time>2017-06-24T16:31:36Z</time>
      </trkpt>
      <trkpt lat="48.165390" lon="3.171820">
        <time>2017-06-24T16:31:37Z</time>
      </trkpt>
      <trkpt lat="48.165390" lon="3.171820">
        <time>2017-06-24T16:31:38Z</time>
      </trkpt>
      <trkpt lat="48.165390" lon="3.171820">
        <time>2017-06-24T16:31:39Z</time>
      </trkpt>
      <trkpt lat="48.165390" lon="3.171820">
        <time>2017-06-24T16:31:40Z</time>
      </trkpt>
      <trkpt lat="48.165390" lon="3.171820">
        <time>2017-06-24T16:31:41Z</time>
      </trkpt>
      <trkpt lat="48.165390" lon="3.171820">
        <time>2017-06-24T16:31:42Z</time>
      </trkpt>
      <trkpt lat="48.165390" lon="3.171820">
        <time>2017-06-24T16:31:43Z</time>
      </trkpt>
      <trkpt lat="48.165390" lon="3.171820">
        <time>2017-06-24T16:31:44Z</time>
      </trkpt>
      <trkpt lat="48.165390" lon="3.171820">
        <time>2017-06-24T16:31:45Z</time>
      </trkpt>
      <trkpt lat="48.165390" lon="3.171820">
        <time>2017-06-24T16:31:46Z</time>
      </trkpt>
      <trkpt lat="48.165390" lon="3.171820">
        <time>2017-06-24T16:31:47Z</time>
      </trkpt>
      <trkpt lat="48.165390" lon="3.171820">
        <time>2017-06-24T16:31:48Z</time>
      </trkpt>
      <trkpt lat="48.165390" lon="3.171820">
        <time>2017-06-24T16:31:49Z</time>
      </trkpt>
      <trkpt lat="48.165390" lon="3.171820">
        <time>2017-06-24T16:31:50Z</time>
      </trkpt>
      <trkpt lat="48.165390" lon="3.171820">
        <time>2017-06-24T16:31:51Z</time>
      </trkpt>
      <trkpt lat="48.165390" lon="3.171820">
        <time>2017-06-24T16:31:52Z</time>
      </trkpt>
      <trkpt lat="48.165390" lon="3.171820">
        <time>2017-06-24T16:31:53Z</time>
      </trkpt>
      <trkpt lat="48.165390" lon="3.171820">
        <time>2017-06-24T16:31:54Z</time>
      </trkpt>
      <trkpt lat="48.165390" lon="3.171820">
        <time>2017-06-24T16:31:55Z</time>
      </trkpt>
      <trkpt lat="48.165390" lon="3.171820">
        <time>2017-06-24T16:31:56Z</time>
      </trkpt>
      <trkpt lat="48.165390" lon="3.171820">
        <time>2017-06-24T16:31:57Z</time>
      </trkpt>
      <trkpt lat="48.165390" lon="3.171820">
        <time>2017-06-24T16:31:58Z</time>
      </trkpt>
      <trkpt lat="48.165390" lon="3.171820">
        <time>2017-06-24T16:31:59Z</time>
      </trkpt>
      <trkpt lat="48.165390" lon="3.171820">
        <time>2017-06-24T16:32:00Z</time>
      </trkpt>
      <trkpt lat="48.165390" lon="3.171820">
        <time>2017-06-24T16:32:01Z</time>
      </trkpt>
      <trkpt lat="48.165390" lon="3.171820">
        <time>2017-06-24T16:32:02Z</time>
      </trkpt>
      <trkpt lat="48.165390" lon="3.171820">
        <time>2017-06-24T16:32:03Z</time>
      </trkpt>
      <trkpt lat="48.165390" lon="3.171820">
        <time>2017-06-24T16:32:04Z</time>
      </trkpt>
      <trkpt lat="48.165390" lon="3.171820">
        <time>2017-06-24T16:32:05Z</time>
      </trkpt>
      <trkpt lat="48.165390" lon="3.171820">
        <time>2017-06-24T16:32:06Z</time>
      </trkpt>
      <trkpt lat="48.165390" lon="3.171820">
        <time>2017-06-24T16:32:07Z</time>
      </trkpt>
      <trkpt lat="48.165390" lon="3.171820">
        <time>2017-06-24T16:32:08Z</time>
      </trkpt>
      <trkpt lat="48.165390" lon="3.171820">
        <time>2017-06-24T16:32:09Z</time>
      </trkpt>
      <trkpt lat="48.165390" lon="3.171820">
        <time>2017-06-24T16:32:10Z</time>
      </trkpt>
      <trkpt lat="48.165390" lon="3.171820">
        <time>2017-06-24T16:32:11Z</time>
      </trkpt>
      <trkpt lat="48.165390" lon="3.171820">
        <time>2017-06-24T16:32:12Z</time>
      </trkpt>
      <trkpt lat="48.165390" lon="3.171820">
        <time>2017-06-24T16:32:13Z</time>
      </trkpt>
      <trkpt lat="48.165390" lon="3.171820">
        <time>2017-06-24T16:32:14Z</time>
      </trkpt>
      <trkpt lat="48.165390" lon="3.171820">
        <time>2017-06-24T16:32:15Z</time>
      </trkpt>
      <trkpt lat="48.165390" lon="3.171820">
        <time>2017-06-24T16:32:16Z</time>
      </trkpt>
      <trkpt lat="48.165390" lon="3.171820">
        <time>2017-06-24T16:32:17Z</time>
      </trkpt>
      <trkpt lat="48.165390" lon="3.171820">
        <time>2017-06-24T16:32:18Z</time>
      </trkpt>
      <trkpt lat="48.165390" lon="3.171820">
        <time>2017-06-24T16:32:19Z</time>
      </trkpt>
      <trkpt lat="48.165390" lon="3.171820">
        <time>2017-06-24T16:32:20Z</time>
      </trkpt>
      <trkpt lat="48.165390" lon="3.171820">
        <time>2017-06-24T16:32:21Z</time>
      </trkpt>
      <trkpt lat="48.165390" lon="3.171820">
        <time>2017-06-24T16:32:22Z</time>
      </trkpt>
      <trkpt lat="48.165390" lon="3.171820">
        <time>2017-06-24T16:32:23Z</time>
      </trkpt>
      <trkpt lat="48.165390" lon="3.171820">
        <time>2017-06-24T16:32:24Z</time>
      </trkpt>
      <trkpt lat="48.165390" lon="3.171820">
        <time>2017-06-24T16:32:25Z</time>
      </trkpt>
      <trkpt lat="48.165390" lon="3.171820">
        <time>2017-06-24T16:32:26Z</time>
      </trkpt>
      <trkpt lat="48.165390" lon="3.171820">
        <time>2017-06-24T16:32:27Z</time>
      </trkpt>
      <trkpt lat="48.165390" lon="3.171820">
        <time>2017-06-24T16:32:28Z</time>
      </trkpt>
      <trkpt lat="48.165390" lon="3.171820">
        <time>2017-06-24T16:32:29Z</time>
      </trkpt>
      <trkpt lat="48.165390" lon="3.171820">
        <time>2017-06-24T16:32:30Z</time>
      </trkpt>
      <trkpt lat="48.165390" lon="3.171820">
        <time>2017-06-24T16:32:31Z</time>
      </trkpt>
      <trkpt lat="48.165390" lon="3.171820">
        <time>2017-06-24T16:32:32Z</time>
      </trkpt>
      <trkpt lat="48.165390" lon="3.171820">
        <time>2017-06-24T16:32:33Z</time>
      </trkpt>
      <trkpt lat="48.165390" lon="3.171820">
        <time>2017-06-24T16:32:34Z</time>
      </trkpt>
      <trkpt lat="48.165390" lon="3.171820">
        <time>2017-06-24T16:32:35Z</time>
      </trkpt>
      <trkpt lat="48.165390" lon="3.171820">
        <time>2017-06-24T16:32:36Z</time>
      </trkpt>
      <trkpt lat="48.165390" lon="3.171820">
        <time>2017-06-24T16:32:37Z</time>
      </trkpt>
      <trkpt lat="48.165390" lon="3.171820">
        <time>2017-06-24T16:32:38Z</time>
      </trkpt>
      <trkpt lat="48.165390" lon="3.171820">
        <time>2017-06-24T16:32:39Z</time>
      </trkpt>
      <trkpt lat="48.165390" lon="3.171820">
        <time>2017-06-24T16:32:40Z</time>
      </trkpt>
      <trkpt lat="48.165390" lon="3.171820">
        <time>2017-06-24T16:32:41Z</time>
      </trkpt>
      <trkpt lat="48.165390" lon="3.171820">
        <time>2017-06-24T16:32:42Z</time>
      </trkpt>
      <trkpt lat="48.165390" lon="3.171820">
        <time>2017-06-24T16:32:43Z</time>
      </trkpt>
      <trkpt lat="48.165390" lon="3.171820">
        <time>2017-06-24T16:32:44Z</time>
      </trkpt>
      <trkpt lat="48.165390" lon="3.171820">
        <time>2017-06-24T16:32:45Z</time>
      </trkpt>
      <trkpt lat="48.165390" lon="3.171820">
        <time>2017-06-24T16:32:46Z</time>
      </trkpt>
      <trkpt lat="48.165390" lon="3.171820">
        <time>2017-06-24T16:32:47Z</time>
      </trkpt>
      <trkpt lat="48.165390" lon="3.171820">
        <time>2017-06-24T16:32:48Z</time>
      </trkpt>
      <trkpt lat="48.165390" lon="3.171820">
        <time>2017-06-24T16:32:49Z</time>
      </trkpt>
      <trkpt lat="48.165390" lon="3.171820">
        <time>2017-06-24T16:32:50Z</time>
      </trkpt>
      <trkpt lat="48.165390" lon="3.171820">
        <time>2017-06-24T16:32:51Z</time>
      </trkpt>
      <trkpt lat="48.165390" lon="3.171820">
        <time>2017-06-24T16:32:52Z</time>
      </trkpt>
      <trkpt lat="48.165390" lon="3.171820">
        <time>2017-06-24T16:32:53Z</time>
      </trkpt>
      <trkpt lat="48.165390" lon="3.171820">
        <time>2017-06-24T16:32:54Z</time>
      </trkpt>
      <trkpt lat="48.165390" lon="3.171820">
        <time>2017-06-24T16:32:55Z</time>
      </trkpt>
      <trkpt lat="48.165390" lon="3.171820">
        <time>2017-06-24T16:32:56Z</time>
      </trkpt>
      <trkpt lat="48.165390" lon="3.171820">
        <time>2017-06-24T16:32:57Z</time>
      </trkpt>
      <trkpt lat="48.165390" lon="3.171820">
        <time>2017-06-24T16:32:58Z</time>
      </trkpt>
      <trkpt lat="48.165390" lon="3.171820">
        <time>2017-06-24T16:32:59Z</time>
      </trkpt>
      <trkpt lat="48.165390" lon="3.171820">
        <time>2017-06-24T16:33:00Z</time>
      </trkpt>
      <trkpt lat="48.165390" lon="3.171820">
        <time>2017-06-24T16:33:01Z</time>
      </trkpt>
      <trkpt lat="48.165390" lon="3.171820">
        <time>2017-06-24T16:33:02Z</time>
      </trkpt>
      <trkpt lat="48.165390" lon="3.171820">
        <time>2017-06-24T16:33:03Z</time>
      </trkpt>
      <trkpt lat="48.165390" lon="3.171820">
        <time>2017-06-24T16:33:04Z</time>
      </trkpt>
      <trkpt lat="48.165390" lon="3.171820">
        <time>2017-06-24T16:33:05Z</time>
      </trkpt>
      <trkpt lat="48.165390" lon="3.171820">
        <time>2017-06-24T16:33:06Z</time>
      </trkpt>
      <trkpt lat="48.165390" lon="3.171820">
        <time>2017-06-24T16:33:07Z</time>
      </trkpt>
      <trkpt lat="48.165390" lon="3.171820">
        <time>2017-06-24T16:33:08Z</time>
      </trkpt>
      <trkpt lat="48.165390" lon="3.171820">
        <time>2017-06-24T16:33:09Z</time>
      </trkpt>
      <trkpt lat="48.165390" lon="3.171820">
        <time>2017-06-24T16:33:10Z</time>
      </trkpt>
      <trkpt lat="48.165390" lon="3.171820">
        <time>2017-06-24T16:33:11Z</time>
      </trkpt>
      <trkpt lat="48.165390" lon="3.171820">
        <time>2017-06-24T16:33:12Z</time>
      </trkpt>
      <trkpt lat="48.165390" lon="3.171820">
        <time>2017-06-24T16:33:13Z</time>
      </trkpt>
      <trkpt lat="48.165390" lon="3.171820">
        <time>2017-06-24T16:33:14Z</time>
      </trkpt>
      <trkpt lat="48.165390" lon="3.171820">
        <time>2017-06-24T16:33:15Z</time>
      </trkpt>
      <trkpt lat="48.165390" lon="3.171820">
        <time>2017-06-24T16:33:16Z</time>
      </trkpt>
      <trkpt lat="48.165390" lon="3.171820">
        <time>2017-06-24T16:33:17Z</time>
      </trkpt>
      <trkpt lat="48.165390" lon="3.171820">
        <time>2017-06-24T16:33:18Z</time>
      </trkpt>
      <trkpt lat="48.165390" lon="3.171820">
        <time>2017-06-24T16:33:19Z</time>
      </trkpt>
      <trkpt lat="48.165390" lon="3.171820">
        <time>2017-06-24T16:33:20Z</time>
      </trkpt>
      <trkpt lat="48.165390" lon="3.171820">
        <time>2017-06-24T16:33:21Z</time>
      </trkpt>
      <trkpt lat="48.165390" lon="3.171820">
        <time>2017-06-24T16:33:22Z</time>
      </trkpt>
      <trkpt lat="48.165390" lon="3.171820">
        <time>2017-06-24T16:33:23Z</time>
      </trkpt>
      <trkpt lat="48.165390" lon="3.171820">
        <time>2017-06-24T16:33:24Z</time>
      </trkpt>
      <trkpt lat="48.165390" lon="3.171820">
        <time>2017-06-24T16:33:25Z</time>
      </trkpt>
      <trkpt lat="48.165390" lon="3.171820">
        <time>2017-06-24T16:33:26Z</time>
      </trkpt>
      <trkpt lat="48.165390" lon="3.171820">
        <time>2017-06-24T16:33:27Z</time>
      </trkpt>
      <trkpt lat="48.165390" lon="3.171820">
        <time>2017-06-24T16:33:28Z</time>
      </trkpt>
      <trkpt lat="48.165390" lon="3.171820">
        <time>2017-06-24T16:33:29Z</time>
      </trkpt>
      <trkpt lat="48.165390" lon="3.171820">
        <time>2017-06-24T16:33:30Z</time>
      </trkpt>
      <trkpt lat="48.165390" lon="3.171820">
        <time>2017-06-24T16:33:31Z</time>
      </trkpt>
      <trkpt lat="48.165390" lon="3.171820">
        <time>2017-06-24T16:33:32Z</time>
      </trkpt>
      <trkpt lat="48.165390" lon="3.171820">
        <time>2017-06-24T16:33:33Z</time>
      </trkpt>
      <trkpt lat="48.165390" lon="3.171820">
        <time>2017-06-24T16:33:34Z</time>
      </trkpt>
      <trkpt lat="48.165390" lon="3.171820">
        <time>2017-06-24T16:33:35Z</time>
      </trkpt>
      <trkpt lat="48.165390" lon="3.171820">
        <time>2017-06-24T16:33:36Z</time>
      </trkpt>
      <trkpt lat="48.165390" lon="3.171820">
        <time>2017-06-24T16:33:37Z</time>
      </trkpt>
      <trkpt lat="48.165390" lon="3.171820">
        <time>2017-06-24T16:33:38Z</time>
      </trkpt>
      <trkpt lat="48.165390" lon="3.171820">
        <time>2017-06-24T16:33:39Z</time>
      </trkpt>
      <trkpt lat="48.165390" lon="3.171820">
        <time>2017-06-24T16:33:40Z</time>
      </trkpt>
      <trkpt lat="48.165390" lon="3.171820">
        <time>2017-06-24T16:33:41Z</time>
      </trkpt>
      <trkpt lat="48.165390" lon="3.171820">
        <time>2017-06-24T16:33:42Z</time>
      </trkpt>
      <trkpt lat="48.165390" lon="3.171820">
        <time>2017-06-24T16:33:43Z</time>
      </trkpt>
      <trkpt lat="48.165390" lon="3.171820">
        <time>2017-06-24T16:33:44Z</time>
      </trkpt>
      <trkpt lat="48.165390" lon="3.171820">
        <time>2017-06-24T16:33:45Z</time>
      </trkpt>
      <trkpt lat="48.165390" lon="3.171820">
        <time>2017-06-24T16:33:46Z</time>
      </trkpt>
      <trkpt lat="48.165390" lon="3.171820">
        <time>2017-06-24T16:33:47Z</time>
      </trkpt>
      <trkpt lat="48.165390" lon="3.171820">
        <time>2017-06-24T16:33:48Z</time>
      </trkpt>
      <trkpt lat="48.165390" lon="3.171820">
        <time>2017-06-24T16:33:49Z</time>
      </trkpt>
      <trkpt lat="48.165390" lon="3.171820">
        <time>2017-06-24T16:33:50Z</time>
      </trkpt>
      <trkpt lat="48.165390" lon="3.171820">
        <time>2017-06-24T16:33:51Z</time>
      </trkpt>
      <trkpt lat="48.165390" lon="3.171820">
        <time>2017-06-24T16:33:52Z</time>
      </trkpt>
      <trkpt lat="48.165390" lon="3.171820">
        <time>2017-06-24T16:33:53Z</time>
      </trkpt>
      <trkpt lat="48.165390" lon="3.171820">
        <time>2017-06-24T16:33:54Z</time>
      </trkpt>
      <trkpt lat="48.165390" lon="3.171820">
        <time>2017-06-24T16:33:55Z</time>
      </trkpt>
      <trkpt lat="48.165390" lon="3.171820">
        <time>2017-06-24T16:33:56Z</time>
      </trkpt>
      <trkpt lat="48.165390" lon="3.171820">
        <time>2017-06-24T16:33:57Z</time>
      </trkpt>
      <trkpt lat="48.165390" lon="3.171820">
        <time>2017-06-24T16:33:58Z</time>
      </trkpt>
      <trkpt lat="48.165390" lon="3.171820">
        <time>2017-06-24T16:33:59Z</time>
      </trkpt>
      <trkpt lat="48.165390" lon="3.171820">
        <time>2017-06-24T16:34:00Z</time>
      </trkpt>
      <trkpt lat="48.165390" lon="3.171820">
        <time>2017-06-24T16:34:01Z</time>
      </trkpt>
      <trkpt lat="48.165390" lon="3.171820">
        <time>2017-06-24T16:34:02Z</time>
      </trkpt>
      <trkpt lat="48.165390" lon="3.171820">
        <time>2017-06-24T16:34:03Z</time>
      </trkpt>
      <trkpt lat="48.165390" lon="3.171820">
        <time>2017-06-24T16:34:04Z</time>
      </trkpt>
      <trkpt lat="48.165390" lon="3.171820">
        <time>2017-06-24T16:34:05Z</time>
      </trkpt>
      <trkpt lat="48.165390" lon="3.171820">
        <time>2017-06-24T16:34:06Z</time>
      </trkpt>
      <trkpt lat="48.165390" lon="3.171820">
        <time>2017-06-24T16:34:07Z</time>
      </trkpt>
      <trkpt lat="48.165390" lon="3.171820">
        <time>2017-06-24T16:34:08Z</time>
      </trkpt>
      <trkpt lat="48.165390" lon="3.171820">
        <time>2017-06-24T16:34:09Z</time>
      </trkpt>
      <trkpt lat="48.165390" lon="3.171820">
        <time>2017-06-24T16:34:10Z</time>
      </trkpt>
      <trkpt lat="48.165390" lon="3.171820">
        <time>2017-06-24T16:34:11Z</time>
      </trkpt>
      <trkpt lat="48.165390" lon="3.171820">
        <time>2017-06-24T16:34:12Z</time>
      </trkpt>
      <trkpt lat="48.165390" lon="3.171820">
        <time>2017-06-24T16:34:13Z</time>
      </trkpt>
      <trkpt lat="48.165390" lon="3.171820">
        <time>2017-06-24T16:34:14Z</time>
      </trkpt>
      <trkpt lat="48.165390" lon="3.171820">
        <time>2017-06-24T16:34:15Z</time>
      </trkpt>
      <trkpt lat="48.165390" lon="3.171820">
        <time>2017-06-24T16:34:16Z</time>
      </trkpt>
      <trkpt lat="48.165390" lon="3.171820">
        <time>2017-06-24T16:34:17Z</time>
      </trkpt>
      <trkpt lat="48.165390" lon="3.171820">
        <time>2017-06-24T16:34:18Z</time>
      </trkpt>
      <trkpt lat="48.165390" lon="3.171820">
        <time>2017-06-24T16:34:19Z</time>
      </trkpt>
      <trkpt lat="48.165390" lon="3.171820">
        <time>2017-06-24T16:34:20Z</time>
      </trkpt>
      <trkpt lat="48.165390" lon="3.171820">
        <time>2017-06-24T16:34:21Z</time>
      </trkpt>
      <trkpt lat="48.165390" lon="3.171820">
        <time>2017-06-24T16:34:22Z</time>
      </trkpt>
      <trkpt lat="48.165390" lon="3.171820">
        <time>2017-06-24T16:34:23Z</time>
      </trkpt>
      <trkpt lat="48.165390" lon="3.171820">
        <time>2017-06-24T16:34:24Z</time>
      </trkpt>
      <trkpt lat="48.165390" lon="3.171820">
        <time>2017-06-24T16:34:25Z</time>
      </trkpt>
      <trkpt lat="48.165390" lon="3.171820">
        <time>2017-06-24T16:34:26Z</time>
      </trkpt>
      <trkpt lat="48.165390" lon="3.171820">
        <time>2017-06-24T16:34:27Z</time>
      </trkpt>
      <trkpt lat="48.165390" lon="3.171820">
        <time>2017-06-24T16:34:28Z</time>
      </trkpt>
      <trkpt lat="48.165390" lon="3.171820">
        <time>2017-06-24T16:34:29Z</time>
      </trkpt>
      <trkpt lat="48.165390" lon="3.171820">
        <time>2017-06-24T16:34:30Z</time>
      </trkpt>
      <trkpt lat="48.165390" lon="3.171820">
        <time>2017-06-24T16:34:31Z</time>
      </trkpt>
      <trkpt lat="48.165390" lon="3.171820">
        <time>2017-06-24T16:34:32Z</time>
      </trkpt>
      <trkpt lat="48.165390" lon="3.171820">
        <time>2017-06-24T16:34:33Z</time>
      </trkpt>
      <trkpt lat="48.165390" lon="3.171820">
        <time>2017-06-24T16:34:34Z</time>
      </trkpt>
      <trkpt lat="48.165390" lon="3.171820">
        <time>2017-06-24T16:34:35Z</time>
      </trkpt>
      <trkpt lat="48.165390" lon="3.171820">
        <time>2017-06-24T16:34:36Z</time>
      </trkpt>
      <trkpt lat="48.165390" lon="3.171820">
        <time>2017-06-24T16:34:37Z</time>
      </trkpt>
      <trkpt lat="48.165390" lon="3.171820">
        <time>2017-06-24T16:34:38Z</time>
      </trkpt>
      <trkpt lat="48.165390" lon="3.171820">
        <time>2017-06-24T16:34:39Z</time>
      </trkpt>
      <trkpt lat="48.165390" lon="3.171820">
        <time>2017-06-24T16:34:40Z</time>
      </trkpt>
      <trkpt lat="48.165390" lon="3.171820">
        <time>2017-06-24T16:34:41Z</time>
      </trkpt>
      <trkpt lat="48.165390" lon="3.171820">
        <time>2017-06-24T16:34:42Z</time>
      </trkpt>
      <trkpt lat="48.165390" lon="3.171820">
        <time>2017-06-24T16:34:43Z</time>
      </trkpt>
      <trkpt lat="48.165390" lon="3.171820">
        <time>2017-06-24T16:34:44Z</time>
      </trkpt>
      <trkpt lat="48.165390" lon="3.171820">
        <time>2017-06-24T16:34:45Z</time>
      </trkpt>
      <trkpt lat="48.165390" lon="3.171820">
        <time>2017-06-24T16:34:46Z</time>
      </trkpt>
      <trkpt lat="48.165390" lon="3.171820">
        <time>2017-06-24T16:34:47Z</time>
      </trkpt>
      <trkpt lat="48.165390" lon="3.171820">
        <time>2017-06-24T16:34:48Z</time>
      </trkpt>
      <trkpt lat="48.165390" lon="3.171820">
        <time>2017-06-24T16:34:49Z</time>
      </trkpt>
      <trkpt lat="48.165390" lon="3.171820">
        <time>2017-06-24T16:34:50Z</time>
      </trkpt>
      <trkpt lat="48.165390" lon="3.171820">
        <time>2017-06-24T16:34:51Z</time>
      </trkpt>
      <trkpt lat="48.165390" lon="3.171820">
        <time>2017-06-24T16:34:52Z</time>
      </trkpt>
      <trkpt lat="48.165390" lon="3.171820">
        <time>2017-06-24T16:34:53Z</time>
      </trkpt>
      <trkpt lat="48.165390" lon="3.171820">
        <time>2017-06-24T16:34:54Z</time>
      </trkpt>
      <trkpt lat="48.165390" lon="3.171820">
        <time>2017-06-24T16:34:55Z</time>
      </trkpt>
      <trkpt lat="48.165390" lon="3.171820">
        <time>2017-06-24T16:34:56Z</time>
      </trkpt>
      <trkpt lat="48.165390" lon="3.171820">
        <time>2017-06-24T16:34:57Z</time>
      </trkpt>
      <trkpt lat="48.165390" lon="3.171820">
        <time>2017-06-24T16:34:58Z</time>
      </trkpt>
      <trkpt lat="48.165390" lon="3.171820">
        <time>2017-06-24T16:34:59Z</time>
      </trkpt>
      <trkpt lat="48.165390" lon="3.171820">
        <time>2017-06-24T16:35:00Z</time>
      </trkpt>
      <trkpt lat="48.165390" lon="3.171820">
        <time>2017-06-24T16:35:01Z</time>
      </trkpt>
      <trkpt lat="48.165390" lon="3.171820">
        <time>2017-06-24T16:35:02Z</time>
      </trkpt>
      <trkpt lat="48.165390" lon="3.171820">
        <time>2017-06-24T16:35:03Z</time>
      </trkpt>
      <trkpt lat="48.165390" lon="3.171820">
        <time>2017-06-24T16:35:04Z</time>
      </trkpt>
      <trkpt lat="48.165390" lon="3.171820">
        <time>2017-06-24T16:35:05Z</time>
      </trkpt>
      <trkpt lat="48.165390" lon="3.171820">
        <time>2017-06-24T16:35:06Z</time>
      </trkpt>
      <trkpt lat="48.165390" lon="3.171820">
        <time>2017-06-24T16:35:07Z</time>
      </trkpt>
      <trkpt lat="48.165390" lon="3.171820">
        <time>2017-06-24T16:35:08Z</time>
      </trkpt>
      <trkpt lat="48.165390" lon="3.171820">
        <time>2017-06-24T16:35:09Z</time>
      </trkpt>
      <trkpt lat="48.165390" lon="3.171820">
        <time>2017-06-24T16:35:10Z</time>
      </trkpt>
      <trkpt lat="48.165390" lon="3.171820">
        <time>2017-06-24T16:35:11Z</time>
      </trkpt>
      <trkpt lat="48.165390" lon="3.171820">
        <time>2017-06-24T16:35:12Z</time>
      </trkpt>
      <trkpt lat="48.165390" lon="3.171820">
        <time>2017-06-24T16:35:13Z</time>
      </trkpt>
      <trkpt lat="48.165390" lon="3.171820">
        <time>2017-06-24T16:35:14Z</time>
      </trkpt>
      <trkpt lat="48.165390" lon="3.171820">
        <time>2017-06-24T16:35:15Z</time>
      </trkpt>
      <trkpt lat="48.165390" lon="3.171820">
        <time>2017-06-24T16:35:16Z</time>
      </trkpt>
      <trkpt lat="48.165390" lon="3.171820">
        <time>2017-06-24T16:35:17Z</time>
      </trkpt>
      <trkpt lat="48.165390" lon="3.171820">
        <time>2017-06-24T16:35:18Z</time>
      </trkpt>
      <trkpt lat="48.165390" lon="3.171820">
        <time>2017-06-24T16:35:19Z</time>
      </trkpt>
      <trkpt lat="48.165390" lon="3.171820">
        <time>2017-06-24T16:35:20Z</time>
      </trkpt>
      <trkpt lat="48.165390" lon="3.171820">
        <time>2017-06-24T16:35:21Z</time>
      </trkpt>
      <trkpt lat="48.165390" lon="3.171820">
        <time>2017-06-24T16:35:22Z</time>
      </trkpt>
      <trkpt lat="48.165390" lon="3.171820">
        <time>2017-06-24T16:35:23Z</time>
      </trkpt>
      <trkpt lat="48.165390" lon="3.171820">
        <time>2017-06-24T16:35:24Z</time>
      </trkpt>
      <trkpt lat="48.165390" lon="3.171820">
        <time>2017-06-24T16:35:25Z</time>
      </trkpt>
      <trkpt lat="48.165390" lon="3.171820">
        <time>2017-06-24T16:35:26Z</time>
      </trkpt>
      <trkpt lat="48.165390" lon="3.171820">
        <time>2017-06-24T16:35:27Z</time>
      </trkpt>
      <trkpt lat="48.165390" lon="3.171820">
        <time>2017-06-24T16:35:28Z</time>
      </trkpt>
      <trkpt lat="48.165390" lon="3.171820">
        <time>2017-06-24T16:35:29Z</time>
      </trkpt>
      <trkpt lat="48.165390" lon="3.171820">
        <time>2017-06-24T16:35:30Z</time>
      </trkpt>
      <trkpt lat="48.165390" lon="3.171820">
        <time>2017-06-24T16:35:31Z</time>
      </trkpt>
      <trkpt lat="48.165390" lon="3.171820">
        <time>2017-06-24T16:35:32Z</time>
      </trkpt>
      <trkpt lat="48.165390" lon="3.171820">
        <time>2017-06-24T16:35:33Z</time>
      </trkpt>
      <trkpt lat="48.165390" lon="3.171820">
        <time>2017-06-24T16:35:34Z</time>
      </trkpt>
      <trkpt lat="48.165390" lon="3.171820">
        <time>2017-06-24T16:35:35Z</time>
      </trkpt>
      <trkpt lat="48.165390" lon="3.171820">
        <time>2017-06-24T16:35:36Z</time>
      </trkpt>
      <trkpt lat="48.165390" lon="3.171820">
        <time>2017-06-24T16:35:37Z</time>
      </trkpt>
      <trkpt lat="48.165390" lon="3.171820">
        <time>2017-06-24T16:35:38Z</time>
      </trkpt>
      <trkpt lat="48.165390" lon="3.171820">
        <time>2017-06-24T16:35:39Z</time>
      </trkpt>
      <trkpt lat="48.165390" lon="3.171820">
        <time>2017-06-24T16:35:40Z</time>
      </trkpt>
      <trkpt lat="48.165390" lon="3.171820">
        <time>2017-06-24T16:35:41Z</time>
      </trkpt>
      <trkpt lat="48.165390" lon="3.171820">
        <time>2017-06-24T16:35:42Z</time>
      </trkpt>
      <trkpt lat="48.165390" lon="3.171820">
        <time>2017-06-24T16:35:43Z</time>
      </trkpt>
      <trkpt lat="48.165390" lon="3.171820">
        <time>2017-06-24T16:35:44Z</time>
      </trkpt>
      <trkpt lat="48.165390" lon="3.171820">
        <time>2017-06-24T16:35:45Z</time>
      </trkpt>
      <trkpt lat="48.165390" lon="3.171820">
        <time>2017-06-24T16:35:46Z</time>
      </trkpt>
      <trkpt lat="48.165390" lon="3.171820">
        <time>2017-06-24T16:35:47Z</time>
      </trkpt>
      <trkpt lat="48.165390" lon="3.171820">
        <time>2017-06-24T16:35:48Z</time>
      </trkpt>
      <trkpt lat="48.165390" lon="3.171820">
        <time>2017-06-24T16:35:49Z</time>
      </trkpt>
      <trkpt lat="48.165390" lon="3.171820">
        <time>2017-06-24T16:35:50Z</time>
      </trkpt>
      <trkpt lat="48.165390" lon="3.171820">
        <time>2017-06-24T16:35:51Z</time>
      </trkpt>
      <trkpt lat="48.165390" lon="3.171820">
        <time>2017-06-24T16:35:52Z</time>
      </trkpt>
      <trkpt lat="48.165390" lon="3.171820">
        <time>2017-06-24T16:35:53Z</time>
      </trkpt>
      <trkpt lat="48.165390" lon="3.171820">
        <time>2017-06-24T16:35:54Z</time>
      </trkpt>
      <trkpt lat="48.165390" lon="3.171820">
        <time>2017-06-24T16:35:55Z</time>
      </trkpt>
      <trkpt lat="48.165390" lon="3.171820">
        <time>2017-06-24T16:35:56Z</time>
      </trkpt>
      <trkpt lat="48.165390" lon="3.171820">
        <time>2017-06-24T16:35:57Z</time>
      </trkpt>
      <trkpt lat="48.165390" lon="3.171820">
        <time>2017-06-24T16:35:58Z</time>
      </trkpt>
      <trkpt lat="48.165390" lon="3.171820">
        <time>2017-06-24T16:35:59Z</time>
      </trkpt>
      <trkpt lat="48.165390" lon="3.171820">
        <time>2017-06-24T16:36:00Z</time>
      </trkpt>
      <trkpt lat="48.165390" lon="3.171820">
        <time>2017-06-24T16:36:01Z</time>
      </trkpt>
      <trkpt lat="48.165390" lon="3.171820">
        <time>2017-06-24T16:36:02Z</time>
      </trkpt>
      <trkpt lat="48.165390" lon="3.171820">
        <time>2017-06-24T16:36:03Z</time>
      </trkpt>
      <trkpt lat="48.165390" lon="3.171820">
        <time>2017-06-24T16:36:04Z</time>
      </trkpt>
      <trkpt lat="48.165390" lon="3.171820">
        <time>2017-06-24T16:36:05Z</time>
      </trkpt>
      <trkpt lat="48.165390" lon="3.171820">
        <time>2017-06-24T16:36:06Z</time>
      </trkpt>
      <trkpt lat="48.165390" lon="3.171820">
        <time>2017-06-24T16:36:07Z</time>
      </trkpt>
      <trkpt lat="48.165390" lon="3.171820">
        <time>2017-06-24T16:36:08Z</time>
      </trkpt>
      <trkpt lat="48.165390" lon="3.171820">
        <time>2017-06-24T16:36:09Z</time>
      </trkpt>
      <trkpt lat="48.165390" lon="3.171820">
        <time>2017-06-24T16:36:10Z</time>
      </trkpt>
      <trkpt lat="48.165390" lon="3.171820">
        <time>2017-06-24T16:36:11Z</time>
      </trkpt>
      <trkpt lat="48.165390" lon="3.171820">
        <time>2017-06-24T16:36:12Z</time>
      </trkpt>
      <trkpt lat="48.165390" lon="3.171820">
        <time>2017-06-24T16:36:13Z</time>
      </trkpt>
      <trkpt lat="48.165390" lon="3.171820">
        <time>2017-06-24T16:36:14Z</time>
      </trkpt>
      <trkpt lat="48.165390" lon="3.171820">
        <time>2017-06-24T16:36:15Z</time>
      </trkpt>
      <trkpt lat="48.165390" lon="3.171820">
        <time>2017-06-24T16:36:16Z</time>
      </trkpt>
      <trkpt lat="48.165390" lon="3.171820">
        <time>2017-06-24T16:36:17Z</time>
      </trkpt>
      <trkpt lat="48.165390" lon="3.171820">
        <time>2017-06-24T16:36:18Z</time>
      </trkpt>
      <trkpt lat="48.165390" lon="3.171820">
        <time>2017-06-24T16:36:19Z</time>
      </trkpt>
      <trkpt lat="48.165390" lon="3.171820">
        <time>2017-06-24T16:36:20Z</time>
      </trkpt>
      <trkpt lat="48.165390" lon="3.171820">
        <time>2017-06-24T16:36:21Z</time>
      </trkpt>
      <trkpt lat="48.165390" lon="3.171820">
        <time>2017-06-24T16:36:22Z</time>
      </trkpt>
      <trkpt lat="48.165390" lon="3.171820">
        <time>2017-06-24T16:36:23Z</time>
      </trkpt>
      <trkpt lat="48.165390" lon="3.171820">
        <time>2017-06-24T16:36:24Z</time>
      </trkpt>
      <trkpt lat="48.165390" lon="3.171820">
        <time>2017-06-24T16:36:25Z</time>
      </trkpt>
      <trkpt lat="48.165390" lon="3.171820">
        <time>2017-06-24T16:36:26Z</time>
      </trkpt>
      <trkpt lat="48.165390" lon="3.171820">
        <time>2017-06-24T16:36:27Z</time>
      </trkpt>
      <trkpt lat="48.165390" lon="3.171820">
        <time>2017-06-24T16:36:28Z</time>
      </trkpt>
      <trkpt lat="48.165390" lon="3.171820">
        <time>2017-06-24T16:36:29Z</time>
      </trkpt>
      <trkpt lat="48.165390" lon="3.171820">
        <time>2017-06-24T16:36:30Z</time>
      </trkpt>
      <trkpt lat="48.165390" lon="3.171820">
        <time>2017-06-24T16:36:31Z</time>
      </trkpt>
      <trkpt lat="48.165390" lon="3.171820">
        <time>2017-06-24T16:36:32Z</time>
      </trkpt>
      <trkpt lat="48.165390" lon="3.171820">
        <time>2017-06-24T16:36:33Z</time>
      </trkpt>
      <trkpt lat="48.165390" lon="3.171820">
        <time>2017-06-24T16:36:34Z</time>
      </trkpt>
      <trkpt lat="48.165390" lon="3.171820">
        <time>2017-06-24T16:36:35Z</time>
      </trkpt>
      <trkpt lat="48.165390" lon="3.171820">
        <time>2017-06-24T16:36:36Z</time>
      </trkpt>
      <trkpt lat="48.165390" lon="3.171820">
        <time>2017-06-24T16:36:37Z</time>
      </trkpt>
      <trkpt lat="48.165390" lon="3.171820">
        <time>2017-06-24T16:36:38Z</time>
      </trkpt>
      <trkpt lat="48.165390" lon="3.171820">
        <time>2017-06-24T16:36:39Z</time>
      </trkpt>
      <trkpt lat="48.165390" lon="3.171820">
        <time>2017-06-24T16:36:40Z</time>
      </trkpt>
      <trkpt lat="48.165390" lon="3.171820">
        <time>2017-06-24T16:36:41Z</time>
      </trkpt>
      <trkpt lat="48.165390" lon="3.171820">
        <time>2017-06-24T16:36:42Z</time>
      </trkpt>
      <trkpt lat="48.165390" lon="3.171820">
        <time>2017-06-24T16:36:43Z</time>
      </trkpt>
      <trkpt lat="48.165390" lon="3.171820">
        <time>2017-06-24T16:36:44Z</time>
      </trkpt>
      <trkpt lat="48.165390" lon="3.171820">
        <time>2017-06-24T16:36:45Z</time>
      </trkpt>
      <trkpt lat="48.165390" lon="3.171820">
        <time>2017-06-24T16:36:46Z</time>
      </trkpt>
      <trkpt lat="48.165390" lon="3.171820">
        <time>2017-06-24T16:36:47Z</time>
      </trkpt>
      <trkpt lat="48.165390" lon="3.171820">
        <time>2017-06-24T16:36:48Z</time>
      </trkpt>
      <trkpt lat="48.165390" lon="3.171820">
        <time>2017-06-24T16:36:49Z</time>
      </trkpt>
      <trkpt lat="48.165390" lon="3.171820">
        <time>2017-06-24T16:36:50Z</time>
      </trkpt>
      <trkpt lat="48.165390" lon="3.171820">
        <time>2017-06-24T16:36:51Z</time>
      </trkpt>
      <trkpt lat="48.165390" lon="3.171820">
        <time>2017-06-24T16:36:52Z</time>
      </trkpt>
      <trkpt lat="48.165390" lon="3.171820">
        <time>2017-06-24T16:36:53Z</time>
      </trkpt>
      <trkpt lat="48.165390" lon="3.171820">
        <time>2017-06-24T16:36:54Z</time>
      </trkpt>
      <trkpt lat="48.165390" lon="3.171820">
        <time>2017-06-24T16:36:55Z</time>
      </trkpt>
      <trkpt lat="48.165390" lon="3.171820">
        <time>2017-06-24T16:36:56Z</time>
      </trkpt>
      <trkpt lat="48.165390" lon="3.171820">
        <time>2017-06-24T16:36:57Z</time>
      </trkpt>
      <trkpt lat="48.165390" lon="3.171820">
        <time>2017-06-24T16:36:58Z</time>
      </trkpt>
      <trkpt lat="48.165390" lon="3.171820">
        <time>2017-06-24T16:36:59Z</time>
      </trkpt>
      <trkpt lat="48.165390" lon="3.171820">
        <time>2017-06-24T16:37:00Z</time>
      </trkpt>
      <trkpt lat="48.165390" lon="3.171820">
        <time>2017-06-24T16:37:01Z</time>
      </trkpt>
      <trkpt lat="48.165390" lon="3.171820">
        <time>2017-06-24T16:37:02Z</time>
      </trkpt>
      <trkpt lat="48.165390" lon="3.171820">
        <time>2017-06-24T16:37:03Z</time>
      </trkpt>
      <trkpt lat="48.165390" lon="3.171820">
        <time>2017-06-24T16:37:04Z</time>
      </trkpt>
      <trkpt lat="48.165390" lon="3.171820">
        <time>2017-06-24T16:37:05Z</time>
      </trkpt>
      <trkpt lat="48.165390" lon="3.171820">
        <time>2017-06-24T16:37:06Z</time>
      </trkpt>
      <trkpt lat="48.165390" lon="3.171820">
        <time>2017-06-24T16:37:07Z</time>
      </trkpt>
      <trkpt lat="48.165390" lon="3.171820">
        <time>2017-06-24T16:37:08Z</time>
      </trkpt>
      <trkpt lat="48.165390" lon="3.171820">
        <time>2017-06-24T16:37:09Z</time>
      </trkpt>
      <trkpt lat="48.165390" lon="3.171820">
        <time>2017-06-24T16:37:10Z</time>
      </trkpt>
      <trkpt lat="48.165390" lon="3.171820">
        <time>2017-06-24T16:37:11Z</time>
      </trkpt>
      <trkpt lat="48.165390" lon="3.171820">
        <time>2017-06-24T16:37:12Z</time>
      </trkpt>
      <trkpt lat="48.165390" lon="3.171820">
        <time>2017-06-24T16:37:13Z</time>
      </trkpt>
      <trkpt lat="48.165390" lon="3.171820">
        <time>2017-06-24T16:37:14Z</time>
      </trkpt>
      <trkpt lat="48.165390" lon="3.171820">
        <time>2017-06-24T16:37:15Z</time>
      </trkpt>
      <trkpt lat="48.165390" lon="3.171820">
        <time>2017-06-24T16:37:16Z</time>
      </trkpt>
      <trkpt lat="48.165390" lon="3.171820">
        <time>2017-06-24T16:37:17Z</time>
      </trkpt>
      <trkpt lat="48.165390" lon="3.171820">
        <time>2017-06-24T16:37:18Z</time>
      </trkpt>
      <trkpt lat="48.165390" lon="3.171820">
        <time>2017-06-24T16:37:19Z</time>
      </trkpt>
      <trkpt lat="48.165390" lon="3.171820">
        <time>2017-06-24T16:37:20Z</time>
      </trkpt>
      <trkpt lat="48.165390" lon="3.171820">
        <time>2017-06-24T16:37:21Z</time>
      </trkpt>
      <trkpt lat="48.165390" lon="3.171820">
        <time>2017-06-24T16:37:22Z</time>
      </trkpt>
      <trkpt lat="48.165390" lon="3.171820">
        <time>2017-06-24T16:37:23Z</time>
      </trkpt>
      <trkpt lat="48.165390" lon="3.171820">
        <time>2017-06-24T16:37:24Z</time>
      </trkpt>
      <trkpt lat="48.165390" lon="3.171820">
        <time>2017-06-24T16:37:25Z</time>
      </trkpt>
      <trkpt lat="48.165390" lon="3.171820">
        <time>2017-06-24T16:37:26Z</time>
      </trkpt>
      <trkpt lat="48.165390" lon="3.171820">
        <time>2017-06-24T16:37:27Z</time>
      </trkpt>
      <trkpt lat="48.165390" lon="3.171820">
        <time>2017-06-24T16:37:28Z</time>
      </trkpt>
      <trkpt lat="48.165390" lon="3.171820">
        <time>2017-06-24T16:37:29Z</time>
      </trkpt>
      <trkpt lat="48.165390" lon="3.171820">
        <time>2017-06-24T16:37:30Z</time>
      </trkpt>
      <trkpt lat="48.165390" lon="3.171820">
        <time>2017-06-24T16:37:31Z</time>
      </trkpt>
      <trkpt lat="48.165390" lon="3.171820">
        <time>2017-06-24T16:37:32Z</time>
      </trkpt>
      <trkpt lat="48.165390" lon="3.171820">
        <time>2017-06-24T16:37:33Z</time>
      </trkpt>
      <trkpt lat="48.165390" lon="3.171820">
        <time>2017-06-24T16:37:34Z</time>
      </trkpt>
      <trkpt lat="48.165390" lon="3.171820">
        <time>2017-06-24T16:37:35Z</time>
      </trkpt>
      <trkpt lat="48.165390" lon="3.171820">
        <time>2017-06-24T16:37:36Z</time>
      </trkpt>
      <trkpt lat="48.165390" lon="3.171820">
        <time>2017-06-24T16:37:37Z</time>
      </trkpt>
      <trkpt lat="48.165390" lon="3.171820">
        <time>2017-06-24T16:37:38Z</time>
      </trkpt>
      <trkpt lat="48.165390" lon="3.171820">
        <time>2017-06-24T16:37:39Z</time>
      </trkpt>
      <trkpt lat="48.165390" lon="3.171820">
        <time>2017-06-24T16:37:40Z</time>
      </trkpt>
      <trkpt lat="48.165390" lon="3.171820">
        <time>2017-06-24T16:37:41Z</time>
      </trkpt>
      <trkpt lat="48.165390" lon="3.171820">
        <time>2017-06-24T16:37:42Z</time>
      </trkpt>
      <trkpt lat="48.165390" lon="3.171820">
        <time>2017-06-24T16:37:43Z</time>
      </trkpt>
      <trkpt lat="48.165390" lon="3.171820">
        <time>2017-06-24T16:37:44Z</time>
      </trkpt>
      <trkpt lat="48.165390" lon="3.171820">
        <time>2017-06-24T16:37:45Z</time>
      </trkpt>
      <trkpt lat="48.165390" lon="3.171820">
        <time>2017-06-24T16:37:46Z</time>
      </trkpt>
      <trkpt lat="48.165390" lon="3.171820">
        <time>2017-06-24T16:37:47Z</time>
      </trkpt>
      <trkpt lat="48.165390" lon="3.171820">
        <time>2017-06-24T16:37:48Z</time>
      </trkpt>
      <trkpt lat="48.165390" lon="3.171820">
        <time>2017-06-24T16:37:49Z</time>
      </trkpt>
      <trkpt lat="48.165390" lon="3.171820">
        <time>2017-06-24T16:37:50Z</time>
      </trkpt>
      <trkpt lat="48.165390" lon="3.171820">
        <time>2017-06-24T16:37:51Z</time>
      </trkpt>
      <trkpt lat="48.165390" lon="3.171820">
        <time>2017-06-24T16:37:52Z</time>
      </trkpt>
      <trkpt lat="48.165390" lon="3.171820">
        <time>2017-06-24T16:37:53Z</time>
      </trkpt>
      <trkpt lat="48.165390" lon="3.171820">
        <time>2017-06-24T16:37:54Z</time>
      </trkpt>
      <trkpt lat="48.165390" lon="3.171820">
        <time>2017-06-24T16:37:55Z</time>
      </trkpt>
      <trkpt lat="48.165390" lon="3.171820">
        <time>2017-06-24T16:37:56Z</time>
      </trkpt>
      <trkpt lat="48.165390" lon="3.171820">
        <time>2017-06-24T16:37:57Z</time>
      </trkpt>
      <trkpt lat="48.165390" lon="3.171820">
        <time>2017-06-24T16:37:58Z</time>
      </trkpt>
      <trkpt lat="48.165390" lon="3.171820">
        <time>2017-06-24T16:37:59Z</time>
      </trkpt>
      <trkpt lat="48.165390" lon="3.171820">
        <time>2017-06-24T16:38:00Z</time>
      </trkpt>
      <trkpt lat="48.165390" lon="3.171820">
        <time>2017-06-24T16:38:01Z</time>
      </trkpt>
      <trkpt lat="48.165390" lon="3.171820">
        <time>2017-06-24T16:38:02Z</time>
      </trkpt>
      <trkpt lat="48.165390" lon="3.171820">
        <time>2017-06-24T16:38:03Z</time>
      </trkpt>
      <trkpt lat="48.165390" lon="3.171820">
        <time>2017-06-24T16:38:04Z</time>
      </trkpt>
      <trkpt lat="48.165390" lon="3.171820">
        <time>2017-06-24T16:38:05Z</time>
      </trkpt>
      <trkpt lat="48.165390" lon="3.171820">
        <time>2017-06-24T16:38:06Z</time>
      </trkpt>
      <trkpt lat="48.165390" lon="3.171820">
        <time>2017-06-24T16:38:07Z</time>
      </trkpt>
      <trkpt lat="48.165390" lon="3.171820">
        <time>2017-06-24T16:38:08Z</time>
      </trkpt>
      <trkpt lat="48.165390" lon="3.171820">
        <time>2017-06-24T16:38:09Z</time>
      </trkpt>
      <trkpt lat="48.165390" lon="3.171820">
        <time>2017-06-24T16:38:10Z</time>
      </trkpt>
      <trkpt lat="48.165390" lon="3.171820">
        <time>2017-06-24T16:38:11Z</time>
      </trkpt>
      <trkpt lat="48.165390" lon="3.171820">
        <time>2017-06-24T16:38:12Z</time>
      </trkpt>
      <trkpt lat="48.165390" lon="3.171820">
        <time>2017-06-24T16:38:13Z</time>
      </trkpt>
      <trkpt lat="48.165390" lon="3.171820">
        <time>2017-06-24T16:38:14Z</time>
      </trkpt>
      <trkpt lat="48.165390" lon="3.171820">
        <time>2017-06-24T16:38:15Z</time>
      </trkpt>
      <trkpt lat="48.165390" lon="3.171820">
        <time>2017-06-24T16:38:16Z</time>
      </trkpt>
      <trkpt lat="48.165390" lon="3.171820">
        <time>2017-06-24T16:38:17Z</time>
      </trkpt>
      <trkpt lat="48.165390" lon="3.171820">
        <time>2017-06-24T16:38:18Z</time>
      </trkpt>
      <trkpt lat="48.165390" lon="3.171820">
        <time>2017-06-24T16:38:19Z</time>
      </trkpt>
      <trkpt lat="48.165390" lon="3.171820">
        <time>2017-06-24T16:38:20Z</time>
      </trkpt>
      <trkpt lat="48.165390" lon="3.171820">
        <time>2017-06-24T16:38:21Z</time>
      </trkpt>
      <trkpt lat="48.165390" lon="3.171820">
        <time>2017-06-24T16:38:22Z</time>
      </trkpt>
      <trkpt lat="48.165390" lon="3.171820">
        <time>2017-06-24T16:38:23Z</time>
      </trkpt>
      <trkpt lat="48.165390" lon="3.171820">
        <time>2017-06-24T16:38:24Z</time>
      </trkpt>
      <trkpt lat="48.165390" lon="3.171820">
        <time>2017-06-24T16:38:25Z</time>
      </trkpt>
      <trkpt lat="48.165390" lon="3.171820">
        <time>2017-06-24T16:38:26Z</time>
      </trkpt>
      <trkpt lat="48.165390" lon="3.171820">
        <time>2017-06-24T16:38:27Z</time>
      </trkpt>
      <trkpt lat="48.165390" lon="3.171820">
        <time>2017-06-24T16:38:28Z</time>
      </trkpt>
      <trkpt lat="48.165390" lon="3.171820">
        <time>2017-06-24T16:38:29Z</time>
      </trkpt>
      <trkpt lat="48.165390" lon="3.171820">
        <time>2017-06-24T16:38:30Z</time>
      </trkpt>
      <trkpt lat="48.165390" lon="3.171820">
        <time>2017-06-24T16:38:31Z</time>
      </trkpt>
      <trkpt lat="48.165390" lon="3.171820">
        <time>2017-06-24T16:38:32Z</time>
      </trkpt>
      <trkpt lat="48.165400" lon="3.171820">
        <time>2017-06-24T16:38:33Z</time>
      </trkpt>
      <trkpt lat="48.165400" lon="3.171820">
        <time>2017-06-24T16:38:34Z</time>
      </trkpt>
      <trkpt lat="48.165400" lon="3.171820">
        <time>2017-06-24T16:38:35Z</time>
      </trkpt>
      <trkpt lat="48.165400" lon="3.171820">
        <time>2017-06-24T16:38:36Z</time>
      </trkpt>
      <trkpt lat="48.165400" lon="3.171820">
        <time>2017-06-24T16:38:37Z</time>
      </trkpt>
      <trkpt lat="48.165400" lon="3.171820">
        <time>2017-06-24T16:38:38Z</time>
      </trkpt>
      <trkpt lat="48.165400" lon="3.171820">
        <time>2017-06-24T16:38:39Z</time>
      </trkpt>
      <trkpt lat="48.165400" lon="3.171820">
        <time>2017-06-24T16:38:40Z</time>
      </trkpt>
      <trkpt lat="48.165400" lon="3.171820">
        <time>2017-06-24T16:38:41Z</time>
      </trkpt>
      <trkpt lat="48.165400" lon="3.171810">
        <time>2017-06-24T16:38:42Z</time>
      </trkpt>
      <trkpt lat="48.165400" lon="3.171810">
        <time>2017-06-24T16:38:43Z</time>
      </trkpt>
      <trkpt lat="48.165400" lon="3.171820">
        <time>2017-06-24T16:38:44Z</time>
      </trkpt>
      <trkpt lat="48.165420" lon="3.171840">
        <time>2017-06-24T16:38:45Z</time>
      </trkpt>
      <trkpt lat="48.165440" lon="3.171850">
        <time>2017-06-24T16:38:46Z</time>
      </trkpt>
      <trkpt lat="48.165480" lon="3.171850">
        <time>2017-06-24T16:38:47Z</time>
      </trkpt>
      <trkpt lat="48.165530" lon="3.171820">
        <time>2017-06-24T16:38:48Z</time>
      </trkpt>
      <trkpt lat="48.165590" lon="3.171730">
        <time>2017-06-24T16:38:49Z</time>
      </trkpt>
      <trkpt lat="48.165640" lon="3.171690">
        <time>2017-06-24T16:38:50Z</time>
      </trkpt>
      <trkpt lat="48.165690" lon="3.171650">
        <time>2017-06-24T16:38:51Z</time>
      </trkpt>
      <trkpt lat="48.165740" lon="3.171600">
        <time>2017-06-24T16:38:52Z</time>
      </trkpt>
      <trkpt lat="48.165790" lon="3.171530">
        <time>2017-06-24T16:38:53Z</time>
      </trkpt>
      <trkpt lat="48.165830" lon="3.171460">
        <time>2017-06-24T16:38:54Z</time>
      </trkpt>
      <trkpt lat="48.165870" lon="3.171400">
        <time>2017-06-24T16:38:55Z</time>
      </trkpt>
      <trkpt lat="48.165920" lon="3.171340">
        <time>2017-06-24T16:38:56Z</time>
      </trkpt>
      <trkpt lat="48.165980" lon="3.171300">
        <time>2017-06-24T16:38:57Z</time>
      </trkpt>
      <trkpt lat="48.166040" lon="3.171260">
        <time>2017-06-24T16:38:58Z</time>
      </trkpt>
      <trkpt lat="48.166090" lon="3.171250">
        <time>2017-06-24T16:38:59Z</time>
      </trkpt>
      <trkpt lat="48.166150" lon="3.171250">
        <time>2017-06-24T16:39:00Z</time>
      </trkpt>
      <trkpt lat="48.166200" lon="3.171280">
        <time>2017-06-24T16:39:01Z</time>
      </trkpt>
      <trkpt lat="48.166250" lon="3.171310">
        <time>2017-06-24T16:39:02Z</time>
      </trkpt>
      <trkpt lat="48.166300" lon="3.171360">
        <time>2017-06-24T16:39:03Z</time>
      </trkpt>
      <trkpt lat="48.166350" lon="3.171400">
        <time>2017-06-24T16:39:04Z</time>
      </trkpt>
      <trkpt lat="48.166400" lon="3.171450">
        <time>2017-06-24T16:39:05Z</time>
      </trkpt>
      <trkpt lat="48.166450" lon="3.171490">
        <time>2017-06-24T16:39:06Z</time>
      </trkpt>
      <trkpt lat="48.166470" lon="3.171530">
        <time>2017-06-24T16:39:07Z</time>
      </trkpt>
      <trkpt lat="48.166500" lon="3.171560">
        <time>2017-06-24T16:39:08Z</time>
      </trkpt>
      <trkpt lat="48.166530" lon="3.171600">
        <time>2017-06-24T16:39:09Z</time>
      </trkpt>
      <trkpt lat="48.166580" lon="3.171640">
        <time>2017-06-24T16:39:10Z</time>
      </trkpt>
      <trkpt lat="48.166650" lon="3.171670">
        <time>2017-06-24T16:39:11Z</time>
      </trkpt>
      <trkpt lat="48.166720" lon="3.171680">
        <time>2017-06-24T16:39:12Z</time>
      </trkpt>
      <trkpt lat="48.166810" lon="3.171700">
        <time>2017-06-24T16:39:13Z</time>
      </trkpt>
      <trkpt lat="48.166900" lon="3.171720">
        <time>2017-06-24T16:39:14Z</time>
      </trkpt>
      <trkpt lat="48.166980" lon="3.171730">
        <time>2017-06-24T16:39:15Z</time>
      </trkpt>
      <trkpt lat="48.167070" lon="3.171760">
        <time>2017-06-24T16:39:16Z</time>
      </trkpt>
      <trkpt lat="48.167140" lon="3.171790">
        <time>2017-06-24T16:39:17Z</time>
      </trkpt>
      <trkpt lat="48.167220" lon="3.171830">
        <time>2017-06-24T16:39:18Z</time>
      </trkpt>
      <trkpt lat="48.167290" lon="3.171890">
        <time>2017-06-24T16:39:19Z</time>
      </trkpt>
      <trkpt lat="48.167350" lon="3.171950">
        <time>2017-06-24T16:39:20Z</time>
      </trkpt>
      <trkpt lat="48.167420" lon="3.172000">
        <time>2017-06-24T16:39:21Z</time>
      </trkpt>
      <trkpt lat="48.167490" lon="3.172080">
        <time>2017-06-24T16:39:22Z</time>
      </trkpt>
      <trkpt lat="48.167560" lon="3.172150">
        <time>2017-06-24T16:39:23Z</time>
      </trkpt>
      <trkpt lat="48.167650" lon="3.172250">
        <time>2017-06-24T16:39:24Z</time>
      </trkpt>
      <trkpt lat="48.167740" lon="3.172330">
        <time>2017-06-24T16:39:25Z</time>
      </trkpt>
      <trkpt lat="48.167830" lon="3.172400">
        <time>2017-06-24T16:39:26Z</time>
      </trkpt>
      <trkpt lat="48.167940" lon="3.172470">
        <time>2017-06-24T16:39:27Z</time>
      </trkpt>
      <trkpt lat="48.168040" lon="3.172510">
        <time>2017-06-24T16:39:28Z</time>
      </trkpt>
      <trkpt lat="48.168140" lon="3.172540">
        <time>2017-06-24T16:39:29Z</time>
      </trkpt>
      <trkpt lat="48.168240" lon="3.172580">
        <time>2017-06-24T16:39:30Z</time>
      </trkpt>
      <trkpt lat="48.168340" lon="3.172600">
        <time>2017-06-24T16:39:31Z</time>
      </trkpt>
      <trkpt lat="48.168460" lon="3.172640">
        <time>2017-06-24T16:39:32Z</time>
      </trkpt>
      <trkpt lat="48.168570" lon="3.172690">
        <time>2017-06-24T16:39:33Z</time>
      </trkpt>
      <trkpt lat="48.168680" lon="3.172790">
        <time>2017-06-24T16:39:34Z</time>
      </trkpt>
      <trkpt lat="48.168790" lon="3.172930">
        <time>2017-06-24T16:39:35Z</time>
      </trkpt>
      <trkpt lat="48.168880" lon="3.173070">
        <time>2017-06-24T16:39:36Z</time>
      </trkpt>
      <trkpt lat="48.168950" lon="3.173240">
        <time>2017-06-24T16:39:37Z</time>
      </trkpt>
      <trkpt lat="48.169010" lon="3.173430">
        <time>2017-06-24T16:39:38Z</time>
      </trkpt>
      <trkpt lat="48.169030" lon="3.173610">
        <time>2017-06-24T16:39:39Z</time>
      </trkpt>
      <trkpt lat="48.169040" lon="3.173810">
        <time>2017-06-24T16:39:40Z</time>
      </trkpt>
      <trkpt lat="48.169030" lon="3.173980">
        <time>2017-06-24T16:39:41Z</time>
      </trkpt>
      <trkpt lat="48.169000" lon="3.174170">
        <time>2017-06-24T16:39:42Z</time>
      </trkpt>
      <trkpt lat="48.168940" lon="3.174340">
        <time>2017-06-24T16:39:43Z</time>
      </trkpt>
      <trkpt lat="48.168880" lon="3.174490">
        <time>2017-06-24T16:39:44Z</time>
      </trkpt>
      <trkpt lat="48.168790" lon="3.174630">
        <time>2017-06-24T16:39:45Z</time>
      </trkpt>
      <trkpt lat="48.168690" lon="3.174760">
        <time>2017-06-24T16:39:46Z</time>
      </trkpt>
      <trkpt lat="48.168580" lon="3.174840">
        <time>2017-06-24T16:39:47Z</time>
      </trkpt>
      <trkpt lat="48.168460" lon="3.174910">
        <time>2017-06-24T16:39:48Z</time>
      </trkpt>
      <trkpt lat="48.168350" lon="3.174950">
        <time>2017-06-24T16:39:49Z</time>
      </trkpt>
      <trkpt lat="48.168220" lon="3.174960">
        <time>2017-06-24T16:39:50Z</time>
      </trkpt>
      <trkpt lat="48.168060" lon="3.174930">
        <time>2017-06-24T16:39:51Z</time>
      </trkpt>
      <trkpt lat="48.167930" lon="3.174890">
        <time>2017-06-24T16:39:52Z</time>
      </trkpt>
      <trkpt lat="48.167790" lon="3.174850">
        <time>2017-06-24T16:39:53Z</time>
      </trkpt>
      <trkpt lat="48.167640" lon="3.174800">
        <time>2017-06-24T16:39:54Z</time>
      </trkpt>
      <trkpt lat="48.167510" lon="3.174760">
        <time>2017-06-24T16:39:55Z</time>
      </trkpt>
      <trkpt lat="48.167360" lon="3.174710">
        <time>2017-06-24T16:39:56Z</time>
      </trkpt>
      <trkpt lat="48.167230" lon="3.174680">
        <time>2017-06-24T16:39:57Z</time>
      </trkpt>
      <trkpt lat="48.167100" lon="3.174650">
        <time>2017-06-24T16:39:58Z</time>
      </trkpt>
      <trkpt lat="48.166940" lon="3.174640">
        <time>2017-06-24T16:39:59Z</time>
      </trkpt>
      <trkpt lat="48.166820" lon="3.174650">
        <time>2017-06-24T16:40:00Z</time>
      </trkpt>
      <trkpt lat="48.166690" lon="3.174660">
        <time>2017-06-24T16:40:01Z</time>
      </trkpt>
      <trkpt lat="48.166570" lon="3.174700">
        <time>2017-06-24T16:40:02Z</time>
      </trkpt>
      <trkpt lat="48.166460" lon="3.174740">
        <time>2017-06-24T16:40:03Z</time>
      </trkpt>
      <trkpt lat="48.166360" lon="3.174790">
        <time>2017-06-24T16:40:04Z</time>
      </trkpt>
      <trkpt lat="48.166280" lon="3.174830">
        <time>2017-06-24T16:40:05Z</time>
      </trkpt>
      <trkpt lat="48.166210" lon="3.174870">
        <time>2017-06-24T16:40:06Z</time>
      </trkpt>
      <trkpt lat="48.166140" lon="3.174900">
        <time>2017-06-24T16:40:07Z</time>
      </trkpt>
      <trkpt lat="48.166060" lon="3.174900">
        <time>2017-06-24T16:40:08Z</time>
      </trkpt>
      <trkpt lat="48.165980" lon="3.174870">
        <time>2017-06-24T16:40:09Z</time>
      </trkpt>
      <trkpt lat="48.165880" lon="3.174850">
        <time>2017-06-24T16:40:10Z</time>
      </trkpt>
      <trkpt lat="48.165810" lon="3.174850">
        <time>2017-06-24T16:40:11Z</time>
      </trkpt>
      <trkpt lat="48.165730" lon="3.174910">
        <time>2017-06-24T16:40:12Z</time>
      </trkpt>
      <trkpt lat="48.165680" lon="3.174980">
        <time>2017-06-24T16:40:13Z</time>
      </trkpt>
      <trkpt lat="48.165640" lon="3.175090">
        <time>2017-06-24T16:40:14Z</time>
      </trkpt>
      <trkpt lat="48.165620" lon="3.175230">
        <time>2017-06-24T16:40:15Z</time>
      </trkpt>
      <trkpt lat="48.165630" lon="3.175350">
        <time>2017-06-24T16:40:16Z</time>
      </trkpt>
      <trkpt lat="48.165670" lon="3.175470">
        <time>2017-06-24T16:40:17Z</time>
      </trkpt>
      <trkpt lat="48.165750" lon="3.175580">
        <time>2017-06-24T16:40:18Z</time>
      </trkpt>
      <trkpt lat="48.165830" lon="3.175680">
        <time>2017-06-24T16:40:19Z</time>
      </trkpt>
      <trkpt lat="48.165910" lon="3.175800">
        <time>2017-06-24T16:40:20Z</time>
      </trkpt>
      <trkpt lat="48.165950" lon="3.175920">
        <time>2017-06-24T16:40:21Z</time>
      </trkpt>
      <trkpt lat="48.165980" lon="3.176050">
        <time>2017-06-24T16:40:22Z</time>
      </trkpt>
      <trkpt lat="48.166010" lon="3.176180">
        <time>2017-06-24T16:40:23Z</time>
      </trkpt>
      <trkpt lat="48.166030" lon="3.176280">
        <time>2017-06-24T16:40:24Z</time>
      </trkpt>
      <trkpt lat="48.166050" lon="3.176380">
        <time>2017-06-24T16:40:25Z</time>
      </trkpt>
      <trkpt lat="48.166070" lon="3.176490">
        <time>2017-06-24T16:40:26Z</time>
      </trkpt>
      <trkpt lat="48.166090" lon="3.176580">
        <time>2017-06-24T16:40:27Z</time>
      </trkpt>
      <trkpt lat="48.166120" lon="3.176700">
        <time>2017-06-24T16:40:28Z</time>
      </trkpt>
      <trkpt lat="48.166150" lon="3.176830">
        <time>2017-06-24T16:40:29Z</time>
      </trkpt>
      <trkpt lat="48.166180" lon="3.176980">
        <time>2017-06-24T16:40:30Z</time>
      </trkpt>
      <trkpt lat="48.166210" lon="3.177140">
        <time>2017-06-24T16:40:31Z</time>
      </trkpt>
      <trkpt lat="48.166230" lon="3.177280">
        <time>2017-06-24T16:40:32Z</time>
      </trkpt>
      <trkpt lat="48.166210" lon="3.177440">
        <time>2017-06-24T16:40:33Z</time>
      </trkpt>
      <trkpt lat="48.166180" lon="3.177590">
        <time>2017-06-24T16:40:34Z</time>
      </trkpt>
      <trkpt lat="48.166150" lon="3.177750">
        <time>2017-06-24T16:40:35Z</time>
      </trkpt>
      <trkpt lat="48.166150" lon="3.177910">
        <time>2017-06-24T16:40:36Z</time>
      </trkpt>
      <trkpt lat="48.166180" lon="3.178030">
        <time>2017-06-24T16:40:37Z</time>
      </trkpt>
      <trkpt lat="48.166240" lon="3.178140">
        <time>2017-06-24T16:40:38Z</time>
      </trkpt>
      <trkpt lat="48.166330" lon="3.178190">
        <time>2017-06-24T16:40:39Z</time>
      </trkpt>
      <trkpt lat="48.166410" lon="3.178180">
        <time>2017-06-24T16:40:40Z</time>
      </trkpt>
      <trkpt lat="48.166500" lon="3.178130">
        <time>2017-06-24T16:40:41Z</time>
      </trkpt>
      <trkpt lat="48.166580" lon="3.178010">
        <time>2017-06-24T16:40:42Z</time>
      </trkpt>
      <trkpt lat="48.166630" lon="3.177880">
        <time>2017-06-24T16:40:43Z</time>
      </trkpt>
      <trkpt lat="48.166700" lon="3.177730">
        <time>2017-06-24T16:40:44Z</time>
      </trkpt>
      <trkpt lat="48.166780" lon="3.177620">
        <time>2017-06-24T16:40:45Z</time>
      </trkpt>
      <trkpt lat="48.166890" lon="3.177530">
        <time>2017-06-24T16:40:46Z</time>
      </trkpt>
      <trkpt lat="48.167030" lon="3.177440">
        <time>2017-06-24T16:40:47Z</time>
      </trkpt>
      <trkpt lat="48.167170" lon="3.177360">
        <time>2017-06-24T16:40:48Z</time>
      </trkpt>
      <trkpt lat="48.167340" lon="3.177270">
        <time>2017-06-24T16:40:49Z</time>
      </trkpt>
      <trkpt lat="48.167530" lon="3.177180">
        <time>2017-06-24T16:40:50Z</time>
      </trkpt>
      <trkpt lat="48.167750" lon="3.177100">
        <time>2017-06-24T16:40:51Z</time>
      </trkpt>
      <trkpt lat="48.167990" lon="3.177020">
        <time>2017-06-24T16:40:52Z</time>
      </trkpt>
      <trkpt lat="48.168210" lon="3.176980">
        <time>2017-06-24T16:40:53Z</time>
      </trkpt>
      <trkpt lat="48.168440" lon="3.176940">
        <time>2017-06-24T16:40:54Z</time>
      </trkpt>
      <trkpt lat="48.168690" lon="3.176910">
        <time>2017-06-24T16:40:55Z</time>
      </trkpt>
      <trkpt lat="48.168920" lon="3.176890">
        <time>2017-06-24T16:40:56Z</time>
      </trkpt>
      <trkpt lat="48.169180" lon="3.176880">
        <time>2017-06-24T16:40:57Z</time>
      </trkpt>
      <trkpt lat="48.169470" lon="3.176860">
        <time>2017-06-24T16:40:58Z</time>
      </trkpt>
      <trkpt lat="48.169730" lon="3.176850">
        <time>2017-06-24T16:40:59Z</time>
      </trkpt>
      <trkpt lat="48.170040" lon="3.176820">
        <time>2017-06-24T16:41:00Z</time>
      </trkpt>
      <trkpt lat="48.170320" lon="3.176790">
        <time>2017-06-24T16:41:01Z</time>
      </trkpt>
      <trkpt lat="48.170620" lon="3.176760">
        <time>2017-06-24T16:41:02Z</time>
      </trkpt>
      <trkpt lat="48.170950" lon="3.176720">
        <time>2017-06-24T16:41:03Z</time>
      </trkpt>
      <trkpt lat="48.171250" lon="3.176690">
        <time>2017-06-24T16:41:04Z</time>
      </trkpt>
      <trkpt lat="48.171570" lon="3.176650">
        <time>2017-06-24T16:41:05Z</time>
      </trkpt>
      <trkpt lat="48.171880" lon="3.176600">
        <time>2017-06-24T16:41:06Z</time>
      </trkpt>
      <trkpt lat="48.172180" lon="3.176550">
        <time>2017-06-24T16:41:07Z</time>
      </trkpt>
      <trkpt lat="48.172510" lon="3.176510">
        <time>2017-06-24T16:41:08Z</time>
      </trkpt>
      <trkpt lat="48.172800" lon="3.176470">
        <time>2017-06-24T16:41:09Z</time>
      </trkpt>
      <trkpt lat="48.173120" lon="3.176430">
        <time>2017-06-24T16:41:10Z</time>
      </trkpt>
      <trkpt lat="48.173460" lon="3.176380">
        <time>2017-06-24T16:41:11Z</time>
      </trkpt>
      <trkpt lat="48.173770" lon="3.176330">
        <time>2017-06-24T16:41:12Z</time>
      </trkpt>
      <trkpt lat="48.174100" lon="3.176290">
        <time>2017-06-24T16:41:13Z</time>
      </trkpt>
      <trkpt lat="48.174450" lon="3.176250">
        <time>2017-06-24T16:41:14Z</time>
      </trkpt>
      <trkpt lat="48.174760" lon="3.176210">
        <time>2017-06-24T16:41:15Z</time>
      </trkpt>
      <trkpt lat="48.175120" lon="3.176170">
        <time>2017-06-24T16:41:16Z</time>
      </trkpt>
      <trkpt lat="48.175430" lon="3.176160">
        <time>2017-06-24T16:41:17Z</time>
      </trkpt>
      <trkpt lat="48.175760" lon="3.176150">
        <time>2017-06-24T16:41:18Z</time>
      </trkpt>
      <trkpt lat="48.176110" lon="3.176150">
        <time>2017-06-24T16:41:19Z</time>
      </trkpt>
      <trkpt lat="48.176420" lon="3.176160">
        <time>2017-06-24T16:41:20Z</time>
      </trkpt>
      <trkpt lat="48.176750" lon="3.176180">
        <time>2017-06-24T16:41:21Z</time>
      </trkpt>
      <trkpt lat="48.177080" lon="3.176210">
        <time>2017-06-24T16:41:22Z</time>
      </trkpt>
      <trkpt lat="48.177410" lon="3.176250">
        <time>2017-06-24T16:41:23Z</time>
      </trkpt>
      <trkpt lat="48.177760" lon="3.176300">
        <time>2017-06-24T16:41:24Z</time>
      </trkpt>
      <trkpt lat="48.178060" lon="3.176350">
        <time>2017-06-24T16:41:25Z</time>
      </trkpt>
      <trkpt lat="48.178390" lon="3.176410">
        <time>2017-06-24T16:41:26Z</time>
      </trkpt>
      <trkpt lat="48.178730" lon="3.176480">
        <time>2017-06-24T16:41:27Z</time>
      </trkpt>
      <trkpt lat="48.179030" lon="3.176560">
        <time>2017-06-24T16:41:28Z</time>
      </trkpt>
      <trkpt lat="48.179360" lon="3.176650">
        <time>2017-06-24T16:41:29Z</time>
      </trkpt>
      <trkpt lat="48.179700" lon="3.176770">
        <time>2017-06-24T16:41:30Z</time>
      </trkpt>
      <trkpt lat="48.179990" lon="3.176880">
        <time>2017-06-24T16:41:31Z</time>
      </trkpt>
      <trkpt lat="48.180310" lon="3.177010">
        <time>2017-06-24T16:41:32Z</time>
      </trkpt>
      <trkpt lat="48.180600" lon="3.177140">
        <time>2017-06-24T16:41:33Z</time>
      </trkpt>
      <trkpt lat="48.180900" lon="3.177300">
        <time>2017-06-24T16:41:34Z</time>
      </trkpt>
      <trkpt lat="48.181220" lon="3.177480">
        <time>2017-06-24T16:41:35Z</time>
      </trkpt>
      <trkpt lat="48.181500" lon="3.177630">
        <time>2017-06-24T16:41:36Z</time>
      </trkpt>
      <trkpt lat="48.181800" lon="3.177810">
        <time>2017-06-24T16:41:37Z</time>
      </trkpt>
      <trkpt lat="48.182090" lon="3.177990">
        <time>2017-06-24T16:41:38Z</time>
      </trkpt>
      <trkpt lat="48.182390" lon="3.178170">
        <time>2017-06-24T16:41:39Z</time>
      </trkpt>
      <trkpt lat="48.182700" lon="3.178380">
        <time>2017-06-24T16:41:40Z</time>
      </trkpt>
      <trkpt lat="48.182970" lon="3.178570">
        <time>2017-06-24T16:41:41Z</time>
      </trkpt>
      <trkpt lat="48.183260" lon="3.178790">
        <time>2017-06-24T16:41:42Z</time>
      </trkpt>
      <trkpt lat="48.183570" lon="3.179030">
        <time>2017-06-24T16:41:43Z</time>
      </trkpt>
      <trkpt lat="48.183840" lon="3.179250">
        <time>2017-06-24T16:41:44Z</time>
      </trkpt>
      <trkpt lat="48.184120" lon="3.179490">
        <time>2017-06-24T16:41:45Z</time>
      </trkpt>
      <trkpt lat="48.184420" lon="3.179760">
        <time>2017-06-24T16:41:46Z</time>
      </trkpt>
      <trkpt lat="48.184680" lon="3.180000">
        <time>2017-06-24T16:41:47Z</time>
      </trkpt>
      <trkpt lat="48.184970" lon="3.180280">
        <time>2017-06-24T16:41:48Z</time>
      </trkpt>
      <trkpt lat="48.185220" lon="3.180550">
        <time>2017-06-24T16:41:49Z</time>
      </trkpt>
      <trkpt lat="48.185490" lon="3.180840">
        <time>2017-06-24T16:41:50Z</time>
      </trkpt>
      <trkpt lat="48.185770" lon="3.181150">
        <time>2017-06-24T16:41:51Z</time>
      </trkpt>
      <trkpt lat="48.186000" lon="3.181430">
        <time>2017-06-24T16:41:52Z</time>
      </trkpt>
      <trkpt lat="48.186260" lon="3.181730">
        <time>2017-06-24T16:41:53Z</time>
      </trkpt>
      <trkpt lat="48.186510" lon="3.182050">
        <time>2017-06-24T16:41:54Z</time>
      </trkpt>
      <trkpt lat="48.186750" lon="3.182370">
        <time>2017-06-24T16:41:55Z</time>
      </trkpt>
      <trkpt lat="48.187010" lon="3.182720">
        <time>2017-06-24T16:41:56Z</time>
      </trkpt>
      <trkpt lat="48.187240" lon="3.183030">
        <time>2017-06-24T16:41:57Z</time>
      </trkpt>
      <trkpt lat="48.187480" lon="3.183360">
        <time>2017-06-24T16:41:58Z</time>
      </trkpt>
      <trkpt lat="48.187740" lon="3.183720">
        <time>2017-06-24T16:41:59Z</time>
      </trkpt>
      <trkpt lat="48.187960" lon="3.184040">
        <time>2017-06-24T16:42:00Z</time>
      </trkpt>
      <trkpt lat="48.188210" lon="3.184380">
        <time>2017-06-24T16:42:01Z</time>
      </trkpt>
      <trkpt lat="48.188470" lon="3.184740">
        <time>2017-06-24T16:42:02Z</time>
      </trkpt>
      <trkpt lat="48.188690" lon="3.185060">
        <time>2017-06-24T16:42:03Z</time>
      </trkpt>
      <trkpt lat="48.188940" lon="3.185430">
        <time>2017-06-24T16:42:04Z</time>
      </trkpt>
      <trkpt lat="48.189160" lon="3.185740">
        <time>2017-06-24T16:42:05Z</time>
      </trkpt>
      <trkpt lat="48.189410" lon="3.186090">
        <time>2017-06-24T16:42:06Z</time>
      </trkpt>
      <trkpt lat="48.189660" lon="3.186450">
        <time>2017-06-24T16:42:07Z</time>
      </trkpt>
      <trkpt lat="48.189880" lon="3.186770">
        <time>2017-06-24T16:42:08Z</time>
      </trkpt>
      <trkpt lat="48.190110" lon="3.187110">
        <time>2017-06-24T16:42:09Z</time>
      </trkpt>
      <trkpt lat="48.190350" lon="3.187460">
        <time>2017-06-24T16:42:10Z</time>
      </trkpt>
      <trkpt lat="48.190580" lon="3.187800">
        <time>2017-06-24T16:42:11Z</time>
      </trkpt>
      <trkpt lat="48.190840" lon="3.188160">
        <time>2017-06-24T16:42:12Z</time>
      </trkpt>
      <trkpt lat="48.191060" lon="3.188480">
        <time>2017-06-24T16:42:13Z</time>
      </trkpt>
      <trkpt lat="48.191290" lon="3.188830">
        <time>2017-06-24T16:42:14Z</time>
      </trkpt>
      <trkpt lat="48.191540" lon="3.189180">
        <time>2017-06-24T16:42:15Z</time>
      </trkpt>
      <trkpt lat="48.191760" lon="3.189490">
        <time>2017-06-24T16:42:16Z</time>
      </trkpt>
      <trkpt lat="48.191990" lon="3.189820">
        <time>2017-06-24T16:42:17Z</time>
      </trkpt>
      <trkpt lat="48.192240" lon="3.190180">
        <time>2017-06-24T16:42:18Z</time>
      </trkpt>
      <trkpt lat="48.192450" lon="3.190500">
        <time>2017-06-24T16:42:19Z</time>
      </trkpt>
      <trkpt lat="48.192700" lon="3.190870">
        <time>2017-06-24T16:42:20Z</time>
      </trkpt>
      <trkpt lat="48.192920" lon="3.191190">
        <time>2017-06-24T16:42:21Z</time>
      </trkpt>
      <trkpt lat="48.193150" lon="3.191540">
        <time>2017-06-24T16:42:22Z</time>
      </trkpt>
      <trkpt lat="48.193400" lon="3.191920">
        <time>2017-06-24T16:42:23Z</time>
      </trkpt>
      <trkpt lat="48.193610" lon="3.192240">
        <time>2017-06-24T16:42:24Z</time>
      </trkpt>
      <trkpt lat="48.193840" lon="3.192580">
        <time>2017-06-24T16:42:25Z</time>
      </trkpt>
      <trkpt lat="48.194060" lon="3.192900">
        <time>2017-06-24T16:42:26Z</time>
      </trkpt>
      <trkpt lat="48.194260" lon="3.193220">
        <time>2017-06-24T16:42:27Z</time>
      </trkpt>
      <trkpt lat="48.194470" lon="3.193540">
        <time>2017-06-24T16:42:28Z</time>
      </trkpt>
      <trkpt lat="48.194650" lon="3.193800">
        <time>2017-06-24T16:42:29Z</time>
      </trkpt>
      <trkpt lat="48.194830" lon="3.194090">
        <time>2017-06-24T16:42:30Z</time>
      </trkpt>
      <trkpt lat="48.195030" lon="3.194410">
        <time>2017-06-24T16:42:31Z</time>
      </trkpt>
      <trkpt lat="48.195210" lon="3.194700">
        <time>2017-06-24T16:42:32Z</time>
      </trkpt>
      <trkpt lat="48.195410" lon="3.195010">
        <time>2017-06-24T16:42:33Z</time>
      </trkpt>
      <trkpt lat="48.195620" lon="3.195360">
        <time>2017-06-24T16:42:34Z</time>
      </trkpt>
      <trkpt lat="48.195810" lon="3.195670">
        <time>2017-06-24T16:42:35Z</time>
      </trkpt>
      <trkpt lat="48.196040" lon="3.196030">
        <time>2017-06-24T16:42:36Z</time>
      </trkpt>
      <trkpt lat="48.196240" lon="3.196360">
        <time>2017-06-24T16:42:37Z</time>
      </trkpt>
      <trkpt lat="48.196460" lon="3.196710">
        <time>2017-06-24T16:42:38Z</time>
      </trkpt>
      <trkpt lat="48.196680" lon="3.197090">
        <time>2017-06-24T16:42:39Z</time>
      </trkpt>
      <trkpt lat="48.196880" lon="3.197420">
        <time>2017-06-24T16:42:40Z</time>
      </trkpt>
      <trkpt lat="48.197090" lon="3.197780">
        <time>2017-06-24T16:42:41Z</time>
      </trkpt>
      <trkpt lat="48.197300" lon="3.198150">
        <time>2017-06-24T16:42:42Z</time>
      </trkpt>
      <trkpt lat="48.197520" lon="3.198520">
        <time>2017-06-24T16:42:43Z</time>
      </trkpt>
      <trkpt lat="48.197750" lon="3.198910">
        <time>2017-06-24T16:42:44Z</time>
      </trkpt>
      <trkpt lat="48.197940" lon="3.199270">
        <time>2017-06-24T16:42:45Z</time>
      </trkpt>
      <trkpt lat="48.198150" lon="3.199650">
        <time>2017-06-24T16:42:46Z</time>
      </trkpt>
      <trkpt lat="48.198380" lon="3.200070">
        <time>2017-06-24T16:42:47Z</time>
      </trkpt>
      <trkpt lat="48.198570" lon="3.200430">
        <time>2017-06-24T16:42:48Z</time>
      </trkpt>
      <trkpt lat="48.198780" lon="3.200820">
        <time>2017-06-24T16:42:49Z</time>
      </trkpt>
      <trkpt lat="48.199010" lon="3.201230">
        <time>2017-06-24T16:42:50Z</time>
      </trkpt>
      <trkpt lat="48.199200" lon="3.201590">
        <time>2017-06-24T16:42:51Z</time>
      </trkpt>
      <trkpt lat="48.199420" lon="3.202010">
        <time>2017-06-24T16:42:52Z</time>
      </trkpt>
      <trkpt lat="48.199610" lon="3.202380">
        <time>2017-06-24T16:42:53Z</time>
      </trkpt>
      <trkpt lat="48.199810" lon="3.202770">
        <time>2017-06-24T16:42:54Z</time>
      </trkpt>
      <trkpt lat="48.200030" lon="3.203200">
        <time>2017-06-24T16:42:55Z</time>
      </trkpt>
      <trkpt lat="48.200220" lon="3.203580">
        <time>2017-06-24T16:42:56Z</time>
      </trkpt>
      <trkpt lat="48.200420" lon="3.203980">
        <time>2017-06-24T16:42:57Z</time>
      </trkpt>
      <trkpt lat="48.200620" lon="3.204380">
        <time>2017-06-24T16:42:58Z</time>
      </trkpt>
      <trkpt lat="48.200810" lon="3.204790">
        <time>2017-06-24T16:42:59Z</time>
      </trkpt>
      <trkpt lat="48.201010" lon="3.205210">
        <time>2017-06-24T16:43:00Z</time>
      </trkpt>
      <trkpt lat="48.201190" lon="3.205590">
        <time>2017-06-24T16:43:01Z</time>
      </trkpt>
      <trkpt lat="48.201370" lon="3.206000">
        <time>2017-06-24T16:43:02Z</time>
      </trkpt>
      <trkpt lat="48.201570" lon="3.206430">
        <time>2017-06-24T16:43:03Z</time>
      </trkpt>
      <trkpt lat="48.201740" lon="3.206810">
        <time>2017-06-24T16:43:04Z</time>
      </trkpt>
      <trkpt lat="48.201920" lon="3.207210">
        <time>2017-06-24T16:43:05Z</time>
      </trkpt>
      <trkpt lat="48.202120" lon="3.207640">
        <time>2017-06-24T16:43:06Z</time>
      </trkpt>
      <trkpt lat="48.202280" lon="3.208030">
        <time>2017-06-24T16:43:07Z</time>
      </trkpt>
      <trkpt lat="48.202470" lon="3.208460">
        <time>2017-06-24T16:43:08Z</time>
      </trkpt>
      <trkpt lat="48.202640" lon="3.208860">
        <time>2017-06-24T16:43:09Z</time>
      </trkpt>
      <trkpt lat="48.202820" lon="3.209280">
        <time>2017-06-24T16:43:10Z</time>
      </trkpt>
      <trkpt lat="48.203010" lon="3.209720">
        <time>2017-06-24T16:43:11Z</time>
      </trkpt>
      <trkpt lat="48.203160" lon="3.210110">
        <time>2017-06-24T16:43:12Z</time>
      </trkpt>
      <trkpt lat="48.203340" lon="3.210530">
        <time>2017-06-24T16:43:13Z</time>
      </trkpt>
      <trkpt lat="48.203510" lon="3.210950">
        <time>2017-06-24T16:43:14Z</time>
      </trkpt>
      <trkpt lat="48.203680" lon="3.211370">
        <time>2017-06-24T16:43:15Z</time>
      </trkpt>
      <trkpt lat="48.203860" lon="3.211820">
        <time>2017-06-24T16:43:16Z</time>
      </trkpt>
      <trkpt lat="48.204020" lon="3.212210">
        <time>2017-06-24T16:43:17Z</time>
      </trkpt>
      <trkpt lat="48.204190" lon="3.212630">
        <time>2017-06-24T16:43:18Z</time>
      </trkpt>
      <trkpt lat="48.204370" lon="3.213090">
        <time>2017-06-24T16:43:19Z</time>
      </trkpt>
      <trkpt lat="48.204530" lon="3.213490">
        <time>2017-06-24T16:43:20Z</time>
      </trkpt>
      <trkpt lat="48.204700" lon="3.213910">
        <time>2017-06-24T16:43:21Z</time>
      </trkpt>
      <trkpt lat="48.204880" lon="3.214360">
        <time>2017-06-24T16:43:22Z</time>
      </trkpt>
      <trkpt lat="48.205040" lon="3.214750">
        <time>2017-06-24T16:43:23Z</time>
      </trkpt>
      <trkpt lat="48.205220" lon="3.215190">
        <time>2017-06-24T16:43:24Z</time>
      </trkpt>
      <trkpt lat="48.205380" lon="3.215580">
        <time>2017-06-24T16:43:25Z</time>
      </trkpt>
      <trkpt lat="48.205550" lon="3.215990">
        <time>2017-06-24T16:43:26Z</time>
      </trkpt>
      <trkpt lat="48.205740" lon="3.216430">
        <time>2017-06-24T16:43:27Z</time>
      </trkpt>
      <trkpt lat="48.205910" lon="3.216820">
        <time>2017-06-24T16:43:28Z</time>
      </trkpt>
      <trkpt lat="48.206090" lon="3.217240">
        <time>2017-06-24T16:43:29Z</time>
      </trkpt>
      <trkpt lat="48.206270" lon="3.217660">
        <time>2017-06-24T16:43:30Z</time>
      </trkpt>
      <trkpt lat="48.206460" lon="3.218090">
        <time>2017-06-24T16:43:31Z</time>
      </trkpt>
      <trkpt lat="48.206670" lon="3.218540">
        <time>2017-06-24T16:43:32Z</time>
      </trkpt>
      <trkpt lat="48.206840" lon="3.218930">
        <time>2017-06-24T16:43:33Z</time>
      </trkpt>
      <trkpt lat="48.207040" lon="3.219350">
        <time>2017-06-24T16:43:34Z</time>
      </trkpt>
      <trkpt lat="48.207250" lon="3.219800">
        <time>2017-06-24T16:43:35Z</time>
      </trkpt>
      <trkpt lat="48.207440" lon="3.220200">
        <time>2017-06-24T16:43:36Z</time>
      </trkpt>
      <trkpt lat="48.207640" lon="3.220620">
        <time>2017-06-24T16:43:37Z</time>
      </trkpt>
      <trkpt lat="48.207870" lon="3.221070">
        <time>2017-06-24T16:43:38Z</time>
      </trkpt>
      <trkpt lat="48.208070" lon="3.221450">
        <time>2017-06-24T16:43:39Z</time>
      </trkpt>
      <trkpt lat="48.208300" lon="3.221900">
        <time>2017-06-24T16:43:40Z</time>
      </trkpt>
      <trkpt lat="48.208500" lon="3.222290">
        <time>2017-06-24T16:43:41Z</time>
      </trkpt>
      <trkpt lat="48.208720" lon="3.222700">
        <time>2017-06-24T16:43:42Z</time>
      </trkpt>
      <trkpt lat="48.208960" lon="3.223140">
        <time>2017-06-24T16:43:43Z</time>
      </trkpt>
      <trkpt lat="48.209160" lon="3.223530">
        <time>2017-06-24T16:43:44Z</time>
      </trkpt>
      <trkpt lat="48.209390" lon="3.223940">
        <time>2017-06-24T16:43:45Z</time>
      </trkpt>
      <trkpt lat="48.209610" lon="3.224340">
        <time>2017-06-24T16:43:46Z</time>
      </trkpt>
      <trkpt lat="48.209840" lon="3.224740">
        <time>2017-06-24T16:43:47Z</time>
      </trkpt>
      <trkpt lat="48.210080" lon="3.225170">
        <time>2017-06-24T16:43:48Z</time>
      </trkpt>
      <trkpt lat="48.210290" lon="3.225540">
        <time>2017-06-24T16:43:49Z</time>
      </trkpt>
      <trkpt lat="48.210500" lon="3.225940">
        <time>2017-06-24T16:43:50Z</time>
      </trkpt>
      <trkpt lat="48.210740" lon="3.226350">
        <time>2017-06-24T16:43:51Z</time>
      </trkpt>
      <trkpt lat="48.210950" lon="3.226710">
        <time>2017-06-24T16:43:52Z</time>
      </trkpt>
      <trkpt lat="48.211160" lon="3.227090">
        <time>2017-06-24T16:43:53Z</time>
      </trkpt>
      <trkpt lat="48.211400" lon="3.227490">
        <time>2017-06-24T16:43:54Z</time>
      </trkpt>
      <trkpt lat="48.211620" lon="3.227840">
        <time>2017-06-24T16:43:55Z</time>
      </trkpt>
      <trkpt lat="48.211860" lon="3.228230">
        <time>2017-06-24T16:43:56Z</time>
      </trkpt>
      <trkpt lat="48.212070" lon="3.228570">
        <time>2017-06-24T16:43:57Z</time>
      </trkpt>
      <trkpt lat="48.212310" lon="3.228920">
        <time>2017-06-24T16:43:58Z</time>
      </trkpt>
      <trkpt lat="48.212560" lon="3.229300">
        <time>2017-06-24T16:43:59Z</time>
      </trkpt>
      <trkpt lat="48.212780" lon="3.229620">
        <time>2017-06-24T16:44:00Z</time>
      </trkpt>
      <trkpt lat="48.213020" lon="3.229960">
        <time>2017-06-24T16:44:01Z</time>
      </trkpt>
      <trkpt lat="48.213260" lon="3.230300">
        <time>2017-06-24T16:44:02Z</time>
      </trkpt>
      <trkpt lat="48.213490" lon="3.230630">
        <time>2017-06-24T16:44:03Z</time>
      </trkpt>
      <trkpt lat="48.213750" lon="3.230990">
        <time>2017-06-24T16:44:04Z</time>
      </trkpt>
      <trkpt lat="48.213980" lon="3.231300">
        <time>2017-06-24T16:44:05Z</time>
      </trkpt>
      <trkpt lat="48.214220" lon="3.231630">
        <time>2017-06-24T16:44:06Z</time>
      </trkpt>
      <trkpt lat="48.214480" lon="3.231960">
        <time>2017-06-24T16:44:07Z</time>
      </trkpt>
      <trkpt lat="48.214720" lon="3.232250">
        <time>2017-06-24T16:44:08Z</time>
      </trkpt>
      <trkpt lat="48.214960" lon="3.232550">
        <time>2017-06-24T16:44:09Z</time>
      </trkpt>
      <trkpt lat="48.215230" lon="3.232860">
        <time>2017-06-24T16:44:10Z</time>
      </trkpt>
      <trkpt lat="48.215470" lon="3.233120">
        <time>2017-06-24T16:44:11Z</time>
      </trkpt>
      <trkpt lat="48.215740" lon="3.233420">
        <time>2017-06-24T16:44:12Z</time>
      </trkpt>
      <trkpt lat="48.215990" lon="3.233670">
        <time>2017-06-24T16:44:13Z</time>
      </trkpt>
      <trkpt lat="48.216250" lon="3.233930">
        <time>2017-06-24T16:44:14Z</time>
      </trkpt>
      <trkpt lat="48.216530" lon="3.234210">
        <time>2017-06-24T16:44:15Z</time>
      </trkpt>
      <trkpt lat="48.216790" lon="3.234440">
        <time>2017-06-24T16:44:16Z</time>
      </trkpt>
      <trkpt lat="48.217060" lon="3.234690">
        <time>2017-06-24T16:44:17Z</time>
      </trkpt>
      <trkpt lat="48.217330" lon="3.234930">
        <time>2017-06-24T16:44:18Z</time>
      </trkpt>
      <trkpt lat="48.217600" lon="3.235150">
        <time>2017-06-24T16:44:19Z</time>
      </trkpt>
      <trkpt lat="48.217900" lon="3.235390">
        <time>2017-06-24T16:44:20Z</time>
      </trkpt>
      <trkpt lat="48.218170" lon="3.235600">
        <time>2017-06-24T16:44:21Z</time>
      </trkpt>
      <trkpt lat="48.218450" lon="3.235800">
        <time>2017-06-24T16:44:22Z</time>
      </trkpt>
      <trkpt lat="48.218760" lon="3.236020">
        <time>2017-06-24T16:44:23Z</time>
      </trkpt>
      <trkpt lat="48.219030" lon="3.236200">
        <time>2017-06-24T16:44:24Z</time>
      </trkpt>
      <trkpt lat="48.219320" lon="3.236400">
        <time>2017-06-24T16:44:25Z</time>
      </trkpt>
      <trkpt lat="48.219630" lon="3.236610">
        <time>2017-06-24T16:44:26Z</time>
      </trkpt>
      <trkpt lat="48.219890" lon="3.236790">
        <time>2017-06-24T16:44:27Z</time>
      </trkpt>
      <trkpt lat="48.220190" lon="3.236990">
        <time>2017-06-24T16:44:28Z</time>
      </trkpt>
      <trkpt lat="48.220460" lon="3.237170">
        <time>2017-06-24T16:44:29Z</time>
      </trkpt>
      <trkpt lat="48.220740" lon="3.237350">
        <time>2017-06-24T16:44:30Z</time>
      </trkpt>
      <trkpt lat="48.221040" lon="3.237540">
        <time>2017-06-24T16:44:31Z</time>
      </trkpt>
      <trkpt lat="48.221300" lon="3.237710">
        <time>2017-06-24T16:44:32Z</time>
      </trkpt>
      <trkpt lat="48.221580" lon="3.237890">
        <time>2017-06-24T16:44:33Z</time>
      </trkpt>
      <trkpt lat="48.221860" lon="3.238070">
        <time>2017-06-24T16:44:34Z</time>
      </trkpt>
      <trkpt lat="48.222140" lon="3.238250">
        <time>2017-06-24T16:44:35Z</time>
      </trkpt>
      <trkpt lat="48.222450" lon="3.238430">
        <time>2017-06-24T16:44:36Z</time>
      </trkpt>
      <trkpt lat="48.222710" lon="3.238600">
        <time>2017-06-24T16:44:37Z</time>
      </trkpt>
      <trkpt lat="48.223000" lon="3.238790">
        <time>2017-06-24T16:44:38Z</time>
      </trkpt>
      <trkpt lat="48.223300" lon="3.238990">
        <time>2017-06-24T16:44:39Z</time>
      </trkpt>
      <trkpt lat="48.223580" lon="3.239170">
        <time>2017-06-24T16:44:40Z</time>
      </trkpt>
      <trkpt lat="48.223870" lon="3.239370">
        <time>2017-06-24T16:44:41Z</time>
      </trkpt>
      <trkpt lat="48.224190" lon="3.239580">
        <time>2017-06-24T16:44:42Z</time>
      </trkpt>
      <trkpt lat="48.224460" lon="3.239770">
        <time>2017-06-24T16:44:43Z</time>
      </trkpt>
      <trkpt lat="48.224780" lon="3.239980">
        <time>2017-06-24T16:44:44Z</time>
      </trkpt>
      <trkpt lat="48.225050" lon="3.240170">
        <time>2017-06-24T16:44:45Z</time>
      </trkpt>
      <trkpt lat="48.225350" lon="3.240370">
        <time>2017-06-24T16:44:46Z</time>
      </trkpt>
      <trkpt lat="48.225670" lon="3.240580">
        <time>2017-06-24T16:44:47Z</time>
      </trkpt>
      <trkpt lat="48.225940" lon="3.240760">
        <time>2017-06-24T16:44:48Z</time>
      </trkpt>
      <trkpt lat="48.226230" lon="3.240960">
        <time>2017-06-24T16:44:49Z</time>
      </trkpt>
      <trkpt lat="48.226520" lon="3.241160">
        <time>2017-06-24T16:44:50Z</time>
      </trkpt>
      <trkpt lat="48.226810" lon="3.241360">
        <time>2017-06-24T16:44:51Z</time>
      </trkpt>
      <trkpt lat="48.227120" lon="3.241590">
        <time>2017-06-24T16:44:52Z</time>
      </trkpt>
      <trkpt lat="48.227380" lon="3.241790">
        <time>2017-06-24T16:44:53Z</time>
      </trkpt>
      <trkpt lat="48.227670" lon="3.242010">
        <time>2017-06-24T16:44:54Z</time>
      </trkpt>
      <trkpt lat="48.227960" lon="3.242250">
        <time>2017-06-24T16:44:55Z</time>
      </trkpt>
      <trkpt lat="48.228220" lon="3.242460">
        <time>2017-06-24T16:44:56Z</time>
      </trkpt>
      <trkpt lat="48.228500" lon="3.242690">
        <time>2017-06-24T16:44:57Z</time>
      </trkpt>
      <trkpt lat="48.228800" lon="3.242940">
        <time>2017-06-24T16:44:58Z</time>
      </trkpt>
      <trkpt lat="48.229050" lon="3.243170">
        <time>2017-06-24T16:44:59Z</time>
      </trkpt>
      <trkpt lat="48.229340" lon="3.243430">
        <time>2017-06-24T16:45:00Z</time>
      </trkpt>
      <trkpt lat="48.229590" lon="3.243670">
        <time>2017-06-24T16:45:01Z</time>
      </trkpt>
      <trkpt lat="48.229860" lon="3.243930">
        <time>2017-06-24T16:45:02Z</time>
      </trkpt>
      <trkpt lat="48.230140" lon="3.244210">
        <time>2017-06-24T16:45:03Z</time>
      </trkpt>
      <trkpt lat="48.230390" lon="3.244460">
        <time>2017-06-24T16:45:04Z</time>
      </trkpt>
      <trkpt lat="48.230650" lon="3.244730">
        <time>2017-06-24T16:45:05Z</time>
      </trkpt>
      <trkpt lat="48.230910" lon="3.244990">
        <time>2017-06-24T16:45:06Z</time>
      </trkpt>
      <trkpt lat="48.231170" lon="3.245270">
        <time>2017-06-24T16:45:07Z</time>
      </trkpt>
      <trkpt lat="48.231440" lon="3.245580">
        <time>2017-06-24T16:45:08Z</time>
      </trkpt>
      <trkpt lat="48.231680" lon="3.245850">
        <time>2017-06-24T16:45:09Z</time>
      </trkpt>
      <trkpt lat="48.231920" lon="3.246140">
        <time>2017-06-24T16:45:10Z</time>
      </trkpt>
      <trkpt lat="48.232180" lon="3.246450">
        <time>2017-06-24T16:45:11Z</time>
      </trkpt>
      <trkpt lat="48.232410" lon="3.246730">
        <time>2017-06-24T16:45:12Z</time>
      </trkpt>
      <trkpt lat="48.232650" lon="3.247030">
        <time>2017-06-24T16:45:13Z</time>
      </trkpt>
      <trkpt lat="48.232890" lon="3.247360">
        <time>2017-06-24T16:45:14Z</time>
      </trkpt>
      <trkpt lat="48.233110" lon="3.247650">
        <time>2017-06-24T16:45:15Z</time>
      </trkpt>
      <trkpt lat="48.233350" lon="3.247980">
        <time>2017-06-24T16:45:16Z</time>
      </trkpt>
      <trkpt lat="48.233560" lon="3.248270">
        <time>2017-06-24T16:45:17Z</time>
      </trkpt>
      <trkpt lat="48.233790" lon="3.248580">
        <time>2017-06-24T16:45:18Z</time>
      </trkpt>
      <trkpt lat="48.234020" lon="3.248920">
        <time>2017-06-24T16:45:19Z</time>
      </trkpt>
      <trkpt lat="48.234230" lon="3.249220">
        <time>2017-06-24T16:45:20Z</time>
      </trkpt>
      <trkpt lat="48.234440" lon="3.249540">
        <time>2017-06-24T16:45:21Z</time>
      </trkpt>
      <trkpt lat="48.234650" lon="3.249870">
        <time>2017-06-24T16:45:22Z</time>
      </trkpt>
      <trkpt lat="48.234860" lon="3.250190">
        <time>2017-06-24T16:45:23Z</time>
      </trkpt>
      <trkpt lat="48.235070" lon="3.250540">
        <time>2017-06-24T16:45:24Z</time>
      </trkpt>
      <trkpt lat="48.235260" lon="3.250860">
        <time>2017-06-24T16:45:25Z</time>
      </trkpt>
      <trkpt lat="48.235450" lon="3.251190">
        <time>2017-06-24T16:45:26Z</time>
      </trkpt>
      <trkpt lat="48.235660" lon="3.251540">
        <time>2017-06-24T16:45:27Z</time>
      </trkpt>
      <trkpt lat="48.235830" lon="3.251860">
        <time>2017-06-24T16:45:28Z</time>
      </trkpt>
      <trkpt lat="48.236020" lon="3.252190">
        <time>2017-06-24T16:45:29Z</time>
      </trkpt>
      <trkpt lat="48.236210" lon="3.252550">
        <time>2017-06-24T16:45:30Z</time>
      </trkpt>
      <trkpt lat="48.236390" lon="3.252860">
        <time>2017-06-24T16:45:31Z</time>
      </trkpt>
      <trkpt lat="48.236590" lon="3.253210">
        <time>2017-06-24T16:45:32Z</time>
      </trkpt>
      <trkpt lat="48.236770" lon="3.253520">
        <time>2017-06-24T16:45:33Z</time>
      </trkpt>
      <trkpt lat="48.236950" lon="3.253860">
        <time>2017-06-24T16:45:34Z</time>
      </trkpt>
      <trkpt lat="48.237150" lon="3.254210">
        <time>2017-06-24T16:45:35Z</time>
      </trkpt>
      <trkpt lat="48.237330" lon="3.254530">
        <time>2017-06-24T16:45:36Z</time>
      </trkpt>
      <trkpt lat="48.237510" lon="3.254850">
        <time>2017-06-24T16:45:37Z</time>
      </trkpt>
      <trkpt lat="48.237690" lon="3.255180">
        <time>2017-06-24T16:45:38Z</time>
      </trkpt>
      <trkpt lat="48.237870" lon="3.255510">
        <time>2017-06-24T16:45:39Z</time>
      </trkpt>
      <trkpt lat="48.238060" lon="3.255850">
        <time>2017-06-24T16:45:40Z</time>
      </trkpt>
      <trkpt lat="48.238230" lon="3.256150">
        <time>2017-06-24T16:45:41Z</time>
      </trkpt>
      <trkpt lat="48.238410" lon="3.256470">
        <time>2017-06-24T16:45:42Z</time>
      </trkpt>
      <trkpt lat="48.238600" lon="3.256820">
        <time>2017-06-24T16:45:43Z</time>
      </trkpt>
      <trkpt lat="48.238770" lon="3.257120">
        <time>2017-06-24T16:45:44Z</time>
      </trkpt>
      <trkpt lat="48.238950" lon="3.257440">
        <time>2017-06-24T16:45:45Z</time>
      </trkpt>
      <trkpt lat="48.239140" lon="3.257780">
        <time>2017-06-24T16:45:46Z</time>
      </trkpt>
      <trkpt lat="48.239310" lon="3.258080">
        <time>2017-06-24T16:45:47Z</time>
      </trkpt>
      <trkpt lat="48.239510" lon="3.258420">
        <time>2017-06-24T16:45:48Z</time>
      </trkpt>
      <trkpt lat="48.239690" lon="3.258730">
        <time>2017-06-24T16:45:49Z</time>
      </trkpt>
      <trkpt lat="48.239880" lon="3.259060">
        <time>2017-06-24T16:45:50Z</time>
      </trkpt>
      <trkpt lat="48.240080" lon="3.259410">
        <time>2017-06-24T16:45:51Z</time>
      </trkpt>
      <trkpt lat="48.240270" lon="3.259720">
        <time>2017-06-24T16:45:52Z</time>
      </trkpt>
      <trkpt lat="48.240470" lon="3.260040">
        <time>2017-06-24T16:45:53Z</time>
      </trkpt>
      <trkpt lat="48.240680" lon="3.260360">
        <time>2017-06-24T16:45:54Z</time>
      </trkpt>
      <trkpt lat="48.240890" lon="3.260670">
        <time>2017-06-24T16:45:55Z</time>
      </trkpt>
      <trkpt lat="48.241110" lon="3.261010">
        <time>2017-06-24T16:45:56Z</time>
      </trkpt>
      <trkpt lat="48.241310" lon="3.261300">
        <time>2017-06-24T16:45:57Z</time>
      </trkpt>
      <trkpt lat="48.241530" lon="3.261590">
        <time>2017-06-24T16:45:58Z</time>
      </trkpt>
      <trkpt lat="48.241760" lon="3.261910">
        <time>2017-06-24T16:45:59Z</time>
      </trkpt>
      <trkpt lat="48.241970" lon="3.262190">
        <time>2017-06-24T16:46:00Z</time>
      </trkpt>
      <trkpt lat="48.242200" lon="3.262500">
        <time>2017-06-24T16:46:01Z</time>
      </trkpt>
      <trkpt lat="48.242440" lon="3.262820">
        <time>2017-06-24T16:46:02Z</time>
      </trkpt>
      <trkpt lat="48.242660" lon="3.263120">
        <time>2017-06-24T16:46:03Z</time>
      </trkpt>
      <trkpt lat="48.242900" lon="3.263440">
        <time>2017-06-24T16:46:04Z</time>
      </trkpt>
      <trkpt lat="48.243130" lon="3.263720">
        <time>2017-06-24T16:46:05Z</time>
      </trkpt>
      <trkpt lat="48.243360" lon="3.264020">
        <time>2017-06-24T16:46:06Z</time>
      </trkpt>
      <trkpt lat="48.243620" lon="3.264320">
        <time>2017-06-24T16:46:07Z</time>
      </trkpt>
      <trkpt lat="48.243850" lon="3.264580">
        <time>2017-06-24T16:46:08Z</time>
      </trkpt>
      <trkpt lat="48.244100" lon="3.264860">
        <time>2017-06-24T16:46:09Z</time>
      </trkpt>
      <trkpt lat="48.244350" lon="3.265140">
        <time>2017-06-24T16:46:10Z</time>
      </trkpt>
      <trkpt lat="48.244590" lon="3.265410">
        <time>2017-06-24T16:46:11Z</time>
      </trkpt>
      <trkpt lat="48.244860" lon="3.265700">
        <time>2017-06-24T16:46:12Z</time>
      </trkpt>
      <trkpt lat="48.245100" lon="3.265940">
        <time>2017-06-24T16:46:13Z</time>
      </trkpt>
      <trkpt lat="48.245360" lon="3.266190">
        <time>2017-06-24T16:46:14Z</time>
      </trkpt>
      <trkpt lat="48.245630" lon="3.266460">
        <time>2017-06-24T16:46:15Z</time>
      </trkpt>
      <trkpt lat="48.245880" lon="3.266690">
        <time>2017-06-24T16:46:16Z</time>
      </trkpt>
      <trkpt lat="48.246140" lon="3.266930">
        <time>2017-06-24T16:46:17Z</time>
      </trkpt>
      <trkpt lat="48.246410" lon="3.267200">
        <time>2017-06-24T16:46:18Z</time>
      </trkpt>
      <trkpt lat="48.246650" lon="3.267430">
        <time>2017-06-24T16:46:19Z</time>
      </trkpt>
      <trkpt lat="48.246920" lon="3.267690">
        <time>2017-06-24T16:46:20Z</time>
      </trkpt>
      <trkpt lat="48.247150" lon="3.267930">
        <time>2017-06-24T16:46:21Z</time>
      </trkpt>
      <trkpt lat="48.247410" lon="3.268180">
        <time>2017-06-24T16:46:22Z</time>
      </trkpt>
      <trkpt lat="48.247680" lon="3.268440">
        <time>2017-06-24T16:46:23Z</time>
      </trkpt>
      <trkpt lat="48.247910" lon="3.268680">
        <time>2017-06-24T16:46:24Z</time>
      </trkpt>
      <trkpt lat="48.248150" lon="3.268950">
        <time>2017-06-24T16:46:25Z</time>
      </trkpt>
      <trkpt lat="48.248400" lon="3.269220">
        <time>2017-06-24T16:46:26Z</time>
      </trkpt>
      <trkpt lat="48.248640" lon="3.269490">
        <time>2017-06-24T16:46:27Z</time>
      </trkpt>
      <trkpt lat="48.248900" lon="3.269780">
        <time>2017-06-24T16:46:28Z</time>
      </trkpt>
      <trkpt lat="48.249120" lon="3.270050">
        <time>2017-06-24T16:46:29Z</time>
      </trkpt>
      <trkpt lat="48.249350" lon="3.270350">
        <time>2017-06-24T16:46:30Z</time>
      </trkpt>
      <trkpt lat="48.249590" lon="3.270670">
        <time>2017-06-24T16:46:31Z</time>
      </trkpt>
      <trkpt lat="48.249810" lon="3.270940">
        <time>2017-06-24T16:46:32Z</time>
      </trkpt>
      <trkpt lat="48.250020" lon="3.271250">
        <time>2017-06-24T16:46:33Z</time>
      </trkpt>
      <trkpt lat="48.250260" lon="3.271600">
        <time>2017-06-24T16:46:34Z</time>
      </trkpt>
      <trkpt lat="48.250470" lon="3.271890">
        <time>2017-06-24T16:46:35Z</time>
      </trkpt>
      <trkpt lat="48.250690" lon="3.272240">
        <time>2017-06-24T16:46:36Z</time>
      </trkpt>
      <trkpt lat="48.250890" lon="3.272560">
        <time>2017-06-24T16:46:37Z</time>
      </trkpt>
      <trkpt lat="48.251090" lon="3.272900">
        <time>2017-06-24T16:46:38Z</time>
      </trkpt>
      <trkpt lat="48.251310" lon="3.273270">
        <time>2017-06-24T16:46:39Z</time>
      </trkpt>
      <trkpt lat="48.251500" lon="3.273590">
        <time>2017-06-24T16:46:40Z</time>
      </trkpt>
      <trkpt lat="48.251700" lon="3.273930">
        <time>2017-06-24T16:46:41Z</time>
      </trkpt>
      <trkpt lat="48.251890" lon="3.274290">
        <time>2017-06-24T16:46:42Z</time>
      </trkpt>
      <trkpt lat="48.252080" lon="3.274630">
        <time>2017-06-24T16:46:43Z</time>
      </trkpt>
      <trkpt lat="48.252280" lon="3.275000">
        <time>2017-06-24T16:46:44Z</time>
      </trkpt>
      <trkpt lat="48.252460" lon="3.275320">
        <time>2017-06-24T16:46:45Z</time>
      </trkpt>
      <trkpt lat="48.252650" lon="3.275660">
        <time>2017-06-24T16:46:46Z</time>
      </trkpt>
      <trkpt lat="48.252860" lon="3.276040">
        <time>2017-06-24T16:46:47Z</time>
      </trkpt>
      <trkpt lat="48.253040" lon="3.276370">
        <time>2017-06-24T16:46:48Z</time>
      </trkpt>
      <trkpt lat="48.253240" lon="3.276720">
        <time>2017-06-24T16:46:49Z</time>
      </trkpt>
      <trkpt lat="48.253450" lon="3.277100">
        <time>2017-06-24T16:46:50Z</time>
      </trkpt>
      <trkpt lat="48.253630" lon="3.277420">
        <time>2017-06-24T16:46:51Z</time>
      </trkpt>
      <trkpt lat="48.253840" lon="3.277790">
        <time>2017-06-24T16:46:52Z</time>
      </trkpt>
      <trkpt lat="48.254020" lon="3.278130">
        <time>2017-06-24T16:46:53Z</time>
      </trkpt>
      <trkpt lat="48.254210" lon="3.278480">
        <time>2017-06-24T16:46:54Z</time>
      </trkpt>
      <trkpt lat="48.254420" lon="3.278860">
        <time>2017-06-24T16:46:55Z</time>
      </trkpt>
      <trkpt lat="48.254600" lon="3.279190">
        <time>2017-06-24T16:46:56Z</time>
      </trkpt>
      <trkpt lat="48.254790" lon="3.279530">
        <time>2017-06-24T16:46:57Z</time>
      </trkpt>
      <trkpt lat="48.254980" lon="3.279870">
        <time>2017-06-24T16:46:58Z</time>
      </trkpt>
      <trkpt lat="48.255180" lon="3.280220">
        <time>2017-06-24T16:46:59Z</time>
      </trkpt>
      <trkpt lat="48.255380" lon="3.280580">
        <time>2017-06-24T16:47:00Z</time>
      </trkpt>
      <trkpt lat="48.255560" lon="3.280900">
        <time>2017-06-24T16:47:01Z</time>
      </trkpt>
      <trkpt lat="48.255760" lon="3.281230">
        <time>2017-06-24T16:47:02Z</time>
      </trkpt>
      <trkpt lat="48.255960" lon="3.281600">
        <time>2017-06-24T16:47:03Z</time>
      </trkpt>
      <trkpt lat="48.256140" lon="3.281910">
        <time>2017-06-24T16:47:04Z</time>
      </trkpt>
      <trkpt lat="48.256330" lon="3.282250">
        <time>2017-06-24T16:47:05Z</time>
      </trkpt>
      <trkpt lat="48.256530" lon="3.282600">
        <time>2017-06-24T16:47:06Z</time>
      </trkpt>
      <trkpt lat="48.256700" lon="3.282920">
        <time>2017-06-24T16:47:07Z</time>
      </trkpt>
      <trkpt lat="48.256910" lon="3.283280">
        <time>2017-06-24T16:47:08Z</time>
      </trkpt>
      <trkpt lat="48.257080" lon="3.283610">
        <time>2017-06-24T16:47:09Z</time>
      </trkpt>
      <trkpt lat="48.257280" lon="3.283960">
        <time>2017-06-24T16:47:10Z</time>
      </trkpt>
      <trkpt lat="48.257490" lon="3.284310">
        <time>2017-06-24T16:47:11Z</time>
      </trkpt>
      <trkpt lat="48.257680" lon="3.284610">
        <time>2017-06-24T16:47:12Z</time>
      </trkpt>
      <trkpt lat="48.257890" lon="3.284950">
        <time>2017-06-24T16:47:13Z</time>
      </trkpt>
      <trkpt lat="48.258100" lon="3.285280">
        <time>2017-06-24T16:47:14Z</time>
      </trkpt>
      <trkpt lat="48.258310" lon="3.285600">
        <time>2017-06-24T16:47:15Z</time>
      </trkpt>
      <trkpt lat="48.258540" lon="3.285930">
        <time>2017-06-24T16:47:16Z</time>
      </trkpt>
      <trkpt lat="48.258750" lon="3.286220">
        <time>2017-06-24T16:47:17Z</time>
      </trkpt>
      <trkpt lat="48.258980" lon="3.286520">
        <time>2017-06-24T16:47:18Z</time>
      </trkpt>
      <trkpt lat="48.259220" lon="3.286840">
        <time>2017-06-24T16:47:19Z</time>
      </trkpt>
      <trkpt lat="48.259430" lon="3.287110">
        <time>2017-06-24T16:47:20Z</time>
      </trkpt>
      <trkpt lat="48.259670" lon="3.287400">
        <time>2017-06-24T16:47:21Z</time>
      </trkpt>
      <trkpt lat="48.259920" lon="3.287710">
        <time>2017-06-24T16:47:22Z</time>
      </trkpt>
      <trkpt lat="48.260150" lon="3.287970">
        <time>2017-06-24T16:47:23Z</time>
      </trkpt>
      <trkpt lat="48.260410" lon="3.288250">
        <time>2017-06-24T16:47:24Z</time>
      </trkpt>
      <trkpt lat="48.260640" lon="3.288500">
        <time>2017-06-24T16:47:25Z</time>
      </trkpt>
      <trkpt lat="48.260900" lon="3.288760">
        <time>2017-06-24T16:47:26Z</time>
      </trkpt>
      <trkpt lat="48.261170" lon="3.289030">
        <time>2017-06-24T16:47:27Z</time>
      </trkpt>
      <trkpt lat="48.261410" lon="3.289260">
        <time>2017-06-24T16:47:28Z</time>
      </trkpt>
      <trkpt lat="48.261670" lon="3.289500">
        <time>2017-06-24T16:47:29Z</time>
      </trkpt>
      <trkpt lat="48.261940" lon="3.289730">
        <time>2017-06-24T16:47:30Z</time>
      </trkpt>
      <trkpt lat="48.262200" lon="3.289950">
        <time>2017-06-24T16:47:31Z</time>
      </trkpt>
      <trkpt lat="48.262480" lon="3.290190">
        <time>2017-06-24T16:47:32Z</time>
      </trkpt>
      <trkpt lat="48.262720" lon="3.290380">
        <time>2017-06-24T16:47:33Z</time>
      </trkpt>
      <trkpt lat="48.262990" lon="3.290580">
        <time>2017-06-24T16:47:34Z</time>
      </trkpt>
      <trkpt lat="48.263280" lon="3.290780">
        <time>2017-06-24T16:47:35Z</time>
      </trkpt>
      <trkpt lat="48.263530" lon="3.290960">
        <time>2017-06-24T16:47:36Z</time>
      </trkpt>
      <trkpt lat="48.263790" lon="3.291140">
        <time>2017-06-24T16:47:37Z</time>
      </trkpt>
      <trkpt lat="48.264070" lon="3.291320">
        <time>2017-06-24T16:47:38Z</time>
      </trkpt>
      <trkpt lat="48.264310" lon="3.291480">
        <time>2017-06-24T16:47:39Z</time>
      </trkpt>
      <trkpt lat="48.264590" lon="3.291660">
        <time>2017-06-24T16:47:40Z</time>
      </trkpt>
      <trkpt lat="48.264820" lon="3.291810">
        <time>2017-06-24T16:47:41Z</time>
      </trkpt>
      <trkpt lat="48.265070" lon="3.291960">
        <time>2017-06-24T16:47:42Z</time>
      </trkpt>
      <trkpt lat="48.265320" lon="3.292120">
        <time>2017-06-24T16:47:43Z</time>
      </trkpt>
      <trkpt lat="48.265550" lon="3.292260">
        <time>2017-06-24T16:47:44Z</time>
      </trkpt>
      <trkpt lat="48.265780" lon="3.292400">
        <time>2017-06-24T16:47:45Z</time>
      </trkpt>
      <trkpt lat="48.266010" lon="3.292540">
        <time>2017-06-24T16:47:46Z</time>
      </trkpt>
      <trkpt lat="48.266240" lon="3.292690">
        <time>2017-06-24T16:47:47Z</time>
      </trkpt>
      <trkpt lat="48.266470" lon="3.292870">
        <time>2017-06-24T16:47:48Z</time>
      </trkpt>
      <trkpt lat="48.266670" lon="3.293040">
        <time>2017-06-24T16:47:49Z</time>
      </trkpt>
      <trkpt lat="48.266860" lon="3.293260">
        <time>2017-06-24T16:47:50Z</time>
      </trkpt>
      <trkpt lat="48.267040" lon="3.293520">
        <time>2017-06-24T16:47:51Z</time>
      </trkpt>
      <trkpt lat="48.267190" lon="3.293780">
        <time>2017-06-24T16:47:52Z</time>
      </trkpt>
      <trkpt lat="48.267310" lon="3.294070">
        <time>2017-06-24T16:47:53Z</time>
      </trkpt>
      <trkpt lat="48.267420" lon="3.294410">
        <time>2017-06-24T16:47:54Z</time>
      </trkpt>
      <trkpt lat="48.267500" lon="3.294720">
        <time>2017-06-24T16:47:55Z</time>
      </trkpt>
      <trkpt lat="48.267570" lon="3.295080">
        <time>2017-06-24T16:47:56Z</time>
      </trkpt>
      <trkpt lat="48.267590" lon="3.295420">
        <time>2017-06-24T16:47:57Z</time>
      </trkpt>
      <trkpt lat="48.267600" lon="3.295780">
        <time>2017-06-24T16:47:58Z</time>
      </trkpt>
      <trkpt lat="48.267580" lon="3.296170">
        <time>2017-06-24T16:47:59Z</time>
      </trkpt>
      <trkpt lat="48.267530" lon="3.296510">
        <time>2017-06-24T16:48:00Z</time>
      </trkpt>
      <trkpt lat="48.267450" lon="3.296870">
        <time>2017-06-24T16:48:01Z</time>
      </trkpt>
      <trkpt lat="48.267360" lon="3.297240">
        <time>2017-06-24T16:48:02Z</time>
      </trkpt>
      <trkpt lat="48.267240" lon="3.297610">
        <time>2017-06-24T16:48:03Z</time>
      </trkpt>
      <trkpt lat="48.267100" lon="3.297990">
        <time>2017-06-24T16:48:04Z</time>
      </trkpt>
      <trkpt lat="48.266970" lon="3.298350">
        <time>2017-06-24T16:48:05Z</time>
      </trkpt>
      <trkpt lat="48.266830" lon="3.298720">
        <time>2017-06-24T16:48:06Z</time>
      </trkpt>
      <trkpt lat="48.266670" lon="3.299130">
        <time>2017-06-24T16:48:07Z</time>
      </trkpt>
      <trkpt lat="48.266530" lon="3.299490">
        <time>2017-06-24T16:48:08Z</time>
      </trkpt>
      <trkpt lat="48.266380" lon="3.299890">
        <time>2017-06-24T16:48:09Z</time>
      </trkpt>
      <trkpt lat="48.266210" lon="3.300310">
        <time>2017-06-24T16:48:10Z</time>
      </trkpt>
      <trkpt lat="48.266070" lon="3.300690">
        <time>2017-06-24T16:48:11Z</time>
      </trkpt>
      <trkpt lat="48.265890" lon="3.301120">
        <time>2017-06-24T16:48:12Z</time>
      </trkpt>
      <trkpt lat="48.265740" lon="3.301490">
        <time>2017-06-24T16:48:13Z</time>
      </trkpt>
      <trkpt lat="48.265580" lon="3.301900">
        <time>2017-06-24T16:48:14Z</time>
      </trkpt>
      <trkpt lat="48.265400" lon="3.302340">
        <time>2017-06-24T16:48:15Z</time>
      </trkpt>
      <trkpt lat="48.265250" lon="3.302720">
        <time>2017-06-24T16:48:16Z</time>
      </trkpt>
      <trkpt lat="48.265080" lon="3.303120">
        <time>2017-06-24T16:48:17Z</time>
      </trkpt>
      <trkpt lat="48.264920" lon="3.303530">
        <time>2017-06-24T16:48:18Z</time>
      </trkpt>
      <trkpt lat="48.264760" lon="3.303950">
        <time>2017-06-24T16:48:19Z</time>
      </trkpt>
      <trkpt lat="48.264580" lon="3.304390">
        <time>2017-06-24T16:48:20Z</time>
      </trkpt>
      <trkpt lat="48.264420" lon="3.304780">
        <time>2017-06-24T16:48:21Z</time>
      </trkpt>
      <trkpt lat="48.264260" lon="3.305190">
        <time>2017-06-24T16:48:22Z</time>
      </trkpt>
      <trkpt lat="48.264090" lon="3.305630">
        <time>2017-06-24T16:48:23Z</time>
      </trkpt>
      <trkpt lat="48.263930" lon="3.306010">
        <time>2017-06-24T16:48:24Z</time>
      </trkpt>
      <trkpt lat="48.263770" lon="3.306410">
        <time>2017-06-24T16:48:25Z</time>
      </trkpt>
      <trkpt lat="48.263600" lon="3.306840">
        <time>2017-06-24T16:48:26Z</time>
      </trkpt>
      <trkpt lat="48.263450" lon="3.307220">
        <time>2017-06-24T16:48:27Z</time>
      </trkpt>
      <trkpt lat="48.263280" lon="3.307650">
        <time>2017-06-24T16:48:28Z</time>
      </trkpt>
      <trkpt lat="48.263130" lon="3.308040">
        <time>2017-06-24T16:48:29Z</time>
      </trkpt>
      <trkpt lat="48.262980" lon="3.308450">
        <time>2017-06-24T16:48:30Z</time>
      </trkpt>
      <trkpt lat="48.262820" lon="3.308900">
        <time>2017-06-24T16:48:31Z</time>
      </trkpt>
      <trkpt lat="48.262680" lon="3.309300">
        <time>2017-06-24T16:48:32Z</time>
      </trkpt>
      <trkpt lat="48.262540" lon="3.309730">
        <time>2017-06-24T16:48:33Z</time>
      </trkpt>
      <trkpt lat="48.262400" lon="3.310170">
        <time>2017-06-24T16:48:34Z</time>
      </trkpt>
      <trkpt lat="48.262270" lon="3.310610">
        <time>2017-06-24T16:48:35Z</time>
      </trkpt>
      <trkpt lat="48.262130" lon="3.311090">
        <time>2017-06-24T16:48:36Z</time>
      </trkpt>
      <trkpt lat="48.262010" lon="3.311520">
        <time>2017-06-24T16:48:37Z</time>
      </trkpt>
      <trkpt lat="48.261890" lon="3.311980">
        <time>2017-06-24T16:48:38Z</time>
      </trkpt>
      <trkpt lat="48.261750" lon="3.312470">
        <time>2017-06-24T16:48:39Z</time>
      </trkpt>
      <trkpt lat="48.261640" lon="3.312900">
        <time>2017-06-24T16:48:40Z</time>
      </trkpt>
      <trkpt lat="48.261520" lon="3.313360">
        <time>2017-06-24T16:48:41Z</time>
      </trkpt>
      <trkpt lat="48.261410" lon="3.313840">
        <time>2017-06-24T16:48:42Z</time>
      </trkpt>
      <trkpt lat="48.261300" lon="3.314270">
        <time>2017-06-24T16:48:43Z</time>
      </trkpt>
      <trkpt lat="48.261190" lon="3.314750">
        <time>2017-06-24T16:48:44Z</time>
      </trkpt>
      <trkpt lat="48.261090" lon="3.315190">
        <time>2017-06-24T16:48:45Z</time>
      </trkpt>
      <trkpt lat="48.261000" lon="3.315650">
        <time>2017-06-24T16:48:46Z</time>
      </trkpt>
      <trkpt lat="48.260900" lon="3.316150">
        <time>2017-06-24T16:48:47Z</time>
      </trkpt>
      <trkpt lat="48.260810" lon="3.316580">
        <time>2017-06-24T16:48:48Z</time>
      </trkpt>
      <trkpt lat="48.260730" lon="3.317050">
        <time>2017-06-24T16:48:49Z</time>
      </trkpt>
      <trkpt lat="48.260640" lon="3.317510">
        <time>2017-06-24T16:48:50Z</time>
      </trkpt>
      <trkpt lat="48.260560" lon="3.317970">
        <time>2017-06-24T16:48:51Z</time>
      </trkpt>
      <trkpt lat="48.260470" lon="3.318470">
        <time>2017-06-24T16:48:52Z</time>
      </trkpt>
      <trkpt lat="48.260400" lon="3.318920">
        <time>2017-06-24T16:48:53Z</time>
      </trkpt>
      <trkpt lat="48.260320" lon="3.319390">
        <time>2017-06-24T16:48:54Z</time>
      </trkpt>
      <trkpt lat="48.260220" lon="3.319900">
        <time>2017-06-24T16:48:55Z</time>
      </trkpt>
      <trkpt lat="48.260150" lon="3.320350">
        <time>2017-06-24T16:48:56Z</time>
      </trkpt>
      <trkpt lat="48.260060" lon="3.320830">
        <time>2017-06-24T16:48:57Z</time>
      </trkpt>
      <trkpt lat="48.259970" lon="3.321340">
        <time>2017-06-24T16:48:58Z</time>
      </trkpt>
      <trkpt lat="48.259890" lon="3.321780">
        <time>2017-06-24T16:48:59Z</time>
      </trkpt>
      <trkpt lat="48.259800" lon="3.322300">
        <time>2017-06-24T16:49:00Z</time>
      </trkpt>
      <trkpt lat="48.259730" lon="3.322730">
        <time>2017-06-24T16:49:01Z</time>
      </trkpt>
      <trkpt lat="48.259640" lon="3.323200">
        <time>2017-06-24T16:49:02Z</time>
      </trkpt>
      <trkpt lat="48.259540" lon="3.323690">
        <time>2017-06-24T16:49:03Z</time>
      </trkpt>
      <trkpt lat="48.259460" lon="3.324130">
        <time>2017-06-24T16:49:04Z</time>
      </trkpt>
      <trkpt lat="48.259350" lon="3.324590">
        <time>2017-06-24T16:49:05Z</time>
      </trkpt>
      <trkpt lat="48.259250" lon="3.325050">
        <time>2017-06-24T16:49:06Z</time>
      </trkpt>
      <trkpt lat="48.259130" lon="3.325500">
        <time>2017-06-24T16:49:07Z</time>
      </trkpt>
      <trkpt lat="48.259010" lon="3.325980">
        <time>2017-06-24T16:49:08Z</time>
      </trkpt>
      <trkpt lat="48.258900" lon="3.326390">
        <time>2017-06-24T16:49:09Z</time>
      </trkpt>
      <trkpt lat="48.258770" lon="3.326830">
        <time>2017-06-24T16:49:10Z</time>
      </trkpt>
      <trkpt lat="48.258630" lon="3.327290">
        <time>2017-06-24T16:49:11Z</time>
      </trkpt>
      <trkpt lat="48.258510" lon="3.327680">
        <time>2017-06-24T16:49:12Z</time>
      </trkpt>
      <trkpt lat="48.258360" lon="3.328100">
        <time>2017-06-24T16:49:13Z</time>
      </trkpt>
      <trkpt lat="48.258210" lon="3.328540">
        <time>2017-06-24T16:49:14Z</time>
      </trkpt>
      <trkpt lat="48.258070" lon="3.328920">
        <time>2017-06-24T16:49:15Z</time>
      </trkpt>
      <trkpt lat="48.257900" lon="3.329360">
        <time>2017-06-24T16:49:16Z</time>
      </trkpt>
      <trkpt lat="48.257760" lon="3.329740">
        <time>2017-06-24T16:49:17Z</time>
      </trkpt>
      <trkpt lat="48.257600" lon="3.330150">
        <time>2017-06-24T16:49:18Z</time>
      </trkpt>
      <trkpt lat="48.257420" lon="3.330570">
        <time>2017-06-24T16:49:19Z</time>
      </trkpt>
      <trkpt lat="48.257260" lon="3.330950">
        <time>2017-06-24T16:49:20Z</time>
      </trkpt>
      <trkpt lat="48.257080" lon="3.331350">
        <time>2017-06-24T16:49:21Z</time>
      </trkpt>
      <trkpt lat="48.256900" lon="3.331740">
        <time>2017-06-24T16:49:22Z</time>
      </trkpt>
      <trkpt lat="48.256710" lon="3.332130">
        <time>2017-06-24T16:49:23Z</time>
      </trkpt>
      <trkpt lat="48.256500" lon="3.332530">
        <time>2017-06-24T16:49:24Z</time>
      </trkpt>
      <trkpt lat="48.256310" lon="3.332880">
        <time>2017-06-24T16:49:25Z</time>
      </trkpt>
      <trkpt lat="48.256100" lon="3.333260">
        <time>2017-06-24T16:49:26Z</time>
      </trkpt>
      <trkpt lat="48.255870" lon="3.333650">
        <time>2017-06-24T16:49:27Z</time>
      </trkpt>
      <trkpt lat="48.255670" lon="3.333990">
        <time>2017-06-24T16:49:28Z</time>
      </trkpt>
      <trkpt lat="48.255450" lon="3.334340">
        <time>2017-06-24T16:49:29Z</time>
      </trkpt>
      <trkpt lat="48.255210" lon="3.334720">
        <time>2017-06-24T16:49:30Z</time>
      </trkpt>
      <trkpt lat="48.255000" lon="3.335040">
        <time>2017-06-24T16:49:31Z</time>
      </trkpt>
      <trkpt lat="48.254760" lon="3.335400">
        <time>2017-06-24T16:49:32Z</time>
      </trkpt>
      <trkpt lat="48.254540" lon="3.335710">
        <time>2017-06-24T16:49:33Z</time>
      </trkpt>
      <trkpt lat="48.254310" lon="3.336030">
        <time>2017-06-24T16:49:34Z</time>
      </trkpt>
      <trkpt lat="48.254050" lon="3.336370">
        <time>2017-06-24T16:49:35Z</time>
      </trkpt>
      <trkpt lat="48.253830" lon="3.336660">
        <time>2017-06-24T16:49:36Z</time>
      </trkpt>
      <trkpt lat="48.253590" lon="3.336970">
        <time>2017-06-24T16:49:37Z</time>
      </trkpt>
      <trkpt lat="48.253350" lon="3.337280">
        <time>2017-06-24T16:49:38Z</time>
      </trkpt>
      <trkpt lat="48.253110" lon="3.337590">
        <time>2017-06-24T16:49:39Z</time>
      </trkpt>
      <trkpt lat="48.252860" lon="3.337910">
        <time>2017-06-24T16:49:40Z</time>
      </trkpt>
      <trkpt lat="48.252630" lon="3.338190">
        <time>2017-06-24T16:49:41Z</time>
      </trkpt>
      <trkpt lat="48.252390" lon="3.338490">
        <time>2017-06-24T16:49:42Z</time>
      </trkpt>
      <trkpt lat="48.252140" lon="3.338810">
        <time>2017-06-24T16:49:43Z</time>
      </trkpt>
      <trkpt lat="48.251930" lon="3.339100">
        <time>2017-06-24T16:49:44Z</time>
      </trkpt>
      <trkpt lat="48.251690" lon="3.339400">
        <time>2017-06-24T16:49:45Z</time>
      </trkpt>
      <trkpt lat="48.251440" lon="3.339740">
        <time>2017-06-24T16:49:46Z</time>
      </trkpt>
      <trkpt lat="48.251230" lon="3.340030">
        <time>2017-06-24T16:49:47Z</time>
      </trkpt>
      <trkpt lat="48.250980" lon="3.340370">
        <time>2017-06-24T16:49:48Z</time>
      </trkpt>
      <trkpt lat="48.250770" lon="3.340670">
        <time>2017-06-24T16:49:49Z</time>
      </trkpt>
      <trkpt lat="48.250540" lon="3.341000">
        <time>2017-06-24T16:49:50Z</time>
      </trkpt>
      <trkpt lat="48.250310" lon="3.341350">
        <time>2017-06-24T16:49:51Z</time>
      </trkpt>
      <trkpt lat="48.250110" lon="3.341660">
        <time>2017-06-24T16:49:52Z</time>
      </trkpt>
      <trkpt lat="48.249900" lon="3.342010">
        <time>2017-06-24T16:49:53Z</time>
      </trkpt>
      <trkpt lat="48.249680" lon="3.342360">
        <time>2017-06-24T16:49:54Z</time>
      </trkpt>
      <trkpt lat="48.249480" lon="3.342720">
        <time>2017-06-24T16:49:55Z</time>
      </trkpt>
      <trkpt lat="48.249250" lon="3.343110">
        <time>2017-06-24T16:49:56Z</time>
      </trkpt>
      <trkpt lat="48.249060" lon="3.343450">
        <time>2017-06-24T16:49:57Z</time>
      </trkpt>
      <trkpt lat="48.248860" lon="3.343820">
        <time>2017-06-24T16:49:58Z</time>
      </trkpt>
      <trkpt lat="48.248650" lon="3.344230">
        <time>2017-06-24T16:49:59Z</time>
      </trkpt>
      <trkpt lat="48.248470" lon="3.344590">
        <time>2017-06-24T16:50:00Z</time>
      </trkpt>
      <trkpt lat="48.248280" lon="3.344970">
        <time>2017-06-24T16:50:01Z</time>
      </trkpt>
      <trkpt lat="48.248090" lon="3.345390">
        <time>2017-06-24T16:50:02Z</time>
      </trkpt>
      <trkpt lat="48.247920" lon="3.345750">
        <time>2017-06-24T16:50:03Z</time>
      </trkpt>
      <trkpt lat="48.247730" lon="3.346170">
        <time>2017-06-24T16:50:04Z</time>
      </trkpt>
      <trkpt lat="48.247570" lon="3.346540">
        <time>2017-06-24T16:50:05Z</time>
      </trkpt>
      <trkpt lat="48.247400" lon="3.346950">
        <time>2017-06-24T16:50:06Z</time>
      </trkpt>
      <trkpt lat="48.247220" lon="3.347370">
        <time>2017-06-24T16:50:07Z</time>
      </trkpt>
      <trkpt lat="48.247070" lon="3.347750">
        <time>2017-06-24T16:50:08Z</time>
      </trkpt>
      <trkpt lat="48.246910" lon="3.348170">
        <time>2017-06-24T16:50:09Z</time>
      </trkpt>
      <trkpt lat="48.246750" lon="3.348580">
        <time>2017-06-24T16:50:10Z</time>
      </trkpt>
      <trkpt lat="48.246600" lon="3.349010">
        <time>2017-06-24T16:50:11Z</time>
      </trkpt>
      <trkpt lat="48.246440" lon="3.349470">
        <time>2017-06-24T16:50:12Z</time>
      </trkpt>
      <trkpt lat="48.246300" lon="3.349870">
        <time>2017-06-24T16:50:13Z</time>
      </trkpt>
      <trkpt lat="48.246170" lon="3.350300">
        <time>2017-06-24T16:50:14Z</time>
      </trkpt>
      <trkpt lat="48.246020" lon="3.350770">
        <time>2017-06-24T16:50:15Z</time>
      </trkpt>
      <trkpt lat="48.245900" lon="3.351170">
        <time>2017-06-24T16:50:16Z</time>
      </trkpt>
      <trkpt lat="48.245760" lon="3.351610">
        <time>2017-06-24T16:50:17Z</time>
      </trkpt>
      <trkpt lat="48.245630" lon="3.352060">
        <time>2017-06-24T16:50:18Z</time>
      </trkpt>
      <trkpt lat="48.245500" lon="3.352470">
        <time>2017-06-24T16:50:19Z</time>
      </trkpt>
      <trkpt lat="48.245370" lon="3.352930">
        <time>2017-06-24T16:50:20Z</time>
      </trkpt>
      <trkpt lat="48.245260" lon="3.353330">
        <time>2017-06-24T16:50:21Z</time>
      </trkpt>
      <trkpt lat="48.245130" lon="3.353770">
        <time>2017-06-24T16:50:22Z</time>
      </trkpt>
      <trkpt lat="48.244990" lon="3.354230">
        <time>2017-06-24T16:50:23Z</time>
      </trkpt>
      <trkpt lat="48.244870" lon="3.354650">
        <time>2017-06-24T16:50:24Z</time>
      </trkpt>
      <trkpt lat="48.244740" lon="3.355090">
        <time>2017-06-24T16:50:25Z</time>
      </trkpt>
      <trkpt lat="48.244620" lon="3.355520">
        <time>2017-06-24T16:50:26Z</time>
      </trkpt>
      <trkpt lat="48.244480" lon="3.355970">
        <time>2017-06-24T16:50:27Z</time>
      </trkpt>
      <trkpt lat="48.244350" lon="3.356430">
        <time>2017-06-24T16:50:28Z</time>
      </trkpt>
      <trkpt lat="48.244230" lon="3.356850">
        <time>2017-06-24T16:50:29Z</time>
      </trkpt>
      <trkpt lat="48.244100" lon="3.357300">
        <time>2017-06-24T16:50:30Z</time>
      </trkpt>
      <trkpt lat="48.243960" lon="3.357780">
        <time>2017-06-24T16:50:31Z</time>
      </trkpt>
      <trkpt lat="48.243830" lon="3.358200">
        <time>2017-06-24T16:50:32Z</time>
      </trkpt>
      <trkpt lat="48.243700" lon="3.358640">
        <time>2017-06-24T16:50:33Z</time>
      </trkpt>
      <trkpt lat="48.243560" lon="3.359100">
        <time>2017-06-24T16:50:34Z</time>
      </trkpt>
      <trkpt lat="48.243440" lon="3.359510">
        <time>2017-06-24T16:50:35Z</time>
      </trkpt>
      <trkpt lat="48.243300" lon="3.359970">
        <time>2017-06-24T16:50:36Z</time>
      </trkpt>
      <trkpt lat="48.243180" lon="3.360380">
        <time>2017-06-24T16:50:37Z</time>
      </trkpt>
      <trkpt lat="48.243040" lon="3.360810">
        <time>2017-06-24T16:50:38Z</time>
      </trkpt>
      <trkpt lat="48.242910" lon="3.361270">
        <time>2017-06-24T16:50:39Z</time>
      </trkpt>
      <trkpt lat="48.242780" lon="3.361680">
        <time>2017-06-24T16:50:40Z</time>
      </trkpt>
      <trkpt lat="48.242640" lon="3.362100">
        <time>2017-06-24T16:50:41Z</time>
      </trkpt>
      <trkpt lat="48.242500" lon="3.362530">
        <time>2017-06-24T16:50:42Z</time>
      </trkpt>
      <trkpt lat="48.242350" lon="3.362950">
        <time>2017-06-24T16:50:43Z</time>
      </trkpt>
      <trkpt lat="48.242200" lon="3.363400">
        <time>2017-06-24T16:50:44Z</time>
      </trkpt>
      <trkpt lat="48.242050" lon="3.363800">
        <time>2017-06-24T16:50:45Z</time>
      </trkpt>
      <trkpt lat="48.241900" lon="3.364220">
        <time>2017-06-24T16:50:46Z</time>
      </trkpt>
      <trkpt lat="48.241730" lon="3.364660">
        <time>2017-06-24T16:50:47Z</time>
      </trkpt>
      <trkpt lat="48.241590" lon="3.365060">
        <time>2017-06-24T16:50:48Z</time>
      </trkpt>
      <trkpt lat="48.241420" lon="3.365470">
        <time>2017-06-24T16:50:49Z</time>
      </trkpt>
      <trkpt lat="48.241250" lon="3.365900">
        <time>2017-06-24T16:50:50Z</time>
      </trkpt>
      <trkpt lat="48.241090" lon="3.366280">
        <time>2017-06-24T16:50:51Z</time>
      </trkpt>
      <trkpt lat="48.240910" lon="3.366710">
        <time>2017-06-24T16:50:52Z</time>
      </trkpt>
      <trkpt lat="48.240750" lon="3.367080">
        <time>2017-06-24T16:50:53Z</time>
      </trkpt>
      <trkpt lat="48.240580" lon="3.367470">
        <time>2017-06-24T16:50:54Z</time>
      </trkpt>
      <trkpt lat="48.240410" lon="3.367900">
        <time>2017-06-24T16:50:55Z</time>
      </trkpt>
      <trkpt lat="48.240250" lon="3.368260">
        <time>2017-06-24T16:50:56Z</time>
      </trkpt>
      <trkpt lat="48.240090" lon="3.368660">
        <time>2017-06-24T16:50:57Z</time>
      </trkpt>
      <trkpt lat="48.239920" lon="3.369050">
        <time>2017-06-24T16:50:58Z</time>
      </trkpt>
      <trkpt lat="48.239760" lon="3.369440">
        <time>2017-06-24T16:50:59Z</time>
      </trkpt>
      <trkpt lat="48.239590" lon="3.369850">
        <time>2017-06-24T16:51:00Z</time>
      </trkpt>
      <trkpt lat="48.239440" lon="3.370210">
        <time>2017-06-24T16:51:01Z</time>
      </trkpt>
      <trkpt lat="48.239270" lon="3.370590">
        <time>2017-06-24T16:51:02Z</time>
      </trkpt>
      <trkpt lat="48.239100" lon="3.371010">
        <time>2017-06-24T16:51:03Z</time>
      </trkpt>
      <trkpt lat="48.238950" lon="3.371370">
        <time>2017-06-24T16:51:04Z</time>
      </trkpt>
      <trkpt lat="48.238790" lon="3.371760">
        <time>2017-06-24T16:51:05Z</time>
      </trkpt>
      <trkpt lat="48.238620" lon="3.372180">
        <time>2017-06-24T16:51:06Z</time>
      </trkpt>
      <trkpt lat="48.238460" lon="3.372550">
        <time>2017-06-24T16:51:07Z</time>
      </trkpt>
      <trkpt lat="48.238290" lon="3.372970">
        <time>2017-06-24T16:51:08Z</time>
      </trkpt>
      <trkpt lat="48.238130" lon="3.373350">
        <time>2017-06-24T16:51:09Z</time>
      </trkpt>
      <trkpt lat="48.237960" lon="3.373740">
        <time>2017-06-24T16:51:10Z</time>
      </trkpt>
      <trkpt lat="48.237780" lon="3.374160">
        <time>2017-06-24T16:51:11Z</time>
      </trkpt>
      <trkpt lat="48.237630" lon="3.374530">
        <time>2017-06-24T16:51:12Z</time>
      </trkpt>
      <trkpt lat="48.237460" lon="3.374920">
        <time>2017-06-24T16:51:13Z</time>
      </trkpt>
      <trkpt lat="48.237300" lon="3.375310">
        <time>2017-06-24T16:51:14Z</time>
      </trkpt>
      <trkpt lat="48.237140" lon="3.375710">
        <time>2017-06-24T16:51:15Z</time>
      </trkpt>
      <trkpt lat="48.236970" lon="3.376130">
        <time>2017-06-24T16:51:16Z</time>
      </trkpt>
      <trkpt lat="48.236830" lon="3.376500">
        <time>2017-06-24T16:51:17Z</time>
      </trkpt>
      <trkpt lat="48.236690" lon="3.376900">
        <time>2017-06-24T16:51:18Z</time>
      </trkpt>
      <trkpt lat="48.236530" lon="3.377330">
        <time>2017-06-24T16:51:19Z</time>
      </trkpt>
      <trkpt lat="48.236400" lon="3.377710">
        <time>2017-06-24T16:51:20Z</time>
      </trkpt>
      <trkpt lat="48.236280" lon="3.378120">
        <time>2017-06-24T16:51:21Z</time>
      </trkpt>
      <trkpt lat="48.236140" lon="3.378550">
        <time>2017-06-24T16:51:22Z</time>
      </trkpt>
      <trkpt lat="48.236030" lon="3.378940">
        <time>2017-06-24T16:51:23Z</time>
      </trkpt>
      <trkpt lat="48.235900" lon="3.379380">
        <time>2017-06-24T16:51:24Z</time>
      </trkpt>
      <trkpt lat="48.235790" lon="3.379770">
        <time>2017-06-24T16:51:25Z</time>
      </trkpt>
      <trkpt lat="48.235680" lon="3.380200">
        <time>2017-06-24T16:51:26Z</time>
      </trkpt>
      <trkpt lat="48.235570" lon="3.380650">
        <time>2017-06-24T16:51:27Z</time>
      </trkpt>
      <trkpt lat="48.235480" lon="3.381050">
        <time>2017-06-24T16:51:28Z</time>
      </trkpt>
      <trkpt lat="48.235390" lon="3.381480">
        <time>2017-06-24T16:51:29Z</time>
      </trkpt>
      <trkpt lat="48.235290" lon="3.381920">
        <time>2017-06-24T16:51:30Z</time>
      </trkpt>
      <trkpt lat="48.235210" lon="3.382360">
        <time>2017-06-24T16:51:31Z</time>
      </trkpt>
      <trkpt lat="48.235120" lon="3.382840">
        <time>2017-06-24T16:51:32Z</time>
      </trkpt>
      <trkpt lat="48.235060" lon="3.383250">
        <time>2017-06-24T16:51:33Z</time>
      </trkpt>
      <trkpt lat="48.234990" lon="3.383700">
        <time>2017-06-24T16:51:34Z</time>
      </trkpt>
      <trkpt lat="48.234920" lon="3.384180">
        <time>2017-06-24T16:51:35Z</time>
      </trkpt>
      <trkpt lat="48.234860" lon="3.384610">
        <time>2017-06-24T16:51:36Z</time>
      </trkpt>
      <trkpt lat="48.234800" lon="3.385060">
        <time>2017-06-24T16:51:37Z</time>
      </trkpt>
      <trkpt lat="48.234750" lon="3.385560">
        <time>2017-06-24T16:51:38Z</time>
      </trkpt>
      <trkpt lat="48.234710" lon="3.385990">
        <time>2017-06-24T16:51:39Z</time>
      </trkpt>
      <trkpt lat="48.234660" lon="3.386490">
        <time>2017-06-24T16:51:40Z</time>
      </trkpt>
      <trkpt lat="48.234630" lon="3.386940">
        <time>2017-06-24T16:51:41Z</time>
      </trkpt>
      <trkpt lat="48.234600" lon="3.387410">
        <time>2017-06-24T16:51:42Z</time>
      </trkpt>
      <trkpt lat="48.234590" lon="3.387910">
        <time>2017-06-24T16:51:43Z</time>
      </trkpt>
      <trkpt lat="48.234570" lon="3.388360">
        <time>2017-06-24T16:51:44Z</time>
      </trkpt>
      <trkpt lat="48.234570" lon="3.388840">
        <time>2017-06-24T16:51:45Z</time>
      </trkpt>
      <trkpt lat="48.234560" lon="3.389320">
        <time>2017-06-24T16:51:46Z</time>
      </trkpt>
      <trkpt lat="48.234550" lon="3.389810">
        <time>2017-06-24T16:51:47Z</time>
      </trkpt>
      <trkpt lat="48.234560" lon="3.390330">
        <time>2017-06-24T16:51:48Z</time>
      </trkpt>
      <trkpt lat="48.234560" lon="3.390790">
        <time>2017-06-24T16:51:49Z</time>
      </trkpt>
      <trkpt lat="48.234580" lon="3.391270">
        <time>2017-06-24T16:51:50Z</time>
      </trkpt>
      <trkpt lat="48.234600" lon="3.391800">
        <time>2017-06-24T16:51:51Z</time>
      </trkpt>
      <trkpt lat="48.234620" lon="3.392250">
        <time>2017-06-24T16:51:52Z</time>
      </trkpt>
      <trkpt lat="48.234640" lon="3.392740">
        <time>2017-06-24T16:51:53Z</time>
      </trkpt>
      <trkpt lat="48.234670" lon="3.393260">
        <time>2017-06-24T16:51:54Z</time>
      </trkpt>
      <trkpt lat="48.234690" lon="3.393720">
        <time>2017-06-24T16:51:55Z</time>
      </trkpt>
      <trkpt lat="48.234720" lon="3.394250">
        <time>2017-06-24T16:51:56Z</time>
      </trkpt>
      <trkpt lat="48.234740" lon="3.394700">
        <time>2017-06-24T16:51:57Z</time>
      </trkpt>
      <trkpt lat="48.234770" lon="3.395180">
        <time>2017-06-24T16:51:58Z</time>
      </trkpt>
      <trkpt lat="48.234790" lon="3.395700">
        <time>2017-06-24T16:51:59Z</time>
      </trkpt>
      <trkpt lat="48.234810" lon="3.396160">
        <time>2017-06-24T16:52:00Z</time>
      </trkpt>
      <trkpt lat="48.234830" lon="3.396640">
        <time>2017-06-24T16:52:01Z</time>
      </trkpt>
      <trkpt lat="48.234860" lon="3.397120">
        <time>2017-06-24T16:52:02Z</time>
      </trkpt>
      <trkpt lat="48.234880" lon="3.397600">
        <time>2017-06-24T16:52:03Z</time>
      </trkpt>
      <trkpt lat="48.234900" lon="3.398120">
        <time>2017-06-24T16:52:04Z</time>
      </trkpt>
      <trkpt lat="48.234920" lon="3.398560">
        <time>2017-06-24T16:52:05Z</time>
      </trkpt>
      <trkpt lat="48.234950" lon="3.399050">
        <time>2017-06-24T16:52:06Z</time>
      </trkpt>
      <trkpt lat="48.234980" lon="3.399560">
        <time>2017-06-24T16:52:07Z</time>
      </trkpt>
      <trkpt lat="48.235000" lon="3.400010">
        <time>2017-06-24T16:52:08Z</time>
      </trkpt>
      <trkpt lat="48.235020" lon="3.400490">
        <time>2017-06-24T16:52:09Z</time>
      </trkpt>
      <trkpt lat="48.235040" lon="3.401000">
        <time>2017-06-24T16:52:10Z</time>
      </trkpt>
      <trkpt lat="48.235070" lon="3.401440">
        <time>2017-06-24T16:52:11Z</time>
      </trkpt>
      <trkpt lat="48.235090" lon="3.401950">
        <time>2017-06-24T16:52:12Z</time>
      </trkpt>
      <trkpt lat="48.235110" lon="3.402390">
        <time>2017-06-24T16:52:13Z</time>
      </trkpt>
      <trkpt lat="48.235140" lon="3.402870">
        <time>2017-06-24T16:52:14Z</time>
      </trkpt>
      <trkpt lat="48.235160" lon="3.403370">
        <time>2017-06-24T16:52:15Z</time>
      </trkpt>
      <trkpt lat="48.235170" lon="3.403810">
        <time>2017-06-24T16:52:16Z</time>
      </trkpt>
      <trkpt lat="48.235190" lon="3.404280">
        <time>2017-06-24T16:52:17Z</time>
      </trkpt>
      <trkpt lat="48.235220" lon="3.404750">
        <time>2017-06-24T16:52:18Z</time>
      </trkpt>
      <trkpt lat="48.235240" lon="3.405230">
        <time>2017-06-24T16:52:19Z</time>
      </trkpt>
      <trkpt lat="48.235250" lon="3.405740">
        <time>2017-06-24T16:52:20Z</time>
      </trkpt>
      <trkpt lat="48.235260" lon="3.406190">
        <time>2017-06-24T16:52:21Z</time>
      </trkpt>
      <trkpt lat="48.235280" lon="3.406660">
        <time>2017-06-24T16:52:22Z</time>
      </trkpt>
      <trkpt lat="48.235290" lon="3.407180">
        <time>2017-06-24T16:52:23Z</time>
      </trkpt>
      <trkpt lat="48.235300" lon="3.407620">
        <time>2017-06-24T16:52:24Z</time>
      </trkpt>
      <trkpt lat="48.235300" lon="3.408110">
        <time>2017-06-24T16:52:25Z</time>
      </trkpt>
      <trkpt lat="48.235310" lon="3.408620">
        <time>2017-06-24T16:52:26Z</time>
      </trkpt>
      <trkpt lat="48.235310" lon="3.409070">
        <time>2017-06-24T16:52:27Z</time>
      </trkpt>
      <trkpt lat="48.235310" lon="3.409570">
        <time>2017-06-24T16:52:28Z</time>
      </trkpt>
      <trkpt lat="48.235300" lon="3.410020">
        <time>2017-06-24T16:52:29Z</time>
      </trkpt>
      <trkpt lat="48.235290" lon="3.410490">
        <time>2017-06-24T16:52:30Z</time>
      </trkpt>
      <trkpt lat="48.235280" lon="3.411000">
        <time>2017-06-24T16:52:31Z</time>
      </trkpt>
      <trkpt lat="48.235270" lon="3.411430">
        <time>2017-06-24T16:52:32Z</time>
      </trkpt>
      <trkpt lat="48.235260" lon="3.411910">
        <time>2017-06-24T16:52:33Z</time>
      </trkpt>
      <trkpt lat="48.235250" lon="3.412380">
        <time>2017-06-24T16:52:34Z</time>
      </trkpt>
      <trkpt lat="48.235230" lon="3.412850">
        <time>2017-06-24T16:52:35Z</time>
      </trkpt>
      <trkpt lat="48.235210" lon="3.413360">
        <time>2017-06-24T16:52:36Z</time>
      </trkpt>
      <trkpt lat="48.235190" lon="3.413810">
        <time>2017-06-24T16:52:37Z</time>
      </trkpt>
      <trkpt lat="48.235170" lon="3.414290">
        <time>2017-06-24T16:52:38Z</time>
      </trkpt>
      <trkpt lat="48.235150" lon="3.414790">
        <time>2017-06-24T16:52:39Z</time>
      </trkpt>
      <trkpt lat="48.235130" lon="3.415230">
        <time>2017-06-24T16:52:40Z</time>
      </trkpt>
      <trkpt lat="48.235110" lon="3.415700">
        <time>2017-06-24T16:52:41Z</time>
      </trkpt>
      <trkpt lat="48.235090" lon="3.416200">
        <time>2017-06-24T16:52:42Z</time>
      </trkpt>
      <trkpt lat="48.235070" lon="3.416650">
        <time>2017-06-24T16:52:43Z</time>
      </trkpt>
      <trkpt lat="48.235040" lon="3.417150">
        <time>2017-06-24T16:52:44Z</time>
      </trkpt>
      <trkpt lat="48.235030" lon="3.417590">
        <time>2017-06-24T16:52:45Z</time>
      </trkpt>
      <trkpt lat="48.235000" lon="3.418060">
        <time>2017-06-24T16:52:46Z</time>
      </trkpt>
      <trkpt lat="48.234980" lon="3.418570">
        <time>2017-06-24T16:52:47Z</time>
      </trkpt>
      <trkpt lat="48.234960" lon="3.419020">
        <time>2017-06-24T16:52:48Z</time>
      </trkpt>
      <trkpt lat="48.234950" lon="3.419500">
        <time>2017-06-24T16:52:49Z</time>
      </trkpt>
      <trkpt lat="48.234920" lon="3.419970">
        <time>2017-06-24T16:52:50Z</time>
      </trkpt>
      <trkpt lat="48.234900" lon="3.420440">
        <time>2017-06-24T16:52:51Z</time>
      </trkpt>
      <trkpt lat="48.234890" lon="3.420940">
        <time>2017-06-24T16:52:52Z</time>
      </trkpt>
      <trkpt lat="48.234880" lon="3.421370">
        <time>2017-06-24T16:52:53Z</time>
      </trkpt>
      <trkpt lat="48.234870" lon="3.421840">
        <time>2017-06-24T16:52:54Z</time>
      </trkpt>
      <trkpt lat="48.234860" lon="3.422330">
        <time>2017-06-24T16:52:55Z</time>
      </trkpt>
      <trkpt lat="48.234850" lon="3.422770">
        <time>2017-06-24T16:52:56Z</time>
      </trkpt>
      <trkpt lat="48.234840" lon="3.423230">
        <time>2017-06-24T16:52:57Z</time>
      </trkpt>
      <trkpt lat="48.234850" lon="3.423720">
        <time>2017-06-24T16:52:58Z</time>
      </trkpt>
      <trkpt lat="48.234840" lon="3.424150">
        <time>2017-06-24T16:52:59Z</time>
      </trkpt>
      <trkpt lat="48.234840" lon="3.424660">
        <time>2017-06-24T16:53:00Z</time>
      </trkpt>
      <trkpt lat="48.234850" lon="3.425090">
        <time>2017-06-24T16:53:01Z</time>
      </trkpt>
      <trkpt lat="48.234850" lon="3.425560">
        <time>2017-06-24T16:53:02Z</time>
      </trkpt>
      <trkpt lat="48.234850" lon="3.426070">
        <time>2017-06-24T16:53:03Z</time>
      </trkpt>
      <trkpt lat="48.234850" lon="3.426510">
        <time>2017-06-24T16:53:04Z</time>
      </trkpt>
      <trkpt lat="48.234860" lon="3.426990">
        <time>2017-06-24T16:53:05Z</time>
      </trkpt>
      <trkpt lat="48.234870" lon="3.427470">
        <time>2017-06-24T16:53:06Z</time>
      </trkpt>
      <trkpt lat="48.234890" lon="3.427950">
        <time>2017-06-24T16:53:07Z</time>
      </trkpt>
      <trkpt lat="48.234910" lon="3.428470">
        <time>2017-06-24T16:53:08Z</time>
      </trkpt>
      <trkpt lat="48.234930" lon="3.428910">
        <time>2017-06-24T16:53:09Z</time>
      </trkpt>
      <trkpt lat="48.234950" lon="3.429390">
        <time>2017-06-24T16:53:10Z</time>
      </trkpt>
      <trkpt lat="48.234970" lon="3.429900">
        <time>2017-06-24T16:53:11Z</time>
      </trkpt>
      <trkpt lat="48.235000" lon="3.430350">
        <time>2017-06-24T16:53:12Z</time>
      </trkpt>
      <trkpt lat="48.235020" lon="3.430840">
        <time>2017-06-24T16:53:13Z</time>
      </trkpt>
      <trkpt lat="48.235040" lon="3.431370">
        <time>2017-06-24T16:53:14Z</time>
      </trkpt>
      <trkpt lat="48.235060" lon="3.431820">
        <time>2017-06-24T16:53:15Z</time>
      </trkpt>
      <trkpt lat="48.235090" lon="3.432350">
        <time>2017-06-24T16:53:16Z</time>
      </trkpt>
      <trkpt lat="48.235110" lon="3.432810">
        <time>2017-06-24T16:53:17Z</time>
      </trkpt>
      <trkpt lat="48.235140" lon="3.433310">
        <time>2017-06-24T16:53:18Z</time>
      </trkpt>
      <trkpt lat="48.235170" lon="3.433840">
        <time>2017-06-24T16:53:19Z</time>
      </trkpt>
      <trkpt lat="48.235190" lon="3.434310">
        <time>2017-06-24T16:53:20Z</time>
      </trkpt>
      <trkpt lat="48.235220" lon="3.434820">
        <time>2017-06-24T16:53:21Z</time>
      </trkpt>
      <trkpt lat="48.235240" lon="3.435320">
        <time>2017-06-24T16:53:22Z</time>
      </trkpt>
      <trkpt lat="48.235260" lon="3.435820">
        <time>2017-06-24T16:53:23Z</time>
      </trkpt>
      <trkpt lat="48.235290" lon="3.436360">
        <time>2017-06-24T16:53:24Z</time>
      </trkpt>
      <trkpt lat="48.235310" lon="3.436830">
        <time>2017-06-24T16:53:25Z</time>
      </trkpt>
      <trkpt lat="48.235340" lon="3.437330">
        <time>2017-06-24T16:53:26Z</time>
      </trkpt>
      <trkpt lat="48.235370" lon="3.437870">
        <time>2017-06-24T16:53:27Z</time>
      </trkpt>
      <trkpt lat="48.235390" lon="3.438330">
        <time>2017-06-24T16:53:28Z</time>
      </trkpt>
      <trkpt lat="48.235430" lon="3.438820">
        <time>2017-06-24T16:53:29Z</time>
      </trkpt>
      <trkpt lat="48.235470" lon="3.439350">
        <time>2017-06-24T16:53:30Z</time>
      </trkpt>
      <trkpt lat="48.235500" lon="3.439810">
        <time>2017-06-24T16:53:31Z</time>
      </trkpt>
      <trkpt lat="48.235550" lon="3.440330">
        <time>2017-06-24T16:53:32Z</time>
      </trkpt>
      <trkpt lat="48.235610" lon="3.440790">
        <time>2017-06-24T16:53:33Z</time>
      </trkpt>
      <trkpt lat="48.235660" lon="3.441270">
        <time>2017-06-24T16:53:34Z</time>
      </trkpt>
      <trkpt lat="48.235730" lon="3.441780">
        <time>2017-06-24T16:53:35Z</time>
      </trkpt>
      <trkpt lat="48.235780" lon="3.442230">
        <time>2017-06-24T16:53:36Z</time>
      </trkpt>
      <trkpt lat="48.235840" lon="3.442720">
        <time>2017-06-24T16:53:37Z</time>
      </trkpt>
      <trkpt lat="48.235910" lon="3.443200">
        <time>2017-06-24T16:53:38Z</time>
      </trkpt>
      <trkpt lat="48.235990" lon="3.443680">
        <time>2017-06-24T16:53:39Z</time>
      </trkpt>
      <trkpt lat="48.236070" lon="3.444180">
        <time>2017-06-24T16:53:40Z</time>
      </trkpt>
      <trkpt lat="48.236150" lon="3.444630">
        <time>2017-06-24T16:53:41Z</time>
      </trkpt>
      <trkpt lat="48.236240" lon="3.445090">
        <time>2017-06-24T16:53:42Z</time>
      </trkpt>
      <trkpt lat="48.236320" lon="3.445600">
        <time>2017-06-24T16:53:43Z</time>
      </trkpt>
      <trkpt lat="48.236410" lon="3.446030">
        <time>2017-06-24T16:53:44Z</time>
      </trkpt>
      <trkpt lat="48.236500" lon="3.446500">
        <time>2017-06-24T16:53:45Z</time>
      </trkpt>
      <trkpt lat="48.236600" lon="3.447000">
        <time>2017-06-24T16:53:46Z</time>
      </trkpt>
      <trkpt lat="48.236680" lon="3.447440">
        <time>2017-06-24T16:53:47Z</time>
      </trkpt>
      <trkpt lat="48.236780" lon="3.447940">
        <time>2017-06-24T16:53:48Z</time>
      </trkpt>
      <trkpt lat="48.236870" lon="3.448380">
        <time>2017-06-24T16:53:49Z</time>
      </trkpt>
      <trkpt lat="48.236960" lon="3.448860">
        <time>2017-06-24T16:53:50Z</time>
      </trkpt>
      <trkpt lat="48.237060" lon="3.449360">
        <time>2017-06-24T16:53:51Z</time>
      </trkpt>
      <trkpt lat="48.237150" lon="3.449810">
        <time>2017-06-24T16:53:52Z</time>
      </trkpt>
      <trkpt lat="48.237240" lon="3.450290">
        <time>2017-06-24T16:53:53Z</time>
      </trkpt>
      <trkpt lat="48.237330" lon="3.450760">
        <time>2017-06-24T16:53:54Z</time>
      </trkpt>
      <trkpt lat="48.237430" lon="3.451240">
        <time>2017-06-24T16:53:55Z</time>
      </trkpt>
      <trkpt lat="48.237530" lon="3.451740">
        <time>2017-06-24T16:53:56Z</time>
      </trkpt>
      <trkpt lat="48.237610" lon="3.452190">
        <time>2017-06-24T16:53:57Z</time>
      </trkpt>
      <trkpt lat="48.237700" lon="3.452670">
        <time>2017-06-24T16:53:58Z</time>
      </trkpt>
      <trkpt lat="48.237790" lon="3.453180">
        <time>2017-06-24T16:53:59Z</time>
      </trkpt>
      <trkpt lat="48.237870" lon="3.453630">
        <time>2017-06-24T16:54:00Z</time>
      </trkpt>
      <trkpt lat="48.237940" lon="3.454110">
        <time>2017-06-24T16:54:01Z</time>
      </trkpt>
      <trkpt lat="48.238010" lon="3.454620">
        <time>2017-06-24T16:54:02Z</time>
      </trkpt>
      <trkpt lat="48.238080" lon="3.455080">
        <time>2017-06-24T16:54:03Z</time>
      </trkpt>
      <trkpt lat="48.238140" lon="3.455600">
        <time>2017-06-24T16:54:04Z</time>
      </trkpt>
      <trkpt lat="48.238200" lon="3.456060">
        <time>2017-06-24T16:54:05Z</time>
      </trkpt>
      <trkpt lat="48.238260" lon="3.456540">
        <time>2017-06-24T16:54:06Z</time>
      </trkpt>
      <trkpt lat="48.238310" lon="3.457050">
        <time>2017-06-24T16:54:07Z</time>
      </trkpt>
      <trkpt lat="48.238350" lon="3.457500">
        <time>2017-06-24T16:54:08Z</time>
      </trkpt>
      <trkpt lat="48.238380" lon="3.457990">
        <time>2017-06-24T16:54:09Z</time>
      </trkpt>
      <trkpt lat="48.238430" lon="3.458460">
        <time>2017-06-24T16:54:10Z</time>
      </trkpt>
      <trkpt lat="48.238470" lon="3.458950">
        <time>2017-06-24T16:54:11Z</time>
      </trkpt>
      <trkpt lat="48.238520" lon="3.459450">
        <time>2017-06-24T16:54:12Z</time>
      </trkpt>
      <trkpt lat="48.238570" lon="3.459900">
        <time>2017-06-24T16:54:13Z</time>
      </trkpt>
      <trkpt lat="48.238620" lon="3.460380">
        <time>2017-06-24T16:54:14Z</time>
      </trkpt>
      <trkpt lat="48.238680" lon="3.460890">
        <time>2017-06-24T16:54:15Z</time>
      </trkpt>
      <trkpt lat="48.238740" lon="3.461330">
        <time>2017-06-24T16:54:16Z</time>
      </trkpt>
      <trkpt lat="48.238800" lon="3.461810">
        <time>2017-06-24T16:54:17Z</time>
      </trkpt>
      <trkpt lat="48.238870" lon="3.462320">
        <time>2017-06-24T16:54:18Z</time>
      </trkpt>
      <trkpt lat="48.238940" lon="3.462780">
        <time>2017-06-24T16:54:19Z</time>
      </trkpt>
      <trkpt lat="48.239030" lon="3.463290">
        <time>2017-06-24T16:54:20Z</time>
      </trkpt>
      <trkpt lat="48.239110" lon="3.463740">
        <time>2017-06-24T16:54:21Z</time>
      </trkpt>
      <trkpt lat="48.239190" lon="3.464220">
        <time>2017-06-24T16:54:22Z</time>
      </trkpt>
      <trkpt lat="48.239290" lon="3.464740">
        <time>2017-06-24T16:54:23Z</time>
      </trkpt>
      <trkpt lat="48.239370" lon="3.465190">
        <time>2017-06-24T16:54:24Z</time>
      </trkpt>
      <trkpt lat="48.239470" lon="3.465680">
        <time>2017-06-24T16:54:25Z</time>
      </trkpt>
      <trkpt lat="48.239570" lon="3.466160">
        <time>2017-06-24T16:54:26Z</time>
      </trkpt>
      <trkpt lat="48.239660" lon="3.466650">
        <time>2017-06-24T16:54:27Z</time>
      </trkpt>
      <trkpt lat="48.239760" lon="3.467170">
        <time>2017-06-24T16:54:28Z</time>
      </trkpt>
      <trkpt lat="48.239840" lon="3.467620">
        <time>2017-06-24T16:54:29Z</time>
      </trkpt>
      <trkpt lat="48.239930" lon="3.468100">
        <time>2017-06-24T16:54:30Z</time>
      </trkpt>
      <trkpt lat="48.240020" lon="3.468620">
        <time>2017-06-24T16:54:31Z</time>
      </trkpt>
      <trkpt lat="48.240100" lon="3.469070">
        <time>2017-06-24T16:54:32Z</time>
      </trkpt>
      <trkpt lat="48.240170" lon="3.469560">
        <time>2017-06-24T16:54:33Z</time>
      </trkpt>
      <trkpt lat="48.240250" lon="3.470080">
        <time>2017-06-24T16:54:34Z</time>
      </trkpt>
      <trkpt lat="48.240310" lon="3.470530">
        <time>2017-06-24T16:54:35Z</time>
      </trkpt>
      <trkpt lat="48.240370" lon="3.471050">
        <time>2017-06-24T16:54:36Z</time>
      </trkpt>
      <trkpt lat="48.240410" lon="3.471520">
        <time>2017-06-24T16:54:37Z</time>
      </trkpt>
      <trkpt lat="48.240450" lon="3.472020">
        <time>2017-06-24T16:54:38Z</time>
      </trkpt>
      <trkpt lat="48.240490" lon="3.472540">
        <time>2017-06-24T16:54:39Z</time>
      </trkpt>
      <trkpt lat="48.240520" lon="3.473000">
        <time>2017-06-24T16:54:40Z</time>
      </trkpt>
      <trkpt lat="48.240550" lon="3.473490">
        <time>2017-06-24T16:54:41Z</time>
      </trkpt>
      <trkpt lat="48.240570" lon="3.473970">
        <time>2017-06-24T16:54:42Z</time>
      </trkpt>
      <trkpt lat="48.240590" lon="3.474470">
        <time>2017-06-24T16:54:43Z</time>
      </trkpt>
      <trkpt lat="48.240610" lon="3.474970">
        <time>2017-06-24T16:54:44Z</time>
      </trkpt>
      <trkpt lat="48.240620" lon="3.475430">
        <time>2017-06-24T16:54:45Z</time>
      </trkpt>
      <trkpt lat="48.240630" lon="3.475920">
        <time>2017-06-24T16:54:46Z</time>
      </trkpt>
      <trkpt lat="48.240640" lon="3.476430">
        <time>2017-06-24T16:54:47Z</time>
      </trkpt>
      <trkpt lat="48.240650" lon="3.476890">
        <time>2017-06-24T16:54:48Z</time>
      </trkpt>
      <trkpt lat="48.240670" lon="3.477360">
        <time>2017-06-24T16:54:49Z</time>
      </trkpt>
      <trkpt lat="48.240680" lon="3.477870">
        <time>2017-06-24T16:54:50Z</time>
      </trkpt>
      <trkpt lat="48.240700" lon="3.478310">
        <time>2017-06-24T16:54:51Z</time>
      </trkpt>
      <trkpt lat="48.240730" lon="3.478820">
        <time>2017-06-24T16:54:52Z</time>
      </trkpt>
      <trkpt lat="48.240750" lon="3.479280">
        <time>2017-06-24T16:54:53Z</time>
      </trkpt>
      <trkpt lat="48.240790" lon="3.479760">
        <time>2017-06-24T16:54:54Z</time>
      </trkpt>
      <trkpt lat="48.240830" lon="3.480280">
        <time>2017-06-24T16:54:55Z</time>
      </trkpt>
      <trkpt lat="48.240870" lon="3.480740">
        <time>2017-06-24T16:54:56Z</time>
      </trkpt>
      <trkpt lat="48.240920" lon="3.481230">
        <time>2017-06-24T16:54:57Z</time>
      </trkpt>
      <trkpt lat="48.240980" lon="3.481720">
        <time>2017-06-24T16:54:58Z</time>
      </trkpt>
      <trkpt lat="48.241040" lon="3.482200">
        <time>2017-06-24T16:54:59Z</time>
      </trkpt>
      <trkpt lat="48.241120" lon="3.482720">
        <time>2017-06-24T16:55:00Z</time>
      </trkpt>
      <trkpt lat="48.241190" lon="3.483170">
        <time>2017-06-24T16:55:01Z</time>
      </trkpt>
      <trkpt lat="48.241280" lon="3.483650">
        <time>2017-06-24T16:55:02Z</time>
      </trkpt>
      <trkpt lat="48.241380" lon="3.484170">
        <time>2017-06-24T16:55:03Z</time>
      </trkpt>
      <trkpt lat="48.241470" lon="3.484620">
        <time>2017-06-24T16:55:04Z</time>
      </trkpt>
      <trkpt lat="48.241570" lon="3.485090">
        <time>2017-06-24T16:55:05Z</time>
      </trkpt>
      <trkpt lat="48.241690" lon="3.485600">
        <time>2017-06-24T16:55:06Z</time>
      </trkpt>
      <trkpt lat="48.241800" lon="3.486040">
        <time>2017-06-24T16:55:07Z</time>
      </trkpt>
      <trkpt lat="48.241930" lon="3.486550">
        <time>2017-06-24T16:55:08Z</time>
      </trkpt>
      <trkpt lat="48.242040" lon="3.487000">
        <time>2017-06-24T16:55:09Z</time>
      </trkpt>
      <trkpt lat="48.242170" lon="3.487470">
        <time>2017-06-24T16:55:10Z</time>
      </trkpt>
      <trkpt lat="48.242300" lon="3.487980">
        <time>2017-06-24T16:55:11Z</time>
      </trkpt>
      <trkpt lat="48.242420" lon="3.488420">
        <time>2017-06-24T16:55:12Z</time>
      </trkpt>
      <trkpt lat="48.242550" lon="3.488890">
        <time>2017-06-24T16:55:13Z</time>
      </trkpt>
      <trkpt lat="48.242680" lon="3.489360">
        <time>2017-06-24T16:55:14Z</time>
      </trkpt>
      <trkpt lat="48.242810" lon="3.489840">
        <time>2017-06-24T16:55:15Z</time>
      </trkpt>
      <trkpt lat="48.242940" lon="3.490350">
        <time>2017-06-24T16:55:16Z</time>
      </trkpt>
      <trkpt lat="48.243060" lon="3.490800">
        <time>2017-06-24T16:55:17Z</time>
      </trkpt>
      <trkpt lat="48.243180" lon="3.491270">
        <time>2017-06-24T16:55:18Z</time>
      </trkpt>
      <trkpt lat="48.243300" lon="3.491790">
        <time>2017-06-24T16:55:19Z</time>
      </trkpt>
      <trkpt lat="48.243400" lon="3.492240">
        <time>2017-06-24T16:55:20Z</time>
      </trkpt>
      <trkpt lat="48.243490" lon="3.492730">
        <time>2017-06-24T16:55:21Z</time>
      </trkpt>
      <trkpt lat="48.243590" lon="3.493240">
        <time>2017-06-24T16:55:22Z</time>
      </trkpt>
      <trkpt lat="48.243670" lon="3.493690">
        <time>2017-06-24T16:55:23Z</time>
      </trkpt>
      <trkpt lat="48.243760" lon="3.494210">
        <time>2017-06-24T16:55:24Z</time>
      </trkpt>
      <trkpt lat="48.243830" lon="3.494660">
        <time>2017-06-24T16:55:25Z</time>
      </trkpt>
      <trkpt lat="48.243900" lon="3.495140">
        <time>2017-06-24T16:55:26Z</time>
      </trkpt>
      <trkpt lat="48.243970" lon="3.495650">
        <time>2017-06-24T16:55:27Z</time>
      </trkpt>
      <trkpt lat="48.244020" lon="3.496110">
        <time>2017-06-24T16:55:28Z</time>
      </trkpt>
      <trkpt lat="48.244080" lon="3.496600">
        <time>2017-06-24T16:55:29Z</time>
      </trkpt>
      <trkpt lat="48.244130" lon="3.497080">
        <time>2017-06-24T16:55:30Z</time>
      </trkpt>
      <trkpt lat="48.244160" lon="3.497570">
        <time>2017-06-24T16:55:31Z</time>
      </trkpt>
      <trkpt lat="48.244200" lon="3.498080">
        <time>2017-06-24T16:55:32Z</time>
      </trkpt>
      <trkpt lat="48.244220" lon="3.498540">
        <time>2017-06-24T16:55:33Z</time>
      </trkpt>
      <trkpt lat="48.244240" lon="3.499030">
        <time>2017-06-24T16:55:34Z</time>
      </trkpt>
      <trkpt lat="48.244260" lon="3.499550">
        <time>2017-06-24T16:55:35Z</time>
      </trkpt>
      <trkpt lat="48.244260" lon="3.500010">
        <time>2017-06-24T16:55:36Z</time>
      </trkpt>
      <trkpt lat="48.244270" lon="3.500500">
        <time>2017-06-24T16:55:37Z</time>
      </trkpt>
      <trkpt lat="48.244280" lon="3.501030">
        <time>2017-06-24T16:55:38Z</time>
      </trkpt>
      <trkpt lat="48.244280" lon="3.501480">
        <time>2017-06-24T16:55:39Z</time>
      </trkpt>
      <trkpt lat="48.244290" lon="3.502010">
        <time>2017-06-24T16:55:40Z</time>
      </trkpt>
      <trkpt lat="48.244290" lon="3.502470">
        <time>2017-06-24T16:55:41Z</time>
      </trkpt>
      <trkpt lat="48.244290" lon="3.502960">
        <time>2017-06-24T16:55:42Z</time>
      </trkpt>
      <trkpt lat="48.244300" lon="3.503480">
        <time>2017-06-24T16:55:43Z</time>
      </trkpt>
      <trkpt lat="48.244290" lon="3.503950">
        <time>2017-06-24T16:55:44Z</time>
      </trkpt>
      <trkpt lat="48.244300" lon="3.504430">
        <time>2017-06-24T16:55:45Z</time>
      </trkpt>
      <trkpt lat="48.244310" lon="3.504930">
        <time>2017-06-24T16:55:46Z</time>
      </trkpt>
      <trkpt lat="48.244310" lon="3.505410">
        <time>2017-06-24T16:55:47Z</time>
      </trkpt>
      <trkpt lat="48.244310" lon="3.505940">
        <time>2017-06-24T16:55:48Z</time>
      </trkpt>
      <trkpt lat="48.244310" lon="3.506400">
        <time>2017-06-24T16:55:49Z</time>
      </trkpt>
      <trkpt lat="48.244320" lon="3.506890">
        <time>2017-06-24T16:55:50Z</time>
      </trkpt>
      <trkpt lat="48.244320" lon="3.507420">
        <time>2017-06-24T16:55:51Z</time>
      </trkpt>
      <trkpt lat="48.244330" lon="3.507880">
        <time>2017-06-24T16:55:52Z</time>
      </trkpt>
      <trkpt lat="48.244330" lon="3.508380">
        <time>2017-06-24T16:55:53Z</time>
      </trkpt>
      <trkpt lat="48.244340" lon="3.508910">
        <time>2017-06-24T16:55:54Z</time>
      </trkpt>
      <trkpt lat="48.244340" lon="3.509380">
        <time>2017-06-24T16:55:55Z</time>
      </trkpt>
      <trkpt lat="48.244350" lon="3.509930">
        <time>2017-06-24T16:55:56Z</time>
      </trkpt>
      <trkpt lat="48.244370" lon="3.510400">
        <time>2017-06-24T16:55:57Z</time>
      </trkpt>
      <trkpt lat="48.244390" lon="3.510910">
        <time>2017-06-24T16:55:58Z</time>
      </trkpt>
      <trkpt lat="48.244420" lon="3.511460">
        <time>2017-06-24T16:55:59Z</time>
      </trkpt>
      <trkpt lat="48.244450" lon="3.511940">
        <time>2017-06-24T16:56:00Z</time>
      </trkpt>
      <trkpt lat="48.244490" lon="3.512460">
        <time>2017-06-24T16:56:01Z</time>
      </trkpt>
      <trkpt lat="48.244540" lon="3.512980">
        <time>2017-06-24T16:56:02Z</time>
      </trkpt>
      <trkpt lat="48.244600" lon="3.513490">
        <time>2017-06-24T16:56:03Z</time>
      </trkpt>
      <trkpt lat="48.244670" lon="3.514030">
        <time>2017-06-24T16:56:04Z</time>
      </trkpt>
      <trkpt lat="48.244720" lon="3.514500">
        <time>2017-06-24T16:56:05Z</time>
      </trkpt>
      <trkpt lat="48.244800" lon="3.514990">
        <time>2017-06-24T16:56:06Z</time>
      </trkpt>
      <trkpt lat="48.244880" lon="3.515500">
        <time>2017-06-24T16:56:07Z</time>
      </trkpt>
      <trkpt lat="48.244960" lon="3.515960">
        <time>2017-06-24T16:56:08Z</time>
      </trkpt>
      <trkpt lat="48.245050" lon="3.516440">
        <time>2017-06-24T16:56:09Z</time>
      </trkpt>
      <trkpt lat="48.245150" lon="3.516940">
        <time>2017-06-24T16:56:10Z</time>
      </trkpt>
      <trkpt lat="48.245250" lon="3.517380">
        <time>2017-06-24T16:56:11Z</time>
      </trkpt>
      <trkpt lat="48.245360" lon="3.517880">
        <time>2017-06-24T16:56:12Z</time>
      </trkpt>
      <trkpt lat="48.245460" lon="3.518320">
        <time>2017-06-24T16:56:13Z</time>
      </trkpt>
      <trkpt lat="48.245580" lon="3.518780">
        <time>2017-06-24T16:56:14Z</time>
      </trkpt>
      <trkpt lat="48.245710" lon="3.519270">
        <time>2017-06-24T16:56:15Z</time>
      </trkpt>
      <trkpt lat="48.245830" lon="3.519700">
        <time>2017-06-24T16:56:16Z</time>
      </trkpt>
      <trkpt lat="48.245960" lon="3.520160">
        <time>2017-06-24T16:56:17Z</time>
      </trkpt>
      <trkpt lat="48.246090" lon="3.520620">
        <time>2017-06-24T16:56:18Z</time>
      </trkpt>
      <trkpt lat="48.246210" lon="3.521080">
        <time>2017-06-24T16:56:19Z</time>
      </trkpt>
      <trkpt lat="48.246350" lon="3.521560">
        <time>2017-06-24T16:56:20Z</time>
      </trkpt>
      <trkpt lat="48.246470" lon="3.521980">
        <time>2017-06-24T16:56:21Z</time>
      </trkpt>
      <trkpt lat="48.246600" lon="3.522420">
        <time>2017-06-24T16:56:22Z</time>
      </trkpt>
      <trkpt lat="48.246730" lon="3.522900">
        <time>2017-06-24T16:56:23Z</time>
      </trkpt>
      <trkpt lat="48.246830" lon="3.523320">
        <time>2017-06-24T16:56:24Z</time>
      </trkpt>
      <trkpt lat="48.246950" lon="3.523780">
        <time>2017-06-24T16:56:25Z</time>
      </trkpt>
      <trkpt lat="48.247060" lon="3.524270">
        <time>2017-06-24T16:56:26Z</time>
      </trkpt>
      <trkpt lat="48.247150" lon="3.524710">
        <time>2017-06-24T16:56:27Z</time>
      </trkpt>
      <trkpt lat="48.247260" lon="3.525200">
        <time>2017-06-24T16:56:28Z</time>
      </trkpt>
      <trkpt lat="48.247340" lon="3.525630">
        <time>2017-06-24T16:56:29Z</time>
      </trkpt>
      <trkpt lat="48.247430" lon="3.526100">
        <time>2017-06-24T16:56:30Z</time>
      </trkpt>
      <trkpt lat="48.247510" lon="3.526600">
        <time>2017-06-24T16:56:31Z</time>
      </trkpt>
      <trkpt lat="48.247580" lon="3.527040">
        <time>2017-06-24T16:56:32Z</time>
      </trkpt>
      <trkpt lat="48.247650" lon="3.527520">
        <time>2017-06-24T16:56:33Z</time>
      </trkpt>
      <trkpt lat="48.247710" lon="3.527990">
        <time>2017-06-24T16:56:34Z</time>
      </trkpt>
      <trkpt lat="48.247770" lon="3.528460">
        <time>2017-06-24T16:56:35Z</time>
      </trkpt>
      <trkpt lat="48.247830" lon="3.528960">
        <time>2017-06-24T16:56:36Z</time>
      </trkpt>
      <trkpt lat="48.247870" lon="3.529410">
        <time>2017-06-24T16:56:37Z</time>
      </trkpt>
      <trkpt lat="48.247910" lon="3.529890">
        <time>2017-06-24T16:56:38Z</time>
      </trkpt>
      <trkpt lat="48.247950" lon="3.530390">
        <time>2017-06-24T16:56:39Z</time>
      </trkpt>
      <trkpt lat="48.247980" lon="3.530840">
        <time>2017-06-24T16:56:40Z</time>
      </trkpt>
      <trkpt lat="48.248000" lon="3.531320">
        <time>2017-06-24T16:56:41Z</time>
      </trkpt>
      <trkpt lat="48.248020" lon="3.531830">
        <time>2017-06-24T16:56:42Z</time>
      </trkpt>
      <trkpt lat="48.248020" lon="3.532290">
        <time>2017-06-24T16:56:43Z</time>
      </trkpt>
      <trkpt lat="48.248020" lon="3.532790">
        <time>2017-06-24T16:56:44Z</time>
      </trkpt>
      <trkpt lat="48.248010" lon="3.533250">
        <time>2017-06-24T16:56:45Z</time>
      </trkpt>
      <trkpt lat="48.248000" lon="3.533730">
        <time>2017-06-24T16:56:46Z</time>
      </trkpt>
      <trkpt lat="48.248000" lon="3.534240">
        <time>2017-06-24T16:56:47Z</time>
      </trkpt>
      <trkpt lat="48.247980" lon="3.534690">
        <time>2017-06-24T16:56:48Z</time>
      </trkpt>
      <trkpt lat="48.247960" lon="3.535160">
        <time>2017-06-24T16:56:49Z</time>
      </trkpt>
      <trkpt lat="48.247930" lon="3.535630">
        <time>2017-06-24T16:56:50Z</time>
      </trkpt>
      <trkpt lat="48.247900" lon="3.536100">
        <time>2017-06-24T16:56:51Z</time>
      </trkpt>
      <trkpt lat="48.247860" lon="3.536610">
        <time>2017-06-24T16:56:52Z</time>
      </trkpt>
      <trkpt lat="48.247820" lon="3.537050">
        <time>2017-06-24T16:56:53Z</time>
      </trkpt>
      <trkpt lat="48.247760" lon="3.537530">
        <time>2017-06-24T16:56:54Z</time>
      </trkpt>
      <trkpt lat="48.247700" lon="3.538030">
        <time>2017-06-24T16:56:55Z</time>
      </trkpt>
      <trkpt lat="48.247640" lon="3.538460">
        <time>2017-06-24T16:56:56Z</time>
      </trkpt>
      <trkpt lat="48.247570" lon="3.538920">
        <time>2017-06-24T16:56:57Z</time>
      </trkpt>
      <trkpt lat="48.247490" lon="3.539420">
        <time>2017-06-24T16:56:58Z</time>
      </trkpt>
      <trkpt lat="48.247420" lon="3.539840">
        <time>2017-06-24T16:56:59Z</time>
      </trkpt>
      <trkpt lat="48.247350" lon="3.540330">
        <time>2017-06-24T16:57:00Z</time>
      </trkpt>
      <trkpt lat="48.247270" lon="3.540760">
        <time>2017-06-24T16:57:01Z</time>
      </trkpt>
      <trkpt lat="48.247190" lon="3.541200">
        <time>2017-06-24T16:57:02Z</time>
      </trkpt>
      <trkpt lat="48.247120" lon="3.541680">
        <time>2017-06-24T16:57:03Z</time>
      </trkpt>
      <trkpt lat="48.247050" lon="3.542100">
        <time>2017-06-24T16:57:04Z</time>
      </trkpt>
      <trkpt lat="48.246970" lon="3.542560">
        <time>2017-06-24T16:57:05Z</time>
      </trkpt>
      <trkpt lat="48.246890" lon="3.543020">
        <time>2017-06-24T16:57:06Z</time>
      </trkpt>
      <trkpt lat="48.246810" lon="3.543470">
        <time>2017-06-24T16:57:07Z</time>
      </trkpt>
      <trkpt lat="48.246730" lon="3.543950">
        <time>2017-06-24T16:57:08Z</time>
      </trkpt>
      <trkpt lat="48.246660" lon="3.544370">
        <time>2017-06-24T16:57:09Z</time>
      </trkpt>
      <trkpt lat="48.246580" lon="3.544820">
        <time>2017-06-24T16:57:10Z</time>
      </trkpt>
      <trkpt lat="48.246500" lon="3.545300">
        <time>2017-06-24T16:57:11Z</time>
      </trkpt>
      <trkpt lat="48.246430" lon="3.545720">
        <time>2017-06-24T16:57:12Z</time>
      </trkpt>
      <trkpt lat="48.246350" lon="3.546160">
        <time>2017-06-24T16:57:13Z</time>
      </trkpt>
      <trkpt lat="48.246280" lon="3.546620">
        <time>2017-06-24T16:57:14Z</time>
      </trkpt>
      <trkpt lat="48.246210" lon="3.547010">
        <time>2017-06-24T16:57:15Z</time>
      </trkpt>
      <trkpt lat="48.246130" lon="3.547430">
        <time>2017-06-24T16:57:16Z</time>
      </trkpt>
      <trkpt lat="48.246060" lon="3.547770">
        <time>2017-06-24T16:57:17Z</time>
      </trkpt>
      <trkpt lat="48.246000" lon="3.548130">
        <time>2017-06-24T16:57:18Z</time>
      </trkpt>
      <trkpt lat="48.245930" lon="3.548480">
        <time>2017-06-24T16:57:19Z</time>
      </trkpt>
      <trkpt lat="48.245880" lon="3.548770">
        <time>2017-06-24T16:57:20Z</time>
      </trkpt>
      <trkpt lat="48.245820" lon="3.549070">
        <time>2017-06-24T16:57:21Z</time>
      </trkpt>
      <trkpt lat="48.245770" lon="3.549350">
        <time>2017-06-24T16:57:22Z</time>
      </trkpt>
      <trkpt lat="48.245700" lon="3.549630">
        <time>2017-06-24T16:57:23Z</time>
      </trkpt>
      <trkpt lat="48.245620" lon="3.549920">
        <time>2017-06-24T16:57:24Z</time>
      </trkpt>
      <trkpt lat="48.245540" lon="3.550140">
        <time>2017-06-24T16:57:25Z</time>
      </trkpt>
      <trkpt lat="48.245450" lon="3.550340">
        <time>2017-06-24T16:57:26Z</time>
      </trkpt>
      <trkpt lat="48.245340" lon="3.550540">
        <time>2017-06-24T16:57:27Z</time>
      </trkpt>
      <trkpt lat="48.245230" lon="3.550700">
        <time>2017-06-24T16:57:28Z</time>
      </trkpt>
      <trkpt lat="48.245090" lon="3.550870">
        <time>2017-06-24T16:57:29Z</time>
      </trkpt>
      <trkpt lat="48.244940" lon="3.551030">
        <time>2017-06-24T16:57:30Z</time>
      </trkpt>
      <trkpt lat="48.244800" lon="3.551140">
        <time>2017-06-24T16:57:31Z</time>
      </trkpt>
      <trkpt lat="48.244630" lon="3.551250">
        <time>2017-06-24T16:57:32Z</time>
      </trkpt>
      <trkpt lat="48.244480" lon="3.551340">
        <time>2017-06-24T16:57:33Z</time>
      </trkpt>
      <trkpt lat="48.244330" lon="3.551430">
        <time>2017-06-24T16:57:34Z</time>
      </trkpt>
      <trkpt lat="48.244170" lon="3.551530">
        <time>2017-06-24T16:57:35Z</time>
      </trkpt>
      <trkpt lat="48.244040" lon="3.551610">
        <time>2017-06-24T16:57:36Z</time>
      </trkpt>
      <trkpt lat="48.243910" lon="3.551690">
        <time>2017-06-24T16:57:37Z</time>
      </trkpt>
      <trkpt lat="48.243800" lon="3.551780">
        <time>2017-06-24T16:57:38Z</time>
      </trkpt>
      <trkpt lat="48.243700" lon="3.551880">
        <time>2017-06-24T16:57:39Z</time>
      </trkpt>
      <trkpt lat="48.243590" lon="3.551980">
        <time>2017-06-24T16:57:40Z</time>
      </trkpt>
      <trkpt lat="48.243510" lon="3.552080">
        <time>2017-06-24T16:57:41Z</time>
      </trkpt>
      <trkpt lat="48.243430" lon="3.552170">
        <time>2017-06-24T16:57:42Z</time>
      </trkpt>
      <trkpt lat="48.243350" lon="3.552250">
        <time>2017-06-24T16:57:43Z</time>
      </trkpt>
      <trkpt lat="48.243290" lon="3.552300">
        <time>2017-06-24T16:57:44Z</time>
      </trkpt>
      <trkpt lat="48.243210" lon="3.552320">
        <time>2017-06-24T16:57:45Z</time>
      </trkpt>
      <trkpt lat="48.243120" lon="3.552310">
        <time>2017-06-24T16:57:46Z</time>
      </trkpt>
      <trkpt lat="48.243040" lon="3.552310">
        <time>2017-06-24T16:57:47Z</time>
      </trkpt>
      <trkpt lat="48.242960" lon="3.552350">
        <time>2017-06-24T16:57:48Z</time>
      </trkpt>
      <trkpt lat="48.242900" lon="3.552420">
        <time>2017-06-24T16:57:49Z</time>
      </trkpt>
      <trkpt lat="48.242870" lon="3.552510">
        <time>2017-06-24T16:57:50Z</time>
      </trkpt>
      <trkpt lat="48.242850" lon="3.552630">
        <time>2017-06-24T16:57:51Z</time>
      </trkpt>
      <trkpt lat="48.242870" lon="3.552730">
        <time>2017-06-24T16:57:52Z</time>
      </trkpt>
      <trkpt lat="48.242920" lon="3.552830">
        <time>2017-06-24T16:57:53Z</time>
      </trkpt>
      <trkpt lat="48.242990" lon="3.552900">
        <time>2017-06-24T16:57:54Z</time>
      </trkpt>
      <trkpt lat="48.243080" lon="3.552960">
        <time>2017-06-24T16:57:55Z</time>
      </trkpt>
      <trkpt lat="48.243150" lon="3.553030">
        <time>2017-06-24T16:57:56Z</time>
      </trkpt>
      <trkpt lat="48.243210" lon="3.553130">
        <time>2017-06-24T16:57:57Z</time>
      </trkpt>
      <trkpt lat="48.243250" lon="3.553250">
        <time>2017-06-24T16:57:58Z</time>
      </trkpt>
      <trkpt lat="48.243290" lon="3.553390">
        <time>2017-06-24T16:57:59Z</time>
      </trkpt>
      <trkpt lat="48.243330" lon="3.553500">
        <time>2017-06-24T16:58:00Z</time>
      </trkpt>
      <trkpt lat="48.243350" lon="3.553630">
        <time>2017-06-24T16:58:01Z</time>
      </trkpt>
      <trkpt lat="48.243370" lon="3.553780">
        <time>2017-06-24T16:58:02Z</time>
      </trkpt>
      <trkpt lat="48.243380" lon="3.553900">
        <time>2017-06-24T16:58:03Z</time>
      </trkpt>
      <trkpt lat="48.243400" lon="3.554030">
        <time>2017-06-24T16:58:04Z</time>
      </trkpt>
      <trkpt lat="48.243400" lon="3.554130">
        <time>2017-06-24T16:58:05Z</time>
      </trkpt>
      <trkpt lat="48.243410" lon="3.554210">
        <time>2017-06-24T16:58:06Z</time>
      </trkpt>
      <trkpt lat="48.243420" lon="3.554290">
        <time>2017-06-24T16:58:07Z</time>
      </trkpt>
      <trkpt lat="48.243430" lon="3.554350">
        <time>2017-06-24T16:58:08Z</time>
      </trkpt>
      <trkpt lat="48.243440" lon="3.554410">
        <time>2017-06-24T16:58:09Z</time>
      </trkpt>
      <trkpt lat="48.243440" lon="3.554460">
        <time>2017-06-24T16:58:10Z</time>
      </trkpt>
      <trkpt lat="48.243450" lon="3.554490">
        <time>2017-06-24T16:58:11Z</time>
      </trkpt>
      <trkpt lat="48.243470" lon="3.554510">
        <time>2017-06-24T16:58:12Z</time>
      </trkpt>
      <trkpt lat="48.243490" lon="3.554510">
        <time>2017-06-24T16:58:13Z</time>
      </trkpt>
      <trkpt lat="48.243510" lon="3.554510">
        <time>2017-06-24T16:58:14Z</time>
      </trkpt>
      <trkpt lat="48.243540" lon="3.554530">
        <time>2017-06-24T16:58:15Z</time>
      </trkpt>
      <trkpt lat="48.243590" lon="3.554530">
        <time>2017-06-24T16:58:16Z</time>
      </trkpt>
      <trkpt lat="48.243650" lon="3.554540">
        <time>2017-06-24T16:58:17Z</time>
      </trkpt>
      <trkpt lat="48.243710" lon="3.554550">
        <time>2017-06-24T16:58:18Z</time>
      </trkpt>
      <trkpt lat="48.243760" lon="3.554580">
        <time>2017-06-24T16:58:19Z</time>
      </trkpt>
      <trkpt lat="48.243790" lon="3.554650">
        <time>2017-06-24T16:58:20Z</time>
      </trkpt>
      <trkpt lat="48.243810" lon="3.554740">
        <time>2017-06-24T16:58:21Z</time>
      </trkpt>
      <trkpt lat="48.243820" lon="3.554840">
        <time>2017-06-24T16:58:22Z</time>
      </trkpt>
      <trkpt lat="48.243850" lon="3.554910">
        <time>2017-06-24T16:58:23Z</time>
      </trkpt>
      <trkpt lat="48.243870" lon="3.554930">
        <time>2017-06-24T16:58:24Z</time>
      </trkpt>
      <trkpt lat="48.243910" lon="3.554920">
        <time>2017-06-24T16:58:25Z</time>
      </trkpt>
      <trkpt lat="48.243930" lon="3.554900">
        <time>2017-06-24T16:58:26Z</time>
      </trkpt>
      <trkpt lat="48.243930" lon="3.554890">
        <time>2017-06-24T16:58:27Z</time>
      </trkpt>
      <trkpt lat="48.243940" lon="3.554880">
        <time>2017-06-24T16:58:28Z</time>
      </trkpt>
      <trkpt lat="48.243940" lon="3.554880">
        <time>2017-06-24T16:58:29Z</time>
      </trkpt>
      <trkpt lat="48.243940" lon="3.554880">
        <time>2017-06-24T16:58:30Z</time>
      </trkpt>
      <trkpt lat="48.243940" lon="3.554880">
        <time>2017-06-24T16:58:31Z</time>
      </trkpt>
      <trkpt lat="48.243940" lon="3.554880">
        <time>2017-06-24T16:58:32Z</time>
      </trkpt>
      <trkpt lat="48.243940" lon="3.554880">
        <time>2017-06-24T16:58:33Z</time>
      </trkpt>
      <trkpt lat="48.243940" lon="3.554880">
        <time>2017-06-24T16:58:34Z</time>
      </trkpt>
      <trkpt lat="48.243940" lon="3.554880">
        <time>2017-06-24T16:58:35Z</time>
      </trkpt>
      <trkpt lat="48.243940" lon="3.554880">
        <time>2017-06-24T16:58:36Z</time>
      </trkpt>
      <trkpt lat="48.243940" lon="3.554880">
        <time>2017-06-24T16:58:37Z</time>
      </trkpt>
      <trkpt lat="48.243940" lon="3.554880">
        <time>2017-06-24T16:58:38Z</time>
      </trkpt>
      <trkpt lat="48.243940" lon="3.554880">
        <time>2017-06-24T16:58:39Z</time>
      </trkpt>
      <trkpt lat="48.243940" lon="3.554880">
        <time>2017-06-24T16:58:40Z</time>
      </trkpt>
      <trkpt lat="48.243940" lon="3.554880">
        <time>2017-06-24T16:58:41Z</time>
      </trkpt>
      <trkpt lat="48.243940" lon="3.554880">
        <time>2017-06-24T16:58:42Z</time>
      </trkpt>
      <trkpt lat="48.243940" lon="3.554880">
        <time>2017-06-24T16:58:43Z</time>
      </trkpt>
      <trkpt lat="48.243940" lon="3.554880">
        <time>2017-06-24T16:58:44Z</time>
      </trkpt>
      <trkpt lat="48.243940" lon="3.554880">
        <time>2017-06-24T16:58:45Z</time>
      </trkpt>
      <trkpt lat="48.243940" lon="3.554880">
        <time>2017-06-24T16:58:46Z</time>
      </trkpt>
      <trkpt lat="48.243940" lon="3.554880">
        <time>2017-06-24T16:58:47Z</time>
      </trkpt>
      <trkpt lat="48.243940" lon="3.554880">
        <time>2017-06-24T16:58:48Z</time>
      </trkpt>
      <trkpt lat="48.243940" lon="3.554880">
        <time>2017-06-24T16:58:49Z</time>
      </trkpt>
      <trkpt lat="48.243940" lon="3.554880">
        <time>2017-06-24T16:58:50Z</time>
      </trkpt>
      <trkpt lat="48.243940" lon="3.554880">
        <time>2017-06-24T16:58:51Z</time>
      </trkpt>
      <trkpt lat="48.243940" lon="3.554880">
        <time>2017-06-24T16:58:52Z</time>
      </trkpt>
      <trkpt lat="48.243940" lon="3.554880">
        <time>2017-06-24T16:58:53Z</time>
      </trkpt>
      <trkpt lat="48.243940" lon="3.554880">
        <time>2017-06-24T16:58:54Z</time>
      </trkpt>
      <trkpt lat="48.243940" lon="3.554880">
        <time>2017-06-24T16:58:55Z</time>
      </trkpt>
      <trkpt lat="48.243940" lon="3.554880">
        <time>2017-06-24T16:58:56Z</time>
      </trkpt>
      <trkpt lat="48.243940" lon="3.554880">
        <time>2017-06-24T16:58:57Z</time>
      </trkpt>
      <trkpt lat="48.243940" lon="3.554880">
        <time>2017-06-24T16:58:58Z</time>
      </trkpt>
      <trkpt lat="48.243940" lon="3.554880">
        <time>2017-06-24T16:58:59Z</time>
      </trkpt>
      <trkpt lat="48.243940" lon="3.554880">
        <time>2017-06-24T16:59:00Z</time>
      </trkpt>
      <trkpt lat="48.243940" lon="3.554880">
        <time>2017-06-24T16:59:01Z</time>
      </trkpt>
      <trkpt lat="48.243940" lon="3.554880">
        <time>2017-06-24T16:59:02Z</time>
      </trkpt>
      <trkpt lat="48.243940" lon="3.554880">
        <time>2017-06-24T16:59:03Z</time>
      </trkpt>
      <trkpt lat="48.243940" lon="3.554880">
        <time>2017-06-24T16:59:04Z</time>
      </trkpt>
      <trkpt lat="48.243940" lon="3.554880">
        <time>2017-06-24T16:59:05Z</time>
      </trkpt>
      <trkpt lat="48.243940" lon="3.554880">
        <time>2017-06-24T16:59:06Z</time>
      </trkpt>
      <trkpt lat="48.243940" lon="3.554880">
        <time>2017-06-24T16:59:07Z</time>
      </trkpt>
      <trkpt lat="48.243940" lon="3.554880">
        <time>2017-06-24T16:59:08Z</time>
      </trkpt>
      <trkpt lat="48.243940" lon="3.554880">
        <time>2017-06-24T16:59:09Z</time>
      </trkpt>
      <trkpt lat="48.243940" lon="3.554880">
        <time>2017-06-24T16:59:10Z</time>
      </trkpt>
      <trkpt lat="48.243940" lon="3.554880">
        <time>2017-06-24T16:59:11Z</time>
      </trkpt>
      <trkpt lat="48.243940" lon="3.554880">
        <time>2017-06-24T16:59:12Z</time>
      </trkpt>
      <trkpt lat="48.243940" lon="3.554880">
        <time>2017-06-24T16:59:13Z</time>
      </trkpt>
      <trkpt lat="48.243940" lon="3.554880">
        <time>2017-06-24T16:59:14Z</time>
      </trkpt>
      <trkpt lat="48.243940" lon="3.554880">
        <time>2017-06-24T16:59:15Z</time>
      </trkpt>
      <trkpt lat="48.243940" lon="3.554880">
        <time>2017-06-24T16:59:16Z</time>
      </trkpt>
      <trkpt lat="48.243940" lon="3.554880">
        <time>2017-06-24T16:59:17Z</time>
      </trkpt>
      <trkpt lat="48.243940" lon="3.554880">
        <time>2017-06-24T16:59:18Z</time>
      </trkpt>
      <trkpt lat="48.243940" lon="3.554880">
        <time>2017-06-24T16:59:19Z</time>
      </trkpt>
      <trkpt lat="48.243940" lon="3.554880">
        <time>2017-06-24T16:59:20Z</time>
      </trkpt>
      <trkpt lat="48.243940" lon="3.554880">
        <time>2017-06-24T16:59:21Z</time>
      </trkpt>
      <trkpt lat="48.243940" lon="3.554880">
        <time>2017-06-24T16:59:22Z</time>
      </trkpt>
      <trkpt lat="48.243940" lon="3.554880">
        <time>2017-06-24T16:59:23Z</time>
      </trkpt>
      <trkpt lat="48.243940" lon="3.554880">
        <time>2017-06-24T16:59:24Z</time>
      </trkpt>
      <trkpt lat="48.243940" lon="3.554880">
        <time>2017-06-24T16:59:25Z</time>
      </trkpt>
      <trkpt lat="48.243940" lon="3.554880">
        <time>2017-06-24T16:59:26Z</time>
      </trkpt>
      <trkpt lat="48.243940" lon="3.554880">
        <time>2017-06-24T16:59:27Z</time>
      </trkpt>
      <trkpt lat="48.243940" lon="3.554880">
        <time>2017-06-24T16:59:28Z</time>
      </trkpt>
      <trkpt lat="48.243940" lon="3.554880">
        <time>2017-06-24T16:59:29Z</time>
      </trkpt>
      <trkpt lat="48.243940" lon="3.554880">
        <time>2017-06-24T16:59:30Z</time>
      </trkpt>
      <trkpt lat="48.243940" lon="3.554880">
        <time>2017-06-24T16:59:31Z</time>
      </trkpt>
      <trkpt lat="48.243940" lon="3.554880">
        <time>2017-06-24T16:59:32Z</time>
      </trkpt>
      <trkpt lat="48.243940" lon="3.554880">
        <time>2017-06-24T16:59:33Z</time>
      </trkpt>
      <trkpt lat="48.243940" lon="3.554880">
        <time>2017-06-24T16:59:34Z</time>
      </trkpt>
      <trkpt lat="48.243940" lon="3.554880">
        <time>2017-06-24T16:59:35Z</time>
      </trkpt>
      <trkpt lat="48.243940" lon="3.554880">
        <time>2017-06-24T16:59:36Z</time>
      </trkpt>
      <trkpt lat="48.243940" lon="3.554880">
        <time>2017-06-24T16:59:37Z</time>
      </trkpt>
      <trkpt lat="48.243940" lon="3.554880">
        <time>2017-06-24T16:59:38Z</time>
      </trkpt>
      <trkpt lat="48.243940" lon="3.554880">
        <time>2017-06-24T16:59:39Z</time>
      </trkpt>
      <trkpt lat="48.243940" lon="3.554880">
        <time>2017-06-24T16:59:40Z</time>
      </trkpt>
      <trkpt lat="48.243940" lon="3.554880">
        <time>2017-06-24T16:59:41Z</time>
      </trkpt>
      <trkpt lat="48.243940" lon="3.554880">
        <time>2017-06-24T16:59:42Z</time>
      </trkpt>
      <trkpt lat="48.243940" lon="3.554880">
        <time>2017-06-24T16:59:43Z</time>
      </trkpt>
      <trkpt lat="48.243940" lon="3.554880">
        <time>2017-06-24T16:59:44Z</time>
      </trkpt>
      <trkpt lat="48.243940" lon="3.554880">
        <time>2017-06-24T16:59:45Z</time>
      </trkpt>
      <trkpt lat="48.243940" lon="3.554880">
        <time>2017-06-24T16:59:46Z</time>
      </trkpt>
      <trkpt lat="48.243940" lon="3.554880">
        <time>2017-06-24T16:59:47Z</time>
      </trkpt>
      <trkpt lat="48.243940" lon="3.554880">
        <time>2017-06-24T16:59:48Z</time>
      </trkpt>
      <trkpt lat="48.243940" lon="3.554880">
        <time>2017-06-24T16:59:49Z</time>
      </trkpt>
      <trkpt lat="48.243940" lon="3.554880">
        <time>2017-06-24T16:59:50Z</time>
      </trkpt>
      <trkpt lat="48.243940" lon="3.554880">
        <time>2017-06-24T16:59:51Z</time>
      </trkpt>
      <trkpt lat="48.243940" lon="3.554880">
        <time>2017-06-24T16:59:52Z</time>
      </trkpt>
      <trkpt lat="48.243940" lon="3.554880">
        <time>2017-06-24T16:59:53Z</time>
      </trkpt>
      <trkpt lat="48.243940" lon="3.554880">
        <time>2017-06-24T16:59:54Z</time>
      </trkpt>
      <trkpt lat="48.243940" lon="3.554880">
        <time>2017-06-24T16:59:55Z</time>
      </trkpt>
      <trkpt lat="48.243940" lon="3.554880">
        <time>2017-06-24T16:59:56Z</time>
      </trkpt>
      <trkpt lat="48.243940" lon="3.554880">
        <time>2017-06-24T16:59:57Z</time>
      </trkpt>
      <trkpt lat="48.243940" lon="3.554880">
        <time>2017-06-24T16:59:58Z</time>
      </trkpt>
      <trkpt lat="48.243940" lon="3.554880">
        <time>2017-06-24T16:59:59Z</time>
      </trkpt>
      <trkpt lat="48.243940" lon="3.554880">
        <time>2017-06-24T17:00:00Z</time>
      </trkpt>
      <trkpt lat="48.243940" lon="3.554880">
        <time>2017-06-24T17:00:01Z</time>
      </trkpt>
      <trkpt lat="48.243940" lon="3.554880">
        <time>2017-06-24T17:00:02Z</time>
      </trkpt>
      <trkpt lat="48.243940" lon="3.554880">
        <time>2017-06-24T17:00:03Z</time>
      </trkpt>
      <trkpt lat="48.243940" lon="3.554880">
        <time>2017-06-24T17:00:04Z</time>
      </trkpt>
      <trkpt lat="48.243940" lon="3.554880">
        <time>2017-06-24T17:00:05Z</time>
      </trkpt>
      <trkpt lat="48.243940" lon="3.554880">
        <time>2017-06-24T17:00:06Z</time>
      </trkpt>
      <trkpt lat="48.243940" lon="3.554880">
        <time>2017-06-24T17:00:07Z</time>
      </trkpt>
      <trkpt lat="48.243940" lon="3.554880">
        <time>2017-06-24T17:00:08Z</time>
      </trkpt>
      <trkpt lat="48.243940" lon="3.554880">
        <time>2017-06-24T17:00:09Z</time>
      </trkpt>
      <trkpt lat="48.243940" lon="3.554880">
        <time>2017-06-24T17:00:10Z</time>
      </trkpt>
      <trkpt lat="48.243940" lon="3.554880">
        <time>2017-06-24T17:00:11Z</time>
      </trkpt>
      <trkpt lat="48.243940" lon="3.554880">
        <time>2017-06-24T17:00:12Z</time>
      </trkpt>
      <trkpt lat="48.243940" lon="3.554880">
        <time>2017-06-24T17:00:13Z</time>
      </trkpt>
      <trkpt lat="48.243940" lon="3.554880">
        <time>2017-06-24T17:00:14Z</time>
      </trkpt>
      <trkpt lat="48.243940" lon="3.554880">
        <time>2017-06-24T17:00:15Z</time>
      </trkpt>
      <trkpt lat="48.243940" lon="3.554880">
        <time>2017-06-24T17:00:16Z</time>
      </trkpt>
      <trkpt lat="48.243940" lon="3.554880">
        <time>2017-06-24T17:00:17Z</time>
      </trkpt>
      <trkpt lat="48.243940" lon="3.554880">
        <time>2017-06-24T17:00:18Z</time>
      </trkpt>
      <trkpt lat="48.243940" lon="3.554880">
        <time>2017-06-24T17:00:19Z</time>
      </trkpt>
      <trkpt lat="48.243940" lon="3.554880">
        <time>2017-06-24T17:00:20Z</time>
      </trkpt>
      <trkpt lat="48.243940" lon="3.554880">
        <time>2017-06-24T17:00:21Z</time>
      </trkpt>
      <trkpt lat="48.243940" lon="3.554880">
        <time>2017-06-24T17:00:22Z</time>
      </trkpt>
      <trkpt lat="48.243940" lon="3.554880">
        <time>2017-06-24T17:00:23Z</time>
      </trkpt>
      <trkpt lat="48.243940" lon="3.554880">
        <time>2017-06-24T17:00:24Z</time>
      </trkpt>
      <trkpt lat="48.243940" lon="3.554880">
        <time>2017-06-24T17:00:25Z</time>
      </trkpt>
      <trkpt lat="48.243940" lon="3.554880">
        <time>2017-06-24T17:00:26Z</time>
      </trkpt>
      <trkpt lat="48.243940" lon="3.554880">
        <time>2017-06-24T17:00:27Z</time>
      </trkpt>
      <trkpt lat="48.243940" lon="3.554880">
        <time>2017-06-24T17:00:28Z</time>
      </trkpt>
      <trkpt lat="48.243940" lon="3.554880">
        <time>2017-06-24T17:00:29Z</time>
      </trkpt>
      <trkpt lat="48.243940" lon="3.554880">
        <time>2017-06-24T17:00:30Z</time>
      </trkpt>
      <trkpt lat="48.243940" lon="3.554880">
        <time>2017-06-24T17:00:31Z</time>
      </trkpt>
      <trkpt lat="48.243940" lon="3.554880">
        <time>2017-06-24T17:00:32Z</time>
      </trkpt>
      <trkpt lat="48.243940" lon="3.554880">
        <time>2017-06-24T17:00:33Z</time>
      </trkpt>
      <trkpt lat="48.243940" lon="3.554880">
        <time>2017-06-24T17:00:34Z</time>
      </trkpt>
      <trkpt lat="48.243940" lon="3.554880">
        <time>2017-06-24T17:00:35Z</time>
      </trkpt>
      <trkpt lat="48.243940" lon="3.554880">
        <time>2017-06-24T17:00:36Z</time>
      </trkpt>
      <trkpt lat="48.243940" lon="3.554880">
        <time>2017-06-24T17:00:37Z</time>
      </trkpt>
      <trkpt lat="48.243940" lon="3.554880">
        <time>2017-06-24T17:00:38Z</time>
      </trkpt>
      <trkpt lat="48.243940" lon="3.554880">
        <time>2017-06-24T17:00:39Z</time>
      </trkpt>
      <trkpt lat="48.243940" lon="3.554880">
        <time>2017-06-24T17:00:40Z</time>
      </trkpt>
      <trkpt lat="48.243940" lon="3.554880">
        <time>2017-06-24T17:00:41Z</time>
      </trkpt>
      <trkpt lat="48.243940" lon="3.554880">
        <time>2017-06-24T17:00:42Z</time>
      </trkpt>
      <trkpt lat="48.243940" lon="3.554880">
        <time>2017-06-24T17:00:43Z</time>
      </trkpt>
      <trkpt lat="48.243940" lon="3.554880">
        <time>2017-06-24T17:00:44Z</time>
      </trkpt>
      <trkpt lat="48.243940" lon="3.554880">
        <time>2017-06-24T17:00:45Z</time>
      </trkpt>
      <trkpt lat="48.243940" lon="3.554880">
        <time>2017-06-24T17:00:46Z</time>
      </trkpt>
      <trkpt lat="48.243940" lon="3.554880">
        <time>2017-06-24T17:00:47Z</time>
      </trkpt>
      <trkpt lat="48.243940" lon="3.554880">
        <time>2017-06-24T17:00:48Z</time>
      </trkpt>
      <trkpt lat="48.243940" lon="3.554880">
        <time>2017-06-24T17:00:49Z</time>
      </trkpt>
      <trkpt lat="48.243940" lon="3.554880">
        <time>2017-06-24T17:00:50Z</time>
      </trkpt>
      <trkpt lat="48.243940" lon="3.554880">
        <time>2017-06-24T17:00:51Z</time>
      </trkpt>
      <trkpt lat="48.243940" lon="3.554880">
        <time>2017-06-24T17:00:52Z</time>
      </trkpt>
      <trkpt lat="48.243940" lon="3.554880">
        <time>2017-06-24T17:00:53Z</time>
      </trkpt>
      <trkpt lat="48.243940" lon="3.554880">
        <time>2017-06-24T17:00:54Z</time>
      </trkpt>
      <trkpt lat="48.243940" lon="3.554880">
        <time>2017-06-24T17:00:55Z</time>
      </trkpt>
      <trkpt lat="48.243940" lon="3.554880">
        <time>2017-06-24T17:00:56Z</time>
      </trkpt>
      <trkpt lat="48.243940" lon="3.554880">
        <time>2017-06-24T17:00:57Z</time>
      </trkpt>
      <trkpt lat="48.243940" lon="3.554880">
        <time>2017-06-24T17:00:58Z</time>
      </trkpt>
      <trkpt lat="48.243940" lon="3.554880">
        <time>2017-06-24T17:00:59Z</time>
      </trkpt>
      <trkpt lat="48.243940" lon="3.554880">
        <time>2017-06-24T17:01:00Z</time>
      </trkpt>
      <trkpt lat="48.243940" lon="3.554880">
        <time>2017-06-24T17:01:01Z</time>
      </trkpt>
      <trkpt lat="48.243940" lon="3.554880">
        <time>2017-06-24T17:01:02Z</time>
      </trkpt>
      <trkpt lat="48.243940" lon="3.554880">
        <time>2017-06-24T17:01:03Z</time>
      </trkpt>
      <trkpt lat="48.243940" lon="3.554880">
        <time>2017-06-24T17:01:04Z</time>
      </trkpt>
      <trkpt lat="48.243940" lon="3.554880">
        <time>2017-06-24T17:01:05Z</time>
      </trkpt>
      <trkpt lat="48.243940" lon="3.554880">
        <time>2017-06-24T17:01:06Z</time>
      </trkpt>
      <trkpt lat="48.243940" lon="3.554880">
        <time>2017-06-24T17:01:07Z</time>
      </trkpt>
      <trkpt lat="48.243940" lon="3.554880">
        <time>2017-06-24T17:01:08Z</time>
      </trkpt>
      <trkpt lat="48.243940" lon="3.554880">
        <time>2017-06-24T17:01:09Z</time>
      </trkpt>
      <trkpt lat="48.243940" lon="3.554880">
        <time>2017-06-24T17:01:10Z</time>
      </trkpt>
      <trkpt lat="48.243940" lon="3.554880">
        <time>2017-06-24T17:01:11Z</time>
      </trkpt>
      <trkpt lat="48.243940" lon="3.554880">
        <time>2017-06-24T17:01:12Z</time>
      </trkpt>
      <trkpt lat="48.243940" lon="3.554880">
        <time>2017-06-24T17:01:13Z</time>
      </trkpt>
      <trkpt lat="48.243940" lon="3.554880">
        <time>2017-06-24T17:01:14Z</time>
      </trkpt>
      <trkpt lat="48.243940" lon="3.554880">
        <time>2017-06-24T17:01:15Z</time>
      </trkpt>
      <trkpt lat="48.243940" lon="3.554880">
        <time>2017-06-24T17:01:16Z</time>
      </trkpt>
      <trkpt lat="48.243940" lon="3.554880">
        <time>2017-06-24T17:01:17Z</time>
      </trkpt>
      <trkpt lat="48.243940" lon="3.554880">
        <time>2017-06-24T17:01:18Z</time>
      </trkpt>
      <trkpt lat="48.243940" lon="3.554880">
        <time>2017-06-24T17:01:19Z</time>
      </trkpt>
      <trkpt lat="48.243940" lon="3.554880">
        <time>2017-06-24T17:01:20Z</time>
      </trkpt>
      <trkpt lat="48.243940" lon="3.554880">
        <time>2017-06-24T17:01:21Z</time>
      </trkpt>
      <trkpt lat="48.243940" lon="3.554880">
        <time>2017-06-24T17:01:22Z</time>
      </trkpt>
      <trkpt lat="48.243940" lon="3.554880">
        <time>2017-06-24T17:01:23Z</time>
      </trkpt>
      <trkpt lat="48.243940" lon="3.554880">
        <time>2017-06-24T17:01:24Z</time>
      </trkpt>
      <trkpt lat="48.243940" lon="3.554880">
        <time>2017-06-24T17:01:25Z</time>
      </trkpt>
      <trkpt lat="48.243940" lon="3.554880">
        <time>2017-06-24T17:01:26Z</time>
      </trkpt>
      <trkpt lat="48.243940" lon="3.554880">
        <time>2017-06-24T17:01:27Z</time>
      </trkpt>
      <trkpt lat="48.243940" lon="3.554880">
        <time>2017-06-24T17:01:28Z</time>
      </trkpt>
      <trkpt lat="48.243940" lon="3.554880">
        <time>2017-06-24T17:01:29Z</time>
      </trkpt>
      <trkpt lat="48.243940" lon="3.554880">
        <time>2017-06-24T17:01:30Z</time>
      </trkpt>
      <trkpt lat="48.243940" lon="3.554880">
        <time>2017-06-24T17:01:31Z</time>
      </trkpt>
      <trkpt lat="48.243940" lon="3.554880">
        <time>2017-06-24T17:01:32Z</time>
      </trkpt>
      <trkpt lat="48.243940" lon="3.554880">
        <time>2017-06-24T17:01:33Z</time>
      </trkpt>
      <trkpt lat="48.243940" lon="3.554880">
        <time>2017-06-24T17:01:34Z</time>
      </trkpt>
      <trkpt lat="48.243940" lon="3.554880">
        <time>2017-06-24T17:01:35Z</time>
      </trkpt>
      <trkpt lat="48.243940" lon="3.554880">
        <time>2017-06-24T17:01:36Z</time>
      </trkpt>
      <trkpt lat="48.243940" lon="3.554880">
        <time>2017-06-24T17:01:37Z</time>
      </trkpt>
      <trkpt lat="48.243940" lon="3.554880">
        <time>2017-06-24T17:01:38Z</time>
      </trkpt>
      <trkpt lat="48.243940" lon="3.554880">
        <time>2017-06-24T17:01:39Z</time>
      </trkpt>
      <trkpt lat="48.243940" lon="3.554880">
        <time>2017-06-24T17:01:40Z</time>
      </trkpt>
      <trkpt lat="48.243940" lon="3.554880">
        <time>2017-06-24T17:01:41Z</time>
      </trkpt>
      <trkpt lat="48.243940" lon="3.554880">
        <time>2017-06-24T17:01:42Z</time>
      </trkpt>
      <trkpt lat="48.243940" lon="3.554880">
        <time>2017-06-24T17:01:43Z</time>
      </trkpt>
      <trkpt lat="48.243940" lon="3.554880">
        <time>2017-06-24T17:01:44Z</time>
      </trkpt>
      <trkpt lat="48.243940" lon="3.554880">
        <time>2017-06-24T17:01:45Z</time>
      </trkpt>
      <trkpt lat="48.243940" lon="3.554880">
        <time>2017-06-24T17:01:46Z</time>
      </trkpt>
      <trkpt lat="48.243940" lon="3.554880">
        <time>2017-06-24T17:01:47Z</time>
      </trkpt>
      <trkpt lat="48.243940" lon="3.554880">
        <time>2017-06-24T17:01:48Z</time>
      </trkpt>
      <trkpt lat="48.243940" lon="3.554880">
        <time>2017-06-24T17:01:49Z</time>
      </trkpt>
      <trkpt lat="48.243940" lon="3.554880">
        <time>2017-06-24T17:01:50Z</time>
      </trkpt>
      <trkpt lat="48.243940" lon="3.554880">
        <time>2017-06-24T17:01:51Z</time>
      </trkpt>
      <trkpt lat="48.243940" lon="3.554880">
        <time>2017-06-24T17:01:52Z</time>
      </trkpt>
      <trkpt lat="48.243940" lon="3.554880">
        <time>2017-06-24T17:01:53Z</time>
      </trkpt>
      <trkpt lat="48.243940" lon="3.554880">
        <time>2017-06-24T17:01:54Z</time>
      </trkpt>
      <trkpt lat="48.243940" lon="3.554880">
        <time>2017-06-24T17:01:55Z</time>
      </trkpt>
      <trkpt lat="48.243940" lon="3.554880">
        <time>2017-06-24T17:01:56Z</time>
      </trkpt>
      <trkpt lat="48.243940" lon="3.554880">
        <time>2017-06-24T17:01:57Z</time>
      </trkpt>
      <trkpt lat="48.243940" lon="3.554880">
        <time>2017-06-24T17:01:58Z</time>
      </trkpt>
      <trkpt lat="48.243940" lon="3.554880">
        <time>2017-06-24T17:01:59Z</time>
      </trkpt>
      <trkpt lat="48.243940" lon="3.554880">
        <time>2017-06-24T17:02:00Z</time>
      </trkpt>
      <trkpt lat="48.243940" lon="3.554880">
        <time>2017-06-24T17:02:01Z</time>
      </trkpt>
      <trkpt lat="48.243940" lon="3.554880">
        <time>2017-06-24T17:02:02Z</time>
      </trkpt>
      <trkpt lat="48.243940" lon="3.554880">
        <time>2017-06-24T17:02:03Z</time>
      </trkpt>
      <trkpt lat="48.243940" lon="3.554880">
        <time>2017-06-24T17:02:04Z</time>
      </trkpt>
      <trkpt lat="48.243940" lon="3.554880">
        <time>2017-06-24T17:02:05Z</time>
      </trkpt>
      <trkpt lat="48.243940" lon="3.554880">
        <time>2017-06-24T17:02:06Z</time>
      </trkpt>
      <trkpt lat="48.243940" lon="3.554880">
        <time>2017-06-24T17:02:07Z</time>
      </trkpt>
      <trkpt lat="48.243940" lon="3.554880">
        <time>2017-06-24T17:02:08Z</time>
      </trkpt>
      <trkpt lat="48.243940" lon="3.554880">
        <time>2017-06-24T17:02:09Z</time>
      </trkpt>
      <trkpt lat="48.243940" lon="3.554880">
        <time>2017-06-24T17:02:10Z</time>
      </trkpt>
      <trkpt lat="48.243940" lon="3.554880">
        <time>2017-06-24T17:02:11Z</time>
      </trkpt>
      <trkpt lat="48.243940" lon="3.554880">
        <time>2017-06-24T17:02:12Z</time>
      </trkpt>
      <trkpt lat="48.243940" lon="3.554880">
        <time>2017-06-24T17:02:13Z</time>
      </trkpt>
      <trkpt lat="48.243940" lon="3.554880">
        <time>2017-06-24T17:02:14Z</time>
      </trkpt>
      <trkpt lat="48.243940" lon="3.554880">
        <time>2017-06-24T17:02:15Z</time>
      </trkpt>
      <trkpt lat="48.243940" lon="3.554880">
        <time>2017-06-24T17:02:16Z</time>
      </trkpt>
      <trkpt lat="48.243940" lon="3.554880">
        <time>2017-06-24T17:02:17Z</time>
      </trkpt>
      <trkpt lat="48.243940" lon="3.554880">
        <time>2017-06-24T17:02:18Z</time>
      </trkpt>
      <trkpt lat="48.243940" lon="3.554880">
        <time>2017-06-24T17:02:19Z</time>
      </trkpt>
      <trkpt lat="48.243940" lon="3.554880">
        <time>2017-06-24T17:02:20Z</time>
      </trkpt>
      <trkpt lat="48.243940" lon="3.554880">
        <time>2017-06-24T17:02:21Z</time>
      </trkpt>
      <trkpt lat="48.243940" lon="3.554880">
        <time>2017-06-24T17:02:22Z</time>
      </trkpt>
      <trkpt lat="48.243940" lon="3.554880">
        <time>2017-06-24T17:02:23Z</time>
      </trkpt>
      <trkpt lat="48.243940" lon="3.554880">
        <time>2017-06-24T17:02:24Z</time>
      </trkpt>
      <trkpt lat="48.243940" lon="3.554880">
        <time>2017-06-24T17:02:25Z</time>
      </trkpt>
      <trkpt lat="48.243940" lon="3.554880">
        <time>2017-06-24T17:02:26Z</time>
      </trkpt>
      <trkpt lat="48.243940" lon="3.554880">
        <time>2017-06-24T17:02:27Z</time>
      </trkpt>
      <trkpt lat="48.243940" lon="3.554880">
        <time>2017-06-24T17:02:28Z</time>
      </trkpt>
      <trkpt lat="48.243940" lon="3.554880">
        <time>2017-06-24T17:02:29Z</time>
      </trkpt>
      <trkpt lat="48.243940" lon="3.554880">
        <time>2017-06-24T17:02:30Z</time>
      </trkpt>
      <trkpt lat="48.243940" lon="3.554880">
        <time>2017-06-24T17:02:31Z</time>
      </trkpt>
      <trkpt lat="48.243940" lon="3.554880">
        <time>2017-06-24T17:02:32Z</time>
      </trkpt>
      <trkpt lat="48.243940" lon="3.554880">
        <time>2017-06-24T17:02:33Z</time>
      </trkpt>
      <trkpt lat="48.243940" lon="3.554880">
        <time>2017-06-24T17:02:34Z</time>
      </trkpt>
      <trkpt lat="48.243940" lon="3.554880">
        <time>2017-06-24T17:02:35Z</time>
      </trkpt>
      <trkpt lat="48.243940" lon="3.554880">
        <time>2017-06-24T17:02:36Z</time>
      </trkpt>
      <trkpt lat="48.243940" lon="3.554880">
        <time>2017-06-24T17:02:37Z</time>
      </trkpt>
      <trkpt lat="48.243940" lon="3.554880">
        <time>2017-06-24T17:02:38Z</time>
      </trkpt>
      <trkpt lat="48.243940" lon="3.554880">
        <time>2017-06-24T17:02:39Z</time>
      </trkpt>
      <trkpt lat="48.243940" lon="3.554880">
        <time>2017-06-24T17:02:40Z</time>
      </trkpt>
      <trkpt lat="48.243940" lon="3.554880">
        <time>2017-06-24T17:02:41Z</time>
      </trkpt>
      <trkpt lat="48.243940" lon="3.554880">
        <time>2017-06-24T17:02:42Z</time>
      </trkpt>
      <trkpt lat="48.243940" lon="3.554880">
        <time>2017-06-24T17:02:43Z</time>
      </trkpt>
      <trkpt lat="48.243940" lon="3.554880">
        <time>2017-06-24T17:02:44Z</time>
      </trkpt>
      <trkpt lat="48.243940" lon="3.554880">
        <time>2017-06-24T17:02:45Z</time>
      </trkpt>
      <trkpt lat="48.243940" lon="3.554880">
        <time>2017-06-24T17:02:46Z</time>
      </trkpt>
      <trkpt lat="48.243940" lon="3.554880">
        <time>2017-06-24T17:02:47Z</time>
      </trkpt>
      <trkpt lat="48.243940" lon="3.554880">
        <time>2017-06-24T17:02:48Z</time>
      </trkpt>
      <trkpt lat="48.243940" lon="3.554880">
        <time>2017-06-24T17:02:49Z</time>
      </trkpt>
      <trkpt lat="48.243940" lon="3.554880">
        <time>2017-06-24T17:02:50Z</time>
      </trkpt>
      <trkpt lat="48.243940" lon="3.554880">
        <time>2017-06-24T17:02:51Z</time>
      </trkpt>
      <trkpt lat="48.243940" lon="3.554880">
        <time>2017-06-24T17:02:52Z</time>
      </trkpt>
      <trkpt lat="48.243940" lon="3.554880">
        <time>2017-06-24T17:02:53Z</time>
      </trkpt>
      <trkpt lat="48.243940" lon="3.554880">
        <time>2017-06-24T17:02:54Z</time>
      </trkpt>
      <trkpt lat="48.243940" lon="3.554880">
        <time>2017-06-24T17:02:55Z</time>
      </trkpt>
      <trkpt lat="48.243940" lon="3.554880">
        <time>2017-06-24T17:02:56Z</time>
      </trkpt>
      <trkpt lat="48.243940" lon="3.554880">
        <time>2017-06-24T17:02:57Z</time>
      </trkpt>
      <trkpt lat="48.243940" lon="3.554880">
        <time>2017-06-24T17:02:58Z</time>
      </trkpt>
      <trkpt lat="48.243940" lon="3.554880">
        <time>2017-06-24T17:02:59Z</time>
      </trkpt>
      <trkpt lat="48.243940" lon="3.554880">
        <time>2017-06-24T17:03:00Z</time>
      </trkpt>
      <trkpt lat="48.243940" lon="3.554880">
        <time>2017-06-24T17:03:01Z</time>
      </trkpt>
      <trkpt lat="48.243940" lon="3.554880">
        <time>2017-06-24T17:03:02Z</time>
      </trkpt>
      <trkpt lat="48.243940" lon="3.554880">
        <time>2017-06-24T17:03:03Z</time>
      </trkpt>
      <trkpt lat="48.243940" lon="3.554880">
        <time>2017-06-24T17:03:04Z</time>
      </trkpt>
      <trkpt lat="48.243940" lon="3.554880">
        <time>2017-06-24T17:03:05Z</time>
      </trkpt>
      <trkpt lat="48.243940" lon="3.554880">
        <time>2017-06-24T17:03:06Z</time>
      </trkpt>
      <trkpt lat="48.243940" lon="3.554880">
        <time>2017-06-24T17:03:07Z</time>
      </trkpt>
      <trkpt lat="48.243940" lon="3.554880">
        <time>2017-06-24T17:03:08Z</time>
      </trkpt>
      <trkpt lat="48.243940" lon="3.554880">
        <time>2017-06-24T17:03:09Z</time>
      </trkpt>
      <trkpt lat="48.243940" lon="3.554880">
        <time>2017-06-24T17:03:10Z</time>
      </trkpt>
      <trkpt lat="48.243940" lon="3.554880">
        <time>2017-06-24T17:03:11Z</time>
      </trkpt>
      <trkpt lat="48.243940" lon="3.554880">
        <time>2017-06-24T17:03:12Z</time>
      </trkpt>
      <trkpt lat="48.243940" lon="3.554880">
        <time>2017-06-24T17:03:13Z</time>
      </trkpt>
      <trkpt lat="48.243940" lon="3.554880">
        <time>2017-06-24T17:03:14Z</time>
      </trkpt>
      <trkpt lat="48.243940" lon="3.554880">
        <time>2017-06-24T17:03:15Z</time>
      </trkpt>
      <trkpt lat="48.243940" lon="3.554880">
        <time>2017-06-24T17:03:16Z</time>
      </trkpt>
      <trkpt lat="48.243940" lon="3.554880">
        <time>2017-06-24T17:03:17Z</time>
      </trkpt>
      <trkpt lat="48.243940" lon="3.554880">
        <time>2017-06-24T17:03:18Z</time>
      </trkpt>
      <trkpt lat="48.243940" lon="3.554880">
        <time>2017-06-24T17:03:19Z</time>
      </trkpt>
      <trkpt lat="48.243940" lon="3.554880">
        <time>2017-06-24T17:03:20Z</time>
      </trkpt>
      <trkpt lat="48.243940" lon="3.554880">
        <time>2017-06-24T17:03:21Z</time>
      </trkpt>
      <trkpt lat="48.243940" lon="3.554880">
        <time>2017-06-24T17:03:22Z</time>
      </trkpt>
      <trkpt lat="48.243940" lon="3.554880">
        <time>2017-06-24T17:03:23Z</time>
      </trkpt>
      <trkpt lat="48.243940" lon="3.554880">
        <time>2017-06-24T17:03:24Z</time>
      </trkpt>
      <trkpt lat="48.243940" lon="3.554880">
        <time>2017-06-24T17:03:25Z</time>
      </trkpt>
      <trkpt lat="48.243940" lon="3.554880">
        <time>2017-06-24T17:03:26Z</time>
      </trkpt>
      <trkpt lat="48.243940" lon="3.554880">
        <time>2017-06-24T17:03:27Z</time>
      </trkpt>
      <trkpt lat="48.243940" lon="3.554880">
        <time>2017-06-24T17:03:28Z</time>
      </trkpt>
      <trkpt lat="48.243940" lon="3.554880">
        <time>2017-06-24T17:03:29Z</time>
      </trkpt>
      <trkpt lat="48.243940" lon="3.554880">
        <time>2017-06-24T17:03:30Z</time>
      </trkpt>
      <trkpt lat="48.243940" lon="3.554880">
        <time>2017-06-24T17:03:31Z</time>
      </trkpt>
      <trkpt lat="48.243940" lon="3.554880">
        <time>2017-06-24T17:03:32Z</time>
      </trkpt>
      <trkpt lat="48.243940" lon="3.554880">
        <time>2017-06-24T17:03:33Z</time>
      </trkpt>
      <trkpt lat="48.243940" lon="3.554880">
        <time>2017-06-24T17:03:34Z</time>
      </trkpt>
      <trkpt lat="48.243940" lon="3.554880">
        <time>2017-06-24T17:03:35Z</time>
      </trkpt>
      <trkpt lat="48.243940" lon="3.554880">
        <time>2017-06-24T17:03:36Z</time>
      </trkpt>
      <trkpt lat="48.243940" lon="3.554880">
        <time>2017-06-24T17:03:37Z</time>
      </trkpt>
      <trkpt lat="48.243940" lon="3.554880">
        <time>2017-06-24T17:03:38Z</time>
      </trkpt>
      <trkpt lat="48.243940" lon="3.554880">
        <time>2017-06-24T17:03:39Z</time>
      </trkpt>
      <trkpt lat="48.243940" lon="3.554880">
        <time>2017-06-24T17:03:40Z</time>
      </trkpt>
      <trkpt lat="48.243940" lon="3.554880">
        <time>2017-06-24T17:03:41Z</time>
      </trkpt>
      <trkpt lat="48.243940" lon="3.554880">
        <time>2017-06-24T17:03:42Z</time>
      </trkpt>
      <trkpt lat="48.243940" lon="3.554880">
        <time>2017-06-24T17:03:43Z</time>
      </trkpt>
      <trkpt lat="48.243940" lon="3.554880">
        <time>2017-06-24T17:03:44Z</time>
      </trkpt>
      <trkpt lat="48.243940" lon="3.554880">
        <time>2017-06-24T17:03:45Z</time>
      </trkpt>
      <trkpt lat="48.243940" lon="3.554880">
        <time>2017-06-24T17:03:46Z</time>
      </trkpt>
      <trkpt lat="48.243940" lon="3.554880">
        <time>2017-06-24T17:03:47Z</time>
      </trkpt>
      <trkpt lat="48.243940" lon="3.554880">
        <time>2017-06-24T17:03:48Z</time>
      </trkpt>
      <trkpt lat="48.243940" lon="3.554880">
        <time>2017-06-24T17:03:49Z</time>
      </trkpt>
      <trkpt lat="48.243940" lon="3.554880">
        <time>2017-06-24T17:03:50Z</time>
      </trkpt>
      <trkpt lat="48.243940" lon="3.554880">
        <time>2017-06-24T17:03:51Z</time>
      </trkpt>
      <trkpt lat="48.243940" lon="3.554880">
        <time>2017-06-24T17:03:52Z</time>
      </trkpt>
      <trkpt lat="48.243940" lon="3.554880">
        <time>2017-06-24T17:03:53Z</time>
      </trkpt>
      <trkpt lat="48.243940" lon="3.554880">
        <time>2017-06-24T17:03:54Z</time>
      </trkpt>
      <trkpt lat="48.243940" lon="3.554880">
        <time>2017-06-24T17:03:55Z</time>
      </trkpt>
      <trkpt lat="48.243940" lon="3.554880">
        <time>2017-06-24T17:03:56Z</time>
      </trkpt>
      <trkpt lat="48.243940" lon="3.554880">
        <time>2017-06-24T17:03:57Z</time>
      </trkpt>
      <trkpt lat="48.243940" lon="3.554880">
        <time>2017-06-24T17:03:58Z</time>
      </trkpt>
      <trkpt lat="48.243940" lon="3.554880">
        <time>2017-06-24T17:03:59Z</time>
      </trkpt>
      <trkpt lat="48.243940" lon="3.554880">
        <time>2017-06-24T17:04:00Z</time>
      </trkpt>
      <trkpt lat="48.243940" lon="3.554880">
        <time>2017-06-24T17:04:01Z</time>
      </trkpt>
      <trkpt lat="48.243940" lon="3.554880">
        <time>2017-06-24T17:04:02Z</time>
      </trkpt>
      <trkpt lat="48.243940" lon="3.554880">
        <time>2017-06-24T17:04:03Z</time>
      </trkpt>
      <trkpt lat="48.243940" lon="3.554880">
        <time>2017-06-24T17:04:04Z</time>
      </trkpt>
      <trkpt lat="48.243940" lon="3.554880">
        <time>2017-06-24T17:04:05Z</time>
      </trkpt>
      <trkpt lat="48.243940" lon="3.554880">
        <time>2017-06-24T17:04:06Z</time>
      </trkpt>
      <trkpt lat="48.243940" lon="3.554880">
        <time>2017-06-24T17:04:07Z</time>
      </trkpt>
      <trkpt lat="48.243940" lon="3.554880">
        <time>2017-06-24T17:04:08Z</time>
      </trkpt>
      <trkpt lat="48.243940" lon="3.554880">
        <time>2017-06-24T17:04:09Z</time>
      </trkpt>
      <trkpt lat="48.243940" lon="3.554880">
        <time>2017-06-24T17:04:10Z</time>
      </trkpt>
      <trkpt lat="48.243940" lon="3.554880">
        <time>2017-06-24T17:04:11Z</time>
      </trkpt>
      <trkpt lat="48.243940" lon="3.554880">
        <time>2017-06-24T17:04:12Z</time>
      </trkpt>
      <trkpt lat="48.243940" lon="3.554880">
        <time>2017-06-24T17:04:13Z</time>
      </trkpt>
      <trkpt lat="48.243940" lon="3.554880">
        <time>2017-06-24T17:04:14Z</time>
      </trkpt>
      <trkpt lat="48.243940" lon="3.554880">
        <time>2017-06-24T17:04:15Z</time>
      </trkpt>
      <trkpt lat="48.243940" lon="3.554880">
        <time>2017-06-24T17:04:16Z</time>
      </trkpt>
      <trkpt lat="48.243940" lon="3.554880">
        <time>2017-06-24T17:04:17Z</time>
      </trkpt>
      <trkpt lat="48.243940" lon="3.554880">
        <time>2017-06-24T17:04:18Z</time>
      </trkpt>
      <trkpt lat="48.243940" lon="3.554880">
        <time>2017-06-24T17:04:19Z</time>
      </trkpt>
      <trkpt lat="48.243940" lon="3.554880">
        <time>2017-06-24T17:04:20Z</time>
      </trkpt>
      <trkpt lat="48.243940" lon="3.554880">
        <time>2017-06-24T17:04:21Z</time>
      </trkpt>
      <trkpt lat="48.243940" lon="3.554880">
        <time>2017-06-24T17:04:22Z</time>
      </trkpt>
      <trkpt lat="48.243940" lon="3.554880">
        <time>2017-06-24T17:04:23Z</time>
      </trkpt>
      <trkpt lat="48.243940" lon="3.554880">
        <time>2017-06-24T17:04:24Z</time>
      </trkpt>
      <trkpt lat="48.243940" lon="3.554880">
        <time>2017-06-24T17:04:25Z</time>
      </trkpt>
      <trkpt lat="48.243940" lon="3.554880">
        <time>2017-06-24T17:04:26Z</time>
      </trkpt>
      <trkpt lat="48.243940" lon="3.554880">
        <time>2017-06-24T17:04:27Z</time>
      </trkpt>
      <trkpt lat="48.243940" lon="3.554880">
        <time>2017-06-24T17:04:28Z</time>
      </trkpt>
      <trkpt lat="48.243940" lon="3.554880">
        <time>2017-06-24T17:04:29Z</time>
      </trkpt>
      <trkpt lat="48.243940" lon="3.554880">
        <time>2017-06-24T17:04:30Z</time>
      </trkpt>
      <trkpt lat="48.243940" lon="3.554880">
        <time>2017-06-24T17:04:31Z</time>
      </trkpt>
      <trkpt lat="48.243940" lon="3.554880">
        <time>2017-06-24T17:04:32Z</time>
      </trkpt>
      <trkpt lat="48.243940" lon="3.554880">
        <time>2017-06-24T17:04:33Z</time>
      </trkpt>
      <trkpt lat="48.243940" lon="3.554880">
        <time>2017-06-24T17:04:34Z</time>
      </trkpt>
      <trkpt lat="48.243940" lon="3.554880">
        <time>2017-06-24T17:04:35Z</time>
      </trkpt>
      <trkpt lat="48.243940" lon="3.554880">
        <time>2017-06-24T17:04:36Z</time>
      </trkpt>
      <trkpt lat="48.243940" lon="3.554880">
        <time>2017-06-24T17:04:37Z</time>
      </trkpt>
      <trkpt lat="48.243940" lon="3.554880">
        <time>2017-06-24T17:04:38Z</time>
      </trkpt>
      <trkpt lat="48.243940" lon="3.554880">
        <time>2017-06-24T17:04:39Z</time>
      </trkpt>
      <trkpt lat="48.243940" lon="3.554880">
        <time>2017-06-24T17:04:40Z</time>
      </trkpt>
      <trkpt lat="48.243940" lon="3.554880">
        <time>2017-06-24T17:04:41Z</time>
      </trkpt>
      <trkpt lat="48.243940" lon="3.554880">
        <time>2017-06-24T17:04:42Z</time>
      </trkpt>
      <trkpt lat="48.243940" lon="3.554880">
        <time>2017-06-24T17:04:43Z</time>
      </trkpt>
      <trkpt lat="48.243940" lon="3.554880">
        <time>2017-06-24T17:04:44Z</time>
      </trkpt>
      <trkpt lat="48.243940" lon="3.554880">
        <time>2017-06-24T17:04:45Z</time>
      </trkpt>
      <trkpt lat="48.243940" lon="3.554880">
        <time>2017-06-24T17:04:46Z</time>
      </trkpt>
      <trkpt lat="48.243940" lon="3.554880">
        <time>2017-06-24T17:04:47Z</time>
      </trkpt>
      <trkpt lat="48.243940" lon="3.554880">
        <time>2017-06-24T17:04:48Z</time>
      </trkpt>
      <trkpt lat="48.243940" lon="3.554880">
        <time>2017-06-24T17:04:49Z</time>
      </trkpt>
      <trkpt lat="48.243940" lon="3.554880">
        <time>2017-06-24T17:04:50Z</time>
      </trkpt>
      <trkpt lat="48.243940" lon="3.554880">
        <time>2017-06-24T17:04:51Z</time>
      </trkpt>
      <trkpt lat="48.243940" lon="3.554880">
        <time>2017-06-24T17:04:52Z</time>
      </trkpt>
      <trkpt lat="48.243940" lon="3.554880">
        <time>2017-06-24T17:04:53Z</time>
      </trkpt>
      <trkpt lat="48.243940" lon="3.554880">
        <time>2017-06-24T17:04:54Z</time>
      </trkpt>
      <trkpt lat="48.243940" lon="3.554880">
        <time>2017-06-24T17:04:55Z</time>
      </trkpt>
      <trkpt lat="48.243940" lon="3.554880">
        <time>2017-06-24T17:04:56Z</time>
      </trkpt>
      <trkpt lat="48.243940" lon="3.554880">
        <time>2017-06-24T17:04:57Z</time>
      </trkpt>
      <trkpt lat="48.243940" lon="3.554880">
        <time>2017-06-24T17:04:58Z</time>
      </trkpt>
      <trkpt lat="48.243940" lon="3.554880">
        <time>2017-06-24T17:04:59Z</time>
      </trkpt>
      <trkpt lat="48.243940" lon="3.554880">
        <time>2017-06-24T17:05:00Z</time>
      </trkpt>
      <trkpt lat="48.243940" lon="3.554880">
        <time>2017-06-24T17:05:01Z</time>
      </trkpt>
      <trkpt lat="48.243940" lon="3.554880">
        <time>2017-06-24T17:05:02Z</time>
      </trkpt>
      <trkpt lat="48.243940" lon="3.554880">
        <time>2017-06-24T17:05:03Z</time>
      </trkpt>
      <trkpt lat="48.243940" lon="3.554880">
        <time>2017-06-24T17:05:04Z</time>
      </trkpt>
      <trkpt lat="48.243940" lon="3.554880">
        <time>2017-06-24T17:05:05Z</time>
      </trkpt>
      <trkpt lat="48.243940" lon="3.554880">
        <time>2017-06-24T17:05:06Z</time>
      </trkpt>
      <trkpt lat="48.243940" lon="3.554880">
        <time>2017-06-24T17:05:07Z</time>
      </trkpt>
      <trkpt lat="48.243940" lon="3.554880">
        <time>2017-06-24T17:05:08Z</time>
      </trkpt>
      <trkpt lat="48.243940" lon="3.554880">
        <time>2017-06-24T17:05:09Z</time>
      </trkpt>
      <trkpt lat="48.243940" lon="3.554880">
        <time>2017-06-24T17:05:10Z</time>
      </trkpt>
      <trkpt lat="48.243940" lon="3.554880">
        <time>2017-06-24T17:05:11Z</time>
      </trkpt>
      <trkpt lat="48.243940" lon="3.554880">
        <time>2017-06-24T17:05:12Z</time>
      </trkpt>
      <trkpt lat="48.243940" lon="3.554880">
        <time>2017-06-24T17:05:13Z</time>
      </trkpt>
      <trkpt lat="48.243940" lon="3.554880">
        <time>2017-06-24T17:05:14Z</time>
      </trkpt>
      <trkpt lat="48.243940" lon="3.554880">
        <time>2017-06-24T17:05:15Z</time>
      </trkpt>
      <trkpt lat="48.243940" lon="3.554880">
        <time>2017-06-24T17:05:16Z</time>
      </trkpt>
      <trkpt lat="48.243940" lon="3.554880">
        <time>2017-06-24T17:05:17Z</time>
      </trkpt>
      <trkpt lat="48.243940" lon="3.554880">
        <time>2017-06-24T17:05:18Z</time>
      </trkpt>
      <trkpt lat="48.243940" lon="3.554880">
        <time>2017-06-24T17:05:19Z</time>
      </trkpt>
      <trkpt lat="48.243940" lon="3.554880">
        <time>2017-06-24T17:05:20Z</time>
      </trkpt>
      <trkpt lat="48.243940" lon="3.554880">
        <time>2017-06-24T17:05:21Z</time>
      </trkpt>
      <trkpt lat="48.243940" lon="3.554880">
        <time>2017-06-24T17:05:22Z</time>
      </trkpt>
      <trkpt lat="48.243940" lon="3.554880">
        <time>2017-06-24T17:05:23Z</time>
      </trkpt>
      <trkpt lat="48.243940" lon="3.554880">
        <time>2017-06-24T17:05:24Z</time>
      </trkpt>
      <trkpt lat="48.243940" lon="3.554880">
        <time>2017-06-24T17:05:25Z</time>
      </trkpt>
      <trkpt lat="48.243940" lon="3.554880">
        <time>2017-06-24T17:05:26Z</time>
      </trkpt>
      <trkpt lat="48.243940" lon="3.554880">
        <time>2017-06-24T17:05:27Z</time>
      </trkpt>
      <trkpt lat="48.243940" lon="3.554880">
        <time>2017-06-24T17:05:28Z</time>
      </trkpt>
      <trkpt lat="48.243940" lon="3.554880">
        <time>2017-06-24T17:05:29Z</time>
      </trkpt>
      <trkpt lat="48.243940" lon="3.554880">
        <time>2017-06-24T17:05:30Z</time>
      </trkpt>
      <trkpt lat="48.243940" lon="3.554880">
        <time>2017-06-24T17:05:31Z</time>
      </trkpt>
      <trkpt lat="48.243940" lon="3.554880">
        <time>2017-06-24T17:05:32Z</time>
      </trkpt>
      <trkpt lat="48.243940" lon="3.554880">
        <time>2017-06-24T17:05:33Z</time>
      </trkpt>
      <trkpt lat="48.243940" lon="3.554880">
        <time>2017-06-24T17:05:34Z</time>
      </trkpt>
      <trkpt lat="48.243940" lon="3.554880">
        <time>2017-06-24T17:05:35Z</time>
      </trkpt>
      <trkpt lat="48.243940" lon="3.554880">
        <time>2017-06-24T17:05:36Z</time>
      </trkpt>
      <trkpt lat="48.243940" lon="3.554880">
        <time>2017-06-24T17:05:37Z</time>
      </trkpt>
      <trkpt lat="48.243940" lon="3.554880">
        <time>2017-06-24T17:05:38Z</time>
      </trkpt>
      <trkpt lat="48.243940" lon="3.554880">
        <time>2017-06-24T17:05:39Z</time>
      </trkpt>
      <trkpt lat="48.243940" lon="3.554880">
        <time>2017-06-24T17:05:40Z</time>
      </trkpt>
      <trkpt lat="48.243940" lon="3.554880">
        <time>2017-06-24T17:05:41Z</time>
      </trkpt>
      <trkpt lat="48.243940" lon="3.554880">
        <time>2017-06-24T17:05:42Z</time>
      </trkpt>
      <trkpt lat="48.243940" lon="3.554880">
        <time>2017-06-24T17:05:43Z</time>
      </trkpt>
      <trkpt lat="48.243940" lon="3.554880">
        <time>2017-06-24T17:05:44Z</time>
      </trkpt>
      <trkpt lat="48.243940" lon="3.554880">
        <time>2017-06-24T17:05:45Z</time>
      </trkpt>
      <trkpt lat="48.243940" lon="3.554880">
        <time>2017-06-24T17:05:46Z</time>
      </trkpt>
      <trkpt lat="48.243940" lon="3.554880">
        <time>2017-06-24T17:05:47Z</time>
      </trkpt>
      <trkpt lat="48.243940" lon="3.554880">
        <time>2017-06-24T17:05:48Z</time>
      </trkpt>
      <trkpt lat="48.243940" lon="3.554880">
        <time>2017-06-24T17:05:49Z</time>
      </trkpt>
      <trkpt lat="48.243940" lon="3.554880">
        <time>2017-06-24T17:05:50Z</time>
      </trkpt>
      <trkpt lat="48.243940" lon="3.554880">
        <time>2017-06-24T17:05:51Z</time>
      </trkpt>
      <trkpt lat="48.243940" lon="3.554880">
        <time>2017-06-24T17:05:52Z</time>
      </trkpt>
      <trkpt lat="48.243940" lon="3.554880">
        <time>2017-06-24T17:05:53Z</time>
      </trkpt>
      <trkpt lat="48.243940" lon="3.554880">
        <time>2017-06-24T17:05:54Z</time>
      </trkpt>
      <trkpt lat="48.243940" lon="3.554880">
        <time>2017-06-24T17:05:55Z</time>
      </trkpt>
      <trkpt lat="48.243940" lon="3.554880">
        <time>2017-06-24T17:05:56Z</time>
      </trkpt>
      <trkpt lat="48.243940" lon="3.554880">
        <time>2017-06-24T17:05:57Z</time>
      </trkpt>
      <trkpt lat="48.243940" lon="3.554880">
        <time>2017-06-24T17:05:58Z</time>
      </trkpt>
      <trkpt lat="48.243940" lon="3.554880">
        <time>2017-06-24T17:05:59Z</time>
      </trkpt>
      <trkpt lat="48.243940" lon="3.554880">
        <time>2017-06-24T17:06:00Z</time>
      </trkpt>
      <trkpt lat="48.243940" lon="3.554880">
        <time>2017-06-24T17:06:01Z</time>
      </trkpt>
      <trkpt lat="48.243940" lon="3.554880">
        <time>2017-06-24T17:06:02Z</time>
      </trkpt>
      <trkpt lat="48.243940" lon="3.554880">
        <time>2017-06-24T17:06:03Z</time>
      </trkpt>
      <trkpt lat="48.243940" lon="3.554880">
        <time>2017-06-24T17:06:04Z</time>
      </trkpt>
      <trkpt lat="48.243940" lon="3.554880">
        <time>2017-06-24T17:06:05Z</time>
      </trkpt>
      <trkpt lat="48.243940" lon="3.554880">
        <time>2017-06-24T17:06:06Z</time>
      </trkpt>
      <trkpt lat="48.243940" lon="3.554880">
        <time>2017-06-24T17:06:07Z</time>
      </trkpt>
      <trkpt lat="48.243940" lon="3.554880">
        <time>2017-06-24T17:06:08Z</time>
      </trkpt>
      <trkpt lat="48.243940" lon="3.554880">
        <time>2017-06-24T17:06:09Z</time>
      </trkpt>
      <trkpt lat="48.243940" lon="3.554880">
        <time>2017-06-24T17:06:10Z</time>
      </trkpt>
      <trkpt lat="48.243940" lon="3.554880">
        <time>2017-06-24T17:06:11Z</time>
      </trkpt>
      <trkpt lat="48.243940" lon="3.554880">
        <time>2017-06-24T17:06:12Z</time>
      </trkpt>
      <trkpt lat="48.243940" lon="3.554880">
        <time>2017-06-24T17:06:13Z</time>
      </trkpt>
      <trkpt lat="48.243940" lon="3.554880">
        <time>2017-06-24T17:06:14Z</time>
      </trkpt>
      <trkpt lat="48.243940" lon="3.554880">
        <time>2017-06-24T17:06:15Z</time>
      </trkpt>
      <trkpt lat="48.243940" lon="3.554880">
        <time>2017-06-24T17:06:16Z</time>
      </trkpt>
      <trkpt lat="48.243940" lon="3.554880">
        <time>2017-06-24T17:06:17Z</time>
      </trkpt>
      <trkpt lat="48.243940" lon="3.554880">
        <time>2017-06-24T17:06:18Z</time>
      </trkpt>
      <trkpt lat="48.243940" lon="3.554880">
        <time>2017-06-24T17:06:19Z</time>
      </trkpt>
      <trkpt lat="48.243940" lon="3.554880">
        <time>2017-06-24T17:06:20Z</time>
      </trkpt>
      <trkpt lat="48.243940" lon="3.554880">
        <time>2017-06-24T17:06:21Z</time>
      </trkpt>
      <trkpt lat="48.243940" lon="3.554880">
        <time>2017-06-24T17:06:22Z</time>
      </trkpt>
      <trkpt lat="48.243940" lon="3.554880">
        <time>2017-06-24T17:06:23Z</time>
      </trkpt>
      <trkpt lat="48.243940" lon="3.554880">
        <time>2017-06-24T17:06:24Z</time>
      </trkpt>
      <trkpt lat="48.243940" lon="3.554880">
        <time>2017-06-24T17:06:25Z</time>
      </trkpt>
      <trkpt lat="48.243940" lon="3.554880">
        <time>2017-06-24T17:06:26Z</time>
      </trkpt>
      <trkpt lat="48.243940" lon="3.554880">
        <time>2017-06-24T17:06:27Z</time>
      </trkpt>
      <trkpt lat="48.243940" lon="3.554880">
        <time>2017-06-24T17:06:28Z</time>
      </trkpt>
      <trkpt lat="48.243940" lon="3.554880">
        <time>2017-06-24T17:06:29Z</time>
      </trkpt>
      <trkpt lat="48.243940" lon="3.554880">
        <time>2017-06-24T17:06:30Z</time>
      </trkpt>
      <trkpt lat="48.243940" lon="3.554880">
        <time>2017-06-24T17:06:31Z</time>
      </trkpt>
      <trkpt lat="48.243940" lon="3.554880">
        <time>2017-06-24T17:06:32Z</time>
      </trkpt>
      <trkpt lat="48.243940" lon="3.554880">
        <time>2017-06-24T17:06:33Z</time>
      </trkpt>
      <trkpt lat="48.243940" lon="3.554880">
        <time>2017-06-24T17:06:34Z</time>
      </trkpt>
      <trkpt lat="48.243940" lon="3.554880">
        <time>2017-06-24T17:06:35Z</time>
      </trkpt>
      <trkpt lat="48.243940" lon="3.554880">
        <time>2017-06-24T17:06:36Z</time>
      </trkpt>
      <trkpt lat="48.243940" lon="3.554880">
        <time>2017-06-24T17:06:37Z</time>
      </trkpt>
      <trkpt lat="48.243940" lon="3.554880">
        <time>2017-06-24T17:06:38Z</time>
      </trkpt>
      <trkpt lat="48.243940" lon="3.554880">
        <time>2017-06-24T17:06:39Z</time>
      </trkpt>
      <trkpt lat="48.243940" lon="3.554880">
        <time>2017-06-24T17:06:40Z</time>
      </trkpt>
      <trkpt lat="48.243940" lon="3.554880">
        <time>2017-06-24T17:06:41Z</time>
      </trkpt>
      <trkpt lat="48.243940" lon="3.554880">
        <time>2017-06-24T17:06:42Z</time>
      </trkpt>
      <trkpt lat="48.243940" lon="3.554880">
        <time>2017-06-24T17:06:43Z</time>
      </trkpt>
      <trkpt lat="48.243940" lon="3.554880">
        <time>2017-06-24T17:06:44Z</time>
      </trkpt>
      <trkpt lat="48.243940" lon="3.554880">
        <time>2017-06-24T17:06:45Z</time>
      </trkpt>
      <trkpt lat="48.243940" lon="3.554880">
        <time>2017-06-24T17:06:46Z</time>
      </trkpt>
      <trkpt lat="48.243940" lon="3.554880">
        <time>2017-06-24T17:06:47Z</time>
      </trkpt>
      <trkpt lat="48.243940" lon="3.554880">
        <time>2017-06-24T17:06:48Z</time>
      </trkpt>
      <trkpt lat="48.243940" lon="3.554880">
        <time>2017-06-24T17:06:49Z</time>
      </trkpt>
      <trkpt lat="48.243940" lon="3.554880">
        <time>2017-06-24T17:06:50Z</time>
      </trkpt>
      <trkpt lat="48.243940" lon="3.554880">
        <time>2017-06-24T17:06:51Z</time>
      </trkpt>
      <trkpt lat="48.243940" lon="3.554880">
        <time>2017-06-24T17:06:52Z</time>
      </trkpt>
      <trkpt lat="48.243940" lon="3.554880">
        <time>2017-06-24T17:06:53Z</time>
      </trkpt>
      <trkpt lat="48.243940" lon="3.554880">
        <time>2017-06-24T17:06:54Z</time>
      </trkpt>
      <trkpt lat="48.243940" lon="3.554880">
        <time>2017-06-24T17:06:55Z</time>
      </trkpt>
      <trkpt lat="48.243940" lon="3.554880">
        <time>2017-06-24T17:06:56Z</time>
      </trkpt>
      <trkpt lat="48.243940" lon="3.554880">
        <time>2017-06-24T17:06:57Z</time>
      </trkpt>
      <trkpt lat="48.243940" lon="3.554880">
        <time>2017-06-24T17:06:58Z</time>
      </trkpt>
      <trkpt lat="48.243940" lon="3.554880">
        <time>2017-06-24T17:06:59Z</time>
      </trkpt>
      <trkpt lat="48.243940" lon="3.554880">
        <time>2017-06-24T17:07:00Z</time>
      </trkpt>
      <trkpt lat="48.243940" lon="3.554880">
        <time>2017-06-24T17:07:01Z</time>
      </trkpt>
      <trkpt lat="48.243940" lon="3.554880">
        <time>2017-06-24T17:07:02Z</time>
      </trkpt>
      <trkpt lat="48.243940" lon="3.554880">
        <time>2017-06-24T17:07:03Z</time>
      </trkpt>
      <trkpt lat="48.243940" lon="3.554880">
        <time>2017-06-24T17:07:04Z</time>
      </trkpt>
      <trkpt lat="48.243940" lon="3.554880">
        <time>2017-06-24T17:07:05Z</time>
      </trkpt>
      <trkpt lat="48.243940" lon="3.554880">
        <time>2017-06-24T17:07:06Z</time>
      </trkpt>
      <trkpt lat="48.243940" lon="3.554880">
        <time>2017-06-24T17:07:07Z</time>
      </trkpt>
      <trkpt lat="48.243940" lon="3.554880">
        <time>2017-06-24T17:07:08Z</time>
      </trkpt>
      <trkpt lat="48.243940" lon="3.554880">
        <time>2017-06-24T17:07:09Z</time>
      </trkpt>
      <trkpt lat="48.243940" lon="3.554880">
        <time>2017-06-24T17:07:10Z</time>
      </trkpt>
      <trkpt lat="48.243940" lon="3.554880">
        <time>2017-06-24T17:07:11Z</time>
      </trkpt>
      <trkpt lat="48.243940" lon="3.554880">
        <time>2017-06-24T17:07:12Z</time>
      </trkpt>
      <trkpt lat="48.243940" lon="3.554880">
        <time>2017-06-24T17:07:13Z</time>
      </trkpt>
      <trkpt lat="48.243940" lon="3.554880">
        <time>2017-06-24T17:07:14Z</time>
      </trkpt>
      <trkpt lat="48.243940" lon="3.554880">
        <time>2017-06-24T17:07:15Z</time>
      </trkpt>
      <trkpt lat="48.243940" lon="3.554880">
        <time>2017-06-24T17:07:16Z</time>
      </trkpt>
      <trkpt lat="48.243940" lon="3.554880">
        <time>2017-06-24T17:07:17Z</time>
      </trkpt>
      <trkpt lat="48.243940" lon="3.554880">
        <time>2017-06-24T17:07:18Z</time>
      </trkpt>
      <trkpt lat="48.243940" lon="3.554880">
        <time>2017-06-24T17:07:19Z</time>
      </trkpt>
      <trkpt lat="48.243940" lon="3.554880">
        <time>2017-06-24T17:07:20Z</time>
      </trkpt>
      <trkpt lat="48.243940" lon="3.554880">
        <time>2017-06-24T17:07:21Z</time>
      </trkpt>
      <trkpt lat="48.243940" lon="3.554880">
        <time>2017-06-24T17:07:22Z</time>
      </trkpt>
      <trkpt lat="48.243940" lon="3.554880">
        <time>2017-06-24T17:07:23Z</time>
      </trkpt>
      <trkpt lat="48.243940" lon="3.554880">
        <time>2017-06-24T17:07:24Z</time>
      </trkpt>
      <trkpt lat="48.243940" lon="3.554880">
        <time>2017-06-24T17:07:25Z</time>
      </trkpt>
      <trkpt lat="48.243940" lon="3.554880">
        <time>2017-06-24T17:07:26Z</time>
      </trkpt>
      <trkpt lat="48.243940" lon="3.554880">
        <time>2017-06-24T17:07:27Z</time>
      </trkpt>
      <trkpt lat="48.243940" lon="3.554880">
        <time>2017-06-24T17:07:28Z</time>
      </trkpt>
      <trkpt lat="48.243940" lon="3.554880">
        <time>2017-06-24T17:07:29Z</time>
      </trkpt>
      <trkpt lat="48.243940" lon="3.554880">
        <time>2017-06-24T17:07:30Z</time>
      </trkpt>
      <trkpt lat="48.243940" lon="3.554880">
        <time>2017-06-24T17:07:31Z</time>
      </trkpt>
      <trkpt lat="48.243940" lon="3.554880">
        <time>2017-06-24T17:07:32Z</time>
      </trkpt>
      <trkpt lat="48.243940" lon="3.554880">
        <time>2017-06-24T17:07:33Z</time>
      </trkpt>
      <trkpt lat="48.243940" lon="3.554880">
        <time>2017-06-24T17:07:34Z</time>
      </trkpt>
      <trkpt lat="48.243940" lon="3.554880">
        <time>2017-06-24T17:07:35Z</time>
      </trkpt>
      <trkpt lat="48.243940" lon="3.554880">
        <time>2017-06-24T17:07:36Z</time>
      </trkpt>
      <trkpt lat="48.243940" lon="3.554880">
        <time>2017-06-24T17:07:37Z</time>
      </trkpt>
      <trkpt lat="48.243940" lon="3.554880">
        <time>2017-06-24T17:07:38Z</time>
      </trkpt>
      <trkpt lat="48.243940" lon="3.554880">
        <time>2017-06-24T17:07:39Z</time>
      </trkpt>
      <trkpt lat="48.243940" lon="3.554880">
        <time>2017-06-24T17:07:40Z</time>
      </trkpt>
      <trkpt lat="48.243940" lon="3.554880">
        <time>2017-06-24T17:07:41Z</time>
      </trkpt>
      <trkpt lat="48.243940" lon="3.554880">
        <time>2017-06-24T17:07:42Z</time>
      </trkpt>
      <trkpt lat="48.243940" lon="3.554880">
        <time>2017-06-24T17:07:43Z</time>
      </trkpt>
      <trkpt lat="48.243940" lon="3.554880">
        <time>2017-06-24T17:07:44Z</time>
      </trkpt>
      <trkpt lat="48.243940" lon="3.554880">
        <time>2017-06-24T17:07:45Z</time>
      </trkpt>
      <trkpt lat="48.243940" lon="3.554880">
        <time>2017-06-24T17:07:46Z</time>
      </trkpt>
      <trkpt lat="48.243940" lon="3.554880">
        <time>2017-06-24T17:07:47Z</time>
      </trkpt>
      <trkpt lat="48.243940" lon="3.554880">
        <time>2017-06-24T17:07:48Z</time>
      </trkpt>
      <trkpt lat="48.243940" lon="3.554880">
        <time>2017-06-24T17:07:49Z</time>
      </trkpt>
      <trkpt lat="48.243940" lon="3.554880">
        <time>2017-06-24T17:07:50Z</time>
      </trkpt>
      <trkpt lat="48.243940" lon="3.554880">
        <time>2017-06-24T17:07:51Z</time>
      </trkpt>
      <trkpt lat="48.243940" lon="3.554880">
        <time>2017-06-24T17:07:52Z</time>
      </trkpt>
      <trkpt lat="48.243940" lon="3.554880">
        <time>2017-06-24T17:07:53Z</time>
      </trkpt>
      <trkpt lat="48.243940" lon="3.554880">
        <time>2017-06-24T17:07:54Z</time>
      </trkpt>
      <trkpt lat="48.243940" lon="3.554880">
        <time>2017-06-24T17:07:55Z</time>
      </trkpt>
      <trkpt lat="48.243940" lon="3.554880">
        <time>2017-06-24T17:07:56Z</time>
      </trkpt>
      <trkpt lat="48.243940" lon="3.554880">
        <time>2017-06-24T17:07:57Z</time>
      </trkpt>
      <trkpt lat="48.243940" lon="3.554880">
        <time>2017-06-24T17:07:58Z</time>
      </trkpt>
      <trkpt lat="48.243940" lon="3.554880">
        <time>2017-06-24T17:07:59Z</time>
      </trkpt>
      <trkpt lat="48.243940" lon="3.554880">
        <time>2017-06-24T17:08:00Z</time>
      </trkpt>
      <trkpt lat="48.243940" lon="3.554880">
        <time>2017-06-24T17:08:01Z</time>
      </trkpt>
      <trkpt lat="48.243940" lon="3.554880">
        <time>2017-06-24T17:08:02Z</time>
      </trkpt>
      <trkpt lat="48.243940" lon="3.554880">
        <time>2017-06-24T17:08:03Z</time>
      </trkpt>
      <trkpt lat="48.243940" lon="3.554880">
        <time>2017-06-24T17:08:04Z</time>
      </trkpt>
      <trkpt lat="48.243940" lon="3.554880">
        <time>2017-06-24T17:08:05Z</time>
      </trkpt>
      <trkpt lat="48.243940" lon="3.554880">
        <time>2017-06-24T17:08:06Z</time>
      </trkpt>
      <trkpt lat="48.243940" lon="3.554880">
        <time>2017-06-24T17:08:07Z</time>
      </trkpt>
      <trkpt lat="48.243940" lon="3.554880">
        <time>2017-06-24T17:08:08Z</time>
      </trkpt>
      <trkpt lat="48.243940" lon="3.554880">
        <time>2017-06-24T17:08:09Z</time>
      </trkpt>
      <trkpt lat="48.243940" lon="3.554880">
        <time>2017-06-24T17:08:10Z</time>
      </trkpt>
      <trkpt lat="48.243940" lon="3.554880">
        <time>2017-06-24T17:08:11Z</time>
      </trkpt>
      <trkpt lat="48.243940" lon="3.554880">
        <time>2017-06-24T17:08:12Z</time>
      </trkpt>
      <trkpt lat="48.243940" lon="3.554880">
        <time>2017-06-24T17:08:13Z</time>
      </trkpt>
      <trkpt lat="48.243940" lon="3.554880">
        <time>2017-06-24T17:08:14Z</time>
      </trkpt>
      <trkpt lat="48.243940" lon="3.554880">
        <time>2017-06-24T17:08:15Z</time>
      </trkpt>
      <trkpt lat="48.243940" lon="3.554880">
        <time>2017-06-24T17:08:16Z</time>
      </trkpt>
      <trkpt lat="48.243940" lon="3.554880">
        <time>2017-06-24T17:08:17Z</time>
      </trkpt>
      <trkpt lat="48.243940" lon="3.554880">
        <time>2017-06-24T17:08:18Z</time>
      </trkpt>
      <trkpt lat="48.243940" lon="3.554880">
        <time>2017-06-24T17:08:19Z</time>
      </trkpt>
      <trkpt lat="48.243940" lon="3.554880">
        <time>2017-06-24T17:08:20Z</time>
      </trkpt>
      <trkpt lat="48.243940" lon="3.554880">
        <time>2017-06-24T17:08:21Z</time>
      </trkpt>
      <trkpt lat="48.243940" lon="3.554880">
        <time>2017-06-24T17:08:22Z</time>
      </trkpt>
      <trkpt lat="48.243940" lon="3.554880">
        <time>2017-06-24T17:08:23Z</time>
      </trkpt>
      <trkpt lat="48.243940" lon="3.554880">
        <time>2017-06-24T17:08:24Z</time>
      </trkpt>
      <trkpt lat="48.243940" lon="3.554880">
        <time>2017-06-24T17:08:25Z</time>
      </trkpt>
      <trkpt lat="48.243940" lon="3.554880">
        <time>2017-06-24T17:08:26Z</time>
      </trkpt>
      <trkpt lat="48.243940" lon="3.554880">
        <time>2017-06-24T17:08:27Z</time>
      </trkpt>
      <trkpt lat="48.243940" lon="3.554880">
        <time>2017-06-24T17:08:28Z</time>
      </trkpt>
      <trkpt lat="48.243940" lon="3.554880">
        <time>2017-06-24T17:08:29Z</time>
      </trkpt>
      <trkpt lat="48.243940" lon="3.554880">
        <time>2017-06-24T17:08:30Z</time>
      </trkpt>
      <trkpt lat="48.243940" lon="3.554880">
        <time>2017-06-24T17:08:31Z</time>
      </trkpt>
      <trkpt lat="48.243940" lon="3.554880">
        <time>2017-06-24T17:08:32Z</time>
      </trkpt>
      <trkpt lat="48.243940" lon="3.554880">
        <time>2017-06-24T17:08:33Z</time>
      </trkpt>
      <trkpt lat="48.243940" lon="3.554880">
        <time>2017-06-24T17:08:34Z</time>
      </trkpt>
      <trkpt lat="48.243940" lon="3.554880">
        <time>2017-06-24T17:08:35Z</time>
      </trkpt>
      <trkpt lat="48.243940" lon="3.554880">
        <time>2017-06-24T17:08:36Z</time>
      </trkpt>
      <trkpt lat="48.243940" lon="3.554880">
        <time>2017-06-24T17:08:37Z</time>
      </trkpt>
      <trkpt lat="48.243940" lon="3.554880">
        <time>2017-06-24T17:08:38Z</time>
      </trkpt>
      <trkpt lat="48.243940" lon="3.554880">
        <time>2017-06-24T17:08:39Z</time>
      </trkpt>
      <trkpt lat="48.243940" lon="3.554880">
        <time>2017-06-24T17:08:40Z</time>
      </trkpt>
      <trkpt lat="48.243940" lon="3.554880">
        <time>2017-06-24T17:08:41Z</time>
      </trkpt>
      <trkpt lat="48.243940" lon="3.554880">
        <time>2017-06-24T17:08:42Z</time>
      </trkpt>
      <trkpt lat="48.243940" lon="3.554880">
        <time>2017-06-24T17:08:43Z</time>
      </trkpt>
      <trkpt lat="48.243940" lon="3.554880">
        <time>2017-06-24T17:08:44Z</time>
      </trkpt>
      <trkpt lat="48.243940" lon="3.554880">
        <time>2017-06-24T17:08:45Z</time>
      </trkpt>
      <trkpt lat="48.243940" lon="3.554880">
        <time>2017-06-24T17:08:46Z</time>
      </trkpt>
      <trkpt lat="48.243940" lon="3.554880">
        <time>2017-06-24T17:08:47Z</time>
      </trkpt>
      <trkpt lat="48.243940" lon="3.554880">
        <time>2017-06-24T17:08:48Z</time>
      </trkpt>
      <trkpt lat="48.243940" lon="3.554880">
        <time>2017-06-24T17:08:49Z</time>
      </trkpt>
      <trkpt lat="48.243940" lon="3.554880">
        <time>2017-06-24T17:08:50Z</time>
      </trkpt>
      <trkpt lat="48.243940" lon="3.554880">
        <time>2017-06-24T17:08:51Z</time>
      </trkpt>
      <trkpt lat="48.243940" lon="3.554880">
        <time>2017-06-24T17:08:52Z</time>
      </trkpt>
      <trkpt lat="48.243940" lon="3.554880">
        <time>2017-06-24T17:08:53Z</time>
      </trkpt>
      <trkpt lat="48.243940" lon="3.554880">
        <time>2017-06-24T17:08:54Z</time>
      </trkpt>
      <trkpt lat="48.243940" lon="3.554880">
        <time>2017-06-24T17:08:55Z</time>
      </trkpt>
      <trkpt lat="48.243940" lon="3.554880">
        <time>2017-06-24T17:08:56Z</time>
      </trkpt>
      <trkpt lat="48.243940" lon="3.554880">
        <time>2017-06-24T17:08:57Z</time>
      </trkpt>
      <trkpt lat="48.243940" lon="3.554880">
        <time>2017-06-24T17:08:58Z</time>
      </trkpt>
      <trkpt lat="48.243940" lon="3.554880">
        <time>2017-06-24T17:08:59Z</time>
      </trkpt>
      <trkpt lat="48.243940" lon="3.554880">
        <time>2017-06-24T17:09:00Z</time>
      </trkpt>
      <trkpt lat="48.243940" lon="3.554880">
        <time>2017-06-24T17:09:01Z</time>
      </trkpt>
      <trkpt lat="48.243940" lon="3.554880">
        <time>2017-06-24T17:09:02Z</time>
      </trkpt>
      <trkpt lat="48.243940" lon="3.554880">
        <time>2017-06-24T17:09:03Z</time>
      </trkpt>
      <trkpt lat="48.243940" lon="3.554880">
        <time>2017-06-24T17:09:04Z</time>
      </trkpt>
      <trkpt lat="48.243940" lon="3.554880">
        <time>2017-06-24T17:09:05Z</time>
      </trkpt>
      <trkpt lat="48.243940" lon="3.554880">
        <time>2017-06-24T17:09:06Z</time>
      </trkpt>
      <trkpt lat="48.243940" lon="3.554880">
        <time>2017-06-24T17:09:07Z</time>
      </trkpt>
      <trkpt lat="48.243940" lon="3.554880">
        <time>2017-06-24T17:09:08Z</time>
      </trkpt>
      <trkpt lat="48.243940" lon="3.554880">
        <time>2017-06-24T17:09:09Z</time>
      </trkpt>
      <trkpt lat="48.243940" lon="3.554880">
        <time>2017-06-24T17:09:10Z</time>
      </trkpt>
      <trkpt lat="48.243940" lon="3.554880">
        <time>2017-06-24T17:09:11Z</time>
      </trkpt>
      <trkpt lat="48.243940" lon="3.554880">
        <time>2017-06-24T17:09:12Z</time>
      </trkpt>
      <trkpt lat="48.243940" lon="3.554880">
        <time>2017-06-24T17:09:13Z</time>
      </trkpt>
      <trkpt lat="48.243940" lon="3.554880">
        <time>2017-06-24T17:09:14Z</time>
      </trkpt>
      <trkpt lat="48.243940" lon="3.554880">
        <time>2017-06-24T17:09:15Z</time>
      </trkpt>
      <trkpt lat="48.243940" lon="3.554880">
        <time>2017-06-24T17:09:16Z</time>
      </trkpt>
      <trkpt lat="48.243940" lon="3.554880">
        <time>2017-06-24T17:09:17Z</time>
      </trkpt>
      <trkpt lat="48.243940" lon="3.554880">
        <time>2017-06-24T17:09:18Z</time>
      </trkpt>
      <trkpt lat="48.243940" lon="3.554880">
        <time>2017-06-24T17:09:19Z</time>
      </trkpt>
      <trkpt lat="48.243940" lon="3.554880">
        <time>2017-06-24T17:09:20Z</time>
      </trkpt>
      <trkpt lat="48.243940" lon="3.554880">
        <time>2017-06-24T17:09:21Z</time>
      </trkpt>
      <trkpt lat="48.243940" lon="3.554880">
        <time>2017-06-24T17:09:22Z</time>
      </trkpt>
      <trkpt lat="48.243940" lon="3.554880">
        <time>2017-06-24T17:09:23Z</time>
      </trkpt>
      <trkpt lat="48.243940" lon="3.554880">
        <time>2017-06-24T17:09:24Z</time>
      </trkpt>
      <trkpt lat="48.243940" lon="3.554880">
        <time>2017-06-24T17:09:25Z</time>
      </trkpt>
      <trkpt lat="48.243940" lon="3.554880">
        <time>2017-06-24T17:09:26Z</time>
      </trkpt>
      <trkpt lat="48.243940" lon="3.554880">
        <time>2017-06-24T17:09:27Z</time>
      </trkpt>
      <trkpt lat="48.243940" lon="3.554880">
        <time>2017-06-24T17:09:28Z</time>
      </trkpt>
      <trkpt lat="48.243940" lon="3.554880">
        <time>2017-06-24T17:09:29Z</time>
      </trkpt>
      <trkpt lat="48.243940" lon="3.554880">
        <time>2017-06-24T17:09:30Z</time>
      </trkpt>
      <trkpt lat="48.243940" lon="3.554880">
        <time>2017-06-24T17:09:31Z</time>
      </trkpt>
      <trkpt lat="48.243940" lon="3.554880">
        <time>2017-06-24T17:09:32Z</time>
      </trkpt>
      <trkpt lat="48.243940" lon="3.554880">
        <time>2017-06-24T17:09:33Z</time>
      </trkpt>
      <trkpt lat="48.243940" lon="3.554880">
        <time>2017-06-24T17:09:34Z</time>
      </trkpt>
      <trkpt lat="48.243940" lon="3.554880">
        <time>2017-06-24T17:09:35Z</time>
      </trkpt>
      <trkpt lat="48.243940" lon="3.554880">
        <time>2017-06-24T17:09:36Z</time>
      </trkpt>
      <trkpt lat="48.243940" lon="3.554880">
        <time>2017-06-24T17:09:37Z</time>
      </trkpt>
      <trkpt lat="48.243940" lon="3.554880">
        <time>2017-06-24T17:09:38Z</time>
      </trkpt>
      <trkpt lat="48.243940" lon="3.554880">
        <time>2017-06-24T17:09:39Z</time>
      </trkpt>
      <trkpt lat="48.243940" lon="3.554880">
        <time>2017-06-24T17:09:40Z</time>
      </trkpt>
      <trkpt lat="48.243940" lon="3.554880">
        <time>2017-06-24T17:09:41Z</time>
      </trkpt>
      <trkpt lat="48.243940" lon="3.554880">
        <time>2017-06-24T17:09:42Z</time>
      </trkpt>
      <trkpt lat="48.243940" lon="3.554880">
        <time>2017-06-24T17:09:43Z</time>
      </trkpt>
      <trkpt lat="48.243940" lon="3.554880">
        <time>2017-06-24T17:09:44Z</time>
      </trkpt>
      <trkpt lat="48.243940" lon="3.554880">
        <time>2017-06-24T17:09:45Z</time>
      </trkpt>
      <trkpt lat="48.243940" lon="3.554880">
        <time>2017-06-24T17:09:46Z</time>
      </trkpt>
      <trkpt lat="48.243940" lon="3.554880">
        <time>2017-06-24T17:09:47Z</time>
      </trkpt>
      <trkpt lat="48.243940" lon="3.554880">
        <time>2017-06-24T17:09:48Z</time>
      </trkpt>
      <trkpt lat="48.243940" lon="3.554880">
        <time>2017-06-24T17:09:49Z</time>
      </trkpt>
      <trkpt lat="48.243940" lon="3.554880">
        <time>2017-06-24T17:09:50Z</time>
      </trkpt>
      <trkpt lat="48.243940" lon="3.554880">
        <time>2017-06-24T17:09:51Z</time>
      </trkpt>
      <trkpt lat="48.243940" lon="3.554880">
        <time>2017-06-24T17:09:52Z</time>
      </trkpt>
      <trkpt lat="48.243940" lon="3.554880">
        <time>2017-06-24T17:09:53Z</time>
      </trkpt>
      <trkpt lat="48.243940" lon="3.554880">
        <time>2017-06-24T17:09:54Z</time>
      </trkpt>
      <trkpt lat="48.243940" lon="3.554880">
        <time>2017-06-24T17:09:55Z</time>
      </trkpt>
      <trkpt lat="48.243940" lon="3.554880">
        <time>2017-06-24T17:09:56Z</time>
      </trkpt>
      <trkpt lat="48.243940" lon="3.554880">
        <time>2017-06-24T17:09:57Z</time>
      </trkpt>
      <trkpt lat="48.243940" lon="3.554880">
        <time>2017-06-24T17:09:58Z</time>
      </trkpt>
      <trkpt lat="48.243940" lon="3.554880">
        <time>2017-06-24T17:09:59Z</time>
      </trkpt>
      <trkpt lat="48.243940" lon="3.554880">
        <time>2017-06-24T17:10:00Z</time>
      </trkpt>
      <trkpt lat="48.243940" lon="3.554880">
        <time>2017-06-24T17:10:01Z</time>
      </trkpt>
      <trkpt lat="48.243940" lon="3.554880">
        <time>2017-06-24T17:10:02Z</time>
      </trkpt>
      <trkpt lat="48.243940" lon="3.554880">
        <time>2017-06-24T17:10:03Z</time>
      </trkpt>
      <trkpt lat="48.243940" lon="3.554880">
        <time>2017-06-24T17:10:04Z</time>
      </trkpt>
      <trkpt lat="48.243940" lon="3.554880">
        <time>2017-06-24T17:10:05Z</time>
      </trkpt>
      <trkpt lat="48.243940" lon="3.554880">
        <time>2017-06-24T17:10:06Z</time>
      </trkpt>
      <trkpt lat="48.243940" lon="3.554880">
        <time>2017-06-24T17:10:07Z</time>
      </trkpt>
      <trkpt lat="48.243940" lon="3.554880">
        <time>2017-06-24T17:10:08Z</time>
      </trkpt>
      <trkpt lat="48.243940" lon="3.554880">
        <time>2017-06-24T17:10:09Z</time>
      </trkpt>
      <trkpt lat="48.243940" lon="3.554880">
        <time>2017-06-24T17:10:10Z</time>
      </trkpt>
      <trkpt lat="48.243940" lon="3.554880">
        <time>2017-06-24T17:10:11Z</time>
      </trkpt>
      <trkpt lat="48.243940" lon="3.554880">
        <time>2017-06-24T17:10:12Z</time>
      </trkpt>
      <trkpt lat="48.243940" lon="3.554880">
        <time>2017-06-24T17:10:13Z</time>
      </trkpt>
      <trkpt lat="48.243940" lon="3.554880">
        <time>2017-06-24T17:10:14Z</time>
      </trkpt>
      <trkpt lat="48.243940" lon="3.554880">
        <time>2017-06-24T17:10:15Z</time>
      </trkpt>
      <trkpt lat="48.243940" lon="3.554880">
        <time>2017-06-24T17:10:16Z</time>
      </trkpt>
      <trkpt lat="48.243940" lon="3.554880">
        <time>2017-06-24T17:10:17Z</time>
      </trkpt>
      <trkpt lat="48.243940" lon="3.554880">
        <time>2017-06-24T17:10:18Z</time>
      </trkpt>
      <trkpt lat="48.243940" lon="3.554880">
        <time>2017-06-24T17:10:19Z</time>
      </trkpt>
      <trkpt lat="48.243940" lon="3.554880">
        <time>2017-06-24T17:10:20Z</time>
      </trkpt>
      <trkpt lat="48.243940" lon="3.554880">
        <time>2017-06-24T17:10:21Z</time>
      </trkpt>
      <trkpt lat="48.243940" lon="3.554880">
        <time>2017-06-24T17:10:22Z</time>
      </trkpt>
      <trkpt lat="48.243940" lon="3.554880">
        <time>2017-06-24T17:10:23Z</time>
      </trkpt>
      <trkpt lat="48.243940" lon="3.554880">
        <time>2017-06-24T17:10:24Z</time>
      </trkpt>
      <trkpt lat="48.243940" lon="3.554880">
        <time>2017-06-24T17:10:25Z</time>
      </trkpt>
      <trkpt lat="48.243940" lon="3.554880">
        <time>2017-06-24T17:10:26Z</time>
      </trkpt>
      <trkpt lat="48.243940" lon="3.554880">
        <time>2017-06-24T17:10:27Z</time>
      </trkpt>
      <trkpt lat="48.243940" lon="3.554880">
        <time>2017-06-24T17:10:28Z</time>
      </trkpt>
      <trkpt lat="48.243940" lon="3.554880">
        <time>2017-06-24T17:10:29Z</time>
      </trkpt>
      <trkpt lat="48.243940" lon="3.554880">
        <time>2017-06-24T17:10:30Z</time>
      </trkpt>
      <trkpt lat="48.243940" lon="3.554880">
        <time>2017-06-24T17:10:31Z</time>
      </trkpt>
      <trkpt lat="48.243940" lon="3.554880">
        <time>2017-06-24T17:10:32Z</time>
      </trkpt>
      <trkpt lat="48.243940" lon="3.554880">
        <time>2017-06-24T17:10:33Z</time>
      </trkpt>
      <trkpt lat="48.243940" lon="3.554880">
        <time>2017-06-24T17:10:34Z</time>
      </trkpt>
      <trkpt lat="48.243940" lon="3.554880">
        <time>2017-06-24T17:10:35Z</time>
      </trkpt>
      <trkpt lat="48.243940" lon="3.554880">
        <time>2017-06-24T17:10:36Z</time>
      </trkpt>
      <trkpt lat="48.243940" lon="3.554880">
        <time>2017-06-24T17:10:37Z</time>
      </trkpt>
      <trkpt lat="48.243940" lon="3.554880">
        <time>2017-06-24T17:10:38Z</time>
      </trkpt>
      <trkpt lat="48.243940" lon="3.554880">
        <time>2017-06-24T17:10:39Z</time>
      </trkpt>
      <trkpt lat="48.243940" lon="3.554880">
        <time>2017-06-24T17:10:40Z</time>
      </trkpt>
      <trkpt lat="48.243940" lon="3.554880">
        <time>2017-06-24T17:10:41Z</time>
      </trkpt>
      <trkpt lat="48.243940" lon="3.554880">
        <time>2017-06-24T17:10:42Z</time>
      </trkpt>
      <trkpt lat="48.243940" lon="3.554880">
        <time>2017-06-24T17:10:43Z</time>
      </trkpt>
      <trkpt lat="48.243940" lon="3.554880">
        <time>2017-06-24T17:10:44Z</time>
      </trkpt>
      <trkpt lat="48.243940" lon="3.554880">
        <time>2017-06-24T17:10:45Z</time>
      </trkpt>
      <trkpt lat="48.243940" lon="3.554880">
        <time>2017-06-24T17:10:46Z</time>
      </trkpt>
      <trkpt lat="48.243940" lon="3.554880">
        <time>2017-06-24T17:10:47Z</time>
      </trkpt>
      <trkpt lat="48.243940" lon="3.554880">
        <time>2017-06-24T17:10:48Z</time>
      </trkpt>
      <trkpt lat="48.243940" lon="3.554880">
        <time>2017-06-24T17:10:49Z</time>
      </trkpt>
      <trkpt lat="48.243940" lon="3.554880">
        <time>2017-06-24T17:10:50Z</time>
      </trkpt>
      <trkpt lat="48.243940" lon="3.554880">
        <time>2017-06-24T17:10:51Z</time>
      </trkpt>
      <trkpt lat="48.243940" lon="3.554880">
        <time>2017-06-24T17:10:52Z</time>
      </trkpt>
      <trkpt lat="48.243940" lon="3.554880">
        <time>2017-06-24T17:10:53Z</time>
      </trkpt>
      <trkpt lat="48.243940" lon="3.554880">
        <time>2017-06-24T17:10:54Z</time>
      </trkpt>
      <trkpt lat="48.243940" lon="3.554880">
        <time>2017-06-24T17:10:55Z</time>
      </trkpt>
      <trkpt lat="48.243940" lon="3.554880">
        <time>2017-06-24T17:10:56Z</time>
      </trkpt>
      <trkpt lat="48.243940" lon="3.554880">
        <time>2017-06-24T17:10:57Z</time>
      </trkpt>
      <trkpt lat="48.243940" lon="3.554880">
        <time>2017-06-24T17:10:58Z</time>
      </trkpt>
      <trkpt lat="48.243940" lon="3.554880">
        <time>2017-06-24T17:10:59Z</time>
      </trkpt>
      <trkpt lat="48.243940" lon="3.554880">
        <time>2017-06-24T17:11:00Z</time>
      </trkpt>
      <trkpt lat="48.243940" lon="3.554880">
        <time>2017-06-24T17:11:01Z</time>
      </trkpt>
      <trkpt lat="48.243940" lon="3.554880">
        <time>2017-06-24T17:11:02Z</time>
      </trkpt>
      <trkpt lat="48.243940" lon="3.554880">
        <time>2017-06-24T17:11:03Z</time>
      </trkpt>
      <trkpt lat="48.243940" lon="3.554880">
        <time>2017-06-24T17:11:04Z</time>
      </trkpt>
      <trkpt lat="48.243940" lon="3.554880">
        <time>2017-06-24T17:11:05Z</time>
      </trkpt>
      <trkpt lat="48.243940" lon="3.554880">
        <time>2017-06-24T17:11:06Z</time>
      </trkpt>
      <trkpt lat="48.243940" lon="3.554880">
        <time>2017-06-24T17:11:07Z</time>
      </trkpt>
      <trkpt lat="48.243940" lon="3.554880">
        <time>2017-06-24T17:11:08Z</time>
      </trkpt>
      <trkpt lat="48.243940" lon="3.554880">
        <time>2017-06-24T17:11:09Z</time>
      </trkpt>
      <trkpt lat="48.243940" lon="3.554880">
        <time>2017-06-24T17:11:10Z</time>
      </trkpt>
      <trkpt lat="48.243940" lon="3.554880">
        <time>2017-06-24T17:11:11Z</time>
      </trkpt>
      <trkpt lat="48.243940" lon="3.554880">
        <time>2017-06-24T17:11:12Z</time>
      </trkpt>
      <trkpt lat="48.243940" lon="3.554880">
        <time>2017-06-24T17:11:13Z</time>
      </trkpt>
      <trkpt lat="48.243940" lon="3.554880">
        <time>2017-06-24T17:11:14Z</time>
      </trkpt>
      <trkpt lat="48.243940" lon="3.554880">
        <time>2017-06-24T17:11:15Z</time>
      </trkpt>
      <trkpt lat="48.243940" lon="3.554880">
        <time>2017-06-24T17:11:16Z</time>
      </trkpt>
      <trkpt lat="48.243940" lon="3.554880">
        <time>2017-06-24T17:11:17Z</time>
      </trkpt>
      <trkpt lat="48.243940" lon="3.554880">
        <time>2017-06-24T17:11:18Z</time>
      </trkpt>
      <trkpt lat="48.243940" lon="3.554880">
        <time>2017-06-24T17:11:19Z</time>
      </trkpt>
      <trkpt lat="48.243940" lon="3.554880">
        <time>2017-06-24T17:11:20Z</time>
      </trkpt>
      <trkpt lat="48.243940" lon="3.554880">
        <time>2017-06-24T17:11:21Z</time>
      </trkpt>
      <trkpt lat="48.243940" lon="3.554880">
        <time>2017-06-24T17:11:22Z</time>
      </trkpt>
      <trkpt lat="48.243940" lon="3.554880">
        <time>2017-06-24T17:11:23Z</time>
      </trkpt>
      <trkpt lat="48.243940" lon="3.554880">
        <time>2017-06-24T17:11:24Z</time>
      </trkpt>
      <trkpt lat="48.243940" lon="3.554880">
        <time>2017-06-24T17:11:25Z</time>
      </trkpt>
      <trkpt lat="48.243940" lon="3.554880">
        <time>2017-06-24T17:11:26Z</time>
      </trkpt>
      <trkpt lat="48.243940" lon="3.554880">
        <time>2017-06-24T17:11:27Z</time>
      </trkpt>
      <trkpt lat="48.243940" lon="3.554880">
        <time>2017-06-24T17:11:28Z</time>
      </trkpt>
      <trkpt lat="48.243940" lon="3.554880">
        <time>2017-06-24T17:11:29Z</time>
      </trkpt>
      <trkpt lat="48.243940" lon="3.554880">
        <time>2017-06-24T17:11:30Z</time>
      </trkpt>
      <trkpt lat="48.243940" lon="3.554880">
        <time>2017-06-24T17:11:31Z</time>
      </trkpt>
      <trkpt lat="48.243940" lon="3.554880">
        <time>2017-06-24T17:11:32Z</time>
      </trkpt>
      <trkpt lat="48.243940" lon="3.554880">
        <time>2017-06-24T17:11:33Z</time>
      </trkpt>
      <trkpt lat="48.243940" lon="3.554880">
        <time>2017-06-24T17:11:34Z</time>
      </trkpt>
      <trkpt lat="48.243940" lon="3.554880">
        <time>2017-06-24T17:11:35Z</time>
      </trkpt>
      <trkpt lat="48.243940" lon="3.554880">
        <time>2017-06-24T17:11:36Z</time>
      </trkpt>
      <trkpt lat="48.243940" lon="3.554880">
        <time>2017-06-24T17:11:37Z</time>
      </trkpt>
      <trkpt lat="48.243940" lon="3.554880">
        <time>2017-06-24T17:11:38Z</time>
      </trkpt>
      <trkpt lat="48.243940" lon="3.554880">
        <time>2017-06-24T17:11:39Z</time>
      </trkpt>
      <trkpt lat="48.243940" lon="3.554880">
        <time>2017-06-24T17:11:40Z</time>
      </trkpt>
      <trkpt lat="48.243940" lon="3.554880">
        <time>2017-06-24T17:11:41Z</time>
      </trkpt>
      <trkpt lat="48.243940" lon="3.554880">
        <time>2017-06-24T17:11:42Z</time>
      </trkpt>
      <trkpt lat="48.243940" lon="3.554880">
        <time>2017-06-24T17:11:43Z</time>
      </trkpt>
      <trkpt lat="48.243940" lon="3.554880">
        <time>2017-06-24T17:11:44Z</time>
      </trkpt>
      <trkpt lat="48.243940" lon="3.554880">
        <time>2017-06-24T17:11:45Z</time>
      </trkpt>
      <trkpt lat="48.243940" lon="3.554880">
        <time>2017-06-24T17:11:46Z</time>
      </trkpt>
      <trkpt lat="48.243940" lon="3.554880">
        <time>2017-06-24T17:11:47Z</time>
      </trkpt>
      <trkpt lat="48.243940" lon="3.554880">
        <time>2017-06-24T17:11:48Z</time>
      </trkpt>
      <trkpt lat="48.243940" lon="3.554880">
        <time>2017-06-24T17:11:49Z</time>
      </trkpt>
      <trkpt lat="48.243940" lon="3.554880">
        <time>2017-06-24T17:11:50Z</time>
      </trkpt>
      <trkpt lat="48.243940" lon="3.554880">
        <time>2017-06-24T17:11:51Z</time>
      </trkpt>
      <trkpt lat="48.243940" lon="3.554880">
        <time>2017-06-24T17:11:52Z</time>
      </trkpt>
      <trkpt lat="48.243940" lon="3.554880">
        <time>2017-06-24T17:11:53Z</time>
      </trkpt>
      <trkpt lat="48.243940" lon="3.554880">
        <time>2017-06-24T17:11:54Z</time>
      </trkpt>
      <trkpt lat="48.243940" lon="3.554880">
        <time>2017-06-24T17:11:55Z</time>
      </trkpt>
      <trkpt lat="48.243940" lon="3.554880">
        <time>2017-06-24T17:11:56Z</time>
      </trkpt>
      <trkpt lat="48.243940" lon="3.554880">
        <time>2017-06-24T17:11:57Z</time>
      </trkpt>
      <trkpt lat="48.243940" lon="3.554880">
        <time>2017-06-24T17:11:58Z</time>
      </trkpt>
      <trkpt lat="48.243940" lon="3.554880">
        <time>2017-06-24T17:11:59Z</time>
      </trkpt>
      <trkpt lat="48.243940" lon="3.554880">
        <time>2017-06-24T17:12:00Z</time>
      </trkpt>
      <trkpt lat="48.243940" lon="3.554880">
        <time>2017-06-24T17:12:01Z</time>
      </trkpt>
      <trkpt lat="48.243940" lon="3.554880">
        <time>2017-06-24T17:12:02Z</time>
      </trkpt>
      <trkpt lat="48.243940" lon="3.554880">
        <time>2017-06-24T17:12:03Z</time>
      </trkpt>
      <trkpt lat="48.243940" lon="3.554880">
        <time>2017-06-24T17:12:04Z</time>
      </trkpt>
      <trkpt lat="48.243940" lon="3.554880">
        <time>2017-06-24T17:12:05Z</time>
      </trkpt>
      <trkpt lat="48.243940" lon="3.554880">
        <time>2017-06-24T17:12:06Z</time>
      </trkpt>
      <trkpt lat="48.243940" lon="3.554880">
        <time>2017-06-24T17:12:07Z</time>
      </trkpt>
      <trkpt lat="48.243940" lon="3.554880">
        <time>2017-06-24T17:12:08Z</time>
      </trkpt>
      <trkpt lat="48.243940" lon="3.554880">
        <time>2017-06-24T17:12:09Z</time>
      </trkpt>
      <trkpt lat="48.243940" lon="3.554880">
        <time>2017-06-24T17:12:10Z</time>
      </trkpt>
      <trkpt lat="48.243940" lon="3.554880">
        <time>2017-06-24T17:12:11Z</time>
      </trkpt>
      <trkpt lat="48.243940" lon="3.554880">
        <time>2017-06-24T17:12:12Z</time>
      </trkpt>
      <trkpt lat="48.243940" lon="3.554880">
        <time>2017-06-24T17:12:13Z</time>
      </trkpt>
      <trkpt lat="48.243940" lon="3.554880">
        <time>2017-06-24T17:12:14Z</time>
      </trkpt>
      <trkpt lat="48.243940" lon="3.554880">
        <time>2017-06-24T17:12:15Z</time>
      </trkpt>
      <trkpt lat="48.243940" lon="3.554880">
        <time>2017-06-24T17:12:16Z</time>
      </trkpt>
      <trkpt lat="48.243940" lon="3.554880">
        <time>2017-06-24T17:12:17Z</time>
      </trkpt>
      <trkpt lat="48.243940" lon="3.554880">
        <time>2017-06-24T17:12:18Z</time>
      </trkpt>
      <trkpt lat="48.243940" lon="3.554880">
        <time>2017-06-24T17:12:19Z</time>
      </trkpt>
      <trkpt lat="48.243940" lon="3.554880">
        <time>2017-06-24T17:12:20Z</time>
      </trkpt>
      <trkpt lat="48.243940" lon="3.554880">
        <time>2017-06-24T17:12:21Z</time>
      </trkpt>
      <trkpt lat="48.243940" lon="3.554880">
        <time>2017-06-24T17:12:22Z</time>
      </trkpt>
      <trkpt lat="48.243940" lon="3.554880">
        <time>2017-06-24T17:12:23Z</time>
      </trkpt>
      <trkpt lat="48.243940" lon="3.554880">
        <time>2017-06-24T17:12:24Z</time>
      </trkpt>
      <trkpt lat="48.243940" lon="3.554880">
        <time>2017-06-24T17:12:25Z</time>
      </trkpt>
      <trkpt lat="48.243940" lon="3.554880">
        <time>2017-06-24T17:12:26Z</time>
      </trkpt>
      <trkpt lat="48.243940" lon="3.554880">
        <time>2017-06-24T17:12:27Z</time>
      </trkpt>
      <trkpt lat="48.243940" lon="3.554880">
        <time>2017-06-24T17:12:28Z</time>
      </trkpt>
      <trkpt lat="48.243940" lon="3.554880">
        <time>2017-06-24T17:12:29Z</time>
      </trkpt>
      <trkpt lat="48.243940" lon="3.554880">
        <time>2017-06-24T17:12:30Z</time>
      </trkpt>
      <trkpt lat="48.243940" lon="3.554880">
        <time>2017-06-24T17:12:31Z</time>
      </trkpt>
      <trkpt lat="48.243940" lon="3.554880">
        <time>2017-06-24T17:12:32Z</time>
      </trkpt>
      <trkpt lat="48.243940" lon="3.554880">
        <time>2017-06-24T17:12:33Z</time>
      </trkpt>
      <trkpt lat="48.243940" lon="3.554880">
        <time>2017-06-24T17:12:34Z</time>
      </trkpt>
      <trkpt lat="48.243940" lon="3.554880">
        <time>2017-06-24T17:12:35Z</time>
      </trkpt>
      <trkpt lat="48.243940" lon="3.554880">
        <time>2017-06-24T17:12:36Z</time>
      </trkpt>
      <trkpt lat="48.243940" lon="3.554880">
        <time>2017-06-24T17:12:37Z</time>
      </trkpt>
      <trkpt lat="48.243940" lon="3.554880">
        <time>2017-06-24T17:12:38Z</time>
      </trkpt>
      <trkpt lat="48.243940" lon="3.554880">
        <time>2017-06-24T17:12:39Z</time>
      </trkpt>
      <trkpt lat="48.243940" lon="3.554880">
        <time>2017-06-24T17:12:40Z</time>
      </trkpt>
      <trkpt lat="48.243940" lon="3.554880">
        <time>2017-06-24T17:12:41Z</time>
      </trkpt>
      <trkpt lat="48.243940" lon="3.554880">
        <time>2017-06-24T17:12:42Z</time>
      </trkpt>
      <trkpt lat="48.243940" lon="3.554880">
        <time>2017-06-24T17:12:43Z</time>
      </trkpt>
      <trkpt lat="48.243940" lon="3.554880">
        <time>2017-06-24T17:12:44Z</time>
      </trkpt>
      <trkpt lat="48.243940" lon="3.554880">
        <time>2017-06-24T17:12:45Z</time>
      </trkpt>
      <trkpt lat="48.243940" lon="3.554880">
        <time>2017-06-24T17:12:46Z</time>
      </trkpt>
      <trkpt lat="48.243940" lon="3.554880">
        <time>2017-06-24T17:12:47Z</time>
      </trkpt>
      <trkpt lat="48.243940" lon="3.554880">
        <time>2017-06-24T17:12:48Z</time>
      </trkpt>
      <trkpt lat="48.243940" lon="3.554880">
        <time>2017-06-24T17:12:49Z</time>
      </trkpt>
      <trkpt lat="48.243940" lon="3.554880">
        <time>2017-06-24T17:12:50Z</time>
      </trkpt>
      <trkpt lat="48.243940" lon="3.554880">
        <time>2017-06-24T17:12:51Z</time>
      </trkpt>
      <trkpt lat="48.243940" lon="3.554880">
        <time>2017-06-24T17:12:52Z</time>
      </trkpt>
      <trkpt lat="48.243940" lon="3.554880">
        <time>2017-06-24T17:12:53Z</time>
      </trkpt>
      <trkpt lat="48.243940" lon="3.554880">
        <time>2017-06-24T17:12:54Z</time>
      </trkpt>
      <trkpt lat="48.243940" lon="3.554880">
        <time>2017-06-24T17:12:55Z</time>
      </trkpt>
      <trkpt lat="48.243940" lon="3.554880">
        <time>2017-06-24T17:12:56Z</time>
      </trkpt>
      <trkpt lat="48.243940" lon="3.554880">
        <time>2017-06-24T17:12:57Z</time>
      </trkpt>
      <trkpt lat="48.243940" lon="3.554880">
        <time>2017-06-24T17:12:58Z</time>
      </trkpt>
      <trkpt lat="48.243940" lon="3.554880">
        <time>2017-06-24T17:12:59Z</time>
      </trkpt>
      <trkpt lat="48.243940" lon="3.554880">
        <time>2017-06-24T17:13:00Z</time>
      </trkpt>
      <trkpt lat="48.243940" lon="3.554880">
        <time>2017-06-24T17:13:01Z</time>
      </trkpt>
      <trkpt lat="48.243940" lon="3.554880">
        <time>2017-06-24T17:13:02Z</time>
      </trkpt>
      <trkpt lat="48.243940" lon="3.554880">
        <time>2017-06-24T17:13:03Z</time>
      </trkpt>
      <trkpt lat="48.243940" lon="3.554880">
        <time>2017-06-24T17:13:04Z</time>
      </trkpt>
      <trkpt lat="48.243940" lon="3.554880">
        <time>2017-06-24T17:13:05Z</time>
      </trkpt>
      <trkpt lat="48.243940" lon="3.554880">
        <time>2017-06-24T17:13:06Z</time>
      </trkpt>
      <trkpt lat="48.243940" lon="3.554880">
        <time>2017-06-24T17:13:07Z</time>
      </trkpt>
      <trkpt lat="48.243940" lon="3.554880">
        <time>2017-06-24T17:13:08Z</time>
      </trkpt>
      <trkpt lat="48.243940" lon="3.554880">
        <time>2017-06-24T17:13:09Z</time>
      </trkpt>
      <trkpt lat="48.243940" lon="3.554880">
        <time>2017-06-24T17:13:10Z</time>
      </trkpt>
      <trkpt lat="48.243940" lon="3.554880">
        <time>2017-06-24T17:13:11Z</time>
      </trkpt>
      <trkpt lat="48.243940" lon="3.554880">
        <time>2017-06-24T17:13:12Z</time>
      </trkpt>
      <trkpt lat="48.243940" lon="3.554880">
        <time>2017-06-24T17:13:13Z</time>
      </trkpt>
      <trkpt lat="48.243940" lon="3.554880">
        <time>2017-06-24T17:13:14Z</time>
      </trkpt>
      <trkpt lat="48.243940" lon="3.554880">
        <time>2017-06-24T17:13:15Z</time>
      </trkpt>
      <trkpt lat="48.243940" lon="3.554880">
        <time>2017-06-24T17:13:16Z</time>
      </trkpt>
      <trkpt lat="48.243940" lon="3.554880">
        <time>2017-06-24T17:13:17Z</time>
      </trkpt>
      <trkpt lat="48.243940" lon="3.554880">
        <time>2017-06-24T17:13:18Z</time>
      </trkpt>
      <trkpt lat="48.243940" lon="3.554880">
        <time>2017-06-24T17:13:19Z</time>
      </trkpt>
      <trkpt lat="48.243940" lon="3.554880">
        <time>2017-06-24T17:13:20Z</time>
      </trkpt>
      <trkpt lat="48.243940" lon="3.554880">
        <time>2017-06-24T17:13:21Z</time>
      </trkpt>
      <trkpt lat="48.243940" lon="3.554880">
        <time>2017-06-24T17:13:22Z</time>
      </trkpt>
      <trkpt lat="48.243940" lon="3.554880">
        <time>2017-06-24T17:13:23Z</time>
      </trkpt>
      <trkpt lat="48.243940" lon="3.554880">
        <time>2017-06-24T17:13:24Z</time>
      </trkpt>
      <trkpt lat="48.243940" lon="3.554880">
        <time>2017-06-24T17:13:25Z</time>
      </trkpt>
      <trkpt lat="48.243940" lon="3.554880">
        <time>2017-06-24T17:13:26Z</time>
      </trkpt>
      <trkpt lat="48.243940" lon="3.554880">
        <time>2017-06-24T17:13:27Z</time>
      </trkpt>
      <trkpt lat="48.243940" lon="3.554880">
        <time>2017-06-24T17:13:28Z</time>
      </trkpt>
      <trkpt lat="48.243940" lon="3.554880">
        <time>2017-06-24T17:13:29Z</time>
      </trkpt>
      <trkpt lat="48.243940" lon="3.554880">
        <time>2017-06-24T17:13:30Z</time>
      </trkpt>
      <trkpt lat="48.243940" lon="3.554880">
        <time>2017-06-24T17:13:31Z</time>
      </trkpt>
      <trkpt lat="48.243940" lon="3.554880">
        <time>2017-06-24T17:13:32Z</time>
      </trkpt>
      <trkpt lat="48.243940" lon="3.554880">
        <time>2017-06-24T17:13:33Z</time>
      </trkpt>
      <trkpt lat="48.243940" lon="3.554880">
        <time>2017-06-24T17:13:34Z</time>
      </trkpt>
      <trkpt lat="48.243940" lon="3.554880">
        <time>2017-06-24T17:13:35Z</time>
      </trkpt>
      <trkpt lat="48.243940" lon="3.554880">
        <time>2017-06-24T17:13:36Z</time>
      </trkpt>
      <trkpt lat="48.243940" lon="3.554880">
        <time>2017-06-24T17:13:37Z</time>
      </trkpt>
      <trkpt lat="48.243940" lon="3.554880">
        <time>2017-06-24T17:13:38Z</time>
      </trkpt>
      <trkpt lat="48.243940" lon="3.554880">
        <time>2017-06-24T17:13:39Z</time>
      </trkpt>
      <trkpt lat="48.243940" lon="3.554880">
        <time>2017-06-24T17:13:40Z</time>
      </trkpt>
      <trkpt lat="48.243940" lon="3.554880">
        <time>2017-06-24T17:13:41Z</time>
      </trkpt>
      <trkpt lat="48.243940" lon="3.554880">
        <time>2017-06-24T17:13:42Z</time>
      </trkpt>
      <trkpt lat="48.243940" lon="3.554880">
        <time>2017-06-24T17:13:43Z</time>
      </trkpt>
      <trkpt lat="48.243940" lon="3.554880">
        <time>2017-06-24T17:13:44Z</time>
      </trkpt>
      <trkpt lat="48.243940" lon="3.554880">
        <time>2017-06-24T17:13:45Z</time>
      </trkpt>
      <trkpt lat="48.243940" lon="3.554880">
        <time>2017-06-24T17:13:46Z</time>
      </trkpt>
      <trkpt lat="48.243940" lon="3.554880">
        <time>2017-06-24T17:13:47Z</time>
      </trkpt>
      <trkpt lat="48.243940" lon="3.554880">
        <time>2017-06-24T17:13:48Z</time>
      </trkpt>
      <trkpt lat="48.243940" lon="3.554880">
        <time>2017-06-24T17:13:49Z</time>
      </trkpt>
      <trkpt lat="48.243940" lon="3.554880">
        <time>2017-06-24T17:13:50Z</time>
      </trkpt>
      <trkpt lat="48.243940" lon="3.554880">
        <time>2017-06-24T17:13:51Z</time>
      </trkpt>
      <trkpt lat="48.243940" lon="3.554880">
        <time>2017-06-24T17:13:52Z</time>
      </trkpt>
      <trkpt lat="48.243940" lon="3.554880">
        <time>2017-06-24T17:13:53Z</time>
      </trkpt>
      <trkpt lat="48.243940" lon="3.554880">
        <time>2017-06-24T17:13:54Z</time>
      </trkpt>
      <trkpt lat="48.243940" lon="3.554880">
        <time>2017-06-24T17:13:55Z</time>
      </trkpt>
      <trkpt lat="48.243940" lon="3.554880">
        <time>2017-06-24T17:13:56Z</time>
      </trkpt>
      <trkpt lat="48.243940" lon="3.554880">
        <time>2017-06-24T17:13:57Z</time>
      </trkpt>
      <trkpt lat="48.243940" lon="3.554880">
        <time>2017-06-24T17:13:58Z</time>
      </trkpt>
      <trkpt lat="48.243940" lon="3.554880">
        <time>2017-06-24T17:13:59Z</time>
      </trkpt>
      <trkpt lat="48.243940" lon="3.554880">
        <time>2017-06-24T17:14:00Z</time>
      </trkpt>
      <trkpt lat="48.243940" lon="3.554880">
        <time>2017-06-24T17:14:01Z</time>
      </trkpt>
      <trkpt lat="48.243940" lon="3.554880">
        <time>2017-06-24T17:14:02Z</time>
      </trkpt>
      <trkpt lat="48.243940" lon="3.554880">
        <time>2017-06-24T17:14:03Z</time>
      </trkpt>
      <trkpt lat="48.243940" lon="3.554880">
        <time>2017-06-24T17:14:04Z</time>
      </trkpt>
      <trkpt lat="48.243940" lon="3.554880">
        <time>2017-06-24T17:14:05Z</time>
      </trkpt>
      <trkpt lat="48.243940" lon="3.554880">
        <time>2017-06-24T17:14:06Z</time>
      </trkpt>
      <trkpt lat="48.243940" lon="3.554880">
        <time>2017-06-24T17:14:07Z</time>
      </trkpt>
      <trkpt lat="48.243940" lon="3.554880">
        <time>2017-06-24T17:14:08Z</time>
      </trkpt>
      <trkpt lat="48.243940" lon="3.554880">
        <time>2017-06-24T17:14:09Z</time>
      </trkpt>
      <trkpt lat="48.243940" lon="3.554880">
        <time>2017-06-24T17:14:10Z</time>
      </trkpt>
      <trkpt lat="48.243940" lon="3.554880">
        <time>2017-06-24T17:14:11Z</time>
      </trkpt>
      <trkpt lat="48.243940" lon="3.554880">
        <time>2017-06-24T17:14:12Z</time>
      </trkpt>
      <trkpt lat="48.243940" lon="3.554880">
        <time>2017-06-24T17:14:13Z</time>
      </trkpt>
      <trkpt lat="48.243940" lon="3.554880">
        <time>2017-06-24T17:14:14Z</time>
      </trkpt>
      <trkpt lat="48.243940" lon="3.554880">
        <time>2017-06-24T17:14:15Z</time>
      </trkpt>
      <trkpt lat="48.243940" lon="3.554880">
        <time>2017-06-24T17:14:16Z</time>
      </trkpt>
      <trkpt lat="48.243940" lon="3.554880">
        <time>2017-06-24T17:14:17Z</time>
      </trkpt>
      <trkpt lat="48.243940" lon="3.554880">
        <time>2017-06-24T17:14:18Z</time>
      </trkpt>
      <trkpt lat="48.243940" lon="3.554880">
        <time>2017-06-24T17:14:19Z</time>
      </trkpt>
      <trkpt lat="48.243940" lon="3.554880">
        <time>2017-06-24T17:14:20Z</time>
      </trkpt>
      <trkpt lat="48.243940" lon="3.554880">
        <time>2017-06-24T17:14:21Z</time>
      </trkpt>
      <trkpt lat="48.243940" lon="3.554880">
        <time>2017-06-24T17:14:22Z</time>
      </trkpt>
      <trkpt lat="48.243940" lon="3.554880">
        <time>2017-06-24T17:14:23Z</time>
      </trkpt>
      <trkpt lat="48.243940" lon="3.554880">
        <time>2017-06-24T17:14:24Z</time>
      </trkpt>
      <trkpt lat="48.243940" lon="3.554880">
        <time>2017-06-24T17:14:25Z</time>
      </trkpt>
      <trkpt lat="48.243940" lon="3.554880">
        <time>2017-06-24T17:14:26Z</time>
      </trkpt>
      <trkpt lat="48.243940" lon="3.554880">
        <time>2017-06-24T17:14:27Z</time>
      </trkpt>
      <trkpt lat="48.243940" lon="3.554880">
        <time>2017-06-24T17:14:28Z</time>
      </trkpt>
      <trkpt lat="48.243940" lon="3.554880">
        <time>2017-06-24T17:14:29Z</time>
      </trkpt>
      <trkpt lat="48.243940" lon="3.554880">
        <time>2017-06-24T17:14:30Z</time>
      </trkpt>
      <trkpt lat="48.243940" lon="3.554880">
        <time>2017-06-24T17:14:31Z</time>
      </trkpt>
      <trkpt lat="48.243940" lon="3.554880">
        <time>2017-06-24T17:14:32Z</time>
      </trkpt>
      <trkpt lat="48.243940" lon="3.554880">
        <time>2017-06-24T17:14:33Z</time>
      </trkpt>
      <trkpt lat="48.243940" lon="3.554880">
        <time>2017-06-24T17:14:34Z</time>
      </trkpt>
      <trkpt lat="48.243940" lon="3.554880">
        <time>2017-06-24T17:14:35Z</time>
      </trkpt>
      <trkpt lat="48.243940" lon="3.554880">
        <time>2017-06-24T17:14:36Z</time>
      </trkpt>
      <trkpt lat="48.243940" lon="3.554880">
        <time>2017-06-24T17:14:37Z</time>
      </trkpt>
      <trkpt lat="48.243940" lon="3.554880">
        <time>2017-06-24T17:14:38Z</time>
      </trkpt>
      <trkpt lat="48.243940" lon="3.554880">
        <time>2017-06-24T17:14:39Z</time>
      </trkpt>
      <trkpt lat="48.243940" lon="3.554880">
        <time>2017-06-24T17:14:40Z</time>
      </trkpt>
      <trkpt lat="48.243940" lon="3.554880">
        <time>2017-06-24T17:14:41Z</time>
      </trkpt>
      <trkpt lat="48.243940" lon="3.554880">
        <time>2017-06-24T17:14:42Z</time>
      </trkpt>
      <trkpt lat="48.243940" lon="3.554880">
        <time>2017-06-24T17:14:43Z</time>
      </trkpt>
      <trkpt lat="48.243940" lon="3.554880">
        <time>2017-06-24T17:14:44Z</time>
      </trkpt>
      <trkpt lat="48.243940" lon="3.554880">
        <time>2017-06-24T17:14:45Z</time>
      </trkpt>
      <trkpt lat="48.243940" lon="3.554880">
        <time>2017-06-24T17:14:46Z</time>
      </trkpt>
      <trkpt lat="48.243940" lon="3.554880">
        <time>2017-06-24T17:14:47Z</time>
      </trkpt>
      <trkpt lat="48.243940" lon="3.554880">
        <time>2017-06-24T17:14:48Z</time>
      </trkpt>
      <trkpt lat="48.243940" lon="3.554880">
        <time>2017-06-24T17:14:49Z</time>
      </trkpt>
      <trkpt lat="48.243940" lon="3.554880">
        <time>2017-06-24T17:14:50Z</time>
      </trkpt>
      <trkpt lat="48.243940" lon="3.554880">
        <time>2017-06-24T17:14:51Z</time>
      </trkpt>
      <trkpt lat="48.243940" lon="3.554880">
        <time>2017-06-24T17:14:52Z</time>
      </trkpt>
      <trkpt lat="48.243940" lon="3.554880">
        <time>2017-06-24T17:14:53Z</time>
      </trkpt>
      <trkpt lat="48.243940" lon="3.554880">
        <time>2017-06-24T17:14:54Z</time>
      </trkpt>
      <trkpt lat="48.243940" lon="3.554880">
        <time>2017-06-24T17:14:55Z</time>
      </trkpt>
      <trkpt lat="48.243940" lon="3.554880">
        <time>2017-06-24T17:14:56Z</time>
      </trkpt>
      <trkpt lat="48.243940" lon="3.554880">
        <time>2017-06-24T17:14:57Z</time>
      </trkpt>
      <trkpt lat="48.243940" lon="3.554880">
        <time>2017-06-24T17:14:58Z</time>
      </trkpt>
      <trkpt lat="48.243940" lon="3.554880">
        <time>2017-06-24T17:14:59Z</time>
      </trkpt>
      <trkpt lat="48.243940" lon="3.554880">
        <time>2017-06-24T17:15:00Z</time>
      </trkpt>
      <trkpt lat="48.243940" lon="3.554880">
        <time>2017-06-24T17:15:01Z</time>
      </trkpt>
      <trkpt lat="48.243940" lon="3.554880">
        <time>2017-06-24T17:15:02Z</time>
      </trkpt>
      <trkpt lat="48.243940" lon="3.554880">
        <time>2017-06-24T17:15:03Z</time>
      </trkpt>
      <trkpt lat="48.243940" lon="3.554880">
        <time>2017-06-24T17:15:04Z</time>
      </trkpt>
      <trkpt lat="48.243940" lon="3.554880">
        <time>2017-06-24T17:15:05Z</time>
      </trkpt>
      <trkpt lat="48.243940" lon="3.554880">
        <time>2017-06-24T17:15:06Z</time>
      </trkpt>
      <trkpt lat="48.243940" lon="3.554880">
        <time>2017-06-24T17:15:07Z</time>
      </trkpt>
      <trkpt lat="48.243940" lon="3.554880">
        <time>2017-06-24T17:15:08Z</time>
      </trkpt>
      <trkpt lat="48.243940" lon="3.554880">
        <time>2017-06-24T17:15:09Z</time>
      </trkpt>
      <trkpt lat="48.243940" lon="3.554880">
        <time>2017-06-24T17:15:10Z</time>
      </trkpt>
      <trkpt lat="48.243940" lon="3.554880">
        <time>2017-06-24T17:15:11Z</time>
      </trkpt>
      <trkpt lat="48.243940" lon="3.554880">
        <time>2017-06-24T17:15:12Z</time>
      </trkpt>
      <trkpt lat="48.243940" lon="3.554880">
        <time>2017-06-24T17:15:13Z</time>
      </trkpt>
      <trkpt lat="48.243940" lon="3.554880">
        <time>2017-06-24T17:15:14Z</time>
      </trkpt>
      <trkpt lat="48.243940" lon="3.554880">
        <time>2017-06-24T17:15:15Z</time>
      </trkpt>
      <trkpt lat="48.243940" lon="3.554880">
        <time>2017-06-24T17:15:16Z</time>
      </trkpt>
      <trkpt lat="48.243940" lon="3.554880">
        <time>2017-06-24T17:15:17Z</time>
      </trkpt>
      <trkpt lat="48.243940" lon="3.554880">
        <time>2017-06-24T17:15:18Z</time>
      </trkpt>
      <trkpt lat="48.243940" lon="3.554880">
        <time>2017-06-24T17:15:19Z</time>
      </trkpt>
      <trkpt lat="48.243940" lon="3.554880">
        <time>2017-06-24T17:15:20Z</time>
      </trkpt>
      <trkpt lat="48.243940" lon="3.554880">
        <time>2017-06-24T17:15:21Z</time>
      </trkpt>
      <trkpt lat="48.243940" lon="3.554880">
        <time>2017-06-24T17:15:22Z</time>
      </trkpt>
      <trkpt lat="48.243940" lon="3.554880">
        <time>2017-06-24T17:15:23Z</time>
      </trkpt>
      <trkpt lat="48.243940" lon="3.554880">
        <time>2017-06-24T17:15:24Z</time>
      </trkpt>
      <trkpt lat="48.243940" lon="3.554880">
        <time>2017-06-24T17:15:25Z</time>
      </trkpt>
      <trkpt lat="48.243940" lon="3.554880">
        <time>2017-06-24T17:15:26Z</time>
      </trkpt>
      <trkpt lat="48.243940" lon="3.554880">
        <time>2017-06-24T17:15:27Z</time>
      </trkpt>
      <trkpt lat="48.243940" lon="3.554880">
        <time>2017-06-24T17:15:28Z</time>
      </trkpt>
      <trkpt lat="48.243940" lon="3.554880">
        <time>2017-06-24T17:15:29Z</time>
      </trkpt>
      <trkpt lat="48.243940" lon="3.554880">
        <time>2017-06-24T17:15:30Z</time>
      </trkpt>
      <trkpt lat="48.243940" lon="3.554880">
        <time>2017-06-24T17:15:31Z</time>
      </trkpt>
      <trkpt lat="48.243940" lon="3.554880">
        <time>2017-06-24T17:15:32Z</time>
      </trkpt>
      <trkpt lat="48.243940" lon="3.554880">
        <time>2017-06-24T17:15:33Z</time>
      </trkpt>
      <trkpt lat="48.243940" lon="3.554880">
        <time>2017-06-24T17:15:34Z</time>
      </trkpt>
      <trkpt lat="48.243940" lon="3.554880">
        <time>2017-06-24T17:15:35Z</time>
      </trkpt>
      <trkpt lat="48.243940" lon="3.554880">
        <time>2017-06-24T17:15:36Z</time>
      </trkpt>
      <trkpt lat="48.243940" lon="3.554880">
        <time>2017-06-24T17:15:37Z</time>
      </trkpt>
      <trkpt lat="48.243940" lon="3.554880">
        <time>2017-06-24T17:15:38Z</time>
      </trkpt>
      <trkpt lat="48.243940" lon="3.554880">
        <time>2017-06-24T17:15:39Z</time>
      </trkpt>
      <trkpt lat="48.243950" lon="3.554880">
        <time>2017-06-24T17:15:40Z</time>
      </trkpt>
      <trkpt lat="48.243970" lon="3.554870">
        <time>2017-06-24T17:15:41Z</time>
      </trkpt>
      <trkpt lat="48.243970" lon="3.554840">
        <time>2017-06-24T17:15:42Z</time>
      </trkpt>
      <trkpt lat="48.243960" lon="3.554800">
        <time>2017-06-24T17:15:43Z</time>
      </trkpt>
      <trkpt lat="48.243940" lon="3.554750">
        <time>2017-06-24T17:15:44Z</time>
      </trkpt>
      <trkpt lat="48.243890" lon="3.554680">
        <time>2017-06-24T17:15:45Z</time>
      </trkpt>
      <trkpt lat="48.243860" lon="3.554600">
        <time>2017-06-24T17:15:46Z</time>
      </trkpt>
      <trkpt lat="48.243810" lon="3.554540">
        <time>2017-06-24T17:15:47Z</time>
      </trkpt>
      <trkpt lat="48.243760" lon="3.554490">
        <time>2017-06-24T17:15:48Z</time>
      </trkpt>
      <trkpt lat="48.243690" lon="3.554470">
        <time>2017-06-24T17:15:49Z</time>
      </trkpt>
      <trkpt lat="48.243640" lon="3.554420">
        <time>2017-06-24T17:15:50Z</time>
      </trkpt>
      <trkpt lat="48.243590" lon="3.554350">
        <time>2017-06-24T17:15:51Z</time>
      </trkpt>
      <trkpt lat="48.243560" lon="3.554260">
        <time>2017-06-24T17:15:52Z</time>
      </trkpt>
      <trkpt lat="48.243560" lon="3.554150">
        <time>2017-06-24T17:15:53Z</time>
      </trkpt>
      <trkpt lat="48.243550" lon="3.554010">
        <time>2017-06-24T17:15:54Z</time>
      </trkpt>
      <trkpt lat="48.243540" lon="3.553870">
        <time>2017-06-24T17:15:55Z</time>
      </trkpt>
      <trkpt lat="48.243510" lon="3.553710">
        <time>2017-06-24T17:15:56Z</time>
      </trkpt>
      <trkpt lat="48.243480" lon="3.553560">
        <time>2017-06-24T17:15:57Z</time>
      </trkpt>
      <trkpt lat="48.243450" lon="3.553400">
        <time>2017-06-24T17:15:58Z</time>
      </trkpt>
      <trkpt lat="48.243410" lon="3.553230">
        <time>2017-06-24T17:15:59Z</time>
      </trkpt>
      <trkpt lat="48.243360" lon="3.553100">
        <time>2017-06-24T17:16:00Z</time>
      </trkpt>
      <trkpt lat="48.243320" lon="3.552970">
        <time>2017-06-24T17:16:01Z</time>
      </trkpt>
      <trkpt lat="48.243310" lon="3.552850">
        <time>2017-06-24T17:16:02Z</time>
      </trkpt>
      <trkpt lat="48.243310" lon="3.552720">
        <time>2017-06-24T17:16:03Z</time>
      </trkpt>
      <trkpt lat="48.243310" lon="3.552580">
        <time>2017-06-24T17:16:04Z</time>
      </trkpt>
      <trkpt lat="48.243280" lon="3.552470">
        <time>2017-06-24T17:16:05Z</time>
      </trkpt>
      <trkpt lat="48.243230" lon="3.552370">
        <time>2017-06-24T17:16:06Z</time>
      </trkpt>
      <trkpt lat="48.243150" lon="3.552310">
        <time>2017-06-24T17:16:07Z</time>
      </trkpt>
      <trkpt lat="48.243070" lon="3.552300">
        <time>2017-06-24T17:16:08Z</time>
      </trkpt>
      <trkpt lat="48.242990" lon="3.552340">
        <time>2017-06-24T17:16:09Z</time>
      </trkpt>
      <trkpt lat="48.242930" lon="3.552430">
        <time>2017-06-24T17:16:10Z</time>
      </trkpt>
      <trkpt lat="48.242890" lon="3.552540">
        <time>2017-06-24T17:16:11Z</time>
      </trkpt>
      <trkpt lat="48.242890" lon="3.552670">
        <time>2017-06-24T17:16:12Z</time>
      </trkpt>
      <trkpt lat="48.242920" lon="3.552780">
        <time>2017-06-24T17:16:13Z</time>
      </trkpt>
      <trkpt lat="48.242970" lon="3.552880">
        <time>2017-06-24T17:16:14Z</time>
      </trkpt>
      <trkpt lat="48.243060" lon="3.552940">
        <time>2017-06-24T17:16:15Z</time>
      </trkpt>
      <trkpt lat="48.243130" lon="3.553010">
        <time>2017-06-24T17:16:16Z</time>
      </trkpt>
      <trkpt lat="48.243200" lon="3.553110">
        <time>2017-06-24T17:16:17Z</time>
      </trkpt>
      <trkpt lat="48.243260" lon="3.553250">
        <time>2017-06-24T17:16:18Z</time>
      </trkpt>
      <trkpt lat="48.243310" lon="3.553420">
        <time>2017-06-24T17:16:19Z</time>
      </trkpt>
      <trkpt lat="48.243350" lon="3.553630">
        <time>2017-06-24T17:16:20Z</time>
      </trkpt>
      <trkpt lat="48.243400" lon="3.553820">
        <time>2017-06-24T17:16:21Z</time>
      </trkpt>
      <trkpt lat="48.243420" lon="3.554030">
        <time>2017-06-24T17:16:22Z</time>
      </trkpt>
      <trkpt lat="48.243420" lon="3.554260">
        <time>2017-06-24T17:16:23Z</time>
      </trkpt>
      <trkpt lat="48.243410" lon="3.554460">
        <time>2017-06-24T17:16:24Z</time>
      </trkpt>
      <trkpt lat="48.243380" lon="3.554680">
        <time>2017-06-24T17:16:25Z</time>
      </trkpt>
      <trkpt lat="48.243340" lon="3.554890">
        <time>2017-06-24T17:16:26Z</time>
      </trkpt>
      <trkpt lat="48.243280" lon="3.555080">
        <time>2017-06-24T17:16:27Z</time>
      </trkpt>
      <trkpt lat="48.243210" lon="3.555280">
        <time>2017-06-24T17:16:28Z</time>
      </trkpt>
      <trkpt lat="48.243130" lon="3.555440">
        <time>2017-06-24T17:16:29Z</time>
      </trkpt>
      <trkpt lat="48.243060" lon="3.555580">
        <time>2017-06-24T17:16:30Z</time>
      </trkpt>
      <trkpt lat="48.242990" lon="3.555690">
        <time>2017-06-24T17:16:31Z</time>
      </trkpt>
      <trkpt lat="48.242930" lon="3.555740">
        <time>2017-06-24T17:16:32Z</time>
      </trkpt>
      <trkpt lat="48.242860" lon="3.555770">
        <time>2017-06-24T17:16:33Z</time>
      </trkpt>
      <trkpt lat="48.242780" lon="3.555770">
        <time>2017-06-24T17:16:34Z</time>
      </trkpt>
      <trkpt lat="48.242700" lon="3.555800">
        <time>2017-06-24T17:16:35Z</time>
      </trkpt>
      <trkpt lat="48.242620" lon="3.555890">
        <time>2017-06-24T17:16:36Z</time>
      </trkpt>
      <trkpt lat="48.242590" lon="3.555990">
        <time>2017-06-24T17:16:37Z</time>
      </trkpt>
      <trkpt lat="48.242580" lon="3.556120">
        <time>2017-06-24T17:16:38Z</time>
      </trkpt>
      <trkpt lat="48.242610" lon="3.556250">
        <time>2017-06-24T17:16:39Z</time>
      </trkpt>
      <trkpt lat="48.242660" lon="3.556340">
        <time>2017-06-24T17:16:40Z</time>
      </trkpt>
      <trkpt lat="48.242740" lon="3.556420">
        <time>2017-06-24T17:16:41Z</time>
      </trkpt>
      <trkpt lat="48.242830" lon="3.556520">
        <time>2017-06-24T17:16:42Z</time>
      </trkpt>
      <trkpt lat="48.242890" lon="3.556650">
        <time>2017-06-24T17:16:43Z</time>
      </trkpt>
      <trkpt lat="48.242960" lon="3.556830">
        <time>2017-06-24T17:16:44Z</time>
      </trkpt>
      <trkpt lat="48.243020" lon="3.557010">
        <time>2017-06-24T17:16:45Z</time>
      </trkpt>
      <trkpt lat="48.243100" lon="3.557220">
        <time>2017-06-24T17:16:46Z</time>
      </trkpt>
      <trkpt lat="48.243190" lon="3.557470">
        <time>2017-06-24T17:16:47Z</time>
      </trkpt>
      <trkpt lat="48.243300" lon="3.557680">
        <time>2017-06-24T17:16:48Z</time>
      </trkpt>
      <trkpt lat="48.243430" lon="3.557920">
        <time>2017-06-24T17:16:49Z</time>
      </trkpt>
      <trkpt lat="48.243580" lon="3.558140">
        <time>2017-06-24T17:16:50Z</time>
      </trkpt>
      <trkpt lat="48.243730" lon="3.558360">
        <time>2017-06-24T17:16:51Z</time>
      </trkpt>
      <trkpt lat="48.243890" lon="3.558590">
        <time>2017-06-24T17:16:52Z</time>
      </trkpt>
      <trkpt lat="48.244040" lon="3.558800">
        <time>2017-06-24T17:16:53Z</time>
      </trkpt>
      <trkpt lat="48.244180" lon="3.559030">
        <time>2017-06-24T17:16:54Z</time>
      </trkpt>
      <trkpt lat="48.244310" lon="3.559290">
        <time>2017-06-24T17:16:55Z</time>
      </trkpt>
      <trkpt lat="48.244410" lon="3.559550">
        <time>2017-06-24T17:16:56Z</time>
      </trkpt>
      <trkpt lat="48.244490" lon="3.559840">
        <time>2017-06-24T17:16:57Z</time>
      </trkpt>
      <trkpt lat="48.244560" lon="3.560160">
        <time>2017-06-24T17:16:58Z</time>
      </trkpt>
      <trkpt lat="48.244600" lon="3.560450">
        <time>2017-06-24T17:16:59Z</time>
      </trkpt>
      <trkpt lat="48.244610" lon="3.560800">
        <time>2017-06-24T17:17:00Z</time>
      </trkpt>
      <trkpt lat="48.244600" lon="3.561120">
        <time>2017-06-24T17:17:01Z</time>
      </trkpt>
      <trkpt lat="48.244580" lon="3.561480">
        <time>2017-06-24T17:17:02Z</time>
      </trkpt>
      <trkpt lat="48.244540" lon="3.561880">
        <time>2017-06-24T17:17:03Z</time>
      </trkpt>
      <trkpt lat="48.244510" lon="3.562240">
        <time>2017-06-24T17:17:04Z</time>
      </trkpt>
      <trkpt lat="48.244470" lon="3.562650">
        <time>2017-06-24T17:17:05Z</time>
      </trkpt>
      <trkpt lat="48.244420" lon="3.563070">
        <time>2017-06-24T17:17:06Z</time>
      </trkpt>
      <trkpt lat="48.244380" lon="3.563490">
        <time>2017-06-24T17:17:07Z</time>
      </trkpt>
      <trkpt lat="48.244330" lon="3.563930">
        <time>2017-06-24T17:17:08Z</time>
      </trkpt>
      <trkpt lat="48.244270" lon="3.564310">
        <time>2017-06-24T17:17:09Z</time>
      </trkpt>
      <trkpt lat="48.244220" lon="3.564710">
        <time>2017-06-24T17:17:10Z</time>
      </trkpt>
      <trkpt lat="48.244150" lon="3.565150">
        <time>2017-06-24T17:17:11Z</time>
      </trkpt>
      <trkpt lat="48.244090" lon="3.565540">
        <time>2017-06-24T17:17:12Z</time>
      </trkpt>
      <trkpt lat="48.244030" lon="3.565970">
        <time>2017-06-24T17:17:13Z</time>
      </trkpt>
      <trkpt lat="48.243950" lon="3.566450">
        <time>2017-06-24T17:17:14Z</time>
      </trkpt>
      <trkpt lat="48.243880" lon="3.566870">
        <time>2017-06-24T17:17:15Z</time>
      </trkpt>
      <trkpt lat="48.243800" lon="3.567360">
        <time>2017-06-24T17:17:16Z</time>
      </trkpt>
      <trkpt lat="48.243730" lon="3.567800">
        <time>2017-06-24T17:17:17Z</time>
      </trkpt>
      <trkpt lat="48.243650" lon="3.568280">
        <time>2017-06-24T17:17:18Z</time>
      </trkpt>
      <trkpt lat="48.243560" lon="3.568790">
        <time>2017-06-24T17:17:19Z</time>
      </trkpt>
      <trkpt lat="48.243490" lon="3.569230">
        <time>2017-06-24T17:17:20Z</time>
      </trkpt>
      <trkpt lat="48.243410" lon="3.569710">
        <time>2017-06-24T17:17:21Z</time>
      </trkpt>
      <trkpt lat="48.243340" lon="3.570190">
        <time>2017-06-24T17:17:22Z</time>
      </trkpt>
      <trkpt lat="48.243260" lon="3.570680">
        <time>2017-06-24T17:17:23Z</time>
      </trkpt>
      <trkpt lat="48.243170" lon="3.571190">
        <time>2017-06-24T17:17:24Z</time>
      </trkpt>
      <trkpt lat="48.243100" lon="3.571630">
        <time>2017-06-24T17:17:25Z</time>
      </trkpt>
      <trkpt lat="48.243020" lon="3.572110">
        <time>2017-06-24T17:17:26Z</time>
      </trkpt>
      <trkpt lat="48.242940" lon="3.572620">
        <time>2017-06-24T17:17:27Z</time>
      </trkpt>
      <trkpt lat="48.242870" lon="3.573070">
        <time>2017-06-24T17:17:28Z</time>
      </trkpt>
      <trkpt lat="48.242790" lon="3.573550">
        <time>2017-06-24T17:17:29Z</time>
      </trkpt>
      <trkpt lat="48.242710" lon="3.574050">
        <time>2017-06-24T17:17:30Z</time>
      </trkpt>
      <trkpt lat="48.242640" lon="3.574490">
        <time>2017-06-24T17:17:31Z</time>
      </trkpt>
      <trkpt lat="48.242560" lon="3.575000">
        <time>2017-06-24T17:17:32Z</time>
      </trkpt>
      <trkpt lat="48.242490" lon="3.575440">
        <time>2017-06-24T17:17:33Z</time>
      </trkpt>
      <trkpt lat="48.242410" lon="3.575920">
        <time>2017-06-24T17:17:34Z</time>
      </trkpt>
      <trkpt lat="48.242330" lon="3.576430">
        <time>2017-06-24T17:17:35Z</time>
      </trkpt>
      <trkpt lat="48.242250" lon="3.576870">
        <time>2017-06-24T17:17:36Z</time>
      </trkpt>
      <trkpt lat="48.242170" lon="3.577340">
        <time>2017-06-24T17:17:37Z</time>
      </trkpt>
      <trkpt lat="48.242100" lon="3.577820">
        <time>2017-06-24T17:17:38Z</time>
      </trkpt>
      <trkpt lat="48.242020" lon="3.578300">
        <time>2017-06-24T17:17:39Z</time>
      </trkpt>
      <trkpt lat="48.241930" lon="3.578810">
        <time>2017-06-24T17:17:40Z</time>
      </trkpt>
      <trkpt lat="48.241860" lon="3.579270">
        <time>2017-06-24T17:17:41Z</time>
      </trkpt>
      <trkpt lat="48.241780" lon="3.579750">
        <time>2017-06-24T17:17:42Z</time>
      </trkpt>
      <trkpt lat="48.241700" lon="3.580270">
        <time>2017-06-24T17:17:43Z</time>
      </trkpt>
      <trkpt lat="48.241630" lon="3.580720">
        <time>2017-06-24T17:17:44Z</time>
      </trkpt>
      <trkpt lat="48.241550" lon="3.581200">
        <time>2017-06-24T17:17:45Z</time>
      </trkpt>
      <trkpt lat="48.241470" lon="3.581720">
        <time>2017-06-24T17:17:46Z</time>
      </trkpt>
      <trkpt lat="48.241400" lon="3.582170">
        <time>2017-06-24T17:17:47Z</time>
      </trkpt>
      <trkpt lat="48.241330" lon="3.582680">
        <time>2017-06-24T17:17:48Z</time>
      </trkpt>
      <trkpt lat="48.241260" lon="3.583130">
        <time>2017-06-24T17:17:49Z</time>
      </trkpt>
      <trkpt lat="48.241200" lon="3.583620">
        <time>2017-06-24T17:17:50Z</time>
      </trkpt>
      <trkpt lat="48.241140" lon="3.584140">
        <time>2017-06-24T17:17:51Z</time>
      </trkpt>
      <trkpt lat="48.241090" lon="3.584580">
        <time>2017-06-24T17:17:52Z</time>
      </trkpt>
      <trkpt lat="48.241030" lon="3.585070">
        <time>2017-06-24T17:17:53Z</time>
      </trkpt>
      <trkpt lat="48.240980" lon="3.585540">
        <time>2017-06-24T17:17:54Z</time>
      </trkpt>
      <trkpt lat="48.240940" lon="3.586030">
        <time>2017-06-24T17:17:55Z</time>
      </trkpt>
      <trkpt lat="48.240890" lon="3.586550">
        <time>2017-06-24T17:17:56Z</time>
      </trkpt>
      <trkpt lat="48.240850" lon="3.587010">
        <time>2017-06-24T17:17:57Z</time>
      </trkpt>
      <trkpt lat="48.240810" lon="3.587490">
        <time>2017-06-24T17:17:58Z</time>
      </trkpt>
      <trkpt lat="48.240770" lon="3.588010">
        <time>2017-06-24T17:17:59Z</time>
      </trkpt>
      <trkpt lat="48.240730" lon="3.588470">
        <time>2017-06-24T17:18:00Z</time>
      </trkpt>
      <trkpt lat="48.240700" lon="3.588960">
        <time>2017-06-24T17:18:01Z</time>
      </trkpt>
      <trkpt lat="48.240670" lon="3.589480">
        <time>2017-06-24T17:18:02Z</time>
      </trkpt>
      <trkpt lat="48.240650" lon="3.589940">
        <time>2017-06-24T17:18:03Z</time>
      </trkpt>
      <trkpt lat="48.240620" lon="3.590460">
        <time>2017-06-24T17:18:04Z</time>
      </trkpt>
      <trkpt lat="48.240610" lon="3.590920">
        <time>2017-06-24T17:18:05Z</time>
      </trkpt>
      <trkpt lat="48.240590" lon="3.591410">
        <time>2017-06-24T17:18:06Z</time>
      </trkpt>
      <trkpt lat="48.240580" lon="3.591930">
        <time>2017-06-24T17:18:07Z</time>
      </trkpt>
      <trkpt lat="48.240580" lon="3.592390">
        <time>2017-06-24T17:18:08Z</time>
      </trkpt>
      <trkpt lat="48.240560" lon="3.592880">
        <time>2017-06-24T17:18:09Z</time>
      </trkpt>
      <trkpt lat="48.240560" lon="3.593360">
        <time>2017-06-24T17:18:10Z</time>
      </trkpt>
      <trkpt lat="48.240560" lon="3.593850">
        <time>2017-06-24T17:18:11Z</time>
      </trkpt>
      <trkpt lat="48.240570" lon="3.594370">
        <time>2017-06-24T17:18:12Z</time>
      </trkpt>
      <trkpt lat="48.240580" lon="3.594820">
        <time>2017-06-24T17:18:13Z</time>
      </trkpt>
      <trkpt lat="48.240590" lon="3.595310">
        <time>2017-06-24T17:18:14Z</time>
      </trkpt>
      <trkpt lat="48.240600" lon="3.595820">
        <time>2017-06-24T17:18:15Z</time>
      </trkpt>
      <trkpt lat="48.240610" lon="3.596270">
        <time>2017-06-24T17:18:16Z</time>
      </trkpt>
      <trkpt lat="48.240620" lon="3.596770">
        <time>2017-06-24T17:18:17Z</time>
      </trkpt>
      <trkpt lat="48.240640" lon="3.597280">
        <time>2017-06-24T17:18:18Z</time>
      </trkpt>
      <trkpt lat="48.240660" lon="3.597730">
        <time>2017-06-24T17:18:19Z</time>
      </trkpt>
      <trkpt lat="48.240690" lon="3.598250">
        <time>2017-06-24T17:18:20Z</time>
      </trkpt>
      <trkpt lat="48.240720" lon="3.598700">
        <time>2017-06-24T17:18:21Z</time>
      </trkpt>
      <trkpt lat="48.240750" lon="3.599180">
        <time>2017-06-24T17:18:22Z</time>
      </trkpt>
      <trkpt lat="48.240790" lon="3.599700">
        <time>2017-06-24T17:18:23Z</time>
      </trkpt>
      <trkpt lat="48.240820" lon="3.600160">
        <time>2017-06-24T17:18:24Z</time>
      </trkpt>
      <trkpt lat="48.240860" lon="3.600650">
        <time>2017-06-24T17:18:25Z</time>
      </trkpt>
      <trkpt lat="48.240900" lon="3.601140">
        <time>2017-06-24T17:18:26Z</time>
      </trkpt>
      <trkpt lat="48.240950" lon="3.601620">
        <time>2017-06-24T17:18:27Z</time>
      </trkpt>
      <trkpt lat="48.241000" lon="3.602150">
        <time>2017-06-24T17:18:28Z</time>
      </trkpt>
      <trkpt lat="48.241050" lon="3.602600">
        <time>2017-06-24T17:18:29Z</time>
      </trkpt>
      <trkpt lat="48.241100" lon="3.603080">
        <time>2017-06-24T17:18:30Z</time>
      </trkpt>
      <trkpt lat="48.241170" lon="3.603590">
        <time>2017-06-24T17:18:31Z</time>
      </trkpt>
      <trkpt lat="48.241220" lon="3.604040">
        <time>2017-06-24T17:18:32Z</time>
      </trkpt>
      <trkpt lat="48.241290" lon="3.604520">
        <time>2017-06-24T17:18:33Z</time>
      </trkpt>
      <trkpt lat="48.241360" lon="3.605030">
        <time>2017-06-24T17:18:34Z</time>
      </trkpt>
      <trkpt lat="48.241430" lon="3.605480">
        <time>2017-06-24T17:18:35Z</time>
      </trkpt>
      <trkpt lat="48.241510" lon="3.605980">
        <time>2017-06-24T17:18:36Z</time>
      </trkpt>
      <trkpt lat="48.241590" lon="3.606420">
        <time>2017-06-24T17:18:37Z</time>
      </trkpt>
      <trkpt lat="48.241670" lon="3.606890">
        <time>2017-06-24T17:18:38Z</time>
      </trkpt>
      <trkpt lat="48.241770" lon="3.607390">
        <time>2017-06-24T17:18:39Z</time>
      </trkpt>
      <trkpt lat="48.241860" lon="3.607820">
        <time>2017-06-24T17:18:40Z</time>
      </trkpt>
      <trkpt lat="48.241960" lon="3.608280">
        <time>2017-06-24T17:18:41Z</time>
      </trkpt>
      <trkpt lat="48.242070" lon="3.608730">
        <time>2017-06-24T17:18:42Z</time>
      </trkpt>
      <trkpt lat="48.242180" lon="3.609180">
        <time>2017-06-24T17:18:43Z</time>
      </trkpt>
      <trkpt lat="48.242300" lon="3.609650">
        <time>2017-06-24T17:18:44Z</time>
      </trkpt>
      <trkpt lat="48.242420" lon="3.610060">
        <time>2017-06-24T17:18:45Z</time>
      </trkpt>
      <trkpt lat="48.242540" lon="3.610500">
        <time>2017-06-24T17:18:46Z</time>
      </trkpt>
      <trkpt lat="48.242680" lon="3.610950">
        <time>2017-06-24T17:18:47Z</time>
      </trkpt>
      <trkpt lat="48.242810" lon="3.611350">
        <time>2017-06-24T17:18:48Z</time>
      </trkpt>
      <trkpt lat="48.242950" lon="3.611780">
        <time>2017-06-24T17:18:49Z</time>
      </trkpt>
      <trkpt lat="48.243100" lon="3.612230">
        <time>2017-06-24T17:18:50Z</time>
      </trkpt>
      <trkpt lat="48.243240" lon="3.612620">
        <time>2017-06-24T17:18:51Z</time>
      </trkpt>
      <trkpt lat="48.243400" lon="3.613070">
        <time>2017-06-24T17:18:52Z</time>
      </trkpt>
      <trkpt lat="48.243550" lon="3.613450">
        <time>2017-06-24T17:18:53Z</time>
      </trkpt>
      <trkpt lat="48.243720" lon="3.613850">
        <time>2017-06-24T17:18:54Z</time>
      </trkpt>
      <trkpt lat="48.243890" lon="3.614280">
        <time>2017-06-24T17:18:55Z</time>
      </trkpt>
      <trkpt lat="48.244050" lon="3.614650">
        <time>2017-06-24T17:18:56Z</time>
      </trkpt>
      <trkpt lat="48.244230" lon="3.615040">
        <time>2017-06-24T17:18:57Z</time>
      </trkpt>
      <trkpt lat="48.244420" lon="3.615440">
        <time>2017-06-24T17:18:58Z</time>
      </trkpt>
      <trkpt lat="48.244600" lon="3.615820">
        <time>2017-06-24T17:18:59Z</time>
      </trkpt>
      <trkpt lat="48.244810" lon="3.616220">
        <time>2017-06-24T17:19:00Z</time>
      </trkpt>
      <trkpt lat="48.245000" lon="3.616560">
        <time>2017-06-24T17:19:01Z</time>
      </trkpt>
      <trkpt lat="48.245190" lon="3.616920">
        <time>2017-06-24T17:19:02Z</time>
      </trkpt>
      <trkpt lat="48.245410" lon="3.617300">
        <time>2017-06-24T17:19:03Z</time>
      </trkpt>
      <trkpt lat="48.245600" lon="3.617630">
        <time>2017-06-24T17:19:04Z</time>
      </trkpt>
      <trkpt lat="48.245810" lon="3.617980">
        <time>2017-06-24T17:19:05Z</time>
      </trkpt>
      <trkpt lat="48.246030" lon="3.618350">
        <time>2017-06-24T17:19:06Z</time>
      </trkpt>
      <trkpt lat="48.246240" lon="3.618660">
        <time>2017-06-24T17:19:07Z</time>
      </trkpt>
      <trkpt lat="48.246470" lon="3.619020">
        <time>2017-06-24T17:19:08Z</time>
      </trkpt>
      <trkpt lat="48.246680" lon="3.619310">
        <time>2017-06-24T17:19:09Z</time>
      </trkpt>
      <trkpt lat="48.246910" lon="3.619630">
        <time>2017-06-24T17:19:10Z</time>
      </trkpt>
      <trkpt lat="48.247180" lon="3.619960">
        <time>2017-06-24T17:19:11Z</time>
      </trkpt>
      <trkpt lat="48.247410" lon="3.620260">
        <time>2017-06-24T17:19:12Z</time>
      </trkpt>
      <trkpt lat="48.247660" lon="3.620570">
        <time>2017-06-24T17:19:13Z</time>
      </trkpt>
      <trkpt lat="48.247910" lon="3.620870">
        <time>2017-06-24T17:19:14Z</time>
      </trkpt>
      <trkpt lat="48.248170" lon="3.621170">
        <time>2017-06-24T17:19:15Z</time>
      </trkpt>
      <trkpt lat="48.248430" lon="3.621490">
        <time>2017-06-24T17:19:16Z</time>
      </trkpt>
      <trkpt lat="48.248660" lon="3.621770">
        <time>2017-06-24T17:19:17Z</time>
      </trkpt>
      <trkpt lat="48.248900" lon="3.622060">
        <time>2017-06-24T17:19:18Z</time>
      </trkpt>
      <trkpt lat="48.249170" lon="3.622370">
        <time>2017-06-24T17:19:19Z</time>
      </trkpt>
      <trkpt lat="48.249400" lon="3.622630">
        <time>2017-06-24T17:19:20Z</time>
      </trkpt>
      <trkpt lat="48.249650" lon="3.622910">
        <time>2017-06-24T17:19:21Z</time>
      </trkpt>
      <trkpt lat="48.249910" lon="3.623210">
        <time>2017-06-24T17:19:22Z</time>
      </trkpt>
      <trkpt lat="48.250130" lon="3.623490">
        <time>2017-06-24T17:19:23Z</time>
      </trkpt>
      <trkpt lat="48.250390" lon="3.623800">
        <time>2017-06-24T17:19:24Z</time>
      </trkpt>
      <trkpt lat="48.250620" lon="3.624080">
        <time>2017-06-24T17:19:25Z</time>
      </trkpt>
      <trkpt lat="48.250850" lon="3.624380">
        <time>2017-06-24T17:19:26Z</time>
      </trkpt>
      <trkpt lat="48.251090" lon="3.624700">
        <time>2017-06-24T17:19:27Z</time>
      </trkpt>
      <trkpt lat="48.251300" lon="3.624990">
        <time>2017-06-24T17:19:28Z</time>
      </trkpt>
      <trkpt lat="48.251520" lon="3.625310">
        <time>2017-06-24T17:19:29Z</time>
      </trkpt>
      <trkpt lat="48.251750" lon="3.625620">
        <time>2017-06-24T17:19:30Z</time>
      </trkpt>
      <trkpt lat="48.251970" lon="3.625950">
        <time>2017-06-24T17:19:31Z</time>
      </trkpt>
      <trkpt lat="48.252200" lon="3.626310">
        <time>2017-06-24T17:19:32Z</time>
      </trkpt>
      <trkpt lat="48.252400" lon="3.626630">
        <time>2017-06-24T17:19:33Z</time>
      </trkpt>
      <trkpt lat="48.252610" lon="3.626980">
        <time>2017-06-24T17:19:34Z</time>
      </trkpt>
      <trkpt lat="48.252830" lon="3.627360">
        <time>2017-06-24T17:19:35Z</time>
      </trkpt>
      <trkpt lat="48.253010" lon="3.627700">
        <time>2017-06-24T17:19:36Z</time>
      </trkpt>
      <trkpt lat="48.253210" lon="3.628070">
        <time>2017-06-24T17:19:37Z</time>
      </trkpt>
      <trkpt lat="48.253420" lon="3.628480">
        <time>2017-06-24T17:19:38Z</time>
      </trkpt>
      <trkpt lat="48.253600" lon="3.628840">
        <time>2017-06-24T17:19:39Z</time>
      </trkpt>
      <trkpt lat="48.253800" lon="3.629260">
        <time>2017-06-24T17:19:40Z</time>
      </trkpt>
      <trkpt lat="48.253970" lon="3.629640">
        <time>2017-06-24T17:19:41Z</time>
      </trkpt>
      <trkpt lat="48.254150" lon="3.630040">
        <time>2017-06-24T17:19:42Z</time>
      </trkpt>
      <trkpt lat="48.254330" lon="3.630470">
        <time>2017-06-24T17:19:43Z</time>
      </trkpt>
      <trkpt lat="48.254490" lon="3.630850">
        <time>2017-06-24T17:19:44Z</time>
      </trkpt>
      <trkpt lat="48.254650" lon="3.631260">
        <time>2017-06-24T17:19:45Z</time>
      </trkpt>
      <trkpt lat="48.254810" lon="3.631660">
        <time>2017-06-24T17:19:46Z</time>
      </trkpt>
      <trkpt lat="48.254960" lon="3.632070">
        <time>2017-06-24T17:19:47Z</time>
      </trkpt>
      <trkpt lat="48.255120" lon="3.632510">
        <time>2017-06-24T17:19:48Z</time>
      </trkpt>
      <trkpt lat="48.255260" lon="3.632910">
        <time>2017-06-24T17:19:49Z</time>
      </trkpt>
      <trkpt lat="48.255400" lon="3.633330">
        <time>2017-06-24T17:19:50Z</time>
      </trkpt>
      <trkpt lat="48.255540" lon="3.633780">
        <time>2017-06-24T17:19:51Z</time>
      </trkpt>
      <trkpt lat="48.255660" lon="3.634190">
        <time>2017-06-24T17:19:52Z</time>
      </trkpt>
      <trkpt lat="48.255780" lon="3.634630">
        <time>2017-06-24T17:19:53Z</time>
      </trkpt>
      <trkpt lat="48.255910" lon="3.635110">
        <time>2017-06-24T17:19:54Z</time>
      </trkpt>
      <trkpt lat="48.256020" lon="3.635530">
        <time>2017-06-24T17:19:55Z</time>
      </trkpt>
      <trkpt lat="48.256140" lon="3.636020">
        <time>2017-06-24T17:19:56Z</time>
      </trkpt>
      <trkpt lat="48.256240" lon="3.636450">
        <time>2017-06-24T17:19:57Z</time>
      </trkpt>
      <trkpt lat="48.256340" lon="3.636910">
        <time>2017-06-24T17:19:58Z</time>
      </trkpt>
      <trkpt lat="48.256440" lon="3.637400">
        <time>2017-06-24T17:19:59Z</time>
      </trkpt>
      <trkpt lat="48.256540" lon="3.637830">
        <time>2017-06-24T17:20:00Z</time>
      </trkpt>
      <trkpt lat="48.256620" lon="3.638290">
        <time>2017-06-24T17:20:01Z</time>
      </trkpt>
      <trkpt lat="48.256700" lon="3.638760">
        <time>2017-06-24T17:20:02Z</time>
      </trkpt>
      <trkpt lat="48.256780" lon="3.639230">
        <time>2017-06-24T17:20:03Z</time>
      </trkpt>
      <trkpt lat="48.256850" lon="3.639720">
        <time>2017-06-24T17:20:04Z</time>
      </trkpt>
      <trkpt lat="48.256910" lon="3.640150">
        <time>2017-06-24T17:20:05Z</time>
      </trkpt>
      <trkpt lat="48.256970" lon="3.640610">
        <time>2017-06-24T17:20:06Z</time>
      </trkpt>
      <trkpt lat="48.257030" lon="3.641110">
        <time>2017-06-24T17:20:07Z</time>
      </trkpt>
      <trkpt lat="48.257070" lon="3.641560">
        <time>2017-06-24T17:20:08Z</time>
      </trkpt>
      <trkpt lat="48.257120" lon="3.642020">
        <time>2017-06-24T17:20:09Z</time>
      </trkpt>
      <trkpt lat="48.257160" lon="3.642540">
        <time>2017-06-24T17:20:10Z</time>
      </trkpt>
      <trkpt lat="48.257200" lon="3.642990">
        <time>2017-06-24T17:20:11Z</time>
      </trkpt>
      <trkpt lat="48.257240" lon="3.643500">
        <time>2017-06-24T17:20:12Z</time>
      </trkpt>
      <trkpt lat="48.257280" lon="3.643950">
        <time>2017-06-24T17:20:13Z</time>
      </trkpt>
      <trkpt lat="48.257320" lon="3.644440">
        <time>2017-06-24T17:20:14Z</time>
      </trkpt>
      <trkpt lat="48.257360" lon="3.644940">
        <time>2017-06-24T17:20:15Z</time>
      </trkpt>
      <trkpt lat="48.257400" lon="3.645400">
        <time>2017-06-24T17:20:16Z</time>
      </trkpt>
      <trkpt lat="48.257440" lon="3.645870">
        <time>2017-06-24T17:20:17Z</time>
      </trkpt>
      <trkpt lat="48.257480" lon="3.646350">
        <time>2017-06-24T17:20:18Z</time>
      </trkpt>
      <trkpt lat="48.257520" lon="3.646820">
        <time>2017-06-24T17:20:19Z</time>
      </trkpt>
      <trkpt lat="48.257560" lon="3.647340">
        <time>2017-06-24T17:20:20Z</time>
      </trkpt>
      <trkpt lat="48.257600" lon="3.647780">
        <time>2017-06-24T17:20:21Z</time>
      </trkpt>
      <trkpt lat="48.257640" lon="3.648270">
        <time>2017-06-24T17:20:22Z</time>
      </trkpt>
      <trkpt lat="48.257690" lon="3.648780">
        <time>2017-06-24T17:20:23Z</time>
      </trkpt>
      <trkpt lat="48.257730" lon="3.649230">
        <time>2017-06-24T17:20:24Z</time>
      </trkpt>
      <trkpt lat="48.257760" lon="3.649710">
        <time>2017-06-24T17:20:25Z</time>
      </trkpt>
      <trkpt lat="48.257790" lon="3.650230">
        <time>2017-06-24T17:20:26Z</time>
      </trkpt>
      <trkpt lat="48.257810" lon="3.650680">
        <time>2017-06-24T17:20:27Z</time>
      </trkpt>
      <trkpt lat="48.257830" lon="3.651190">
        <time>2017-06-24T17:20:28Z</time>
      </trkpt>
      <trkpt lat="48.257850" lon="3.651650">
        <time>2017-06-24T17:20:29Z</time>
      </trkpt>
      <trkpt lat="48.257850" lon="3.652130">
        <time>2017-06-24T17:20:30Z</time>
      </trkpt>
      <trkpt lat="48.257860" lon="3.652640">
        <time>2017-06-24T17:20:31Z</time>
      </trkpt>
      <trkpt lat="48.257870" lon="3.653090">
        <time>2017-06-24T17:20:32Z</time>
      </trkpt>
      <trkpt lat="48.257870" lon="3.653560">
        <time>2017-06-24T17:20:33Z</time>
      </trkpt>
      <trkpt lat="48.257860" lon="3.654020">
        <time>2017-06-24T17:20:34Z</time>
      </trkpt>
      <trkpt lat="48.257860" lon="3.654480">
        <time>2017-06-24T17:20:35Z</time>
      </trkpt>
      <trkpt lat="48.257850" lon="3.654980">
        <time>2017-06-24T17:20:36Z</time>
      </trkpt>
      <trkpt lat="48.257840" lon="3.655410">
        <time>2017-06-24T17:20:37Z</time>
      </trkpt>
      <trkpt lat="48.257820" lon="3.655880">
        <time>2017-06-24T17:20:38Z</time>
      </trkpt>
      <trkpt lat="48.257810" lon="3.656380">
        <time>2017-06-24T17:20:39Z</time>
      </trkpt>
      <trkpt lat="48.257790" lon="3.656830">
        <time>2017-06-24T17:20:40Z</time>
      </trkpt>
      <trkpt lat="48.257770" lon="3.657300">
        <time>2017-06-24T17:20:41Z</time>
      </trkpt>
      <trkpt lat="48.257750" lon="3.657820">
        <time>2017-06-24T17:20:42Z</time>
      </trkpt>
      <trkpt lat="48.257740" lon="3.658270">
        <time>2017-06-24T17:20:43Z</time>
      </trkpt>
      <trkpt lat="48.257720" lon="3.658770">
        <time>2017-06-24T17:20:44Z</time>
      </trkpt>
      <trkpt lat="48.257700" lon="3.659220">
        <time>2017-06-24T17:20:45Z</time>
      </trkpt>
      <trkpt lat="48.257700" lon="3.659690">
        <time>2017-06-24T17:20:46Z</time>
      </trkpt>
      <trkpt lat="48.257690" lon="3.660200">
        <time>2017-06-24T17:20:47Z</time>
      </trkpt>
      <trkpt lat="48.257690" lon="3.660650">
        <time>2017-06-24T17:20:48Z</time>
      </trkpt>
      <trkpt lat="48.257690" lon="3.661130">
        <time>2017-06-24T17:20:49Z</time>
      </trkpt>
      <trkpt lat="48.257690" lon="3.661600">
        <time>2017-06-24T17:20:50Z</time>
      </trkpt>
      <trkpt lat="48.257710" lon="3.662070">
        <time>2017-06-24T17:20:51Z</time>
      </trkpt>
      <trkpt lat="48.257730" lon="3.662570">
        <time>2017-06-24T17:20:52Z</time>
      </trkpt>
      <trkpt lat="48.257750" lon="3.663010">
        <time>2017-06-24T17:20:53Z</time>
      </trkpt>
      <trkpt lat="48.257780" lon="3.663470">
        <time>2017-06-24T17:20:54Z</time>
      </trkpt>
      <trkpt lat="48.257810" lon="3.663960">
        <time>2017-06-24T17:20:55Z</time>
      </trkpt>
      <trkpt lat="48.257850" lon="3.664390">
        <time>2017-06-24T17:20:56Z</time>
      </trkpt>
      <trkpt lat="48.257900" lon="3.664850">
        <time>2017-06-24T17:20:57Z</time>
      </trkpt>
      <trkpt lat="48.257950" lon="3.665330">
        <time>2017-06-24T17:20:58Z</time>
      </trkpt>
      <trkpt lat="48.258000" lon="3.665750">
        <time>2017-06-24T17:20:59Z</time>
      </trkpt>
      <trkpt lat="48.258060" lon="3.666210">
        <time>2017-06-24T17:21:00Z</time>
      </trkpt>
      <trkpt lat="48.258120" lon="3.666620">
        <time>2017-06-24T17:21:01Z</time>
      </trkpt>
      <trkpt lat="48.258180" lon="3.667050">
        <time>2017-06-24T17:21:02Z</time>
      </trkpt>
      <trkpt lat="48.258260" lon="3.667510">
        <time>2017-06-24T17:21:03Z</time>
      </trkpt>
      <trkpt lat="48.258330" lon="3.667910">
        <time>2017-06-24T17:21:04Z</time>
      </trkpt>
      <trkpt lat="48.258420" lon="3.668340">
        <time>2017-06-24T17:21:05Z</time>
      </trkpt>
      <trkpt lat="48.258500" lon="3.668770">
        <time>2017-06-24T17:21:06Z</time>
      </trkpt>
      <trkpt lat="48.258600" lon="3.669220">
        <time>2017-06-24T17:21:07Z</time>
      </trkpt>
      <trkpt lat="48.258710" lon="3.669700">
        <time>2017-06-24T17:21:08Z</time>
      </trkpt>
      <trkpt lat="48.258810" lon="3.670130">
        <time>2017-06-24T17:21:09Z</time>
      </trkpt>
      <trkpt lat="48.258920" lon="3.670590">
        <time>2017-06-24T17:21:10Z</time>
      </trkpt>
      <trkpt lat="48.259060" lon="3.671080">
        <time>2017-06-24T17:21:11Z</time>
      </trkpt>
      <trkpt lat="48.259180" lon="3.671510">
        <time>2017-06-24T17:21:12Z</time>
      </trkpt>
      <trkpt lat="48.259320" lon="3.671970">
        <time>2017-06-24T17:21:13Z</time>
      </trkpt>
      <trkpt lat="48.259470" lon="3.672450">
        <time>2017-06-24T17:21:14Z</time>
      </trkpt>
      <trkpt lat="48.259610" lon="3.672880">
        <time>2017-06-24T17:21:15Z</time>
      </trkpt>
      <trkpt lat="48.259780" lon="3.673360">
        <time>2017-06-24T17:21:16Z</time>
      </trkpt>
      <trkpt lat="48.259930" lon="3.673770">
        <time>2017-06-24T17:21:17Z</time>
      </trkpt>
      <trkpt lat="48.260090" lon="3.674200">
        <time>2017-06-24T17:21:18Z</time>
      </trkpt>
      <trkpt lat="48.260260" lon="3.674660">
        <time>2017-06-24T17:21:19Z</time>
      </trkpt>
      <trkpt lat="48.260430" lon="3.675060">
        <time>2017-06-24T17:21:20Z</time>
      </trkpt>
      <trkpt lat="48.260610" lon="3.675480">
        <time>2017-06-24T17:21:21Z</time>
      </trkpt>
      <trkpt lat="48.260790" lon="3.675890">
        <time>2017-06-24T17:21:22Z</time>
      </trkpt>
      <trkpt lat="48.260990" lon="3.676300">
        <time>2017-06-24T17:21:23Z</time>
      </trkpt>
      <trkpt lat="48.261190" lon="3.676730">
        <time>2017-06-24T17:21:24Z</time>
      </trkpt>
      <trkpt lat="48.261370" lon="3.677100">
        <time>2017-06-24T17:21:25Z</time>
      </trkpt>
      <trkpt lat="48.261570" lon="3.677500">
        <time>2017-06-24T17:21:26Z</time>
      </trkpt>
      <trkpt lat="48.261790" lon="3.677920">
        <time>2017-06-24T17:21:27Z</time>
      </trkpt>
      <trkpt lat="48.261970" lon="3.678290">
        <time>2017-06-24T17:21:28Z</time>
      </trkpt>
      <trkpt lat="48.262170" lon="3.678680">
        <time>2017-06-24T17:21:29Z</time>
      </trkpt>
      <trkpt lat="48.262390" lon="3.679100">
        <time>2017-06-24T17:21:30Z</time>
      </trkpt>
      <trkpt lat="48.262580" lon="3.679460">
        <time>2017-06-24T17:21:31Z</time>
      </trkpt>
      <trkpt lat="48.262790" lon="3.679870">
        <time>2017-06-24T17:21:32Z</time>
      </trkpt>
      <trkpt lat="48.262970" lon="3.680230">
        <time>2017-06-24T17:21:33Z</time>
      </trkpt>
      <trkpt lat="48.263170" lon="3.680620">
        <time>2017-06-24T17:21:34Z</time>
      </trkpt>
      <trkpt lat="48.263390" lon="3.681040">
        <time>2017-06-24T17:21:35Z</time>
      </trkpt>
      <trkpt lat="48.263570" lon="3.681400">
        <time>2017-06-24T17:21:36Z</time>
      </trkpt>
      <trkpt lat="48.263770" lon="3.681800">
        <time>2017-06-24T17:21:37Z</time>
      </trkpt>
      <trkpt lat="48.263960" lon="3.682190">
        <time>2017-06-24T17:21:38Z</time>
      </trkpt>
      <trkpt lat="48.264150" lon="3.682600">
        <time>2017-06-24T17:21:39Z</time>
      </trkpt>
      <trkpt lat="48.264340" lon="3.683040">
        <time>2017-06-24T17:21:40Z</time>
      </trkpt>
      <trkpt lat="48.264510" lon="3.683420">
        <time>2017-06-24T17:21:41Z</time>
      </trkpt>
      <trkpt lat="48.264690" lon="3.683840">
        <time>2017-06-24T17:21:42Z</time>
      </trkpt>
      <trkpt lat="48.264870" lon="3.684280">
        <time>2017-06-24T17:21:43Z</time>
      </trkpt>
      <trkpt lat="48.265030" lon="3.684680">
        <time>2017-06-24T17:21:44Z</time>
      </trkpt>
      <trkpt lat="48.265190" lon="3.685100">
        <time>2017-06-24T17:21:45Z</time>
      </trkpt>
      <trkpt lat="48.265370" lon="3.685550">
        <time>2017-06-24T17:21:46Z</time>
      </trkpt>
      <trkpt lat="48.265520" lon="3.685960">
        <time>2017-06-24T17:21:47Z</time>
      </trkpt>
      <trkpt lat="48.265680" lon="3.686420">
        <time>2017-06-24T17:21:48Z</time>
      </trkpt>
      <trkpt lat="48.265820" lon="3.686820">
        <time>2017-06-24T17:21:49Z</time>
      </trkpt>
      <trkpt lat="48.265970" lon="3.687260">
        <time>2017-06-24T17:21:50Z</time>
      </trkpt>
      <trkpt lat="48.266130" lon="3.687720">
        <time>2017-06-24T17:21:51Z</time>
      </trkpt>
      <trkpt lat="48.266250" lon="3.688120">
        <time>2017-06-24T17:21:52Z</time>
      </trkpt>
      <trkpt lat="48.266390" lon="3.688550">
        <time>2017-06-24T17:21:53Z</time>
      </trkpt>
      <trkpt lat="48.266520" lon="3.688980">
        <time>2017-06-24T17:21:54Z</time>
      </trkpt>
      <trkpt lat="48.266650" lon="3.689410">
        <time>2017-06-24T17:21:55Z</time>
      </trkpt>
      <trkpt lat="48.266780" lon="3.689870">
        <time>2017-06-24T17:21:56Z</time>
      </trkpt>
      <trkpt lat="48.266890" lon="3.690280">
        <time>2017-06-24T17:21:57Z</time>
      </trkpt>
      <trkpt lat="48.267000" lon="3.690720">
        <time>2017-06-24T17:21:58Z</time>
      </trkpt>
      <trkpt lat="48.267120" lon="3.691180">
        <time>2017-06-24T17:21:59Z</time>
      </trkpt>
      <trkpt lat="48.267220" lon="3.691590">
        <time>2017-06-24T17:22:00Z</time>
      </trkpt>
      <trkpt lat="48.267330" lon="3.692030">
        <time>2017-06-24T17:22:01Z</time>
      </trkpt>
      <trkpt lat="48.267430" lon="3.692500">
        <time>2017-06-24T17:22:02Z</time>
      </trkpt>
      <trkpt lat="48.267520" lon="3.692910">
        <time>2017-06-24T17:22:03Z</time>
      </trkpt>
      <trkpt lat="48.267630" lon="3.693390">
        <time>2017-06-24T17:22:04Z</time>
      </trkpt>
      <trkpt lat="48.267710" lon="3.693810">
        <time>2017-06-24T17:22:05Z</time>
      </trkpt>
      <trkpt lat="48.267800" lon="3.694270">
        <time>2017-06-24T17:22:06Z</time>
      </trkpt>
      <trkpt lat="48.267900" lon="3.694760">
        <time>2017-06-24T17:22:07Z</time>
      </trkpt>
      <trkpt lat="48.267980" lon="3.695190">
        <time>2017-06-24T17:22:08Z</time>
      </trkpt>
      <trkpt lat="48.268060" lon="3.695650">
        <time>2017-06-24T17:22:09Z</time>
      </trkpt>
      <trkpt lat="48.268130" lon="3.696110">
        <time>2017-06-24T17:22:10Z</time>
      </trkpt>
      <trkpt lat="48.268200" lon="3.696590">
        <time>2017-06-24T17:22:11Z</time>
      </trkpt>
      <trkpt lat="48.268270" lon="3.697090">
        <time>2017-06-24T17:22:12Z</time>
      </trkpt>
      <trkpt lat="48.268320" lon="3.697530">
        <time>2017-06-24T17:22:13Z</time>
      </trkpt>
      <trkpt lat="48.268390" lon="3.698010">
        <time>2017-06-24T17:22:14Z</time>
      </trkpt>
      <trkpt lat="48.268450" lon="3.698510">
        <time>2017-06-24T17:22:15Z</time>
      </trkpt>
      <trkpt lat="48.268500" lon="3.698950">
        <time>2017-06-24T17:22:16Z</time>
      </trkpt>
      <trkpt lat="48.268560" lon="3.699430">
        <time>2017-06-24T17:22:17Z</time>
      </trkpt>
      <trkpt lat="48.268610" lon="3.699930">
        <time>2017-06-24T17:22:18Z</time>
      </trkpt>
      <trkpt lat="48.268640" lon="3.700370">
        <time>2017-06-24T17:22:19Z</time>
      </trkpt>
      <trkpt lat="48.268690" lon="3.700880">
        <time>2017-06-24T17:22:20Z</time>
      </trkpt>
      <trkpt lat="48.268720" lon="3.701320">
        <time>2017-06-24T17:22:21Z</time>
      </trkpt>
      <trkpt lat="48.268770" lon="3.701790">
        <time>2017-06-24T17:22:22Z</time>
      </trkpt>
      <trkpt lat="48.268810" lon="3.702290">
        <time>2017-06-24T17:22:23Z</time>
      </trkpt>
      <trkpt lat="48.268850" lon="3.702730">
        <time>2017-06-24T17:22:24Z</time>
      </trkpt>
      <trkpt lat="48.268890" lon="3.703200">
        <time>2017-06-24T17:22:25Z</time>
      </trkpt>
      <trkpt lat="48.268930" lon="3.703660">
        <time>2017-06-24T17:22:26Z</time>
      </trkpt>
      <trkpt lat="48.268970" lon="3.704130">
        <time>2017-06-24T17:22:27Z</time>
      </trkpt>
      <trkpt lat="48.269010" lon="3.704630">
        <time>2017-06-24T17:22:28Z</time>
      </trkpt>
      <trkpt lat="48.269060" lon="3.705070">
        <time>2017-06-24T17:22:29Z</time>
      </trkpt>
      <trkpt lat="48.269100" lon="3.705540">
        <time>2017-06-24T17:22:30Z</time>
      </trkpt>
      <trkpt lat="48.269140" lon="3.706040">
        <time>2017-06-24T17:22:31Z</time>
      </trkpt>
      <trkpt lat="48.269180" lon="3.706480">
        <time>2017-06-24T17:22:32Z</time>
      </trkpt>
      <trkpt lat="48.269220" lon="3.706950">
        <time>2017-06-24T17:22:33Z</time>
      </trkpt>
      <trkpt lat="48.269270" lon="3.707450">
        <time>2017-06-24T17:22:34Z</time>
      </trkpt>
      <trkpt lat="48.269310" lon="3.707900">
        <time>2017-06-24T17:22:35Z</time>
      </trkpt>
      <trkpt lat="48.269350" lon="3.708400">
        <time>2017-06-24T17:22:36Z</time>
      </trkpt>
      <trkpt lat="48.269390" lon="3.708850">
        <time>2017-06-24T17:22:37Z</time>
      </trkpt>
      <trkpt lat="48.269440" lon="3.709320">
        <time>2017-06-24T17:22:38Z</time>
      </trkpt>
      <trkpt lat="48.269480" lon="3.709830">
        <time>2017-06-24T17:22:39Z</time>
      </trkpt>
      <trkpt lat="48.269510" lon="3.710280">
        <time>2017-06-24T17:22:40Z</time>
      </trkpt>
      <trkpt lat="48.269540" lon="3.710760">
        <time>2017-06-24T17:22:41Z</time>
      </trkpt>
      <trkpt lat="48.269570" lon="3.711240">
        <time>2017-06-24T17:22:42Z</time>
      </trkpt>
      <trkpt lat="48.269590" lon="3.711720">
        <time>2017-06-24T17:22:43Z</time>
      </trkpt>
      <trkpt lat="48.269610" lon="3.712240">
        <time>2017-06-24T17:22:44Z</time>
      </trkpt>
      <trkpt lat="48.269620" lon="3.712690">
        <time>2017-06-24T17:22:45Z</time>
      </trkpt>
      <trkpt lat="48.269630" lon="3.713170">
        <time>2017-06-24T17:22:46Z</time>
      </trkpt>
      <trkpt lat="48.269640" lon="3.713690">
        <time>2017-06-24T17:22:47Z</time>
      </trkpt>
      <trkpt lat="48.269640" lon="3.714140">
        <time>2017-06-24T17:22:48Z</time>
      </trkpt>
      <trkpt lat="48.269650" lon="3.714620">
        <time>2017-06-24T17:22:49Z</time>
      </trkpt>
      <trkpt lat="48.269650" lon="3.715130">
        <time>2017-06-24T17:22:50Z</time>
      </trkpt>
      <trkpt lat="48.269640" lon="3.715580">
        <time>2017-06-24T17:22:51Z</time>
      </trkpt>
      <trkpt lat="48.269620" lon="3.716090">
        <time>2017-06-24T17:22:52Z</time>
      </trkpt>
      <trkpt lat="48.269610" lon="3.716530">
        <time>2017-06-24T17:22:53Z</time>
      </trkpt>
      <trkpt lat="48.269590" lon="3.717010">
        <time>2017-06-24T17:22:54Z</time>
      </trkpt>
      <trkpt lat="48.269560" lon="3.717510">
        <time>2017-06-24T17:22:55Z</time>
      </trkpt>
      <trkpt lat="48.269540" lon="3.717950">
        <time>2017-06-24T17:22:56Z</time>
      </trkpt>
      <trkpt lat="48.269510" lon="3.718410">
        <time>2017-06-24T17:22:57Z</time>
      </trkpt>
      <trkpt lat="48.269470" lon="3.718880">
        <time>2017-06-24T17:22:58Z</time>
      </trkpt>
      <trkpt lat="48.269430" lon="3.719350">
        <time>2017-06-24T17:22:59Z</time>
      </trkpt>
      <trkpt lat="48.269390" lon="3.719830">
        <time>2017-06-24T17:23:00Z</time>
      </trkpt>
      <trkpt lat="48.269350" lon="3.720260">
        <time>2017-06-24T17:23:01Z</time>
      </trkpt>
      <trkpt lat="48.269300" lon="3.720720">
        <time>2017-06-24T17:23:02Z</time>
      </trkpt>
      <trkpt lat="48.269250" lon="3.721200">
        <time>2017-06-24T17:23:03Z</time>
      </trkpt>
      <trkpt lat="48.269210" lon="3.721610">
        <time>2017-06-24T17:23:04Z</time>
      </trkpt>
      <trkpt lat="48.269150" lon="3.722060">
        <time>2017-06-24T17:23:05Z</time>
      </trkpt>
      <trkpt lat="48.269080" lon="3.722530">
        <time>2017-06-24T17:23:06Z</time>
      </trkpt>
      <trkpt lat="48.269030" lon="3.722940">
        <time>2017-06-24T17:23:07Z</time>
      </trkpt>
      <trkpt lat="48.268960" lon="3.723410">
        <time>2017-06-24T17:23:08Z</time>
      </trkpt>
      <trkpt lat="48.268900" lon="3.723820">
        <time>2017-06-24T17:23:09Z</time>
      </trkpt>
      <trkpt lat="48.268820" lon="3.724270">
        <time>2017-06-24T17:23:10Z</time>
      </trkpt>
      <trkpt lat="48.268740" lon="3.724740">
        <time>2017-06-24T17:23:11Z</time>
      </trkpt>
      <trkpt lat="48.268680" lon="3.725170">
        <time>2017-06-24T17:23:12Z</time>
      </trkpt>
      <trkpt lat="48.268600" lon="3.725630">
        <time>2017-06-24T17:23:13Z</time>
      </trkpt>
      <trkpt lat="48.268520" lon="3.726100">
        <time>2017-06-24T17:23:14Z</time>
      </trkpt>
      <trkpt lat="48.268450" lon="3.726570">
        <time>2017-06-24T17:23:15Z</time>
      </trkpt>
      <trkpt lat="48.268380" lon="3.727060">
        <time>2017-06-24T17:23:16Z</time>
      </trkpt>
      <trkpt lat="48.268300" lon="3.727510">
        <time>2017-06-24T17:23:17Z</time>
      </trkpt>
      <trkpt lat="48.268220" lon="3.727970">
        <time>2017-06-24T17:23:18Z</time>
      </trkpt>
      <trkpt lat="48.268140" lon="3.728470">
        <time>2017-06-24T17:23:19Z</time>
      </trkpt>
      <trkpt lat="48.268070" lon="3.728910">
        <time>2017-06-24T17:23:20Z</time>
      </trkpt>
      <trkpt lat="48.267990" lon="3.729370">
        <time>2017-06-24T17:23:21Z</time>
      </trkpt>
      <trkpt lat="48.267920" lon="3.729860">
        <time>2017-06-24T17:23:22Z</time>
      </trkpt>
      <trkpt lat="48.267850" lon="3.730300">
        <time>2017-06-24T17:23:23Z</time>
      </trkpt>
      <trkpt lat="48.267770" lon="3.730790">
        <time>2017-06-24T17:23:24Z</time>
      </trkpt>
      <trkpt lat="48.267710" lon="3.731230">
        <time>2017-06-24T17:23:25Z</time>
      </trkpt>
      <trkpt lat="48.267630" lon="3.731690">
        <time>2017-06-24T17:23:26Z</time>
      </trkpt>
      <trkpt lat="48.267560" lon="3.732190">
        <time>2017-06-24T17:23:27Z</time>
      </trkpt>
      <trkpt lat="48.267500" lon="3.732620">
        <time>2017-06-24T17:23:28Z</time>
      </trkpt>
      <trkpt lat="48.267440" lon="3.733090">
        <time>2017-06-24T17:23:29Z</time>
      </trkpt>
      <trkpt lat="48.267380" lon="3.733550">
        <time>2017-06-24T17:23:30Z</time>
      </trkpt>
      <trkpt lat="48.267320" lon="3.734020">
        <time>2017-06-24T17:23:31Z</time>
      </trkpt>
      <trkpt lat="48.267270" lon="3.734510">
        <time>2017-06-24T17:23:32Z</time>
      </trkpt>
      <trkpt lat="48.267220" lon="3.734950">
        <time>2017-06-24T17:23:33Z</time>
      </trkpt>
      <trkpt lat="48.267170" lon="3.735420">
        <time>2017-06-24T17:23:34Z</time>
      </trkpt>
      <trkpt lat="48.267120" lon="3.735930">
        <time>2017-06-24T17:23:35Z</time>
      </trkpt>
      <trkpt lat="48.267090" lon="3.736370">
        <time>2017-06-24T17:23:36Z</time>
      </trkpt>
      <trkpt lat="48.267050" lon="3.736840">
        <time>2017-06-24T17:23:37Z</time>
      </trkpt>
      <trkpt lat="48.267020" lon="3.737350">
        <time>2017-06-24T17:23:38Z</time>
      </trkpt>
      <trkpt lat="48.266990" lon="3.737800">
        <time>2017-06-24T17:23:39Z</time>
      </trkpt>
      <trkpt lat="48.266970" lon="3.738310">
        <time>2017-06-24T17:23:40Z</time>
      </trkpt>
      <trkpt lat="48.266950" lon="3.738760">
        <time>2017-06-24T17:23:41Z</time>
      </trkpt>
      <trkpt lat="48.266940" lon="3.739250">
        <time>2017-06-24T17:23:42Z</time>
      </trkpt>
      <trkpt lat="48.266930" lon="3.739760">
        <time>2017-06-24T17:23:43Z</time>
      </trkpt>
      <trkpt lat="48.266920" lon="3.740220">
        <time>2017-06-24T17:23:44Z</time>
      </trkpt>
      <trkpt lat="48.266920" lon="3.740710">
        <time>2017-06-24T17:23:45Z</time>
      </trkpt>
      <trkpt lat="48.266910" lon="3.741200">
        <time>2017-06-24T17:23:46Z</time>
      </trkpt>
      <trkpt lat="48.266920" lon="3.741690">
        <time>2017-06-24T17:23:47Z</time>
      </trkpt>
      <trkpt lat="48.266930" lon="3.742210">
        <time>2017-06-24T17:23:48Z</time>
      </trkpt>
      <trkpt lat="48.266940" lon="3.742660">
        <time>2017-06-24T17:23:49Z</time>
      </trkpt>
      <trkpt lat="48.266950" lon="3.743150">
        <time>2017-06-24T17:23:50Z</time>
      </trkpt>
      <trkpt lat="48.266970" lon="3.743670">
        <time>2017-06-24T17:23:51Z</time>
      </trkpt>
      <trkpt lat="48.267000" lon="3.744130">
        <time>2017-06-24T17:23:52Z</time>
      </trkpt>
      <trkpt lat="48.267030" lon="3.744620">
        <time>2017-06-24T17:23:53Z</time>
      </trkpt>
      <trkpt lat="48.267060" lon="3.745140">
        <time>2017-06-24T17:23:54Z</time>
      </trkpt>
      <trkpt lat="48.267090" lon="3.745610">
        <time>2017-06-24T17:23:55Z</time>
      </trkpt>
      <trkpt lat="48.267140" lon="3.746130">
        <time>2017-06-24T17:23:56Z</time>
      </trkpt>
      <trkpt lat="48.267180" lon="3.746590">
        <time>2017-06-24T17:23:57Z</time>
      </trkpt>
      <trkpt lat="48.267230" lon="3.747070">
        <time>2017-06-24T17:23:58Z</time>
      </trkpt>
      <trkpt lat="48.267280" lon="3.747590">
        <time>2017-06-24T17:23:59Z</time>
      </trkpt>
      <trkpt lat="48.267330" lon="3.748030">
        <time>2017-06-24T17:24:00Z</time>
      </trkpt>
      <trkpt lat="48.267390" lon="3.748510">
        <time>2017-06-24T17:24:01Z</time>
      </trkpt>
      <trkpt lat="48.267450" lon="3.748980">
        <time>2017-06-24T17:24:02Z</time>
      </trkpt>
      <trkpt lat="48.267520" lon="3.749470">
        <time>2017-06-24T17:24:03Z</time>
      </trkpt>
      <trkpt lat="48.267600" lon="3.749990">
        <time>2017-06-24T17:24:04Z</time>
      </trkpt>
      <trkpt lat="48.267670" lon="3.750440">
        <time>2017-06-24T17:24:05Z</time>
      </trkpt>
      <trkpt lat="48.267750" lon="3.750930">
        <time>2017-06-24T17:24:06Z</time>
      </trkpt>
      <trkpt lat="48.267840" lon="3.751450">
        <time>2017-06-24T17:24:07Z</time>
      </trkpt>
      <trkpt lat="48.267920" lon="3.751900">
        <time>2017-06-24T17:24:08Z</time>
      </trkpt>
      <trkpt lat="48.268010" lon="3.752380">
        <time>2017-06-24T17:24:09Z</time>
      </trkpt>
      <trkpt lat="48.268110" lon="3.752900">
        <time>2017-06-24T17:24:10Z</time>
      </trkpt>
      <trkpt lat="48.268200" lon="3.753350">
        <time>2017-06-24T17:24:11Z</time>
      </trkpt>
      <trkpt lat="48.268300" lon="3.753850">
        <time>2017-06-24T17:24:12Z</time>
      </trkpt>
      <trkpt lat="48.268380" lon="3.754310">
        <time>2017-06-24T17:24:13Z</time>
      </trkpt>
      <trkpt lat="48.268470" lon="3.754780">
        <time>2017-06-24T17:24:14Z</time>
      </trkpt>
      <trkpt lat="48.268570" lon="3.755290">
        <time>2017-06-24T17:24:15Z</time>
      </trkpt>
      <trkpt lat="48.268650" lon="3.755740">
        <time>2017-06-24T17:24:16Z</time>
      </trkpt>
      <trkpt lat="48.268750" lon="3.756220">
        <time>2017-06-24T17:24:17Z</time>
      </trkpt>
      <trkpt lat="48.268850" lon="3.756700">
        <time>2017-06-24T17:24:18Z</time>
      </trkpt>
      <trkpt lat="48.268940" lon="3.757180">
        <time>2017-06-24T17:24:19Z</time>
      </trkpt>
      <trkpt lat="48.269050" lon="3.757680">
        <time>2017-06-24T17:24:20Z</time>
      </trkpt>
      <trkpt lat="48.269130" lon="3.758130">
        <time>2017-06-24T17:24:21Z</time>
      </trkpt>
      <trkpt lat="48.269220" lon="3.758610">
        <time>2017-06-24T17:24:22Z</time>
      </trkpt>
      <trkpt lat="48.269310" lon="3.759120">
        <time>2017-06-24T17:24:23Z</time>
      </trkpt>
      <trkpt lat="48.269390" lon="3.759560">
        <time>2017-06-24T17:24:24Z</time>
      </trkpt>
      <trkpt lat="48.269470" lon="3.760040">
        <time>2017-06-24T17:24:25Z</time>
      </trkpt>
      <trkpt lat="48.269560" lon="3.760550">
        <time>2017-06-24T17:24:26Z</time>
      </trkpt>
      <trkpt lat="48.269640" lon="3.761000">
        <time>2017-06-24T17:24:27Z</time>
      </trkpt>
      <trkpt lat="48.269730" lon="3.761510">
        <time>2017-06-24T17:24:28Z</time>
      </trkpt>
      <trkpt lat="48.269810" lon="3.761960">
        <time>2017-06-24T17:24:29Z</time>
      </trkpt>
      <trkpt lat="48.269900" lon="3.762440">
        <time>2017-06-24T17:24:30Z</time>
      </trkpt>
      <trkpt lat="48.270000" lon="3.762940">
        <time>2017-06-24T17:24:31Z</time>
      </trkpt>
      <trkpt lat="48.270080" lon="3.763380">
        <time>2017-06-24T17:24:32Z</time>
      </trkpt>
      <trkpt lat="48.270170" lon="3.763860">
        <time>2017-06-24T17:24:33Z</time>
      </trkpt>
      <trkpt lat="48.270260" lon="3.764330">
        <time>2017-06-24T17:24:34Z</time>
      </trkpt>
      <trkpt lat="48.270350" lon="3.764800">
        <time>2017-06-24T17:24:35Z</time>
      </trkpt>
      <trkpt lat="48.270450" lon="3.765300">
        <time>2017-06-24T17:24:36Z</time>
      </trkpt>
      <trkpt lat="48.270530" lon="3.765740">
        <time>2017-06-24T17:24:37Z</time>
      </trkpt>
      <trkpt lat="48.270620" lon="3.766190">
        <time>2017-06-24T17:24:38Z</time>
      </trkpt>
      <trkpt lat="48.270710" lon="3.766680">
        <time>2017-06-24T17:24:39Z</time>
      </trkpt>
      <trkpt lat="48.270790" lon="3.767100">
        <time>2017-06-24T17:24:40Z</time>
      </trkpt>
      <trkpt lat="48.270870" lon="3.767550">
        <time>2017-06-24T17:24:41Z</time>
      </trkpt>
      <trkpt lat="48.270960" lon="3.768030">
        <time>2017-06-24T17:24:42Z</time>
      </trkpt>
      <trkpt lat="48.271040" lon="3.768450">
        <time>2017-06-24T17:24:43Z</time>
      </trkpt>
      <trkpt lat="48.271130" lon="3.768930">
        <time>2017-06-24T17:24:44Z</time>
      </trkpt>
      <trkpt lat="48.271210" lon="3.769360">
        <time>2017-06-24T17:24:45Z</time>
      </trkpt>
      <trkpt lat="48.271290" lon="3.769810">
        <time>2017-06-24T17:24:46Z</time>
      </trkpt>
      <trkpt lat="48.271380" lon="3.770290">
        <time>2017-06-24T17:24:47Z</time>
      </trkpt>
      <trkpt lat="48.271460" lon="3.770720">
        <time>2017-06-24T17:24:48Z</time>
      </trkpt>
      <trkpt lat="48.271550" lon="3.771170">
        <time>2017-06-24T17:24:49Z</time>
      </trkpt>
      <trkpt lat="48.271640" lon="3.771620">
        <time>2017-06-24T17:24:50Z</time>
      </trkpt>
      <trkpt lat="48.271720" lon="3.772070">
        <time>2017-06-24T17:24:51Z</time>
      </trkpt>
      <trkpt lat="48.271810" lon="3.772560">
        <time>2017-06-24T17:24:52Z</time>
      </trkpt>
      <trkpt lat="48.271890" lon="3.772980">
        <time>2017-06-24T17:24:53Z</time>
      </trkpt>
      <trkpt lat="48.271980" lon="3.773430">
        <time>2017-06-24T17:24:54Z</time>
      </trkpt>
      <trkpt lat="48.272070" lon="3.773900">
        <time>2017-06-24T17:24:55Z</time>
      </trkpt>
      <trkpt lat="48.272150" lon="3.774320">
        <time>2017-06-24T17:24:56Z</time>
      </trkpt>
      <trkpt lat="48.272230" lon="3.774780">
        <time>2017-06-24T17:24:57Z</time>
      </trkpt>
      <trkpt lat="48.272320" lon="3.775260">
        <time>2017-06-24T17:24:58Z</time>
      </trkpt>
      <trkpt lat="48.272400" lon="3.775680">
        <time>2017-06-24T17:24:59Z</time>
      </trkpt>
      <trkpt lat="48.272490" lon="3.776160">
        <time>2017-06-24T17:25:00Z</time>
      </trkpt>
      <trkpt lat="48.272570" lon="3.776580">
        <time>2017-06-24T17:25:01Z</time>
      </trkpt>
      <trkpt lat="48.272660" lon="3.777040">
        <time>2017-06-24T17:25:02Z</time>
      </trkpt>
      <trkpt lat="48.272760" lon="3.777530">
        <time>2017-06-24T17:25:03Z</time>
      </trkpt>
      <trkpt lat="48.272840" lon="3.777960">
        <time>2017-06-24T17:25:04Z</time>
      </trkpt>
      <trkpt lat="48.272920" lon="3.778440">
        <time>2017-06-24T17:25:05Z</time>
      </trkpt>
      <trkpt lat="48.273010" lon="3.778910">
        <time>2017-06-24T17:25:06Z</time>
      </trkpt>
      <trkpt lat="48.273100" lon="3.779380">
        <time>2017-06-24T17:25:07Z</time>
      </trkpt>
      <trkpt lat="48.273200" lon="3.779890">
        <time>2017-06-24T17:25:08Z</time>
      </trkpt>
      <trkpt lat="48.273280" lon="3.780340">
        <time>2017-06-24T17:25:09Z</time>
      </trkpt>
      <trkpt lat="48.273370" lon="3.780830">
        <time>2017-06-24T17:25:10Z</time>
      </trkpt>
      <trkpt lat="48.273470" lon="3.781340">
        <time>2017-06-24T17:25:11Z</time>
      </trkpt>
      <trkpt lat="48.273550" lon="3.781790">
        <time>2017-06-24T17:25:12Z</time>
      </trkpt>
      <trkpt lat="48.273640" lon="3.782280">
        <time>2017-06-24T17:25:13Z</time>
      </trkpt>
      <trkpt lat="48.273740" lon="3.782790">
        <time>2017-06-24T17:25:14Z</time>
      </trkpt>
      <trkpt lat="48.273820" lon="3.783250">
        <time>2017-06-24T17:25:15Z</time>
      </trkpt>
      <trkpt lat="48.273920" lon="3.783760">
        <time>2017-06-24T17:25:16Z</time>
      </trkpt>
      <trkpt lat="48.274000" lon="3.784210">
        <time>2017-06-24T17:25:17Z</time>
      </trkpt>
      <trkpt lat="48.274100" lon="3.784700">
        <time>2017-06-24T17:25:18Z</time>
      </trkpt>
      <trkpt lat="48.274200" lon="3.785220">
        <time>2017-06-24T17:25:19Z</time>
      </trkpt>
      <trkpt lat="48.274280" lon="3.785680">
        <time>2017-06-24T17:25:20Z</time>
      </trkpt>
      <trkpt lat="48.274380" lon="3.786170">
        <time>2017-06-24T17:25:21Z</time>
      </trkpt>
      <trkpt lat="48.274470" lon="3.786660">
        <time>2017-06-24T17:25:22Z</time>
      </trkpt>
      <trkpt lat="48.274580" lon="3.787150">
        <time>2017-06-24T17:25:23Z</time>
      </trkpt>
      <trkpt lat="48.274680" lon="3.787680">
        <time>2017-06-24T17:25:24Z</time>
      </trkpt>
      <trkpt lat="48.274780" lon="3.788130">
        <time>2017-06-24T17:25:25Z</time>
      </trkpt>
      <trkpt lat="48.274890" lon="3.788610">
        <time>2017-06-24T17:25:26Z</time>
      </trkpt>
      <trkpt lat="48.275000" lon="3.789120">
        <time>2017-06-24T17:25:27Z</time>
      </trkpt>
      <trkpt lat="48.275100" lon="3.789570">
        <time>2017-06-24T17:25:28Z</time>
      </trkpt>
      <trkpt lat="48.275210" lon="3.790030">
        <time>2017-06-24T17:25:29Z</time>
      </trkpt>
      <trkpt lat="48.275340" lon="3.790530">
        <time>2017-06-24T17:25:30Z</time>
      </trkpt>
      <trkpt lat="48.275460" lon="3.790960">
        <time>2017-06-24T17:25:31Z</time>
      </trkpt>
      <trkpt lat="48.275590" lon="3.791450">
        <time>2017-06-24T17:25:32Z</time>
      </trkpt>
      <trkpt lat="48.275710" lon="3.791870">
        <time>2017-06-24T17:25:33Z</time>
      </trkpt>
      <trkpt lat="48.275830" lon="3.792320">
        <time>2017-06-24T17:25:34Z</time>
      </trkpt>
      <trkpt lat="48.275960" lon="3.792800">
        <time>2017-06-24T17:25:35Z</time>
      </trkpt>
      <trkpt lat="48.276080" lon="3.793230">
        <time>2017-06-24T17:25:36Z</time>
      </trkpt>
      <trkpt lat="48.276200" lon="3.793680">
        <time>2017-06-24T17:25:37Z</time>
      </trkpt>
      <trkpt lat="48.276310" lon="3.794130">
        <time>2017-06-24T17:25:38Z</time>
      </trkpt>
      <trkpt lat="48.276430" lon="3.794580">
        <time>2017-06-24T17:25:39Z</time>
      </trkpt>
      <trkpt lat="48.276550" lon="3.795060">
        <time>2017-06-24T17:25:40Z</time>
      </trkpt>
      <trkpt lat="48.276650" lon="3.795490">
        <time>2017-06-24T17:25:41Z</time>
      </trkpt>
      <trkpt lat="48.276760" lon="3.795940">
        <time>2017-06-24T17:25:42Z</time>
      </trkpt>
      <trkpt lat="48.276870" lon="3.796420">
        <time>2017-06-24T17:25:43Z</time>
      </trkpt>
      <trkpt lat="48.276980" lon="3.796850">
        <time>2017-06-24T17:25:44Z</time>
      </trkpt>
      <trkpt lat="48.277090" lon="3.797290">
        <time>2017-06-24T17:25:45Z</time>
      </trkpt>
      <trkpt lat="48.277190" lon="3.797780">
        <time>2017-06-24T17:25:46Z</time>
      </trkpt>
      <trkpt lat="48.277270" lon="3.798210">
        <time>2017-06-24T17:25:47Z</time>
      </trkpt>
      <trkpt lat="48.277370" lon="3.798690">
        <time>2017-06-24T17:25:48Z</time>
      </trkpt>
      <trkpt lat="48.277440" lon="3.799130">
        <time>2017-06-24T17:25:49Z</time>
      </trkpt>
      <trkpt lat="48.277510" lon="3.799590">
        <time>2017-06-24T17:25:50Z</time>
      </trkpt>
      <trkpt lat="48.277570" lon="3.800080">
        <time>2017-06-24T17:25:51Z</time>
      </trkpt>
      <trkpt lat="48.277630" lon="3.800520">
        <time>2017-06-24T17:25:52Z</time>
      </trkpt>
      <trkpt lat="48.277680" lon="3.800990">
        <time>2017-06-24T17:25:53Z</time>
      </trkpt>
      <trkpt lat="48.277730" lon="3.801450">
        <time>2017-06-24T17:25:54Z</time>
      </trkpt>
      <trkpt lat="48.277770" lon="3.801920">
        <time>2017-06-24T17:25:55Z</time>
      </trkpt>
      <trkpt lat="48.277800" lon="3.802420">
        <time>2017-06-24T17:25:56Z</time>
      </trkpt>
      <trkpt lat="48.277830" lon="3.802860">
        <time>2017-06-24T17:25:57Z</time>
      </trkpt>
      <trkpt lat="48.277860" lon="3.803330">
        <time>2017-06-24T17:25:58Z</time>
      </trkpt>
      <trkpt lat="48.277880" lon="3.803830">
        <time>2017-06-24T17:25:59Z</time>
      </trkpt>
      <trkpt lat="48.277890" lon="3.804280">
        <time>2017-06-24T17:26:00Z</time>
      </trkpt>
      <trkpt lat="48.277890" lon="3.804750">
        <time>2017-06-24T17:26:01Z</time>
      </trkpt>
      <trkpt lat="48.277890" lon="3.805270">
        <time>2017-06-24T17:26:02Z</time>
      </trkpt>
      <trkpt lat="48.277880" lon="3.805720">
        <time>2017-06-24T17:26:03Z</time>
      </trkpt>
      <trkpt lat="48.277870" lon="3.806230">
        <time>2017-06-24T17:26:04Z</time>
      </trkpt>
      <trkpt lat="48.277850" lon="3.806680">
        <time>2017-06-24T17:26:05Z</time>
      </trkpt>
      <trkpt lat="48.277820" lon="3.807160">
        <time>2017-06-24T17:26:06Z</time>
      </trkpt>
      <trkpt lat="48.277790" lon="3.807680">
        <time>2017-06-24T17:26:07Z</time>
      </trkpt>
      <trkpt lat="48.277740" lon="3.808130">
        <time>2017-06-24T17:26:08Z</time>
      </trkpt>
      <trkpt lat="48.277700" lon="3.808610">
        <time>2017-06-24T17:26:09Z</time>
      </trkpt>
      <trkpt lat="48.277650" lon="3.809080">
        <time>2017-06-24T17:26:10Z</time>
      </trkpt>
      <trkpt lat="48.277590" lon="3.809560">
        <time>2017-06-24T17:26:11Z</time>
      </trkpt>
      <trkpt lat="48.277520" lon="3.810060">
        <time>2017-06-24T17:26:12Z</time>
      </trkpt>
      <trkpt lat="48.277450" lon="3.810500">
        <time>2017-06-24T17:26:13Z</time>
      </trkpt>
      <trkpt lat="48.277370" lon="3.810960">
        <time>2017-06-24T17:26:14Z</time>
      </trkpt>
      <trkpt lat="48.277280" lon="3.811440">
        <time>2017-06-24T17:26:15Z</time>
      </trkpt>
      <trkpt lat="48.277200" lon="3.811870">
        <time>2017-06-24T17:26:16Z</time>
      </trkpt>
      <trkpt lat="48.277100" lon="3.812320">
        <time>2017-06-24T17:26:17Z</time>
      </trkpt>
      <trkpt lat="48.277000" lon="3.812800">
        <time>2017-06-24T17:26:18Z</time>
      </trkpt>
      <trkpt lat="48.276900" lon="3.813210">
        <time>2017-06-24T17:26:19Z</time>
      </trkpt>
      <trkpt lat="48.276780" lon="3.813680">
        <time>2017-06-24T17:26:20Z</time>
      </trkpt>
      <trkpt lat="48.276670" lon="3.814090">
        <time>2017-06-24T17:26:21Z</time>
      </trkpt>
      <trkpt lat="48.276540" lon="3.814520">
        <time>2017-06-24T17:26:22Z</time>
      </trkpt>
      <trkpt lat="48.276410" lon="3.814970">
        <time>2017-06-24T17:26:23Z</time>
      </trkpt>
      <trkpt lat="48.276290" lon="3.815370">
        <time>2017-06-24T17:26:24Z</time>
      </trkpt>
      <trkpt lat="48.276150" lon="3.815790">
        <time>2017-06-24T17:26:25Z</time>
      </trkpt>
      <trkpt lat="48.276010" lon="3.816220">
        <time>2017-06-24T17:26:26Z</time>
      </trkpt>
      <trkpt lat="48.275880" lon="3.816640">
        <time>2017-06-24T17:26:27Z</time>
      </trkpt>
      <trkpt lat="48.275720" lon="3.817100">
        <time>2017-06-24T17:26:28Z</time>
      </trkpt>
      <trkpt lat="48.275590" lon="3.817500">
        <time>2017-06-24T17:26:29Z</time>
      </trkpt>
      <trkpt lat="48.275440" lon="3.817940">
        <time>2017-06-24T17:26:30Z</time>
      </trkpt>
      <trkpt lat="48.275290" lon="3.818400">
        <time>2017-06-24T17:26:31Z</time>
      </trkpt>
      <trkpt lat="48.275150" lon="3.818800">
        <time>2017-06-24T17:26:32Z</time>
      </trkpt>
      <trkpt lat="48.275020" lon="3.819240">
        <time>2017-06-24T17:26:33Z</time>
      </trkpt>
      <trkpt lat="48.274880" lon="3.819710">
        <time>2017-06-24T17:26:34Z</time>
      </trkpt>
      <trkpt lat="48.274760" lon="3.820130">
        <time>2017-06-24T17:26:35Z</time>
      </trkpt>
      <trkpt lat="48.274630" lon="3.820610">
        <time>2017-06-24T17:26:36Z</time>
      </trkpt>
      <trkpt lat="48.274520" lon="3.821030">
        <time>2017-06-24T17:26:37Z</time>
      </trkpt>
      <trkpt lat="48.274410" lon="3.821470">
        <time>2017-06-24T17:26:38Z</time>
      </trkpt>
      <trkpt lat="48.274310" lon="3.821950">
        <time>2017-06-24T17:26:39Z</time>
      </trkpt>
      <trkpt lat="48.274220" lon="3.822370">
        <time>2017-06-24T17:26:40Z</time>
      </trkpt>
      <trkpt lat="48.274130" lon="3.822820">
        <time>2017-06-24T17:26:41Z</time>
      </trkpt>
      <trkpt lat="48.274050" lon="3.823280">
        <time>2017-06-24T17:26:42Z</time>
      </trkpt>
      <trkpt lat="48.273970" lon="3.823720">
        <time>2017-06-24T17:26:43Z</time>
      </trkpt>
      <trkpt lat="48.273900" lon="3.824200">
        <time>2017-06-24T17:26:44Z</time>
      </trkpt>
      <trkpt lat="48.273850" lon="3.824610">
        <time>2017-06-24T17:26:45Z</time>
      </trkpt>
      <trkpt lat="48.273790" lon="3.825060">
        <time>2017-06-24T17:26:46Z</time>
      </trkpt>
      <trkpt lat="48.273740" lon="3.825540">
        <time>2017-06-24T17:26:47Z</time>
      </trkpt>
      <trkpt lat="48.273690" lon="3.825970">
        <time>2017-06-24T17:26:48Z</time>
      </trkpt>
      <trkpt lat="48.273650" lon="3.826430">
        <time>2017-06-24T17:26:49Z</time>
      </trkpt>
      <trkpt lat="48.273620" lon="3.826930">
        <time>2017-06-24T17:26:50Z</time>
      </trkpt>
      <trkpt lat="48.273580" lon="3.827370">
        <time>2017-06-24T17:26:51Z</time>
      </trkpt>
      <trkpt lat="48.273560" lon="3.827880">
        <time>2017-06-24T17:26:52Z</time>
      </trkpt>
      <trkpt lat="48.273540" lon="3.828330">
        <time>2017-06-24T17:26:53Z</time>
      </trkpt>
      <trkpt lat="48.273520" lon="3.828810">
        <time>2017-06-24T17:26:54Z</time>
      </trkpt>
      <trkpt lat="48.273510" lon="3.829330">
        <time>2017-06-24T17:26:55Z</time>
      </trkpt>
      <trkpt lat="48.273520" lon="3.829780">
        <time>2017-06-24T17:26:56Z</time>
      </trkpt>
      <trkpt lat="48.273520" lon="3.830260">
        <time>2017-06-24T17:26:57Z</time>
      </trkpt>
      <trkpt lat="48.273540" lon="3.830740">
        <time>2017-06-24T17:26:58Z</time>
      </trkpt>
      <trkpt lat="48.273560" lon="3.831220">
        <time>2017-06-24T17:26:59Z</time>
      </trkpt>
      <trkpt lat="48.273580" lon="3.831730">
        <time>2017-06-24T17:27:00Z</time>
      </trkpt>
      <trkpt lat="48.273610" lon="3.832180">
        <time>2017-06-24T17:27:01Z</time>
      </trkpt>
      <trkpt lat="48.273640" lon="3.832660">
        <time>2017-06-24T17:27:02Z</time>
      </trkpt>
      <trkpt lat="48.273680" lon="3.833170">
        <time>2017-06-24T17:27:03Z</time>
      </trkpt>
      <trkpt lat="48.273720" lon="3.833610">
        <time>2017-06-24T17:27:04Z</time>
      </trkpt>
      <trkpt lat="48.273750" lon="3.834100">
        <time>2017-06-24T17:27:05Z</time>
      </trkpt>
      <trkpt lat="48.273790" lon="3.834620">
        <time>2017-06-24T17:27:06Z</time>
      </trkpt>
      <trkpt lat="48.273830" lon="3.835080">
        <time>2017-06-24T17:27:07Z</time>
      </trkpt>
      <trkpt lat="48.273870" lon="3.835590">
        <time>2017-06-24T17:27:08Z</time>
      </trkpt>
      <trkpt lat="48.273900" lon="3.836050">
        <time>2017-06-24T17:27:09Z</time>
      </trkpt>
      <trkpt lat="48.273940" lon="3.836540">
        <time>2017-06-24T17:27:10Z</time>
      </trkpt>
      <trkpt lat="48.273970" lon="3.837050">
        <time>2017-06-24T17:27:11Z</time>
      </trkpt>
      <trkpt lat="48.274010" lon="3.837510">
        <time>2017-06-24T17:27:12Z</time>
      </trkpt>
      <trkpt lat="48.274040" lon="3.838000">
        <time>2017-06-24T17:27:13Z</time>
      </trkpt>
      <trkpt lat="48.274070" lon="3.838490">
        <time>2017-06-24T17:27:14Z</time>
      </trkpt>
      <trkpt lat="48.274110" lon="3.838970">
        <time>2017-06-24T17:27:15Z</time>
      </trkpt>
      <trkpt lat="48.274150" lon="3.839490">
        <time>2017-06-24T17:27:16Z</time>
      </trkpt>
      <trkpt lat="48.274190" lon="3.839950">
        <time>2017-06-24T17:27:17Z</time>
      </trkpt>
      <trkpt lat="48.274220" lon="3.840440">
        <time>2017-06-24T17:27:18Z</time>
      </trkpt>
      <trkpt lat="48.274260" lon="3.840970">
        <time>2017-06-24T17:27:19Z</time>
      </trkpt>
      <trkpt lat="48.274290" lon="3.841430">
        <time>2017-06-24T17:27:20Z</time>
      </trkpt>
      <trkpt lat="48.274330" lon="3.841930">
        <time>2017-06-24T17:27:21Z</time>
      </trkpt>
      <trkpt lat="48.274370" lon="3.842460">
        <time>2017-06-24T17:27:22Z</time>
      </trkpt>
      <trkpt lat="48.274390" lon="3.842920">
        <time>2017-06-24T17:27:23Z</time>
      </trkpt>
      <trkpt lat="48.274420" lon="3.843420">
        <time>2017-06-24T17:27:24Z</time>
      </trkpt>
      <trkpt lat="48.274440" lon="3.843860">
        <time>2017-06-24T17:27:25Z</time>
      </trkpt>
      <trkpt lat="48.274460" lon="3.844330">
        <time>2017-06-24T17:27:26Z</time>
      </trkpt>
      <trkpt lat="48.274480" lon="3.844820">
        <time>2017-06-24T17:27:27Z</time>
      </trkpt>
      <trkpt lat="48.274490" lon="3.845250">
        <time>2017-06-24T17:27:28Z</time>
      </trkpt>
      <trkpt lat="48.274500" lon="3.845720">
        <time>2017-06-24T17:27:29Z</time>
      </trkpt>
      <trkpt lat="48.274500" lon="3.846180">
        <time>2017-06-24T17:27:30Z</time>
      </trkpt>
      <trkpt lat="48.274500" lon="3.846650">
        <time>2017-06-24T17:27:31Z</time>
      </trkpt>
      <trkpt lat="48.274490" lon="3.847140">
        <time>2017-06-24T17:27:32Z</time>
      </trkpt>
      <trkpt lat="48.274490" lon="3.847580">
        <time>2017-06-24T17:27:33Z</time>
      </trkpt>
      <trkpt lat="48.274480" lon="3.848030">
        <time>2017-06-24T17:27:34Z</time>
      </trkpt>
      <trkpt lat="48.274460" lon="3.848520">
        <time>2017-06-24T17:27:35Z</time>
      </trkpt>
      <trkpt lat="48.274440" lon="3.848940">
        <time>2017-06-24T17:27:36Z</time>
      </trkpt>
      <trkpt lat="48.274430" lon="3.849400">
        <time>2017-06-24T17:27:37Z</time>
      </trkpt>
      <trkpt lat="48.274400" lon="3.849870">
        <time>2017-06-24T17:27:38Z</time>
      </trkpt>
      <trkpt lat="48.274380" lon="3.850290">
        <time>2017-06-24T17:27:39Z</time>
      </trkpt>
      <trkpt lat="48.274350" lon="3.850770">
        <time>2017-06-24T17:27:40Z</time>
      </trkpt>
      <trkpt lat="48.274320" lon="3.851190">
        <time>2017-06-24T17:27:41Z</time>
      </trkpt>
      <trkpt lat="48.274290" lon="3.851640">
        <time>2017-06-24T17:27:42Z</time>
      </trkpt>
      <trkpt lat="48.274240" lon="3.852120">
        <time>2017-06-24T17:27:43Z</time>
      </trkpt>
      <trkpt lat="48.274200" lon="3.852530">
        <time>2017-06-24T17:27:44Z</time>
      </trkpt>
      <trkpt lat="48.274150" lon="3.852990">
        <time>2017-06-24T17:27:45Z</time>
      </trkpt>
      <trkpt lat="48.274100" lon="3.853440">
        <time>2017-06-24T17:27:46Z</time>
      </trkpt>
      <trkpt lat="48.274050" lon="3.853890">
        <time>2017-06-24T17:27:47Z</time>
      </trkpt>
      <trkpt lat="48.273990" lon="3.854380">
        <time>2017-06-24T17:27:48Z</time>
      </trkpt>
      <trkpt lat="48.273930" lon="3.854810">
        <time>2017-06-24T17:27:49Z</time>
      </trkpt>
      <trkpt lat="48.273860" lon="3.855260">
        <time>2017-06-24T17:27:50Z</time>
      </trkpt>
      <trkpt lat="48.273790" lon="3.855750">
        <time>2017-06-24T17:27:51Z</time>
      </trkpt>
      <trkpt lat="48.273720" lon="3.856180">
        <time>2017-06-24T17:27:52Z</time>
      </trkpt>
      <trkpt lat="48.273650" lon="3.856640">
        <time>2017-06-24T17:27:53Z</time>
      </trkpt>
      <trkpt lat="48.273570" lon="3.857130">
        <time>2017-06-24T17:27:54Z</time>
      </trkpt>
      <trkpt lat="48.273490" lon="3.857560">
        <time>2017-06-24T17:27:55Z</time>
      </trkpt>
      <trkpt lat="48.273410" lon="3.858050">
        <time>2017-06-24T17:27:56Z</time>
      </trkpt>
      <trkpt lat="48.273350" lon="3.858480">
        <time>2017-06-24T17:27:57Z</time>
      </trkpt>
      <trkpt lat="48.273270" lon="3.858950">
        <time>2017-06-24T17:27:58Z</time>
      </trkpt>
      <trkpt lat="48.273200" lon="3.859440">
        <time>2017-06-24T17:27:59Z</time>
      </trkpt>
      <trkpt lat="48.273130" lon="3.859890">
        <time>2017-06-24T17:28:00Z</time>
      </trkpt>
      <trkpt lat="48.273060" lon="3.860360">
        <time>2017-06-24T17:28:01Z</time>
      </trkpt>
      <trkpt lat="48.272990" lon="3.860830">
        <time>2017-06-24T17:28:02Z</time>
      </trkpt>
      <trkpt lat="48.272930" lon="3.861310">
        <time>2017-06-24T17:28:03Z</time>
      </trkpt>
      <trkpt lat="48.272870" lon="3.861810">
        <time>2017-06-24T17:28:04Z</time>
      </trkpt>
      <trkpt lat="48.272830" lon="3.862260">
        <time>2017-06-24T17:28:05Z</time>
      </trkpt>
      <trkpt lat="48.272780" lon="3.862730">
        <time>2017-06-24T17:28:06Z</time>
      </trkpt>
      <trkpt lat="48.272730" lon="3.863240">
        <time>2017-06-24T17:28:07Z</time>
      </trkpt>
      <trkpt lat="48.272700" lon="3.863690">
        <time>2017-06-24T17:28:08Z</time>
      </trkpt>
      <trkpt lat="48.272660" lon="3.864180">
        <time>2017-06-24T17:28:09Z</time>
      </trkpt>
      <trkpt lat="48.272620" lon="3.864690">
        <time>2017-06-24T17:28:10Z</time>
      </trkpt>
      <trkpt lat="48.272600" lon="3.865150">
        <time>2017-06-24T17:28:11Z</time>
      </trkpt>
      <trkpt lat="48.272570" lon="3.865660">
        <time>2017-06-24T17:28:12Z</time>
      </trkpt>
      <trkpt lat="48.272550" lon="3.866110">
        <time>2017-06-24T17:28:13Z</time>
      </trkpt>
      <trkpt lat="48.272540" lon="3.866600">
        <time>2017-06-24T17:28:14Z</time>
      </trkpt>
      <trkpt lat="48.272520" lon="3.867120">
        <time>2017-06-24T17:28:15Z</time>
      </trkpt>
      <trkpt lat="48.272510" lon="3.867570">
        <time>2017-06-24T17:28:16Z</time>
      </trkpt>
      <trkpt lat="48.272500" lon="3.868060">
        <time>2017-06-24T17:28:17Z</time>
      </trkpt>
      <trkpt lat="48.272490" lon="3.868540">
        <time>2017-06-24T17:28:18Z</time>
      </trkpt>
      <trkpt lat="48.272490" lon="3.869040">
        <time>2017-06-24T17:28:19Z</time>
      </trkpt>
      <trkpt lat="48.272500" lon="3.869560">
        <time>2017-06-24T17:28:20Z</time>
      </trkpt>
      <trkpt lat="48.272500" lon="3.870030">
        <time>2017-06-24T17:28:21Z</time>
      </trkpt>
      <trkpt lat="48.272520" lon="3.870510">
        <time>2017-06-24T17:28:22Z</time>
      </trkpt>
      <trkpt lat="48.272540" lon="3.871030">
        <time>2017-06-24T17:28:23Z</time>
      </trkpt>
      <trkpt lat="48.272560" lon="3.871490">
        <time>2017-06-24T17:28:24Z</time>
      </trkpt>
      <trkpt lat="48.272580" lon="3.871980">
        <time>2017-06-24T17:28:25Z</time>
      </trkpt>
      <trkpt lat="48.272620" lon="3.872500">
        <time>2017-06-24T17:28:26Z</time>
      </trkpt>
      <trkpt lat="48.272650" lon="3.872970">
        <time>2017-06-24T17:28:27Z</time>
      </trkpt>
      <trkpt lat="48.272680" lon="3.873490">
        <time>2017-06-24T17:28:28Z</time>
      </trkpt>
      <trkpt lat="48.272710" lon="3.873950">
        <time>2017-06-24T17:28:29Z</time>
      </trkpt>
      <trkpt lat="48.272740" lon="3.874440">
        <time>2017-06-24T17:28:30Z</time>
      </trkpt>
      <trkpt lat="48.272790" lon="3.874970">
        <time>2017-06-24T17:28:31Z</time>
      </trkpt>
      <trkpt lat="48.272820" lon="3.875420">
        <time>2017-06-24T17:28:32Z</time>
      </trkpt>
      <trkpt lat="48.272850" lon="3.875910">
        <time>2017-06-24T17:28:33Z</time>
      </trkpt>
      <trkpt lat="48.272890" lon="3.876390">
        <time>2017-06-24T17:28:34Z</time>
      </trkpt>
      <trkpt lat="48.272920" lon="3.876880">
        <time>2017-06-24T17:28:35Z</time>
      </trkpt>
      <trkpt lat="48.272950" lon="3.877390">
        <time>2017-06-24T17:28:36Z</time>
      </trkpt>
      <trkpt lat="48.272980" lon="3.877840">
        <time>2017-06-24T17:28:37Z</time>
      </trkpt>
      <trkpt lat="48.273020" lon="3.878320">
        <time>2017-06-24T17:28:38Z</time>
      </trkpt>
      <trkpt lat="48.273050" lon="3.878840">
        <time>2017-06-24T17:28:39Z</time>
      </trkpt>
      <trkpt lat="48.273080" lon="3.879290">
        <time>2017-06-24T17:28:40Z</time>
      </trkpt>
      <trkpt lat="48.273100" lon="3.879770">
        <time>2017-06-24T17:28:41Z</time>
      </trkpt>
      <trkpt lat="48.273110" lon="3.880280">
        <time>2017-06-24T17:28:42Z</time>
      </trkpt>
      <trkpt lat="48.273120" lon="3.880720">
        <time>2017-06-24T17:28:43Z</time>
      </trkpt>
      <trkpt lat="48.273110" lon="3.881230">
        <time>2017-06-24T17:28:44Z</time>
      </trkpt>
      <trkpt lat="48.273110" lon="3.881680">
        <time>2017-06-24T17:28:45Z</time>
      </trkpt>
      <trkpt lat="48.273110" lon="3.882150">
        <time>2017-06-24T17:28:46Z</time>
      </trkpt>
      <trkpt lat="48.273110" lon="3.882640">
        <time>2017-06-24T17:28:47Z</time>
      </trkpt>
      <trkpt lat="48.273100" lon="3.883070">
        <time>2017-06-24T17:28:48Z</time>
      </trkpt>
      <trkpt lat="48.273100" lon="3.883520">
        <time>2017-06-24T17:28:49Z</time>
      </trkpt>
      <trkpt lat="48.273100" lon="3.883970">
        <time>2017-06-24T17:28:50Z</time>
      </trkpt>
      <trkpt lat="48.273090" lon="3.884420">
        <time>2017-06-24T17:28:51Z</time>
      </trkpt>
      <trkpt lat="48.273090" lon="3.884900">
        <time>2017-06-24T17:28:52Z</time>
      </trkpt>
      <trkpt lat="48.273080" lon="3.885320">
        <time>2017-06-24T17:28:53Z</time>
      </trkpt>
      <trkpt lat="48.273080" lon="3.885760">
        <time>2017-06-24T17:28:54Z</time>
      </trkpt>
      <trkpt lat="48.273090" lon="3.886240">
        <time>2017-06-24T17:28:55Z</time>
      </trkpt>
      <trkpt lat="48.273090" lon="3.886660">
        <time>2017-06-24T17:28:56Z</time>
      </trkpt>
      <trkpt lat="48.273090" lon="3.887120">
        <time>2017-06-24T17:28:57Z</time>
      </trkpt>
      <trkpt lat="48.273090" lon="3.887600">
        <time>2017-06-24T17:28:58Z</time>
      </trkpt>
      <trkpt lat="48.273090" lon="3.888030">
        <time>2017-06-24T17:28:59Z</time>
      </trkpt>
      <trkpt lat="48.273090" lon="3.888530">
        <time>2017-06-24T17:29:00Z</time>
      </trkpt>
      <trkpt lat="48.273080" lon="3.888970">
        <time>2017-06-24T17:29:01Z</time>
      </trkpt>
      <trkpt lat="48.273080" lon="3.889430">
        <time>2017-06-24T17:29:02Z</time>
      </trkpt>
      <trkpt lat="48.273080" lon="3.889930">
        <time>2017-06-24T17:29:03Z</time>
      </trkpt>
      <trkpt lat="48.273070" lon="3.890360">
        <time>2017-06-24T17:29:04Z</time>
      </trkpt>
      <trkpt lat="48.273070" lon="3.890830">
        <time>2017-06-24T17:29:05Z</time>
      </trkpt>
      <trkpt lat="48.273070" lon="3.891290">
        <time>2017-06-24T17:29:06Z</time>
      </trkpt>
      <trkpt lat="48.273070" lon="3.891760">
        <time>2017-06-24T17:29:07Z</time>
      </trkpt>
      <trkpt lat="48.273060" lon="3.892260">
        <time>2017-06-24T17:29:08Z</time>
      </trkpt>
      <trkpt lat="48.273060" lon="3.892700">
        <time>2017-06-24T17:29:09Z</time>
      </trkpt>
      <trkpt lat="48.273050" lon="3.893160">
        <time>2017-06-24T17:29:10Z</time>
      </trkpt>
      <trkpt lat="48.273050" lon="3.893660">
        <time>2017-06-24T17:29:11Z</time>
      </trkpt>
      <trkpt lat="48.273050" lon="3.894080">
        <time>2017-06-24T17:29:12Z</time>
      </trkpt>
      <trkpt lat="48.273050" lon="3.894520">
        <time>2017-06-24T17:29:13Z</time>
      </trkpt>
      <trkpt lat="48.273050" lon="3.894980">
        <time>2017-06-24T17:29:14Z</time>
      </trkpt>
      <trkpt lat="48.273050" lon="3.895390">
        <time>2017-06-24T17:29:15Z</time>
      </trkpt>
      <trkpt lat="48.273050" lon="3.895860">
        <time>2017-06-24T17:29:16Z</time>
      </trkpt>
      <trkpt lat="48.273050" lon="3.896270">
        <time>2017-06-24T17:29:17Z</time>
      </trkpt>
      <trkpt lat="48.273050" lon="3.896710">
        <time>2017-06-24T17:29:18Z</time>
      </trkpt>
      <trkpt lat="48.273050" lon="3.897190">
        <time>2017-06-24T17:29:19Z</time>
      </trkpt>
      <trkpt lat="48.273050" lon="3.897610">
        <time>2017-06-24T17:29:20Z</time>
      </trkpt>
      <trkpt lat="48.273060" lon="3.898050">
        <time>2017-06-24T17:29:21Z</time>
      </trkpt>
      <trkpt lat="48.273080" lon="3.898500">
        <time>2017-06-24T17:29:22Z</time>
      </trkpt>
      <trkpt lat="48.273100" lon="3.898940">
        <time>2017-06-24T17:29:23Z</time>
      </trkpt>
      <trkpt lat="48.273120" lon="3.899420">
        <time>2017-06-24T17:29:24Z</time>
      </trkpt>
      <trkpt lat="48.273150" lon="3.899840">
        <time>2017-06-24T17:29:25Z</time>
      </trkpt>
      <trkpt lat="48.273190" lon="3.900300">
        <time>2017-06-24T17:29:26Z</time>
      </trkpt>
      <trkpt lat="48.273240" lon="3.900790">
        <time>2017-06-24T17:29:27Z</time>
      </trkpt>
      <trkpt lat="48.273280" lon="3.901220">
        <time>2017-06-24T17:29:28Z</time>
      </trkpt>
      <trkpt lat="48.273320" lon="3.901690">
        <time>2017-06-24T17:29:29Z</time>
      </trkpt>
      <trkpt lat="48.273370" lon="3.902170">
        <time>2017-06-24T17:29:30Z</time>
      </trkpt>
      <trkpt lat="48.273410" lon="3.902600">
        <time>2017-06-24T17:29:31Z</time>
      </trkpt>
      <trkpt lat="48.273450" lon="3.903090">
        <time>2017-06-24T17:29:32Z</time>
      </trkpt>
      <trkpt lat="48.273500" lon="3.903510">
        <time>2017-06-24T17:29:33Z</time>
      </trkpt>
      <trkpt lat="48.273550" lon="3.903970">
        <time>2017-06-24T17:29:34Z</time>
      </trkpt>
      <trkpt lat="48.273610" lon="3.904460">
        <time>2017-06-24T17:29:35Z</time>
      </trkpt>
      <trkpt lat="48.273650" lon="3.904890">
        <time>2017-06-24T17:29:36Z</time>
      </trkpt>
      <trkpt lat="48.273700" lon="3.905360">
        <time>2017-06-24T17:29:37Z</time>
      </trkpt>
      <trkpt lat="48.273750" lon="3.905820">
        <time>2017-06-24T17:29:38Z</time>
      </trkpt>
      <trkpt lat="48.273800" lon="3.906280">
        <time>2017-06-24T17:29:39Z</time>
      </trkpt>
      <trkpt lat="48.273850" lon="3.906760">
        <time>2017-06-24T17:29:40Z</time>
      </trkpt>
      <trkpt lat="48.273890" lon="3.907200">
        <time>2017-06-24T17:29:41Z</time>
      </trkpt>
      <trkpt lat="48.273940" lon="3.907640">
        <time>2017-06-24T17:29:42Z</time>
      </trkpt>
      <trkpt lat="48.273980" lon="3.908100">
        <time>2017-06-24T17:29:43Z</time>
      </trkpt>
      <trkpt lat="48.274030" lon="3.908490">
        <time>2017-06-24T17:29:44Z</time>
      </trkpt>
      <trkpt lat="48.274070" lon="3.908920">
        <time>2017-06-24T17:29:45Z</time>
      </trkpt>
      <trkpt lat="48.274110" lon="3.909380">
        <time>2017-06-24T17:29:46Z</time>
      </trkpt>
      <trkpt lat="48.274140" lon="3.909780">
        <time>2017-06-24T17:29:47Z</time>
      </trkpt>
      <trkpt lat="48.274170" lon="3.910230">
        <time>2017-06-24T17:29:48Z</time>
      </trkpt>
      <trkpt lat="48.274200" lon="3.910630">
        <time>2017-06-24T17:29:49Z</time>
      </trkpt>
      <trkpt lat="48.274220" lon="3.911030">
        <time>2017-06-24T17:29:50Z</time>
      </trkpt>
      <trkpt lat="48.274240" lon="3.911450">
        <time>2017-06-24T17:29:51Z</time>
      </trkpt>
      <trkpt lat="48.274260" lon="3.911810">
        <time>2017-06-24T17:29:52Z</time>
      </trkpt>
      <trkpt lat="48.274260" lon="3.912200">
        <time>2017-06-24T17:29:53Z</time>
      </trkpt>
      <trkpt lat="48.274280" lon="3.912590">
        <time>2017-06-24T17:29:54Z</time>
      </trkpt>
      <trkpt lat="48.274300" lon="3.912990">
        <time>2017-06-24T17:29:55Z</time>
      </trkpt>
      <trkpt lat="48.274310" lon="3.913430">
        <time>2017-06-24T17:29:56Z</time>
      </trkpt>
      <trkpt lat="48.274310" lon="3.913810">
        <time>2017-06-24T17:29:57Z</time>
      </trkpt>
      <trkpt lat="48.274320" lon="3.914240">
        <time>2017-06-24T17:29:58Z</time>
      </trkpt>
      <trkpt lat="48.274320" lon="3.914690">
        <time>2017-06-24T17:29:59Z</time>
      </trkpt>
      <trkpt lat="48.274320" lon="3.915090">
        <time>2017-06-24T17:30:00Z</time>
      </trkpt>
      <trkpt lat="48.274310" lon="3.915520">
        <time>2017-06-24T17:30:01Z</time>
      </trkpt>
      <trkpt lat="48.274300" lon="3.915980">
        <time>2017-06-24T17:30:02Z</time>
      </trkpt>
      <trkpt lat="48.274290" lon="3.916380">
        <time>2017-06-24T17:30:03Z</time>
      </trkpt>
      <trkpt lat="48.274270" lon="3.916830">
        <time>2017-06-24T17:30:04Z</time>
      </trkpt>
      <trkpt lat="48.274250" lon="3.917230">
        <time>2017-06-24T17:30:05Z</time>
      </trkpt>
      <trkpt lat="48.274230" lon="3.917640">
        <time>2017-06-24T17:30:06Z</time>
      </trkpt>
      <trkpt lat="48.274200" lon="3.918080">
        <time>2017-06-24T17:30:07Z</time>
      </trkpt>
      <trkpt lat="48.274180" lon="3.918460">
        <time>2017-06-24T17:30:08Z</time>
      </trkpt>
      <trkpt lat="48.274150" lon="3.918870">
        <time>2017-06-24T17:30:09Z</time>
      </trkpt>
      <trkpt lat="48.274120" lon="3.919280">
        <time>2017-06-24T17:30:10Z</time>
      </trkpt>
      <trkpt lat="48.274080" lon="3.919680">
        <time>2017-06-24T17:30:11Z</time>
      </trkpt>
      <trkpt lat="48.274040" lon="3.920110">
        <time>2017-06-24T17:30:12Z</time>
      </trkpt>
      <trkpt lat="48.274010" lon="3.920500">
        <time>2017-06-24T17:30:13Z</time>
      </trkpt>
      <trkpt lat="48.273960" lon="3.920910">
        <time>2017-06-24T17:30:14Z</time>
      </trkpt>
      <trkpt lat="48.273910" lon="3.921350">
        <time>2017-06-24T17:30:15Z</time>
      </trkpt>
      <trkpt lat="48.273870" lon="3.921740">
        <time>2017-06-24T17:30:16Z</time>
      </trkpt>
      <trkpt lat="48.273810" lon="3.922150">
        <time>2017-06-24T17:30:17Z</time>
      </trkpt>
      <trkpt lat="48.273750" lon="3.922590">
        <time>2017-06-24T17:30:18Z</time>
      </trkpt>
      <trkpt lat="48.273700" lon="3.922970">
        <time>2017-06-24T17:30:19Z</time>
      </trkpt>
      <trkpt lat="48.273630" lon="3.923410">
        <time>2017-06-24T17:30:20Z</time>
      </trkpt>
      <trkpt lat="48.273580" lon="3.923780">
        <time>2017-06-24T17:30:21Z</time>
      </trkpt>
      <trkpt lat="48.273510" lon="3.924180">
        <time>2017-06-24T17:30:22Z</time>
      </trkpt>
      <trkpt lat="48.273430" lon="3.924590">
        <time>2017-06-24T17:30:23Z</time>
      </trkpt>
      <trkpt lat="48.273370" lon="3.924960">
        <time>2017-06-24T17:30:24Z</time>
      </trkpt>
      <trkpt lat="48.273290" lon="3.925350">
        <time>2017-06-24T17:30:25Z</time>
      </trkpt>
      <trkpt lat="48.273220" lon="3.925740">
        <time>2017-06-24T17:30:26Z</time>
      </trkpt>
      <trkpt lat="48.273140" lon="3.926140">
        <time>2017-06-24T17:30:27Z</time>
      </trkpt>
      <trkpt lat="48.273050" lon="3.926550">
        <time>2017-06-24T17:30:28Z</time>
      </trkpt>
      <trkpt lat="48.272970" lon="3.926920">
        <time>2017-06-24T17:30:29Z</time>
      </trkpt>
      <trkpt lat="48.272890" lon="3.927310">
        <time>2017-06-24T17:30:30Z</time>
      </trkpt>
      <trkpt lat="48.272790" lon="3.927730">
        <time>2017-06-24T17:30:31Z</time>
      </trkpt>
      <trkpt lat="48.272710" lon="3.928100">
        <time>2017-06-24T17:30:32Z</time>
      </trkpt>
      <trkpt lat="48.272610" lon="3.928510">
        <time>2017-06-24T17:30:33Z</time>
      </trkpt>
      <trkpt lat="48.272510" lon="3.928940">
        <time>2017-06-24T17:30:34Z</time>
      </trkpt>
      <trkpt lat="48.272420" lon="3.929320">
        <time>2017-06-24T17:30:35Z</time>
      </trkpt>
      <trkpt lat="48.272320" lon="3.929760">
        <time>2017-06-24T17:30:36Z</time>
      </trkpt>
      <trkpt lat="48.272240" lon="3.930140">
        <time>2017-06-24T17:30:37Z</time>
      </trkpt>
      <trkpt lat="48.272150" lon="3.930550">
        <time>2017-06-24T17:30:38Z</time>
      </trkpt>
      <trkpt lat="48.272050" lon="3.930990">
        <time>2017-06-24T17:30:39Z</time>
      </trkpt>
      <trkpt lat="48.271980" lon="3.931370">
        <time>2017-06-24T17:30:40Z</time>
      </trkpt>
      <trkpt lat="48.271890" lon="3.931800">
        <time>2017-06-24T17:30:41Z</time>
      </trkpt>
      <trkpt lat="48.271820" lon="3.932220">
        <time>2017-06-24T17:30:42Z</time>
      </trkpt>
      <trkpt lat="48.271750" lon="3.932630">
        <time>2017-06-24T17:30:43Z</time>
      </trkpt>
      <trkpt lat="48.271680" lon="3.933090">
        <time>2017-06-24T17:30:44Z</time>
      </trkpt>
      <trkpt lat="48.271620" lon="3.933490">
        <time>2017-06-24T17:30:45Z</time>
      </trkpt>
      <trkpt lat="48.271570" lon="3.933920">
        <time>2017-06-24T17:30:46Z</time>
      </trkpt>
      <trkpt lat="48.271520" lon="3.934370">
        <time>2017-06-24T17:30:47Z</time>
      </trkpt>
      <trkpt lat="48.271480" lon="3.934770">
        <time>2017-06-24T17:30:48Z</time>
      </trkpt>
      <trkpt lat="48.271440" lon="3.935200">
        <time>2017-06-24T17:30:49Z</time>
      </trkpt>
      <trkpt lat="48.271410" lon="3.935640">
        <time>2017-06-24T17:30:50Z</time>
      </trkpt>
      <trkpt lat="48.271380" lon="3.936030">
        <time>2017-06-24T17:30:51Z</time>
      </trkpt>
      <trkpt lat="48.271360" lon="3.936470">
        <time>2017-06-24T17:30:52Z</time>
      </trkpt>
      <trkpt lat="48.271340" lon="3.936850">
        <time>2017-06-24T17:30:53Z</time>
      </trkpt>
      <trkpt lat="48.271330" lon="3.937250">
        <time>2017-06-24T17:30:54Z</time>
      </trkpt>
      <trkpt lat="48.271320" lon="3.937670">
        <time>2017-06-24T17:30:55Z</time>
      </trkpt>
      <trkpt lat="48.271310" lon="3.938040">
        <time>2017-06-24T17:30:56Z</time>
      </trkpt>
      <trkpt lat="48.271310" lon="3.938440">
        <time>2017-06-24T17:30:57Z</time>
      </trkpt>
      <trkpt lat="48.271320" lon="3.938830">
        <time>2017-06-24T17:30:58Z</time>
      </trkpt>
      <trkpt lat="48.271320" lon="3.939220">
        <time>2017-06-24T17:30:59Z</time>
      </trkpt>
      <trkpt lat="48.271340" lon="3.939630">
        <time>2017-06-24T17:31:00Z</time>
      </trkpt>
      <trkpt lat="48.271350" lon="3.939980">
        <time>2017-06-24T17:31:01Z</time>
      </trkpt>
      <trkpt lat="48.271350" lon="3.940340">
        <time>2017-06-24T17:31:02Z</time>
      </trkpt>
      <trkpt lat="48.271360" lon="3.940700">
        <time>2017-06-24T17:31:03Z</time>
      </trkpt>
      <trkpt lat="48.271370" lon="3.941020">
        <time>2017-06-24T17:31:04Z</time>
      </trkpt>
      <trkpt lat="48.271380" lon="3.941330">
        <time>2017-06-24T17:31:05Z</time>
      </trkpt>
      <trkpt lat="48.271390" lon="3.941660">
        <time>2017-06-24T17:31:06Z</time>
      </trkpt>
      <trkpt lat="48.271390" lon="3.941930">
        <time>2017-06-24T17:31:07Z</time>
      </trkpt>
      <trkpt lat="48.271380" lon="3.942240">
        <time>2017-06-24T17:31:08Z</time>
      </trkpt>
      <trkpt lat="48.271360" lon="3.942500">
        <time>2017-06-24T17:31:09Z</time>
      </trkpt>
      <trkpt lat="48.271320" lon="3.942770">
        <time>2017-06-24T17:31:10Z</time>
      </trkpt>
      <trkpt lat="48.271260" lon="3.943030">
        <time>2017-06-24T17:31:11Z</time>
      </trkpt>
      <trkpt lat="48.271180" lon="3.943250">
        <time>2017-06-24T17:31:12Z</time>
      </trkpt>
      <trkpt lat="48.271080" lon="3.943480">
        <time>2017-06-24T17:31:13Z</time>
      </trkpt>
      <trkpt lat="48.270950" lon="3.943690">
        <time>2017-06-24T17:31:14Z</time>
      </trkpt>
      <trkpt lat="48.270820" lon="3.943870">
        <time>2017-06-24T17:31:15Z</time>
      </trkpt>
      <trkpt lat="48.270720" lon="3.944050">
        <time>2017-06-24T17:31:16Z</time>
      </trkpt>
      <trkpt lat="48.270650" lon="3.944200">
        <time>2017-06-24T17:31:17Z</time>
      </trkpt>
      <trkpt lat="48.270610" lon="3.944390">
        <time>2017-06-24T17:31:18Z</time>
      </trkpt>
      <trkpt lat="48.270600" lon="3.944610">
        <time>2017-06-24T17:31:19Z</time>
      </trkpt>
      <trkpt lat="48.270630" lon="3.944800">
        <time>2017-06-24T17:31:20Z</time>
      </trkpt>
      <trkpt lat="48.270700" lon="3.944980">
        <time>2017-06-24T17:31:21Z</time>
      </trkpt>
      <trkpt lat="48.270820" lon="3.945140">
        <time>2017-06-24T17:31:22Z</time>
      </trkpt>
      <trkpt lat="48.270950" lon="3.945270">
        <time>2017-06-24T17:31:23Z</time>
      </trkpt>
      <trkpt lat="48.271110" lon="3.945400">
        <time>2017-06-24T17:31:24Z</time>
      </trkpt>
      <trkpt lat="48.271240" lon="3.945510">
        <time>2017-06-24T17:31:25Z</time>
      </trkpt>
      <trkpt lat="48.271390" lon="3.945610">
        <time>2017-06-24T17:31:26Z</time>
      </trkpt>
      <trkpt lat="48.271530" lon="3.945710">
        <time>2017-06-24T17:31:27Z</time>
      </trkpt>
      <trkpt lat="48.271650" lon="3.945790">
        <time>2017-06-24T17:31:28Z</time>
      </trkpt>
      <trkpt lat="48.271770" lon="3.945890">
        <time>2017-06-24T17:31:29Z</time>
      </trkpt>
      <trkpt lat="48.271900" lon="3.945980">
        <time>2017-06-24T17:31:30Z</time>
      </trkpt>
      <trkpt lat="48.272030" lon="3.946080">
        <time>2017-06-24T17:31:31Z</time>
      </trkpt>
      <trkpt lat="48.272170" lon="3.946190">
        <time>2017-06-24T17:31:32Z</time>
      </trkpt>
      <trkpt lat="48.272290" lon="3.946280">
        <time>2017-06-24T17:31:33Z</time>
      </trkpt>
      <trkpt lat="48.272410" lon="3.946380">
        <time>2017-06-24T17:31:34Z</time>
      </trkpt>
      <trkpt lat="48.272550" lon="3.946490">
        <time>2017-06-24T17:31:35Z</time>
      </trkpt>
      <trkpt lat="48.272680" lon="3.946590">
        <time>2017-06-24T17:31:36Z</time>
      </trkpt>
      <trkpt lat="48.272810" lon="3.946710">
        <time>2017-06-24T17:31:37Z</time>
      </trkpt>
      <trkpt lat="48.272950" lon="3.946840">
        <time>2017-06-24T17:31:38Z</time>
      </trkpt>
      <trkpt lat="48.273070" lon="3.946960">
        <time>2017-06-24T17:31:39Z</time>
      </trkpt>
      <trkpt lat="48.273200" lon="3.947110">
        <time>2017-06-24T17:31:40Z</time>
      </trkpt>
      <trkpt lat="48.273320" lon="3.947250">
        <time>2017-06-24T17:31:41Z</time>
      </trkpt>
      <trkpt lat="48.273440" lon="3.947410">
        <time>2017-06-24T17:31:42Z</time>
      </trkpt>
      <trkpt lat="48.273560" lon="3.947600">
        <time>2017-06-24T17:31:43Z</time>
      </trkpt>
      <trkpt lat="48.273670" lon="3.947770">
        <time>2017-06-24T17:31:44Z</time>
      </trkpt>
      <trkpt lat="48.273780" lon="3.947970">
        <time>2017-06-24T17:31:45Z</time>
      </trkpt>
      <trkpt lat="48.273890" lon="3.948180">
        <time>2017-06-24T17:31:46Z</time>
      </trkpt>
      <trkpt lat="48.274000" lon="3.948400">
        <time>2017-06-24T17:31:47Z</time>
      </trkpt>
      <trkpt lat="48.274100" lon="3.948640">
        <time>2017-06-24T17:31:48Z</time>
      </trkpt>
      <trkpt lat="48.274190" lon="3.948870">
        <time>2017-06-24T17:31:49Z</time>
      </trkpt>
      <trkpt lat="48.274290" lon="3.949110">
        <time>2017-06-24T17:31:50Z</time>
      </trkpt>
      <trkpt lat="48.274410" lon="3.949370">
        <time>2017-06-24T17:31:51Z</time>
      </trkpt>
      <trkpt lat="48.274510" lon="3.949620">
        <time>2017-06-24T17:31:52Z</time>
      </trkpt>
      <trkpt lat="48.274630" lon="3.949890">
        <time>2017-06-24T17:31:53Z</time>
      </trkpt>
      <trkpt lat="48.274750" lon="3.950170">
        <time>2017-06-24T17:31:54Z</time>
      </trkpt>
      <trkpt lat="48.274860" lon="3.950430">
        <time>2017-06-24T17:31:55Z</time>
      </trkpt>
      <trkpt lat="48.274980" lon="3.950730">
        <time>2017-06-24T17:31:56Z</time>
      </trkpt>
      <trkpt lat="48.275090" lon="3.950980">
        <time>2017-06-24T17:31:57Z</time>
      </trkpt>
      <trkpt lat="48.275200" lon="3.951250">
        <time>2017-06-24T17:31:58Z</time>
      </trkpt>
      <trkpt lat="48.275320" lon="3.951540">
        <time>2017-06-24T17:31:59Z</time>
      </trkpt>
      <trkpt lat="48.275430" lon="3.951780">
        <time>2017-06-24T17:32:00Z</time>
      </trkpt>
      <trkpt lat="48.275550" lon="3.952050">
        <time>2017-06-24T17:32:01Z</time>
      </trkpt>
      <trkpt lat="48.275660" lon="3.952320">
        <time>2017-06-24T17:32:02Z</time>
      </trkpt>
      <trkpt lat="48.275780" lon="3.952590">
        <time>2017-06-24T17:32:03Z</time>
      </trkpt>
      <trkpt lat="48.275900" lon="3.952890">
        <time>2017-06-24T17:32:04Z</time>
      </trkpt>
      <trkpt lat="48.276010" lon="3.953160">
        <time>2017-06-24T17:32:05Z</time>
      </trkpt>
      <trkpt lat="48.276130" lon="3.953440">
        <time>2017-06-24T17:32:06Z</time>
      </trkpt>
      <trkpt lat="48.276250" lon="3.953730">
        <time>2017-06-24T17:32:07Z</time>
      </trkpt>
      <trkpt lat="48.276360" lon="3.953980">
        <time>2017-06-24T17:32:08Z</time>
      </trkpt>
      <trkpt lat="48.276470" lon="3.954240">
        <time>2017-06-24T17:32:09Z</time>
      </trkpt>
      <trkpt lat="48.276580" lon="3.954510">
        <time>2017-06-24T17:32:10Z</time>
      </trkpt>
      <trkpt lat="48.276670" lon="3.954730">
        <time>2017-06-24T17:32:11Z</time>
      </trkpt>
      <trkpt lat="48.276780" lon="3.954980">
        <time>2017-06-24T17:32:12Z</time>
      </trkpt>
      <trkpt lat="48.276880" lon="3.955210">
        <time>2017-06-24T17:32:13Z</time>
      </trkpt>
      <trkpt lat="48.276980" lon="3.955470">
        <time>2017-06-24T17:32:14Z</time>
      </trkpt>
      <trkpt lat="48.277100" lon="3.955740">
        <time>2017-06-24T17:32:15Z</time>
      </trkpt>
      <trkpt lat="48.277200" lon="3.955990">
        <time>2017-06-24T17:32:16Z</time>
      </trkpt>
      <trkpt lat="48.277320" lon="3.956250">
        <time>2017-06-24T17:32:17Z</time>
      </trkpt>
      <trkpt lat="48.277430" lon="3.956500">
        <time>2017-06-24T17:32:18Z</time>
      </trkpt>
      <trkpt lat="48.277550" lon="3.956760">
        <time>2017-06-24T17:32:19Z</time>
      </trkpt>
      <trkpt lat="48.277680" lon="3.957040">
        <time>2017-06-24T17:32:20Z</time>
      </trkpt>
      <trkpt lat="48.277800" lon="3.957280">
        <time>2017-06-24T17:32:21Z</time>
      </trkpt>
      <trkpt lat="48.277930" lon="3.957530">
        <time>2017-06-24T17:32:22Z</time>
      </trkpt>
      <trkpt lat="48.278080" lon="3.957810">
        <time>2017-06-24T17:32:23Z</time>
      </trkpt>
      <trkpt lat="48.278230" lon="3.958040">
        <time>2017-06-24T17:32:24Z</time>
      </trkpt>
      <trkpt lat="48.278370" lon="3.958290">
        <time>2017-06-24T17:32:25Z</time>
      </trkpt>
      <trkpt lat="48.278530" lon="3.958550">
        <time>2017-06-24T17:32:26Z</time>
      </trkpt>
      <trkpt lat="48.278670" lon="3.958780">
        <time>2017-06-24T17:32:27Z</time>
      </trkpt>
      <trkpt lat="48.278830" lon="3.959040">
        <time>2017-06-24T17:32:28Z</time>
      </trkpt>
      <trkpt lat="48.278970" lon="3.959260">
        <time>2017-06-24T17:32:29Z</time>
      </trkpt>
      <trkpt lat="48.279120" lon="3.959490">
        <time>2017-06-24T17:32:30Z</time>
      </trkpt>
      <trkpt lat="48.279260" lon="3.959740">
        <time>2017-06-24T17:32:31Z</time>
      </trkpt>
      <trkpt lat="48.279390" lon="3.959940">
        <time>2017-06-24T17:32:32Z</time>
      </trkpt>
      <trkpt lat="48.279520" lon="3.960160">
        <time>2017-06-24T17:32:33Z</time>
      </trkpt>
      <trkpt lat="48.279640" lon="3.960370">
        <time>2017-06-24T17:32:34Z</time>
      </trkpt>
      <trkpt lat="48.279760" lon="3.960570">
        <time>2017-06-24T17:32:35Z</time>
      </trkpt>
      <trkpt lat="48.279890" lon="3.960770">
        <time>2017-06-24T17:32:36Z</time>
      </trkpt>
      <trkpt lat="48.280000" lon="3.960940">
        <time>2017-06-24T17:32:37Z</time>
      </trkpt>
      <trkpt lat="48.280130" lon="3.961130">
        <time>2017-06-24T17:32:38Z</time>
      </trkpt>
      <trkpt lat="48.280280" lon="3.961320">
        <time>2017-06-24T17:32:39Z</time>
      </trkpt>
      <trkpt lat="48.280420" lon="3.961490">
        <time>2017-06-24T17:32:40Z</time>
      </trkpt>
      <trkpt lat="48.280570" lon="3.961670">
        <time>2017-06-24T17:32:41Z</time>
      </trkpt>
      <trkpt lat="48.280740" lon="3.961850">
        <time>2017-06-24T17:32:42Z</time>
      </trkpt>
      <trkpt lat="48.280890" lon="3.962010">
        <time>2017-06-24T17:32:43Z</time>
      </trkpt>
      <trkpt lat="48.281040" lon="3.962190">
        <time>2017-06-24T17:32:44Z</time>
      </trkpt>
      <trkpt lat="48.281180" lon="3.962340">
        <time>2017-06-24T17:32:45Z</time>
      </trkpt>
      <trkpt lat="48.281330" lon="3.962510">
        <time>2017-06-24T17:32:46Z</time>
      </trkpt>
      <trkpt lat="48.281490" lon="3.962690">
        <time>2017-06-24T17:32:47Z</time>
      </trkpt>
      <trkpt lat="48.281620" lon="3.962840">
        <time>2017-06-24T17:32:48Z</time>
      </trkpt>
      <trkpt lat="48.281770" lon="3.963000">
        <time>2017-06-24T17:32:49Z</time>
      </trkpt>
      <trkpt lat="48.281910" lon="3.963150">
        <time>2017-06-24T17:32:50Z</time>
      </trkpt>
      <trkpt lat="48.282050" lon="3.963300">
        <time>2017-06-24T17:32:51Z</time>
      </trkpt>
      <trkpt lat="48.282190" lon="3.963460">
        <time>2017-06-24T17:32:52Z</time>
      </trkpt>
      <trkpt lat="48.282310" lon="3.963590">
        <time>2017-06-24T17:32:53Z</time>
      </trkpt>
      <trkpt lat="48.282430" lon="3.963730">
        <time>2017-06-24T17:32:54Z</time>
      </trkpt>
      <trkpt lat="48.282570" lon="3.963880">
        <time>2017-06-24T17:32:55Z</time>
      </trkpt>
      <trkpt lat="48.282680" lon="3.964000">
        <time>2017-06-24T17:32:56Z</time>
      </trkpt>
      <trkpt lat="48.282800" lon="3.964140">
        <time>2017-06-24T17:32:57Z</time>
      </trkpt>
      <trkpt lat="48.282930" lon="3.964280">
        <time>2017-06-24T17:32:58Z</time>
      </trkpt>
      <trkpt lat="48.283040" lon="3.964400">
        <time>2017-06-24T17:32:59Z</time>
      </trkpt>
      <trkpt lat="48.283160" lon="3.964540">
        <time>2017-06-24T17:33:00Z</time>
      </trkpt>
      <trkpt lat="48.283270" lon="3.964650">
        <time>2017-06-24T17:33:01Z</time>
      </trkpt>
      <trkpt lat="48.283370" lon="3.964770">
        <time>2017-06-24T17:33:02Z</time>
      </trkpt>
      <trkpt lat="48.283490" lon="3.964900">
        <time>2017-06-24T17:33:03Z</time>
      </trkpt>
      <trkpt lat="48.283580" lon="3.965010">
        <time>2017-06-24T17:33:04Z</time>
      </trkpt>
      <trkpt lat="48.283680" lon="3.965120">
        <time>2017-06-24T17:33:05Z</time>
      </trkpt>
      <trkpt lat="48.283760" lon="3.965230">
        <time>2017-06-24T17:33:06Z</time>
      </trkpt>
      <trkpt lat="48.283840" lon="3.965330">
        <time>2017-06-24T17:33:07Z</time>
      </trkpt>
      <trkpt lat="48.283920" lon="3.965440">
        <time>2017-06-24T17:33:08Z</time>
      </trkpt>
      <trkpt lat="48.283990" lon="3.965530">
        <time>2017-06-24T17:33:09Z</time>
      </trkpt>
      <trkpt lat="48.284050" lon="3.965620">
        <time>2017-06-24T17:33:10Z</time>
      </trkpt>
      <trkpt lat="48.284110" lon="3.965700">
        <time>2017-06-24T17:33:11Z</time>
      </trkpt>
      <trkpt lat="48.284160" lon="3.965770">
        <time>2017-06-24T17:33:12Z</time>
      </trkpt>
      <trkpt lat="48.284210" lon="3.965840">
        <time>2017-06-24T17:33:13Z</time>
      </trkpt>
      <trkpt lat="48.284260" lon="3.965890">
        <time>2017-06-24T17:33:14Z</time>
      </trkpt>
      <trkpt lat="48.284290" lon="3.965940">
        <time>2017-06-24T17:33:15Z</time>
      </trkpt>
      <trkpt lat="48.284330" lon="3.965980">
        <time>2017-06-24T17:33:16Z</time>
      </trkpt>
      <trkpt lat="48.284360" lon="3.966010">
        <time>2017-06-24T17:33:17Z</time>
      </trkpt>
      <trkpt lat="48.284380" lon="3.966040">
        <time>2017-06-24T17:33:18Z</time>
      </trkpt>
      <trkpt lat="48.284400" lon="3.966050">
        <time>2017-06-24T17:33:19Z</time>
      </trkpt>
      <trkpt lat="48.284410" lon="3.966050">
        <time>2017-06-24T17:33:20Z</time>
      </trkpt>
      <trkpt lat="48.284410" lon="3.966060">
        <time>2017-06-24T17:33:21Z</time>
      </trkpt>
      <trkpt lat="48.284410" lon="3.966070">
        <time>2017-06-24T17:33:22Z</time>
      </trkpt>
      <trkpt lat="48.284410" lon="3.966070">
        <time>2017-06-24T17:33:23Z</time>
      </trkpt>
      <trkpt lat="48.284410" lon="3.966070">
        <time>2017-06-24T17:33:24Z</time>
      </trkpt>
      <trkpt lat="48.284410" lon="3.966070">
        <time>2017-06-24T17:33:25Z</time>
      </trkpt>
      <trkpt lat="48.284410" lon="3.966070">
        <time>2017-06-24T17:33:26Z</time>
      </trkpt>
      <trkpt lat="48.284410" lon="3.966070">
        <time>2017-06-24T17:33:27Z</time>
      </trkpt>
      <trkpt lat="48.284410" lon="3.966070">
        <time>2017-06-24T17:33:28Z</time>
      </trkpt>
      <trkpt lat="48.284410" lon="3.966070">
        <time>2017-06-24T17:33:29Z</time>
      </trkpt>
      <trkpt lat="48.284410" lon="3.966070">
        <time>2017-06-24T17:33:30Z</time>
      </trkpt>
      <trkpt lat="48.284410" lon="3.966070">
        <time>2017-06-24T17:33:31Z</time>
      </trkpt>
      <trkpt lat="48.284410" lon="3.966070">
        <time>2017-06-24T17:33:32Z</time>
      </trkpt>
      <trkpt lat="48.284410" lon="3.966070">
        <time>2017-06-24T17:33:33Z</time>
      </trkpt>
      <trkpt lat="48.284410" lon="3.966070">
        <time>2017-06-24T17:33:34Z</time>
      </trkpt>
      <trkpt lat="48.284410" lon="3.966070">
        <time>2017-06-24T17:33:35Z</time>
      </trkpt>
      <trkpt lat="48.284410" lon="3.966070">
        <time>2017-06-24T17:33:36Z</time>
      </trkpt>
      <trkpt lat="48.284410" lon="3.966070">
        <time>2017-06-24T17:33:37Z</time>
      </trkpt>
      <trkpt lat="48.284410" lon="3.966070">
        <time>2017-06-24T17:33:38Z</time>
      </trkpt>
      <trkpt lat="48.284410" lon="3.966070">
        <time>2017-06-24T17:33:39Z</time>
      </trkpt>
      <trkpt lat="48.284410" lon="3.966070">
        <time>2017-06-24T17:33:40Z</time>
      </trkpt>
      <trkpt lat="48.284410" lon="3.966070">
        <time>2017-06-24T17:33:41Z</time>
      </trkpt>
      <trkpt lat="48.284410" lon="3.966070">
        <time>2017-06-24T17:33:42Z</time>
      </trkpt>
      <trkpt lat="48.284410" lon="3.966070">
        <time>2017-06-24T17:33:43Z</time>
      </trkpt>
      <trkpt lat="48.284410" lon="3.966070">
        <time>2017-06-24T17:33:44Z</time>
      </trkpt>
      <trkpt lat="48.284410" lon="3.966070">
        <time>2017-06-24T17:33:45Z</time>
      </trkpt>
      <trkpt lat="48.284410" lon="3.966070">
        <time>2017-06-24T17:33:46Z</time>
      </trkpt>
      <trkpt lat="48.284410" lon="3.966070">
        <time>2017-06-24T17:33:47Z</time>
      </trkpt>
      <trkpt lat="48.284410" lon="3.966070">
        <time>2017-06-24T17:33:48Z</time>
      </trkpt>
      <trkpt lat="48.284410" lon="3.966070">
        <time>2017-06-24T17:33:49Z</time>
      </trkpt>
      <trkpt lat="48.284410" lon="3.966070">
        <time>2017-06-24T17:33:50Z</time>
      </trkpt>
      <trkpt lat="48.284410" lon="3.966070">
        <time>2017-06-24T17:33:51Z</time>
      </trkpt>
      <trkpt lat="48.284410" lon="3.966070">
        <time>2017-06-24T17:33:52Z</time>
      </trkpt>
      <trkpt lat="48.284410" lon="3.966070">
        <time>2017-06-24T17:33:53Z</time>
      </trkpt>
      <trkpt lat="48.284410" lon="3.966070">
        <time>2017-06-24T17:33:54Z</time>
      </trkpt>
      <trkpt lat="48.284410" lon="3.966070">
        <time>2017-06-24T17:33:55Z</time>
      </trkpt>
      <trkpt lat="48.284410" lon="3.966070">
        <time>2017-06-24T17:33:56Z</time>
      </trkpt>
      <trkpt lat="48.284410" lon="3.966070">
        <time>2017-06-24T17:33:57Z</time>
      </trkpt>
      <trkpt lat="48.284410" lon="3.966070">
        <time>2017-06-24T17:33:58Z</time>
      </trkpt>
      <trkpt lat="48.284410" lon="3.966070">
        <time>2017-06-24T17:33:59Z</time>
      </trkpt>
      <trkpt lat="48.284410" lon="3.966070">
        <time>2017-06-24T17:34:00Z</time>
      </trkpt>
      <trkpt lat="48.284410" lon="3.966070">
        <time>2017-06-24T17:34:01Z</time>
      </trkpt>
      <trkpt lat="48.284410" lon="3.966070">
        <time>2017-06-24T17:34:02Z</time>
      </trkpt>
      <trkpt lat="48.284410" lon="3.966070">
        <time>2017-06-24T17:34:03Z</time>
      </trkpt>
      <trkpt lat="48.284410" lon="3.966070">
        <time>2017-06-24T17:34:04Z</time>
      </trkpt>
      <trkpt lat="48.284410" lon="3.966070">
        <time>2017-06-24T17:34:05Z</time>
      </trkpt>
      <trkpt lat="48.284410" lon="3.966070">
        <time>2017-06-24T17:34:06Z</time>
      </trkpt>
      <trkpt lat="48.284410" lon="3.966070">
        <time>2017-06-24T17:34:07Z</time>
      </trkpt>
      <trkpt lat="48.284410" lon="3.966070">
        <time>2017-06-24T17:34:08Z</time>
      </trkpt>
      <trkpt lat="48.284410" lon="3.966070">
        <time>2017-06-24T17:34:09Z</time>
      </trkpt>
      <trkpt lat="48.284410" lon="3.966070">
        <time>2017-06-24T17:34:10Z</time>
      </trkpt>
      <trkpt lat="48.284410" lon="3.966070">
        <time>2017-06-24T17:34:11Z</time>
      </trkpt>
      <trkpt lat="48.284410" lon="3.966070">
        <time>2017-06-24T17:34:12Z</time>
      </trkpt>
      <trkpt lat="48.284410" lon="3.966070">
        <time>2017-06-24T17:34:13Z</time>
      </trkpt>
      <trkpt lat="48.284410" lon="3.966070">
        <time>2017-06-24T17:34:14Z</time>
      </trkpt>
      <trkpt lat="48.284410" lon="3.966070">
        <time>2017-06-24T17:34:15Z</time>
      </trkpt>
      <trkpt lat="48.284400" lon="3.966070">
        <time>2017-06-24T17:34:16Z</time>
      </trkpt>
      <trkpt lat="48.284400" lon="3.966070">
        <time>2017-06-24T17:34:17Z</time>
      </trkpt>
      <trkpt lat="48.284420" lon="3.966080">
        <time>2017-06-24T17:34:18Z</time>
      </trkpt>
      <trkpt lat="48.284440" lon="3.966110">
        <time>2017-06-24T17:34:19Z</time>
      </trkpt>
      <trkpt lat="48.284470" lon="3.966160">
        <time>2017-06-24T17:34:20Z</time>
      </trkpt>
      <trkpt lat="48.284520" lon="3.966220">
        <time>2017-06-24T17:34:21Z</time>
      </trkpt>
      <trkpt lat="48.284580" lon="3.966290">
        <time>2017-06-24T17:34:22Z</time>
      </trkpt>
      <trkpt lat="48.284650" lon="3.966370">
        <time>2017-06-24T17:34:23Z</time>
      </trkpt>
      <trkpt lat="48.284700" lon="3.966440">
        <time>2017-06-24T17:34:24Z</time>
      </trkpt>
      <trkpt lat="48.284760" lon="3.966520">
        <time>2017-06-24T17:34:25Z</time>
      </trkpt>
      <trkpt lat="48.284820" lon="3.966610">
        <time>2017-06-24T17:34:26Z</time>
      </trkpt>
      <trkpt lat="48.284890" lon="3.966700">
        <time>2017-06-24T17:34:27Z</time>
      </trkpt>
      <trkpt lat="48.284980" lon="3.966790">
        <time>2017-06-24T17:34:28Z</time>
      </trkpt>
      <trkpt lat="48.285060" lon="3.966870">
        <time>2017-06-24T17:34:29Z</time>
      </trkpt>
      <trkpt lat="48.285160" lon="3.966940">
        <time>2017-06-24T17:34:30Z</time>
      </trkpt>
      <trkpt lat="48.285270" lon="3.967010">
        <time>2017-06-24T17:34:31Z</time>
      </trkpt>
      <trkpt lat="48.285380" lon="3.967050">
        <time>2017-06-24T17:34:32Z</time>
      </trkpt>
      <trkpt lat="48.285480" lon="3.967110">
        <time>2017-06-24T17:34:33Z</time>
      </trkpt>
      <trkpt lat="48.285580" lon="3.967190">
        <time>2017-06-24T17:34:34Z</time>
      </trkpt>
      <trkpt lat="48.285670" lon="3.967270">
        <time>2017-06-24T17:34:35Z</time>
      </trkpt>
      <trkpt lat="48.285780" lon="3.967380">
        <time>2017-06-24T17:34:36Z</time>
      </trkpt>
      <trkpt lat="48.285880" lon="3.967470">
        <time>2017-06-24T17:34:37Z</time>
      </trkpt>
      <trkpt lat="48.285990" lon="3.967570">
        <time>2017-06-24T17:34:38Z</time>
      </trkpt>
      <trkpt lat="48.286100" lon="3.967660">
        <time>2017-06-24T17:34:39Z</time>
      </trkpt>
      <trkpt lat="48.286210" lon="3.967750">
        <time>2017-06-24T17:34:40Z</time>
      </trkpt>
      <trkpt lat="48.286330" lon="3.967830">
        <time>2017-06-24T17:34:41Z</time>
      </trkpt>
      <trkpt lat="48.286450" lon="3.967920">
        <time>2017-06-24T17:34:42Z</time>
      </trkpt>
      <trkpt lat="48.286560" lon="3.968000">
        <time>2017-06-24T17:34:43Z</time>
      </trkpt>
      <trkpt lat="48.286670" lon="3.968080">
        <time>2017-06-24T17:34:44Z</time>
      </trkpt>
      <trkpt lat="48.286770" lon="3.968130">
        <time>2017-06-24T17:34:45Z</time>
      </trkpt>
      <trkpt lat="48.286840" lon="3.968190">
        <time>2017-06-24T17:34:46Z</time>
      </trkpt>
      <trkpt lat="48.286910" lon="3.968290">
        <time>2017-06-24T17:34:47Z</time>
      </trkpt>
      <trkpt lat="48.286960" lon="3.968390">
        <time>2017-06-24T17:34:48Z</time>
      </trkpt>
      <trkpt lat="48.287020" lon="3.968510">
        <time>2017-06-24T17:34:49Z</time>
      </trkpt>
      <trkpt lat="48.287100" lon="3.968640">
        <time>2017-06-24T17:34:50Z</time>
      </trkpt>
      <trkpt lat="48.287160" lon="3.968800">
        <time>2017-06-24T17:34:51Z</time>
      </trkpt>
      <trkpt lat="48.287210" lon="3.969000">
        <time>2017-06-24T17:34:52Z</time>
      </trkpt>
      <trkpt lat="48.287250" lon="3.969200">
        <time>2017-06-24T17:34:53Z</time>
      </trkpt>
      <trkpt lat="48.287280" lon="3.969430">
        <time>2017-06-24T17:34:54Z</time>
      </trkpt>
      <trkpt lat="48.287310" lon="3.969670">
        <time>2017-06-24T17:34:55Z</time>
      </trkpt>
      <trkpt lat="48.287330" lon="3.969890">
        <time>2017-06-24T17:34:56Z</time>
      </trkpt>
      <trkpt lat="48.287350" lon="3.970130">
        <time>2017-06-24T17:34:57Z</time>
      </trkpt>
      <trkpt lat="48.287380" lon="3.970390">
        <time>2017-06-24T17:34:58Z</time>
      </trkpt>
      <trkpt lat="48.287400" lon="3.970670">
        <time>2017-06-24T17:34:59Z</time>
      </trkpt>
      <trkpt lat="48.287420" lon="3.970970">
        <time>2017-06-24T17:35:00Z</time>
      </trkpt>
      <trkpt lat="48.287440" lon="3.971250">
        <time>2017-06-24T17:35:01Z</time>
      </trkpt>
      <trkpt lat="48.287460" lon="3.971550">
        <time>2017-06-24T17:35:02Z</time>
      </trkpt>
      <trkpt lat="48.287480" lon="3.971870">
        <time>2017-06-24T17:35:03Z</time>
      </trkpt>
      <trkpt lat="48.287500" lon="3.972160">
        <time>2017-06-24T17:35:04Z</time>
      </trkpt>
      <trkpt lat="48.287520" lon="3.972480">
        <time>2017-06-24T17:35:05Z</time>
      </trkpt>
      <trkpt lat="48.287540" lon="3.972820">
        <time>2017-06-24T17:35:06Z</time>
      </trkpt>
      <trkpt lat="48.287560" lon="3.973120">
        <time>2017-06-24T17:35:07Z</time>
      </trkpt>
      <trkpt lat="48.287590" lon="3.973470">
        <time>2017-06-24T17:35:08Z</time>
      </trkpt>
      <trkpt lat="48.287610" lon="3.973800">
        <time>2017-06-24T17:35:09Z</time>
      </trkpt>
      <trkpt lat="48.287630" lon="3.974140">
        <time>2017-06-24T17:35:10Z</time>
      </trkpt>
      <trkpt lat="48.287650" lon="3.974520">
        <time>2017-06-24T17:35:11Z</time>
      </trkpt>
      <trkpt lat="48.287670" lon="3.974840">
        <time>2017-06-24T17:35:12Z</time>
      </trkpt>
      <trkpt lat="48.287700" lon="3.975200">
        <time>2017-06-24T17:35:13Z</time>
      </trkpt>
      <trkpt lat="48.287710" lon="3.975540">
        <time>2017-06-24T17:35:14Z</time>
      </trkpt>
      <trkpt lat="48.287730" lon="3.975900">
        <time>2017-06-24T17:35:15Z</time>
      </trkpt>
      <trkpt lat="48.287750" lon="3.976280">
        <time>2017-06-24T17:35:16Z</time>
      </trkpt>
      <trkpt lat="48.287780" lon="3.976610">
        <time>2017-06-24T17:35:17Z</time>
      </trkpt>
      <trkpt lat="48.287800" lon="3.976970">
        <time>2017-06-24T17:35:18Z</time>
      </trkpt>
      <trkpt lat="48.287830" lon="3.977360">
        <time>2017-06-24T17:35:19Z</time>
      </trkpt>
      <trkpt lat="48.287850" lon="3.977710">
        <time>2017-06-24T17:35:20Z</time>
      </trkpt>
      <trkpt lat="48.287870" lon="3.978080">
        <time>2017-06-24T17:35:21Z</time>
      </trkpt>
      <trkpt lat="48.287900" lon="3.978470">
        <time>2017-06-24T17:35:22Z</time>
      </trkpt>
      <trkpt lat="48.287930" lon="3.978820">
        <time>2017-06-24T17:35:23Z</time>
      </trkpt>
      <trkpt lat="48.287950" lon="3.979220">
        <time>2017-06-24T17:35:24Z</time>
      </trkpt>
      <trkpt lat="48.287970" lon="3.979570">
        <time>2017-06-24T17:35:25Z</time>
      </trkpt>
      <trkpt lat="48.288000" lon="3.979940">
        <time>2017-06-24T17:35:26Z</time>
      </trkpt>
      <trkpt lat="48.288020" lon="3.980310">
        <time>2017-06-24T17:35:27Z</time>
      </trkpt>
      <trkpt lat="48.288050" lon="3.980640">
        <time>2017-06-24T17:35:28Z</time>
      </trkpt>
      <trkpt lat="48.288070" lon="3.980990">
        <time>2017-06-24T17:35:29Z</time>
      </trkpt>
      <trkpt lat="48.288090" lon="3.981320">
        <time>2017-06-24T17:35:30Z</time>
      </trkpt>
      <trkpt lat="48.288110" lon="3.981660">
        <time>2017-06-24T17:35:31Z</time>
      </trkpt>
      <trkpt lat="48.288130" lon="3.982020">
        <time>2017-06-24T17:35:32Z</time>
      </trkpt>
      <trkpt lat="48.288150" lon="3.982320">
        <time>2017-06-24T17:35:33Z</time>
      </trkpt>
      <trkpt lat="48.288170" lon="3.982650">
        <time>2017-06-24T17:35:34Z</time>
      </trkpt>
      <trkpt lat="48.288190" lon="3.982990">
        <time>2017-06-24T17:35:35Z</time>
      </trkpt>
      <trkpt lat="48.288210" lon="3.983280">
        <time>2017-06-24T17:35:36Z</time>
      </trkpt>
      <trkpt lat="48.288230" lon="3.983580">
        <time>2017-06-24T17:35:37Z</time>
      </trkpt>
      <trkpt lat="48.288250" lon="3.983890">
        <time>2017-06-24T17:35:38Z</time>
      </trkpt>
      <trkpt lat="48.288270" lon="3.984170">
        <time>2017-06-24T17:35:39Z</time>
      </trkpt>
      <trkpt lat="48.288290" lon="3.984480">
        <time>2017-06-24T17:35:40Z</time>
      </trkpt>
      <trkpt lat="48.288300" lon="3.984750">
        <time>2017-06-24T17:35:41Z</time>
      </trkpt>
      <trkpt lat="48.288320" lon="3.985040">
        <time>2017-06-24T17:35:42Z</time>
      </trkpt>
      <trkpt lat="48.288340" lon="3.985330">
        <time>2017-06-24T17:35:43Z</time>
      </trkpt>
      <trkpt lat="48.288360" lon="3.985570">
        <time>2017-06-24T17:35:44Z</time>
      </trkpt>
      <trkpt lat="48.288380" lon="3.985830">
        <time>2017-06-24T17:35:45Z</time>
      </trkpt>
      <trkpt lat="48.288400" lon="3.986080">
        <time>2017-06-24T17:35:46Z</time>
      </trkpt>
      <trkpt lat="48.288410" lon="3.986330">
        <time>2017-06-24T17:35:47Z</time>
      </trkpt>
      <trkpt lat="48.288420" lon="3.986560">
        <time>2017-06-24T17:35:48Z</time>
      </trkpt>
      <trkpt lat="48.288440" lon="3.986760">
        <time>2017-06-24T17:35:49Z</time>
      </trkpt>
      <trkpt lat="48.288450" lon="3.986960">
        <time>2017-06-24T17:35:50Z</time>
      </trkpt>
      <trkpt lat="48.288460" lon="3.987170">
        <time>2017-06-24T17:35:51Z</time>
      </trkpt>
      <trkpt lat="48.288470" lon="3.987330">
        <time>2017-06-24T17:35:52Z</time>
      </trkpt>
      <trkpt lat="48.288480" lon="3.987500">
        <time>2017-06-24T17:35:53Z</time>
      </trkpt>
      <trkpt lat="48.288470" lon="3.987660">
        <time>2017-06-24T17:35:54Z</time>
      </trkpt>
      <trkpt lat="48.288470" lon="3.987770">
        <time>2017-06-24T17:35:55Z</time>
      </trkpt>
      <trkpt lat="48.288450" lon="3.987890">
        <time>2017-06-24T17:35:56Z</time>
      </trkpt>
      <trkpt lat="48.288410" lon="3.987990">
        <time>2017-06-24T17:35:57Z</time>
      </trkpt>
      <trkpt lat="48.288350" lon="3.988120">
        <time>2017-06-24T17:35:58Z</time>
      </trkpt>
      <trkpt lat="48.288320" lon="3.988260">
        <time>2017-06-24T17:35:59Z</time>
      </trkpt>
      <trkpt lat="48.288310" lon="3.988390">
        <time>2017-06-24T17:36:00Z</time>
      </trkpt>
      <trkpt lat="48.288330" lon="3.988520">
        <time>2017-06-24T17:36:01Z</time>
      </trkpt>
      <trkpt lat="48.288390" lon="3.988620">
        <time>2017-06-24T17:36:02Z</time>
      </trkpt>
      <trkpt lat="48.288470" lon="3.988700">
        <time>2017-06-24T17:36:03Z</time>
      </trkpt>
      <trkpt lat="48.288570" lon="3.988780">
        <time>2017-06-24T17:36:04Z</time>
      </trkpt>
      <trkpt lat="48.288650" lon="3.988870">
        <time>2017-06-24T17:36:05Z</time>
      </trkpt>
      <trkpt lat="48.288730" lon="3.989010">
        <time>2017-06-24T17:36:06Z</time>
      </trkpt>
      <trkpt lat="48.288820" lon="3.989200">
        <time>2017-06-24T17:36:07Z</time>
      </trkpt>
      <trkpt lat="48.288890" lon="3.989390">
        <time>2017-06-24T17:36:08Z</time>
      </trkpt>
      <trkpt lat="48.288960" lon="3.989620">
        <time>2017-06-24T17:36:09Z</time>
      </trkpt>
      <trkpt lat="48.289040" lon="3.989860">
        <time>2017-06-24T17:36:10Z</time>
      </trkpt>
      <trkpt lat="48.289120" lon="3.990080">
        <time>2017-06-24T17:36:11Z</time>
      </trkpt>
      <trkpt lat="48.289190" lon="3.990320">
        <time>2017-06-24T17:36:12Z</time>
      </trkpt>
      <trkpt lat="48.289260" lon="3.990520">
        <time>2017-06-24T17:36:13Z</time>
      </trkpt>
      <trkpt lat="48.289330" lon="3.990740">
        <time>2017-06-24T17:36:14Z</time>
      </trkpt>
      <trkpt lat="48.289400" lon="3.990980">
        <time>2017-06-24T17:36:15Z</time>
      </trkpt>
      <trkpt lat="48.289470" lon="3.991180">
        <time>2017-06-24T17:36:16Z</time>
      </trkpt>
      <trkpt lat="48.289540" lon="3.991410">
        <time>2017-06-24T17:36:17Z</time>
      </trkpt>
      <trkpt lat="48.289620" lon="3.991650">
        <time>2017-06-24T17:36:18Z</time>
      </trkpt>
      <trkpt lat="48.289710" lon="3.991890">
        <time>2017-06-24T17:36:19Z</time>
      </trkpt>
      <trkpt lat="48.289800" lon="3.992170">
        <time>2017-06-24T17:36:20Z</time>
      </trkpt>
      <trkpt lat="48.289900" lon="3.992420">
        <time>2017-06-24T17:36:21Z</time>
      </trkpt>
      <trkpt lat="48.290000" lon="3.992690">
        <time>2017-06-24T17:36:22Z</time>
      </trkpt>
      <trkpt lat="48.290110" lon="3.992960">
        <time>2017-06-24T17:36:23Z</time>
      </trkpt>
      <trkpt lat="48.290220" lon="3.993210">
        <time>2017-06-24T17:36:24Z</time>
      </trkpt>
      <trkpt lat="48.290340" lon="3.993480">
        <time>2017-06-24T17:36:25Z</time>
      </trkpt>
      <trkpt lat="48.290490" lon="3.993770">
        <time>2017-06-24T17:36:26Z</time>
      </trkpt>
      <trkpt lat="48.290620" lon="3.994030">
        <time>2017-06-24T17:36:27Z</time>
      </trkpt>
      <trkpt lat="48.290770" lon="3.994330">
        <time>2017-06-24T17:36:28Z</time>
      </trkpt>
      <trkpt lat="48.290900" lon="3.994600">
        <time>2017-06-24T17:36:29Z</time>
      </trkpt>
      <trkpt lat="48.291050" lon="3.994880">
        <time>2017-06-24T17:36:30Z</time>
      </trkpt>
      <trkpt lat="48.291200" lon="3.995180">
        <time>2017-06-24T17:36:31Z</time>
      </trkpt>
      <trkpt lat="48.291340" lon="3.995450">
        <time>2017-06-24T17:36:32Z</time>
      </trkpt>
      <trkpt lat="48.291490" lon="3.995730">
        <time>2017-06-24T17:36:33Z</time>
      </trkpt>
      <trkpt lat="48.291640" lon="3.996010">
        <time>2017-06-24T17:36:34Z</time>
      </trkpt>
      <trkpt lat="48.291790" lon="3.996290">
        <time>2017-06-24T17:36:35Z</time>
      </trkpt>
      <trkpt lat="48.291950" lon="3.996590">
        <time>2017-06-24T17:36:36Z</time>
      </trkpt>
      <trkpt lat="48.292090" lon="3.996850">
        <time>2017-06-24T17:36:37Z</time>
      </trkpt>
      <trkpt lat="48.292240" lon="3.997130">
        <time>2017-06-24T17:36:38Z</time>
      </trkpt>
      <trkpt lat="48.292390" lon="3.997430">
        <time>2017-06-24T17:36:39Z</time>
      </trkpt>
      <trkpt lat="48.292530" lon="3.997690">
        <time>2017-06-24T17:36:40Z</time>
      </trkpt>
      <trkpt lat="48.292670" lon="3.997960">
        <time>2017-06-24T17:36:41Z</time>
      </trkpt>
      <trkpt lat="48.292820" lon="3.998250">
        <time>2017-06-24T17:36:42Z</time>
      </trkpt>
      <trkpt lat="48.292950" lon="3.998500">
        <time>2017-06-24T17:36:43Z</time>
      </trkpt>
      <trkpt lat="48.293100" lon="3.998780">
        <time>2017-06-24T17:36:44Z</time>
      </trkpt>
      <trkpt lat="48.293230" lon="3.999030">
        <time>2017-06-24T17:36:45Z</time>
      </trkpt>
      <trkpt lat="48.293360" lon="3.999270">
        <time>2017-06-24T17:36:46Z</time>
      </trkpt>
      <trkpt lat="48.293490" lon="3.999530">
        <time>2017-06-24T17:36:47Z</time>
      </trkpt>
      <trkpt lat="48.293610" lon="3.999750">
        <time>2017-06-24T17:36:48Z</time>
      </trkpt>
      <trkpt lat="48.293730" lon="3.999990">
        <time>2017-06-24T17:36:49Z</time>
      </trkpt>
      <trkpt lat="48.293850" lon="4.000220">
        <time>2017-06-24T17:36:50Z</time>
      </trkpt>
      <trkpt lat="48.293980" lon="4.000450">
        <time>2017-06-24T17:36:51Z</time>
      </trkpt>
      <trkpt lat="48.294100" lon="4.000690">
        <time>2017-06-24T17:36:52Z</time>
      </trkpt>
      <trkpt lat="48.294220" lon="4.000900">
        <time>2017-06-24T17:36:53Z</time>
      </trkpt>
      <trkpt lat="48.294340" lon="4.001130">
        <time>2017-06-24T17:36:54Z</time>
      </trkpt>
      <trkpt lat="48.294470" lon="4.001370">
        <time>2017-06-24T17:36:55Z</time>
      </trkpt>
      <trkpt lat="48.294580" lon="4.001590">
        <time>2017-06-24T17:36:56Z</time>
      </trkpt>
      <trkpt lat="48.294700" lon="4.001830">
        <time>2017-06-24T17:36:57Z</time>
      </trkpt>
      <trkpt lat="48.294830" lon="4.002090">
        <time>2017-06-24T17:36:58Z</time>
      </trkpt>
      <trkpt lat="48.294930" lon="4.002310">
        <time>2017-06-24T17:36:59Z</time>
      </trkpt>
      <trkpt lat="48.295050" lon="4.002560">
        <time>2017-06-24T17:37:00Z</time>
      </trkpt>
      <trkpt lat="48.295140" lon="4.002780">
        <time>2017-06-24T17:37:01Z</time>
      </trkpt>
      <trkpt lat="48.295250" lon="4.003000">
        <time>2017-06-24T17:37:02Z</time>
      </trkpt>
      <trkpt lat="48.295360" lon="4.003240">
        <time>2017-06-24T17:37:03Z</time>
      </trkpt>
      <trkpt lat="48.295450" lon="4.003430">
        <time>2017-06-24T17:37:04Z</time>
      </trkpt>
      <trkpt lat="48.295540" lon="4.003620">
        <time>2017-06-24T17:37:05Z</time>
      </trkpt>
      <trkpt lat="48.295620" lon="4.003820">
        <time>2017-06-24T17:37:06Z</time>
      </trkpt>
      <trkpt lat="48.295700" lon="4.003990">
        <time>2017-06-24T17:37:07Z</time>
      </trkpt>
      <trkpt lat="48.295780" lon="4.004170">
        <time>2017-06-24T17:37:08Z</time>
      </trkpt>
      <trkpt lat="48.295840" lon="4.004320">
        <time>2017-06-24T17:37:09Z</time>
      </trkpt>
      <trkpt lat="48.295910" lon="4.004460">
        <time>2017-06-24T17:37:10Z</time>
      </trkpt>
      <trkpt lat="48.295980" lon="4.004610">
        <time>2017-06-24T17:37:11Z</time>
      </trkpt>
      <trkpt lat="48.296030" lon="4.004720">
        <time>2017-06-24T17:37:12Z</time>
      </trkpt>
      <trkpt lat="48.296080" lon="4.004850">
        <time>2017-06-24T17:37:13Z</time>
      </trkpt>
      <trkpt lat="48.296130" lon="4.004990">
        <time>2017-06-24T17:37:14Z</time>
      </trkpt>
      <trkpt lat="48.296150" lon="4.005110">
        <time>2017-06-24T17:37:15Z</time>
      </trkpt>
      <trkpt lat="48.296160" lon="4.005260">
        <time>2017-06-24T17:37:16Z</time>
      </trkpt>
      <trkpt lat="48.296150" lon="4.005380">
        <time>2017-06-24T17:37:17Z</time>
      </trkpt>
      <trkpt lat="48.296150" lon="4.005510">
        <time>2017-06-24T17:37:18Z</time>
      </trkpt>
      <trkpt lat="48.296180" lon="4.005640">
        <time>2017-06-24T17:37:19Z</time>
      </trkpt>
      <trkpt lat="48.296220" lon="4.005740">
        <time>2017-06-24T17:37:20Z</time>
      </trkpt>
      <trkpt lat="48.296300" lon="4.005820">
        <time>2017-06-24T17:37:21Z</time>
      </trkpt>
      <trkpt lat="48.296380" lon="4.005880">
        <time>2017-06-24T17:37:22Z</time>
      </trkpt>
      <trkpt lat="48.296470" lon="4.005960">
        <time>2017-06-24T17:37:23Z</time>
      </trkpt>
      <trkpt lat="48.296540" lon="4.006080">
        <time>2017-06-24T17:37:24Z</time>
      </trkpt>
      <trkpt lat="48.296600" lon="4.006220">
        <time>2017-06-24T17:37:25Z</time>
      </trkpt>
      <trkpt lat="48.296660" lon="4.006390">
        <time>2017-06-24T17:37:26Z</time>
      </trkpt>
      <trkpt lat="48.296720" lon="4.006590">
        <time>2017-06-24T17:37:27Z</time>
      </trkpt>
      <trkpt lat="48.296780" lon="4.006780">
        <time>2017-06-24T17:37:28Z</time>
      </trkpt>
      <trkpt lat="48.296850" lon="4.006980">
        <time>2017-06-24T17:37:29Z</time>
      </trkpt>
      <trkpt lat="48.296920" lon="4.007210">
        <time>2017-06-24T17:37:30Z</time>
      </trkpt>
      <trkpt lat="48.296990" lon="4.007390">
        <time>2017-06-24T17:37:31Z</time>
      </trkpt>
      <trkpt lat="48.297060" lon="4.007620">
        <time>2017-06-24T17:37:32Z</time>
      </trkpt>
      <trkpt lat="48.297120" lon="4.007820">
        <time>2017-06-24T17:37:33Z</time>
      </trkpt>
      <trkpt lat="48.297190" lon="4.008040">
        <time>2017-06-24T17:37:34Z</time>
      </trkpt>
      <trkpt lat="48.297260" lon="4.008280">
        <time>2017-06-24T17:37:35Z</time>
      </trkpt>
      <trkpt lat="48.297330" lon="4.008500">
        <time>2017-06-24T17:37:36Z</time>
      </trkpt>
      <trkpt lat="48.297400" lon="4.008750">
        <time>2017-06-24T17:37:37Z</time>
      </trkpt>
      <trkpt lat="48.297480" lon="4.009010">
        <time>2017-06-24T17:37:38Z</time>
      </trkpt>
      <trkpt lat="48.297560" lon="4.009270">
        <time>2017-06-24T17:37:39Z</time>
      </trkpt>
      <trkpt lat="48.297660" lon="4.009550">
        <time>2017-06-24T17:37:40Z</time>
      </trkpt>
      <trkpt lat="48.297730" lon="4.009820">
        <time>2017-06-24T17:37:41Z</time>
      </trkpt>
      <trkpt lat="48.297810" lon="4.010100">
        <time>2017-06-24T17:37:42Z</time>
      </trkpt>
      <trkpt lat="48.297890" lon="4.010420">
        <time>2017-06-24T17:37:43Z</time>
      </trkpt>
      <trkpt lat="48.297970" lon="4.010700">
        <time>2017-06-24T17:37:44Z</time>
      </trkpt>
      <trkpt lat="48.298040" lon="4.010990">
        <time>2017-06-24T17:37:45Z</time>
      </trkpt>
      <trkpt lat="48.298130" lon="4.011290">
        <time>2017-06-24T17:37:46Z</time>
      </trkpt>
      <trkpt lat="48.298200" lon="4.011570">
        <time>2017-06-24T17:37:47Z</time>
      </trkpt>
      <trkpt lat="48.298290" lon="4.011880">
        <time>2017-06-24T17:37:48Z</time>
      </trkpt>
      <trkpt lat="48.298360" lon="4.012170">
        <time>2017-06-24T17:37:49Z</time>
      </trkpt>
      <trkpt lat="48.298450" lon="4.012470">
        <time>2017-06-24T17:37:50Z</time>
      </trkpt>
      <trkpt lat="48.298540" lon="4.012810">
        <time>2017-06-24T17:37:51Z</time>
      </trkpt>
      <trkpt lat="48.298620" lon="4.013110">
        <time>2017-06-24T17:37:52Z</time>
      </trkpt>
      <trkpt lat="48.298710" lon="4.013430">
        <time>2017-06-24T17:37:53Z</time>
      </trkpt>
      <trkpt lat="48.298800" lon="4.013760">
        <time>2017-06-24T17:37:54Z</time>
      </trkpt>
      <trkpt lat="48.298880" lon="4.014070">
        <time>2017-06-24T17:37:55Z</time>
      </trkpt>
      <trkpt lat="48.298980" lon="4.014410">
        <time>2017-06-24T17:37:56Z</time>
      </trkpt>
      <trkpt lat="48.299060" lon="4.014710">
        <time>2017-06-24T17:37:57Z</time>
      </trkpt>
      <trkpt lat="48.299150" lon="4.015040">
        <time>2017-06-24T17:37:58Z</time>
      </trkpt>
      <trkpt lat="48.299240" lon="4.015390">
        <time>2017-06-24T17:37:59Z</time>
      </trkpt>
      <trkpt lat="48.299330" lon="4.015700">
        <time>2017-06-24T17:38:00Z</time>
      </trkpt>
      <trkpt lat="48.299420" lon="4.016020">
        <time>2017-06-24T17:38:01Z</time>
      </trkpt>
      <trkpt lat="48.299510" lon="4.016370">
        <time>2017-06-24T17:38:02Z</time>
      </trkpt>
      <trkpt lat="48.299600" lon="4.016670">
        <time>2017-06-24T17:38:03Z</time>
      </trkpt>
      <trkpt lat="48.299690" lon="4.017010">
        <time>2017-06-24T17:38:04Z</time>
      </trkpt>
      <trkpt lat="48.299770" lon="4.017320">
        <time>2017-06-24T17:38:05Z</time>
      </trkpt>
      <trkpt lat="48.299860" lon="4.017640">
        <time>2017-06-24T17:38:06Z</time>
      </trkpt>
      <trkpt lat="48.299960" lon="4.018000">
        <time>2017-06-24T17:38:07Z</time>
      </trkpt>
      <trkpt lat="48.300040" lon="4.018310">
        <time>2017-06-24T17:38:08Z</time>
      </trkpt>
      <trkpt lat="48.300140" lon="4.018640">
        <time>2017-06-24T17:38:09Z</time>
      </trkpt>
      <trkpt lat="48.300230" lon="4.018960">
        <time>2017-06-24T17:38:10Z</time>
      </trkpt>
      <trkpt lat="48.300310" lon="4.019280">
        <time>2017-06-24T17:38:11Z</time>
      </trkpt>
      <trkpt lat="48.300400" lon="4.019620">
        <time>2017-06-24T17:38:12Z</time>
      </trkpt>
      <trkpt lat="48.300480" lon="4.019920">
        <time>2017-06-24T17:38:13Z</time>
      </trkpt>
      <trkpt lat="48.300570" lon="4.020230">
        <time>2017-06-24T17:38:14Z</time>
      </trkpt>
      <trkpt lat="48.300650" lon="4.020570">
        <time>2017-06-24T17:38:15Z</time>
      </trkpt>
      <trkpt lat="48.300720" lon="4.020850">
        <time>2017-06-24T17:38:16Z</time>
      </trkpt>
      <trkpt lat="48.300790" lon="4.021140">
        <time>2017-06-24T17:38:17Z</time>
      </trkpt>
      <trkpt lat="48.300870" lon="4.021440">
        <time>2017-06-24T17:38:18Z</time>
      </trkpt>
      <trkpt lat="48.300930" lon="4.021700">
        <time>2017-06-24T17:38:19Z</time>
      </trkpt>
      <trkpt lat="48.301000" lon="4.021980">
        <time>2017-06-24T17:38:20Z</time>
      </trkpt>
      <trkpt lat="48.301060" lon="4.022210">
        <time>2017-06-24T17:38:21Z</time>
      </trkpt>
      <trkpt lat="48.301120" lon="4.022450">
        <time>2017-06-24T17:38:22Z</time>
      </trkpt>
      <trkpt lat="48.301180" lon="4.022690">
        <time>2017-06-24T17:38:23Z</time>
      </trkpt>
      <trkpt lat="48.301240" lon="4.022890">
        <time>2017-06-24T17:38:24Z</time>
      </trkpt>
      <trkpt lat="48.301290" lon="4.023100">
        <time>2017-06-24T17:38:25Z</time>
      </trkpt>
      <trkpt lat="48.301340" lon="4.023280">
        <time>2017-06-24T17:38:26Z</time>
      </trkpt>
      <trkpt lat="48.301390" lon="4.023450">
        <time>2017-06-24T17:38:27Z</time>
      </trkpt>
      <trkpt lat="48.301430" lon="4.023630">
        <time>2017-06-24T17:38:28Z</time>
      </trkpt>
      <trkpt lat="48.301460" lon="4.023790">
        <time>2017-06-24T17:38:29Z</time>
      </trkpt>
      <trkpt lat="48.301500" lon="4.023950">
        <time>2017-06-24T17:38:30Z</time>
      </trkpt>
      <trkpt lat="48.301530" lon="4.024110">
        <time>2017-06-24T17:38:31Z</time>
      </trkpt>
      <trkpt lat="48.301540" lon="4.024230">
        <time>2017-06-24T17:38:32Z</time>
      </trkpt>
      <trkpt lat="48.301540" lon="4.024340">
        <time>2017-06-24T17:38:33Z</time>
      </trkpt>
      <trkpt lat="48.301530" lon="4.024460">
        <time>2017-06-24T17:38:34Z</time>
      </trkpt>
      <trkpt lat="48.301500" lon="4.024560">
        <time>2017-06-24T17:38:35Z</time>
      </trkpt>
      <trkpt lat="48.301450" lon="4.024690">
        <time>2017-06-24T17:38:36Z</time>
      </trkpt>
      <trkpt lat="48.301410" lon="4.024800">
        <time>2017-06-24T17:38:37Z</time>
      </trkpt>
      <trkpt lat="48.301370" lon="4.024900">
        <time>2017-06-24T17:38:38Z</time>
      </trkpt>
      <trkpt lat="48.301310" lon="4.025000">
        <time>2017-06-24T17:38:39Z</time>
      </trkpt>
      <trkpt lat="48.301240" lon="4.025070">
        <time>2017-06-24T17:38:40Z</time>
      </trkpt>
      <trkpt lat="48.301140" lon="4.025140">
        <time>2017-06-24T17:38:41Z</time>
      </trkpt>
      <trkpt lat="48.301030" lon="4.025200">
        <time>2017-06-24T17:38:42Z</time>
      </trkpt>
      <trkpt lat="48.300900" lon="4.025280">
        <time>2017-06-24T17:38:43Z</time>
      </trkpt>
      <trkpt lat="48.300750" lon="4.025390">
        <time>2017-06-24T17:38:44Z</time>
      </trkpt>
      <trkpt lat="48.300610" lon="4.025500">
        <time>2017-06-24T17:38:45Z</time>
      </trkpt>
      <trkpt lat="48.300460" lon="4.025640">
        <time>2017-06-24T17:38:46Z</time>
      </trkpt>
      <trkpt lat="48.300290" lon="4.025810">
        <time>2017-06-24T17:38:47Z</time>
      </trkpt>
      <trkpt lat="48.300150" lon="4.025970">
        <time>2017-06-24T17:38:48Z</time>
      </trkpt>
      <trkpt lat="48.300000" lon="4.026150">
        <time>2017-06-24T17:38:49Z</time>
      </trkpt>
      <trkpt lat="48.299830" lon="4.026360">
        <time>2017-06-24T17:38:50Z</time>
      </trkpt>
      <trkpt lat="48.299680" lon="4.026550">
        <time>2017-06-24T17:38:51Z</time>
      </trkpt>
      <trkpt lat="48.299490" lon="4.026750">
        <time>2017-06-24T17:38:52Z</time>
      </trkpt>
      <trkpt lat="48.299310" lon="4.026920">
        <time>2017-06-24T17:38:53Z</time>
      </trkpt>
      <trkpt lat="48.299110" lon="4.027100">
        <time>2017-06-24T17:38:54Z</time>
      </trkpt>
      <trkpt lat="48.298880" lon="4.027290">
        <time>2017-06-24T17:38:55Z</time>
      </trkpt>
      <trkpt lat="48.298670" lon="4.027460">
        <time>2017-06-24T17:38:56Z</time>
      </trkpt>
      <trkpt lat="48.298450" lon="4.027650">
        <time>2017-06-24T17:38:57Z</time>
      </trkpt>
      <trkpt lat="48.298230" lon="4.027840">
        <time>2017-06-24T17:38:58Z</time>
      </trkpt>
      <trkpt lat="48.298000" lon="4.028020">
        <time>2017-06-24T17:38:59Z</time>
      </trkpt>
      <trkpt lat="48.297760" lon="4.028210">
        <time>2017-06-24T17:39:00Z</time>
      </trkpt>
      <trkpt lat="48.297560" lon="4.028370">
        <time>2017-06-24T17:39:01Z</time>
      </trkpt>
      <trkpt lat="48.297360" lon="4.028540">
        <time>2017-06-24T17:39:02Z</time>
      </trkpt>
      <trkpt lat="48.297140" lon="4.028700">
        <time>2017-06-24T17:39:03Z</time>
      </trkpt>
      <trkpt lat="48.296970" lon="4.028840">
        <time>2017-06-24T17:39:04Z</time>
      </trkpt>
      <trkpt lat="48.296790" lon="4.028990">
        <time>2017-06-24T17:39:05Z</time>
      </trkpt>
      <trkpt lat="48.296590" lon="4.029130">
        <time>2017-06-24T17:39:06Z</time>
      </trkpt>
      <trkpt lat="48.296430" lon="4.029260">
        <time>2017-06-24T17:39:07Z</time>
      </trkpt>
      <trkpt lat="48.296250" lon="4.029410">
        <time>2017-06-24T17:39:08Z</time>
      </trkpt>
      <trkpt lat="48.296100" lon="4.029530">
        <time>2017-06-24T17:39:09Z</time>
      </trkpt>
      <trkpt lat="48.295930" lon="4.029650">
        <time>2017-06-24T17:39:10Z</time>
      </trkpt>
      <trkpt lat="48.295760" lon="4.029780">
        <time>2017-06-24T17:39:11Z</time>
      </trkpt>
      <trkpt lat="48.295620" lon="4.029900">
        <time>2017-06-24T17:39:12Z</time>
      </trkpt>
      <trkpt lat="48.295460" lon="4.030030">
        <time>2017-06-24T17:39:13Z</time>
      </trkpt>
      <trkpt lat="48.295300" lon="4.030150">
        <time>2017-06-24T17:39:14Z</time>
      </trkpt>
      <trkpt lat="48.295160" lon="4.030270">
        <time>2017-06-24T17:39:15Z</time>
      </trkpt>
      <trkpt lat="48.295000" lon="4.030400">
        <time>2017-06-24T17:39:16Z</time>
      </trkpt>
      <trkpt lat="48.294860" lon="4.030510">
        <time>2017-06-24T17:39:17Z</time>
      </trkpt>
      <trkpt lat="48.294700" lon="4.030640">
        <time>2017-06-24T17:39:18Z</time>
      </trkpt>
      <trkpt lat="48.294530" lon="4.030760">
        <time>2017-06-24T17:39:19Z</time>
      </trkpt>
      <trkpt lat="48.294390" lon="4.030870">
        <time>2017-06-24T17:39:20Z</time>
      </trkpt>
      <trkpt lat="48.294240" lon="4.030980">
        <time>2017-06-24T17:39:21Z</time>
      </trkpt>
      <trkpt lat="48.294080" lon="4.031110">
        <time>2017-06-24T17:39:22Z</time>
      </trkpt>
      <trkpt lat="48.293950" lon="4.031210">
        <time>2017-06-24T17:39:23Z</time>
      </trkpt>
      <trkpt lat="48.293800" lon="4.031340">
        <time>2017-06-24T17:39:24Z</time>
      </trkpt>
      <trkpt lat="48.293680" lon="4.031450">
        <time>2017-06-24T17:39:25Z</time>
      </trkpt>
      <trkpt lat="48.293540" lon="4.031580">
        <time>2017-06-24T17:39:26Z</time>
      </trkpt>
      <trkpt lat="48.293390" lon="4.031720">
        <time>2017-06-24T17:39:27Z</time>
      </trkpt>
      <trkpt lat="48.293270" lon="4.031860">
        <time>2017-06-24T17:39:28Z</time>
      </trkpt>
      <trkpt lat="48.293140" lon="4.032000">
        <time>2017-06-24T17:39:29Z</time>
      </trkpt>
      <trkpt lat="48.293030" lon="4.032150">
        <time>2017-06-24T17:39:30Z</time>
      </trkpt>
      <trkpt lat="48.292920" lon="4.032290">
        <time>2017-06-24T17:39:31Z</time>
      </trkpt>
      <trkpt lat="48.292800" lon="4.032460">
        <time>2017-06-24T17:39:32Z</time>
      </trkpt>
      <trkpt lat="48.292700" lon="4.032600">
        <time>2017-06-24T17:39:33Z</time>
      </trkpt>
      <trkpt lat="48.292600" lon="4.032750">
        <time>2017-06-24T17:39:34Z</time>
      </trkpt>
      <trkpt lat="48.292510" lon="4.032900">
        <time>2017-06-24T17:39:35Z</time>
      </trkpt>
      <trkpt lat="48.292430" lon="4.033020">
        <time>2017-06-24T17:39:36Z</time>
      </trkpt>
      <trkpt lat="48.292350" lon="4.033130">
        <time>2017-06-24T17:39:37Z</time>
      </trkpt>
      <trkpt lat="48.292280" lon="4.033240">
        <time>2017-06-24T17:39:38Z</time>
      </trkpt>
      <trkpt lat="48.292220" lon="4.033330">
        <time>2017-06-24T17:39:39Z</time>
      </trkpt>
      <trkpt lat="48.292150" lon="4.033410">
        <time>2017-06-24T17:39:40Z</time>
      </trkpt>
      <trkpt lat="48.292110" lon="4.033490">
        <time>2017-06-24T17:39:41Z</time>
      </trkpt>
      <trkpt lat="48.292060" lon="4.033560">
        <time>2017-06-24T17:39:42Z</time>
      </trkpt>
      <trkpt lat="48.292030" lon="4.033610">
        <time>2017-06-24T17:39:43Z</time>
      </trkpt>
      <trkpt lat="48.292010" lon="4.033630">
        <time>2017-06-24T17:39:44Z</time>
      </trkpt>
      <trkpt lat="48.292000" lon="4.033640">
        <time>2017-06-24T17:39:45Z</time>
      </trkpt>
      <trkpt lat="48.292000" lon="4.033650">
        <time>2017-06-24T17:39:46Z</time>
      </trkpt>
      <trkpt lat="48.292000" lon="4.033650">
        <time>2017-06-24T17:39:47Z</time>
      </trkpt>
      <trkpt lat="48.291990" lon="4.033670">
        <time>2017-06-24T17:39:48Z</time>
      </trkpt>
      <trkpt lat="48.291960" lon="4.033710">
        <time>2017-06-24T17:39:49Z</time>
      </trkpt>
      <trkpt lat="48.291920" lon="4.033760">
        <time>2017-06-24T17:39:50Z</time>
      </trkpt>
      <trkpt lat="48.291860" lon="4.033830">
        <time>2017-06-24T17:39:51Z</time>
      </trkpt>
      <trkpt lat="48.291810" lon="4.033880">
        <time>2017-06-24T17:39:52Z</time>
      </trkpt>
      <trkpt lat="48.291760" lon="4.033900">
        <time>2017-06-24T17:39:53Z</time>
      </trkpt>
      <trkpt lat="48.291710" lon="4.033890">
        <time>2017-06-24T17:39:54Z</time>
      </trkpt>
      <trkpt lat="48.291670" lon="4.033880">
        <time>2017-06-24T17:39:55Z</time>
      </trkpt>
      <trkpt lat="48.291650" lon="4.033870">
        <time>2017-06-24T17:39:56Z</time>
      </trkpt>
      <trkpt lat="48.291640" lon="4.033850">
        <time>2017-06-24T17:39:57Z</time>
      </trkpt>
      <trkpt lat="48.291640" lon="4.033840">
        <time>2017-06-24T17:39:58Z</time>
      </trkpt>
      <trkpt lat="48.291640" lon="4.033840">
        <time>2017-06-24T17:39:59Z</time>
      </trkpt>
      <trkpt lat="48.291640" lon="4.033850">
        <time>2017-06-24T17:40:00Z</time>
      </trkpt>
      <trkpt lat="48.291640" lon="4.033850">
        <time>2017-06-24T17:40:01Z</time>
      </trkpt>
      <trkpt lat="48.291640" lon="4.033850">
        <time>2017-06-24T17:40:02Z</time>
      </trkpt>
      <trkpt lat="48.291640" lon="4.033850">
        <time>2017-06-24T17:40:03Z</time>
      </trkpt>
      <trkpt lat="48.291640" lon="4.033850">
        <time>2017-06-24T17:40:04Z</time>
      </trkpt>
      <trkpt lat="48.291640" lon="4.033850">
        <time>2017-06-24T17:40:05Z</time>
      </trkpt>
      <trkpt lat="48.291640" lon="4.033850">
        <time>2017-06-24T17:40:06Z</time>
      </trkpt>
      <trkpt lat="48.291650" lon="4.033840">
        <time>2017-06-24T17:40:07Z</time>
      </trkpt>
      <trkpt lat="48.291650" lon="4.033840">
        <time>2017-06-24T17:40:08Z</time>
      </trkpt>
      <trkpt lat="48.291650" lon="4.033840">
        <time>2017-06-24T17:40:09Z</time>
      </trkpt>
      <trkpt lat="48.291650" lon="4.033840">
        <time>2017-06-24T17:40:10Z</time>
      </trkpt>
      <trkpt lat="48.291650" lon="4.033840">
        <time>2017-06-24T17:40:11Z</time>
      </trkpt>
      <trkpt lat="48.291650" lon="4.033840">
        <time>2017-06-24T17:40:12Z</time>
      </trkpt>
      <trkpt lat="48.291650" lon="4.033840">
        <time>2017-06-24T17:40:13Z</time>
      </trkpt>
      <trkpt lat="48.291650" lon="4.033840">
        <time>2017-06-24T17:40:14Z</time>
      </trkpt>
      <trkpt lat="48.291650" lon="4.033840">
        <time>2017-06-24T17:40:15Z</time>
      </trkpt>
      <trkpt lat="48.291650" lon="4.033840">
        <time>2017-06-24T17:40:16Z</time>
      </trkpt>
      <trkpt lat="48.291650" lon="4.033840">
        <time>2017-06-24T17:40:17Z</time>
      </trkpt>
      <trkpt lat="48.291650" lon="4.033840">
        <time>2017-06-24T17:40:18Z</time>
      </trkpt>
      <trkpt lat="48.291650" lon="4.033840">
        <time>2017-06-24T17:40:19Z</time>
      </trkpt>
      <trkpt lat="48.291650" lon="4.033840">
        <time>2017-06-24T17:40:20Z</time>
      </trkpt>
      <trkpt lat="48.291650" lon="4.033840">
        <time>2017-06-24T17:40:21Z</time>
      </trkpt>
      <trkpt lat="48.291650" lon="4.033840">
        <time>2017-06-24T17:40:22Z</time>
      </trkpt>
      <trkpt lat="48.291650" lon="4.033840">
        <time>2017-06-24T17:40:23Z</time>
      </trkpt>
      <trkpt lat="48.291650" lon="4.033840">
        <time>2017-06-24T17:40:24Z</time>
      </trkpt>
      <trkpt lat="48.291650" lon="4.033840">
        <time>2017-06-24T17:40:25Z</time>
      </trkpt>
      <trkpt lat="48.291650" lon="4.033840">
        <time>2017-06-24T17:40:26Z</time>
      </trkpt>
      <trkpt lat="48.291650" lon="4.033840">
        <time>2017-06-24T17:40:27Z</time>
      </trkpt>
      <trkpt lat="48.291650" lon="4.033840">
        <time>2017-06-24T17:40:28Z</time>
      </trkpt>
      <trkpt lat="48.291650" lon="4.033840">
        <time>2017-06-24T17:40:29Z</time>
      </trkpt>
      <trkpt lat="48.291650" lon="4.033840">
        <time>2017-06-24T17:40:30Z</time>
      </trkpt>
      <trkpt lat="48.291650" lon="4.033840">
        <time>2017-06-24T17:40:31Z</time>
      </trkpt>
      <trkpt lat="48.291650" lon="4.033840">
        <time>2017-06-24T17:40:32Z</time>
      </trkpt>
      <trkpt lat="48.291650" lon="4.033840">
        <time>2017-06-24T17:40:33Z</time>
      </trkpt>
      <trkpt lat="48.291650" lon="4.033840">
        <time>2017-06-24T17:40:34Z</time>
      </trkpt>
      <trkpt lat="48.291650" lon="4.033840">
        <time>2017-06-24T17:40:35Z</time>
      </trkpt>
      <trkpt lat="48.291640" lon="4.033850">
        <time>2017-06-24T17:40:36Z</time>
      </trkpt>
      <trkpt lat="48.291640" lon="4.033850">
        <time>2017-06-24T17:40:37Z</time>
      </trkpt>
      <trkpt lat="48.291620" lon="4.033830">
        <time>2017-06-24T17:40:38Z</time>
      </trkpt>
      <trkpt lat="48.291600" lon="4.033800">
        <time>2017-06-24T17:40:39Z</time>
      </trkpt>
      <trkpt lat="48.291570" lon="4.033760">
        <time>2017-06-24T17:40:40Z</time>
      </trkpt>
      <trkpt lat="48.291530" lon="4.033650">
        <time>2017-06-24T17:40:41Z</time>
      </trkpt>
      <trkpt lat="48.291500" lon="4.033530">
        <time>2017-06-24T17:40:42Z</time>
      </trkpt>
      <trkpt lat="48.291480" lon="4.033410">
        <time>2017-06-24T17:40:43Z</time>
      </trkpt>
      <trkpt lat="48.291460" lon="4.033250">
        <time>2017-06-24T17:40:44Z</time>
      </trkpt>
      <trkpt lat="48.291450" lon="4.033090">
        <time>2017-06-24T17:40:45Z</time>
      </trkpt>
      <trkpt lat="48.291440" lon="4.032930">
        <time>2017-06-24T17:40:46Z</time>
      </trkpt>
      <trkpt lat="48.291420" lon="4.032750">
        <time>2017-06-24T17:40:47Z</time>
      </trkpt>
      <trkpt lat="48.291410" lon="4.032590">
        <time>2017-06-24T17:40:48Z</time>
      </trkpt>
      <trkpt lat="48.291400" lon="4.032400">
        <time>2017-06-24T17:40:49Z</time>
      </trkpt>
      <trkpt lat="48.291390" lon="4.032220">
        <time>2017-06-24T17:40:50Z</time>
      </trkpt>
      <trkpt lat="48.291370" lon="4.032040">
        <time>2017-06-24T17:40:51Z</time>
      </trkpt>
      <trkpt lat="48.291360" lon="4.031830">
        <time>2017-06-24T17:40:52Z</time>
      </trkpt>
      <trkpt lat="48.291350" lon="4.031650">
        <time>2017-06-24T17:40:53Z</time>
      </trkpt>
      <trkpt lat="48.291340" lon="4.031460">
        <time>2017-06-24T17:40:54Z</time>
      </trkpt>
      <trkpt lat="48.291320" lon="4.031250">
        <time>2017-06-24T17:40:55Z</time>
      </trkpt>
      <trkpt lat="48.291310" lon="4.031070">
        <time>2017-06-24T17:40:56Z</time>
      </trkpt>
      <trkpt lat="48.291300" lon="4.030880">
        <time>2017-06-24T17:40:57Z</time>
      </trkpt>
      <trkpt lat="48.291290" lon="4.030680">
        <time>2017-06-24T17:40:58Z</time>
      </trkpt>
      <trkpt lat="48.291280" lon="4.030520">
        <time>2017-06-24T17:40:59Z</time>
      </trkpt>
      <trkpt lat="48.291280" lon="4.030330">
        <time>2017-06-24T17:41:00Z</time>
      </trkpt>
      <trkpt lat="48.291270" lon="4.030180">
        <time>2017-06-24T17:41:01Z</time>
      </trkpt>
      <trkpt lat="48.291270" lon="4.030030">
        <time>2017-06-24T17:41:02Z</time>
      </trkpt>
      <trkpt lat="48.291260" lon="4.029880">
        <time>2017-06-24T17:41:03Z</time>
      </trkpt>
      <trkpt lat="48.291250" lon="4.029760">
        <time>2017-06-24T17:41:04Z</time>
      </trkpt>
      <trkpt lat="48.291240" lon="4.029630">
        <time>2017-06-24T17:41:05Z</time>
      </trkpt>
      <trkpt lat="48.291230" lon="4.029510">
        <time>2017-06-24T17:41:06Z</time>
      </trkpt>
      <trkpt lat="48.291220" lon="4.029420">
        <time>2017-06-24T17:41:07Z</time>
      </trkpt>
      <trkpt lat="48.291220" lon="4.029350">
        <time>2017-06-24T17:41:08Z</time>
      </trkpt>
      <trkpt lat="48.291230" lon="4.029310">
        <time>2017-06-24T17:41:09Z</time>
      </trkpt>
      <trkpt lat="48.291240" lon="4.029280">
        <time>2017-06-24T17:41:10Z</time>
      </trkpt>
      <trkpt lat="48.291270" lon="4.029250">
        <time>2017-06-24T17:41:11Z</time>
      </trkpt>
      <trkpt lat="48.291290" lon="4.029240">
        <time>2017-06-24T17:41:12Z</time>
      </trkpt>
      <trkpt lat="48.291320" lon="4.029220">
        <time>2017-06-24T17:41:13Z</time>
      </trkpt>
      <trkpt lat="48.291360" lon="4.029200">
        <time>2017-06-24T17:41:14Z</time>
      </trkpt>
      <trkpt lat="48.291390" lon="4.029190">
        <time>2017-06-24T17:41:15Z</time>
      </trkpt>
      <trkpt lat="48.291430" lon="4.029170">
        <time>2017-06-24T17:41:16Z</time>
      </trkpt>
      <trkpt lat="48.291470" lon="4.029150">
        <time>2017-06-24T17:41:17Z</time>
      </trkpt>
      <trkpt lat="48.291510" lon="4.029130">
        <time>2017-06-24T17:41:18Z</time>
      </trkpt>
      <trkpt lat="48.291560" lon="4.029090">
        <time>2017-06-24T17:41:19Z</time>
      </trkpt>
      <trkpt lat="48.291590" lon="4.029070">
        <time>2017-06-24T17:41:20Z</time>
      </trkpt>
      <trkpt lat="48.291630" lon="4.029050">
        <time>2017-06-24T17:41:21Z</time>
      </trkpt>
      <trkpt lat="48.291660" lon="4.029050">
        <time>2017-06-24T17:41:22Z</time>
      </trkpt>
      <trkpt lat="48.291700" lon="4.029050">
        <time>2017-06-24T17:41:23Z</time>
      </trkpt>
      <trkpt lat="48.291730" lon="4.029050">
        <time>2017-06-24T17:41:24Z</time>
      </trkpt>
      <trkpt lat="48.291750" lon="4.029090">
        <time>2017-06-24T17:41:25Z</time>
      </trkpt>
      <trkpt lat="48.291760" lon="4.029130">
        <time>2017-06-24T17:41:26Z</time>
      </trkpt>
      <trkpt lat="48.291760" lon="4.029180">
        <time>2017-06-24T17:41:27Z</time>
      </trkpt>
      <trkpt lat="48.291760" lon="4.029210">
        <time>2017-06-24T17:41:28Z</time>
      </trkpt>
      <trkpt lat="48.291780" lon="4.029230">
        <time>2017-06-24T17:41:29Z</time>
      </trkpt>
      <trkpt lat="48.291800" lon="4.029240">
        <time>2017-06-24T17:41:30Z</time>
      </trkpt>
      <trkpt lat="48.291810" lon="4.029230">
        <time>2017-06-24T17:41:31Z</time>
      </trkpt>
      <trkpt lat="48.291830" lon="4.029220">
        <time>2017-06-24T17:41:32Z</time>
      </trkpt>
      <trkpt lat="48.291830" lon="4.029220">
        <time>2017-06-24T17:41:33Z</time>
      </trkpt>
      <trkpt lat="48.291830" lon="4.029220">
        <time>2017-06-24T17:41:34Z</time>
      </trkpt>
      <trkpt lat="48.291830" lon="4.029220">
        <time>2017-06-24T17:41:35Z</time>
      </trkpt>
      <trkpt lat="48.291830" lon="4.029220">
        <time>2017-06-24T17:41:36Z</time>
      </trkpt>
      <trkpt lat="48.291830" lon="4.029220">
        <time>2017-06-24T17:41:37Z</time>
      </trkpt>
      <trkpt lat="48.291830" lon="4.029220">
        <time>2017-06-24T17:41:38Z</time>
      </trkpt>
      <trkpt lat="48.291830" lon="4.029220">
        <time>2017-06-24T17:41:39Z</time>
      </trkpt>
      <trkpt lat="48.291830" lon="4.029220">
        <time>2017-06-24T17:41:40Z</time>
      </trkpt>
      <trkpt lat="48.291830" lon="4.029220">
        <time>2017-06-24T17:41:41Z</time>
      </trkpt>
      <trkpt lat="48.291830" lon="4.029220">
        <time>2017-06-24T17:41:42Z</time>
      </trkpt>
      <trkpt lat="48.291830" lon="4.029220">
        <time>2017-06-24T17:41:43Z</time>
      </trkpt>
      <trkpt lat="48.291830" lon="4.029220">
        <time>2017-06-24T17:41:44Z</time>
      </trkpt>
      <trkpt lat="48.291830" lon="4.029220">
        <time>2017-06-24T17:41:45Z</time>
      </trkpt>
      <trkpt lat="48.291830" lon="4.029220">
        <time>2017-06-24T17:41:46Z</time>
      </trkpt>
      <trkpt lat="48.291830" lon="4.029220">
        <time>2017-06-24T17:41:47Z</time>
      </trkpt>
      <trkpt lat="48.291830" lon="4.029220">
        <time>2017-06-24T17:41:48Z</time>
      </trkpt>
      <trkpt lat="48.291830" lon="4.029220">
        <time>2017-06-24T17:41:49Z</time>
      </trkpt>
      <trkpt lat="48.291830" lon="4.029220">
        <time>2017-06-24T17:41:50Z</time>
      </trkpt>
      <trkpt lat="48.291830" lon="4.029220">
        <time>2017-06-24T17:41:51Z</time>
      </trkpt>
      <trkpt lat="48.291830" lon="4.029220">
        <time>2017-06-24T17:41:52Z</time>
      </trkpt>
      <trkpt lat="48.291830" lon="4.029220">
        <time>2017-06-24T17:41:53Z</time>
      </trkpt>
      <trkpt lat="48.291830" lon="4.029220">
        <time>2017-06-24T17:41:54Z</time>
      </trkpt>
      <trkpt lat="48.291830" lon="4.029220">
        <time>2017-06-24T17:41:55Z</time>
      </trkpt>
      <trkpt lat="48.291830" lon="4.029220">
        <time>2017-06-24T17:41:56Z</time>
      </trkpt>
      <trkpt lat="48.291830" lon="4.029220">
        <time>2017-06-24T17:41:57Z</time>
      </trkpt>
      <trkpt lat="48.291830" lon="4.029220">
        <time>2017-06-24T17:41:58Z</time>
      </trkpt>
      <trkpt lat="48.291830" lon="4.029220">
        <time>2017-06-24T17:41:59Z</time>
      </trkpt>
      <trkpt lat="48.291830" lon="4.029220">
        <time>2017-06-24T17:42:00Z</time>
      </trkpt>
      <trkpt lat="48.291830" lon="4.029220">
        <time>2017-06-24T17:42:01Z</time>
      </trkpt>
      <trkpt lat="48.291830" lon="4.029220">
        <time>2017-06-24T17:42:02Z</time>
      </trkpt>
      <trkpt lat="48.291830" lon="4.029220">
        <time>2017-06-24T17:42:03Z</time>
      </trkpt>
      <trkpt lat="48.291830" lon="4.029220">
        <time>2017-06-24T17:42:04Z</time>
      </trkpt>
      <trkpt lat="48.291830" lon="4.029220">
        <time>2017-06-24T17:42:05Z</time>
      </trkpt>
      <trkpt lat="48.291830" lon="4.029220">
        <time>2017-06-24T17:42:06Z</time>
      </trkpt>
      <trkpt lat="48.291830" lon="4.029220">
        <time>2017-06-24T17:42:07Z</time>
      </trkpt>
      <trkpt lat="48.291830" lon="4.029220">
        <time>2017-06-24T17:42:08Z</time>
      </trkpt>
      <trkpt lat="48.291830" lon="4.029220">
        <time>2017-06-24T17:42:09Z</time>
      </trkpt>
      <trkpt lat="48.291830" lon="4.029220">
        <time>2017-06-24T17:42:10Z</time>
      </trkpt>
      <trkpt lat="48.291830" lon="4.029220">
        <time>2017-06-24T17:42:11Z</time>
      </trkpt>
      <trkpt lat="48.291830" lon="4.029220">
        <time>2017-06-24T17:42:12Z</time>
      </trkpt>
      <trkpt lat="48.291830" lon="4.029220">
        <time>2017-06-24T17:42:13Z</time>
      </trkpt>
      <trkpt lat="48.291830" lon="4.029220">
        <time>2017-06-24T17:42:14Z</time>
      </trkpt>
      <trkpt lat="48.291830" lon="4.029220">
        <time>2017-06-24T17:42:15Z</time>
      </trkpt>
      <trkpt lat="48.291830" lon="4.029220">
        <time>2017-06-24T17:42:16Z</time>
      </trkpt>
      <trkpt lat="48.291830" lon="4.029220">
        <time>2017-06-24T17:42:17Z</time>
      </trkpt>
      <trkpt lat="48.291830" lon="4.029220">
        <time>2017-06-24T17:42:18Z</time>
      </trkpt>
      <trkpt lat="48.291830" lon="4.029220">
        <time>2017-06-24T17:42:19Z</time>
      </trkpt>
      <trkpt lat="48.291830" lon="4.029220">
        <time>2017-06-24T17:42:20Z</time>
      </trkpt>
      <trkpt lat="48.291830" lon="4.029220">
        <time>2017-06-24T17:42:21Z</time>
      </trkpt>
      <trkpt lat="48.291830" lon="4.029220">
        <time>2017-06-24T17:42:22Z</time>
      </trkpt>
      <trkpt lat="48.291830" lon="4.029220">
        <time>2017-06-24T17:42:23Z</time>
      </trkpt>
      <trkpt lat="48.291830" lon="4.029220">
        <time>2017-06-24T17:42:24Z</time>
      </trkpt>
      <trkpt lat="48.291830" lon="4.029220">
        <time>2017-06-24T17:42:25Z</time>
      </trkpt>
      <trkpt lat="48.291830" lon="4.029220">
        <time>2017-06-24T17:42:26Z</time>
      </trkpt>
      <trkpt lat="48.291830" lon="4.029220">
        <time>2017-06-24T17:42:27Z</time>
      </trkpt>
      <trkpt lat="48.291830" lon="4.029220">
        <time>2017-06-24T17:42:28Z</time>
      </trkpt>
      <trkpt lat="48.291830" lon="4.029220">
        <time>2017-06-24T17:42:29Z</time>
      </trkpt>
      <trkpt lat="48.291830" lon="4.029220">
        <time>2017-06-24T17:42:30Z</time>
      </trkpt>
      <trkpt lat="48.291830" lon="4.029220">
        <time>2017-06-24T17:42:31Z</time>
      </trkpt>
      <trkpt lat="48.291830" lon="4.029220">
        <time>2017-06-24T17:42:32Z</time>
      </trkpt>
      <trkpt lat="48.291830" lon="4.029220">
        <time>2017-06-24T17:42:33Z</time>
      </trkpt>
      <trkpt lat="48.291830" lon="4.029220">
        <time>2017-06-24T17:42:34Z</time>
      </trkpt>
      <trkpt lat="48.291830" lon="4.029220">
        <time>2017-06-24T17:42:35Z</time>
      </trkpt>
    </trkseg>
  </trk>
</gpx>
